<?xml version="1.0" encoding="UTF-8"?>
<gpx version="1.1" creator="https://www.youtrack.es" xsi:schemaLocation="http://www.topografix.com/GPX/1/1 http://www.topografix.com/GPX/1/1/gpx.xsd http://www.garmin.com/xmlschemas/GpxExtensions/v3 http://www.garmin.com/xmlschemas/GpxExtensionsv3.xsd http://www.garmin.com/xmlschemas/TrackPointExtension/v1 http://www.garmin.com/xmlschemas/TrackPointExtensionv1.xsd" xmlns:gpxtpx="http://www.garmin.com/xmlschemas/TrackPointExtension/v1" xmlns:gpxx="http://www.garmin.com/xmlschemas/GpxExtensions/v3" xmlns:xsi="http://www.w3.org/2001/XMLSchema-instance">
  <metadata>
    <author>
      <name>Antonio Parra</name>
      <email id="aparrafer" domain="gmail.com"/>
    </author>
    <link href="https://www.youtrack.es">
      <text>YouTrack.es</text>
    </link>
    <time>2026-05-08T05:04:59Z</time>
  </metadata>
  <trk>
    <src>https://www.youtrack.es</src>
    <link href="https://www.youtrack.es/ruta/20836-ugao-sarasola-zeanuri-ermitabarri">
      <text>YouTrack.es</text>
    </link>
    <trkseg>
      <trkpt lat="43.1749088" lon="-2.9015647">
        <ele>69.554</ele>
        <time>2021-04-01T07:35:16.943Z</time>
      </trkpt>
      <trkpt lat="43.1749088" lon="-2.9015647">
        <ele>69.554</ele>
        <time>2021-04-01T07:35:18.959Z</time>
      </trkpt>
      <trkpt lat="43.1748903" lon="-2.9015691">
        <ele>69.195</ele>
        <time>2021-04-01T07:35:19.240Z</time>
      </trkpt>
      <trkpt lat="43.1749041" lon="-2.9015661">
        <ele>69.485</ele>
        <time>2021-04-01T07:35:19.522Z</time>
      </trkpt>
      <trkpt lat="43.1748746" lon="-2.9015719">
        <ele>69.112</ele>
        <time>2021-04-01T07:35:19.804Z</time>
      </trkpt>
      <trkpt lat="43.1748823" lon="-2.9015706">
        <ele>69.158</ele>
        <time>2021-04-01T07:35:20.086Z</time>
      </trkpt>
      <trkpt lat="43.1748746" lon="-2.9015719">
        <ele>69.112</ele>
        <time>2021-04-01T07:35:20.368Z</time>
      </trkpt>
      <trkpt lat="43.1748823" lon="-2.9015706">
        <ele>69.158</ele>
        <time>2021-04-01T07:35:20.650Z</time>
      </trkpt>
      <trkpt lat="43.1748746" lon="-2.9015719">
        <ele>69.112</ele>
        <time>2021-04-01T07:35:20.932Z</time>
      </trkpt>
      <trkpt lat="43.1748016" lon="-2.9015818">
        <ele>68.759</ele>
        <time>2021-04-01T07:35:21.214Z</time>
      </trkpt>
      <trkpt lat="43.1748016" lon="-2.9015818">
        <ele>68.759</ele>
        <time>2021-04-01T07:35:22.699Z</time>
      </trkpt>
      <trkpt lat="43.1746572" lon="-2.9015849">
        <ele>67.528</ele>
        <time>2021-04-01T07:35:24.184Z</time>
      </trkpt>
      <trkpt lat="43.1746425" lon="-2.9015845">
        <ele>67.578</ele>
        <time>2021-04-01T07:35:24.899Z</time>
      </trkpt>
      <trkpt lat="43.1746203" lon="-2.9015829">
        <ele>67.519</ele>
        <time>2021-04-01T07:35:25.302Z</time>
      </trkpt>
      <trkpt lat="43.1745724" lon="-2.9015785">
        <ele>67.585</ele>
        <time>2021-04-01T07:35:25.706Z</time>
      </trkpt>
      <trkpt lat="43.1745615" lon="-2.9015773">
        <ele>67.549</ele>
        <time>2021-04-01T07:35:26.109Z</time>
      </trkpt>
      <trkpt lat="43.1745724" lon="-2.9015785">
        <ele>67.585</ele>
        <time>2021-04-01T07:35:26.513Z</time>
      </trkpt>
      <trkpt lat="43.1745615" lon="-2.9015773">
        <ele>67.549</ele>
        <time>2021-04-01T07:35:26.916Z</time>
      </trkpt>
      <trkpt lat="43.1744995" lon="-2.9015719">
        <ele>67.227</ele>
        <time>2021-04-01T07:35:27.320Z</time>
      </trkpt>
      <trkpt lat="43.1744927" lon="-2.9015717">
        <ele>67.04</ele>
        <time>2021-04-01T07:35:27.553Z</time>
      </trkpt>
      <trkpt lat="43.1744927" lon="-2.9015717">
        <ele>67.04</ele>
        <time>2021-04-01T07:35:27.787Z</time>
      </trkpt>
      <trkpt lat="43.1744927" lon="-2.9015717">
        <ele>67.04</ele>
        <time>2021-04-01T07:35:28.021Z</time>
      </trkpt>
      <trkpt lat="43.174453" lon="-2.901569">
        <ele>67.022</ele>
        <time>2021-04-01T07:35:30.070Z</time>
      </trkpt>
      <trkpt lat="43.1744135" lon="-2.9015668">
        <ele>67.297</ele>
        <time>2021-04-01T07:35:30.180Z</time>
      </trkpt>
      <trkpt lat="43.174408" lon="-2.9015669">
        <ele>67.275</ele>
        <time>2021-04-01T07:35:30.290Z</time>
      </trkpt>
      <trkpt lat="43.1744054" lon="-2.9015667">
        <ele>67.231</ele>
        <time>2021-04-01T07:35:30.400Z</time>
      </trkpt>
      <trkpt lat="43.1744025" lon="-2.9015667">
        <ele>67.229</ele>
        <time>2021-04-01T07:35:30.510Z</time>
      </trkpt>
      <trkpt lat="43.174408" lon="-2.9015669">
        <ele>67.275</ele>
        <time>2021-04-01T07:35:30.620Z</time>
      </trkpt>
      <trkpt lat="43.1744054" lon="-2.9015667">
        <ele>67.231</ele>
        <time>2021-04-01T07:35:30.730Z</time>
      </trkpt>
      <trkpt lat="43.1744025" lon="-2.9015667">
        <ele>67.229</ele>
        <time>2021-04-01T07:35:30.840Z</time>
      </trkpt>
      <trkpt lat="43.174408" lon="-2.9015669">
        <ele>67.275</ele>
        <time>2021-04-01T07:35:30.950Z</time>
      </trkpt>
      <trkpt lat="43.1744054" lon="-2.9015667">
        <ele>67.231</ele>
        <time>2021-04-01T07:35:31.060Z</time>
      </trkpt>
      <trkpt lat="43.1744025" lon="-2.9015667">
        <ele>67.229</ele>
        <time>2021-04-01T07:35:31.170Z</time>
      </trkpt>
      <trkpt lat="43.1742958" lon="-2.9015634">
        <ele>67.425</ele>
        <time>2021-04-01T07:35:33.865Z</time>
      </trkpt>
      <trkpt lat="43.1741527" lon="-2.9015615">
        <ele>67.269</ele>
        <time>2021-04-01T07:35:34.016Z</time>
      </trkpt>
      <trkpt lat="43.1741527" lon="-2.9015615">
        <ele>67.269</ele>
        <time>2021-04-01T07:35:34.167Z</time>
      </trkpt>
      <trkpt lat="43.1741527" lon="-2.9015615">
        <ele>67.269</ele>
        <time>2021-04-01T07:35:34.318Z</time>
      </trkpt>
      <trkpt lat="43.1741221" lon="-2.9015623">
        <ele>67.051</ele>
        <time>2021-04-01T07:35:34.470Z</time>
      </trkpt>
      <trkpt lat="43.1739188" lon="-2.9015532">
        <ele>67.352</ele>
        <time>2021-04-01T07:35:38.155Z</time>
      </trkpt>
      <trkpt lat="43.1739119" lon="-2.9015524">
        <ele>67.4</ele>
        <time>2021-04-01T07:35:38.573Z</time>
      </trkpt>
      <trkpt lat="43.1739056" lon="-2.9015514">
        <ele>67.4</ele>
        <time>2021-04-01T07:35:38.991Z</time>
      </trkpt>
      <trkpt lat="43.1739119" lon="-2.9015524">
        <ele>67.4</ele>
        <time>2021-04-01T07:35:39.409Z</time>
      </trkpt>
      <trkpt lat="43.1739056" lon="-2.9015514">
        <ele>67.4</ele>
        <time>2021-04-01T07:35:39.827Z</time>
      </trkpt>
      <trkpt lat="43.1737998" lon="-2.9015344">
        <ele>67.459</ele>
        <time>2021-04-01T07:35:41.070Z</time>
      </trkpt>
      <trkpt lat="43.1737487" lon="-2.9015172">
        <ele>68.098</ele>
        <time>2021-04-01T07:35:41.260Z</time>
      </trkpt>
      <trkpt lat="43.1737267" lon="-2.9015067">
        <ele>68.437</ele>
        <time>2021-04-01T07:35:41.450Z</time>
      </trkpt>
      <trkpt lat="43.1737205" lon="-2.9015035">
        <ele>68.525</ele>
        <time>2021-04-01T07:35:41.640Z</time>
      </trkpt>
      <trkpt lat="43.1737357" lon="-2.9015111">
        <ele>68.329</ele>
        <time>2021-04-01T07:35:41.830Z</time>
      </trkpt>
      <trkpt lat="43.1737296" lon="-2.9015081">
        <ele>68.436</ele>
        <time>2021-04-01T07:35:42.020Z</time>
      </trkpt>
      <trkpt lat="43.1737267" lon="-2.9015067">
        <ele>68.437</ele>
        <time>2021-04-01T07:35:42.210Z</time>
      </trkpt>
      <trkpt lat="43.1737205" lon="-2.9015035">
        <ele>68.525</ele>
        <time>2021-04-01T07:35:42.400Z</time>
      </trkpt>
      <trkpt lat="43.1737296" lon="-2.9015081">
        <ele>68.436</ele>
        <time>2021-04-01T07:35:42.590Z</time>
      </trkpt>
      <trkpt lat="43.1737267" lon="-2.9015067">
        <ele>68.437</ele>
        <time>2021-04-01T07:35:42.780Z</time>
      </trkpt>
      <trkpt lat="43.1737205" lon="-2.9015035">
        <ele>68.525</ele>
        <time>2021-04-01T07:35:42.970Z</time>
      </trkpt>
      <trkpt lat="43.1736381" lon="-2.9014485">
        <ele>68.325</ele>
        <time>2021-04-01T07:35:43.160Z</time>
      </trkpt>
      <trkpt lat="43.1734892" lon="-2.9012959">
        <ele>68.889</ele>
        <time>2021-04-01T07:35:47.450Z</time>
      </trkpt>
      <trkpt lat="43.1734383" lon="-2.9012363">
        <ele>69.066</ele>
        <time>2021-04-01T07:35:48.073Z</time>
      </trkpt>
      <trkpt lat="43.1734383" lon="-2.9012363">
        <ele>69.066</ele>
        <time>2021-04-01T07:35:48.696Z</time>
      </trkpt>
      <trkpt lat="43.1733567" lon="-2.9011404">
        <ele>68.829</ele>
        <time>2021-04-01T07:35:51.355Z</time>
      </trkpt>
      <trkpt lat="43.1732676" lon="-2.9010382">
        <ele>69.041</ele>
        <time>2021-04-01T07:35:51.556Z</time>
      </trkpt>
      <trkpt lat="43.1732676" lon="-2.9010382">
        <ele>69.041</ele>
        <time>2021-04-01T07:35:51.758Z</time>
      </trkpt>
      <trkpt lat="43.1732419" lon="-2.9010084">
        <ele>69.025</ele>
        <time>2021-04-01T07:35:51.960Z</time>
      </trkpt>
      <trkpt lat="43.1732237" lon="-2.9009882">
        <ele>68.889</ele>
        <time>2021-04-01T07:35:52.262Z</time>
      </trkpt>
      <trkpt lat="43.173222" lon="-2.9009855">
        <ele>68.835</ele>
        <time>2021-04-01T07:35:52.565Z</time>
      </trkpt>
      <trkpt lat="43.1732304" lon="-2.900996">
        <ele>68.933</ele>
        <time>2021-04-01T07:35:52.867Z</time>
      </trkpt>
      <trkpt lat="43.1732113" lon="-2.9009721">
        <ele>68.733</ele>
        <time>2021-04-01T07:35:53.170Z</time>
      </trkpt>
      <trkpt lat="43.1732202" lon="-2.9009832">
        <ele>68.823</ele>
        <time>2021-04-01T07:35:53.472Z</time>
      </trkpt>
      <trkpt lat="43.1732113" lon="-2.9009721">
        <ele>68.733</ele>
        <time>2021-04-01T07:35:53.775Z</time>
      </trkpt>
      <trkpt lat="43.1732113" lon="-2.9009721">
        <ele>68.733</ele>
        <time>2021-04-01T07:35:54.077Z</time>
      </trkpt>
      <trkpt lat="43.1731457" lon="-2.9008918">
        <ele>68.695</ele>
        <time>2021-04-01T07:35:55.535Z</time>
      </trkpt>
      <trkpt lat="43.1730199" lon="-2.9007418">
        <ele>68.632</ele>
        <time>2021-04-01T07:35:57.515Z</time>
      </trkpt>
      <trkpt lat="43.1730158" lon="-2.9007364">
        <ele>68.63</ele>
        <time>2021-04-01T07:35:57.745Z</time>
      </trkpt>
      <trkpt lat="43.173014" lon="-2.9007342">
        <ele>68.568</ele>
        <time>2021-04-01T07:35:57.975Z</time>
      </trkpt>
      <trkpt lat="43.1730223" lon="-2.9007443">
        <ele>68.63</ele>
        <time>2021-04-01T07:35:58.205Z</time>
      </trkpt>
      <trkpt lat="43.1730199" lon="-2.9007418">
        <ele>68.632</ele>
        <time>2021-04-01T07:35:58.435Z</time>
      </trkpt>
      <trkpt lat="43.1730158" lon="-2.9007364">
        <ele>68.63</ele>
        <time>2021-04-01T07:35:58.665Z</time>
      </trkpt>
      <trkpt lat="43.173014" lon="-2.9007342">
        <ele>68.568</ele>
        <time>2021-04-01T07:35:58.895Z</time>
      </trkpt>
      <trkpt lat="43.1730223" lon="-2.9007443">
        <ele>68.63</ele>
        <time>2021-04-01T07:35:59.125Z</time>
      </trkpt>
      <trkpt lat="43.1730199" lon="-2.9007418">
        <ele>68.632</ele>
        <time>2021-04-01T07:35:59.355Z</time>
      </trkpt>
      <trkpt lat="43.1730158" lon="-2.9007364">
        <ele>68.63</ele>
        <time>2021-04-01T07:35:59.585Z</time>
      </trkpt>
      <trkpt lat="43.173014" lon="-2.9007342">
        <ele>68.568</ele>
        <time>2021-04-01T07:35:59.815Z</time>
      </trkpt>
      <trkpt lat="43.1729162" lon="-2.9006253">
        <ele>68.698</ele>
        <time>2021-04-01T07:36:00.045Z</time>
      </trkpt>
      <trkpt lat="43.1729014" lon="-2.9006067">
        <ele>68.692</ele>
        <time>2021-04-01T07:36:00.271Z</time>
      </trkpt>
      <trkpt lat="43.1728933" lon="-2.9005968">
        <ele>68.665</ele>
        <time>2021-04-01T07:36:00.497Z</time>
      </trkpt>
      <trkpt lat="43.1729118" lon="-2.9006201">
        <ele>68.717</ele>
        <time>2021-04-01T07:36:00.723Z</time>
      </trkpt>
      <trkpt lat="43.1729014" lon="-2.9006067">
        <ele>68.692</ele>
        <time>2021-04-01T07:36:00.949Z</time>
      </trkpt>
      <trkpt lat="43.1728933" lon="-2.9005968">
        <ele>68.665</ele>
        <time>2021-04-01T07:36:01.175Z</time>
      </trkpt>
      <trkpt lat="43.1729118" lon="-2.9006201">
        <ele>68.717</ele>
        <time>2021-04-01T07:36:01.401Z</time>
      </trkpt>
      <trkpt lat="43.1729014" lon="-2.9006067">
        <ele>68.692</ele>
        <time>2021-04-01T07:36:01.627Z</time>
      </trkpt>
      <trkpt lat="43.1728933" lon="-2.9005968">
        <ele>68.665</ele>
        <time>2021-04-01T07:36:01.853Z</time>
      </trkpt>
      <trkpt lat="43.1728403" lon="-2.9005324">
        <ele>68.278</ele>
        <time>2021-04-01T07:36:03.180Z</time>
      </trkpt>
      <trkpt lat="43.1727926" lon="-2.9004779">
        <ele>68.067</ele>
        <time>2021-04-01T07:36:03.468Z</time>
      </trkpt>
      <trkpt lat="43.1727969" lon="-2.9004833">
        <ele>68.055</ele>
        <time>2021-04-01T07:36:03.757Z</time>
      </trkpt>
      <trkpt lat="43.1727926" lon="-2.9004779">
        <ele>68.067</ele>
        <time>2021-04-01T07:36:04.046Z</time>
      </trkpt>
      <trkpt lat="43.1727538" lon="-2.90043">
        <ele>67.758</ele>
        <time>2021-04-01T07:36:06.590Z</time>
      </trkpt>
      <trkpt lat="43.1726614" lon="-2.9003248">
        <ele>67.675</ele>
        <time>2021-04-01T07:36:06.964Z</time>
      </trkpt>
      <trkpt lat="43.1726461" lon="-2.9003038">
        <ele>67.484</ele>
        <time>2021-04-01T07:36:07.338Z</time>
      </trkpt>
      <trkpt lat="43.1726614" lon="-2.9003248">
        <ele>67.675</ele>
        <time>2021-04-01T07:36:07.712Z</time>
      </trkpt>
      <trkpt lat="43.1726461" lon="-2.9003038">
        <ele>67.484</ele>
        <time>2021-04-01T07:36:08.086Z</time>
      </trkpt>
      <trkpt lat="43.1725907" lon="-2.900236">
        <ele>67.136</ele>
        <time>2021-04-01T07:36:08.460Z</time>
      </trkpt>
      <trkpt lat="43.1726065" lon="-2.9002545">
        <ele>67.125</ele>
        <time>2021-04-01T07:36:08.748Z</time>
      </trkpt>
      <trkpt lat="43.1725952" lon="-2.9002416">
        <ele>67.098</ele>
        <time>2021-04-01T07:36:09.037Z</time>
      </trkpt>
      <trkpt lat="43.1725907" lon="-2.900236">
        <ele>67.136</ele>
        <time>2021-04-01T07:36:09.326Z</time>
      </trkpt>
      <trkpt lat="43.1725448" lon="-2.9001803">
        <ele>67.099</ele>
        <time>2021-04-01T07:36:11.430Z</time>
      </trkpt>
      <trkpt lat="43.1724734" lon="-2.9000945">
        <ele>66.934</ele>
        <time>2021-04-01T07:36:11.883Z</time>
      </trkpt>
      <trkpt lat="43.1724892" lon="-2.900112">
        <ele>67.003</ele>
        <time>2021-04-01T07:36:12.337Z</time>
      </trkpt>
      <trkpt lat="43.1724734" lon="-2.9000945">
        <ele>66.934</ele>
        <time>2021-04-01T07:36:12.791Z</time>
      </trkpt>
      <trkpt lat="43.1724043" lon="-2.9000101">
        <ele>66.338</ele>
        <time>2021-04-01T07:36:14.455Z</time>
      </trkpt>
      <trkpt lat="43.1723596" lon="-2.8999536">
        <ele>65.681</ele>
        <time>2021-04-01T07:36:15.016Z</time>
      </trkpt>
      <trkpt lat="43.1723569" lon="-2.8999512">
        <ele>65.683</ele>
        <time>2021-04-01T07:36:15.577Z</time>
      </trkpt>
      <trkpt lat="43.1723596" lon="-2.8999536">
        <ele>65.681</ele>
        <time>2021-04-01T07:36:16.138Z</time>
      </trkpt>
      <trkpt lat="43.1723569" lon="-2.8999512">
        <ele>65.683</ele>
        <time>2021-04-01T07:36:16.699Z</time>
      </trkpt>
      <trkpt lat="43.1722406" lon="-2.8998222">
        <ele>65.51</ele>
        <time>2021-04-01T07:36:17.590Z</time>
      </trkpt>
      <trkpt lat="43.1722276" lon="-2.8998051">
        <ele>65.501</ele>
        <time>2021-04-01T07:36:17.997Z</time>
      </trkpt>
      <trkpt lat="43.1722252" lon="-2.8998018">
        <ele>65.554</ele>
        <time>2021-04-01T07:36:18.404Z</time>
      </trkpt>
      <trkpt lat="43.1722276" lon="-2.8998051">
        <ele>65.501</ele>
        <time>2021-04-01T07:36:18.811Z</time>
      </trkpt>
      <trkpt lat="43.1722252" lon="-2.8998018">
        <ele>65.554</ele>
        <time>2021-04-01T07:36:19.218Z</time>
      </trkpt>
      <trkpt lat="43.1721402" lon="-2.8997026">
        <ele>65.843</ele>
        <time>2021-04-01T07:36:20.560Z</time>
      </trkpt>
      <trkpt lat="43.1721005" lon="-2.8996605">
        <ele>65.846</ele>
        <time>2021-04-01T07:36:20.963Z</time>
      </trkpt>
      <trkpt lat="43.1720909" lon="-2.8996507">
        <ele>65.885</ele>
        <time>2021-04-01T07:36:21.366Z</time>
      </trkpt>
      <trkpt lat="43.1720444" lon="-2.8996055">
        <ele>66.324</ele>
        <time>2021-04-01T07:36:21.770Z</time>
      </trkpt>
      <trkpt lat="43.1720101" lon="-2.8995671">
        <ele>66.566</ele>
        <time>2021-04-01T07:36:22.045Z</time>
      </trkpt>
      <trkpt lat="43.1720013" lon="-2.8995572">
        <ele>66.454</ele>
        <time>2021-04-01T07:36:22.320Z</time>
      </trkpt>
      <trkpt lat="43.1720125" lon="-2.8995694">
        <ele>66.601</ele>
        <time>2021-04-01T07:36:22.595Z</time>
      </trkpt>
      <trkpt lat="43.1720101" lon="-2.8995671">
        <ele>66.566</ele>
        <time>2021-04-01T07:36:22.870Z</time>
      </trkpt>
      <trkpt lat="43.1720013" lon="-2.8995572">
        <ele>66.454</ele>
        <time>2021-04-01T07:36:23.145Z</time>
      </trkpt>
      <trkpt lat="43.1719724" lon="-2.8995269">
        <ele>66.449</ele>
        <time>2021-04-01T07:36:23.420Z</time>
      </trkpt>
      <trkpt lat="43.1719698" lon="-2.8995242">
        <ele>66.459</ele>
        <time>2021-04-01T07:36:24.465Z</time>
      </trkpt>
      <trkpt lat="43.1719372" lon="-2.8994871">
        <ele>66.479</ele>
        <time>2021-04-01T07:36:25.510Z</time>
      </trkpt>
      <trkpt lat="43.1718429" lon="-2.8993788">
        <ele>66.193</ele>
        <time>2021-04-01T07:36:28.590Z</time>
      </trkpt>
      <trkpt lat="43.1718271" lon="-2.8993626">
        <ele>65.982</ele>
        <time>2021-04-01T07:36:28.645Z</time>
      </trkpt>
      <trkpt lat="43.1717571" lon="-2.899291">
        <ele>65.395</ele>
        <time>2021-04-01T07:36:30.405Z</time>
      </trkpt>
      <trkpt lat="43.1716757" lon="-2.8992098">
        <ele>65.235</ele>
        <time>2021-04-01T07:36:30.603Z</time>
      </trkpt>
      <trkpt lat="43.171663" lon="-2.899197">
        <ele>65.282</ele>
        <time>2021-04-01T07:36:30.801Z</time>
      </trkpt>
      <trkpt lat="43.1716757" lon="-2.8992098">
        <ele>65.235</ele>
        <time>2021-04-01T07:36:30.999Z</time>
      </trkpt>
      <trkpt lat="43.171663" lon="-2.899197">
        <ele>65.282</ele>
        <time>2021-04-01T07:36:31.197Z</time>
      </trkpt>
      <trkpt lat="43.1716339" lon="-2.8991665">
        <ele>64.807</ele>
        <time>2021-04-01T07:36:33.265Z</time>
      </trkpt>
      <trkpt lat="43.1715491" lon="-2.8990905">
        <ele>64.257</ele>
        <time>2021-04-01T07:36:35.300Z</time>
      </trkpt>
      <trkpt lat="43.1715121" lon="-2.8990646">
        <ele>64.189</ele>
        <time>2021-04-01T07:36:35.597Z</time>
      </trkpt>
      <trkpt lat="43.1715172" lon="-2.8990684">
        <ele>64.285</ele>
        <time>2021-04-01T07:36:35.894Z</time>
      </trkpt>
      <trkpt lat="43.1715121" lon="-2.8990646">
        <ele>64.189</ele>
        <time>2021-04-01T07:36:36.191Z</time>
      </trkpt>
      <trkpt lat="43.1715172" lon="-2.8990684">
        <ele>64.285</ele>
        <time>2021-04-01T07:36:36.488Z</time>
      </trkpt>
      <trkpt lat="43.1715121" lon="-2.8990646">
        <ele>64.189</ele>
        <time>2021-04-01T07:36:36.785Z</time>
      </trkpt>
      <trkpt lat="43.1713548" lon="-2.8989861">
        <ele>64.002</ele>
        <time>2021-04-01T07:36:37.720Z</time>
      </trkpt>
      <trkpt lat="43.171302" lon="-2.8989642">
        <ele>64.028</ele>
        <time>2021-04-01T07:36:38.226Z</time>
      </trkpt>
      <trkpt lat="43.1712711" lon="-2.8989547">
        <ele>64.118</ele>
        <time>2021-04-01T07:36:38.732Z</time>
      </trkpt>
      <trkpt lat="43.1712514" lon="-2.8989491">
        <ele>64.247</ele>
        <time>2021-04-01T07:36:39.238Z</time>
      </trkpt>
      <trkpt lat="43.1712382" lon="-2.8989447">
        <ele>64.361</ele>
        <time>2021-04-01T07:36:39.744Z</time>
      </trkpt>
      <trkpt lat="43.1711572" lon="-2.8989241">
        <ele>64.593</ele>
        <time>2021-04-01T07:36:40.250Z</time>
      </trkpt>
      <trkpt lat="43.1711846" lon="-2.8989307">
        <ele>64.496</ele>
        <time>2021-04-01T07:36:40.547Z</time>
      </trkpt>
      <trkpt lat="43.1711572" lon="-2.8989241">
        <ele>64.593</ele>
        <time>2021-04-01T07:36:40.844Z</time>
      </trkpt>
      <trkpt lat="43.1711846" lon="-2.8989307">
        <ele>64.496</ele>
        <time>2021-04-01T07:36:41.141Z</time>
      </trkpt>
      <trkpt lat="43.1711572" lon="-2.8989241">
        <ele>64.593</ele>
        <time>2021-04-01T07:36:41.438Z</time>
      </trkpt>
      <trkpt lat="43.1710733" lon="-2.8988992">
        <ele>64.737</ele>
        <time>2021-04-01T07:36:41.735Z</time>
      </trkpt>
      <trkpt lat="43.1710704" lon="-2.8988985">
        <ele>64.676</ele>
        <time>2021-04-01T07:36:41.872Z</time>
      </trkpt>
      <trkpt lat="43.1710794" lon="-2.8989007">
        <ele>64.757</ele>
        <time>2021-04-01T07:36:42.010Z</time>
      </trkpt>
      <trkpt lat="43.1710733" lon="-2.8988992">
        <ele>64.737</ele>
        <time>2021-04-01T07:36:42.147Z</time>
      </trkpt>
      <trkpt lat="43.1710704" lon="-2.8988985">
        <ele>64.676</ele>
        <time>2021-04-01T07:36:42.285Z</time>
      </trkpt>
      <trkpt lat="43.1710794" lon="-2.8989007">
        <ele>64.757</ele>
        <time>2021-04-01T07:36:42.422Z</time>
      </trkpt>
      <trkpt lat="43.1710733" lon="-2.8988992">
        <ele>64.737</ele>
        <time>2021-04-01T07:36:42.560Z</time>
      </trkpt>
      <trkpt lat="43.1710704" lon="-2.8988985">
        <ele>64.676</ele>
        <time>2021-04-01T07:36:42.697Z</time>
      </trkpt>
      <trkpt lat="43.1710131" lon="-2.898873">
        <ele>64.256</ele>
        <time>2021-04-01T07:36:44.760Z</time>
      </trkpt>
      <trkpt lat="43.1709173" lon="-2.8988">
        <ele>64.402</ele>
        <time>2021-04-01T07:36:45.186Z</time>
      </trkpt>
      <trkpt lat="43.1709173" lon="-2.8988">
        <ele>64.402</ele>
        <time>2021-04-01T07:36:45.612Z</time>
      </trkpt>
      <trkpt lat="43.1709173" lon="-2.8988">
        <ele>64.402</ele>
        <time>2021-04-01T07:36:46.038Z</time>
      </trkpt>
      <trkpt lat="43.1708421" lon="-2.8987239">
        <ele>64.184</ele>
        <time>2021-04-01T07:36:46.465Z</time>
      </trkpt>
      <trkpt lat="43.1708401" lon="-2.8987216">
        <ele>64.143</ele>
        <time>2021-04-01T07:36:47.097Z</time>
      </trkpt>
      <trkpt lat="43.1707862" lon="-2.8986507">
        <ele>64.796</ele>
        <time>2021-04-01T07:36:48.830Z</time>
      </trkpt>
      <trkpt lat="43.1707447" lon="-2.8985886">
        <ele>65.197</ele>
        <time>2021-04-01T07:36:49.366Z</time>
      </trkpt>
      <trkpt lat="43.1706996" lon="-2.8985268">
        <ele>64.723</ele>
        <time>2021-04-01T07:36:49.902Z</time>
      </trkpt>
      <trkpt lat="43.1706996" lon="-2.8985268">
        <ele>64.723</ele>
        <time>2021-04-01T07:36:50.438Z</time>
      </trkpt>
      <trkpt lat="43.1706507" lon="-2.8984725">
        <ele>64.243</ele>
        <time>2021-04-01T07:36:52.735Z</time>
      </trkpt>
      <trkpt lat="43.1706029" lon="-2.8984187">
        <ele>64.141</ele>
        <time>2021-04-01T07:36:53.271Z</time>
      </trkpt>
      <trkpt lat="43.1705766" lon="-2.8983776">
        <ele>63.854</ele>
        <time>2021-04-01T07:36:53.807Z</time>
      </trkpt>
      <trkpt lat="43.1705743" lon="-2.8983746">
        <ele>63.868</ele>
        <time>2021-04-01T07:36:54.343Z</time>
      </trkpt>
      <trkpt lat="43.1705026" lon="-2.8982435">
        <ele>63.09</ele>
        <time>2021-04-01T07:36:55.320Z</time>
      </trkpt>
      <trkpt lat="43.1704896" lon="-2.8982151">
        <ele>62.74</ele>
        <time>2021-04-01T07:36:55.549Z</time>
      </trkpt>
      <trkpt lat="43.1704698" lon="-2.8981533">
        <ele>64.199</ele>
        <time>2021-04-01T07:36:55.778Z</time>
      </trkpt>
      <trkpt lat="43.1704803" lon="-2.8981883">
        <ele>63.299</ele>
        <time>2021-04-01T07:36:56.007Z</time>
      </trkpt>
      <trkpt lat="43.1704743" lon="-2.8981712">
        <ele>63.953</ele>
        <time>2021-04-01T07:36:56.236Z</time>
      </trkpt>
      <trkpt lat="43.1704698" lon="-2.8981533">
        <ele>64.199</ele>
        <time>2021-04-01T07:36:56.465Z</time>
      </trkpt>
      <trkpt lat="43.1704576" lon="-2.8981052">
        <ele>64.403</ele>
        <time>2021-04-01T07:36:58.950Z</time>
      </trkpt>
      <trkpt lat="43.1704297" lon="-2.8977896">
        <ele>66.891</ele>
        <time>2021-04-01T07:37:02.360Z</time>
      </trkpt>
      <trkpt lat="43.1704434" lon="-2.8976133">
        <ele>67.98</ele>
        <time>2021-04-01T07:37:03.166Z</time>
      </trkpt>
      <trkpt lat="43.1704434" lon="-2.8976133">
        <ele>67.98</ele>
        <time>2021-04-01T07:37:03.973Z</time>
      </trkpt>
      <trkpt lat="43.1704564" lon="-2.8974095">
        <ele>68.2</ele>
        <time>2021-04-01T07:37:05.220Z</time>
      </trkpt>
      <trkpt lat="43.1704523" lon="-2.8974834">
        <ele>68.099</ele>
        <time>2021-04-01T07:37:05.368Z</time>
      </trkpt>
      <trkpt lat="43.1704526" lon="-2.8974787">
        <ele>68.107</ele>
        <time>2021-04-01T07:37:05.517Z</time>
      </trkpt>
      <trkpt lat="43.170453" lon="-2.8974742">
        <ele>68.1</ele>
        <time>2021-04-01T07:37:05.665Z</time>
      </trkpt>
      <trkpt lat="43.1704523" lon="-2.8974834">
        <ele>68.099</ele>
        <time>2021-04-01T07:37:05.814Z</time>
      </trkpt>
      <trkpt lat="43.1704526" lon="-2.8974787">
        <ele>68.107</ele>
        <time>2021-04-01T07:37:05.962Z</time>
      </trkpt>
      <trkpt lat="43.170453" lon="-2.8974742">
        <ele>68.1</ele>
        <time>2021-04-01T07:37:06.111Z</time>
      </trkpt>
      <trkpt lat="43.1704535" lon="-2.8974648">
        <ele>68.162</ele>
        <time>2021-04-01T07:37:06.259Z</time>
      </trkpt>
      <trkpt lat="43.1704526" lon="-2.8974787">
        <ele>68.107</ele>
        <time>2021-04-01T07:37:06.408Z</time>
      </trkpt>
      <trkpt lat="43.170453" lon="-2.8974742">
        <ele>68.1</ele>
        <time>2021-04-01T07:37:06.556Z</time>
      </trkpt>
      <trkpt lat="43.1704535" lon="-2.8974648">
        <ele>68.162</ele>
        <time>2021-04-01T07:37:06.705Z</time>
      </trkpt>
      <trkpt lat="43.1704554" lon="-2.8972517">
        <ele>68.604</ele>
        <time>2021-04-01T07:37:07.046Z</time>
      </trkpt>
      <trkpt lat="43.170452" lon="-2.8972007">
        <ele>68.778</ele>
        <time>2021-04-01T07:37:07.387Z</time>
      </trkpt>
      <trkpt lat="43.170452" lon="-2.8972007">
        <ele>68.778</ele>
        <time>2021-04-01T07:37:07.728Z</time>
      </trkpt>
      <trkpt lat="43.170452" lon="-2.8972007">
        <ele>68.778</ele>
        <time>2021-04-01T07:37:08.069Z</time>
      </trkpt>
      <trkpt lat="43.1704402" lon="-2.897111">
        <ele>69.064</ele>
        <time>2021-04-01T07:37:08.410Z</time>
      </trkpt>
      <trkpt lat="43.1704356" lon="-2.8970787">
        <ele>69.26</ele>
        <time>2021-04-01T07:37:08.622Z</time>
      </trkpt>
      <trkpt lat="43.170435" lon="-2.8970741">
        <ele>69.276</ele>
        <time>2021-04-01T07:37:08.834Z</time>
      </trkpt>
      <trkpt lat="43.1704356" lon="-2.8970787">
        <ele>69.26</ele>
        <time>2021-04-01T07:37:09.046Z</time>
      </trkpt>
      <trkpt lat="43.170435" lon="-2.8970741">
        <ele>69.276</ele>
        <time>2021-04-01T07:37:09.258Z</time>
      </trkpt>
      <trkpt lat="43.1704356" lon="-2.8970787">
        <ele>69.26</ele>
        <time>2021-04-01T07:37:09.470Z</time>
      </trkpt>
      <trkpt lat="43.170435" lon="-2.8970741">
        <ele>69.276</ele>
        <time>2021-04-01T07:37:09.682Z</time>
      </trkpt>
      <trkpt lat="43.1704188" lon="-2.8969924">
        <ele>69.376</ele>
        <time>2021-04-01T07:37:12.095Z</time>
      </trkpt>
      <trkpt lat="43.1703767" lon="-2.8968331">
        <ele>69.271</ele>
        <time>2021-04-01T07:37:12.223Z</time>
      </trkpt>
      <trkpt lat="43.1703799" lon="-2.8968451">
        <ele>69.279</ele>
        <time>2021-04-01T07:37:12.351Z</time>
      </trkpt>
      <trkpt lat="43.1703767" lon="-2.8968331">
        <ele>69.271</ele>
        <time>2021-04-01T07:37:12.479Z</time>
      </trkpt>
      <trkpt lat="43.1703799" lon="-2.8968451">
        <ele>69.279</ele>
        <time>2021-04-01T07:37:12.608Z</time>
      </trkpt>
      <trkpt lat="43.1703767" lon="-2.8968331">
        <ele>69.271</ele>
        <time>2021-04-01T07:37:12.736Z</time>
      </trkpt>
      <trkpt lat="43.1703568" lon="-2.8967799">
        <ele>69.3</ele>
        <time>2021-04-01T07:37:14.735Z</time>
      </trkpt>
      <trkpt lat="43.1703057" lon="-2.8966581">
        <ele>69.457</ele>
        <time>2021-04-01T07:37:16.000Z</time>
      </trkpt>
      <trkpt lat="43.1703041" lon="-2.8966542">
        <ele>69.436</ele>
        <time>2021-04-01T07:37:16.125Z</time>
      </trkpt>
      <trkpt lat="43.1703002" lon="-2.8966478">
        <ele>69.402</ele>
        <time>2021-04-01T07:37:16.251Z</time>
      </trkpt>
      <trkpt lat="43.1702936" lon="-2.8966344">
        <ele>69.32</ele>
        <time>2021-04-01T07:37:16.377Z</time>
      </trkpt>
      <trkpt lat="43.1703057" lon="-2.8966581">
        <ele>69.457</ele>
        <time>2021-04-01T07:37:16.502Z</time>
      </trkpt>
      <trkpt lat="43.1703041" lon="-2.8966542">
        <ele>69.436</ele>
        <time>2021-04-01T07:37:16.628Z</time>
      </trkpt>
      <trkpt lat="43.1703002" lon="-2.8966478">
        <ele>69.402</ele>
        <time>2021-04-01T07:37:16.754Z</time>
      </trkpt>
      <trkpt lat="43.1702936" lon="-2.8966344">
        <ele>69.32</ele>
        <time>2021-04-01T07:37:16.880Z</time>
      </trkpt>
      <trkpt lat="43.1702645" lon="-2.8965827">
        <ele>69.371</ele>
        <time>2021-04-01T07:37:17.005Z</time>
      </trkpt>
      <trkpt lat="43.1702356" lon="-2.8965346">
        <ele>69.462</ele>
        <time>2021-04-01T07:37:17.131Z</time>
      </trkpt>
      <trkpt lat="43.1702389" lon="-2.8965412">
        <ele>69.457</ele>
        <time>2021-04-01T07:37:17.257Z</time>
      </trkpt>
      <trkpt lat="43.1702356" lon="-2.8965346">
        <ele>69.462</ele>
        <time>2021-04-01T07:37:17.382Z</time>
      </trkpt>
      <trkpt lat="43.1702389" lon="-2.8965412">
        <ele>69.457</ele>
        <time>2021-04-01T07:37:17.508Z</time>
      </trkpt>
      <trkpt lat="43.1702356" lon="-2.8965346">
        <ele>69.462</ele>
        <time>2021-04-01T07:37:17.634Z</time>
      </trkpt>
      <trkpt lat="43.1702018" lon="-2.8964815">
        <ele>69.449</ele>
        <time>2021-04-01T07:37:17.760Z</time>
      </trkpt>
      <trkpt lat="43.1701232" lon="-2.8963645">
        <ele>68.503</ele>
        <time>2021-04-01T07:37:22.160Z</time>
      </trkpt>
      <trkpt lat="43.1701212" lon="-2.8963612">
        <ele>68.479</ele>
        <time>2021-04-01T07:37:22.435Z</time>
      </trkpt>
      <trkpt lat="43.1701232" lon="-2.8963645">
        <ele>68.503</ele>
        <time>2021-04-01T07:37:22.710Z</time>
      </trkpt>
      <trkpt lat="43.1701212" lon="-2.8963612">
        <ele>68.479</ele>
        <time>2021-04-01T07:37:22.985Z</time>
      </trkpt>
      <trkpt lat="43.17001" lon="-2.8962063">
        <ele>67.261</ele>
        <time>2021-04-01T07:37:23.159Z</time>
      </trkpt>
      <trkpt lat="43.17001" lon="-2.8962063">
        <ele>67.261</ele>
        <time>2021-04-01T07:37:23.333Z</time>
      </trkpt>
      <trkpt lat="43.1700026" lon="-2.8961975">
        <ele>66.85</ele>
        <time>2021-04-01T07:37:23.507Z</time>
      </trkpt>
      <trkpt lat="43.17001" lon="-2.8962063">
        <ele>67.261</ele>
        <time>2021-04-01T07:37:23.681Z</time>
      </trkpt>
      <trkpt lat="43.1700026" lon="-2.8961975">
        <ele>66.85</ele>
        <time>2021-04-01T07:37:23.855Z</time>
      </trkpt>
      <trkpt lat="43.1699641" lon="-2.8961586">
        <ele>66.464</ele>
        <time>2021-04-01T07:37:24.030Z</time>
      </trkpt>
      <trkpt lat="43.1699296" lon="-2.8961309">
        <ele>65.849</ele>
        <time>2021-04-01T07:37:24.387Z</time>
      </trkpt>
      <trkpt lat="43.1699296" lon="-2.8961309">
        <ele>65.849</ele>
        <time>2021-04-01T07:37:24.745Z</time>
      </trkpt>
      <trkpt lat="43.1699296" lon="-2.8961309">
        <ele>65.849</ele>
        <time>2021-04-01T07:37:25.102Z</time>
      </trkpt>
      <trkpt lat="43.1698941" lon="-2.8961122">
        <ele>64.951</ele>
        <time>2021-04-01T07:37:27.165Z</time>
      </trkpt>
      <trkpt lat="43.1698493" lon="-2.8960918">
        <ele>64.317</ele>
        <time>2021-04-01T07:37:27.495Z</time>
      </trkpt>
      <trkpt lat="43.1698464" lon="-2.8960905">
        <ele>64.377</ele>
        <time>2021-04-01T07:37:27.825Z</time>
      </trkpt>
      <trkpt lat="43.1698493" lon="-2.8960918">
        <ele>64.317</ele>
        <time>2021-04-01T07:37:28.155Z</time>
      </trkpt>
      <trkpt lat="43.1698464" lon="-2.8960905">
        <ele>64.377</ele>
        <time>2021-04-01T07:37:28.485Z</time>
      </trkpt>
      <trkpt lat="43.1698493" lon="-2.8960918">
        <ele>64.317</ele>
        <time>2021-04-01T07:37:28.815Z</time>
      </trkpt>
      <trkpt lat="43.1698464" lon="-2.8960905">
        <ele>64.377</ele>
        <time>2021-04-01T07:37:29.145Z</time>
      </trkpt>
      <trkpt lat="43.1698107" lon="-2.8960687">
        <ele>65.299</ele>
        <time>2021-04-01T07:37:30.795Z</time>
      </trkpt>
      <trkpt lat="43.1696184" lon="-2.896014">
        <ele>66.17</ele>
        <time>2021-04-01T07:37:30.917Z</time>
      </trkpt>
      <trkpt lat="43.1696122" lon="-2.8960123">
        <ele>66.216</ele>
        <time>2021-04-01T07:37:31.039Z</time>
      </trkpt>
      <trkpt lat="43.1696055" lon="-2.8960114">
        <ele>66.129</ele>
        <time>2021-04-01T07:37:31.161Z</time>
      </trkpt>
      <trkpt lat="43.1695996" lon="-2.8960098">
        <ele>66.183</ele>
        <time>2021-04-01T07:37:31.283Z</time>
      </trkpt>
      <trkpt lat="43.1696055" lon="-2.8960114">
        <ele>66.129</ele>
        <time>2021-04-01T07:37:31.406Z</time>
      </trkpt>
      <trkpt lat="43.1695996" lon="-2.8960098">
        <ele>66.183</ele>
        <time>2021-04-01T07:37:31.528Z</time>
      </trkpt>
      <trkpt lat="43.1696055" lon="-2.8960114">
        <ele>66.129</ele>
        <time>2021-04-01T07:37:31.650Z</time>
      </trkpt>
      <trkpt lat="43.1695996" lon="-2.8960098">
        <ele>66.183</ele>
        <time>2021-04-01T07:37:31.772Z</time>
      </trkpt>
      <trkpt lat="43.1695572" lon="-2.8959958">
        <ele>66.403</ele>
        <time>2021-04-01T07:37:34.150Z</time>
      </trkpt>
      <trkpt lat="43.1694387" lon="-2.8959657">
        <ele>66.076</ele>
        <time>2021-04-01T07:37:34.253Z</time>
      </trkpt>
      <trkpt lat="43.1694505" lon="-2.895969">
        <ele>65.905</ele>
        <time>2021-04-01T07:37:34.356Z</time>
      </trkpt>
      <trkpt lat="43.1694449" lon="-2.8959672">
        <ele>66.029</ele>
        <time>2021-04-01T07:37:34.459Z</time>
      </trkpt>
      <trkpt lat="43.1694387" lon="-2.8959657">
        <ele>66.076</ele>
        <time>2021-04-01T07:37:34.562Z</time>
      </trkpt>
      <trkpt lat="43.1694505" lon="-2.895969">
        <ele>65.905</ele>
        <time>2021-04-01T07:37:34.665Z</time>
      </trkpt>
      <trkpt lat="43.1694449" lon="-2.8959672">
        <ele>66.029</ele>
        <time>2021-04-01T07:37:34.768Z</time>
      </trkpt>
      <trkpt lat="43.1694387" lon="-2.8959657">
        <ele>66.076</ele>
        <time>2021-04-01T07:37:34.871Z</time>
      </trkpt>
      <trkpt lat="43.169395" lon="-2.8959488">
        <ele>67.413</ele>
        <time>2021-04-01T07:37:34.975Z</time>
      </trkpt>
      <trkpt lat="43.1693861" lon="-2.8959468">
        <ele>67.533</ele>
        <time>2021-04-01T07:37:35.360Z</time>
      </trkpt>
      <trkpt lat="43.1693578" lon="-2.8959354">
        <ele>67.884</ele>
        <time>2021-04-01T07:37:35.745Z</time>
      </trkpt>
      <trkpt lat="43.1693861" lon="-2.8959468">
        <ele>67.533</ele>
        <time>2021-04-01T07:37:36.130Z</time>
      </trkpt>
      <trkpt lat="43.1693578" lon="-2.8959354">
        <ele>67.884</ele>
        <time>2021-04-01T07:37:36.515Z</time>
      </trkpt>
      <trkpt lat="43.1692938" lon="-2.8959017">
        <ele>69.909</ele>
        <time>2021-04-01T07:37:38.935Z</time>
      </trkpt>
      <trkpt lat="43.1691902" lon="-2.8958708">
        <ele>68.613</ele>
        <time>2021-04-01T07:37:39.246Z</time>
      </trkpt>
      <trkpt lat="43.1691902" lon="-2.8958708">
        <ele>68.613</ele>
        <time>2021-04-01T07:37:39.558Z</time>
      </trkpt>
      <trkpt lat="43.1691428" lon="-2.8958561">
        <ele>67.66</ele>
        <time>2021-04-01T07:37:39.870Z</time>
      </trkpt>
      <trkpt lat="43.169118" lon="-2.8958469">
        <ele>67.368</ele>
        <time>2021-04-01T07:37:40.102Z</time>
      </trkpt>
      <trkpt lat="43.169103" lon="-2.8958421">
        <ele>67.239</ele>
        <time>2021-04-01T07:37:40.334Z</time>
      </trkpt>
      <trkpt lat="43.1691274" lon="-2.8958513">
        <ele>67.653</ele>
        <time>2021-04-01T07:37:40.566Z</time>
      </trkpt>
      <trkpt lat="43.169118" lon="-2.8958469">
        <ele>67.368</ele>
        <time>2021-04-01T07:37:40.798Z</time>
      </trkpt>
      <trkpt lat="43.169103" lon="-2.8958421">
        <ele>67.239</ele>
        <time>2021-04-01T07:37:41.031Z</time>
      </trkpt>
      <trkpt lat="43.1691274" lon="-2.8958513">
        <ele>67.653</ele>
        <time>2021-04-01T07:37:41.263Z</time>
      </trkpt>
      <trkpt lat="43.169118" lon="-2.8958469">
        <ele>67.368</ele>
        <time>2021-04-01T07:37:41.495Z</time>
      </trkpt>
      <trkpt lat="43.169103" lon="-2.8958421">
        <ele>67.239</ele>
        <time>2021-04-01T07:37:41.727Z</time>
      </trkpt>
      <trkpt lat="43.1690383" lon="-2.8958108">
        <ele>67.002</ele>
        <time>2021-04-01T07:37:43.005Z</time>
      </trkpt>
      <trkpt lat="43.1689866" lon="-2.8957795">
        <ele>66.474</ele>
        <time>2021-04-01T07:37:43.316Z</time>
      </trkpt>
      <trkpt lat="43.1689505" lon="-2.8957577">
        <ele>65.458</ele>
        <time>2021-04-01T07:37:43.628Z</time>
      </trkpt>
      <trkpt lat="43.1689741" lon="-2.8957709">
        <ele>66.295</ele>
        <time>2021-04-01T07:37:43.940Z</time>
      </trkpt>
      <trkpt lat="43.1689537" lon="-2.8957586">
        <ele>65.484</ele>
        <time>2021-04-01T07:37:44.251Z</time>
      </trkpt>
      <trkpt lat="43.1689505" lon="-2.8957577">
        <ele>65.458</ele>
        <time>2021-04-01T07:37:44.563Z</time>
      </trkpt>
      <trkpt lat="43.1689741" lon="-2.8957709">
        <ele>66.295</ele>
        <time>2021-04-01T07:37:44.875Z</time>
      </trkpt>
      <trkpt lat="43.1689537" lon="-2.8957586">
        <ele>65.484</ele>
        <time>2021-04-01T07:37:45.186Z</time>
      </trkpt>
      <trkpt lat="43.1689505" lon="-2.8957577">
        <ele>65.458</ele>
        <time>2021-04-01T07:37:45.498Z</time>
      </trkpt>
      <trkpt lat="43.1688642" lon="-2.8957098">
        <ele>64.107</ele>
        <time>2021-04-01T07:37:45.810Z</time>
      </trkpt>
      <trkpt lat="43.168885" lon="-2.8957215">
        <ele>64.548</ele>
        <time>2021-04-01T07:37:47.020Z</time>
      </trkpt>
      <trkpt lat="43.168885" lon="-2.8957215">
        <ele>64.548</ele>
        <time>2021-04-01T07:37:48.230Z</time>
      </trkpt>
      <trkpt lat="43.1687552" lon="-2.895639">
        <ele>64.109</ele>
        <time>2021-04-01T07:37:49.385Z</time>
      </trkpt>
      <trkpt lat="43.1687044" lon="-2.8956048">
        <ele>63.758</ele>
        <time>2021-04-01T07:37:49.605Z</time>
      </trkpt>
      <trkpt lat="43.1686795" lon="-2.8955854">
        <ele>64.474</ele>
        <time>2021-04-01T07:37:49.825Z</time>
      </trkpt>
      <trkpt lat="43.1687044" lon="-2.8956048">
        <ele>63.758</ele>
        <time>2021-04-01T07:37:50.045Z</time>
      </trkpt>
      <trkpt lat="43.1686795" lon="-2.8955854">
        <ele>64.474</ele>
        <time>2021-04-01T07:37:50.265Z</time>
      </trkpt>
      <trkpt lat="43.1686719" lon="-2.8955786">
        <ele>64.563</ele>
        <time>2021-04-01T07:37:50.485Z</time>
      </trkpt>
      <trkpt lat="43.1686795" lon="-2.8955854">
        <ele>64.474</ele>
        <time>2021-04-01T07:37:50.705Z</time>
      </trkpt>
      <trkpt lat="43.1686719" lon="-2.8955786">
        <ele>64.563</ele>
        <time>2021-04-01T07:37:50.925Z</time>
      </trkpt>
      <trkpt lat="43.1686153" lon="-2.8955302">
        <ele>65.854</ele>
        <time>2021-04-01T07:37:52.080Z</time>
      </trkpt>
      <trkpt lat="43.1685752" lon="-2.8954871">
        <ele>66.484</ele>
        <time>2021-04-01T07:37:52.361Z</time>
      </trkpt>
      <trkpt lat="43.1685331" lon="-2.8954405">
        <ele>67.091</ele>
        <time>2021-04-01T07:37:52.643Z</time>
      </trkpt>
      <trkpt lat="43.1685263" lon="-2.8954333">
        <ele>66.996</ele>
        <time>2021-04-01T07:37:52.925Z</time>
      </trkpt>
      <trkpt lat="43.1685239" lon="-2.8954305">
        <ele>67.015</ele>
        <time>2021-04-01T07:37:53.207Z</time>
      </trkpt>
      <trkpt lat="43.1685331" lon="-2.8954405">
        <ele>67.091</ele>
        <time>2021-04-01T07:37:53.489Z</time>
      </trkpt>
      <trkpt lat="43.1685263" lon="-2.8954333">
        <ele>66.996</ele>
        <time>2021-04-01T07:37:53.771Z</time>
      </trkpt>
      <trkpt lat="43.1685239" lon="-2.8954305">
        <ele>67.015</ele>
        <time>2021-04-01T07:37:54.053Z</time>
      </trkpt>
      <trkpt lat="43.1684842" lon="-2.8953771">
        <ele>67.801</ele>
        <time>2021-04-01T07:37:55.930Z</time>
      </trkpt>
      <trkpt lat="43.1684755" lon="-2.8953664">
        <ele>67.769</ele>
        <time>2021-04-01T07:37:56.040Z</time>
      </trkpt>
      <trkpt lat="43.1684428" lon="-2.8953241">
        <ele>67.369</ele>
        <time>2021-04-01T07:37:56.150Z</time>
      </trkpt>
      <trkpt lat="43.1684842" lon="-2.8953771">
        <ele>67.801</ele>
        <time>2021-04-01T07:37:56.260Z</time>
      </trkpt>
      <trkpt lat="43.1684755" lon="-2.8953664">
        <ele>67.769</ele>
        <time>2021-04-01T07:37:56.370Z</time>
      </trkpt>
      <trkpt lat="43.1684291" lon="-2.8953032">
        <ele>67.037</ele>
        <time>2021-04-01T07:37:56.480Z</time>
      </trkpt>
      <trkpt lat="43.1684197" lon="-2.8952906">
        <ele>66.876</ele>
        <time>2021-04-01T07:37:56.590Z</time>
      </trkpt>
      <trkpt lat="43.1684248" lon="-2.8952989">
        <ele>67.009</ele>
        <time>2021-04-01T07:37:56.700Z</time>
      </trkpt>
      <trkpt lat="43.1684126" lon="-2.8952785">
        <ele>66.8</ele>
        <time>2021-04-01T07:37:56.810Z</time>
      </trkpt>
      <trkpt lat="43.1684197" lon="-2.8952906">
        <ele>66.876</ele>
        <time>2021-04-01T07:37:56.920Z</time>
      </trkpt>
      <trkpt lat="43.1684126" lon="-2.8952785">
        <ele>66.8</ele>
        <time>2021-04-01T07:37:57.030Z</time>
      </trkpt>
      <trkpt lat="43.1684197" lon="-2.8952906">
        <ele>66.876</ele>
        <time>2021-04-01T07:37:57.140Z</time>
      </trkpt>
      <trkpt lat="43.1684126" lon="-2.8952785">
        <ele>66.8</ele>
        <time>2021-04-01T07:37:57.250Z</time>
      </trkpt>
      <trkpt lat="43.1683822" lon="-2.895223">
        <ele>66.763</ele>
        <time>2021-04-01T07:37:57.360Z</time>
      </trkpt>
      <trkpt lat="43.1683382" lon="-2.8951501">
        <ele>66.955</ele>
        <time>2021-04-01T07:38:00.880Z</time>
      </trkpt>
      <trkpt lat="43.1682635" lon="-2.8950165">
        <ele>67.15</ele>
        <time>2021-04-01T07:38:01.056Z</time>
      </trkpt>
      <trkpt lat="43.1682563" lon="-2.8950026">
        <ele>67.182</ele>
        <time>2021-04-01T07:38:01.232Z</time>
      </trkpt>
      <trkpt lat="43.1682635" lon="-2.8950165">
        <ele>67.15</ele>
        <time>2021-04-01T07:38:01.408Z</time>
      </trkpt>
      <trkpt lat="43.1682563" lon="-2.8950026">
        <ele>67.182</ele>
        <time>2021-04-01T07:38:01.584Z</time>
      </trkpt>
      <trkpt lat="43.1682383" lon="-2.8949619">
        <ele>67.076</ele>
        <time>2021-04-01T07:38:03.795Z</time>
      </trkpt>
      <trkpt lat="43.1681706" lon="-2.8948402">
        <ele>66.998</ele>
        <time>2021-04-01T07:38:03.987Z</time>
      </trkpt>
      <trkpt lat="43.1681687" lon="-2.8948362">
        <ele>67.015</ele>
        <time>2021-04-01T07:38:04.180Z</time>
      </trkpt>
      <trkpt lat="43.1681617" lon="-2.8948233">
        <ele>66.967</ele>
        <time>2021-04-01T07:38:04.372Z</time>
      </trkpt>
      <trkpt lat="43.1681687" lon="-2.8948362">
        <ele>67.015</ele>
        <time>2021-04-01T07:38:04.565Z</time>
      </trkpt>
      <trkpt lat="43.1681617" lon="-2.8948233">
        <ele>66.967</ele>
        <time>2021-04-01T07:38:04.757Z</time>
      </trkpt>
      <trkpt lat="43.1681322" lon="-2.8947686">
        <ele>66.986</ele>
        <time>2021-04-01T07:38:06.655Z</time>
      </trkpt>
      <trkpt lat="43.1680905" lon="-2.8946296">
        <ele>67.136</ele>
        <time>2021-04-01T07:38:06.939Z</time>
      </trkpt>
      <trkpt lat="43.1680872" lon="-2.8946084">
        <ele>67.58</ele>
        <time>2021-04-01T07:38:07.223Z</time>
      </trkpt>
      <trkpt lat="43.1680938" lon="-2.8946504">
        <ele>66.873</ele>
        <time>2021-04-01T07:38:07.507Z</time>
      </trkpt>
      <trkpt lat="43.1680905" lon="-2.8946296">
        <ele>67.136</ele>
        <time>2021-04-01T07:38:07.791Z</time>
      </trkpt>
      <trkpt lat="43.1680872" lon="-2.8946084">
        <ele>67.58</ele>
        <time>2021-04-01T07:38:08.075Z</time>
      </trkpt>
      <trkpt lat="43.1680834" lon="-2.894521">
        <ele>68.542</ele>
        <time>2021-04-01T07:38:09.955Z</time>
      </trkpt>
      <trkpt lat="43.1680913" lon="-2.8944056">
        <ele>69.687</ele>
        <time>2021-04-01T07:38:11.385Z</time>
      </trkpt>
      <trkpt lat="43.1681083" lon="-2.8943079">
        <ele>70.452</ele>
        <time>2021-04-01T07:38:11.733Z</time>
      </trkpt>
      <trkpt lat="43.1681144" lon="-2.8942709">
        <ele>70.962</ele>
        <time>2021-04-01T07:38:12.081Z</time>
      </trkpt>
      <trkpt lat="43.16811" lon="-2.8942971">
        <ele>70.564</ele>
        <time>2021-04-01T07:38:12.429Z</time>
      </trkpt>
      <trkpt lat="43.1681144" lon="-2.8942709">
        <ele>70.962</ele>
        <time>2021-04-01T07:38:12.778Z</time>
      </trkpt>
      <trkpt lat="43.1681144" lon="-2.8942709">
        <ele>70.962</ele>
        <time>2021-04-01T07:38:13.126Z</time>
      </trkpt>
      <trkpt lat="43.1681319" lon="-2.8941686">
        <ele>71.297</ele>
        <time>2021-04-01T07:38:15.070Z</time>
      </trkpt>
      <trkpt lat="43.1681533" lon="-2.8940585">
        <ele>71.039</ele>
        <time>2021-04-01T07:38:15.334Z</time>
      </trkpt>
      <trkpt lat="43.1681541" lon="-2.894055">
        <ele>70.987</ele>
        <time>2021-04-01T07:38:15.598Z</time>
      </trkpt>
      <trkpt lat="43.1681533" lon="-2.8940585">
        <ele>71.039</ele>
        <time>2021-04-01T07:38:15.862Z</time>
      </trkpt>
      <trkpt lat="43.1681541" lon="-2.894055">
        <ele>70.987</ele>
        <time>2021-04-01T07:38:16.126Z</time>
      </trkpt>
      <trkpt lat="43.1681743" lon="-2.8939711">
        <ele>70.837</ele>
        <time>2021-04-01T07:38:17.380Z</time>
      </trkpt>
      <trkpt lat="43.1681892" lon="-2.8939054">
        <ele>71.537</ele>
        <time>2021-04-01T07:38:18.975Z</time>
      </trkpt>
      <trkpt lat="43.1682103" lon="-2.8937997">
        <ele>72.642</ele>
        <time>2021-04-01T07:38:19.543Z</time>
      </trkpt>
      <trkpt lat="43.1682129" lon="-2.8937852">
        <ele>72.761</ele>
        <time>2021-04-01T07:38:20.111Z</time>
      </trkpt>
      <trkpt lat="43.1682292" lon="-2.8936853">
        <ele>73.17</ele>
        <time>2021-04-01T07:38:20.680Z</time>
      </trkpt>
      <trkpt lat="43.1682324" lon="-2.8936636">
        <ele>73.211</ele>
        <time>2021-04-01T07:38:20.913Z</time>
      </trkpt>
      <trkpt lat="43.1682329" lon="-2.8936515">
        <ele>73.26</ele>
        <time>2021-04-01T07:38:21.147Z</time>
      </trkpt>
      <trkpt lat="43.1682324" lon="-2.8936636">
        <ele>73.211</ele>
        <time>2021-04-01T07:38:21.381Z</time>
      </trkpt>
      <trkpt lat="43.1682329" lon="-2.8936515">
        <ele>73.26</ele>
        <time>2021-04-01T07:38:21.615Z</time>
      </trkpt>
      <trkpt lat="43.1682334" lon="-2.8936426">
        <ele>73.27</ele>
        <time>2021-04-01T07:38:21.848Z</time>
      </trkpt>
      <trkpt lat="43.1682329" lon="-2.8936515">
        <ele>73.26</ele>
        <time>2021-04-01T07:38:22.082Z</time>
      </trkpt>
      <trkpt lat="43.1682334" lon="-2.8936426">
        <ele>73.27</ele>
        <time>2021-04-01T07:38:22.316Z</time>
      </trkpt>
      <trkpt lat="43.1682374" lon="-2.8935615">
        <ele>73.872</ele>
        <time>2021-04-01T07:38:24.420Z</time>
      </trkpt>
      <trkpt lat="43.1682379" lon="-2.8935362">
        <ele>74.745</ele>
        <time>2021-04-01T07:38:24.970Z</time>
      </trkpt>
      <trkpt lat="43.1682374" lon="-2.8935615">
        <ele>73.872</ele>
        <time>2021-04-01T07:38:25.520Z</time>
      </trkpt>
      <trkpt lat="43.1682379" lon="-2.8935362">
        <ele>74.745</ele>
        <time>2021-04-01T07:38:26.070Z</time>
      </trkpt>
      <trkpt lat="43.1681812" lon="-2.8933514">
        <ele>74.689</ele>
        <time>2021-04-01T07:38:27.445Z</time>
      </trkpt>
      <trkpt lat="43.168178" lon="-2.8933459">
        <ele>74.657</ele>
        <time>2021-04-01T07:38:27.610Z</time>
      </trkpt>
      <trkpt lat="43.1681812" lon="-2.8933514">
        <ele>74.689</ele>
        <time>2021-04-01T07:38:27.775Z</time>
      </trkpt>
      <trkpt lat="43.168178" lon="-2.8933459">
        <ele>74.657</ele>
        <time>2021-04-01T07:38:27.940Z</time>
      </trkpt>
      <trkpt lat="43.1681812" lon="-2.8933514">
        <ele>74.689</ele>
        <time>2021-04-01T07:38:28.105Z</time>
      </trkpt>
      <trkpt lat="43.168178" lon="-2.8933459">
        <ele>74.657</ele>
        <time>2021-04-01T07:38:28.270Z</time>
      </trkpt>
      <trkpt lat="43.1680958" lon="-2.893243">
        <ele>75.14</ele>
        <time>2021-04-01T07:38:30.250Z</time>
      </trkpt>
      <trkpt lat="43.1680047" lon="-2.8931851">
        <ele>75.616</ele>
        <time>2021-04-01T07:38:30.564Z</time>
      </trkpt>
      <trkpt lat="43.1679903" lon="-2.8931791">
        <ele>75.5</ele>
        <time>2021-04-01T07:38:30.878Z</time>
      </trkpt>
      <trkpt lat="43.1679934" lon="-2.8931799">
        <ele>75.539</ele>
        <time>2021-04-01T07:38:31.192Z</time>
      </trkpt>
      <trkpt lat="43.1679903" lon="-2.8931791">
        <ele>75.5</ele>
        <time>2021-04-01T07:38:31.507Z</time>
      </trkpt>
      <trkpt lat="43.1679934" lon="-2.8931799">
        <ele>75.539</ele>
        <time>2021-04-01T07:38:31.821Z</time>
      </trkpt>
      <trkpt lat="43.1679903" lon="-2.8931791">
        <ele>75.5</ele>
        <time>2021-04-01T07:38:32.135Z</time>
      </trkpt>
      <trkpt lat="43.1678916" lon="-2.8931476">
        <ele>75.743</ele>
        <time>2021-04-01T07:38:33.385Z</time>
      </trkpt>
      <trkpt lat="43.1678435" lon="-2.8931358">
        <ele>75.887</ele>
        <time>2021-04-01T07:38:33.735Z</time>
      </trkpt>
      <trkpt lat="43.1678298" lon="-2.8931324">
        <ele>76.064</ele>
        <time>2021-04-01T07:38:34.086Z</time>
      </trkpt>
      <trkpt lat="43.1678271" lon="-2.8931316">
        <ele>76.136</ele>
        <time>2021-04-01T07:38:34.436Z</time>
      </trkpt>
      <trkpt lat="43.1678298" lon="-2.8931324">
        <ele>76.064</ele>
        <time>2021-04-01T07:38:34.787Z</time>
      </trkpt>
      <trkpt lat="43.1678271" lon="-2.8931316">
        <ele>76.136</ele>
        <time>2021-04-01T07:38:35.138Z</time>
      </trkpt>
      <trkpt lat="43.1678298" lon="-2.8931324">
        <ele>76.064</ele>
        <time>2021-04-01T07:38:35.488Z</time>
      </trkpt>
      <trkpt lat="43.1678271" lon="-2.8931316">
        <ele>76.136</ele>
        <time>2021-04-01T07:38:35.839Z</time>
      </trkpt>
      <trkpt lat="43.167706" lon="-2.893106">
        <ele>78.031</ele>
        <time>2021-04-01T07:38:36.355Z</time>
      </trkpt>
      <trkpt lat="43.1676978" lon="-2.8931048">
        <ele>78.025</ele>
        <time>2021-04-01T07:38:39.215Z</time>
      </trkpt>
      <trkpt lat="43.1675855" lon="-2.8930802">
        <ele>78.85</ele>
        <time>2021-04-01T07:38:39.263Z</time>
      </trkpt>
      <trkpt lat="43.1675904" lon="-2.8930807">
        <ele>78.869</ele>
        <time>2021-04-01T07:38:39.311Z</time>
      </trkpt>
      <trkpt lat="43.1675881" lon="-2.8930802">
        <ele>78.838</ele>
        <time>2021-04-01T07:38:39.359Z</time>
      </trkpt>
      <trkpt lat="43.1675855" lon="-2.8930802">
        <ele>78.85</ele>
        <time>2021-04-01T07:38:39.407Z</time>
      </trkpt>
      <trkpt lat="43.1675904" lon="-2.8930807">
        <ele>78.869</ele>
        <time>2021-04-01T07:38:39.455Z</time>
      </trkpt>
      <trkpt lat="43.1675881" lon="-2.8930802">
        <ele>78.838</ele>
        <time>2021-04-01T07:38:39.503Z</time>
      </trkpt>
      <trkpt lat="43.1675855" lon="-2.8930802">
        <ele>78.85</ele>
        <time>2021-04-01T07:38:39.551Z</time>
      </trkpt>
      <trkpt lat="43.1675381" lon="-2.8930718">
        <ele>79.139</ele>
        <time>2021-04-01T07:38:41.635Z</time>
      </trkpt>
      <trkpt lat="43.1674407" lon="-2.8930382">
        <ele>79.69</ele>
        <time>2021-04-01T07:38:41.756Z</time>
      </trkpt>
      <trkpt lat="43.1674309" lon="-2.893034">
        <ele>79.709</ele>
        <time>2021-04-01T07:38:41.877Z</time>
      </trkpt>
      <trkpt lat="43.1674178" lon="-2.8930274">
        <ele>79.755</ele>
        <time>2021-04-01T07:38:41.998Z</time>
      </trkpt>
      <trkpt lat="43.1674407" lon="-2.8930382">
        <ele>79.69</ele>
        <time>2021-04-01T07:38:42.119Z</time>
      </trkpt>
      <trkpt lat="43.1674309" lon="-2.893034">
        <ele>79.709</ele>
        <time>2021-04-01T07:38:42.240Z</time>
      </trkpt>
      <trkpt lat="43.1674178" lon="-2.8930274">
        <ele>79.755</ele>
        <time>2021-04-01T07:38:42.361Z</time>
      </trkpt>
      <trkpt lat="43.1674407" lon="-2.8930382">
        <ele>79.69</ele>
        <time>2021-04-01T07:38:42.482Z</time>
      </trkpt>
      <trkpt lat="43.1674309" lon="-2.893034">
        <ele>79.709</ele>
        <time>2021-04-01T07:38:42.603Z</time>
      </trkpt>
      <trkpt lat="43.1674178" lon="-2.8930274">
        <ele>79.755</ele>
        <time>2021-04-01T07:38:42.724Z</time>
      </trkpt>
      <trkpt lat="43.1673867" lon="-2.8930089">
        <ele>79.535</ele>
        <time>2021-04-01T07:38:44.440Z</time>
      </trkpt>
      <trkpt lat="43.1673201" lon="-2.8929602">
        <ele>80.081</ele>
        <time>2021-04-01T07:38:44.738Z</time>
      </trkpt>
      <trkpt lat="43.167283" lon="-2.8929278">
        <ele>80.061</ele>
        <time>2021-04-01T07:38:45.037Z</time>
      </trkpt>
      <trkpt lat="43.1673049" lon="-2.8929472">
        <ele>80.008</ele>
        <time>2021-04-01T07:38:45.335Z</time>
      </trkpt>
      <trkpt lat="43.167283" lon="-2.8929278">
        <ele>80.061</ele>
        <time>2021-04-01T07:38:45.634Z</time>
      </trkpt>
      <trkpt lat="43.1673049" lon="-2.8929472">
        <ele>80.008</ele>
        <time>2021-04-01T07:38:45.932Z</time>
      </trkpt>
      <trkpt lat="43.167283" lon="-2.8929278">
        <ele>80.061</ele>
        <time>2021-04-01T07:38:46.231Z</time>
      </trkpt>
      <trkpt lat="43.1672378" lon="-2.8928853">
        <ele>80.144</ele>
        <time>2021-04-01T07:38:46.530Z</time>
      </trkpt>
      <trkpt lat="43.1672316" lon="-2.8928807">
        <ele>79.992</ele>
        <time>2021-04-01T07:38:46.759Z</time>
      </trkpt>
      <trkpt lat="43.1672378" lon="-2.8928853">
        <ele>80.144</ele>
        <time>2021-04-01T07:38:46.988Z</time>
      </trkpt>
      <trkpt lat="43.1672316" lon="-2.8928807">
        <ele>79.992</ele>
        <time>2021-04-01T07:38:47.217Z</time>
      </trkpt>
      <trkpt lat="43.1672378" lon="-2.8928853">
        <ele>80.144</ele>
        <time>2021-04-01T07:38:47.446Z</time>
      </trkpt>
      <trkpt lat="43.1672316" lon="-2.8928807">
        <ele>79.992</ele>
        <time>2021-04-01T07:38:47.675Z</time>
      </trkpt>
      <trkpt lat="43.1671859" lon="-2.8928362">
        <ele>80.17</ele>
        <time>2021-04-01T07:38:49.610Z</time>
      </trkpt>
      <trkpt lat="43.1671304" lon="-2.8927653">
        <ele>80.484</ele>
        <time>2021-04-01T07:38:51.315Z</time>
      </trkpt>
      <trkpt lat="43.1671233" lon="-2.8927563">
        <ele>80.406</ele>
        <time>2021-04-01T07:38:52.690Z</time>
      </trkpt>
      <trkpt lat="43.1670303" lon="-2.8926285">
        <ele>78.911</ele>
        <time>2021-04-01T07:38:53.185Z</time>
      </trkpt>
      <trkpt lat="43.1670101" lon="-2.892593">
        <ele>79</ele>
        <time>2021-04-01T07:38:53.680Z</time>
      </trkpt>
      <trkpt lat="43.1670101" lon="-2.892593">
        <ele>79</ele>
        <time>2021-04-01T07:38:54.175Z</time>
      </trkpt>
      <trkpt lat="43.1669687" lon="-2.8925101">
        <ele>79.051</ele>
        <time>2021-04-01T07:38:55.715Z</time>
      </trkpt>
      <trkpt lat="43.1669409" lon="-2.8924428">
        <ele>78.95</ele>
        <time>2021-04-01T07:38:56.301Z</time>
      </trkpt>
      <trkpt lat="43.1669409" lon="-2.8924428">
        <ele>78.95</ele>
        <time>2021-04-01T07:38:56.888Z</time>
      </trkpt>
      <trkpt lat="43.1669011" lon="-2.8923201">
        <ele>79.72</ele>
        <time>2021-04-01T07:38:57.475Z</time>
      </trkpt>
      <trkpt lat="43.1668948" lon="-2.8922995">
        <ele>79.947</ele>
        <time>2021-04-01T07:38:58.052Z</time>
      </trkpt>
      <trkpt lat="43.1669011" lon="-2.8923201">
        <ele>79.72</ele>
        <time>2021-04-01T07:38:58.630Z</time>
      </trkpt>
      <trkpt lat="43.1668948" lon="-2.8922995">
        <ele>79.947</ele>
        <time>2021-04-01T07:38:59.207Z</time>
      </trkpt>
      <trkpt lat="43.1668573" lon="-2.8921461">
        <ele>80.229</ele>
        <time>2021-04-01T07:39:00.830Z</time>
      </trkpt>
      <trkpt lat="43.1668406" lon="-2.892063">
        <ele>80.991</ele>
        <time>2021-04-01T07:39:02.480Z</time>
      </trkpt>
      <trkpt lat="43.1668374" lon="-2.8920463">
        <ele>80.864</ele>
        <time>2021-04-01T07:39:02.645Z</time>
      </trkpt>
      <trkpt lat="43.1668364" lon="-2.8920416">
        <ele>80.749</ele>
        <time>2021-04-01T07:39:02.810Z</time>
      </trkpt>
      <trkpt lat="43.1668406" lon="-2.892063">
        <ele>80.991</ele>
        <time>2021-04-01T07:39:02.975Z</time>
      </trkpt>
      <trkpt lat="43.1668374" lon="-2.8920463">
        <ele>80.864</ele>
        <time>2021-04-01T07:39:03.140Z</time>
      </trkpt>
      <trkpt lat="43.1668364" lon="-2.8920416">
        <ele>80.749</ele>
        <time>2021-04-01T07:39:03.305Z</time>
      </trkpt>
      <trkpt lat="43.1668406" lon="-2.892063">
        <ele>80.991</ele>
        <time>2021-04-01T07:39:03.470Z</time>
      </trkpt>
      <trkpt lat="43.1668374" lon="-2.8920463">
        <ele>80.864</ele>
        <time>2021-04-01T07:39:03.635Z</time>
      </trkpt>
      <trkpt lat="43.1668364" lon="-2.8920416">
        <ele>80.749</ele>
        <time>2021-04-01T07:39:03.800Z</time>
      </trkpt>
      <trkpt lat="43.1668024" lon="-2.8918419">
        <ele>77.919</ele>
        <time>2021-04-01T07:39:04.035Z</time>
      </trkpt>
      <trkpt lat="43.1667971" lon="-2.8918005">
        <ele>77.728</ele>
        <time>2021-04-01T07:39:04.271Z</time>
      </trkpt>
      <trkpt lat="43.1667958" lon="-2.891792">
        <ele>77.666</ele>
        <time>2021-04-01T07:39:04.507Z</time>
      </trkpt>
      <trkpt lat="43.1668024" lon="-2.8918419">
        <ele>77.919</ele>
        <time>2021-04-01T07:39:04.742Z</time>
      </trkpt>
      <trkpt lat="43.1667971" lon="-2.8918005">
        <ele>77.728</ele>
        <time>2021-04-01T07:39:04.978Z</time>
      </trkpt>
      <trkpt lat="43.1667958" lon="-2.891792">
        <ele>77.666</ele>
        <time>2021-04-01T07:39:05.214Z</time>
      </trkpt>
      <trkpt lat="43.1667848" lon="-2.8917185">
        <ele>76.928</ele>
        <time>2021-04-01T07:39:05.450Z</time>
      </trkpt>
      <trkpt lat="43.1667805" lon="-2.8916908">
        <ele>76.934</ele>
        <time>2021-04-01T07:39:05.798Z</time>
      </trkpt>
      <trkpt lat="43.1667809" lon="-2.8916976">
        <ele>76.914</ele>
        <time>2021-04-01T07:39:06.146Z</time>
      </trkpt>
      <trkpt lat="43.1667805" lon="-2.8916908">
        <ele>76.934</ele>
        <time>2021-04-01T07:39:06.494Z</time>
      </trkpt>
      <trkpt lat="43.1667809" lon="-2.8916976">
        <ele>76.914</ele>
        <time>2021-04-01T07:39:06.843Z</time>
      </trkpt>
      <trkpt lat="43.1667805" lon="-2.8916908">
        <ele>76.934</ele>
        <time>2021-04-01T07:39:07.191Z</time>
      </trkpt>
      <trkpt lat="43.1667559" lon="-2.891558">
        <ele>77.814</ele>
        <time>2021-04-01T07:39:08.585Z</time>
      </trkpt>
      <trkpt lat="43.1667048" lon="-2.8912992">
        <ele>82.143</ele>
        <time>2021-04-01T07:39:10.785Z</time>
      </trkpt>
      <trkpt lat="43.1667048" lon="-2.8912992">
        <ele>82.143</ele>
        <time>2021-04-01T07:39:11.802Z</time>
      </trkpt>
      <trkpt lat="43.1666661" lon="-2.8911472">
        <ele>82.751</ele>
        <time>2021-04-01T07:39:13.095Z</time>
      </trkpt>
      <trkpt lat="43.1666845" lon="-2.8912214">
        <ele>82.329</ele>
        <time>2021-04-01T07:39:13.920Z</time>
      </trkpt>
      <trkpt lat="43.1666845" lon="-2.8912214">
        <ele>82.329</ele>
        <time>2021-04-01T07:39:14.745Z</time>
      </trkpt>
      <trkpt lat="43.1666317" lon="-2.8910061">
        <ele>84.373</ele>
        <time>2021-04-01T07:39:15.012Z</time>
      </trkpt>
      <trkpt lat="43.1666269" lon="-2.8909903">
        <ele>84.472</ele>
        <time>2021-04-01T07:39:15.279Z</time>
      </trkpt>
      <trkpt lat="43.1666159" lon="-2.8909423">
        <ele>85.089</ele>
        <time>2021-04-01T07:39:15.546Z</time>
      </trkpt>
      <trkpt lat="43.1666317" lon="-2.8910061">
        <ele>84.373</ele>
        <time>2021-04-01T07:39:15.813Z</time>
      </trkpt>
      <trkpt lat="43.1666269" lon="-2.8909903">
        <ele>84.472</ele>
        <time>2021-04-01T07:39:16.080Z</time>
      </trkpt>
      <trkpt lat="43.1666159" lon="-2.8909423">
        <ele>85.089</ele>
        <time>2021-04-01T07:39:16.347Z</time>
      </trkpt>
      <trkpt lat="43.1666" lon="-2.8908715">
        <ele>86.15</ele>
        <time>2021-04-01T07:39:17.935Z</time>
      </trkpt>
      <trkpt lat="43.1665526" lon="-2.890734">
        <ele>87.162</ele>
        <time>2021-04-01T07:39:18.133Z</time>
      </trkpt>
      <trkpt lat="43.1665513" lon="-2.8907299">
        <ele>87.185</ele>
        <time>2021-04-01T07:39:18.331Z</time>
      </trkpt>
      <trkpt lat="43.1665501" lon="-2.8907261">
        <ele>87.251</ele>
        <time>2021-04-01T07:39:18.529Z</time>
      </trkpt>
      <trkpt lat="43.1665526" lon="-2.890734">
        <ele>87.162</ele>
        <time>2021-04-01T07:39:18.727Z</time>
      </trkpt>
      <trkpt lat="43.1665513" lon="-2.8907299">
        <ele>87.185</ele>
        <time>2021-04-01T07:39:18.925Z</time>
      </trkpt>
      <trkpt lat="43.1665501" lon="-2.8907261">
        <ele>87.251</ele>
        <time>2021-04-01T07:39:19.123Z</time>
      </trkpt>
      <trkpt lat="43.1665526" lon="-2.890734">
        <ele>87.162</ele>
        <time>2021-04-01T07:39:19.321Z</time>
      </trkpt>
      <trkpt lat="43.1665513" lon="-2.8907299">
        <ele>87.185</ele>
        <time>2021-04-01T07:39:19.519Z</time>
      </trkpt>
      <trkpt lat="43.1665501" lon="-2.8907261">
        <ele>87.251</ele>
        <time>2021-04-01T07:39:19.717Z</time>
      </trkpt>
      <trkpt lat="43.1665117" lon="-2.8906585">
        <ele>86.708</ele>
        <time>2021-04-01T07:39:21.840Z</time>
      </trkpt>
      <trkpt lat="43.166505" lon="-2.8906426">
        <ele>86.686</ele>
        <time>2021-04-01T07:39:21.972Z</time>
      </trkpt>
      <trkpt lat="43.1665117" lon="-2.8906585">
        <ele>86.708</ele>
        <time>2021-04-01T07:39:22.104Z</time>
      </trkpt>
      <trkpt lat="43.166505" lon="-2.8906426">
        <ele>86.686</ele>
        <time>2021-04-01T07:39:22.236Z</time>
      </trkpt>
      <trkpt lat="43.1665117" lon="-2.8906585">
        <ele>86.708</ele>
        <time>2021-04-01T07:39:22.368Z</time>
      </trkpt>
      <trkpt lat="43.166505" lon="-2.8906426">
        <ele>86.686</ele>
        <time>2021-04-01T07:39:22.500Z</time>
      </trkpt>
      <trkpt lat="43.1664177" lon="-2.8905177">
        <ele>88.772</ele>
        <time>2021-04-01T07:39:22.808Z</time>
      </trkpt>
      <trkpt lat="43.166397" lon="-2.8905048">
        <ele>88.003</ele>
        <time>2021-04-01T07:39:23.116Z</time>
      </trkpt>
      <trkpt lat="43.1663994" lon="-2.8905068">
        <ele>88.187</ele>
        <time>2021-04-01T07:39:23.424Z</time>
      </trkpt>
      <trkpt lat="43.166397" lon="-2.8905048">
        <ele>88.003</ele>
        <time>2021-04-01T07:39:23.732Z</time>
      </trkpt>
      <trkpt lat="43.1663472" lon="-2.8904736">
        <ele>86.915</ele>
        <time>2021-04-01T07:39:24.040Z</time>
      </trkpt>
      <trkpt lat="43.1662956" lon="-2.8904513">
        <ele>87.207</ele>
        <time>2021-04-01T07:39:24.409Z</time>
      </trkpt>
      <trkpt lat="43.1662895" lon="-2.8904492">
        <ele>87.18</ele>
        <time>2021-04-01T07:39:24.778Z</time>
      </trkpt>
      <trkpt lat="43.1663499" lon="-2.8904763">
        <ele>86.979</ele>
        <time>2021-04-01T07:39:25.147Z</time>
      </trkpt>
      <trkpt lat="43.1663472" lon="-2.8904736">
        <ele>86.915</ele>
        <time>2021-04-01T07:39:25.517Z</time>
      </trkpt>
      <trkpt lat="43.1662956" lon="-2.8904513">
        <ele>87.207</ele>
        <time>2021-04-01T07:39:25.886Z</time>
      </trkpt>
      <trkpt lat="43.1662895" lon="-2.8904492">
        <ele>87.18</ele>
        <time>2021-04-01T07:39:26.255Z</time>
      </trkpt>
      <trkpt lat="43.1662091" lon="-2.8904419">
        <ele>87.37</ele>
        <time>2021-04-01T07:39:27.890Z</time>
      </trkpt>
      <trkpt lat="43.1661404" lon="-2.8904534">
        <ele>86.782</ele>
        <time>2021-04-01T07:39:29.595Z</time>
      </trkpt>
      <trkpt lat="43.166137" lon="-2.890454">
        <ele>86.759</ele>
        <time>2021-04-01T07:39:29.650Z</time>
      </trkpt>
      <trkpt lat="43.1661493" lon="-2.8904511">
        <ele>86.84</ele>
        <time>2021-04-01T07:39:29.705Z</time>
      </trkpt>
      <trkpt lat="43.1661433" lon="-2.8904527">
        <ele>86.843</ele>
        <time>2021-04-01T07:39:29.760Z</time>
      </trkpt>
      <trkpt lat="43.1661404" lon="-2.8904534">
        <ele>86.782</ele>
        <time>2021-04-01T07:39:29.815Z</time>
      </trkpt>
      <trkpt lat="43.166137" lon="-2.890454">
        <ele>86.759</ele>
        <time>2021-04-01T07:39:29.870Z</time>
      </trkpt>
      <trkpt lat="43.1661493" lon="-2.8904511">
        <ele>86.84</ele>
        <time>2021-04-01T07:39:29.925Z</time>
      </trkpt>
      <trkpt lat="43.1661433" lon="-2.8904527">
        <ele>86.843</ele>
        <time>2021-04-01T07:39:29.980Z</time>
      </trkpt>
      <trkpt lat="43.1661404" lon="-2.8904534">
        <ele>86.782</ele>
        <time>2021-04-01T07:39:30.035Z</time>
      </trkpt>
      <trkpt lat="43.166137" lon="-2.890454">
        <ele>86.759</ele>
        <time>2021-04-01T07:39:30.090Z</time>
      </trkpt>
      <trkpt lat="43.1660577" lon="-2.8904954">
        <ele>85.326</ele>
        <time>2021-04-01T07:39:30.145Z</time>
      </trkpt>
      <trkpt lat="43.1660463" lon="-2.8905004">
        <ele>84.959</ele>
        <time>2021-04-01T07:39:30.200Z</time>
      </trkpt>
      <trkpt lat="43.1660577" lon="-2.8904954">
        <ele>85.326</ele>
        <time>2021-04-01T07:39:30.255Z</time>
      </trkpt>
      <trkpt lat="43.1660463" lon="-2.8905004">
        <ele>84.959</ele>
        <time>2021-04-01T07:39:30.310Z</time>
      </trkpt>
      <trkpt lat="43.1660577" lon="-2.8904954">
        <ele>85.326</ele>
        <time>2021-04-01T07:39:30.365Z</time>
      </trkpt>
      <trkpt lat="43.1660463" lon="-2.8905004">
        <ele>84.959</ele>
        <time>2021-04-01T07:39:30.420Z</time>
      </trkpt>
      <trkpt lat="43.1660138" lon="-2.8905171">
        <ele>84.743</ele>
        <time>2021-04-01T07:39:30.475Z</time>
      </trkpt>
      <trkpt lat="43.1659924" lon="-2.8905266">
        <ele>84.7</ele>
        <time>2021-04-01T07:39:30.695Z</time>
      </trkpt>
      <trkpt lat="43.1659775" lon="-2.8905391">
        <ele>84.717</ele>
        <time>2021-04-01T07:39:30.915Z</time>
      </trkpt>
      <trkpt lat="43.1659924" lon="-2.8905266">
        <ele>84.7</ele>
        <time>2021-04-01T07:39:31.135Z</time>
      </trkpt>
      <trkpt lat="43.1659775" lon="-2.8905391">
        <ele>84.717</ele>
        <time>2021-04-01T07:39:31.355Z</time>
      </trkpt>
      <trkpt lat="43.1659924" lon="-2.8905266">
        <ele>84.7</ele>
        <time>2021-04-01T07:39:31.575Z</time>
      </trkpt>
      <trkpt lat="43.1659775" lon="-2.8905391">
        <ele>84.717</ele>
        <time>2021-04-01T07:39:31.795Z</time>
      </trkpt>
      <trkpt lat="43.1659453" lon="-2.8905705">
        <ele>84.397</ele>
        <time>2021-04-01T07:39:33.885Z</time>
      </trkpt>
      <trkpt lat="43.1658687" lon="-2.8906184">
        <ele>82.007</ele>
        <time>2021-04-01T07:39:34.187Z</time>
      </trkpt>
      <trkpt lat="43.1658619" lon="-2.8906191">
        <ele>82.058</ele>
        <time>2021-04-01T07:39:34.490Z</time>
      </trkpt>
      <trkpt lat="43.1658522" lon="-2.8906237">
        <ele>81.657</ele>
        <time>2021-04-01T07:39:34.792Z</time>
      </trkpt>
      <trkpt lat="43.1658619" lon="-2.8906191">
        <ele>82.058</ele>
        <time>2021-04-01T07:39:35.095Z</time>
      </trkpt>
      <trkpt lat="43.1658522" lon="-2.8906237">
        <ele>81.657</ele>
        <time>2021-04-01T07:39:35.397Z</time>
      </trkpt>
      <trkpt lat="43.1657912" lon="-2.8906526">
        <ele>79.609</ele>
        <time>2021-04-01T07:39:35.700Z</time>
      </trkpt>
      <trkpt lat="43.1657912" lon="-2.8906526">
        <ele>79.609</ele>
        <time>2021-04-01T07:39:36.231Z</time>
      </trkpt>
      <trkpt lat="43.1657912" lon="-2.8906526">
        <ele>79.609</ele>
        <time>2021-04-01T07:39:36.763Z</time>
      </trkpt>
      <trkpt lat="43.165718" lon="-2.8906875">
        <ele>78.675</ele>
        <time>2021-04-01T07:39:38.890Z</time>
      </trkpt>
      <trkpt lat="43.1656348" lon="-2.8907177">
        <ele>78.971</ele>
        <time>2021-04-01T07:39:39.183Z</time>
      </trkpt>
      <trkpt lat="43.1656382" lon="-2.8907167">
        <ele>78.892</ele>
        <time>2021-04-01T07:39:39.476Z</time>
      </trkpt>
      <trkpt lat="43.1656348" lon="-2.8907177">
        <ele>78.971</ele>
        <time>2021-04-01T07:39:39.769Z</time>
      </trkpt>
      <trkpt lat="43.1656382" lon="-2.8907167">
        <ele>78.892</ele>
        <time>2021-04-01T07:39:40.063Z</time>
      </trkpt>
      <trkpt lat="43.1656348" lon="-2.8907177">
        <ele>78.971</ele>
        <time>2021-04-01T07:39:40.356Z</time>
      </trkpt>
      <trkpt lat="43.1655445" lon="-2.8907603">
        <ele>79.279</ele>
        <time>2021-04-01T07:39:41.915Z</time>
      </trkpt>
      <trkpt lat="43.1654807" lon="-2.8907851">
        <ele>79.032</ele>
        <time>2021-04-01T07:39:42.147Z</time>
      </trkpt>
      <trkpt lat="43.1654679" lon="-2.8907904">
        <ele>78.756</ele>
        <time>2021-04-01T07:39:42.379Z</time>
      </trkpt>
      <trkpt lat="43.1654754" lon="-2.8907874">
        <ele>78.936</ele>
        <time>2021-04-01T07:39:42.611Z</time>
      </trkpt>
      <trkpt lat="43.1654701" lon="-2.8907894">
        <ele>78.899</ele>
        <time>2021-04-01T07:39:42.843Z</time>
      </trkpt>
      <trkpt lat="43.1654679" lon="-2.8907904">
        <ele>78.756</ele>
        <time>2021-04-01T07:39:43.076Z</time>
      </trkpt>
      <trkpt lat="43.1654754" lon="-2.8907874">
        <ele>78.936</ele>
        <time>2021-04-01T07:39:43.308Z</time>
      </trkpt>
      <trkpt lat="43.1654701" lon="-2.8907894">
        <ele>78.899</ele>
        <time>2021-04-01T07:39:43.540Z</time>
      </trkpt>
      <trkpt lat="43.1654679" lon="-2.8907904">
        <ele>78.756</ele>
        <time>2021-04-01T07:39:43.772Z</time>
      </trkpt>
      <trkpt lat="43.1653863" lon="-2.890827">
        <ele>77.751</ele>
        <time>2021-04-01T07:39:44.940Z</time>
      </trkpt>
      <trkpt lat="43.1653419" lon="-2.8908373">
        <ele>77.065</ele>
        <time>2021-04-01T07:39:46.590Z</time>
      </trkpt>
      <trkpt lat="43.1652341" lon="-2.8908666">
        <ele>76.018</ele>
        <time>2021-04-01T07:39:46.794Z</time>
      </trkpt>
      <trkpt lat="43.1652321" lon="-2.8908676">
        <ele>75.914</ele>
        <time>2021-04-01T07:39:46.998Z</time>
      </trkpt>
      <trkpt lat="43.1652341" lon="-2.8908666">
        <ele>76.018</ele>
        <time>2021-04-01T07:39:47.202Z</time>
      </trkpt>
      <trkpt lat="43.1652321" lon="-2.8908676">
        <ele>75.914</ele>
        <time>2021-04-01T07:39:47.407Z</time>
      </trkpt>
      <trkpt lat="43.1652341" lon="-2.8908666">
        <ele>76.018</ele>
        <time>2021-04-01T07:39:47.611Z</time>
      </trkpt>
      <trkpt lat="43.1652321" lon="-2.8908676">
        <ele>75.914</ele>
        <time>2021-04-01T07:39:47.815Z</time>
      </trkpt>
      <trkpt lat="43.1651847" lon="-2.89088">
        <ele>76.285</ele>
        <time>2021-04-01T07:39:49.450Z</time>
      </trkpt>
      <trkpt lat="43.1651748" lon="-2.8908828">
        <ele>76.477</ele>
        <time>2021-04-01T07:39:50.440Z</time>
      </trkpt>
      <trkpt lat="43.1651748" lon="-2.8908828">
        <ele>76.477</ele>
        <time>2021-04-01T07:39:51.430Z</time>
      </trkpt>
      <trkpt lat="43.1651078" lon="-2.8908979">
        <ele>76.408</ele>
        <time>2021-04-01T07:39:51.606Z</time>
      </trkpt>
      <trkpt lat="43.1650762" lon="-2.8909041">
        <ele>76.819</ele>
        <time>2021-04-01T07:39:51.782Z</time>
      </trkpt>
      <trkpt lat="43.1650698" lon="-2.8909049">
        <ele>76.828</ele>
        <time>2021-04-01T07:39:51.958Z</time>
      </trkpt>
      <trkpt lat="43.1650851" lon="-2.890902">
        <ele>76.781</ele>
        <time>2021-04-01T07:39:52.134Z</time>
      </trkpt>
      <trkpt lat="43.1650762" lon="-2.8909041">
        <ele>76.819</ele>
        <time>2021-04-01T07:39:52.310Z</time>
      </trkpt>
      <trkpt lat="43.1650698" lon="-2.8909049">
        <ele>76.828</ele>
        <time>2021-04-01T07:39:52.486Z</time>
      </trkpt>
      <trkpt lat="43.1650668" lon="-2.8909058">
        <ele>76.907</ele>
        <time>2021-04-01T07:39:52.662Z</time>
      </trkpt>
      <trkpt lat="43.1650762" lon="-2.8909041">
        <ele>76.819</ele>
        <time>2021-04-01T07:39:52.838Z</time>
      </trkpt>
      <trkpt lat="43.1650698" lon="-2.8909049">
        <ele>76.828</ele>
        <time>2021-04-01T07:39:53.014Z</time>
      </trkpt>
      <trkpt lat="43.1650668" lon="-2.8909058">
        <ele>76.907</ele>
        <time>2021-04-01T07:39:53.190Z</time>
      </trkpt>
      <trkpt lat="43.1649027" lon="-2.8909094">
        <ele>77.235</ele>
        <time>2021-04-01T07:39:53.437Z</time>
      </trkpt>
      <trkpt lat="43.1649027" lon="-2.8909094">
        <ele>77.235</ele>
        <time>2021-04-01T07:39:53.685Z</time>
      </trkpt>
      <trkpt lat="43.1649027" lon="-2.8909094">
        <ele>77.235</ele>
        <time>2021-04-01T07:39:53.932Z</time>
      </trkpt>
      <trkpt lat="43.1648476" lon="-2.890879">
        <ele>77.551</ele>
        <time>2021-04-01T07:39:54.180Z</time>
      </trkpt>
      <trkpt lat="43.1648002" lon="-2.890847">
        <ele>77.8</ele>
        <time>2021-04-01T07:39:54.500Z</time>
      </trkpt>
      <trkpt lat="43.1648447" lon="-2.8908771">
        <ele>77.551</ele>
        <time>2021-04-01T07:39:54.821Z</time>
      </trkpt>
      <trkpt lat="43.1648002" lon="-2.890847">
        <ele>77.8</ele>
        <time>2021-04-01T07:39:55.142Z</time>
      </trkpt>
      <trkpt lat="43.1648447" lon="-2.8908771">
        <ele>77.551</ele>
        <time>2021-04-01T07:39:55.463Z</time>
      </trkpt>
      <trkpt lat="43.1648002" lon="-2.890847">
        <ele>77.8</ele>
        <time>2021-04-01T07:39:55.784Z</time>
      </trkpt>
      <trkpt lat="43.1647482" lon="-2.8908062">
        <ele>77.993</ele>
        <time>2021-04-01T07:39:56.105Z</time>
      </trkpt>
      <trkpt lat="43.1647215" lon="-2.8907807">
        <ele>78.121</ele>
        <time>2021-04-01T07:39:56.545Z</time>
      </trkpt>
      <trkpt lat="43.1647482" lon="-2.8908062">
        <ele>77.993</ele>
        <time>2021-04-01T07:39:56.985Z</time>
      </trkpt>
      <trkpt lat="43.1647215" lon="-2.8907807">
        <ele>78.121</ele>
        <time>2021-04-01T07:39:57.425Z</time>
      </trkpt>
      <trkpt lat="43.1646671" lon="-2.8907229">
        <ele>78.473</ele>
        <time>2021-04-01T07:39:59.075Z</time>
      </trkpt>
      <trkpt lat="43.1645491" lon="-2.8905613">
        <ele>78.47</ele>
        <time>2021-04-01T07:40:02.045Z</time>
      </trkpt>
      <trkpt lat="43.1645449" lon="-2.8905562">
        <ele>78.402</ele>
        <time>2021-04-01T07:40:02.351Z</time>
      </trkpt>
      <trkpt lat="43.164537" lon="-2.8905428">
        <ele>78.428</ele>
        <time>2021-04-01T07:40:02.657Z</time>
      </trkpt>
      <trkpt lat="43.1645354" lon="-2.8905405">
        <ele>78.342</ele>
        <time>2021-04-01T07:40:02.964Z</time>
      </trkpt>
      <trkpt lat="43.164537" lon="-2.8905428">
        <ele>78.428</ele>
        <time>2021-04-01T07:40:03.270Z</time>
      </trkpt>
      <trkpt lat="43.1645354" lon="-2.8905405">
        <ele>78.342</ele>
        <time>2021-04-01T07:40:03.577Z</time>
      </trkpt>
      <trkpt lat="43.164537" lon="-2.8905428">
        <ele>78.428</ele>
        <time>2021-04-01T07:40:03.883Z</time>
      </trkpt>
      <trkpt lat="43.1645354" lon="-2.8905405">
        <ele>78.342</ele>
        <time>2021-04-01T07:40:04.190Z</time>
      </trkpt>
      <trkpt lat="43.1644306" lon="-2.8903679">
        <ele>78.951</ele>
        <time>2021-04-01T07:40:04.388Z</time>
      </trkpt>
      <trkpt lat="43.1644231" lon="-2.8903543">
        <ele>78.938</ele>
        <time>2021-04-01T07:40:04.586Z</time>
      </trkpt>
      <trkpt lat="43.1644306" lon="-2.8903679">
        <ele>78.951</ele>
        <time>2021-04-01T07:40:04.784Z</time>
      </trkpt>
      <trkpt lat="43.1644231" lon="-2.8903543">
        <ele>78.938</ele>
        <time>2021-04-01T07:40:04.982Z</time>
      </trkpt>
      <trkpt lat="43.1643977" lon="-2.8903059">
        <ele>79.093</ele>
        <time>2021-04-01T07:40:05.180Z</time>
      </trkpt>
      <trkpt lat="43.1643693" lon="-2.8902462">
        <ele>79.085</ele>
        <time>2021-04-01T07:40:05.620Z</time>
      </trkpt>
      <trkpt lat="43.1643693" lon="-2.8902462">
        <ele>79.085</ele>
        <time>2021-04-01T07:40:06.060Z</time>
      </trkpt>
      <trkpt lat="43.1643693" lon="-2.8902462">
        <ele>79.085</ele>
        <time>2021-04-01T07:40:06.500Z</time>
      </trkpt>
      <trkpt lat="43.1643456" lon="-2.8901925">
        <ele>78.953</ele>
        <time>2021-04-01T07:40:08.150Z</time>
      </trkpt>
      <trkpt lat="43.1643153" lon="-2.890109">
        <ele>78.875</ele>
        <time>2021-04-01T07:40:08.377Z</time>
      </trkpt>
      <trkpt lat="43.1642955" lon="-2.8900562">
        <ele>78.74</ele>
        <time>2021-04-01T07:40:08.605Z</time>
      </trkpt>
      <trkpt lat="43.1642955" lon="-2.8900562">
        <ele>78.74</ele>
        <time>2021-04-01T07:40:08.833Z</time>
      </trkpt>
      <trkpt lat="43.1642888" lon="-2.8900372">
        <ele>78.695</ele>
        <time>2021-04-01T07:40:09.061Z</time>
      </trkpt>
      <trkpt lat="43.1642955" lon="-2.8900562">
        <ele>78.74</ele>
        <time>2021-04-01T07:40:09.289Z</time>
      </trkpt>
      <trkpt lat="43.1642888" lon="-2.8900372">
        <ele>78.695</ele>
        <time>2021-04-01T07:40:09.517Z</time>
      </trkpt>
      <trkpt lat="43.164275" lon="-2.8899984">
        <ele>78.719</ele>
        <time>2021-04-01T07:40:11.175Z</time>
      </trkpt>
      <trkpt lat="43.1642365" lon="-2.8899014">
        <ele>78.769</ele>
        <time>2021-04-01T07:40:13.320Z</time>
      </trkpt>
      <trkpt lat="43.1642076" lon="-2.8898199">
        <ele>78.779</ele>
        <time>2021-04-01T07:40:13.496Z</time>
      </trkpt>
      <trkpt lat="43.1642173" lon="-2.8898474">
        <ele>78.731</ele>
        <time>2021-04-01T07:40:13.672Z</time>
      </trkpt>
      <trkpt lat="43.1642076" lon="-2.8898199">
        <ele>78.779</ele>
        <time>2021-04-01T07:40:13.848Z</time>
      </trkpt>
      <trkpt lat="43.1642173" lon="-2.8898474">
        <ele>78.731</ele>
        <time>2021-04-01T07:40:14.024Z</time>
      </trkpt>
      <trkpt lat="43.1642076" lon="-2.8898199">
        <ele>78.779</ele>
        <time>2021-04-01T07:40:14.200Z</time>
      </trkpt>
      <trkpt lat="43.1641821" lon="-2.8897486">
        <ele>78.899</ele>
        <time>2021-04-01T07:40:14.376Z</time>
      </trkpt>
      <trkpt lat="43.1641807" lon="-2.8897448">
        <ele>78.879</ele>
        <time>2021-04-01T07:40:14.552Z</time>
      </trkpt>
      <trkpt lat="43.1641821" lon="-2.8897486">
        <ele>78.899</ele>
        <time>2021-04-01T07:40:14.728Z</time>
      </trkpt>
      <trkpt lat="43.1641807" lon="-2.8897448">
        <ele>78.879</ele>
        <time>2021-04-01T07:40:14.904Z</time>
      </trkpt>
      <trkpt lat="43.1641373" lon="-2.8896225">
        <ele>79.113</ele>
        <time>2021-04-01T07:40:15.080Z</time>
      </trkpt>
      <trkpt lat="43.1641309" lon="-2.889602">
        <ele>79.194</ele>
        <time>2021-04-01T07:40:15.322Z</time>
      </trkpt>
      <trkpt lat="43.1641256" lon="-2.8895869">
        <ele>79.182</ele>
        <time>2021-04-01T07:40:15.564Z</time>
      </trkpt>
      <trkpt lat="43.1641309" lon="-2.889602">
        <ele>79.194</ele>
        <time>2021-04-01T07:40:15.806Z</time>
      </trkpt>
      <trkpt lat="43.1641256" lon="-2.8895869">
        <ele>79.182</ele>
        <time>2021-04-01T07:40:16.048Z</time>
      </trkpt>
      <trkpt lat="43.1641058" lon="-2.8895383">
        <ele>79.075</ele>
        <time>2021-04-01T07:40:18.490Z</time>
      </trkpt>
      <trkpt lat="43.1640478" lon="-2.8893833">
        <ele>79.542</ele>
        <time>2021-04-01T07:40:19.260Z</time>
      </trkpt>
      <trkpt lat="43.1640283" lon="-2.8893286">
        <ele>79.692</ele>
        <time>2021-04-01T07:40:19.773Z</time>
      </trkpt>
      <trkpt lat="43.1640122" lon="-2.8892762">
        <ele>79.838</ele>
        <time>2021-04-01T07:40:20.286Z</time>
      </trkpt>
      <trkpt lat="43.1639936" lon="-2.8892159">
        <ele>79.934</ele>
        <time>2021-04-01T07:40:20.800Z</time>
      </trkpt>
      <trkpt lat="43.1639695" lon="-2.8891399">
        <ele>80.015</ele>
        <time>2021-04-01T07:40:21.130Z</time>
      </trkpt>
      <trkpt lat="43.163976" lon="-2.8891595">
        <ele>80.018</ele>
        <time>2021-04-01T07:40:21.460Z</time>
      </trkpt>
      <trkpt lat="43.1639695" lon="-2.8891399">
        <ele>80.015</ele>
        <time>2021-04-01T07:40:21.790Z</time>
      </trkpt>
      <trkpt lat="43.163976" lon="-2.8891595">
        <ele>80.018</ele>
        <time>2021-04-01T07:40:22.120Z</time>
      </trkpt>
      <trkpt lat="43.1639695" lon="-2.8891399">
        <ele>80.015</ele>
        <time>2021-04-01T07:40:22.450Z</time>
      </trkpt>
      <trkpt lat="43.1639471" lon="-2.8890736">
        <ele>80.029</ele>
        <time>2021-04-01T07:40:24.925Z</time>
      </trkpt>
      <trkpt lat="43.1639409" lon="-2.8890541">
        <ele>80.049</ele>
        <time>2021-04-01T07:40:25.365Z</time>
      </trkpt>
      <trkpt lat="43.1639409" lon="-2.8890541">
        <ele>80.049</ele>
        <time>2021-04-01T07:40:25.805Z</time>
      </trkpt>
      <trkpt lat="43.1638782" lon="-2.8888575">
        <ele>80.27</ele>
        <time>2021-04-01T07:40:28.005Z</time>
      </trkpt>
      <trkpt lat="43.1638321" lon="-2.8887007">
        <ele>80.748</ele>
        <time>2021-04-01T07:40:28.181Z</time>
      </trkpt>
      <trkpt lat="43.1638314" lon="-2.8886963">
        <ele>80.771</ele>
        <time>2021-04-01T07:40:28.357Z</time>
      </trkpt>
      <trkpt lat="43.1638321" lon="-2.8887007">
        <ele>80.748</ele>
        <time>2021-04-01T07:40:28.533Z</time>
      </trkpt>
      <trkpt lat="43.1638314" lon="-2.8886963">
        <ele>80.771</ele>
        <time>2021-04-01T07:40:28.709Z</time>
      </trkpt>
      <trkpt lat="43.1638137" lon="-2.8886366">
        <ele>80.945</ele>
        <time>2021-04-01T07:40:30.370Z</time>
      </trkpt>
      <trkpt lat="43.1637803" lon="-2.8885281">
        <ele>81.401</ele>
        <time>2021-04-01T07:40:30.654Z</time>
      </trkpt>
      <trkpt lat="43.1637733" lon="-2.8885032">
        <ele>81.478</ele>
        <time>2021-04-01T07:40:30.938Z</time>
      </trkpt>
      <trkpt lat="43.1637803" lon="-2.8885281">
        <ele>81.401</ele>
        <time>2021-04-01T07:40:31.222Z</time>
      </trkpt>
      <trkpt lat="43.1637733" lon="-2.8885032">
        <ele>81.478</ele>
        <time>2021-04-01T07:40:31.506Z</time>
      </trkpt>
      <trkpt lat="43.1637733" lon="-2.8885032">
        <ele>81.478</ele>
        <time>2021-04-01T07:40:31.790Z</time>
      </trkpt>
      <trkpt lat="43.1637415" lon="-2.8884025">
        <ele>81.915</ele>
        <time>2021-04-01T07:40:33.450Z</time>
      </trkpt>
      <trkpt lat="43.1637108" lon="-2.8882998">
        <ele>82.248</ele>
        <time>2021-04-01T07:40:33.789Z</time>
      </trkpt>
      <trkpt lat="43.1637057" lon="-2.8882841">
        <ele>82.271</ele>
        <time>2021-04-01T07:40:34.128Z</time>
      </trkpt>
      <trkpt lat="43.1637129" lon="-2.8883082">
        <ele>82.205</ele>
        <time>2021-04-01T07:40:34.467Z</time>
      </trkpt>
      <trkpt lat="43.1637108" lon="-2.8882998">
        <ele>82.248</ele>
        <time>2021-04-01T07:40:34.806Z</time>
      </trkpt>
      <trkpt lat="43.1637057" lon="-2.8882841">
        <ele>82.271</ele>
        <time>2021-04-01T07:40:35.145Z</time>
      </trkpt>
      <trkpt lat="43.1636675" lon="-2.8881491">
        <ele>82.905</ele>
        <time>2021-04-01T07:40:37.300Z</time>
      </trkpt>
      <trkpt lat="43.1636285" lon="-2.8880177">
        <ele>83.64</ele>
        <time>2021-04-01T07:40:37.740Z</time>
      </trkpt>
      <trkpt lat="43.1636223" lon="-2.8879983">
        <ele>83.725</ele>
        <time>2021-04-01T07:40:38.180Z</time>
      </trkpt>
      <trkpt lat="43.1636285" lon="-2.8880177">
        <ele>83.64</ele>
        <time>2021-04-01T07:40:38.620Z</time>
      </trkpt>
      <trkpt lat="43.1636223" lon="-2.8879983">
        <ele>83.725</ele>
        <time>2021-04-01T07:40:39.060Z</time>
      </trkpt>
      <trkpt lat="43.1635826" lon="-2.8878608">
        <ele>84.096</ele>
        <time>2021-04-01T07:40:39.500Z</time>
      </trkpt>
      <trkpt lat="43.1636041" lon="-2.8879308">
        <ele>83.968</ele>
        <time>2021-04-01T07:40:39.995Z</time>
      </trkpt>
      <trkpt lat="43.1635623" lon="-2.8877893">
        <ele>84.28</ele>
        <time>2021-04-01T07:40:41.425Z</time>
      </trkpt>
      <trkpt lat="43.1635433" lon="-2.8877225">
        <ele>84.343</ele>
        <time>2021-04-01T07:40:41.658Z</time>
      </trkpt>
      <trkpt lat="43.163526" lon="-2.8876668">
        <ele>84.483</ele>
        <time>2021-04-01T07:40:41.892Z</time>
      </trkpt>
      <trkpt lat="43.163524" lon="-2.8876588">
        <ele>84.517</ele>
        <time>2021-04-01T07:40:42.126Z</time>
      </trkpt>
      <trkpt lat="43.163526" lon="-2.8876668">
        <ele>84.483</ele>
        <time>2021-04-01T07:40:42.360Z</time>
      </trkpt>
      <trkpt lat="43.163524" lon="-2.8876588">
        <ele>84.517</ele>
        <time>2021-04-01T07:40:42.593Z</time>
      </trkpt>
      <trkpt lat="43.163526" lon="-2.8876668">
        <ele>84.483</ele>
        <time>2021-04-01T07:40:42.827Z</time>
      </trkpt>
      <trkpt lat="43.163524" lon="-2.8876588">
        <ele>84.517</ele>
        <time>2021-04-01T07:40:43.061Z</time>
      </trkpt>
      <trkpt lat="43.1634953" lon="-2.8875895">
        <ele>84.594</ele>
        <time>2021-04-01T07:40:45.385Z</time>
      </trkpt>
      <trkpt lat="43.1634317" lon="-2.8874464">
        <ele>84.478</ele>
        <time>2021-04-01T07:40:45.562Z</time>
      </trkpt>
      <trkpt lat="43.1634299" lon="-2.8874425">
        <ele>84.464</ele>
        <time>2021-04-01T07:40:45.739Z</time>
      </trkpt>
      <trkpt lat="43.1634317" lon="-2.8874464">
        <ele>84.478</ele>
        <time>2021-04-01T07:40:45.916Z</time>
      </trkpt>
      <trkpt lat="43.1634299" lon="-2.8874425">
        <ele>84.464</ele>
        <time>2021-04-01T07:40:46.093Z</time>
      </trkpt>
      <trkpt lat="43.1634283" lon="-2.8874387">
        <ele>84.476</ele>
        <time>2021-04-01T07:40:46.271Z</time>
      </trkpt>
      <trkpt lat="43.1634317" lon="-2.8874464">
        <ele>84.478</ele>
        <time>2021-04-01T07:40:46.448Z</time>
      </trkpt>
      <trkpt lat="43.1634299" lon="-2.8874425">
        <ele>84.464</ele>
        <time>2021-04-01T07:40:46.625Z</time>
      </trkpt>
      <trkpt lat="43.1634283" lon="-2.8874387">
        <ele>84.476</ele>
        <time>2021-04-01T07:40:46.802Z</time>
      </trkpt>
      <trkpt lat="43.1633854" lon="-2.8873352">
        <ele>84.219</ele>
        <time>2021-04-01T07:40:46.980Z</time>
      </trkpt>
      <trkpt lat="43.1633843" lon="-2.8873315">
        <ele>84.236</ele>
        <time>2021-04-01T07:40:47.268Z</time>
      </trkpt>
      <trkpt lat="43.1634017" lon="-2.8873741">
        <ele>84.338</ele>
        <time>2021-04-01T07:40:47.557Z</time>
      </trkpt>
      <trkpt lat="43.1633854" lon="-2.8873352">
        <ele>84.219</ele>
        <time>2021-04-01T07:40:47.846Z</time>
      </trkpt>
      <trkpt lat="43.1633843" lon="-2.8873315">
        <ele>84.236</ele>
        <time>2021-04-01T07:40:48.135Z</time>
      </trkpt>
      <trkpt lat="43.1634017" lon="-2.8873741">
        <ele>84.338</ele>
        <time>2021-04-01T07:40:48.423Z</time>
      </trkpt>
      <trkpt lat="43.1633854" lon="-2.8873352">
        <ele>84.219</ele>
        <time>2021-04-01T07:40:48.712Z</time>
      </trkpt>
      <trkpt lat="43.1633843" lon="-2.8873315">
        <ele>84.236</ele>
        <time>2021-04-01T07:40:49.001Z</time>
      </trkpt>
      <trkpt lat="43.1633257" lon="-2.8871762">
        <ele>83.484</ele>
        <time>2021-04-01T07:40:49.400Z</time>
      </trkpt>
      <trkpt lat="43.1633235" lon="-2.8871692">
        <ele>83.393</ele>
        <time>2021-04-01T07:40:49.812Z</time>
      </trkpt>
      <trkpt lat="43.163316" lon="-2.8871513">
        <ele>83.266</ele>
        <time>2021-04-01T07:40:50.225Z</time>
      </trkpt>
      <trkpt lat="43.163316" lon="-2.8871513">
        <ele>83.266</ele>
        <time>2021-04-01T07:40:50.637Z</time>
      </trkpt>
      <trkpt lat="43.163277" lon="-2.8870586">
        <ele>83.256</ele>
        <time>2021-04-01T07:40:52.535Z</time>
      </trkpt>
      <trkpt lat="43.1632357" lon="-2.8869571">
        <ele>83.412</ele>
        <time>2021-04-01T07:40:52.883Z</time>
      </trkpt>
      <trkpt lat="43.1632343" lon="-2.8869536">
        <ele>83.378</ele>
        <time>2021-04-01T07:40:53.231Z</time>
      </trkpt>
      <trkpt lat="43.1632283" lon="-2.8869389">
        <ele>83.341</ele>
        <time>2021-04-01T07:40:53.579Z</time>
      </trkpt>
      <trkpt lat="43.1632205" lon="-2.8869205">
        <ele>83.353</ele>
        <time>2021-04-01T07:40:53.928Z</time>
      </trkpt>
      <trkpt lat="43.1632357" lon="-2.8869571">
        <ele>83.412</ele>
        <time>2021-04-01T07:40:54.276Z</time>
      </trkpt>
      <trkpt lat="43.1632343" lon="-2.8869536">
        <ele>83.378</ele>
        <time>2021-04-01T07:40:54.624Z</time>
      </trkpt>
      <trkpt lat="43.1632283" lon="-2.8869389">
        <ele>83.341</ele>
        <time>2021-04-01T07:40:54.973Z</time>
      </trkpt>
      <trkpt lat="43.1632205" lon="-2.8869205">
        <ele>83.353</ele>
        <time>2021-04-01T07:40:55.321Z</time>
      </trkpt>
      <trkpt lat="43.1631578" lon="-2.8867362">
        <ele>83.528</ele>
        <time>2021-04-01T07:40:55.670Z</time>
      </trkpt>
      <trkpt lat="43.1631578" lon="-2.8867362">
        <ele>83.528</ele>
        <time>2021-04-01T07:40:57.540Z</time>
      </trkpt>
      <trkpt lat="43.1631081" lon="-2.8866064">
        <ele>83.26</ele>
        <time>2021-04-01T07:40:58.640Z</time>
      </trkpt>
      <trkpt lat="43.1631073" lon="-2.8866021">
        <ele>83.24</ele>
        <time>2021-04-01T07:40:58.736Z</time>
      </trkpt>
      <trkpt lat="43.1631024" lon="-2.8865859">
        <ele>83.287</ele>
        <time>2021-04-01T07:40:58.832Z</time>
      </trkpt>
      <trkpt lat="43.1630964" lon="-2.8865702">
        <ele>83.404</ele>
        <time>2021-04-01T07:40:58.928Z</time>
      </trkpt>
      <trkpt lat="43.1631081" lon="-2.8866064">
        <ele>83.26</ele>
        <time>2021-04-01T07:40:59.025Z</time>
      </trkpt>
      <trkpt lat="43.1631073" lon="-2.8866021">
        <ele>83.24</ele>
        <time>2021-04-01T07:40:59.121Z</time>
      </trkpt>
      <trkpt lat="43.1631024" lon="-2.8865859">
        <ele>83.287</ele>
        <time>2021-04-01T07:40:59.217Z</time>
      </trkpt>
      <trkpt lat="43.1630964" lon="-2.8865702">
        <ele>83.404</ele>
        <time>2021-04-01T07:40:59.313Z</time>
      </trkpt>
      <trkpt lat="43.1631081" lon="-2.8866064">
        <ele>83.26</ele>
        <time>2021-04-01T07:40:59.410Z</time>
      </trkpt>
      <trkpt lat="43.1631073" lon="-2.8866021">
        <ele>83.24</ele>
        <time>2021-04-01T07:40:59.506Z</time>
      </trkpt>
      <trkpt lat="43.1631024" lon="-2.8865859">
        <ele>83.287</ele>
        <time>2021-04-01T07:40:59.602Z</time>
      </trkpt>
      <trkpt lat="43.1630964" lon="-2.8865702">
        <ele>83.404</ele>
        <time>2021-04-01T07:40:59.698Z</time>
      </trkpt>
      <trkpt lat="43.1630776" lon="-2.8865302">
        <ele>83.236</ele>
        <time>2021-04-01T07:40:59.795Z</time>
      </trkpt>
      <trkpt lat="43.1630557" lon="-2.8864651">
        <ele>83.422</ele>
        <time>2021-04-01T07:40:59.891Z</time>
      </trkpt>
      <trkpt lat="43.163054" lon="-2.8864611">
        <ele>83.468</ele>
        <time>2021-04-01T07:40:59.987Z</time>
      </trkpt>
      <trkpt lat="43.1630524" lon="-2.8864576">
        <ele>83.413</ele>
        <time>2021-04-01T07:41:00.083Z</time>
      </trkpt>
      <trkpt lat="43.1630504" lon="-2.8864546">
        <ele>83.337</ele>
        <time>2021-04-01T07:41:00.180Z</time>
      </trkpt>
      <trkpt lat="43.163054" lon="-2.8864611">
        <ele>83.468</ele>
        <time>2021-04-01T07:41:00.276Z</time>
      </trkpt>
      <trkpt lat="43.1630524" lon="-2.8864576">
        <ele>83.413</ele>
        <time>2021-04-01T07:41:00.372Z</time>
      </trkpt>
      <trkpt lat="43.1630504" lon="-2.8864546">
        <ele>83.337</ele>
        <time>2021-04-01T07:41:00.468Z</time>
      </trkpt>
      <trkpt lat="43.1630249" lon="-2.8863936">
        <ele>83.363</ele>
        <time>2021-04-01T07:41:00.565Z</time>
      </trkpt>
      <trkpt lat="43.1630249" lon="-2.8863936">
        <ele>83.363</ele>
        <time>2021-04-01T07:41:01.362Z</time>
      </trkpt>
      <trkpt lat="43.162984" lon="-2.8862865">
        <ele>82.824</ele>
        <time>2021-04-01T07:41:03.535Z</time>
      </trkpt>
      <trkpt lat="43.1629429" lon="-2.8861994">
        <ele>82.014</ele>
        <time>2021-04-01T07:41:03.786Z</time>
      </trkpt>
      <trkpt lat="43.1629411" lon="-2.8861952">
        <ele>82.077</ele>
        <time>2021-04-01T07:41:04.037Z</time>
      </trkpt>
      <trkpt lat="43.1629273" lon="-2.8861561">
        <ele>82.146</ele>
        <time>2021-04-01T07:41:04.289Z</time>
      </trkpt>
      <trkpt lat="43.1629429" lon="-2.8861994">
        <ele>82.014</ele>
        <time>2021-04-01T07:41:04.540Z</time>
      </trkpt>
      <trkpt lat="43.1629411" lon="-2.8861952">
        <ele>82.077</ele>
        <time>2021-04-01T07:41:04.792Z</time>
      </trkpt>
      <trkpt lat="43.1629273" lon="-2.8861561">
        <ele>82.146</ele>
        <time>2021-04-01T07:41:05.043Z</time>
      </trkpt>
      <trkpt lat="43.1629005" lon="-2.8860745">
        <ele>82.369</ele>
        <time>2021-04-01T07:41:05.295Z</time>
      </trkpt>
      <trkpt lat="43.1628964" lon="-2.8860587">
        <ele>82.357</ele>
        <time>2021-04-01T07:41:05.593Z</time>
      </trkpt>
      <trkpt lat="43.1628918" lon="-2.8860436">
        <ele>82.33</ele>
        <time>2021-04-01T07:41:05.892Z</time>
      </trkpt>
      <trkpt lat="43.1628875" lon="-2.8860286">
        <ele>82.27</ele>
        <time>2021-04-01T07:41:06.190Z</time>
      </trkpt>
      <trkpt lat="43.1628964" lon="-2.8860587">
        <ele>82.357</ele>
        <time>2021-04-01T07:41:06.489Z</time>
      </trkpt>
      <trkpt lat="43.1628918" lon="-2.8860436">
        <ele>82.33</ele>
        <time>2021-04-01T07:41:06.787Z</time>
      </trkpt>
      <trkpt lat="43.1628875" lon="-2.8860286">
        <ele>82.27</ele>
        <time>2021-04-01T07:41:07.086Z</time>
      </trkpt>
      <trkpt lat="43.1628528" lon="-2.8859346">
        <ele>81.745</ele>
        <time>2021-04-01T07:41:08.540Z</time>
      </trkpt>
      <trkpt lat="43.1628484" lon="-2.8859234">
        <ele>81.709</ele>
        <time>2021-04-01T07:41:08.906Z</time>
      </trkpt>
      <trkpt lat="43.1628528" lon="-2.8859346">
        <ele>81.745</ele>
        <time>2021-04-01T07:41:09.273Z</time>
      </trkpt>
      <trkpt lat="43.1628484" lon="-2.8859234">
        <ele>81.709</ele>
        <time>2021-04-01T07:41:09.640Z</time>
      </trkpt>
      <trkpt lat="43.1627938" lon="-2.8857811">
        <ele>81.903</ele>
        <time>2021-04-01T07:41:10.905Z</time>
      </trkpt>
      <trkpt lat="43.1627583" lon="-2.8856991">
        <ele>81.991</ele>
        <time>2021-04-01T07:41:11.358Z</time>
      </trkpt>
      <trkpt lat="43.1627345" lon="-2.8856575">
        <ele>81.97</ele>
        <time>2021-04-01T07:41:11.812Z</time>
      </trkpt>
      <trkpt lat="43.1627345" lon="-2.8856575">
        <ele>81.97</ele>
        <time>2021-04-01T07:41:12.266Z</time>
      </trkpt>
      <trkpt lat="43.1626971" lon="-2.8855933">
        <ele>82.143</ele>
        <time>2021-04-01T07:41:12.720Z</time>
      </trkpt>
      <trkpt lat="43.1625622" lon="-2.8854249">
        <ele>83.104</ele>
        <time>2021-04-01T07:41:17.780Z</time>
      </trkpt>
      <trkpt lat="43.1624928" lon="-2.885374">
        <ele>83.407</ele>
        <time>2021-04-01T07:41:18.055Z</time>
      </trkpt>
      <trkpt lat="43.1624766" lon="-2.8853653">
        <ele>83.548</ele>
        <time>2021-04-01T07:41:18.330Z</time>
      </trkpt>
      <trkpt lat="43.1624766" lon="-2.8853653">
        <ele>83.548</ele>
        <time>2021-04-01T07:41:18.605Z</time>
      </trkpt>
      <trkpt lat="43.1624383" lon="-2.8853473">
        <ele>83.745</ele>
        <time>2021-04-01T07:41:18.880Z</time>
      </trkpt>
      <trkpt lat="43.1624039" lon="-2.8853345">
        <ele>83.946</ele>
        <time>2021-04-01T07:41:19.760Z</time>
      </trkpt>
      <trkpt lat="43.1623778" lon="-2.8853246">
        <ele>84.389</ele>
        <time>2021-04-01T07:41:20.640Z</time>
      </trkpt>
      <trkpt lat="43.1622968" lon="-2.8853033">
        <ele>84.709</ele>
        <time>2021-04-01T07:41:22.895Z</time>
      </trkpt>
      <trkpt lat="43.1622225" lon="-2.8852912">
        <ele>86.122</ele>
        <time>2021-04-01T07:41:23.146Z</time>
      </trkpt>
      <trkpt lat="43.1622072" lon="-2.8852899">
        <ele>86.225</ele>
        <time>2021-04-01T07:41:23.397Z</time>
      </trkpt>
      <trkpt lat="43.1622225" lon="-2.8852912">
        <ele>86.122</ele>
        <time>2021-04-01T07:41:23.649Z</time>
      </trkpt>
      <trkpt lat="43.1622072" lon="-2.8852899">
        <ele>86.225</ele>
        <time>2021-04-01T07:41:23.900Z</time>
      </trkpt>
      <trkpt lat="43.1622225" lon="-2.8852912">
        <ele>86.122</ele>
        <time>2021-04-01T07:41:24.152Z</time>
      </trkpt>
      <trkpt lat="43.1622072" lon="-2.8852899">
        <ele>86.225</ele>
        <time>2021-04-01T07:41:24.403Z</time>
      </trkpt>
      <trkpt lat="43.1621216" lon="-2.8852885">
        <ele>86.467</ele>
        <time>2021-04-01T07:41:25.590Z</time>
      </trkpt>
      <trkpt lat="43.1620651" lon="-2.8852862">
        <ele>86.729</ele>
        <time>2021-04-01T07:41:25.942Z</time>
      </trkpt>
      <trkpt lat="43.162051" lon="-2.8852879">
        <ele>86.724</ele>
        <time>2021-04-01T07:41:26.294Z</time>
      </trkpt>
      <trkpt lat="43.162028" lon="-2.8852919">
        <ele>86.616</ele>
        <time>2021-04-01T07:41:26.646Z</time>
      </trkpt>
      <trkpt lat="43.162028" lon="-2.8852919">
        <ele>86.616</ele>
        <time>2021-04-01T07:41:26.998Z</time>
      </trkpt>
      <trkpt lat="43.1619758" lon="-2.8853045">
        <ele>86.84</ele>
        <time>2021-04-01T07:41:27.350Z</time>
      </trkpt>
      <trkpt lat="43.1619608" lon="-2.8853084">
        <ele>86.355</ele>
        <time>2021-04-01T07:41:27.570Z</time>
      </trkpt>
      <trkpt lat="43.1619579" lon="-2.8853085">
        <ele>86.372</ele>
        <time>2021-04-01T07:41:27.790Z</time>
      </trkpt>
      <trkpt lat="43.1619758" lon="-2.8853045">
        <ele>86.84</ele>
        <time>2021-04-01T07:41:28.010Z</time>
      </trkpt>
      <trkpt lat="43.1619608" lon="-2.8853084">
        <ele>86.355</ele>
        <time>2021-04-01T07:41:28.230Z</time>
      </trkpt>
      <trkpt lat="43.1619579" lon="-2.8853085">
        <ele>86.372</ele>
        <time>2021-04-01T07:41:28.450Z</time>
      </trkpt>
      <trkpt lat="43.1619071" lon="-2.8853129">
        <ele>86.951</ele>
        <time>2021-04-01T07:41:30.320Z</time>
      </trkpt>
      <trkpt lat="43.1618555" lon="-2.885319">
        <ele>87.05</ele>
        <time>2021-04-01T07:41:30.617Z</time>
      </trkpt>
      <trkpt lat="43.1618648" lon="-2.8853178">
        <ele>87.077</ele>
        <time>2021-04-01T07:41:30.914Z</time>
      </trkpt>
      <trkpt lat="43.1618555" lon="-2.885319">
        <ele>87.05</ele>
        <time>2021-04-01T07:41:31.211Z</time>
      </trkpt>
      <trkpt lat="43.1618648" lon="-2.8853178">
        <ele>87.077</ele>
        <time>2021-04-01T07:41:31.508Z</time>
      </trkpt>
      <trkpt lat="43.1618555" lon="-2.885319">
        <ele>87.05</ele>
        <time>2021-04-01T07:41:31.805Z</time>
      </trkpt>
      <trkpt lat="43.1617746" lon="-2.8853312">
        <ele>87.326</ele>
        <time>2021-04-01T07:41:32.575Z</time>
      </trkpt>
      <trkpt lat="43.1617746" lon="-2.8853312">
        <ele>87.326</ele>
        <time>2021-04-01T07:41:33.345Z</time>
      </trkpt>
      <trkpt lat="43.1617746" lon="-2.8853312">
        <ele>87.326</ele>
        <time>2021-04-01T07:41:34.115Z</time>
      </trkpt>
      <trkpt lat="43.1616166" lon="-2.8853633">
        <ele>87.767</ele>
        <time>2021-04-01T07:41:35.930Z</time>
      </trkpt>
      <trkpt lat="43.1613902" lon="-2.8853946">
        <ele>86.705</ele>
        <time>2021-04-01T07:41:39.835Z</time>
      </trkpt>
      <trkpt lat="43.161339" lon="-2.8853876">
        <ele>86.912</ele>
        <time>2021-04-01T07:41:42.860Z</time>
      </trkpt>
      <trkpt lat="43.1611934" lon="-2.8852835">
        <ele>88.641</ele>
        <time>2021-04-01T07:41:42.915Z</time>
      </trkpt>
      <trkpt lat="43.1612334" lon="-2.885333">
        <ele>88.239</ele>
        <time>2021-04-01T07:41:43.213Z</time>
      </trkpt>
      <trkpt lat="43.1612307" lon="-2.8853306">
        <ele>88.278</ele>
        <time>2021-04-01T07:41:43.512Z</time>
      </trkpt>
      <trkpt lat="43.1612213" lon="-2.8853204">
        <ele>88.354</ele>
        <time>2021-04-01T07:41:43.810Z</time>
      </trkpt>
      <trkpt lat="43.161239" lon="-2.8853378">
        <ele>88.022</ele>
        <time>2021-04-01T07:41:44.109Z</time>
      </trkpt>
      <trkpt lat="43.1612334" lon="-2.885333">
        <ele>88.239</ele>
        <time>2021-04-01T07:41:44.407Z</time>
      </trkpt>
      <trkpt lat="43.1612307" lon="-2.8853306">
        <ele>88.278</ele>
        <time>2021-04-01T07:41:44.706Z</time>
      </trkpt>
      <trkpt lat="43.1612213" lon="-2.8853204">
        <ele>88.354</ele>
        <time>2021-04-01T07:41:45.005Z</time>
      </trkpt>
      <trkpt lat="43.1611396" lon="-2.8851181">
        <ele>88.567</ele>
        <time>2021-04-01T07:41:47.205Z</time>
      </trkpt>
      <trkpt lat="43.1611325" lon="-2.885076">
        <ele>88.629</ele>
        <time>2021-04-01T07:41:47.425Z</time>
      </trkpt>
      <trkpt lat="43.1611383" lon="-2.8851095">
        <ele>88.574</ele>
        <time>2021-04-01T07:41:47.645Z</time>
      </trkpt>
      <trkpt lat="43.1611372" lon="-2.8851047">
        <ele>88.591</ele>
        <time>2021-04-01T07:41:47.865Z</time>
      </trkpt>
      <trkpt lat="43.1611325" lon="-2.885076">
        <ele>88.629</ele>
        <time>2021-04-01T07:41:48.085Z</time>
      </trkpt>
      <trkpt lat="43.1611383" lon="-2.8851095">
        <ele>88.574</ele>
        <time>2021-04-01T07:41:48.305Z</time>
      </trkpt>
      <trkpt lat="43.1611372" lon="-2.8851047">
        <ele>88.591</ele>
        <time>2021-04-01T07:41:48.525Z</time>
      </trkpt>
      <trkpt lat="43.1611325" lon="-2.885076">
        <ele>88.629</ele>
        <time>2021-04-01T07:41:48.745Z</time>
      </trkpt>
      <trkpt lat="43.161169" lon="-2.8848313">
        <ele>89.51</ele>
        <time>2021-04-01T07:41:50.945Z</time>
      </trkpt>
      <trkpt lat="43.1612186" lon="-2.8846866">
        <ele>89.978</ele>
        <time>2021-04-01T07:41:51.275Z</time>
      </trkpt>
      <trkpt lat="43.1612331" lon="-2.8846301">
        <ele>90.053</ele>
        <time>2021-04-01T07:41:51.605Z</time>
      </trkpt>
      <trkpt lat="43.1612281" lon="-2.884653">
        <ele>90.167</ele>
        <time>2021-04-01T07:41:51.935Z</time>
      </trkpt>
      <trkpt lat="43.1612331" lon="-2.8846301">
        <ele>90.053</ele>
        <time>2021-04-01T07:41:52.265Z</time>
      </trkpt>
      <trkpt lat="43.1612331" lon="-2.8846301">
        <ele>90.053</ele>
        <time>2021-04-01T07:41:52.595Z</time>
      </trkpt>
      <trkpt lat="43.161249" lon="-2.8845471">
        <ele>90.603</ele>
        <time>2021-04-01T07:41:52.925Z</time>
      </trkpt>
      <trkpt lat="43.1612497" lon="-2.8845431">
        <ele>90.593</ele>
        <time>2021-04-01T07:41:53.021Z</time>
      </trkpt>
      <trkpt lat="43.16125" lon="-2.8845394">
        <ele>90.608</ele>
        <time>2021-04-01T07:41:53.117Z</time>
      </trkpt>
      <trkpt lat="43.1612504" lon="-2.8845352">
        <ele>90.693</ele>
        <time>2021-04-01T07:41:53.213Z</time>
      </trkpt>
      <trkpt lat="43.161249" lon="-2.8845471">
        <ele>90.603</ele>
        <time>2021-04-01T07:41:53.310Z</time>
      </trkpt>
      <trkpt lat="43.1612497" lon="-2.8845431">
        <ele>90.593</ele>
        <time>2021-04-01T07:41:53.406Z</time>
      </trkpt>
      <trkpt lat="43.16125" lon="-2.8845394">
        <ele>90.608</ele>
        <time>2021-04-01T07:41:53.502Z</time>
      </trkpt>
      <trkpt lat="43.1612504" lon="-2.8845352">
        <ele>90.693</ele>
        <time>2021-04-01T07:41:53.598Z</time>
      </trkpt>
      <trkpt lat="43.1612556" lon="-2.8844908">
        <ele>91.034</ele>
        <time>2021-04-01T07:41:56.280Z</time>
      </trkpt>
      <trkpt lat="43.1612599" lon="-2.8843065">
        <ele>91.618</ele>
        <time>2021-04-01T07:41:56.472Z</time>
      </trkpt>
      <trkpt lat="43.1612599" lon="-2.8843065">
        <ele>91.618</ele>
        <time>2021-04-01T07:41:56.665Z</time>
      </trkpt>
      <trkpt lat="43.1612599" lon="-2.8843065">
        <ele>91.618</ele>
        <time>2021-04-01T07:41:56.857Z</time>
      </trkpt>
      <trkpt lat="43.1612575" lon="-2.8842499">
        <ele>91.958</ele>
        <time>2021-04-01T07:41:59.250Z</time>
      </trkpt>
      <trkpt lat="43.1612528" lon="-2.8840956">
        <ele>92.199</ele>
        <time>2021-04-01T07:42:00.900Z</time>
      </trkpt>
      <trkpt lat="43.1612522" lon="-2.8840695">
        <ele>92.26</ele>
        <time>2021-04-01T07:42:01.216Z</time>
      </trkpt>
      <trkpt lat="43.1612527" lon="-2.8840994">
        <ele>92.225</ele>
        <time>2021-04-01T07:42:01.532Z</time>
      </trkpt>
      <trkpt lat="43.1612528" lon="-2.8840956">
        <ele>92.199</ele>
        <time>2021-04-01T07:42:01.848Z</time>
      </trkpt>
      <trkpt lat="43.1612522" lon="-2.8840695">
        <ele>92.26</ele>
        <time>2021-04-01T07:42:02.165Z</time>
      </trkpt>
      <trkpt lat="43.1612516" lon="-2.8838942">
        <ele>93.121</ele>
        <time>2021-04-01T07:42:03.155Z</time>
      </trkpt>
      <trkpt lat="43.1612507" lon="-2.8838249">
        <ele>93.291</ele>
        <time>2021-04-01T07:42:03.305Z</time>
      </trkpt>
      <trkpt lat="43.1612483" lon="-2.8837638">
        <ele>93.57</ele>
        <time>2021-04-01T07:42:03.455Z</time>
      </trkpt>
      <trkpt lat="43.1612478" lon="-2.8837561">
        <ele>93.604</ele>
        <time>2021-04-01T07:42:03.605Z</time>
      </trkpt>
      <trkpt lat="43.1612484" lon="-2.8837677">
        <ele>93.548</ele>
        <time>2021-04-01T07:42:03.755Z</time>
      </trkpt>
      <trkpt lat="43.1612483" lon="-2.8837638">
        <ele>93.57</ele>
        <time>2021-04-01T07:42:03.905Z</time>
      </trkpt>
      <trkpt lat="43.1612478" lon="-2.8837561">
        <ele>93.604</ele>
        <time>2021-04-01T07:42:04.055Z</time>
      </trkpt>
      <trkpt lat="43.1612474" lon="-2.8837524">
        <ele>93.605</ele>
        <time>2021-04-01T07:42:04.205Z</time>
      </trkpt>
      <trkpt lat="43.1612483" lon="-2.8837638">
        <ele>93.57</ele>
        <time>2021-04-01T07:42:04.355Z</time>
      </trkpt>
      <trkpt lat="43.1612478" lon="-2.8837561">
        <ele>93.604</ele>
        <time>2021-04-01T07:42:04.505Z</time>
      </trkpt>
      <trkpt lat="43.1612474" lon="-2.8837524">
        <ele>93.605</ele>
        <time>2021-04-01T07:42:04.655Z</time>
      </trkpt>
      <trkpt lat="43.1612441" lon="-2.8837105">
        <ele>93.685</ele>
        <time>2021-04-01T07:42:04.805Z</time>
      </trkpt>
      <trkpt lat="43.1612418" lon="-2.8836676">
        <ele>93.775</ele>
        <time>2021-04-01T07:42:05.119Z</time>
      </trkpt>
      <trkpt lat="43.1612403" lon="-2.8836359">
        <ele>93.827</ele>
        <time>2021-04-01T07:42:05.433Z</time>
      </trkpt>
      <trkpt lat="43.1612418" lon="-2.8836676">
        <ele>93.775</ele>
        <time>2021-04-01T07:42:05.747Z</time>
      </trkpt>
      <trkpt lat="43.1612403" lon="-2.8836359">
        <ele>93.827</ele>
        <time>2021-04-01T07:42:06.062Z</time>
      </trkpt>
      <trkpt lat="43.1612418" lon="-2.8836676">
        <ele>93.775</ele>
        <time>2021-04-01T07:42:06.376Z</time>
      </trkpt>
      <trkpt lat="43.1612403" lon="-2.8836359">
        <ele>93.827</ele>
        <time>2021-04-01T07:42:06.690Z</time>
      </trkpt>
      <trkpt lat="43.1612352" lon="-2.8835504">
        <ele>93.933</ele>
        <time>2021-04-01T07:42:08.050Z</time>
      </trkpt>
      <trkpt lat="43.161229" lon="-2.8834713">
        <ele>94.145</ele>
        <time>2021-04-01T07:42:08.482Z</time>
      </trkpt>
      <trkpt lat="43.1612272" lon="-2.8834549">
        <ele>94.087</ele>
        <time>2021-04-01T07:42:08.914Z</time>
      </trkpt>
      <trkpt lat="43.1612266" lon="-2.8834507">
        <ele>94.068</ele>
        <time>2021-04-01T07:42:09.346Z</time>
      </trkpt>
      <trkpt lat="43.161229" lon="-2.8834713">
        <ele>94.145</ele>
        <time>2021-04-01T07:42:09.778Z</time>
      </trkpt>
      <trkpt lat="43.1612272" lon="-2.8834549">
        <ele>94.087</ele>
        <time>2021-04-01T07:42:10.210Z</time>
      </trkpt>
      <trkpt lat="43.1612266" lon="-2.8834507">
        <ele>94.068</ele>
        <time>2021-04-01T07:42:10.642Z</time>
      </trkpt>
      <trkpt lat="43.1611894" lon="-2.8832507">
        <ele>94.248</ele>
        <time>2021-04-01T07:42:11.240Z</time>
      </trkpt>
      <trkpt lat="43.1611858" lon="-2.8832393">
        <ele>94.211</ele>
        <time>2021-04-01T07:42:11.441Z</time>
      </trkpt>
      <trkpt lat="43.1611727" lon="-2.8831981">
        <ele>94.138</ele>
        <time>2021-04-01T07:42:11.643Z</time>
      </trkpt>
      <trkpt lat="43.1611727" lon="-2.8831981">
        <ele>94.138</ele>
        <time>2021-04-01T07:42:11.845Z</time>
      </trkpt>
      <trkpt lat="43.161161" lon="-2.8831659">
        <ele>93.983</ele>
        <time>2021-04-01T07:42:12.046Z</time>
      </trkpt>
      <trkpt lat="43.161165" lon="-2.8831766">
        <ele>94.013</ele>
        <time>2021-04-01T07:42:12.248Z</time>
      </trkpt>
      <trkpt lat="43.161161" lon="-2.8831659">
        <ele>93.983</ele>
        <time>2021-04-01T07:42:12.450Z</time>
      </trkpt>
      <trkpt lat="43.161165" lon="-2.8831766">
        <ele>94.013</ele>
        <time>2021-04-01T07:42:12.651Z</time>
      </trkpt>
      <trkpt lat="43.161161" lon="-2.8831659">
        <ele>93.983</ele>
        <time>2021-04-01T07:42:12.853Z</time>
      </trkpt>
      <trkpt lat="43.1611421" lon="-2.8831193">
        <ele>93.915</ele>
        <time>2021-04-01T07:42:15.090Z</time>
      </trkpt>
      <trkpt lat="43.1610767" lon="-2.8829964">
        <ele>94.168</ele>
        <time>2021-04-01T07:42:15.279Z</time>
      </trkpt>
      <trkpt lat="43.1610673" lon="-2.8829805">
        <ele>94.332</ele>
        <time>2021-04-01T07:42:15.468Z</time>
      </trkpt>
      <trkpt lat="43.1610711" lon="-2.8829867">
        <ele>94.283</ele>
        <time>2021-04-01T07:42:15.658Z</time>
      </trkpt>
      <trkpt lat="43.1610693" lon="-2.8829837">
        <ele>94.301</ele>
        <time>2021-04-01T07:42:15.847Z</time>
      </trkpt>
      <trkpt lat="43.1610673" lon="-2.8829805">
        <ele>94.332</ele>
        <time>2021-04-01T07:42:16.037Z</time>
      </trkpt>
      <trkpt lat="43.1610711" lon="-2.8829867">
        <ele>94.283</ele>
        <time>2021-04-01T07:42:16.226Z</time>
      </trkpt>
      <trkpt lat="43.1610693" lon="-2.8829837">
        <ele>94.301</ele>
        <time>2021-04-01T07:42:16.416Z</time>
      </trkpt>
      <trkpt lat="43.1610673" lon="-2.8829805">
        <ele>94.332</ele>
        <time>2021-04-01T07:42:16.605Z</time>
      </trkpt>
      <trkpt lat="43.161015" lon="-2.8829039">
        <ele>94.526</ele>
        <time>2021-04-01T07:42:17.400Z</time>
      </trkpt>
      <trkpt lat="43.1609936" lon="-2.882872">
        <ele>94.603</ele>
        <time>2021-04-01T07:42:17.794Z</time>
      </trkpt>
      <trkpt lat="43.1609708" lon="-2.8828375">
        <ele>94.745</ele>
        <time>2021-04-01T07:42:18.188Z</time>
      </trkpt>
      <trkpt lat="43.1609782" lon="-2.8828488">
        <ele>94.706</ele>
        <time>2021-04-01T07:42:18.582Z</time>
      </trkpt>
      <trkpt lat="43.1609708" lon="-2.8828375">
        <ele>94.745</ele>
        <time>2021-04-01T07:42:18.976Z</time>
      </trkpt>
      <trkpt lat="43.1609708" lon="-2.8828375">
        <ele>94.745</ele>
        <time>2021-04-01T07:42:19.370Z</time>
      </trkpt>
      <trkpt lat="43.1609136" lon="-2.8827524">
        <ele>95.176</ele>
        <time>2021-04-01T07:42:21.085Z</time>
      </trkpt>
      <trkpt lat="43.1608674" lon="-2.882693">
        <ele>95.266</ele>
        <time>2021-04-01T07:42:23.285Z</time>
      </trkpt>
      <trkpt lat="43.16086" lon="-2.8826803">
        <ele>95.25</ele>
        <time>2021-04-01T07:42:23.428Z</time>
      </trkpt>
      <trkpt lat="43.160856" lon="-2.8826759">
        <ele>95.279</ele>
        <time>2021-04-01T07:42:23.571Z</time>
      </trkpt>
      <trkpt lat="43.1608674" lon="-2.882693">
        <ele>95.266</ele>
        <time>2021-04-01T07:42:23.714Z</time>
      </trkpt>
      <trkpt lat="43.16086" lon="-2.8826803">
        <ele>95.25</ele>
        <time>2021-04-01T07:42:23.857Z</time>
      </trkpt>
      <trkpt lat="43.160856" lon="-2.8826759">
        <ele>95.279</ele>
        <time>2021-04-01T07:42:24.000Z</time>
      </trkpt>
      <trkpt lat="43.1607632" lon="-2.8825785">
        <ele>96.511</ele>
        <time>2021-04-01T07:42:26.365Z</time>
      </trkpt>
      <trkpt lat="43.1606697" lon="-2.8825185">
        <ele>96.504</ele>
        <time>2021-04-01T07:42:26.933Z</time>
      </trkpt>
      <trkpt lat="43.1606676" lon="-2.8825175">
        <ele>96.52</ele>
        <time>2021-04-01T07:42:27.501Z</time>
      </trkpt>
      <trkpt lat="43.1606013" lon="-2.8824888">
        <ele>96.997</ele>
        <time>2021-04-01T07:42:29.335Z</time>
      </trkpt>
      <trkpt lat="43.1605499" lon="-2.8824753">
        <ele>97.399</ele>
        <time>2021-04-01T07:42:29.500Z</time>
      </trkpt>
      <trkpt lat="43.1605455" lon="-2.8824743">
        <ele>97.384</ele>
        <time>2021-04-01T07:42:29.665Z</time>
      </trkpt>
      <trkpt lat="43.160543" lon="-2.8824736">
        <ele>97.438</ele>
        <time>2021-04-01T07:42:29.830Z</time>
      </trkpt>
      <trkpt lat="43.1605499" lon="-2.8824753">
        <ele>97.399</ele>
        <time>2021-04-01T07:42:29.995Z</time>
      </trkpt>
      <trkpt lat="43.1605455" lon="-2.8824743">
        <ele>97.384</ele>
        <time>2021-04-01T07:42:30.160Z</time>
      </trkpt>
      <trkpt lat="43.160543" lon="-2.8824736">
        <ele>97.438</ele>
        <time>2021-04-01T07:42:30.325Z</time>
      </trkpt>
      <trkpt lat="43.1605005" lon="-2.8824667">
        <ele>97.908</ele>
        <time>2021-04-01T07:42:30.490Z</time>
      </trkpt>
      <trkpt lat="43.1604813" lon="-2.8824654">
        <ele>98.102</ele>
        <time>2021-04-01T07:42:30.678Z</time>
      </trkpt>
      <trkpt lat="43.1604982" lon="-2.8824667">
        <ele>97.916</ele>
        <time>2021-04-01T07:42:30.867Z</time>
      </trkpt>
      <trkpt lat="43.1604838" lon="-2.8824654">
        <ele>98.08</ele>
        <time>2021-04-01T07:42:31.055Z</time>
      </trkpt>
      <trkpt lat="43.1604813" lon="-2.8824654">
        <ele>98.102</ele>
        <time>2021-04-01T07:42:31.244Z</time>
      </trkpt>
      <trkpt lat="43.1604838" lon="-2.8824654">
        <ele>98.08</ele>
        <time>2021-04-01T07:42:31.432Z</time>
      </trkpt>
      <trkpt lat="43.1604813" lon="-2.8824654">
        <ele>98.102</ele>
        <time>2021-04-01T07:42:31.621Z</time>
      </trkpt>
      <trkpt lat="43.1604431" lon="-2.8824631">
        <ele>98.295</ele>
        <time>2021-04-01T07:42:33.460Z</time>
      </trkpt>
      <trkpt lat="43.1602075" lon="-2.8824683">
        <ele>99.117</ele>
        <time>2021-04-01T07:42:39.620Z</time>
      </trkpt>
      <trkpt lat="43.1601141" lon="-2.8824663">
        <ele>99.86</ele>
        <time>2021-04-01T07:42:39.745Z</time>
      </trkpt>
      <trkpt lat="43.1601616" lon="-2.8824682">
        <ele>99.427</ele>
        <time>2021-04-01T07:42:39.871Z</time>
      </trkpt>
      <trkpt lat="43.1601686" lon="-2.8824682">
        <ele>99.394</ele>
        <time>2021-04-01T07:42:39.997Z</time>
      </trkpt>
      <trkpt lat="43.1601616" lon="-2.8824682">
        <ele>99.427</ele>
        <time>2021-04-01T07:42:40.122Z</time>
      </trkpt>
      <trkpt lat="43.1601686" lon="-2.8824682">
        <ele>99.394</ele>
        <time>2021-04-01T07:42:40.248Z</time>
      </trkpt>
      <trkpt lat="43.1601616" lon="-2.8824682">
        <ele>99.427</ele>
        <time>2021-04-01T07:42:40.374Z</time>
      </trkpt>
      <trkpt lat="43.1600779" lon="-2.8824665">
        <ele>100.186</ele>
        <time>2021-04-01T07:42:41.325Z</time>
      </trkpt>
      <trkpt lat="43.1600446" lon="-2.8824667">
        <ele>100.557</ele>
        <time>2021-04-01T07:42:41.545Z</time>
      </trkpt>
      <trkpt lat="43.1600116" lon="-2.8824667">
        <ele>100.92</ele>
        <time>2021-04-01T07:42:41.765Z</time>
      </trkpt>
      <trkpt lat="43.1600308" lon="-2.8824661">
        <ele>100.771</ele>
        <time>2021-04-01T07:42:41.985Z</time>
      </trkpt>
      <trkpt lat="43.1600116" lon="-2.8824667">
        <ele>100.92</ele>
        <time>2021-04-01T07:42:42.205Z</time>
      </trkpt>
      <trkpt lat="43.1600308" lon="-2.8824661">
        <ele>100.771</ele>
        <time>2021-04-01T07:42:42.425Z</time>
      </trkpt>
      <trkpt lat="43.1600116" lon="-2.8824667">
        <ele>100.92</ele>
        <time>2021-04-01T07:42:42.645Z</time>
      </trkpt>
      <trkpt lat="43.1599836" lon="-2.8824677">
        <ele>101.114</ele>
        <time>2021-04-01T07:42:44.185Z</time>
      </trkpt>
      <trkpt lat="43.1599318" lon="-2.8824688">
        <ele>101.472</ele>
        <time>2021-04-01T07:42:44.446Z</time>
      </trkpt>
      <trkpt lat="43.1599148" lon="-2.8824666">
        <ele>101.537</ele>
        <time>2021-04-01T07:42:44.707Z</time>
      </trkpt>
      <trkpt lat="43.1599129" lon="-2.8824671">
        <ele>101.515</ele>
        <time>2021-04-01T07:42:44.968Z</time>
      </trkpt>
      <trkpt lat="43.1599212" lon="-2.8824674">
        <ele>101.509</ele>
        <time>2021-04-01T07:42:45.230Z</time>
      </trkpt>
      <trkpt lat="43.1599129" lon="-2.8824671">
        <ele>101.515</ele>
        <time>2021-04-01T07:42:45.491Z</time>
      </trkpt>
      <trkpt lat="43.1598879" lon="-2.882466">
        <ele>101.479</ele>
        <time>2021-04-01T07:42:45.752Z</time>
      </trkpt>
      <trkpt lat="43.1598879" lon="-2.882466">
        <ele>101.479</ele>
        <time>2021-04-01T07:42:46.013Z</time>
      </trkpt>
      <trkpt lat="43.1598513" lon="-2.8824697">
        <ele>101.631</ele>
        <time>2021-04-01T07:42:46.275Z</time>
      </trkpt>
      <trkpt lat="43.1598434" lon="-2.8824708">
        <ele>101.601</ele>
        <time>2021-04-01T07:42:46.811Z</time>
      </trkpt>
      <trkpt lat="43.1598513" lon="-2.8824697">
        <ele>101.631</ele>
        <time>2021-04-01T07:42:47.347Z</time>
      </trkpt>
      <trkpt lat="43.1598434" lon="-2.8824708">
        <ele>101.601</ele>
        <time>2021-04-01T07:42:47.883Z</time>
      </trkpt>
      <trkpt lat="43.1597679" lon="-2.8824787">
        <ele>102.149</ele>
        <time>2021-04-01T07:42:49.685Z</time>
      </trkpt>
      <trkpt lat="43.1597658" lon="-2.8824787">
        <ele>102.167</ele>
        <time>2021-04-01T07:42:49.872Z</time>
      </trkpt>
      <trkpt lat="43.1597636" lon="-2.8824788">
        <ele>102.182</ele>
        <time>2021-04-01T07:42:50.059Z</time>
      </trkpt>
      <trkpt lat="43.1597721" lon="-2.8824786">
        <ele>102.133</ele>
        <time>2021-04-01T07:42:50.246Z</time>
      </trkpt>
      <trkpt lat="43.1597679" lon="-2.8824787">
        <ele>102.149</ele>
        <time>2021-04-01T07:42:50.433Z</time>
      </trkpt>
      <trkpt lat="43.1597658" lon="-2.8824787">
        <ele>102.167</ele>
        <time>2021-04-01T07:42:50.620Z</time>
      </trkpt>
      <trkpt lat="43.1597636" lon="-2.8824788">
        <ele>102.182</ele>
        <time>2021-04-01T07:42:50.807Z</time>
      </trkpt>
      <trkpt lat="43.1597721" lon="-2.8824786">
        <ele>102.133</ele>
        <time>2021-04-01T07:42:50.994Z</time>
      </trkpt>
      <trkpt lat="43.1597679" lon="-2.8824787">
        <ele>102.149</ele>
        <time>2021-04-01T07:42:51.181Z</time>
      </trkpt>
      <trkpt lat="43.1597658" lon="-2.8824787">
        <ele>102.167</ele>
        <time>2021-04-01T07:42:51.368Z</time>
      </trkpt>
      <trkpt lat="43.1597636" lon="-2.8824788">
        <ele>102.182</ele>
        <time>2021-04-01T07:42:51.555Z</time>
      </trkpt>
      <trkpt lat="43.15965" lon="-2.8824825">
        <ele>102.595</ele>
        <time>2021-04-01T07:42:52.600Z</time>
      </trkpt>
      <trkpt lat="43.1596115" lon="-2.8824815">
        <ele>102.634</ele>
        <time>2021-04-01T07:42:52.788Z</time>
      </trkpt>
      <trkpt lat="43.1596036" lon="-2.8824811">
        <ele>102.621</ele>
        <time>2021-04-01T07:42:52.977Z</time>
      </trkpt>
      <trkpt lat="43.1595973" lon="-2.8824807">
        <ele>102.656</ele>
        <time>2021-04-01T07:42:53.165Z</time>
      </trkpt>
      <trkpt lat="43.1596115" lon="-2.8824815">
        <ele>102.634</ele>
        <time>2021-04-01T07:42:53.354Z</time>
      </trkpt>
      <trkpt lat="43.1596036" lon="-2.8824811">
        <ele>102.621</ele>
        <time>2021-04-01T07:42:53.542Z</time>
      </trkpt>
      <trkpt lat="43.1595973" lon="-2.8824807">
        <ele>102.656</ele>
        <time>2021-04-01T07:42:53.731Z</time>
      </trkpt>
      <trkpt lat="43.1595635" lon="-2.8824798">
        <ele>102.689</ele>
        <time>2021-04-01T07:42:55.735Z</time>
      </trkpt>
      <trkpt lat="43.1594964" lon="-2.8824723">
        <ele>102.858</ele>
        <time>2021-04-01T07:42:55.907Z</time>
      </trkpt>
      <trkpt lat="43.159492" lon="-2.8824716">
        <ele>102.861</ele>
        <time>2021-04-01T07:42:56.080Z</time>
      </trkpt>
      <trkpt lat="43.1594964" lon="-2.8824723">
        <ele>102.858</ele>
        <time>2021-04-01T07:42:56.253Z</time>
      </trkpt>
      <trkpt lat="43.159492" lon="-2.8824716">
        <ele>102.861</ele>
        <time>2021-04-01T07:42:56.426Z</time>
      </trkpt>
      <trkpt lat="43.1594964" lon="-2.8824723">
        <ele>102.858</ele>
        <time>2021-04-01T07:42:56.599Z</time>
      </trkpt>
      <trkpt lat="43.159492" lon="-2.8824716">
        <ele>102.861</ele>
        <time>2021-04-01T07:42:56.772Z</time>
      </trkpt>
      <trkpt lat="43.1594522" lon="-2.8824653">
        <ele>102.68</ele>
        <time>2021-04-01T07:42:58.650Z</time>
      </trkpt>
      <trkpt lat="43.159387" lon="-2.8824591">
        <ele>102.796</ele>
        <time>2021-04-01T07:42:58.940Z</time>
      </trkpt>
      <trkpt lat="43.1593498" lon="-2.8824587">
        <ele>103.017</ele>
        <time>2021-04-01T07:42:59.231Z</time>
      </trkpt>
      <trkpt lat="43.1593586" lon="-2.8824576">
        <ele>102.97</ele>
        <time>2021-04-01T07:42:59.522Z</time>
      </trkpt>
      <trkpt lat="43.1593498" lon="-2.8824587">
        <ele>103.017</ele>
        <time>2021-04-01T07:42:59.812Z</time>
      </trkpt>
      <trkpt lat="43.1593586" lon="-2.8824576">
        <ele>102.97</ele>
        <time>2021-04-01T07:43:00.103Z</time>
      </trkpt>
      <trkpt lat="43.1593498" lon="-2.8824587">
        <ele>103.017</ele>
        <time>2021-04-01T07:43:00.394Z</time>
      </trkpt>
      <trkpt lat="43.1593055" lon="-2.882461">
        <ele>103.332</ele>
        <time>2021-04-01T07:43:00.685Z</time>
      </trkpt>
      <trkpt lat="43.1593033" lon="-2.8824618">
        <ele>103.375</ele>
        <time>2021-04-01T07:43:00.815Z</time>
      </trkpt>
      <trkpt lat="43.1593077" lon="-2.8824611">
        <ele>103.341</ele>
        <time>2021-04-01T07:43:00.946Z</time>
      </trkpt>
      <trkpt lat="43.1593055" lon="-2.882461">
        <ele>103.332</ele>
        <time>2021-04-01T07:43:01.076Z</time>
      </trkpt>
      <trkpt lat="43.1593033" lon="-2.8824618">
        <ele>103.375</ele>
        <time>2021-04-01T07:43:01.207Z</time>
      </trkpt>
      <trkpt lat="43.1593077" lon="-2.8824611">
        <ele>103.341</ele>
        <time>2021-04-01T07:43:01.338Z</time>
      </trkpt>
      <trkpt lat="43.1593055" lon="-2.882461">
        <ele>103.332</ele>
        <time>2021-04-01T07:43:01.468Z</time>
      </trkpt>
      <trkpt lat="43.1593033" lon="-2.8824618">
        <ele>103.375</ele>
        <time>2021-04-01T07:43:01.599Z</time>
      </trkpt>
      <trkpt lat="43.1592641" lon="-2.8824644">
        <ele>103.405</ele>
        <time>2021-04-01T07:43:04.535Z</time>
      </trkpt>
      <trkpt lat="43.1591522" lon="-2.8824773">
        <ele>103.621</ele>
        <time>2021-04-01T07:43:04.621Z</time>
      </trkpt>
      <trkpt lat="43.1591878" lon="-2.8824753">
        <ele>103.56</ele>
        <time>2021-04-01T07:43:04.707Z</time>
      </trkpt>
      <trkpt lat="43.1591855" lon="-2.8824753">
        <ele>103.577</ele>
        <time>2021-04-01T07:43:04.794Z</time>
      </trkpt>
      <trkpt lat="43.1591901" lon="-2.8824752">
        <ele>103.564</ele>
        <time>2021-04-01T07:43:04.880Z</time>
      </trkpt>
      <trkpt lat="43.1591878" lon="-2.8824753">
        <ele>103.56</ele>
        <time>2021-04-01T07:43:04.967Z</time>
      </trkpt>
      <trkpt lat="43.1591855" lon="-2.8824753">
        <ele>103.577</ele>
        <time>2021-04-01T07:43:05.053Z</time>
      </trkpt>
      <trkpt lat="43.1591276" lon="-2.8824809">
        <ele>103.701</ele>
        <time>2021-04-01T07:43:06.460Z</time>
      </trkpt>
      <trkpt lat="43.1590748" lon="-2.8824908">
        <ele>103.855</ele>
        <time>2021-04-01T07:43:06.621Z</time>
      </trkpt>
      <trkpt lat="43.159066" lon="-2.8824934">
        <ele>103.845</ele>
        <time>2021-04-01T07:43:06.782Z</time>
      </trkpt>
      <trkpt lat="43.1590573" lon="-2.8824954">
        <ele>103.827</ele>
        <time>2021-04-01T07:43:06.943Z</time>
      </trkpt>
      <trkpt lat="43.1590477" lon="-2.8824976">
        <ele>103.915</ele>
        <time>2021-04-01T07:43:07.104Z</time>
      </trkpt>
      <trkpt lat="43.1590684" lon="-2.8824928">
        <ele>103.833</ele>
        <time>2021-04-01T07:43:07.265Z</time>
      </trkpt>
      <trkpt lat="43.1590431" lon="-2.8824972">
        <ele>103.894</ele>
        <time>2021-04-01T07:43:07.426Z</time>
      </trkpt>
      <trkpt lat="43.159036" lon="-2.8824983">
        <ele>103.881</ele>
        <time>2021-04-01T07:43:07.587Z</time>
      </trkpt>
      <trkpt lat="43.1590431" lon="-2.8824972">
        <ele>103.894</ele>
        <time>2021-04-01T07:43:07.748Z</time>
      </trkpt>
      <trkpt lat="43.159036" lon="-2.8824983">
        <ele>103.881</ele>
        <time>2021-04-01T07:43:07.909Z</time>
      </trkpt>
      <trkpt lat="43.1590336" lon="-2.8824985">
        <ele>103.908</ele>
        <time>2021-04-01T07:43:08.070Z</time>
      </trkpt>
      <trkpt lat="43.1590431" lon="-2.8824972">
        <ele>103.894</ele>
        <time>2021-04-01T07:43:08.231Z</time>
      </trkpt>
      <trkpt lat="43.159036" lon="-2.8824983">
        <ele>103.881</ele>
        <time>2021-04-01T07:43:08.392Z</time>
      </trkpt>
      <trkpt lat="43.1590336" lon="-2.8824985">
        <ele>103.908</ele>
        <time>2021-04-01T07:43:08.553Z</time>
      </trkpt>
      <trkpt lat="43.1589812" lon="-2.8825046">
        <ele>103.862</ele>
        <time>2021-04-01T07:43:08.715Z</time>
      </trkpt>
      <trkpt lat="43.158979" lon="-2.8825051">
        <ele>103.778</ele>
        <time>2021-04-01T07:43:08.935Z</time>
      </trkpt>
      <trkpt lat="43.1589812" lon="-2.8825046">
        <ele>103.862</ele>
        <time>2021-04-01T07:43:09.155Z</time>
      </trkpt>
      <trkpt lat="43.158979" lon="-2.8825051">
        <ele>103.778</ele>
        <time>2021-04-01T07:43:09.375Z</time>
      </trkpt>
      <trkpt lat="43.1589477" lon="-2.8825093">
        <ele>103.419</ele>
        <time>2021-04-01T07:43:11.410Z</time>
      </trkpt>
      <trkpt lat="43.1589104" lon="-2.8825109">
        <ele>103.379</ele>
        <time>2021-04-01T07:43:12.125Z</time>
      </trkpt>
      <trkpt lat="43.1589477" lon="-2.8825093">
        <ele>103.419</ele>
        <time>2021-04-01T07:43:12.840Z</time>
      </trkpt>
      <trkpt lat="43.1589104" lon="-2.8825109">
        <ele>103.379</ele>
        <time>2021-04-01T07:43:13.555Z</time>
      </trkpt>
      <trkpt lat="43.158869" lon="-2.8825087">
        <ele>103.671</ele>
        <time>2021-04-01T07:43:13.617Z</time>
      </trkpt>
      <trkpt lat="43.1588672" lon="-2.8825082">
        <ele>103.684</ele>
        <time>2021-04-01T07:43:13.680Z</time>
      </trkpt>
      <trkpt lat="43.1588762" lon="-2.8825105">
        <ele>103.556</ele>
        <time>2021-04-01T07:43:13.743Z</time>
      </trkpt>
      <trkpt lat="43.1588648" lon="-2.8825071">
        <ele>103.711</ele>
        <time>2021-04-01T07:43:13.806Z</time>
      </trkpt>
      <trkpt lat="43.1588623" lon="-2.8825066">
        <ele>103.813</ele>
        <time>2021-04-01T07:43:13.869Z</time>
      </trkpt>
      <trkpt lat="43.1588672" lon="-2.8825082">
        <ele>103.684</ele>
        <time>2021-04-01T07:43:13.932Z</time>
      </trkpt>
      <trkpt lat="43.1588648" lon="-2.8825071">
        <ele>103.711</ele>
        <time>2021-04-01T07:43:13.995Z</time>
      </trkpt>
      <trkpt lat="43.1588623" lon="-2.8825066">
        <ele>103.813</ele>
        <time>2021-04-01T07:43:14.057Z</time>
      </trkpt>
      <trkpt lat="43.1588672" lon="-2.8825082">
        <ele>103.684</ele>
        <time>2021-04-01T07:43:14.120Z</time>
      </trkpt>
      <trkpt lat="43.1588648" lon="-2.8825071">
        <ele>103.711</ele>
        <time>2021-04-01T07:43:14.183Z</time>
      </trkpt>
      <trkpt lat="43.1588623" lon="-2.8825066">
        <ele>103.813</ele>
        <time>2021-04-01T07:43:14.246Z</time>
      </trkpt>
      <trkpt lat="43.1587925" lon="-2.8824721">
        <ele>103.874</ele>
        <time>2021-04-01T07:43:14.309Z</time>
      </trkpt>
      <trkpt lat="43.1587879" lon="-2.8824695">
        <ele>103.871</ele>
        <time>2021-04-01T07:43:14.372Z</time>
      </trkpt>
      <trkpt lat="43.1587589" lon="-2.8824496">
        <ele>103.774</ele>
        <time>2021-04-01T07:43:14.435Z</time>
      </trkpt>
      <trkpt lat="43.1587355" lon="-2.8824256">
        <ele>103.82</ele>
        <time>2021-04-01T07:43:14.648Z</time>
      </trkpt>
      <trkpt lat="43.1587299" lon="-2.8824204">
        <ele>103.837</ele>
        <time>2021-04-01T07:43:14.861Z</time>
      </trkpt>
      <trkpt lat="43.1587376" lon="-2.8824273">
        <ele>103.817</ele>
        <time>2021-04-01T07:43:15.074Z</time>
      </trkpt>
      <trkpt lat="43.1587355" lon="-2.8824256">
        <ele>103.82</ele>
        <time>2021-04-01T07:43:15.287Z</time>
      </trkpt>
      <trkpt lat="43.1587299" lon="-2.8824204">
        <ele>103.837</ele>
        <time>2021-04-01T07:43:15.500Z</time>
      </trkpt>
      <trkpt lat="43.1587355" lon="-2.8824256">
        <ele>103.82</ele>
        <time>2021-04-01T07:43:15.713Z</time>
      </trkpt>
      <trkpt lat="43.1587299" lon="-2.8824204">
        <ele>103.837</ele>
        <time>2021-04-01T07:43:15.926Z</time>
      </trkpt>
      <trkpt lat="43.1587013" lon="-2.882394">
        <ele>103.9</ele>
        <time>2021-04-01T07:43:18.450Z</time>
      </trkpt>
      <trkpt lat="43.158624" lon="-2.8823115">
        <ele>104.926</ele>
        <time>2021-04-01T07:43:18.605Z</time>
      </trkpt>
      <trkpt lat="43.1586273" lon="-2.8823158">
        <ele>104.958</ele>
        <time>2021-04-01T07:43:18.761Z</time>
      </trkpt>
      <trkpt lat="43.158624" lon="-2.8823115">
        <ele>104.926</ele>
        <time>2021-04-01T07:43:18.917Z</time>
      </trkpt>
      <trkpt lat="43.1586273" lon="-2.8823158">
        <ele>104.958</ele>
        <time>2021-04-01T07:43:19.073Z</time>
      </trkpt>
      <trkpt lat="43.158624" lon="-2.8823115">
        <ele>104.926</ele>
        <time>2021-04-01T07:43:19.229Z</time>
      </trkpt>
      <trkpt lat="43.1585968" lon="-2.8822761">
        <ele>105.071</ele>
        <time>2021-04-01T07:43:20.705Z</time>
      </trkpt>
      <trkpt lat="43.1585618" lon="-2.8822201">
        <ele>105.158</ele>
        <time>2021-04-01T07:43:22.630Z</time>
      </trkpt>
      <trkpt lat="43.15852" lon="-2.8821288">
        <ele>105.362</ele>
        <time>2021-04-01T07:43:22.927Z</time>
      </trkpt>
      <trkpt lat="43.158511" lon="-2.8821096">
        <ele>105.38</ele>
        <time>2021-04-01T07:43:23.224Z</time>
      </trkpt>
      <trkpt lat="43.158511" lon="-2.8821096">
        <ele>105.38</ele>
        <time>2021-04-01T07:43:23.521Z</time>
      </trkpt>
      <trkpt lat="43.158511" lon="-2.8821096">
        <ele>105.38</ele>
        <time>2021-04-01T07:43:23.818Z</time>
      </trkpt>
      <trkpt lat="43.1584888" lon="-2.8820646">
        <ele>105.568</ele>
        <time>2021-04-01T07:43:25.325Z</time>
      </trkpt>
      <trkpt lat="43.1584797" lon="-2.8820489">
        <ele>105.609</ele>
        <time>2021-04-01T07:43:25.551Z</time>
      </trkpt>
      <trkpt lat="43.1584888" lon="-2.8820646">
        <ele>105.568</ele>
        <time>2021-04-01T07:43:25.778Z</time>
      </trkpt>
      <trkpt lat="43.1584768" lon="-2.8820446">
        <ele>105.625</ele>
        <time>2021-04-01T07:43:26.005Z</time>
      </trkpt>
      <trkpt lat="43.1584732" lon="-2.8820378">
        <ele>105.672</ele>
        <time>2021-04-01T07:43:26.232Z</time>
      </trkpt>
      <trkpt lat="43.1584768" lon="-2.8820446">
        <ele>105.625</ele>
        <time>2021-04-01T07:43:26.459Z</time>
      </trkpt>
      <trkpt lat="43.1584732" lon="-2.8820378">
        <ele>105.672</ele>
        <time>2021-04-01T07:43:26.686Z</time>
      </trkpt>
      <trkpt lat="43.1584768" lon="-2.8820446">
        <ele>105.625</ele>
        <time>2021-04-01T07:43:26.913Z</time>
      </trkpt>
      <trkpt lat="43.1584732" lon="-2.8820378">
        <ele>105.672</ele>
        <time>2021-04-01T07:43:27.140Z</time>
      </trkpt>
      <trkpt lat="43.1584614" lon="-2.8820146">
        <ele>105.752</ele>
        <time>2021-04-01T07:43:27.261Z</time>
      </trkpt>
      <trkpt lat="43.1584448" lon="-2.8819821">
        <ele>105.926</ele>
        <time>2021-04-01T07:43:27.382Z</time>
      </trkpt>
      <trkpt lat="43.1584404" lon="-2.8819756">
        <ele>105.889</ele>
        <time>2021-04-01T07:43:27.503Z</time>
      </trkpt>
      <trkpt lat="43.1584448" lon="-2.8819821">
        <ele>105.926</ele>
        <time>2021-04-01T07:43:27.624Z</time>
      </trkpt>
      <trkpt lat="43.1584404" lon="-2.8819756">
        <ele>105.889</ele>
        <time>2021-04-01T07:43:27.745Z</time>
      </trkpt>
      <trkpt lat="43.1584204" lon="-2.8819387">
        <ele>106.022</ele>
        <time>2021-04-01T07:43:28.680Z</time>
      </trkpt>
      <trkpt lat="43.1583869" lon="-2.8818726">
        <ele>106.316</ele>
        <time>2021-04-01T07:43:29.193Z</time>
      </trkpt>
      <trkpt lat="43.1583856" lon="-2.8818704">
        <ele>106.33</ele>
        <time>2021-04-01T07:43:29.706Z</time>
      </trkpt>
      <trkpt lat="43.1583522" lon="-2.881809">
        <ele>106.519</ele>
        <time>2021-04-01T07:43:32.090Z</time>
      </trkpt>
      <trkpt lat="43.1583092" lon="-2.881728">
        <ele>106.537</ele>
        <time>2021-04-01T07:43:32.255Z</time>
      </trkpt>
      <trkpt lat="43.1582984" lon="-2.8817084">
        <ele>106.612</ele>
        <time>2021-04-01T07:43:32.420Z</time>
      </trkpt>
      <trkpt lat="43.1583092" lon="-2.881728">
        <ele>106.537</ele>
        <time>2021-04-01T07:43:32.585Z</time>
      </trkpt>
      <trkpt lat="43.1582984" lon="-2.8817084">
        <ele>106.612</ele>
        <time>2021-04-01T07:43:32.750Z</time>
      </trkpt>
      <trkpt lat="43.158288" lon="-2.8816926">
        <ele>106.608</ele>
        <time>2021-04-01T07:43:32.915Z</time>
      </trkpt>
      <trkpt lat="43.1582607" lon="-2.8816548">
        <ele>106.647</ele>
        <time>2021-04-01T07:43:33.410Z</time>
      </trkpt>
      <trkpt lat="43.1582528" lon="-2.8816433">
        <ele>106.645</ele>
        <time>2021-04-01T07:43:33.905Z</time>
      </trkpt>
      <trkpt lat="43.1582655" lon="-2.8816618">
        <ele>106.62</ele>
        <time>2021-04-01T07:43:34.400Z</time>
      </trkpt>
      <trkpt lat="43.1582607" lon="-2.8816548">
        <ele>106.647</ele>
        <time>2021-04-01T07:43:34.895Z</time>
      </trkpt>
      <trkpt lat="43.1582528" lon="-2.8816433">
        <ele>106.645</ele>
        <time>2021-04-01T07:43:35.390Z</time>
      </trkpt>
      <trkpt lat="43.1582017" lon="-2.8815663">
        <ele>106.458</ele>
        <time>2021-04-01T07:43:36.875Z</time>
      </trkpt>
      <trkpt lat="43.1581699" lon="-2.8815239">
        <ele>106.587</ele>
        <time>2021-04-01T07:43:37.356Z</time>
      </trkpt>
      <trkpt lat="43.1581716" lon="-2.8815262">
        <ele>106.564</ele>
        <time>2021-04-01T07:43:37.837Z</time>
      </trkpt>
      <trkpt lat="43.1581699" lon="-2.8815239">
        <ele>106.587</ele>
        <time>2021-04-01T07:43:38.318Z</time>
      </trkpt>
      <trkpt lat="43.1581035" lon="-2.881445">
        <ele>106.267</ele>
        <time>2021-04-01T07:43:39.460Z</time>
      </trkpt>
      <trkpt lat="43.1580801" lon="-2.8814178">
        <ele>106.217</ele>
        <time>2021-04-01T07:43:39.698Z</time>
      </trkpt>
      <trkpt lat="43.158059" lon="-2.8813956">
        <ele>106.217</ele>
        <time>2021-04-01T07:43:39.936Z</time>
      </trkpt>
      <trkpt lat="43.1580499" lon="-2.8813867">
        <ele>106.267</ele>
        <time>2021-04-01T07:43:40.174Z</time>
      </trkpt>
      <trkpt lat="43.158059" lon="-2.8813956">
        <ele>106.217</ele>
        <time>2021-04-01T07:43:40.413Z</time>
      </trkpt>
      <trkpt lat="43.1580499" lon="-2.8813867">
        <ele>106.267</ele>
        <time>2021-04-01T07:43:40.651Z</time>
      </trkpt>
      <trkpt lat="43.1580374" lon="-2.8813738">
        <ele>106.225</ele>
        <time>2021-04-01T07:43:40.889Z</time>
      </trkpt>
      <trkpt lat="43.1580499" lon="-2.8813867">
        <ele>106.267</ele>
        <time>2021-04-01T07:43:41.128Z</time>
      </trkpt>
      <trkpt lat="43.1580374" lon="-2.8813738">
        <ele>106.225</ele>
        <time>2021-04-01T07:43:41.366Z</time>
      </trkpt>
      <trkpt lat="43.1579957" lon="-2.8813337">
        <ele>106.156</ele>
        <time>2021-04-01T07:43:41.605Z</time>
      </trkpt>
      <trkpt lat="43.1579837" lon="-2.8813236">
        <ele>106.142</ele>
        <time>2021-04-01T07:43:42.063Z</time>
      </trkpt>
      <trkpt lat="43.1579837" lon="-2.8813236">
        <ele>106.142</ele>
        <time>2021-04-01T07:43:42.521Z</time>
      </trkpt>
      <trkpt lat="43.1579343" lon="-2.8812872">
        <ele>105.87</ele>
        <time>2021-04-01T07:43:44.245Z</time>
      </trkpt>
      <trkpt lat="43.1579074" lon="-2.88127">
        <ele>105.763</ele>
        <time>2021-04-01T07:43:45.235Z</time>
      </trkpt>
      <trkpt lat="43.1579074" lon="-2.88127">
        <ele>105.763</ele>
        <time>2021-04-01T07:43:46.225Z</time>
      </trkpt>
      <trkpt lat="43.1577609" lon="-2.8812138">
        <ele>105.278</ele>
        <time>2021-04-01T07:43:47.765Z</time>
      </trkpt>
      <trkpt lat="43.1576709" lon="-2.8811912">
        <ele>104.794</ele>
        <time>2021-04-01T07:43:48.269Z</time>
      </trkpt>
      <trkpt lat="43.1576614" lon="-2.8811889">
        <ele>104.817</ele>
        <time>2021-04-01T07:43:48.773Z</time>
      </trkpt>
      <trkpt lat="43.1576452" lon="-2.8811844">
        <ele>104.798</ele>
        <time>2021-04-01T07:43:49.277Z</time>
      </trkpt>
      <trkpt lat="43.1576614" lon="-2.8811889">
        <ele>104.817</ele>
        <time>2021-04-01T07:43:49.781Z</time>
      </trkpt>
      <trkpt lat="43.1576452" lon="-2.8811844">
        <ele>104.798</ele>
        <time>2021-04-01T07:43:50.285Z</time>
      </trkpt>
      <trkpt lat="43.157494" lon="-2.8811373">
        <ele>103.962</ele>
        <time>2021-04-01T07:43:50.790Z</time>
      </trkpt>
      <trkpt lat="43.157494" lon="-2.8811373">
        <ele>103.962</ele>
        <time>2021-04-01T07:43:50.947Z</time>
      </trkpt>
      <trkpt lat="43.157442" lon="-2.8811092">
        <ele>103.539</ele>
        <time>2021-04-01T07:43:51.104Z</time>
      </trkpt>
      <trkpt lat="43.1574843" lon="-2.8811332">
        <ele>103.874</ele>
        <time>2021-04-01T07:43:51.261Z</time>
      </trkpt>
      <trkpt lat="43.157442" lon="-2.8811092">
        <ele>103.539</ele>
        <time>2021-04-01T07:43:51.418Z</time>
      </trkpt>
      <trkpt lat="43.1574843" lon="-2.8811332">
        <ele>103.874</ele>
        <time>2021-04-01T07:43:51.575Z</time>
      </trkpt>
      <trkpt lat="43.157442" lon="-2.8811092">
        <ele>103.539</ele>
        <time>2021-04-01T07:43:51.732Z</time>
      </trkpt>
      <trkpt lat="43.157432" lon="-2.8811034">
        <ele>103.575</ele>
        <time>2021-04-01T07:43:51.890Z</time>
      </trkpt>
      <trkpt lat="43.1573762" lon="-2.8810561">
        <ele>103.477</ele>
        <time>2021-04-01T07:43:52.238Z</time>
      </trkpt>
      <trkpt lat="43.1573737" lon="-2.8810533">
        <ele>103.492</ele>
        <time>2021-04-01T07:43:52.586Z</time>
      </trkpt>
      <trkpt lat="43.1573815" lon="-2.8810621">
        <ele>103.48</ele>
        <time>2021-04-01T07:43:52.934Z</time>
      </trkpt>
      <trkpt lat="43.1573762" lon="-2.8810561">
        <ele>103.477</ele>
        <time>2021-04-01T07:43:53.283Z</time>
      </trkpt>
      <trkpt lat="43.1573737" lon="-2.8810533">
        <ele>103.492</ele>
        <time>2021-04-01T07:43:53.631Z</time>
      </trkpt>
      <trkpt lat="43.1573815" lon="-2.8810621">
        <ele>103.48</ele>
        <time>2021-04-01T07:43:53.979Z</time>
      </trkpt>
      <trkpt lat="43.1573762" lon="-2.8810561">
        <ele>103.477</ele>
        <time>2021-04-01T07:43:54.328Z</time>
      </trkpt>
      <trkpt lat="43.1573737" lon="-2.8810533">
        <ele>103.492</ele>
        <time>2021-04-01T07:43:54.676Z</time>
      </trkpt>
      <trkpt lat="43.1572904" lon="-2.8809316">
        <ele>103.696</ele>
        <time>2021-04-01T07:43:55.410Z</time>
      </trkpt>
      <trkpt lat="43.1572762" lon="-2.8809078">
        <ele>103.823</ele>
        <time>2021-04-01T07:43:55.558Z</time>
      </trkpt>
      <trkpt lat="43.1572628" lon="-2.8808836">
        <ele>103.948</ele>
        <time>2021-04-01T07:43:55.707Z</time>
      </trkpt>
      <trkpt lat="43.1572594" lon="-2.8808765">
        <ele>103.98</ele>
        <time>2021-04-01T07:43:55.855Z</time>
      </trkpt>
      <trkpt lat="43.1572522" lon="-2.8808624">
        <ele>104.062</ele>
        <time>2021-04-01T07:43:56.004Z</time>
      </trkpt>
      <trkpt lat="43.1572628" lon="-2.8808836">
        <ele>103.948</ele>
        <time>2021-04-01T07:43:56.152Z</time>
      </trkpt>
      <trkpt lat="43.1572594" lon="-2.8808765">
        <ele>103.98</ele>
        <time>2021-04-01T07:43:56.301Z</time>
      </trkpt>
      <trkpt lat="43.1572522" lon="-2.8808624">
        <ele>104.062</ele>
        <time>2021-04-01T07:43:56.449Z</time>
      </trkpt>
      <trkpt lat="43.1572594" lon="-2.8808765">
        <ele>103.98</ele>
        <time>2021-04-01T07:43:56.598Z</time>
      </trkpt>
      <trkpt lat="43.1572522" lon="-2.8808624">
        <ele>104.062</ele>
        <time>2021-04-01T07:43:56.746Z</time>
      </trkpt>
      <trkpt lat="43.1572244" lon="-2.8808152">
        <ele>104.318</ele>
        <time>2021-04-01T07:43:58.490Z</time>
      </trkpt>
      <trkpt lat="43.1571661" lon="-2.880723">
        <ele>104.518</ele>
        <time>2021-04-01T07:43:59.278Z</time>
      </trkpt>
      <trkpt lat="43.1571483" lon="-2.880695">
        <ele>104.62</ele>
        <time>2021-04-01T07:44:00.066Z</time>
      </trkpt>
      <trkpt lat="43.1570828" lon="-2.8805916">
        <ele>104.885</ele>
        <time>2021-04-01T07:44:02.010Z</time>
      </trkpt>
      <trkpt lat="43.1570453" lon="-2.8805286">
        <ele>104.961</ele>
        <time>2021-04-01T07:44:02.463Z</time>
      </trkpt>
      <trkpt lat="43.1570329" lon="-2.8805079">
        <ele>104.942</ele>
        <time>2021-04-01T07:44:02.917Z</time>
      </trkpt>
      <trkpt lat="43.1570329" lon="-2.8805079">
        <ele>104.942</ele>
        <time>2021-04-01T07:44:03.371Z</time>
      </trkpt>
      <trkpt lat="43.1569877" lon="-2.8804305">
        <ele>104.992</ele>
        <time>2021-04-01T07:44:03.825Z</time>
      </trkpt>
      <trkpt lat="43.1569847" lon="-2.8804244">
        <ele>104.973</ele>
        <time>2021-04-01T07:44:04.131Z</time>
      </trkpt>
      <trkpt lat="43.1569812" lon="-2.8804181">
        <ele>104.993</ele>
        <time>2021-04-01T07:44:04.437Z</time>
      </trkpt>
      <trkpt lat="43.1569746" lon="-2.8804061">
        <ele>104.97</ele>
        <time>2021-04-01T07:44:04.744Z</time>
      </trkpt>
      <trkpt lat="43.1569847" lon="-2.8804244">
        <ele>104.973</ele>
        <time>2021-04-01T07:44:05.050Z</time>
      </trkpt>
      <trkpt lat="43.1569812" lon="-2.8804181">
        <ele>104.993</ele>
        <time>2021-04-01T07:44:05.357Z</time>
      </trkpt>
      <trkpt lat="43.1569746" lon="-2.8804061">
        <ele>104.97</ele>
        <time>2021-04-01T07:44:05.663Z</time>
      </trkpt>
      <trkpt lat="43.1569231" lon="-2.8803108">
        <ele>104.891</ele>
        <time>2021-04-01T07:44:06.300Z</time>
      </trkpt>
      <trkpt lat="43.156913" lon="-2.8802925">
        <ele>104.911</ele>
        <time>2021-04-01T07:44:06.648Z</time>
      </trkpt>
      <trkpt lat="43.1568898" lon="-2.8802507">
        <ele>104.892</ele>
        <time>2021-04-01T07:44:06.996Z</time>
      </trkpt>
      <trkpt lat="43.1568882" lon="-2.8802475">
        <ele>104.887</ele>
        <time>2021-04-01T07:44:07.344Z</time>
      </trkpt>
      <trkpt lat="43.1568898" lon="-2.8802507">
        <ele>104.892</ele>
        <time>2021-04-01T07:44:07.693Z</time>
      </trkpt>
      <trkpt lat="43.1568882" lon="-2.8802475">
        <ele>104.887</ele>
        <time>2021-04-01T07:44:08.041Z</time>
      </trkpt>
      <trkpt lat="43.1568493" lon="-2.8801796">
        <ele>105.037</ele>
        <time>2021-04-01T07:44:09.985Z</time>
      </trkpt>
      <trkpt lat="43.1568277" lon="-2.8801442">
        <ele>105.196</ele>
        <time>2021-04-01T07:44:11.580Z</time>
      </trkpt>
      <trkpt lat="43.1568262" lon="-2.8801411">
        <ele>105.209</ele>
        <time>2021-04-01T07:44:13.175Z</time>
      </trkpt>
      <trkpt lat="43.1568277" lon="-2.8801442">
        <ele>105.196</ele>
        <time>2021-04-01T07:44:14.770Z</time>
      </trkpt>
      <trkpt lat="43.1568262" lon="-2.8801411">
        <ele>105.209</ele>
        <time>2021-04-01T07:44:09.985Z</time>
      </trkpt>
      <trkpt lat="43.1567993" lon="-2.880094">
        <ele>105.296</ele>
        <time>2021-04-01T07:44:10.157Z</time>
      </trkpt>
      <trkpt lat="43.1567975" lon="-2.8800912">
        <ele>105.288</ele>
        <time>2021-04-01T07:44:10.330Z</time>
      </trkpt>
      <trkpt lat="43.156778" lon="-2.8800562">
        <ele>105.351</ele>
        <time>2021-04-01T07:44:10.503Z</time>
      </trkpt>
      <trkpt lat="43.1567993" lon="-2.880094">
        <ele>105.296</ele>
        <time>2021-04-01T07:44:10.676Z</time>
      </trkpt>
      <trkpt lat="43.1567975" lon="-2.8800912">
        <ele>105.288</ele>
        <time>2021-04-01T07:44:10.849Z</time>
      </trkpt>
      <trkpt lat="43.156778" lon="-2.8800562">
        <ele>105.351</ele>
        <time>2021-04-01T07:44:11.022Z</time>
      </trkpt>
      <trkpt lat="43.1567633" lon="-2.88003">
        <ele>105.407</ele>
        <time>2021-04-01T07:44:11.195Z</time>
      </trkpt>
      <trkpt lat="43.1567461" lon="-2.879997">
        <ele>105.496</ele>
        <time>2021-04-01T07:44:11.384Z</time>
      </trkpt>
      <trkpt lat="43.1567414" lon="-2.8799881">
        <ele>105.512</ele>
        <time>2021-04-01T07:44:11.573Z</time>
      </trkpt>
      <trkpt lat="43.1567461" lon="-2.879997">
        <ele>105.496</ele>
        <time>2021-04-01T07:44:11.763Z</time>
      </trkpt>
      <trkpt lat="43.1567414" lon="-2.8799881">
        <ele>105.512</ele>
        <time>2021-04-01T07:44:11.952Z</time>
      </trkpt>
      <trkpt lat="43.1567383" lon="-2.8799819">
        <ele>105.528</ele>
        <time>2021-04-01T07:44:12.142Z</time>
      </trkpt>
      <trkpt lat="43.1567461" lon="-2.879997">
        <ele>105.496</ele>
        <time>2021-04-01T07:44:12.331Z</time>
      </trkpt>
      <trkpt lat="43.1567414" lon="-2.8799881">
        <ele>105.512</ele>
        <time>2021-04-01T07:44:12.521Z</time>
      </trkpt>
      <trkpt lat="43.1567383" lon="-2.8799819">
        <ele>105.528</ele>
        <time>2021-04-01T07:44:12.710Z</time>
      </trkpt>
      <trkpt lat="43.1567146" lon="-2.8799368">
        <ele>105.626</ele>
        <time>2021-04-01T07:44:14.825Z</time>
      </trkpt>
      <trkpt lat="43.1566568" lon="-2.8798329">
        <ele>106.102</ele>
        <time>2021-04-01T07:44:15.034Z</time>
      </trkpt>
      <trkpt lat="43.15665" lon="-2.8798212">
        <ele>106.121</ele>
        <time>2021-04-01T07:44:15.243Z</time>
      </trkpt>
      <trkpt lat="43.1566568" lon="-2.8798329">
        <ele>106.102</ele>
        <time>2021-04-01T07:44:15.452Z</time>
      </trkpt>
      <trkpt lat="43.15665" lon="-2.8798212">
        <ele>106.121</ele>
        <time>2021-04-01T07:44:15.661Z</time>
      </trkpt>
      <trkpt lat="43.1566236" lon="-2.879779">
        <ele>106.287</ele>
        <time>2021-04-01T07:44:17.960Z</time>
      </trkpt>
      <trkpt lat="43.1565534" lon="-2.879681">
        <ele>106.697</ele>
        <time>2021-04-01T07:44:18.180Z</time>
      </trkpt>
      <trkpt lat="43.1565453" lon="-2.879672">
        <ele>106.699</ele>
        <time>2021-04-01T07:44:18.400Z</time>
      </trkpt>
      <trkpt lat="43.1565534" lon="-2.879681">
        <ele>106.697</ele>
        <time>2021-04-01T07:44:18.620Z</time>
      </trkpt>
      <trkpt lat="43.1565453" lon="-2.879672">
        <ele>106.699</ele>
        <time>2021-04-01T07:44:18.840Z</time>
      </trkpt>
      <trkpt lat="43.1565116" lon="-2.8796328">
        <ele>106.852</ele>
        <time>2021-04-01T07:44:21.205Z</time>
      </trkpt>
      <trkpt lat="43.1564281" lon="-2.8795417">
        <ele>106.981</ele>
        <time>2021-04-01T07:44:22.085Z</time>
      </trkpt>
      <trkpt lat="43.1564281" lon="-2.8795417">
        <ele>106.981</ele>
        <time>2021-04-01T07:44:22.965Z</time>
      </trkpt>
      <trkpt lat="43.1563247" lon="-2.8794356">
        <ele>107.026</ele>
        <time>2021-04-01T07:44:23.845Z</time>
      </trkpt>
      <trkpt lat="43.1563247" lon="-2.8794356">
        <ele>107.026</ele>
        <time>2021-04-01T07:44:26.320Z</time>
      </trkpt>
      <trkpt lat="43.1562277" lon="-2.8793252">
        <ele>107.46</ele>
        <time>2021-04-01T07:44:26.507Z</time>
      </trkpt>
      <trkpt lat="43.156226" lon="-2.8793225">
        <ele>107.494</ele>
        <time>2021-04-01T07:44:26.694Z</time>
      </trkpt>
      <trkpt lat="43.1562277" lon="-2.8793252">
        <ele>107.46</ele>
        <time>2021-04-01T07:44:26.881Z</time>
      </trkpt>
      <trkpt lat="43.156226" lon="-2.8793225">
        <ele>107.494</ele>
        <time>2021-04-01T07:44:27.068Z</time>
      </trkpt>
      <trkpt lat="43.156196" lon="-2.879278">
        <ele>107.71</ele>
        <time>2021-04-01T07:44:28.355Z</time>
      </trkpt>
      <trkpt lat="43.1561628" lon="-2.8792203">
        <ele>107.903</ele>
        <time>2021-04-01T07:44:31.000Z</time>
      </trkpt>
      <trkpt lat="43.1561489" lon="-2.8791932">
        <ele>108.072</ele>
        <time>2021-04-01T07:44:31.084Z</time>
      </trkpt>
      <trkpt lat="43.1561489" lon="-2.8791932">
        <ele>108.072</ele>
        <time>2021-04-01T07:44:31.169Z</time>
      </trkpt>
      <trkpt lat="43.1561387" lon="-2.8791723">
        <ele>108.11</ele>
        <time>2021-04-01T07:44:31.253Z</time>
      </trkpt>
      <trkpt lat="43.1561371" lon="-2.8791693">
        <ele>108.137</ele>
        <time>2021-04-01T07:44:31.338Z</time>
      </trkpt>
      <trkpt lat="43.1561401" lon="-2.8791753">
        <ele>108.113</ele>
        <time>2021-04-01T07:44:31.422Z</time>
      </trkpt>
      <trkpt lat="43.1561387" lon="-2.8791723">
        <ele>108.11</ele>
        <time>2021-04-01T07:44:31.507Z</time>
      </trkpt>
      <trkpt lat="43.1561371" lon="-2.8791693">
        <ele>108.137</ele>
        <time>2021-04-01T07:44:31.591Z</time>
      </trkpt>
      <trkpt lat="43.1561341" lon="-2.879163">
        <ele>108.152</ele>
        <time>2021-04-01T07:44:31.676Z</time>
      </trkpt>
      <trkpt lat="43.1561387" lon="-2.8791723">
        <ele>108.11</ele>
        <time>2021-04-01T07:44:31.760Z</time>
      </trkpt>
      <trkpt lat="43.1561371" lon="-2.8791693">
        <ele>108.137</ele>
        <time>2021-04-01T07:44:31.845Z</time>
      </trkpt>
      <trkpt lat="43.1561341" lon="-2.879163">
        <ele>108.152</ele>
        <time>2021-04-01T07:44:31.930Z</time>
      </trkpt>
      <trkpt lat="43.1560711" lon="-2.8790195">
        <ele>109.215</ele>
        <time>2021-04-01T07:44:32.466Z</time>
      </trkpt>
      <trkpt lat="43.1560627" lon="-2.8790009">
        <ele>109.367</ele>
        <time>2021-04-01T07:44:33.002Z</time>
      </trkpt>
      <trkpt lat="43.1560627" lon="-2.8790009">
        <ele>109.367</ele>
        <time>2021-04-01T07:44:33.538Z</time>
      </trkpt>
      <trkpt lat="43.1560231" lon="-2.8788967">
        <ele>110.028</ele>
        <time>2021-04-01T07:44:34.075Z</time>
      </trkpt>
      <trkpt lat="43.1560224" lon="-2.8788934">
        <ele>110.023</ele>
        <time>2021-04-01T07:44:34.164Z</time>
      </trkpt>
      <trkpt lat="43.1560253" lon="-2.8789033">
        <ele>109.961</ele>
        <time>2021-04-01T07:44:34.253Z</time>
      </trkpt>
      <trkpt lat="43.1560231" lon="-2.8788967">
        <ele>110.028</ele>
        <time>2021-04-01T07:44:34.343Z</time>
      </trkpt>
      <trkpt lat="43.1560224" lon="-2.8788934">
        <ele>110.023</ele>
        <time>2021-04-01T07:44:34.432Z</time>
      </trkpt>
      <trkpt lat="43.1560253" lon="-2.8789033">
        <ele>109.961</ele>
        <time>2021-04-01T07:44:34.521Z</time>
      </trkpt>
      <trkpt lat="43.1560231" lon="-2.8788967">
        <ele>110.028</ele>
        <time>2021-04-01T07:44:34.611Z</time>
      </trkpt>
      <trkpt lat="43.1560224" lon="-2.8788934">
        <ele>110.023</ele>
        <time>2021-04-01T07:44:34.700Z</time>
      </trkpt>
      <trkpt lat="43.1560071" lon="-2.878857">
        <ele>110.118</ele>
        <time>2021-04-01T07:44:36.110Z</time>
      </trkpt>
      <trkpt lat="43.1559861" lon="-2.8787772">
        <ele>110.519</ele>
        <time>2021-04-01T07:44:36.618Z</time>
      </trkpt>
      <trkpt lat="43.1559649" lon="-2.8787211">
        <ele>110.864</ele>
        <time>2021-04-01T07:44:37.127Z</time>
      </trkpt>
      <trkpt lat="43.1559649" lon="-2.8787211">
        <ele>110.864</ele>
        <time>2021-04-01T07:44:37.636Z</time>
      </trkpt>
      <trkpt lat="43.1559398" lon="-2.8786653">
        <ele>111.164</ele>
        <time>2021-04-01T07:44:40.125Z</time>
      </trkpt>
      <trkpt lat="43.1558918" lon="-2.878562">
        <ele>111.65</ele>
        <time>2021-04-01T07:44:41.885Z</time>
      </trkpt>
      <trkpt lat="43.1558907" lon="-2.8785593">
        <ele>111.639</ele>
        <time>2021-04-01T07:44:42.037Z</time>
      </trkpt>
      <trkpt lat="43.1558894" lon="-2.8785565">
        <ele>111.626</ele>
        <time>2021-04-01T07:44:42.189Z</time>
      </trkpt>
      <trkpt lat="43.1558841" lon="-2.8785447">
        <ele>111.689</ele>
        <time>2021-04-01T07:44:42.341Z</time>
      </trkpt>
      <trkpt lat="43.155893" lon="-2.8785647">
        <ele>111.62</ele>
        <time>2021-04-01T07:44:42.494Z</time>
      </trkpt>
      <trkpt lat="43.1558918" lon="-2.878562">
        <ele>111.65</ele>
        <time>2021-04-01T07:44:42.646Z</time>
      </trkpt>
      <trkpt lat="43.1558907" lon="-2.8785593">
        <ele>111.639</ele>
        <time>2021-04-01T07:44:42.798Z</time>
      </trkpt>
      <trkpt lat="43.1558894" lon="-2.8785565">
        <ele>111.626</ele>
        <time>2021-04-01T07:44:42.951Z</time>
      </trkpt>
      <trkpt lat="43.1558841" lon="-2.8785447">
        <ele>111.689</ele>
        <time>2021-04-01T07:44:43.103Z</time>
      </trkpt>
      <trkpt lat="43.155893" lon="-2.8785647">
        <ele>111.62</ele>
        <time>2021-04-01T07:44:43.255Z</time>
      </trkpt>
      <trkpt lat="43.1558918" lon="-2.878562">
        <ele>111.65</ele>
        <time>2021-04-01T07:44:43.408Z</time>
      </trkpt>
      <trkpt lat="43.1558907" lon="-2.8785593">
        <ele>111.639</ele>
        <time>2021-04-01T07:44:43.560Z</time>
      </trkpt>
      <trkpt lat="43.1558894" lon="-2.8785565">
        <ele>111.626</ele>
        <time>2021-04-01T07:44:43.712Z</time>
      </trkpt>
      <trkpt lat="43.1558841" lon="-2.8785447">
        <ele>111.689</ele>
        <time>2021-04-01T07:44:43.865Z</time>
      </trkpt>
      <trkpt lat="43.1558488" lon="-2.8784718">
        <ele>111.835</ele>
        <time>2021-04-01T07:44:45.240Z</time>
      </trkpt>
      <trkpt lat="43.1557737" lon="-2.8782907">
        <ele>112.185</ele>
        <time>2021-04-01T07:44:45.389Z</time>
      </trkpt>
      <trkpt lat="43.1557704" lon="-2.8782854">
        <ele>112.151</ele>
        <time>2021-04-01T07:44:45.538Z</time>
      </trkpt>
      <trkpt lat="43.1557737" lon="-2.8782907">
        <ele>112.185</ele>
        <time>2021-04-01T07:44:45.687Z</time>
      </trkpt>
      <trkpt lat="43.1557704" lon="-2.8782854">
        <ele>112.151</ele>
        <time>2021-04-01T07:44:45.837Z</time>
      </trkpt>
      <trkpt lat="43.1557737" lon="-2.8782907">
        <ele>112.185</ele>
        <time>2021-04-01T07:44:45.986Z</time>
      </trkpt>
      <trkpt lat="43.1557704" lon="-2.8782854">
        <ele>112.151</ele>
        <time>2021-04-01T07:44:46.135Z</time>
      </trkpt>
      <trkpt lat="43.155747" lon="-2.8782364">
        <ele>112.189</ele>
        <time>2021-04-01T07:44:47.440Z</time>
      </trkpt>
      <trkpt lat="43.1557223" lon="-2.8781727">
        <ele>112.259</ele>
        <time>2021-04-01T07:44:47.814Z</time>
      </trkpt>
      <trkpt lat="43.1557059" lon="-2.8781194">
        <ele>112.763</ele>
        <time>2021-04-01T07:44:48.188Z</time>
      </trkpt>
      <trkpt lat="43.1557098" lon="-2.8781295">
        <ele>112.657</ele>
        <time>2021-04-01T07:44:48.562Z</time>
      </trkpt>
      <trkpt lat="43.1557059" lon="-2.8781194">
        <ele>112.763</ele>
        <time>2021-04-01T07:44:48.936Z</time>
      </trkpt>
      <trkpt lat="43.1556807" lon="-2.8780638">
        <ele>112.813</ele>
        <time>2021-04-01T07:44:49.310Z</time>
      </trkpt>
      <trkpt lat="43.1556684" lon="-2.8780276">
        <ele>112.764</ele>
        <time>2021-04-01T07:44:49.681Z</time>
      </trkpt>
      <trkpt lat="43.1556807" lon="-2.8780638">
        <ele>112.813</ele>
        <time>2021-04-01T07:44:50.052Z</time>
      </trkpt>
      <trkpt lat="43.1556655" lon="-2.8780214">
        <ele>112.747</ele>
        <time>2021-04-01T07:44:50.423Z</time>
      </trkpt>
      <trkpt lat="43.1556684" lon="-2.8780276">
        <ele>112.764</ele>
        <time>2021-04-01T07:44:50.795Z</time>
      </trkpt>
      <trkpt lat="43.1556655" lon="-2.8780214">
        <ele>112.747</ele>
        <time>2021-04-01T07:44:51.166Z</time>
      </trkpt>
      <trkpt lat="43.1556684" lon="-2.8780276">
        <ele>112.764</ele>
        <time>2021-04-01T07:44:51.537Z</time>
      </trkpt>
      <trkpt lat="43.1556655" lon="-2.8780214">
        <ele>112.747</ele>
        <time>2021-04-01T07:44:51.908Z</time>
      </trkpt>
      <trkpt lat="43.1556357" lon="-2.8778804">
        <ele>112.849</ele>
        <time>2021-04-01T07:44:52.280Z</time>
      </trkpt>
      <trkpt lat="43.1556473" lon="-2.8779572">
        <ele>112.643</ele>
        <time>2021-04-01T07:44:52.761Z</time>
      </trkpt>
      <trkpt lat="43.155644" lon="-2.8779394">
        <ele>112.706</ele>
        <time>2021-04-01T07:44:53.242Z</time>
      </trkpt>
      <trkpt lat="43.1556473" lon="-2.8779572">
        <ele>112.643</ele>
        <time>2021-04-01T07:44:53.723Z</time>
      </trkpt>
      <trkpt lat="43.155644" lon="-2.8779394">
        <ele>112.706</ele>
        <time>2021-04-01T07:44:54.205Z</time>
      </trkpt>
      <trkpt lat="43.155633" lon="-2.8776585">
        <ele>112.458</ele>
        <time>2021-04-01T07:44:55.745Z</time>
      </trkpt>
      <trkpt lat="43.1556333" lon="-2.8776548">
        <ele>112.461</ele>
        <time>2021-04-01T07:44:55.968Z</time>
      </trkpt>
      <trkpt lat="43.1556383" lon="-2.8776144">
        <ele>112.558</ele>
        <time>2021-04-01T07:44:56.192Z</time>
      </trkpt>
      <trkpt lat="43.155633" lon="-2.8776585">
        <ele>112.458</ele>
        <time>2021-04-01T07:44:56.416Z</time>
      </trkpt>
      <trkpt lat="43.1556333" lon="-2.8776548">
        <ele>112.461</ele>
        <time>2021-04-01T07:44:56.640Z</time>
      </trkpt>
      <trkpt lat="43.1556383" lon="-2.8776144">
        <ele>112.558</ele>
        <time>2021-04-01T07:44:56.864Z</time>
      </trkpt>
      <trkpt lat="43.155648" lon="-2.8775557">
        <ele>112.427</ele>
        <time>2021-04-01T07:44:57.088Z</time>
      </trkpt>
      <trkpt lat="43.1556577" lon="-2.8775117">
        <ele>112.369</ele>
        <time>2021-04-01T07:44:57.312Z</time>
      </trkpt>
      <trkpt lat="43.1556532" lon="-2.8775287">
        <ele>112.376</ele>
        <time>2021-04-01T07:44:57.536Z</time>
      </trkpt>
      <trkpt lat="43.1556546" lon="-2.8775221">
        <ele>112.345</ele>
        <time>2021-04-01T07:44:57.760Z</time>
      </trkpt>
      <trkpt lat="43.1556577" lon="-2.8775117">
        <ele>112.369</ele>
        <time>2021-04-01T07:44:57.984Z</time>
      </trkpt>
      <trkpt lat="43.1556532" lon="-2.8775287">
        <ele>112.376</ele>
        <time>2021-04-01T07:44:58.208Z</time>
      </trkpt>
      <trkpt lat="43.1556546" lon="-2.8775221">
        <ele>112.345</ele>
        <time>2021-04-01T07:44:58.432Z</time>
      </trkpt>
      <trkpt lat="43.1556577" lon="-2.8775117">
        <ele>112.369</ele>
        <time>2021-04-01T07:44:58.656Z</time>
      </trkpt>
      <trkpt lat="43.1556717" lon="-2.8774598">
        <ele>112.559</ele>
        <time>2021-04-01T07:45:00.255Z</time>
      </trkpt>
      <trkpt lat="43.1556764" lon="-2.8774374">
        <ele>112.585</ele>
        <time>2021-04-01T07:45:00.552Z</time>
      </trkpt>
      <trkpt lat="43.1556761" lon="-2.8774405">
        <ele>112.605</ele>
        <time>2021-04-01T07:45:00.849Z</time>
      </trkpt>
      <trkpt lat="43.1556764" lon="-2.8774374">
        <ele>112.585</ele>
        <time>2021-04-01T07:45:01.146Z</time>
      </trkpt>
      <trkpt lat="43.1556761" lon="-2.8774405">
        <ele>112.605</ele>
        <time>2021-04-01T07:45:01.443Z</time>
      </trkpt>
      <trkpt lat="43.1556764" lon="-2.8774374">
        <ele>112.585</ele>
        <time>2021-04-01T07:45:01.740Z</time>
      </trkpt>
      <trkpt lat="43.1557077" lon="-2.8772983">
        <ele>112.369</ele>
        <time>2021-04-01T07:45:03.830Z</time>
      </trkpt>
      <trkpt lat="43.1557281" lon="-2.8770823">
        <ele>110.2</ele>
        <time>2021-04-01T07:45:06.910Z</time>
      </trkpt>
      <trkpt lat="43.1557274" lon="-2.8770635">
        <ele>109.947</ele>
        <time>2021-04-01T07:45:06.965Z</time>
      </trkpt>
      <trkpt lat="43.1557271" lon="-2.8770554">
        <ele>109.87</ele>
        <time>2021-04-01T07:45:07.020Z</time>
      </trkpt>
      <trkpt lat="43.1557263" lon="-2.8770342">
        <ele>109.747</ele>
        <time>2021-04-01T07:45:07.075Z</time>
      </trkpt>
      <trkpt lat="43.1557273" lon="-2.8770707">
        <ele>110.069</ele>
        <time>2021-04-01T07:45:07.130Z</time>
      </trkpt>
      <trkpt lat="43.1557272" lon="-2.877067">
        <ele>110.016</ele>
        <time>2021-04-01T07:45:07.185Z</time>
      </trkpt>
      <trkpt lat="43.1557274" lon="-2.8770635">
        <ele>109.947</ele>
        <time>2021-04-01T07:45:07.240Z</time>
      </trkpt>
      <trkpt lat="43.1557271" lon="-2.8770554">
        <ele>109.87</ele>
        <time>2021-04-01T07:45:07.295Z</time>
      </trkpt>
      <trkpt lat="43.1557263" lon="-2.8770342">
        <ele>109.747</ele>
        <time>2021-04-01T07:45:07.350Z</time>
      </trkpt>
      <trkpt lat="43.1557272" lon="-2.877067">
        <ele>110.016</ele>
        <time>2021-04-01T07:45:07.405Z</time>
      </trkpt>
      <trkpt lat="43.1557274" lon="-2.8770635">
        <ele>109.947</ele>
        <time>2021-04-01T07:45:07.460Z</time>
      </trkpt>
      <trkpt lat="43.1557271" lon="-2.8770554">
        <ele>109.87</ele>
        <time>2021-04-01T07:45:07.515Z</time>
      </trkpt>
      <trkpt lat="43.1557263" lon="-2.8770342">
        <ele>109.747</ele>
        <time>2021-04-01T07:45:07.570Z</time>
      </trkpt>
      <trkpt lat="43.1557043" lon="-2.8768965">
        <ele>108.978</ele>
        <time>2021-04-01T07:45:10.430Z</time>
      </trkpt>
      <trkpt lat="43.1555993" lon="-2.8767072">
        <ele>106.525</ele>
        <time>2021-04-01T07:45:10.521Z</time>
      </trkpt>
      <trkpt lat="43.1555917" lon="-2.8766973">
        <ele>106.399</ele>
        <time>2021-04-01T07:45:10.613Z</time>
      </trkpt>
      <trkpt lat="43.1556018" lon="-2.8767103">
        <ele>106.598</ele>
        <time>2021-04-01T07:45:10.705Z</time>
      </trkpt>
      <trkpt lat="43.1555993" lon="-2.8767072">
        <ele>106.525</ele>
        <time>2021-04-01T07:45:10.796Z</time>
      </trkpt>
      <trkpt lat="43.1555917" lon="-2.8766973">
        <ele>106.399</ele>
        <time>2021-04-01T07:45:10.888Z</time>
      </trkpt>
      <trkpt lat="43.1556018" lon="-2.8767103">
        <ele>106.598</ele>
        <time>2021-04-01T07:45:10.980Z</time>
      </trkpt>
      <trkpt lat="43.1555993" lon="-2.8767072">
        <ele>106.525</ele>
        <time>2021-04-01T07:45:11.071Z</time>
      </trkpt>
      <trkpt lat="43.1555917" lon="-2.8766973">
        <ele>106.399</ele>
        <time>2021-04-01T07:45:11.163Z</time>
      </trkpt>
      <trkpt lat="43.1555599" lon="-2.8766576">
        <ele>106.035</ele>
        <time>2021-04-01T07:45:11.255Z</time>
      </trkpt>
      <trkpt lat="43.1555362" lon="-2.8766307">
        <ele>105.623</ele>
        <time>2021-04-01T07:45:11.667Z</time>
      </trkpt>
      <trkpt lat="43.1555388" lon="-2.8766338">
        <ele>105.68</ele>
        <time>2021-04-01T07:45:12.080Z</time>
      </trkpt>
      <trkpt lat="43.1555362" lon="-2.8766307">
        <ele>105.623</ele>
        <time>2021-04-01T07:45:12.492Z</time>
      </trkpt>
      <trkpt lat="43.1555388" lon="-2.8766338">
        <ele>105.68</ele>
        <time>2021-04-01T07:45:12.905Z</time>
      </trkpt>
      <trkpt lat="43.1555362" lon="-2.8766307">
        <ele>105.623</ele>
        <time>2021-04-01T07:45:13.317Z</time>
      </trkpt>
      <trkpt lat="43.1554329" lon="-2.8765265">
        <ele>103.524</ele>
        <time>2021-04-01T07:45:15.325Z</time>
      </trkpt>
      <trkpt lat="43.155453" lon="-2.8765447">
        <ele>104.041</ele>
        <time>2021-04-01T07:45:15.453Z</time>
      </trkpt>
      <trkpt lat="43.1554445" lon="-2.8765376">
        <ele>103.742</ele>
        <time>2021-04-01T07:45:15.581Z</time>
      </trkpt>
      <trkpt lat="43.1554329" lon="-2.8765265">
        <ele>103.524</ele>
        <time>2021-04-01T07:45:15.709Z</time>
      </trkpt>
      <trkpt lat="43.155453" lon="-2.8765447">
        <ele>104.041</ele>
        <time>2021-04-01T07:45:15.838Z</time>
      </trkpt>
      <trkpt lat="43.1554445" lon="-2.8765376">
        <ele>103.742</ele>
        <time>2021-04-01T07:45:15.966Z</time>
      </trkpt>
      <trkpt lat="43.1554329" lon="-2.8765265">
        <ele>103.524</ele>
        <time>2021-04-01T07:45:16.095Z</time>
      </trkpt>
      <trkpt lat="43.1553313" lon="-2.8764417">
        <ele>102.533</ele>
        <time>2021-04-01T07:45:17.635Z</time>
      </trkpt>
      <trkpt lat="43.1551664" lon="-2.8763277">
        <ele>101.693</ele>
        <time>2021-04-01T07:45:17.868Z</time>
      </trkpt>
      <trkpt lat="43.1551337" lon="-2.8763033">
        <ele>101.485</ele>
        <time>2021-04-01T07:45:18.102Z</time>
      </trkpt>
      <trkpt lat="43.1551296" lon="-2.8763">
        <ele>101.494</ele>
        <time>2021-04-01T07:45:18.336Z</time>
      </trkpt>
      <trkpt lat="43.1551337" lon="-2.8763033">
        <ele>101.485</ele>
        <time>2021-04-01T07:45:18.570Z</time>
      </trkpt>
      <trkpt lat="43.1551053" lon="-2.8762808">
        <ele>101.263</ele>
        <time>2021-04-01T07:45:18.803Z</time>
      </trkpt>
      <trkpt lat="43.1551053" lon="-2.8762808">
        <ele>101.263</ele>
        <time>2021-04-01T07:45:19.037Z</time>
      </trkpt>
      <trkpt lat="43.1551053" lon="-2.8762808">
        <ele>101.263</ele>
        <time>2021-04-01T07:45:19.271Z</time>
      </trkpt>
      <trkpt lat="43.1550284" lon="-2.8762188">
        <ele>101.1</ele>
        <time>2021-04-01T07:45:21.595Z</time>
      </trkpt>
      <trkpt lat="43.154879" lon="-2.8760827">
        <ele>101.386</ele>
        <time>2021-04-01T07:45:22.640Z</time>
      </trkpt>
      <trkpt lat="43.1548165" lon="-2.8760055">
        <ele>101.524</ele>
        <time>2021-04-01T07:45:23.135Z</time>
      </trkpt>
      <trkpt lat="43.1547914" lon="-2.8759685">
        <ele>101.972</ele>
        <time>2021-04-01T07:45:23.630Z</time>
      </trkpt>
      <trkpt lat="43.1547914" lon="-2.8759685">
        <ele>101.972</ele>
        <time>2021-04-01T07:45:24.125Z</time>
      </trkpt>
      <trkpt lat="43.1547116" lon="-2.875849">
        <ele>102.871</ele>
        <time>2021-04-01T07:45:26.270Z</time>
      </trkpt>
      <trkpt lat="43.1547093" lon="-2.8758449">
        <ele>102.88</ele>
        <time>2021-04-01T07:45:26.474Z</time>
      </trkpt>
      <trkpt lat="43.1547142" lon="-2.8758532">
        <ele>102.847</ele>
        <time>2021-04-01T07:45:26.678Z</time>
      </trkpt>
      <trkpt lat="43.1547116" lon="-2.875849">
        <ele>102.871</ele>
        <time>2021-04-01T07:45:26.882Z</time>
      </trkpt>
      <trkpt lat="43.1547093" lon="-2.8758449">
        <ele>102.88</ele>
        <time>2021-04-01T07:45:27.087Z</time>
      </trkpt>
      <trkpt lat="43.1547142" lon="-2.8758532">
        <ele>102.847</ele>
        <time>2021-04-01T07:45:27.291Z</time>
      </trkpt>
      <trkpt lat="43.1547116" lon="-2.875849">
        <ele>102.871</ele>
        <time>2021-04-01T07:45:27.495Z</time>
      </trkpt>
      <trkpt lat="43.1547093" lon="-2.8758449">
        <ele>102.88</ele>
        <time>2021-04-01T07:45:27.700Z</time>
      </trkpt>
      <trkpt lat="43.1545992" lon="-2.8756239">
        <ele>104.013</ele>
        <time>2021-04-01T07:45:27.846Z</time>
      </trkpt>
      <trkpt lat="43.1546045" lon="-2.8756362">
        <ele>103.855</ele>
        <time>2021-04-01T07:45:27.993Z</time>
      </trkpt>
      <trkpt lat="43.1545992" lon="-2.8756239">
        <ele>104.013</ele>
        <time>2021-04-01T07:45:28.140Z</time>
      </trkpt>
      <trkpt lat="43.1546045" lon="-2.8756362">
        <ele>103.855</ele>
        <time>2021-04-01T07:45:28.286Z</time>
      </trkpt>
      <trkpt lat="43.1545992" lon="-2.8756239">
        <ele>104.013</ele>
        <time>2021-04-01T07:45:28.433Z</time>
      </trkpt>
      <trkpt lat="43.154571" lon="-2.8755649">
        <ele>104.168</ele>
        <time>2021-04-01T07:45:28.580Z</time>
      </trkpt>
      <trkpt lat="43.1545469" lon="-2.875518">
        <ele>104.283</ele>
        <time>2021-04-01T07:45:28.781Z</time>
      </trkpt>
      <trkpt lat="43.1545433" lon="-2.8755107">
        <ele>104.304</ele>
        <time>2021-04-01T07:45:28.983Z</time>
      </trkpt>
      <trkpt lat="43.1545469" lon="-2.875518">
        <ele>104.283</ele>
        <time>2021-04-01T07:45:29.185Z</time>
      </trkpt>
      <trkpt lat="43.1545433" lon="-2.8755107">
        <ele>104.304</ele>
        <time>2021-04-01T07:45:29.386Z</time>
      </trkpt>
      <trkpt lat="43.1545396" lon="-2.8755038">
        <ele>104.375</ele>
        <time>2021-04-01T07:45:29.588Z</time>
      </trkpt>
      <trkpt lat="43.1545469" lon="-2.875518">
        <ele>104.283</ele>
        <time>2021-04-01T07:45:29.790Z</time>
      </trkpt>
      <trkpt lat="43.1545433" lon="-2.8755107">
        <ele>104.304</ele>
        <time>2021-04-01T07:45:29.991Z</time>
      </trkpt>
      <trkpt lat="43.1545396" lon="-2.8755038">
        <ele>104.375</ele>
        <time>2021-04-01T07:45:30.193Z</time>
      </trkpt>
      <trkpt lat="43.1545109" lon="-2.8754459">
        <ele>104.677</ele>
        <time>2021-04-01T07:45:31.660Z</time>
      </trkpt>
      <trkpt lat="43.1544744" lon="-2.8753616">
        <ele>105.147</ele>
        <time>2021-04-01T07:45:31.935Z</time>
      </trkpt>
      <trkpt lat="43.1544536" lon="-2.8753073">
        <ele>105.271</ele>
        <time>2021-04-01T07:45:32.210Z</time>
      </trkpt>
      <trkpt lat="43.1544559" lon="-2.8753146">
        <ele>105.241</ele>
        <time>2021-04-01T07:45:32.485Z</time>
      </trkpt>
      <trkpt lat="43.1544536" lon="-2.8753073">
        <ele>105.271</ele>
        <time>2021-04-01T07:45:32.760Z</time>
      </trkpt>
      <trkpt lat="43.1544559" lon="-2.8753146">
        <ele>105.241</ele>
        <time>2021-04-01T07:45:33.035Z</time>
      </trkpt>
      <trkpt lat="43.1544536" lon="-2.8753073">
        <ele>105.271</ele>
        <time>2021-04-01T07:45:33.310Z</time>
      </trkpt>
      <trkpt lat="43.1544318" lon="-2.8752379">
        <ele>105.601</ele>
        <time>2021-04-01T07:45:34.740Z</time>
      </trkpt>
      <trkpt lat="43.154411" lon="-2.8751626">
        <ele>105.537</ele>
        <time>2021-04-01T07:45:34.999Z</time>
      </trkpt>
      <trkpt lat="43.1544015" lon="-2.8751168">
        <ele>105.397</ele>
        <time>2021-04-01T07:45:35.258Z</time>
      </trkpt>
      <trkpt lat="43.1544047" lon="-2.8751352">
        <ele>105.369</ele>
        <time>2021-04-01T07:45:35.517Z</time>
      </trkpt>
      <trkpt lat="43.1544015" lon="-2.8751168">
        <ele>105.397</ele>
        <time>2021-04-01T07:45:35.777Z</time>
      </trkpt>
      <trkpt lat="43.1544047" lon="-2.8751352">
        <ele>105.369</ele>
        <time>2021-04-01T07:45:36.036Z</time>
      </trkpt>
      <trkpt lat="43.1544015" lon="-2.8751168">
        <ele>105.397</ele>
        <time>2021-04-01T07:45:36.295Z</time>
      </trkpt>
      <trkpt lat="43.1543896" lon="-2.875045">
        <ele>105.54</ele>
        <time>2021-04-01T07:45:36.555Z</time>
      </trkpt>
      <trkpt lat="43.1543837" lon="-2.8750025">
        <ele>105.358</ele>
        <time>2021-04-01T07:45:37.105Z</time>
      </trkpt>
      <trkpt lat="43.1543837" lon="-2.8750025">
        <ele>105.358</ele>
        <time>2021-04-01T07:45:37.655Z</time>
      </trkpt>
      <trkpt lat="43.1543767" lon="-2.8749388">
        <ele>104.924</ele>
        <time>2021-04-01T07:45:40.350Z</time>
      </trkpt>
      <trkpt lat="43.1543528" lon="-2.874803">
        <ele>104.81</ele>
        <time>2021-04-01T07:45:40.790Z</time>
      </trkpt>
      <trkpt lat="43.1543528" lon="-2.874803">
        <ele>104.81</ele>
        <time>2021-04-01T07:45:41.230Z</time>
      </trkpt>
      <trkpt lat="43.1543322" lon="-2.8747242">
        <ele>104.29</ele>
        <time>2021-04-01T07:45:43.815Z</time>
      </trkpt>
      <trkpt lat="43.1542968" lon="-2.8745891">
        <ele>103.865</ele>
        <time>2021-04-01T07:45:44.530Z</time>
      </trkpt>
      <trkpt lat="43.1543021" lon="-2.8746028">
        <ele>103.883</ele>
        <time>2021-04-01T07:45:44.662Z</time>
      </trkpt>
      <trkpt lat="43.154301" lon="-2.8745994">
        <ele>103.858</ele>
        <time>2021-04-01T07:45:44.794Z</time>
      </trkpt>
      <trkpt lat="43.1542993" lon="-2.874596">
        <ele>103.892</ele>
        <time>2021-04-01T07:45:44.926Z</time>
      </trkpt>
      <trkpt lat="43.1543042" lon="-2.8746102">
        <ele>103.812</ele>
        <time>2021-04-01T07:45:45.058Z</time>
      </trkpt>
      <trkpt lat="43.1543021" lon="-2.8746028">
        <ele>103.883</ele>
        <time>2021-04-01T07:45:45.190Z</time>
      </trkpt>
      <trkpt lat="43.154301" lon="-2.8745994">
        <ele>103.858</ele>
        <time>2021-04-01T07:45:45.322Z</time>
      </trkpt>
      <trkpt lat="43.1542993" lon="-2.874596">
        <ele>103.892</ele>
        <time>2021-04-01T07:45:45.454Z</time>
      </trkpt>
      <trkpt lat="43.1543021" lon="-2.8746028">
        <ele>103.883</ele>
        <time>2021-04-01T07:45:45.586Z</time>
      </trkpt>
      <trkpt lat="43.154301" lon="-2.8745994">
        <ele>103.858</ele>
        <time>2021-04-01T07:45:45.718Z</time>
      </trkpt>
      <trkpt lat="43.1542993" lon="-2.874596">
        <ele>103.892</ele>
        <time>2021-04-01T07:45:45.850Z</time>
      </trkpt>
      <trkpt lat="43.1542587" lon="-2.8744594">
        <ele>103.745</ele>
        <time>2021-04-01T07:45:46.213Z</time>
      </trkpt>
      <trkpt lat="43.1542444" lon="-2.8744233">
        <ele>103.606</ele>
        <time>2021-04-01T07:45:46.576Z</time>
      </trkpt>
      <trkpt lat="43.1542587" lon="-2.8744594">
        <ele>103.745</ele>
        <time>2021-04-01T07:45:46.939Z</time>
      </trkpt>
      <trkpt lat="43.1542444" lon="-2.8744233">
        <ele>103.606</ele>
        <time>2021-04-01T07:45:47.302Z</time>
      </trkpt>
      <trkpt lat="43.1542191" lon="-2.8743441">
        <ele>103.758</ele>
        <time>2021-04-01T07:45:47.665Z</time>
      </trkpt>
      <trkpt lat="43.1542155" lon="-2.8743327">
        <ele>103.804</ele>
        <time>2021-04-01T07:45:47.864Z</time>
      </trkpt>
      <trkpt lat="43.1542101" lon="-2.874318">
        <ele>103.816</ele>
        <time>2021-04-01T07:45:48.063Z</time>
      </trkpt>
      <trkpt lat="43.1542018" lon="-2.8742955">
        <ele>103.951</ele>
        <time>2021-04-01T07:45:48.263Z</time>
      </trkpt>
      <trkpt lat="43.1542191" lon="-2.8743441">
        <ele>103.758</ele>
        <time>2021-04-01T07:45:48.462Z</time>
      </trkpt>
      <trkpt lat="43.1542155" lon="-2.8743327">
        <ele>103.804</ele>
        <time>2021-04-01T07:45:48.661Z</time>
      </trkpt>
      <trkpt lat="43.1542101" lon="-2.874318">
        <ele>103.816</ele>
        <time>2021-04-01T07:45:48.861Z</time>
      </trkpt>
      <trkpt lat="43.1542018" lon="-2.8742955">
        <ele>103.951</ele>
        <time>2021-04-01T07:45:49.060Z</time>
      </trkpt>
      <trkpt lat="43.1541813" lon="-2.8742357">
        <ele>104.251</ele>
        <time>2021-04-01T07:45:50.305Z</time>
      </trkpt>
      <trkpt lat="43.1541601" lon="-2.8741637">
        <ele>104.494</ele>
        <time>2021-04-01T07:45:50.666Z</time>
      </trkpt>
      <trkpt lat="43.1541508" lon="-2.8741331">
        <ele>104.539</ele>
        <time>2021-04-01T07:45:51.027Z</time>
      </trkpt>
      <trkpt lat="43.1541496" lon="-2.8741291">
        <ele>104.565</ele>
        <time>2021-04-01T07:45:51.389Z</time>
      </trkpt>
      <trkpt lat="43.154152" lon="-2.8741371">
        <ele>104.534</ele>
        <time>2021-04-01T07:45:51.750Z</time>
      </trkpt>
      <trkpt lat="43.1541508" lon="-2.8741331">
        <ele>104.539</ele>
        <time>2021-04-01T07:45:52.112Z</time>
      </trkpt>
      <trkpt lat="43.1541496" lon="-2.8741291">
        <ele>104.565</ele>
        <time>2021-04-01T07:45:52.473Z</time>
      </trkpt>
      <trkpt lat="43.1541016" lon="-2.8739887">
        <ele>105.039</ele>
        <time>2021-04-01T07:45:52.835Z</time>
      </trkpt>
      <trkpt lat="43.1540965" lon="-2.8739736">
        <ele>105.032</ele>
        <time>2021-04-01T07:45:53.770Z</time>
      </trkpt>
      <trkpt lat="43.1540635" lon="-2.8738543">
        <ele>105.386</ele>
        <time>2021-04-01T07:45:55.970Z</time>
      </trkpt>
      <trkpt lat="43.1540635" lon="-2.8738543">
        <ele>105.386</ele>
        <time>2021-04-01T07:45:56.437Z</time>
      </trkpt>
      <trkpt lat="43.1540635" lon="-2.8738543">
        <ele>105.386</ele>
        <time>2021-04-01T07:45:56.905Z</time>
      </trkpt>
      <trkpt lat="43.1540211" lon="-2.8736858">
        <ele>105.562</ele>
        <time>2021-04-01T07:45:58.335Z</time>
      </trkpt>
      <trkpt lat="43.1539603" lon="-2.8733293">
        <ele>106.843</ele>
        <time>2021-04-01T07:46:01.745Z</time>
      </trkpt>
      <trkpt lat="43.1539586" lon="-2.8733087">
        <ele>106.936</ele>
        <time>2021-04-01T07:46:02.240Z</time>
      </trkpt>
      <trkpt lat="43.1539555" lon="-2.8732688">
        <ele>107.059</ele>
        <time>2021-04-01T07:46:02.735Z</time>
      </trkpt>
      <trkpt lat="43.1539555" lon="-2.8732688">
        <ele>107.059</ele>
        <time>2021-04-01T07:46:03.230Z</time>
      </trkpt>
      <trkpt lat="43.1539509" lon="-2.8731665">
        <ele>107.448</ele>
        <time>2021-04-01T07:46:05.815Z</time>
      </trkpt>
      <trkpt lat="43.1539459" lon="-2.8730192">
        <ele>108.118</ele>
        <time>2021-04-01T07:46:06.163Z</time>
      </trkpt>
      <trkpt lat="43.1539459" lon="-2.8730192">
        <ele>108.118</ele>
        <time>2021-04-01T07:46:06.511Z</time>
      </trkpt>
      <trkpt lat="43.1539411" lon="-2.8729498">
        <ele>108.353</ele>
        <time>2021-04-01T07:46:06.860Z</time>
      </trkpt>
      <trkpt lat="43.1539396" lon="-2.872932">
        <ele>108.379</ele>
        <time>2021-04-01T07:46:07.267Z</time>
      </trkpt>
      <trkpt lat="43.1539413" lon="-2.8729533">
        <ele>108.347</ele>
        <time>2021-04-01T07:46:07.674Z</time>
      </trkpt>
      <trkpt lat="43.1539411" lon="-2.8729498">
        <ele>108.353</ele>
        <time>2021-04-01T07:46:08.081Z</time>
      </trkpt>
      <trkpt lat="43.1539396" lon="-2.872932">
        <ele>108.379</ele>
        <time>2021-04-01T07:46:08.488Z</time>
      </trkpt>
      <trkpt lat="43.1539308" lon="-2.8728218">
        <ele>108.45</ele>
        <time>2021-04-01T07:46:09.665Z</time>
      </trkpt>
      <trkpt lat="43.1539053" lon="-2.8725815">
        <ele>108.805</ele>
        <time>2021-04-01T07:46:12.965Z</time>
      </trkpt>
      <trkpt lat="43.153902" lon="-2.8725384">
        <ele>108.761</ele>
        <time>2021-04-01T07:46:13.276Z</time>
      </trkpt>
      <trkpt lat="43.153902" lon="-2.8725384">
        <ele>108.761</ele>
        <time>2021-04-01T07:46:13.588Z</time>
      </trkpt>
      <trkpt lat="43.153902" lon="-2.8725384">
        <ele>108.761</ele>
        <time>2021-04-01T07:46:13.900Z</time>
      </trkpt>
      <trkpt lat="43.153902" lon="-2.8725384">
        <ele>108.761</ele>
        <time>2021-04-01T07:46:14.211Z</time>
      </trkpt>
      <trkpt lat="43.153902" lon="-2.8725384">
        <ele>108.761</ele>
        <time>2021-04-01T07:46:14.523Z</time>
      </trkpt>
      <trkpt lat="43.1538965" lon="-2.8724768">
        <ele>108.747</ele>
        <time>2021-04-01T07:46:14.835Z</time>
      </trkpt>
      <trkpt lat="43.1538962" lon="-2.8724737">
        <ele>108.752</ele>
        <time>2021-04-01T07:46:15.068Z</time>
      </trkpt>
      <trkpt lat="43.1538971" lon="-2.8724829">
        <ele>108.715</ele>
        <time>2021-04-01T07:46:15.302Z</time>
      </trkpt>
      <trkpt lat="43.1538965" lon="-2.8724768">
        <ele>108.747</ele>
        <time>2021-04-01T07:46:15.536Z</time>
      </trkpt>
      <trkpt lat="43.1538962" lon="-2.8724737">
        <ele>108.752</ele>
        <time>2021-04-01T07:46:15.770Z</time>
      </trkpt>
      <trkpt lat="43.1538971" lon="-2.8724829">
        <ele>108.715</ele>
        <time>2021-04-01T07:46:16.003Z</time>
      </trkpt>
      <trkpt lat="43.1538965" lon="-2.8724768">
        <ele>108.747</ele>
        <time>2021-04-01T07:46:16.237Z</time>
      </trkpt>
      <trkpt lat="43.1538962" lon="-2.8724737">
        <ele>108.752</ele>
        <time>2021-04-01T07:46:16.471Z</time>
      </trkpt>
      <trkpt lat="43.1538834" lon="-2.8723699">
        <ele>109.267</ele>
        <time>2021-04-01T07:46:17.090Z</time>
      </trkpt>
      <trkpt lat="43.1538804" lon="-2.8723479">
        <ele>109.405</ele>
        <time>2021-04-01T07:46:17.357Z</time>
      </trkpt>
      <trkpt lat="43.1538749" lon="-2.8723073">
        <ele>109.714</ele>
        <time>2021-04-01T07:46:17.624Z</time>
      </trkpt>
      <trkpt lat="43.1538758" lon="-2.8723168">
        <ele>109.568</ele>
        <time>2021-04-01T07:46:17.891Z</time>
      </trkpt>
      <trkpt lat="43.153874" lon="-2.8723012">
        <ele>109.77</ele>
        <time>2021-04-01T07:46:18.158Z</time>
      </trkpt>
      <trkpt lat="43.153874" lon="-2.8723012">
        <ele>109.77</ele>
        <time>2021-04-01T07:46:18.425Z</time>
      </trkpt>
      <trkpt lat="43.153874" lon="-2.8723012">
        <ele>109.77</ele>
        <time>2021-04-01T07:46:18.692Z</time>
      </trkpt>
      <trkpt lat="43.1538622" lon="-2.8722414">
        <ele>110.254</ele>
        <time>2021-04-01T07:46:21.545Z</time>
      </trkpt>
      <trkpt lat="43.1538236" lon="-2.8720924">
        <ele>110.44</ele>
        <time>2021-04-01T07:46:21.875Z</time>
      </trkpt>
      <trkpt lat="43.1538236" lon="-2.8720924">
        <ele>110.44</ele>
        <time>2021-04-01T07:46:22.205Z</time>
      </trkpt>
      <trkpt lat="43.1538236" lon="-2.8720924">
        <ele>110.44</ele>
        <time>2021-04-01T07:46:22.535Z</time>
      </trkpt>
      <trkpt lat="43.1537955" lon="-2.8720173">
        <ele>110.665</ele>
        <time>2021-04-01T07:46:24.625Z</time>
      </trkpt>
      <trkpt lat="43.1537571" lon="-2.8719164">
        <ele>110.988</ele>
        <time>2021-04-01T07:46:25.303Z</time>
      </trkpt>
      <trkpt lat="43.1537571" lon="-2.8719164">
        <ele>110.988</ele>
        <time>2021-04-01T07:46:25.981Z</time>
      </trkpt>
      <trkpt lat="43.1537078" lon="-2.8717994">
        <ele>111.052</ele>
        <time>2021-04-01T07:46:26.660Z</time>
      </trkpt>
      <trkpt lat="43.1537244" lon="-2.8718373">
        <ele>111.111</ele>
        <time>2021-04-01T07:46:26.990Z</time>
      </trkpt>
      <trkpt lat="43.1537244" lon="-2.8718373">
        <ele>111.111</ele>
        <time>2021-04-01T07:46:27.320Z</time>
      </trkpt>
      <trkpt lat="43.1536783" lon="-2.8717451">
        <ele>110.81</ele>
        <time>2021-04-01T07:46:28.475Z</time>
      </trkpt>
      <trkpt lat="43.1536531" lon="-2.8716989">
        <ele>110.649</ele>
        <time>2021-04-01T07:46:28.812Z</time>
      </trkpt>
      <trkpt lat="43.1536353" lon="-2.8716728">
        <ele>110.52</ele>
        <time>2021-04-01T07:46:29.150Z</time>
      </trkpt>
      <trkpt lat="43.1536153" lon="-2.8716437">
        <ele>110.51</ele>
        <time>2021-04-01T07:46:29.488Z</time>
      </trkpt>
      <trkpt lat="43.1536375" lon="-2.8716756">
        <ele>110.52</ele>
        <time>2021-04-01T07:46:29.826Z</time>
      </trkpt>
      <trkpt lat="43.1536353" lon="-2.8716728">
        <ele>110.52</ele>
        <time>2021-04-01T07:46:30.164Z</time>
      </trkpt>
      <trkpt lat="43.1536153" lon="-2.8716437">
        <ele>110.51</ele>
        <time>2021-04-01T07:46:30.502Z</time>
      </trkpt>
      <trkpt lat="43.1535604" lon="-2.8715807">
        <ele>110.324</ele>
        <time>2021-04-01T07:46:31.555Z</time>
      </trkpt>
      <trkpt lat="43.153526" lon="-2.8715507">
        <ele>110.227</ele>
        <time>2021-04-01T07:46:31.797Z</time>
      </trkpt>
      <trkpt lat="43.1535074" lon="-2.8715367">
        <ele>110.271</ele>
        <time>2021-04-01T07:46:32.039Z</time>
      </trkpt>
      <trkpt lat="43.1534995" lon="-2.8715313">
        <ele>110.257</ele>
        <time>2021-04-01T07:46:32.281Z</time>
      </trkpt>
      <trkpt lat="43.1535074" lon="-2.8715367">
        <ele>110.271</ele>
        <time>2021-04-01T07:46:32.523Z</time>
      </trkpt>
      <trkpt lat="43.1534647" lon="-2.8715102">
        <ele>110.374</ele>
        <time>2021-04-01T07:46:32.765Z</time>
      </trkpt>
      <trkpt lat="43.1534738" lon="-2.8715153">
        <ele>110.319</ele>
        <time>2021-04-01T07:46:33.007Z</time>
      </trkpt>
      <trkpt lat="43.1534647" lon="-2.8715102">
        <ele>110.374</ele>
        <time>2021-04-01T07:46:33.249Z</time>
      </trkpt>
      <trkpt lat="43.1534738" lon="-2.8715153">
        <ele>110.319</ele>
        <time>2021-04-01T07:46:33.491Z</time>
      </trkpt>
      <trkpt lat="43.1534647" lon="-2.8715102">
        <ele>110.374</ele>
        <time>2021-04-01T07:46:33.733Z</time>
      </trkpt>
      <trkpt lat="43.1533991" lon="-2.8714709">
        <ele>110.526</ele>
        <time>2021-04-01T07:46:34.745Z</time>
      </trkpt>
      <trkpt lat="43.1533568" lon="-2.871449">
        <ele>110.546</ele>
        <time>2021-04-01T07:46:37.110Z</time>
      </trkpt>
      <trkpt lat="43.1533077" lon="-2.8714274">
        <ele>110.373</ele>
        <time>2021-04-01T07:46:37.337Z</time>
      </trkpt>
      <trkpt lat="43.1533378" lon="-2.8714397">
        <ele>110.471</ele>
        <time>2021-04-01T07:46:37.565Z</time>
      </trkpt>
      <trkpt lat="43.1532941" lon="-2.8714221">
        <ele>110.339</ele>
        <time>2021-04-01T07:46:37.793Z</time>
      </trkpt>
      <trkpt lat="43.1533007" lon="-2.8714247">
        <ele>110.367</ele>
        <time>2021-04-01T07:46:38.021Z</time>
      </trkpt>
      <trkpt lat="43.1532941" lon="-2.8714221">
        <ele>110.339</ele>
        <time>2021-04-01T07:46:38.249Z</time>
      </trkpt>
      <trkpt lat="43.1533007" lon="-2.8714247">
        <ele>110.367</ele>
        <time>2021-04-01T07:46:38.477Z</time>
      </trkpt>
      <trkpt lat="43.1532941" lon="-2.8714221">
        <ele>110.339</ele>
        <time>2021-04-01T07:46:38.705Z</time>
      </trkpt>
      <trkpt lat="43.1531114" lon="-2.8713247">
        <ele>108.234</ele>
        <time>2021-04-01T07:46:39.013Z</time>
      </trkpt>
      <trkpt lat="43.1530974" lon="-2.8713141">
        <ele>108.381</ele>
        <time>2021-04-01T07:46:39.321Z</time>
      </trkpt>
      <trkpt lat="43.1530974" lon="-2.8713141">
        <ele>108.381</ele>
        <time>2021-04-01T07:46:39.629Z</time>
      </trkpt>
      <trkpt lat="43.1530974" lon="-2.8713141">
        <ele>108.381</ele>
        <time>2021-04-01T07:46:39.937Z</time>
      </trkpt>
      <trkpt lat="43.1530165" lon="-2.871251">
        <ele>107.593</ele>
        <time>2021-04-01T07:46:40.245Z</time>
      </trkpt>
      <trkpt lat="43.1530165" lon="-2.871251">
        <ele>107.593</ele>
        <time>2021-04-01T07:46:40.877Z</time>
      </trkpt>
      <trkpt lat="43.1529447" lon="-2.8711942">
        <ele>105.904</ele>
        <time>2021-04-01T07:46:42.775Z</time>
      </trkpt>
      <trkpt lat="43.1528767" lon="-2.871123">
        <ele>105.178</ele>
        <time>2021-04-01T07:46:43.338Z</time>
      </trkpt>
      <trkpt lat="43.1528618" lon="-2.8711062">
        <ele>105.137</ele>
        <time>2021-04-01T07:46:43.902Z</time>
      </trkpt>
      <trkpt lat="43.1528618" lon="-2.8711062">
        <ele>105.137</ele>
        <time>2021-04-01T07:46:44.466Z</time>
      </trkpt>
      <trkpt lat="43.1527559" lon="-2.8709784">
        <ele>105.183</ele>
        <time>2021-04-01T07:46:46.845Z</time>
      </trkpt>
      <trkpt lat="43.1526697" lon="-2.8708545">
        <ele>105.285</ele>
        <time>2021-04-01T07:46:47.358Z</time>
      </trkpt>
      <trkpt lat="43.1526697" lon="-2.8708545">
        <ele>105.285</ele>
        <time>2021-04-01T07:46:47.871Z</time>
      </trkpt>
      <trkpt lat="43.1526026" lon="-2.870745">
        <ele>105.819</ele>
        <time>2021-04-01T07:46:48.385Z</time>
      </trkpt>
      <trkpt lat="43.1526148" lon="-2.870764">
        <ele>105.677</ele>
        <time>2021-04-01T07:46:48.572Z</time>
      </trkpt>
      <trkpt lat="43.1526026" lon="-2.870745">
        <ele>105.819</ele>
        <time>2021-04-01T07:46:48.759Z</time>
      </trkpt>
      <trkpt lat="43.1526148" lon="-2.870764">
        <ele>105.677</ele>
        <time>2021-04-01T07:46:48.946Z</time>
      </trkpt>
      <trkpt lat="43.1526026" lon="-2.870745">
        <ele>105.819</ele>
        <time>2021-04-01T07:46:49.133Z</time>
      </trkpt>
      <trkpt lat="43.1525627" lon="-2.870683">
        <ele>105.985</ele>
        <time>2021-04-01T07:46:50.915Z</time>
      </trkpt>
      <trkpt lat="43.152497" lon="-2.8705779">
        <ele>106.873</ele>
        <time>2021-04-01T07:46:51.268Z</time>
      </trkpt>
      <trkpt lat="43.1524657" lon="-2.8705266">
        <ele>107.056</ele>
        <time>2021-04-01T07:46:51.622Z</time>
      </trkpt>
      <trkpt lat="43.1524848" lon="-2.8705569">
        <ele>106.942</ele>
        <time>2021-04-01T07:46:51.975Z</time>
      </trkpt>
      <trkpt lat="43.1524657" lon="-2.8705266">
        <ele>107.056</ele>
        <time>2021-04-01T07:46:52.329Z</time>
      </trkpt>
      <trkpt lat="43.1524848" lon="-2.8705569">
        <ele>106.942</ele>
        <time>2021-04-01T07:46:52.682Z</time>
      </trkpt>
      <trkpt lat="43.1524657" lon="-2.8705266">
        <ele>107.056</ele>
        <time>2021-04-01T07:46:53.036Z</time>
      </trkpt>
      <trkpt lat="43.1524026" lon="-2.87042">
        <ele>107.572</ele>
        <time>2021-04-01T07:46:54.325Z</time>
      </trkpt>
      <trkpt lat="43.15237" lon="-2.8703555">
        <ele>107.635</ele>
        <time>2021-04-01T07:46:54.723Z</time>
      </trkpt>
      <trkpt lat="43.1523582" lon="-2.8703274">
        <ele>107.759</ele>
        <time>2021-04-01T07:46:55.122Z</time>
      </trkpt>
      <trkpt lat="43.1523582" lon="-2.8703274">
        <ele>107.759</ele>
        <time>2021-04-01T07:46:55.521Z</time>
      </trkpt>
      <trkpt lat="43.1523303" lon="-2.8702326">
        <ele>108.327</ele>
        <time>2021-04-01T07:46:55.920Z</time>
      </trkpt>
      <trkpt lat="43.152325" lon="-2.8702107">
        <ele>108.443</ele>
        <time>2021-04-01T07:46:56.598Z</time>
      </trkpt>
      <trkpt lat="43.1523209" lon="-2.8701933">
        <ele>108.497</ele>
        <time>2021-04-01T07:46:57.276Z</time>
      </trkpt>
      <trkpt lat="43.1522948" lon="-2.8700692">
        <ele>109</ele>
        <time>2021-04-01T07:46:58.890Z</time>
      </trkpt>
      <trkpt lat="43.1522808" lon="-2.8699944">
        <ele>109.166</ele>
        <time>2021-04-01T07:46:59.275Z</time>
      </trkpt>
      <trkpt lat="43.1522745" lon="-2.869964">
        <ele>109.298</ele>
        <time>2021-04-01T07:46:59.660Z</time>
      </trkpt>
      <trkpt lat="43.1522808" lon="-2.8699944">
        <ele>109.166</ele>
        <time>2021-04-01T07:47:00.045Z</time>
      </trkpt>
      <trkpt lat="43.1522745" lon="-2.869964">
        <ele>109.298</ele>
        <time>2021-04-01T07:47:00.430Z</time>
      </trkpt>
      <trkpt lat="43.1522502" lon="-2.8698452">
        <ele>109.643</ele>
        <time>2021-04-01T07:47:01.915Z</time>
      </trkpt>
      <trkpt lat="43.1522359" lon="-2.8697632">
        <ele>109.813</ele>
        <time>2021-04-01T07:47:03.785Z</time>
      </trkpt>
      <trkpt lat="43.1522532" lon="-2.8693707">
        <ele>109.219</ele>
        <time>2021-04-01T07:47:07.140Z</time>
      </trkpt>
      <trkpt lat="43.1522553" lon="-2.8693542">
        <ele>109.245</ele>
        <time>2021-04-01T07:47:07.237Z</time>
      </trkpt>
      <trkpt lat="43.1522532" lon="-2.8693707">
        <ele>109.219</ele>
        <time>2021-04-01T07:47:07.335Z</time>
      </trkpt>
      <trkpt lat="43.1522553" lon="-2.8693542">
        <ele>109.245</ele>
        <time>2021-04-01T07:47:07.433Z</time>
      </trkpt>
      <trkpt lat="43.1522532" lon="-2.8693707">
        <ele>109.219</ele>
        <time>2021-04-01T07:47:07.531Z</time>
      </trkpt>
      <trkpt lat="43.1522553" lon="-2.8693542">
        <ele>109.245</ele>
        <time>2021-04-01T07:47:07.628Z</time>
      </trkpt>
      <trkpt lat="43.1522595" lon="-2.8693053">
        <ele>109.197</ele>
        <time>2021-04-01T07:47:07.726Z</time>
      </trkpt>
      <trkpt lat="43.1522532" lon="-2.8693707">
        <ele>109.219</ele>
        <time>2021-04-01T07:47:07.824Z</time>
      </trkpt>
      <trkpt lat="43.1522553" lon="-2.8693542">
        <ele>109.245</ele>
        <time>2021-04-01T07:47:07.922Z</time>
      </trkpt>
      <trkpt lat="43.1522595" lon="-2.8693053">
        <ele>109.197</ele>
        <time>2021-04-01T07:47:10.055Z</time>
      </trkpt>
      <trkpt lat="43.1522698" lon="-2.8691554">
        <ele>109.196</ele>
        <time>2021-04-01T07:47:10.371Z</time>
      </trkpt>
      <trkpt lat="43.1522715" lon="-2.8691269">
        <ele>109.244</ele>
        <time>2021-04-01T07:47:10.687Z</time>
      </trkpt>
      <trkpt lat="43.1522715" lon="-2.8691269">
        <ele>109.244</ele>
        <time>2021-04-01T07:47:11.003Z</time>
      </trkpt>
      <trkpt lat="43.1522751" lon="-2.8690611">
        <ele>109.32</ele>
        <time>2021-04-01T07:47:13.135Z</time>
      </trkpt>
      <trkpt lat="43.1522795" lon="-2.8689255">
        <ele>109.404</ele>
        <time>2021-04-01T07:47:15.280Z</time>
      </trkpt>
      <trkpt lat="43.152279" lon="-2.8688928">
        <ele>109.461</ele>
        <time>2021-04-01T07:47:15.405Z</time>
      </trkpt>
      <trkpt lat="43.1522791" lon="-2.8688809">
        <ele>109.449</ele>
        <time>2021-04-01T07:47:15.531Z</time>
      </trkpt>
      <trkpt lat="43.1522791" lon="-2.8688647">
        <ele>109.419</ele>
        <time>2021-04-01T07:47:15.657Z</time>
      </trkpt>
      <trkpt lat="43.1522791" lon="-2.8688809">
        <ele>109.449</ele>
        <time>2021-04-01T07:47:15.782Z</time>
      </trkpt>
      <trkpt lat="43.1522791" lon="-2.8688647">
        <ele>109.419</ele>
        <time>2021-04-01T07:47:15.908Z</time>
      </trkpt>
      <trkpt lat="43.1522791" lon="-2.8688809">
        <ele>109.449</ele>
        <time>2021-04-01T07:47:16.034Z</time>
      </trkpt>
      <trkpt lat="43.1522791" lon="-2.8688647">
        <ele>109.419</ele>
        <time>2021-04-01T07:47:16.160Z</time>
      </trkpt>
      <trkpt lat="43.152276" lon="-2.8687497">
        <ele>109.66</ele>
        <time>2021-04-01T07:47:16.266Z</time>
      </trkpt>
      <trkpt lat="43.1522769" lon="-2.8687701">
        <ele>109.629</ele>
        <time>2021-04-01T07:47:16.373Z</time>
      </trkpt>
      <trkpt lat="43.1522766" lon="-2.8687662">
        <ele>109.623</ele>
        <time>2021-04-01T07:47:16.480Z</time>
      </trkpt>
      <trkpt lat="43.152276" lon="-2.8687497">
        <ele>109.66</ele>
        <time>2021-04-01T07:47:16.587Z</time>
      </trkpt>
      <trkpt lat="43.1522769" lon="-2.8687701">
        <ele>109.629</ele>
        <time>2021-04-01T07:47:16.694Z</time>
      </trkpt>
      <trkpt lat="43.1522766" lon="-2.8687662">
        <ele>109.623</ele>
        <time>2021-04-01T07:47:16.801Z</time>
      </trkpt>
      <trkpt lat="43.152276" lon="-2.8687497">
        <ele>109.66</ele>
        <time>2021-04-01T07:47:16.908Z</time>
      </trkpt>
      <trkpt lat="43.1522718" lon="-2.8687028">
        <ele>109.57</ele>
        <time>2021-04-01T07:47:17.015Z</time>
      </trkpt>
      <trkpt lat="43.1522686" lon="-2.868671">
        <ele>109.617</ele>
        <time>2021-04-01T07:47:17.122Z</time>
      </trkpt>
      <trkpt lat="43.1522676" lon="-2.8686626">
        <ele>109.638</ele>
        <time>2021-04-01T07:47:17.229Z</time>
      </trkpt>
      <trkpt lat="43.1522686" lon="-2.868671">
        <ele>109.617</ele>
        <time>2021-04-01T07:47:17.336Z</time>
      </trkpt>
      <trkpt lat="43.1522642" lon="-2.8686366">
        <ele>109.518</ele>
        <time>2021-04-01T07:47:17.443Z</time>
      </trkpt>
      <trkpt lat="43.1522659" lon="-2.8686471">
        <ele>109.592</ele>
        <time>2021-04-01T07:47:17.550Z</time>
      </trkpt>
      <trkpt lat="43.1522642" lon="-2.8686366">
        <ele>109.518</ele>
        <time>2021-04-01T07:47:17.657Z</time>
      </trkpt>
      <trkpt lat="43.1522636" lon="-2.8686331">
        <ele>109.475</ele>
        <time>2021-04-01T07:47:17.764Z</time>
      </trkpt>
      <trkpt lat="43.1522642" lon="-2.8686366">
        <ele>109.518</ele>
        <time>2021-04-01T07:47:17.871Z</time>
      </trkpt>
      <trkpt lat="43.1522636" lon="-2.8686331">
        <ele>109.475</ele>
        <time>2021-04-01T07:47:17.978Z</time>
      </trkpt>
      <trkpt lat="43.1522525" lon="-2.8685655">
        <ele>109.621</ele>
        <time>2021-04-01T07:47:18.085Z</time>
      </trkpt>
      <trkpt lat="43.1522496" lon="-2.8685506">
        <ele>109.55</ele>
        <time>2021-04-01T07:47:18.442Z</time>
      </trkpt>
      <trkpt lat="43.1522482" lon="-2.8685425">
        <ele>109.61</ele>
        <time>2021-04-01T07:47:18.800Z</time>
      </trkpt>
      <trkpt lat="43.1522525" lon="-2.8685655">
        <ele>109.621</ele>
        <time>2021-04-01T07:47:19.157Z</time>
      </trkpt>
      <trkpt lat="43.1522496" lon="-2.8685506">
        <ele>109.55</ele>
        <time>2021-04-01T07:47:19.515Z</time>
      </trkpt>
      <trkpt lat="43.1522482" lon="-2.8685425">
        <ele>109.61</ele>
        <time>2021-04-01T07:47:19.872Z</time>
      </trkpt>
      <trkpt lat="43.1522125" lon="-2.8684168">
        <ele>109.88</ele>
        <time>2021-04-01T07:47:21.165Z</time>
      </trkpt>
      <trkpt lat="43.1521875" lon="-2.868355">
        <ele>109.913</ele>
        <time>2021-04-01T07:47:21.357Z</time>
      </trkpt>
      <trkpt lat="43.1521815" lon="-2.8683406">
        <ele>109.903</ele>
        <time>2021-04-01T07:47:21.550Z</time>
      </trkpt>
      <trkpt lat="43.1521759" lon="-2.8683301">
        <ele>110.001</ele>
        <time>2021-04-01T07:47:21.742Z</time>
      </trkpt>
      <trkpt lat="43.1521815" lon="-2.8683406">
        <ele>109.903</ele>
        <time>2021-04-01T07:47:21.935Z</time>
      </trkpt>
      <trkpt lat="43.1521759" lon="-2.8683301">
        <ele>110.001</ele>
        <time>2021-04-01T07:47:22.127Z</time>
      </trkpt>
      <trkpt lat="43.1521504" lon="-2.8682823">
        <ele>110.199</ele>
        <time>2021-04-01T07:47:22.320Z</time>
      </trkpt>
      <trkpt lat="43.1521305" lon="-2.8682509">
        <ele>110.237</ele>
        <time>2021-04-01T07:47:22.533Z</time>
      </trkpt>
      <trkpt lat="43.1521199" lon="-2.8682363">
        <ele>110.281</ele>
        <time>2021-04-01T07:47:22.747Z</time>
      </trkpt>
      <trkpt lat="43.1521305" lon="-2.8682509">
        <ele>110.237</ele>
        <time>2021-04-01T07:47:22.961Z</time>
      </trkpt>
      <trkpt lat="43.1521199" lon="-2.8682363">
        <ele>110.281</ele>
        <time>2021-04-01T07:47:23.175Z</time>
      </trkpt>
      <trkpt lat="43.1521092" lon="-2.868221">
        <ele>110.282</ele>
        <time>2021-04-01T07:47:23.389Z</time>
      </trkpt>
      <trkpt lat="43.1521305" lon="-2.8682509">
        <ele>110.237</ele>
        <time>2021-04-01T07:47:23.603Z</time>
      </trkpt>
      <trkpt lat="43.1521199" lon="-2.8682363">
        <ele>110.281</ele>
        <time>2021-04-01T07:47:23.817Z</time>
      </trkpt>
      <trkpt lat="43.1521092" lon="-2.868221">
        <ele>110.282</ele>
        <time>2021-04-01T07:47:24.031Z</time>
      </trkpt>
      <trkpt lat="43.1520764" lon="-2.8681749">
        <ele>110.424</ele>
        <time>2021-04-01T07:47:26.060Z</time>
      </trkpt>
      <trkpt lat="43.1519956" lon="-2.8680823">
        <ele>110.752</ele>
        <time>2021-04-01T07:47:26.274Z</time>
      </trkpt>
      <trkpt lat="43.1519776" lon="-2.8680637">
        <ele>110.844</ele>
        <time>2021-04-01T07:47:26.489Z</time>
      </trkpt>
      <trkpt lat="43.1519725" lon="-2.8680586">
        <ele>110.82</ele>
        <time>2021-04-01T07:47:26.703Z</time>
      </trkpt>
      <trkpt lat="43.1519803" lon="-2.8680664">
        <ele>110.812</ele>
        <time>2021-04-01T07:47:26.918Z</time>
      </trkpt>
      <trkpt lat="43.1519776" lon="-2.8680637">
        <ele>110.844</ele>
        <time>2021-04-01T07:47:27.132Z</time>
      </trkpt>
      <trkpt lat="43.1519725" lon="-2.8680586">
        <ele>110.82</ele>
        <time>2021-04-01T07:47:27.347Z</time>
      </trkpt>
      <trkpt lat="43.1519803" lon="-2.8680664">
        <ele>110.812</ele>
        <time>2021-04-01T07:47:27.561Z</time>
      </trkpt>
      <trkpt lat="43.1519776" lon="-2.8680637">
        <ele>110.844</ele>
        <time>2021-04-01T07:47:27.776Z</time>
      </trkpt>
      <trkpt lat="43.1519725" lon="-2.8680586">
        <ele>110.82</ele>
        <time>2021-04-01T07:47:27.990Z</time>
      </trkpt>
      <trkpt lat="43.1518924" lon="-2.8679889">
        <ele>110.827</ele>
        <time>2021-04-01T07:47:29.085Z</time>
      </trkpt>
      <trkpt lat="43.1518493" lon="-2.867954">
        <ele>111.15</ele>
        <time>2021-04-01T07:47:30.350Z</time>
      </trkpt>
      <trkpt lat="43.1516698" lon="-2.8678553">
        <ele>110.942</ele>
        <time>2021-04-01T07:47:34.475Z</time>
      </trkpt>
      <trkpt lat="43.1515661" lon="-2.867776">
        <ele>110.925</ele>
        <time>2021-04-01T07:47:35.080Z</time>
      </trkpt>
      <trkpt lat="43.1515635" lon="-2.8677733">
        <ele>110.931</ele>
        <time>2021-04-01T07:47:35.219Z</time>
      </trkpt>
      <trkpt lat="43.1515608" lon="-2.8677708">
        <ele>110.964</ele>
        <time>2021-04-01T07:47:35.358Z</time>
      </trkpt>
      <trkpt lat="43.1515687" lon="-2.8677786">
        <ele>110.921</ele>
        <time>2021-04-01T07:47:35.497Z</time>
      </trkpt>
      <trkpt lat="43.1515661" lon="-2.867776">
        <ele>110.925</ele>
        <time>2021-04-01T07:47:35.636Z</time>
      </trkpt>
      <trkpt lat="43.1515635" lon="-2.8677733">
        <ele>110.931</ele>
        <time>2021-04-01T07:47:35.775Z</time>
      </trkpt>
      <trkpt lat="43.1515608" lon="-2.8677708">
        <ele>110.964</ele>
        <time>2021-04-01T07:47:35.914Z</time>
      </trkpt>
      <trkpt lat="43.1515687" lon="-2.8677786">
        <ele>110.921</ele>
        <time>2021-04-01T07:47:36.053Z</time>
      </trkpt>
      <trkpt lat="43.1515661" lon="-2.867776">
        <ele>110.925</ele>
        <time>2021-04-01T07:47:36.192Z</time>
      </trkpt>
      <trkpt lat="43.1515635" lon="-2.8677733">
        <ele>110.931</ele>
        <time>2021-04-01T07:47:36.332Z</time>
      </trkpt>
      <trkpt lat="43.1515608" lon="-2.8677708">
        <ele>110.964</ele>
        <time>2021-04-01T07:47:36.471Z</time>
      </trkpt>
      <trkpt lat="43.1515372" lon="-2.8677486">
        <ele>111.08</ele>
        <time>2021-04-01T07:47:36.610Z</time>
      </trkpt>
      <trkpt lat="43.1515297" lon="-2.8677412">
        <ele>111.101</ele>
        <time>2021-04-01T07:47:36.749Z</time>
      </trkpt>
      <trkpt lat="43.151527" lon="-2.8677385">
        <ele>111.122</ele>
        <time>2021-04-01T07:47:36.888Z</time>
      </trkpt>
      <trkpt lat="43.1515169" lon="-2.8677285">
        <ele>111.128</ele>
        <time>2021-04-01T07:47:37.027Z</time>
      </trkpt>
      <trkpt lat="43.151527" lon="-2.8677385">
        <ele>111.122</ele>
        <time>2021-04-01T07:47:37.166Z</time>
      </trkpt>
      <trkpt lat="43.1515169" lon="-2.8677285">
        <ele>111.128</ele>
        <time>2021-04-01T07:47:37.305Z</time>
      </trkpt>
      <trkpt lat="43.1514282" lon="-2.8676423">
        <ele>111.226</ele>
        <time>2021-04-01T07:47:37.445Z</time>
      </trkpt>
      <trkpt lat="43.1514182" lon="-2.8676322">
        <ele>111.227</ele>
        <time>2021-04-01T07:47:37.610Z</time>
      </trkpt>
      <trkpt lat="43.1514282" lon="-2.8676423">
        <ele>111.226</ele>
        <time>2021-04-01T07:47:37.775Z</time>
      </trkpt>
      <trkpt lat="43.1514182" lon="-2.8676322">
        <ele>111.227</ele>
        <time>2021-04-01T07:47:37.940Z</time>
      </trkpt>
      <trkpt lat="43.1514282" lon="-2.8676423">
        <ele>111.226</ele>
        <time>2021-04-01T07:47:38.105Z</time>
      </trkpt>
      <trkpt lat="43.1514182" lon="-2.8676322">
        <ele>111.227</ele>
        <time>2021-04-01T07:47:38.270Z</time>
      </trkpt>
      <trkpt lat="43.1513836" lon="-2.8675953">
        <ele>111.288</ele>
        <time>2021-04-01T07:47:40.360Z</time>
      </trkpt>
      <trkpt lat="43.1512971" lon="-2.8675025">
        <ele>111.207</ele>
        <time>2021-04-01T07:47:40.564Z</time>
      </trkpt>
      <trkpt lat="43.151292" lon="-2.8674973">
        <ele>111.175</ele>
        <time>2021-04-01T07:47:40.768Z</time>
      </trkpt>
      <trkpt lat="43.1512971" lon="-2.8675025">
        <ele>111.207</ele>
        <time>2021-04-01T07:47:40.972Z</time>
      </trkpt>
      <trkpt lat="43.151292" lon="-2.8674973">
        <ele>111.175</ele>
        <time>2021-04-01T07:47:41.177Z</time>
      </trkpt>
      <trkpt lat="43.1512971" lon="-2.8675025">
        <ele>111.207</ele>
        <time>2021-04-01T07:47:41.381Z</time>
      </trkpt>
      <trkpt lat="43.151292" lon="-2.8674973">
        <ele>111.175</ele>
        <time>2021-04-01T07:47:41.585Z</time>
      </trkpt>
      <trkpt lat="43.1512346" lon="-2.8674322">
        <ele>111.214</ele>
        <time>2021-04-01T07:47:43.385Z</time>
      </trkpt>
      <trkpt lat="43.1511643" lon="-2.867357">
        <ele>111.136</ele>
        <time>2021-04-01T07:47:44.595Z</time>
      </trkpt>
      <trkpt lat="43.1511143" lon="-2.8672985">
        <ele>111.1</ele>
        <time>2021-04-01T07:47:45.438Z</time>
      </trkpt>
      <trkpt lat="43.1510779" lon="-2.8672536">
        <ele>111.153</ele>
        <time>2021-04-01T07:47:46.281Z</time>
      </trkpt>
      <trkpt lat="43.1510161" lon="-2.8671612">
        <ele>111.348</ele>
        <time>2021-04-01T07:47:48.390Z</time>
      </trkpt>
      <trkpt lat="43.1509758" lon="-2.8670835">
        <ele>111.461</ele>
        <time>2021-04-01T07:47:48.657Z</time>
      </trkpt>
      <trkpt lat="43.1509743" lon="-2.8670802">
        <ele>111.441</ele>
        <time>2021-04-01T07:47:48.924Z</time>
      </trkpt>
      <trkpt lat="43.1509758" lon="-2.8670835">
        <ele>111.461</ele>
        <time>2021-04-01T07:47:49.191Z</time>
      </trkpt>
      <trkpt lat="43.1509743" lon="-2.8670802">
        <ele>111.441</ele>
        <time>2021-04-01T07:47:49.458Z</time>
      </trkpt>
      <trkpt lat="43.1509758" lon="-2.8670835">
        <ele>111.461</ele>
        <time>2021-04-01T07:47:49.725Z</time>
      </trkpt>
      <trkpt lat="43.1509743" lon="-2.8670802">
        <ele>111.441</ele>
        <time>2021-04-01T07:47:49.992Z</time>
      </trkpt>
      <trkpt lat="43.1509265" lon="-2.8669615">
        <ele>111.624</ele>
        <time>2021-04-01T07:47:50.260Z</time>
      </trkpt>
      <trkpt lat="43.1509388" lon="-2.8669991">
        <ele>111.556</ele>
        <time>2021-04-01T07:47:50.491Z</time>
      </trkpt>
      <trkpt lat="43.1509265" lon="-2.8669615">
        <ele>111.624</ele>
        <time>2021-04-01T07:47:50.722Z</time>
      </trkpt>
      <trkpt lat="43.1509388" lon="-2.8669991">
        <ele>111.556</ele>
        <time>2021-04-01T07:47:50.953Z</time>
      </trkpt>
      <trkpt lat="43.1509265" lon="-2.8669615">
        <ele>111.624</ele>
        <time>2021-04-01T07:47:51.184Z</time>
      </trkpt>
      <trkpt lat="43.1509003" lon="-2.8668827">
        <ele>111.899</ele>
        <time>2021-04-01T07:47:52.515Z</time>
      </trkpt>
      <trkpt lat="43.1508809" lon="-2.8668037">
        <ele>112.222</ele>
        <time>2021-04-01T07:47:52.742Z</time>
      </trkpt>
      <trkpt lat="43.1508659" lon="-2.866736">
        <ele>112.489</ele>
        <time>2021-04-01T07:47:52.970Z</time>
      </trkpt>
      <trkpt lat="43.1508666" lon="-2.8667403">
        <ele>112.442</ele>
        <time>2021-04-01T07:47:53.198Z</time>
      </trkpt>
      <trkpt lat="43.1508659" lon="-2.866736">
        <ele>112.489</ele>
        <time>2021-04-01T07:47:53.426Z</time>
      </trkpt>
      <trkpt lat="43.1508666" lon="-2.8667403">
        <ele>112.442</ele>
        <time>2021-04-01T07:47:53.654Z</time>
      </trkpt>
      <trkpt lat="43.1508659" lon="-2.866736">
        <ele>112.489</ele>
        <time>2021-04-01T07:47:53.882Z</time>
      </trkpt>
      <trkpt lat="43.1508568" lon="-2.8666886">
        <ele>112.581</ele>
        <time>2021-04-01T07:47:54.110Z</time>
      </trkpt>
      <trkpt lat="43.1508524" lon="-2.8666561">
        <ele>112.777</ele>
        <time>2021-04-01T07:47:55.045Z</time>
      </trkpt>
      <trkpt lat="43.1508524" lon="-2.8666561">
        <ele>112.777</ele>
        <time>2021-04-01T07:47:55.980Z</time>
      </trkpt>
      <trkpt lat="43.1508437" lon="-2.8664823">
        <ele>112.903</ele>
        <time>2021-04-01T07:47:58.070Z</time>
      </trkpt>
      <trkpt lat="43.1508437" lon="-2.8665064">
        <ele>112.918</ele>
        <time>2021-04-01T07:47:58.156Z</time>
      </trkpt>
      <trkpt lat="43.1508439" lon="-2.8665183">
        <ele>112.922</ele>
        <time>2021-04-01T07:47:58.242Z</time>
      </trkpt>
      <trkpt lat="43.1508438" lon="-2.8665142">
        <ele>112.956</ele>
        <time>2021-04-01T07:47:58.329Z</time>
      </trkpt>
      <trkpt lat="43.1508437" lon="-2.8665104">
        <ele>112.942</ele>
        <time>2021-04-01T07:47:58.415Z</time>
      </trkpt>
      <trkpt lat="43.1508437" lon="-2.8665064">
        <ele>112.918</ele>
        <time>2021-04-01T07:47:58.502Z</time>
      </trkpt>
      <trkpt lat="43.1508439" lon="-2.8665183">
        <ele>112.922</ele>
        <time>2021-04-01T07:47:58.588Z</time>
      </trkpt>
      <trkpt lat="43.1508438" lon="-2.8665142">
        <ele>112.956</ele>
        <time>2021-04-01T07:47:58.674Z</time>
      </trkpt>
      <trkpt lat="43.1508437" lon="-2.8665104">
        <ele>112.942</ele>
        <time>2021-04-01T07:47:58.761Z</time>
      </trkpt>
      <trkpt lat="43.1508437" lon="-2.8665064">
        <ele>112.918</ele>
        <time>2021-04-01T07:47:58.847Z</time>
      </trkpt>
      <trkpt lat="43.1508459" lon="-2.8663983">
        <ele>112.929</ele>
        <time>2021-04-01T07:47:58.934Z</time>
      </trkpt>
      <trkpt lat="43.150846" lon="-2.8663902">
        <ele>112.914</ele>
        <time>2021-04-01T07:47:59.020Z</time>
      </trkpt>
      <trkpt lat="43.1508459" lon="-2.8663983">
        <ele>112.929</ele>
        <time>2021-04-01T07:47:59.107Z</time>
      </trkpt>
      <trkpt lat="43.150846" lon="-2.8663902">
        <ele>112.914</ele>
        <time>2021-04-01T07:47:59.193Z</time>
      </trkpt>
      <trkpt lat="43.150851" lon="-2.8663096">
        <ele>112.823</ele>
        <time>2021-04-01T07:47:59.280Z</time>
      </trkpt>
      <trkpt lat="43.150852" lon="-2.8662974">
        <ele>112.735</ele>
        <time>2021-04-01T07:47:59.472Z</time>
      </trkpt>
      <trkpt lat="43.1508534" lon="-2.8662893">
        <ele>112.694</ele>
        <time>2021-04-01T07:47:59.665Z</time>
      </trkpt>
      <trkpt lat="43.150851" lon="-2.8663096">
        <ele>112.823</ele>
        <time>2021-04-01T07:47:59.857Z</time>
      </trkpt>
      <trkpt lat="43.150852" lon="-2.8662974">
        <ele>112.735</ele>
        <time>2021-04-01T07:48:00.050Z</time>
      </trkpt>
      <trkpt lat="43.1508534" lon="-2.8662893">
        <ele>112.694</ele>
        <time>2021-04-01T07:48:00.242Z</time>
      </trkpt>
      <trkpt lat="43.1508566" lon="-2.8662248">
        <ele>112.718</ele>
        <time>2021-04-01T07:48:02.140Z</time>
      </trkpt>
      <trkpt lat="43.1508702" lon="-2.8660797">
        <ele>112.874</ele>
        <time>2021-04-01T07:48:02.451Z</time>
      </trkpt>
      <trkpt lat="43.1508716" lon="-2.8660644">
        <ele>112.901</ele>
        <time>2021-04-01T07:48:02.763Z</time>
      </trkpt>
      <trkpt lat="43.1508677" lon="-2.8661028">
        <ele>112.83</ele>
        <time>2021-04-01T07:48:03.075Z</time>
      </trkpt>
      <trkpt lat="43.1508702" lon="-2.8660797">
        <ele>112.874</ele>
        <time>2021-04-01T07:48:03.386Z</time>
      </trkpt>
      <trkpt lat="43.1508716" lon="-2.8660644">
        <ele>112.901</ele>
        <time>2021-04-01T07:48:03.698Z</time>
      </trkpt>
      <trkpt lat="43.1508812" lon="-2.8659754">
        <ele>112.661</ele>
        <time>2021-04-01T07:48:05.550Z</time>
      </trkpt>
      <trkpt lat="43.1508816" lon="-2.865968">
        <ele>112.567</ele>
        <time>2021-04-01T07:48:05.811Z</time>
      </trkpt>
      <trkpt lat="43.1508836" lon="-2.8659529">
        <ele>112.621</ele>
        <time>2021-04-01T07:48:06.072Z</time>
      </trkpt>
      <trkpt lat="43.1508816" lon="-2.865968">
        <ele>112.567</ele>
        <time>2021-04-01T07:48:06.333Z</time>
      </trkpt>
      <trkpt lat="43.1508836" lon="-2.8659529">
        <ele>112.621</ele>
        <time>2021-04-01T07:48:06.595Z</time>
      </trkpt>
      <trkpt lat="43.1508912" lon="-2.8658716">
        <ele>112.385</ele>
        <time>2021-04-01T07:48:06.851Z</time>
      </trkpt>
      <trkpt lat="43.1508948" lon="-2.8658371">
        <ele>112.501</ele>
        <time>2021-04-01T07:48:07.108Z</time>
      </trkpt>
      <trkpt lat="43.1508924" lon="-2.8658604">
        <ele>112.355</ele>
        <time>2021-04-01T07:48:07.365Z</time>
      </trkpt>
      <trkpt lat="43.1508948" lon="-2.8658371">
        <ele>112.501</ele>
        <time>2021-04-01T07:48:07.621Z</time>
      </trkpt>
      <trkpt lat="43.1508924" lon="-2.8658604">
        <ele>112.355</ele>
        <time>2021-04-01T07:48:07.878Z</time>
      </trkpt>
      <trkpt lat="43.1508948" lon="-2.8658371">
        <ele>112.501</ele>
        <time>2021-04-01T07:48:08.135Z</time>
      </trkpt>
      <trkpt lat="43.1509195" lon="-2.8654589">
        <ele>112.236</ele>
        <time>2021-04-01T07:48:12.535Z</time>
      </trkpt>
      <trkpt lat="43.1509192" lon="-2.8653942">
        <ele>112.147</ele>
        <time>2021-04-01T07:48:12.638Z</time>
      </trkpt>
      <trkpt lat="43.1509195" lon="-2.8654589">
        <ele>112.236</ele>
        <time>2021-04-01T07:48:12.741Z</time>
      </trkpt>
      <trkpt lat="43.1509197" lon="-2.8654553">
        <ele>112.25</ele>
        <time>2021-04-01T07:48:12.844Z</time>
      </trkpt>
      <trkpt lat="43.1509199" lon="-2.8654338">
        <ele>112.201</ele>
        <time>2021-04-01T07:48:12.947Z</time>
      </trkpt>
      <trkpt lat="43.1509195" lon="-2.8654589">
        <ele>112.236</ele>
        <time>2021-04-01T07:48:13.050Z</time>
      </trkpt>
      <trkpt lat="43.1509197" lon="-2.8654553">
        <ele>112.25</ele>
        <time>2021-04-01T07:48:13.153Z</time>
      </trkpt>
      <trkpt lat="43.1509199" lon="-2.8654338">
        <ele>112.201</ele>
        <time>2021-04-01T07:48:13.256Z</time>
      </trkpt>
      <trkpt lat="43.1509176" lon="-2.8653408">
        <ele>112.117</ele>
        <time>2021-04-01T07:48:14.570Z</time>
      </trkpt>
      <trkpt lat="43.1509155" lon="-2.8653085">
        <ele>112.119</ele>
        <time>2021-04-01T07:48:14.821Z</time>
      </trkpt>
      <trkpt lat="43.1509169" lon="-2.8653303">
        <ele>112.077</ele>
        <time>2021-04-01T07:48:15.072Z</time>
      </trkpt>
      <trkpt lat="43.1509164" lon="-2.8653231">
        <ele>112.077</ele>
        <time>2021-04-01T07:48:15.324Z</time>
      </trkpt>
      <trkpt lat="43.1509155" lon="-2.8653085">
        <ele>112.119</ele>
        <time>2021-04-01T07:48:15.575Z</time>
      </trkpt>
      <trkpt lat="43.1509169" lon="-2.8653303">
        <ele>112.077</ele>
        <time>2021-04-01T07:48:15.827Z</time>
      </trkpt>
      <trkpt lat="43.1509164" lon="-2.8653231">
        <ele>112.077</ele>
        <time>2021-04-01T07:48:16.078Z</time>
      </trkpt>
      <trkpt lat="43.1509155" lon="-2.8653085">
        <ele>112.119</ele>
        <time>2021-04-01T07:48:16.330Z</time>
      </trkpt>
      <trkpt lat="43.150887" lon="-2.8651458">
        <ele>112.244</ele>
        <time>2021-04-01T07:48:18.310Z</time>
      </trkpt>
      <trkpt lat="43.150841" lon="-2.8650242">
        <ele>112.408</ele>
        <time>2021-04-01T07:48:18.392Z</time>
      </trkpt>
      <trkpt lat="43.1508322" lon="-2.8650047">
        <ele>112.44</ele>
        <time>2021-04-01T07:48:18.475Z</time>
      </trkpt>
      <trkpt lat="43.1508306" lon="-2.8650015">
        <ele>112.443</ele>
        <time>2021-04-01T07:48:18.557Z</time>
      </trkpt>
      <trkpt lat="43.1508337" lon="-2.8650078">
        <ele>112.445</ele>
        <time>2021-04-01T07:48:18.640Z</time>
      </trkpt>
      <trkpt lat="43.1508322" lon="-2.8650047">
        <ele>112.44</ele>
        <time>2021-04-01T07:48:18.722Z</time>
      </trkpt>
      <trkpt lat="43.1508306" lon="-2.8650015">
        <ele>112.443</ele>
        <time>2021-04-01T07:48:18.805Z</time>
      </trkpt>
      <trkpt lat="43.1508337" lon="-2.8650078">
        <ele>112.445</ele>
        <time>2021-04-01T07:48:18.887Z</time>
      </trkpt>
      <trkpt lat="43.1508322" lon="-2.8650047">
        <ele>112.44</ele>
        <time>2021-04-01T07:48:18.970Z</time>
      </trkpt>
      <trkpt lat="43.1508306" lon="-2.8650015">
        <ele>112.443</ele>
        <time>2021-04-01T07:48:19.052Z</time>
      </trkpt>
      <trkpt lat="43.1508188" lon="-2.8649754">
        <ele>112.481</ele>
        <time>2021-04-01T07:48:19.135Z</time>
      </trkpt>
      <trkpt lat="43.1507513" lon="-2.8648326">
        <ele>112.748</ele>
        <time>2021-04-01T07:48:21.555Z</time>
      </trkpt>
      <trkpt lat="43.1507496" lon="-2.8648293">
        <ele>112.768</ele>
        <time>2021-04-01T07:48:21.967Z</time>
      </trkpt>
      <trkpt lat="43.1507513" lon="-2.8648326">
        <ele>112.748</ele>
        <time>2021-04-01T07:48:22.380Z</time>
      </trkpt>
      <trkpt lat="43.1507496" lon="-2.8648293">
        <ele>112.768</ele>
        <time>2021-04-01T07:48:22.792Z</time>
      </trkpt>
      <trkpt lat="43.1507056" lon="-2.8647337">
        <ele>112.886</ele>
        <time>2021-04-01T07:48:23.205Z</time>
      </trkpt>
      <trkpt lat="43.1507041" lon="-2.8647305">
        <ele>112.883</ele>
        <time>2021-04-01T07:48:23.580Z</time>
      </trkpt>
      <trkpt lat="43.1507056" lon="-2.8647337">
        <ele>112.886</ele>
        <time>2021-04-01T07:48:23.956Z</time>
      </trkpt>
      <trkpt lat="43.1507041" lon="-2.8647305">
        <ele>112.883</ele>
        <time>2021-04-01T07:48:24.332Z</time>
      </trkpt>
      <trkpt lat="43.1506792" lon="-2.8646767">
        <ele>112.954</ele>
        <time>2021-04-01T07:48:24.708Z</time>
      </trkpt>
      <trkpt lat="43.1506792" lon="-2.8646767">
        <ele>112.954</ele>
        <time>2021-04-01T07:48:25.084Z</time>
      </trkpt>
      <trkpt lat="43.1505787" lon="-2.8644559">
        <ele>113.708</ele>
        <time>2021-04-01T07:48:28.650Z</time>
      </trkpt>
      <trkpt lat="43.1505516" lon="-2.8643981">
        <ele>113.996</ele>
        <time>2021-04-01T07:48:28.940Z</time>
      </trkpt>
      <trkpt lat="43.150538" lon="-2.8643709">
        <ele>114.057</ele>
        <time>2021-04-01T07:48:29.231Z</time>
      </trkpt>
      <trkpt lat="43.1505227" lon="-2.8643403">
        <ele>114.169</ele>
        <time>2021-04-01T07:48:29.522Z</time>
      </trkpt>
      <trkpt lat="43.1505516" lon="-2.8643981">
        <ele>113.996</ele>
        <time>2021-04-01T07:48:29.812Z</time>
      </trkpt>
      <trkpt lat="43.150538" lon="-2.8643709">
        <ele>114.057</ele>
        <time>2021-04-01T07:48:30.103Z</time>
      </trkpt>
      <trkpt lat="43.1505227" lon="-2.8643403">
        <ele>114.169</ele>
        <time>2021-04-01T07:48:30.394Z</time>
      </trkpt>
      <trkpt lat="43.1504904" lon="-2.8642695">
        <ele>114.443</ele>
        <time>2021-04-01T07:48:31.620Z</time>
      </trkpt>
      <trkpt lat="43.1504618" lon="-2.864208">
        <ele>114.547</ele>
        <time>2021-04-01T07:48:31.846Z</time>
      </trkpt>
      <trkpt lat="43.1504289" lon="-2.8641447">
        <ele>114.481</ele>
        <time>2021-04-01T07:48:32.073Z</time>
      </trkpt>
      <trkpt lat="43.1504269" lon="-2.8641411">
        <ele>114.496</ele>
        <time>2021-04-01T07:48:32.300Z</time>
      </trkpt>
      <trkpt lat="43.1504251" lon="-2.8641374">
        <ele>114.504</ele>
        <time>2021-04-01T07:48:32.527Z</time>
      </trkpt>
      <trkpt lat="43.1504289" lon="-2.8641447">
        <ele>114.481</ele>
        <time>2021-04-01T07:48:32.754Z</time>
      </trkpt>
      <trkpt lat="43.1504269" lon="-2.8641411">
        <ele>114.496</ele>
        <time>2021-04-01T07:48:32.981Z</time>
      </trkpt>
      <trkpt lat="43.1504251" lon="-2.8641374">
        <ele>114.504</ele>
        <time>2021-04-01T07:48:33.208Z</time>
      </trkpt>
      <trkpt lat="43.1504003" lon="-2.8640911">
        <ele>114.54</ele>
        <time>2021-04-01T07:48:33.435Z</time>
      </trkpt>
      <trkpt lat="43.1503886" lon="-2.8640697">
        <ele>114.611</ele>
        <time>2021-04-01T07:48:33.671Z</time>
      </trkpt>
      <trkpt lat="43.1503924" lon="-2.8640768">
        <ele>114.573</ele>
        <time>2021-04-01T07:48:33.908Z</time>
      </trkpt>
      <trkpt lat="43.1503775" lon="-2.8640483">
        <ele>114.658</ele>
        <time>2021-04-01T07:48:34.144Z</time>
      </trkpt>
      <trkpt lat="43.1503868" lon="-2.8640663">
        <ele>114.605</ele>
        <time>2021-04-01T07:48:34.381Z</time>
      </trkpt>
      <trkpt lat="43.1503795" lon="-2.8640518">
        <ele>114.652</ele>
        <time>2021-04-01T07:48:34.617Z</time>
      </trkpt>
      <trkpt lat="43.1503775" lon="-2.8640483">
        <ele>114.658</ele>
        <time>2021-04-01T07:48:34.854Z</time>
      </trkpt>
      <trkpt lat="43.1503868" lon="-2.8640663">
        <ele>114.605</ele>
        <time>2021-04-01T07:48:35.090Z</time>
      </trkpt>
      <trkpt lat="43.1503795" lon="-2.8640518">
        <ele>114.652</ele>
        <time>2021-04-01T07:48:35.327Z</time>
      </trkpt>
      <trkpt lat="43.1503775" lon="-2.8640483">
        <ele>114.658</ele>
        <time>2021-04-01T07:48:35.563Z</time>
      </trkpt>
      <trkpt lat="43.1503172" lon="-2.8639427">
        <ele>114.701</ele>
        <time>2021-04-01T07:48:36.790Z</time>
      </trkpt>
      <trkpt lat="43.1502818" lon="-2.8638827">
        <ele>114.701</ele>
        <time>2021-04-01T07:48:37.230Z</time>
      </trkpt>
      <trkpt lat="43.1502818" lon="-2.8638827">
        <ele>114.701</ele>
        <time>2021-04-01T07:48:37.670Z</time>
      </trkpt>
      <trkpt lat="43.1502336" lon="-2.8638027">
        <ele>115.069</ele>
        <time>2021-04-01T07:48:40.475Z</time>
      </trkpt>
      <trkpt lat="43.1501468" lon="-2.8636608">
        <ele>115.311</ele>
        <time>2021-04-01T07:48:40.607Z</time>
      </trkpt>
      <trkpt lat="43.1501402" lon="-2.8636512">
        <ele>115.308</ele>
        <time>2021-04-01T07:48:40.739Z</time>
      </trkpt>
      <trkpt lat="43.1501381" lon="-2.8636479">
        <ele>115.302</ele>
        <time>2021-04-01T07:48:40.871Z</time>
      </trkpt>
      <trkpt lat="43.1501468" lon="-2.8636608">
        <ele>115.311</ele>
        <time>2021-04-01T07:48:41.003Z</time>
      </trkpt>
      <trkpt lat="43.1501402" lon="-2.8636512">
        <ele>115.308</ele>
        <time>2021-04-01T07:48:41.135Z</time>
      </trkpt>
      <trkpt lat="43.1501381" lon="-2.8636479">
        <ele>115.302</ele>
        <time>2021-04-01T07:48:41.267Z</time>
      </trkpt>
      <trkpt lat="43.1501468" lon="-2.8636608">
        <ele>115.311</ele>
        <time>2021-04-01T07:48:41.399Z</time>
      </trkpt>
      <trkpt lat="43.1501402" lon="-2.8636512">
        <ele>115.308</ele>
        <time>2021-04-01T07:48:41.531Z</time>
      </trkpt>
      <trkpt lat="43.1501381" lon="-2.8636479">
        <ele>115.302</ele>
        <time>2021-04-01T07:48:41.663Z</time>
      </trkpt>
      <trkpt lat="43.1500958" lon="-2.8635833">
        <ele>115.197</ele>
        <time>2021-04-01T07:48:42.895Z</time>
      </trkpt>
      <trkpt lat="43.1500527" lon="-2.8635197">
        <ele>115.22</ele>
        <time>2021-04-01T07:48:43.215Z</time>
      </trkpt>
      <trkpt lat="43.1500157" lon="-2.8634674">
        <ele>115.124</ele>
        <time>2021-04-01T07:48:43.536Z</time>
      </trkpt>
      <trkpt lat="43.1500136" lon="-2.8634644">
        <ele>115.127</ele>
        <time>2021-04-01T07:48:43.857Z</time>
      </trkpt>
      <trkpt lat="43.1500157" lon="-2.8634674">
        <ele>115.124</ele>
        <time>2021-04-01T07:48:44.178Z</time>
      </trkpt>
      <trkpt lat="43.1500136" lon="-2.8634644">
        <ele>115.127</ele>
        <time>2021-04-01T07:48:44.499Z</time>
      </trkpt>
      <trkpt lat="43.149977" lon="-2.8634129">
        <ele>115.213</ele>
        <time>2021-04-01T07:48:46.140Z</time>
      </trkpt>
      <trkpt lat="43.1499268" lon="-2.8633384">
        <ele>115.169</ele>
        <time>2021-04-01T07:48:47.735Z</time>
      </trkpt>
      <trkpt lat="43.1498646" lon="-2.8632448">
        <ele>115.009</ele>
        <time>2021-04-01T07:48:47.907Z</time>
      </trkpt>
      <trkpt lat="43.1498554" lon="-2.8632322">
        <ele>114.972</ele>
        <time>2021-04-01T07:48:48.080Z</time>
      </trkpt>
      <trkpt lat="43.1498358" lon="-2.8632027">
        <ele>114.92</ele>
        <time>2021-04-01T07:48:48.253Z</time>
      </trkpt>
      <trkpt lat="43.1498646" lon="-2.8632448">
        <ele>115.009</ele>
        <time>2021-04-01T07:48:48.426Z</time>
      </trkpt>
      <trkpt lat="43.1498554" lon="-2.8632322">
        <ele>114.972</ele>
        <time>2021-04-01T07:48:48.599Z</time>
      </trkpt>
      <trkpt lat="43.1498358" lon="-2.8632027">
        <ele>114.92</ele>
        <time>2021-04-01T07:48:48.772Z</time>
      </trkpt>
      <trkpt lat="43.1498165" lon="-2.8631724">
        <ele>114.881</ele>
        <time>2021-04-01T07:48:50.650Z</time>
      </trkpt>
      <trkpt lat="43.1497464" lon="-2.8630704">
        <ele>114.825</ele>
        <time>2021-04-01T07:48:50.917Z</time>
      </trkpt>
      <trkpt lat="43.1497273" lon="-2.8630446">
        <ele>114.901</ele>
        <time>2021-04-01T07:48:51.184Z</time>
      </trkpt>
      <trkpt lat="43.1497159" lon="-2.8630289">
        <ele>114.829</ele>
        <time>2021-04-01T07:48:51.451Z</time>
      </trkpt>
      <trkpt lat="43.1496974" lon="-2.8630034">
        <ele>114.779</ele>
        <time>2021-04-01T07:48:51.718Z</time>
      </trkpt>
      <trkpt lat="43.1496974" lon="-2.8630034">
        <ele>114.779</ele>
        <time>2021-04-01T07:48:51.985Z</time>
      </trkpt>
      <trkpt lat="43.1496974" lon="-2.8630034">
        <ele>114.779</ele>
        <time>2021-04-01T07:48:52.252Z</time>
      </trkpt>
      <trkpt lat="43.1496669" lon="-2.8629621">
        <ele>114.597</ele>
        <time>2021-04-01T07:48:53.895Z</time>
      </trkpt>
      <trkpt lat="43.1496091" lon="-2.8628818">
        <ele>114.394</ele>
        <time>2021-04-01T07:48:55.765Z</time>
      </trkpt>
      <trkpt lat="43.1495295" lon="-2.8627746">
        <ele>114.096</ele>
        <time>2021-04-01T07:48:56.063Z</time>
      </trkpt>
      <trkpt lat="43.1495272" lon="-2.8627712">
        <ele>114.086</ele>
        <time>2021-04-01T07:48:56.362Z</time>
      </trkpt>
      <trkpt lat="43.1495182" lon="-2.8627585">
        <ele>114.071</ele>
        <time>2021-04-01T07:48:56.660Z</time>
      </trkpt>
      <trkpt lat="43.1495295" lon="-2.8627746">
        <ele>114.096</ele>
        <time>2021-04-01T07:48:56.959Z</time>
      </trkpt>
      <trkpt lat="43.1495272" lon="-2.8627712">
        <ele>114.086</ele>
        <time>2021-04-01T07:48:57.257Z</time>
      </trkpt>
      <trkpt lat="43.1495182" lon="-2.8627585">
        <ele>114.071</ele>
        <time>2021-04-01T07:48:57.556Z</time>
      </trkpt>
      <trkpt lat="43.1494411" lon="-2.8626542">
        <ele>114</ele>
        <time>2021-04-01T07:48:58.845Z</time>
      </trkpt>
      <trkpt lat="43.1494012" lon="-2.8625962">
        <ele>114.141</ele>
        <time>2021-04-01T07:48:59.230Z</time>
      </trkpt>
      <trkpt lat="43.1493694" lon="-2.8625507">
        <ele>114.309</ele>
        <time>2021-04-01T07:48:59.615Z</time>
      </trkpt>
      <trkpt lat="43.1493694" lon="-2.8625507">
        <ele>114.309</ele>
        <time>2021-04-01T07:49:00.000Z</time>
      </trkpt>
      <trkpt lat="43.1493694" lon="-2.8625507">
        <ele>114.309</ele>
        <time>2021-04-01T07:49:00.385Z</time>
      </trkpt>
      <trkpt lat="43.1493198" lon="-2.8624854">
        <ele>114.196</ele>
        <time>2021-04-01T07:49:01.485Z</time>
      </trkpt>
      <trkpt lat="43.1492895" lon="-2.8624436">
        <ele>114.203</ele>
        <time>2021-04-01T07:49:01.801Z</time>
      </trkpt>
      <trkpt lat="43.1492528" lon="-2.8623926">
        <ele>114.117</ele>
        <time>2021-04-01T07:49:02.117Z</time>
      </trkpt>
      <trkpt lat="43.1492329" lon="-2.8623683">
        <ele>114.09</ele>
        <time>2021-04-01T07:49:02.433Z</time>
      </trkpt>
      <trkpt lat="43.1492399" lon="-2.8623776">
        <ele>114.111</ele>
        <time>2021-04-01T07:49:02.750Z</time>
      </trkpt>
      <trkpt lat="43.1492329" lon="-2.8623683">
        <ele>114.09</ele>
        <time>2021-04-01T07:49:03.066Z</time>
      </trkpt>
      <trkpt lat="43.1492399" lon="-2.8623776">
        <ele>114.111</ele>
        <time>2021-04-01T07:49:03.382Z</time>
      </trkpt>
      <trkpt lat="43.1492329" lon="-2.8623683">
        <ele>114.09</ele>
        <time>2021-04-01T07:49:03.698Z</time>
      </trkpt>
      <trkpt lat="43.1491792" lon="-2.8622992">
        <ele>114.072</ele>
        <time>2021-04-01T07:49:05.500Z</time>
      </trkpt>
      <trkpt lat="43.1491123" lon="-2.8622175">
        <ele>113.873</ele>
        <time>2021-04-01T07:49:06.545Z</time>
      </trkpt>
      <trkpt lat="43.149068" lon="-2.8621579">
        <ele>113.747</ele>
        <time>2021-04-01T07:49:06.835Z</time>
      </trkpt>
      <trkpt lat="43.1490427" lon="-2.8621225">
        <ele>113.732</ele>
        <time>2021-04-01T07:49:07.126Z</time>
      </trkpt>
      <trkpt lat="43.1490335" lon="-2.8621088">
        <ele>113.751</ele>
        <time>2021-04-01T07:49:07.417Z</time>
      </trkpt>
      <trkpt lat="43.1490511" lon="-2.8621366">
        <ele>113.71</ele>
        <time>2021-04-01T07:49:07.707Z</time>
      </trkpt>
      <trkpt lat="43.1490427" lon="-2.8621225">
        <ele>113.732</ele>
        <time>2021-04-01T07:49:07.998Z</time>
      </trkpt>
      <trkpt lat="43.1490335" lon="-2.8621088">
        <ele>113.751</ele>
        <time>2021-04-01T07:49:08.289Z</time>
      </trkpt>
      <trkpt lat="43.14898" lon="-2.8620395">
        <ele>113.942</ele>
        <time>2021-04-01T07:49:08.580Z</time>
      </trkpt>
      <trkpt lat="43.1488685" lon="-2.8618902">
        <ele>113.784</ele>
        <time>2021-04-01T07:49:12.650Z</time>
      </trkpt>
      <trkpt lat="43.1488129" lon="-2.8618058">
        <ele>113.976</ele>
        <time>2021-04-01T07:49:12.863Z</time>
      </trkpt>
      <trkpt lat="43.1487774" lon="-2.8617516">
        <ele>114.063</ele>
        <time>2021-04-01T07:49:13.077Z</time>
      </trkpt>
      <trkpt lat="43.148802" lon="-2.8617903">
        <ele>113.917</ele>
        <time>2021-04-01T07:49:13.291Z</time>
      </trkpt>
      <trkpt lat="43.1487674" lon="-2.861735">
        <ele>114.127</ele>
        <time>2021-04-01T07:49:13.505Z</time>
      </trkpt>
      <trkpt lat="43.1487774" lon="-2.8617516">
        <ele>114.063</ele>
        <time>2021-04-01T07:49:13.719Z</time>
      </trkpt>
      <trkpt lat="43.1487674" lon="-2.861735">
        <ele>114.127</ele>
        <time>2021-04-01T07:49:13.933Z</time>
      </trkpt>
      <trkpt lat="43.1487774" lon="-2.8617516">
        <ele>114.063</ele>
        <time>2021-04-01T07:49:14.147Z</time>
      </trkpt>
      <trkpt lat="43.1487674" lon="-2.861735">
        <ele>114.127</ele>
        <time>2021-04-01T07:49:14.361Z</time>
      </trkpt>
      <trkpt lat="43.1487422" lon="-2.861692">
        <ele>114.265</ele>
        <time>2021-04-01T07:49:16.940Z</time>
      </trkpt>
      <trkpt lat="43.1486626" lon="-2.8615533">
        <ele>114.807</ele>
        <time>2021-04-01T07:49:17.251Z</time>
      </trkpt>
      <trkpt lat="43.1486626" lon="-2.8615533">
        <ele>114.807</ele>
        <time>2021-04-01T07:49:17.563Z</time>
      </trkpt>
      <trkpt lat="43.1486325" lon="-2.8614984">
        <ele>115.015</ele>
        <time>2021-04-01T07:49:17.875Z</time>
      </trkpt>
      <trkpt lat="43.1486251" lon="-2.8614855">
        <ele>115.034</ele>
        <time>2021-04-01T07:49:18.159Z</time>
      </trkpt>
      <trkpt lat="43.1486084" lon="-2.8614573">
        <ele>115.131</ele>
        <time>2021-04-01T07:49:18.443Z</time>
      </trkpt>
      <trkpt lat="43.1486325" lon="-2.8614984">
        <ele>115.015</ele>
        <time>2021-04-01T07:49:18.727Z</time>
      </trkpt>
      <trkpt lat="43.1486251" lon="-2.8614855">
        <ele>115.034</ele>
        <time>2021-04-01T07:49:19.011Z</time>
      </trkpt>
      <trkpt lat="43.1486084" lon="-2.8614573">
        <ele>115.131</ele>
        <time>2021-04-01T07:49:19.295Z</time>
      </trkpt>
      <trkpt lat="43.1485741" lon="-2.8614016">
        <ele>115.09</ele>
        <time>2021-04-01T07:49:20.845Z</time>
      </trkpt>
      <trkpt lat="43.1485325" lon="-2.8613276">
        <ele>115.051</ele>
        <time>2021-04-01T07:49:21.184Z</time>
      </trkpt>
      <trkpt lat="43.1485176" lon="-2.8613018">
        <ele>114.954</ele>
        <time>2021-04-01T07:49:21.523Z</time>
      </trkpt>
      <trkpt lat="43.1485234" lon="-2.8613113">
        <ele>114.998</ele>
        <time>2021-04-01T07:49:21.862Z</time>
      </trkpt>
      <trkpt lat="43.1485176" lon="-2.8613018">
        <ele>114.954</ele>
        <time>2021-04-01T07:49:22.201Z</time>
      </trkpt>
      <trkpt lat="43.1485176" lon="-2.8613018">
        <ele>114.954</ele>
        <time>2021-04-01T07:49:22.540Z</time>
      </trkpt>
      <trkpt lat="43.1484613" lon="-2.8612075">
        <ele>114.852</ele>
        <time>2021-04-01T07:49:24.035Z</time>
      </trkpt>
      <trkpt lat="43.1484188" lon="-2.8611402">
        <ele>114.901</ele>
        <time>2021-04-01T07:49:24.255Z</time>
      </trkpt>
      <trkpt lat="43.1483967" lon="-2.8611048">
        <ele>114.815</ele>
        <time>2021-04-01T07:49:24.475Z</time>
      </trkpt>
      <trkpt lat="43.1483887" lon="-2.8610923">
        <ele>114.819</ele>
        <time>2021-04-01T07:49:24.695Z</time>
      </trkpt>
      <trkpt lat="43.1483967" lon="-2.8611048">
        <ele>114.815</ele>
        <time>2021-04-01T07:49:24.915Z</time>
      </trkpt>
      <trkpt lat="43.1483887" lon="-2.8610923">
        <ele>114.819</ele>
        <time>2021-04-01T07:49:25.135Z</time>
      </trkpt>
      <trkpt lat="43.1483967" lon="-2.8611048">
        <ele>114.815</ele>
        <time>2021-04-01T07:49:25.355Z</time>
      </trkpt>
      <trkpt lat="43.1483887" lon="-2.8610923">
        <ele>114.819</ele>
        <time>2021-04-01T07:49:25.575Z</time>
      </trkpt>
      <trkpt lat="43.1483547" lon="-2.8610403">
        <ele>114.675</ele>
        <time>2021-04-01T07:49:25.795Z</time>
      </trkpt>
      <trkpt lat="43.1483427" lon="-2.8610211">
        <ele>114.709</ele>
        <time>2021-04-01T07:49:26.482Z</time>
      </trkpt>
      <trkpt lat="43.1483049" lon="-2.8609616">
        <ele>114.651</ele>
        <time>2021-04-01T07:49:28.765Z</time>
      </trkpt>
      <trkpt lat="43.1482431" lon="-2.8608787">
        <ele>114.66</ele>
        <time>2021-04-01T07:49:29.301Z</time>
      </trkpt>
      <trkpt lat="43.1482345" lon="-2.860867">
        <ele>114.737</ele>
        <time>2021-04-01T07:49:29.837Z</time>
      </trkpt>
      <trkpt lat="43.1482345" lon="-2.860867">
        <ele>114.737</ele>
        <time>2021-04-01T07:49:30.373Z</time>
      </trkpt>
      <trkpt lat="43.1481631" lon="-2.8607652">
        <ele>115.042</ele>
        <time>2021-04-01T07:49:32.010Z</time>
      </trkpt>
      <trkpt lat="43.1481232" lon="-2.8607068">
        <ele>115.196</ele>
        <time>2021-04-01T07:49:32.670Z</time>
      </trkpt>
      <trkpt lat="43.1481232" lon="-2.8607068">
        <ele>115.196</ele>
        <time>2021-04-01T07:49:33.330Z</time>
      </trkpt>
      <trkpt lat="43.1480508" lon="-2.8605999">
        <ele>114.837</ele>
        <time>2021-04-01T07:49:35.255Z</time>
      </trkpt>
      <trkpt lat="43.1480105" lon="-2.8605234">
        <ele>114.982</ele>
        <time>2021-04-01T07:49:35.624Z</time>
      </trkpt>
      <trkpt lat="43.1480038" lon="-2.8605096">
        <ele>115.03</ele>
        <time>2021-04-01T07:49:35.993Z</time>
      </trkpt>
      <trkpt lat="43.1480022" lon="-2.8605064">
        <ele>115.024</ele>
        <time>2021-04-01T07:49:36.362Z</time>
      </trkpt>
      <trkpt lat="43.1480105" lon="-2.8605234">
        <ele>114.982</ele>
        <time>2021-04-01T07:49:36.732Z</time>
      </trkpt>
      <trkpt lat="43.1480038" lon="-2.8605096">
        <ele>115.03</ele>
        <time>2021-04-01T07:49:37.101Z</time>
      </trkpt>
      <trkpt lat="43.1480022" lon="-2.8605064">
        <ele>115.024</ele>
        <time>2021-04-01T07:49:37.470Z</time>
      </trkpt>
      <trkpt lat="43.1479358" lon="-2.8603616">
        <ele>115.02</ele>
        <time>2021-04-01T07:49:38.115Z</time>
      </trkpt>
      <trkpt lat="43.1479291" lon="-2.8603429">
        <ele>115.091</ele>
        <time>2021-04-01T07:49:39.325Z</time>
      </trkpt>
      <trkpt lat="43.1478985" lon="-2.8602622">
        <ele>115.187</ele>
        <time>2021-04-01T07:49:39.809Z</time>
      </trkpt>
      <trkpt lat="43.1478654" lon="-2.8601681">
        <ele>115.43</ele>
        <time>2021-04-01T07:49:40.293Z</time>
      </trkpt>
      <trkpt lat="43.1478654" lon="-2.8601681">
        <ele>115.43</ele>
        <time>2021-04-01T07:49:40.777Z</time>
      </trkpt>
      <trkpt lat="43.1478654" lon="-2.8601681">
        <ele>115.43</ele>
        <time>2021-04-01T07:49:41.261Z</time>
      </trkpt>
      <trkpt lat="43.1478404" lon="-2.8600957">
        <ele>115.608</ele>
        <time>2021-04-01T07:49:43.175Z</time>
      </trkpt>
      <trkpt lat="43.1478036" lon="-2.8599963">
        <ele>115.853</ele>
        <time>2021-04-01T07:49:43.384Z</time>
      </trkpt>
      <trkpt lat="43.1477951" lon="-2.8599729">
        <ele>115.881</ele>
        <time>2021-04-01T07:49:43.593Z</time>
      </trkpt>
      <trkpt lat="43.1477862" lon="-2.8599447">
        <ele>115.891</ele>
        <time>2021-04-01T07:49:43.802Z</time>
      </trkpt>
      <trkpt lat="43.1478036" lon="-2.8599963">
        <ele>115.853</ele>
        <time>2021-04-01T07:49:44.011Z</time>
      </trkpt>
      <trkpt lat="43.1477951" lon="-2.8599729">
        <ele>115.881</ele>
        <time>2021-04-01T07:49:44.220Z</time>
      </trkpt>
      <trkpt lat="43.1477862" lon="-2.8599447">
        <ele>115.891</ele>
        <time>2021-04-01T07:49:44.429Z</time>
      </trkpt>
      <trkpt lat="43.1478036" lon="-2.8599963">
        <ele>115.853</ele>
        <time>2021-04-01T07:49:44.638Z</time>
      </trkpt>
      <trkpt lat="43.1477951" lon="-2.8599729">
        <ele>115.881</ele>
        <time>2021-04-01T07:49:44.847Z</time>
      </trkpt>
      <trkpt lat="43.1477862" lon="-2.8599447">
        <ele>115.891</ele>
        <time>2021-04-01T07:49:45.056Z</time>
      </trkpt>
      <trkpt lat="43.1477533" lon="-2.8598456">
        <ele>115.88</ele>
        <time>2021-04-01T07:49:45.265Z</time>
      </trkpt>
      <trkpt lat="43.1477362" lon="-2.8597894">
        <ele>116.043</ele>
        <time>2021-04-01T07:49:47.465Z</time>
      </trkpt>
      <trkpt lat="43.147713" lon="-2.859718">
        <ele>116.065</ele>
        <time>2021-04-01T07:49:48.015Z</time>
      </trkpt>
      <trkpt lat="43.147713" lon="-2.859718">
        <ele>116.065</ele>
        <time>2021-04-01T07:49:48.565Z</time>
      </trkpt>
      <trkpt lat="43.147713" lon="-2.859718">
        <ele>116.065</ele>
        <time>2021-04-01T07:49:49.115Z</time>
      </trkpt>
      <trkpt lat="43.1476787" lon="-2.8595573">
        <ele>116.489</ele>
        <time>2021-04-01T07:49:49.637Z</time>
      </trkpt>
      <trkpt lat="43.1476711" lon="-2.8594697">
        <ele>116.569</ele>
        <time>2021-04-01T07:49:50.160Z</time>
      </trkpt>
      <trkpt lat="43.1476711" lon="-2.8594697">
        <ele>116.569</ele>
        <time>2021-04-01T07:49:50.682Z</time>
      </trkpt>
      <trkpt lat="43.1476684" lon="-2.8593903">
        <ele>116.632</ele>
        <time>2021-04-01T07:49:51.205Z</time>
      </trkpt>
      <trkpt lat="43.1476681" lon="-2.8593726">
        <ele>116.629</ele>
        <time>2021-04-01T07:49:51.626Z</time>
      </trkpt>
      <trkpt lat="43.1476677" lon="-2.8593637">
        <ele>116.628</ele>
        <time>2021-04-01T07:49:52.048Z</time>
      </trkpt>
      <trkpt lat="43.1476684" lon="-2.8593903">
        <ele>116.632</ele>
        <time>2021-04-01T07:49:52.470Z</time>
      </trkpt>
      <trkpt lat="43.1476681" lon="-2.8593726">
        <ele>116.629</ele>
        <time>2021-04-01T07:49:52.891Z</time>
      </trkpt>
      <trkpt lat="43.1476677" lon="-2.8593637">
        <ele>116.628</ele>
        <time>2021-04-01T07:49:53.313Z</time>
      </trkpt>
      <trkpt lat="43.1476658" lon="-2.8591853">
        <ele>116.824</ele>
        <time>2021-04-01T07:49:54.890Z</time>
      </trkpt>
      <trkpt lat="43.1476654" lon="-2.8590909">
        <ele>116.778</ele>
        <time>2021-04-01T07:49:55.990Z</time>
      </trkpt>
      <trkpt lat="43.1476632" lon="-2.8590013">
        <ele>116.782</ele>
        <time>2021-04-01T07:49:58.300Z</time>
      </trkpt>
      <trkpt lat="43.1476624" lon="-2.8589747">
        <ele>116.772</ele>
        <time>2021-04-01T07:49:58.339Z</time>
      </trkpt>
      <trkpt lat="43.1476625" lon="-2.8589702">
        <ele>116.731</ele>
        <time>2021-04-01T07:49:58.379Z</time>
      </trkpt>
      <trkpt lat="43.1476627" lon="-2.8589838">
        <ele>116.689</ele>
        <time>2021-04-01T07:49:58.419Z</time>
      </trkpt>
      <trkpt lat="43.1476626" lon="-2.8589792">
        <ele>116.727</ele>
        <time>2021-04-01T07:49:58.458Z</time>
      </trkpt>
      <trkpt lat="43.1476624" lon="-2.8589747">
        <ele>116.772</ele>
        <time>2021-04-01T07:49:58.498Z</time>
      </trkpt>
      <trkpt lat="43.1476625" lon="-2.8589702">
        <ele>116.731</ele>
        <time>2021-04-01T07:49:58.538Z</time>
      </trkpt>
      <trkpt lat="43.1476627" lon="-2.8589838">
        <ele>116.689</ele>
        <time>2021-04-01T07:49:58.578Z</time>
      </trkpt>
      <trkpt lat="43.1476626" lon="-2.8589792">
        <ele>116.727</ele>
        <time>2021-04-01T07:49:58.617Z</time>
      </trkpt>
      <trkpt lat="43.1476624" lon="-2.8589747">
        <ele>116.772</ele>
        <time>2021-04-01T07:49:58.657Z</time>
      </trkpt>
      <trkpt lat="43.1476625" lon="-2.8589702">
        <ele>116.731</ele>
        <time>2021-04-01T07:49:58.697Z</time>
      </trkpt>
      <trkpt lat="43.1476636" lon="-2.8588143">
        <ele>116.571</ele>
        <time>2021-04-01T07:49:58.736Z</time>
      </trkpt>
      <trkpt lat="43.1476639" lon="-2.8588321">
        <ele>116.586</ele>
        <time>2021-04-01T07:49:58.776Z</time>
      </trkpt>
      <trkpt lat="43.1476638" lon="-2.8588278">
        <ele>116.565</ele>
        <time>2021-04-01T07:49:58.816Z</time>
      </trkpt>
      <trkpt lat="43.1476639" lon="-2.8588321">
        <ele>116.586</ele>
        <time>2021-04-01T07:49:58.856Z</time>
      </trkpt>
      <trkpt lat="43.1476638" lon="-2.8588278">
        <ele>116.565</ele>
        <time>2021-04-01T07:49:58.895Z</time>
      </trkpt>
      <trkpt lat="43.1476639" lon="-2.8588321">
        <ele>116.586</ele>
        <time>2021-04-01T07:49:58.935Z</time>
      </trkpt>
      <trkpt lat="43.1476638" lon="-2.8588278">
        <ele>116.565</ele>
        <time>2021-04-01T07:49:58.975Z</time>
      </trkpt>
      <trkpt lat="43.1476641" lon="-2.8587558">
        <ele>116.55</ele>
        <time>2021-04-01T07:49:59.015Z</time>
      </trkpt>
      <trkpt lat="43.1476641" lon="-2.8587513">
        <ele>116.554</ele>
        <time>2021-04-01T07:49:59.173Z</time>
      </trkpt>
      <trkpt lat="43.1476643" lon="-2.8587374">
        <ele>116.563</ele>
        <time>2021-04-01T07:49:59.331Z</time>
      </trkpt>
      <trkpt lat="43.1476644" lon="-2.8587195">
        <ele>116.545</ele>
        <time>2021-04-01T07:49:59.489Z</time>
      </trkpt>
      <trkpt lat="43.1476641" lon="-2.8587558">
        <ele>116.55</ele>
        <time>2021-04-01T07:49:59.647Z</time>
      </trkpt>
      <trkpt lat="43.1476641" lon="-2.8587513">
        <ele>116.554</ele>
        <time>2021-04-01T07:49:59.805Z</time>
      </trkpt>
      <trkpt lat="43.1476643" lon="-2.8587374">
        <ele>116.563</ele>
        <time>2021-04-01T07:49:59.963Z</time>
      </trkpt>
      <trkpt lat="43.1476644" lon="-2.8587195">
        <ele>116.545</ele>
        <time>2021-04-01T07:50:00.121Z</time>
      </trkpt>
      <trkpt lat="43.1476654" lon="-2.8586519">
        <ele>116.556</ele>
        <time>2021-04-01T07:50:02.535Z</time>
      </trkpt>
      <trkpt lat="43.1476652" lon="-2.8584705">
        <ele>116.373</ele>
        <time>2021-04-01T07:50:05.285Z</time>
      </trkpt>
      <trkpt lat="43.1476657" lon="-2.8583473">
        <ele>116.122</ele>
        <time>2021-04-01T07:50:05.357Z</time>
      </trkpt>
      <trkpt lat="43.147666" lon="-2.8583383">
        <ele>116.13</ele>
        <time>2021-04-01T07:50:05.429Z</time>
      </trkpt>
      <trkpt lat="43.1476658" lon="-2.8583561">
        <ele>116.132</ele>
        <time>2021-04-01T07:50:05.502Z</time>
      </trkpt>
      <trkpt lat="43.1476663" lon="-2.8583202">
        <ele>116.148</ele>
        <time>2021-04-01T07:50:05.574Z</time>
      </trkpt>
      <trkpt lat="43.1476664" lon="-2.8583158">
        <ele>116.132</ele>
        <time>2021-04-01T07:50:05.646Z</time>
      </trkpt>
      <trkpt lat="43.147666" lon="-2.8583383">
        <ele>116.13</ele>
        <time>2021-04-01T07:50:05.719Z</time>
      </trkpt>
      <trkpt lat="43.1476663" lon="-2.8583337">
        <ele>116.159</ele>
        <time>2021-04-01T07:50:05.791Z</time>
      </trkpt>
      <trkpt lat="43.1476663" lon="-2.8583202">
        <ele>116.148</ele>
        <time>2021-04-01T07:50:05.863Z</time>
      </trkpt>
      <trkpt lat="43.1476664" lon="-2.8583158">
        <ele>116.132</ele>
        <time>2021-04-01T07:50:05.936Z</time>
      </trkpt>
      <trkpt lat="43.147666" lon="-2.8583383">
        <ele>116.13</ele>
        <time>2021-04-01T07:50:06.008Z</time>
      </trkpt>
      <trkpt lat="43.1476663" lon="-2.8583337">
        <ele>116.159</ele>
        <time>2021-04-01T07:50:06.081Z</time>
      </trkpt>
      <trkpt lat="43.1476663" lon="-2.8583202">
        <ele>116.148</ele>
        <time>2021-04-01T07:50:06.153Z</time>
      </trkpt>
      <trkpt lat="43.1476664" lon="-2.8583158">
        <ele>116.132</ele>
        <time>2021-04-01T07:50:06.225Z</time>
      </trkpt>
      <trkpt lat="43.1476667" lon="-2.8582493">
        <ele>116.037</ele>
        <time>2021-04-01T07:50:06.298Z</time>
      </trkpt>
      <trkpt lat="43.1476667" lon="-2.8582449">
        <ele>116.039</ele>
        <time>2021-04-01T07:50:06.370Z</time>
      </trkpt>
      <trkpt lat="43.1476667" lon="-2.8582537">
        <ele>116.041</ele>
        <time>2021-04-01T07:50:06.442Z</time>
      </trkpt>
      <trkpt lat="43.1476667" lon="-2.8582493">
        <ele>116.037</ele>
        <time>2021-04-01T07:50:06.515Z</time>
      </trkpt>
      <trkpt lat="43.1476667" lon="-2.8582449">
        <ele>116.039</ele>
        <time>2021-04-01T07:50:06.587Z</time>
      </trkpt>
      <trkpt lat="43.147669" lon="-2.8581382">
        <ele>115.798</ele>
        <time>2021-04-01T07:50:08.310Z</time>
      </trkpt>
      <trkpt lat="43.1476685" lon="-2.8580028">
        <ele>115.741</ele>
        <time>2021-04-01T07:50:10.070Z</time>
      </trkpt>
      <trkpt lat="43.1476675" lon="-2.8578577">
        <ele>115.775</ele>
        <time>2021-04-01T07:50:10.326Z</time>
      </trkpt>
      <trkpt lat="43.1476675" lon="-2.8578352">
        <ele>115.792</ele>
        <time>2021-04-01T07:50:10.583Z</time>
      </trkpt>
      <trkpt lat="43.1476678" lon="-2.8578257">
        <ele>115.813</ele>
        <time>2021-04-01T07:50:10.840Z</time>
      </trkpt>
      <trkpt lat="43.1476675" lon="-2.8578352">
        <ele>115.792</ele>
        <time>2021-04-01T07:50:11.096Z</time>
      </trkpt>
      <trkpt lat="43.1476678" lon="-2.8578257">
        <ele>115.813</ele>
        <time>2021-04-01T07:50:11.353Z</time>
      </trkpt>
      <trkpt lat="43.1476696" lon="-2.8577317">
        <ele>115.784</ele>
        <time>2021-04-01T07:50:13.205Z</time>
      </trkpt>
      <trkpt lat="43.1476702" lon="-2.8574296">
        <ele>115.85</ele>
        <time>2021-04-01T07:50:15.350Z</time>
      </trkpt>
      <trkpt lat="43.1476718" lon="-2.8573415">
        <ele>115.912</ele>
        <time>2021-04-01T07:50:16.725Z</time>
      </trkpt>
      <trkpt lat="43.1476702" lon="-2.8574296">
        <ele>115.85</ele>
        <time>2021-04-01T07:50:18.100Z</time>
      </trkpt>
      <trkpt lat="43.147673" lon="-2.8572077">
        <ele>116.013</ele>
        <time>2021-04-01T07:50:18.215Z</time>
      </trkpt>
      <trkpt lat="43.1476733" lon="-2.8571806">
        <ele>116.014</ele>
        <time>2021-04-01T07:50:18.330Z</time>
      </trkpt>
      <trkpt lat="43.1476732" lon="-2.857194">
        <ele>116.03</ele>
        <time>2021-04-01T07:50:18.445Z</time>
      </trkpt>
      <trkpt lat="43.1476734" lon="-2.8571759">
        <ele>116.019</ele>
        <time>2021-04-01T07:50:18.560Z</time>
      </trkpt>
      <trkpt lat="43.1476733" lon="-2.8571852">
        <ele>115.998</ele>
        <time>2021-04-01T07:50:18.675Z</time>
      </trkpt>
      <trkpt lat="43.1476733" lon="-2.8571806">
        <ele>116.014</ele>
        <time>2021-04-01T07:50:18.790Z</time>
      </trkpt>
      <trkpt lat="43.1476734" lon="-2.8571759">
        <ele>116.019</ele>
        <time>2021-04-01T07:50:18.905Z</time>
      </trkpt>
      <trkpt lat="43.1476733" lon="-2.8571852">
        <ele>115.998</ele>
        <time>2021-04-01T07:50:19.020Z</time>
      </trkpt>
      <trkpt lat="43.1476733" lon="-2.8571806">
        <ele>116.014</ele>
        <time>2021-04-01T07:50:19.135Z</time>
      </trkpt>
      <trkpt lat="43.1476734" lon="-2.8571759">
        <ele>116.019</ele>
        <time>2021-04-01T07:50:19.250Z</time>
      </trkpt>
      <trkpt lat="43.1476741" lon="-2.8571037">
        <ele>115.92</ele>
        <time>2021-04-01T07:50:21.400Z</time>
      </trkpt>
      <trkpt lat="43.1476722" lon="-2.8569364">
        <ele>115.696</ele>
        <time>2021-04-01T07:50:21.702Z</time>
      </trkpt>
      <trkpt lat="43.1476723" lon="-2.8569546">
        <ele>115.732</ele>
        <time>2021-04-01T07:50:22.005Z</time>
      </trkpt>
      <trkpt lat="43.1476722" lon="-2.8569364">
        <ele>115.696</ele>
        <time>2021-04-01T07:50:22.307Z</time>
      </trkpt>
      <trkpt lat="43.1476724" lon="-2.8568347">
        <ele>115.659</ele>
        <time>2021-04-01T07:50:25.085Z</time>
      </trkpt>
      <trkpt lat="43.147674" lon="-2.8566224">
        <ele>115.887</ele>
        <time>2021-04-01T07:50:25.525Z</time>
      </trkpt>
      <trkpt lat="43.1476739" lon="-2.8566598">
        <ele>115.915</ele>
        <time>2021-04-01T07:50:25.827Z</time>
      </trkpt>
      <trkpt lat="43.147674" lon="-2.8566785">
        <ele>115.903</ele>
        <time>2021-04-01T07:50:26.130Z</time>
      </trkpt>
      <trkpt lat="43.1476739" lon="-2.8566598">
        <ele>115.915</ele>
        <time>2021-04-01T07:50:26.432Z</time>
      </trkpt>
      <trkpt lat="43.147674" lon="-2.8566367">
        <ele>115.86</ele>
        <time>2021-04-01T07:50:26.735Z</time>
      </trkpt>
      <trkpt lat="43.1476739" lon="-2.8566598">
        <ele>115.915</ele>
        <time>2021-04-01T07:50:27.037Z</time>
      </trkpt>
      <trkpt lat="43.147674" lon="-2.8566367">
        <ele>115.86</ele>
        <time>2021-04-01T07:50:27.340Z</time>
      </trkpt>
      <trkpt lat="43.1476754" lon="-2.8564301">
        <ele>115.87</ele>
        <time>2021-04-01T07:50:27.862Z</time>
      </trkpt>
      <trkpt lat="43.1476762" lon="-2.8563696">
        <ele>115.9</ele>
        <time>2021-04-01T07:50:28.385Z</time>
      </trkpt>
      <trkpt lat="43.1476762" lon="-2.8563696">
        <ele>115.9</ele>
        <time>2021-04-01T07:50:28.907Z</time>
      </trkpt>
      <trkpt lat="43.1476771" lon="-2.8562542">
        <ele>115.665</ele>
        <time>2021-04-01T07:50:29.430Z</time>
      </trkpt>
      <trkpt lat="43.1476775" lon="-2.8562358">
        <ele>115.681</ele>
        <time>2021-04-01T07:50:29.650Z</time>
      </trkpt>
      <trkpt lat="43.1476771" lon="-2.8562542">
        <ele>115.665</ele>
        <time>2021-04-01T07:50:29.870Z</time>
      </trkpt>
      <trkpt lat="43.1476775" lon="-2.8562358">
        <ele>115.681</ele>
        <time>2021-04-01T07:50:30.090Z</time>
      </trkpt>
      <trkpt lat="43.1476799" lon="-2.8561797">
        <ele>115.715</ele>
        <time>2021-04-01T07:50:32.125Z</time>
      </trkpt>
      <trkpt lat="43.1476848" lon="-2.8560259">
        <ele>115.626</ele>
        <time>2021-04-01T07:50:33.335Z</time>
      </trkpt>
      <trkpt lat="43.1476841" lon="-2.8559981">
        <ele>115.632</ele>
        <time>2021-04-01T07:50:33.464Z</time>
      </trkpt>
      <trkpt lat="43.1476841" lon="-2.8559937">
        <ele>115.615</ele>
        <time>2021-04-01T07:50:33.593Z</time>
      </trkpt>
      <trkpt lat="43.1476839" lon="-2.8560027">
        <ele>115.59</ele>
        <time>2021-04-01T07:50:33.723Z</time>
      </trkpt>
      <trkpt lat="43.1476841" lon="-2.8559981">
        <ele>115.632</ele>
        <time>2021-04-01T07:50:33.852Z</time>
      </trkpt>
      <trkpt lat="43.1476841" lon="-2.8559937">
        <ele>115.615</ele>
        <time>2021-04-01T07:50:33.982Z</time>
      </trkpt>
      <trkpt lat="43.147684" lon="-2.8559891">
        <ele>115.601</ele>
        <time>2021-04-01T07:50:34.111Z</time>
      </trkpt>
      <trkpt lat="43.1476839" lon="-2.8560027">
        <ele>115.59</ele>
        <time>2021-04-01T07:50:34.240Z</time>
      </trkpt>
      <trkpt lat="43.1476841" lon="-2.8559981">
        <ele>115.632</ele>
        <time>2021-04-01T07:50:34.370Z</time>
      </trkpt>
      <trkpt lat="43.1476841" lon="-2.8559937">
        <ele>115.615</ele>
        <time>2021-04-01T07:50:34.499Z</time>
      </trkpt>
      <trkpt lat="43.147684" lon="-2.8559891">
        <ele>115.601</ele>
        <time>2021-04-01T07:50:34.629Z</time>
      </trkpt>
      <trkpt lat="43.1476835" lon="-2.8559247">
        <ele>115.637</ele>
        <time>2021-04-01T07:50:34.758Z</time>
      </trkpt>
      <trkpt lat="43.1476851" lon="-2.8558417">
        <ele>115.843</ele>
        <time>2021-04-01T07:50:34.887Z</time>
      </trkpt>
      <trkpt lat="43.1476851" lon="-2.8558417">
        <ele>115.843</ele>
        <time>2021-04-01T07:50:35.017Z</time>
      </trkpt>
      <trkpt lat="43.1476849" lon="-2.8558329">
        <ele>115.707</ele>
        <time>2021-04-01T07:50:35.146Z</time>
      </trkpt>
      <trkpt lat="43.1476851" lon="-2.8558417">
        <ele>115.843</ele>
        <time>2021-04-01T07:50:35.276Z</time>
      </trkpt>
      <trkpt lat="43.1476849" lon="-2.8558329">
        <ele>115.707</ele>
        <time>2021-04-01T07:50:35.405Z</time>
      </trkpt>
      <trkpt lat="43.1476872" lon="-2.8557414">
        <ele>115.442</ele>
        <time>2021-04-01T07:50:35.535Z</time>
      </trkpt>
      <trkpt lat="43.1476867" lon="-2.855701">
        <ele>115.383</ele>
        <time>2021-04-01T07:50:36.057Z</time>
      </trkpt>
      <trkpt lat="43.1476864" lon="-2.8556556">
        <ele>115.39</ele>
        <time>2021-04-01T07:50:38.505Z</time>
      </trkpt>
      <trkpt lat="43.1476839" lon="-2.855497">
        <ele>115.882</ele>
        <time>2021-04-01T07:50:41.200Z</time>
      </trkpt>
      <trkpt lat="43.1476762" lon="-2.8553161">
        <ele>116.267</ele>
        <time>2021-04-01T07:50:41.262Z</time>
      </trkpt>
      <trkpt lat="43.1476767" lon="-2.8553251">
        <ele>116.238</ele>
        <time>2021-04-01T07:50:41.294Z</time>
      </trkpt>
      <trkpt lat="43.1476762" lon="-2.8553161">
        <ele>116.267</ele>
        <time>2021-04-01T07:50:41.325Z</time>
      </trkpt>
      <trkpt lat="43.1476767" lon="-2.8553251">
        <ele>116.238</ele>
        <time>2021-04-01T07:50:41.357Z</time>
      </trkpt>
      <trkpt lat="43.1476762" lon="-2.8553161">
        <ele>116.267</ele>
        <time>2021-04-01T07:50:41.388Z</time>
      </trkpt>
      <trkpt lat="43.1476721" lon="-2.8552583">
        <ele>116.19</ele>
        <time>2021-04-01T07:50:43.455Z</time>
      </trkpt>
      <trkpt lat="43.1476585" lon="-2.8550951">
        <ele>116.418</ele>
        <time>2021-04-01T07:50:43.583Z</time>
      </trkpt>
      <trkpt lat="43.147658" lon="-2.8550909">
        <ele>116.391</ele>
        <time>2021-04-01T07:50:43.711Z</time>
      </trkpt>
      <trkpt lat="43.1476572" lon="-2.8550823">
        <ele>116.38</ele>
        <time>2021-04-01T07:50:43.839Z</time>
      </trkpt>
      <trkpt lat="43.147656" lon="-2.8550652">
        <ele>116.428</ele>
        <time>2021-04-01T07:50:43.968Z</time>
      </trkpt>
      <trkpt lat="43.1476585" lon="-2.8550951">
        <ele>116.418</ele>
        <time>2021-04-01T07:50:44.096Z</time>
      </trkpt>
      <trkpt lat="43.147658" lon="-2.8550909">
        <ele>116.391</ele>
        <time>2021-04-01T07:50:44.224Z</time>
      </trkpt>
      <trkpt lat="43.1476572" lon="-2.8550823">
        <ele>116.38</ele>
        <time>2021-04-01T07:50:44.353Z</time>
      </trkpt>
      <trkpt lat="43.147656" lon="-2.8550652">
        <ele>116.428</ele>
        <time>2021-04-01T07:50:44.481Z</time>
      </trkpt>
      <trkpt lat="43.1476516" lon="-2.8550045">
        <ele>116.205</ele>
        <time>2021-04-01T07:50:46.590Z</time>
      </trkpt>
      <trkpt lat="43.1476359" lon="-2.8548526">
        <ele>116.185</ele>
        <time>2021-04-01T07:50:48.460Z</time>
      </trkpt>
      <trkpt lat="43.1476357" lon="-2.8548482">
        <ele>116.198</ele>
        <time>2021-04-01T07:50:48.590Z</time>
      </trkpt>
      <trkpt lat="43.1476344" lon="-2.8548313">
        <ele>116.29</ele>
        <time>2021-04-01T07:50:48.721Z</time>
      </trkpt>
      <trkpt lat="43.1476359" lon="-2.8548526">
        <ele>116.185</ele>
        <time>2021-04-01T07:50:48.851Z</time>
      </trkpt>
      <trkpt lat="43.1476357" lon="-2.8548482">
        <ele>116.198</ele>
        <time>2021-04-01T07:50:48.982Z</time>
      </trkpt>
      <trkpt lat="43.1476344" lon="-2.8548313">
        <ele>116.29</ele>
        <time>2021-04-01T07:50:49.113Z</time>
      </trkpt>
      <trkpt lat="43.1476359" lon="-2.8548526">
        <ele>116.185</ele>
        <time>2021-04-01T07:50:49.243Z</time>
      </trkpt>
      <trkpt lat="43.1476357" lon="-2.8548482">
        <ele>116.198</ele>
        <time>2021-04-01T07:50:49.374Z</time>
      </trkpt>
      <trkpt lat="43.1476344" lon="-2.8548313">
        <ele>116.29</ele>
        <time>2021-04-01T07:50:49.505Z</time>
      </trkpt>
      <trkpt lat="43.1476099" lon="-2.8544625">
        <ele>117.337</ele>
        <time>2021-04-01T07:50:52.475Z</time>
      </trkpt>
      <trkpt lat="43.1475955" lon="-2.8543973">
        <ele>117.415</ele>
        <time>2021-04-01T07:50:52.743Z</time>
      </trkpt>
      <trkpt lat="43.1475866" lon="-2.8543511">
        <ele>117.641</ele>
        <time>2021-04-01T07:50:53.011Z</time>
      </trkpt>
      <trkpt lat="43.1475841" lon="-2.8543385">
        <ele>117.687</ele>
        <time>2021-04-01T07:50:53.279Z</time>
      </trkpt>
      <trkpt lat="43.1475866" lon="-2.8543511">
        <ele>117.641</ele>
        <time>2021-04-01T07:50:53.547Z</time>
      </trkpt>
      <trkpt lat="43.1475841" lon="-2.8543385">
        <ele>117.687</ele>
        <time>2021-04-01T07:50:53.815Z</time>
      </trkpt>
      <trkpt lat="43.1475866" lon="-2.8543511">
        <ele>117.641</ele>
        <time>2021-04-01T07:50:54.083Z</time>
      </trkpt>
      <trkpt lat="43.1475841" lon="-2.8543385">
        <ele>117.687</ele>
        <time>2021-04-01T07:50:54.351Z</time>
      </trkpt>
      <trkpt lat="43.1475608" lon="-2.8542298">
        <ele>117.808</ele>
        <time>2021-04-01T07:50:56.600Z</time>
      </trkpt>
      <trkpt lat="43.1475585" lon="-2.8542166">
        <ele>117.822</ele>
        <time>2021-04-01T07:50:57.260Z</time>
      </trkpt>
      <trkpt lat="43.1475212" lon="-2.8540172">
        <ele>117.653</ele>
        <time>2021-04-01T07:50:57.576Z</time>
      </trkpt>
      <trkpt lat="43.147515" lon="-2.8539761">
        <ele>117.717</ele>
        <time>2021-04-01T07:50:57.892Z</time>
      </trkpt>
      <trkpt lat="43.147515" lon="-2.8539761">
        <ele>117.717</ele>
        <time>2021-04-01T07:50:58.208Z</time>
      </trkpt>
      <trkpt lat="43.1475055" lon="-2.8539121">
        <ele>117.782</ele>
        <time>2021-04-01T07:50:58.525Z</time>
      </trkpt>
      <trkpt lat="43.1474975" lon="-2.8538352">
        <ele>117.915</ele>
        <time>2021-04-01T07:50:58.910Z</time>
      </trkpt>
      <trkpt lat="43.1474975" lon="-2.8538352">
        <ele>117.915</ele>
        <time>2021-04-01T07:50:59.295Z</time>
      </trkpt>
      <trkpt lat="43.1474956" lon="-2.8538127">
        <ele>117.983</ele>
        <time>2021-04-01T07:50:59.680Z</time>
      </trkpt>
      <trkpt lat="43.1474975" lon="-2.8538352">
        <ele>117.915</ele>
        <time>2021-04-01T07:51:00.065Z</time>
      </trkpt>
      <trkpt lat="43.1474956" lon="-2.8538127">
        <ele>117.983</ele>
        <time>2021-04-01T07:51:00.450Z</time>
      </trkpt>
      <trkpt lat="43.1474973" lon="-2.8537213">
        <ele>118.087</ele>
        <time>2021-04-01T07:51:02.485Z</time>
      </trkpt>
      <trkpt lat="43.1475158" lon="-2.8535865">
        <ele>118.257</ele>
        <time>2021-04-01T07:51:02.650Z</time>
      </trkpt>
      <trkpt lat="43.1475195" lon="-2.8535734">
        <ele>118.255</ele>
        <time>2021-04-01T07:51:02.815Z</time>
      </trkpt>
      <trkpt lat="43.1475213" lon="-2.8535643">
        <ele>118.325</ele>
        <time>2021-04-01T07:51:02.980Z</time>
      </trkpt>
      <trkpt lat="43.1475158" lon="-2.8535865">
        <ele>118.257</ele>
        <time>2021-04-01T07:51:03.145Z</time>
      </trkpt>
      <trkpt lat="43.1475195" lon="-2.8535734">
        <ele>118.255</ele>
        <time>2021-04-01T07:51:03.310Z</time>
      </trkpt>
      <trkpt lat="43.1475213" lon="-2.8535643">
        <ele>118.325</ele>
        <time>2021-04-01T07:51:03.475Z</time>
      </trkpt>
      <trkpt lat="43.1475406" lon="-2.8534956">
        <ele>118.221</ele>
        <time>2021-04-01T07:51:05.730Z</time>
      </trkpt>
      <trkpt lat="43.1475876" lon="-2.8533304">
        <ele>117.887</ele>
        <time>2021-04-01T07:51:06.096Z</time>
      </trkpt>
      <trkpt lat="43.1475876" lon="-2.8533304">
        <ele>117.887</ele>
        <time>2021-04-01T07:51:06.463Z</time>
      </trkpt>
      <trkpt lat="43.1476155" lon="-2.8532452">
        <ele>117.808</ele>
        <time>2021-04-01T07:51:06.830Z</time>
      </trkpt>
      <trkpt lat="43.1476242" lon="-2.8532193">
        <ele>117.973</ele>
        <time>2021-04-01T07:51:07.306Z</time>
      </trkpt>
      <trkpt lat="43.1476242" lon="-2.8532193">
        <ele>117.973</ele>
        <time>2021-04-01T07:51:07.783Z</time>
      </trkpt>
      <trkpt lat="43.1476569" lon="-2.8531396">
        <ele>117.974</ele>
        <time>2021-04-01T07:51:09.690Z</time>
      </trkpt>
      <trkpt lat="43.1476973" lon="-2.8530325">
        <ele>118.367</ele>
        <time>2021-04-01T07:51:09.951Z</time>
      </trkpt>
      <trkpt lat="43.147717" lon="-2.8529751">
        <ele>118.42</ele>
        <time>2021-04-01T07:51:10.212Z</time>
      </trkpt>
      <trkpt lat="43.1477152" lon="-2.8529792">
        <ele>118.396</ele>
        <time>2021-04-01T07:51:10.473Z</time>
      </trkpt>
      <trkpt lat="43.147717" lon="-2.8529751">
        <ele>118.42</ele>
        <time>2021-04-01T07:51:10.735Z</time>
      </trkpt>
      <trkpt lat="43.1477248" lon="-2.8529548">
        <ele>118.512</ele>
        <time>2021-04-01T07:51:10.996Z</time>
      </trkpt>
      <trkpt lat="43.147717" lon="-2.8529751">
        <ele>118.42</ele>
        <time>2021-04-01T07:51:11.257Z</time>
      </trkpt>
      <trkpt lat="43.1477248" lon="-2.8529548">
        <ele>118.512</ele>
        <time>2021-04-01T07:51:11.518Z</time>
      </trkpt>
      <trkpt lat="43.1477527" lon="-2.8528787">
        <ele>118.273</ele>
        <time>2021-04-01T07:51:13.595Z</time>
      </trkpt>
      <trkpt lat="43.1477973" lon="-2.8527428">
        <ele>117.762</ele>
        <time>2021-04-01T07:51:15.685Z</time>
      </trkpt>
      <trkpt lat="43.1478003" lon="-2.8527347">
        <ele>117.749</ele>
        <time>2021-04-01T07:51:15.795Z</time>
      </trkpt>
      <trkpt lat="43.1478031" lon="-2.8527267">
        <ele>117.744</ele>
        <time>2021-04-01T07:51:15.905Z</time>
      </trkpt>
      <trkpt lat="43.1478047" lon="-2.8527225">
        <ele>117.785</ele>
        <time>2021-04-01T07:51:16.015Z</time>
      </trkpt>
      <trkpt lat="43.1478003" lon="-2.8527347">
        <ele>117.749</ele>
        <time>2021-04-01T07:51:16.125Z</time>
      </trkpt>
      <trkpt lat="43.1478031" lon="-2.8527267">
        <ele>117.744</ele>
        <time>2021-04-01T07:51:16.235Z</time>
      </trkpt>
      <trkpt lat="43.1478047" lon="-2.8527225">
        <ele>117.785</ele>
        <time>2021-04-01T07:51:16.345Z</time>
      </trkpt>
      <trkpt lat="43.147852" lon="-2.8525898">
        <ele>118.035</ele>
        <time>2021-04-01T07:51:16.455Z</time>
      </trkpt>
      <trkpt lat="43.1478373" lon="-2.85263">
        <ele>117.992</ele>
        <time>2021-04-01T07:51:16.565Z</time>
      </trkpt>
      <trkpt lat="43.1478373" lon="-2.85263">
        <ele>117.992</ele>
        <time>2021-04-01T07:51:16.675Z</time>
      </trkpt>
      <trkpt lat="43.1478831" lon="-2.8525082">
        <ele>118.508</ele>
        <time>2021-04-01T07:51:16.785Z</time>
      </trkpt>
      <trkpt lat="43.1478884" lon="-2.8524927">
        <ele>118.458</ele>
        <time>2021-04-01T07:51:17.088Z</time>
      </trkpt>
      <trkpt lat="43.1478831" lon="-2.8525082">
        <ele>118.508</ele>
        <time>2021-04-01T07:51:17.392Z</time>
      </trkpt>
      <trkpt lat="43.1478884" lon="-2.8524927">
        <ele>118.458</ele>
        <time>2021-04-01T07:51:17.696Z</time>
      </trkpt>
      <trkpt lat="43.1479134" lon="-2.8524232">
        <ele>118.664</ele>
        <time>2021-04-01T07:51:19.590Z</time>
      </trkpt>
      <trkpt lat="43.147953" lon="-2.8523105">
        <ele>118.932</ele>
        <time>2021-04-01T07:51:19.723Z</time>
      </trkpt>
      <trkpt lat="43.1479625" lon="-2.8522837">
        <ele>118.891</ele>
        <time>2021-04-01T07:51:19.857Z</time>
      </trkpt>
      <trkpt lat="43.14796" lon="-2.8522917">
        <ele>118.862</ele>
        <time>2021-04-01T07:51:19.990Z</time>
      </trkpt>
      <trkpt lat="43.1479625" lon="-2.8522837">
        <ele>118.891</ele>
        <time>2021-04-01T07:51:20.124Z</time>
      </trkpt>
      <trkpt lat="43.14796" lon="-2.8522917">
        <ele>118.862</ele>
        <time>2021-04-01T07:51:20.257Z</time>
      </trkpt>
      <trkpt lat="43.1479625" lon="-2.8522837">
        <ele>118.891</ele>
        <time>2021-04-01T07:51:20.391Z</time>
      </trkpt>
      <trkpt lat="43.1479775" lon="-2.852243">
        <ele>119.165</ele>
        <time>2021-04-01T07:51:20.525Z</time>
      </trkpt>
      <trkpt lat="43.1479902" lon="-2.8522065">
        <ele>119.188</ele>
        <time>2021-04-01T07:51:20.723Z</time>
      </trkpt>
      <trkpt lat="43.1479955" lon="-2.8521899">
        <ele>119.291</ele>
        <time>2021-04-01T07:51:20.921Z</time>
      </trkpt>
      <trkpt lat="43.1480072" lon="-2.8521588">
        <ele>119.234</ele>
        <time>2021-04-01T07:51:21.119Z</time>
      </trkpt>
      <trkpt lat="43.1479902" lon="-2.8522065">
        <ele>119.188</ele>
        <time>2021-04-01T07:51:21.317Z</time>
      </trkpt>
      <trkpt lat="43.14801" lon="-2.8521507">
        <ele>119.288</ele>
        <time>2021-04-01T07:51:21.515Z</time>
      </trkpt>
      <trkpt lat="43.1480072" lon="-2.8521588">
        <ele>119.234</ele>
        <time>2021-04-01T07:51:21.713Z</time>
      </trkpt>
      <trkpt lat="43.14801" lon="-2.8521507">
        <ele>119.288</ele>
        <time>2021-04-01T07:51:21.911Z</time>
      </trkpt>
      <trkpt lat="43.1480072" lon="-2.8521588">
        <ele>119.234</ele>
        <time>2021-04-01T07:51:22.109Z</time>
      </trkpt>
      <trkpt lat="43.14801" lon="-2.8521507">
        <ele>119.288</ele>
        <time>2021-04-01T07:51:22.307Z</time>
      </trkpt>
      <trkpt lat="43.1480291" lon="-2.8520995">
        <ele>119.513</ele>
        <time>2021-04-01T07:51:23.880Z</time>
      </trkpt>
      <trkpt lat="43.1480658" lon="-2.8520004">
        <ele>119.643</ele>
        <time>2021-04-01T07:51:24.134Z</time>
      </trkpt>
      <trkpt lat="43.1480908" lon="-2.8519355">
        <ele>119.734</ele>
        <time>2021-04-01T07:51:24.388Z</time>
      </trkpt>
      <trkpt lat="43.1480934" lon="-2.8519271">
        <ele>119.723</ele>
        <time>2021-04-01T07:51:24.643Z</time>
      </trkpt>
      <trkpt lat="43.1480908" lon="-2.8519355">
        <ele>119.734</ele>
        <time>2021-04-01T07:51:24.897Z</time>
      </trkpt>
      <trkpt lat="43.1480934" lon="-2.8519271">
        <ele>119.723</ele>
        <time>2021-04-01T07:51:25.151Z</time>
      </trkpt>
      <trkpt lat="43.1480908" lon="-2.8519355">
        <ele>119.734</ele>
        <time>2021-04-01T07:51:25.406Z</time>
      </trkpt>
      <trkpt lat="43.1480934" lon="-2.8519271">
        <ele>119.723</ele>
        <time>2021-04-01T07:51:25.660Z</time>
      </trkpt>
      <trkpt lat="43.1481212" lon="-2.8518565">
        <ele>119.709</ele>
        <time>2021-04-01T07:51:26.960Z</time>
      </trkpt>
      <trkpt lat="43.148148" lon="-2.8517813">
        <ele>119.606</ele>
        <time>2021-04-01T07:51:27.301Z</time>
      </trkpt>
      <trkpt lat="43.1481754" lon="-2.851703">
        <ele>119.348</ele>
        <time>2021-04-01T07:51:27.642Z</time>
      </trkpt>
      <trkpt lat="43.1481754" lon="-2.851703">
        <ele>119.348</ele>
        <time>2021-04-01T07:51:27.983Z</time>
      </trkpt>
      <trkpt lat="43.1481754" lon="-2.851703">
        <ele>119.348</ele>
        <time>2021-04-01T07:51:28.324Z</time>
      </trkpt>
      <trkpt lat="43.1481885" lon="-2.8516617">
        <ele>118.993</ele>
        <time>2021-04-01T07:51:28.665Z</time>
      </trkpt>
      <trkpt lat="43.1481957" lon="-2.8516395">
        <ele>118.703</ele>
        <time>2021-04-01T07:51:28.903Z</time>
      </trkpt>
      <trkpt lat="43.1481985" lon="-2.8516317">
        <ele>118.673</ele>
        <time>2021-04-01T07:51:29.141Z</time>
      </trkpt>
      <trkpt lat="43.1481932" lon="-2.8516469">
        <ele>118.8</ele>
        <time>2021-04-01T07:51:29.379Z</time>
      </trkpt>
      <trkpt lat="43.1482015" lon="-2.851624">
        <ele>118.655</ele>
        <time>2021-04-01T07:51:29.618Z</time>
      </trkpt>
      <trkpt lat="43.1482015" lon="-2.851624">
        <ele>118.655</ele>
        <time>2021-04-01T07:51:29.856Z</time>
      </trkpt>
      <trkpt lat="43.1482247" lon="-2.851563">
        <ele>118.528</ele>
        <time>2021-04-01T07:51:32.900Z</time>
      </trkpt>
      <trkpt lat="43.1483506" lon="-2.8512208">
        <ele>118.147</ele>
        <time>2021-04-01T07:51:34.990Z</time>
      </trkpt>
      <trkpt lat="43.1483615" lon="-2.851186">
        <ele>118.096</ele>
        <time>2021-04-01T07:51:35.280Z</time>
      </trkpt>
      <trkpt lat="43.1483736" lon="-2.8511474">
        <ele>118.177</ele>
        <time>2021-04-01T07:51:35.571Z</time>
      </trkpt>
      <trkpt lat="43.1483722" lon="-2.8511513">
        <ele>118.154</ele>
        <time>2021-04-01T07:51:35.862Z</time>
      </trkpt>
      <trkpt lat="43.1483736" lon="-2.8511474">
        <ele>118.177</ele>
        <time>2021-04-01T07:51:36.152Z</time>
      </trkpt>
      <trkpt lat="43.1483722" lon="-2.8511513">
        <ele>118.154</ele>
        <time>2021-04-01T07:51:36.443Z</time>
      </trkpt>
      <trkpt lat="43.1483736" lon="-2.8511474">
        <ele>118.177</ele>
        <time>2021-04-01T07:51:36.734Z</time>
      </trkpt>
      <trkpt lat="43.1483909" lon="-2.8510778">
        <ele>118.001</ele>
        <time>2021-04-01T07:51:37.025Z</time>
      </trkpt>
      <trkpt lat="43.1483937" lon="-2.8510659">
        <ele>118.005</ele>
        <time>2021-04-01T07:51:37.300Z</time>
      </trkpt>
      <trkpt lat="43.1483909" lon="-2.8510778">
        <ele>118.001</ele>
        <time>2021-04-01T07:51:37.575Z</time>
      </trkpt>
      <trkpt lat="43.1483937" lon="-2.8510659">
        <ele>118.005</ele>
        <time>2021-04-01T07:51:37.850Z</time>
      </trkpt>
      <trkpt lat="43.1484077" lon="-2.8509985">
        <ele>118.016</ele>
        <time>2021-04-01T07:51:38.125Z</time>
      </trkpt>
      <trkpt lat="43.1484108" lon="-2.8509817">
        <ele>118.079</ele>
        <time>2021-04-01T07:51:38.686Z</time>
      </trkpt>
      <trkpt lat="43.1484193" lon="-2.8509247">
        <ele>118.054</ele>
        <time>2021-04-01T07:51:39.247Z</time>
      </trkpt>
      <trkpt lat="43.1484108" lon="-2.8509817">
        <ele>118.079</ele>
        <time>2021-04-01T07:51:39.808Z</time>
      </trkpt>
      <trkpt lat="43.1484193" lon="-2.8509247">
        <ele>118.054</ele>
        <time>2021-04-01T07:51:40.369Z</time>
      </trkpt>
      <trkpt lat="43.1484274" lon="-2.8507887">
        <ele>117.896</ele>
        <time>2021-04-01T07:51:42.030Z</time>
      </trkpt>
      <trkpt lat="43.1484226" lon="-2.8507062">
        <ele>118.005</ele>
        <time>2021-04-01T07:51:42.378Z</time>
      </trkpt>
      <trkpt lat="43.1484216" lon="-2.8506981">
        <ele>118.018</ele>
        <time>2021-04-01T07:51:42.726Z</time>
      </trkpt>
      <trkpt lat="43.1484084" lon="-2.8506298">
        <ele>118.116</ele>
        <time>2021-04-01T07:51:45.000Z</time>
      </trkpt>
      <trkpt lat="43.1482975" lon="-2.8503826">
        <ele>118.312</ele>
        <time>2021-04-01T07:51:47.750Z</time>
      </trkpt>
      <trkpt lat="43.1482688" lon="-2.8503384">
        <ele>118.219</ele>
        <time>2021-04-01T07:51:48.483Z</time>
      </trkpt>
      <trkpt lat="43.1482647" lon="-2.8503317">
        <ele>118.189</ele>
        <time>2021-04-01T07:51:49.216Z</time>
      </trkpt>
      <trkpt lat="43.1481836" lon="-2.850208">
        <ele>117.951</ele>
        <time>2021-04-01T07:51:50.720Z</time>
      </trkpt>
      <trkpt lat="43.1481534" lon="-2.8501616">
        <ele>117.928</ele>
        <time>2021-04-01T07:51:52.975Z</time>
      </trkpt>
      <trkpt lat="43.1481317" lon="-2.8501294">
        <ele>117.831</ele>
        <time>2021-04-01T07:51:53.165Z</time>
      </trkpt>
      <trkpt lat="43.1481185" lon="-2.8501098">
        <ele>117.801</ele>
        <time>2021-04-01T07:51:53.355Z</time>
      </trkpt>
      <trkpt lat="43.1481164" lon="-2.8501066">
        <ele>117.793</ele>
        <time>2021-04-01T07:51:53.545Z</time>
      </trkpt>
      <trkpt lat="43.1481399" lon="-2.8501429">
        <ele>117.822</ele>
        <time>2021-04-01T07:51:53.735Z</time>
      </trkpt>
      <trkpt lat="43.1481317" lon="-2.8501294">
        <ele>117.831</ele>
        <time>2021-04-01T07:51:53.925Z</time>
      </trkpt>
      <trkpt lat="43.1481185" lon="-2.8501098">
        <ele>117.801</ele>
        <time>2021-04-01T07:51:54.115Z</time>
      </trkpt>
      <trkpt lat="43.1481164" lon="-2.8501066">
        <ele>117.793</ele>
        <time>2021-04-01T07:51:54.305Z</time>
      </trkpt>
      <trkpt lat="43.1481399" lon="-2.8501429">
        <ele>117.822</ele>
        <time>2021-04-01T07:51:54.495Z</time>
      </trkpt>
      <trkpt lat="43.1481317" lon="-2.8501294">
        <ele>117.831</ele>
        <time>2021-04-01T07:51:54.685Z</time>
      </trkpt>
      <trkpt lat="43.1481185" lon="-2.8501098">
        <ele>117.801</ele>
        <time>2021-04-01T07:51:54.875Z</time>
      </trkpt>
      <trkpt lat="43.1481164" lon="-2.8501066">
        <ele>117.793</ele>
        <time>2021-04-01T07:51:55.065Z</time>
      </trkpt>
      <trkpt lat="43.1479815" lon="-2.8499058">
        <ele>118.43</ele>
        <time>2021-04-01T07:51:55.199Z</time>
      </trkpt>
      <trkpt lat="43.1479994" lon="-2.8499304">
        <ele>118.379</ele>
        <time>2021-04-01T07:51:55.333Z</time>
      </trkpt>
      <trkpt lat="43.1479926" lon="-2.849921">
        <ele>118.379</ele>
        <time>2021-04-01T07:51:55.468Z</time>
      </trkpt>
      <trkpt lat="43.1479994" lon="-2.8499304">
        <ele>118.379</ele>
        <time>2021-04-01T07:51:55.602Z</time>
      </trkpt>
      <trkpt lat="43.1479926" lon="-2.849921">
        <ele>118.379</ele>
        <time>2021-04-01T07:51:55.737Z</time>
      </trkpt>
      <trkpt lat="43.147988" lon="-2.8499148">
        <ele>118.429</ele>
        <time>2021-04-01T07:51:55.871Z</time>
      </trkpt>
      <trkpt lat="43.1479926" lon="-2.849921">
        <ele>118.379</ele>
        <time>2021-04-01T07:51:56.006Z</time>
      </trkpt>
      <trkpt lat="43.147988" lon="-2.8499148">
        <ele>118.429</ele>
        <time>2021-04-01T07:51:56.140Z</time>
      </trkpt>
      <trkpt lat="43.1479315" lon="-2.8498381">
        <ele>118.661</ele>
        <time>2021-04-01T07:51:57.540Z</time>
      </trkpt>
      <trkpt lat="43.1478812" lon="-2.8497673">
        <ele>118.721</ele>
        <time>2021-04-01T07:51:57.830Z</time>
      </trkpt>
      <trkpt lat="43.1478791" lon="-2.8497639">
        <ele>118.766</ele>
        <time>2021-04-01T07:51:58.121Z</time>
      </trkpt>
      <trkpt lat="43.1478662" lon="-2.849746">
        <ele>118.792</ele>
        <time>2021-04-01T07:51:58.412Z</time>
      </trkpt>
      <trkpt lat="43.1478812" lon="-2.8497673">
        <ele>118.721</ele>
        <time>2021-04-01T07:51:58.702Z</time>
      </trkpt>
      <trkpt lat="43.1478662" lon="-2.849746">
        <ele>118.792</ele>
        <time>2021-04-01T07:51:58.993Z</time>
      </trkpt>
      <trkpt lat="43.1478662" lon="-2.849746">
        <ele>118.792</ele>
        <time>2021-04-01T07:51:59.284Z</time>
      </trkpt>
      <trkpt lat="43.1478007" lon="-2.8496563">
        <ele>118.496</ele>
        <time>2021-04-01T07:51:59.575Z</time>
      </trkpt>
      <trkpt lat="43.1478007" lon="-2.8496563">
        <ele>118.496</ele>
        <time>2021-04-01T07:52:00.070Z</time>
      </trkpt>
      <trkpt lat="43.1478007" lon="-2.8496563">
        <ele>118.496</ele>
        <time>2021-04-01T07:52:00.565Z</time>
      </trkpt>
      <trkpt lat="43.1477439" lon="-2.8495754">
        <ele>118.795</ele>
        <time>2021-04-01T07:52:01.830Z</time>
      </trkpt>
      <trkpt lat="43.1477419" lon="-2.8495723">
        <ele>118.78</ele>
        <time>2021-04-01T07:52:02.173Z</time>
      </trkpt>
      <trkpt lat="43.147746" lon="-2.8495784">
        <ele>118.79</ele>
        <time>2021-04-01T07:52:02.517Z</time>
      </trkpt>
      <trkpt lat="43.1477439" lon="-2.8495754">
        <ele>118.795</ele>
        <time>2021-04-01T07:52:02.861Z</time>
      </trkpt>
      <trkpt lat="43.1477419" lon="-2.8495723">
        <ele>118.78</ele>
        <time>2021-04-01T07:52:03.205Z</time>
      </trkpt>
      <trkpt lat="43.1476903" lon="-2.8494887">
        <ele>119.355</ele>
        <time>2021-04-01T07:52:03.791Z</time>
      </trkpt>
      <trkpt lat="43.1476903" lon="-2.8494887">
        <ele>119.355</ele>
        <time>2021-04-01T07:52:04.378Z</time>
      </trkpt>
      <trkpt lat="43.1476903" lon="-2.8494887">
        <ele>119.355</ele>
        <time>2021-04-01T07:52:04.965Z</time>
      </trkpt>
      <trkpt lat="43.1476208" lon="-2.8493424">
        <ele>120.143</ele>
        <time>2021-04-01T07:52:05.288Z</time>
      </trkpt>
      <trkpt lat="43.1476069" lon="-2.8492923">
        <ele>120.416</ele>
        <time>2021-04-01T07:52:05.611Z</time>
      </trkpt>
      <trkpt lat="43.1476069" lon="-2.8492923">
        <ele>120.416</ele>
        <time>2021-04-01T07:52:05.934Z</time>
      </trkpt>
      <trkpt lat="43.1476029" lon="-2.8492767">
        <ele>120.52</ele>
        <time>2021-04-01T07:52:06.257Z</time>
      </trkpt>
      <trkpt lat="43.1476016" lon="-2.8492684">
        <ele>120.629</ele>
        <time>2021-04-01T07:52:06.580Z</time>
      </trkpt>
      <trkpt lat="43.1476029" lon="-2.8492767">
        <ele>120.52</ele>
        <time>2021-04-01T07:52:06.903Z</time>
      </trkpt>
      <trkpt lat="43.1476016" lon="-2.8492684">
        <ele>120.629</ele>
        <time>2021-04-01T07:52:07.226Z</time>
      </trkpt>
      <trkpt lat="43.1475997" lon="-2.8491542">
        <ele>121.162</ele>
        <time>2021-04-01T07:52:08.815Z</time>
      </trkpt>
      <trkpt lat="43.1476102" lon="-2.8490647">
        <ele>121.492</ele>
        <time>2021-04-01T07:52:09.090Z</time>
      </trkpt>
      <trkpt lat="43.1476102" lon="-2.8490647">
        <ele>121.492</ele>
        <time>2021-04-01T07:52:09.365Z</time>
      </trkpt>
      <trkpt lat="43.1476102" lon="-2.8490647">
        <ele>121.492</ele>
        <time>2021-04-01T07:52:09.640Z</time>
      </trkpt>
      <trkpt lat="43.1476277" lon="-2.8489908">
        <ele>121.623</ele>
        <time>2021-04-01T07:52:09.915Z</time>
      </trkpt>
      <trkpt lat="43.1476315" lon="-2.8489721">
        <ele>121.566</ele>
        <time>2021-04-01T07:52:10.373Z</time>
      </trkpt>
      <trkpt lat="43.1476328" lon="-2.8489638">
        <ele>121.638</ele>
        <time>2021-04-01T07:52:10.831Z</time>
      </trkpt>
      <trkpt lat="43.147646" lon="-2.8488931">
        <ele>121.729</ele>
        <time>2021-04-01T07:52:13.160Z</time>
      </trkpt>
      <trkpt lat="43.1476614" lon="-2.848763">
        <ele>121.974</ele>
        <time>2021-04-01T07:52:13.450Z</time>
      </trkpt>
      <trkpt lat="43.1476613" lon="-2.8487593">
        <ele>121.977</ele>
        <time>2021-04-01T07:52:13.741Z</time>
      </trkpt>
      <trkpt lat="43.1476613" lon="-2.8487555">
        <ele>121.996</ele>
        <time>2021-04-01T07:52:14.032Z</time>
      </trkpt>
      <trkpt lat="43.1476614" lon="-2.848763">
        <ele>121.974</ele>
        <time>2021-04-01T07:52:14.322Z</time>
      </trkpt>
      <trkpt lat="43.1476613" lon="-2.8487593">
        <ele>121.977</ele>
        <time>2021-04-01T07:52:14.613Z</time>
      </trkpt>
      <trkpt lat="43.1476613" lon="-2.8487555">
        <ele>121.996</ele>
        <time>2021-04-01T07:52:14.904Z</time>
      </trkpt>
      <trkpt lat="43.1476523" lon="-2.848629">
        <ele>121.42</ele>
        <time>2021-04-01T07:52:16.295Z</time>
      </trkpt>
      <trkpt lat="43.1476365" lon="-2.8485573">
        <ele>121.506</ele>
        <time>2021-04-01T07:52:16.780Z</time>
      </trkpt>
      <trkpt lat="43.1476257" lon="-2.8485122">
        <ele>121.638</ele>
        <time>2021-04-01T07:52:17.266Z</time>
      </trkpt>
      <trkpt lat="43.1476304" lon="-2.8485314">
        <ele>121.566</ele>
        <time>2021-04-01T07:52:17.752Z</time>
      </trkpt>
      <trkpt lat="43.1476257" lon="-2.8485122">
        <ele>121.638</ele>
        <time>2021-04-01T07:52:18.238Z</time>
      </trkpt>
      <trkpt lat="43.1476257" lon="-2.8485122">
        <ele>121.638</ele>
        <time>2021-04-01T07:52:18.724Z</time>
      </trkpt>
      <trkpt lat="43.1475947" lon="-2.8483656">
        <ele>121.401</ele>
        <time>2021-04-01T07:52:19.980Z</time>
      </trkpt>
      <trkpt lat="43.1475823" lon="-2.8483184">
        <ele>121.457</ele>
        <time>2021-04-01T07:52:20.175Z</time>
      </trkpt>
      <trkpt lat="43.14758" lon="-2.8483087">
        <ele>121.405</ele>
        <time>2021-04-01T07:52:20.371Z</time>
      </trkpt>
      <trkpt lat="43.1475823" lon="-2.8483184">
        <ele>121.457</ele>
        <time>2021-04-01T07:52:20.566Z</time>
      </trkpt>
      <trkpt lat="43.14758" lon="-2.8483087">
        <ele>121.405</ele>
        <time>2021-04-01T07:52:20.762Z</time>
      </trkpt>
      <trkpt lat="43.1475792" lon="-2.848305">
        <ele>121.442</ele>
        <time>2021-04-01T07:52:20.957Z</time>
      </trkpt>
      <trkpt lat="43.1475823" lon="-2.8483184">
        <ele>121.457</ele>
        <time>2021-04-01T07:52:21.153Z</time>
      </trkpt>
      <trkpt lat="43.14758" lon="-2.8483087">
        <ele>121.405</ele>
        <time>2021-04-01T07:52:21.348Z</time>
      </trkpt>
      <trkpt lat="43.1475792" lon="-2.848305">
        <ele>121.442</ele>
        <time>2021-04-01T07:52:21.544Z</time>
      </trkpt>
      <trkpt lat="43.1475519" lon="-2.8482076">
        <ele>121.639</ele>
        <time>2021-04-01T07:52:21.740Z</time>
      </trkpt>
      <trkpt lat="43.1475519" lon="-2.8482076">
        <ele>121.639</ele>
        <time>2021-04-01T07:52:21.941Z</time>
      </trkpt>
      <trkpt lat="43.1475519" lon="-2.8482076">
        <ele>121.639</ele>
        <time>2021-04-01T07:52:22.143Z</time>
      </trkpt>
      <trkpt lat="43.14754" lon="-2.8481679">
        <ele>121.63</ele>
        <time>2021-04-01T07:52:24.270Z</time>
      </trkpt>
      <trkpt lat="43.1474992" lon="-2.8480428">
        <ele>121.61</ele>
        <time>2021-04-01T07:52:25.755Z</time>
      </trkpt>
      <trkpt lat="43.1474925" lon="-2.8480247">
        <ele>121.478</ele>
        <time>2021-04-01T07:52:26.011Z</time>
      </trkpt>
      <trkpt lat="43.1474815" lon="-2.8479964">
        <ele>121.362</ele>
        <time>2021-04-01T07:52:26.268Z</time>
      </trkpt>
      <trkpt lat="43.1474831" lon="-2.848">
        <ele>121.373</ele>
        <time>2021-04-01T07:52:26.525Z</time>
      </trkpt>
      <trkpt lat="43.1474815" lon="-2.8479964">
        <ele>121.362</ele>
        <time>2021-04-01T07:52:26.781Z</time>
      </trkpt>
      <trkpt lat="43.1474831" lon="-2.848">
        <ele>121.373</ele>
        <time>2021-04-01T07:52:27.038Z</time>
      </trkpt>
      <trkpt lat="43.1474815" lon="-2.8479964">
        <ele>121.362</ele>
        <time>2021-04-01T07:52:27.295Z</time>
      </trkpt>
      <trkpt lat="43.1474187" lon="-2.847852">
        <ele>120.862</ele>
        <time>2021-04-01T07:52:27.872Z</time>
      </trkpt>
      <trkpt lat="43.1473976" lon="-2.8478029">
        <ele>120.779</ele>
        <time>2021-04-01T07:52:28.450Z</time>
      </trkpt>
      <trkpt lat="43.1473976" lon="-2.8478029">
        <ele>120.779</ele>
        <time>2021-04-01T07:52:29.027Z</time>
      </trkpt>
      <trkpt lat="43.1473557" lon="-2.8477035">
        <ele>120.416</ele>
        <time>2021-04-01T07:52:31.035Z</time>
      </trkpt>
      <trkpt lat="43.1473216" lon="-2.8476046">
        <ele>120.292</ele>
        <time>2021-04-01T07:52:31.255Z</time>
      </trkpt>
      <trkpt lat="43.1473216" lon="-2.8476046">
        <ele>120.292</ele>
        <time>2021-04-01T07:52:31.475Z</time>
      </trkpt>
      <trkpt lat="43.1473095" lon="-2.8475564">
        <ele>120.138</ele>
        <time>2021-04-01T07:52:31.695Z</time>
      </trkpt>
      <trkpt lat="43.1473027" lon="-2.8475057">
        <ele>119.982</ele>
        <time>2021-04-01T07:52:31.860Z</time>
      </trkpt>
      <trkpt lat="43.1473024" lon="-2.8475012">
        <ele>119.994</ele>
        <time>2021-04-01T07:52:32.025Z</time>
      </trkpt>
      <trkpt lat="43.1473014" lon="-2.8474972">
        <ele>119.938</ele>
        <time>2021-04-01T07:52:32.190Z</time>
      </trkpt>
      <trkpt lat="43.1473027" lon="-2.8475057">
        <ele>119.982</ele>
        <time>2021-04-01T07:52:32.355Z</time>
      </trkpt>
      <trkpt lat="43.1473024" lon="-2.8475012">
        <ele>119.994</ele>
        <time>2021-04-01T07:52:32.520Z</time>
      </trkpt>
      <trkpt lat="43.1473014" lon="-2.8474972">
        <ele>119.938</ele>
        <time>2021-04-01T07:52:32.685Z</time>
      </trkpt>
      <trkpt lat="43.1473027" lon="-2.8475057">
        <ele>119.982</ele>
        <time>2021-04-01T07:52:32.850Z</time>
      </trkpt>
      <trkpt lat="43.1473024" lon="-2.8475012">
        <ele>119.994</ele>
        <time>2021-04-01T07:52:33.015Z</time>
      </trkpt>
      <trkpt lat="43.1473014" lon="-2.8474972">
        <ele>119.938</ele>
        <time>2021-04-01T07:52:33.180Z</time>
      </trkpt>
      <trkpt lat="43.1472948" lon="-2.8474284">
        <ele>119.886</ele>
        <time>2021-04-01T07:52:34.940Z</time>
      </trkpt>
      <trkpt lat="43.1472959" lon="-2.8473036">
        <ele>119.861</ele>
        <time>2021-04-01T07:52:35.352Z</time>
      </trkpt>
      <trkpt lat="43.147305" lon="-2.8472201">
        <ele>120.113</ele>
        <time>2021-04-01T07:52:35.765Z</time>
      </trkpt>
      <trkpt lat="43.1472985" lon="-2.8472701">
        <ele>119.858</ele>
        <time>2021-04-01T07:52:36.177Z</time>
      </trkpt>
      <trkpt lat="43.1473003" lon="-2.8472493">
        <ele>119.916</ele>
        <time>2021-04-01T07:52:36.590Z</time>
      </trkpt>
      <trkpt lat="43.147305" lon="-2.8472201">
        <ele>120.113</ele>
        <time>2021-04-01T07:52:37.002Z</time>
      </trkpt>
      <trkpt lat="43.1473222" lon="-2.8471235">
        <ele>120.077</ele>
        <time>2021-04-01T07:52:38.515Z</time>
      </trkpt>
      <trkpt lat="43.1473375" lon="-2.8470572">
        <ele>120.748</ele>
        <time>2021-04-01T07:52:38.861Z</time>
      </trkpt>
      <trkpt lat="43.1473493" lon="-2.8470185">
        <ele>121.231</ele>
        <time>2021-04-01T07:52:39.208Z</time>
      </trkpt>
      <trkpt lat="43.1473493" lon="-2.8470185">
        <ele>121.231</ele>
        <time>2021-04-01T07:52:39.554Z</time>
      </trkpt>
      <trkpt lat="43.1473493" lon="-2.8470185">
        <ele>121.231</ele>
        <time>2021-04-01T07:52:39.901Z</time>
      </trkpt>
      <trkpt lat="43.1473663" lon="-2.8469383">
        <ele>121.014</ele>
        <time>2021-04-01T07:52:41.980Z</time>
      </trkpt>
      <trkpt lat="43.1473874" lon="-2.8468467">
        <ele>121.214</ele>
        <time>2021-04-01T07:52:43.355Z</time>
      </trkpt>
      <trkpt lat="43.1474042" lon="-2.8467612">
        <ele>121.414</ele>
        <time>2021-04-01T07:52:43.645Z</time>
      </trkpt>
      <trkpt lat="43.147406" lon="-2.8467505">
        <ele>121.443</ele>
        <time>2021-04-01T07:52:43.936Z</time>
      </trkpt>
      <trkpt lat="43.1474042" lon="-2.8467612">
        <ele>121.414</ele>
        <time>2021-04-01T07:52:44.227Z</time>
      </trkpt>
      <trkpt lat="43.147406" lon="-2.8467505">
        <ele>121.443</ele>
        <time>2021-04-01T07:52:44.517Z</time>
      </trkpt>
      <trkpt lat="43.1474042" lon="-2.8467612">
        <ele>121.414</ele>
        <time>2021-04-01T07:52:44.808Z</time>
      </trkpt>
      <trkpt lat="43.147406" lon="-2.8467505">
        <ele>121.443</ele>
        <time>2021-04-01T07:52:45.099Z</time>
      </trkpt>
      <trkpt lat="43.1474111" lon="-2.8466253">
        <ele>121.204</ele>
        <time>2021-04-01T07:52:46.490Z</time>
      </trkpt>
      <trkpt lat="43.1474127" lon="-2.8465446">
        <ele>121.448</ele>
        <time>2021-04-01T07:52:48.525Z</time>
      </trkpt>
      <trkpt lat="43.1474124" lon="-2.8464004">
        <ele>121.163</ele>
        <time>2021-04-01T07:52:48.745Z</time>
      </trkpt>
      <trkpt lat="43.1474124" lon="-2.8464004">
        <ele>121.163</ele>
        <time>2021-04-01T07:52:48.965Z</time>
      </trkpt>
      <trkpt lat="43.1474123" lon="-2.8463531">
        <ele>121.125</ele>
        <time>2021-04-01T07:52:49.185Z</time>
      </trkpt>
      <trkpt lat="43.1474124" lon="-2.8463263">
        <ele>121.044</ele>
        <time>2021-04-01T07:52:49.446Z</time>
      </trkpt>
      <trkpt lat="43.1474125" lon="-2.8463304">
        <ele>120.998</ele>
        <time>2021-04-01T07:52:49.707Z</time>
      </trkpt>
      <trkpt lat="43.1474124" lon="-2.8463263">
        <ele>121.044</ele>
        <time>2021-04-01T07:52:49.968Z</time>
      </trkpt>
      <trkpt lat="43.1474142" lon="-2.8462793">
        <ele>120.947</ele>
        <time>2021-04-01T07:52:50.230Z</time>
      </trkpt>
      <trkpt lat="43.1474125" lon="-2.8463304">
        <ele>120.998</ele>
        <time>2021-04-01T07:52:50.491Z</time>
      </trkpt>
      <trkpt lat="43.1474124" lon="-2.8463263">
        <ele>121.044</ele>
        <time>2021-04-01T07:52:50.752Z</time>
      </trkpt>
      <trkpt lat="43.1474142" lon="-2.8462793">
        <ele>120.947</ele>
        <time>2021-04-01T07:52:51.013Z</time>
      </trkpt>
      <trkpt lat="43.1474196" lon="-2.8462065">
        <ele>120.695</ele>
        <time>2021-04-01T07:52:51.275Z</time>
      </trkpt>
      <trkpt lat="43.1474206" lon="-2.8461994">
        <ele>120.647</ele>
        <time>2021-04-01T07:52:51.455Z</time>
      </trkpt>
      <trkpt lat="43.147421" lon="-2.8461954">
        <ele>120.696</ele>
        <time>2021-04-01T07:52:51.636Z</time>
      </trkpt>
      <trkpt lat="43.1474214" lon="-2.8461913">
        <ele>120.702</ele>
        <time>2021-04-01T07:52:51.817Z</time>
      </trkpt>
      <trkpt lat="43.1474206" lon="-2.8461994">
        <ele>120.647</ele>
        <time>2021-04-01T07:52:51.997Z</time>
      </trkpt>
      <trkpt lat="43.147421" lon="-2.8461954">
        <ele>120.696</ele>
        <time>2021-04-01T07:52:52.178Z</time>
      </trkpt>
      <trkpt lat="43.1474214" lon="-2.8461913">
        <ele>120.702</ele>
        <time>2021-04-01T07:52:52.359Z</time>
      </trkpt>
      <trkpt lat="43.1474297" lon="-2.8461197">
        <ele>120.325</ele>
        <time>2021-04-01T07:52:54.190Z</time>
      </trkpt>
      <trkpt lat="43.1474422" lon="-2.8460063">
        <ele>119.721</ele>
        <time>2021-04-01T07:52:54.390Z</time>
      </trkpt>
      <trkpt lat="43.147444" lon="-2.8459795">
        <ele>119.679</ele>
        <time>2021-04-01T07:52:54.590Z</time>
      </trkpt>
      <trkpt lat="43.1474442" lon="-2.8459758">
        <ele>119.657</ele>
        <time>2021-04-01T07:52:54.790Z</time>
      </trkpt>
      <trkpt lat="43.1474446" lon="-2.845972">
        <ele>119.644</ele>
        <time>2021-04-01T07:52:54.990Z</time>
      </trkpt>
      <trkpt lat="43.147444" lon="-2.8459795">
        <ele>119.679</ele>
        <time>2021-04-01T07:52:55.190Z</time>
      </trkpt>
      <trkpt lat="43.1474442" lon="-2.8459758">
        <ele>119.657</ele>
        <time>2021-04-01T07:52:55.390Z</time>
      </trkpt>
      <trkpt lat="43.1474446" lon="-2.845972">
        <ele>119.644</ele>
        <time>2021-04-01T07:52:55.590Z</time>
      </trkpt>
      <trkpt lat="43.147444" lon="-2.8459795">
        <ele>119.679</ele>
        <time>2021-04-01T07:52:55.790Z</time>
      </trkpt>
      <trkpt lat="43.1474442" lon="-2.8459758">
        <ele>119.657</ele>
        <time>2021-04-01T07:52:55.990Z</time>
      </trkpt>
      <trkpt lat="43.1474446" lon="-2.845972">
        <ele>119.644</ele>
        <time>2021-04-01T07:52:56.190Z</time>
      </trkpt>
      <trkpt lat="43.1474567" lon="-2.8458543">
        <ele>119.658</ele>
        <time>2021-04-01T07:52:56.390Z</time>
      </trkpt>
      <trkpt lat="43.1474567" lon="-2.8458543">
        <ele>119.658</ele>
        <time>2021-04-01T07:52:56.632Z</time>
      </trkpt>
      <trkpt lat="43.1474576" lon="-2.8458469">
        <ele>119.61</ele>
        <time>2021-04-01T07:52:56.874Z</time>
      </trkpt>
      <trkpt lat="43.1474567" lon="-2.8458543">
        <ele>119.658</ele>
        <time>2021-04-01T07:52:57.116Z</time>
      </trkpt>
      <trkpt lat="43.1474576" lon="-2.8458469">
        <ele>119.61</ele>
        <time>2021-04-01T07:52:57.358Z</time>
      </trkpt>
      <trkpt lat="43.1474641" lon="-2.8457715">
        <ele>119.448</ele>
        <time>2021-04-01T07:52:58.700Z</time>
      </trkpt>
      <trkpt lat="43.1474641" lon="-2.8457715">
        <ele>119.448</ele>
        <time>2021-04-01T07:52:59.497Z</time>
      </trkpt>
      <trkpt lat="43.1474641" lon="-2.8457715">
        <ele>119.448</ele>
        <time>2021-04-01T07:53:00.295Z</time>
      </trkpt>
      <trkpt lat="43.1474944" lon="-2.8454185">
        <ele>119.602</ele>
        <time>2021-04-01T07:53:02.154Z</time>
      </trkpt>
      <trkpt lat="43.1474944" lon="-2.8454185">
        <ele>119.602</ele>
        <time>2021-04-01T07:53:03.540Z</time>
      </trkpt>
      <trkpt lat="43.1474941" lon="-2.8453587">
        <ele>119.854</ele>
        <time>2021-04-01T07:53:04.970Z</time>
      </trkpt>
      <trkpt lat="43.1474924" lon="-2.8452632">
        <ele>119.735</ele>
        <time>2021-04-01T07:53:05.110Z</time>
      </trkpt>
      <trkpt lat="43.1474921" lon="-2.8452367">
        <ele>119.788</ele>
        <time>2021-04-01T07:53:05.250Z</time>
      </trkpt>
      <trkpt lat="43.147492" lon="-2.8452328">
        <ele>119.787</ele>
        <time>2021-04-01T07:53:05.390Z</time>
      </trkpt>
      <trkpt lat="43.1474914" lon="-2.8452176">
        <ele>119.794</ele>
        <time>2021-04-01T07:53:05.530Z</time>
      </trkpt>
      <trkpt lat="43.1474921" lon="-2.8452367">
        <ele>119.788</ele>
        <time>2021-04-01T07:53:05.670Z</time>
      </trkpt>
      <trkpt lat="43.147492" lon="-2.8452328">
        <ele>119.787</ele>
        <time>2021-04-01T07:53:05.810Z</time>
      </trkpt>
      <trkpt lat="43.1474914" lon="-2.8452176">
        <ele>119.794</ele>
        <time>2021-04-01T07:53:05.950Z</time>
      </trkpt>
      <trkpt lat="43.1474921" lon="-2.8452367">
        <ele>119.788</ele>
        <time>2021-04-01T07:53:06.090Z</time>
      </trkpt>
      <trkpt lat="43.147492" lon="-2.8452328">
        <ele>119.787</ele>
        <time>2021-04-01T07:53:06.230Z</time>
      </trkpt>
      <trkpt lat="43.1474914" lon="-2.8452176">
        <ele>119.794</ele>
        <time>2021-04-01T07:53:06.370Z</time>
      </trkpt>
      <trkpt lat="43.1474881" lon="-2.8451564">
        <ele>119.953</ele>
        <time>2021-04-01T07:53:08.270Z</time>
      </trkpt>
      <trkpt lat="43.1474789" lon="-2.8450381">
        <ele>119.939</ele>
        <time>2021-04-01T07:53:10.525Z</time>
      </trkpt>
      <trkpt lat="43.147476" lon="-2.8450199">
        <ele>120.009</ele>
        <time>2021-04-01T07:53:10.597Z</time>
      </trkpt>
      <trkpt lat="43.1474727" lon="-2.8450064">
        <ele>119.936</ele>
        <time>2021-04-01T07:53:10.669Z</time>
      </trkpt>
      <trkpt lat="43.1474768" lon="-2.8450235">
        <ele>119.959</ele>
        <time>2021-04-01T07:53:10.741Z</time>
      </trkpt>
      <trkpt lat="43.147476" lon="-2.8450199">
        <ele>120.009</ele>
        <time>2021-04-01T07:53:10.813Z</time>
      </trkpt>
      <trkpt lat="43.1474727" lon="-2.8450064">
        <ele>119.936</ele>
        <time>2021-04-01T07:53:10.885Z</time>
      </trkpt>
      <trkpt lat="43.1474668" lon="-2.8449864">
        <ele>119.907</ele>
        <time>2021-04-01T07:53:10.958Z</time>
      </trkpt>
      <trkpt lat="43.147476" lon="-2.8450199">
        <ele>120.009</ele>
        <time>2021-04-01T07:53:11.030Z</time>
      </trkpt>
      <trkpt lat="43.1474727" lon="-2.8450064">
        <ele>119.936</ele>
        <time>2021-04-01T07:53:11.102Z</time>
      </trkpt>
      <trkpt lat="43.1474668" lon="-2.8449864">
        <ele>119.907</ele>
        <time>2021-04-01T07:53:11.174Z</time>
      </trkpt>
      <trkpt lat="43.1474393" lon="-2.844903">
        <ele>119.801</ele>
        <time>2021-04-01T07:53:11.246Z</time>
      </trkpt>
      <trkpt lat="43.1474384" lon="-2.8449">
        <ele>119.753</ele>
        <time>2021-04-01T07:53:11.319Z</time>
      </trkpt>
      <trkpt lat="43.1474393" lon="-2.844903">
        <ele>119.801</ele>
        <time>2021-04-01T07:53:11.391Z</time>
      </trkpt>
      <trkpt lat="43.1474384" lon="-2.8449">
        <ele>119.753</ele>
        <time>2021-04-01T07:53:11.463Z</time>
      </trkpt>
      <trkpt lat="43.1474393" lon="-2.844903">
        <ele>119.801</ele>
        <time>2021-04-01T07:53:11.535Z</time>
      </trkpt>
      <trkpt lat="43.1474384" lon="-2.8449">
        <ele>119.753</ele>
        <time>2021-04-01T07:53:11.607Z</time>
      </trkpt>
      <trkpt lat="43.1474148" lon="-2.8448301">
        <ele>119.761</ele>
        <time>2021-04-01T07:53:11.680Z</time>
      </trkpt>
      <trkpt lat="43.1474036" lon="-2.8448016">
        <ele>119.794</ele>
        <time>2021-04-01T07:53:11.835Z</time>
      </trkpt>
      <trkpt lat="43.1474148" lon="-2.8448301">
        <ele>119.761</ele>
        <time>2021-04-01T07:53:11.991Z</time>
      </trkpt>
      <trkpt lat="43.1474036" lon="-2.8448016">
        <ele>119.794</ele>
        <time>2021-04-01T07:53:12.147Z</time>
      </trkpt>
      <trkpt lat="43.1474148" lon="-2.8448301">
        <ele>119.761</ele>
        <time>2021-04-01T07:53:12.303Z</time>
      </trkpt>
      <trkpt lat="43.1474036" lon="-2.8448016">
        <ele>119.794</ele>
        <time>2021-04-01T07:53:12.459Z</time>
      </trkpt>
      <trkpt lat="43.1473903" lon="-2.8447693">
        <ele>119.703</ele>
        <time>2021-04-01T07:53:14.870Z</time>
      </trkpt>
      <trkpt lat="43.147324" lon="-2.8446336">
        <ele>119.664</ele>
        <time>2021-04-01T07:53:16.575Z</time>
      </trkpt>
      <trkpt lat="43.1472646" lon="-2.844537">
        <ele>119.846</ele>
        <time>2021-04-01T07:53:18.390Z</time>
      </trkpt>
      <trkpt lat="43.1472604" lon="-2.8445308">
        <ele>119.853</ele>
        <time>2021-04-01T07:53:18.539Z</time>
      </trkpt>
      <trkpt lat="43.1472665" lon="-2.8445399">
        <ele>119.821</ele>
        <time>2021-04-01T07:53:18.688Z</time>
      </trkpt>
      <trkpt lat="43.1472646" lon="-2.844537">
        <ele>119.846</ele>
        <time>2021-04-01T07:53:18.837Z</time>
      </trkpt>
      <trkpt lat="43.1472604" lon="-2.8445308">
        <ele>119.853</ele>
        <time>2021-04-01T07:53:18.987Z</time>
      </trkpt>
      <trkpt lat="43.1472665" lon="-2.8445399">
        <ele>119.821</ele>
        <time>2021-04-01T07:53:19.136Z</time>
      </trkpt>
      <trkpt lat="43.1472646" lon="-2.844537">
        <ele>119.846</ele>
        <time>2021-04-01T07:53:19.285Z</time>
      </trkpt>
      <trkpt lat="43.1472604" lon="-2.8445308">
        <ele>119.853</ele>
        <time>2021-04-01T07:53:19.435Z</time>
      </trkpt>
      <trkpt lat="43.147164" lon="-2.8443728">
        <ele>120.454</ele>
        <time>2021-04-01T07:53:19.605Z</time>
      </trkpt>
      <trkpt lat="43.1471387" lon="-2.8443317">
        <ele>120.433</ele>
        <time>2021-04-01T07:53:19.775Z</time>
      </trkpt>
      <trkpt lat="43.1471583" lon="-2.8443629">
        <ele>120.427</ele>
        <time>2021-04-01T07:53:19.945Z</time>
      </trkpt>
      <trkpt lat="43.1471564" lon="-2.8443593">
        <ele>120.529</ele>
        <time>2021-04-01T07:53:20.115Z</time>
      </trkpt>
      <trkpt lat="43.1471545" lon="-2.8443562">
        <ele>120.534</ele>
        <time>2021-04-01T07:53:20.285Z</time>
      </trkpt>
      <trkpt lat="43.1471387" lon="-2.8443317">
        <ele>120.433</ele>
        <time>2021-04-01T07:53:20.455Z</time>
      </trkpt>
      <trkpt lat="43.1471583" lon="-2.8443629">
        <ele>120.427</ele>
        <time>2021-04-01T07:53:20.625Z</time>
      </trkpt>
      <trkpt lat="43.1471564" lon="-2.8443593">
        <ele>120.529</ele>
        <time>2021-04-01T07:53:20.795Z</time>
      </trkpt>
      <trkpt lat="43.1471545" lon="-2.8443562">
        <ele>120.534</ele>
        <time>2021-04-01T07:53:20.965Z</time>
      </trkpt>
      <trkpt lat="43.1471387" lon="-2.8443317">
        <ele>120.433</ele>
        <time>2021-04-01T07:53:21.135Z</time>
      </trkpt>
      <trkpt lat="43.1470989" lon="-2.8442678">
        <ele>120.518</ele>
        <time>2021-04-01T07:53:21.305Z</time>
      </trkpt>
      <trkpt lat="43.1470952" lon="-2.8442619">
        <ele>120.542</ele>
        <time>2021-04-01T07:53:21.470Z</time>
      </trkpt>
      <trkpt lat="43.147091" lon="-2.8442556">
        <ele>120.664</ele>
        <time>2021-04-01T07:53:21.635Z</time>
      </trkpt>
      <trkpt lat="43.1470989" lon="-2.8442678">
        <ele>120.518</ele>
        <time>2021-04-01T07:53:21.800Z</time>
      </trkpt>
      <trkpt lat="43.1470872" lon="-2.8442496">
        <ele>120.637</ele>
        <time>2021-04-01T07:53:21.965Z</time>
      </trkpt>
      <trkpt lat="43.1470855" lon="-2.8442465">
        <ele>120.647</ele>
        <time>2021-04-01T07:53:22.130Z</time>
      </trkpt>
      <trkpt lat="43.147091" lon="-2.8442556">
        <ele>120.664</ele>
        <time>2021-04-01T07:53:22.295Z</time>
      </trkpt>
      <trkpt lat="43.1470872" lon="-2.8442496">
        <ele>120.637</ele>
        <time>2021-04-01T07:53:22.460Z</time>
      </trkpt>
      <trkpt lat="43.1470855" lon="-2.8442465">
        <ele>120.647</ele>
        <time>2021-04-01T07:53:22.625Z</time>
      </trkpt>
      <trkpt lat="43.147091" lon="-2.8442556">
        <ele>120.664</ele>
        <time>2021-04-01T07:53:22.790Z</time>
      </trkpt>
      <trkpt lat="43.1470872" lon="-2.8442496">
        <ele>120.637</ele>
        <time>2021-04-01T07:53:22.955Z</time>
      </trkpt>
      <trkpt lat="43.1470855" lon="-2.8442465">
        <ele>120.647</ele>
        <time>2021-04-01T07:53:23.120Z</time>
      </trkpt>
      <trkpt lat="43.1470328" lon="-2.8441587">
        <ele>120.806</ele>
        <time>2021-04-01T07:53:24.110Z</time>
      </trkpt>
      <trkpt lat="43.1470061" lon="-2.8441123">
        <ele>120.938</ele>
        <time>2021-04-01T07:53:24.346Z</time>
      </trkpt>
      <trkpt lat="43.1469902" lon="-2.8440849">
        <ele>120.889</ele>
        <time>2021-04-01T07:53:24.583Z</time>
      </trkpt>
      <trkpt lat="43.1469841" lon="-2.8440726">
        <ele>120.955</ele>
        <time>2021-04-01T07:53:24.819Z</time>
      </trkpt>
      <trkpt lat="43.1469902" lon="-2.8440849">
        <ele>120.889</ele>
        <time>2021-04-01T07:53:25.056Z</time>
      </trkpt>
      <trkpt lat="43.1469841" lon="-2.8440726">
        <ele>120.955</ele>
        <time>2021-04-01T07:53:25.292Z</time>
      </trkpt>
      <trkpt lat="43.1469805" lon="-2.844066">
        <ele>121.039</ele>
        <time>2021-04-01T07:53:25.529Z</time>
      </trkpt>
      <trkpt lat="43.1469902" lon="-2.8440849">
        <ele>120.889</ele>
        <time>2021-04-01T07:53:25.765Z</time>
      </trkpt>
      <trkpt lat="43.1469841" lon="-2.8440726">
        <ele>120.955</ele>
        <time>2021-04-01T07:53:26.002Z</time>
      </trkpt>
      <trkpt lat="43.1469805" lon="-2.844066">
        <ele>121.039</ele>
        <time>2021-04-01T07:53:26.238Z</time>
      </trkpt>
      <trkpt lat="43.1469365" lon="-2.8439797">
        <ele>121.261</ele>
        <time>2021-04-01T07:53:27.245Z</time>
      </trkpt>
      <trkpt lat="43.1469166" lon="-2.8439352">
        <ele>121.305</ele>
        <time>2021-04-01T07:53:29.280Z</time>
      </trkpt>
      <trkpt lat="43.1469048" lon="-2.8439059">
        <ele>121.311</ele>
        <time>2021-04-01T07:53:29.360Z</time>
      </trkpt>
      <trkpt lat="43.1468999" lon="-2.8438928">
        <ele>121.386</ele>
        <time>2021-04-01T07:53:29.441Z</time>
      </trkpt>
      <trkpt lat="43.1469073" lon="-2.8439126">
        <ele>121.295</ele>
        <time>2021-04-01T07:53:29.522Z</time>
      </trkpt>
      <trkpt lat="43.1469048" lon="-2.8439059">
        <ele>121.311</ele>
        <time>2021-04-01T07:53:29.602Z</time>
      </trkpt>
      <trkpt lat="43.1468999" lon="-2.8438928">
        <ele>121.386</ele>
        <time>2021-04-01T07:53:29.683Z</time>
      </trkpt>
      <trkpt lat="43.1469073" lon="-2.8439126">
        <ele>121.295</ele>
        <time>2021-04-01T07:53:29.764Z</time>
      </trkpt>
      <trkpt lat="43.1469048" lon="-2.8439059">
        <ele>121.311</ele>
        <time>2021-04-01T07:53:29.844Z</time>
      </trkpt>
      <trkpt lat="43.1468999" lon="-2.8438928">
        <ele>121.386</ele>
        <time>2021-04-01T07:53:29.925Z</time>
      </trkpt>
      <trkpt lat="43.1468734" lon="-2.843812">
        <ele>121.827</ele>
        <time>2021-04-01T07:53:30.006Z</time>
      </trkpt>
      <trkpt lat="43.1468662" lon="-2.8437889">
        <ele>121.853</ele>
        <time>2021-04-01T07:53:30.086Z</time>
      </trkpt>
      <trkpt lat="43.1468734" lon="-2.843812">
        <ele>121.827</ele>
        <time>2021-04-01T07:53:30.167Z</time>
      </trkpt>
      <trkpt lat="43.1468662" lon="-2.8437889">
        <ele>121.853</ele>
        <time>2021-04-01T07:53:30.248Z</time>
      </trkpt>
      <trkpt lat="43.1468734" lon="-2.843812">
        <ele>121.827</ele>
        <time>2021-04-01T07:53:30.328Z</time>
      </trkpt>
      <trkpt lat="43.1468662" lon="-2.8437889">
        <ele>121.853</ele>
        <time>2021-04-01T07:53:30.409Z</time>
      </trkpt>
      <trkpt lat="43.1468524" lon="-2.8437368">
        <ele>122.093</ele>
        <time>2021-04-01T07:53:30.490Z</time>
      </trkpt>
      <trkpt lat="43.1468457" lon="-2.8437039">
        <ele>122.389</ele>
        <time>2021-04-01T07:53:30.710Z</time>
      </trkpt>
      <trkpt lat="43.1468488" lon="-2.8437183">
        <ele>122.305</ele>
        <time>2021-04-01T07:53:30.930Z</time>
      </trkpt>
      <trkpt lat="43.1468457" lon="-2.8437039">
        <ele>122.389</ele>
        <time>2021-04-01T07:53:31.150Z</time>
      </trkpt>
      <trkpt lat="43.1468488" lon="-2.8437183">
        <ele>122.305</ele>
        <time>2021-04-01T07:53:31.370Z</time>
      </trkpt>
      <trkpt lat="43.1468457" lon="-2.8437039">
        <ele>122.389</ele>
        <time>2021-04-01T07:53:31.590Z</time>
      </trkpt>
      <trkpt lat="43.1468348" lon="-2.8436518">
        <ele>122.288</ele>
        <time>2021-04-01T07:53:31.810Z</time>
      </trkpt>
      <trkpt lat="43.1468328" lon="-2.8436378">
        <ele>122.299</ele>
        <time>2021-04-01T07:53:31.913Z</time>
      </trkpt>
      <trkpt lat="43.1468324" lon="-2.8436345">
        <ele>122.297</ele>
        <time>2021-04-01T07:53:32.017Z</time>
      </trkpt>
      <trkpt lat="43.1468312" lon="-2.8436275">
        <ele>122.3</ele>
        <time>2021-04-01T07:53:32.121Z</time>
      </trkpt>
      <trkpt lat="43.1468348" lon="-2.8436518">
        <ele>122.288</ele>
        <time>2021-04-01T07:53:32.225Z</time>
      </trkpt>
      <trkpt lat="43.1468283" lon="-2.8436091">
        <ele>122.491</ele>
        <time>2021-04-01T07:53:32.329Z</time>
      </trkpt>
      <trkpt lat="43.1468306" lon="-2.8436239">
        <ele>122.314</ele>
        <time>2021-04-01T07:53:32.433Z</time>
      </trkpt>
      <trkpt lat="43.1468264" lon="-2.8435979">
        <ele>122.612</ele>
        <time>2021-04-01T07:53:32.537Z</time>
      </trkpt>
      <trkpt lat="43.1468256" lon="-2.8435941">
        <ele>122.627</ele>
        <time>2021-04-01T07:53:32.641Z</time>
      </trkpt>
      <trkpt lat="43.1468254" lon="-2.8435905">
        <ele>122.665</ele>
        <time>2021-04-01T07:53:32.745Z</time>
      </trkpt>
      <trkpt lat="43.146827" lon="-2.8436015">
        <ele>122.584</ele>
        <time>2021-04-01T07:53:32.848Z</time>
      </trkpt>
      <trkpt lat="43.1468264" lon="-2.8435979">
        <ele>122.612</ele>
        <time>2021-04-01T07:53:32.952Z</time>
      </trkpt>
      <trkpt lat="43.1468256" lon="-2.8435941">
        <ele>122.627</ele>
        <time>2021-04-01T07:53:33.056Z</time>
      </trkpt>
      <trkpt lat="43.1468254" lon="-2.8435905">
        <ele>122.665</ele>
        <time>2021-04-01T07:53:33.160Z</time>
      </trkpt>
      <trkpt lat="43.146827" lon="-2.8436015">
        <ele>122.584</ele>
        <time>2021-04-01T07:53:33.264Z</time>
      </trkpt>
      <trkpt lat="43.1468264" lon="-2.8435979">
        <ele>122.612</ele>
        <time>2021-04-01T07:53:33.368Z</time>
      </trkpt>
      <trkpt lat="43.1468256" lon="-2.8435941">
        <ele>122.627</ele>
        <time>2021-04-01T07:53:33.472Z</time>
      </trkpt>
      <trkpt lat="43.1468254" lon="-2.8435905">
        <ele>122.665</ele>
        <time>2021-04-01T07:53:33.576Z</time>
      </trkpt>
      <trkpt lat="43.1468163" lon="-2.8435257">
        <ele>123.461</ele>
        <time>2021-04-01T07:53:35.605Z</time>
      </trkpt>
      <trkpt lat="43.1467999" lon="-2.8433961">
        <ele>124.85</ele>
        <time>2021-04-01T07:53:35.866Z</time>
      </trkpt>
      <trkpt lat="43.1467966" lon="-2.8433846">
        <ele>124.846</ele>
        <time>2021-04-01T07:53:36.127Z</time>
      </trkpt>
      <trkpt lat="43.1467966" lon="-2.8433846">
        <ele>124.846</ele>
        <time>2021-04-01T07:53:36.388Z</time>
      </trkpt>
      <trkpt lat="43.1467921" lon="-2.8433257">
        <ele>124.603</ele>
        <time>2021-04-01T07:53:37.970Z</time>
      </trkpt>
      <trkpt lat="43.146805" lon="-2.843241">
        <ele>124.205</ele>
        <time>2021-04-01T07:53:39.950Z</time>
      </trkpt>
      <trkpt lat="43.1468105" lon="-2.8432108">
        <ele>123.975</ele>
        <time>2021-04-01T07:53:40.137Z</time>
      </trkpt>
      <trkpt lat="43.1468105" lon="-2.8432108">
        <ele>123.975</ele>
        <time>2021-04-01T07:53:40.324Z</time>
      </trkpt>
      <trkpt lat="43.1468179" lon="-2.8431871">
        <ele>123.968</ele>
        <time>2021-04-01T07:53:40.511Z</time>
      </trkpt>
      <trkpt lat="43.1468185" lon="-2.8431835">
        <ele>123.96</ele>
        <time>2021-04-01T07:53:40.698Z</time>
      </trkpt>
      <trkpt lat="43.1468161" lon="-2.8431936">
        <ele>123.966</ele>
        <time>2021-04-01T07:53:40.885Z</time>
      </trkpt>
      <trkpt lat="43.1468179" lon="-2.8431871">
        <ele>123.968</ele>
        <time>2021-04-01T07:53:41.072Z</time>
      </trkpt>
      <trkpt lat="43.1468185" lon="-2.8431835">
        <ele>123.96</ele>
        <time>2021-04-01T07:53:41.259Z</time>
      </trkpt>
      <trkpt lat="43.1468161" lon="-2.8431936">
        <ele>123.966</ele>
        <time>2021-04-01T07:53:41.446Z</time>
      </trkpt>
      <trkpt lat="43.1468179" lon="-2.8431871">
        <ele>123.968</ele>
        <time>2021-04-01T07:53:41.633Z</time>
      </trkpt>
      <trkpt lat="43.1468185" lon="-2.8431835">
        <ele>123.96</ele>
        <time>2021-04-01T07:53:41.820Z</time>
      </trkpt>
      <trkpt lat="43.1469769" lon="-2.8428506">
        <ele>126.449</ele>
        <time>2021-04-01T07:53:44.845Z</time>
      </trkpt>
      <trkpt lat="43.1469769" lon="-2.8428506">
        <ele>126.449</ele>
        <time>2021-04-01T07:53:45.807Z</time>
      </trkpt>
      <trkpt lat="43.1470383" lon="-2.8427465">
        <ele>126.945</ele>
        <time>2021-04-01T07:53:47.980Z</time>
      </trkpt>
      <trkpt lat="43.1470402" lon="-2.8427441">
        <ele>126.929</ele>
        <time>2021-04-01T07:53:48.150Z</time>
      </trkpt>
      <trkpt lat="43.1470366" lon="-2.8427491">
        <ele>126.947</ele>
        <time>2021-04-01T07:53:48.321Z</time>
      </trkpt>
      <trkpt lat="43.1470383" lon="-2.8427465">
        <ele>126.945</ele>
        <time>2021-04-01T07:53:48.491Z</time>
      </trkpt>
      <trkpt lat="43.1470402" lon="-2.8427441">
        <ele>126.929</ele>
        <time>2021-04-01T07:53:48.662Z</time>
      </trkpt>
      <trkpt lat="43.1470366" lon="-2.8427491">
        <ele>126.947</ele>
        <time>2021-04-01T07:53:48.832Z</time>
      </trkpt>
      <trkpt lat="43.1470383" lon="-2.8427465">
        <ele>126.945</ele>
        <time>2021-04-01T07:53:49.003Z</time>
      </trkpt>
      <trkpt lat="43.1470402" lon="-2.8427441">
        <ele>126.929</ele>
        <time>2021-04-01T07:53:49.173Z</time>
      </trkpt>
      <trkpt lat="43.1470778" lon="-2.8426861">
        <ele>127.027</ele>
        <time>2021-04-01T07:53:49.344Z</time>
      </trkpt>
      <trkpt lat="43.1470778" lon="-2.8426861">
        <ele>127.027</ele>
        <time>2021-04-01T07:53:49.514Z</time>
      </trkpt>
      <trkpt lat="43.1471339" lon="-2.8425958">
        <ele>127.292</ele>
        <time>2021-04-01T07:53:49.685Z</time>
      </trkpt>
      <trkpt lat="43.1471379" lon="-2.8425899">
        <ele>127.331</ele>
        <time>2021-04-01T07:53:49.971Z</time>
      </trkpt>
      <trkpt lat="43.1471502" lon="-2.8425691">
        <ele>127.344</ele>
        <time>2021-04-01T07:53:50.257Z</time>
      </trkpt>
      <trkpt lat="43.1471379" lon="-2.8425899">
        <ele>127.331</ele>
        <time>2021-04-01T07:53:50.543Z</time>
      </trkpt>
      <trkpt lat="43.1471502" lon="-2.8425691">
        <ele>127.344</ele>
        <time>2021-04-01T07:53:50.829Z</time>
      </trkpt>
      <trkpt lat="43.1471789" lon="-2.8425199">
        <ele>127.176</ele>
        <time>2021-04-01T07:53:51.115Z</time>
      </trkpt>
      <trkpt lat="43.1471706" lon="-2.8425306">
        <ele>127.241</ele>
        <time>2021-04-01T07:53:51.467Z</time>
      </trkpt>
      <trkpt lat="43.1471789" lon="-2.8425199">
        <ele>127.176</ele>
        <time>2021-04-01T07:53:51.819Z</time>
      </trkpt>
      <trkpt lat="43.1471706" lon="-2.8425306">
        <ele>127.241</ele>
        <time>2021-04-01T07:53:52.171Z</time>
      </trkpt>
      <trkpt lat="43.1471789" lon="-2.8425199">
        <ele>127.176</ele>
        <time>2021-04-01T07:53:52.523Z</time>
      </trkpt>
      <trkpt lat="43.1472377" lon="-2.8424283">
        <ele>127.278</ele>
        <time>2021-04-01T07:53:54.360Z</time>
      </trkpt>
      <trkpt lat="43.1472808" lon="-2.8423499">
        <ele>127.332</ele>
        <time>2021-04-01T07:53:54.525Z</time>
      </trkpt>
      <trkpt lat="43.1472934" lon="-2.8423274">
        <ele>127.401</ele>
        <time>2021-04-01T07:53:54.690Z</time>
      </trkpt>
      <trkpt lat="43.1472808" lon="-2.8423499">
        <ele>127.332</ele>
        <time>2021-04-01T07:53:54.855Z</time>
      </trkpt>
      <trkpt lat="43.1472934" lon="-2.8423274">
        <ele>127.401</ele>
        <time>2021-04-01T07:53:55.020Z</time>
      </trkpt>
      <trkpt lat="43.1473058" lon="-2.8423076">
        <ele>127.698</ele>
        <time>2021-04-01T07:53:57.220Z</time>
      </trkpt>
      <trkpt lat="43.1473635" lon="-2.8422026">
        <ele>128.299</ele>
        <time>2021-04-01T07:54:00.520Z</time>
      </trkpt>
      <trkpt lat="43.1473781" lon="-2.8421784">
        <ele>128.445</ele>
        <time>2021-04-01T07:54:00.630Z</time>
      </trkpt>
      <trkpt lat="43.1473796" lon="-2.8421757">
        <ele>128.448</ele>
        <time>2021-04-01T07:54:00.740Z</time>
      </trkpt>
      <trkpt lat="43.1473852" lon="-2.8421646">
        <ele>128.348</ele>
        <time>2021-04-01T07:54:00.850Z</time>
      </trkpt>
      <trkpt lat="43.1473781" lon="-2.8421784">
        <ele>128.445</ele>
        <time>2021-04-01T07:54:00.960Z</time>
      </trkpt>
      <trkpt lat="43.1473796" lon="-2.8421757">
        <ele>128.448</ele>
        <time>2021-04-01T07:54:01.070Z</time>
      </trkpt>
      <trkpt lat="43.1473852" lon="-2.8421646">
        <ele>128.348</ele>
        <time>2021-04-01T07:54:01.180Z</time>
      </trkpt>
      <trkpt lat="43.1473781" lon="-2.8421784">
        <ele>128.445</ele>
        <time>2021-04-01T07:54:01.290Z</time>
      </trkpt>
      <trkpt lat="43.1473796" lon="-2.8421757">
        <ele>128.448</ele>
        <time>2021-04-01T07:54:01.400Z</time>
      </trkpt>
      <trkpt lat="43.1473852" lon="-2.8421646">
        <ele>128.348</ele>
        <time>2021-04-01T07:54:01.510Z</time>
      </trkpt>
      <trkpt lat="43.1474156" lon="-2.8421127">
        <ele>128.79</ele>
        <time>2021-04-01T07:54:01.537Z</time>
      </trkpt>
      <trkpt lat="43.1474192" lon="-2.8421016">
        <ele>128.707</ele>
        <time>2021-04-01T07:54:01.565Z</time>
      </trkpt>
      <trkpt lat="43.1474376" lon="-2.8420278">
        <ele>128.525</ele>
        <time>2021-04-01T07:54:01.592Z</time>
      </trkpt>
      <trkpt lat="43.1474156" lon="-2.8421127">
        <ele>128.79</ele>
        <time>2021-04-01T07:54:01.620Z</time>
      </trkpt>
      <trkpt lat="43.1474192" lon="-2.8421016">
        <ele>128.707</ele>
        <time>2021-04-01T07:54:01.647Z</time>
      </trkpt>
      <trkpt lat="43.1474428" lon="-2.8419665">
        <ele>128.247</ele>
        <time>2021-04-01T07:54:01.675Z</time>
      </trkpt>
      <trkpt lat="43.147441" lon="-2.8419869">
        <ele>128.267</ele>
        <time>2021-04-01T07:54:01.702Z</time>
      </trkpt>
      <trkpt lat="43.14744" lon="-2.8420072">
        <ele>128.459</ele>
        <time>2021-04-01T07:54:01.730Z</time>
      </trkpt>
      <trkpt lat="43.147441" lon="-2.8419869">
        <ele>128.267</ele>
        <time>2021-04-01T07:54:01.757Z</time>
      </trkpt>
      <trkpt lat="43.14744" lon="-2.8420072">
        <ele>128.459</ele>
        <time>2021-04-01T07:54:01.785Z</time>
      </trkpt>
      <trkpt lat="43.147441" lon="-2.8419869">
        <ele>128.267</ele>
        <time>2021-04-01T07:54:01.812Z</time>
      </trkpt>
      <trkpt lat="43.147445" lon="-2.8419467">
        <ele>128.378</ele>
        <time>2021-04-01T07:54:03.160Z</time>
      </trkpt>
      <trkpt lat="43.1474435" lon="-2.8418865">
        <ele>128.441</ele>
        <time>2021-04-01T07:54:04.975Z</time>
      </trkpt>
      <trkpt lat="43.1474418" lon="-2.8418666">
        <ele>128.383</ele>
        <time>2021-04-01T07:54:05.130Z</time>
      </trkpt>
      <trkpt lat="43.1474346" lon="-2.8418161">
        <ele>128.306</ele>
        <time>2021-04-01T07:54:05.285Z</time>
      </trkpt>
      <trkpt lat="43.1474314" lon="-2.8418041">
        <ele>128.274</ele>
        <time>2021-04-01T07:54:05.440Z</time>
      </trkpt>
      <trkpt lat="43.1474366" lon="-2.8418259">
        <ele>128.267</ele>
        <time>2021-04-01T07:54:05.595Z</time>
      </trkpt>
      <trkpt lat="43.1474359" lon="-2.8418227">
        <ele>128.258</ele>
        <time>2021-04-01T07:54:05.750Z</time>
      </trkpt>
      <trkpt lat="43.1474346" lon="-2.8418161">
        <ele>128.306</ele>
        <time>2021-04-01T07:54:05.905Z</time>
      </trkpt>
      <trkpt lat="43.1474314" lon="-2.8418041">
        <ele>128.274</ele>
        <time>2021-04-01T07:54:06.060Z</time>
      </trkpt>
      <trkpt lat="43.1474366" lon="-2.8418259">
        <ele>128.267</ele>
        <time>2021-04-01T07:54:06.215Z</time>
      </trkpt>
      <trkpt lat="43.1474359" lon="-2.8418227">
        <ele>128.258</ele>
        <time>2021-04-01T07:54:06.370Z</time>
      </trkpt>
      <trkpt lat="43.1474346" lon="-2.8418161">
        <ele>128.306</ele>
        <time>2021-04-01T07:54:06.525Z</time>
      </trkpt>
      <trkpt lat="43.1474314" lon="-2.8418041">
        <ele>128.274</ele>
        <time>2021-04-01T07:54:06.680Z</time>
      </trkpt>
      <trkpt lat="43.1473857" lon="-2.8416762">
        <ele>127.393</ele>
        <time>2021-04-01T07:54:07.230Z</time>
      </trkpt>
      <trkpt lat="43.1473769" lon="-2.8416602">
        <ele>127.25</ele>
        <time>2021-04-01T07:54:07.780Z</time>
      </trkpt>
      <trkpt lat="43.1473769" lon="-2.8416602">
        <ele>127.25</ele>
        <time>2021-04-01T07:54:08.330Z</time>
      </trkpt>
      <trkpt lat="43.1473244" lon="-2.841568">
        <ele>127.044</ele>
        <time>2021-04-01T07:54:08.880Z</time>
      </trkpt>
      <trkpt lat="43.1473228" lon="-2.8415656">
        <ele>127.023</ele>
        <time>2021-04-01T07:54:09.054Z</time>
      </trkpt>
      <trkpt lat="43.1473244" lon="-2.841568">
        <ele>127.044</ele>
        <time>2021-04-01T07:54:09.228Z</time>
      </trkpt>
      <trkpt lat="43.1473228" lon="-2.8415656">
        <ele>127.023</ele>
        <time>2021-04-01T07:54:09.402Z</time>
      </trkpt>
      <trkpt lat="43.1473244" lon="-2.841568">
        <ele>127.044</ele>
        <time>2021-04-01T07:54:09.576Z</time>
      </trkpt>
      <trkpt lat="43.1473228" lon="-2.8415656">
        <ele>127.023</ele>
        <time>2021-04-01T07:54:09.750Z</time>
      </trkpt>
      <trkpt lat="43.1472948" lon="-2.8415176">
        <ele>127.089</ele>
        <time>2021-04-01T07:54:11.190Z</time>
      </trkpt>
      <trkpt lat="43.1472598" lon="-2.8414568">
        <ele>127.515</ele>
        <time>2021-04-01T07:54:13.115Z</time>
      </trkpt>
      <trkpt lat="43.147207" lon="-2.8413668">
        <ele>128.104</ele>
        <time>2021-04-01T07:54:13.292Z</time>
      </trkpt>
      <trkpt lat="43.1472008" lon="-2.8413561">
        <ele>128.213</ele>
        <time>2021-04-01T07:54:13.469Z</time>
      </trkpt>
      <trkpt lat="43.1471982" lon="-2.8413513">
        <ele>128.231</ele>
        <time>2021-04-01T07:54:13.646Z</time>
      </trkpt>
      <trkpt lat="43.1471881" lon="-2.8413341">
        <ele>128.24</ele>
        <time>2021-04-01T07:54:13.823Z</time>
      </trkpt>
      <trkpt lat="43.1471982" lon="-2.8413513">
        <ele>128.231</ele>
        <time>2021-04-01T07:54:14.001Z</time>
      </trkpt>
      <trkpt lat="43.1471881" lon="-2.8413341">
        <ele>128.24</ele>
        <time>2021-04-01T07:54:14.178Z</time>
      </trkpt>
      <trkpt lat="43.1471982" lon="-2.8413513">
        <ele>128.231</ele>
        <time>2021-04-01T07:54:14.355Z</time>
      </trkpt>
      <trkpt lat="43.1471881" lon="-2.8413341">
        <ele>128.24</ele>
        <time>2021-04-01T07:54:14.532Z</time>
      </trkpt>
      <trkpt lat="43.1471639" lon="-2.8412955">
        <ele>128.484</ele>
        <time>2021-04-01T07:54:15.755Z</time>
      </trkpt>
      <trkpt lat="43.1471358" lon="-2.8412485">
        <ele>129.055</ele>
        <time>2021-04-01T07:54:15.907Z</time>
      </trkpt>
      <trkpt lat="43.1471288" lon="-2.841237">
        <ele>129.167</ele>
        <time>2021-04-01T07:54:16.059Z</time>
      </trkpt>
      <trkpt lat="43.1471288" lon="-2.841237">
        <ele>129.167</ele>
        <time>2021-04-01T07:54:16.211Z</time>
      </trkpt>
      <trkpt lat="43.1471159" lon="-2.8412161">
        <ele>129.279</ele>
        <time>2021-04-01T07:54:16.364Z</time>
      </trkpt>
      <trkpt lat="43.1471062" lon="-2.8411973">
        <ele>129.54</ele>
        <time>2021-04-01T07:54:16.516Z</time>
      </trkpt>
      <trkpt lat="43.1471046" lon="-2.8411946">
        <ele>129.566</ele>
        <time>2021-04-01T07:54:16.668Z</time>
      </trkpt>
      <trkpt lat="43.1471073" lon="-2.8411998">
        <ele>129.501</ele>
        <time>2021-04-01T07:54:16.821Z</time>
      </trkpt>
      <trkpt lat="43.1471062" lon="-2.8411973">
        <ele>129.54</ele>
        <time>2021-04-01T07:54:16.973Z</time>
      </trkpt>
      <trkpt lat="43.1471046" lon="-2.8411946">
        <ele>129.566</ele>
        <time>2021-04-01T07:54:17.125Z</time>
      </trkpt>
      <trkpt lat="43.1471073" lon="-2.8411998">
        <ele>129.501</ele>
        <time>2021-04-01T07:54:17.278Z</time>
      </trkpt>
      <trkpt lat="43.1471062" lon="-2.8411973">
        <ele>129.54</ele>
        <time>2021-04-01T07:54:17.430Z</time>
      </trkpt>
      <trkpt lat="43.1471046" lon="-2.8411946">
        <ele>129.566</ele>
        <time>2021-04-01T07:54:17.582Z</time>
      </trkpt>
      <trkpt lat="43.1470858" lon="-2.8411626">
        <ele>129.727</ele>
        <time>2021-04-01T07:54:18.945Z</time>
      </trkpt>
      <trkpt lat="43.1470578" lon="-2.8411071">
        <ele>130.207</ele>
        <time>2021-04-01T07:54:19.199Z</time>
      </trkpt>
      <trkpt lat="43.1470372" lon="-2.841061">
        <ele>130.241</ele>
        <time>2021-04-01T07:54:19.453Z</time>
      </trkpt>
      <trkpt lat="43.1470347" lon="-2.841056">
        <ele>130.171</ele>
        <time>2021-04-01T07:54:19.708Z</time>
      </trkpt>
      <trkpt lat="43.1470372" lon="-2.841061">
        <ele>130.241</ele>
        <time>2021-04-01T07:54:19.962Z</time>
      </trkpt>
      <trkpt lat="43.1470347" lon="-2.841056">
        <ele>130.171</ele>
        <time>2021-04-01T07:54:20.216Z</time>
      </trkpt>
      <trkpt lat="43.1470372" lon="-2.841061">
        <ele>130.241</ele>
        <time>2021-04-01T07:54:20.471Z</time>
      </trkpt>
      <trkpt lat="43.1470347" lon="-2.841056">
        <ele>130.171</ele>
        <time>2021-04-01T07:54:20.725Z</time>
      </trkpt>
      <trkpt lat="43.1470187" lon="-2.8410175">
        <ele>129.171</ele>
        <time>2021-04-01T07:54:22.960Z</time>
      </trkpt>
      <trkpt lat="43.146987" lon="-2.8409324">
        <ele>127.261</ele>
        <time>2021-04-01T07:54:23.334Z</time>
      </trkpt>
      <trkpt lat="43.146984" lon="-2.8409254">
        <ele>127.076</ele>
        <time>2021-04-01T07:54:23.708Z</time>
      </trkpt>
      <trkpt lat="43.146987" lon="-2.8409324">
        <ele>127.261</ele>
        <time>2021-04-01T07:54:24.082Z</time>
      </trkpt>
      <trkpt lat="43.146984" lon="-2.8409254">
        <ele>127.076</ele>
        <time>2021-04-01T07:54:24.456Z</time>
      </trkpt>
      <trkpt lat="43.146953" lon="-2.8408449">
        <ele>126.372</ele>
        <time>2021-04-01T07:54:26.040Z</time>
      </trkpt>
      <trkpt lat="43.1469345" lon="-2.8407815">
        <ele>126.282</ele>
        <time>2021-04-01T07:54:27.250Z</time>
      </trkpt>
      <trkpt lat="43.146918" lon="-2.840719">
        <ele>125.815</ele>
        <time>2021-04-01T07:54:27.511Z</time>
      </trkpt>
      <trkpt lat="43.1469162" lon="-2.8407127">
        <ele>125.841</ele>
        <time>2021-04-01T07:54:27.772Z</time>
      </trkpt>
      <trkpt lat="43.146918" lon="-2.840719">
        <ele>125.815</ele>
        <time>2021-04-01T07:54:28.033Z</time>
      </trkpt>
      <trkpt lat="43.1469095" lon="-2.8406809">
        <ele>125.893</ele>
        <time>2021-04-01T07:54:28.295Z</time>
      </trkpt>
      <trkpt lat="43.1469141" lon="-2.840703">
        <ele>125.864</ele>
        <time>2021-04-01T07:54:28.556Z</time>
      </trkpt>
      <trkpt lat="43.1469095" lon="-2.8406809">
        <ele>125.893</ele>
        <time>2021-04-01T07:54:28.817Z</time>
      </trkpt>
      <trkpt lat="43.1469095" lon="-2.8406809">
        <ele>125.893</ele>
        <time>2021-04-01T07:54:29.078Z</time>
      </trkpt>
      <trkpt lat="43.1468936" lon="-2.8405986">
        <ele>125.41</ele>
        <time>2021-04-01T07:54:30.935Z</time>
      </trkpt>
      <trkpt lat="43.1468785" lon="-2.840498">
        <ele>125.726</ele>
        <time>2021-04-01T07:54:31.155Z</time>
      </trkpt>
      <trkpt lat="43.1468763" lon="-2.8404839">
        <ele>125.768</ele>
        <time>2021-04-01T07:54:31.375Z</time>
      </trkpt>
      <trkpt lat="43.1468785" lon="-2.840498">
        <ele>125.726</ele>
        <time>2021-04-01T07:54:31.595Z</time>
      </trkpt>
      <trkpt lat="43.1468763" lon="-2.8404839">
        <ele>125.768</ele>
        <time>2021-04-01T07:54:31.815Z</time>
      </trkpt>
      <trkpt lat="43.1468275" lon="-2.8402422">
        <ele>125.527</ele>
        <time>2021-04-01T07:54:37.040Z</time>
      </trkpt>
      <trkpt lat="43.1467794" lon="-2.8401178">
        <ele>125.612</ele>
        <time>2021-04-01T07:54:38.250Z</time>
      </trkpt>
      <trkpt lat="43.1467448" lon="-2.8400468">
        <ele>125.728</ele>
        <time>2021-04-01T07:54:38.564Z</time>
      </trkpt>
      <trkpt lat="43.1467199" lon="-2.8399981">
        <ele>125.611</ele>
        <time>2021-04-01T07:54:38.878Z</time>
      </trkpt>
      <trkpt lat="43.1467254" lon="-2.8400112">
        <ele>125.626</ele>
        <time>2021-04-01T07:54:39.192Z</time>
      </trkpt>
      <trkpt lat="43.1467199" lon="-2.8399981">
        <ele>125.611</ele>
        <time>2021-04-01T07:54:39.507Z</time>
      </trkpt>
      <trkpt lat="43.1467254" lon="-2.8400112">
        <ele>125.626</ele>
        <time>2021-04-01T07:54:39.821Z</time>
      </trkpt>
      <trkpt lat="43.1467199" lon="-2.8399981">
        <ele>125.611</ele>
        <time>2021-04-01T07:54:40.135Z</time>
      </trkpt>
      <trkpt lat="43.1466822" lon="-2.8399229">
        <ele>125.504</ele>
        <time>2021-04-01T07:54:40.450Z</time>
      </trkpt>
      <trkpt lat="43.1466903" lon="-2.8399387">
        <ele>125.546</ele>
        <time>2021-04-01T07:54:40.701Z</time>
      </trkpt>
      <trkpt lat="43.1466885" lon="-2.8399355">
        <ele>125.562</ele>
        <time>2021-04-01T07:54:40.952Z</time>
      </trkpt>
      <trkpt lat="43.1466822" lon="-2.8399229">
        <ele>125.504</ele>
        <time>2021-04-01T07:54:41.204Z</time>
      </trkpt>
      <trkpt lat="43.1466903" lon="-2.8399387">
        <ele>125.546</ele>
        <time>2021-04-01T07:54:41.455Z</time>
      </trkpt>
      <trkpt lat="43.1466885" lon="-2.8399355">
        <ele>125.562</ele>
        <time>2021-04-01T07:54:41.707Z</time>
      </trkpt>
      <trkpt lat="43.1466822" lon="-2.8399229">
        <ele>125.504</ele>
        <time>2021-04-01T07:54:41.958Z</time>
      </trkpt>
      <trkpt lat="43.1466288" lon="-2.8398191">
        <ele>125.768</ele>
        <time>2021-04-01T07:54:43.420Z</time>
      </trkpt>
      <trkpt lat="43.146594" lon="-2.8397437">
        <ele>126.052</ele>
        <time>2021-04-01T07:54:43.896Z</time>
      </trkpt>
      <trkpt lat="43.146594" lon="-2.8397437">
        <ele>126.052</ele>
        <time>2021-04-01T07:54:44.373Z</time>
      </trkpt>
      <trkpt lat="43.1465638" lon="-2.8396564">
        <ele>125.743</ele>
        <time>2021-04-01T07:54:46.280Z</time>
      </trkpt>
      <trkpt lat="43.1465396" lon="-2.8395746">
        <ele>124.437</ele>
        <time>2021-04-01T07:54:48.370Z</time>
      </trkpt>
      <trkpt lat="43.1465192" lon="-2.8394403">
        <ele>123.978</ele>
        <time>2021-04-01T07:54:49.140Z</time>
      </trkpt>
      <trkpt lat="43.1465137" lon="-2.8393899">
        <ele>123.796</ele>
        <time>2021-04-01T07:54:49.569Z</time>
      </trkpt>
      <trkpt lat="43.1465104" lon="-2.8393362">
        <ele>123.546</ele>
        <time>2021-04-01T07:54:49.998Z</time>
      </trkpt>
      <trkpt lat="43.1465104" lon="-2.8393362">
        <ele>123.546</ele>
        <time>2021-04-01T07:54:50.427Z</time>
      </trkpt>
      <trkpt lat="43.1465104" lon="-2.8393362">
        <ele>123.546</ele>
        <time>2021-04-01T07:54:50.856Z</time>
      </trkpt>
      <trkpt lat="43.1464965" lon="-2.8392508">
        <ele>123.783</ele>
        <time>2021-04-01T07:54:51.285Z</time>
      </trkpt>
      <trkpt lat="43.146493" lon="-2.8392375">
        <ele>123.775</ele>
        <time>2021-04-01T07:54:51.505Z</time>
      </trkpt>
      <trkpt lat="43.1464986" lon="-2.8392618">
        <ele>123.658</ele>
        <time>2021-04-01T07:54:51.725Z</time>
      </trkpt>
      <trkpt lat="43.1464965" lon="-2.8392508">
        <ele>123.783</ele>
        <time>2021-04-01T07:54:51.945Z</time>
      </trkpt>
      <trkpt lat="43.146493" lon="-2.8392375">
        <ele>123.775</ele>
        <time>2021-04-01T07:54:52.165Z</time>
      </trkpt>
      <trkpt lat="43.1464803" lon="-2.8391839">
        <ele>123.887</ele>
        <time>2021-04-01T07:54:54.255Z</time>
      </trkpt>
      <trkpt lat="43.1464662" lon="-2.839132">
        <ele>124.301</ele>
        <time>2021-04-01T07:54:54.951Z</time>
      </trkpt>
      <trkpt lat="43.1464662" lon="-2.839132">
        <ele>124.301</ele>
        <time>2021-04-01T07:54:55.648Z</time>
      </trkpt>
      <trkpt lat="43.1464662" lon="-2.839132">
        <ele>124.301</ele>
        <time>2021-04-01T07:54:56.345Z</time>
      </trkpt>
      <trkpt lat="43.1463914" lon="-2.8389359">
        <ele>124.99</ele>
        <time>2021-04-01T07:54:57.335Z</time>
      </trkpt>
      <trkpt lat="43.1463609" lon="-2.8388779">
        <ele>125.333</ele>
        <time>2021-04-01T07:54:57.507Z</time>
      </trkpt>
      <trkpt lat="43.1463546" lon="-2.8388647">
        <ele>125.375</ele>
        <time>2021-04-01T07:54:57.680Z</time>
      </trkpt>
      <trkpt lat="43.1463512" lon="-2.8388585">
        <ele>125.27</ele>
        <time>2021-04-01T07:54:57.853Z</time>
      </trkpt>
      <trkpt lat="43.1463609" lon="-2.8388779">
        <ele>125.333</ele>
        <time>2021-04-01T07:54:58.026Z</time>
      </trkpt>
      <trkpt lat="43.1463546" lon="-2.8388647">
        <ele>125.375</ele>
        <time>2021-04-01T07:54:58.199Z</time>
      </trkpt>
      <trkpt lat="43.1463512" lon="-2.8388585">
        <ele>125.27</ele>
        <time>2021-04-01T07:54:58.372Z</time>
      </trkpt>
      <trkpt lat="43.1463274" lon="-2.8388049">
        <ele>125.462</ele>
        <time>2021-04-01T07:55:00.580Z</time>
      </trkpt>
      <trkpt lat="43.1462737" lon="-2.8386751">
        <ele>125.033</ele>
        <time>2021-04-01T07:55:00.978Z</time>
      </trkpt>
      <trkpt lat="43.1462639" lon="-2.8386497">
        <ele>124.867</ele>
        <time>2021-04-01T07:55:01.377Z</time>
      </trkpt>
      <trkpt lat="43.1462639" lon="-2.8386497">
        <ele>124.867</ele>
        <time>2021-04-01T07:55:01.776Z</time>
      </trkpt>
      <trkpt lat="43.1462331" lon="-2.838569">
        <ele>124.815</ele>
        <time>2021-04-01T07:55:03.440Z</time>
      </trkpt>
      <trkpt lat="43.1462014" lon="-2.8384872">
        <ele>124.508</ele>
        <time>2021-04-01T07:55:05.365Z</time>
      </trkpt>
      <trkpt lat="43.1461852" lon="-2.8384447">
        <ele>124.603</ele>
        <time>2021-04-01T07:55:05.470Z</time>
      </trkpt>
      <trkpt lat="43.1461842" lon="-2.8384408">
        <ele>124.641</ele>
        <time>2021-04-01T07:55:05.575Z</time>
      </trkpt>
      <trkpt lat="43.1461864" lon="-2.8384485">
        <ele>124.558</ele>
        <time>2021-04-01T07:55:05.680Z</time>
      </trkpt>
      <trkpt lat="43.1461804" lon="-2.8384304">
        <ele>124.649</ele>
        <time>2021-04-01T07:55:05.785Z</time>
      </trkpt>
      <trkpt lat="43.1461791" lon="-2.8384268">
        <ele>124.643</ele>
        <time>2021-04-01T07:55:05.890Z</time>
      </trkpt>
      <trkpt lat="43.1461842" lon="-2.8384408">
        <ele>124.641</ele>
        <time>2021-04-01T07:55:05.995Z</time>
      </trkpt>
      <trkpt lat="43.1461804" lon="-2.8384304">
        <ele>124.649</ele>
        <time>2021-04-01T07:55:06.100Z</time>
      </trkpt>
      <trkpt lat="43.1461791" lon="-2.8384268">
        <ele>124.643</ele>
        <time>2021-04-01T07:55:06.205Z</time>
      </trkpt>
      <trkpt lat="43.1461842" lon="-2.8384408">
        <ele>124.641</ele>
        <time>2021-04-01T07:55:06.310Z</time>
      </trkpt>
      <trkpt lat="43.1461804" lon="-2.8384304">
        <ele>124.649</ele>
        <time>2021-04-01T07:55:06.415Z</time>
      </trkpt>
      <trkpt lat="43.1461791" lon="-2.8384268">
        <ele>124.643</ele>
        <time>2021-04-01T07:55:06.520Z</time>
      </trkpt>
      <trkpt lat="43.1461302" lon="-2.8382926">
        <ele>124.757</ele>
        <time>2021-04-01T07:55:06.840Z</time>
      </trkpt>
      <trkpt lat="43.1461104" lon="-2.8382321">
        <ele>125.079</ele>
        <time>2021-04-01T07:55:07.161Z</time>
      </trkpt>
      <trkpt lat="43.1461343" lon="-2.8383022">
        <ele>124.791</ele>
        <time>2021-04-01T07:55:07.482Z</time>
      </trkpt>
      <trkpt lat="43.1461302" lon="-2.8382926">
        <ele>124.757</ele>
        <time>2021-04-01T07:55:07.803Z</time>
      </trkpt>
      <trkpt lat="43.1461104" lon="-2.8382321">
        <ele>125.079</ele>
        <time>2021-04-01T07:55:08.124Z</time>
      </trkpt>
      <trkpt lat="43.1460899" lon="-2.8381679">
        <ele>125.454</ele>
        <time>2021-04-01T07:55:08.445Z</time>
      </trkpt>
      <trkpt lat="43.1460889" lon="-2.8381645">
        <ele>125.453</ele>
        <time>2021-04-01T07:55:08.756Z</time>
      </trkpt>
      <trkpt lat="43.1460877" lon="-2.8381609">
        <ele>125.491</ele>
        <time>2021-04-01T07:55:09.068Z</time>
      </trkpt>
      <trkpt lat="43.1460899" lon="-2.8381679">
        <ele>125.454</ele>
        <time>2021-04-01T07:55:09.380Z</time>
      </trkpt>
      <trkpt lat="43.1460889" lon="-2.8381645">
        <ele>125.453</ele>
        <time>2021-04-01T07:55:09.691Z</time>
      </trkpt>
      <trkpt lat="43.1460877" lon="-2.8381609">
        <ele>125.491</ele>
        <time>2021-04-01T07:55:10.003Z</time>
      </trkpt>
      <trkpt lat="43.1460531" lon="-2.8380492">
        <ele>126.01</ele>
        <time>2021-04-01T07:55:11.360Z</time>
      </trkpt>
      <trkpt lat="43.1460341" lon="-2.837983">
        <ele>126.387</ele>
        <time>2021-04-01T07:55:11.540Z</time>
      </trkpt>
      <trkpt lat="43.1460185" lon="-2.8379267">
        <ele>126.717</ele>
        <time>2021-04-01T07:55:11.721Z</time>
      </trkpt>
      <trkpt lat="43.146021" lon="-2.8379371">
        <ele>126.651</ele>
        <time>2021-04-01T07:55:11.902Z</time>
      </trkpt>
      <trkpt lat="43.1460185" lon="-2.8379267">
        <ele>126.717</ele>
        <time>2021-04-01T07:55:12.082Z</time>
      </trkpt>
      <trkpt lat="43.146021" lon="-2.8379371">
        <ele>126.651</ele>
        <time>2021-04-01T07:55:12.263Z</time>
      </trkpt>
      <trkpt lat="43.1460185" lon="-2.8379267">
        <ele>126.717</ele>
        <time>2021-04-01T07:55:12.444Z</time>
      </trkpt>
      <trkpt lat="43.1460116" lon="-2.8379022">
        <ele>126.859</ele>
        <time>2021-04-01T07:55:14.990Z</time>
      </trkpt>
      <trkpt lat="43.1459744" lon="-2.837754">
        <ele>128.284</ele>
        <time>2021-04-01T07:55:15.170Z</time>
      </trkpt>
      <trkpt lat="43.1459696" lon="-2.8377256">
        <ele>128.648</ele>
        <time>2021-04-01T07:55:15.351Z</time>
      </trkpt>
      <trkpt lat="43.1459707" lon="-2.8377326">
        <ele>128.533</ele>
        <time>2021-04-01T07:55:15.532Z</time>
      </trkpt>
      <trkpt lat="43.1459696" lon="-2.8377256">
        <ele>128.648</ele>
        <time>2021-04-01T07:55:15.712Z</time>
      </trkpt>
      <trkpt lat="43.1459707" lon="-2.8377326">
        <ele>128.533</ele>
        <time>2021-04-01T07:55:15.893Z</time>
      </trkpt>
      <trkpt lat="43.1459696" lon="-2.8377256">
        <ele>128.648</ele>
        <time>2021-04-01T07:55:16.074Z</time>
      </trkpt>
      <trkpt lat="43.1459617" lon="-2.8376734">
        <ele>128.932</ele>
        <time>2021-04-01T07:55:16.255Z</time>
      </trkpt>
      <trkpt lat="43.1459575" lon="-2.8376352">
        <ele>129.025</ele>
        <time>2021-04-01T07:55:16.585Z</time>
      </trkpt>
      <trkpt lat="43.1459599" lon="-2.8376559">
        <ele>128.977</ele>
        <time>2021-04-01T07:55:16.915Z</time>
      </trkpt>
      <trkpt lat="43.1459575" lon="-2.8376352">
        <ele>129.025</ele>
        <time>2021-04-01T07:55:17.245Z</time>
      </trkpt>
      <trkpt lat="43.1459599" lon="-2.8376559">
        <ele>128.977</ele>
        <time>2021-04-01T07:55:17.575Z</time>
      </trkpt>
      <trkpt lat="43.1459575" lon="-2.8376352">
        <ele>129.025</ele>
        <time>2021-04-01T07:55:17.905Z</time>
      </trkpt>
      <trkpt lat="43.145949" lon="-2.8375491">
        <ele>129.228</ele>
        <time>2021-04-01T07:55:19.390Z</time>
      </trkpt>
      <trkpt lat="43.1459421" lon="-2.8374771">
        <ele>129.882</ele>
        <time>2021-04-01T07:55:19.580Z</time>
      </trkpt>
      <trkpt lat="43.1459376" lon="-2.8374372">
        <ele>130.084</ele>
        <time>2021-04-01T07:55:19.770Z</time>
      </trkpt>
      <trkpt lat="43.1459415" lon="-2.8374735">
        <ele>129.914</ele>
        <time>2021-04-01T07:55:19.960Z</time>
      </trkpt>
      <trkpt lat="43.1459415" lon="-2.8374701">
        <ele>129.95</ele>
        <time>2021-04-01T07:55:20.150Z</time>
      </trkpt>
      <trkpt lat="43.1459407" lon="-2.8374598">
        <ele>129.987</ele>
        <time>2021-04-01T07:55:20.340Z</time>
      </trkpt>
      <trkpt lat="43.1459376" lon="-2.8374372">
        <ele>130.084</ele>
        <time>2021-04-01T07:55:20.530Z</time>
      </trkpt>
      <trkpt lat="43.1459415" lon="-2.8374735">
        <ele>129.914</ele>
        <time>2021-04-01T07:55:20.720Z</time>
      </trkpt>
      <trkpt lat="43.1459415" lon="-2.8374701">
        <ele>129.95</ele>
        <time>2021-04-01T07:55:20.910Z</time>
      </trkpt>
      <trkpt lat="43.1459407" lon="-2.8374598">
        <ele>129.987</ele>
        <time>2021-04-01T07:55:21.100Z</time>
      </trkpt>
      <trkpt lat="43.1459376" lon="-2.8374372">
        <ele>130.084</ele>
        <time>2021-04-01T07:55:21.290Z</time>
      </trkpt>
      <trkpt lat="43.1459218" lon="-2.8373558">
        <ele>130.427</ele>
        <time>2021-04-01T07:55:22.580Z</time>
      </trkpt>
      <trkpt lat="43.1459074" lon="-2.8372946">
        <ele>131.295</ele>
        <time>2021-04-01T07:55:22.679Z</time>
      </trkpt>
      <trkpt lat="43.1459065" lon="-2.8372916">
        <ele>131.322</ele>
        <time>2021-04-01T07:55:22.778Z</time>
      </trkpt>
      <trkpt lat="43.1459074" lon="-2.8372946">
        <ele>131.295</ele>
        <time>2021-04-01T07:55:22.877Z</time>
      </trkpt>
      <trkpt lat="43.1458997" lon="-2.8372652">
        <ele>131.344</ele>
        <time>2021-04-01T07:55:22.976Z</time>
      </trkpt>
      <trkpt lat="43.145899" lon="-2.8372622">
        <ele>131.301</ele>
        <time>2021-04-01T07:55:23.075Z</time>
      </trkpt>
      <trkpt lat="43.1458997" lon="-2.8372652">
        <ele>131.344</ele>
        <time>2021-04-01T07:55:23.174Z</time>
      </trkpt>
      <trkpt lat="43.145899" lon="-2.8372622">
        <ele>131.301</ele>
        <time>2021-04-01T07:55:23.273Z</time>
      </trkpt>
      <trkpt lat="43.1458997" lon="-2.8372652">
        <ele>131.344</ele>
        <time>2021-04-01T07:55:23.372Z</time>
      </trkpt>
      <trkpt lat="43.145899" lon="-2.8372622">
        <ele>131.301</ele>
        <time>2021-04-01T07:55:23.471Z</time>
      </trkpt>
      <trkpt lat="43.1458929" lon="-2.8372412">
        <ele>131.447</ele>
        <time>2021-04-01T07:55:26.100Z</time>
      </trkpt>
      <trkpt lat="43.1458637" lon="-2.837097">
        <ele>132.238</ele>
        <time>2021-04-01T07:55:26.558Z</time>
      </trkpt>
      <trkpt lat="43.1458637" lon="-2.837097">
        <ele>132.238</ele>
        <time>2021-04-01T07:55:27.016Z</time>
      </trkpt>
      <trkpt lat="43.1458548" lon="-2.8370155">
        <ele>132.823</ele>
        <time>2021-04-01T07:55:27.475Z</time>
      </trkpt>
      <trkpt lat="43.1458539" lon="-2.8369921">
        <ele>133.022</ele>
        <time>2021-04-01T07:55:27.684Z</time>
      </trkpt>
      <trkpt lat="43.1458551" lon="-2.8370284">
        <ele>132.742</ele>
        <time>2021-04-01T07:55:27.893Z</time>
      </trkpt>
      <trkpt lat="43.1458548" lon="-2.8370155">
        <ele>132.823</ele>
        <time>2021-04-01T07:55:28.102Z</time>
      </trkpt>
      <trkpt lat="43.1458539" lon="-2.8369921">
        <ele>133.022</ele>
        <time>2021-04-01T07:55:28.311Z</time>
      </trkpt>
      <trkpt lat="43.1458537" lon="-2.8369523">
        <ele>133.002</ele>
        <time>2021-04-01T07:55:30.445Z</time>
      </trkpt>
      <trkpt lat="43.1458609" lon="-2.8368402">
        <ele>133.656</ele>
        <time>2021-04-01T07:55:30.603Z</time>
      </trkpt>
      <trkpt lat="43.1458617" lon="-2.8368299">
        <ele>133.704</ele>
        <time>2021-04-01T07:55:30.762Z</time>
      </trkpt>
      <trkpt lat="43.1458634" lon="-2.8368175">
        <ele>133.897</ele>
        <time>2021-04-01T07:55:30.921Z</time>
      </trkpt>
      <trkpt lat="43.1458609" lon="-2.8368402">
        <ele>133.656</ele>
        <time>2021-04-01T07:55:31.080Z</time>
      </trkpt>
      <trkpt lat="43.1458617" lon="-2.8368299">
        <ele>133.704</ele>
        <time>2021-04-01T07:55:31.239Z</time>
      </trkpt>
      <trkpt lat="43.1458634" lon="-2.8368175">
        <ele>133.897</ele>
        <time>2021-04-01T07:55:31.398Z</time>
      </trkpt>
      <trkpt lat="43.1458617" lon="-2.8368299">
        <ele>133.704</ele>
        <time>2021-04-01T07:55:31.557Z</time>
      </trkpt>
      <trkpt lat="43.1458634" lon="-2.8368175">
        <ele>133.897</ele>
        <time>2021-04-01T07:55:31.716Z</time>
      </trkpt>
      <trkpt lat="43.1458692" lon="-2.8367547">
        <ele>134.482</ele>
        <time>2021-04-01T07:55:33.580Z</time>
      </trkpt>
      <trkpt lat="43.1458837" lon="-2.8366511">
        <ele>135.448</ele>
        <time>2021-04-01T07:55:35.505Z</time>
      </trkpt>
      <trkpt lat="43.1458839" lon="-2.8366475">
        <ele>135.502</ele>
        <time>2021-04-01T07:55:35.677Z</time>
      </trkpt>
      <trkpt lat="43.1458848" lon="-2.8366408">
        <ele>135.578</ele>
        <time>2021-04-01T07:55:35.850Z</time>
      </trkpt>
      <trkpt lat="43.1458856" lon="-2.8366374">
        <ele>135.622</ele>
        <time>2021-04-01T07:55:36.023Z</time>
      </trkpt>
      <trkpt lat="43.1458837" lon="-2.8366511">
        <ele>135.448</ele>
        <time>2021-04-01T07:55:36.196Z</time>
      </trkpt>
      <trkpt lat="43.1458898" lon="-2.8366091">
        <ele>135.836</ele>
        <time>2021-04-01T07:55:36.369Z</time>
      </trkpt>
      <trkpt lat="43.1458898" lon="-2.8366091">
        <ele>135.836</ele>
        <time>2021-04-01T07:55:36.542Z</time>
      </trkpt>
      <trkpt lat="43.1458898" lon="-2.8366091">
        <ele>135.836</ele>
        <time>2021-04-01T07:55:36.715Z</time>
      </trkpt>
      <trkpt lat="43.1459131" lon="-2.8364695">
        <ele>136.619</ele>
        <time>2021-04-01T07:55:37.576Z</time>
      </trkpt>
      <trkpt lat="43.1459177" lon="-2.8364407">
        <ele>136.818</ele>
        <time>2021-04-01T07:55:38.438Z</time>
      </trkpt>
      <trkpt lat="43.1459388" lon="-2.8363197">
        <ele>137.97</ele>
        <time>2021-04-01T07:55:39.300Z</time>
      </trkpt>
      <trkpt lat="43.1459347" lon="-2.8363427">
        <ele>137.685</ele>
        <time>2021-04-01T07:55:39.443Z</time>
      </trkpt>
      <trkpt lat="43.1459354" lon="-2.8363395">
        <ele>137.716</ele>
        <time>2021-04-01T07:55:39.586Z</time>
      </trkpt>
      <trkpt lat="43.1459347" lon="-2.8363427">
        <ele>137.685</ele>
        <time>2021-04-01T07:55:39.729Z</time>
      </trkpt>
      <trkpt lat="43.1459354" lon="-2.8363395">
        <ele>137.716</ele>
        <time>2021-04-01T07:55:39.872Z</time>
      </trkpt>
      <trkpt lat="43.145946" lon="-2.8362767">
        <ele>138.432</ele>
        <time>2021-04-01T07:55:41.280Z</time>
      </trkpt>
      <trkpt lat="43.1459595" lon="-2.8362047">
        <ele>138.786</ele>
        <time>2021-04-01T07:55:41.654Z</time>
      </trkpt>
      <trkpt lat="43.1459673" lon="-2.8361642">
        <ele>138.918</ele>
        <time>2021-04-01T07:55:42.028Z</time>
      </trkpt>
      <trkpt lat="43.1459673" lon="-2.8361642">
        <ele>138.918</ele>
        <time>2021-04-01T07:55:42.402Z</time>
      </trkpt>
      <trkpt lat="43.1459673" lon="-2.8361642">
        <ele>138.918</ele>
        <time>2021-04-01T07:55:42.776Z</time>
      </trkpt>
      <trkpt lat="43.1459825" lon="-2.8360991">
        <ele>139.219</ele>
        <time>2021-04-01T07:55:45.240Z</time>
      </trkpt>
      <trkpt lat="43.1460163" lon="-2.8359792">
        <ele>139.796</ele>
        <time>2021-04-01T07:55:45.625Z</time>
      </trkpt>
      <trkpt lat="43.1460182" lon="-2.8359729">
        <ele>139.847</ele>
        <time>2021-04-01T07:55:45.970Z</time>
      </trkpt>
      <trkpt lat="43.1460163" lon="-2.8359792">
        <ele>139.796</ele>
        <time>2021-04-01T07:55:46.316Z</time>
      </trkpt>
      <trkpt lat="43.1460182" lon="-2.8359729">
        <ele>139.847</ele>
        <time>2021-04-01T07:55:46.662Z</time>
      </trkpt>
      <trkpt lat="43.1460191" lon="-2.8359696">
        <ele>139.894</ele>
        <time>2021-04-01T07:55:47.007Z</time>
      </trkpt>
      <trkpt lat="43.1460163" lon="-2.8359792">
        <ele>139.796</ele>
        <time>2021-04-01T07:55:47.353Z</time>
      </trkpt>
      <trkpt lat="43.1460182" lon="-2.8359729">
        <ele>139.847</ele>
        <time>2021-04-01T07:55:47.699Z</time>
      </trkpt>
      <trkpt lat="43.1460191" lon="-2.8359696">
        <ele>139.894</ele>
        <time>2021-04-01T07:55:48.045Z</time>
      </trkpt>
      <trkpt lat="43.1460694" lon="-2.8358246">
        <ele>140.683</ele>
        <time>2021-04-01T07:55:50.465Z</time>
      </trkpt>
      <trkpt lat="43.1461191" lon="-2.8356944">
        <ele>141.275</ele>
        <time>2021-04-01T07:55:50.533Z</time>
      </trkpt>
      <trkpt lat="43.1461051" lon="-2.8357302">
        <ele>141.103</ele>
        <time>2021-04-01T07:55:50.602Z</time>
      </trkpt>
      <trkpt lat="43.1461051" lon="-2.8357302">
        <ele>141.103</ele>
        <time>2021-04-01T07:55:50.671Z</time>
      </trkpt>
      <trkpt lat="43.1461248" lon="-2.8356806">
        <ele>141.244</ele>
        <time>2021-04-01T07:55:52.555Z</time>
      </trkpt>
      <trkpt lat="43.1461595" lon="-2.8355836">
        <ele>141.37</ele>
        <time>2021-04-01T07:55:53.765Z</time>
      </trkpt>
      <trkpt lat="43.1461614" lon="-2.8355775">
        <ele>141.388</ele>
        <time>2021-04-01T07:55:53.869Z</time>
      </trkpt>
      <trkpt lat="43.1461595" lon="-2.8355836">
        <ele>141.37</ele>
        <time>2021-04-01T07:55:53.973Z</time>
      </trkpt>
      <trkpt lat="43.1461614" lon="-2.8355775">
        <ele>141.388</ele>
        <time>2021-04-01T07:55:54.077Z</time>
      </trkpt>
      <trkpt lat="43.1461645" lon="-2.8355688">
        <ele>141.38</ele>
        <time>2021-04-01T07:55:54.181Z</time>
      </trkpt>
      <trkpt lat="43.1461687" lon="-2.835557">
        <ele>141.45</ele>
        <time>2021-04-01T07:55:54.286Z</time>
      </trkpt>
      <trkpt lat="43.1461717" lon="-2.8355481">
        <ele>141.517</ele>
        <time>2021-04-01T07:55:54.390Z</time>
      </trkpt>
      <trkpt lat="43.1461645" lon="-2.8355688">
        <ele>141.38</ele>
        <time>2021-04-01T07:55:54.494Z</time>
      </trkpt>
      <trkpt lat="43.1461687" lon="-2.835557">
        <ele>141.45</ele>
        <time>2021-04-01T07:55:54.598Z</time>
      </trkpt>
      <trkpt lat="43.1461717" lon="-2.8355481">
        <ele>141.517</ele>
        <time>2021-04-01T07:55:54.702Z</time>
      </trkpt>
      <trkpt lat="43.1461826" lon="-2.8355189">
        <ele>141.662</ele>
        <time>2021-04-01T07:55:54.807Z</time>
      </trkpt>
      <trkpt lat="43.1461988" lon="-2.8354797">
        <ele>141.873</ele>
        <time>2021-04-01T07:55:54.911Z</time>
      </trkpt>
      <trkpt lat="43.1461964" lon="-2.8354853">
        <ele>141.832</ele>
        <time>2021-04-01T07:55:55.015Z</time>
      </trkpt>
      <trkpt lat="43.1462044" lon="-2.8354652">
        <ele>141.92</ele>
        <time>2021-04-01T07:55:55.119Z</time>
      </trkpt>
      <trkpt lat="43.1462055" lon="-2.8354624">
        <ele>141.938</ele>
        <time>2021-04-01T07:55:55.223Z</time>
      </trkpt>
      <trkpt lat="43.1462044" lon="-2.8354652">
        <ele>141.92</ele>
        <time>2021-04-01T07:55:55.328Z</time>
      </trkpt>
      <trkpt lat="43.1462055" lon="-2.8354624">
        <ele>141.938</ele>
        <time>2021-04-01T07:55:55.432Z</time>
      </trkpt>
      <trkpt lat="43.1462044" lon="-2.8354652">
        <ele>141.92</ele>
        <time>2021-04-01T07:55:55.536Z</time>
      </trkpt>
      <trkpt lat="43.1462055" lon="-2.8354624">
        <ele>141.938</ele>
        <time>2021-04-01T07:55:55.640Z</time>
      </trkpt>
      <trkpt lat="43.1462262" lon="-2.8354173">
        <ele>142.196</ele>
        <time>2021-04-01T07:55:58.440Z</time>
      </trkpt>
      <trkpt lat="43.1462887" lon="-2.8352838">
        <ele>142.711</ele>
        <time>2021-04-01T07:55:58.467Z</time>
      </trkpt>
      <trkpt lat="43.1462749" lon="-2.8353172">
        <ele>142.521</ele>
        <time>2021-04-01T07:55:58.495Z</time>
      </trkpt>
      <trkpt lat="43.1462761" lon="-2.8353143">
        <ele>142.549</ele>
        <time>2021-04-01T07:55:58.522Z</time>
      </trkpt>
      <trkpt lat="43.1462749" lon="-2.8353172">
        <ele>142.521</ele>
        <time>2021-04-01T07:55:58.550Z</time>
      </trkpt>
      <trkpt lat="43.1462761" lon="-2.8353143">
        <ele>142.549</ele>
        <time>2021-04-01T07:55:58.577Z</time>
      </trkpt>
      <trkpt lat="43.1462924" lon="-2.8352757">
        <ele>142.759</ele>
        <time>2021-04-01T07:56:00.530Z</time>
      </trkpt>
      <trkpt lat="43.1463352" lon="-2.8351796">
        <ele>143.171</ele>
        <time>2021-04-01T07:56:00.675Z</time>
      </trkpt>
      <trkpt lat="43.146341" lon="-2.8351657">
        <ele>143.227</ele>
        <time>2021-04-01T07:56:00.820Z</time>
      </trkpt>
      <trkpt lat="43.1463468" lon="-2.8351522">
        <ele>143.254</ele>
        <time>2021-04-01T07:56:00.965Z</time>
      </trkpt>
      <trkpt lat="43.1463387" lon="-2.8351713">
        <ele>143.201</ele>
        <time>2021-04-01T07:56:01.110Z</time>
      </trkpt>
      <trkpt lat="43.1463399" lon="-2.8351688">
        <ele>143.186</ele>
        <time>2021-04-01T07:56:01.255Z</time>
      </trkpt>
      <trkpt lat="43.146341" lon="-2.8351657">
        <ele>143.227</ele>
        <time>2021-04-01T07:56:01.400Z</time>
      </trkpt>
      <trkpt lat="43.1463468" lon="-2.8351522">
        <ele>143.254</ele>
        <time>2021-04-01T07:56:01.545Z</time>
      </trkpt>
      <trkpt lat="43.1463399" lon="-2.8351688">
        <ele>143.186</ele>
        <time>2021-04-01T07:56:01.690Z</time>
      </trkpt>
      <trkpt lat="43.146341" lon="-2.8351657">
        <ele>143.227</ele>
        <time>2021-04-01T07:56:01.835Z</time>
      </trkpt>
      <trkpt lat="43.1463468" lon="-2.8351522">
        <ele>143.254</ele>
        <time>2021-04-01T07:56:01.980Z</time>
      </trkpt>
      <trkpt lat="43.1463683" lon="-2.8350986">
        <ele>143.49</ele>
        <time>2021-04-01T07:56:04.215Z</time>
      </trkpt>
      <trkpt lat="43.1464131" lon="-2.8349895">
        <ele>144.171</ele>
        <time>2021-04-01T07:56:04.270Z</time>
      </trkpt>
      <trkpt lat="43.1464064" lon="-2.8350074">
        <ele>144.049</ele>
        <time>2021-04-01T07:56:04.325Z</time>
      </trkpt>
      <trkpt lat="43.1464109" lon="-2.8349957">
        <ele>144.106</ele>
        <time>2021-04-01T07:56:04.380Z</time>
      </trkpt>
      <trkpt lat="43.1464131" lon="-2.8349895">
        <ele>144.171</ele>
        <time>2021-04-01T07:56:04.435Z</time>
      </trkpt>
      <trkpt lat="43.1464064" lon="-2.8350074">
        <ele>144.049</ele>
        <time>2021-04-01T07:56:04.490Z</time>
      </trkpt>
      <trkpt lat="43.1464109" lon="-2.8349957">
        <ele>144.106</ele>
        <time>2021-04-01T07:56:04.545Z</time>
      </trkpt>
      <trkpt lat="43.1464131" lon="-2.8349895">
        <ele>144.171</ele>
        <time>2021-04-01T07:56:04.600Z</time>
      </trkpt>
      <trkpt lat="43.1464226" lon="-2.8349657">
        <ele>144.358</ele>
        <time>2021-04-01T07:56:06.305Z</time>
      </trkpt>
      <trkpt lat="43.1464734" lon="-2.8348453">
        <ele>145.271</ele>
        <time>2021-04-01T07:56:06.666Z</time>
      </trkpt>
      <trkpt lat="43.1464786" lon="-2.834834">
        <ele>145.358</ele>
        <time>2021-04-01T07:56:07.027Z</time>
      </trkpt>
      <trkpt lat="43.1464734" lon="-2.8348453">
        <ele>145.271</ele>
        <time>2021-04-01T07:56:07.389Z</time>
      </trkpt>
      <trkpt lat="43.1464786" lon="-2.834834">
        <ele>145.358</ele>
        <time>2021-04-01T07:56:07.750Z</time>
      </trkpt>
      <trkpt lat="43.1464734" lon="-2.8348453">
        <ele>145.271</ele>
        <time>2021-04-01T07:56:08.112Z</time>
      </trkpt>
      <trkpt lat="43.1464786" lon="-2.834834">
        <ele>145.358</ele>
        <time>2021-04-01T07:56:08.473Z</time>
      </trkpt>
      <trkpt lat="43.1465127" lon="-2.8347443">
        <ele>145.508</ele>
        <time>2021-04-01T07:56:08.835Z</time>
      </trkpt>
      <trkpt lat="43.1465356" lon="-2.8346853">
        <ele>145.742</ele>
        <time>2021-04-01T07:56:11.695Z</time>
      </trkpt>
      <trkpt lat="43.1465715" lon="-2.8345901">
        <ele>146.356</ele>
        <time>2021-04-01T07:56:12.960Z</time>
      </trkpt>
      <trkpt lat="43.1466307" lon="-2.8344174">
        <ele>147.007</ele>
        <time>2021-04-01T07:56:15.930Z</time>
      </trkpt>
      <trkpt lat="43.1466317" lon="-2.8344145">
        <ele>147.022</ele>
        <time>2021-04-01T07:56:16.189Z</time>
      </trkpt>
      <trkpt lat="43.1466326" lon="-2.8344114">
        <ele>147.029</ele>
        <time>2021-04-01T07:56:16.448Z</time>
      </trkpt>
      <trkpt lat="43.1466365" lon="-2.8343957">
        <ele>147.063</ele>
        <time>2021-04-01T07:56:16.707Z</time>
      </trkpt>
      <trkpt lat="43.1466307" lon="-2.8344174">
        <ele>147.007</ele>
        <time>2021-04-01T07:56:16.967Z</time>
      </trkpt>
      <trkpt lat="43.1466317" lon="-2.8344145">
        <ele>147.022</ele>
        <time>2021-04-01T07:56:17.226Z</time>
      </trkpt>
      <trkpt lat="43.1466326" lon="-2.8344114">
        <ele>147.029</ele>
        <time>2021-04-01T07:56:17.485Z</time>
      </trkpt>
      <trkpt lat="43.1466365" lon="-2.8343957">
        <ele>147.063</ele>
        <time>2021-04-01T07:56:17.745Z</time>
      </trkpt>
      <trkpt lat="43.1466672" lon="-2.8342591">
        <ele>147.116</ele>
        <time>2021-04-01T07:56:19.285Z</time>
      </trkpt>
      <trkpt lat="43.1466731" lon="-2.8341718">
        <ele>146.927</ele>
        <time>2021-04-01T07:56:20.715Z</time>
      </trkpt>
      <trkpt lat="43.1466643" lon="-2.8340937">
        <ele>147.126</ele>
        <time>2021-04-01T07:56:22.255Z</time>
      </trkpt>
      <trkpt lat="43.1466484" lon="-2.8340079">
        <ele>147.297</ele>
        <time>2021-04-01T07:56:24.675Z</time>
      </trkpt>
      <trkpt lat="43.1466037" lon="-2.8338044">
        <ele>147.281</ele>
        <time>2021-04-01T07:56:28.140Z</time>
      </trkpt>
      <trkpt lat="43.1465737" lon="-2.8336831">
        <ele>147.608</ele>
        <time>2021-04-01T07:56:28.305Z</time>
      </trkpt>
      <trkpt lat="43.1465876" lon="-2.8337392">
        <ele>147.551</ele>
        <time>2021-04-01T07:56:28.470Z</time>
      </trkpt>
      <trkpt lat="43.1465673" lon="-2.8336572">
        <ele>147.492</ele>
        <time>2021-04-01T07:56:30.505Z</time>
      </trkpt>
      <trkpt lat="43.1465427" lon="-2.8335584">
        <ele>147.537</ele>
        <time>2021-04-01T07:56:30.688Z</time>
      </trkpt>
      <trkpt lat="43.1465427" lon="-2.8335584">
        <ele>147.537</ele>
        <time>2021-04-01T07:56:30.871Z</time>
      </trkpt>
      <trkpt lat="43.1465357" lon="-2.8335341">
        <ele>147.43</ele>
        <time>2021-04-01T07:56:31.054Z</time>
      </trkpt>
      <trkpt lat="43.1465341" lon="-2.8335289">
        <ele>147.397</ele>
        <time>2021-04-01T07:56:31.238Z</time>
      </trkpt>
      <trkpt lat="43.1465357" lon="-2.8335341">
        <ele>147.43</ele>
        <time>2021-04-01T07:56:31.421Z</time>
      </trkpt>
      <trkpt lat="43.1465341" lon="-2.8335289">
        <ele>147.397</ele>
        <time>2021-04-01T07:56:31.604Z</time>
      </trkpt>
      <trkpt lat="43.1465357" lon="-2.8335341">
        <ele>147.43</ele>
        <time>2021-04-01T07:56:31.788Z</time>
      </trkpt>
      <trkpt lat="43.1465341" lon="-2.8335289">
        <ele>147.397</ele>
        <time>2021-04-01T07:56:31.971Z</time>
      </trkpt>
      <trkpt lat="43.146519" lon="-2.8334765">
        <ele>147.68</ele>
        <time>2021-04-01T07:56:33.860Z</time>
      </trkpt>
      <trkpt lat="43.1464374" lon="-2.8332172">
        <ele>147.422</ele>
        <time>2021-04-01T07:56:37.270Z</time>
      </trkpt>
      <trkpt lat="43.1464374" lon="-2.8332172">
        <ele>147.422</ele>
        <time>2021-04-01T07:56:37.765Z</time>
      </trkpt>
      <trkpt lat="43.1464184" lon="-2.8331635">
        <ele>147.369</ele>
        <time>2021-04-01T07:56:40.735Z</time>
      </trkpt>
      <trkpt lat="43.1463397" lon="-2.8329031">
        <ele>147.458</ele>
        <time>2021-04-01T07:56:44.805Z</time>
      </trkpt>
      <trkpt lat="43.1463055" lon="-2.8327773">
        <ele>147.191</ele>
        <time>2021-04-01T07:56:46.730Z</time>
      </trkpt>
      <trkpt lat="43.1462985" lon="-2.8327542">
        <ele>147.167</ele>
        <time>2021-04-01T07:56:46.851Z</time>
      </trkpt>
      <trkpt lat="43.1463033" lon="-2.8327709">
        <ele>147.164</ele>
        <time>2021-04-01T07:56:46.972Z</time>
      </trkpt>
      <trkpt lat="43.1462985" lon="-2.8327542">
        <ele>147.167</ele>
        <time>2021-04-01T07:56:47.093Z</time>
      </trkpt>
      <trkpt lat="43.1463033" lon="-2.8327709">
        <ele>147.164</ele>
        <time>2021-04-01T07:56:47.214Z</time>
      </trkpt>
      <trkpt lat="43.1462985" lon="-2.8327542">
        <ele>147.167</ele>
        <time>2021-04-01T07:56:47.335Z</time>
      </trkpt>
      <trkpt lat="43.1462581" lon="-2.832629">
        <ele>147.134</ele>
        <time>2021-04-01T07:56:50.195Z</time>
      </trkpt>
      <trkpt lat="43.1462069" lon="-2.8324568">
        <ele>146.663</ele>
        <time>2021-04-01T07:56:50.341Z</time>
      </trkpt>
      <trkpt lat="43.1462128" lon="-2.8324728">
        <ele>146.74</ele>
        <time>2021-04-01T07:56:50.488Z</time>
      </trkpt>
      <trkpt lat="43.1462118" lon="-2.8324695">
        <ele>146.727</ele>
        <time>2021-04-01T07:56:50.635Z</time>
      </trkpt>
      <trkpt lat="43.1462128" lon="-2.8324728">
        <ele>146.74</ele>
        <time>2021-04-01T07:56:50.781Z</time>
      </trkpt>
      <trkpt lat="43.1462118" lon="-2.8324695">
        <ele>146.727</ele>
        <time>2021-04-01T07:56:50.928Z</time>
      </trkpt>
      <trkpt lat="43.1461871" lon="-2.8324053">
        <ele>146.419</ele>
        <time>2021-04-01T07:56:52.065Z</time>
      </trkpt>
      <trkpt lat="43.1461606" lon="-2.8323496">
        <ele>146.096</ele>
        <time>2021-04-01T07:56:52.410Z</time>
      </trkpt>
      <trkpt lat="43.1461213" lon="-2.8322902">
        <ele>145.815</ele>
        <time>2021-04-01T07:56:52.756Z</time>
      </trkpt>
      <trkpt lat="43.146134" lon="-2.8323061">
        <ele>145.842</ele>
        <time>2021-04-01T07:56:53.102Z</time>
      </trkpt>
      <trkpt lat="43.1461213" lon="-2.8322902">
        <ele>145.815</ele>
        <time>2021-04-01T07:56:53.447Z</time>
      </trkpt>
      <trkpt lat="43.146134" lon="-2.8323061">
        <ele>145.842</ele>
        <time>2021-04-01T07:56:53.793Z</time>
      </trkpt>
      <trkpt lat="43.1461213" lon="-2.8322902">
        <ele>145.815</ele>
        <time>2021-04-01T07:56:54.139Z</time>
      </trkpt>
      <trkpt lat="43.1460714" lon="-2.8322292">
        <ele>145.365</ele>
        <time>2021-04-01T07:56:56.355Z</time>
      </trkpt>
      <trkpt lat="43.1459868" lon="-2.832143">
        <ele>144.672</ele>
        <time>2021-04-01T07:56:57.015Z</time>
      </trkpt>
      <trkpt lat="43.145954" lon="-2.8321141">
        <ele>144.594</ele>
        <time>2021-04-01T07:56:57.175Z</time>
      </trkpt>
      <trkpt lat="43.1459404" lon="-2.8321026">
        <ele>144.593</ele>
        <time>2021-04-01T07:56:57.335Z</time>
      </trkpt>
      <trkpt lat="43.1459289" lon="-2.8320939">
        <ele>144.583</ele>
        <time>2021-04-01T07:56:57.496Z</time>
      </trkpt>
      <trkpt lat="43.145911" lon="-2.8320821">
        <ele>144.605</ele>
        <time>2021-04-01T07:56:57.656Z</time>
      </trkpt>
      <trkpt lat="43.1459431" lon="-2.8321047">
        <ele>144.585</ele>
        <time>2021-04-01T07:56:57.817Z</time>
      </trkpt>
      <trkpt lat="43.1459404" lon="-2.8321026">
        <ele>144.593</ele>
        <time>2021-04-01T07:56:57.977Z</time>
      </trkpt>
      <trkpt lat="43.1459289" lon="-2.8320939">
        <ele>144.583</ele>
        <time>2021-04-01T07:56:58.137Z</time>
      </trkpt>
      <trkpt lat="43.145911" lon="-2.8320821">
        <ele>144.605</ele>
        <time>2021-04-01T07:56:58.298Z</time>
      </trkpt>
      <trkpt lat="43.1459404" lon="-2.8321026">
        <ele>144.593</ele>
        <time>2021-04-01T07:56:58.458Z</time>
      </trkpt>
      <trkpt lat="43.1459289" lon="-2.8320939">
        <ele>144.583</ele>
        <time>2021-04-01T07:56:58.619Z</time>
      </trkpt>
      <trkpt lat="43.145911" lon="-2.8320821">
        <ele>144.605</ele>
        <time>2021-04-01T07:56:58.779Z</time>
      </trkpt>
      <trkpt lat="43.1458488" lon="-2.8320433">
        <ele>144.676</ele>
        <time>2021-04-01T07:57:01.030Z</time>
      </trkpt>
      <trkpt lat="43.1458262" lon="-2.832031">
        <ele>144.58</ele>
        <time>2021-04-01T07:57:01.382Z</time>
      </trkpt>
      <trkpt lat="43.1458295" lon="-2.8320328">
        <ele>144.594</ele>
        <time>2021-04-01T07:57:01.734Z</time>
      </trkpt>
      <trkpt lat="43.1458262" lon="-2.832031">
        <ele>144.58</ele>
        <time>2021-04-01T07:57:02.086Z</time>
      </trkpt>
      <trkpt lat="43.1458295" lon="-2.8320328">
        <ele>144.594</ele>
        <time>2021-04-01T07:57:02.438Z</time>
      </trkpt>
      <trkpt lat="43.1458262" lon="-2.832031">
        <ele>144.58</ele>
        <time>2021-04-01T07:57:02.790Z</time>
      </trkpt>
      <trkpt lat="43.1456423" lon="-2.8318398">
        <ele>143.808</ele>
        <time>2021-04-01T07:57:02.955Z</time>
      </trkpt>
      <trkpt lat="43.145635" lon="-2.8318263">
        <ele>143.797</ele>
        <time>2021-04-01T07:57:03.223Z</time>
      </trkpt>
      <trkpt lat="43.1455906" lon="-2.8317367">
        <ele>143.17</ele>
        <time>2021-04-01T07:57:03.492Z</time>
      </trkpt>
      <trkpt lat="43.1455946" lon="-2.8317472">
        <ele>143.244</ele>
        <time>2021-04-01T07:57:03.761Z</time>
      </trkpt>
      <trkpt lat="43.1455807" lon="-2.8317108">
        <ele>143.044</ele>
        <time>2021-04-01T07:57:04.030Z</time>
      </trkpt>
      <trkpt lat="43.1455886" lon="-2.8317317">
        <ele>143.138</ele>
        <time>2021-04-01T07:57:04.299Z</time>
      </trkpt>
      <trkpt lat="43.1455807" lon="-2.8317108">
        <ele>143.044</ele>
        <time>2021-04-01T07:57:04.568Z</time>
      </trkpt>
      <trkpt lat="43.1455886" lon="-2.8317317">
        <ele>143.138</ele>
        <time>2021-04-01T07:57:04.837Z</time>
      </trkpt>
      <trkpt lat="43.1455807" lon="-2.8317108">
        <ele>143.044</ele>
        <time>2021-04-01T07:57:05.106Z</time>
      </trkpt>
      <trkpt lat="43.145542" lon="-2.8316045">
        <ele>142.712</ele>
        <time>2021-04-01T07:57:07.520Z</time>
      </trkpt>
      <trkpt lat="43.1454648" lon="-2.8313941">
        <ele>142.112</ele>
        <time>2021-04-01T07:57:08.455Z</time>
      </trkpt>
      <trkpt lat="43.1454325" lon="-2.8313016">
        <ele>142.18</ele>
        <time>2021-04-01T07:57:08.682Z</time>
      </trkpt>
      <trkpt lat="43.1454138" lon="-2.8312483">
        <ele>142.243</ele>
        <time>2021-04-01T07:57:08.910Z</time>
      </trkpt>
      <trkpt lat="43.1454171" lon="-2.8312588">
        <ele>142.217</ele>
        <time>2021-04-01T07:57:09.138Z</time>
      </trkpt>
      <trkpt lat="43.1454138" lon="-2.8312483">
        <ele>142.243</ele>
        <time>2021-04-01T07:57:09.366Z</time>
      </trkpt>
      <trkpt lat="43.1454171" lon="-2.8312588">
        <ele>142.217</ele>
        <time>2021-04-01T07:57:09.594Z</time>
      </trkpt>
      <trkpt lat="43.1454138" lon="-2.8312483">
        <ele>142.243</ele>
        <time>2021-04-01T07:57:09.822Z</time>
      </trkpt>
      <trkpt lat="43.145379" lon="-2.8311487">
        <ele>142.465</ele>
        <time>2021-04-01T07:57:11.425Z</time>
      </trkpt>
      <trkpt lat="43.1453314" lon="-2.8310264">
        <ele>142.422</ele>
        <time>2021-04-01T07:57:11.570Z</time>
      </trkpt>
      <trkpt lat="43.1453294" lon="-2.8310217">
        <ele>142.425</ele>
        <time>2021-04-01T07:57:11.715Z</time>
      </trkpt>
      <trkpt lat="43.1453222" lon="-2.8310022">
        <ele>142.488</ele>
        <time>2021-04-01T07:57:11.860Z</time>
      </trkpt>
      <trkpt lat="43.1453204" lon="-2.8309972">
        <ele>142.536</ele>
        <time>2021-04-01T07:57:12.005Z</time>
      </trkpt>
      <trkpt lat="43.1453164" lon="-2.8309876">
        <ele>142.561</ele>
        <time>2021-04-01T07:57:12.150Z</time>
      </trkpt>
      <trkpt lat="43.1453105" lon="-2.8309737">
        <ele>142.546</ele>
        <time>2021-04-01T07:57:12.295Z</time>
      </trkpt>
      <trkpt lat="43.1453164" lon="-2.8309876">
        <ele>142.561</ele>
        <time>2021-04-01T07:57:12.440Z</time>
      </trkpt>
      <trkpt lat="43.1453105" lon="-2.8309737">
        <ele>142.546</ele>
        <time>2021-04-01T07:57:12.585Z</time>
      </trkpt>
      <trkpt lat="43.1453164" lon="-2.8309876">
        <ele>142.561</ele>
        <time>2021-04-01T07:57:12.730Z</time>
      </trkpt>
      <trkpt lat="43.1453105" lon="-2.8309737">
        <ele>142.546</ele>
        <time>2021-04-01T07:57:12.875Z</time>
      </trkpt>
      <trkpt lat="43.1452786" lon="-2.8308871">
        <ele>142.775</ele>
        <time>2021-04-01T07:57:15.055Z</time>
      </trkpt>
      <trkpt lat="43.1452162" lon="-2.8307206">
        <ele>142.902</ele>
        <time>2021-04-01T07:57:15.265Z</time>
      </trkpt>
      <trkpt lat="43.1452193" lon="-2.8307292">
        <ele>142.9</ele>
        <time>2021-04-01T07:57:15.476Z</time>
      </trkpt>
      <trkpt lat="43.1452162" lon="-2.8307206">
        <ele>142.902</ele>
        <time>2021-04-01T07:57:15.687Z</time>
      </trkpt>
      <trkpt lat="43.1452193" lon="-2.8307292">
        <ele>142.9</ele>
        <time>2021-04-01T07:57:15.898Z</time>
      </trkpt>
      <trkpt lat="43.1452162" lon="-2.8307206">
        <ele>142.902</ele>
        <time>2021-04-01T07:57:16.109Z</time>
      </trkpt>
      <trkpt lat="43.1451795" lon="-2.830626">
        <ele>143.29</ele>
        <time>2021-04-01T07:57:16.320Z</time>
      </trkpt>
      <trkpt lat="43.1451781" lon="-2.8306221">
        <ele>143.306</ele>
        <time>2021-04-01T07:57:16.842Z</time>
      </trkpt>
      <trkpt lat="43.1451795" lon="-2.830626">
        <ele>143.29</ele>
        <time>2021-04-01T07:57:17.365Z</time>
      </trkpt>
      <trkpt lat="43.1451781" lon="-2.8306221">
        <ele>143.306</ele>
        <time>2021-04-01T07:57:17.887Z</time>
      </trkpt>
      <trkpt lat="43.1451317" lon="-2.8304852">
        <ele>143.451</ele>
        <time>2021-04-01T07:57:19.950Z</time>
      </trkpt>
      <trkpt lat="43.1451298" lon="-2.8304785">
        <ele>143.433</ele>
        <time>2021-04-01T07:57:20.170Z</time>
      </trkpt>
      <trkpt lat="43.1451341" lon="-2.8304917">
        <ele>143.519</ele>
        <time>2021-04-01T07:57:20.390Z</time>
      </trkpt>
      <trkpt lat="43.1451317" lon="-2.8304852">
        <ele>143.451</ele>
        <time>2021-04-01T07:57:20.610Z</time>
      </trkpt>
      <trkpt lat="43.1451298" lon="-2.8304785">
        <ele>143.433</ele>
        <time>2021-04-01T07:57:20.830Z</time>
      </trkpt>
      <trkpt lat="43.1450954" lon="-2.8303869">
        <ele>143.024</ele>
        <time>2021-04-01T07:57:22.480Z</time>
      </trkpt>
      <trkpt lat="43.1450434" lon="-2.8302618">
        <ele>140.546</ele>
        <time>2021-04-01T07:57:22.700Z</time>
      </trkpt>
      <trkpt lat="43.1450386" lon="-2.8302498">
        <ele>140.393</ele>
        <time>2021-04-01T07:57:22.920Z</time>
      </trkpt>
      <trkpt lat="43.1450434" lon="-2.8302618">
        <ele>140.546</ele>
        <time>2021-04-01T07:57:23.140Z</time>
      </trkpt>
      <trkpt lat="43.1450386" lon="-2.8302498">
        <ele>140.393</ele>
        <time>2021-04-01T07:57:23.360Z</time>
      </trkpt>
      <trkpt lat="43.1450178" lon="-2.8302026">
        <ele>139.429</ele>
        <time>2021-04-01T07:57:25.450Z</time>
      </trkpt>
      <trkpt lat="43.1449737" lon="-2.830094">
        <ele>139.284</ele>
        <time>2021-04-01T07:57:25.789Z</time>
      </trkpt>
      <trkpt lat="43.1449587" lon="-2.8300531">
        <ele>138.834</ele>
        <time>2021-04-01T07:57:26.128Z</time>
      </trkpt>
      <trkpt lat="43.1449563" lon="-2.8300468">
        <ele>138.883</ele>
        <time>2021-04-01T07:57:26.467Z</time>
      </trkpt>
      <trkpt lat="43.1449587" lon="-2.8300531">
        <ele>138.834</ele>
        <time>2021-04-01T07:57:26.806Z</time>
      </trkpt>
      <trkpt lat="43.1449563" lon="-2.8300468">
        <ele>138.883</ele>
        <time>2021-04-01T07:57:27.145Z</time>
      </trkpt>
      <trkpt lat="43.1449312" lon="-2.8299891">
        <ele>138.088</ele>
        <time>2021-04-01T07:57:27.485Z</time>
      </trkpt>
      <trkpt lat="43.1449272" lon="-2.8299811">
        <ele>137.97</ele>
        <time>2021-04-01T07:57:27.694Z</time>
      </trkpt>
      <trkpt lat="43.1449188" lon="-2.8299628">
        <ele>138.097</ele>
        <time>2021-04-01T07:57:27.903Z</time>
      </trkpt>
      <trkpt lat="43.1449272" lon="-2.8299811">
        <ele>137.97</ele>
        <time>2021-04-01T07:57:28.112Z</time>
      </trkpt>
      <trkpt lat="43.1449188" lon="-2.8299628">
        <ele>138.097</ele>
        <time>2021-04-01T07:57:28.321Z</time>
      </trkpt>
      <trkpt lat="43.1449059" lon="-2.8299358">
        <ele>137.79</ele>
        <time>2021-04-01T07:57:30.400Z</time>
      </trkpt>
      <trkpt lat="43.1448796" lon="-2.8298817">
        <ele>138.537</ele>
        <time>2021-04-01T07:57:30.631Z</time>
      </trkpt>
      <trkpt lat="43.1448866" lon="-2.8298961">
        <ele>138.266</ele>
        <time>2021-04-01T07:57:30.862Z</time>
      </trkpt>
      <trkpt lat="43.1448796" lon="-2.8298817">
        <ele>138.537</ele>
        <time>2021-04-01T07:57:31.093Z</time>
      </trkpt>
      <trkpt lat="43.1448866" lon="-2.8298961">
        <ele>138.266</ele>
        <time>2021-04-01T07:57:31.324Z</time>
      </trkpt>
      <trkpt lat="43.1448796" lon="-2.8298817">
        <ele>138.537</ele>
        <time>2021-04-01T07:57:31.555Z</time>
      </trkpt>
      <trkpt lat="43.1448524" lon="-2.8298308">
        <ele>138.973</ele>
        <time>2021-04-01T07:57:31.648Z</time>
      </trkpt>
      <trkpt lat="43.1448423" lon="-2.8298122">
        <ele>139.061</ele>
        <time>2021-04-01T07:57:31.742Z</time>
      </trkpt>
      <trkpt lat="43.1448357" lon="-2.8298023">
        <ele>139.099</ele>
        <time>2021-04-01T07:57:31.835Z</time>
      </trkpt>
      <trkpt lat="43.1448495" lon="-2.8298257">
        <ele>139.017</ele>
        <time>2021-04-01T07:57:31.929Z</time>
      </trkpt>
      <trkpt lat="43.1448423" lon="-2.8298122">
        <ele>139.061</ele>
        <time>2021-04-01T07:57:32.022Z</time>
      </trkpt>
      <trkpt lat="43.1448357" lon="-2.8298023">
        <ele>139.099</ele>
        <time>2021-04-01T07:57:32.116Z</time>
      </trkpt>
      <trkpt lat="43.1448423" lon="-2.8298122">
        <ele>139.061</ele>
        <time>2021-04-01T07:57:32.209Z</time>
      </trkpt>
      <trkpt lat="43.1448357" lon="-2.8298023">
        <ele>139.099</ele>
        <time>2021-04-01T07:57:32.303Z</time>
      </trkpt>
      <trkpt lat="43.1448228" lon="-2.8297819">
        <ele>139.222</ele>
        <time>2021-04-01T07:57:32.396Z</time>
      </trkpt>
      <trkpt lat="43.1448082" lon="-2.8297546">
        <ele>139.495</ele>
        <time>2021-04-01T07:57:32.490Z</time>
      </trkpt>
      <trkpt lat="43.1448018" lon="-2.8297404">
        <ele>139.896</ele>
        <time>2021-04-01T07:57:32.583Z</time>
      </trkpt>
      <trkpt lat="43.1448082" lon="-2.8297546">
        <ele>139.495</ele>
        <time>2021-04-01T07:57:32.677Z</time>
      </trkpt>
      <trkpt lat="43.1447992" lon="-2.8297353">
        <ele>139.938</ele>
        <time>2021-04-01T07:57:32.770Z</time>
      </trkpt>
      <trkpt lat="43.1448005" lon="-2.8297379">
        <ele>139.917</ele>
        <time>2021-04-01T07:57:32.864Z</time>
      </trkpt>
      <trkpt lat="43.1447992" lon="-2.8297353">
        <ele>139.938</ele>
        <time>2021-04-01T07:57:32.957Z</time>
      </trkpt>
      <trkpt lat="43.1447965" lon="-2.8297304">
        <ele>139.939</ele>
        <time>2021-04-01T07:57:33.051Z</time>
      </trkpt>
      <trkpt lat="43.1448005" lon="-2.8297379">
        <ele>139.917</ele>
        <time>2021-04-01T07:57:33.144Z</time>
      </trkpt>
      <trkpt lat="43.1447992" lon="-2.8297353">
        <ele>139.938</ele>
        <time>2021-04-01T07:57:33.238Z</time>
      </trkpt>
      <trkpt lat="43.1447965" lon="-2.8297304">
        <ele>139.939</ele>
        <time>2021-04-01T07:57:33.331Z</time>
      </trkpt>
      <trkpt lat="43.1447757" lon="-2.8296919">
        <ele>140.285</ele>
        <time>2021-04-01T07:57:33.425Z</time>
      </trkpt>
      <trkpt lat="43.1447633" lon="-2.82967">
        <ele>140.493</ele>
        <time>2021-04-01T07:57:33.851Z</time>
      </trkpt>
      <trkpt lat="43.1447757" lon="-2.8296919">
        <ele>140.285</ele>
        <time>2021-04-01T07:57:34.277Z</time>
      </trkpt>
      <trkpt lat="43.1447633" lon="-2.82967">
        <ele>140.493</ele>
        <time>2021-04-01T07:57:34.703Z</time>
      </trkpt>
      <trkpt lat="43.1447286" lon="-2.8296219">
        <ele>140.61</ele>
        <time>2021-04-01T07:57:37.110Z</time>
      </trkpt>
      <trkpt lat="43.1446746" lon="-2.8295415">
        <ele>141.184</ele>
        <time>2021-04-01T07:57:37.385Z</time>
      </trkpt>
      <trkpt lat="43.1446716" lon="-2.8295374">
        <ele>141.165</ele>
        <time>2021-04-01T07:57:37.660Z</time>
      </trkpt>
      <trkpt lat="43.1446746" lon="-2.8295415">
        <ele>141.184</ele>
        <time>2021-04-01T07:57:37.935Z</time>
      </trkpt>
      <trkpt lat="43.1446716" lon="-2.8295374">
        <ele>141.165</ele>
        <time>2021-04-01T07:57:38.210Z</time>
      </trkpt>
      <trkpt lat="43.1446381" lon="-2.8294874">
        <ele>141.271</ele>
        <time>2021-04-01T07:57:39.640Z</time>
      </trkpt>
      <trkpt lat="43.1446068" lon="-2.8294424">
        <ele>141.529</ele>
        <time>2021-04-01T07:57:40.234Z</time>
      </trkpt>
      <trkpt lat="43.1445828" lon="-2.8294054">
        <ele>141.785</ele>
        <time>2021-04-01T07:57:40.828Z</time>
      </trkpt>
      <trkpt lat="43.1445828" lon="-2.8294054">
        <ele>141.785</ele>
        <time>2021-04-01T07:57:41.422Z</time>
      </trkpt>
      <trkpt lat="43.1445828" lon="-2.8294054">
        <ele>141.785</ele>
        <time>2021-04-01T07:57:42.016Z</time>
      </trkpt>
      <trkpt lat="43.1445291" lon="-2.8293331">
        <ele>141.866</ele>
        <time>2021-04-01T07:57:42.610Z</time>
      </trkpt>
      <trkpt lat="43.1445565" lon="-2.8293683">
        <ele>141.989</ele>
        <time>2021-04-01T07:57:42.706Z</time>
      </trkpt>
      <trkpt lat="43.144552" lon="-2.8293636">
        <ele>141.912</ele>
        <time>2021-04-01T07:57:42.802Z</time>
      </trkpt>
      <trkpt lat="43.1445507" lon="-2.8293624">
        <ele>141.834</ele>
        <time>2021-04-01T07:57:42.898Z</time>
      </trkpt>
      <trkpt lat="43.1445426" lon="-2.8293534">
        <ele>141.597</ele>
        <time>2021-04-01T07:57:42.995Z</time>
      </trkpt>
      <trkpt lat="43.144552" lon="-2.8293636">
        <ele>141.912</ele>
        <time>2021-04-01T07:57:43.091Z</time>
      </trkpt>
      <trkpt lat="43.1445507" lon="-2.8293624">
        <ele>141.834</ele>
        <time>2021-04-01T07:57:43.187Z</time>
      </trkpt>
      <trkpt lat="43.1445426" lon="-2.8293534">
        <ele>141.597</ele>
        <time>2021-04-01T07:57:43.283Z</time>
      </trkpt>
      <trkpt lat="43.1445082" lon="-2.8293025">
        <ele>142.22</ele>
        <time>2021-04-01T07:57:44.645Z</time>
      </trkpt>
      <trkpt lat="43.1444746" lon="-2.8292518">
        <ele>142.659</ele>
        <time>2021-04-01T07:57:44.965Z</time>
      </trkpt>
      <trkpt lat="43.1444625" lon="-2.8292354">
        <ele>142.757</ele>
        <time>2021-04-01T07:57:45.286Z</time>
      </trkpt>
      <trkpt lat="43.1444597" lon="-2.8292317">
        <ele>142.76</ele>
        <time>2021-04-01T07:57:45.607Z</time>
      </trkpt>
      <trkpt lat="43.1444625" lon="-2.8292354">
        <ele>142.757</ele>
        <time>2021-04-01T07:57:45.928Z</time>
      </trkpt>
      <trkpt lat="43.1444597" lon="-2.8292317">
        <ele>142.76</ele>
        <time>2021-04-01T07:57:46.249Z</time>
      </trkpt>
      <trkpt lat="43.1444243" lon="-2.8291829">
        <ele>143.061</ele>
        <time>2021-04-01T07:57:48.660Z</time>
      </trkpt>
      <trkpt lat="43.1443715" lon="-2.8291278">
        <ele>142.05</ele>
        <time>2021-04-01T07:57:48.907Z</time>
      </trkpt>
      <trkpt lat="43.1443797" lon="-2.8291375">
        <ele>142.124</ele>
        <time>2021-04-01T07:57:49.155Z</time>
      </trkpt>
      <trkpt lat="43.1443797" lon="-2.8291375">
        <ele>142.124</ele>
        <time>2021-04-01T07:57:49.402Z</time>
      </trkpt>
      <trkpt lat="43.1443435" lon="-2.8290944">
        <ele>141.998</ele>
        <time>2021-04-01T07:57:49.650Z</time>
      </trkpt>
      <trkpt lat="43.144336" lon="-2.829087">
        <ele>142.012</ele>
        <time>2021-04-01T07:57:49.835Z</time>
      </trkpt>
      <trkpt lat="43.144349" lon="-2.8290996">
        <ele>142.036</ele>
        <time>2021-04-01T07:57:50.021Z</time>
      </trkpt>
      <trkpt lat="43.1443435" lon="-2.8290944">
        <ele>141.998</ele>
        <time>2021-04-01T07:57:50.206Z</time>
      </trkpt>
      <trkpt lat="43.144336" lon="-2.829087">
        <ele>142.012</ele>
        <time>2021-04-01T07:57:50.392Z</time>
      </trkpt>
      <trkpt lat="43.144349" lon="-2.8290996">
        <ele>142.036</ele>
        <time>2021-04-01T07:57:50.578Z</time>
      </trkpt>
      <trkpt lat="43.1443435" lon="-2.8290944">
        <ele>141.998</ele>
        <time>2021-04-01T07:57:50.763Z</time>
      </trkpt>
      <trkpt lat="43.144336" lon="-2.829087">
        <ele>142.012</ele>
        <time>2021-04-01T07:57:50.949Z</time>
      </trkpt>
      <trkpt lat="43.1442913" lon="-2.8290397">
        <ele>142.135</ele>
        <time>2021-04-01T07:57:52.730Z</time>
      </trkpt>
      <trkpt lat="43.1442306" lon="-2.8289722">
        <ele>142.802</ele>
        <time>2021-04-01T07:57:52.926Z</time>
      </trkpt>
      <trkpt lat="43.1442287" lon="-2.8289691">
        <ele>142.907</ele>
        <time>2021-04-01T07:57:53.122Z</time>
      </trkpt>
      <trkpt lat="43.1442198" lon="-2.8289581">
        <ele>143.054</ele>
        <time>2021-04-01T07:57:53.319Z</time>
      </trkpt>
      <trkpt lat="43.1442306" lon="-2.8289722">
        <ele>142.802</ele>
        <time>2021-04-01T07:57:53.515Z</time>
      </trkpt>
      <trkpt lat="43.1442287" lon="-2.8289691">
        <ele>142.907</ele>
        <time>2021-04-01T07:57:53.712Z</time>
      </trkpt>
      <trkpt lat="43.1442198" lon="-2.8289581">
        <ele>143.054</ele>
        <time>2021-04-01T07:57:53.908Z</time>
      </trkpt>
      <trkpt lat="43.1441742" lon="-2.8289068">
        <ele>143.575</ele>
        <time>2021-04-01T07:57:55.645Z</time>
      </trkpt>
      <trkpt lat="43.1441143" lon="-2.8288263">
        <ele>144.43</ele>
        <time>2021-04-01T07:57:55.857Z</time>
      </trkpt>
      <trkpt lat="43.1441126" lon="-2.8288224">
        <ele>144.594</ele>
        <time>2021-04-01T07:57:56.069Z</time>
      </trkpt>
      <trkpt lat="43.1441023" lon="-2.8288063">
        <ele>144.708</ele>
        <time>2021-04-01T07:57:56.281Z</time>
      </trkpt>
      <trkpt lat="43.1441143" lon="-2.8288263">
        <ele>144.43</ele>
        <time>2021-04-01T07:57:56.493Z</time>
      </trkpt>
      <trkpt lat="43.1441126" lon="-2.8288224">
        <ele>144.594</ele>
        <time>2021-04-01T07:57:56.705Z</time>
      </trkpt>
      <trkpt lat="43.1441023" lon="-2.8288063">
        <ele>144.708</ele>
        <time>2021-04-01T07:57:56.917Z</time>
      </trkpt>
      <trkpt lat="43.1440601" lon="-2.8287391">
        <ele>145.231</ele>
        <time>2021-04-01T07:57:57.130Z</time>
      </trkpt>
      <trkpt lat="43.14404" lon="-2.8287046">
        <ele>144.981</ele>
        <time>2021-04-01T07:57:57.284Z</time>
      </trkpt>
      <trkpt lat="43.1440384" lon="-2.828701">
        <ele>144.951</ele>
        <time>2021-04-01T07:57:57.438Z</time>
      </trkpt>
      <trkpt lat="43.1440366" lon="-2.8286977">
        <ele>144.926</ele>
        <time>2021-04-01T07:57:57.592Z</time>
      </trkpt>
      <trkpt lat="43.14404" lon="-2.8287046">
        <ele>144.981</ele>
        <time>2021-04-01T07:57:57.746Z</time>
      </trkpt>
      <trkpt lat="43.1440384" lon="-2.828701">
        <ele>144.951</ele>
        <time>2021-04-01T07:57:57.900Z</time>
      </trkpt>
      <trkpt lat="43.1440366" lon="-2.8286977">
        <ele>144.926</ele>
        <time>2021-04-01T07:57:58.054Z</time>
      </trkpt>
      <trkpt lat="43.14404" lon="-2.8287046">
        <ele>144.981</ele>
        <time>2021-04-01T07:57:58.208Z</time>
      </trkpt>
      <trkpt lat="43.1440384" lon="-2.828701">
        <ele>144.951</ele>
        <time>2021-04-01T07:57:58.362Z</time>
      </trkpt>
      <trkpt lat="43.1440366" lon="-2.8286977">
        <ele>144.926</ele>
        <time>2021-04-01T07:57:58.516Z</time>
      </trkpt>
      <trkpt lat="43.1440111" lon="-2.8286469">
        <ele>144.849</ele>
        <time>2021-04-01T07:58:00.100Z</time>
      </trkpt>
      <trkpt lat="43.1440071" lon="-2.8286404">
        <ele>144.852</ele>
        <time>2021-04-01T07:58:00.617Z</time>
      </trkpt>
      <trkpt lat="43.1439994" lon="-2.8286281">
        <ele>144.863</ele>
        <time>2021-04-01T07:58:01.134Z</time>
      </trkpt>
      <trkpt lat="43.1440111" lon="-2.8286469">
        <ele>144.849</ele>
        <time>2021-04-01T07:58:01.651Z</time>
      </trkpt>
      <trkpt lat="43.1440071" lon="-2.8286404">
        <ele>144.852</ele>
        <time>2021-04-01T07:58:02.168Z</time>
      </trkpt>
      <trkpt lat="43.1439994" lon="-2.8286281">
        <ele>144.863</ele>
        <time>2021-04-01T07:58:02.685Z</time>
      </trkpt>
      <trkpt lat="43.1439215" lon="-2.8283741">
        <ele>144.844</ele>
        <time>2021-04-01T07:58:02.877Z</time>
      </trkpt>
      <trkpt lat="43.1439215" lon="-2.8283741">
        <ele>144.844</ele>
        <time>2021-04-01T07:58:03.070Z</time>
      </trkpt>
      <trkpt lat="43.1439215" lon="-2.8283741">
        <ele>144.844</ele>
        <time>2021-04-01T07:58:03.262Z</time>
      </trkpt>
      <trkpt lat="43.143914" lon="-2.828316">
        <ele>145.312</ele>
        <time>2021-04-01T07:58:03.455Z</time>
      </trkpt>
      <trkpt lat="43.1439131" lon="-2.8283079">
        <ele>145.384</ele>
        <time>2021-04-01T07:58:03.977Z</time>
      </trkpt>
      <trkpt lat="43.143911" lon="-2.8282658">
        <ele>145.892</ele>
        <time>2021-04-01T07:58:04.500Z</time>
      </trkpt>
      <trkpt lat="43.143914" lon="-2.828316">
        <ele>145.312</ele>
        <time>2021-04-01T07:58:05.022Z</time>
      </trkpt>
      <trkpt lat="43.1439131" lon="-2.8283079">
        <ele>145.384</ele>
        <time>2021-04-01T07:58:05.545Z</time>
      </trkpt>
      <trkpt lat="43.143911" lon="-2.8282658">
        <ele>145.892</ele>
        <time>2021-04-01T07:58:06.067Z</time>
      </trkpt>
      <trkpt lat="43.1439127" lon="-2.8280845">
        <ele>147.722</ele>
        <time>2021-04-01T07:58:07.195Z</time>
      </trkpt>
      <trkpt lat="43.1439177" lon="-2.8280411">
        <ele>148.099</ele>
        <time>2021-04-01T07:58:07.347Z</time>
      </trkpt>
      <trkpt lat="43.1439199" lon="-2.8280252">
        <ele>148.204</ele>
        <time>2021-04-01T07:58:07.500Z</time>
      </trkpt>
      <trkpt lat="43.1439142" lon="-2.8280722">
        <ele>147.834</ele>
        <time>2021-04-01T07:58:07.653Z</time>
      </trkpt>
      <trkpt lat="43.1439177" lon="-2.8280411">
        <ele>148.099</ele>
        <time>2021-04-01T07:58:07.806Z</time>
      </trkpt>
      <trkpt lat="43.1439199" lon="-2.8280252">
        <ele>148.204</ele>
        <time>2021-04-01T07:58:07.958Z</time>
      </trkpt>
      <trkpt lat="43.1439142" lon="-2.8280722">
        <ele>147.834</ele>
        <time>2021-04-01T07:58:08.111Z</time>
      </trkpt>
      <trkpt lat="43.1439177" lon="-2.8280411">
        <ele>148.099</ele>
        <time>2021-04-01T07:58:08.264Z</time>
      </trkpt>
      <trkpt lat="43.1439199" lon="-2.8280252">
        <ele>148.204</ele>
        <time>2021-04-01T07:58:08.417Z</time>
      </trkpt>
      <trkpt lat="43.1439341" lon="-2.8279448">
        <ele>149.011</ele>
        <time>2021-04-01T07:58:09.670Z</time>
      </trkpt>
      <trkpt lat="43.1439465" lon="-2.8278677">
        <ele>149.725</ele>
        <time>2021-04-01T07:58:09.960Z</time>
      </trkpt>
      <trkpt lat="43.1439531" lon="-2.8278279">
        <ele>150.316</ele>
        <time>2021-04-01T07:58:10.251Z</time>
      </trkpt>
      <trkpt lat="43.143954" lon="-2.8278198">
        <ele>150.439</ele>
        <time>2021-04-01T07:58:10.542Z</time>
      </trkpt>
      <trkpt lat="43.1439564" lon="-2.8278045">
        <ele>150.623</ele>
        <time>2021-04-01T07:58:10.832Z</time>
      </trkpt>
      <trkpt lat="43.143954" lon="-2.8278198">
        <ele>150.439</ele>
        <time>2021-04-01T07:58:11.123Z</time>
      </trkpt>
      <trkpt lat="43.1439564" lon="-2.8278045">
        <ele>150.623</ele>
        <time>2021-04-01T07:58:11.414Z</time>
      </trkpt>
      <trkpt lat="43.1439666" lon="-2.8277244">
        <ele>151.279</ele>
        <time>2021-04-01T07:58:11.705Z</time>
      </trkpt>
      <trkpt lat="43.1439683" lon="-2.8277095">
        <ele>151.366</ele>
        <time>2021-04-01T07:58:12.035Z</time>
      </trkpt>
      <trkpt lat="43.1439699" lon="-2.8276944">
        <ele>151.484</ele>
        <time>2021-04-01T07:58:12.365Z</time>
      </trkpt>
      <trkpt lat="43.1439666" lon="-2.8277244">
        <ele>151.279</ele>
        <time>2021-04-01T07:58:12.695Z</time>
      </trkpt>
      <trkpt lat="43.1439683" lon="-2.8277095">
        <ele>151.366</ele>
        <time>2021-04-01T07:58:13.025Z</time>
      </trkpt>
      <trkpt lat="43.1439699" lon="-2.8276944">
        <ele>151.484</ele>
        <time>2021-04-01T07:58:13.355Z</time>
      </trkpt>
      <trkpt lat="43.1439778" lon="-2.8275912">
        <ele>151.604</ele>
        <time>2021-04-01T07:58:15.115Z</time>
      </trkpt>
      <trkpt lat="43.1439769" lon="-2.8274971">
        <ele>151.394</ele>
        <time>2021-04-01T07:58:15.500Z</time>
      </trkpt>
      <trkpt lat="43.1439769" lon="-2.8274971">
        <ele>151.394</ele>
        <time>2021-04-01T07:58:15.885Z</time>
      </trkpt>
      <trkpt lat="43.1439769" lon="-2.8274971">
        <ele>151.394</ele>
        <time>2021-04-01T07:58:16.270Z</time>
      </trkpt>
      <trkpt lat="43.143976" lon="-2.8273956">
        <ele>150.659</ele>
        <time>2021-04-01T07:58:18.030Z</time>
      </trkpt>
      <trkpt lat="43.143969" lon="-2.8273008">
        <ele>150.377</ele>
        <time>2021-04-01T07:58:18.286Z</time>
      </trkpt>
      <trkpt lat="43.1439686" lon="-2.8272969">
        <ele>150.403</ele>
        <time>2021-04-01T07:58:18.543Z</time>
      </trkpt>
      <trkpt lat="43.143969" lon="-2.8273008">
        <ele>150.377</ele>
        <time>2021-04-01T07:58:18.800Z</time>
      </trkpt>
      <trkpt lat="43.143967" lon="-2.8272778">
        <ele>150.333</ele>
        <time>2021-04-01T07:58:19.056Z</time>
      </trkpt>
      <trkpt lat="43.143967" lon="-2.8272778">
        <ele>150.333</ele>
        <time>2021-04-01T07:58:19.313Z</time>
      </trkpt>
      <trkpt lat="43.1439628" lon="-2.8271894">
        <ele>150.28</ele>
        <time>2021-04-01T07:58:20.560Z</time>
      </trkpt>
      <trkpt lat="43.1439587" lon="-2.8271176">
        <ele>150.513</ele>
        <time>2021-04-01T07:58:21.123Z</time>
      </trkpt>
      <trkpt lat="43.1439589" lon="-2.8270565">
        <ele>150.61</ele>
        <time>2021-04-01T07:58:21.687Z</time>
      </trkpt>
      <trkpt lat="43.1439589" lon="-2.8270565">
        <ele>150.61</ele>
        <time>2021-04-01T07:58:22.251Z</time>
      </trkpt>
      <trkpt lat="43.1439594" lon="-2.8269505">
        <ele>150.837</ele>
        <time>2021-04-01T07:58:22.815Z</time>
      </trkpt>
      <trkpt lat="43.1439594" lon="-2.8269465">
        <ele>150.831</ele>
        <time>2021-04-01T07:58:22.967Z</time>
      </trkpt>
      <trkpt lat="43.1439601" lon="-2.8269301">
        <ele>150.935</ele>
        <time>2021-04-01T07:58:23.120Z</time>
      </trkpt>
      <trkpt lat="43.1439594" lon="-2.8269505">
        <ele>150.837</ele>
        <time>2021-04-01T07:58:23.273Z</time>
      </trkpt>
      <trkpt lat="43.1439594" lon="-2.8269465">
        <ele>150.831</ele>
        <time>2021-04-01T07:58:23.426Z</time>
      </trkpt>
      <trkpt lat="43.1439601" lon="-2.8269301">
        <ele>150.935</ele>
        <time>2021-04-01T07:58:23.578Z</time>
      </trkpt>
      <trkpt lat="43.1439594" lon="-2.8269505">
        <ele>150.837</ele>
        <time>2021-04-01T07:58:23.731Z</time>
      </trkpt>
      <trkpt lat="43.1439594" lon="-2.8269465">
        <ele>150.831</ele>
        <time>2021-04-01T07:58:23.884Z</time>
      </trkpt>
      <trkpt lat="43.1439601" lon="-2.8269301">
        <ele>150.935</ele>
        <time>2021-04-01T07:58:24.037Z</time>
      </trkpt>
      <trkpt lat="43.1439646" lon="-2.8268498">
        <ele>151.269</ele>
        <time>2021-04-01T07:58:25.785Z</time>
      </trkpt>
      <trkpt lat="43.143971" lon="-2.8267349">
        <ele>151.569</ele>
        <time>2021-04-01T07:58:25.950Z</time>
      </trkpt>
      <trkpt lat="43.1439715" lon="-2.826727">
        <ele>151.588</ele>
        <time>2021-04-01T07:58:26.115Z</time>
      </trkpt>
      <trkpt lat="43.1439717" lon="-2.8267228">
        <ele>151.595</ele>
        <time>2021-04-01T07:58:26.280Z</time>
      </trkpt>
      <trkpt lat="43.143971" lon="-2.8267349">
        <ele>151.569</ele>
        <time>2021-04-01T07:58:26.445Z</time>
      </trkpt>
      <trkpt lat="43.1439715" lon="-2.826727">
        <ele>151.588</ele>
        <time>2021-04-01T07:58:26.610Z</time>
      </trkpt>
      <trkpt lat="43.1439717" lon="-2.8267228">
        <ele>151.595</ele>
        <time>2021-04-01T07:58:26.775Z</time>
      </trkpt>
      <trkpt lat="43.1439757" lon="-2.8266529">
        <ele>151.461</ele>
        <time>2021-04-01T07:58:28.535Z</time>
      </trkpt>
      <trkpt lat="43.1439801" lon="-2.8265391">
        <ele>151.761</ele>
        <time>2021-04-01T07:58:30.130Z</time>
      </trkpt>
      <trkpt lat="43.1439798" lon="-2.8264692">
        <ele>152.078</ele>
        <time>2021-04-01T07:58:30.427Z</time>
      </trkpt>
      <trkpt lat="43.1439802" lon="-2.826512">
        <ele>151.805</ele>
        <time>2021-04-01T07:58:30.724Z</time>
      </trkpt>
      <trkpt lat="43.1439798" lon="-2.8264692">
        <ele>152.078</ele>
        <time>2021-04-01T07:58:31.021Z</time>
      </trkpt>
      <trkpt lat="43.1439802" lon="-2.826512">
        <ele>151.805</ele>
        <time>2021-04-01T07:58:31.318Z</time>
      </trkpt>
      <trkpt lat="43.1439798" lon="-2.8264692">
        <ele>152.078</ele>
        <time>2021-04-01T07:58:31.615Z</time>
      </trkpt>
      <trkpt lat="43.1439747" lon="-2.8263973">
        <ele>152.248</ele>
        <time>2021-04-01T07:58:32.330Z</time>
      </trkpt>
      <trkpt lat="43.1439747" lon="-2.8263973">
        <ele>152.248</ele>
        <time>2021-04-01T07:58:33.045Z</time>
      </trkpt>
      <trkpt lat="43.1439486" lon="-2.8262319">
        <ele>153.251</ele>
        <time>2021-04-01T07:58:33.312Z</time>
      </trkpt>
      <trkpt lat="43.1439415" lon="-2.8261906">
        <ele>153.27</ele>
        <time>2021-04-01T07:58:33.579Z</time>
      </trkpt>
      <trkpt lat="43.1439396" lon="-2.8261804">
        <ele>153.262</ele>
        <time>2021-04-01T07:58:33.846Z</time>
      </trkpt>
      <trkpt lat="43.1439358" lon="-2.8261624">
        <ele>153.406</ele>
        <time>2021-04-01T07:58:34.113Z</time>
      </trkpt>
      <trkpt lat="43.1439396" lon="-2.8261804">
        <ele>153.262</ele>
        <time>2021-04-01T07:58:34.380Z</time>
      </trkpt>
      <trkpt lat="43.1439358" lon="-2.8261624">
        <ele>153.406</ele>
        <time>2021-04-01T07:58:34.647Z</time>
      </trkpt>
      <trkpt lat="43.1439273" lon="-2.8261113">
        <ele>153.963</ele>
        <time>2021-04-01T07:58:36.895Z</time>
      </trkpt>
      <trkpt lat="43.143921" lon="-2.8259802">
        <ele>154.163</ele>
        <time>2021-04-01T07:58:38.710Z</time>
      </trkpt>
      <trkpt lat="43.143959" lon="-2.8258527">
        <ele>154.477</ele>
        <time>2021-04-01T07:58:38.868Z</time>
      </trkpt>
      <trkpt lat="43.1439559" lon="-2.8258589">
        <ele>154.457</ele>
        <time>2021-04-01T07:58:39.026Z</time>
      </trkpt>
      <trkpt lat="43.1439573" lon="-2.8258558">
        <ele>154.479</ele>
        <time>2021-04-01T07:58:39.184Z</time>
      </trkpt>
      <trkpt lat="43.143959" lon="-2.8258527">
        <ele>154.477</ele>
        <time>2021-04-01T07:58:39.342Z</time>
      </trkpt>
      <trkpt lat="43.1439559" lon="-2.8258589">
        <ele>154.457</ele>
        <time>2021-04-01T07:58:39.500Z</time>
      </trkpt>
      <trkpt lat="43.1439573" lon="-2.8258558">
        <ele>154.479</ele>
        <time>2021-04-01T07:58:39.658Z</time>
      </trkpt>
      <trkpt lat="43.143959" lon="-2.8258527">
        <ele>154.477</ele>
        <time>2021-04-01T07:58:39.816Z</time>
      </trkpt>
      <trkpt lat="43.1439936" lon="-2.8258059">
        <ele>154.921</ele>
        <time>2021-04-01T07:58:41.735Z</time>
      </trkpt>
      <trkpt lat="43.1442048" lon="-2.8257122">
        <ele>157.753</ele>
        <time>2021-04-01T07:58:44.870Z</time>
      </trkpt>
      <trkpt lat="43.144207" lon="-2.825711">
        <ele>157.67</ele>
        <time>2021-04-01T07:58:44.937Z</time>
      </trkpt>
      <trkpt lat="43.1441508" lon="-2.8257365">
        <ele>157.058</ele>
        <time>2021-04-01T07:58:45.005Z</time>
      </trkpt>
      <trkpt lat="43.1442048" lon="-2.8257122">
        <ele>157.753</ele>
        <time>2021-04-01T07:58:45.073Z</time>
      </trkpt>
      <trkpt lat="43.144207" lon="-2.825711">
        <ele>157.67</ele>
        <time>2021-04-01T07:58:45.141Z</time>
      </trkpt>
      <trkpt lat="43.1441508" lon="-2.8257365">
        <ele>157.058</ele>
        <time>2021-04-01T07:58:45.209Z</time>
      </trkpt>
      <trkpt lat="43.1441749" lon="-2.8257273">
        <ele>157.462</ele>
        <time>2021-04-01T07:58:45.277Z</time>
      </trkpt>
      <trkpt lat="43.1442048" lon="-2.8257122">
        <ele>157.753</ele>
        <time>2021-04-01T07:58:45.345Z</time>
      </trkpt>
      <trkpt lat="43.144207" lon="-2.825711">
        <ele>157.67</ele>
        <time>2021-04-01T07:58:45.413Z</time>
      </trkpt>
      <trkpt lat="43.1442048" lon="-2.8257122">
        <ele>157.753</ele>
        <time>2021-04-01T07:58:45.481Z</time>
      </trkpt>
      <trkpt lat="43.144207" lon="-2.825711">
        <ele>157.67</ele>
        <time>2021-04-01T07:58:45.549Z</time>
      </trkpt>
      <trkpt lat="43.1442165" lon="-2.8257063">
        <ele>157.566</ele>
        <time>2021-04-01T07:58:45.617Z</time>
      </trkpt>
      <trkpt lat="43.1442188" lon="-2.8257045">
        <ele>157.624</ele>
        <time>2021-04-01T07:58:45.685Z</time>
      </trkpt>
      <trkpt lat="43.1442048" lon="-2.8257122">
        <ele>157.753</ele>
        <time>2021-04-01T07:58:45.753Z</time>
      </trkpt>
      <trkpt lat="43.144207" lon="-2.825711">
        <ele>157.67</ele>
        <time>2021-04-01T07:58:45.821Z</time>
      </trkpt>
      <trkpt lat="43.1442165" lon="-2.8257063">
        <ele>157.566</ele>
        <time>2021-04-01T07:58:45.889Z</time>
      </trkpt>
      <trkpt lat="43.1442188" lon="-2.8257045">
        <ele>157.624</ele>
        <time>2021-04-01T07:58:45.957Z</time>
      </trkpt>
      <trkpt lat="43.1442514" lon="-2.8256833">
        <ele>157.753</ele>
        <time>2021-04-01T07:58:46.025Z</time>
      </trkpt>
      <trkpt lat="43.1442784" lon="-2.8256618">
        <ele>158.106</ele>
        <time>2021-04-01T07:58:46.996Z</time>
      </trkpt>
      <trkpt lat="43.1442784" lon="-2.8256618">
        <ele>158.106</ele>
        <time>2021-04-01T07:58:47.968Z</time>
      </trkpt>
      <trkpt lat="43.1443536" lon="-2.8255808">
        <ele>158.57</ele>
        <time>2021-04-01T07:58:49.000Z</time>
      </trkpt>
      <trkpt lat="43.1443554" lon="-2.8255787">
        <ele>158.648</ele>
        <time>2021-04-01T07:58:49.282Z</time>
      </trkpt>
      <trkpt lat="43.1443829" lon="-2.8255391">
        <ele>158.532</ele>
        <time>2021-04-01T07:58:49.564Z</time>
      </trkpt>
      <trkpt lat="43.1443829" lon="-2.8255391">
        <ele>158.532</ele>
        <time>2021-04-01T07:58:49.846Z</time>
      </trkpt>
      <trkpt lat="43.1443863" lon="-2.8255341">
        <ele>158.609</ele>
        <time>2021-04-01T07:58:50.128Z</time>
      </trkpt>
      <trkpt lat="43.1443829" lon="-2.8255391">
        <ele>158.532</ele>
        <time>2021-04-01T07:58:50.410Z</time>
      </trkpt>
      <trkpt lat="43.1443863" lon="-2.8255341">
        <ele>158.609</ele>
        <time>2021-04-01T07:58:50.692Z</time>
      </trkpt>
      <trkpt lat="43.1444107" lon="-2.8254913">
        <ele>159.067</ele>
        <time>2021-04-01T07:58:52.075Z</time>
      </trkpt>
      <trkpt lat="43.1444316" lon="-2.8254391">
        <ele>158.9</ele>
        <time>2021-04-01T07:58:52.526Z</time>
      </trkpt>
      <trkpt lat="43.1444449" lon="-2.825397">
        <ele>158.849</ele>
        <time>2021-04-01T07:58:52.977Z</time>
      </trkpt>
      <trkpt lat="43.1444422" lon="-2.8254085">
        <ele>158.94</ele>
        <time>2021-04-01T07:58:53.428Z</time>
      </trkpt>
      <trkpt lat="43.1444449" lon="-2.825397">
        <ele>158.849</ele>
        <time>2021-04-01T07:58:53.879Z</time>
      </trkpt>
      <trkpt lat="43.1444731" lon="-2.8253276">
        <ele>158.684</ele>
        <time>2021-04-01T07:58:55.815Z</time>
      </trkpt>
      <trkpt lat="43.1444997" lon="-2.825259">
        <ele>158.375</ele>
        <time>2021-04-01T07:58:55.912Z</time>
      </trkpt>
      <trkpt lat="43.1445082" lon="-2.8252422">
        <ele>158.348</ele>
        <time>2021-04-01T07:58:56.010Z</time>
      </trkpt>
      <trkpt lat="43.144503" lon="-2.8252519">
        <ele>158.33</ele>
        <time>2021-04-01T07:58:56.108Z</time>
      </trkpt>
      <trkpt lat="43.1445055" lon="-2.825247">
        <ele>158.35</ele>
        <time>2021-04-01T07:58:56.206Z</time>
      </trkpt>
      <trkpt lat="43.1445082" lon="-2.8252422">
        <ele>158.348</ele>
        <time>2021-04-01T07:58:56.303Z</time>
      </trkpt>
      <trkpt lat="43.144503" lon="-2.8252519">
        <ele>158.33</ele>
        <time>2021-04-01T07:58:56.401Z</time>
      </trkpt>
      <trkpt lat="43.1445055" lon="-2.825247">
        <ele>158.35</ele>
        <time>2021-04-01T07:58:56.499Z</time>
      </trkpt>
      <trkpt lat="43.1445082" lon="-2.8252422">
        <ele>158.348</ele>
        <time>2021-04-01T07:58:56.597Z</time>
      </trkpt>
      <trkpt lat="43.1445193" lon="-2.8252197">
        <ele>158.482</ele>
        <time>2021-04-01T07:58:56.695Z</time>
      </trkpt>
      <trkpt lat="43.1445289" lon="-2.8251933">
        <ele>158.548</ele>
        <time>2021-04-01T07:58:56.910Z</time>
      </trkpt>
      <trkpt lat="43.1445234" lon="-2.8252064">
        <ele>158.482</ele>
        <time>2021-04-01T07:58:57.125Z</time>
      </trkpt>
      <trkpt lat="43.1445329" lon="-2.8251831">
        <ele>158.531</ele>
        <time>2021-04-01T07:58:57.340Z</time>
      </trkpt>
      <trkpt lat="43.1445298" lon="-2.8251907">
        <ele>158.542</ele>
        <time>2021-04-01T07:58:57.555Z</time>
      </trkpt>
      <trkpt lat="43.1445382" lon="-2.8251678">
        <ele>158.501</ele>
        <time>2021-04-01T07:58:57.770Z</time>
      </trkpt>
      <trkpt lat="43.14454" lon="-2.8251623">
        <ele>158.492</ele>
        <time>2021-04-01T07:58:57.985Z</time>
      </trkpt>
      <trkpt lat="43.1445382" lon="-2.8251678">
        <ele>158.501</ele>
        <time>2021-04-01T07:58:58.200Z</time>
      </trkpt>
      <trkpt lat="43.14454" lon="-2.8251623">
        <ele>158.492</ele>
        <time>2021-04-01T07:58:58.415Z</time>
      </trkpt>
      <trkpt lat="43.1445382" lon="-2.8251678">
        <ele>158.501</ele>
        <time>2021-04-01T07:58:58.630Z</time>
      </trkpt>
      <trkpt lat="43.14454" lon="-2.8251623">
        <ele>158.492</ele>
        <time>2021-04-01T07:58:58.845Z</time>
      </trkpt>
      <trkpt lat="43.1445628" lon="-2.8251099">
        <ele>158.522</ele>
        <time>2021-04-01T07:59:00.765Z</time>
      </trkpt>
      <trkpt lat="43.1445652" lon="-2.8251051">
        <ele>158.548</ele>
        <time>2021-04-01T07:59:00.906Z</time>
      </trkpt>
      <trkpt lat="43.1445711" lon="-2.825094">
        <ele>158.621</ele>
        <time>2021-04-01T07:59:01.047Z</time>
      </trkpt>
      <trkpt lat="43.1445722" lon="-2.8250915">
        <ele>158.65</ele>
        <time>2021-04-01T07:59:01.189Z</time>
      </trkpt>
      <trkpt lat="43.1445628" lon="-2.8251099">
        <ele>158.522</ele>
        <time>2021-04-01T07:59:01.330Z</time>
      </trkpt>
      <trkpt lat="43.1445652" lon="-2.8251051">
        <ele>158.548</ele>
        <time>2021-04-01T07:59:01.472Z</time>
      </trkpt>
      <trkpt lat="43.1445711" lon="-2.825094">
        <ele>158.621</ele>
        <time>2021-04-01T07:59:01.613Z</time>
      </trkpt>
      <trkpt lat="43.1445722" lon="-2.8250915">
        <ele>158.65</ele>
        <time>2021-04-01T07:59:01.755Z</time>
      </trkpt>
      <trkpt lat="43.1446257" lon="-2.824983">
        <ele>158.564</ele>
        <time>2021-04-01T07:59:02.127Z</time>
      </trkpt>
      <trkpt lat="43.1446341" lon="-2.8249665">
        <ele>158.407</ele>
        <time>2021-04-01T07:59:02.500Z</time>
      </trkpt>
      <trkpt lat="43.1446244" lon="-2.8249855">
        <ele>158.542</ele>
        <time>2021-04-01T07:59:02.873Z</time>
      </trkpt>
      <trkpt lat="43.1446257" lon="-2.824983">
        <ele>158.564</ele>
        <time>2021-04-01T07:59:03.246Z</time>
      </trkpt>
      <trkpt lat="43.1446341" lon="-2.8249665">
        <ele>158.407</ele>
        <time>2021-04-01T07:59:03.618Z</time>
      </trkpt>
      <trkpt lat="43.1446244" lon="-2.8249855">
        <ele>158.542</ele>
        <time>2021-04-01T07:59:03.991Z</time>
      </trkpt>
      <trkpt lat="43.1446257" lon="-2.824983">
        <ele>158.564</ele>
        <time>2021-04-01T07:59:04.364Z</time>
      </trkpt>
      <trkpt lat="43.1446341" lon="-2.8249665">
        <ele>158.407</ele>
        <time>2021-04-01T07:59:04.737Z</time>
      </trkpt>
      <trkpt lat="43.1446884" lon="-2.8248697">
        <ele>157.849</ele>
        <time>2021-04-01T07:59:07.145Z</time>
      </trkpt>
      <trkpt lat="43.1447338" lon="-2.824794">
        <ele>157.153</ele>
        <time>2021-04-01T07:59:08.300Z</time>
      </trkpt>
      <trkpt lat="43.1447354" lon="-2.8247919">
        <ele>157.162</ele>
        <time>2021-04-01T07:59:08.460Z</time>
      </trkpt>
      <trkpt lat="43.1447367" lon="-2.8247895">
        <ele>157.171</ele>
        <time>2021-04-01T07:59:08.621Z</time>
      </trkpt>
      <trkpt lat="43.1447338" lon="-2.824794">
        <ele>157.153</ele>
        <time>2021-04-01T07:59:08.782Z</time>
      </trkpt>
      <trkpt lat="43.1447354" lon="-2.8247919">
        <ele>157.162</ele>
        <time>2021-04-01T07:59:08.943Z</time>
      </trkpt>
      <trkpt lat="43.1447367" lon="-2.8247895">
        <ele>157.171</ele>
        <time>2021-04-01T07:59:09.103Z</time>
      </trkpt>
      <trkpt lat="43.1447338" lon="-2.824794">
        <ele>157.153</ele>
        <time>2021-04-01T07:59:09.264Z</time>
      </trkpt>
      <trkpt lat="43.1447354" lon="-2.8247919">
        <ele>157.162</ele>
        <time>2021-04-01T07:59:09.425Z</time>
      </trkpt>
      <trkpt lat="43.1447367" lon="-2.8247895">
        <ele>157.171</ele>
        <time>2021-04-01T07:59:09.586Z</time>
      </trkpt>
      <trkpt lat="43.1447595" lon="-2.8247509">
        <ele>156.704</ele>
        <time>2021-04-01T07:59:09.746Z</time>
      </trkpt>
      <trkpt lat="43.1447726" lon="-2.8247343">
        <ele>156.665</ele>
        <time>2021-04-01T07:59:09.907Z</time>
      </trkpt>
      <trkpt lat="43.1447595" lon="-2.8247509">
        <ele>156.704</ele>
        <time>2021-04-01T07:59:10.068Z</time>
      </trkpt>
      <trkpt lat="43.1447726" lon="-2.8247343">
        <ele>156.665</ele>
        <time>2021-04-01T07:59:10.229Z</time>
      </trkpt>
      <trkpt lat="43.1448143" lon="-2.824684">
        <ele>155.969</ele>
        <time>2021-04-01T07:59:10.390Z</time>
      </trkpt>
      <trkpt lat="43.1448143" lon="-2.824684">
        <ele>155.969</ele>
        <time>2021-04-01T07:59:10.665Z</time>
      </trkpt>
      <trkpt lat="43.1448283" lon="-2.824667">
        <ele>155.69</ele>
        <time>2021-04-01T07:59:12.975Z</time>
      </trkpt>
      <trkpt lat="43.1448846" lon="-2.824601">
        <ele>155.515</ele>
        <time>2021-04-01T07:59:13.285Z</time>
      </trkpt>
      <trkpt lat="43.14489" lon="-2.8245951">
        <ele>155.625</ele>
        <time>2021-04-01T07:59:13.595Z</time>
      </trkpt>
      <trkpt lat="43.1448829" lon="-2.8246025">
        <ele>155.516</ele>
        <time>2021-04-01T07:59:13.905Z</time>
      </trkpt>
      <trkpt lat="43.1448915" lon="-2.8245933">
        <ele>155.603</ele>
        <time>2021-04-01T07:59:14.215Z</time>
      </trkpt>
      <trkpt lat="43.144893" lon="-2.8245915">
        <ele>155.605</ele>
        <time>2021-04-01T07:59:14.525Z</time>
      </trkpt>
      <trkpt lat="43.1449018" lon="-2.8245807">
        <ele>155.443</ele>
        <time>2021-04-01T07:59:14.835Z</time>
      </trkpt>
      <trkpt lat="43.144893" lon="-2.8245915">
        <ele>155.605</ele>
        <time>2021-04-01T07:59:15.145Z</time>
      </trkpt>
      <trkpt lat="43.1449018" lon="-2.8245807">
        <ele>155.443</ele>
        <time>2021-04-01T07:59:15.455Z</time>
      </trkpt>
      <trkpt lat="43.144893" lon="-2.8245915">
        <ele>155.605</ele>
        <time>2021-04-01T07:59:15.765Z</time>
      </trkpt>
      <trkpt lat="43.1449018" lon="-2.8245807">
        <ele>155.443</ele>
        <time>2021-04-01T07:59:16.075Z</time>
      </trkpt>
      <trkpt lat="43.1449879" lon="-2.824501">
        <ele>155.808</ele>
        <time>2021-04-01T07:59:17.375Z</time>
      </trkpt>
      <trkpt lat="43.1450216" lon="-2.8244792">
        <ele>155.428</ele>
        <time>2021-04-01T07:59:19.520Z</time>
      </trkpt>
      <trkpt lat="43.1450423" lon="-2.8244674">
        <ele>155.356</ele>
        <time>2021-04-01T07:59:19.609Z</time>
      </trkpt>
      <trkpt lat="43.1450531" lon="-2.824462">
        <ele>155.599</ele>
        <time>2021-04-01T07:59:19.698Z</time>
      </trkpt>
      <trkpt lat="43.1450447" lon="-2.8244664">
        <ele>155.405</ele>
        <time>2021-04-01T07:59:19.788Z</time>
      </trkpt>
      <trkpt lat="43.1450489" lon="-2.8244637">
        <ele>155.581</ele>
        <time>2021-04-01T07:59:19.877Z</time>
      </trkpt>
      <trkpt lat="43.1450509" lon="-2.8244628">
        <ele>155.569</ele>
        <time>2021-04-01T07:59:19.966Z</time>
      </trkpt>
      <trkpt lat="43.1450531" lon="-2.824462">
        <ele>155.599</ele>
        <time>2021-04-01T07:59:20.056Z</time>
      </trkpt>
      <trkpt lat="43.1450447" lon="-2.8244664">
        <ele>155.405</ele>
        <time>2021-04-01T07:59:20.145Z</time>
      </trkpt>
      <trkpt lat="43.1450489" lon="-2.8244637">
        <ele>155.581</ele>
        <time>2021-04-01T07:59:20.235Z</time>
      </trkpt>
      <trkpt lat="43.1450509" lon="-2.8244628">
        <ele>155.569</ele>
        <time>2021-04-01T07:59:20.324Z</time>
      </trkpt>
      <trkpt lat="43.1450531" lon="-2.824462">
        <ele>155.599</ele>
        <time>2021-04-01T07:59:20.413Z</time>
      </trkpt>
      <trkpt lat="43.145098" lon="-2.8244429">
        <ele>155.655</ele>
        <time>2021-04-01T07:59:20.503Z</time>
      </trkpt>
      <trkpt lat="43.1450994" lon="-2.8244418">
        <ele>155.607</ele>
        <time>2021-04-01T07:59:20.592Z</time>
      </trkpt>
      <trkpt lat="43.145098" lon="-2.8244429">
        <ele>155.655</ele>
        <time>2021-04-01T07:59:20.681Z</time>
      </trkpt>
      <trkpt lat="43.1450994" lon="-2.8244418">
        <ele>155.607</ele>
        <time>2021-04-01T07:59:20.771Z</time>
      </trkpt>
      <trkpt lat="43.1450994" lon="-2.8244418">
        <ele>155.607</ele>
        <time>2021-04-01T07:59:20.860Z</time>
      </trkpt>
      <trkpt lat="43.1451482" lon="-2.8244217">
        <ele>156.346</ele>
        <time>2021-04-01T07:59:20.950Z</time>
      </trkpt>
      <trkpt lat="43.1451503" lon="-2.8244206">
        <ele>156.403</ele>
        <time>2021-04-01T07:59:21.214Z</time>
      </trkpt>
      <trkpt lat="43.1451434" lon="-2.8244231">
        <ele>156.246</ele>
        <time>2021-04-01T07:59:21.478Z</time>
      </trkpt>
      <trkpt lat="43.1451482" lon="-2.8244217">
        <ele>156.346</ele>
        <time>2021-04-01T07:59:21.742Z</time>
      </trkpt>
      <trkpt lat="43.1451503" lon="-2.8244206">
        <ele>156.403</ele>
        <time>2021-04-01T07:59:22.006Z</time>
      </trkpt>
      <trkpt lat="43.1451976" lon="-2.8244015">
        <ele>157.719</ele>
        <time>2021-04-01T07:59:23.425Z</time>
      </trkpt>
      <trkpt lat="43.1452384" lon="-2.8243876">
        <ele>158.859</ele>
        <time>2021-04-01T07:59:23.736Z</time>
      </trkpt>
      <trkpt lat="43.1452668" lon="-2.8243827">
        <ele>159.535</ele>
        <time>2021-04-01T07:59:24.048Z</time>
      </trkpt>
      <trkpt lat="43.1452746" lon="-2.8243816">
        <ele>159.505</ele>
        <time>2021-04-01T07:59:24.360Z</time>
      </trkpt>
      <trkpt lat="43.1452668" lon="-2.8243827">
        <ele>159.535</ele>
        <time>2021-04-01T07:59:24.671Z</time>
      </trkpt>
      <trkpt lat="43.1452746" lon="-2.8243816">
        <ele>159.505</ele>
        <time>2021-04-01T07:59:24.983Z</time>
      </trkpt>
      <trkpt lat="43.1453078" lon="-2.8243775">
        <ele>159.352</ele>
        <time>2021-04-01T07:59:25.295Z</time>
      </trkpt>
      <trkpt lat="43.1452969" lon="-2.8243791">
        <ele>159.259</ele>
        <time>2021-04-01T07:59:25.721Z</time>
      </trkpt>
      <trkpt lat="43.1452991" lon="-2.8243789">
        <ele>159.296</ele>
        <time>2021-04-01T07:59:26.147Z</time>
      </trkpt>
      <trkpt lat="43.1453078" lon="-2.8243775">
        <ele>159.352</ele>
        <time>2021-04-01T07:59:26.573Z</time>
      </trkpt>
      <trkpt lat="43.145372" lon="-2.8243724">
        <ele>158.634</ele>
        <time>2021-04-01T07:59:27.000Z</time>
      </trkpt>
      <trkpt lat="43.1453844" lon="-2.8243718">
        <ele>158.747</ele>
        <time>2021-04-01T07:59:27.235Z</time>
      </trkpt>
      <trkpt lat="43.1453804" lon="-2.8243718">
        <ele>158.754</ele>
        <time>2021-04-01T07:59:27.471Z</time>
      </trkpt>
      <trkpt lat="43.1453823" lon="-2.8243716">
        <ele>158.771</ele>
        <time>2021-04-01T07:59:27.707Z</time>
      </trkpt>
      <trkpt lat="43.1453844" lon="-2.8243718">
        <ele>158.747</ele>
        <time>2021-04-01T07:59:27.942Z</time>
      </trkpt>
      <trkpt lat="43.1453823" lon="-2.8243716">
        <ele>158.771</ele>
        <time>2021-04-01T07:59:28.178Z</time>
      </trkpt>
      <trkpt lat="43.1453844" lon="-2.8243718">
        <ele>158.747</ele>
        <time>2021-04-01T07:59:28.414Z</time>
      </trkpt>
      <trkpt lat="43.1454342" lon="-2.8243681">
        <ele>159.516</ele>
        <time>2021-04-01T07:59:30.300Z</time>
      </trkpt>
      <trkpt lat="43.1454453" lon="-2.8243673">
        <ele>159.676</ele>
        <time>2021-04-01T07:59:30.978Z</time>
      </trkpt>
      <trkpt lat="43.1454342" lon="-2.8243681">
        <ele>159.516</ele>
        <time>2021-04-01T07:59:31.656Z</time>
      </trkpt>
      <trkpt lat="43.1454453" lon="-2.8243673">
        <ele>159.676</ele>
        <time>2021-04-01T07:59:32.335Z</time>
      </trkpt>
      <trkpt lat="43.1455778" lon="-2.8243701">
        <ele>160.25</ele>
        <time>2021-04-01T07:59:32.481Z</time>
      </trkpt>
      <trkpt lat="43.1455754" lon="-2.8243699">
        <ele>160.203</ele>
        <time>2021-04-01T07:59:32.628Z</time>
      </trkpt>
      <trkpt lat="43.1455778" lon="-2.8243701">
        <ele>160.25</ele>
        <time>2021-04-01T07:59:32.775Z</time>
      </trkpt>
      <trkpt lat="43.1455754" lon="-2.8243699">
        <ele>160.203</ele>
        <time>2021-04-01T07:59:32.921Z</time>
      </trkpt>
      <trkpt lat="43.1455778" lon="-2.8243701">
        <ele>160.25</ele>
        <time>2021-04-01T07:59:33.068Z</time>
      </trkpt>
      <trkpt lat="43.1456162" lon="-2.8243719">
        <ele>161.126</ele>
        <time>2021-04-01T07:59:33.215Z</time>
      </trkpt>
      <trkpt lat="43.1456235" lon="-2.8243729">
        <ele>161.435</ele>
        <time>2021-04-01T07:59:33.911Z</time>
      </trkpt>
      <trkpt lat="43.1456235" lon="-2.8243729">
        <ele>161.435</ele>
        <time>2021-04-01T07:59:34.608Z</time>
      </trkpt>
      <trkpt lat="43.1457028" lon="-2.8243718">
        <ele>163.367</ele>
        <time>2021-04-01T07:59:37.285Z</time>
      </trkpt>
      <trkpt lat="43.1457771" lon="-2.8243603">
        <ele>164.023</ele>
        <time>2021-04-01T07:59:37.505Z</time>
      </trkpt>
      <trkpt lat="43.1457791" lon="-2.8243596">
        <ele>164.06</ele>
        <time>2021-04-01T07:59:37.725Z</time>
      </trkpt>
      <trkpt lat="43.1457771" lon="-2.8243603">
        <ele>164.023</ele>
        <time>2021-04-01T07:59:37.945Z</time>
      </trkpt>
      <trkpt lat="43.1457791" lon="-2.8243596">
        <ele>164.06</ele>
        <time>2021-04-01T07:59:38.165Z</time>
      </trkpt>
      <trkpt lat="43.1458165" lon="-2.8243481">
        <ele>164.43</ele>
        <time>2021-04-01T07:59:39.485Z</time>
      </trkpt>
      <trkpt lat="43.1458523" lon="-2.8243319">
        <ele>164.342</ele>
        <time>2021-04-01T07:59:39.679Z</time>
      </trkpt>
      <trkpt lat="43.1458737" lon="-2.8243164">
        <ele>164.574</ele>
        <time>2021-04-01T07:59:39.874Z</time>
      </trkpt>
      <trkpt lat="43.1458813" lon="-2.8243101">
        <ele>164.648</ele>
        <time>2021-04-01T07:59:40.068Z</time>
      </trkpt>
      <trkpt lat="43.1458833" lon="-2.8243087">
        <ele>164.634</ele>
        <time>2021-04-01T07:59:40.263Z</time>
      </trkpt>
      <trkpt lat="43.14587" lon="-2.8243194">
        <ele>164.597</ele>
        <time>2021-04-01T07:59:40.458Z</time>
      </trkpt>
      <trkpt lat="43.1458737" lon="-2.8243164">
        <ele>164.574</ele>
        <time>2021-04-01T07:59:40.652Z</time>
      </trkpt>
      <trkpt lat="43.1458813" lon="-2.8243101">
        <ele>164.648</ele>
        <time>2021-04-01T07:59:40.847Z</time>
      </trkpt>
      <trkpt lat="43.1458833" lon="-2.8243087">
        <ele>164.634</ele>
        <time>2021-04-01T07:59:41.041Z</time>
      </trkpt>
      <trkpt lat="43.14587" lon="-2.8243194">
        <ele>164.597</ele>
        <time>2021-04-01T07:59:41.236Z</time>
      </trkpt>
      <trkpt lat="43.1458737" lon="-2.8243164">
        <ele>164.574</ele>
        <time>2021-04-01T07:59:41.431Z</time>
      </trkpt>
      <trkpt lat="43.1458813" lon="-2.8243101">
        <ele>164.648</ele>
        <time>2021-04-01T07:59:41.625Z</time>
      </trkpt>
      <trkpt lat="43.1458833" lon="-2.8243087">
        <ele>164.634</ele>
        <time>2021-04-01T07:59:41.820Z</time>
      </trkpt>
      <trkpt lat="43.1459322" lon="-2.8242523">
        <ele>162.166</ele>
        <time>2021-04-01T07:59:42.015Z</time>
      </trkpt>
      <trkpt lat="43.1459038" lon="-2.8242886">
        <ele>163.666</ele>
        <time>2021-04-01T07:59:42.312Z</time>
      </trkpt>
      <trkpt lat="43.1459322" lon="-2.8242523">
        <ele>162.166</ele>
        <time>2021-04-01T07:59:42.609Z</time>
      </trkpt>
      <trkpt lat="43.1459038" lon="-2.8242886">
        <ele>163.666</ele>
        <time>2021-04-01T07:59:42.906Z</time>
      </trkpt>
      <trkpt lat="43.1459322" lon="-2.8242523">
        <ele>162.166</ele>
        <time>2021-04-01T07:59:43.203Z</time>
      </trkpt>
      <trkpt lat="43.1459681" lon="-2.8241941">
        <ele>162.07</ele>
        <time>2021-04-01T07:59:45.425Z</time>
      </trkpt>
      <trkpt lat="43.1460057" lon="-2.8241154">
        <ele>162.179</ele>
        <time>2021-04-01T07:59:45.553Z</time>
      </trkpt>
      <trkpt lat="43.1459939" lon="-2.8241462">
        <ele>162.094</ele>
        <time>2021-04-01T07:59:45.681Z</time>
      </trkpt>
      <trkpt lat="43.1459998" lon="-2.8241292">
        <ele>162.165</ele>
        <time>2021-04-01T07:59:45.809Z</time>
      </trkpt>
      <trkpt lat="43.1459914" lon="-2.8241533">
        <ele>162.064</ele>
        <time>2021-04-01T07:59:45.938Z</time>
      </trkpt>
      <trkpt lat="43.1459939" lon="-2.8241462">
        <ele>162.094</ele>
        <time>2021-04-01T07:59:46.066Z</time>
      </trkpt>
      <trkpt lat="43.1459998" lon="-2.8241292">
        <ele>162.165</ele>
        <time>2021-04-01T07:59:46.194Z</time>
      </trkpt>
      <trkpt lat="43.1459939" lon="-2.8241462">
        <ele>162.094</ele>
        <time>2021-04-01T07:59:46.323Z</time>
      </trkpt>
      <trkpt lat="43.1459998" lon="-2.8241292">
        <ele>162.165</ele>
        <time>2021-04-01T07:59:46.451Z</time>
      </trkpt>
      <trkpt lat="43.1460235" lon="-2.8240644">
        <ele>162.045</ele>
        <time>2021-04-01T07:59:48.285Z</time>
      </trkpt>
      <trkpt lat="43.1460371" lon="-2.8239835">
        <ele>161.301</ele>
        <time>2021-04-01T07:59:48.431Z</time>
      </trkpt>
      <trkpt lat="43.1460368" lon="-2.8239861">
        <ele>161.305</ele>
        <time>2021-04-01T07:59:48.578Z</time>
      </trkpt>
      <trkpt lat="43.1460371" lon="-2.8239835">
        <ele>161.301</ele>
        <time>2021-04-01T07:59:48.725Z</time>
      </trkpt>
      <trkpt lat="43.1460368" lon="-2.8239861">
        <ele>161.305</ele>
        <time>2021-04-01T07:59:48.871Z</time>
      </trkpt>
      <trkpt lat="43.1460371" lon="-2.8239835">
        <ele>161.301</ele>
        <time>2021-04-01T07:59:49.018Z</time>
      </trkpt>
      <trkpt lat="43.1460443" lon="-2.8239449">
        <ele>161.014</ele>
        <time>2021-04-01T07:59:50.870Z</time>
      </trkpt>
      <trkpt lat="43.1460539" lon="-2.8238718">
        <ele>160.587</ele>
        <time>2021-04-01T07:59:51.103Z</time>
      </trkpt>
      <trkpt lat="43.1460539" lon="-2.8238718">
        <ele>160.587</ele>
        <time>2021-04-01T07:59:51.337Z</time>
      </trkpt>
      <trkpt lat="43.1460539" lon="-2.8238718">
        <ele>160.587</ele>
        <time>2021-04-01T07:59:51.571Z</time>
      </trkpt>
      <trkpt lat="43.146059" lon="-2.8238288">
        <ele>160.928</ele>
        <time>2021-04-01T07:59:54.115Z</time>
      </trkpt>
      <trkpt lat="43.1460676" lon="-2.8237237">
        <ele>161.581</ele>
        <time>2021-04-01T07:59:55.655Z</time>
      </trkpt>
      <trkpt lat="43.1460683" lon="-2.8237063">
        <ele>161.526</ele>
        <time>2021-04-01T07:59:55.804Z</time>
      </trkpt>
      <trkpt lat="43.1460678" lon="-2.8237185">
        <ele>161.567</ele>
        <time>2021-04-01T07:59:55.953Z</time>
      </trkpt>
      <trkpt lat="43.146068" lon="-2.8237087">
        <ele>161.507</ele>
        <time>2021-04-01T07:59:56.102Z</time>
      </trkpt>
      <trkpt lat="43.1460683" lon="-2.8237063">
        <ele>161.526</ele>
        <time>2021-04-01T07:59:56.252Z</time>
      </trkpt>
      <trkpt lat="43.1460678" lon="-2.8237185">
        <ele>161.567</ele>
        <time>2021-04-01T07:59:56.401Z</time>
      </trkpt>
      <trkpt lat="43.146068" lon="-2.8237087">
        <ele>161.507</ele>
        <time>2021-04-01T07:59:56.550Z</time>
      </trkpt>
      <trkpt lat="43.1460683" lon="-2.8237063">
        <ele>161.526</ele>
        <time>2021-04-01T07:59:56.700Z</time>
      </trkpt>
      <trkpt lat="43.1460749" lon="-2.8236515">
        <ele>161.874</ele>
        <time>2021-04-01T07:59:58.900Z</time>
      </trkpt>
      <trkpt lat="43.1460959" lon="-2.823503">
        <ele>163.152</ele>
        <time>2021-04-01T08:00:00.110Z</time>
      </trkpt>
      <trkpt lat="43.1461087" lon="-2.8234501">
        <ele>164.351</ele>
        <time>2021-04-01T08:00:01.595Z</time>
      </trkpt>
      <trkpt lat="43.146117" lon="-2.823381">
        <ele>164.856</ele>
        <time>2021-04-01T08:00:02.046Z</time>
      </trkpt>
      <trkpt lat="43.1461247" lon="-2.8233366">
        <ele>165.422</ele>
        <time>2021-04-01T08:00:02.497Z</time>
      </trkpt>
      <trkpt lat="43.1461226" lon="-2.8233496">
        <ele>165.281</ele>
        <time>2021-04-01T08:00:02.948Z</time>
      </trkpt>
      <trkpt lat="43.1461247" lon="-2.8233366">
        <ele>165.422</ele>
        <time>2021-04-01T08:00:03.399Z</time>
      </trkpt>
      <trkpt lat="43.1461345" lon="-2.8232717">
        <ele>166.299</ele>
        <time>2021-04-01T08:00:03.850Z</time>
      </trkpt>
      <trkpt lat="43.1461349" lon="-2.8232693">
        <ele>166.283</ele>
        <time>2021-04-01T08:00:04.193Z</time>
      </trkpt>
      <trkpt lat="43.1461314" lon="-2.8232966">
        <ele>165.925</ele>
        <time>2021-04-01T08:00:04.537Z</time>
      </trkpt>
      <trkpt lat="43.1461345" lon="-2.8232717">
        <ele>166.299</ele>
        <time>2021-04-01T08:00:04.881Z</time>
      </trkpt>
      <trkpt lat="43.1461349" lon="-2.8232693">
        <ele>166.283</ele>
        <time>2021-04-01T08:00:05.225Z</time>
      </trkpt>
      <trkpt lat="43.1461314" lon="-2.8232966">
        <ele>165.925</ele>
        <time>2021-04-01T08:00:05.568Z</time>
      </trkpt>
      <trkpt lat="43.1461345" lon="-2.8232717">
        <ele>166.299</ele>
        <time>2021-04-01T08:00:05.912Z</time>
      </trkpt>
      <trkpt lat="43.1461349" lon="-2.8232693">
        <ele>166.283</ele>
        <time>2021-04-01T08:00:06.256Z</time>
      </trkpt>
      <trkpt lat="43.1461482" lon="-2.8231455">
        <ele>166.425</ele>
        <time>2021-04-01T08:00:06.600Z</time>
      </trkpt>
      <trkpt lat="43.1461482" lon="-2.8231455">
        <ele>166.425</ele>
        <time>2021-04-01T08:00:06.765Z</time>
      </trkpt>
      <trkpt lat="43.1461516" lon="-2.8231117">
        <ele>166.418</ele>
        <time>2021-04-01T08:00:06.930Z</time>
      </trkpt>
      <trkpt lat="43.1461507" lon="-2.8231191">
        <ele>166.457</ele>
        <time>2021-04-01T08:00:07.095Z</time>
      </trkpt>
      <trkpt lat="43.1461516" lon="-2.8231117">
        <ele>166.418</ele>
        <time>2021-04-01T08:00:07.260Z</time>
      </trkpt>
      <trkpt lat="43.1461507" lon="-2.8231191">
        <ele>166.457</ele>
        <time>2021-04-01T08:00:07.425Z</time>
      </trkpt>
      <trkpt lat="43.1461516" lon="-2.8231117">
        <ele>166.418</ele>
        <time>2021-04-01T08:00:07.590Z</time>
      </trkpt>
      <trkpt lat="43.1461542" lon="-2.8230914">
        <ele>166.432</ele>
        <time>2021-04-01T08:00:09.680Z</time>
      </trkpt>
      <trkpt lat="43.1461695" lon="-2.8230047">
        <ele>166.655</ele>
        <time>2021-04-01T08:00:10.098Z</time>
      </trkpt>
      <trkpt lat="43.1461784" lon="-2.8229664">
        <ele>167.012</ele>
        <time>2021-04-01T08:00:10.516Z</time>
      </trkpt>
      <trkpt lat="43.1461784" lon="-2.8229664">
        <ele>167.012</ele>
        <time>2021-04-01T08:00:10.934Z</time>
      </trkpt>
      <trkpt lat="43.1461784" lon="-2.8229664">
        <ele>167.012</ele>
        <time>2021-04-01T08:00:11.352Z</time>
      </trkpt>
      <trkpt lat="43.1461898" lon="-2.8229064">
        <ele>167.25</ele>
        <time>2021-04-01T08:00:13.585Z</time>
      </trkpt>
      <trkpt lat="43.1462076" lon="-2.822819">
        <ele>167.747</ele>
        <time>2021-04-01T08:00:14.740Z</time>
      </trkpt>
      <trkpt lat="43.1462178" lon="-2.8227639">
        <ele>167.555</ele>
        <time>2021-04-01T08:00:15.166Z</time>
      </trkpt>
      <trkpt lat="43.1462194" lon="-2.8227483">
        <ele>167.594</ele>
        <time>2021-04-01T08:00:15.592Z</time>
      </trkpt>
      <trkpt lat="43.1462209" lon="-2.8227378">
        <ele>167.644</ele>
        <time>2021-04-01T08:00:16.018Z</time>
      </trkpt>
      <trkpt lat="43.1462248" lon="-2.8226836">
        <ele>167.548</ele>
        <time>2021-04-01T08:00:17.655Z</time>
      </trkpt>
      <trkpt lat="43.1462278" lon="-2.8226299">
        <ele>167.137</ele>
        <time>2021-04-01T08:00:17.825Z</time>
      </trkpt>
      <trkpt lat="43.1462282" lon="-2.8226199">
        <ele>166.891</ele>
        <time>2021-04-01T08:00:17.996Z</time>
      </trkpt>
      <trkpt lat="43.1462269" lon="-2.8226106">
        <ele>166.789</ele>
        <time>2021-04-01T08:00:18.166Z</time>
      </trkpt>
      <trkpt lat="43.146226" lon="-2.8226033">
        <ele>166.642</ele>
        <time>2021-04-01T08:00:18.337Z</time>
      </trkpt>
      <trkpt lat="43.1462247" lon="-2.8225935">
        <ele>166.563</ele>
        <time>2021-04-01T08:00:18.507Z</time>
      </trkpt>
      <trkpt lat="43.146226" lon="-2.8226033">
        <ele>166.642</ele>
        <time>2021-04-01T08:00:18.678Z</time>
      </trkpt>
      <trkpt lat="43.1462247" lon="-2.8225935">
        <ele>166.563</ele>
        <time>2021-04-01T08:00:18.848Z</time>
      </trkpt>
      <trkpt lat="43.146226" lon="-2.8226033">
        <ele>166.642</ele>
        <time>2021-04-01T08:00:19.019Z</time>
      </trkpt>
      <trkpt lat="43.1462247" lon="-2.8225935">
        <ele>166.563</ele>
        <time>2021-04-01T08:00:19.189Z</time>
      </trkpt>
      <trkpt lat="43.1462224" lon="-2.8225551">
        <ele>166.559</ele>
        <time>2021-04-01T08:00:20.515Z</time>
      </trkpt>
      <trkpt lat="43.1462133" lon="-2.8225024">
        <ele>166.606</ele>
        <time>2021-04-01T08:00:20.753Z</time>
      </trkpt>
      <trkpt lat="43.146205" lon="-2.8224596">
        <ele>166.913</ele>
        <time>2021-04-01T08:00:20.991Z</time>
      </trkpt>
      <trkpt lat="43.1462065" lon="-2.8224683">
        <ele>166.8</ele>
        <time>2021-04-01T08:00:21.229Z</time>
      </trkpt>
      <trkpt lat="43.146203" lon="-2.8224477">
        <ele>167.094</ele>
        <time>2021-04-01T08:00:21.468Z</time>
      </trkpt>
      <trkpt lat="43.146205" lon="-2.8224596">
        <ele>166.913</ele>
        <time>2021-04-01T08:00:21.706Z</time>
      </trkpt>
      <trkpt lat="43.146203" lon="-2.8224477">
        <ele>167.094</ele>
        <time>2021-04-01T08:00:21.944Z</time>
      </trkpt>
      <trkpt lat="43.146205" lon="-2.8224596">
        <ele>166.913</ele>
        <time>2021-04-01T08:00:22.183Z</time>
      </trkpt>
      <trkpt lat="43.146203" lon="-2.8224477">
        <ele>167.094</ele>
        <time>2021-04-01T08:00:22.421Z</time>
      </trkpt>
      <trkpt lat="43.1461902" lon="-2.8224013">
        <ele>167.066</ele>
        <time>2021-04-01T08:00:22.660Z</time>
      </trkpt>
      <trkpt lat="43.146187" lon="-2.8223916">
        <ele>167.135</ele>
        <time>2021-04-01T08:00:22.907Z</time>
      </trkpt>
      <trkpt lat="43.1461838" lon="-2.8223852">
        <ele>167.021</ele>
        <time>2021-04-01T08:00:23.155Z</time>
      </trkpt>
      <trkpt lat="43.1461813" lon="-2.8223782">
        <ele>167.07</ele>
        <time>2021-04-01T08:00:23.402Z</time>
      </trkpt>
      <trkpt lat="43.1461902" lon="-2.8224013">
        <ele>167.066</ele>
        <time>2021-04-01T08:00:23.650Z</time>
      </trkpt>
      <trkpt lat="43.146187" lon="-2.8223916">
        <ele>167.135</ele>
        <time>2021-04-01T08:00:23.897Z</time>
      </trkpt>
      <trkpt lat="43.1461838" lon="-2.8223852">
        <ele>167.021</ele>
        <time>2021-04-01T08:00:24.145Z</time>
      </trkpt>
      <trkpt lat="43.1461813" lon="-2.8223782">
        <ele>167.07</ele>
        <time>2021-04-01T08:00:24.392Z</time>
      </trkpt>
      <trkpt lat="43.1461553" lon="-2.8223226">
        <ele>166.934</ele>
        <time>2021-04-01T08:00:25.410Z</time>
      </trkpt>
      <trkpt lat="43.1461386" lon="-2.8222957">
        <ele>166.565</ele>
        <time>2021-04-01T08:00:25.740Z</time>
      </trkpt>
      <trkpt lat="43.1461226" lon="-2.8222701">
        <ele>166.479</ele>
        <time>2021-04-01T08:00:26.070Z</time>
      </trkpt>
      <trkpt lat="43.1461226" lon="-2.8222701">
        <ele>166.479</ele>
        <time>2021-04-01T08:00:26.400Z</time>
      </trkpt>
      <trkpt lat="43.1461226" lon="-2.8222701">
        <ele>166.479</ele>
        <time>2021-04-01T08:00:26.730Z</time>
      </trkpt>
      <trkpt lat="43.1461022" lon="-2.8222349">
        <ele>166.593</ele>
        <time>2021-04-01T08:00:28.655Z</time>
      </trkpt>
      <trkpt lat="43.1460621" lon="-2.8221754">
        <ele>166.534</ele>
        <time>2021-04-01T08:00:29.062Z</time>
      </trkpt>
      <trkpt lat="43.1460518" lon="-2.8221618">
        <ele>166.51</ele>
        <time>2021-04-01T08:00:29.469Z</time>
      </trkpt>
      <trkpt lat="43.1460405" lon="-2.8221427">
        <ele>166.767</ele>
        <time>2021-04-01T08:00:29.876Z</time>
      </trkpt>
      <trkpt lat="43.1460405" lon="-2.8221427">
        <ele>166.767</ele>
        <time>2021-04-01T08:00:30.283Z</time>
      </trkpt>
      <trkpt lat="43.1460099" lon="-2.8220936">
        <ele>167.203</ele>
        <time>2021-04-01T08:00:31.405Z</time>
      </trkpt>
      <trkpt lat="43.145992" lon="-2.8220632">
        <ele>167.615</ele>
        <time>2021-04-01T08:00:33.275Z</time>
      </trkpt>
      <trkpt lat="43.1459781" lon="-2.8220421">
        <ele>167.653</ele>
        <time>2021-04-01T08:00:33.462Z</time>
      </trkpt>
      <trkpt lat="43.1459642" lon="-2.8220213">
        <ele>167.699</ele>
        <time>2021-04-01T08:00:33.649Z</time>
      </trkpt>
      <trkpt lat="43.1459627" lon="-2.8220192">
        <ele>167.722</ele>
        <time>2021-04-01T08:00:33.836Z</time>
      </trkpt>
      <trkpt lat="43.1459613" lon="-2.822017">
        <ele>167.729</ele>
        <time>2021-04-01T08:00:34.023Z</time>
      </trkpt>
      <trkpt lat="43.1459642" lon="-2.8220213">
        <ele>167.699</ele>
        <time>2021-04-01T08:00:34.210Z</time>
      </trkpt>
      <trkpt lat="43.1459627" lon="-2.8220192">
        <ele>167.722</ele>
        <time>2021-04-01T08:00:34.397Z</time>
      </trkpt>
      <trkpt lat="43.1459613" lon="-2.822017">
        <ele>167.729</ele>
        <time>2021-04-01T08:00:34.584Z</time>
      </trkpt>
      <trkpt lat="43.1459642" lon="-2.8220213">
        <ele>167.699</ele>
        <time>2021-04-01T08:00:34.771Z</time>
      </trkpt>
      <trkpt lat="43.1459627" lon="-2.8220192">
        <ele>167.722</ele>
        <time>2021-04-01T08:00:34.958Z</time>
      </trkpt>
      <trkpt lat="43.1459613" lon="-2.822017">
        <ele>167.729</ele>
        <time>2021-04-01T08:00:35.145Z</time>
      </trkpt>
      <trkpt lat="43.1459006" lon="-2.8219272">
        <ele>167.705</ele>
        <time>2021-04-01T08:00:36.630Z</time>
      </trkpt>
      <trkpt lat="43.1458653" lon="-2.821874">
        <ele>167.737</ele>
        <time>2021-04-01T08:00:36.767Z</time>
      </trkpt>
      <trkpt lat="43.1458481" lon="-2.8218499">
        <ele>167.573</ele>
        <time>2021-04-01T08:00:36.905Z</time>
      </trkpt>
      <trkpt lat="43.1458468" lon="-2.8218474">
        <ele>167.604</ele>
        <time>2021-04-01T08:00:37.042Z</time>
      </trkpt>
      <trkpt lat="43.1458666" lon="-2.8218758">
        <ele>167.76</ele>
        <time>2021-04-01T08:00:37.180Z</time>
      </trkpt>
      <trkpt lat="43.1458653" lon="-2.821874">
        <ele>167.737</ele>
        <time>2021-04-01T08:00:37.317Z</time>
      </trkpt>
      <trkpt lat="43.1458481" lon="-2.8218499">
        <ele>167.573</ele>
        <time>2021-04-01T08:00:37.455Z</time>
      </trkpt>
      <trkpt lat="43.1458468" lon="-2.8218474">
        <ele>167.604</ele>
        <time>2021-04-01T08:00:37.592Z</time>
      </trkpt>
      <trkpt lat="43.1458393" lon="-2.8218355">
        <ele>167.696</ele>
        <time>2021-04-01T08:00:40.535Z</time>
      </trkpt>
      <trkpt lat="43.1457726" lon="-2.8217452">
        <ele>166.894</ele>
        <time>2021-04-01T08:00:40.755Z</time>
      </trkpt>
      <trkpt lat="43.1457726" lon="-2.8217452">
        <ele>166.894</ele>
        <time>2021-04-01T08:00:40.975Z</time>
      </trkpt>
      <trkpt lat="43.145759" lon="-2.8217215">
        <ele>166.556</ele>
        <time>2021-04-01T08:00:42.845Z</time>
      </trkpt>
      <trkpt lat="43.1457223" lon="-2.8216537">
        <ele>166.869</ele>
        <time>2021-04-01T08:00:43.373Z</time>
      </trkpt>
      <trkpt lat="43.1457112" lon="-2.8216291">
        <ele>166.841</ele>
        <time>2021-04-01T08:00:43.901Z</time>
      </trkpt>
      <trkpt lat="43.1457112" lon="-2.8216291">
        <ele>166.841</ele>
        <time>2021-04-01T08:00:44.429Z</time>
      </trkpt>
      <trkpt lat="43.1457112" lon="-2.8216291">
        <ele>166.841</ele>
        <time>2021-04-01T08:00:44.957Z</time>
      </trkpt>
      <trkpt lat="43.1456682" lon="-2.8215412">
        <ele>167.213</ele>
        <time>2021-04-01T08:00:45.485Z</time>
      </trkpt>
      <trkpt lat="43.1456747" lon="-2.8215535">
        <ele>167.092</ele>
        <time>2021-04-01T08:00:45.512Z</time>
      </trkpt>
      <trkpt lat="43.1456815" lon="-2.8215675">
        <ele>167.058</ele>
        <time>2021-04-01T08:00:45.540Z</time>
      </trkpt>
      <trkpt lat="43.1456804" lon="-2.8215656">
        <ele>167.026</ele>
        <time>2021-04-01T08:00:45.567Z</time>
      </trkpt>
      <trkpt lat="43.1456747" lon="-2.8215535">
        <ele>167.092</ele>
        <time>2021-04-01T08:00:45.595Z</time>
      </trkpt>
      <trkpt lat="43.1456815" lon="-2.8215675">
        <ele>167.058</ele>
        <time>2021-04-01T08:00:45.622Z</time>
      </trkpt>
      <trkpt lat="43.1456804" lon="-2.8215656">
        <ele>167.026</ele>
        <time>2021-04-01T08:00:45.650Z</time>
      </trkpt>
      <trkpt lat="43.1456747" lon="-2.8215535">
        <ele>167.092</ele>
        <time>2021-04-01T08:00:45.677Z</time>
      </trkpt>
      <trkpt lat="43.1456638" lon="-2.8215302">
        <ele>167.382</ele>
        <time>2021-04-01T08:00:47.740Z</time>
      </trkpt>
      <trkpt lat="43.145626" lon="-2.8214326">
        <ele>168.193</ele>
        <time>2021-04-01T08:00:48.148Z</time>
      </trkpt>
      <trkpt lat="43.1456228" lon="-2.8214251">
        <ele>168.198</ele>
        <time>2021-04-01T08:00:48.557Z</time>
      </trkpt>
      <trkpt lat="43.1456185" lon="-2.8214155">
        <ele>168.147</ele>
        <time>2021-04-01T08:00:48.965Z</time>
      </trkpt>
      <trkpt lat="43.145626" lon="-2.8214326">
        <ele>168.193</ele>
        <time>2021-04-01T08:00:49.374Z</time>
      </trkpt>
      <trkpt lat="43.1456228" lon="-2.8214251">
        <ele>168.198</ele>
        <time>2021-04-01T08:00:49.782Z</time>
      </trkpt>
      <trkpt lat="43.1456185" lon="-2.8214155">
        <ele>168.147</ele>
        <time>2021-04-01T08:00:50.191Z</time>
      </trkpt>
      <trkpt lat="43.1455696" lon="-2.8213038">
        <ele>169.061</ele>
        <time>2021-04-01T08:00:50.600Z</time>
      </trkpt>
      <trkpt lat="43.1455696" lon="-2.8213038">
        <ele>169.061</ele>
        <time>2021-04-01T08:00:53.845Z</time>
      </trkpt>
      <trkpt lat="43.145507" lon="-2.8211638">
        <ele>170.331</ele>
        <time>2021-04-01T08:00:55.825Z</time>
      </trkpt>
      <trkpt lat="43.14547" lon="-2.8210798">
        <ele>170.955</ele>
        <time>2021-04-01T08:00:56.100Z</time>
      </trkpt>
      <trkpt lat="43.1454687" lon="-2.8210775">
        <ele>170.976</ele>
        <time>2021-04-01T08:00:56.375Z</time>
      </trkpt>
      <trkpt lat="43.14547" lon="-2.8210798">
        <ele>170.955</ele>
        <time>2021-04-01T08:00:56.650Z</time>
      </trkpt>
      <trkpt lat="43.1454687" lon="-2.8210775">
        <ele>170.976</ele>
        <time>2021-04-01T08:00:56.925Z</time>
      </trkpt>
      <trkpt lat="43.1454419" lon="-2.8210211">
        <ele>171.618</ele>
        <time>2021-04-01T08:00:58.520Z</time>
      </trkpt>
      <trkpt lat="43.1454108" lon="-2.8209692">
        <ele>172.092</ele>
        <time>2021-04-01T08:01:00.555Z</time>
      </trkpt>
      <trkpt lat="43.1453948" lon="-2.8209422">
        <ele>172.47</ele>
        <time>2021-04-01T08:01:00.627Z</time>
      </trkpt>
      <trkpt lat="43.1453922" lon="-2.8209384">
        <ele>172.472</ele>
        <time>2021-04-01T08:01:00.699Z</time>
      </trkpt>
      <trkpt lat="43.1454003" lon="-2.8209514">
        <ele>172.249</ele>
        <time>2021-04-01T08:01:00.771Z</time>
      </trkpt>
      <trkpt lat="43.1453948" lon="-2.8209422">
        <ele>172.47</ele>
        <time>2021-04-01T08:01:00.843Z</time>
      </trkpt>
      <trkpt lat="43.1453922" lon="-2.8209384">
        <ele>172.472</ele>
        <time>2021-04-01T08:01:00.915Z</time>
      </trkpt>
      <trkpt lat="43.1453948" lon="-2.8209422">
        <ele>172.47</ele>
        <time>2021-04-01T08:01:00.988Z</time>
      </trkpt>
      <trkpt lat="43.1453922" lon="-2.8209384">
        <ele>172.472</ele>
        <time>2021-04-01T08:01:01.060Z</time>
      </trkpt>
      <trkpt lat="43.1453651" lon="-2.8208879">
        <ele>172.7</ele>
        <time>2021-04-01T08:01:01.132Z</time>
      </trkpt>
      <trkpt lat="43.1453696" lon="-2.8208966">
        <ele>172.689</ele>
        <time>2021-04-01T08:01:01.204Z</time>
      </trkpt>
      <trkpt lat="43.1453579" lon="-2.820875">
        <ele>172.71</ele>
        <time>2021-04-01T08:01:01.276Z</time>
      </trkpt>
      <trkpt lat="43.1453552" lon="-2.8208704">
        <ele>172.763</ele>
        <time>2021-04-01T08:01:01.349Z</time>
      </trkpt>
      <trkpt lat="43.1453579" lon="-2.820875">
        <ele>172.71</ele>
        <time>2021-04-01T08:01:01.421Z</time>
      </trkpt>
      <trkpt lat="43.1453552" lon="-2.8208704">
        <ele>172.763</ele>
        <time>2021-04-01T08:01:01.493Z</time>
      </trkpt>
      <trkpt lat="43.1453579" lon="-2.820875">
        <ele>172.71</ele>
        <time>2021-04-01T08:01:01.565Z</time>
      </trkpt>
      <trkpt lat="43.1453552" lon="-2.8208704">
        <ele>172.763</ele>
        <time>2021-04-01T08:01:01.637Z</time>
      </trkpt>
      <trkpt lat="43.1453385" lon="-2.8208409">
        <ele>172.959</ele>
        <time>2021-04-01T08:01:01.710Z</time>
      </trkpt>
      <trkpt lat="43.1453217" lon="-2.8208116">
        <ele>173.199</ele>
        <time>2021-04-01T08:01:02.177Z</time>
      </trkpt>
      <trkpt lat="43.1453217" lon="-2.8208116">
        <ele>173.199</ele>
        <time>2021-04-01T08:01:02.645Z</time>
      </trkpt>
      <trkpt lat="43.1453217" lon="-2.8208116">
        <ele>173.199</ele>
        <time>2021-04-01T08:01:03.112Z</time>
      </trkpt>
      <trkpt lat="43.1452945" lon="-2.8207656">
        <ele>173.595</ele>
        <time>2021-04-01T08:01:03.580Z</time>
      </trkpt>
      <trkpt lat="43.1452244" lon="-2.8206465">
        <ele>173.363</ele>
        <time>2021-04-01T08:01:08.035Z</time>
      </trkpt>
      <trkpt lat="43.1452244" lon="-2.8206465">
        <ele>173.363</ele>
        <time>2021-04-01T08:01:09.520Z</time>
      </trkpt>
      <trkpt lat="43.1451592" lon="-2.8205472">
        <ele>172.734</ele>
        <time>2021-04-01T08:01:09.700Z</time>
      </trkpt>
      <trkpt lat="43.1451496" lon="-2.8205363">
        <ele>172.45</ele>
        <time>2021-04-01T08:01:09.880Z</time>
      </trkpt>
      <trkpt lat="43.1451483" lon="-2.8205345">
        <ele>172.446</ele>
        <time>2021-04-01T08:01:10.060Z</time>
      </trkpt>
      <trkpt lat="43.1451434" lon="-2.8205295">
        <ele>172.141</ele>
        <time>2021-04-01T08:01:10.240Z</time>
      </trkpt>
      <trkpt lat="43.1451496" lon="-2.8205363">
        <ele>172.45</ele>
        <time>2021-04-01T08:01:10.420Z</time>
      </trkpt>
      <trkpt lat="43.1451483" lon="-2.8205345">
        <ele>172.446</ele>
        <time>2021-04-01T08:01:10.600Z</time>
      </trkpt>
      <trkpt lat="43.1451434" lon="-2.8205295">
        <ele>172.141</ele>
        <time>2021-04-01T08:01:10.780Z</time>
      </trkpt>
      <trkpt lat="43.1451496" lon="-2.8205363">
        <ele>172.45</ele>
        <time>2021-04-01T08:01:10.960Z</time>
      </trkpt>
      <trkpt lat="43.1451483" lon="-2.8205345">
        <ele>172.446</ele>
        <time>2021-04-01T08:01:11.140Z</time>
      </trkpt>
      <trkpt lat="43.1451434" lon="-2.8205295">
        <ele>172.141</ele>
        <time>2021-04-01T08:01:11.320Z</time>
      </trkpt>
      <trkpt lat="43.145114" lon="-2.8204884">
        <ele>171.316</ele>
        <time>2021-04-01T08:01:12.490Z</time>
      </trkpt>
      <trkpt lat="43.1450912" lon="-2.8204526">
        <ele>171.141</ele>
        <time>2021-04-01T08:01:12.930Z</time>
      </trkpt>
      <trkpt lat="43.1450636" lon="-2.8204098">
        <ele>171.064</ele>
        <time>2021-04-01T08:01:13.370Z</time>
      </trkpt>
      <trkpt lat="43.1450636" lon="-2.8204098">
        <ele>171.064</ele>
        <time>2021-04-01T08:01:13.810Z</time>
      </trkpt>
      <trkpt lat="43.1450636" lon="-2.8204098">
        <ele>171.064</ele>
        <time>2021-04-01T08:01:14.250Z</time>
      </trkpt>
      <trkpt lat="43.1450392" lon="-2.8203751">
        <ele>170.465</ele>
        <time>2021-04-01T08:01:16.120Z</time>
      </trkpt>
      <trkpt lat="43.1450015" lon="-2.8203239">
        <ele>170.627</ele>
        <time>2021-04-01T08:01:16.413Z</time>
      </trkpt>
      <trkpt lat="43.1450001" lon="-2.8203226">
        <ele>170.599</ele>
        <time>2021-04-01T08:01:16.706Z</time>
      </trkpt>
      <trkpt lat="43.1449952" lon="-2.8203134">
        <ele>170.889</ele>
        <time>2021-04-01T08:01:16.999Z</time>
      </trkpt>
      <trkpt lat="43.1449952" lon="-2.8203134">
        <ele>170.889</ele>
        <time>2021-04-01T08:01:17.293Z</time>
      </trkpt>
      <trkpt lat="43.1449952" lon="-2.8203134">
        <ele>170.889</ele>
        <time>2021-04-01T08:01:17.586Z</time>
      </trkpt>
      <trkpt lat="43.1449587" lon="-2.820264">
        <ele>171.014</ele>
        <time>2021-04-01T08:01:17.880Z</time>
      </trkpt>
      <trkpt lat="43.1449532" lon="-2.8202583">
        <ele>170.782</ele>
        <time>2021-04-01T08:01:18.012Z</time>
      </trkpt>
      <trkpt lat="43.1449493" lon="-2.8202533">
        <ele>170.762</ele>
        <time>2021-04-01T08:01:18.144Z</time>
      </trkpt>
      <trkpt lat="43.1449468" lon="-2.8202506">
        <ele>170.698</ele>
        <time>2021-04-01T08:01:18.276Z</time>
      </trkpt>
      <trkpt lat="43.1449532" lon="-2.8202583">
        <ele>170.782</ele>
        <time>2021-04-01T08:01:18.408Z</time>
      </trkpt>
      <trkpt lat="43.1449493" lon="-2.8202533">
        <ele>170.762</ele>
        <time>2021-04-01T08:01:18.540Z</time>
      </trkpt>
      <trkpt lat="43.1449468" lon="-2.8202506">
        <ele>170.698</ele>
        <time>2021-04-01T08:01:18.672Z</time>
      </trkpt>
      <trkpt lat="43.1449532" lon="-2.8202583">
        <ele>170.782</ele>
        <time>2021-04-01T08:01:18.804Z</time>
      </trkpt>
      <trkpt lat="43.1449493" lon="-2.8202533">
        <ele>170.762</ele>
        <time>2021-04-01T08:01:18.936Z</time>
      </trkpt>
      <trkpt lat="43.1449468" lon="-2.8202506">
        <ele>170.698</ele>
        <time>2021-04-01T08:01:19.068Z</time>
      </trkpt>
      <trkpt lat="43.1449246" lon="-2.8202263">
        <ele>170.632</ele>
        <time>2021-04-01T08:01:20.575Z</time>
      </trkpt>
      <trkpt lat="43.1448878" lon="-2.8201873">
        <ele>170.285</ele>
        <time>2021-04-01T08:01:22.665Z</time>
      </trkpt>
      <trkpt lat="43.144876" lon="-2.8201732">
        <ele>170.255</ele>
        <time>2021-04-01T08:01:22.836Z</time>
      </trkpt>
      <trkpt lat="43.1448718" lon="-2.8201682">
        <ele>170.212</ele>
        <time>2021-04-01T08:01:23.008Z</time>
      </trkpt>
      <trkpt lat="43.144879" lon="-2.8201779">
        <ele>170.156</ele>
        <time>2021-04-01T08:01:23.180Z</time>
      </trkpt>
      <trkpt lat="43.1448656" lon="-2.8201607">
        <ele>170.258</ele>
        <time>2021-04-01T08:01:23.352Z</time>
      </trkpt>
      <trkpt lat="43.1448718" lon="-2.8201682">
        <ele>170.212</ele>
        <time>2021-04-01T08:01:23.524Z</time>
      </trkpt>
      <trkpt lat="43.1448656" lon="-2.8201607">
        <ele>170.258</ele>
        <time>2021-04-01T08:01:23.696Z</time>
      </trkpt>
      <trkpt lat="43.1448718" lon="-2.8201682">
        <ele>170.212</ele>
        <time>2021-04-01T08:01:23.868Z</time>
      </trkpt>
      <trkpt lat="43.1448656" lon="-2.8201607">
        <ele>170.258</ele>
        <time>2021-04-01T08:01:24.040Z</time>
      </trkpt>
      <trkpt lat="43.1447959" lon="-2.8200716">
        <ele>169.983</ele>
        <time>2021-04-01T08:01:27.560Z</time>
      </trkpt>
      <trkpt lat="43.1447134" lon="-2.8199394">
        <ele>169.894</ele>
        <time>2021-04-01T08:01:29.210Z</time>
      </trkpt>
      <trkpt lat="43.1446828" lon="-2.8198741">
        <ele>169.704</ele>
        <time>2021-04-01T08:01:30.145Z</time>
      </trkpt>
      <trkpt lat="43.1446651" lon="-2.8198396">
        <ele>169.169</ele>
        <time>2021-04-01T08:01:32.675Z</time>
      </trkpt>
      <trkpt lat="43.1446288" lon="-2.8197383">
        <ele>168.542</ele>
        <time>2021-04-01T08:01:32.803Z</time>
      </trkpt>
      <trkpt lat="43.144631" lon="-2.8197572">
        <ele>168.735</ele>
        <time>2021-04-01T08:01:32.931Z</time>
      </trkpt>
      <trkpt lat="43.1446318" lon="-2.8197596">
        <ele>168.76</ele>
        <time>2021-04-01T08:01:33.059Z</time>
      </trkpt>
      <trkpt lat="43.144631" lon="-2.8197572">
        <ele>168.735</ele>
        <time>2021-04-01T08:01:33.188Z</time>
      </trkpt>
      <trkpt lat="43.144631" lon="-2.8197572">
        <ele>168.735</ele>
        <time>2021-04-01T08:01:33.316Z</time>
      </trkpt>
      <trkpt lat="43.1446162" lon="-2.8197093">
        <ele>168.502</ele>
        <time>2021-04-01T08:01:34.435Z</time>
      </trkpt>
      <trkpt lat="43.1446018" lon="-2.8196695">
        <ele>168.112</ele>
        <time>2021-04-01T08:01:34.861Z</time>
      </trkpt>
      <trkpt lat="43.1445759" lon="-2.8196211">
        <ele>168.33</ele>
        <time>2021-04-01T08:01:35.287Z</time>
      </trkpt>
      <trkpt lat="43.1445759" lon="-2.8196211">
        <ele>168.33</ele>
        <time>2021-04-01T08:01:35.713Z</time>
      </trkpt>
      <trkpt lat="43.1445681" lon="-2.8196064">
        <ele>167.858</ele>
        <time>2021-04-01T08:01:36.140Z</time>
      </trkpt>
      <trkpt lat="43.1445485" lon="-2.8195647">
        <ele>167.182</ele>
        <time>2021-04-01T08:01:36.621Z</time>
      </trkpt>
      <trkpt lat="43.1445539" lon="-2.8195785">
        <ele>167.37</ele>
        <time>2021-04-01T08:01:37.102Z</time>
      </trkpt>
      <trkpt lat="43.1445485" lon="-2.8195647">
        <ele>167.182</ele>
        <time>2021-04-01T08:01:37.583Z</time>
      </trkpt>
      <trkpt lat="43.1445309" lon="-2.8195294">
        <ele>166.884</ele>
        <time>2021-04-01T08:01:40.100Z</time>
      </trkpt>
      <trkpt lat="43.1445298" lon="-2.8195272">
        <ele>166.864</ele>
        <time>2021-04-01T08:01:40.622Z</time>
      </trkpt>
      <trkpt lat="43.1445298" lon="-2.8195272">
        <ele>166.864</ele>
        <time>2021-04-01T08:01:41.145Z</time>
      </trkpt>
      <trkpt lat="43.144464" lon="-2.8194119">
        <ele>166.282</ele>
        <time>2021-04-01T08:01:41.387Z</time>
      </trkpt>
      <trkpt lat="43.1444492" lon="-2.8193912">
        <ele>166.147</ele>
        <time>2021-04-01T08:01:41.629Z</time>
      </trkpt>
      <trkpt lat="43.1444492" lon="-2.8193912">
        <ele>166.147</ele>
        <time>2021-04-01T08:01:41.871Z</time>
      </trkpt>
      <trkpt lat="43.1444492" lon="-2.8193912">
        <ele>166.147</ele>
        <time>2021-04-01T08:01:42.113Z</time>
      </trkpt>
      <trkpt lat="43.1444324" lon="-2.8193729">
        <ele>165.726</ele>
        <time>2021-04-01T08:01:42.355Z</time>
      </trkpt>
      <trkpt lat="43.1444131" lon="-2.8193459">
        <ele>165.737</ele>
        <time>2021-04-01T08:01:42.657Z</time>
      </trkpt>
      <trkpt lat="43.1444117" lon="-2.8193437">
        <ele>165.836</ele>
        <time>2021-04-01T08:01:42.960Z</time>
      </trkpt>
      <trkpt lat="43.1444145" lon="-2.8193479">
        <ele>165.737</ele>
        <time>2021-04-01T08:01:43.262Z</time>
      </trkpt>
      <trkpt lat="43.1444131" lon="-2.8193459">
        <ele>165.737</ele>
        <time>2021-04-01T08:01:43.565Z</time>
      </trkpt>
      <trkpt lat="43.1444117" lon="-2.8193437">
        <ele>165.836</ele>
        <time>2021-04-01T08:01:43.867Z</time>
      </trkpt>
      <trkpt lat="43.1443886" lon="-2.8193168">
        <ele>165.368</ele>
        <time>2021-04-01T08:01:46.260Z</time>
      </trkpt>
      <trkpt lat="43.1443307" lon="-2.8192524">
        <ele>165.526</ele>
        <time>2021-04-01T08:01:46.768Z</time>
      </trkpt>
      <trkpt lat="43.1443307" lon="-2.8192524">
        <ele>165.526</ele>
        <time>2021-04-01T08:01:47.277Z</time>
      </trkpt>
      <trkpt lat="43.1443307" lon="-2.8192524">
        <ele>165.526</ele>
        <time>2021-04-01T08:01:47.786Z</time>
      </trkpt>
      <trkpt lat="43.1442747" lon="-2.8191801">
        <ele>167.827</ele>
        <time>2021-04-01T08:01:49.010Z</time>
      </trkpt>
      <trkpt lat="43.1442538" lon="-2.8191636">
        <ele>167.523</ele>
        <time>2021-04-01T08:01:49.321Z</time>
      </trkpt>
      <trkpt lat="43.1442328" lon="-2.8191386">
        <ele>167.881</ele>
        <time>2021-04-01T08:01:49.633Z</time>
      </trkpt>
      <trkpt lat="43.144228" lon="-2.8191342">
        <ele>167.82</ele>
        <time>2021-04-01T08:01:49.945Z</time>
      </trkpt>
      <trkpt lat="43.1442328" lon="-2.8191386">
        <ele>167.881</ele>
        <time>2021-04-01T08:01:50.256Z</time>
      </trkpt>
      <trkpt lat="43.144228" lon="-2.8191342">
        <ele>167.82</ele>
        <time>2021-04-01T08:01:50.568Z</time>
      </trkpt>
      <trkpt lat="43.1442056" lon="-2.819095">
        <ele>169.452</ele>
        <time>2021-04-01T08:01:50.880Z</time>
      </trkpt>
      <trkpt lat="43.1441997" lon="-2.8190855">
        <ele>169.837</ele>
        <time>2021-04-01T08:01:50.994Z</time>
      </trkpt>
      <trkpt lat="43.1441984" lon="-2.819084">
        <ele>169.915</ele>
        <time>2021-04-01T08:01:51.108Z</time>
      </trkpt>
      <trkpt lat="43.1442056" lon="-2.819095">
        <ele>169.452</ele>
        <time>2021-04-01T08:01:51.222Z</time>
      </trkpt>
      <trkpt lat="43.1441971" lon="-2.8190812">
        <ele>170.073</ele>
        <time>2021-04-01T08:01:51.336Z</time>
      </trkpt>
      <trkpt lat="43.1441959" lon="-2.8190784">
        <ele>170.188</ele>
        <time>2021-04-01T08:01:51.451Z</time>
      </trkpt>
      <trkpt lat="43.1441904" lon="-2.8190687">
        <ele>170.701</ele>
        <time>2021-04-01T08:01:51.565Z</time>
      </trkpt>
      <trkpt lat="43.1441971" lon="-2.8190812">
        <ele>170.073</ele>
        <time>2021-04-01T08:01:51.679Z</time>
      </trkpt>
      <trkpt lat="43.1441959" lon="-2.8190784">
        <ele>170.188</ele>
        <time>2021-04-01T08:01:51.793Z</time>
      </trkpt>
      <trkpt lat="43.1441904" lon="-2.8190687">
        <ele>170.701</ele>
        <time>2021-04-01T08:01:51.908Z</time>
      </trkpt>
      <trkpt lat="43.1441971" lon="-2.8190812">
        <ele>170.073</ele>
        <time>2021-04-01T08:01:52.022Z</time>
      </trkpt>
      <trkpt lat="43.1441959" lon="-2.8190784">
        <ele>170.188</ele>
        <time>2021-04-01T08:01:52.136Z</time>
      </trkpt>
      <trkpt lat="43.1441904" lon="-2.8190687">
        <ele>170.701</ele>
        <time>2021-04-01T08:01:52.250Z</time>
      </trkpt>
      <trkpt lat="43.1441695" lon="-2.819033">
        <ele>171.982</ele>
        <time>2021-04-01T08:01:53.465Z</time>
      </trkpt>
      <trkpt lat="43.1441419" lon="-2.8189896">
        <ele>173.823</ele>
        <time>2021-04-01T08:01:55.060Z</time>
      </trkpt>
      <trkpt lat="43.1440985" lon="-2.8189247">
        <ele>176.717</ele>
        <time>2021-04-01T08:01:55.426Z</time>
      </trkpt>
      <trkpt lat="43.1440741" lon="-2.8188956">
        <ele>177.293</ele>
        <time>2021-04-01T08:01:55.793Z</time>
      </trkpt>
      <trkpt lat="43.1440664" lon="-2.8188872">
        <ele>177.442</ele>
        <time>2021-04-01T08:01:56.160Z</time>
      </trkpt>
      <trkpt lat="43.1440664" lon="-2.8188872">
        <ele>177.442</ele>
        <time>2021-04-01T08:01:56.526Z</time>
      </trkpt>
      <trkpt lat="43.1440664" lon="-2.8188872">
        <ele>177.442</ele>
        <time>2021-04-01T08:01:56.893Z</time>
      </trkpt>
      <trkpt lat="43.1440367" lon="-2.8188556">
        <ele>177.615</ele>
        <time>2021-04-01T08:01:58.305Z</time>
      </trkpt>
      <trkpt lat="43.1440334" lon="-2.8188528">
        <ele>177.636</ele>
        <time>2021-04-01T08:01:58.598Z</time>
      </trkpt>
      <trkpt lat="43.1440318" lon="-2.8188513">
        <ele>177.621</ele>
        <time>2021-04-01T08:01:58.891Z</time>
      </trkpt>
      <trkpt lat="43.1440334" lon="-2.8188528">
        <ele>177.636</ele>
        <time>2021-04-01T08:01:59.184Z</time>
      </trkpt>
      <trkpt lat="43.1440318" lon="-2.8188513">
        <ele>177.621</ele>
        <time>2021-04-01T08:01:59.478Z</time>
      </trkpt>
      <trkpt lat="43.1440334" lon="-2.8188528">
        <ele>177.636</ele>
        <time>2021-04-01T08:01:59.771Z</time>
      </trkpt>
      <trkpt lat="43.1440318" lon="-2.8188513">
        <ele>177.621</ele>
        <time>2021-04-01T08:02:00.065Z</time>
      </trkpt>
      <trkpt lat="43.1439655" lon="-2.8187588">
        <ele>178.5</ele>
        <time>2021-04-01T08:02:00.798Z</time>
      </trkpt>
      <trkpt lat="43.1439655" lon="-2.8187588">
        <ele>178.5</ele>
        <time>2021-04-01T08:02:01.531Z</time>
      </trkpt>
      <trkpt lat="43.1439199" lon="-2.8186666">
        <ele>178.867</ele>
        <time>2021-04-01T08:02:02.265Z</time>
      </trkpt>
      <trkpt lat="43.1439192" lon="-2.8186639">
        <ele>178.897</ele>
        <time>2021-04-01T08:02:02.553Z</time>
      </trkpt>
      <trkpt lat="43.1439199" lon="-2.8186666">
        <ele>178.867</ele>
        <time>2021-04-01T08:02:02.842Z</time>
      </trkpt>
      <trkpt lat="43.1439192" lon="-2.8186639">
        <ele>178.897</ele>
        <time>2021-04-01T08:02:03.131Z</time>
      </trkpt>
      <trkpt lat="43.1439041" lon="-2.8186096">
        <ele>179.161</ele>
        <time>2021-04-01T08:02:05.070Z</time>
      </trkpt>
      <trkpt lat="43.1438914" lon="-2.8185247">
        <ele>179.358</ele>
        <time>2021-04-01T08:02:06.665Z</time>
      </trkpt>
      <trkpt lat="43.1438901" lon="-2.8184933">
        <ele>179.612</ele>
        <time>2021-04-01T08:02:06.900Z</time>
      </trkpt>
      <trkpt lat="43.1438906" lon="-2.8185096">
        <ele>179.388</ele>
        <time>2021-04-01T08:02:07.136Z</time>
      </trkpt>
      <trkpt lat="43.1438904" lon="-2.8184999">
        <ele>179.486</ele>
        <time>2021-04-01T08:02:07.372Z</time>
      </trkpt>
      <trkpt lat="43.1438901" lon="-2.8184933">
        <ele>179.612</ele>
        <time>2021-04-01T08:02:07.607Z</time>
      </trkpt>
      <trkpt lat="43.1438906" lon="-2.8185096">
        <ele>179.388</ele>
        <time>2021-04-01T08:02:07.843Z</time>
      </trkpt>
      <trkpt lat="43.1438904" lon="-2.8184999">
        <ele>179.486</ele>
        <time>2021-04-01T08:02:08.079Z</time>
      </trkpt>
      <trkpt lat="43.1438901" lon="-2.8184933">
        <ele>179.612</ele>
        <time>2021-04-01T08:02:08.315Z</time>
      </trkpt>
      <trkpt lat="43.1438966" lon="-2.8183515">
        <ele>181.073</ele>
        <time>2021-04-01T08:02:09.965Z</time>
      </trkpt>
      <trkpt lat="43.1438972" lon="-2.818346">
        <ele>181.103</ele>
        <time>2021-04-01T08:02:10.207Z</time>
      </trkpt>
      <trkpt lat="43.143899" lon="-2.8183356">
        <ele>181.1</ele>
        <time>2021-04-01T08:02:10.449Z</time>
      </trkpt>
      <trkpt lat="43.1438966" lon="-2.8183515">
        <ele>181.073</ele>
        <time>2021-04-01T08:02:10.691Z</time>
      </trkpt>
      <trkpt lat="43.1438972" lon="-2.818346">
        <ele>181.103</ele>
        <time>2021-04-01T08:02:10.933Z</time>
      </trkpt>
      <trkpt lat="43.143899" lon="-2.8183356">
        <ele>181.1</ele>
        <time>2021-04-01T08:02:11.175Z</time>
      </trkpt>
      <trkpt lat="43.1439337" lon="-2.8182029">
        <ele>182.051</ele>
        <time>2021-04-01T08:02:11.380Z</time>
      </trkpt>
      <trkpt lat="43.1439353" lon="-2.8181919">
        <ele>182.212</ele>
        <time>2021-04-01T08:02:11.585Z</time>
      </trkpt>
      <trkpt lat="43.1439314" lon="-2.8182105">
        <ele>181.879</ele>
        <time>2021-04-01T08:02:11.790Z</time>
      </trkpt>
      <trkpt lat="43.143933" lon="-2.8182056">
        <ele>182.004</ele>
        <time>2021-04-01T08:02:11.995Z</time>
      </trkpt>
      <trkpt lat="43.1439337" lon="-2.8182029">
        <ele>182.051</ele>
        <time>2021-04-01T08:02:12.200Z</time>
      </trkpt>
      <trkpt lat="43.1439353" lon="-2.8181919">
        <ele>182.212</ele>
        <time>2021-04-01T08:02:12.405Z</time>
      </trkpt>
      <trkpt lat="43.1439314" lon="-2.8182105">
        <ele>181.879</ele>
        <time>2021-04-01T08:02:12.610Z</time>
      </trkpt>
      <trkpt lat="43.143933" lon="-2.8182056">
        <ele>182.004</ele>
        <time>2021-04-01T08:02:12.815Z</time>
      </trkpt>
      <trkpt lat="43.1439337" lon="-2.8182029">
        <ele>182.051</ele>
        <time>2021-04-01T08:02:13.020Z</time>
      </trkpt>
      <trkpt lat="43.1439353" lon="-2.8181919">
        <ele>182.212</ele>
        <time>2021-04-01T08:02:13.225Z</time>
      </trkpt>
      <trkpt lat="43.1439458" lon="-2.8181065">
        <ele>182.938</ele>
        <time>2021-04-01T08:02:14.805Z</time>
      </trkpt>
      <trkpt lat="43.1439452" lon="-2.8181195">
        <ele>182.946</ele>
        <time>2021-04-01T08:02:15.089Z</time>
      </trkpt>
      <trkpt lat="43.1439454" lon="-2.8181143">
        <ele>182.918</ele>
        <time>2021-04-01T08:02:15.373Z</time>
      </trkpt>
      <trkpt lat="43.1439458" lon="-2.8181065">
        <ele>182.938</ele>
        <time>2021-04-01T08:02:15.657Z</time>
      </trkpt>
      <trkpt lat="43.1439452" lon="-2.8181195">
        <ele>182.946</ele>
        <time>2021-04-01T08:02:15.941Z</time>
      </trkpt>
      <trkpt lat="43.1439454" lon="-2.8181143">
        <ele>182.918</ele>
        <time>2021-04-01T08:02:16.225Z</time>
      </trkpt>
      <trkpt lat="43.1439458" lon="-2.8181065">
        <ele>182.938</ele>
        <time>2021-04-01T08:02:16.510Z</time>
      </trkpt>
      <trkpt lat="43.1439428" lon="-2.81796">
        <ele>183.464</ele>
        <time>2021-04-01T08:02:16.642Z</time>
      </trkpt>
      <trkpt lat="43.1439477" lon="-2.8180046">
        <ele>183.259</ele>
        <time>2021-04-01T08:02:16.774Z</time>
      </trkpt>
      <trkpt lat="43.1439473" lon="-2.818002">
        <ele>183.272</ele>
        <time>2021-04-01T08:02:16.906Z</time>
      </trkpt>
      <trkpt lat="43.1439428" lon="-2.81796">
        <ele>183.464</ele>
        <time>2021-04-01T08:02:17.038Z</time>
      </trkpt>
      <trkpt lat="43.143938" lon="-2.8179282">
        <ele>183.728</ele>
        <time>2021-04-01T08:02:17.170Z</time>
      </trkpt>
      <trkpt lat="43.1439265" lon="-2.8178793">
        <ele>184.047</ele>
        <time>2021-04-01T08:02:17.424Z</time>
      </trkpt>
      <trkpt lat="43.143934" lon="-2.817909">
        <ele>183.921</ele>
        <time>2021-04-01T08:02:17.678Z</time>
      </trkpt>
      <trkpt lat="43.1439253" lon="-2.8178737">
        <ele>184.117</ele>
        <time>2021-04-01T08:02:17.933Z</time>
      </trkpt>
      <trkpt lat="43.1439265" lon="-2.8178793">
        <ele>184.047</ele>
        <time>2021-04-01T08:02:18.187Z</time>
      </trkpt>
      <trkpt lat="43.1439253" lon="-2.8178737">
        <ele>184.117</ele>
        <time>2021-04-01T08:02:18.441Z</time>
      </trkpt>
      <trkpt lat="43.1439265" lon="-2.8178793">
        <ele>184.047</ele>
        <time>2021-04-01T08:02:18.696Z</time>
      </trkpt>
      <trkpt lat="43.1439253" lon="-2.8178737">
        <ele>184.117</ele>
        <time>2021-04-01T08:02:18.950Z</time>
      </trkpt>
      <trkpt lat="43.1439116" lon="-2.8178288">
        <ele>184.521</ele>
        <time>2021-04-01T08:02:20.580Z</time>
      </trkpt>
      <trkpt lat="43.143892" lon="-2.817771">
        <ele>184.261</ele>
        <time>2021-04-01T08:02:20.772Z</time>
      </trkpt>
      <trkpt lat="43.1438816" lon="-2.8177508">
        <ele>183.736</ele>
        <time>2021-04-01T08:02:20.965Z</time>
      </trkpt>
      <trkpt lat="43.143881" lon="-2.8177491">
        <ele>183.679</ele>
        <time>2021-04-01T08:02:21.157Z</time>
      </trkpt>
      <trkpt lat="43.1438802" lon="-2.8177472">
        <ele>183.581</ele>
        <time>2021-04-01T08:02:21.350Z</time>
      </trkpt>
      <trkpt lat="43.1438816" lon="-2.8177508">
        <ele>183.736</ele>
        <time>2021-04-01T08:02:21.542Z</time>
      </trkpt>
      <trkpt lat="43.143881" lon="-2.8177491">
        <ele>183.679</ele>
        <time>2021-04-01T08:02:21.735Z</time>
      </trkpt>
      <trkpt lat="43.1438802" lon="-2.8177472">
        <ele>183.581</ele>
        <time>2021-04-01T08:02:21.927Z</time>
      </trkpt>
      <trkpt lat="43.1438644" lon="-2.8177179">
        <ele>183.161</ele>
        <time>2021-04-01T08:02:24.320Z</time>
      </trkpt>
      <trkpt lat="43.1438197" lon="-2.8176344">
        <ele>182.65</ele>
        <time>2021-04-01T08:02:25.310Z</time>
      </trkpt>
      <trkpt lat="43.1438184" lon="-2.8176323">
        <ele>182.616</ele>
        <time>2021-04-01T08:02:25.739Z</time>
      </trkpt>
      <trkpt lat="43.1438173" lon="-2.8176302">
        <ele>182.595</ele>
        <time>2021-04-01T08:02:26.168Z</time>
      </trkpt>
      <trkpt lat="43.1438197" lon="-2.8176344">
        <ele>182.65</ele>
        <time>2021-04-01T08:02:26.597Z</time>
      </trkpt>
      <trkpt lat="43.1438184" lon="-2.8176323">
        <ele>182.616</ele>
        <time>2021-04-01T08:02:27.026Z</time>
      </trkpt>
      <trkpt lat="43.1438173" lon="-2.8176302">
        <ele>182.595</ele>
        <time>2021-04-01T08:02:27.455Z</time>
      </trkpt>
      <trkpt lat="43.1437564" lon="-2.8175179">
        <ele>182.346</ele>
        <time>2021-04-01T08:02:29.545Z</time>
      </trkpt>
      <trkpt lat="43.143709" lon="-2.8174462">
        <ele>182.278</ele>
        <time>2021-04-01T08:02:29.792Z</time>
      </trkpt>
      <trkpt lat="43.1437324" lon="-2.8174768">
        <ele>182.034</ele>
        <time>2021-04-01T08:02:30.040Z</time>
      </trkpt>
      <trkpt lat="43.1437259" lon="-2.8174694">
        <ele>182.096</ele>
        <time>2021-04-01T08:02:30.287Z</time>
      </trkpt>
      <trkpt lat="43.1436855" lon="-2.8174154">
        <ele>181.615</ele>
        <time>2021-04-01T08:02:31.415Z</time>
      </trkpt>
      <trkpt lat="43.1436643" lon="-2.8173858">
        <ele>181.247</ele>
        <time>2021-04-01T08:02:31.598Z</time>
      </trkpt>
      <trkpt lat="43.1436463" lon="-2.8173524">
        <ele>181.4</ele>
        <time>2021-04-01T08:02:31.781Z</time>
      </trkpt>
      <trkpt lat="43.1436606" lon="-2.8173788">
        <ele>181.415</ele>
        <time>2021-04-01T08:02:31.964Z</time>
      </trkpt>
      <trkpt lat="43.1436508" lon="-2.817363">
        <ele>181.362</ele>
        <time>2021-04-01T08:02:32.148Z</time>
      </trkpt>
      <trkpt lat="43.1436463" lon="-2.8173524">
        <ele>181.4</ele>
        <time>2021-04-01T08:02:32.331Z</time>
      </trkpt>
      <trkpt lat="43.1436606" lon="-2.8173788">
        <ele>181.415</ele>
        <time>2021-04-01T08:02:32.514Z</time>
      </trkpt>
      <trkpt lat="43.1436508" lon="-2.817363">
        <ele>181.362</ele>
        <time>2021-04-01T08:02:32.698Z</time>
      </trkpt>
      <trkpt lat="43.1436463" lon="-2.8173524">
        <ele>181.4</ele>
        <time>2021-04-01T08:02:32.881Z</time>
      </trkpt>
      <trkpt lat="43.1436302" lon="-2.8173266">
        <ele>181.15</ele>
        <time>2021-04-01T08:02:35.155Z</time>
      </trkpt>
      <trkpt lat="43.1435832" lon="-2.8172605">
        <ele>180.256</ele>
        <time>2021-04-01T08:02:37.135Z</time>
      </trkpt>
      <trkpt lat="43.1435708" lon="-2.8172444">
        <ele>180.212</ele>
        <time>2021-04-01T08:02:37.186Z</time>
      </trkpt>
      <trkpt lat="43.1435796" lon="-2.8172549">
        <ele>180.235</ele>
        <time>2021-04-01T08:02:37.238Z</time>
      </trkpt>
      <trkpt lat="43.1435783" lon="-2.8172526">
        <ele>180.306</ele>
        <time>2021-04-01T08:02:37.289Z</time>
      </trkpt>
      <trkpt lat="43.1435724" lon="-2.8172465">
        <ele>180.133</ele>
        <time>2021-04-01T08:02:37.341Z</time>
      </trkpt>
      <trkpt lat="43.1435708" lon="-2.8172444">
        <ele>180.212</ele>
        <time>2021-04-01T08:02:37.392Z</time>
      </trkpt>
      <trkpt lat="43.1435796" lon="-2.8172549">
        <ele>180.235</ele>
        <time>2021-04-01T08:02:37.444Z</time>
      </trkpt>
      <trkpt lat="43.1435783" lon="-2.8172526">
        <ele>180.306</ele>
        <time>2021-04-01T08:02:37.495Z</time>
      </trkpt>
      <trkpt lat="43.1435724" lon="-2.8172465">
        <ele>180.133</ele>
        <time>2021-04-01T08:02:37.547Z</time>
      </trkpt>
      <trkpt lat="43.1435708" lon="-2.8172444">
        <ele>180.212</ele>
        <time>2021-04-01T08:02:37.599Z</time>
      </trkpt>
      <trkpt lat="43.1435395" lon="-2.8171924">
        <ele>180.184</ele>
        <time>2021-04-01T08:02:37.650Z</time>
      </trkpt>
      <trkpt lat="43.1435378" lon="-2.8171909">
        <ele>180.163</ele>
        <time>2021-04-01T08:02:37.702Z</time>
      </trkpt>
      <trkpt lat="43.1435366" lon="-2.817189">
        <ele>180.092</ele>
        <time>2021-04-01T08:02:37.753Z</time>
      </trkpt>
      <trkpt lat="43.1435395" lon="-2.8171924">
        <ele>180.184</ele>
        <time>2021-04-01T08:02:37.805Z</time>
      </trkpt>
      <trkpt lat="43.1435378" lon="-2.8171909">
        <ele>180.163</ele>
        <time>2021-04-01T08:02:37.856Z</time>
      </trkpt>
      <trkpt lat="43.1435366" lon="-2.817189">
        <ele>180.092</ele>
        <time>2021-04-01T08:02:37.908Z</time>
      </trkpt>
      <trkpt lat="43.1435223" lon="-2.817165">
        <ele>179.841</ele>
        <time>2021-04-01T08:02:39.225Z</time>
      </trkpt>
      <trkpt lat="43.1434951" lon="-2.8171173">
        <ele>180.819</ele>
        <time>2021-04-01T08:02:39.555Z</time>
      </trkpt>
      <trkpt lat="43.1434724" lon="-2.8170756">
        <ele>181.115</ele>
        <time>2021-04-01T08:02:39.885Z</time>
      </trkpt>
      <trkpt lat="43.1434868" lon="-2.8171032">
        <ele>180.898</ele>
        <time>2021-04-01T08:02:40.215Z</time>
      </trkpt>
      <trkpt lat="43.1434724" lon="-2.8170756">
        <ele>181.115</ele>
        <time>2021-04-01T08:02:40.545Z</time>
      </trkpt>
      <trkpt lat="43.1434724" lon="-2.8170756">
        <ele>181.115</ele>
        <time>2021-04-01T08:02:40.875Z</time>
      </trkpt>
      <trkpt lat="43.1434524" lon="-2.817043">
        <ele>181.547</ele>
        <time>2021-04-01T08:02:42.580Z</time>
      </trkpt>
      <trkpt lat="43.1434229" lon="-2.8169988">
        <ele>180.958</ele>
        <time>2021-04-01T08:02:42.862Z</time>
      </trkpt>
      <trkpt lat="43.1434047" lon="-2.8169698">
        <ele>180.607</ele>
        <time>2021-04-01T08:02:43.145Z</time>
      </trkpt>
      <trkpt lat="43.1434081" lon="-2.8169761">
        <ele>180.511</ele>
        <time>2021-04-01T08:02:43.428Z</time>
      </trkpt>
      <trkpt lat="43.1434047" lon="-2.8169698">
        <ele>180.607</ele>
        <time>2021-04-01T08:02:43.711Z</time>
      </trkpt>
      <trkpt lat="43.1434081" lon="-2.8169761">
        <ele>180.511</ele>
        <time>2021-04-01T08:02:43.994Z</time>
      </trkpt>
      <trkpt lat="43.1434047" lon="-2.8169698">
        <ele>180.607</ele>
        <time>2021-04-01T08:02:44.277Z</time>
      </trkpt>
      <trkpt lat="43.1433799" lon="-2.8169316">
        <ele>180.573</ele>
        <time>2021-04-01T08:02:44.560Z</time>
      </trkpt>
      <trkpt lat="43.1433748" lon="-2.8169245">
        <ele>180.617</ele>
        <time>2021-04-01T08:02:45.041Z</time>
      </trkpt>
      <trkpt lat="43.1433799" lon="-2.8169316">
        <ele>180.573</ele>
        <time>2021-04-01T08:02:45.522Z</time>
      </trkpt>
      <trkpt lat="43.1433748" lon="-2.8169245">
        <ele>180.617</ele>
        <time>2021-04-01T08:02:46.003Z</time>
      </trkpt>
      <trkpt lat="43.1433437" lon="-2.8168618">
        <ele>181.277</ele>
        <time>2021-04-01T08:02:47.695Z</time>
      </trkpt>
      <trkpt lat="43.1433437" lon="-2.8168618">
        <ele>181.277</ele>
        <time>2021-04-01T08:02:48.465Z</time>
      </trkpt>
      <trkpt lat="43.1433437" lon="-2.8168618">
        <ele>181.277</ele>
        <time>2021-04-01T08:02:49.235Z</time>
      </trkpt>
      <trkpt lat="43.1432903" lon="-2.8167728">
        <ele>181.596</ele>
        <time>2021-04-01T08:02:49.521Z</time>
      </trkpt>
      <trkpt lat="43.1432854" lon="-2.8167594">
        <ele>181.514</ele>
        <time>2021-04-01T08:02:49.807Z</time>
      </trkpt>
      <trkpt lat="43.1432903" lon="-2.8167728">
        <ele>181.596</ele>
        <time>2021-04-01T08:02:50.093Z</time>
      </trkpt>
      <trkpt lat="43.1432854" lon="-2.8167594">
        <ele>181.514</ele>
        <time>2021-04-01T08:02:50.379Z</time>
      </trkpt>
      <trkpt lat="43.1432719" lon="-2.8167198">
        <ele>183.613</ele>
        <time>2021-04-01T08:02:50.665Z</time>
      </trkpt>
      <trkpt lat="43.1432719" lon="-2.8167198">
        <ele>183.613</ele>
        <time>2021-04-01T08:02:51.600Z</time>
      </trkpt>
      <trkpt lat="43.1432392" lon="-2.8166483">
        <ele>184.92</ele>
        <time>2021-04-01T08:02:54.405Z</time>
      </trkpt>
      <trkpt lat="43.1432024" lon="-2.8165827">
        <ele>184.675</ele>
        <time>2021-04-01T08:02:54.658Z</time>
      </trkpt>
      <trkpt lat="43.1431985" lon="-2.8165769">
        <ele>184.501</ele>
        <time>2021-04-01T08:02:54.911Z</time>
      </trkpt>
      <trkpt lat="43.1432024" lon="-2.8165827">
        <ele>184.675</ele>
        <time>2021-04-01T08:02:55.164Z</time>
      </trkpt>
      <trkpt lat="43.1431985" lon="-2.8165769">
        <ele>184.501</ele>
        <time>2021-04-01T08:02:55.417Z</time>
      </trkpt>
      <trkpt lat="43.1431758" lon="-2.8165396">
        <ele>183.859</ele>
        <time>2021-04-01T08:02:55.670Z</time>
      </trkpt>
      <trkpt lat="43.1431681" lon="-2.8165217">
        <ele>183.955</ele>
        <time>2021-04-01T08:02:55.972Z</time>
      </trkpt>
      <trkpt lat="43.1431758" lon="-2.8165396">
        <ele>183.859</ele>
        <time>2021-04-01T08:02:56.275Z</time>
      </trkpt>
      <trkpt lat="43.1431681" lon="-2.8165217">
        <ele>183.955</ele>
        <time>2021-04-01T08:02:56.577Z</time>
      </trkpt>
      <trkpt lat="43.1431758" lon="-2.8165396">
        <ele>183.859</ele>
        <time>2021-04-01T08:02:56.880Z</time>
      </trkpt>
      <trkpt lat="43.1431681" lon="-2.8165217">
        <ele>183.955</ele>
        <time>2021-04-01T08:02:57.182Z</time>
      </trkpt>
      <trkpt lat="43.143144" lon="-2.8164616">
        <ele>184.221</ele>
        <time>2021-04-01T08:02:59.190Z</time>
      </trkpt>
      <trkpt lat="43.1431132" lon="-2.816382">
        <ele>185.294</ele>
        <time>2021-04-01T08:02:59.648Z</time>
      </trkpt>
      <trkpt lat="43.1431132" lon="-2.816382">
        <ele>185.294</ele>
        <time>2021-04-01T08:03:00.106Z</time>
      </trkpt>
      <trkpt lat="43.1430852" lon="-2.8163212">
        <ele>185.2</ele>
        <time>2021-04-01T08:03:01.610Z</time>
      </trkpt>
      <trkpt lat="43.1430675" lon="-2.8162808">
        <ele>184.553</ele>
        <time>2021-04-01T08:03:01.866Z</time>
      </trkpt>
      <trkpt lat="43.1430569" lon="-2.8162555">
        <ele>184.419</ele>
        <time>2021-04-01T08:03:02.123Z</time>
      </trkpt>
      <trkpt lat="43.143054" lon="-2.8162491">
        <ele>184.337</ele>
        <time>2021-04-01T08:03:02.380Z</time>
      </trkpt>
      <trkpt lat="43.1430569" lon="-2.8162555">
        <ele>184.419</ele>
        <time>2021-04-01T08:03:02.636Z</time>
      </trkpt>
      <trkpt lat="43.143054" lon="-2.8162491">
        <ele>184.337</ele>
        <time>2021-04-01T08:03:02.893Z</time>
      </trkpt>
      <trkpt lat="43.1430399" lon="-2.8162162">
        <ele>184.628</ele>
        <time>2021-04-01T08:03:03.150Z</time>
      </trkpt>
      <trkpt lat="43.1430305" lon="-2.816197">
        <ele>184.681</ele>
        <time>2021-04-01T08:03:03.443Z</time>
      </trkpt>
      <trkpt lat="43.1430295" lon="-2.8161947">
        <ele>184.694</ele>
        <time>2021-04-01T08:03:03.736Z</time>
      </trkpt>
      <trkpt lat="43.1430328" lon="-2.8162007">
        <ele>184.737</ele>
        <time>2021-04-01T08:03:04.029Z</time>
      </trkpt>
      <trkpt lat="43.1430305" lon="-2.816197">
        <ele>184.681</ele>
        <time>2021-04-01T08:03:04.323Z</time>
      </trkpt>
      <trkpt lat="43.1430295" lon="-2.8161947">
        <ele>184.694</ele>
        <time>2021-04-01T08:03:04.616Z</time>
      </trkpt>
      <trkpt lat="43.1430328" lon="-2.8162007">
        <ele>184.737</ele>
        <time>2021-04-01T08:03:04.909Z</time>
      </trkpt>
      <trkpt lat="43.1430305" lon="-2.816197">
        <ele>184.681</ele>
        <time>2021-04-01T08:03:05.203Z</time>
      </trkpt>
      <trkpt lat="43.1430295" lon="-2.8161947">
        <ele>184.694</ele>
        <time>2021-04-01T08:03:05.496Z</time>
      </trkpt>
      <trkpt lat="43.1429876" lon="-2.8161084">
        <ele>185.982</ele>
        <time>2021-04-01T08:03:06.670Z</time>
      </trkpt>
      <trkpt lat="43.1429721" lon="-2.8160658">
        <ele>187.672</ele>
        <time>2021-04-01T08:03:07.165Z</time>
      </trkpt>
      <trkpt lat="43.1429721" lon="-2.8160658">
        <ele>187.672</ele>
        <time>2021-04-01T08:03:07.660Z</time>
      </trkpt>
      <trkpt lat="43.1429721" lon="-2.8160658">
        <ele>187.672</ele>
        <time>2021-04-01T08:03:08.155Z</time>
      </trkpt>
      <trkpt lat="43.1429295" lon="-2.8159896">
        <ele>188.68</ele>
        <time>2021-04-01T08:03:09.750Z</time>
      </trkpt>
      <trkpt lat="43.1429068" lon="-2.8159479">
        <ele>189.144</ele>
        <time>2021-04-01T08:03:10.245Z</time>
      </trkpt>
      <trkpt lat="43.1429068" lon="-2.8159479">
        <ele>189.144</ele>
        <time>2021-04-01T08:03:10.740Z</time>
      </trkpt>
      <trkpt lat="43.1428753" lon="-2.8158902">
        <ele>190.185</ele>
        <time>2021-04-01T08:03:12.775Z</time>
      </trkpt>
      <trkpt lat="43.1428437" lon="-2.8158309">
        <ele>191.045</ele>
        <time>2021-04-01T08:03:12.964Z</time>
      </trkpt>
      <trkpt lat="43.1428425" lon="-2.8158286">
        <ele>191.086</ele>
        <time>2021-04-01T08:03:13.153Z</time>
      </trkpt>
      <trkpt lat="43.1428414" lon="-2.8158266">
        <ele>191.118</ele>
        <time>2021-04-01T08:03:13.343Z</time>
      </trkpt>
      <trkpt lat="43.1428403" lon="-2.8158249">
        <ele>191.108</ele>
        <time>2021-04-01T08:03:13.532Z</time>
      </trkpt>
      <trkpt lat="43.1428414" lon="-2.8158266">
        <ele>191.118</ele>
        <time>2021-04-01T08:03:13.722Z</time>
      </trkpt>
      <trkpt lat="43.1428403" lon="-2.8158249">
        <ele>191.108</ele>
        <time>2021-04-01T08:03:13.911Z</time>
      </trkpt>
      <trkpt lat="43.1428414" lon="-2.8158266">
        <ele>191.118</ele>
        <time>2021-04-01T08:03:14.101Z</time>
      </trkpt>
      <trkpt lat="43.1428403" lon="-2.8158249">
        <ele>191.108</ele>
        <time>2021-04-01T08:03:14.290Z</time>
      </trkpt>
      <trkpt lat="43.1428073" lon="-2.8157666">
        <ele>192.04</ele>
        <time>2021-04-01T08:03:15.635Z</time>
      </trkpt>
      <trkpt lat="43.142783" lon="-2.8157245">
        <ele>192.748</ele>
        <time>2021-04-01T08:03:16.276Z</time>
      </trkpt>
      <trkpt lat="43.1427732" lon="-2.815707">
        <ele>193.061</ele>
        <time>2021-04-01T08:03:16.918Z</time>
      </trkpt>
      <trkpt lat="43.1427393" lon="-2.8156559">
        <ele>194.108</ele>
        <time>2021-04-01T08:03:19.265Z</time>
      </trkpt>
      <trkpt lat="43.1427005" lon="-2.8156">
        <ele>194.982</ele>
        <time>2021-04-01T08:03:19.367Z</time>
      </trkpt>
      <trkpt lat="43.142688" lon="-2.8155826">
        <ele>195.55</ele>
        <time>2021-04-01T08:03:19.469Z</time>
      </trkpt>
      <trkpt lat="43.1426934" lon="-2.8155906">
        <ele>195.258</ele>
        <time>2021-04-01T08:03:19.571Z</time>
      </trkpt>
      <trkpt lat="43.142688" lon="-2.8155826">
        <ele>195.55</ele>
        <time>2021-04-01T08:03:19.673Z</time>
      </trkpt>
      <trkpt lat="43.1426934" lon="-2.8155906">
        <ele>195.258</ele>
        <time>2021-04-01T08:03:19.775Z</time>
      </trkpt>
      <trkpt lat="43.142688" lon="-2.8155826">
        <ele>195.55</ele>
        <time>2021-04-01T08:03:19.877Z</time>
      </trkpt>
      <trkpt lat="43.142682" lon="-2.8155757">
        <ele>195.635</ele>
        <time>2021-04-01T08:03:19.980Z</time>
      </trkpt>
      <trkpt lat="43.1426568" lon="-2.8155419">
        <ele>196.524</ele>
        <time>2021-04-01T08:03:20.388Z</time>
      </trkpt>
      <trkpt lat="43.1426555" lon="-2.8155402">
        <ele>196.56</ele>
        <time>2021-04-01T08:03:20.797Z</time>
      </trkpt>
      <trkpt lat="43.142665" lon="-2.8155522">
        <ele>196.332</ele>
        <time>2021-04-01T08:03:21.205Z</time>
      </trkpt>
      <trkpt lat="43.1426598" lon="-2.815545">
        <ele>196.515</ele>
        <time>2021-04-01T08:03:21.614Z</time>
      </trkpt>
      <trkpt lat="43.1426568" lon="-2.8155419">
        <ele>196.524</ele>
        <time>2021-04-01T08:03:22.022Z</time>
      </trkpt>
      <trkpt lat="43.1426555" lon="-2.8155402">
        <ele>196.56</ele>
        <time>2021-04-01T08:03:22.431Z</time>
      </trkpt>
      <trkpt lat="43.1426104" lon="-2.8154936">
        <ele>197.381</ele>
        <time>2021-04-01T08:03:23.830Z</time>
      </trkpt>
      <trkpt lat="43.1425836" lon="-2.8154702">
        <ele>198.255</ele>
        <time>2021-04-01T08:03:24.091Z</time>
      </trkpt>
      <trkpt lat="43.1425637" lon="-2.8154555">
        <ele>198.847</ele>
        <time>2021-04-01T08:03:24.352Z</time>
      </trkpt>
      <trkpt lat="43.142562" lon="-2.8154546">
        <ele>198.872</ele>
        <time>2021-04-01T08:03:24.613Z</time>
      </trkpt>
      <trkpt lat="43.1425637" lon="-2.8154555">
        <ele>198.847</ele>
        <time>2021-04-01T08:03:24.875Z</time>
      </trkpt>
      <trkpt lat="43.142562" lon="-2.8154546">
        <ele>198.872</ele>
        <time>2021-04-01T08:03:25.136Z</time>
      </trkpt>
      <trkpt lat="43.1425637" lon="-2.8154555">
        <ele>198.847</ele>
        <time>2021-04-01T08:03:25.397Z</time>
      </trkpt>
      <trkpt lat="43.142562" lon="-2.8154546">
        <ele>198.872</ele>
        <time>2021-04-01T08:03:25.658Z</time>
      </trkpt>
      <trkpt lat="43.1425183" lon="-2.8154335">
        <ele>199.349</ele>
        <time>2021-04-01T08:03:27.625Z</time>
      </trkpt>
      <trkpt lat="43.1424644" lon="-2.8154189">
        <ele>200.438</ele>
        <time>2021-04-01T08:03:27.927Z</time>
      </trkpt>
      <trkpt lat="43.1424644" lon="-2.8154189">
        <ele>200.438</ele>
        <time>2021-04-01T08:03:28.230Z</time>
      </trkpt>
      <trkpt lat="43.1424644" lon="-2.8154189">
        <ele>200.438</ele>
        <time>2021-04-01T08:03:28.532Z</time>
      </trkpt>
      <trkpt lat="43.1424243" lon="-2.815418">
        <ele>200.989</ele>
        <time>2021-04-01T08:03:30.650Z</time>
      </trkpt>
      <trkpt lat="43.1423637" lon="-2.8154326">
        <ele>200.844</ele>
        <time>2021-04-01T08:03:31.805Z</time>
      </trkpt>
      <trkpt lat="43.1423604" lon="-2.8154342">
        <ele>200.838</ele>
        <time>2021-04-01T08:03:31.942Z</time>
      </trkpt>
      <trkpt lat="43.1423572" lon="-2.8154347">
        <ele>200.888</ele>
        <time>2021-04-01T08:03:32.080Z</time>
      </trkpt>
      <trkpt lat="43.1423637" lon="-2.8154326">
        <ele>200.844</ele>
        <time>2021-04-01T08:03:32.217Z</time>
      </trkpt>
      <trkpt lat="43.1423604" lon="-2.8154342">
        <ele>200.838</ele>
        <time>2021-04-01T08:03:32.355Z</time>
      </trkpt>
      <trkpt lat="43.1423572" lon="-2.8154347">
        <ele>200.888</ele>
        <time>2021-04-01T08:03:32.492Z</time>
      </trkpt>
      <trkpt lat="43.1423637" lon="-2.8154326">
        <ele>200.844</ele>
        <time>2021-04-01T08:03:32.630Z</time>
      </trkpt>
      <trkpt lat="43.1423604" lon="-2.8154342">
        <ele>200.838</ele>
        <time>2021-04-01T08:03:32.767Z</time>
      </trkpt>
      <trkpt lat="43.1423572" lon="-2.8154347">
        <ele>200.888</ele>
        <time>2021-04-01T08:03:32.905Z</time>
      </trkpt>
      <trkpt lat="43.1423069" lon="-2.8154536">
        <ele>202.072</ele>
        <time>2021-04-01T08:03:33.358Z</time>
      </trkpt>
      <trkpt lat="43.1422992" lon="-2.8154608">
        <ele>202.078</ele>
        <time>2021-04-01T08:03:33.812Z</time>
      </trkpt>
      <trkpt lat="43.1422992" lon="-2.8154608">
        <ele>202.078</ele>
        <time>2021-04-01T08:03:34.266Z</time>
      </trkpt>
      <trkpt lat="43.1422632" lon="-2.8154981">
        <ele>202.19</ele>
        <time>2021-04-01T08:03:34.720Z</time>
      </trkpt>
      <trkpt lat="43.1422511" lon="-2.8155134">
        <ele>202.17</ele>
        <time>2021-04-01T08:03:34.892Z</time>
      </trkpt>
      <trkpt lat="43.1422575" lon="-2.8155061">
        <ele>202.138</ele>
        <time>2021-04-01T08:03:35.065Z</time>
      </trkpt>
      <trkpt lat="43.1422511" lon="-2.8155134">
        <ele>202.17</ele>
        <time>2021-04-01T08:03:35.238Z</time>
      </trkpt>
      <trkpt lat="43.1422441" lon="-2.8155199">
        <ele>202.201</ele>
        <time>2021-04-01T08:03:35.411Z</time>
      </trkpt>
      <trkpt lat="43.1422511" lon="-2.8155134">
        <ele>202.17</ele>
        <time>2021-04-01T08:03:35.584Z</time>
      </trkpt>
      <trkpt lat="43.1422441" lon="-2.8155199">
        <ele>202.201</ele>
        <time>2021-04-01T08:03:35.757Z</time>
      </trkpt>
      <trkpt lat="43.1422339" lon="-2.8155295">
        <ele>202.3</ele>
        <time>2021-04-01T08:03:38.240Z</time>
      </trkpt>
      <trkpt lat="43.1421828" lon="-2.8156052">
        <ele>202.674</ele>
        <time>2021-04-01T08:03:38.583Z</time>
      </trkpt>
      <trkpt lat="43.14217" lon="-2.815624">
        <ele>202.948</ele>
        <time>2021-04-01T08:03:38.927Z</time>
      </trkpt>
      <trkpt lat="43.14217" lon="-2.815624">
        <ele>202.948</ele>
        <time>2021-04-01T08:03:39.271Z</time>
      </trkpt>
      <trkpt lat="43.1421514" lon="-2.8156522">
        <ele>203.139</ele>
        <time>2021-04-01T08:03:39.615Z</time>
      </trkpt>
      <trkpt lat="43.1421426" lon="-2.8156647">
        <ele>203.168</ele>
        <time>2021-04-01T08:03:40.031Z</time>
      </trkpt>
      <trkpt lat="43.1421467" lon="-2.8156591">
        <ele>203.212</ele>
        <time>2021-04-01T08:03:40.447Z</time>
      </trkpt>
      <trkpt lat="43.1421439" lon="-2.8156628">
        <ele>203.152</ele>
        <time>2021-04-01T08:03:40.864Z</time>
      </trkpt>
      <trkpt lat="43.1421426" lon="-2.8156647">
        <ele>203.168</ele>
        <time>2021-04-01T08:03:41.280Z</time>
      </trkpt>
      <trkpt lat="43.1421439" lon="-2.8156628">
        <ele>203.152</ele>
        <time>2021-04-01T08:03:41.697Z</time>
      </trkpt>
      <trkpt lat="43.1421426" lon="-2.8156647">
        <ele>203.168</ele>
        <time>2021-04-01T08:03:42.113Z</time>
      </trkpt>
      <trkpt lat="43.14208" lon="-2.8157427">
        <ele>203.613</ele>
        <time>2021-04-01T08:03:43.025Z</time>
      </trkpt>
      <trkpt lat="43.1420675" lon="-2.815756">
        <ele>203.637</ele>
        <time>2021-04-01T08:03:43.402Z</time>
      </trkpt>
      <trkpt lat="43.1420661" lon="-2.8157576">
        <ele>203.618</ele>
        <time>2021-04-01T08:03:43.779Z</time>
      </trkpt>
      <trkpt lat="43.1420675" lon="-2.815756">
        <ele>203.637</ele>
        <time>2021-04-01T08:03:44.156Z</time>
      </trkpt>
      <trkpt lat="43.1420661" lon="-2.8157576">
        <ele>203.618</ele>
        <time>2021-04-01T08:03:44.533Z</time>
      </trkpt>
      <trkpt lat="43.1420675" lon="-2.815756">
        <ele>203.637</ele>
        <time>2021-04-01T08:03:44.910Z</time>
      </trkpt>
      <trkpt lat="43.1420661" lon="-2.8157576">
        <ele>203.618</ele>
        <time>2021-04-01T08:03:45.287Z</time>
      </trkpt>
      <trkpt lat="43.1419982" lon="-2.8158236">
        <ele>204.109</ele>
        <time>2021-04-01T08:03:45.390Z</time>
      </trkpt>
      <trkpt lat="43.1420061" lon="-2.8158178">
        <ele>204.027</ele>
        <time>2021-04-01T08:03:45.743Z</time>
      </trkpt>
      <trkpt lat="43.1419864" lon="-2.8158338">
        <ele>204.079</ele>
        <time>2021-04-01T08:03:46.097Z</time>
      </trkpt>
      <trkpt lat="43.1419772" lon="-2.8158433">
        <ele>204.218</ele>
        <time>2021-04-01T08:03:46.450Z</time>
      </trkpt>
      <trkpt lat="43.1419878" lon="-2.8158325">
        <ele>204.067</ele>
        <time>2021-04-01T08:03:46.804Z</time>
      </trkpt>
      <trkpt lat="43.1419772" lon="-2.8158433">
        <ele>204.218</ele>
        <time>2021-04-01T08:03:47.157Z</time>
      </trkpt>
      <trkpt lat="43.1419772" lon="-2.8158433">
        <ele>204.218</ele>
        <time>2021-04-01T08:03:47.511Z</time>
      </trkpt>
      <trkpt lat="43.1419409" lon="-2.8158739">
        <ele>204.282</ele>
        <time>2021-04-01T08:03:49.790Z</time>
      </trkpt>
      <trkpt lat="43.1418279" lon="-2.8159361">
        <ele>204.805</ele>
        <time>2021-04-01T08:03:51.605Z</time>
      </trkpt>
      <trkpt lat="43.1417867" lon="-2.8159537">
        <ele>205.124</ele>
        <time>2021-04-01T08:03:51.913Z</time>
      </trkpt>
      <trkpt lat="43.1417831" lon="-2.8159551">
        <ele>205.185</ele>
        <time>2021-04-01T08:03:52.221Z</time>
      </trkpt>
      <trkpt lat="43.1417867" lon="-2.8159537">
        <ele>205.124</ele>
        <time>2021-04-01T08:03:52.529Z</time>
      </trkpt>
      <trkpt lat="43.1417831" lon="-2.8159551">
        <ele>205.185</ele>
        <time>2021-04-01T08:03:52.837Z</time>
      </trkpt>
      <trkpt lat="43.1417777" lon="-2.8159576">
        <ele>205.248</ele>
        <time>2021-04-01T08:03:55.180Z</time>
      </trkpt>
      <trkpt lat="43.141708" lon="-2.8159727">
        <ele>205.192</ele>
        <time>2021-04-01T08:03:55.786Z</time>
      </trkpt>
      <trkpt lat="43.1416793" lon="-2.8159783">
        <ele>205.169</ele>
        <time>2021-04-01T08:03:56.393Z</time>
      </trkpt>
      <trkpt lat="43.1416455" lon="-2.8159843">
        <ele>204.822</ele>
        <time>2021-04-01T08:03:57.000Z</time>
      </trkpt>
      <trkpt lat="43.1416439" lon="-2.8159844">
        <ele>204.841</ele>
        <time>2021-04-01T08:03:57.283Z</time>
      </trkpt>
      <trkpt lat="43.1416365" lon="-2.8159861">
        <ele>204.85</ele>
        <time>2021-04-01T08:03:57.566Z</time>
      </trkpt>
      <trkpt lat="43.1416455" lon="-2.8159843">
        <ele>204.822</ele>
        <time>2021-04-01T08:03:57.849Z</time>
      </trkpt>
      <trkpt lat="43.1416439" lon="-2.8159844">
        <ele>204.841</ele>
        <time>2021-04-01T08:03:58.133Z</time>
      </trkpt>
      <trkpt lat="43.1416365" lon="-2.8159861">
        <ele>204.85</ele>
        <time>2021-04-01T08:03:58.416Z</time>
      </trkpt>
      <trkpt lat="43.1415899" lon="-2.8159968">
        <ele>204.878</ele>
        <time>2021-04-01T08:04:00.020Z</time>
      </trkpt>
      <trkpt lat="43.1415486" lon="-2.8160128">
        <ele>205.162</ele>
        <time>2021-04-01T08:04:00.528Z</time>
      </trkpt>
      <trkpt lat="43.141531" lon="-2.8160223">
        <ele>205.229</ele>
        <time>2021-04-01T08:04:01.037Z</time>
      </trkpt>
      <trkpt lat="43.141531" lon="-2.8160223">
        <ele>205.229</ele>
        <time>2021-04-01T08:04:01.546Z</time>
      </trkpt>
      <trkpt lat="43.1414868" lon="-2.8160505">
        <ele>205.43</ele>
        <time>2021-04-01T08:04:03.100Z</time>
      </trkpt>
      <trkpt lat="43.1414568" lon="-2.8160719">
        <ele>205.532</ele>
        <time>2021-04-01T08:04:04.200Z</time>
      </trkpt>
      <trkpt lat="43.1414254" lon="-2.8160947">
        <ele>205.88</ele>
        <time>2021-04-01T08:04:04.667Z</time>
      </trkpt>
      <trkpt lat="43.1414194" lon="-2.8160999">
        <ele>205.939</ele>
        <time>2021-04-01T08:04:05.135Z</time>
      </trkpt>
      <trkpt lat="43.1413906" lon="-2.8161251">
        <ele>206.106</ele>
        <time>2021-04-01T08:04:05.602Z</time>
      </trkpt>
      <trkpt lat="43.141373" lon="-2.816139">
        <ele>206.223</ele>
        <time>2021-04-01T08:04:08.050Z</time>
      </trkpt>
      <trkpt lat="43.1413195" lon="-2.8161901">
        <ele>206.257</ele>
        <time>2021-04-01T08:04:08.281Z</time>
      </trkpt>
      <trkpt lat="43.1413165" lon="-2.8161931">
        <ele>206.272</ele>
        <time>2021-04-01T08:04:08.512Z</time>
      </trkpt>
      <trkpt lat="43.1413195" lon="-2.8161901">
        <ele>206.257</ele>
        <time>2021-04-01T08:04:08.743Z</time>
      </trkpt>
      <trkpt lat="43.1413165" lon="-2.8161931">
        <ele>206.272</ele>
        <time>2021-04-01T08:04:08.974Z</time>
      </trkpt>
      <trkpt lat="43.1412876" lon="-2.8162209">
        <ele>206.461</ele>
        <time>2021-04-01T08:04:10.910Z</time>
      </trkpt>
      <trkpt lat="43.1412406" lon="-2.8162698">
        <ele>206.785</ele>
        <time>2021-04-01T08:04:11.446Z</time>
      </trkpt>
      <trkpt lat="43.1412188" lon="-2.8162928">
        <ele>206.828</ele>
        <time>2021-04-01T08:04:11.982Z</time>
      </trkpt>
      <trkpt lat="43.1412188" lon="-2.8162928">
        <ele>206.828</ele>
        <time>2021-04-01T08:04:12.518Z</time>
      </trkpt>
      <trkpt lat="43.1411849" lon="-2.8163318">
        <ele>206.694</ele>
        <time>2021-04-01T08:04:14.210Z</time>
      </trkpt>
      <trkpt lat="43.1411544" lon="-2.8163636">
        <ele>206.773</ele>
        <time>2021-04-01T08:04:14.595Z</time>
      </trkpt>
      <trkpt lat="43.1411484" lon="-2.8163696">
        <ele>206.802</ele>
        <time>2021-04-01T08:04:14.980Z</time>
      </trkpt>
      <trkpt lat="43.1411544" lon="-2.8163636">
        <ele>206.773</ele>
        <time>2021-04-01T08:04:15.365Z</time>
      </trkpt>
      <trkpt lat="43.1411484" lon="-2.8163696">
        <ele>206.802</ele>
        <time>2021-04-01T08:04:15.750Z</time>
      </trkpt>
      <trkpt lat="43.1410985" lon="-2.8164106">
        <ele>206.964</ele>
        <time>2021-04-01T08:04:16.135Z</time>
      </trkpt>
      <trkpt lat="43.1410923" lon="-2.8164171">
        <ele>206.784</ele>
        <time>2021-04-01T08:04:16.355Z</time>
      </trkpt>
      <trkpt lat="43.1410835" lon="-2.8164219">
        <ele>206.691</ele>
        <time>2021-04-01T08:04:16.575Z</time>
      </trkpt>
      <trkpt lat="43.1410923" lon="-2.8164171">
        <ele>206.784</ele>
        <time>2021-04-01T08:04:16.795Z</time>
      </trkpt>
      <trkpt lat="43.1410835" lon="-2.8164219">
        <ele>206.691</ele>
        <time>2021-04-01T08:04:17.015Z</time>
      </trkpt>
      <trkpt lat="43.1410641" lon="-2.8164322">
        <ele>206.826</ele>
        <time>2021-04-01T08:04:18.885Z</time>
      </trkpt>
      <trkpt lat="43.1410051" lon="-2.8164431">
        <ele>207.086</ele>
        <time>2021-04-01T08:04:20.315Z</time>
      </trkpt>
      <trkpt lat="43.1409558" lon="-2.8164287">
        <ele>207.746</ele>
        <time>2021-04-01T08:04:22.790Z</time>
      </trkpt>
      <trkpt lat="43.1408846" lon="-2.816339">
        <ele>208.344</ele>
        <time>2021-04-01T08:04:24.000Z</time>
      </trkpt>
      <trkpt lat="43.140866" lon="-2.8162806">
        <ele>208.308</ele>
        <time>2021-04-01T08:04:25.100Z</time>
      </trkpt>
      <trkpt lat="43.140864" lon="-2.8162688">
        <ele>208.364</ele>
        <time>2021-04-01T08:04:25.298Z</time>
      </trkpt>
      <trkpt lat="43.1408638" lon="-2.8162656">
        <ele>208.42</ele>
        <time>2021-04-01T08:04:25.496Z</time>
      </trkpt>
      <trkpt lat="43.1408635" lon="-2.8162536">
        <ele>208.521</ele>
        <time>2021-04-01T08:04:25.694Z</time>
      </trkpt>
      <trkpt lat="43.140864" lon="-2.8162688">
        <ele>208.364</ele>
        <time>2021-04-01T08:04:25.892Z</time>
      </trkpt>
      <trkpt lat="43.1408638" lon="-2.8162656">
        <ele>208.42</ele>
        <time>2021-04-01T08:04:26.090Z</time>
      </trkpt>
      <trkpt lat="43.1408635" lon="-2.8162536">
        <ele>208.521</ele>
        <time>2021-04-01T08:04:26.288Z</time>
      </trkpt>
      <trkpt lat="43.1408643" lon="-2.8162213">
        <ele>208.729</ele>
        <time>2021-04-01T08:04:26.486Z</time>
      </trkpt>
      <trkpt lat="43.1408752" lon="-2.8161687">
        <ele>209.002</ele>
        <time>2021-04-01T08:04:26.684Z</time>
      </trkpt>
      <trkpt lat="43.1408752" lon="-2.8161687">
        <ele>209.002</ele>
        <time>2021-04-01T08:04:26.882Z</time>
      </trkpt>
      <trkpt lat="43.1408898" lon="-2.8161249">
        <ele>209.319</ele>
        <time>2021-04-01T08:04:27.080Z</time>
      </trkpt>
      <trkpt lat="43.1409023" lon="-2.816096">
        <ele>209.303</ele>
        <time>2021-04-01T08:04:27.318Z</time>
      </trkpt>
      <trkpt lat="43.1408925" lon="-2.8161176">
        <ele>209.31</ele>
        <time>2021-04-01T08:04:27.556Z</time>
      </trkpt>
      <trkpt lat="43.1409023" lon="-2.816096">
        <ele>209.303</ele>
        <time>2021-04-01T08:04:27.794Z</time>
      </trkpt>
      <trkpt lat="43.1409035" lon="-2.8160936">
        <ele>209.341</ele>
        <time>2021-04-01T08:04:28.033Z</time>
      </trkpt>
      <trkpt lat="43.1409023" lon="-2.816096">
        <ele>209.303</ele>
        <time>2021-04-01T08:04:28.271Z</time>
      </trkpt>
      <trkpt lat="43.1409035" lon="-2.8160936">
        <ele>209.341</ele>
        <time>2021-04-01T08:04:28.510Z</time>
      </trkpt>
      <trkpt lat="43.1409159" lon="-2.8160627">
        <ele>209.521</ele>
        <time>2021-04-01T08:04:28.963Z</time>
      </trkpt>
      <trkpt lat="43.1409325" lon="-2.8160313">
        <ele>210.013</ele>
        <time>2021-04-01T08:04:29.417Z</time>
      </trkpt>
      <trkpt lat="43.1409325" lon="-2.8160313">
        <ele>210.013</ele>
        <time>2021-04-01T08:04:29.871Z</time>
      </trkpt>
      <trkpt lat="43.1409514" lon="-2.8159899">
        <ele>210.371</ele>
        <time>2021-04-01T08:04:30.325Z</time>
      </trkpt>
      <trkpt lat="43.1409818" lon="-2.815937">
        <ele>210.65</ele>
        <time>2021-04-01T08:04:33.295Z</time>
      </trkpt>
      <trkpt lat="43.1409926" lon="-2.8159153">
        <ele>210.844</ele>
        <time>2021-04-01T08:04:33.385Z</time>
      </trkpt>
      <trkpt lat="43.1409963" lon="-2.8159068">
        <ele>210.856</ele>
        <time>2021-04-01T08:04:33.475Z</time>
      </trkpt>
      <trkpt lat="43.1409907" lon="-2.8159203">
        <ele>210.772</ele>
        <time>2021-04-01T08:04:33.566Z</time>
      </trkpt>
      <trkpt lat="43.1409926" lon="-2.8159153">
        <ele>210.844</ele>
        <time>2021-04-01T08:04:33.656Z</time>
      </trkpt>
      <trkpt lat="43.1409963" lon="-2.8159068">
        <ele>210.856</ele>
        <time>2021-04-01T08:04:33.746Z</time>
      </trkpt>
      <trkpt lat="43.1409907" lon="-2.8159203">
        <ele>210.772</ele>
        <time>2021-04-01T08:04:33.837Z</time>
      </trkpt>
      <trkpt lat="43.1409926" lon="-2.8159153">
        <ele>210.844</ele>
        <time>2021-04-01T08:04:33.927Z</time>
      </trkpt>
      <trkpt lat="43.1409963" lon="-2.8159068">
        <ele>210.856</ele>
        <time>2021-04-01T08:04:34.017Z</time>
      </trkpt>
      <trkpt lat="43.1410113" lon="-2.8158805">
        <ele>210.928</ele>
        <time>2021-04-01T08:04:34.108Z</time>
      </trkpt>
      <trkpt lat="43.1410234" lon="-2.8158571">
        <ele>210.982</ele>
        <time>2021-04-01T08:04:34.198Z</time>
      </trkpt>
      <trkpt lat="43.141014" lon="-2.8158764">
        <ele>210.937</ele>
        <time>2021-04-01T08:04:34.288Z</time>
      </trkpt>
      <trkpt lat="43.1410234" lon="-2.8158571">
        <ele>210.982</ele>
        <time>2021-04-01T08:04:34.379Z</time>
      </trkpt>
      <trkpt lat="43.1410234" lon="-2.8158571">
        <ele>210.982</ele>
        <time>2021-04-01T08:04:34.469Z</time>
      </trkpt>
      <trkpt lat="43.1410349" lon="-2.8158298">
        <ele>211.091</ele>
        <time>2021-04-01T08:04:34.560Z</time>
      </trkpt>
      <trkpt lat="43.1410572" lon="-2.8156628">
        <ele>211.784</ele>
        <time>2021-04-01T08:04:38.135Z</time>
      </trkpt>
      <trkpt lat="43.1410596" lon="-2.8157071">
        <ele>211.382</ele>
        <time>2021-04-01T08:04:38.795Z</time>
      </trkpt>
      <trkpt lat="43.1410596" lon="-2.8157071">
        <ele>211.382</ele>
        <time>2021-04-01T08:04:39.455Z</time>
      </trkpt>
      <trkpt lat="43.1410446" lon="-2.8156052">
        <ele>212.933</ele>
        <time>2021-04-01T08:04:39.682Z</time>
      </trkpt>
      <trkpt lat="43.1410276" lon="-2.8155755">
        <ele>213.356</ele>
        <time>2021-04-01T08:04:39.910Z</time>
      </trkpt>
      <trkpt lat="43.1410324" lon="-2.8155829">
        <ele>213.272</ele>
        <time>2021-04-01T08:04:40.138Z</time>
      </trkpt>
      <trkpt lat="43.1410276" lon="-2.8155755">
        <ele>213.356</ele>
        <time>2021-04-01T08:04:40.366Z</time>
      </trkpt>
      <trkpt lat="43.1410324" lon="-2.8155829">
        <ele>213.272</ele>
        <time>2021-04-01T08:04:40.594Z</time>
      </trkpt>
      <trkpt lat="43.1410276" lon="-2.8155755">
        <ele>213.356</ele>
        <time>2021-04-01T08:04:40.822Z</time>
      </trkpt>
      <trkpt lat="43.141011" lon="-2.8155552">
        <ele>213.551</ele>
        <time>2021-04-01T08:04:42.480Z</time>
      </trkpt>
      <trkpt lat="43.1409725" lon="-2.8155266">
        <ele>213.603</ele>
        <time>2021-04-01T08:04:42.705Z</time>
      </trkpt>
      <trkpt lat="43.1409515" lon="-2.8155096">
        <ele>213.776</ele>
        <time>2021-04-01T08:04:42.930Z</time>
      </trkpt>
      <trkpt lat="43.1409553" lon="-2.8155118">
        <ele>213.793</ele>
        <time>2021-04-01T08:04:43.155Z</time>
      </trkpt>
      <trkpt lat="43.1409453" lon="-2.8155053">
        <ele>213.743</ele>
        <time>2021-04-01T08:04:43.380Z</time>
      </trkpt>
      <trkpt lat="43.1409515" lon="-2.8155096">
        <ele>213.776</ele>
        <time>2021-04-01T08:04:43.605Z</time>
      </trkpt>
      <trkpt lat="43.1409501" lon="-2.8155086">
        <ele>213.768</ele>
        <time>2021-04-01T08:04:43.830Z</time>
      </trkpt>
      <trkpt lat="43.1409453" lon="-2.8155053">
        <ele>213.743</ele>
        <time>2021-04-01T08:04:44.055Z</time>
      </trkpt>
      <trkpt lat="43.1409515" lon="-2.8155096">
        <ele>213.776</ele>
        <time>2021-04-01T08:04:44.280Z</time>
      </trkpt>
      <trkpt lat="43.1409501" lon="-2.8155086">
        <ele>213.768</ele>
        <time>2021-04-01T08:04:44.505Z</time>
      </trkpt>
      <trkpt lat="43.1409453" lon="-2.8155053">
        <ele>213.743</ele>
        <time>2021-04-01T08:04:44.730Z</time>
      </trkpt>
      <trkpt lat="43.1408996" lon="-2.8154769">
        <ele>214.166</ele>
        <time>2021-04-01T08:04:46.110Z</time>
      </trkpt>
      <trkpt lat="43.1408621" lon="-2.8154487">
        <ele>214.164</ele>
        <time>2021-04-01T08:04:47.595Z</time>
      </trkpt>
      <trkpt lat="43.1408605" lon="-2.8154474">
        <ele>214.163</ele>
        <time>2021-04-01T08:04:47.719Z</time>
      </trkpt>
      <trkpt lat="43.1408551" lon="-2.8154438">
        <ele>214.148</ele>
        <time>2021-04-01T08:04:47.844Z</time>
      </trkpt>
      <trkpt lat="43.1408513" lon="-2.8154411">
        <ele>214.151</ele>
        <time>2021-04-01T08:04:47.969Z</time>
      </trkpt>
      <trkpt lat="43.140844" lon="-2.8154358">
        <ele>214.123</ele>
        <time>2021-04-01T08:04:48.093Z</time>
      </trkpt>
      <trkpt lat="43.1408551" lon="-2.8154438">
        <ele>214.148</ele>
        <time>2021-04-01T08:04:48.218Z</time>
      </trkpt>
      <trkpt lat="43.1408513" lon="-2.8154411">
        <ele>214.151</ele>
        <time>2021-04-01T08:04:48.343Z</time>
      </trkpt>
      <trkpt lat="43.140844" lon="-2.8154358">
        <ele>214.123</ele>
        <time>2021-04-01T08:04:48.467Z</time>
      </trkpt>
      <trkpt lat="43.1408551" lon="-2.8154438">
        <ele>214.148</ele>
        <time>2021-04-01T08:04:48.592Z</time>
      </trkpt>
      <trkpt lat="43.1408513" lon="-2.8154411">
        <ele>214.151</ele>
        <time>2021-04-01T08:04:48.717Z</time>
      </trkpt>
      <trkpt lat="43.140844" lon="-2.8154358">
        <ele>214.123</ele>
        <time>2021-04-01T08:04:48.841Z</time>
      </trkpt>
      <trkpt lat="43.1408145" lon="-2.8154121">
        <ele>213.942</ele>
        <time>2021-04-01T08:04:48.966Z</time>
      </trkpt>
      <trkpt lat="43.140798" lon="-2.8153939">
        <ele>213.928</ele>
        <time>2021-04-01T08:04:49.091Z</time>
      </trkpt>
      <trkpt lat="43.140798" lon="-2.8153939">
        <ele>213.928</ele>
        <time>2021-04-01T08:04:49.215Z</time>
      </trkpt>
      <trkpt lat="43.140798" lon="-2.8153939">
        <ele>213.928</ele>
        <time>2021-04-01T08:04:49.340Z</time>
      </trkpt>
      <trkpt lat="43.1407603" lon="-2.815351">
        <ele>214.078</ele>
        <time>2021-04-01T08:04:49.465Z</time>
      </trkpt>
      <trkpt lat="43.1407603" lon="-2.815351">
        <ele>214.078</ele>
        <time>2021-04-01T08:04:50.400Z</time>
      </trkpt>
      <trkpt lat="43.1407117" lon="-2.8152827">
        <ele>213.543</ele>
        <time>2021-04-01T08:04:52.325Z</time>
      </trkpt>
      <trkpt lat="43.1406891" lon="-2.8152406">
        <ele>213.92</ele>
        <time>2021-04-01T08:04:53.021Z</time>
      </trkpt>
      <trkpt lat="43.1406867" lon="-2.8152366">
        <ele>213.849</ele>
        <time>2021-04-01T08:04:53.718Z</time>
      </trkpt>
      <trkpt lat="43.1406534" lon="-2.8151431">
        <ele>213.988</ele>
        <time>2021-04-01T08:04:54.415Z</time>
      </trkpt>
      <trkpt lat="43.1406531" lon="-2.8151402">
        <ele>213.968</ele>
        <time>2021-04-01T08:04:54.598Z</time>
      </trkpt>
      <trkpt lat="43.1406611" lon="-2.815171">
        <ele>213.928</ele>
        <time>2021-04-01T08:04:54.781Z</time>
      </trkpt>
      <trkpt lat="43.140655" lon="-2.815149">
        <ele>214.025</ele>
        <time>2021-04-01T08:04:54.964Z</time>
      </trkpt>
      <trkpt lat="43.1406534" lon="-2.8151431">
        <ele>213.988</ele>
        <time>2021-04-01T08:04:55.148Z</time>
      </trkpt>
      <trkpt lat="43.1406531" lon="-2.8151402">
        <ele>213.968</ele>
        <time>2021-04-01T08:04:55.331Z</time>
      </trkpt>
      <trkpt lat="43.1406443" lon="-2.8150858">
        <ele>214.029</ele>
        <time>2021-04-01T08:04:56.505Z</time>
      </trkpt>
      <trkpt lat="43.1406423" lon="-2.815033">
        <ele>214.338</ele>
        <time>2021-04-01T08:04:56.650Z</time>
      </trkpt>
      <trkpt lat="43.1406434" lon="-2.8149831">
        <ele>214.643</ele>
        <time>2021-04-01T08:04:56.795Z</time>
      </trkpt>
      <trkpt lat="43.1406436" lon="-2.8149805">
        <ele>214.637</ele>
        <time>2021-04-01T08:04:56.940Z</time>
      </trkpt>
      <trkpt lat="43.1406437" lon="-2.8149778">
        <ele>214.586</ele>
        <time>2021-04-01T08:04:57.085Z</time>
      </trkpt>
      <trkpt lat="43.1406434" lon="-2.8149831">
        <ele>214.643</ele>
        <time>2021-04-01T08:04:57.230Z</time>
      </trkpt>
      <trkpt lat="43.1406436" lon="-2.8149805">
        <ele>214.637</ele>
        <time>2021-04-01T08:04:57.375Z</time>
      </trkpt>
      <trkpt lat="43.1406437" lon="-2.8149778">
        <ele>214.586</ele>
        <time>2021-04-01T08:04:57.520Z</time>
      </trkpt>
      <trkpt lat="43.1406434" lon="-2.8149831">
        <ele>214.643</ele>
        <time>2021-04-01T08:04:57.665Z</time>
      </trkpt>
      <trkpt lat="43.1406436" lon="-2.8149805">
        <ele>214.637</ele>
        <time>2021-04-01T08:04:57.810Z</time>
      </trkpt>
      <trkpt lat="43.1406437" lon="-2.8149778">
        <ele>214.586</ele>
        <time>2021-04-01T08:04:57.955Z</time>
      </trkpt>
      <trkpt lat="43.1406451" lon="-2.8149497">
        <ele>214.712</ele>
        <time>2021-04-01T08:05:01.235Z</time>
      </trkpt>
      <trkpt lat="43.1406738" lon="-2.8148421">
        <ele>215.034</ele>
        <time>2021-04-01T08:05:01.574Z</time>
      </trkpt>
      <trkpt lat="43.1406787" lon="-2.8148293">
        <ele>215.028</ele>
        <time>2021-04-01T08:05:01.913Z</time>
      </trkpt>
      <trkpt lat="43.1406709" lon="-2.8148495">
        <ele>214.974</ele>
        <time>2021-04-01T08:05:02.252Z</time>
      </trkpt>
      <trkpt lat="43.1406738" lon="-2.8148421">
        <ele>215.034</ele>
        <time>2021-04-01T08:05:02.591Z</time>
      </trkpt>
      <trkpt lat="43.1406787" lon="-2.8148293">
        <ele>215.028</ele>
        <time>2021-04-01T08:05:02.930Z</time>
      </trkpt>
      <trkpt lat="43.1407325" lon="-2.8147131">
        <ele>215.249</ele>
        <time>2021-04-01T08:05:03.270Z</time>
      </trkpt>
      <trkpt lat="43.140706" lon="-2.8147687">
        <ele>215.117</ele>
        <time>2021-04-01T08:05:04.425Z</time>
      </trkpt>
      <trkpt lat="43.140706" lon="-2.8147687">
        <ele>215.117</ele>
        <time>2021-04-01T08:05:05.580Z</time>
      </trkpt>
      <trkpt lat="43.1407811" lon="-2.8146108">
        <ele>215.54</ele>
        <time>2021-04-01T08:05:05.800Z</time>
      </trkpt>
      <trkpt lat="43.1407771" lon="-2.8146211">
        <ele>215.585</ele>
        <time>2021-04-01T08:05:06.020Z</time>
      </trkpt>
      <trkpt lat="43.1407811" lon="-2.8146108">
        <ele>215.54</ele>
        <time>2021-04-01T08:05:06.240Z</time>
      </trkpt>
      <trkpt lat="43.1407771" lon="-2.8146211">
        <ele>215.585</ele>
        <time>2021-04-01T08:05:06.460Z</time>
      </trkpt>
      <trkpt lat="43.1407811" lon="-2.8146108">
        <ele>215.54</ele>
        <time>2021-04-01T08:05:06.680Z</time>
      </trkpt>
      <trkpt lat="43.1408007" lon="-2.8145495">
        <ele>215.7</ele>
        <time>2021-04-01T08:05:06.900Z</time>
      </trkpt>
      <trkpt lat="43.140802" lon="-2.8145439">
        <ele>215.749</ele>
        <time>2021-04-01T08:05:07.175Z</time>
      </trkpt>
      <trkpt lat="43.1408007" lon="-2.8145495">
        <ele>215.7</ele>
        <time>2021-04-01T08:05:07.450Z</time>
      </trkpt>
      <trkpt lat="43.140802" lon="-2.8145439">
        <ele>215.749</ele>
        <time>2021-04-01T08:05:07.725Z</time>
      </trkpt>
      <trkpt lat="43.1408007" lon="-2.8145495">
        <ele>215.7</ele>
        <time>2021-04-01T08:05:08.000Z</time>
      </trkpt>
      <trkpt lat="43.140802" lon="-2.8145439">
        <ele>215.749</ele>
        <time>2021-04-01T08:05:08.275Z</time>
      </trkpt>
      <trkpt lat="43.1408095" lon="-2.8144654">
        <ele>216.009</ele>
        <time>2021-04-01T08:05:09.595Z</time>
      </trkpt>
      <trkpt lat="43.1407823" lon="-2.814344">
        <ele>216.571</ele>
        <time>2021-04-01T08:05:13.390Z</time>
      </trkpt>
      <trkpt lat="43.1407243" lon="-2.8142677">
        <ele>216.736</ele>
        <time>2021-04-01T08:05:13.632Z</time>
      </trkpt>
      <trkpt lat="43.140723" lon="-2.8142661">
        <ele>216.753</ele>
        <time>2021-04-01T08:05:13.874Z</time>
      </trkpt>
      <trkpt lat="43.1407243" lon="-2.8142677">
        <ele>216.736</ele>
        <time>2021-04-01T08:05:14.116Z</time>
      </trkpt>
      <trkpt lat="43.140723" lon="-2.8142661">
        <ele>216.753</ele>
        <time>2021-04-01T08:05:14.358Z</time>
      </trkpt>
      <trkpt lat="43.1406897" lon="-2.8142364">
        <ele>217.789</ele>
        <time>2021-04-01T08:05:15.535Z</time>
      </trkpt>
      <trkpt lat="43.1406602" lon="-2.8142205">
        <ele>218.047</ele>
        <time>2021-04-01T08:05:15.762Z</time>
      </trkpt>
      <trkpt lat="43.1406277" lon="-2.8142095">
        <ele>218.504</ele>
        <time>2021-04-01T08:05:15.990Z</time>
      </trkpt>
      <trkpt lat="43.1406277" lon="-2.8142095">
        <ele>218.504</ele>
        <time>2021-04-01T08:05:16.218Z</time>
      </trkpt>
      <trkpt lat="43.1406256" lon="-2.814209">
        <ele>218.495</ele>
        <time>2021-04-01T08:05:16.446Z</time>
      </trkpt>
      <trkpt lat="43.1406277" lon="-2.8142095">
        <ele>218.504</ele>
        <time>2021-04-01T08:05:16.674Z</time>
      </trkpt>
      <trkpt lat="43.1406256" lon="-2.814209">
        <ele>218.495</ele>
        <time>2021-04-01T08:05:16.902Z</time>
      </trkpt>
      <trkpt lat="43.1406032" lon="-2.8142068">
        <ele>218.5</ele>
        <time>2021-04-01T08:05:17.130Z</time>
      </trkpt>
      <trkpt lat="43.1405903" lon="-2.8142085">
        <ele>218.553</ele>
        <time>2021-04-01T08:05:17.533Z</time>
      </trkpt>
      <trkpt lat="43.140586" lon="-2.8142088">
        <ele>218.531</ele>
        <time>2021-04-01T08:05:17.936Z</time>
      </trkpt>
      <trkpt lat="43.1405591" lon="-2.8142101">
        <ele>218.739</ele>
        <time>2021-04-01T08:05:18.339Z</time>
      </trkpt>
      <trkpt lat="43.1405591" lon="-2.8142101">
        <ele>218.739</ele>
        <time>2021-04-01T08:05:18.743Z</time>
      </trkpt>
      <trkpt lat="43.1405591" lon="-2.8142101">
        <ele>218.739</ele>
        <time>2021-04-01T08:05:19.146Z</time>
      </trkpt>
      <trkpt lat="43.1405102" lon="-2.8142092">
        <ele>219.167</ele>
        <time>2021-04-01T08:05:20.705Z</time>
      </trkpt>
      <trkpt lat="43.1404639" lon="-2.8142046">
        <ele>219.286</ele>
        <time>2021-04-01T08:05:21.346Z</time>
      </trkpt>
      <trkpt lat="43.1404639" lon="-2.8142046">
        <ele>219.286</ele>
        <time>2021-04-01T08:05:21.988Z</time>
      </trkpt>
      <trkpt lat="43.140388" lon="-2.8141978">
        <ele>220.213</ele>
        <time>2021-04-01T08:05:23.675Z</time>
      </trkpt>
      <trkpt lat="43.1404079" lon="-2.8141998">
        <ele>219.903</ele>
        <time>2021-04-01T08:05:23.858Z</time>
      </trkpt>
      <trkpt lat="43.1403989" lon="-2.8141988">
        <ele>220.149</ele>
        <time>2021-04-01T08:05:24.041Z</time>
      </trkpt>
      <trkpt lat="43.140388" lon="-2.8141978">
        <ele>220.213</ele>
        <time>2021-04-01T08:05:24.224Z</time>
      </trkpt>
      <trkpt lat="43.1404079" lon="-2.8141998">
        <ele>219.903</ele>
        <time>2021-04-01T08:05:24.408Z</time>
      </trkpt>
      <trkpt lat="43.1403989" lon="-2.8141988">
        <ele>220.149</ele>
        <time>2021-04-01T08:05:24.591Z</time>
      </trkpt>
      <trkpt lat="43.140388" lon="-2.8141978">
        <ele>220.213</ele>
        <time>2021-04-01T08:05:24.775Z</time>
      </trkpt>
      <trkpt lat="43.1403034" lon="-2.8141911">
        <ele>220.987</ele>
        <time>2021-04-01T08:05:25.116Z</time>
      </trkpt>
      <trkpt lat="43.1403015" lon="-2.8141908">
        <ele>221.002</ele>
        <time>2021-04-01T08:05:25.457Z</time>
      </trkpt>
      <trkpt lat="43.1402928" lon="-2.8141896">
        <ele>221.037</ele>
        <time>2021-04-01T08:05:25.798Z</time>
      </trkpt>
      <trkpt lat="43.1402577" lon="-2.8141866">
        <ele>221.191</ele>
        <time>2021-04-01T08:05:26.139Z</time>
      </trkpt>
      <trkpt lat="43.1402353" lon="-2.8141846">
        <ele>221.3</ele>
        <time>2021-04-01T08:05:26.480Z</time>
      </trkpt>
      <trkpt lat="43.1402241" lon="-2.8141835">
        <ele>221.386</ele>
        <time>2021-04-01T08:05:26.975Z</time>
      </trkpt>
      <trkpt lat="43.1402217" lon="-2.8141832">
        <ele>221.398</ele>
        <time>2021-04-01T08:05:27.470Z</time>
      </trkpt>
      <trkpt lat="43.1401754" lon="-2.8141823">
        <ele>221.994</ele>
        <time>2021-04-01T08:05:29.945Z</time>
      </trkpt>
      <trkpt lat="43.1400971" lon="-2.8141784">
        <ele>222.374</ele>
        <time>2021-04-01T08:05:30.293Z</time>
      </trkpt>
      <trkpt lat="43.1400666" lon="-2.814177">
        <ele>222.943</ele>
        <time>2021-04-01T08:05:30.641Z</time>
      </trkpt>
      <trkpt lat="43.1400587" lon="-2.8141766">
        <ele>223.202</ele>
        <time>2021-04-01T08:05:30.990Z</time>
      </trkpt>
      <trkpt lat="43.140042" lon="-2.8141754">
        <ele>223.438</ele>
        <time>2021-04-01T08:05:31.961Z</time>
      </trkpt>
      <trkpt lat="43.1400153" lon="-2.8141727">
        <ele>223.747</ele>
        <time>2021-04-01T08:05:32.933Z</time>
      </trkpt>
      <trkpt lat="43.1399474" lon="-2.8141759">
        <ele>224.364</ele>
        <time>2021-04-01T08:05:35.610Z</time>
      </trkpt>
      <trkpt lat="43.1398832" lon="-2.8141789">
        <ele>224.056</ele>
        <time>2021-04-01T08:05:35.830Z</time>
      </trkpt>
      <trkpt lat="43.1398876" lon="-2.8141784">
        <ele>224.057</ele>
        <time>2021-04-01T08:05:36.050Z</time>
      </trkpt>
      <trkpt lat="43.1398854" lon="-2.8141787">
        <ele>224.046</ele>
        <time>2021-04-01T08:05:36.270Z</time>
      </trkpt>
      <trkpt lat="43.1398832" lon="-2.8141789">
        <ele>224.056</ele>
        <time>2021-04-01T08:05:36.490Z</time>
      </trkpt>
      <trkpt lat="43.139842" lon="-2.8141859">
        <ele>223.798</ele>
        <time>2021-04-01T08:05:36.710Z</time>
      </trkpt>
      <trkpt lat="43.139825" lon="-2.8141899">
        <ele>223.627</ele>
        <time>2021-04-01T08:05:37.755Z</time>
      </trkpt>
      <trkpt lat="43.1397636" lon="-2.8142033">
        <ele>222.954</ele>
        <time>2021-04-01T08:05:39.845Z</time>
      </trkpt>
      <trkpt lat="43.1395222" lon="-2.8142452">
        <ele>222.726</ele>
        <time>2021-04-01T08:05:45.785Z</time>
      </trkpt>
      <trkpt lat="43.1394846" lon="-2.8142435">
        <ele>223.715</ele>
        <time>2021-04-01T08:05:46.445Z</time>
      </trkpt>
      <trkpt lat="43.1394458" lon="-2.8142401">
        <ele>223.866</ele>
        <time>2021-04-01T08:05:47.105Z</time>
      </trkpt>
      <trkpt lat="43.1394035" lon="-2.8142369">
        <ele>223.883</ele>
        <time>2021-04-01T08:05:48.920Z</time>
      </trkpt>
      <trkpt lat="43.1393562" lon="-2.8142312">
        <ele>223.498</ele>
        <time>2021-04-01T08:05:49.676Z</time>
      </trkpt>
      <trkpt lat="43.1393393" lon="-2.8142292">
        <ele>223.381</ele>
        <time>2021-04-01T08:05:50.432Z</time>
      </trkpt>
      <trkpt lat="43.1393209" lon="-2.8142233">
        <ele>224.266</ele>
        <time>2021-04-01T08:05:51.188Z</time>
      </trkpt>
      <trkpt lat="43.1392364" lon="-2.8142002">
        <ele>225.499</ele>
        <time>2021-04-01T08:05:52.825Z</time>
      </trkpt>
      <trkpt lat="43.1392563" lon="-2.814206">
        <ele>225.288</ele>
        <time>2021-04-01T08:05:55.080Z</time>
      </trkpt>
      <trkpt lat="43.1389936" lon="-2.8141257">
        <ele>224.665</ele>
        <time>2021-04-01T08:05:58.930Z</time>
      </trkpt>
      <trkpt lat="43.1389561" lon="-2.8141074">
        <ele>224.631</ele>
        <time>2021-04-01T08:06:01.185Z</time>
      </trkpt>
      <trkpt lat="43.138887" lon="-2.8140246">
        <ele>225.341</ele>
        <time>2021-04-01T08:06:01.350Z</time>
      </trkpt>
      <trkpt lat="43.1388758" lon="-2.8139907">
        <ele>225.36</ele>
        <time>2021-04-01T08:06:02.752Z</time>
      </trkpt>
      <trkpt lat="43.1388898" lon="-2.813865">
        <ele>225.784</ele>
        <time>2021-04-01T08:06:04.155Z</time>
      </trkpt>
      <trkpt lat="43.1390049" lon="-2.8137433">
        <ele>225.727</ele>
        <time>2021-04-01T08:06:08.170Z</time>
      </trkpt>
      <trkpt lat="43.1391286" lon="-2.8136707">
        <ele>225.801</ele>
        <time>2021-04-01T08:06:14.110Z</time>
      </trkpt>
      <trkpt lat="43.1392444" lon="-2.8135672">
        <ele>226.746</ele>
        <time>2021-04-01T08:06:15.430Z</time>
      </trkpt>
      <trkpt lat="43.1392823" lon="-2.8135134">
        <ele>227.061</ele>
        <time>2021-04-01T08:06:18.125Z</time>
      </trkpt>
      <trkpt lat="43.1393804" lon="-2.8132929">
        <ele>229.272</ele>
        <time>2021-04-01T08:06:21.315Z</time>
      </trkpt>
      <trkpt lat="43.1393992" lon="-2.8132363">
        <ele>229.445</ele>
        <time>2021-04-01T08:06:22.525Z</time>
      </trkpt>
      <trkpt lat="43.1394194" lon="-2.8131767">
        <ele>229.555</ele>
        <time>2021-04-01T08:06:22.946Z</time>
      </trkpt>
      <trkpt lat="43.1394268" lon="-2.8131554">
        <ele>229.536</ele>
        <time>2021-04-01T08:06:23.368Z</time>
      </trkpt>
      <trkpt lat="43.1394385" lon="-2.813115">
        <ele>229.51</ele>
        <time>2021-04-01T08:06:23.790Z</time>
      </trkpt>
      <trkpt lat="43.1394451" lon="-2.8130907">
        <ele>229.469</ele>
        <time>2021-04-01T08:06:24.523Z</time>
      </trkpt>
      <trkpt lat="43.139446" lon="-2.8130883">
        <ele>229.447</ele>
        <time>2021-04-01T08:06:25.256Z</time>
      </trkpt>
      <trkpt lat="43.1394706" lon="-2.8130103">
        <ele>229.381</ele>
        <time>2021-04-01T08:06:25.990Z</time>
      </trkpt>
      <trkpt lat="43.1395104" lon="-2.8128575">
        <ele>228.795</ele>
        <time>2021-04-01T08:06:29.180Z</time>
      </trkpt>
      <trkpt lat="43.1395142" lon="-2.8128408">
        <ele>228.829</ele>
        <time>2021-04-01T08:06:29.620Z</time>
      </trkpt>
      <trkpt lat="43.1395104" lon="-2.8128575">
        <ele>228.795</ele>
        <time>2021-04-01T08:06:30.060Z</time>
      </trkpt>
      <trkpt lat="43.1395142" lon="-2.8128408">
        <ele>228.829</ele>
        <time>2021-04-01T08:06:30.500Z</time>
      </trkpt>
      <trkpt lat="43.1395273" lon="-2.8127707">
        <ele>228.674</ele>
        <time>2021-04-01T08:06:32.040Z</time>
      </trkpt>
      <trkpt lat="43.1395369" lon="-2.8127157">
        <ele>228.695</ele>
        <time>2021-04-01T08:06:32.892Z</time>
      </trkpt>
      <trkpt lat="43.139548" lon="-2.8126304">
        <ele>228.566</ele>
        <time>2021-04-01T08:06:35.065Z</time>
      </trkpt>
      <trkpt lat="43.1395572" lon="-2.8125624">
        <ele>228.697</ele>
        <time>2021-04-01T08:06:35.381Z</time>
      </trkpt>
      <trkpt lat="43.1395619" lon="-2.8125229">
        <ele>228.712</ele>
        <time>2021-04-01T08:06:35.697Z</time>
      </trkpt>
      <trkpt lat="43.1395619" lon="-2.8125229">
        <ele>228.712</ele>
        <time>2021-04-01T08:06:36.013Z</time>
      </trkpt>
      <trkpt lat="43.1395642" lon="-2.8124972">
        <ele>228.591</ele>
        <time>2021-04-01T08:06:36.330Z</time>
      </trkpt>
      <trkpt lat="43.139568" lon="-2.8124602">
        <ele>228.596</ele>
        <time>2021-04-01T08:06:36.635Z</time>
      </trkpt>
      <trkpt lat="43.1395687" lon="-2.8124516">
        <ele>228.581</ele>
        <time>2021-04-01T08:06:36.941Z</time>
      </trkpt>
      <trkpt lat="43.139567" lon="-2.8124693">
        <ele>228.527</ele>
        <time>2021-04-01T08:06:37.246Z</time>
      </trkpt>
      <trkpt lat="43.139568" lon="-2.8124602">
        <ele>228.596</ele>
        <time>2021-04-01T08:06:37.552Z</time>
      </trkpt>
      <trkpt lat="43.1395687" lon="-2.8124516">
        <ele>228.581</ele>
        <time>2021-04-01T08:06:37.857Z</time>
      </trkpt>
      <trkpt lat="43.139567" lon="-2.8124693">
        <ele>228.527</ele>
        <time>2021-04-01T08:06:38.163Z</time>
      </trkpt>
      <trkpt lat="43.139568" lon="-2.8124602">
        <ele>228.596</ele>
        <time>2021-04-01T08:06:38.468Z</time>
      </trkpt>
      <trkpt lat="43.1395687" lon="-2.8124516">
        <ele>228.581</ele>
        <time>2021-04-01T08:06:38.774Z</time>
      </trkpt>
      <trkpt lat="43.1395795" lon="-2.8123533">
        <ele>228.966</ele>
        <time>2021-04-01T08:06:40.620Z</time>
      </trkpt>
      <trkpt lat="43.139588" lon="-2.8122764">
        <ele>229.208</ele>
        <time>2021-04-01T08:06:41.014Z</time>
      </trkpt>
      <trkpt lat="43.1395868" lon="-2.8122926">
        <ele>229.145</ele>
        <time>2021-04-01T08:06:41.408Z</time>
      </trkpt>
      <trkpt lat="43.139588" lon="-2.8122764">
        <ele>229.208</ele>
        <time>2021-04-01T08:06:41.802Z</time>
      </trkpt>
      <trkpt lat="43.1395868" lon="-2.8122926">
        <ele>229.145</ele>
        <time>2021-04-01T08:06:42.196Z</time>
      </trkpt>
      <trkpt lat="43.139588" lon="-2.8122764">
        <ele>229.208</ele>
        <time>2021-04-01T08:06:42.590Z</time>
      </trkpt>
      <trkpt lat="43.1395954" lon="-2.812156">
        <ele>229.443</ele>
        <time>2021-04-01T08:06:42.985Z</time>
      </trkpt>
      <trkpt lat="43.1395954" lon="-2.812156">
        <ele>229.443</ele>
        <time>2021-04-01T08:06:43.218Z</time>
      </trkpt>
      <trkpt lat="43.1395954" lon="-2.8121481">
        <ele>229.432</ele>
        <time>2021-04-01T08:06:43.452Z</time>
      </trkpt>
      <trkpt lat="43.1395953" lon="-2.812137">
        <ele>229.45</ele>
        <time>2021-04-01T08:06:43.686Z</time>
      </trkpt>
      <trkpt lat="43.1395961" lon="-2.8121172">
        <ele>229.581</ele>
        <time>2021-04-01T08:06:43.920Z</time>
      </trkpt>
      <trkpt lat="43.1395954" lon="-2.8121481">
        <ele>229.432</ele>
        <time>2021-04-01T08:06:44.153Z</time>
      </trkpt>
      <trkpt lat="43.1395953" lon="-2.812137">
        <ele>229.45</ele>
        <time>2021-04-01T08:06:44.387Z</time>
      </trkpt>
      <trkpt lat="43.1395961" lon="-2.8121172">
        <ele>229.581</ele>
        <time>2021-04-01T08:06:44.621Z</time>
      </trkpt>
      <trkpt lat="43.1395954" lon="-2.8120617">
        <ele>229.728</ele>
        <time>2021-04-01T08:06:46.285Z</time>
      </trkpt>
      <trkpt lat="43.1395939" lon="-2.8119918">
        <ele>230.418</ele>
        <time>2021-04-01T08:06:47.825Z</time>
      </trkpt>
      <trkpt lat="43.1395834" lon="-2.8119168">
        <ele>230.856</ele>
        <time>2021-04-01T08:06:50.025Z</time>
      </trkpt>
      <trkpt lat="43.139558" lon="-2.8118166">
        <ele>230.599</ele>
        <time>2021-04-01T08:06:50.960Z</time>
      </trkpt>
      <trkpt lat="43.1395466" lon="-2.8117726">
        <ele>230.637</ele>
        <time>2021-04-01T08:06:51.207Z</time>
      </trkpt>
      <trkpt lat="43.139541" lon="-2.8117555">
        <ele>230.586</ele>
        <time>2021-04-01T08:06:51.455Z</time>
      </trkpt>
      <trkpt lat="43.1395474" lon="-2.8117752">
        <ele>230.64</ele>
        <time>2021-04-01T08:06:51.702Z</time>
      </trkpt>
      <trkpt lat="43.1395466" lon="-2.8117726">
        <ele>230.637</ele>
        <time>2021-04-01T08:06:51.950Z</time>
      </trkpt>
      <trkpt lat="43.139541" lon="-2.8117555">
        <ele>230.586</ele>
        <time>2021-04-01T08:06:52.197Z</time>
      </trkpt>
      <trkpt lat="43.139524" lon="-2.8117055">
        <ele>230.589</ele>
        <time>2021-04-01T08:06:52.445Z</time>
      </trkpt>
      <trkpt lat="43.1395128" lon="-2.8116726">
        <ele>230.687</ele>
        <time>2021-04-01T08:06:52.712Z</time>
      </trkpt>
      <trkpt lat="43.1395121" lon="-2.8116696">
        <ele>230.712</ele>
        <time>2021-04-01T08:06:52.979Z</time>
      </trkpt>
      <trkpt lat="43.1395128" lon="-2.8116726">
        <ele>230.687</ele>
        <time>2021-04-01T08:06:53.246Z</time>
      </trkpt>
      <trkpt lat="43.1395121" lon="-2.8116696">
        <ele>230.712</ele>
        <time>2021-04-01T08:06:53.513Z</time>
      </trkpt>
      <trkpt lat="43.1395128" lon="-2.8116726">
        <ele>230.687</ele>
        <time>2021-04-01T08:06:53.780Z</time>
      </trkpt>
      <trkpt lat="43.1395121" lon="-2.8116696">
        <ele>230.712</ele>
        <time>2021-04-01T08:06:54.047Z</time>
      </trkpt>
      <trkpt lat="43.1394936" lon="-2.8116188">
        <ele>230.813</ele>
        <time>2021-04-01T08:06:55.965Z</time>
      </trkpt>
      <trkpt lat="43.1394633" lon="-2.8115414">
        <ele>231.208</ele>
        <time>2021-04-01T08:06:56.559Z</time>
      </trkpt>
      <trkpt lat="43.1394536" lon="-2.8115265">
        <ele>230.888</ele>
        <time>2021-04-01T08:06:57.153Z</time>
      </trkpt>
      <trkpt lat="43.1394633" lon="-2.8115414">
        <ele>231.208</ele>
        <time>2021-04-01T08:06:57.747Z</time>
      </trkpt>
      <trkpt lat="43.1394536" lon="-2.8115265">
        <ele>230.888</ele>
        <time>2021-04-01T08:06:58.341Z</time>
      </trkpt>
      <trkpt lat="43.1393877" lon="-2.8114268">
        <ele>231.225</ele>
        <time>2021-04-01T08:06:59.320Z</time>
      </trkpt>
      <trkpt lat="43.1392999" lon="-2.8113377">
        <ele>231.97</ele>
        <time>2021-04-01T08:07:03.555Z</time>
      </trkpt>
      <trkpt lat="43.1392622" lon="-2.8113098">
        <ele>231.489</ele>
        <time>2021-04-01T08:07:06.305Z</time>
      </trkpt>
      <trkpt lat="43.1391981" lon="-2.8112412">
        <ele>231.306</ele>
        <time>2021-04-01T08:07:06.536Z</time>
      </trkpt>
      <trkpt lat="43.13921" lon="-2.8112566">
        <ele>231.71</ele>
        <time>2021-04-01T08:07:06.767Z</time>
      </trkpt>
      <trkpt lat="43.1391981" lon="-2.8112412">
        <ele>231.306</ele>
        <time>2021-04-01T08:07:06.998Z</time>
      </trkpt>
      <trkpt lat="43.1391981" lon="-2.8112412">
        <ele>231.306</ele>
        <time>2021-04-01T08:07:07.229Z</time>
      </trkpt>
      <trkpt lat="43.1391656" lon="-2.8111888">
        <ele>231.208</ele>
        <time>2021-04-01T08:07:09.055Z</time>
      </trkpt>
      <trkpt lat="43.1391656" lon="-2.8111888">
        <ele>231.208</ele>
        <time>2021-04-01T08:07:09.715Z</time>
      </trkpt>
      <trkpt lat="43.1391656" lon="-2.8111888">
        <ele>231.208</ele>
        <time>2021-04-01T08:07:10.375Z</time>
      </trkpt>
      <trkpt lat="43.1391255" lon="-2.8110611">
        <ele>229.534</ele>
        <time>2021-04-01T08:07:10.897Z</time>
      </trkpt>
      <trkpt lat="43.1391253" lon="-2.8110586">
        <ele>229.515</ele>
        <time>2021-04-01T08:07:11.420Z</time>
      </trkpt>
      <trkpt lat="43.1391253" lon="-2.8110586">
        <ele>229.515</ele>
        <time>2021-04-01T08:07:11.942Z</time>
      </trkpt>
      <trkpt lat="43.1391208" lon="-2.8109608">
        <ele>229.399</ele>
        <time>2021-04-01T08:07:12.465Z</time>
      </trkpt>
      <trkpt lat="43.1391208" lon="-2.8109608">
        <ele>229.399</ele>
        <time>2021-04-01T08:07:13.262Z</time>
      </trkpt>
      <trkpt lat="43.1391269" lon="-2.81088">
        <ele>229.881</ele>
        <time>2021-04-01T08:07:15.435Z</time>
      </trkpt>
      <trkpt lat="43.1391388" lon="-2.8108113">
        <ele>230.627</ele>
        <time>2021-04-01T08:07:15.668Z</time>
      </trkpt>
      <trkpt lat="43.1391376" lon="-2.810823">
        <ele>230.684</ele>
        <time>2021-04-01T08:07:15.902Z</time>
      </trkpt>
      <trkpt lat="43.1391388" lon="-2.8108113">
        <ele>230.627</ele>
        <time>2021-04-01T08:07:16.136Z</time>
      </trkpt>
      <trkpt lat="43.139143" lon="-2.810764">
        <ele>230.749</ele>
        <time>2021-04-01T08:07:17.800Z</time>
      </trkpt>
      <trkpt lat="43.1391471" lon="-2.8106951">
        <ele>230.671</ele>
        <time>2021-04-01T08:07:19.450Z</time>
      </trkpt>
      <trkpt lat="43.139149" lon="-2.8106664">
        <ele>230.471</ele>
        <time>2021-04-01T08:07:19.717Z</time>
      </trkpt>
      <trkpt lat="43.139149" lon="-2.8106664">
        <ele>230.471</ele>
        <time>2021-04-01T08:07:19.984Z</time>
      </trkpt>
      <trkpt lat="43.1391494" lon="-2.8106636">
        <ele>230.481</ele>
        <time>2021-04-01T08:07:20.251Z</time>
      </trkpt>
      <trkpt lat="43.1391497" lon="-2.8106609">
        <ele>230.522</ele>
        <time>2021-04-01T08:07:20.518Z</time>
      </trkpt>
      <trkpt lat="43.139149" lon="-2.8106664">
        <ele>230.471</ele>
        <time>2021-04-01T08:07:20.785Z</time>
      </trkpt>
      <trkpt lat="43.1391494" lon="-2.8106636">
        <ele>230.481</ele>
        <time>2021-04-01T08:07:21.052Z</time>
      </trkpt>
      <trkpt lat="43.1391497" lon="-2.8106609">
        <ele>230.522</ele>
        <time>2021-04-01T08:07:21.320Z</time>
      </trkpt>
      <trkpt lat="43.1391614" lon="-2.8105264">
        <ele>231.022</ele>
        <time>2021-04-01T08:07:23.410Z</time>
      </trkpt>
      <trkpt lat="43.1391743" lon="-2.8104243">
        <ele>231.521</ele>
        <time>2021-04-01T08:07:23.483Z</time>
      </trkpt>
      <trkpt lat="43.139176" lon="-2.8104136">
        <ele>231.554</ele>
        <time>2021-04-01T08:07:23.556Z</time>
      </trkpt>
      <trkpt lat="43.1391728" lon="-2.8104354">
        <ele>231.349</ele>
        <time>2021-04-01T08:07:23.629Z</time>
      </trkpt>
      <trkpt lat="43.1391743" lon="-2.8104243">
        <ele>231.521</ele>
        <time>2021-04-01T08:07:23.703Z</time>
      </trkpt>
      <trkpt lat="43.139176" lon="-2.8104136">
        <ele>231.554</ele>
        <time>2021-04-01T08:07:23.776Z</time>
      </trkpt>
      <trkpt lat="43.1391728" lon="-2.8104354">
        <ele>231.349</ele>
        <time>2021-04-01T08:07:23.849Z</time>
      </trkpt>
      <trkpt lat="43.1391743" lon="-2.8104243">
        <ele>231.521</ele>
        <time>2021-04-01T08:07:23.923Z</time>
      </trkpt>
      <trkpt lat="43.139176" lon="-2.8104136">
        <ele>231.554</ele>
        <time>2021-04-01T08:07:23.996Z</time>
      </trkpt>
      <trkpt lat="43.139179" lon="-2.8103922">
        <ele>231.636</ele>
        <time>2021-04-01T08:07:26.490Z</time>
      </trkpt>
      <trkpt lat="43.1391934" lon="-2.8102806">
        <ele>231.063</ele>
        <time>2021-04-01T08:07:27.425Z</time>
      </trkpt>
      <trkpt lat="43.1391948" lon="-2.8102709">
        <ele>231.02</ele>
        <time>2021-04-01T08:07:27.651Z</time>
      </trkpt>
      <trkpt lat="43.1391949" lon="-2.8102687">
        <ele>230.977</ele>
        <time>2021-04-01T08:07:27.877Z</time>
      </trkpt>
      <trkpt lat="43.1391934" lon="-2.8102806">
        <ele>231.063</ele>
        <time>2021-04-01T08:07:28.103Z</time>
      </trkpt>
      <trkpt lat="43.1391948" lon="-2.8102709">
        <ele>231.02</ele>
        <time>2021-04-01T08:07:28.329Z</time>
      </trkpt>
      <trkpt lat="43.1391949" lon="-2.8102687">
        <ele>230.977</ele>
        <time>2021-04-01T08:07:28.555Z</time>
      </trkpt>
      <trkpt lat="43.1391987" lon="-2.8102376">
        <ele>231.2</ele>
        <time>2021-04-01T08:07:28.781Z</time>
      </trkpt>
      <trkpt lat="43.1392066" lon="-2.8101927">
        <ele>231.217</ele>
        <time>2021-04-01T08:07:29.007Z</time>
      </trkpt>
      <trkpt lat="43.1392066" lon="-2.8101927">
        <ele>231.217</ele>
        <time>2021-04-01T08:07:29.233Z</time>
      </trkpt>
      <trkpt lat="43.1392165" lon="-2.8101387">
        <ele>231.154</ele>
        <time>2021-04-01T08:07:29.460Z</time>
      </trkpt>
      <trkpt lat="43.1392185" lon="-2.810128">
        <ele>231.052</ele>
        <time>2021-04-01T08:07:29.576Z</time>
      </trkpt>
      <trkpt lat="43.1392133" lon="-2.8101542">
        <ele>231.357</ele>
        <time>2021-04-01T08:07:29.693Z</time>
      </trkpt>
      <trkpt lat="43.1392165" lon="-2.8101387">
        <ele>231.154</ele>
        <time>2021-04-01T08:07:29.810Z</time>
      </trkpt>
      <trkpt lat="43.1392185" lon="-2.810128">
        <ele>231.052</ele>
        <time>2021-04-01T08:07:29.927Z</time>
      </trkpt>
      <trkpt lat="43.1392133" lon="-2.8101542">
        <ele>231.357</ele>
        <time>2021-04-01T08:07:30.044Z</time>
      </trkpt>
      <trkpt lat="43.1392165" lon="-2.8101387">
        <ele>231.154</ele>
        <time>2021-04-01T08:07:30.161Z</time>
      </trkpt>
      <trkpt lat="43.1392185" lon="-2.810128">
        <ele>231.052</ele>
        <time>2021-04-01T08:07:30.278Z</time>
      </trkpt>
      <trkpt lat="43.1392252" lon="-2.8100932">
        <ele>231.071</ele>
        <time>2021-04-01T08:07:30.395Z</time>
      </trkpt>
      <trkpt lat="43.1392325" lon="-2.8100465">
        <ele>231.186</ele>
        <time>2021-04-01T08:07:30.846Z</time>
      </trkpt>
      <trkpt lat="43.139233" lon="-2.8100391">
        <ele>231.173</ele>
        <time>2021-04-01T08:07:31.297Z</time>
      </trkpt>
      <trkpt lat="43.1392325" lon="-2.8100465">
        <ele>231.186</ele>
        <time>2021-04-01T08:07:31.748Z</time>
      </trkpt>
      <trkpt lat="43.139233" lon="-2.8100391">
        <ele>231.173</ele>
        <time>2021-04-01T08:07:32.199Z</time>
      </trkpt>
      <trkpt lat="43.1392382" lon="-2.8099884">
        <ele>231.151</ele>
        <time>2021-04-01T08:07:33.750Z</time>
      </trkpt>
      <trkpt lat="43.1392418" lon="-2.8099364">
        <ele>230.85</ele>
        <time>2021-04-01T08:07:35.455Z</time>
      </trkpt>
      <trkpt lat="43.1392473" lon="-2.8099034">
        <ele>231.354</ele>
        <time>2021-04-01T08:07:35.633Z</time>
      </trkpt>
      <trkpt lat="43.1392485" lon="-2.8098963">
        <ele>231.364</ele>
        <time>2021-04-01T08:07:35.812Z</time>
      </trkpt>
      <trkpt lat="43.1392473" lon="-2.8099034">
        <ele>231.354</ele>
        <time>2021-04-01T08:07:35.991Z</time>
      </trkpt>
      <trkpt lat="43.139248" lon="-2.8099012">
        <ele>231.339</ele>
        <time>2021-04-01T08:07:36.170Z</time>
      </trkpt>
      <trkpt lat="43.1392485" lon="-2.8098963">
        <ele>231.364</ele>
        <time>2021-04-01T08:07:36.348Z</time>
      </trkpt>
      <trkpt lat="43.1392473" lon="-2.8099034">
        <ele>231.354</ele>
        <time>2021-04-01T08:07:36.527Z</time>
      </trkpt>
      <trkpt lat="43.139248" lon="-2.8099012">
        <ele>231.339</ele>
        <time>2021-04-01T08:07:36.706Z</time>
      </trkpt>
      <trkpt lat="43.1392485" lon="-2.8098963">
        <ele>231.364</ele>
        <time>2021-04-01T08:07:36.885Z</time>
      </trkpt>
      <trkpt lat="43.1392558" lon="-2.8098574">
        <ele>232.166</ele>
        <time>2021-04-01T08:07:37.063Z</time>
      </trkpt>
      <trkpt lat="43.139258" lon="-2.809847">
        <ele>232.234</ele>
        <time>2021-04-01T08:07:37.242Z</time>
      </trkpt>
      <trkpt lat="43.1392592" lon="-2.8098417">
        <ele>232.3</ele>
        <time>2021-04-01T08:07:37.421Z</time>
      </trkpt>
      <trkpt lat="43.139259" lon="-2.8097615">
        <ele>231.91</ele>
        <time>2021-04-01T08:07:37.600Z</time>
      </trkpt>
      <trkpt lat="43.1392593" lon="-2.809759">
        <ele>231.939</ele>
        <time>2021-04-01T08:07:37.716Z</time>
      </trkpt>
      <trkpt lat="43.1392578" lon="-2.8097494">
        <ele>231.881</ele>
        <time>2021-04-01T08:07:37.833Z</time>
      </trkpt>
      <trkpt lat="43.139259" lon="-2.8097615">
        <ele>231.91</ele>
        <time>2021-04-01T08:07:37.950Z</time>
      </trkpt>
      <trkpt lat="43.1392593" lon="-2.809759">
        <ele>231.939</ele>
        <time>2021-04-01T08:07:38.067Z</time>
      </trkpt>
      <trkpt lat="43.1392578" lon="-2.8097494">
        <ele>231.881</ele>
        <time>2021-04-01T08:07:38.184Z</time>
      </trkpt>
      <trkpt lat="43.139259" lon="-2.8097615">
        <ele>231.91</ele>
        <time>2021-04-01T08:07:38.301Z</time>
      </trkpt>
      <trkpt lat="43.1392593" lon="-2.809759">
        <ele>231.939</ele>
        <time>2021-04-01T08:07:38.418Z</time>
      </trkpt>
      <trkpt lat="43.1392578" lon="-2.8097494">
        <ele>231.881</ele>
        <time>2021-04-01T08:07:38.535Z</time>
      </trkpt>
      <trkpt lat="43.1392579" lon="-2.809717">
        <ele>231.746</ele>
        <time>2021-04-01T08:07:40.515Z</time>
      </trkpt>
      <trkpt lat="43.1392576" lon="-2.8096162">
        <ele>233.017</ele>
        <time>2021-04-01T08:07:40.771Z</time>
      </trkpt>
      <trkpt lat="43.1392569" lon="-2.8096109">
        <ele>233.001</ele>
        <time>2021-04-01T08:07:41.028Z</time>
      </trkpt>
      <trkpt lat="43.1392561" lon="-2.8096029">
        <ele>232.955</ele>
        <time>2021-04-01T08:07:41.285Z</time>
      </trkpt>
      <trkpt lat="43.1392569" lon="-2.8096109">
        <ele>233.001</ele>
        <time>2021-04-01T08:07:41.541Z</time>
      </trkpt>
      <trkpt lat="43.1392561" lon="-2.8096029">
        <ele>232.955</ele>
        <time>2021-04-01T08:07:41.798Z</time>
      </trkpt>
      <trkpt lat="43.1392498" lon="-2.80954">
        <ele>233.58</ele>
        <time>2021-04-01T08:07:43.650Z</time>
      </trkpt>
      <trkpt lat="43.1392397" lon="-2.8094631">
        <ele>233.525</ele>
        <time>2021-04-01T08:07:45.575Z</time>
      </trkpt>
      <trkpt lat="43.1392372" lon="-2.8094465">
        <ele>233.541</ele>
        <time>2021-04-01T08:07:45.740Z</time>
      </trkpt>
      <trkpt lat="43.1392403" lon="-2.8094682">
        <ele>233.568</ele>
        <time>2021-04-01T08:07:45.905Z</time>
      </trkpt>
      <trkpt lat="43.1392397" lon="-2.8094631">
        <ele>233.525</ele>
        <time>2021-04-01T08:07:46.070Z</time>
      </trkpt>
      <trkpt lat="43.1392372" lon="-2.8094465">
        <ele>233.541</ele>
        <time>2021-04-01T08:07:46.235Z</time>
      </trkpt>
      <trkpt lat="43.1392403" lon="-2.8094682">
        <ele>233.568</ele>
        <time>2021-04-01T08:07:46.400Z</time>
      </trkpt>
      <trkpt lat="43.1392397" lon="-2.8094631">
        <ele>233.525</ele>
        <time>2021-04-01T08:07:46.565Z</time>
      </trkpt>
      <trkpt lat="43.1392372" lon="-2.8094465">
        <ele>233.541</ele>
        <time>2021-04-01T08:07:46.730Z</time>
      </trkpt>
      <trkpt lat="43.1391958" lon="-2.8092436">
        <ele>232.967</ele>
        <time>2021-04-01T08:07:49.865Z</time>
      </trkpt>
      <trkpt lat="43.1391932" lon="-2.8092269">
        <ele>232.857</ele>
        <time>2021-04-01T08:07:50.030Z</time>
      </trkpt>
      <trkpt lat="43.1391921" lon="-2.8092249">
        <ele>232.787</ele>
        <time>2021-04-01T08:07:50.195Z</time>
      </trkpt>
      <trkpt lat="43.139194" lon="-2.8092293">
        <ele>232.91</ele>
        <time>2021-04-01T08:07:50.360Z</time>
      </trkpt>
      <trkpt lat="43.1391932" lon="-2.8092269">
        <ele>232.857</ele>
        <time>2021-04-01T08:07:50.525Z</time>
      </trkpt>
      <trkpt lat="43.1391921" lon="-2.8092249">
        <ele>232.787</ele>
        <time>2021-04-01T08:07:50.690Z</time>
      </trkpt>
      <trkpt lat="43.1391912" lon="-2.809219">
        <ele>232.9</ele>
        <time>2021-04-01T08:07:50.855Z</time>
      </trkpt>
      <trkpt lat="43.1391899" lon="-2.8092073">
        <ele>233.054</ele>
        <time>2021-04-01T08:07:51.020Z</time>
      </trkpt>
      <trkpt lat="43.1391932" lon="-2.8092269">
        <ele>232.857</ele>
        <time>2021-04-01T08:07:51.185Z</time>
      </trkpt>
      <trkpt lat="43.1391921" lon="-2.8092249">
        <ele>232.787</ele>
        <time>2021-04-01T08:07:51.350Z</time>
      </trkpt>
      <trkpt lat="43.1391912" lon="-2.809219">
        <ele>232.9</ele>
        <time>2021-04-01T08:07:51.515Z</time>
      </trkpt>
      <trkpt lat="43.1391899" lon="-2.8092073">
        <ele>233.054</ele>
        <time>2021-04-01T08:07:51.680Z</time>
      </trkpt>
      <trkpt lat="43.1391695" lon="-2.8090674">
        <ele>233.726</ele>
        <time>2021-04-01T08:07:52.670Z</time>
      </trkpt>
      <trkpt lat="43.1391601" lon="-2.809019">
        <ele>233.924</ele>
        <time>2021-04-01T08:07:52.820Z</time>
      </trkpt>
      <trkpt lat="43.1391495" lon="-2.8089717">
        <ele>234.043</ele>
        <time>2021-04-01T08:07:52.970Z</time>
      </trkpt>
      <trkpt lat="43.1391527" lon="-2.8089885">
        <ele>233.966</ele>
        <time>2021-04-01T08:07:53.120Z</time>
      </trkpt>
      <trkpt lat="43.1391504" lon="-2.8089776">
        <ele>233.975</ele>
        <time>2021-04-01T08:07:53.270Z</time>
      </trkpt>
      <trkpt lat="43.13915" lon="-2.8089746">
        <ele>234.007</ele>
        <time>2021-04-01T08:07:53.420Z</time>
      </trkpt>
      <trkpt lat="43.1391495" lon="-2.8089717">
        <ele>234.043</ele>
        <time>2021-04-01T08:07:53.570Z</time>
      </trkpt>
      <trkpt lat="43.1391527" lon="-2.8089885">
        <ele>233.966</ele>
        <time>2021-04-01T08:07:53.720Z</time>
      </trkpt>
      <trkpt lat="43.1391504" lon="-2.8089776">
        <ele>233.975</ele>
        <time>2021-04-01T08:07:53.870Z</time>
      </trkpt>
      <trkpt lat="43.13915" lon="-2.8089746">
        <ele>234.007</ele>
        <time>2021-04-01T08:07:54.020Z</time>
      </trkpt>
      <trkpt lat="43.1391495" lon="-2.8089717">
        <ele>234.043</ele>
        <time>2021-04-01T08:07:54.170Z</time>
      </trkpt>
      <trkpt lat="43.1391433" lon="-2.8089329">
        <ele>234.376</ele>
        <time>2021-04-01T08:07:56.740Z</time>
      </trkpt>
      <trkpt lat="43.1391169" lon="-2.8088174">
        <ele>233.141</ele>
        <time>2021-04-01T08:07:57.675Z</time>
      </trkpt>
      <trkpt lat="43.1391082" lon="-2.8087711">
        <ele>232.956</ele>
        <time>2021-04-01T08:08:00.590Z</time>
      </trkpt>
      <trkpt lat="43.1390793" lon="-2.8086259">
        <ele>232.153</ele>
        <time>2021-04-01T08:08:02.460Z</time>
      </trkpt>
      <trkpt lat="43.1390636" lon="-2.808532">
        <ele>232.069</ele>
        <time>2021-04-01T08:08:02.721Z</time>
      </trkpt>
      <trkpt lat="43.1390605" lon="-2.8085239">
        <ele>231.802</ele>
        <time>2021-04-01T08:08:02.982Z</time>
      </trkpt>
      <trkpt lat="43.1390605" lon="-2.8085239">
        <ele>231.802</ele>
        <time>2021-04-01T08:08:03.243Z</time>
      </trkpt>
      <trkpt lat="43.1390501" lon="-2.8084852">
        <ele>231.839</ele>
        <time>2021-04-01T08:08:05.815Z</time>
      </trkpt>
      <trkpt lat="43.1390178" lon="-2.8083793">
        <ele>232.458</ele>
        <time>2021-04-01T08:08:06.181Z</time>
      </trkpt>
      <trkpt lat="43.1390167" lon="-2.8083769">
        <ele>232.463</ele>
        <time>2021-04-01T08:08:06.548Z</time>
      </trkpt>
      <trkpt lat="43.1389966" lon="-2.8083326">
        <ele>232.616</ele>
        <time>2021-04-01T08:08:06.915Z</time>
      </trkpt>
      <trkpt lat="43.1389831" lon="-2.8083017">
        <ele>232.855</ele>
        <time>2021-04-01T08:08:05.762Z</time>
      </trkpt>
      <trkpt lat="43.1389831" lon="-2.8083017">
        <ele>232.855</ele>
        <time>2021-04-01T08:08:04.610Z</time>
      </trkpt>
      <trkpt lat="43.1389785" lon="-2.808293">
        <ele>232.843</ele>
        <time>2021-04-01T08:08:03.457Z</time>
      </trkpt>
      <trkpt lat="43.1389831" lon="-2.8083017">
        <ele>232.855</ele>
        <time>2021-04-01T08:08:02.305Z</time>
      </trkpt>
      <trkpt lat="43.1389785" lon="-2.808293">
        <ele>232.843</ele>
        <time>2021-04-01T08:08:01.152Z</time>
      </trkpt>
      <trkpt lat="43.1388884" lon="-2.8081493">
        <ele>233.176</ele>
        <time>2021-04-01T08:08:11.700Z</time>
      </trkpt>
      <trkpt lat="43.1389117" lon="-2.8081863">
        <ele>232.896</ele>
        <time>2021-04-01T08:08:11.819Z</time>
      </trkpt>
      <trkpt lat="43.1389104" lon="-2.8081843">
        <ele>232.871</ele>
        <time>2021-04-01T08:08:11.938Z</time>
      </trkpt>
      <trkpt lat="43.1389117" lon="-2.8081863">
        <ele>232.896</ele>
        <time>2021-04-01T08:08:12.057Z</time>
      </trkpt>
      <trkpt lat="43.1389052" lon="-2.8081761">
        <ele>232.912</ele>
        <time>2021-04-01T08:08:12.176Z</time>
      </trkpt>
      <trkpt lat="43.1389104" lon="-2.8081843">
        <ele>232.871</ele>
        <time>2021-04-01T08:08:12.295Z</time>
      </trkpt>
      <trkpt lat="43.138909" lon="-2.8081823">
        <ele>232.874</ele>
        <time>2021-04-01T08:08:12.415Z</time>
      </trkpt>
      <trkpt lat="43.1389077" lon="-2.8081803">
        <ele>232.893</ele>
        <time>2021-04-01T08:08:12.534Z</time>
      </trkpt>
      <trkpt lat="43.1389052" lon="-2.8081761">
        <ele>232.912</ele>
        <time>2021-04-01T08:08:12.653Z</time>
      </trkpt>
      <trkpt lat="43.1389104" lon="-2.8081843">
        <ele>232.871</ele>
        <time>2021-04-01T08:08:12.772Z</time>
      </trkpt>
      <trkpt lat="43.138909" lon="-2.8081823">
        <ele>232.874</ele>
        <time>2021-04-01T08:08:12.891Z</time>
      </trkpt>
      <trkpt lat="43.1389077" lon="-2.8081803">
        <ele>232.893</ele>
        <time>2021-04-01T08:08:13.010Z</time>
      </trkpt>
      <trkpt lat="43.1389052" lon="-2.8081761">
        <ele>232.912</ele>
        <time>2021-04-01T08:08:13.130Z</time>
      </trkpt>
      <trkpt lat="43.1388549" lon="-2.8080964">
        <ele>233.594</ele>
        <time>2021-04-01T08:08:14.890Z</time>
      </trkpt>
      <trkpt lat="43.1388406" lon="-2.8080724">
        <ele>233.661</ele>
        <time>2021-04-01T08:08:15.165Z</time>
      </trkpt>
      <trkpt lat="43.1388347" lon="-2.8080626">
        <ele>233.659</ele>
        <time>2021-04-01T08:08:15.440Z</time>
      </trkpt>
      <trkpt lat="43.1388406" lon="-2.8080724">
        <ele>233.661</ele>
        <time>2021-04-01T08:08:15.715Z</time>
      </trkpt>
      <trkpt lat="43.1388347" lon="-2.8080626">
        <ele>233.659</ele>
        <time>2021-04-01T08:08:15.990Z</time>
      </trkpt>
      <trkpt lat="43.1388406" lon="-2.8080724">
        <ele>233.661</ele>
        <time>2021-04-01T08:08:16.265Z</time>
      </trkpt>
      <trkpt lat="43.1388347" lon="-2.8080626">
        <ele>233.659</ele>
        <time>2021-04-01T08:08:16.540Z</time>
      </trkpt>
      <trkpt lat="43.1387784" lon="-2.8079751">
        <ele>234.125</ele>
        <time>2021-04-01T08:08:16.911Z</time>
      </trkpt>
      <trkpt lat="43.138775" lon="-2.8079688">
        <ele>234.143</ele>
        <time>2021-04-01T08:08:17.282Z</time>
      </trkpt>
      <trkpt lat="43.1387707" lon="-2.8079599">
        <ele>234.269</ele>
        <time>2021-04-01T08:08:17.653Z</time>
      </trkpt>
      <trkpt lat="43.1387459" lon="-2.8079203">
        <ele>234.454</ele>
        <time>2021-04-01T08:08:18.025Z</time>
      </trkpt>
      <trkpt lat="43.1387337" lon="-2.8078999">
        <ele>234.508</ele>
        <time>2021-04-01T08:08:18.276Z</time>
      </trkpt>
      <trkpt lat="43.1387322" lon="-2.8078977">
        <ele>234.6</ele>
        <time>2021-04-01T08:08:18.527Z</time>
      </trkpt>
      <trkpt lat="43.1387337" lon="-2.8078999">
        <ele>234.508</ele>
        <time>2021-04-01T08:08:18.779Z</time>
      </trkpt>
      <trkpt lat="43.1387322" lon="-2.8078977">
        <ele>234.6</ele>
        <time>2021-04-01T08:08:19.030Z</time>
      </trkpt>
      <trkpt lat="43.1387337" lon="-2.8078999">
        <ele>234.508</ele>
        <time>2021-04-01T08:08:19.282Z</time>
      </trkpt>
      <trkpt lat="43.1387322" lon="-2.8078977">
        <ele>234.6</ele>
        <time>2021-04-01T08:08:19.533Z</time>
      </trkpt>
      <trkpt lat="43.138706" lon="-2.8078538">
        <ele>234.986</ele>
        <time>2021-04-01T08:08:21.765Z</time>
      </trkpt>
      <trkpt lat="43.1386606" lon="-2.8077739">
        <ele>234.683</ele>
        <time>2021-04-01T08:08:22.040Z</time>
      </trkpt>
      <trkpt lat="43.1386547" lon="-2.8077662">
        <ele>234.482</ele>
        <time>2021-04-01T08:08:22.315Z</time>
      </trkpt>
      <trkpt lat="43.1386606" lon="-2.8077739">
        <ele>234.683</ele>
        <time>2021-04-01T08:08:22.590Z</time>
      </trkpt>
      <trkpt lat="43.1386547" lon="-2.8077662">
        <ele>234.482</ele>
        <time>2021-04-01T08:08:22.865Z</time>
      </trkpt>
      <trkpt lat="43.1386281" lon="-2.8077175">
        <ele>234.534</ele>
        <time>2021-04-01T08:08:24.900Z</time>
      </trkpt>
      <trkpt lat="43.1385885" lon="-2.8076437">
        <ele>234.971</ele>
        <time>2021-04-01T08:08:25.615Z</time>
      </trkpt>
      <trkpt lat="43.1385724" lon="-2.8076186">
        <ele>234.59</ele>
        <time>2021-04-01T08:08:25.901Z</time>
      </trkpt>
      <trkpt lat="43.1385645" lon="-2.8076042">
        <ele>234.61</ele>
        <time>2021-04-01T08:08:26.187Z</time>
      </trkpt>
      <trkpt lat="43.1385645" lon="-2.8076042">
        <ele>234.61</ele>
        <time>2021-04-01T08:08:26.473Z</time>
      </trkpt>
      <trkpt lat="43.1385645" lon="-2.8076042">
        <ele>234.61</ele>
        <time>2021-04-01T08:08:26.759Z</time>
      </trkpt>
      <trkpt lat="43.1385408" lon="-2.8075628">
        <ele>235.367</ele>
        <time>2021-04-01T08:08:29.520Z</time>
      </trkpt>
      <trkpt lat="43.1384897" lon="-2.8074603">
        <ele>235.836</ele>
        <time>2021-04-01T08:08:29.850Z</time>
      </trkpt>
      <trkpt lat="43.1384897" lon="-2.8074603">
        <ele>235.836</ele>
        <time>2021-04-01T08:08:30.180Z</time>
      </trkpt>
      <trkpt lat="43.1384897" lon="-2.8074603">
        <ele>235.836</ele>
        <time>2021-04-01T08:08:30.510Z</time>
      </trkpt>
      <trkpt lat="43.1384667" lon="-2.8074037">
        <ele>236.092</ele>
        <time>2021-04-01T08:08:30.840Z</time>
      </trkpt>
      <trkpt lat="43.1384568" lon="-2.807378">
        <ele>236.102</ele>
        <time>2021-04-01T08:08:31.148Z</time>
      </trkpt>
      <trkpt lat="43.1384593" lon="-2.8073858">
        <ele>235.982</ele>
        <time>2021-04-01T08:08:31.456Z</time>
      </trkpt>
      <trkpt lat="43.1384568" lon="-2.807378">
        <ele>236.102</ele>
        <time>2021-04-01T08:08:31.764Z</time>
      </trkpt>
      <trkpt lat="43.1384568" lon="-2.807378">
        <ele>236.102</ele>
        <time>2021-04-01T08:08:32.072Z</time>
      </trkpt>
      <trkpt lat="43.1384424" lon="-2.8073392">
        <ele>236.004</ele>
        <time>2021-04-01T08:08:33.700Z</time>
      </trkpt>
      <trkpt lat="43.138423" lon="-2.8072812">
        <ele>236.304</ele>
        <time>2021-04-01T08:08:33.926Z</time>
      </trkpt>
      <trkpt lat="43.138406" lon="-2.8072323">
        <ele>236.619</ele>
        <time>2021-04-01T08:08:34.152Z</time>
      </trkpt>
      <trkpt lat="43.1384188" lon="-2.8072691">
        <ele>236.353</ele>
        <time>2021-04-01T08:08:34.378Z</time>
      </trkpt>
      <trkpt lat="43.1384115" lon="-2.807249">
        <ele>236.645</ele>
        <time>2021-04-01T08:08:34.604Z</time>
      </trkpt>
      <trkpt lat="43.138406" lon="-2.8072323">
        <ele>236.619</ele>
        <time>2021-04-01T08:08:34.830Z</time>
      </trkpt>
      <trkpt lat="43.1384188" lon="-2.8072691">
        <ele>236.353</ele>
        <time>2021-04-01T08:08:35.056Z</time>
      </trkpt>
      <trkpt lat="43.1384115" lon="-2.807249">
        <ele>236.645</ele>
        <time>2021-04-01T08:08:35.282Z</time>
      </trkpt>
      <trkpt lat="43.138406" lon="-2.8072323">
        <ele>236.619</ele>
        <time>2021-04-01T08:08:35.508Z</time>
      </trkpt>
      <trkpt lat="43.1383934" lon="-2.8071917">
        <ele>236.569</ele>
        <time>2021-04-01T08:08:37.550Z</time>
      </trkpt>
      <trkpt lat="43.1383672" lon="-2.807112">
        <ele>236.924</ele>
        <time>2021-04-01T08:08:37.707Z</time>
      </trkpt>
      <trkpt lat="43.1383616" lon="-2.8070963">
        <ele>236.842</ele>
        <time>2021-04-01T08:08:37.864Z</time>
      </trkpt>
      <trkpt lat="43.1383672" lon="-2.807112">
        <ele>236.924</ele>
        <time>2021-04-01T08:08:38.021Z</time>
      </trkpt>
      <trkpt lat="43.1383616" lon="-2.8070963">
        <ele>236.842</ele>
        <time>2021-04-01T08:08:38.178Z</time>
      </trkpt>
      <trkpt lat="43.1383672" lon="-2.807112">
        <ele>236.924</ele>
        <time>2021-04-01T08:08:38.335Z</time>
      </trkpt>
      <trkpt lat="43.1383616" lon="-2.8070963">
        <ele>236.842</ele>
        <time>2021-04-01T08:08:38.492Z</time>
      </trkpt>
      <trkpt lat="43.1383519" lon="-2.807066">
        <ele>236.905</ele>
        <time>2021-04-01T08:08:40.575Z</time>
      </trkpt>
      <trkpt lat="43.1383227" lon="-2.8069853">
        <ele>237.446</ele>
        <time>2021-04-01T08:08:41.730Z</time>
      </trkpt>
      <trkpt lat="43.1383179" lon="-2.8069715">
        <ele>237.508</ele>
        <time>2021-04-01T08:08:42.115Z</time>
      </trkpt>
      <trkpt lat="43.1383227" lon="-2.8069853">
        <ele>237.446</ele>
        <time>2021-04-01T08:08:42.500Z</time>
      </trkpt>
      <trkpt lat="43.1383179" lon="-2.8069715">
        <ele>237.508</ele>
        <time>2021-04-01T08:08:42.885Z</time>
      </trkpt>
      <trkpt lat="43.1383227" lon="-2.8069853">
        <ele>237.446</ele>
        <time>2021-04-01T08:08:43.270Z</time>
      </trkpt>
      <trkpt lat="43.1383179" lon="-2.8069715">
        <ele>237.508</ele>
        <time>2021-04-01T08:08:43.655Z</time>
      </trkpt>
      <trkpt lat="43.1382775" lon="-2.8068618">
        <ele>237.934</ele>
        <time>2021-04-01T08:08:45.470Z</time>
      </trkpt>
      <trkpt lat="43.1382536" lon="-2.8067908">
        <ele>238.158</ele>
        <time>2021-04-01T08:08:45.662Z</time>
      </trkpt>
      <trkpt lat="43.1382507" lon="-2.8067824">
        <ele>238.214</ele>
        <time>2021-04-01T08:08:45.855Z</time>
      </trkpt>
      <trkpt lat="43.1382536" lon="-2.8067908">
        <ele>238.158</ele>
        <time>2021-04-01T08:08:46.047Z</time>
      </trkpt>
      <trkpt lat="43.1382507" lon="-2.8067824">
        <ele>238.214</ele>
        <time>2021-04-01T08:08:46.240Z</time>
      </trkpt>
      <trkpt lat="43.1382502" lon="-2.8067805">
        <ele>238.168</ele>
        <time>2021-04-01T08:08:46.432Z</time>
      </trkpt>
      <trkpt lat="43.1382507" lon="-2.8067824">
        <ele>238.214</ele>
        <time>2021-04-01T08:08:46.625Z</time>
      </trkpt>
      <trkpt lat="43.1382502" lon="-2.8067805">
        <ele>238.168</ele>
        <time>2021-04-01T08:08:46.817Z</time>
      </trkpt>
      <trkpt lat="43.1382357" lon="-2.8067327">
        <ele>237.919</ele>
        <time>2021-04-01T08:08:48.935Z</time>
      </trkpt>
      <trkpt lat="43.1382125" lon="-2.8066577">
        <ele>238.099</ele>
        <time>2021-04-01T08:08:50.750Z</time>
      </trkpt>
      <trkpt lat="43.1381619" lon="-2.8065086">
        <ele>238.549</ele>
        <time>2021-04-01T08:08:52.730Z</time>
      </trkpt>
      <trkpt lat="43.1381619" lon="-2.8065086">
        <ele>238.549</ele>
        <time>2021-04-01T08:08:52.917Z</time>
      </trkpt>
      <trkpt lat="43.1381569" lon="-2.8064907">
        <ele>238.705</ele>
        <time>2021-04-01T08:08:53.104Z</time>
      </trkpt>
      <trkpt lat="43.1381591" lon="-2.8064975">
        <ele>238.753</ele>
        <time>2021-04-01T08:08:53.291Z</time>
      </trkpt>
      <trkpt lat="43.1381545" lon="-2.8064795">
        <ele>238.756</ele>
        <time>2021-04-01T08:08:53.478Z</time>
      </trkpt>
      <trkpt lat="43.1381513" lon="-2.8064685">
        <ele>238.735</ele>
        <time>2021-04-01T08:08:53.665Z</time>
      </trkpt>
      <trkpt lat="43.1381545" lon="-2.8064795">
        <ele>238.756</ele>
        <time>2021-04-01T08:08:53.852Z</time>
      </trkpt>
      <trkpt lat="43.1381513" lon="-2.8064685">
        <ele>238.735</ele>
        <time>2021-04-01T08:08:54.039Z</time>
      </trkpt>
      <trkpt lat="43.1381545" lon="-2.8064795">
        <ele>238.756</ele>
        <time>2021-04-01T08:08:54.226Z</time>
      </trkpt>
      <trkpt lat="43.1381513" lon="-2.8064685">
        <ele>238.735</ele>
        <time>2021-04-01T08:08:54.413Z</time>
      </trkpt>
      <trkpt lat="43.1381414" lon="-2.806437">
        <ele>238.684</ele>
        <time>2021-04-01T08:08:55.755Z</time>
      </trkpt>
      <trkpt lat="43.1381296" lon="-2.8063948">
        <ele>239.216</ele>
        <time>2021-04-01T08:08:55.968Z</time>
      </trkpt>
      <trkpt lat="43.1381214" lon="-2.8063707">
        <ele>239.323</ele>
        <time>2021-04-01T08:08:56.182Z</time>
      </trkpt>
      <trkpt lat="43.1381177" lon="-2.8063614">
        <ele>239.497</ele>
        <time>2021-04-01T08:08:56.396Z</time>
      </trkpt>
      <trkpt lat="43.1381164" lon="-2.8063577">
        <ele>239.51</ele>
        <time>2021-04-01T08:08:56.610Z</time>
      </trkpt>
      <trkpt lat="43.1381177" lon="-2.8063614">
        <ele>239.497</ele>
        <time>2021-04-01T08:08:56.824Z</time>
      </trkpt>
      <trkpt lat="43.1381164" lon="-2.8063577">
        <ele>239.51</ele>
        <time>2021-04-01T08:08:57.038Z</time>
      </trkpt>
      <trkpt lat="43.1381177" lon="-2.8063614">
        <ele>239.497</ele>
        <time>2021-04-01T08:08:57.252Z</time>
      </trkpt>
      <trkpt lat="43.1381164" lon="-2.8063577">
        <ele>239.51</ele>
        <time>2021-04-01T08:08:57.466Z</time>
      </trkpt>
      <trkpt lat="43.1381086" lon="-2.8063284">
        <ele>240.186</ele>
        <time>2021-04-01T08:08:57.680Z</time>
      </trkpt>
      <trkpt lat="43.1381072" lon="-2.8063221">
        <ele>240.397</ele>
        <time>2021-04-01T08:08:57.923Z</time>
      </trkpt>
      <trkpt lat="43.1381086" lon="-2.8063284">
        <ele>240.186</ele>
        <time>2021-04-01T08:08:58.167Z</time>
      </trkpt>
      <trkpt lat="43.1381072" lon="-2.8063221">
        <ele>240.397</ele>
        <time>2021-04-01T08:08:58.410Z</time>
      </trkpt>
      <trkpt lat="43.1381028" lon="-2.8063043">
        <ele>240.769</ele>
        <time>2021-04-01T08:08:58.654Z</time>
      </trkpt>
      <trkpt lat="43.1381072" lon="-2.8063221">
        <ele>240.397</ele>
        <time>2021-04-01T08:08:58.897Z</time>
      </trkpt>
      <trkpt lat="43.1381028" lon="-2.8063043">
        <ele>240.769</ele>
        <time>2021-04-01T08:08:59.141Z</time>
      </trkpt>
      <trkpt lat="43.1380926" lon="-2.80627">
        <ele>241.2</ele>
        <time>2021-04-01T08:09:00.815Z</time>
      </trkpt>
      <trkpt lat="43.1380907" lon="-2.8062611">
        <ele>241.306</ele>
        <time>2021-04-01T08:09:01.003Z</time>
      </trkpt>
      <trkpt lat="43.1380902" lon="-2.8062597">
        <ele>241.256</ele>
        <time>2021-04-01T08:09:01.192Z</time>
      </trkpt>
      <trkpt lat="43.1380898" lon="-2.8062577">
        <ele>241.337</ele>
        <time>2021-04-01T08:09:01.380Z</time>
      </trkpt>
      <trkpt lat="43.1380926" lon="-2.80627">
        <ele>241.2</ele>
        <time>2021-04-01T08:09:01.569Z</time>
      </trkpt>
      <trkpt lat="43.1380907" lon="-2.8062611">
        <ele>241.306</ele>
        <time>2021-04-01T08:09:01.757Z</time>
      </trkpt>
      <trkpt lat="43.1380902" lon="-2.8062597">
        <ele>241.256</ele>
        <time>2021-04-01T08:09:01.946Z</time>
      </trkpt>
      <trkpt lat="43.1380898" lon="-2.8062577">
        <ele>241.337</ele>
        <time>2021-04-01T08:09:02.135Z</time>
      </trkpt>
      <trkpt lat="43.1380689" lon="-2.8061786">
        <ele>242.69</ele>
        <time>2021-04-01T08:09:02.575Z</time>
      </trkpt>
      <trkpt lat="43.1380632" lon="-2.8061536">
        <ele>243.335</ele>
        <time>2021-04-01T08:09:03.015Z</time>
      </trkpt>
      <trkpt lat="43.1380618" lon="-2.8061468">
        <ele>243.428</ele>
        <time>2021-04-01T08:09:03.455Z</time>
      </trkpt>
      <trkpt lat="43.1380549" lon="-2.8061246">
        <ele>243.543</ele>
        <time>2021-04-01T08:09:03.895Z</time>
      </trkpt>
      <trkpt lat="43.1380537" lon="-2.80612">
        <ele>243.621</ele>
        <time>2021-04-01T08:09:04.610Z</time>
      </trkpt>
      <trkpt lat="43.1380537" lon="-2.80612">
        <ele>243.621</ele>
        <time>2021-04-01T08:09:05.325Z</time>
      </trkpt>
      <trkpt lat="43.1380448" lon="-2.8060873">
        <ele>244.165</ele>
        <time>2021-04-01T08:09:07.140Z</time>
      </trkpt>
      <trkpt lat="43.1380414" lon="-2.8060786">
        <ele>244.604</ele>
        <time>2021-04-01T08:09:08.955Z</time>
      </trkpt>
      <trkpt lat="43.1380398" lon="-2.806056">
        <ele>245.837</ele>
        <time>2021-04-01T08:09:10.165Z</time>
      </trkpt>
      <trkpt lat="43.1380396" lon="-2.8060429">
        <ele>246.406</ele>
        <time>2021-04-01T08:09:10.646Z</time>
      </trkpt>
      <trkpt lat="43.1380395" lon="-2.8060424">
        <ele>246.434</ele>
        <time>2021-04-01T08:09:11.127Z</time>
      </trkpt>
      <trkpt lat="43.1380395" lon="-2.8060424">
        <ele>246.434</ele>
        <time>2021-04-01T08:09:11.608Z</time>
      </trkpt>
      <trkpt lat="43.1380402" lon="-2.8060236">
        <ele>247.785</ele>
        <time>2021-04-01T08:09:13.135Z</time>
      </trkpt>
      <trkpt lat="43.1380393" lon="-2.8060213">
        <ele>248.097</ele>
        <time>2021-04-01T08:09:14.675Z</time>
      </trkpt>
      <trkpt lat="43.1380369" lon="-2.8060215">
        <ele>248.295</ele>
        <time>2021-04-01T08:09:15.041Z</time>
      </trkpt>
      <trkpt lat="43.1380368" lon="-2.8060213">
        <ele>248.317</ele>
        <time>2021-04-01T08:09:15.408Z</time>
      </trkpt>
      <trkpt lat="43.1380369" lon="-2.8060215">
        <ele>248.295</ele>
        <time>2021-04-01T08:09:15.775Z</time>
      </trkpt>
      <trkpt lat="43.1380368" lon="-2.8060213">
        <ele>248.317</ele>
        <time>2021-04-01T08:09:16.141Z</time>
      </trkpt>
      <trkpt lat="43.1380369" lon="-2.8060215">
        <ele>248.295</ele>
        <time>2021-04-01T08:09:16.508Z</time>
      </trkpt>
      <trkpt lat="43.1380368" lon="-2.8060213">
        <ele>248.317</ele>
        <time>2021-04-01T08:09:16.875Z</time>
      </trkpt>
      <trkpt lat="43.1380319" lon="-2.80602">
        <ele>248.647</ele>
        <time>2021-04-01T08:09:18.195Z</time>
      </trkpt>
      <trkpt lat="43.1380307" lon="-2.8060148">
        <ele>249.342</ele>
        <time>2021-04-01T08:09:18.401Z</time>
      </trkpt>
      <trkpt lat="43.1380306" lon="-2.8060141">
        <ele>249.433</ele>
        <time>2021-04-01T08:09:18.607Z</time>
      </trkpt>
      <trkpt lat="43.1380302" lon="-2.8060109">
        <ele>249.914</ele>
        <time>2021-04-01T08:09:18.813Z</time>
      </trkpt>
      <trkpt lat="43.1380306" lon="-2.8060121">
        <ele>249.705</ele>
        <time>2021-04-01T08:09:19.020Z</time>
      </trkpt>
      <trkpt lat="43.1380302" lon="-2.8060109">
        <ele>249.914</ele>
        <time>2021-04-01T08:09:19.226Z</time>
      </trkpt>
      <trkpt lat="43.1380306" lon="-2.8060121">
        <ele>249.705</ele>
        <time>2021-04-01T08:09:19.432Z</time>
      </trkpt>
      <trkpt lat="43.1380302" lon="-2.8060109">
        <ele>249.914</ele>
        <time>2021-04-01T08:09:19.638Z</time>
      </trkpt>
      <trkpt lat="43.1380297" lon="-2.8060072">
        <ele>250.491</ele>
        <time>2021-04-01T08:09:21.165Z</time>
      </trkpt>
      <trkpt lat="43.138029" lon="-2.8060054">
        <ele>250.705</ele>
        <time>2021-04-01T08:09:23.035Z</time>
      </trkpt>
      <trkpt lat="43.1380269" lon="-2.8060002">
        <ele>251.387</ele>
        <time>2021-04-01T08:09:25.070Z</time>
      </trkpt>
      <trkpt lat="43.1380267" lon="-2.8060002">
        <ele>251.358</ele>
        <time>2021-04-01T08:09:25.363Z</time>
      </trkpt>
      <trkpt lat="43.1380269" lon="-2.8060002">
        <ele>251.387</ele>
        <time>2021-04-01T08:09:25.656Z</time>
      </trkpt>
      <trkpt lat="43.1380267" lon="-2.8060002">
        <ele>251.358</ele>
        <time>2021-04-01T08:09:25.949Z</time>
      </trkpt>
      <trkpt lat="43.1380269" lon="-2.8060002">
        <ele>251.387</ele>
        <time>2021-04-01T08:09:26.243Z</time>
      </trkpt>
      <trkpt lat="43.1380267" lon="-2.8060002">
        <ele>251.358</ele>
        <time>2021-04-01T08:09:26.536Z</time>
      </trkpt>
      <trkpt lat="43.1380217" lon="-2.8060011">
        <ele>251.348</ele>
        <time>2021-04-01T08:09:27.710Z</time>
      </trkpt>
      <trkpt lat="43.1380191" lon="-2.8060023">
        <ele>251.029</ele>
        <time>2021-04-01T08:09:27.922Z</time>
      </trkpt>
      <trkpt lat="43.1380171" lon="-2.8060024">
        <ele>250.954</ele>
        <time>2021-04-01T08:09:28.134Z</time>
      </trkpt>
      <trkpt lat="43.138018" lon="-2.8060027">
        <ele>250.959</ele>
        <time>2021-04-01T08:09:28.346Z</time>
      </trkpt>
      <trkpt lat="43.1380171" lon="-2.8060024">
        <ele>250.954</ele>
        <time>2021-04-01T08:09:28.558Z</time>
      </trkpt>
      <trkpt lat="43.138018" lon="-2.8060027">
        <ele>250.959</ele>
        <time>2021-04-01T08:09:28.770Z</time>
      </trkpt>
      <trkpt lat="43.1380171" lon="-2.8060024">
        <ele>250.954</ele>
        <time>2021-04-01T08:09:28.982Z</time>
      </trkpt>
      <trkpt lat="43.1365371" lon="-2.8043227">
        <ele>247.24</ele>
        <time>2021-04-01T08:11:01.301Z</time>
      </trkpt>
      <trkpt lat="43.1365371" lon="-2.8043227">
        <ele>247.24</ele>
        <time>2021-04-01T08:11:29.975Z</time>
      </trkpt>
      <trkpt lat="43.1364722" lon="-2.8042563">
        <ele>246.13</ele>
        <time>2021-04-01T08:11:30.497Z</time>
      </trkpt>
      <trkpt lat="43.1364722" lon="-2.8042563">
        <ele>246.13</ele>
        <time>2021-04-01T08:11:31.020Z</time>
      </trkpt>
      <trkpt lat="43.1361954" lon="-2.804127">
        <ele>244.069</ele>
        <time>2021-04-01T08:11:33.110Z</time>
      </trkpt>
      <trkpt lat="43.1361" lon="-2.803981">
        <ele>244.219</ele>
        <time>2021-04-01T08:11:33.460Z</time>
      </trkpt>
      <trkpt lat="43.1361954" lon="-2.804127">
        <ele>244.069</ele>
        <time>2021-04-01T08:11:33.811Z</time>
      </trkpt>
      <trkpt lat="43.1360788" lon="-2.803933">
        <ele>243.45</ele>
        <time>2021-04-01T08:11:34.161Z</time>
      </trkpt>
      <trkpt lat="43.1360919" lon="-2.8039628">
        <ele>243.93</ele>
        <time>2021-04-01T08:11:34.512Z</time>
      </trkpt>
      <trkpt lat="43.1360788" lon="-2.803933">
        <ele>243.45</ele>
        <time>2021-04-01T08:11:34.863Z</time>
      </trkpt>
      <trkpt lat="43.1360919" lon="-2.8039628">
        <ele>243.93</ele>
        <time>2021-04-01T08:11:35.213Z</time>
      </trkpt>
      <trkpt lat="43.1360788" lon="-2.803933">
        <ele>243.45</ele>
        <time>2021-04-01T08:11:35.564Z</time>
      </trkpt>
      <trkpt lat="43.1360394" lon="-2.8038389">
        <ele>241.576</ele>
        <time>2021-04-01T08:11:37.785Z</time>
      </trkpt>
      <trkpt lat="43.1359586" lon="-2.8036063">
        <ele>240.148</ele>
        <time>2021-04-01T08:11:38.038Z</time>
      </trkpt>
      <trkpt lat="43.1359447" lon="-2.8035657">
        <ele>239.502</ele>
        <time>2021-04-01T08:11:38.291Z</time>
      </trkpt>
      <trkpt lat="43.1359586" lon="-2.8036063">
        <ele>240.148</ele>
        <time>2021-04-01T08:11:38.544Z</time>
      </trkpt>
      <trkpt lat="43.1359447" lon="-2.8035657">
        <ele>239.502</ele>
        <time>2021-04-01T08:11:38.797Z</time>
      </trkpt>
      <trkpt lat="43.1359055" lon="-2.8034468">
        <ele>238.217</ele>
        <time>2021-04-01T08:11:39.050Z</time>
      </trkpt>
      <trkpt lat="43.1358788" lon="-2.8033597">
        <ele>237.837</ele>
        <time>2021-04-01T08:11:39.283Z</time>
      </trkpt>
      <trkpt lat="43.1358966" lon="-2.8034194">
        <ele>237.848</ele>
        <time>2021-04-01T08:11:39.517Z</time>
      </trkpt>
      <trkpt lat="43.135881" lon="-2.8033671">
        <ele>237.89</ele>
        <time>2021-04-01T08:11:39.751Z</time>
      </trkpt>
      <trkpt lat="43.1358788" lon="-2.8033597">
        <ele>237.837</ele>
        <time>2021-04-01T08:11:39.985Z</time>
      </trkpt>
      <trkpt lat="43.1358966" lon="-2.8034194">
        <ele>237.848</ele>
        <time>2021-04-01T08:11:40.218Z</time>
      </trkpt>
      <trkpt lat="43.135881" lon="-2.8033671">
        <ele>237.89</ele>
        <time>2021-04-01T08:11:40.452Z</time>
      </trkpt>
      <trkpt lat="43.1358788" lon="-2.8033597">
        <ele>237.837</ele>
        <time>2021-04-01T08:11:40.686Z</time>
      </trkpt>
      <trkpt lat="43.1358376" lon="-2.8032001">
        <ele>236.322</ele>
        <time>2021-04-01T08:11:42.240Z</time>
      </trkpt>
      <trkpt lat="43.1357724" lon="-2.8030298">
        <ele>234.744</ele>
        <time>2021-04-01T08:11:42.491Z</time>
      </trkpt>
      <trkpt lat="43.1357688" lon="-2.8030234">
        <ele>234.65</ele>
        <time>2021-04-01T08:11:42.742Z</time>
      </trkpt>
      <trkpt lat="43.1357724" lon="-2.8030298">
        <ele>234.744</ele>
        <time>2021-04-01T08:11:42.994Z</time>
      </trkpt>
      <trkpt lat="43.1357688" lon="-2.8030234">
        <ele>234.65</ele>
        <time>2021-04-01T08:11:43.245Z</time>
      </trkpt>
      <trkpt lat="43.1357724" lon="-2.8030298">
        <ele>234.744</ele>
        <time>2021-04-01T08:11:43.497Z</time>
      </trkpt>
      <trkpt lat="43.1357688" lon="-2.8030234">
        <ele>234.65</ele>
        <time>2021-04-01T08:11:43.748Z</time>
      </trkpt>
      <trkpt lat="43.1356465" lon="-2.8028339">
        <ele>232.763</ele>
        <time>2021-04-01T08:11:45.100Z</time>
      </trkpt>
      <trkpt lat="43.1355538" lon="-2.8027216">
        <ele>232.248</ele>
        <time>2021-04-01T08:11:46.475Z</time>
      </trkpt>
      <trkpt lat="43.1353463" lon="-2.8025118">
        <ele>230.782</ele>
        <time>2021-04-01T08:11:46.791Z</time>
      </trkpt>
      <trkpt lat="43.1353405" lon="-2.8025078">
        <ele>230.728</ele>
        <time>2021-04-01T08:11:47.107Z</time>
      </trkpt>
      <trkpt lat="43.135329" lon="-2.8024999">
        <ele>230.663</ele>
        <time>2021-04-01T08:11:47.423Z</time>
      </trkpt>
      <trkpt lat="43.1353405" lon="-2.8025078">
        <ele>230.728</ele>
        <time>2021-04-01T08:11:47.740Z</time>
      </trkpt>
      <trkpt lat="43.135329" lon="-2.8024999">
        <ele>230.663</ele>
        <time>2021-04-01T08:11:48.056Z</time>
      </trkpt>
      <trkpt lat="43.1353405" lon="-2.8025078">
        <ele>230.728</ele>
        <time>2021-04-01T08:11:48.372Z</time>
      </trkpt>
      <trkpt lat="43.135329" lon="-2.8024999">
        <ele>230.663</ele>
        <time>2021-04-01T08:11:48.688Z</time>
      </trkpt>
      <trkpt lat="43.1351655" lon="-2.8024191">
        <ele>230.688</ele>
        <time>2021-04-01T08:11:50.270Z</time>
      </trkpt>
      <trkpt lat="43.1350205" lon="-2.8023661">
        <ele>230.801</ele>
        <time>2021-04-01T08:11:52.250Z</time>
      </trkpt>
      <trkpt lat="43.1347982" lon="-2.8022759">
        <ele>229.552</ele>
        <time>2021-04-01T08:11:53.185Z</time>
      </trkpt>
      <trkpt lat="43.1346532" lon="-2.8022047">
        <ele>228.18</ele>
        <time>2021-04-01T08:11:53.790Z</time>
      </trkpt>
      <trkpt lat="43.1346339" lon="-2.8021958">
        <ele>227.976</ele>
        <time>2021-04-01T08:11:54.395Z</time>
      </trkpt>
      <trkpt lat="43.1346532" lon="-2.8022047">
        <ele>228.18</ele>
        <time>2021-04-01T08:11:55.000Z</time>
      </trkpt>
      <trkpt lat="43.1346339" lon="-2.8021958">
        <ele>227.976</ele>
        <time>2021-04-01T08:11:55.605Z</time>
      </trkpt>
      <trkpt lat="43.1345274" lon="-2.802118">
        <ele>226.014</ele>
        <time>2021-04-01T08:11:56.210Z</time>
      </trkpt>
      <trkpt lat="43.1345677" lon="-2.8021609">
        <ele>227.037</ele>
        <time>2021-04-01T08:11:56.365Z</time>
      </trkpt>
      <trkpt lat="43.1345891" lon="-2.8021755">
        <ele>227.281</ele>
        <time>2021-04-01T08:11:56.521Z</time>
      </trkpt>
      <trkpt lat="43.1345677" lon="-2.8021609">
        <ele>227.037</ele>
        <time>2021-04-01T08:11:56.677Z</time>
      </trkpt>
      <trkpt lat="43.1345891" lon="-2.8021755">
        <ele>227.281</ele>
        <time>2021-04-01T08:11:56.833Z</time>
      </trkpt>
      <trkpt lat="43.1345677" lon="-2.8021609">
        <ele>227.037</ele>
        <time>2021-04-01T08:11:56.989Z</time>
      </trkpt>
      <trkpt lat="43.134508" lon="-2.8020559">
        <ele>225.82</ele>
        <time>2021-04-01T08:11:58.190Z</time>
      </trkpt>
      <trkpt lat="43.1345157" lon="-2.8019743">
        <ele>226.198</ele>
        <time>2021-04-01T08:11:58.380Z</time>
      </trkpt>
      <trkpt lat="43.1345176" lon="-2.8019669">
        <ele>226.097</ele>
        <time>2021-04-01T08:11:58.570Z</time>
      </trkpt>
      <trkpt lat="43.1345272" lon="-2.8019452">
        <ele>225.557</ele>
        <time>2021-04-01T08:11:58.760Z</time>
      </trkpt>
      <trkpt lat="43.1345313" lon="-2.8019402">
        <ele>225.318</ele>
        <time>2021-04-01T08:11:58.950Z</time>
      </trkpt>
      <trkpt lat="43.1345176" lon="-2.8019669">
        <ele>226.097</ele>
        <time>2021-04-01T08:11:59.140Z</time>
      </trkpt>
      <trkpt lat="43.1345272" lon="-2.8019452">
        <ele>225.557</ele>
        <time>2021-04-01T08:11:59.330Z</time>
      </trkpt>
      <trkpt lat="43.1345313" lon="-2.8019402">
        <ele>225.318</ele>
        <time>2021-04-01T08:11:59.520Z</time>
      </trkpt>
      <trkpt lat="43.1345176" lon="-2.8019669">
        <ele>226.097</ele>
        <time>2021-04-01T08:11:59.710Z</time>
      </trkpt>
      <trkpt lat="43.1345272" lon="-2.8019452">
        <ele>225.557</ele>
        <time>2021-04-01T08:11:59.900Z</time>
      </trkpt>
      <trkpt lat="43.1345313" lon="-2.8019402">
        <ele>225.318</ele>
        <time>2021-04-01T08:12:00.090Z</time>
      </trkpt>
      <trkpt lat="43.1346011" lon="-2.8018961">
        <ele>223.984</ele>
        <time>2021-04-01T08:12:02.040Z</time>
      </trkpt>
      <trkpt lat="43.1347155" lon="-2.8019054">
        <ele>222.765</ele>
        <time>2021-04-01T08:12:02.370Z</time>
      </trkpt>
      <trkpt lat="43.1346674" lon="-2.8018954">
        <ele>223.626</ele>
        <time>2021-04-01T08:12:02.700Z</time>
      </trkpt>
      <trkpt lat="43.1347155" lon="-2.8019054">
        <ele>222.765</ele>
        <time>2021-04-01T08:12:03.030Z</time>
      </trkpt>
      <trkpt lat="43.1348188" lon="-2.8019233">
        <ele>222.672</ele>
        <time>2021-04-01T08:12:05.010Z</time>
      </trkpt>
      <trkpt lat="43.13496" lon="-2.8019237">
        <ele>223.138</ele>
        <time>2021-04-01T08:12:05.114Z</time>
      </trkpt>
      <trkpt lat="43.1349067" lon="-2.801925">
        <ele>223.303</ele>
        <time>2021-04-01T08:12:05.219Z</time>
      </trkpt>
      <trkpt lat="43.1349357" lon="-2.8019244">
        <ele>223.283</ele>
        <time>2021-04-01T08:12:05.323Z</time>
      </trkpt>
      <trkpt lat="43.1349552" lon="-2.801924">
        <ele>223.17</ele>
        <time>2021-04-01T08:12:05.428Z</time>
      </trkpt>
      <trkpt lat="43.13496" lon="-2.8019237">
        <ele>223.138</ele>
        <time>2021-04-01T08:12:05.532Z</time>
      </trkpt>
      <trkpt lat="43.1349067" lon="-2.801925">
        <ele>223.303</ele>
        <time>2021-04-01T08:12:05.637Z</time>
      </trkpt>
      <trkpt lat="43.1349357" lon="-2.8019244">
        <ele>223.283</ele>
        <time>2021-04-01T08:12:05.741Z</time>
      </trkpt>
      <trkpt lat="43.1349552" lon="-2.801924">
        <ele>223.17</ele>
        <time>2021-04-01T08:12:05.846Z</time>
      </trkpt>
      <trkpt lat="43.13496" lon="-2.8019237">
        <ele>223.138</ele>
        <time>2021-04-01T08:12:05.950Z</time>
      </trkpt>
      <trkpt lat="43.1350538" lon="-2.8019077">
        <ele>222.969</ele>
        <time>2021-04-01T08:12:07.925Z</time>
      </trkpt>
      <trkpt lat="43.1352282" lon="-2.8018413">
        <ele>222.408</ele>
        <time>2021-04-01T08:12:09.190Z</time>
      </trkpt>
      <trkpt lat="43.1353485" lon="-2.8017785">
        <ele>221.901</ele>
        <time>2021-04-01T08:12:11.445Z</time>
      </trkpt>
      <trkpt lat="43.1355758" lon="-2.8017066">
        <ele>221.309</ele>
        <time>2021-04-01T08:12:12.270Z</time>
      </trkpt>
      <trkpt lat="43.1356567" lon="-2.8017297">
        <ele>220.55</ele>
        <time>2021-04-01T08:12:12.633Z</time>
      </trkpt>
      <trkpt lat="43.1357329" lon="-2.8017774">
        <ele>219.699</ele>
        <time>2021-04-01T08:12:12.996Z</time>
      </trkpt>
      <trkpt lat="43.1357329" lon="-2.8017774">
        <ele>219.699</ele>
        <time>2021-04-01T08:12:13.359Z</time>
      </trkpt>
      <trkpt lat="43.1357329" lon="-2.8017774">
        <ele>219.699</ele>
        <time>2021-04-01T08:12:13.722Z</time>
      </trkpt>
      <trkpt lat="43.1358099" lon="-2.8018596">
        <ele>219.016</ele>
        <time>2021-04-01T08:12:16.230Z</time>
      </trkpt>
      <trkpt lat="43.135924" lon="-2.8021073">
        <ele>217.994</ele>
        <time>2021-04-01T08:12:16.385Z</time>
      </trkpt>
      <trkpt lat="43.1359183" lon="-2.8020937">
        <ele>218.181</ele>
        <time>2021-04-01T08:12:16.541Z</time>
      </trkpt>
      <trkpt lat="43.135924" lon="-2.8021073">
        <ele>217.994</ele>
        <time>2021-04-01T08:12:16.697Z</time>
      </trkpt>
      <trkpt lat="43.1359183" lon="-2.8020937">
        <ele>218.181</ele>
        <time>2021-04-01T08:12:16.853Z</time>
      </trkpt>
      <trkpt lat="43.135924" lon="-2.8021073">
        <ele>217.994</ele>
        <time>2021-04-01T08:12:17.009Z</time>
      </trkpt>
      <trkpt lat="43.1359739" lon="-2.8022143">
        <ele>217.238</ele>
        <time>2021-04-01T08:12:17.165Z</time>
      </trkpt>
      <trkpt lat="43.1361498" lon="-2.8023574">
        <ele>213.846</ele>
        <time>2021-04-01T08:12:19.420Z</time>
      </trkpt>
      <trkpt lat="43.1363744" lon="-2.8024248">
        <ele>210.992</ele>
        <time>2021-04-01T08:12:24.315Z</time>
      </trkpt>
      <trkpt lat="43.1364651" lon="-2.8025577">
        <ele>210.405</ele>
        <time>2021-04-01T08:12:24.388Z</time>
      </trkpt>
      <trkpt lat="43.1364875" lon="-2.8026333">
        <ele>211.929</ele>
        <time>2021-04-01T08:12:27.340Z</time>
      </trkpt>
      <trkpt lat="43.1365785" lon="-2.8029159">
        <ele>211.51</ele>
        <time>2021-04-01T08:12:27.628Z</time>
      </trkpt>
      <trkpt lat="43.1365785" lon="-2.8029159">
        <ele>211.51</ele>
        <time>2021-04-01T08:12:27.917Z</time>
      </trkpt>
      <trkpt lat="43.1365785" lon="-2.8029159">
        <ele>211.51</ele>
        <time>2021-04-01T08:12:28.206Z</time>
      </trkpt>
      <trkpt lat="43.1366496" lon="-2.8029877">
        <ele>209.892</ele>
        <time>2021-04-01T08:12:28.495Z</time>
      </trkpt>
      <trkpt lat="43.1366651" lon="-2.8029949">
        <ele>209.679</ele>
        <time>2021-04-01T08:12:28.953Z</time>
      </trkpt>
      <trkpt lat="43.1366496" lon="-2.8029877">
        <ele>209.892</ele>
        <time>2021-04-01T08:12:29.411Z</time>
      </trkpt>
      <trkpt lat="43.1366651" lon="-2.8029949">
        <ele>209.679</ele>
        <time>2021-04-01T08:12:29.869Z</time>
      </trkpt>
      <trkpt lat="43.1366496" lon="-2.8029877">
        <ele>209.892</ele>
        <time>2021-04-01T08:12:30.328Z</time>
      </trkpt>
      <trkpt lat="43.1366651" lon="-2.8029949">
        <ele>209.679</ele>
        <time>2021-04-01T08:12:30.786Z</time>
      </trkpt>
      <trkpt lat="43.1368678" lon="-2.8030514">
        <ele>209.414</ele>
        <time>2021-04-01T08:12:31.575Z</time>
      </trkpt>
      <trkpt lat="43.1369089" lon="-2.8030516">
        <ele>209.465</ele>
        <time>2021-04-01T08:12:32.372Z</time>
      </trkpt>
      <trkpt lat="43.13702" lon="-2.8030399">
        <ele>208.28</ele>
        <time>2021-04-01T08:12:34.325Z</time>
      </trkpt>
      <trkpt lat="43.1371012" lon="-2.8030201">
        <ele>206.949</ele>
        <time>2021-04-01T08:12:34.563Z</time>
      </trkpt>
      <trkpt lat="43.1371467" lon="-2.8029985">
        <ele>204.907</ele>
        <time>2021-04-01T08:12:34.801Z</time>
      </trkpt>
      <trkpt lat="43.1371151" lon="-2.803015">
        <ele>205.862</ele>
        <time>2021-04-01T08:12:35.039Z</time>
      </trkpt>
      <trkpt lat="43.1371467" lon="-2.8029985">
        <ele>204.907</ele>
        <time>2021-04-01T08:12:35.278Z</time>
      </trkpt>
      <trkpt lat="43.1371467" lon="-2.8029985">
        <ele>204.907</ele>
        <time>2021-04-01T08:12:35.516Z</time>
      </trkpt>
      <trkpt lat="43.1371861" lon="-2.8029626">
        <ele>203.91</ele>
        <time>2021-04-01T08:12:35.755Z</time>
      </trkpt>
      <trkpt lat="43.1372186" lon="-2.8029136">
        <ele>203.988</ele>
        <time>2021-04-01T08:12:37.075Z</time>
      </trkpt>
      <trkpt lat="43.1372701" lon="-2.8027442">
        <ele>204.393</ele>
        <time>2021-04-01T08:12:39.055Z</time>
      </trkpt>
      <trkpt lat="43.1372731" lon="-2.802676">
        <ele>204.294</ele>
        <time>2021-04-01T08:12:39.353Z</time>
      </trkpt>
      <trkpt lat="43.1372719" lon="-2.8026592">
        <ele>203.994</ele>
        <time>2021-04-01T08:12:39.652Z</time>
      </trkpt>
      <trkpt lat="43.1372695" lon="-2.8026309">
        <ele>203.813</ele>
        <time>2021-04-01T08:12:39.950Z</time>
      </trkpt>
      <trkpt lat="43.1372731" lon="-2.802676">
        <ele>204.294</ele>
        <time>2021-04-01T08:12:40.249Z</time>
      </trkpt>
      <trkpt lat="43.1372719" lon="-2.8026592">
        <ele>203.994</ele>
        <time>2021-04-01T08:12:40.547Z</time>
      </trkpt>
      <trkpt lat="43.1372695" lon="-2.8026309">
        <ele>203.813</ele>
        <time>2021-04-01T08:12:40.846Z</time>
      </trkpt>
      <trkpt lat="43.137235" lon="-2.802458">
        <ele>202.983</ele>
        <time>2021-04-01T08:12:41.145Z</time>
      </trkpt>
      <trkpt lat="43.1372324" lon="-2.8024462">
        <ele>202.894</ele>
        <time>2021-04-01T08:12:41.365Z</time>
      </trkpt>
      <trkpt lat="43.1372298" lon="-2.8024345">
        <ele>202.907</ele>
        <time>2021-04-01T08:12:41.585Z</time>
      </trkpt>
      <trkpt lat="43.137235" lon="-2.802458">
        <ele>202.983</ele>
        <time>2021-04-01T08:12:41.805Z</time>
      </trkpt>
      <trkpt lat="43.1372324" lon="-2.8024462">
        <ele>202.894</ele>
        <time>2021-04-01T08:12:42.025Z</time>
      </trkpt>
      <trkpt lat="43.1372298" lon="-2.8024345">
        <ele>202.907</ele>
        <time>2021-04-01T08:12:42.245Z</time>
      </trkpt>
      <trkpt lat="43.1372021" lon="-2.8023095">
        <ele>202.581</ele>
        <time>2021-04-01T08:12:44.060Z</time>
      </trkpt>
      <trkpt lat="43.1372021" lon="-2.8023095">
        <ele>202.581</ele>
        <time>2021-04-01T08:12:46.150Z</time>
      </trkpt>
      <trkpt lat="43.1370603" lon="-2.8018732">
        <ele>198.557</ele>
        <time>2021-04-01T08:12:48.460Z</time>
      </trkpt>
      <trkpt lat="43.1370104" lon="-2.8015343">
        <ele>196.761</ele>
        <time>2021-04-01T08:12:50.550Z</time>
      </trkpt>
      <trkpt lat="43.1370129" lon="-2.8011949">
        <ele>194.693</ele>
        <time>2021-04-01T08:12:50.733Z</time>
      </trkpt>
      <trkpt lat="43.1370257" lon="-2.801093">
        <ele>194.121</ele>
        <time>2021-04-01T08:12:50.916Z</time>
      </trkpt>
      <trkpt lat="43.1370113" lon="-2.8012134">
        <ele>194.926</ele>
        <time>2021-04-01T08:12:51.099Z</time>
      </trkpt>
      <trkpt lat="43.1370129" lon="-2.8011949">
        <ele>194.693</ele>
        <time>2021-04-01T08:12:51.283Z</time>
      </trkpt>
      <trkpt lat="43.1370257" lon="-2.801093">
        <ele>194.121</ele>
        <time>2021-04-01T08:12:51.466Z</time>
      </trkpt>
      <trkpt lat="43.1370113" lon="-2.8012134">
        <ele>194.926</ele>
        <time>2021-04-01T08:12:51.649Z</time>
      </trkpt>
      <trkpt lat="43.1370129" lon="-2.8011949">
        <ele>194.693</ele>
        <time>2021-04-01T08:12:51.833Z</time>
      </trkpt>
      <trkpt lat="43.1370257" lon="-2.801093">
        <ele>194.121</ele>
        <time>2021-04-01T08:12:52.016Z</time>
      </trkpt>
      <trkpt lat="43.1370466" lon="-2.8009161">
        <ele>192.678</ele>
        <time>2021-04-01T08:12:54.070Z</time>
      </trkpt>
      <trkpt lat="43.1370406" lon="-2.8005858">
        <ele>190.532</ele>
        <time>2021-04-01T08:12:55.335Z</time>
      </trkpt>
      <trkpt lat="43.1370482" lon="-2.8006644">
        <ele>190.94</ele>
        <time>2021-04-01T08:12:55.720Z</time>
      </trkpt>
      <trkpt lat="43.1370406" lon="-2.8005858">
        <ele>190.532</ele>
        <time>2021-04-01T08:12:56.105Z</time>
      </trkpt>
      <trkpt lat="43.1370482" lon="-2.8006644">
        <ele>190.94</ele>
        <time>2021-04-01T08:12:56.490Z</time>
      </trkpt>
      <trkpt lat="43.1370406" lon="-2.8005858">
        <ele>190.532</ele>
        <time>2021-04-01T08:12:56.875Z</time>
      </trkpt>
      <trkpt lat="43.1369729" lon="-2.8000789">
        <ele>187.394</ele>
        <time>2021-04-01T08:12:58.360Z</time>
      </trkpt>
      <trkpt lat="43.1369281" lon="-2.7997462">
        <ele>184.862</ele>
        <time>2021-04-01T08:12:58.552Z</time>
      </trkpt>
      <trkpt lat="43.136932" lon="-2.7997765">
        <ele>185.161</ele>
        <time>2021-04-01T08:12:58.745Z</time>
      </trkpt>
      <trkpt lat="43.1369281" lon="-2.7997462">
        <ele>184.862</ele>
        <time>2021-04-01T08:12:58.937Z</time>
      </trkpt>
      <trkpt lat="43.136932" lon="-2.7997765">
        <ele>185.161</ele>
        <time>2021-04-01T08:12:59.130Z</time>
      </trkpt>
      <trkpt lat="43.1369281" lon="-2.7997462">
        <ele>184.862</ele>
        <time>2021-04-01T08:12:59.322Z</time>
      </trkpt>
      <trkpt lat="43.136908" lon="-2.7995921">
        <ele>183.646</ele>
        <time>2021-04-01T08:13:02.265Z</time>
      </trkpt>
      <trkpt lat="43.1368443" lon="-2.7990632">
        <ele>180.434</ele>
        <time>2021-04-01T08:13:02.595Z</time>
      </trkpt>
      <trkpt lat="43.1368443" lon="-2.7990632">
        <ele>180.434</ele>
        <time>2021-04-01T08:13:02.925Z</time>
      </trkpt>
      <trkpt lat="43.1368443" lon="-2.7990632">
        <ele>180.434</ele>
        <time>2021-04-01T08:13:03.255Z</time>
      </trkpt>
      <trkpt lat="43.1368156" lon="-2.798802">
        <ele>178.546</ele>
        <time>2021-04-01T08:13:05.345Z</time>
      </trkpt>
      <trkpt lat="43.136775" lon="-2.7984691">
        <ele>176.134</ele>
        <time>2021-04-01T08:13:05.565Z</time>
      </trkpt>
      <trkpt lat="43.1367803" lon="-2.7985084">
        <ele>176.408</ele>
        <time>2021-04-01T08:13:05.785Z</time>
      </trkpt>
      <trkpt lat="43.136775" lon="-2.7984691">
        <ele>176.134</ele>
        <time>2021-04-01T08:13:06.005Z</time>
      </trkpt>
      <trkpt lat="43.1367803" lon="-2.7985084">
        <ele>176.408</ele>
        <time>2021-04-01T08:13:06.225Z</time>
      </trkpt>
      <trkpt lat="43.136775" lon="-2.7984691">
        <ele>176.134</ele>
        <time>2021-04-01T08:13:06.445Z</time>
      </trkpt>
      <trkpt lat="43.1367425" lon="-2.7982394">
        <ele>174.322</ele>
        <time>2021-04-01T08:13:06.665Z</time>
      </trkpt>
      <trkpt lat="43.1367405" lon="-2.7982308">
        <ele>174.246</ele>
        <time>2021-04-01T08:13:06.967Z</time>
      </trkpt>
      <trkpt lat="43.1367333" lon="-2.7981935">
        <ele>174.008</ele>
        <time>2021-04-01T08:13:07.270Z</time>
      </trkpt>
      <trkpt lat="43.1367425" lon="-2.7982394">
        <ele>174.322</ele>
        <time>2021-04-01T08:13:07.572Z</time>
      </trkpt>
      <trkpt lat="43.1367405" lon="-2.7982308">
        <ele>174.246</ele>
        <time>2021-04-01T08:13:07.875Z</time>
      </trkpt>
      <trkpt lat="43.1367333" lon="-2.7981935">
        <ele>174.008</ele>
        <time>2021-04-01T08:13:08.177Z</time>
      </trkpt>
      <trkpt lat="43.1366618" lon="-2.7979485">
        <ele>172.149</ele>
        <time>2021-04-01T08:13:09.745Z</time>
      </trkpt>
      <trkpt lat="43.1365682" lon="-2.7977547">
        <ele>171.2</ele>
        <time>2021-04-01T08:13:10.161Z</time>
      </trkpt>
      <trkpt lat="43.1365507" lon="-2.7977189">
        <ele>171.011</ele>
        <time>2021-04-01T08:13:10.577Z</time>
      </trkpt>
      <trkpt lat="43.1365682" lon="-2.7977547">
        <ele>171.2</ele>
        <time>2021-04-01T08:13:10.994Z</time>
      </trkpt>
      <trkpt lat="43.1365507" lon="-2.7977189">
        <ele>171.011</ele>
        <time>2021-04-01T08:13:11.410Z</time>
      </trkpt>
      <trkpt lat="43.1365682" lon="-2.7977547">
        <ele>171.2</ele>
        <time>2021-04-01T08:13:11.827Z</time>
      </trkpt>
      <trkpt lat="43.1365507" lon="-2.7977189">
        <ele>171.011</ele>
        <time>2021-04-01T08:13:12.243Z</time>
      </trkpt>
      <trkpt lat="43.136396" lon="-2.7973631">
        <ele>169.845</ele>
        <time>2021-04-01T08:13:12.660Z</time>
      </trkpt>
      <trkpt lat="43.136396" lon="-2.7973631">
        <ele>169.845</ele>
        <time>2021-04-01T08:13:13.072Z</time>
      </trkpt>
      <trkpt lat="43.1363824" lon="-2.7973315">
        <ele>169.772</ele>
        <time>2021-04-01T08:13:13.485Z</time>
      </trkpt>
      <trkpt lat="43.136362" lon="-2.7972936">
        <ele>169.724</ele>
        <time>2021-04-01T08:13:13.897Z</time>
      </trkpt>
      <trkpt lat="43.1362931" lon="-2.7971275">
        <ele>168.73</ele>
        <time>2021-04-01T08:13:15.465Z</time>
      </trkpt>
      <trkpt lat="43.1362279" lon="-2.7969518">
        <ele>167.793</ele>
        <time>2021-04-01T08:13:17.390Z</time>
      </trkpt>
      <trkpt lat="43.1361478" lon="-2.7966437">
        <ele>165.562</ele>
        <time>2021-04-01T08:13:17.562Z</time>
      </trkpt>
      <trkpt lat="43.1361334" lon="-2.7965805">
        <ele>165.182</ele>
        <time>2021-04-01T08:13:17.735Z</time>
      </trkpt>
      <trkpt lat="43.1361396" lon="-2.7966074">
        <ele>165.417</ele>
        <time>2021-04-01T08:13:17.908Z</time>
      </trkpt>
      <trkpt lat="43.1361334" lon="-2.7965805">
        <ele>165.182</ele>
        <time>2021-04-01T08:13:18.081Z</time>
      </trkpt>
      <trkpt lat="43.1361396" lon="-2.7966074">
        <ele>165.417</ele>
        <time>2021-04-01T08:13:18.254Z</time>
      </trkpt>
      <trkpt lat="43.1361334" lon="-2.7965805">
        <ele>165.182</ele>
        <time>2021-04-01T08:13:18.427Z</time>
      </trkpt>
      <trkpt lat="43.1361056" lon="-2.796439">
        <ele>164.714</ele>
        <time>2021-04-01T08:13:20.690Z</time>
      </trkpt>
      <trkpt lat="43.1360305" lon="-2.7960835">
        <ele>162.563</ele>
        <time>2021-04-01T08:13:22.340Z</time>
      </trkpt>
      <trkpt lat="43.1360284" lon="-2.7960737">
        <ele>162.571</ele>
        <time>2021-04-01T08:13:22.529Z</time>
      </trkpt>
      <trkpt lat="43.1360261" lon="-2.7960645">
        <ele>162.493</ele>
        <time>2021-04-01T08:13:22.718Z</time>
      </trkpt>
      <trkpt lat="43.1360305" lon="-2.7960835">
        <ele>162.563</ele>
        <time>2021-04-01T08:13:22.908Z</time>
      </trkpt>
      <trkpt lat="43.1360284" lon="-2.7960737">
        <ele>162.571</ele>
        <time>2021-04-01T08:13:23.097Z</time>
      </trkpt>
      <trkpt lat="43.1360261" lon="-2.7960645">
        <ele>162.493</ele>
        <time>2021-04-01T08:13:23.287Z</time>
      </trkpt>
      <trkpt lat="43.1360137" lon="-2.7960186">
        <ele>162.346</ele>
        <time>2021-04-01T08:13:23.476Z</time>
      </trkpt>
      <trkpt lat="43.1360284" lon="-2.7960737">
        <ele>162.571</ele>
        <time>2021-04-01T08:13:23.666Z</time>
      </trkpt>
      <trkpt lat="43.1360261" lon="-2.7960645">
        <ele>162.493</ele>
        <time>2021-04-01T08:13:23.855Z</time>
      </trkpt>
      <trkpt lat="43.1360137" lon="-2.7960186">
        <ele>162.346</ele>
        <time>2021-04-01T08:13:24.045Z</time>
      </trkpt>
      <trkpt lat="43.135794" lon="-2.7955937">
        <ele>158.252</ele>
        <time>2021-04-01T08:13:24.177Z</time>
      </trkpt>
      <trkpt lat="43.1357698" lon="-2.7955605">
        <ele>157.83</ele>
        <time>2021-04-01T08:13:24.309Z</time>
      </trkpt>
      <trkpt lat="43.135794" lon="-2.7955937">
        <ele>158.252</ele>
        <time>2021-04-01T08:13:24.441Z</time>
      </trkpt>
      <trkpt lat="43.1357698" lon="-2.7955605">
        <ele>157.83</ele>
        <time>2021-04-01T08:13:24.573Z</time>
      </trkpt>
      <trkpt lat="43.1357367" lon="-2.7955149">
        <ele>157.326</ele>
        <time>2021-04-01T08:13:26.410Z</time>
      </trkpt>
      <trkpt lat="43.1355849" lon="-2.7953043">
        <ele>156.229</ele>
        <time>2021-04-01T08:13:27.001Z</time>
      </trkpt>
      <trkpt lat="43.135549" lon="-2.7952487">
        <ele>156.212</ele>
        <time>2021-04-01T08:13:27.592Z</time>
      </trkpt>
      <trkpt lat="43.135549" lon="-2.7952487">
        <ele>156.212</ele>
        <time>2021-04-01T08:13:28.183Z</time>
      </trkpt>
      <trkpt lat="43.1353925" lon="-2.7949936">
        <ele>155.806</ele>
        <time>2021-04-01T08:13:28.775Z</time>
      </trkpt>
      <trkpt lat="43.1353689" lon="-2.794948">
        <ele>155.491</ele>
        <time>2021-04-01T08:13:29.008Z</time>
      </trkpt>
      <trkpt lat="43.1353925" lon="-2.7949936">
        <ele>155.806</ele>
        <time>2021-04-01T08:13:29.242Z</time>
      </trkpt>
      <trkpt lat="43.1353689" lon="-2.794948">
        <ele>155.491</ele>
        <time>2021-04-01T08:13:29.476Z</time>
      </trkpt>
      <trkpt lat="43.1353233" lon="-2.7948657">
        <ele>154.804</ele>
        <time>2021-04-01T08:13:31.745Z</time>
      </trkpt>
      <trkpt lat="43.1351722" lon="-2.7945738">
        <ele>153.565</ele>
        <time>2021-04-01T08:13:32.056Z</time>
      </trkpt>
      <trkpt lat="43.1351722" lon="-2.7945738">
        <ele>153.565</ele>
        <time>2021-04-01T08:13:32.368Z</time>
      </trkpt>
      <trkpt lat="43.1351048" lon="-2.7944324">
        <ele>153.486</ele>
        <time>2021-04-01T08:13:32.680Z</time>
      </trkpt>
      <trkpt lat="43.1350452" lon="-2.7943102">
        <ele>152.816</ele>
        <time>2021-04-01T08:13:32.931Z</time>
      </trkpt>
      <trkpt lat="43.1350253" lon="-2.7942701">
        <ele>152.557</ele>
        <time>2021-04-01T08:13:33.182Z</time>
      </trkpt>
      <trkpt lat="43.1350452" lon="-2.7943102">
        <ele>152.816</ele>
        <time>2021-04-01T08:13:33.434Z</time>
      </trkpt>
      <trkpt lat="43.1350253" lon="-2.7942701">
        <ele>152.557</ele>
        <time>2021-04-01T08:13:33.685Z</time>
      </trkpt>
      <trkpt lat="43.1350452" lon="-2.7943102">
        <ele>152.816</ele>
        <time>2021-04-01T08:13:33.937Z</time>
      </trkpt>
      <trkpt lat="43.1350253" lon="-2.7942701">
        <ele>152.557</ele>
        <time>2021-04-01T08:13:34.188Z</time>
      </trkpt>
      <trkpt lat="43.1349781" lon="-2.7941713">
        <ele>151.954</ele>
        <time>2021-04-01T08:13:35.815Z</time>
      </trkpt>
      <trkpt lat="43.1349519" lon="-2.7941123">
        <ele>151.574</ele>
        <time>2021-04-01T08:13:36.066Z</time>
      </trkpt>
      <trkpt lat="43.1349367" lon="-2.794079">
        <ele>151.238</ele>
        <time>2021-04-01T08:13:36.317Z</time>
      </trkpt>
      <trkpt lat="43.1349148" lon="-2.7940277">
        <ele>151.029</ele>
        <time>2021-04-01T08:13:36.569Z</time>
      </trkpt>
      <trkpt lat="43.1349555" lon="-2.7941209">
        <ele>151.66</ele>
        <time>2021-04-01T08:13:36.820Z</time>
      </trkpt>
      <trkpt lat="43.1349519" lon="-2.7941123">
        <ele>151.574</ele>
        <time>2021-04-01T08:13:37.072Z</time>
      </trkpt>
      <trkpt lat="43.1349367" lon="-2.794079">
        <ele>151.238</ele>
        <time>2021-04-01T08:13:37.323Z</time>
      </trkpt>
      <trkpt lat="43.1349148" lon="-2.7940277">
        <ele>151.029</ele>
        <time>2021-04-01T08:13:37.575Z</time>
      </trkpt>
      <trkpt lat="43.1347604" lon="-2.7936905">
        <ele>148.868</ele>
        <time>2021-04-01T08:13:39.500Z</time>
      </trkpt>
      <trkpt lat="43.134623" lon="-2.7933939">
        <ele>146.933</ele>
        <time>2021-04-01T08:13:39.940Z</time>
      </trkpt>
      <trkpt lat="43.134623" lon="-2.7933939">
        <ele>146.933</ele>
        <time>2021-04-01T08:13:40.380Z</time>
      </trkpt>
      <trkpt lat="43.1345371" lon="-2.7931828">
        <ele>146.556</ele>
        <time>2021-04-01T08:13:42.140Z</time>
      </trkpt>
      <trkpt lat="43.1344557" lon="-2.7929691">
        <ele>146.352</ele>
        <time>2021-04-01T08:13:43.790Z</time>
      </trkpt>
      <trkpt lat="43.1344156" lon="-2.7928622">
        <ele>146.136</ele>
        <time>2021-04-01T08:13:44.142Z</time>
      </trkpt>
      <trkpt lat="43.1344013" lon="-2.7928271">
        <ele>146.076</ele>
        <time>2021-04-01T08:13:44.494Z</time>
      </trkpt>
      <trkpt lat="43.1344285" lon="-2.7928979">
        <ele>146.203</ele>
        <time>2021-04-01T08:13:44.846Z</time>
      </trkpt>
      <trkpt lat="43.1344156" lon="-2.7928622">
        <ele>146.136</ele>
        <time>2021-04-01T08:13:45.198Z</time>
      </trkpt>
      <trkpt lat="43.1344013" lon="-2.7928271">
        <ele>146.076</ele>
        <time>2021-04-01T08:13:45.550Z</time>
      </trkpt>
      <trkpt lat="43.1342436" lon="-2.7924288">
        <ele>145.788</ele>
        <time>2021-04-01T08:13:48.520Z</time>
      </trkpt>
      <trkpt lat="43.1340765" lon="-2.791973">
        <ele>145.722</ele>
        <time>2021-04-01T08:13:51.160Z</time>
      </trkpt>
      <trkpt lat="43.1339561" lon="-2.7915607">
        <ele>144.139</ele>
        <time>2021-04-01T08:13:51.435Z</time>
      </trkpt>
      <trkpt lat="43.1339561" lon="-2.7915607">
        <ele>144.139</ele>
        <time>2021-04-01T08:13:51.710Z</time>
      </trkpt>
      <trkpt lat="43.1339226" lon="-2.7914286">
        <ele>143.655</ele>
        <time>2021-04-01T08:13:53.360Z</time>
      </trkpt>
      <trkpt lat="43.1338632" lon="-2.7912101">
        <ele>142.982</ele>
        <time>2021-04-01T08:13:53.690Z</time>
      </trkpt>
      <trkpt lat="43.1338314" lon="-2.7910944">
        <ele>142.759</ele>
        <time>2021-04-01T08:13:54.020Z</time>
      </trkpt>
      <trkpt lat="43.1338314" lon="-2.7910944">
        <ele>142.759</ele>
        <time>2021-04-01T08:13:54.350Z</time>
      </trkpt>
      <trkpt lat="43.1338314" lon="-2.7910944">
        <ele>142.759</ele>
        <time>2021-04-01T08:13:54.680Z</time>
      </trkpt>
      <trkpt lat="43.1337915" lon="-2.7909438">
        <ele>142.22</ele>
        <time>2021-04-01T08:13:56.880Z</time>
      </trkpt>
      <trkpt lat="43.1337243" lon="-2.7906361">
        <ele>140.624</ele>
        <time>2021-04-01T08:13:57.705Z</time>
      </trkpt>
      <trkpt lat="43.1336985" lon="-2.7905005">
        <ele>139.802</ele>
        <time>2021-04-01T08:13:58.310Z</time>
      </trkpt>
      <trkpt lat="43.1336701" lon="-2.7903325">
        <ele>139.333</ele>
        <time>2021-04-01T08:13:58.915Z</time>
      </trkpt>
      <trkpt lat="43.1336701" lon="-2.7903325">
        <ele>139.333</ele>
        <time>2021-04-01T08:13:59.520Z</time>
      </trkpt>
      <trkpt lat="43.1336502" lon="-2.7901169">
        <ele>137.827</ele>
        <time>2021-04-01T08:14:01.170Z</time>
      </trkpt>
      <trkpt lat="43.1336536" lon="-2.7899503">
        <ele>136.839</ele>
        <time>2021-04-01T08:14:01.775Z</time>
      </trkpt>
      <trkpt lat="43.133662" lon="-2.7898343">
        <ele>136.185</ele>
        <time>2021-04-01T08:14:02.380Z</time>
      </trkpt>
      <trkpt lat="43.1336877" lon="-2.7896546">
        <ele>134.911</ele>
        <time>2021-04-01T08:14:04.195Z</time>
      </trkpt>
      <trkpt lat="43.1337238" lon="-2.7894541">
        <ele>133.445</ele>
        <time>2021-04-01T08:14:05.790Z</time>
      </trkpt>
      <trkpt lat="43.1337783" lon="-2.7891844">
        <ele>131.28</ele>
        <time>2021-04-01T08:14:05.959Z</time>
      </trkpt>
      <trkpt lat="43.1337945" lon="-2.7891094">
        <ele>130.683</ele>
        <time>2021-04-01T08:14:06.129Z</time>
      </trkpt>
      <trkpt lat="43.1337885" lon="-2.7891377">
        <ele>130.909</ele>
        <time>2021-04-01T08:14:06.298Z</time>
      </trkpt>
      <trkpt lat="43.1338003" lon="-2.7890815">
        <ele>130.476</ele>
        <time>2021-04-01T08:14:06.468Z</time>
      </trkpt>
      <trkpt lat="43.1338162" lon="-2.7890061">
        <ele>130.012</ele>
        <time>2021-04-01T08:14:06.637Z</time>
      </trkpt>
      <trkpt lat="43.1337983" lon="-2.7890908">
        <ele>130.533</ele>
        <time>2021-04-01T08:14:06.807Z</time>
      </trkpt>
      <trkpt lat="43.1338003" lon="-2.7890815">
        <ele>130.476</ele>
        <time>2021-04-01T08:14:06.977Z</time>
      </trkpt>
      <trkpt lat="43.1338162" lon="-2.7890061">
        <ele>130.012</ele>
        <time>2021-04-01T08:14:07.146Z</time>
      </trkpt>
      <trkpt lat="43.1337983" lon="-2.7890908">
        <ele>130.533</ele>
        <time>2021-04-01T08:14:07.316Z</time>
      </trkpt>
      <trkpt lat="43.1338003" lon="-2.7890815">
        <ele>130.476</ele>
        <time>2021-04-01T08:14:07.485Z</time>
      </trkpt>
      <trkpt lat="43.1338162" lon="-2.7890061">
        <ele>130.012</ele>
        <time>2021-04-01T08:14:07.655Z</time>
      </trkpt>
      <trkpt lat="43.1338554" lon="-2.7888394">
        <ele>129.068</ele>
        <time>2021-04-01T08:14:09.255Z</time>
      </trkpt>
      <trkpt lat="43.1339181" lon="-2.7886018">
        <ele>127.759</ele>
        <time>2021-04-01T08:14:09.530Z</time>
      </trkpt>
      <trkpt lat="43.1339291" lon="-2.7885659">
        <ele>127.558</ele>
        <time>2021-04-01T08:14:09.805Z</time>
      </trkpt>
      <trkpt lat="43.1339461" lon="-2.7885124">
        <ele>127.231</ele>
        <time>2021-04-01T08:14:10.080Z</time>
      </trkpt>
      <trkpt lat="43.1339461" lon="-2.7885124">
        <ele>127.231</ele>
        <time>2021-04-01T08:14:10.355Z</time>
      </trkpt>
      <trkpt lat="43.1339461" lon="-2.7885124">
        <ele>127.231</ele>
        <time>2021-04-01T08:14:10.630Z</time>
      </trkpt>
      <trkpt lat="43.1340144" lon="-2.7883398">
        <ele>126.21</ele>
        <time>2021-04-01T08:14:12.115Z</time>
      </trkpt>
      <trkpt lat="43.134098" lon="-2.7881626">
        <ele>125.049</ele>
        <time>2021-04-01T08:14:12.435Z</time>
      </trkpt>
      <trkpt lat="43.1341408" lon="-2.7880536">
        <ele>124.405</ele>
        <time>2021-04-01T08:14:12.756Z</time>
      </trkpt>
      <trkpt lat="43.1341408" lon="-2.7880536">
        <ele>124.405</ele>
        <time>2021-04-01T08:14:13.077Z</time>
      </trkpt>
      <trkpt lat="43.134156" lon="-2.7880101">
        <ele>124.208</ele>
        <time>2021-04-01T08:14:13.398Z</time>
      </trkpt>
      <trkpt lat="43.134156" lon="-2.7880101">
        <ele>124.208</ele>
        <time>2021-04-01T08:14:13.719Z</time>
      </trkpt>
      <trkpt lat="43.1341992" lon="-2.7878551">
        <ele>123.437</ele>
        <time>2021-04-01T08:14:14.040Z</time>
      </trkpt>
      <trkpt lat="43.1342102" lon="-2.7878088">
        <ele>123.256</ele>
        <time>2021-04-01T08:14:14.315Z</time>
      </trkpt>
      <trkpt lat="43.1342139" lon="-2.7877895">
        <ele>123.211</ele>
        <time>2021-04-01T08:14:14.590Z</time>
      </trkpt>
      <trkpt lat="43.1342102" lon="-2.7878088">
        <ele>123.256</ele>
        <time>2021-04-01T08:14:14.865Z</time>
      </trkpt>
      <trkpt lat="43.1342139" lon="-2.7877895">
        <ele>123.211</ele>
        <time>2021-04-01T08:14:15.140Z</time>
      </trkpt>
      <trkpt lat="43.1342102" lon="-2.7878088">
        <ele>123.256</ele>
        <time>2021-04-01T08:14:15.415Z</time>
      </trkpt>
      <trkpt lat="43.1342139" lon="-2.7877895">
        <ele>123.211</ele>
        <time>2021-04-01T08:14:15.690Z</time>
      </trkpt>
      <trkpt lat="43.1342562" lon="-2.7875247">
        <ele>121.71</ele>
        <time>2021-04-01T08:14:17.175Z</time>
      </trkpt>
      <trkpt lat="43.1342783" lon="-2.7873121">
        <ele>120.624</ele>
        <time>2021-04-01T08:14:17.495Z</time>
      </trkpt>
      <trkpt lat="43.1342803" lon="-2.7872927">
        <ele>120.557</ele>
        <time>2021-04-01T08:14:17.816Z</time>
      </trkpt>
      <trkpt lat="43.1342929" lon="-2.7871758">
        <ele>120.21</ele>
        <time>2021-04-01T08:14:18.137Z</time>
      </trkpt>
      <trkpt lat="43.1342803" lon="-2.7872927">
        <ele>120.557</ele>
        <time>2021-04-01T08:14:18.458Z</time>
      </trkpt>
      <trkpt lat="43.1342929" lon="-2.7871758">
        <ele>120.21</ele>
        <time>2021-04-01T08:14:18.779Z</time>
      </trkpt>
      <trkpt lat="43.1343133" lon="-2.7869906">
        <ele>118.968</ele>
        <time>2021-04-01T08:14:20.145Z</time>
      </trkpt>
      <trkpt lat="43.1343295" lon="-2.7868268">
        <ele>118.57</ele>
        <time>2021-04-01T08:14:20.541Z</time>
      </trkpt>
      <trkpt lat="43.1343358" lon="-2.7867576">
        <ele>118.446</ele>
        <time>2021-04-01T08:14:20.937Z</time>
      </trkpt>
      <trkpt lat="43.1343428" lon="-2.7866796">
        <ele>118.279</ele>
        <time>2021-04-01T08:14:21.333Z</time>
      </trkpt>
      <trkpt lat="43.1343428" lon="-2.7866796">
        <ele>118.279</ele>
        <time>2021-04-01T08:14:21.729Z</time>
      </trkpt>
      <trkpt lat="43.1343539" lon="-2.7865176">
        <ele>117.861</ele>
        <time>2021-04-01T08:14:22.125Z</time>
      </trkpt>
      <trkpt lat="43.1343545" lon="-2.7865008">
        <ele>117.826</ele>
        <time>2021-04-01T08:14:22.606Z</time>
      </trkpt>
      <trkpt lat="43.1343539" lon="-2.7865176">
        <ele>117.861</ele>
        <time>2021-04-01T08:14:23.087Z</time>
      </trkpt>
      <trkpt lat="43.1343545" lon="-2.7865008">
        <ele>117.826</ele>
        <time>2021-04-01T08:14:23.568Z</time>
      </trkpt>
      <trkpt lat="43.1343546" lon="-2.7862226">
        <ele>116.914</ele>
        <time>2021-04-01T08:14:24.985Z</time>
      </trkpt>
      <trkpt lat="43.1343433" lon="-2.7860803">
        <ele>116.597</ele>
        <time>2021-04-01T08:14:25.223Z</time>
      </trkpt>
      <trkpt lat="43.134339" lon="-2.7860278">
        <ele>117.06</ele>
        <time>2021-04-01T08:14:25.461Z</time>
      </trkpt>
      <trkpt lat="43.1343412" lon="-2.7860633">
        <ele>116.678</ele>
        <time>2021-04-01T08:14:25.699Z</time>
      </trkpt>
      <trkpt lat="43.1343403" lon="-2.7860455">
        <ele>116.958</ele>
        <time>2021-04-01T08:14:25.938Z</time>
      </trkpt>
      <trkpt lat="43.134339" lon="-2.7860278">
        <ele>117.06</ele>
        <time>2021-04-01T08:14:26.176Z</time>
      </trkpt>
      <trkpt lat="43.1343412" lon="-2.7860633">
        <ele>116.678</ele>
        <time>2021-04-01T08:14:26.414Z</time>
      </trkpt>
      <trkpt lat="43.1343403" lon="-2.7860455">
        <ele>116.958</ele>
        <time>2021-04-01T08:14:26.653Z</time>
      </trkpt>
      <trkpt lat="43.134339" lon="-2.7860278">
        <ele>117.06</ele>
        <time>2021-04-01T08:14:26.891Z</time>
      </trkpt>
      <trkpt lat="43.1343074" lon="-2.7857637">
        <ele>117.536</ele>
        <time>2021-04-01T08:14:28.120Z</time>
      </trkpt>
      <trkpt lat="43.1342835" lon="-2.7856262">
        <ele>117.764</ele>
        <time>2021-04-01T08:14:28.573Z</time>
      </trkpt>
      <trkpt lat="43.1342654" lon="-2.7855458">
        <ele>118.027</ele>
        <time>2021-04-01T08:14:29.027Z</time>
      </trkpt>
      <trkpt lat="43.1342654" lon="-2.7855458">
        <ele>118.027</ele>
        <time>2021-04-01T08:14:29.481Z</time>
      </trkpt>
      <trkpt lat="43.1342299" lon="-2.7853921">
        <ele>118.395</ele>
        <time>2021-04-01T08:14:31.310Z</time>
      </trkpt>
      <trkpt lat="43.1341919" lon="-2.7852307">
        <ele>119.214</ele>
        <time>2021-04-01T08:14:31.640Z</time>
      </trkpt>
      <trkpt lat="43.134179" lon="-2.7851711">
        <ele>119.567</ele>
        <time>2021-04-01T08:14:31.970Z</time>
      </trkpt>
      <trkpt lat="43.134179" lon="-2.7851711">
        <ele>119.567</ele>
        <time>2021-04-01T08:14:32.300Z</time>
      </trkpt>
      <trkpt lat="43.1341622" lon="-2.7850906">
        <ele>119.937</ele>
        <time>2021-04-01T08:14:34.225Z</time>
      </trkpt>
      <trkpt lat="43.1341257" lon="-2.7849423">
        <ele>120.21</ele>
        <time>2021-04-01T08:14:34.512Z</time>
      </trkpt>
      <trkpt lat="43.1341007" lon="-2.7848616">
        <ele>120.43</ele>
        <time>2021-04-01T08:14:34.799Z</time>
      </trkpt>
      <trkpt lat="43.1341007" lon="-2.7848616">
        <ele>120.43</ele>
        <time>2021-04-01T08:14:35.086Z</time>
      </trkpt>
      <trkpt lat="43.1340991" lon="-2.7848572">
        <ele>120.458</ele>
        <time>2021-04-01T08:14:35.373Z</time>
      </trkpt>
      <trkpt lat="43.1340976" lon="-2.7848529">
        <ele>120.486</ele>
        <time>2021-04-01T08:14:35.661Z</time>
      </trkpt>
      <trkpt lat="43.1341007" lon="-2.7848616">
        <ele>120.43</ele>
        <time>2021-04-01T08:14:35.948Z</time>
      </trkpt>
      <trkpt lat="43.1340991" lon="-2.7848572">
        <ele>120.458</ele>
        <time>2021-04-01T08:14:36.235Z</time>
      </trkpt>
      <trkpt lat="43.1340976" lon="-2.7848529">
        <ele>120.486</ele>
        <time>2021-04-01T08:14:36.522Z</time>
      </trkpt>
      <trkpt lat="43.1340529" lon="-2.7847358">
        <ele>121.024</ele>
        <time>2021-04-01T08:14:37.965Z</time>
      </trkpt>
      <trkpt lat="43.1340183" lon="-2.7846562">
        <ele>121.185</ele>
        <time>2021-04-01T08:14:39.945Z</time>
      </trkpt>
      <trkpt lat="43.1339633" lon="-2.7845274">
        <ele>122.049</ele>
        <time>2021-04-01T08:14:40.275Z</time>
      </trkpt>
      <trkpt lat="43.1339601" lon="-2.7845205">
        <ele>122.091</ele>
        <time>2021-04-01T08:14:40.605Z</time>
      </trkpt>
      <trkpt lat="43.1339633" lon="-2.7845274">
        <ele>122.049</ele>
        <time>2021-04-01T08:14:40.935Z</time>
      </trkpt>
      <trkpt lat="43.1339601" lon="-2.7845205">
        <ele>122.091</ele>
        <time>2021-04-01T08:14:41.265Z</time>
      </trkpt>
      <trkpt lat="43.1339633" lon="-2.7845274">
        <ele>122.049</ele>
        <time>2021-04-01T08:14:41.595Z</time>
      </trkpt>
      <trkpt lat="43.1339601" lon="-2.7845205">
        <ele>122.091</ele>
        <time>2021-04-01T08:14:41.925Z</time>
      </trkpt>
      <trkpt lat="43.1338996" lon="-2.7843805">
        <ele>122.374</ele>
        <time>2021-04-01T08:14:42.310Z</time>
      </trkpt>
      <trkpt lat="43.1338983" lon="-2.784377">
        <ele>122.424</ele>
        <time>2021-04-01T08:14:42.662Z</time>
      </trkpt>
      <trkpt lat="43.1338918" lon="-2.7843642">
        <ele>122.446</ele>
        <time>2021-04-01T08:14:43.014Z</time>
      </trkpt>
      <trkpt lat="43.1338983" lon="-2.784377">
        <ele>122.424</ele>
        <time>2021-04-01T08:14:43.366Z</time>
      </trkpt>
      <trkpt lat="43.1338918" lon="-2.7843642">
        <ele>122.446</ele>
        <time>2021-04-01T08:14:43.718Z</time>
      </trkpt>
      <trkpt lat="43.133849" lon="-2.7842825">
        <ele>122.361</ele>
        <time>2021-04-01T08:14:45.280Z</time>
      </trkpt>
      <trkpt lat="43.1338195" lon="-2.7842252">
        <ele>121.51</ele>
        <time>2021-04-01T08:14:45.539Z</time>
      </trkpt>
      <trkpt lat="43.1338018" lon="-2.7841912">
        <ele>120.734</ele>
        <time>2021-04-01T08:14:45.798Z</time>
      </trkpt>
      <trkpt lat="43.1338018" lon="-2.7841912">
        <ele>120.734</ele>
        <time>2021-04-01T08:14:46.057Z</time>
      </trkpt>
      <trkpt lat="43.1337995" lon="-2.7841867">
        <ele>120.628</ele>
        <time>2021-04-01T08:14:46.317Z</time>
      </trkpt>
      <trkpt lat="43.1338018" lon="-2.7841912">
        <ele>120.734</ele>
        <time>2021-04-01T08:14:46.576Z</time>
      </trkpt>
      <trkpt lat="43.1337995" lon="-2.7841867">
        <ele>120.628</ele>
        <time>2021-04-01T08:14:46.835Z</time>
      </trkpt>
      <trkpt lat="43.1337839" lon="-2.7841518">
        <ele>119.789</ele>
        <time>2021-04-01T08:14:47.095Z</time>
      </trkpt>
      <trkpt lat="43.1337808" lon="-2.7841459">
        <ele>119.561</ele>
        <time>2021-04-01T08:14:47.491Z</time>
      </trkpt>
      <trkpt lat="43.13378" lon="-2.7841436">
        <ele>119.52</ele>
        <time>2021-04-01T08:14:47.887Z</time>
      </trkpt>
      <trkpt lat="43.1337808" lon="-2.7841459">
        <ele>119.561</ele>
        <time>2021-04-01T08:14:48.283Z</time>
      </trkpt>
      <trkpt lat="43.13378" lon="-2.7841436">
        <ele>119.52</ele>
        <time>2021-04-01T08:14:48.679Z</time>
      </trkpt>
      <trkpt lat="43.1337448" lon="-2.7840766">
        <ele>119.156</ele>
        <time>2021-04-01T08:14:50.230Z</time>
      </trkpt>
      <trkpt lat="43.1337249" lon="-2.78403">
        <ele>118.852</ele>
        <time>2021-04-01T08:14:50.422Z</time>
      </trkpt>
      <trkpt lat="43.1337131" lon="-2.7840093">
        <ele>118.755</ele>
        <time>2021-04-01T08:14:50.615Z</time>
      </trkpt>
      <trkpt lat="43.1337192" lon="-2.7840197">
        <ele>118.76</ele>
        <time>2021-04-01T08:14:50.807Z</time>
      </trkpt>
      <trkpt lat="43.1337179" lon="-2.7840177">
        <ele>118.744</ele>
        <time>2021-04-01T08:14:51.000Z</time>
      </trkpt>
      <trkpt lat="43.1337131" lon="-2.7840093">
        <ele>118.755</ele>
        <time>2021-04-01T08:14:51.192Z</time>
      </trkpt>
      <trkpt lat="43.1337179" lon="-2.7840177">
        <ele>118.744</ele>
        <time>2021-04-01T08:14:51.385Z</time>
      </trkpt>
      <trkpt lat="43.1337131" lon="-2.7840093">
        <ele>118.755</ele>
        <time>2021-04-01T08:14:51.577Z</time>
      </trkpt>
      <trkpt lat="43.1336845" lon="-2.7839749">
        <ele>118.838</ele>
        <time>2021-04-01T08:14:53.035Z</time>
      </trkpt>
      <trkpt lat="43.1336521" lon="-2.7839253">
        <ele>121.631</ele>
        <time>2021-04-01T08:14:53.247Z</time>
      </trkpt>
      <trkpt lat="43.1336119" lon="-2.7839004">
        <ele>123.445</ele>
        <time>2021-04-01T08:14:53.459Z</time>
      </trkpt>
      <trkpt lat="43.1336206" lon="-2.7839059">
        <ele>123.093</ele>
        <time>2021-04-01T08:14:53.671Z</time>
      </trkpt>
      <trkpt lat="43.1336119" lon="-2.7839004">
        <ele>123.445</ele>
        <time>2021-04-01T08:14:53.883Z</time>
      </trkpt>
      <trkpt lat="43.1336206" lon="-2.7839059">
        <ele>123.093</ele>
        <time>2021-04-01T08:14:54.095Z</time>
      </trkpt>
      <trkpt lat="43.1336119" lon="-2.7839004">
        <ele>123.445</ele>
        <time>2021-04-01T08:14:54.307Z</time>
      </trkpt>
      <trkpt lat="43.133604" lon="-2.7838942">
        <ele>123.798</ele>
        <time>2021-04-01T08:14:56.060Z</time>
      </trkpt>
      <trkpt lat="43.1335567" lon="-2.7838775">
        <ele>125.019</ele>
        <time>2021-04-01T08:14:56.463Z</time>
      </trkpt>
      <trkpt lat="43.1335313" lon="-2.7838636">
        <ele>126.104</ele>
        <time>2021-04-01T08:14:56.866Z</time>
      </trkpt>
      <trkpt lat="43.1335232" lon="-2.7838592">
        <ele>126.391</ele>
        <time>2021-04-01T08:14:57.269Z</time>
      </trkpt>
      <trkpt lat="43.1335313" lon="-2.7838636">
        <ele>126.104</ele>
        <time>2021-04-01T08:14:57.673Z</time>
      </trkpt>
      <trkpt lat="43.1335232" lon="-2.7838592">
        <ele>126.391</ele>
        <time>2021-04-01T08:14:58.076Z</time>
      </trkpt>
      <trkpt lat="43.1334958" lon="-2.7838486">
        <ele>127.055</ele>
        <time>2021-04-01T08:14:59.470Z</time>
      </trkpt>
      <trkpt lat="43.1334731" lon="-2.7838315">
        <ele>127.594</ele>
        <time>2021-04-01T08:15:02.055Z</time>
      </trkpt>
      <trkpt lat="43.1334175" lon="-2.7837779">
        <ele>127.129</ele>
        <time>2021-04-01T08:15:02.375Z</time>
      </trkpt>
      <trkpt lat="43.133425" lon="-2.7837842">
        <ele>127.163</ele>
        <time>2021-04-01T08:15:02.696Z</time>
      </trkpt>
      <trkpt lat="43.1334175" lon="-2.7837779">
        <ele>127.129</ele>
        <time>2021-04-01T08:15:03.017Z</time>
      </trkpt>
      <trkpt lat="43.133425" lon="-2.7837842">
        <ele>127.163</ele>
        <time>2021-04-01T08:15:03.338Z</time>
      </trkpt>
      <trkpt lat="43.1334175" lon="-2.7837779">
        <ele>127.129</ele>
        <time>2021-04-01T08:15:03.659Z</time>
      </trkpt>
      <trkpt lat="43.1333703" lon="-2.7837335">
        <ele>126.58</ele>
        <time>2021-04-01T08:15:03.980Z</time>
      </trkpt>
      <trkpt lat="43.1333703" lon="-2.7837335">
        <ele>126.58</ele>
        <time>2021-04-01T08:15:04.508Z</time>
      </trkpt>
      <trkpt lat="43.1333507" lon="-2.7837146">
        <ele>126.462</ele>
        <time>2021-04-01T08:15:05.036Z</time>
      </trkpt>
      <trkpt lat="43.133345" lon="-2.7837105">
        <ele>126.391</ele>
        <time>2021-04-01T08:15:05.564Z</time>
      </trkpt>
      <trkpt lat="43.133345" lon="-2.7837105">
        <ele>126.391</ele>
        <time>2021-04-01T08:15:06.092Z</time>
      </trkpt>
      <trkpt lat="43.133288" lon="-2.783655">
        <ele>125.604</ele>
        <time>2021-04-01T08:15:07.775Z</time>
      </trkpt>
      <trkpt lat="43.1332521" lon="-2.7836122">
        <ele>125.468</ele>
        <time>2021-04-01T08:15:09.040Z</time>
      </trkpt>
      <trkpt lat="43.1332094" lon="-2.7835652">
        <ele>124.987</ele>
        <time>2021-04-01T08:15:09.397Z</time>
      </trkpt>
      <trkpt lat="43.1332023" lon="-2.7835567">
        <ele>124.873</ele>
        <time>2021-04-01T08:15:09.755Z</time>
      </trkpt>
      <trkpt lat="43.1332023" lon="-2.7835567">
        <ele>124.873</ele>
        <time>2021-04-01T08:15:10.112Z</time>
      </trkpt>
      <trkpt lat="43.133157" lon="-2.7835115">
        <ele>124.713</ele>
        <time>2021-04-01T08:15:12.175Z</time>
      </trkpt>
      <trkpt lat="43.1330939" lon="-2.7834452">
        <ele>124.559</ele>
        <time>2021-04-01T08:15:12.637Z</time>
      </trkpt>
      <trkpt lat="43.1330898" lon="-2.7834411">
        <ele>124.527</ele>
        <time>2021-04-01T08:15:13.099Z</time>
      </trkpt>
      <trkpt lat="43.1330939" lon="-2.7834452">
        <ele>124.559</ele>
        <time>2021-04-01T08:15:13.561Z</time>
      </trkpt>
      <trkpt lat="43.1330898" lon="-2.7834411">
        <ele>124.527</ele>
        <time>2021-04-01T08:15:14.023Z</time>
      </trkpt>
      <trkpt lat="43.1330059" lon="-2.7833613">
        <ele>123.848</ele>
        <time>2021-04-01T08:15:15.805Z</time>
      </trkpt>
      <trkpt lat="43.1329516" lon="-2.783309">
        <ele>123.612</ele>
        <time>2021-04-01T08:15:16.226Z</time>
      </trkpt>
      <trkpt lat="43.1329284" lon="-2.7832865">
        <ele>123.54</ele>
        <time>2021-04-01T08:15:16.648Z</time>
      </trkpt>
      <trkpt lat="43.132961" lon="-2.7833176">
        <ele>123.684</ele>
        <time>2021-04-01T08:15:17.070Z</time>
      </trkpt>
      <trkpt lat="43.1329516" lon="-2.783309">
        <ele>123.612</ele>
        <time>2021-04-01T08:15:17.491Z</time>
      </trkpt>
      <trkpt lat="43.1329284" lon="-2.7832865">
        <ele>123.54</ele>
        <time>2021-04-01T08:15:17.913Z</time>
      </trkpt>
      <trkpt lat="43.1328486" lon="-2.7831987">
        <ele>123.155</ele>
        <time>2021-04-01T08:15:18.335Z</time>
      </trkpt>
      <trkpt lat="43.1328776" lon="-2.7832296">
        <ele>123.399</ele>
        <time>2021-04-01T08:15:18.456Z</time>
      </trkpt>
      <trkpt lat="43.1328816" lon="-2.7832347">
        <ele>123.402</ele>
        <time>2021-04-01T08:15:18.577Z</time>
      </trkpt>
      <trkpt lat="43.1328796" lon="-2.7832321">
        <ele>123.409</ele>
        <time>2021-04-01T08:15:18.698Z</time>
      </trkpt>
      <trkpt lat="43.1328776" lon="-2.7832296">
        <ele>123.399</ele>
        <time>2021-04-01T08:15:18.819Z</time>
      </trkpt>
      <trkpt lat="43.1328754" lon="-2.783227">
        <ele>123.408</ele>
        <time>2021-04-01T08:15:18.940Z</time>
      </trkpt>
      <trkpt lat="43.1328816" lon="-2.7832347">
        <ele>123.402</ele>
        <time>2021-04-01T08:15:19.061Z</time>
      </trkpt>
      <trkpt lat="43.1328796" lon="-2.7832321">
        <ele>123.409</ele>
        <time>2021-04-01T08:15:19.182Z</time>
      </trkpt>
      <trkpt lat="43.1328776" lon="-2.7832296">
        <ele>123.399</ele>
        <time>2021-04-01T08:15:19.303Z</time>
      </trkpt>
      <trkpt lat="43.1328754" lon="-2.783227">
        <ele>123.408</ele>
        <time>2021-04-01T08:15:19.424Z</time>
      </trkpt>
      <trkpt lat="43.1327977" lon="-2.7831487">
        <ele>122.636</ele>
        <time>2021-04-01T08:15:20.425Z</time>
      </trkpt>
      <trkpt lat="43.1327592" lon="-2.7831107">
        <ele>122.353</ele>
        <time>2021-04-01T08:15:21.635Z</time>
      </trkpt>
      <trkpt lat="43.1327423" lon="-2.783095">
        <ele>122.15</ele>
        <time>2021-04-01T08:15:21.720Z</time>
      </trkpt>
      <trkpt lat="43.1327522" lon="-2.7831039">
        <ele>122.27</ele>
        <time>2021-04-01T08:15:21.806Z</time>
      </trkpt>
      <trkpt lat="43.1327423" lon="-2.783095">
        <ele>122.15</ele>
        <time>2021-04-01T08:15:21.892Z</time>
      </trkpt>
      <trkpt lat="43.1327289" lon="-2.7830851">
        <ele>121.812</ele>
        <time>2021-04-01T08:15:21.978Z</time>
      </trkpt>
      <trkpt lat="43.1327522" lon="-2.7831039">
        <ele>122.27</ele>
        <time>2021-04-01T08:15:22.064Z</time>
      </trkpt>
      <trkpt lat="43.1327423" lon="-2.783095">
        <ele>122.15</ele>
        <time>2021-04-01T08:15:22.150Z</time>
      </trkpt>
      <trkpt lat="43.1327289" lon="-2.7830851">
        <ele>121.812</ele>
        <time>2021-04-01T08:15:22.236Z</time>
      </trkpt>
      <trkpt lat="43.1327039" lon="-2.7830602">
        <ele>121.7</ele>
        <time>2021-04-01T08:15:22.322Z</time>
      </trkpt>
      <trkpt lat="43.13267" lon="-2.7830249">
        <ele>121.583</ele>
        <time>2021-04-01T08:15:22.408Z</time>
      </trkpt>
      <trkpt lat="43.1326649" lon="-2.7830201">
        <ele>121.601</ele>
        <time>2021-04-01T08:15:22.494Z</time>
      </trkpt>
      <trkpt lat="43.13267" lon="-2.7830249">
        <ele>121.583</ele>
        <time>2021-04-01T08:15:22.580Z</time>
      </trkpt>
      <trkpt lat="43.1326649" lon="-2.7830201">
        <ele>121.601</ele>
        <time>2021-04-01T08:15:22.666Z</time>
      </trkpt>
      <trkpt lat="43.13266" lon="-2.7830151">
        <ele>121.62</ele>
        <time>2021-04-01T08:15:22.752Z</time>
      </trkpt>
      <trkpt lat="43.1326649" lon="-2.7830201">
        <ele>121.601</ele>
        <time>2021-04-01T08:15:22.838Z</time>
      </trkpt>
      <trkpt lat="43.13266" lon="-2.7830151">
        <ele>121.62</ele>
        <time>2021-04-01T08:15:22.924Z</time>
      </trkpt>
      <trkpt lat="43.132642" lon="-2.7829978">
        <ele>121.568</ele>
        <time>2021-04-01T08:15:23.010Z</time>
      </trkpt>
      <trkpt lat="43.1326242" lon="-2.7829791">
        <ele>121.69</ele>
        <time>2021-04-01T08:15:23.363Z</time>
      </trkpt>
      <trkpt lat="43.1326162" lon="-2.7829715">
        <ele>121.659</ele>
        <time>2021-04-01T08:15:23.717Z</time>
      </trkpt>
      <trkpt lat="43.1326057" lon="-2.7829612">
        <ele>121.681</ele>
        <time>2021-04-01T08:15:24.070Z</time>
      </trkpt>
      <trkpt lat="43.1326242" lon="-2.7829791">
        <ele>121.69</ele>
        <time>2021-04-01T08:15:24.424Z</time>
      </trkpt>
      <trkpt lat="43.1326057" lon="-2.7829612">
        <ele>121.681</ele>
        <time>2021-04-01T08:15:24.777Z</time>
      </trkpt>
      <trkpt lat="43.1326057" lon="-2.7829612">
        <ele>121.681</ele>
        <time>2021-04-01T08:15:25.131Z</time>
      </trkpt>
      <trkpt lat="43.1325233" lon="-2.7828799">
        <ele>121.665</ele>
        <time>2021-04-01T08:15:27.300Z</time>
      </trkpt>
      <trkpt lat="43.132434" lon="-2.7827878">
        <ele>121.294</ele>
        <time>2021-04-01T08:15:27.685Z</time>
      </trkpt>
      <trkpt lat="43.1324153" lon="-2.7827664">
        <ele>121.293</ele>
        <time>2021-04-01T08:15:28.026Z</time>
      </trkpt>
      <trkpt lat="43.1323644" lon="-2.7827103">
        <ele>121.157</ele>
        <time>2021-04-01T08:15:28.367Z</time>
      </trkpt>
      <trkpt lat="43.1323806" lon="-2.7827275">
        <ele>121.223</ele>
        <time>2021-04-01T08:15:28.708Z</time>
      </trkpt>
      <trkpt lat="43.1323644" lon="-2.7827103">
        <ele>121.157</ele>
        <time>2021-04-01T08:15:29.049Z</time>
      </trkpt>
      <trkpt lat="43.1323306" lon="-2.7826776">
        <ele>120.976</ele>
        <time>2021-04-01T08:15:31.480Z</time>
      </trkpt>
      <trkpt lat="43.1322751" lon="-2.7826256">
        <ele>120.646</ele>
        <time>2021-04-01T08:15:31.689Z</time>
      </trkpt>
      <trkpt lat="43.1323049" lon="-2.782653">
        <ele>120.791</ele>
        <time>2021-04-01T08:15:31.898Z</time>
      </trkpt>
      <trkpt lat="43.1322751" lon="-2.7826256">
        <ele>120.646</ele>
        <time>2021-04-01T08:15:32.107Z</time>
      </trkpt>
      <trkpt lat="43.1323049" lon="-2.782653">
        <ele>120.791</ele>
        <time>2021-04-01T08:15:32.316Z</time>
      </trkpt>
      <trkpt lat="43.1322751" lon="-2.7826256">
        <ele>120.646</ele>
        <time>2021-04-01T08:15:32.525Z</time>
      </trkpt>
      <trkpt lat="43.1321671" lon="-2.7825196">
        <ele>119.81</ele>
        <time>2021-04-01T08:15:34.615Z</time>
      </trkpt>
      <trkpt lat="43.1320602" lon="-2.7824126">
        <ele>119.266</ele>
        <time>2021-04-01T08:15:34.828Z</time>
      </trkpt>
      <trkpt lat="43.132038" lon="-2.7823896">
        <ele>119.288</ele>
        <time>2021-04-01T08:15:35.042Z</time>
      </trkpt>
      <trkpt lat="43.1320435" lon="-2.7823951">
        <ele>119.345</ele>
        <time>2021-04-01T08:15:35.256Z</time>
      </trkpt>
      <trkpt lat="43.1320409" lon="-2.7823924">
        <ele>119.314</ele>
        <time>2021-04-01T08:15:35.470Z</time>
      </trkpt>
      <trkpt lat="43.132038" lon="-2.7823896">
        <ele>119.288</ele>
        <time>2021-04-01T08:15:35.684Z</time>
      </trkpt>
      <trkpt lat="43.1320435" lon="-2.7823951">
        <ele>119.345</ele>
        <time>2021-04-01T08:15:35.898Z</time>
      </trkpt>
      <trkpt lat="43.1320409" lon="-2.7823924">
        <ele>119.314</ele>
        <time>2021-04-01T08:15:36.112Z</time>
      </trkpt>
      <trkpt lat="43.132038" lon="-2.7823896">
        <ele>119.288</ele>
        <time>2021-04-01T08:15:36.326Z</time>
      </trkpt>
      <trkpt lat="43.1319615" lon="-2.7823165">
        <ele>118.97</ele>
        <time>2021-04-01T08:15:37.640Z</time>
      </trkpt>
      <trkpt lat="43.1319049" lon="-2.7822582">
        <ele>119.018</ele>
        <time>2021-04-01T08:15:38.176Z</time>
      </trkpt>
      <trkpt lat="43.1318934" lon="-2.7822471">
        <ele>118.933</ele>
        <time>2021-04-01T08:15:38.712Z</time>
      </trkpt>
      <trkpt lat="43.1318934" lon="-2.7822471">
        <ele>118.933</ele>
        <time>2021-04-01T08:15:39.248Z</time>
      </trkpt>
      <trkpt lat="43.1317933" lon="-2.78215">
        <ele>118.489</ele>
        <time>2021-04-01T08:15:41.215Z</time>
      </trkpt>
      <trkpt lat="43.1317202" lon="-2.7820772">
        <ele>118.272</ele>
        <time>2021-04-01T08:15:41.517Z</time>
      </trkpt>
      <trkpt lat="43.1317585" lon="-2.7821149">
        <ele>118.652</ele>
        <time>2021-04-01T08:15:41.820Z</time>
      </trkpt>
      <trkpt lat="43.1317202" lon="-2.7820772">
        <ele>118.272</ele>
        <time>2021-04-01T08:15:42.122Z</time>
      </trkpt>
      <trkpt lat="43.1316635" lon="-2.7820235">
        <ele>117.464</ele>
        <time>2021-04-01T08:15:43.415Z</time>
      </trkpt>
      <trkpt lat="43.1316135" lon="-2.7819776">
        <ele>117.365</ele>
        <time>2021-04-01T08:15:45.450Z</time>
      </trkpt>
      <trkpt lat="43.131513" lon="-2.7818809">
        <ele>117.269</ele>
        <time>2021-04-01T08:15:45.670Z</time>
      </trkpt>
      <trkpt lat="43.1314975" lon="-2.7818639">
        <ele>117.328</ele>
        <time>2021-04-01T08:15:45.890Z</time>
      </trkpt>
      <trkpt lat="43.1314948" lon="-2.7818614">
        <ele>117.303</ele>
        <time>2021-04-01T08:15:46.110Z</time>
      </trkpt>
      <trkpt lat="43.1314975" lon="-2.7818639">
        <ele>117.328</ele>
        <time>2021-04-01T08:15:46.330Z</time>
      </trkpt>
      <trkpt lat="43.1314948" lon="-2.7818614">
        <ele>117.303</ele>
        <time>2021-04-01T08:15:46.550Z</time>
      </trkpt>
      <trkpt lat="43.131449" lon="-2.7818149">
        <ele>117.343</ele>
        <time>2021-04-01T08:15:49.300Z</time>
      </trkpt>
      <trkpt lat="43.1313241" lon="-2.7816864">
        <ele>117.072</ele>
        <time>2021-04-01T08:15:49.373Z</time>
      </trkpt>
      <trkpt lat="43.1313186" lon="-2.781681">
        <ele>117.08</ele>
        <time>2021-04-01T08:15:49.446Z</time>
      </trkpt>
      <trkpt lat="43.13134" lon="-2.7817031">
        <ele>117.107</ele>
        <time>2021-04-01T08:15:49.519Z</time>
      </trkpt>
      <trkpt lat="43.1313241" lon="-2.7816864">
        <ele>117.072</ele>
        <time>2021-04-01T08:15:49.593Z</time>
      </trkpt>
      <trkpt lat="43.1313186" lon="-2.781681">
        <ele>117.08</ele>
        <time>2021-04-01T08:15:49.666Z</time>
      </trkpt>
      <trkpt lat="43.13134" lon="-2.7817031">
        <ele>117.107</ele>
        <time>2021-04-01T08:15:49.739Z</time>
      </trkpt>
      <trkpt lat="43.1313241" lon="-2.7816864">
        <ele>117.072</ele>
        <time>2021-04-01T08:15:49.813Z</time>
      </trkpt>
      <trkpt lat="43.1313186" lon="-2.781681">
        <ele>117.08</ele>
        <time>2021-04-01T08:15:49.886Z</time>
      </trkpt>
      <trkpt lat="43.1312916" lon="-2.7816537">
        <ele>117.026</ele>
        <time>2021-04-01T08:15:51.830Z</time>
      </trkpt>
      <trkpt lat="43.1312006" lon="-2.7815616">
        <ele>116.944</ele>
        <time>2021-04-01T08:15:52.875Z</time>
      </trkpt>
      <trkpt lat="43.1311499" lon="-2.7815094">
        <ele>117.378</ele>
        <time>2021-04-01T08:15:53.333Z</time>
      </trkpt>
      <trkpt lat="43.1311082" lon="-2.7814651">
        <ele>117.472</ele>
        <time>2021-04-01T08:15:53.791Z</time>
      </trkpt>
      <trkpt lat="43.1310976" lon="-2.7814539">
        <ele>117.499</ele>
        <time>2021-04-01T08:15:54.249Z</time>
      </trkpt>
      <trkpt lat="43.1311082" lon="-2.7814651">
        <ele>117.472</ele>
        <time>2021-04-01T08:15:54.708Z</time>
      </trkpt>
      <trkpt lat="43.1310976" lon="-2.7814539">
        <ele>117.499</ele>
        <time>2021-04-01T08:15:55.166Z</time>
      </trkpt>
      <trkpt lat="43.1310199" lon="-2.7813731">
        <ele>117.934</ele>
        <time>2021-04-01T08:15:56.890Z</time>
      </trkpt>
      <trkpt lat="43.1309627" lon="-2.7813119">
        <ele>117.664</ele>
        <time>2021-04-01T08:15:57.275Z</time>
      </trkpt>
      <trkpt lat="43.130944" lon="-2.7812935">
        <ele>117.713</ele>
        <time>2021-04-01T08:15:57.660Z</time>
      </trkpt>
      <trkpt lat="43.1309058" lon="-2.7812583">
        <ele>117.829</ele>
        <time>2021-04-01T08:15:59.750Z</time>
      </trkpt>
      <trkpt lat="43.1308231" lon="-2.7811789">
        <ele>118.1</ele>
        <time>2021-04-01T08:16:00.286Z</time>
      </trkpt>
      <trkpt lat="43.1308156" lon="-2.78117">
        <ele>118.254</ele>
        <time>2021-04-01T08:16:00.822Z</time>
      </trkpt>
      <trkpt lat="43.1308156" lon="-2.78117">
        <ele>118.254</ele>
        <time>2021-04-01T08:16:01.358Z</time>
      </trkpt>
      <trkpt lat="43.1307216" lon="-2.7810711">
        <ele>118.776</ele>
        <time>2021-04-01T08:16:02.940Z</time>
      </trkpt>
      <trkpt lat="43.1306708" lon="-2.7810198">
        <ele>119.161</ele>
        <time>2021-04-01T08:16:04.700Z</time>
      </trkpt>
      <trkpt lat="43.1305866" lon="-2.7809335">
        <ele>119.461</ele>
        <time>2021-04-01T08:16:04.825Z</time>
      </trkpt>
      <trkpt lat="43.1305844" lon="-2.7809308">
        <ele>119.474</ele>
        <time>2021-04-01T08:16:04.951Z</time>
      </trkpt>
      <trkpt lat="43.1305866" lon="-2.7809335">
        <ele>119.461</ele>
        <time>2021-04-01T08:16:05.077Z</time>
      </trkpt>
      <trkpt lat="43.1305844" lon="-2.7809308">
        <ele>119.474</ele>
        <time>2021-04-01T08:16:05.202Z</time>
      </trkpt>
      <trkpt lat="43.1305866" lon="-2.7809335">
        <ele>119.461</ele>
        <time>2021-04-01T08:16:05.328Z</time>
      </trkpt>
      <trkpt lat="43.1305844" lon="-2.7809308">
        <ele>119.474</ele>
        <time>2021-04-01T08:16:05.454Z</time>
      </trkpt>
      <trkpt lat="43.1305445" lon="-2.7808933">
        <ele>119.382</ele>
        <time>2021-04-01T08:16:07.890Z</time>
      </trkpt>
      <trkpt lat="43.1304313" lon="-2.7807884">
        <ele>119.57</ele>
        <time>2021-04-01T08:16:08.192Z</time>
      </trkpt>
      <trkpt lat="43.1304341" lon="-2.7807909">
        <ele>119.575</ele>
        <time>2021-04-01T08:16:08.495Z</time>
      </trkpt>
      <trkpt lat="43.1304313" lon="-2.7807884">
        <ele>119.57</ele>
        <time>2021-04-01T08:16:08.797Z</time>
      </trkpt>
      <trkpt lat="43.1304341" lon="-2.7807909">
        <ele>119.575</ele>
        <time>2021-04-01T08:16:09.100Z</time>
      </trkpt>
      <trkpt lat="43.1304313" lon="-2.7807884">
        <ele>119.57</ele>
        <time>2021-04-01T08:16:09.402Z</time>
      </trkpt>
      <trkpt lat="43.1303434" lon="-2.7806983">
        <ele>120.307</ele>
        <time>2021-04-01T08:16:11.025Z</time>
      </trkpt>
      <trkpt lat="43.1302824" lon="-2.7806324">
        <ele>120.705</ele>
        <time>2021-04-01T08:16:11.388Z</time>
      </trkpt>
      <trkpt lat="43.1302798" lon="-2.7806297">
        <ele>120.703</ele>
        <time>2021-04-01T08:16:11.751Z</time>
      </trkpt>
      <trkpt lat="43.1302824" lon="-2.7806324">
        <ele>120.705</ele>
        <time>2021-04-01T08:16:12.114Z</time>
      </trkpt>
      <trkpt lat="43.1302798" lon="-2.7806297">
        <ele>120.703</ele>
        <time>2021-04-01T08:16:12.477Z</time>
      </trkpt>
      <trkpt lat="43.1301981" lon="-2.7805471">
        <ele>120.74</ele>
        <time>2021-04-01T08:16:12.840Z</time>
      </trkpt>
      <trkpt lat="43.130087" lon="-2.7804339">
        <ele>120.857</ele>
        <time>2021-04-01T08:16:15.260Z</time>
      </trkpt>
      <trkpt lat="43.129923" lon="-2.7802685">
        <ele>120.621</ele>
        <time>2021-04-01T08:16:18.835Z</time>
      </trkpt>
      <trkpt lat="43.1299179" lon="-2.7802634">
        <ele>120.633</ele>
        <time>2021-04-01T08:16:19.066Z</time>
      </trkpt>
      <trkpt lat="43.1299081" lon="-2.7802532">
        <ele>120.65</ele>
        <time>2021-04-01T08:16:19.297Z</time>
      </trkpt>
      <trkpt lat="43.1299179" lon="-2.7802634">
        <ele>120.633</ele>
        <time>2021-04-01T08:16:19.528Z</time>
      </trkpt>
      <trkpt lat="43.1299081" lon="-2.7802532">
        <ele>120.65</ele>
        <time>2021-04-01T08:16:19.759Z</time>
      </trkpt>
      <trkpt lat="43.1298708" lon="-2.780216">
        <ele>120.733</ele>
        <time>2021-04-01T08:16:21.860Z</time>
      </trkpt>
      <trkpt lat="43.1297889" lon="-2.7801317">
        <ele>120.782</ele>
        <time>2021-04-01T08:16:22.245Z</time>
      </trkpt>
      <trkpt lat="43.1297698" lon="-2.7801111">
        <ele>120.869</ele>
        <time>2021-04-01T08:16:22.630Z</time>
      </trkpt>
      <trkpt lat="43.1297698" lon="-2.7801111">
        <ele>120.869</ele>
        <time>2021-04-01T08:16:23.015Z</time>
      </trkpt>
      <trkpt lat="43.1297223" lon="-2.7800596">
        <ele>121.031</ele>
        <time>2021-04-01T08:16:23.400Z</time>
      </trkpt>
      <trkpt lat="43.1296981" lon="-2.7800345">
        <ele>121.156</ele>
        <time>2021-04-01T08:16:23.540Z</time>
      </trkpt>
      <trkpt lat="43.1296957" lon="-2.7800321">
        <ele>121.166</ele>
        <time>2021-04-01T08:16:23.681Z</time>
      </trkpt>
      <trkpt lat="43.1297032" lon="-2.7800392">
        <ele>121.157</ele>
        <time>2021-04-01T08:16:23.821Z</time>
      </trkpt>
      <trkpt lat="43.1296981" lon="-2.7800345">
        <ele>121.156</ele>
        <time>2021-04-01T08:16:23.962Z</time>
      </trkpt>
      <trkpt lat="43.1296957" lon="-2.7800321">
        <ele>121.166</ele>
        <time>2021-04-01T08:16:24.102Z</time>
      </trkpt>
      <trkpt lat="43.1297032" lon="-2.7800392">
        <ele>121.157</ele>
        <time>2021-04-01T08:16:24.243Z</time>
      </trkpt>
      <trkpt lat="43.1296981" lon="-2.7800345">
        <ele>121.156</ele>
        <time>2021-04-01T08:16:24.383Z</time>
      </trkpt>
      <trkpt lat="43.1296957" lon="-2.7800321">
        <ele>121.166</ele>
        <time>2021-04-01T08:16:24.524Z</time>
      </trkpt>
      <trkpt lat="43.1296664" lon="-2.7800033">
        <ele>121.235</ele>
        <time>2021-04-01T08:16:26.975Z</time>
      </trkpt>
      <trkpt lat="43.1295635" lon="-2.7799025">
        <ele>121.245</ele>
        <time>2021-04-01T08:16:27.525Z</time>
      </trkpt>
      <trkpt lat="43.1295472" lon="-2.7798839">
        <ele>121.416</ele>
        <time>2021-04-01T08:16:28.075Z</time>
      </trkpt>
      <trkpt lat="43.1294926" lon="-2.7798272">
        <ele>121.256</ele>
        <time>2021-04-01T08:16:30.055Z</time>
      </trkpt>
      <trkpt lat="43.1294298" lon="-2.7797657">
        <ele>121.079</ele>
        <time>2021-04-01T08:16:31.045Z</time>
      </trkpt>
      <trkpt lat="43.1294274" lon="-2.7797635">
        <ele>121.056</ele>
        <time>2021-04-01T08:16:31.287Z</time>
      </trkpt>
      <trkpt lat="43.1294182" lon="-2.7797548">
        <ele>121.016</ele>
        <time>2021-04-01T08:16:31.529Z</time>
      </trkpt>
      <trkpt lat="43.1294298" lon="-2.7797657">
        <ele>121.079</ele>
        <time>2021-04-01T08:16:31.771Z</time>
      </trkpt>
      <trkpt lat="43.1294274" lon="-2.7797635">
        <ele>121.056</ele>
        <time>2021-04-01T08:16:32.013Z</time>
      </trkpt>
      <trkpt lat="43.1294182" lon="-2.7797548">
        <ele>121.016</ele>
        <time>2021-04-01T08:16:32.255Z</time>
      </trkpt>
      <trkpt lat="43.1293366" lon="-2.7796725">
        <ele>120.712</ele>
        <time>2021-04-01T08:16:32.777Z</time>
      </trkpt>
      <trkpt lat="43.1292944" lon="-2.7796302">
        <ele>120.761</ele>
        <time>2021-04-01T08:16:33.300Z</time>
      </trkpt>
      <trkpt lat="43.1292944" lon="-2.7796302">
        <ele>120.761</ele>
        <time>2021-04-01T08:16:33.822Z</time>
      </trkpt>
      <trkpt lat="43.1292469" lon="-2.7795844">
        <ele>120.936</ele>
        <time>2021-04-01T08:16:34.345Z</time>
      </trkpt>
      <trkpt lat="43.1292172" lon="-2.7795532">
        <ele>121.2</ele>
        <time>2021-04-01T08:16:34.548Z</time>
      </trkpt>
      <trkpt lat="43.1292241" lon="-2.7795605">
        <ele>121.227</ele>
        <time>2021-04-01T08:16:34.752Z</time>
      </trkpt>
      <trkpt lat="43.129222" lon="-2.7795581">
        <ele>121.225</ele>
        <time>2021-04-01T08:16:34.955Z</time>
      </trkpt>
      <trkpt lat="43.1292196" lon="-2.7795557">
        <ele>121.213</ele>
        <time>2021-04-01T08:16:35.159Z</time>
      </trkpt>
      <trkpt lat="43.1292172" lon="-2.7795532">
        <ele>121.2</ele>
        <time>2021-04-01T08:16:35.362Z</time>
      </trkpt>
      <trkpt lat="43.1292241" lon="-2.7795605">
        <ele>121.227</ele>
        <time>2021-04-01T08:16:35.566Z</time>
      </trkpt>
      <trkpt lat="43.129222" lon="-2.7795581">
        <ele>121.225</ele>
        <time>2021-04-01T08:16:35.769Z</time>
      </trkpt>
      <trkpt lat="43.1292196" lon="-2.7795557">
        <ele>121.213</ele>
        <time>2021-04-01T08:16:35.973Z</time>
      </trkpt>
      <trkpt lat="43.1292172" lon="-2.7795532">
        <ele>121.2</ele>
        <time>2021-04-01T08:16:36.176Z</time>
      </trkpt>
      <trkpt lat="43.129163" lon="-2.7794942">
        <ele>121.223</ele>
        <time>2021-04-01T08:16:37.865Z</time>
      </trkpt>
      <trkpt lat="43.1291008" lon="-2.7794336">
        <ele>120.936</ele>
        <time>2021-04-01T08:16:38.263Z</time>
      </trkpt>
      <trkpt lat="43.1290822" lon="-2.7794151">
        <ele>120.966</ele>
        <time>2021-04-01T08:16:38.662Z</time>
      </trkpt>
      <trkpt lat="43.1290822" lon="-2.7794151">
        <ele>120.966</ele>
        <time>2021-04-01T08:16:39.061Z</time>
      </trkpt>
      <trkpt lat="43.1290353" lon="-2.7793648">
        <ele>121.151</ele>
        <time>2021-04-01T08:16:40.945Z</time>
      </trkpt>
      <trkpt lat="43.1289727" lon="-2.7793051">
        <ele>121.199</ele>
        <time>2021-04-01T08:16:41.990Z</time>
      </trkpt>
      <trkpt lat="43.1289307" lon="-2.7792576">
        <ele>122.202</ele>
        <time>2021-04-01T08:16:42.364Z</time>
      </trkpt>
      <trkpt lat="43.1288833" lon="-2.779205">
        <ele>122.646</ele>
        <time>2021-04-01T08:16:42.738Z</time>
      </trkpt>
      <trkpt lat="43.1288833" lon="-2.779205">
        <ele>122.646</ele>
        <time>2021-04-01T08:16:43.112Z</time>
      </trkpt>
      <trkpt lat="43.1288833" lon="-2.779205">
        <ele>122.646</ele>
        <time>2021-04-01T08:16:43.486Z</time>
      </trkpt>
      <trkpt lat="43.1288568" lon="-2.7791782">
        <ele>122.517</ele>
        <time>2021-04-01T08:16:45.950Z</time>
      </trkpt>
      <trkpt lat="43.128773" lon="-2.7790932">
        <ele>123.324</ele>
        <time>2021-04-01T08:16:47.655Z</time>
      </trkpt>
      <trkpt lat="43.1287622" lon="-2.7790825">
        <ele>123.423</ele>
        <time>2021-04-01T08:16:47.728Z</time>
      </trkpt>
      <trkpt lat="43.1287687" lon="-2.7790889">
        <ele>123.246</ele>
        <time>2021-04-01T08:16:47.801Z</time>
      </trkpt>
      <trkpt lat="43.1287666" lon="-2.7790868">
        <ele>123.24</ele>
        <time>2021-04-01T08:16:47.874Z</time>
      </trkpt>
      <trkpt lat="43.1287645" lon="-2.7790847">
        <ele>123.244</ele>
        <time>2021-04-01T08:16:47.948Z</time>
      </trkpt>
      <trkpt lat="43.1287622" lon="-2.7790825">
        <ele>123.423</ele>
        <time>2021-04-01T08:16:48.021Z</time>
      </trkpt>
      <trkpt lat="43.1287687" lon="-2.7790889">
        <ele>123.246</ele>
        <time>2021-04-01T08:16:48.094Z</time>
      </trkpt>
      <trkpt lat="43.1287666" lon="-2.7790868">
        <ele>123.24</ele>
        <time>2021-04-01T08:16:48.168Z</time>
      </trkpt>
      <trkpt lat="43.1287645" lon="-2.7790847">
        <ele>123.244</ele>
        <time>2021-04-01T08:16:48.241Z</time>
      </trkpt>
      <trkpt lat="43.1287622" lon="-2.7790825">
        <ele>123.423</ele>
        <time>2021-04-01T08:16:48.314Z</time>
      </trkpt>
      <trkpt lat="43.1287047" lon="-2.7790263">
        <ele>123.226</ele>
        <time>2021-04-01T08:16:48.388Z</time>
      </trkpt>
      <trkpt lat="43.1287024" lon="-2.779024">
        <ele>123.185</ele>
        <time>2021-04-01T08:16:48.461Z</time>
      </trkpt>
      <trkpt lat="43.1287047" lon="-2.7790263">
        <ele>123.226</ele>
        <time>2021-04-01T08:16:48.534Z</time>
      </trkpt>
      <trkpt lat="43.1286933" lon="-2.7790157">
        <ele>123.099</ele>
        <time>2021-04-01T08:16:48.608Z</time>
      </trkpt>
      <trkpt lat="43.1286933" lon="-2.7790157">
        <ele>123.099</ele>
        <time>2021-04-01T08:16:48.681Z</time>
      </trkpt>
      <trkpt lat="43.1286601" lon="-2.778982">
        <ele>123.168</ele>
        <time>2021-04-01T08:16:48.755Z</time>
      </trkpt>
      <trkpt lat="43.1286425" lon="-2.778964">
        <ele>123.314</ele>
        <time>2021-04-01T08:16:49.085Z</time>
      </trkpt>
      <trkpt lat="43.128647" lon="-2.7789685">
        <ele>123.285</ele>
        <time>2021-04-01T08:16:49.415Z</time>
      </trkpt>
      <trkpt lat="43.1286425" lon="-2.778964">
        <ele>123.314</ele>
        <time>2021-04-01T08:16:49.745Z</time>
      </trkpt>
      <trkpt lat="43.128647" lon="-2.7789685">
        <ele>123.285</ele>
        <time>2021-04-01T08:16:50.075Z</time>
      </trkpt>
      <trkpt lat="43.1286425" lon="-2.778964">
        <ele>123.314</ele>
        <time>2021-04-01T08:16:50.405Z</time>
      </trkpt>
      <trkpt lat="43.1285804" lon="-2.7789026">
        <ele>123.295</ele>
        <time>2021-04-01T08:16:50.735Z</time>
      </trkpt>
      <trkpt lat="43.128576" lon="-2.7788979">
        <ele>123.345</ele>
        <time>2021-04-01T08:16:50.996Z</time>
      </trkpt>
      <trkpt lat="43.1285804" lon="-2.7789026">
        <ele>123.295</ele>
        <time>2021-04-01T08:16:51.257Z</time>
      </trkpt>
      <trkpt lat="43.128576" lon="-2.7788979">
        <ele>123.345</ele>
        <time>2021-04-01T08:16:51.518Z</time>
      </trkpt>
      <trkpt lat="43.1285392" lon="-2.7788561">
        <ele>124.296</ele>
        <time>2021-04-01T08:16:54.090Z</time>
      </trkpt>
      <trkpt lat="43.1284483" lon="-2.7787615">
        <ele>124.657</ele>
        <time>2021-04-01T08:16:54.183Z</time>
      </trkpt>
      <trkpt lat="43.1284438" lon="-2.7787573">
        <ele>124.54</ele>
        <time>2021-04-01T08:16:54.277Z</time>
      </trkpt>
      <trkpt lat="43.1284417" lon="-2.7787553">
        <ele>124.569</ele>
        <time>2021-04-01T08:16:54.370Z</time>
      </trkpt>
      <trkpt lat="43.1284396" lon="-2.7787534">
        <ele>124.573</ele>
        <time>2021-04-01T08:16:54.464Z</time>
      </trkpt>
      <trkpt lat="43.1284372" lon="-2.7787512">
        <ele>124.593</ele>
        <time>2021-04-01T08:16:54.557Z</time>
      </trkpt>
      <trkpt lat="43.1284438" lon="-2.7787573">
        <ele>124.54</ele>
        <time>2021-04-01T08:16:54.651Z</time>
      </trkpt>
      <trkpt lat="43.1284417" lon="-2.7787553">
        <ele>124.569</ele>
        <time>2021-04-01T08:16:54.744Z</time>
      </trkpt>
      <trkpt lat="43.1284396" lon="-2.7787534">
        <ele>124.573</ele>
        <time>2021-04-01T08:16:54.838Z</time>
      </trkpt>
      <trkpt lat="43.1284372" lon="-2.7787512">
        <ele>124.593</ele>
        <time>2021-04-01T08:16:54.931Z</time>
      </trkpt>
      <trkpt lat="43.1284116" lon="-2.7787246">
        <ele>124.628</ele>
        <time>2021-04-01T08:16:55.025Z</time>
      </trkpt>
      <trkpt lat="43.1283405" lon="-2.7786527">
        <ele>125.089</ele>
        <time>2021-04-01T08:16:56.895Z</time>
      </trkpt>
      <trkpt lat="43.128328" lon="-2.7786402">
        <ele>125.218</ele>
        <time>2021-04-01T08:16:57.208Z</time>
      </trkpt>
      <trkpt lat="43.128326" lon="-2.7786379">
        <ele>125.249</ele>
        <time>2021-04-01T08:16:57.522Z</time>
      </trkpt>
      <trkpt lat="43.128324" lon="-2.7786357">
        <ele>125.277</ele>
        <time>2021-04-01T08:16:57.835Z</time>
      </trkpt>
      <trkpt lat="43.128328" lon="-2.7786402">
        <ele>125.218</ele>
        <time>2021-04-01T08:16:58.149Z</time>
      </trkpt>
      <trkpt lat="43.128326" lon="-2.7786379">
        <ele>125.249</ele>
        <time>2021-04-01T08:16:58.462Z</time>
      </trkpt>
      <trkpt lat="43.128324" lon="-2.7786357">
        <ele>125.277</ele>
        <time>2021-04-01T08:16:58.776Z</time>
      </trkpt>
      <trkpt lat="43.128328" lon="-2.7786402">
        <ele>125.218</ele>
        <time>2021-04-01T08:16:59.089Z</time>
      </trkpt>
      <trkpt lat="43.128326" lon="-2.7786379">
        <ele>125.249</ele>
        <time>2021-04-01T08:16:59.403Z</time>
      </trkpt>
      <trkpt lat="43.128324" lon="-2.7786357">
        <ele>125.277</ele>
        <time>2021-04-01T08:16:59.716Z</time>
      </trkpt>
      <trkpt lat="43.1282241" lon="-2.7785329">
        <ele>125.603</ele>
        <time>2021-04-01T08:17:01.405Z</time>
      </trkpt>
      <trkpt lat="43.1282137" lon="-2.778523">
        <ele>125.634</ele>
        <time>2021-04-01T08:17:01.618Z</time>
      </trkpt>
      <trkpt lat="43.1282199" lon="-2.7785291">
        <ele>125.664</ele>
        <time>2021-04-01T08:17:01.832Z</time>
      </trkpt>
      <trkpt lat="43.1282178" lon="-2.7785271">
        <ele>125.701</ele>
        <time>2021-04-01T08:17:02.046Z</time>
      </trkpt>
      <trkpt lat="43.1282156" lon="-2.7785251">
        <ele>125.68</ele>
        <time>2021-04-01T08:17:02.260Z</time>
      </trkpt>
      <trkpt lat="43.1282137" lon="-2.778523">
        <ele>125.634</ele>
        <time>2021-04-01T08:17:02.474Z</time>
      </trkpt>
      <trkpt lat="43.1282199" lon="-2.7785291">
        <ele>125.664</ele>
        <time>2021-04-01T08:17:02.688Z</time>
      </trkpt>
      <trkpt lat="43.1282178" lon="-2.7785271">
        <ele>125.701</ele>
        <time>2021-04-01T08:17:02.902Z</time>
      </trkpt>
      <trkpt lat="43.1282156" lon="-2.7785251">
        <ele>125.68</ele>
        <time>2021-04-01T08:17:03.116Z</time>
      </trkpt>
      <trkpt lat="43.1282137" lon="-2.778523">
        <ele>125.634</ele>
        <time>2021-04-01T08:17:03.330Z</time>
      </trkpt>
      <trkpt lat="43.1281014" lon="-2.7784133">
        <ele>126.411</ele>
        <time>2021-04-01T08:17:05.420Z</time>
      </trkpt>
      <trkpt lat="43.128026" lon="-2.7783356">
        <ele>126.849</ele>
        <time>2021-04-01T08:17:05.933Z</time>
      </trkpt>
      <trkpt lat="43.128026" lon="-2.7783356">
        <ele>126.849</ele>
        <time>2021-04-01T08:17:06.446Z</time>
      </trkpt>
      <trkpt lat="43.1279688" lon="-2.7782829">
        <ele>127.878</ele>
        <time>2021-04-01T08:17:08.280Z</time>
      </trkpt>
      <trkpt lat="43.1279152" lon="-2.7782406">
        <ele>128.815</ele>
        <time>2021-04-01T08:17:09.000Z</time>
      </trkpt>
      <trkpt lat="43.1278858" lon="-2.7782242">
        <ele>128.753</ele>
        <time>2021-04-01T08:17:09.250Z</time>
      </trkpt>
      <trkpt lat="43.1278518" lon="-2.7781991">
        <ele>129.374</ele>
        <time>2021-04-01T08:17:09.500Z</time>
      </trkpt>
      <trkpt lat="43.1278707" lon="-2.7782135">
        <ele>128.995</ele>
        <time>2021-04-01T08:17:09.750Z</time>
      </trkpt>
      <trkpt lat="43.1278388" lon="-2.7781898">
        <ele>129.577</ele>
        <time>2021-04-01T08:17:10.000Z</time>
      </trkpt>
      <trkpt lat="43.127841" lon="-2.7781915">
        <ele>129.539</ele>
        <time>2021-04-01T08:17:10.250Z</time>
      </trkpt>
      <trkpt lat="43.1278388" lon="-2.7781898">
        <ele>129.577</ele>
        <time>2021-04-01T08:17:10.500Z</time>
      </trkpt>
      <trkpt lat="43.127841" lon="-2.7781915">
        <ele>129.539</ele>
        <time>2021-04-01T08:17:10.750Z</time>
      </trkpt>
      <trkpt lat="43.1278388" lon="-2.7781898">
        <ele>129.577</ele>
        <time>2021-04-01T08:17:11.000Z</time>
      </trkpt>
      <trkpt lat="43.127797" lon="-2.7781606">
        <ele>129.948</ele>
        <time>2021-04-01T08:17:11.250Z</time>
      </trkpt>
      <trkpt lat="43.1277859" lon="-2.7781546">
        <ele>129.903</ele>
        <time>2021-04-01T08:17:11.616Z</time>
      </trkpt>
      <trkpt lat="43.1277772" lon="-2.7781485">
        <ele>129.955</ele>
        <time>2021-04-01T08:17:11.983Z</time>
      </trkpt>
      <trkpt lat="43.127797" lon="-2.7781606">
        <ele>129.948</ele>
        <time>2021-04-01T08:17:12.350Z</time>
      </trkpt>
      <trkpt lat="43.1277859" lon="-2.7781546">
        <ele>129.903</ele>
        <time>2021-04-01T08:17:12.716Z</time>
      </trkpt>
      <trkpt lat="43.1277772" lon="-2.7781485">
        <ele>129.955</ele>
        <time>2021-04-01T08:17:13.083Z</time>
      </trkpt>
      <trkpt lat="43.1277083" lon="-2.7781055">
        <ele>130.132</ele>
        <time>2021-04-01T08:17:13.450Z</time>
      </trkpt>
      <trkpt lat="43.1277083" lon="-2.7781055">
        <ele>130.132</ele>
        <time>2021-04-01T08:17:14.715Z</time>
      </trkpt>
      <trkpt lat="43.1276043" lon="-2.7780462">
        <ele>130.749</ele>
        <time>2021-04-01T08:17:17.080Z</time>
      </trkpt>
      <trkpt lat="43.1275599" lon="-2.7780188">
        <ele>131.072</ele>
        <time>2021-04-01T08:17:17.586Z</time>
      </trkpt>
      <trkpt lat="43.1275167" lon="-2.7779957">
        <ele>130.932</ele>
        <time>2021-04-01T08:17:18.092Z</time>
      </trkpt>
      <trkpt lat="43.1275167" lon="-2.7779957">
        <ele>130.932</ele>
        <time>2021-04-01T08:17:18.598Z</time>
      </trkpt>
      <trkpt lat="43.1275167" lon="-2.7779957">
        <ele>130.932</ele>
        <time>2021-04-01T08:17:19.104Z</time>
      </trkpt>
      <trkpt lat="43.1274557" lon="-2.7779605">
        <ele>131.395</ele>
        <time>2021-04-01T08:17:19.610Z</time>
      </trkpt>
      <trkpt lat="43.1274603" lon="-2.7779632">
        <ele>131.361</ele>
        <time>2021-04-01T08:17:19.861Z</time>
      </trkpt>
      <trkpt lat="43.1274581" lon="-2.7779618">
        <ele>131.381</ele>
        <time>2021-04-01T08:17:20.112Z</time>
      </trkpt>
      <trkpt lat="43.1274557" lon="-2.7779605">
        <ele>131.395</ele>
        <time>2021-04-01T08:17:20.364Z</time>
      </trkpt>
      <trkpt lat="43.1274603" lon="-2.7779632">
        <ele>131.361</ele>
        <time>2021-04-01T08:17:20.615Z</time>
      </trkpt>
      <trkpt lat="43.1274581" lon="-2.7779618">
        <ele>131.381</ele>
        <time>2021-04-01T08:17:20.867Z</time>
      </trkpt>
      <trkpt lat="43.1274557" lon="-2.7779605">
        <ele>131.395</ele>
        <time>2021-04-01T08:17:21.118Z</time>
      </trkpt>
      <trkpt lat="43.1273831" lon="-2.7779128">
        <ele>132.162</ele>
        <time>2021-04-01T08:17:22.470Z</time>
      </trkpt>
      <trkpt lat="43.1273924" lon="-2.7779186">
        <ele>132.146</ele>
        <time>2021-04-01T08:17:22.703Z</time>
      </trkpt>
      <trkpt lat="43.1273831" lon="-2.7779128">
        <ele>132.162</ele>
        <time>2021-04-01T08:17:22.937Z</time>
      </trkpt>
      <trkpt lat="43.1273924" lon="-2.7779186">
        <ele>132.146</ele>
        <time>2021-04-01T08:17:23.171Z</time>
      </trkpt>
      <trkpt lat="43.1273831" lon="-2.7779128">
        <ele>132.162</ele>
        <time>2021-04-01T08:17:23.405Z</time>
      </trkpt>
      <trkpt lat="43.127298" lon="-2.7778546">
        <ele>132.566</ele>
        <time>2021-04-01T08:17:25.495Z</time>
      </trkpt>
      <trkpt lat="43.1272066" lon="-2.7777971">
        <ele>133.79</ele>
        <time>2021-04-01T08:17:25.864Z</time>
      </trkpt>
      <trkpt lat="43.1272041" lon="-2.7777955">
        <ele>133.855</ele>
        <time>2021-04-01T08:17:26.233Z</time>
      </trkpt>
      <trkpt lat="43.127192" lon="-2.7777882">
        <ele>133.997</ele>
        <time>2021-04-01T08:17:26.602Z</time>
      </trkpt>
      <trkpt lat="43.1272066" lon="-2.7777971">
        <ele>133.79</ele>
        <time>2021-04-01T08:17:26.972Z</time>
      </trkpt>
      <trkpt lat="43.1272041" lon="-2.7777955">
        <ele>133.855</ele>
        <time>2021-04-01T08:17:27.341Z</time>
      </trkpt>
      <trkpt lat="43.127192" lon="-2.7777882">
        <ele>133.997</ele>
        <time>2021-04-01T08:17:27.710Z</time>
      </trkpt>
      <trkpt lat="43.1270912" lon="-2.7777271">
        <ele>134.58</ele>
        <time>2021-04-01T08:17:28.465Z</time>
      </trkpt>
      <trkpt lat="43.1270737" lon="-2.7777168">
        <ele>134.724</ele>
        <time>2021-04-01T08:17:28.615Z</time>
      </trkpt>
      <trkpt lat="43.1270492" lon="-2.7777026">
        <ele>134.633</ele>
        <time>2021-04-01T08:17:28.765Z</time>
      </trkpt>
      <trkpt lat="43.1270418" lon="-2.7776983">
        <ele>134.707</ele>
        <time>2021-04-01T08:17:28.915Z</time>
      </trkpt>
      <trkpt lat="43.1270365" lon="-2.7776953">
        <ele>134.766</ele>
        <time>2021-04-01T08:17:29.065Z</time>
      </trkpt>
      <trkpt lat="43.1270492" lon="-2.7777026">
        <ele>134.633</ele>
        <time>2021-04-01T08:17:29.215Z</time>
      </trkpt>
      <trkpt lat="43.1270418" lon="-2.7776983">
        <ele>134.707</ele>
        <time>2021-04-01T08:17:29.365Z</time>
      </trkpt>
      <trkpt lat="43.1270365" lon="-2.7776953">
        <ele>134.766</ele>
        <time>2021-04-01T08:17:29.515Z</time>
      </trkpt>
      <trkpt lat="43.1270492" lon="-2.7777026">
        <ele>134.633</ele>
        <time>2021-04-01T08:17:29.665Z</time>
      </trkpt>
      <trkpt lat="43.1270418" lon="-2.7776983">
        <ele>134.707</ele>
        <time>2021-04-01T08:17:29.815Z</time>
      </trkpt>
      <trkpt lat="43.1270365" lon="-2.7776953">
        <ele>134.766</ele>
        <time>2021-04-01T08:17:29.965Z</time>
      </trkpt>
      <trkpt lat="43.1269997" lon="-2.777672">
        <ele>135.27</ele>
        <time>2021-04-01T08:17:31.765Z</time>
      </trkpt>
      <trkpt lat="43.1269271" lon="-2.7776272">
        <ele>135.702</ele>
        <time>2021-04-01T08:17:32.810Z</time>
      </trkpt>
      <trkpt lat="43.1268807" lon="-2.7775969">
        <ele>136.147</ele>
        <time>2021-04-01T08:17:33.483Z</time>
      </trkpt>
      <trkpt lat="43.126854" lon="-2.7775788">
        <ele>136.286</ele>
        <time>2021-04-01T08:17:34.157Z</time>
      </trkpt>
      <trkpt lat="43.126854" lon="-2.7775788">
        <ele>136.286</ele>
        <time>2021-04-01T08:17:34.831Z</time>
      </trkpt>
      <trkpt lat="43.1267597" lon="-2.7775211">
        <ele>136.109</ele>
        <time>2021-04-01T08:17:36.550Z</time>
      </trkpt>
      <trkpt lat="43.1267126" lon="-2.7774941">
        <ele>135.926</ele>
        <time>2021-04-01T08:17:36.902Z</time>
      </trkpt>
      <trkpt lat="43.1267197" lon="-2.7774987">
        <ele>135.899</ele>
        <time>2021-04-01T08:17:37.254Z</time>
      </trkpt>
      <trkpt lat="43.1267151" lon="-2.7774957">
        <ele>135.91</ele>
        <time>2021-04-01T08:17:37.606Z</time>
      </trkpt>
      <trkpt lat="43.1267126" lon="-2.7774941">
        <ele>135.926</ele>
        <time>2021-04-01T08:17:37.958Z</time>
      </trkpt>
      <trkpt lat="43.1266355" lon="-2.7774462">
        <ele>135.758</ele>
        <time>2021-04-01T08:17:39.630Z</time>
      </trkpt>
      <trkpt lat="43.1265776" lon="-2.7774141">
        <ele>136.001</ele>
        <time>2021-04-01T08:17:39.836Z</time>
      </trkpt>
      <trkpt lat="43.1265496" lon="-2.777395">
        <ele>136.181</ele>
        <time>2021-04-01T08:17:40.042Z</time>
      </trkpt>
      <trkpt lat="43.1265589" lon="-2.7774013">
        <ele>136.119</ele>
        <time>2021-04-01T08:17:40.248Z</time>
      </trkpt>
      <trkpt lat="43.1265496" lon="-2.777395">
        <ele>136.181</ele>
        <time>2021-04-01T08:17:40.455Z</time>
      </trkpt>
      <trkpt lat="43.1265451" lon="-2.7773918">
        <ele>136.217</ele>
        <time>2021-04-01T08:17:40.661Z</time>
      </trkpt>
      <trkpt lat="43.1265496" lon="-2.777395">
        <ele>136.181</ele>
        <time>2021-04-01T08:17:40.867Z</time>
      </trkpt>
      <trkpt lat="43.1265451" lon="-2.7773918">
        <ele>136.217</ele>
        <time>2021-04-01T08:17:41.073Z</time>
      </trkpt>
      <trkpt lat="43.1265073" lon="-2.7773666">
        <ele>136.152</ele>
        <time>2021-04-01T08:17:41.280Z</time>
      </trkpt>
      <trkpt lat="43.1264954" lon="-2.7773597">
        <ele>135.992</ele>
        <time>2021-04-01T08:17:41.610Z</time>
      </trkpt>
      <trkpt lat="43.1264977" lon="-2.7773612">
        <ele>136.004</ele>
        <time>2021-04-01T08:17:41.940Z</time>
      </trkpt>
      <trkpt lat="43.1264954" lon="-2.7773597">
        <ele>135.992</ele>
        <time>2021-04-01T08:17:42.270Z</time>
      </trkpt>
      <trkpt lat="43.1264977" lon="-2.7773612">
        <ele>136.004</ele>
        <time>2021-04-01T08:17:42.600Z</time>
      </trkpt>
      <trkpt lat="43.1264954" lon="-2.7773597">
        <ele>135.992</ele>
        <time>2021-04-01T08:17:42.930Z</time>
      </trkpt>
      <trkpt lat="43.1264205" lon="-2.7773145">
        <ele>135.692</ele>
        <time>2021-04-01T08:17:44.305Z</time>
      </trkpt>
      <trkpt lat="43.1263746" lon="-2.7772856">
        <ele>135.686</ele>
        <time>2021-04-01T08:17:46.340Z</time>
      </trkpt>
      <trkpt lat="43.1262874" lon="-2.7772291">
        <ele>135.244</ele>
        <time>2021-04-01T08:17:48.100Z</time>
      </trkpt>
      <trkpt lat="43.1262109" lon="-2.7771849">
        <ele>135.283</ele>
        <time>2021-04-01T08:17:48.200Z</time>
      </trkpt>
      <trkpt lat="43.1262018" lon="-2.7771788">
        <ele>135.411</ele>
        <time>2021-04-01T08:17:48.301Z</time>
      </trkpt>
      <trkpt lat="43.1262156" lon="-2.7771873">
        <ele>135.333</ele>
        <time>2021-04-01T08:17:48.402Z</time>
      </trkpt>
      <trkpt lat="43.1262109" lon="-2.7771849">
        <ele>135.283</ele>
        <time>2021-04-01T08:17:48.503Z</time>
      </trkpt>
      <trkpt lat="43.1262018" lon="-2.7771788">
        <ele>135.411</ele>
        <time>2021-04-01T08:17:48.604Z</time>
      </trkpt>
      <trkpt lat="43.1261852" lon="-2.7771684">
        <ele>135.347</ele>
        <time>2021-04-01T08:17:50.245Z</time>
      </trkpt>
      <trkpt lat="43.1261197" lon="-2.7771306">
        <ele>134.497</ele>
        <time>2021-04-01T08:17:50.641Z</time>
      </trkpt>
      <trkpt lat="43.1260729" lon="-2.7771024">
        <ele>134.51</ele>
        <time>2021-04-01T08:17:51.037Z</time>
      </trkpt>
      <trkpt lat="43.1260729" lon="-2.7771024">
        <ele>134.51</ele>
        <time>2021-04-01T08:17:51.433Z</time>
      </trkpt>
      <trkpt lat="43.1260729" lon="-2.7771024">
        <ele>134.51</ele>
        <time>2021-04-01T08:17:51.829Z</time>
      </trkpt>
      <trkpt lat="43.1260354" lon="-2.777079">
        <ele>134.437</ele>
        <time>2021-04-01T08:17:52.225Z</time>
      </trkpt>
      <trkpt lat="43.126003" lon="-2.7770584">
        <ele>134.267</ele>
        <time>2021-04-01T08:17:52.390Z</time>
      </trkpt>
      <trkpt lat="43.12602" lon="-2.7770679">
        <ele>134.395</ele>
        <time>2021-04-01T08:17:52.555Z</time>
      </trkpt>
      <trkpt lat="43.1260053" lon="-2.7770598">
        <ele>134.227</ele>
        <time>2021-04-01T08:17:52.720Z</time>
      </trkpt>
      <trkpt lat="43.126003" lon="-2.7770584">
        <ele>134.267</ele>
        <time>2021-04-01T08:17:52.885Z</time>
      </trkpt>
      <trkpt lat="43.12602" lon="-2.7770679">
        <ele>134.395</ele>
        <time>2021-04-01T08:17:53.050Z</time>
      </trkpt>
      <trkpt lat="43.1260053" lon="-2.7770598">
        <ele>134.227</ele>
        <time>2021-04-01T08:17:53.215Z</time>
      </trkpt>
      <trkpt lat="43.126003" lon="-2.7770584">
        <ele>134.267</ele>
        <time>2021-04-01T08:17:53.380Z</time>
      </trkpt>
      <trkpt lat="43.125977" lon="-2.7770455">
        <ele>133.809</ele>
        <time>2021-04-01T08:17:53.545Z</time>
      </trkpt>
      <trkpt lat="43.1259315" lon="-2.7770155">
        <ele>134.035</ele>
        <time>2021-04-01T08:17:53.856Z</time>
      </trkpt>
      <trkpt lat="43.125948" lon="-2.7770296">
        <ele>133.81</ele>
        <time>2021-04-01T08:17:54.168Z</time>
      </trkpt>
      <trkpt lat="43.1259315" lon="-2.7770155">
        <ele>134.035</ele>
        <time>2021-04-01T08:17:54.480Z</time>
      </trkpt>
      <trkpt lat="43.125948" lon="-2.7770296">
        <ele>133.81</ele>
        <time>2021-04-01T08:17:54.791Z</time>
      </trkpt>
      <trkpt lat="43.1259315" lon="-2.7770155">
        <ele>134.035</ele>
        <time>2021-04-01T08:17:55.103Z</time>
      </trkpt>
      <trkpt lat="43.1259014" lon="-2.7769923">
        <ele>134.425</ele>
        <time>2021-04-01T08:17:57.230Z</time>
      </trkpt>
      <trkpt lat="43.1258701" lon="-2.7769698">
        <ele>133.86</ele>
        <time>2021-04-01T08:17:57.483Z</time>
      </trkpt>
      <trkpt lat="43.1258726" lon="-2.7769711">
        <ele>133.892</ele>
        <time>2021-04-01T08:17:57.736Z</time>
      </trkpt>
      <trkpt lat="43.1258701" lon="-2.7769698">
        <ele>133.86</ele>
        <time>2021-04-01T08:17:57.989Z</time>
      </trkpt>
      <trkpt lat="43.1258726" lon="-2.7769711">
        <ele>133.892</ele>
        <time>2021-04-01T08:17:58.242Z</time>
      </trkpt>
      <trkpt lat="43.1258701" lon="-2.7769698">
        <ele>133.86</ele>
        <time>2021-04-01T08:17:58.495Z</time>
      </trkpt>
      <trkpt lat="43.1257659" lon="-2.7769043">
        <ele>132.952</ele>
        <time>2021-04-01T08:17:58.746Z</time>
      </trkpt>
      <trkpt lat="43.1257234" lon="-2.7768782">
        <ele>132.02</ele>
        <time>2021-04-01T08:17:58.997Z</time>
      </trkpt>
      <trkpt lat="43.125749" lon="-2.776893">
        <ele>132.803</ele>
        <time>2021-04-01T08:17:59.249Z</time>
      </trkpt>
      <trkpt lat="43.1257234" lon="-2.7768782">
        <ele>132.02</ele>
        <time>2021-04-01T08:17:59.500Z</time>
      </trkpt>
      <trkpt lat="43.125749" lon="-2.776893">
        <ele>132.803</ele>
        <time>2021-04-01T08:17:59.752Z</time>
      </trkpt>
      <trkpt lat="43.1257234" lon="-2.7768782">
        <ele>132.02</ele>
        <time>2021-04-01T08:18:00.003Z</time>
      </trkpt>
      <trkpt lat="43.1256848" lon="-2.7768553">
        <ele>131.057</ele>
        <time>2021-04-01T08:18:00.255Z</time>
      </trkpt>
      <trkpt lat="43.1256716" lon="-2.7768441">
        <ele>130.733</ele>
        <time>2021-04-01T08:18:00.577Z</time>
      </trkpt>
      <trkpt lat="43.1256735" lon="-2.7768461">
        <ele>130.833</ele>
        <time>2021-04-01T08:18:00.899Z</time>
      </trkpt>
      <trkpt lat="43.1256716" lon="-2.7768441">
        <ele>130.733</ele>
        <time>2021-04-01T08:18:01.221Z</time>
      </trkpt>
      <trkpt lat="43.1256568" lon="-2.7768315">
        <ele>130.543</ele>
        <time>2021-04-01T08:18:01.543Z</time>
      </trkpt>
      <trkpt lat="43.1256716" lon="-2.7768441">
        <ele>130.733</ele>
        <time>2021-04-01T08:18:01.865Z</time>
      </trkpt>
      <trkpt lat="43.1256568" lon="-2.7768315">
        <ele>130.543</ele>
        <time>2021-04-01T08:18:02.187Z</time>
      </trkpt>
      <trkpt lat="43.1255998" lon="-2.776777">
        <ele>130.943</ele>
        <time>2021-04-01T08:18:02.510Z</time>
      </trkpt>
      <trkpt lat="43.1255977" lon="-2.7767751">
        <ele>130.968</ele>
        <time>2021-04-01T08:18:02.895Z</time>
      </trkpt>
      <trkpt lat="43.1255998" lon="-2.776777">
        <ele>130.943</ele>
        <time>2021-04-01T08:18:03.280Z</time>
      </trkpt>
      <trkpt lat="43.1255977" lon="-2.7767751">
        <ele>130.968</ele>
        <time>2021-04-01T08:18:03.665Z</time>
      </trkpt>
      <trkpt lat="43.1255998" lon="-2.776777">
        <ele>130.943</ele>
        <time>2021-04-01T08:18:04.050Z</time>
      </trkpt>
      <trkpt lat="43.1255977" lon="-2.7767751">
        <ele>130.968</ele>
        <time>2021-04-01T08:18:04.435Z</time>
      </trkpt>
      <trkpt lat="43.1255031" lon="-2.7766879">
        <ele>131.107</ele>
        <time>2021-04-01T08:18:05.590Z</time>
      </trkpt>
      <trkpt lat="43.1255341" lon="-2.7767192">
        <ele>131.222</ele>
        <time>2021-04-01T08:18:05.883Z</time>
      </trkpt>
      <trkpt lat="43.1255451" lon="-2.77673">
        <ele>131.217</ele>
        <time>2021-04-01T08:18:06.176Z</time>
      </trkpt>
      <trkpt lat="43.1255341" lon="-2.7767192">
        <ele>131.222</ele>
        <time>2021-04-01T08:18:06.470Z</time>
      </trkpt>
      <trkpt lat="43.1254377" lon="-2.7766285">
        <ele>129.439</ele>
        <time>2021-04-01T08:18:06.701Z</time>
      </trkpt>
      <trkpt lat="43.1254018" lon="-2.7765949">
        <ele>129.206</ele>
        <time>2021-04-01T08:18:06.932Z</time>
      </trkpt>
      <trkpt lat="43.1254018" lon="-2.7765949">
        <ele>129.206</ele>
        <time>2021-04-01T08:18:07.163Z</time>
      </trkpt>
      <trkpt lat="43.1254018" lon="-2.7765949">
        <ele>129.206</ele>
        <time>2021-04-01T08:18:07.394Z</time>
      </trkpt>
      <trkpt lat="43.1253896" lon="-2.7765849">
        <ele>129.072</ele>
        <time>2021-04-01T08:18:10.375Z</time>
      </trkpt>
      <trkpt lat="43.1252793" lon="-2.7764852">
        <ele>127.565</ele>
        <time>2021-04-01T08:18:11.530Z</time>
      </trkpt>
      <trkpt lat="43.1252351" lon="-2.77644">
        <ele>127.148</ele>
        <time>2021-04-01T08:18:12.061Z</time>
      </trkpt>
      <trkpt lat="43.1252351" lon="-2.77644">
        <ele>127.148</ele>
        <time>2021-04-01T08:18:12.593Z</time>
      </trkpt>
      <trkpt lat="43.1251744" lon="-2.7763806">
        <ele>126</ele>
        <time>2021-04-01T08:18:13.125Z</time>
      </trkpt>
      <trkpt lat="43.1251132" lon="-2.7763201">
        <ele>124.976</ele>
        <time>2021-04-01T08:18:17.140Z</time>
      </trkpt>
      <trkpt lat="43.1250275" lon="-2.7762214">
        <ele>124.356</ele>
        <time>2021-04-01T08:18:17.189Z</time>
      </trkpt>
      <trkpt lat="43.1250505" lon="-2.7762517">
        <ele>124.134</ele>
        <time>2021-04-01T08:18:17.239Z</time>
      </trkpt>
      <trkpt lat="43.1250482" lon="-2.7762494">
        <ele>124.125</ele>
        <time>2021-04-01T08:18:17.288Z</time>
      </trkpt>
      <trkpt lat="43.1250505" lon="-2.7762517">
        <ele>124.134</ele>
        <time>2021-04-01T08:18:17.338Z</time>
      </trkpt>
      <trkpt lat="43.1250482" lon="-2.7762494">
        <ele>124.125</ele>
        <time>2021-04-01T08:18:17.387Z</time>
      </trkpt>
      <trkpt lat="43.1250462" lon="-2.7762468">
        <ele>124.141</ele>
        <time>2021-04-01T08:18:17.437Z</time>
      </trkpt>
      <trkpt lat="43.1250505" lon="-2.7762517">
        <ele>124.134</ele>
        <time>2021-04-01T08:18:17.486Z</time>
      </trkpt>
      <trkpt lat="43.1250482" lon="-2.7762494">
        <ele>124.125</ele>
        <time>2021-04-01T08:18:17.536Z</time>
      </trkpt>
      <trkpt lat="43.1250462" lon="-2.7762468">
        <ele>124.141</ele>
        <time>2021-04-01T08:18:17.585Z</time>
      </trkpt>
      <trkpt lat="43.1250093" lon="-2.7762004">
        <ele>124.368</ele>
        <time>2021-04-01T08:18:19.010Z</time>
      </trkpt>
      <trkpt lat="43.1249593" lon="-2.7761415">
        <ele>124.931</ele>
        <time>2021-04-01T08:18:19.285Z</time>
      </trkpt>
      <trkpt lat="43.1249463" lon="-2.7761284">
        <ele>125.104</ele>
        <time>2021-04-01T08:18:19.560Z</time>
      </trkpt>
      <trkpt lat="43.1249445" lon="-2.7761264">
        <ele>125.118</ele>
        <time>2021-04-01T08:18:19.835Z</time>
      </trkpt>
      <trkpt lat="43.1249463" lon="-2.7761284">
        <ele>125.104</ele>
        <time>2021-04-01T08:18:20.110Z</time>
      </trkpt>
      <trkpt lat="43.1249445" lon="-2.7761264">
        <ele>125.118</ele>
        <time>2021-04-01T08:18:20.385Z</time>
      </trkpt>
      <trkpt lat="43.1249463" lon="-2.7761284">
        <ele>125.104</ele>
        <time>2021-04-01T08:18:20.660Z</time>
      </trkpt>
      <trkpt lat="43.1249445" lon="-2.7761264">
        <ele>125.118</ele>
        <time>2021-04-01T08:18:20.935Z</time>
      </trkpt>
      <trkpt lat="43.1248826" lon="-2.7760455">
        <ele>126.456</ele>
        <time>2021-04-01T08:18:22.255Z</time>
      </trkpt>
      <trkpt lat="43.1248441" lon="-2.776003">
        <ele>126.903</ele>
        <time>2021-04-01T08:18:22.598Z</time>
      </trkpt>
      <trkpt lat="43.1248342" lon="-2.7759921">
        <ele>126.97</ele>
        <time>2021-04-01T08:18:22.942Z</time>
      </trkpt>
      <trkpt lat="43.1248342" lon="-2.7759921">
        <ele>126.97</ele>
        <time>2021-04-01T08:18:23.286Z</time>
      </trkpt>
      <trkpt lat="43.1247965" lon="-2.7759517">
        <ele>127.154</ele>
        <time>2021-04-01T08:18:25.610Z</time>
      </trkpt>
      <trkpt lat="43.1247374" lon="-2.7758838">
        <ele>126.697</ele>
        <time>2021-04-01T08:18:25.892Z</time>
      </trkpt>
      <trkpt lat="43.1247297" lon="-2.775874">
        <ele>126.705</ele>
        <time>2021-04-01T08:18:26.175Z</time>
      </trkpt>
      <trkpt lat="43.1247229" lon="-2.775866">
        <ele>126.73</ele>
        <time>2021-04-01T08:18:26.458Z</time>
      </trkpt>
      <trkpt lat="43.1247374" lon="-2.7758838">
        <ele>126.697</ele>
        <time>2021-04-01T08:18:26.741Z</time>
      </trkpt>
      <trkpt lat="43.1247297" lon="-2.775874">
        <ele>126.705</ele>
        <time>2021-04-01T08:18:27.024Z</time>
      </trkpt>
      <trkpt lat="43.1247229" lon="-2.775866">
        <ele>126.73</ele>
        <time>2021-04-01T08:18:27.307Z</time>
      </trkpt>
      <trkpt lat="43.1246741" lon="-2.7758174">
        <ele>126.685</ele>
        <time>2021-04-01T08:18:29.075Z</time>
      </trkpt>
      <trkpt lat="43.1246231" lon="-2.7757698">
        <ele>126.275</ele>
        <time>2021-04-01T08:18:29.515Z</time>
      </trkpt>
      <trkpt lat="43.1246231" lon="-2.7757698">
        <ele>126.275</ele>
        <time>2021-04-01T08:18:29.955Z</time>
      </trkpt>
      <trkpt lat="43.1245819" lon="-2.7757191">
        <ele>126.184</ele>
        <time>2021-04-01T08:18:30.395Z</time>
      </trkpt>
      <trkpt lat="43.1245764" lon="-2.7757129">
        <ele>126.164</ele>
        <time>2021-04-01T08:18:30.791Z</time>
      </trkpt>
      <trkpt lat="43.1245694" lon="-2.7757046">
        <ele>126.16</ele>
        <time>2021-04-01T08:18:31.187Z</time>
      </trkpt>
      <trkpt lat="43.1245764" lon="-2.7757129">
        <ele>126.164</ele>
        <time>2021-04-01T08:18:31.583Z</time>
      </trkpt>
      <trkpt lat="43.1245694" lon="-2.7757046">
        <ele>126.16</ele>
        <time>2021-04-01T08:18:31.979Z</time>
      </trkpt>
      <trkpt lat="43.1245207" lon="-2.7756407">
        <ele>126.095</ele>
        <time>2021-04-01T08:18:33.695Z</time>
      </trkpt>
      <trkpt lat="43.1244844" lon="-2.7755793">
        <ele>125.736</ele>
        <time>2021-04-01T08:18:33.860Z</time>
      </trkpt>
      <trkpt lat="43.124478" lon="-2.7755678">
        <ele>125.726</ele>
        <time>2021-04-01T08:18:34.025Z</time>
      </trkpt>
      <trkpt lat="43.1244872" lon="-2.7755852">
        <ele>125.667</ele>
        <time>2021-04-01T08:18:34.190Z</time>
      </trkpt>
      <trkpt lat="43.1244844" lon="-2.7755793">
        <ele>125.736</ele>
        <time>2021-04-01T08:18:34.355Z</time>
      </trkpt>
      <trkpt lat="43.124478" lon="-2.7755678">
        <ele>125.726</ele>
        <time>2021-04-01T08:18:34.520Z</time>
      </trkpt>
      <trkpt lat="43.1244558" lon="-2.7755294">
        <ele>125.269</ele>
        <time>2021-04-01T08:18:37.380Z</time>
      </trkpt>
      <trkpt lat="43.1243866" lon="-2.7754186">
        <ele>124.89</ele>
        <time>2021-04-01T08:18:37.535Z</time>
      </trkpt>
      <trkpt lat="43.1244027" lon="-2.7754437">
        <ele>124.967</ele>
        <time>2021-04-01T08:18:37.691Z</time>
      </trkpt>
      <trkpt lat="43.1243866" lon="-2.7754186">
        <ele>124.89</ele>
        <time>2021-04-01T08:18:37.847Z</time>
      </trkpt>
      <trkpt lat="43.1244027" lon="-2.7754437">
        <ele>124.967</ele>
        <time>2021-04-01T08:18:38.003Z</time>
      </trkpt>
      <trkpt lat="43.1243866" lon="-2.7754186">
        <ele>124.89</ele>
        <time>2021-04-01T08:18:38.159Z</time>
      </trkpt>
      <trkpt lat="43.1243645" lon="-2.7753749">
        <ele>125.032</ele>
        <time>2021-04-01T08:18:40.185Z</time>
      </trkpt>
      <trkpt lat="43.1243187" lon="-2.7752795">
        <ele>124.636</ele>
        <time>2021-04-01T08:18:40.340Z</time>
      </trkpt>
      <trkpt lat="43.1243278" lon="-2.7752965">
        <ele>124.782</ele>
        <time>2021-04-01T08:18:40.496Z</time>
      </trkpt>
      <trkpt lat="43.1243187" lon="-2.7752795">
        <ele>124.636</ele>
        <time>2021-04-01T08:18:40.652Z</time>
      </trkpt>
      <trkpt lat="43.1243278" lon="-2.7752965">
        <ele>124.782</ele>
        <time>2021-04-01T08:18:40.808Z</time>
      </trkpt>
      <trkpt lat="43.1243187" lon="-2.7752795">
        <ele>124.636</ele>
        <time>2021-04-01T08:18:40.964Z</time>
      </trkpt>
      <trkpt lat="43.1242962" lon="-2.7752289">
        <ele>124.548</ele>
        <time>2021-04-01T08:18:42.605Z</time>
      </trkpt>
      <trkpt lat="43.1242643" lon="-2.7751509">
        <ele>124.575</ele>
        <time>2021-04-01T08:18:44.310Z</time>
      </trkpt>
      <trkpt lat="43.1242265" lon="-2.7750699">
        <ele>124.753</ele>
        <time>2021-04-01T08:18:44.525Z</time>
      </trkpt>
      <trkpt lat="43.1242202" lon="-2.7750566">
        <ele>125.012</ele>
        <time>2021-04-01T08:18:44.740Z</time>
      </trkpt>
      <trkpt lat="43.1242189" lon="-2.7750537">
        <ele>125.068</ele>
        <time>2021-04-01T08:18:44.956Z</time>
      </trkpt>
      <trkpt lat="43.1242218" lon="-2.7750593">
        <ele>124.921</ele>
        <time>2021-04-01T08:18:45.171Z</time>
      </trkpt>
      <trkpt lat="43.1242053" lon="-2.7750252">
        <ele>125.119</ele>
        <time>2021-04-01T08:18:45.387Z</time>
      </trkpt>
      <trkpt lat="43.1242178" lon="-2.7750511">
        <ele>125.089</ele>
        <time>2021-04-01T08:18:45.602Z</time>
      </trkpt>
      <trkpt lat="43.1242169" lon="-2.7750476">
        <ele>125.259</ele>
        <time>2021-04-01T08:18:45.817Z</time>
      </trkpt>
      <trkpt lat="43.1242053" lon="-2.7750252">
        <ele>125.119</ele>
        <time>2021-04-01T08:18:46.033Z</time>
      </trkpt>
      <trkpt lat="43.1242178" lon="-2.7750511">
        <ele>125.089</ele>
        <time>2021-04-01T08:18:46.248Z</time>
      </trkpt>
      <trkpt lat="43.1242169" lon="-2.7750476">
        <ele>125.259</ele>
        <time>2021-04-01T08:18:46.464Z</time>
      </trkpt>
      <trkpt lat="43.1242053" lon="-2.7750252">
        <ele>125.119</ele>
        <time>2021-04-01T08:18:46.679Z</time>
      </trkpt>
      <trkpt lat="43.1241711" lon="-2.7749493">
        <ele>124.98</ele>
        <time>2021-04-01T08:18:47.500Z</time>
      </trkpt>
      <trkpt lat="43.1241575" lon="-2.7749222">
        <ele>124.883</ele>
        <time>2021-04-01T08:18:47.782Z</time>
      </trkpt>
      <trkpt lat="43.1241502" lon="-2.7749065">
        <ele>124.934</ele>
        <time>2021-04-01T08:18:48.065Z</time>
      </trkpt>
      <trkpt lat="43.1241516" lon="-2.7749093">
        <ele>124.897</ele>
        <time>2021-04-01T08:18:48.348Z</time>
      </trkpt>
      <trkpt lat="43.1241502" lon="-2.7749065">
        <ele>124.934</ele>
        <time>2021-04-01T08:18:48.631Z</time>
      </trkpt>
      <trkpt lat="43.1241516" lon="-2.7749093">
        <ele>124.897</ele>
        <time>2021-04-01T08:18:48.914Z</time>
      </trkpt>
      <trkpt lat="43.1241502" lon="-2.7749065">
        <ele>124.934</ele>
        <time>2021-04-01T08:18:49.197Z</time>
      </trkpt>
      <trkpt lat="43.124112" lon="-2.7748276">
        <ele>125.302</ele>
        <time>2021-04-01T08:18:50.580Z</time>
      </trkpt>
      <trkpt lat="43.1240859" lon="-2.7747762">
        <ele>125.702</ele>
        <time>2021-04-01T08:18:50.954Z</time>
      </trkpt>
      <trkpt lat="43.1240687" lon="-2.7747372">
        <ele>126.611</ele>
        <time>2021-04-01T08:18:51.328Z</time>
      </trkpt>
      <trkpt lat="43.1240687" lon="-2.7747372">
        <ele>126.611</ele>
        <time>2021-04-01T08:18:51.702Z</time>
      </trkpt>
      <trkpt lat="43.1240687" lon="-2.7747372">
        <ele>126.611</ele>
        <time>2021-04-01T08:18:52.076Z</time>
      </trkpt>
      <trkpt lat="43.124044" lon="-2.7746767">
        <ele>127.595</ele>
        <time>2021-04-01T08:18:53.440Z</time>
      </trkpt>
      <trkpt lat="43.1240223" lon="-2.7746266">
        <ele>128.227</ele>
        <time>2021-04-01T08:18:56.080Z</time>
      </trkpt>
      <trkpt lat="43.123964" lon="-2.7744942">
        <ele>129.621</ele>
        <time>2021-04-01T08:18:56.213Z</time>
      </trkpt>
      <trkpt lat="43.1239628" lon="-2.7744911">
        <ele>129.692</ele>
        <time>2021-04-01T08:18:56.347Z</time>
      </trkpt>
      <trkpt lat="43.123964" lon="-2.7744942">
        <ele>129.621</ele>
        <time>2021-04-01T08:18:56.480Z</time>
      </trkpt>
      <trkpt lat="43.1239628" lon="-2.7744911">
        <ele>129.692</ele>
        <time>2021-04-01T08:18:56.614Z</time>
      </trkpt>
      <trkpt lat="43.123964" lon="-2.7744942">
        <ele>129.621</ele>
        <time>2021-04-01T08:18:56.747Z</time>
      </trkpt>
      <trkpt lat="43.1239628" lon="-2.7744911">
        <ele>129.692</ele>
        <time>2021-04-01T08:18:56.881Z</time>
      </trkpt>
      <trkpt lat="43.1239441" lon="-2.7744463">
        <ele>130.367</ele>
        <time>2021-04-01T08:18:58.885Z</time>
      </trkpt>
      <trkpt lat="43.1239054" lon="-2.7743505">
        <ele>131.52</ele>
        <time>2021-04-01T08:18:58.981Z</time>
      </trkpt>
      <trkpt lat="43.1239043" lon="-2.774348">
        <ele>131.53</ele>
        <time>2021-04-01T08:18:59.077Z</time>
      </trkpt>
      <trkpt lat="43.1239001" lon="-2.7743373">
        <ele>131.689</ele>
        <time>2021-04-01T08:18:59.173Z</time>
      </trkpt>
      <trkpt lat="43.1239078" lon="-2.774356">
        <ele>131.448</ele>
        <time>2021-04-01T08:18:59.270Z</time>
      </trkpt>
      <trkpt lat="43.1239054" lon="-2.7743505">
        <ele>131.52</ele>
        <time>2021-04-01T08:18:59.366Z</time>
      </trkpt>
      <trkpt lat="43.1239043" lon="-2.774348">
        <ele>131.53</ele>
        <time>2021-04-01T08:18:59.462Z</time>
      </trkpt>
      <trkpt lat="43.1239001" lon="-2.7743373">
        <ele>131.689</ele>
        <time>2021-04-01T08:18:59.558Z</time>
      </trkpt>
      <trkpt lat="43.1239078" lon="-2.774356">
        <ele>131.448</ele>
        <time>2021-04-01T08:18:59.655Z</time>
      </trkpt>
      <trkpt lat="43.1239054" lon="-2.7743505">
        <ele>131.52</ele>
        <time>2021-04-01T08:18:59.751Z</time>
      </trkpt>
      <trkpt lat="43.1239043" lon="-2.774348">
        <ele>131.53</ele>
        <time>2021-04-01T08:18:59.847Z</time>
      </trkpt>
      <trkpt lat="43.1239001" lon="-2.7743373">
        <ele>131.689</ele>
        <time>2021-04-01T08:18:59.943Z</time>
      </trkpt>
      <trkpt lat="43.1238841" lon="-2.7742932">
        <ele>132.343</ele>
        <time>2021-04-01T08:19:01.525Z</time>
      </trkpt>
      <trkpt lat="43.1238554" lon="-2.7742223">
        <ele>133.21</ele>
        <time>2021-04-01T08:19:01.800Z</time>
      </trkpt>
      <trkpt lat="43.1238492" lon="-2.7742099">
        <ele>133.344</ele>
        <time>2021-04-01T08:19:02.075Z</time>
      </trkpt>
      <trkpt lat="43.1238467" lon="-2.7742048">
        <ele>133.429</ele>
        <time>2021-04-01T08:19:02.350Z</time>
      </trkpt>
      <trkpt lat="43.1238422" lon="-2.7741942">
        <ele>133.555</ele>
        <time>2021-04-01T08:19:02.625Z</time>
      </trkpt>
      <trkpt lat="43.1238492" lon="-2.7742099">
        <ele>133.344</ele>
        <time>2021-04-01T08:19:02.900Z</time>
      </trkpt>
      <trkpt lat="43.1238467" lon="-2.7742048">
        <ele>133.429</ele>
        <time>2021-04-01T08:19:03.175Z</time>
      </trkpt>
      <trkpt lat="43.1238422" lon="-2.7741942">
        <ele>133.555</ele>
        <time>2021-04-01T08:19:03.450Z</time>
      </trkpt>
      <trkpt lat="43.1238128" lon="-2.774118">
        <ele>134.44</ele>
        <time>2021-04-01T08:19:05.870Z</time>
      </trkpt>
      <trkpt lat="43.12377" lon="-2.7740205">
        <ele>135.405</ele>
        <time>2021-04-01T08:19:06.328Z</time>
      </trkpt>
      <trkpt lat="43.1237868" lon="-2.7740572">
        <ele>135.017</ele>
        <time>2021-04-01T08:19:06.786Z</time>
      </trkpt>
      <trkpt lat="43.123744" lon="-2.7739613">
        <ele>135.987</ele>
        <time>2021-04-01T08:19:07.245Z</time>
      </trkpt>
      <trkpt lat="43.123744" lon="-2.7739613">
        <ele>135.987</ele>
        <time>2021-04-01T08:19:07.520Z</time>
      </trkpt>
      <trkpt lat="43.1237333" lon="-2.7739371">
        <ele>136.241</ele>
        <time>2021-04-01T08:19:10.215Z</time>
      </trkpt>
      <trkpt lat="43.1236892" lon="-2.7738266">
        <ele>137.728</ele>
        <time>2021-04-01T08:19:10.380Z</time>
      </trkpt>
      <trkpt lat="43.1236925" lon="-2.7738367">
        <ele>137.673</ele>
        <time>2021-04-01T08:19:10.545Z</time>
      </trkpt>
      <trkpt lat="43.1236892" lon="-2.7738266">
        <ele>137.728</ele>
        <time>2021-04-01T08:19:10.710Z</time>
      </trkpt>
      <trkpt lat="43.1236925" lon="-2.7738367">
        <ele>137.673</ele>
        <time>2021-04-01T08:19:10.875Z</time>
      </trkpt>
      <trkpt lat="43.1236892" lon="-2.7738266">
        <ele>137.728</ele>
        <time>2021-04-01T08:19:11.040Z</time>
      </trkpt>
      <trkpt lat="43.1236709" lon="-2.7737816">
        <ele>138.285</ele>
        <time>2021-04-01T08:19:13.075Z</time>
      </trkpt>
      <trkpt lat="43.1236321" lon="-2.7736981">
        <ele>138.954</ele>
        <time>2021-04-01T08:19:13.191Z</time>
      </trkpt>
      <trkpt lat="43.1236224" lon="-2.7736757">
        <ele>139.217</ele>
        <time>2021-04-01T08:19:13.307Z</time>
      </trkpt>
      <trkpt lat="43.1236367" lon="-2.7737075">
        <ele>138.982</ele>
        <time>2021-04-01T08:19:13.423Z</time>
      </trkpt>
      <trkpt lat="43.1236321" lon="-2.7736981">
        <ele>138.954</ele>
        <time>2021-04-01T08:19:13.539Z</time>
      </trkpt>
      <trkpt lat="43.1236224" lon="-2.7736757">
        <ele>139.217</ele>
        <time>2021-04-01T08:19:13.655Z</time>
      </trkpt>
      <trkpt lat="43.1236367" lon="-2.7737075">
        <ele>138.982</ele>
        <time>2021-04-01T08:19:13.771Z</time>
      </trkpt>
      <trkpt lat="43.1236321" lon="-2.7736981">
        <ele>138.954</ele>
        <time>2021-04-01T08:19:13.887Z</time>
      </trkpt>
      <trkpt lat="43.1236224" lon="-2.7736757">
        <ele>139.217</ele>
        <time>2021-04-01T08:19:14.003Z</time>
      </trkpt>
      <trkpt lat="43.1236119" lon="-2.7736507">
        <ele>139.445</ele>
        <time>2021-04-01T08:19:14.120Z</time>
      </trkpt>
      <trkpt lat="43.1235981" lon="-2.7736181">
        <ele>139.701</ele>
        <time>2021-04-01T08:19:14.470Z</time>
      </trkpt>
      <trkpt lat="43.1235973" lon="-2.7736155">
        <ele>139.707</ele>
        <time>2021-04-01T08:19:14.821Z</time>
      </trkpt>
      <trkpt lat="43.1235933" lon="-2.7736058">
        <ele>139.67</ele>
        <time>2021-04-01T08:19:15.171Z</time>
      </trkpt>
      <trkpt lat="43.1236054" lon="-2.7736355">
        <ele>139.614</ele>
        <time>2021-04-01T08:19:15.522Z</time>
      </trkpt>
      <trkpt lat="43.1235981" lon="-2.7736181">
        <ele>139.701</ele>
        <time>2021-04-01T08:19:15.873Z</time>
      </trkpt>
      <trkpt lat="43.1235973" lon="-2.7736155">
        <ele>139.707</ele>
        <time>2021-04-01T08:19:16.223Z</time>
      </trkpt>
      <trkpt lat="43.1235933" lon="-2.7736058">
        <ele>139.67</ele>
        <time>2021-04-01T08:19:16.574Z</time>
      </trkpt>
      <trkpt lat="43.1235623" lon="-2.7735222">
        <ele>140.238</ele>
        <time>2021-04-01T08:19:18.025Z</time>
      </trkpt>
      <trkpt lat="43.1235436" lon="-2.7734709">
        <ele>140.636</ele>
        <time>2021-04-01T08:19:18.263Z</time>
      </trkpt>
      <trkpt lat="43.1235436" lon="-2.7734709">
        <ele>140.636</ele>
        <time>2021-04-01T08:19:18.501Z</time>
      </trkpt>
      <trkpt lat="43.1235287" lon="-2.7734399">
        <ele>140.73</ele>
        <time>2021-04-01T08:19:20.830Z</time>
      </trkpt>
      <trkpt lat="43.123486" lon="-2.7733475">
        <ele>140.856</ele>
        <time>2021-04-01T08:19:21.118Z</time>
      </trkpt>
      <trkpt lat="43.1234793" lon="-2.7733323">
        <ele>140.99</ele>
        <time>2021-04-01T08:19:21.407Z</time>
      </trkpt>
      <trkpt lat="43.1234793" lon="-2.7733323">
        <ele>140.99</ele>
        <time>2021-04-01T08:19:21.696Z</time>
      </trkpt>
      <trkpt lat="43.1234638" lon="-2.7732924">
        <ele>141.403</ele>
        <time>2021-04-01T08:19:23.470Z</time>
      </trkpt>
      <trkpt lat="43.1234331" lon="-2.773225">
        <ele>141.769</ele>
        <time>2021-04-01T08:19:23.751Z</time>
      </trkpt>
      <trkpt lat="43.1234183" lon="-2.7731953">
        <ele>141.711</ele>
        <time>2021-04-01T08:19:24.033Z</time>
      </trkpt>
      <trkpt lat="43.1234137" lon="-2.7731858">
        <ele>141.689</ele>
        <time>2021-04-01T08:19:24.315Z</time>
      </trkpt>
      <trkpt lat="43.123409" lon="-2.7731769">
        <ele>141.627</ele>
        <time>2021-04-01T08:19:24.597Z</time>
      </trkpt>
      <trkpt lat="43.1234183" lon="-2.7731953">
        <ele>141.711</ele>
        <time>2021-04-01T08:19:24.879Z</time>
      </trkpt>
      <trkpt lat="43.1234137" lon="-2.7731858">
        <ele>141.689</ele>
        <time>2021-04-01T08:19:25.161Z</time>
      </trkpt>
      <trkpt lat="43.123409" lon="-2.7731769">
        <ele>141.627</ele>
        <time>2021-04-01T08:19:25.443Z</time>
      </trkpt>
      <trkpt lat="43.1233857" lon="-2.7731283">
        <ele>142.047</ele>
        <time>2021-04-01T08:19:27.705Z</time>
      </trkpt>
      <trkpt lat="43.1233474" lon="-2.7730403">
        <ele>142.598</ele>
        <time>2021-04-01T08:19:28.076Z</time>
      </trkpt>
      <trkpt lat="43.1233474" lon="-2.7730403">
        <ele>142.598</ele>
        <time>2021-04-01T08:19:28.447Z</time>
      </trkpt>
      <trkpt lat="43.1233474" lon="-2.7730403">
        <ele>142.598</ele>
        <time>2021-04-01T08:19:28.818Z</time>
      </trkpt>
      <trkpt lat="43.12332" lon="-2.7729776">
        <ele>142.652</ele>
        <time>2021-04-01T08:19:29.465Z</time>
      </trkpt>
      <trkpt lat="43.1233142" lon="-2.7729654">
        <ele>142.747</ele>
        <time>2021-04-01T08:19:30.310Z</time>
      </trkpt>
      <trkpt lat="43.1233005" lon="-2.7729354">
        <ele>142.709</ele>
        <time>2021-04-01T08:19:31.155Z</time>
      </trkpt>
      <trkpt lat="43.1232667" lon="-2.7728579">
        <ele>143.339</ele>
        <time>2021-04-01T08:19:32.000Z</time>
      </trkpt>
      <trkpt lat="43.1232627" lon="-2.7728486">
        <ele>143.366</ele>
        <time>2021-04-01T08:19:32.260Z</time>
      </trkpt>
      <trkpt lat="43.1232667" lon="-2.7728579">
        <ele>143.339</ele>
        <time>2021-04-01T08:19:32.520Z</time>
      </trkpt>
      <trkpt lat="43.1232627" lon="-2.7728486">
        <ele>143.366</ele>
        <time>2021-04-01T08:19:32.780Z</time>
      </trkpt>
      <trkpt lat="43.123247" lon="-2.7728147">
        <ele>143.505</ele>
        <time>2021-04-01T08:19:34.635Z</time>
      </trkpt>
      <trkpt lat="43.1232182" lon="-2.7727485">
        <ele>143.901</ele>
        <time>2021-04-01T08:19:36.835Z</time>
      </trkpt>
      <trkpt lat="43.1231779" lon="-2.7726536">
        <ele>144.438</ele>
        <time>2021-04-01T08:19:38.485Z</time>
      </trkpt>
      <trkpt lat="43.1231722" lon="-2.7726371">
        <ele>144.869</ele>
        <time>2021-04-01T08:19:38.736Z</time>
      </trkpt>
      <trkpt lat="43.1231708" lon="-2.7726337">
        <ele>145.048</ele>
        <time>2021-04-01T08:19:38.987Z</time>
      </trkpt>
      <trkpt lat="43.1231722" lon="-2.7726371">
        <ele>144.869</ele>
        <time>2021-04-01T08:19:39.239Z</time>
      </trkpt>
      <trkpt lat="43.1231708" lon="-2.7726337">
        <ele>145.048</ele>
        <time>2021-04-01T08:19:39.490Z</time>
      </trkpt>
      <trkpt lat="43.1231722" lon="-2.7726371">
        <ele>144.869</ele>
        <time>2021-04-01T08:19:39.742Z</time>
      </trkpt>
      <trkpt lat="43.1231708" lon="-2.7726337">
        <ele>145.048</ele>
        <time>2021-04-01T08:19:39.993Z</time>
      </trkpt>
      <trkpt lat="43.1231435" lon="-2.7725781">
        <ele>145.652</ele>
        <time>2021-04-01T08:19:41.290Z</time>
      </trkpt>
      <trkpt lat="43.1230862" lon="-2.7724591">
        <ele>146.438</ele>
        <time>2021-04-01T08:19:41.532Z</time>
      </trkpt>
      <trkpt lat="43.1230752" lon="-2.7724349">
        <ele>146.502</ele>
        <time>2021-04-01T08:19:41.774Z</time>
      </trkpt>
      <trkpt lat="43.1230752" lon="-2.7724349">
        <ele>146.502</ele>
        <time>2021-04-01T08:19:42.016Z</time>
      </trkpt>
      <trkpt lat="43.1230752" lon="-2.7724349">
        <ele>146.502</ele>
        <time>2021-04-01T08:19:42.258Z</time>
      </trkpt>
      <trkpt lat="43.1230646" lon="-2.7724055">
        <ele>146.796</ele>
        <time>2021-04-01T08:19:42.500Z</time>
      </trkpt>
      <trkpt lat="43.1230473" lon="-2.7723704">
        <ele>146.914</ele>
        <time>2021-04-01T08:19:42.784Z</time>
      </trkpt>
      <trkpt lat="43.1230518" lon="-2.7723803">
        <ele>146.785</ele>
        <time>2021-04-01T08:19:43.068Z</time>
      </trkpt>
      <trkpt lat="43.1230473" lon="-2.7723704">
        <ele>146.914</ele>
        <time>2021-04-01T08:19:43.352Z</time>
      </trkpt>
      <trkpt lat="43.1230518" lon="-2.7723803">
        <ele>146.785</ele>
        <time>2021-04-01T08:19:43.636Z</time>
      </trkpt>
      <trkpt lat="43.1230473" lon="-2.7723704">
        <ele>146.914</ele>
        <time>2021-04-01T08:19:43.920Z</time>
      </trkpt>
      <trkpt lat="43.1230333" lon="-2.77234">
        <ele>146.88</ele>
        <time>2021-04-01T08:19:45.965Z</time>
      </trkpt>
      <trkpt lat="43.1229991" lon="-2.7722667">
        <ele>146.97</ele>
        <time>2021-04-01T08:19:47.230Z</time>
      </trkpt>
      <trkpt lat="43.1229939" lon="-2.7722544">
        <ele>147.162</ele>
        <time>2021-04-01T08:19:47.436Z</time>
      </trkpt>
      <trkpt lat="43.1229862" lon="-2.7722357">
        <ele>147.247</ele>
        <time>2021-04-01T08:19:47.642Z</time>
      </trkpt>
      <trkpt lat="43.1229991" lon="-2.7722667">
        <ele>146.97</ele>
        <time>2021-04-01T08:19:47.848Z</time>
      </trkpt>
      <trkpt lat="43.1229939" lon="-2.7722544">
        <ele>147.162</ele>
        <time>2021-04-01T08:19:48.055Z</time>
      </trkpt>
      <trkpt lat="43.1229862" lon="-2.7722357">
        <ele>147.247</ele>
        <time>2021-04-01T08:19:48.261Z</time>
      </trkpt>
      <trkpt lat="43.1229991" lon="-2.7722667">
        <ele>146.97</ele>
        <time>2021-04-01T08:19:48.467Z</time>
      </trkpt>
      <trkpt lat="43.1229939" lon="-2.7722544">
        <ele>147.162</ele>
        <time>2021-04-01T08:19:48.673Z</time>
      </trkpt>
      <trkpt lat="43.1229862" lon="-2.7722357">
        <ele>147.247</ele>
        <time>2021-04-01T08:19:48.880Z</time>
      </trkpt>
      <trkpt lat="43.122945" lon="-2.772144">
        <ele>148.053</ele>
        <time>2021-04-01T08:19:49.333Z</time>
      </trkpt>
      <trkpt lat="43.1229398" lon="-2.7721336">
        <ele>147.975</ele>
        <time>2021-04-01T08:19:49.787Z</time>
      </trkpt>
      <trkpt lat="43.1229398" lon="-2.7721336">
        <ele>147.975</ele>
        <time>2021-04-01T08:19:50.241Z</time>
      </trkpt>
      <trkpt lat="43.1229099" lon="-2.7720748">
        <ele>147.818</ele>
        <time>2021-04-01T08:19:50.695Z</time>
      </trkpt>
      <trkpt lat="43.1229043" lon="-2.7720619">
        <ele>147.831</ele>
        <time>2021-04-01T08:19:51.124Z</time>
      </trkpt>
      <trkpt lat="43.1229034" lon="-2.7720597">
        <ele>147.81</ele>
        <time>2021-04-01T08:19:51.553Z</time>
      </trkpt>
      <trkpt lat="43.1229043" lon="-2.7720619">
        <ele>147.831</ele>
        <time>2021-04-01T08:19:51.982Z</time>
      </trkpt>
      <trkpt lat="43.1229034" lon="-2.7720597">
        <ele>147.81</ele>
        <time>2021-04-01T08:19:52.411Z</time>
      </trkpt>
      <trkpt lat="43.1228725" lon="-2.7719875">
        <ele>148.164</ele>
        <time>2021-04-01T08:19:53.335Z</time>
      </trkpt>
      <trkpt lat="43.1228641" lon="-2.7719662">
        <ele>148.308</ele>
        <time>2021-04-01T08:19:53.596Z</time>
      </trkpt>
      <trkpt lat="43.1228605" lon="-2.7719566">
        <ele>148.367</ele>
        <time>2021-04-01T08:19:53.857Z</time>
      </trkpt>
      <trkpt lat="43.1228549" lon="-2.7719442">
        <ele>148.228</ele>
        <time>2021-04-01T08:19:54.118Z</time>
      </trkpt>
      <trkpt lat="43.122846" lon="-2.7719248">
        <ele>147.966</ele>
        <time>2021-04-01T08:19:54.380Z</time>
      </trkpt>
      <trkpt lat="43.1228605" lon="-2.7719566">
        <ele>148.367</ele>
        <time>2021-04-01T08:19:54.641Z</time>
      </trkpt>
      <trkpt lat="43.1228549" lon="-2.7719442">
        <ele>148.228</ele>
        <time>2021-04-01T08:19:54.902Z</time>
      </trkpt>
      <trkpt lat="43.122846" lon="-2.7719248">
        <ele>147.966</ele>
        <time>2021-04-01T08:19:55.163Z</time>
      </trkpt>
      <trkpt lat="43.1228265" lon="-2.7718833">
        <ele>147.717</ele>
        <time>2021-04-01T08:19:57.350Z</time>
      </trkpt>
      <trkpt lat="43.1227912" lon="-2.7718081">
        <ele>146.371</ele>
        <time>2021-04-01T08:19:57.955Z</time>
      </trkpt>
      <trkpt lat="43.1227874" lon="-2.7717989">
        <ele>146.21</ele>
        <time>2021-04-01T08:19:58.269Z</time>
      </trkpt>
      <trkpt lat="43.1227966" lon="-2.7718192">
        <ele>146.531</ele>
        <time>2021-04-01T08:19:58.583Z</time>
      </trkpt>
      <trkpt lat="43.1227912" lon="-2.7718081">
        <ele>146.371</ele>
        <time>2021-04-01T08:19:58.897Z</time>
      </trkpt>
      <trkpt lat="43.1227874" lon="-2.7717989">
        <ele>146.21</ele>
        <time>2021-04-01T08:19:59.212Z</time>
      </trkpt>
      <trkpt lat="43.1227966" lon="-2.7718192">
        <ele>146.531</ele>
        <time>2021-04-01T08:19:59.526Z</time>
      </trkpt>
      <trkpt lat="43.1227912" lon="-2.7718081">
        <ele>146.371</ele>
        <time>2021-04-01T08:19:59.840Z</time>
      </trkpt>
      <trkpt lat="43.1227874" lon="-2.7717989">
        <ele>146.21</ele>
        <time>2021-04-01T08:20:00.155Z</time>
      </trkpt>
      <trkpt lat="43.122738" lon="-2.7716878">
        <ele>145.442</ele>
        <time>2021-04-01T08:20:01.420Z</time>
      </trkpt>
      <trkpt lat="43.1227156" lon="-2.7716329">
        <ele>145.48</ele>
        <time>2021-04-01T08:20:01.805Z</time>
      </trkpt>
      <trkpt lat="43.1226969" lon="-2.7715898">
        <ele>145.947</ele>
        <time>2021-04-01T08:20:02.190Z</time>
      </trkpt>
      <trkpt lat="43.1227047" lon="-2.7716077">
        <ele>145.783</ele>
        <time>2021-04-01T08:20:02.575Z</time>
      </trkpt>
      <trkpt lat="43.1226969" lon="-2.7715898">
        <ele>145.947</ele>
        <time>2021-04-01T08:20:02.960Z</time>
      </trkpt>
      <trkpt lat="43.1226774" lon="-2.7715461">
        <ele>145.438</ele>
        <time>2021-04-01T08:20:04.445Z</time>
      </trkpt>
      <trkpt lat="43.1226572" lon="-2.7714973">
        <ele>144.549</ele>
        <time>2021-04-01T08:20:04.568Z</time>
      </trkpt>
      <trkpt lat="43.1226401" lon="-2.7714579">
        <ele>144.024</ele>
        <time>2021-04-01T08:20:04.692Z</time>
      </trkpt>
      <trkpt lat="43.1226392" lon="-2.7714554">
        <ele>143.987</ele>
        <time>2021-04-01T08:20:04.816Z</time>
      </trkpt>
      <trkpt lat="43.1226353" lon="-2.7714449">
        <ele>143.828</ele>
        <time>2021-04-01T08:20:04.940Z</time>
      </trkpt>
      <trkpt lat="43.1226433" lon="-2.7714652">
        <ele>144.176</ele>
        <time>2021-04-01T08:20:05.063Z</time>
      </trkpt>
      <trkpt lat="43.1226401" lon="-2.7714579">
        <ele>144.024</ele>
        <time>2021-04-01T08:20:05.187Z</time>
      </trkpt>
      <trkpt lat="43.1226392" lon="-2.7714554">
        <ele>143.987</ele>
        <time>2021-04-01T08:20:05.311Z</time>
      </trkpt>
      <trkpt lat="43.1226353" lon="-2.7714449">
        <ele>143.828</ele>
        <time>2021-04-01T08:20:05.435Z</time>
      </trkpt>
      <trkpt lat="43.1226401" lon="-2.7714579">
        <ele>144.024</ele>
        <time>2021-04-01T08:20:05.558Z</time>
      </trkpt>
      <trkpt lat="43.1226392" lon="-2.7714554">
        <ele>143.987</ele>
        <time>2021-04-01T08:20:05.682Z</time>
      </trkpt>
      <trkpt lat="43.1226353" lon="-2.7714449">
        <ele>143.828</ele>
        <time>2021-04-01T08:20:05.806Z</time>
      </trkpt>
      <trkpt lat="43.1226292" lon="-2.7714298">
        <ele>143.626</ele>
        <time>2021-04-01T08:20:08.460Z</time>
      </trkpt>
      <trkpt lat="43.1225391" lon="-2.7711586">
        <ele>142.433</ele>
        <time>2021-04-01T08:20:11.375Z</time>
      </trkpt>
      <trkpt lat="43.1225391" lon="-2.7711586">
        <ele>142.433</ele>
        <time>2021-04-01T08:20:12.585Z</time>
      </trkpt>
      <trkpt lat="43.1225144" lon="-2.7710976">
        <ele>142.309</ele>
        <time>2021-04-01T08:20:14.455Z</time>
      </trkpt>
      <trkpt lat="43.1224806" lon="-2.7710032">
        <ele>143.39</ele>
        <time>2021-04-01T08:20:15.775Z</time>
      </trkpt>
      <trkpt lat="43.1224415" lon="-2.7708677">
        <ele>145.229</ele>
        <time>2021-04-01T08:20:17.205Z</time>
      </trkpt>
      <trkpt lat="43.1223907" lon="-2.7707646">
        <ele>146.025</ele>
        <time>2021-04-01T08:20:19.185Z</time>
      </trkpt>
      <trkpt lat="43.1223887" lon="-2.7707622">
        <ele>146.045</ele>
        <time>2021-04-01T08:20:19.647Z</time>
      </trkpt>
      <trkpt lat="43.1223833" lon="-2.7707551">
        <ele>146.104</ele>
        <time>2021-04-01T08:20:20.109Z</time>
      </trkpt>
      <trkpt lat="43.1223887" lon="-2.7707622">
        <ele>146.045</ele>
        <time>2021-04-01T08:20:20.571Z</time>
      </trkpt>
      <trkpt lat="43.1223833" lon="-2.7707551">
        <ele>146.104</ele>
        <time>2021-04-01T08:20:21.033Z</time>
      </trkpt>
      <trkpt lat="43.122306" lon="-2.7706735">
        <ele>146.285</ele>
        <time>2021-04-01T08:20:22.375Z</time>
      </trkpt>
      <trkpt lat="43.1221533" lon="-2.7705718">
        <ele>142.649</ele>
        <time>2021-04-01T08:20:25.125Z</time>
      </trkpt>
      <trkpt lat="43.1221962" lon="-2.7705952">
        <ele>144.584</ele>
        <time>2021-04-01T08:20:25.543Z</time>
      </trkpt>
      <trkpt lat="43.1222005" lon="-2.7705974">
        <ele>144.857</ele>
        <time>2021-04-01T08:20:25.961Z</time>
      </trkpt>
      <trkpt lat="43.1221962" lon="-2.7705952">
        <ele>144.584</ele>
        <time>2021-04-01T08:20:26.379Z</time>
      </trkpt>
      <trkpt lat="43.1222005" lon="-2.7705974">
        <ele>144.857</ele>
        <time>2021-04-01T08:20:26.797Z</time>
      </trkpt>
      <trkpt lat="43.1221962" lon="-2.7705952">
        <ele>144.584</ele>
        <time>2021-04-01T08:20:27.215Z</time>
      </trkpt>
      <trkpt lat="43.1220732" lon="-2.770505">
        <ele>141.35</ele>
        <time>2021-04-01T08:20:28.535Z</time>
      </trkpt>
      <trkpt lat="43.1220662" lon="-2.7704994">
        <ele>141.431</ele>
        <time>2021-04-01T08:20:28.755Z</time>
      </trkpt>
      <trkpt lat="43.1220641" lon="-2.7704977">
        <ele>141.341</ele>
        <time>2021-04-01T08:20:28.975Z</time>
      </trkpt>
      <trkpt lat="43.1220732" lon="-2.770505">
        <ele>141.35</ele>
        <time>2021-04-01T08:20:29.195Z</time>
      </trkpt>
      <trkpt lat="43.1220662" lon="-2.7704994">
        <ele>141.431</ele>
        <time>2021-04-01T08:20:29.415Z</time>
      </trkpt>
      <trkpt lat="43.1220641" lon="-2.7704977">
        <ele>141.341</ele>
        <time>2021-04-01T08:20:29.635Z</time>
      </trkpt>
      <trkpt lat="43.1219757" lon="-2.7704277">
        <ele>141.032</ele>
        <time>2021-04-01T08:20:32.165Z</time>
      </trkpt>
      <trkpt lat="43.1218679" lon="-2.7703474">
        <ele>140.628</ele>
        <time>2021-04-01T08:20:32.916Z</time>
      </trkpt>
      <trkpt lat="43.1218679" lon="-2.7703474">
        <ele>140.628</ele>
        <time>2021-04-01T08:20:33.668Z</time>
      </trkpt>
      <trkpt lat="43.1217906" lon="-2.770299">
        <ele>139.357</ele>
        <time>2021-04-01T08:20:34.420Z</time>
      </trkpt>
      <trkpt lat="43.1217695" lon="-2.7702823">
        <ele>139.337</ele>
        <time>2021-04-01T08:20:34.701Z</time>
      </trkpt>
      <trkpt lat="43.1217325" lon="-2.7702532">
        <ele>138.908</ele>
        <time>2021-04-01T08:20:34.983Z</time>
      </trkpt>
      <trkpt lat="43.12173" lon="-2.7702516">
        <ele>138.891</ele>
        <time>2021-04-01T08:20:35.265Z</time>
      </trkpt>
      <trkpt lat="43.1217277" lon="-2.7702497">
        <ele>138.898</ele>
        <time>2021-04-01T08:20:35.547Z</time>
      </trkpt>
      <trkpt lat="43.1217325" lon="-2.7702532">
        <ele>138.908</ele>
        <time>2021-04-01T08:20:35.829Z</time>
      </trkpt>
      <trkpt lat="43.12173" lon="-2.7702516">
        <ele>138.891</ele>
        <time>2021-04-01T08:20:36.111Z</time>
      </trkpt>
      <trkpt lat="43.1217277" lon="-2.7702497">
        <ele>138.898</ele>
        <time>2021-04-01T08:20:36.393Z</time>
      </trkpt>
      <trkpt lat="43.1216745" lon="-2.7702143">
        <ele>138.232</ele>
        <time>2021-04-01T08:20:37.555Z</time>
      </trkpt>
      <trkpt lat="43.1215072" lon="-2.7700915">
        <ele>133.804</ele>
        <time>2021-04-01T08:20:41.020Z</time>
      </trkpt>
      <trkpt lat="43.1214891" lon="-2.770074">
        <ele>133.057</ele>
        <time>2021-04-01T08:20:41.229Z</time>
      </trkpt>
      <trkpt lat="43.1214871" lon="-2.7700719">
        <ele>133</ele>
        <time>2021-04-01T08:20:41.438Z</time>
      </trkpt>
      <trkpt lat="43.1214744" lon="-2.7700609">
        <ele>132.966</ele>
        <time>2021-04-01T08:20:41.647Z</time>
      </trkpt>
      <trkpt lat="43.1214891" lon="-2.770074">
        <ele>133.057</ele>
        <time>2021-04-01T08:20:41.856Z</time>
      </trkpt>
      <trkpt lat="43.1214871" lon="-2.7700719">
        <ele>133</ele>
        <time>2021-04-01T08:20:42.065Z</time>
      </trkpt>
      <trkpt lat="43.1214744" lon="-2.7700609">
        <ele>132.966</ele>
        <time>2021-04-01T08:20:42.274Z</time>
      </trkpt>
      <trkpt lat="43.1214891" lon="-2.770074">
        <ele>133.057</ele>
        <time>2021-04-01T08:20:42.483Z</time>
      </trkpt>
      <trkpt lat="43.1214871" lon="-2.7700719">
        <ele>133</ele>
        <time>2021-04-01T08:20:42.692Z</time>
      </trkpt>
      <trkpt lat="43.1214744" lon="-2.7700609">
        <ele>132.966</ele>
        <time>2021-04-01T08:20:42.901Z</time>
      </trkpt>
      <trkpt lat="43.1214256" lon="-2.7700221">
        <ele>133.104</ele>
        <time>2021-04-01T08:20:44.650Z</time>
      </trkpt>
      <trkpt lat="43.1214192" lon="-2.770017">
        <ele>132.988</ele>
        <time>2021-04-01T08:20:45.200Z</time>
      </trkpt>
      <trkpt lat="43.1214192" lon="-2.770017">
        <ele>132.988</ele>
        <time>2021-04-01T08:20:45.750Z</time>
      </trkpt>
      <trkpt lat="43.1213408" lon="-2.76992">
        <ele>130.926</ele>
        <time>2021-04-01T08:20:46.017Z</time>
      </trkpt>
      <trkpt lat="43.1213286" lon="-2.7699038">
        <ele>131.193</ele>
        <time>2021-04-01T08:20:46.284Z</time>
      </trkpt>
      <trkpt lat="43.1213179" lon="-2.769886">
        <ele>131.692</ele>
        <time>2021-04-01T08:20:46.551Z</time>
      </trkpt>
      <trkpt lat="43.1213408" lon="-2.76992">
        <ele>130.926</ele>
        <time>2021-04-01T08:20:46.818Z</time>
      </trkpt>
      <trkpt lat="43.1213286" lon="-2.7699038">
        <ele>131.193</ele>
        <time>2021-04-01T08:20:47.085Z</time>
      </trkpt>
      <trkpt lat="43.1213179" lon="-2.769886">
        <ele>131.692</ele>
        <time>2021-04-01T08:20:47.352Z</time>
      </trkpt>
      <trkpt lat="43.1212863" lon="-2.7698419">
        <ele>130.766</ele>
        <time>2021-04-01T08:20:47.620Z</time>
      </trkpt>
      <trkpt lat="43.1212848" lon="-2.7698397">
        <ele>130.7</ele>
        <time>2021-04-01T08:20:48.060Z</time>
      </trkpt>
      <trkpt lat="43.1212863" lon="-2.7698419">
        <ele>130.766</ele>
        <time>2021-04-01T08:20:48.500Z</time>
      </trkpt>
      <trkpt lat="43.1212848" lon="-2.7698397">
        <ele>130.7</ele>
        <time>2021-04-01T08:20:48.940Z</time>
      </trkpt>
      <trkpt lat="43.1212374" lon="-2.7697628">
        <ele>130.483</ele>
        <time>2021-04-01T08:20:49.380Z</time>
      </trkpt>
      <trkpt lat="43.1212344" lon="-2.7697571">
        <ele>130.382</ele>
        <time>2021-04-01T08:20:50.136Z</time>
      </trkpt>
      <trkpt lat="43.1212374" lon="-2.7697628">
        <ele>130.483</ele>
        <time>2021-04-01T08:20:50.892Z</time>
      </trkpt>
      <trkpt lat="43.1212344" lon="-2.7697571">
        <ele>130.382</ele>
        <time>2021-04-01T08:20:51.648Z</time>
      </trkpt>
      <trkpt lat="43.1211693" lon="-2.7696405">
        <ele>130.683</ele>
        <time>2021-04-01T08:20:53.340Z</time>
      </trkpt>
      <trkpt lat="43.1211693" lon="-2.7696405">
        <ele>130.683</ele>
        <time>2021-04-01T08:20:53.560Z</time>
      </trkpt>
      <trkpt lat="43.1211509" lon="-2.76961">
        <ele>130.05</ele>
        <time>2021-04-01T08:20:53.740Z</time>
      </trkpt>
      <trkpt lat="43.1211304" lon="-2.7695928">
        <ele>128.821</ele>
        <time>2021-04-01T08:20:53.921Z</time>
      </trkpt>
      <trkpt lat="43.1211375" lon="-2.7695989">
        <ele>129.105</ele>
        <time>2021-04-01T08:20:54.102Z</time>
      </trkpt>
      <trkpt lat="43.1211304" lon="-2.7695928">
        <ele>128.821</ele>
        <time>2021-04-01T08:20:54.282Z</time>
      </trkpt>
      <trkpt lat="43.1211375" lon="-2.7695989">
        <ele>129.105</ele>
        <time>2021-04-01T08:20:54.463Z</time>
      </trkpt>
      <trkpt lat="43.1211304" lon="-2.7695928">
        <ele>128.821</ele>
        <time>2021-04-01T08:20:54.644Z</time>
      </trkpt>
      <trkpt lat="43.1211206" lon="-2.7695803">
        <ele>128.922</ele>
        <time>2021-04-01T08:20:54.825Z</time>
      </trkpt>
      <trkpt lat="43.1211028" lon="-2.7695663">
        <ele>128.927</ele>
        <time>2021-04-01T08:20:55.026Z</time>
      </trkpt>
      <trkpt lat="43.1211" lon="-2.7695621">
        <ele>128.705</ele>
        <time>2021-04-01T08:20:55.228Z</time>
      </trkpt>
      <trkpt lat="43.1211028" lon="-2.7695663">
        <ele>128.927</ele>
        <time>2021-04-01T08:20:55.430Z</time>
      </trkpt>
      <trkpt lat="43.1211" lon="-2.7695621">
        <ele>128.705</ele>
        <time>2021-04-01T08:20:55.631Z</time>
      </trkpt>
      <trkpt lat="43.1210961" lon="-2.769556">
        <ele>128.582</ele>
        <time>2021-04-01T08:20:55.833Z</time>
      </trkpt>
      <trkpt lat="43.1211028" lon="-2.7695663">
        <ele>128.927</ele>
        <time>2021-04-01T08:20:56.035Z</time>
      </trkpt>
      <trkpt lat="43.1211" lon="-2.7695621">
        <ele>128.705</ele>
        <time>2021-04-01T08:20:56.236Z</time>
      </trkpt>
      <trkpt lat="43.1210961" lon="-2.769556">
        <ele>128.582</ele>
        <time>2021-04-01T08:20:56.438Z</time>
      </trkpt>
      <trkpt lat="43.1210743" lon="-2.769531">
        <ele>127.861</ele>
        <time>2021-04-01T08:20:58.290Z</time>
      </trkpt>
      <trkpt lat="43.1210543" lon="-2.7695059">
        <ele>127.284</ele>
        <time>2021-04-01T08:20:58.633Z</time>
      </trkpt>
      <trkpt lat="43.1210493" lon="-2.769499">
        <ele>127.186</ele>
        <time>2021-04-01T08:20:58.977Z</time>
      </trkpt>
      <trkpt lat="43.1210543" lon="-2.7695059">
        <ele>127.284</ele>
        <time>2021-04-01T08:20:59.321Z</time>
      </trkpt>
      <trkpt lat="43.1210493" lon="-2.769499">
        <ele>127.186</ele>
        <time>2021-04-01T08:20:59.665Z</time>
      </trkpt>
      <trkpt lat="43.1209742" lon="-2.7694177">
        <ele>125.375</ele>
        <time>2021-04-01T08:20:59.930Z</time>
      </trkpt>
      <trkpt lat="43.1209381" lon="-2.769371">
        <ele>126.204</ele>
        <time>2021-04-01T08:21:00.196Z</time>
      </trkpt>
      <trkpt lat="43.120936" lon="-2.7693694">
        <ele>125.938</ele>
        <time>2021-04-01T08:21:00.462Z</time>
      </trkpt>
      <trkpt lat="43.1209381" lon="-2.769371">
        <ele>126.204</ele>
        <time>2021-04-01T08:21:00.728Z</time>
      </trkpt>
      <trkpt lat="43.120936" lon="-2.7693694">
        <ele>125.938</ele>
        <time>2021-04-01T08:21:00.994Z</time>
      </trkpt>
      <trkpt lat="43.1209187" lon="-2.7693495">
        <ele>126.528</ele>
        <time>2021-04-01T08:21:01.260Z</time>
      </trkpt>
      <trkpt lat="43.1209017" lon="-2.7693386">
        <ele>126.056</ele>
        <time>2021-04-01T08:21:01.521Z</time>
      </trkpt>
      <trkpt lat="43.1208991" lon="-2.769337">
        <ele>125.935</ele>
        <time>2021-04-01T08:21:01.782Z</time>
      </trkpt>
      <trkpt lat="43.1209017" lon="-2.7693386">
        <ele>126.056</ele>
        <time>2021-04-01T08:21:02.043Z</time>
      </trkpt>
      <trkpt lat="43.1208991" lon="-2.769337">
        <ele>125.935</ele>
        <time>2021-04-01T08:21:02.305Z</time>
      </trkpt>
      <trkpt lat="43.1208784" lon="-2.7693209">
        <ele>125.765</ele>
        <time>2021-04-01T08:21:02.566Z</time>
      </trkpt>
      <trkpt lat="43.1208991" lon="-2.769337">
        <ele>125.935</ele>
        <time>2021-04-01T08:21:02.827Z</time>
      </trkpt>
      <trkpt lat="43.1208784" lon="-2.7693209">
        <ele>125.765</ele>
        <time>2021-04-01T08:21:03.088Z</time>
      </trkpt>
      <trkpt lat="43.1208373" lon="-2.7692762">
        <ele>125.676</ele>
        <time>2021-04-01T08:21:04.835Z</time>
      </trkpt>
      <trkpt lat="43.1207831" lon="-2.7692237">
        <ele>125.711</ele>
        <time>2021-04-01T08:21:05.093Z</time>
      </trkpt>
      <trkpt lat="43.1207636" lon="-2.7692049">
        <ele>126.04</ele>
        <time>2021-04-01T08:21:05.352Z</time>
      </trkpt>
      <trkpt lat="43.1207599" lon="-2.7692">
        <ele>126.223</ele>
        <time>2021-04-01T08:21:05.610Z</time>
      </trkpt>
      <trkpt lat="43.1207653" lon="-2.7692074">
        <ele>125.937</ele>
        <time>2021-04-01T08:21:05.869Z</time>
      </trkpt>
      <trkpt lat="43.1207636" lon="-2.7692049">
        <ele>126.04</ele>
        <time>2021-04-01T08:21:06.127Z</time>
      </trkpt>
      <trkpt lat="43.1207599" lon="-2.7692">
        <ele>126.223</ele>
        <time>2021-04-01T08:21:06.386Z</time>
      </trkpt>
      <trkpt lat="43.1207653" lon="-2.7692074">
        <ele>125.937</ele>
        <time>2021-04-01T08:21:06.644Z</time>
      </trkpt>
      <trkpt lat="43.1207636" lon="-2.7692049">
        <ele>126.04</ele>
        <time>2021-04-01T08:21:06.903Z</time>
      </trkpt>
      <trkpt lat="43.1207599" lon="-2.7692">
        <ele>126.223</ele>
        <time>2021-04-01T08:21:07.161Z</time>
      </trkpt>
      <trkpt lat="43.1206896" lon="-2.7691225">
        <ele>127.354</ele>
        <time>2021-04-01T08:21:07.750Z</time>
      </trkpt>
      <trkpt lat="43.1206773" lon="-2.7691091">
        <ele>127.616</ele>
        <time>2021-04-01T08:21:08.017Z</time>
      </trkpt>
      <trkpt lat="43.120648" lon="-2.7690776">
        <ele>128.182</ele>
        <time>2021-04-01T08:21:08.284Z</time>
      </trkpt>
      <trkpt lat="43.120654" lon="-2.7690846">
        <ele>128.172</ele>
        <time>2021-04-01T08:21:08.551Z</time>
      </trkpt>
      <trkpt lat="43.120648" lon="-2.7690776">
        <ele>128.182</ele>
        <time>2021-04-01T08:21:08.818Z</time>
      </trkpt>
      <trkpt lat="43.120654" lon="-2.7690846">
        <ele>128.172</ele>
        <time>2021-04-01T08:21:09.085Z</time>
      </trkpt>
      <trkpt lat="43.120648" lon="-2.7690776">
        <ele>128.182</ele>
        <time>2021-04-01T08:21:09.352Z</time>
      </trkpt>
      <trkpt lat="43.1206079" lon="-2.7690291">
        <ele>127.737</ele>
        <time>2021-04-01T08:21:09.620Z</time>
      </trkpt>
      <trkpt lat="43.1206038" lon="-2.7690243">
        <ele>127.806</ele>
        <time>2021-04-01T08:21:09.902Z</time>
      </trkpt>
      <trkpt lat="43.1206012" lon="-2.7690227">
        <ele>127.747</ele>
        <time>2021-04-01T08:21:10.185Z</time>
      </trkpt>
      <trkpt lat="43.1205892" lon="-2.7690151">
        <ele>127.823</ele>
        <time>2021-04-01T08:21:10.468Z</time>
      </trkpt>
      <trkpt lat="43.1206038" lon="-2.7690243">
        <ele>127.806</ele>
        <time>2021-04-01T08:21:10.751Z</time>
      </trkpt>
      <trkpt lat="43.1206012" lon="-2.7690227">
        <ele>127.747</ele>
        <time>2021-04-01T08:21:11.034Z</time>
      </trkpt>
      <trkpt lat="43.1205892" lon="-2.7690151">
        <ele>127.823</ele>
        <time>2021-04-01T08:21:11.317Z</time>
      </trkpt>
      <trkpt lat="43.1205234" lon="-2.7689449">
        <ele>128.498</ele>
        <time>2021-04-01T08:21:12.315Z</time>
      </trkpt>
      <trkpt lat="43.1204932" lon="-2.7689053">
        <ele>130.082</ele>
        <time>2021-04-01T08:21:14.405Z</time>
      </trkpt>
      <trkpt lat="43.1204741" lon="-2.7688832">
        <ele>130.486</ele>
        <time>2021-04-01T08:21:14.557Z</time>
      </trkpt>
      <trkpt lat="43.1204721" lon="-2.7688801">
        <ele>130.559</ele>
        <time>2021-04-01T08:21:14.710Z</time>
      </trkpt>
      <trkpt lat="43.1204696" lon="-2.768877">
        <ele>130.669</ele>
        <time>2021-04-01T08:21:14.863Z</time>
      </trkpt>
      <trkpt lat="43.1204785" lon="-2.7688888">
        <ele>130.394</ele>
        <time>2021-04-01T08:21:15.016Z</time>
      </trkpt>
      <trkpt lat="43.1204741" lon="-2.7688832">
        <ele>130.486</ele>
        <time>2021-04-01T08:21:15.168Z</time>
      </trkpt>
      <trkpt lat="43.1204721" lon="-2.7688801">
        <ele>130.559</ele>
        <time>2021-04-01T08:21:15.321Z</time>
      </trkpt>
      <trkpt lat="43.1204696" lon="-2.768877">
        <ele>130.669</ele>
        <time>2021-04-01T08:21:15.474Z</time>
      </trkpt>
      <trkpt lat="43.1204721" lon="-2.7688801">
        <ele>130.559</ele>
        <time>2021-04-01T08:21:15.627Z</time>
      </trkpt>
      <trkpt lat="43.1204696" lon="-2.768877">
        <ele>130.669</ele>
        <time>2021-04-01T08:21:15.780Z</time>
      </trkpt>
      <trkpt lat="43.1203374" lon="-2.7687415">
        <ele>131.471</ele>
        <time>2021-04-01T08:21:16.275Z</time>
      </trkpt>
      <trkpt lat="43.1203193" lon="-2.7687255">
        <ele>131.534</ele>
        <time>2021-04-01T08:21:16.770Z</time>
      </trkpt>
      <trkpt lat="43.1203193" lon="-2.7687255">
        <ele>131.534</ele>
        <time>2021-04-01T08:21:17.265Z</time>
      </trkpt>
      <trkpt lat="43.1202488" lon="-2.7686595">
        <ele>130.901</ele>
        <time>2021-04-01T08:21:18.750Z</time>
      </trkpt>
      <trkpt lat="43.1202064" lon="-2.7686255">
        <ele>129.872</ele>
        <time>2021-04-01T08:21:19.091Z</time>
      </trkpt>
      <trkpt lat="43.1201688" lon="-2.7686071">
        <ele>129.088</ele>
        <time>2021-04-01T08:21:19.432Z</time>
      </trkpt>
      <trkpt lat="43.1202064" lon="-2.7686255">
        <ele>129.872</ele>
        <time>2021-04-01T08:21:19.773Z</time>
      </trkpt>
      <trkpt lat="43.1201688" lon="-2.7686071">
        <ele>129.088</ele>
        <time>2021-04-01T08:21:20.114Z</time>
      </trkpt>
      <trkpt lat="43.1201264" lon="-2.7685883">
        <ele>128.594</ele>
        <time>2021-04-01T08:21:22.765Z</time>
      </trkpt>
      <trkpt lat="43.1200083" lon="-2.7685302">
        <ele>127.856</ele>
        <time>2021-04-01T08:21:22.966Z</time>
      </trkpt>
      <trkpt lat="43.1200198" lon="-2.7685346">
        <ele>127.784</ele>
        <time>2021-04-01T08:21:23.168Z</time>
      </trkpt>
      <trkpt lat="43.1200083" lon="-2.7685302">
        <ele>127.856</ele>
        <time>2021-04-01T08:21:23.370Z</time>
      </trkpt>
      <trkpt lat="43.1200198" lon="-2.7685346">
        <ele>127.784</ele>
        <time>2021-04-01T08:21:23.571Z</time>
      </trkpt>
      <trkpt lat="43.1200083" lon="-2.7685302">
        <ele>127.856</ele>
        <time>2021-04-01T08:21:23.773Z</time>
      </trkpt>
      <trkpt lat="43.1199484" lon="-2.7685023">
        <ele>128.173</ele>
        <time>2021-04-01T08:21:23.975Z</time>
      </trkpt>
      <trkpt lat="43.1199433" lon="-2.7684989">
        <ele>128.395</ele>
        <time>2021-04-01T08:21:24.156Z</time>
      </trkpt>
      <trkpt lat="43.1199318" lon="-2.7684938">
        <ele>128.822</ele>
        <time>2021-04-01T08:21:24.338Z</time>
      </trkpt>
      <trkpt lat="43.1199261" lon="-2.7684914">
        <ele>128.858</ele>
        <time>2021-04-01T08:21:24.519Z</time>
      </trkpt>
      <trkpt lat="43.1199433" lon="-2.7684989">
        <ele>128.395</ele>
        <time>2021-04-01T08:21:24.701Z</time>
      </trkpt>
      <trkpt lat="43.1199318" lon="-2.7684938">
        <ele>128.822</ele>
        <time>2021-04-01T08:21:24.882Z</time>
      </trkpt>
      <trkpt lat="43.1199261" lon="-2.7684914">
        <ele>128.858</ele>
        <time>2021-04-01T08:21:25.064Z</time>
      </trkpt>
      <trkpt lat="43.1199433" lon="-2.7684989">
        <ele>128.395</ele>
        <time>2021-04-01T08:21:25.245Z</time>
      </trkpt>
      <trkpt lat="43.1199318" lon="-2.7684938">
        <ele>128.822</ele>
        <time>2021-04-01T08:21:25.427Z</time>
      </trkpt>
      <trkpt lat="43.1199261" lon="-2.7684914">
        <ele>128.858</ele>
        <time>2021-04-01T08:21:25.608Z</time>
      </trkpt>
      <trkpt lat="43.1198593" lon="-2.7684565">
        <ele>129.511</ele>
        <time>2021-04-01T08:21:27.055Z</time>
      </trkpt>
      <trkpt lat="43.1198066" lon="-2.7683987">
        <ele>133.551</ele>
        <time>2021-04-01T08:21:27.462Z</time>
      </trkpt>
      <trkpt lat="43.1197902" lon="-2.7683834">
        <ele>134.505</ele>
        <time>2021-04-01T08:21:27.869Z</time>
      </trkpt>
      <trkpt lat="43.1197902" lon="-2.7683834">
        <ele>134.505</ele>
        <time>2021-04-01T08:21:28.276Z</time>
      </trkpt>
      <trkpt lat="43.1197902" lon="-2.7683834">
        <ele>134.505</ele>
        <time>2021-04-01T08:21:28.683Z</time>
      </trkpt>
      <trkpt lat="43.1197065" lon="-2.7683418">
        <ele>135.968</ele>
        <time>2021-04-01T08:21:30.025Z</time>
      </trkpt>
      <trkpt lat="43.1196542" lon="-2.7683247">
        <ele>136.605</ele>
        <time>2021-04-01T08:21:30.423Z</time>
      </trkpt>
      <trkpt lat="43.1196252" lon="-2.7683049">
        <ele>136.848</ele>
        <time>2021-04-01T08:21:30.822Z</time>
      </trkpt>
      <trkpt lat="43.1196252" lon="-2.7683049">
        <ele>136.848</ele>
        <time>2021-04-01T08:21:31.221Z</time>
      </trkpt>
      <trkpt lat="43.1195859" lon="-2.7682814">
        <ele>136.837</ele>
        <time>2021-04-01T08:21:33.160Z</time>
      </trkpt>
      <trkpt lat="43.1195194" lon="-2.7682598">
        <ele>136.789</ele>
        <time>2021-04-01T08:21:34.975Z</time>
      </trkpt>
      <trkpt lat="43.1194334" lon="-2.7682206">
        <ele>135.741</ele>
        <time>2021-04-01T08:21:35.387Z</time>
      </trkpt>
      <trkpt lat="43.1194362" lon="-2.7682217">
        <ele>135.93</ele>
        <time>2021-04-01T08:21:35.800Z</time>
      </trkpt>
      <trkpt lat="43.1194334" lon="-2.7682206">
        <ele>135.741</ele>
        <time>2021-04-01T08:21:36.212Z</time>
      </trkpt>
      <trkpt lat="43.1193562" lon="-2.7681775">
        <ele>134.455</ele>
        <time>2021-04-01T08:21:37.945Z</time>
      </trkpt>
      <trkpt lat="43.1192978" lon="-2.7681472">
        <ele>133.388</ele>
        <time>2021-04-01T08:21:39.650Z</time>
      </trkpt>
      <trkpt lat="43.119219" lon="-2.7681005">
        <ele>133.996</ele>
        <time>2021-04-01T08:21:41.905Z</time>
      </trkpt>
      <trkpt lat="43.119117" lon="-2.7680486">
        <ele>133.489</ele>
        <time>2021-04-01T08:21:42.950Z</time>
      </trkpt>
      <trkpt lat="43.1190652" lon="-2.7680274">
        <ele>133.172</ele>
        <time>2021-04-01T08:21:43.142Z</time>
      </trkpt>
      <trkpt lat="43.1190676" lon="-2.7680283">
        <ele>133.282</ele>
        <time>2021-04-01T08:21:43.335Z</time>
      </trkpt>
      <trkpt lat="43.1190652" lon="-2.7680274">
        <ele>133.172</ele>
        <time>2021-04-01T08:21:43.527Z</time>
      </trkpt>
      <trkpt lat="43.1190676" lon="-2.7680283">
        <ele>133.282</ele>
        <time>2021-04-01T08:21:43.720Z</time>
      </trkpt>
      <trkpt lat="43.1190652" lon="-2.7680274">
        <ele>133.172</ele>
        <time>2021-04-01T08:21:43.912Z</time>
      </trkpt>
      <trkpt lat="43.1190139" lon="-2.7680018">
        <ele>133.515</ele>
        <time>2021-04-01T08:21:46.195Z</time>
      </trkpt>
      <trkpt lat="43.118924" lon="-2.7679567">
        <ele>133.852</ele>
        <time>2021-04-01T08:21:46.390Z</time>
      </trkpt>
      <trkpt lat="43.1189215" lon="-2.7679551">
        <ele>133.928</ele>
        <time>2021-04-01T08:21:46.585Z</time>
      </trkpt>
      <trkpt lat="43.1189383" lon="-2.7679642">
        <ele>133.703</ele>
        <time>2021-04-01T08:21:46.780Z</time>
      </trkpt>
      <trkpt lat="43.1189337" lon="-2.7679621">
        <ele>133.659</ele>
        <time>2021-04-01T08:21:46.975Z</time>
      </trkpt>
      <trkpt lat="43.118924" lon="-2.7679567">
        <ele>133.852</ele>
        <time>2021-04-01T08:21:47.170Z</time>
      </trkpt>
      <trkpt lat="43.1189215" lon="-2.7679551">
        <ele>133.928</ele>
        <time>2021-04-01T08:21:47.365Z</time>
      </trkpt>
      <trkpt lat="43.1189383" lon="-2.7679642">
        <ele>133.703</ele>
        <time>2021-04-01T08:21:47.560Z</time>
      </trkpt>
      <trkpt lat="43.1189337" lon="-2.7679621">
        <ele>133.659</ele>
        <time>2021-04-01T08:21:47.755Z</time>
      </trkpt>
      <trkpt lat="43.118924" lon="-2.7679567">
        <ele>133.852</ele>
        <time>2021-04-01T08:21:47.950Z</time>
      </trkpt>
      <trkpt lat="43.1189215" lon="-2.7679551">
        <ele>133.928</ele>
        <time>2021-04-01T08:21:48.145Z</time>
      </trkpt>
      <trkpt lat="43.1188302" lon="-2.767886">
        <ele>138.851</ele>
        <time>2021-04-01T08:21:48.340Z</time>
      </trkpt>
      <trkpt lat="43.1188495" lon="-2.7679006">
        <ele>138.086</ele>
        <time>2021-04-01T08:21:48.400Z</time>
      </trkpt>
      <trkpt lat="43.1188474" lon="-2.7678986">
        <ele>138.27</ele>
        <time>2021-04-01T08:21:48.461Z</time>
      </trkpt>
      <trkpt lat="43.1188451" lon="-2.7678967">
        <ele>138.39</ele>
        <time>2021-04-01T08:21:48.521Z</time>
      </trkpt>
      <trkpt lat="43.1188495" lon="-2.7679006">
        <ele>138.086</ele>
        <time>2021-04-01T08:21:48.582Z</time>
      </trkpt>
      <trkpt lat="43.1188474" lon="-2.7678986">
        <ele>138.27</ele>
        <time>2021-04-01T08:21:48.642Z</time>
      </trkpt>
      <trkpt lat="43.1188451" lon="-2.7678967">
        <ele>138.39</ele>
        <time>2021-04-01T08:21:48.703Z</time>
      </trkpt>
      <trkpt lat="43.1188495" lon="-2.7679006">
        <ele>138.086</ele>
        <time>2021-04-01T08:21:48.763Z</time>
      </trkpt>
      <trkpt lat="43.1188474" lon="-2.7678986">
        <ele>138.27</ele>
        <time>2021-04-01T08:21:48.824Z</time>
      </trkpt>
      <trkpt lat="43.1188451" lon="-2.7678967">
        <ele>138.39</ele>
        <time>2021-04-01T08:21:48.884Z</time>
      </trkpt>
      <trkpt lat="43.1188018" lon="-2.7678705">
        <ele>139.049</ele>
        <time>2021-04-01T08:21:50.980Z</time>
      </trkpt>
      <trkpt lat="43.1187062" lon="-2.7678232">
        <ele>139.685</ele>
        <time>2021-04-01T08:21:51.346Z</time>
      </trkpt>
      <trkpt lat="43.1187162" lon="-2.7678291">
        <ele>139.512</ele>
        <time>2021-04-01T08:21:51.713Z</time>
      </trkpt>
      <trkpt lat="43.1187062" lon="-2.7678232">
        <ele>139.685</ele>
        <time>2021-04-01T08:21:52.080Z</time>
      </trkpt>
      <trkpt lat="43.1187162" lon="-2.7678291">
        <ele>139.512</ele>
        <time>2021-04-01T08:21:52.446Z</time>
      </trkpt>
      <trkpt lat="43.1187062" lon="-2.7678232">
        <ele>139.685</ele>
        <time>2021-04-01T08:21:52.813Z</time>
      </trkpt>
      <trkpt lat="43.1186075" lon="-2.7677711">
        <ele>140.487</ele>
        <time>2021-04-01T08:21:54.775Z</time>
      </trkpt>
      <trkpt lat="43.11853" lon="-2.7677309">
        <ele>140.771</ele>
        <time>2021-04-01T08:21:55.105Z</time>
      </trkpt>
      <trkpt lat="43.1185462" lon="-2.7677389">
        <ele>140.697</ele>
        <time>2021-04-01T08:21:55.435Z</time>
      </trkpt>
      <trkpt lat="43.1185544" lon="-2.7677431">
        <ele>140.673</ele>
        <time>2021-04-01T08:21:55.765Z</time>
      </trkpt>
      <trkpt lat="43.1185462" lon="-2.7677389">
        <ele>140.697</ele>
        <time>2021-04-01T08:21:56.095Z</time>
      </trkpt>
      <trkpt lat="43.1184513" lon="-2.7676889">
        <ele>140.982</ele>
        <time>2021-04-01T08:21:56.810Z</time>
      </trkpt>
      <trkpt lat="43.1184335" lon="-2.7676803">
        <ele>140.786</ele>
        <time>2021-04-01T08:22:00.000Z</time>
      </trkpt>
      <trkpt lat="43.1182808" lon="-2.767614">
        <ele>140.549</ele>
        <time>2021-04-01T08:22:00.201Z</time>
      </trkpt>
      <trkpt lat="43.1182783" lon="-2.7676132">
        <ele>140.484</ele>
        <time>2021-04-01T08:22:00.403Z</time>
      </trkpt>
      <trkpt lat="43.1182386" lon="-2.7675942">
        <ele>140.509</ele>
        <time>2021-04-01T08:22:00.605Z</time>
      </trkpt>
      <trkpt lat="43.1182783" lon="-2.7676132">
        <ele>140.484</ele>
        <time>2021-04-01T08:22:00.806Z</time>
      </trkpt>
      <trkpt lat="43.1182386" lon="-2.7675942">
        <ele>140.509</ele>
        <time>2021-04-01T08:22:01.008Z</time>
      </trkpt>
      <trkpt lat="43.1182224" lon="-2.7675865">
        <ele>140.648</ele>
        <time>2021-04-01T08:22:01.210Z</time>
      </trkpt>
      <trkpt lat="43.1180967" lon="-2.7675242">
        <ele>141.476</ele>
        <time>2021-04-01T08:22:04.950Z</time>
      </trkpt>
      <trkpt lat="43.1180436" lon="-2.7674993">
        <ele>140.973</ele>
        <time>2021-04-01T08:22:05.313Z</time>
      </trkpt>
      <trkpt lat="43.1180354" lon="-2.7674956">
        <ele>140.926</ele>
        <time>2021-04-01T08:22:05.676Z</time>
      </trkpt>
      <trkpt lat="43.1180436" lon="-2.7674993">
        <ele>140.973</ele>
        <time>2021-04-01T08:22:06.039Z</time>
      </trkpt>
      <trkpt lat="43.1180354" lon="-2.7674956">
        <ele>140.926</ele>
        <time>2021-04-01T08:22:06.402Z</time>
      </trkpt>
      <trkpt lat="43.117952" lon="-2.767456">
        <ele>140.954</ele>
        <time>2021-04-01T08:22:08.140Z</time>
      </trkpt>
      <trkpt lat="43.1178816" lon="-2.7674219">
        <ele>141.035</ele>
        <time>2021-04-01T08:22:08.701Z</time>
      </trkpt>
      <trkpt lat="43.1178732" lon="-2.7674188">
        <ele>141.043</ele>
        <time>2021-04-01T08:22:09.262Z</time>
      </trkpt>
      <trkpt lat="43.1178732" lon="-2.7674188">
        <ele>141.043</ele>
        <time>2021-04-01T08:22:09.823Z</time>
      </trkpt>
      <trkpt lat="43.1178732" lon="-2.7674188">
        <ele>141.043</ele>
        <time>2021-04-01T08:22:10.384Z</time>
      </trkpt>
      <trkpt lat="43.1177437" lon="-2.7673606">
        <ele>140.381</ele>
        <time>2021-04-01T08:22:10.945Z</time>
      </trkpt>
      <trkpt lat="43.1177831" lon="-2.7673811">
        <ele>140.364</ele>
        <time>2021-04-01T08:22:11.133Z</time>
      </trkpt>
      <trkpt lat="43.1177805" lon="-2.7673798">
        <ele>140.328</ele>
        <time>2021-04-01T08:22:11.322Z</time>
      </trkpt>
      <trkpt lat="43.1177778" lon="-2.7673785">
        <ele>140.315</ele>
        <time>2021-04-01T08:22:11.510Z</time>
      </trkpt>
      <trkpt lat="43.1177831" lon="-2.7673811">
        <ele>140.364</ele>
        <time>2021-04-01T08:22:11.699Z</time>
      </trkpt>
      <trkpt lat="43.1177805" lon="-2.7673798">
        <ele>140.328</ele>
        <time>2021-04-01T08:22:11.887Z</time>
      </trkpt>
      <trkpt lat="43.1177778" lon="-2.7673785">
        <ele>140.315</ele>
        <time>2021-04-01T08:22:12.076Z</time>
      </trkpt>
      <trkpt lat="43.1176798" lon="-2.7673279">
        <ele>140.524</ele>
        <time>2021-04-01T08:22:12.980Z</time>
      </trkpt>
      <trkpt lat="43.1176441" lon="-2.7673095">
        <ele>140.926</ele>
        <time>2021-04-01T08:22:13.420Z</time>
      </trkpt>
      <trkpt lat="43.1176131" lon="-2.7672948">
        <ele>141.123</ele>
        <time>2021-04-01T08:22:13.860Z</time>
      </trkpt>
      <trkpt lat="43.1175764" lon="-2.7672786">
        <ele>141.195</ele>
        <time>2021-04-01T08:22:15.785Z</time>
      </trkpt>
      <trkpt lat="43.117499" lon="-2.767239">
        <ele>141.316</ele>
        <time>2021-04-01T08:22:16.091Z</time>
      </trkpt>
      <trkpt lat="43.1174704" lon="-2.7672247">
        <ele>141.51</ele>
        <time>2021-04-01T08:22:16.397Z</time>
      </trkpt>
      <trkpt lat="43.1174933" lon="-2.7672365">
        <ele>141.398</ele>
        <time>2021-04-01T08:22:16.704Z</time>
      </trkpt>
      <trkpt lat="43.1174704" lon="-2.7672247">
        <ele>141.51</ele>
        <time>2021-04-01T08:22:17.010Z</time>
      </trkpt>
      <trkpt lat="43.1174933" lon="-2.7672365">
        <ele>141.398</ele>
        <time>2021-04-01T08:22:17.317Z</time>
      </trkpt>
      <trkpt lat="43.1174704" lon="-2.7672247">
        <ele>141.51</ele>
        <time>2021-04-01T08:22:17.623Z</time>
      </trkpt>
      <trkpt lat="43.1173888" lon="-2.7671806">
        <ele>141.789</ele>
        <time>2021-04-01T08:22:19.140Z</time>
      </trkpt>
      <trkpt lat="43.1173301" lon="-2.7671527">
        <ele>141.615</ele>
        <time>2021-04-01T08:22:20.900Z</time>
      </trkpt>
      <trkpt lat="43.1172431" lon="-2.767114">
        <ele>141.366</ele>
        <time>2021-04-01T08:22:21.266Z</time>
      </trkpt>
      <trkpt lat="43.1172209" lon="-2.7671029">
        <ele>141.405</ele>
        <time>2021-04-01T08:22:21.633Z</time>
      </trkpt>
      <trkpt lat="43.1171885" lon="-2.7670883">
        <ele>141.257</ele>
        <time>2021-04-01T08:22:24.475Z</time>
      </trkpt>
      <trkpt lat="43.1170643" lon="-2.7670326">
        <ele>141.529</ele>
        <time>2021-04-01T08:22:24.600Z</time>
      </trkpt>
      <trkpt lat="43.1170616" lon="-2.7670314">
        <ele>141.53</ele>
        <time>2021-04-01T08:22:24.726Z</time>
      </trkpt>
      <trkpt lat="43.1170643" lon="-2.7670326">
        <ele>141.529</ele>
        <time>2021-04-01T08:22:24.852Z</time>
      </trkpt>
      <trkpt lat="43.1170616" lon="-2.7670314">
        <ele>141.53</ele>
        <time>2021-04-01T08:22:24.977Z</time>
      </trkpt>
      <trkpt lat="43.1170643" lon="-2.7670326">
        <ele>141.529</ele>
        <time>2021-04-01T08:22:25.103Z</time>
      </trkpt>
      <trkpt lat="43.1170616" lon="-2.7670314">
        <ele>141.53</ele>
        <time>2021-04-01T08:22:25.229Z</time>
      </trkpt>
      <trkpt lat="43.1170219" lon="-2.7670136">
        <ele>141.02</ele>
        <time>2021-04-01T08:22:28.050Z</time>
      </trkpt>
      <trkpt lat="43.1168894" lon="-2.7669597">
        <ele>140.714</ele>
        <time>2021-04-01T08:22:28.380Z</time>
      </trkpt>
      <trkpt lat="43.1169279" lon="-2.766976">
        <ele>140.884</ele>
        <time>2021-04-01T08:22:28.606Z</time>
      </trkpt>
      <trkpt lat="43.1169252" lon="-2.7669748">
        <ele>140.842</ele>
        <time>2021-04-01T08:22:28.832Z</time>
      </trkpt>
      <trkpt lat="43.1169331" lon="-2.7669782">
        <ele>140.85</ele>
        <time>2021-04-01T08:22:29.058Z</time>
      </trkpt>
      <trkpt lat="43.1169224" lon="-2.7669737">
        <ele>140.827</ele>
        <time>2021-04-01T08:22:29.284Z</time>
      </trkpt>
      <trkpt lat="43.1169195" lon="-2.7669723">
        <ele>140.86</ele>
        <time>2021-04-01T08:22:29.510Z</time>
      </trkpt>
      <trkpt lat="43.1169114" lon="-2.7669689">
        <ele>140.848</ele>
        <time>2021-04-01T08:22:29.736Z</time>
      </trkpt>
      <trkpt lat="43.1169224" lon="-2.7669737">
        <ele>140.827</ele>
        <time>2021-04-01T08:22:29.962Z</time>
      </trkpt>
      <trkpt lat="43.1169114" lon="-2.7669689">
        <ele>140.848</ele>
        <time>2021-04-01T08:22:30.188Z</time>
      </trkpt>
      <trkpt lat="43.1169114" lon="-2.7669689">
        <ele>140.848</ele>
        <time>2021-04-01T08:22:30.415Z</time>
      </trkpt>
      <trkpt lat="43.1167689" lon="-2.7669107">
        <ele>139.572</ele>
        <time>2021-04-01T08:22:30.827Z</time>
      </trkpt>
      <trkpt lat="43.116757" lon="-2.7669034">
        <ele>139.418</ele>
        <time>2021-04-01T08:22:31.240Z</time>
      </trkpt>
      <trkpt lat="43.116757" lon="-2.7669034">
        <ele>139.418</ele>
        <time>2021-04-01T08:22:31.652Z</time>
      </trkpt>
      <trkpt lat="43.1166835" lon="-2.7668728">
        <ele>138.349</ele>
        <time>2021-04-01T08:22:33.880Z</time>
      </trkpt>
      <trkpt lat="43.1165892" lon="-2.7668336">
        <ele>137.483</ele>
        <time>2021-04-01T08:22:35.035Z</time>
      </trkpt>
      <trkpt lat="43.1165299" lon="-2.7668073">
        <ele>137.218</ele>
        <time>2021-04-01T08:22:36.080Z</time>
      </trkpt>
      <trkpt lat="43.1165019" lon="-2.7667958">
        <ele>136.997</ele>
        <time>2021-04-01T08:22:36.184Z</time>
      </trkpt>
      <trkpt lat="43.1165241" lon="-2.766805">
        <ele>137.212</ele>
        <time>2021-04-01T08:22:36.288Z</time>
      </trkpt>
      <trkpt lat="43.1165103" lon="-2.7667993">
        <ele>137.047</ele>
        <time>2021-04-01T08:22:36.392Z</time>
      </trkpt>
      <trkpt lat="43.1165076" lon="-2.7667981">
        <ele>137.07</ele>
        <time>2021-04-01T08:22:36.496Z</time>
      </trkpt>
      <trkpt lat="43.1165019" lon="-2.7667958">
        <ele>136.997</ele>
        <time>2021-04-01T08:22:36.601Z</time>
      </trkpt>
      <trkpt lat="43.1165241" lon="-2.766805">
        <ele>137.212</ele>
        <time>2021-04-01T08:22:36.705Z</time>
      </trkpt>
      <trkpt lat="43.1165103" lon="-2.7667993">
        <ele>137.047</ele>
        <time>2021-04-01T08:22:36.809Z</time>
      </trkpt>
      <trkpt lat="43.1165076" lon="-2.7667981">
        <ele>137.07</ele>
        <time>2021-04-01T08:22:36.913Z</time>
      </trkpt>
      <trkpt lat="43.1165019" lon="-2.7667958">
        <ele>136.997</ele>
        <time>2021-04-01T08:22:37.017Z</time>
      </trkpt>
      <trkpt lat="43.1164763" lon="-2.7667863">
        <ele>136.876</ele>
        <time>2021-04-01T08:22:37.122Z</time>
      </trkpt>
      <trkpt lat="43.116429" lon="-2.7667679">
        <ele>136.38</ele>
        <time>2021-04-01T08:22:37.226Z</time>
      </trkpt>
      <trkpt lat="43.1164261" lon="-2.766767">
        <ele>136.32</ele>
        <time>2021-04-01T08:22:37.330Z</time>
      </trkpt>
      <trkpt lat="43.1164539" lon="-2.7667776">
        <ele>136.649</ele>
        <time>2021-04-01T08:22:37.434Z</time>
      </trkpt>
      <trkpt lat="43.1164174" lon="-2.7667638">
        <ele>136.276</ele>
        <time>2021-04-01T08:22:37.538Z</time>
      </trkpt>
      <trkpt lat="43.1164261" lon="-2.766767">
        <ele>136.32</ele>
        <time>2021-04-01T08:22:37.643Z</time>
      </trkpt>
      <trkpt lat="43.1164174" lon="-2.7667638">
        <ele>136.276</ele>
        <time>2021-04-01T08:22:37.747Z</time>
      </trkpt>
      <trkpt lat="43.1164261" lon="-2.766767">
        <ele>136.32</ele>
        <time>2021-04-01T08:22:37.851Z</time>
      </trkpt>
      <trkpt lat="43.1164174" lon="-2.7667638">
        <ele>136.276</ele>
        <time>2021-04-01T08:22:37.955Z</time>
      </trkpt>
      <trkpt lat="43.1163757" lon="-2.7667454">
        <ele>136.217</ele>
        <time>2021-04-01T08:22:38.060Z</time>
      </trkpt>
      <trkpt lat="43.1163757" lon="-2.7667454">
        <ele>136.217</ele>
        <time>2021-04-01T08:22:39.105Z</time>
      </trkpt>
      <trkpt lat="43.1162748" lon="-2.7666985">
        <ele>136.01</ele>
        <time>2021-04-01T08:22:40.150Z</time>
      </trkpt>
      <trkpt lat="43.1162613" lon="-2.7666931">
        <ele>136.055</ele>
        <time>2021-04-01T08:22:40.425Z</time>
      </trkpt>
      <trkpt lat="43.116282" lon="-2.7667016">
        <ele>136.142</ele>
        <time>2021-04-01T08:22:40.700Z</time>
      </trkpt>
      <trkpt lat="43.1162748" lon="-2.7666985">
        <ele>136.01</ele>
        <time>2021-04-01T08:22:40.975Z</time>
      </trkpt>
      <trkpt lat="43.1162613" lon="-2.7666931">
        <ele>136.055</ele>
        <time>2021-04-01T08:22:41.250Z</time>
      </trkpt>
      <trkpt lat="43.1162087" lon="-2.7666709">
        <ele>135.863</ele>
        <time>2021-04-01T08:22:42.570Z</time>
      </trkpt>
      <trkpt lat="43.1161562" lon="-2.7666489">
        <ele>135.887</ele>
        <time>2021-04-01T08:22:42.890Z</time>
      </trkpt>
      <trkpt lat="43.1161153" lon="-2.7666331">
        <ele>135.783</ele>
        <time>2021-04-01T08:22:43.211Z</time>
      </trkpt>
      <trkpt lat="43.1161099" lon="-2.7666307">
        <ele>135.805</ele>
        <time>2021-04-01T08:22:43.532Z</time>
      </trkpt>
      <trkpt lat="43.1161153" lon="-2.7666331">
        <ele>135.783</ele>
        <time>2021-04-01T08:22:43.853Z</time>
      </trkpt>
      <trkpt lat="43.1161099" lon="-2.7666307">
        <ele>135.805</ele>
        <time>2021-04-01T08:22:44.174Z</time>
      </trkpt>
      <trkpt lat="43.1160619" lon="-2.766606">
        <ele>135.965</ele>
        <time>2021-04-01T08:22:46.475Z</time>
      </trkpt>
      <trkpt lat="43.1159622" lon="-2.7665581">
        <ele>136.108</ele>
        <time>2021-04-01T08:22:46.849Z</time>
      </trkpt>
      <trkpt lat="43.1159506" lon="-2.7665526">
        <ele>136.154</ele>
        <time>2021-04-01T08:22:47.223Z</time>
      </trkpt>
      <trkpt lat="43.1159622" lon="-2.7665581">
        <ele>136.108</ele>
        <time>2021-04-01T08:22:47.597Z</time>
      </trkpt>
      <trkpt lat="43.1159506" lon="-2.7665526">
        <ele>136.154</ele>
        <time>2021-04-01T08:22:47.971Z</time>
      </trkpt>
      <trkpt lat="43.1158646" lon="-2.7665166">
        <ele>136.319</ele>
        <time>2021-04-01T08:22:48.345Z</time>
      </trkpt>
      <trkpt lat="43.1158819" lon="-2.7665227">
        <ele>136.342</ele>
        <time>2021-04-01T08:22:48.433Z</time>
      </trkpt>
      <trkpt lat="43.1158646" lon="-2.7665166">
        <ele>136.319</ele>
        <time>2021-04-01T08:22:48.521Z</time>
      </trkpt>
      <trkpt lat="43.1158819" lon="-2.7665227">
        <ele>136.342</ele>
        <time>2021-04-01T08:22:48.609Z</time>
      </trkpt>
      <trkpt lat="43.1158646" lon="-2.7665166">
        <ele>136.319</ele>
        <time>2021-04-01T08:22:48.697Z</time>
      </trkpt>
      <trkpt lat="43.115841" lon="-2.7665077">
        <ele>136.175</ele>
        <time>2021-04-01T08:22:50.875Z</time>
      </trkpt>
      <trkpt lat="43.1157305" lon="-2.7664839">
        <ele>135.614</ele>
        <time>2021-04-01T08:22:51.143Z</time>
      </trkpt>
      <trkpt lat="43.1156984" lon="-2.7664826">
        <ele>135.415</ele>
        <time>2021-04-01T08:22:51.411Z</time>
      </trkpt>
      <trkpt lat="43.1156956" lon="-2.7664826">
        <ele>135.384</ele>
        <time>2021-04-01T08:22:51.679Z</time>
      </trkpt>
      <trkpt lat="43.1156984" lon="-2.7664826">
        <ele>135.415</ele>
        <time>2021-04-01T08:22:51.947Z</time>
      </trkpt>
      <trkpt lat="43.1156956" lon="-2.7664826">
        <ele>135.384</ele>
        <time>2021-04-01T08:22:52.215Z</time>
      </trkpt>
      <trkpt lat="43.1156984" lon="-2.7664826">
        <ele>135.415</ele>
        <time>2021-04-01T08:22:52.483Z</time>
      </trkpt>
      <trkpt lat="43.1156956" lon="-2.7664826">
        <ele>135.384</ele>
        <time>2021-04-01T08:22:52.751Z</time>
      </trkpt>
      <trkpt lat="43.1156191" lon="-2.7664827">
        <ele>134.627</ele>
        <time>2021-04-01T08:22:54.340Z</time>
      </trkpt>
      <trkpt lat="43.1155526" lon="-2.7664864">
        <ele>134.337</ele>
        <time>2021-04-01T08:22:54.505Z</time>
      </trkpt>
      <trkpt lat="43.11555" lon="-2.7664865">
        <ele>134.315</ele>
        <time>2021-04-01T08:22:54.670Z</time>
      </trkpt>
      <trkpt lat="43.1155526" lon="-2.7664864">
        <ele>134.337</ele>
        <time>2021-04-01T08:22:54.835Z</time>
      </trkpt>
      <trkpt lat="43.11555" lon="-2.7664865">
        <ele>134.315</ele>
        <time>2021-04-01T08:22:55.000Z</time>
      </trkpt>
      <trkpt lat="43.1155526" lon="-2.7664864">
        <ele>134.337</ele>
        <time>2021-04-01T08:22:55.165Z</time>
      </trkpt>
      <trkpt lat="43.11555" lon="-2.7664865">
        <ele>134.315</ele>
        <time>2021-04-01T08:22:55.330Z</time>
      </trkpt>
      <trkpt lat="43.1154982" lon="-2.7664917">
        <ele>133.485</ele>
        <time>2021-04-01T08:22:57.475Z</time>
      </trkpt>
      <trkpt lat="43.1154048" lon="-2.7665077">
        <ele>132.404</ele>
        <time>2021-04-01T08:22:58.520Z</time>
      </trkpt>
      <trkpt lat="43.1153942" lon="-2.7665086">
        <ele>132.347</ele>
        <time>2021-04-01T08:22:58.760Z</time>
      </trkpt>
      <trkpt lat="43.115386" lon="-2.7665094">
        <ele>132.366</ele>
        <time>2021-04-01T08:22:59.001Z</time>
      </trkpt>
      <trkpt lat="43.1154048" lon="-2.7665077">
        <ele>132.404</ele>
        <time>2021-04-01T08:22:59.241Z</time>
      </trkpt>
      <trkpt lat="43.1153942" lon="-2.7665086">
        <ele>132.347</ele>
        <time>2021-04-01T08:22:59.482Z</time>
      </trkpt>
      <trkpt lat="43.115386" lon="-2.7665094">
        <ele>132.366</ele>
        <time>2021-04-01T08:22:59.723Z</time>
      </trkpt>
      <trkpt lat="43.1154048" lon="-2.7665077">
        <ele>132.404</ele>
        <time>2021-04-01T08:22:59.963Z</time>
      </trkpt>
      <trkpt lat="43.1153942" lon="-2.7665086">
        <ele>132.347</ele>
        <time>2021-04-01T08:23:00.204Z</time>
      </trkpt>
      <trkpt lat="43.115386" lon="-2.7665094">
        <ele>132.366</ele>
        <time>2021-04-01T08:23:00.445Z</time>
      </trkpt>
      <trkpt lat="43.1151824" lon="-2.7665372">
        <ele>134.318</ele>
        <time>2021-04-01T08:23:03.745Z</time>
      </trkpt>
      <trkpt lat="43.1151458" lon="-2.7665345">
        <ele>135.281</ele>
        <time>2021-04-01T08:23:04.116Z</time>
      </trkpt>
      <trkpt lat="43.1151688" lon="-2.7665374">
        <ele>134.71</ele>
        <time>2021-04-01T08:23:04.487Z</time>
      </trkpt>
      <trkpt lat="43.1151482" lon="-2.7665344">
        <ele>135.15</ele>
        <time>2021-04-01T08:23:04.858Z</time>
      </trkpt>
      <trkpt lat="43.1151458" lon="-2.7665345">
        <ele>135.281</ele>
        <time>2021-04-01T08:23:05.230Z</time>
      </trkpt>
      <trkpt lat="43.1150187" lon="-2.7665495">
        <ele>136.016</ele>
        <time>2021-04-01T08:23:05.429Z</time>
      </trkpt>
      <trkpt lat="43.1150132" lon="-2.76655">
        <ele>136.057</ele>
        <time>2021-04-01T08:23:05.628Z</time>
      </trkpt>
      <trkpt lat="43.1150102" lon="-2.7665499">
        <ele>136.113</ele>
        <time>2021-04-01T08:23:05.828Z</time>
      </trkpt>
      <trkpt lat="43.115007" lon="-2.7665503">
        <ele>136.195</ele>
        <time>2021-04-01T08:23:06.027Z</time>
      </trkpt>
      <trkpt lat="43.1150132" lon="-2.76655">
        <ele>136.057</ele>
        <time>2021-04-01T08:23:06.226Z</time>
      </trkpt>
      <trkpt lat="43.1150102" lon="-2.7665499">
        <ele>136.113</ele>
        <time>2021-04-01T08:23:06.426Z</time>
      </trkpt>
      <trkpt lat="43.115007" lon="-2.7665503">
        <ele>136.195</ele>
        <time>2021-04-01T08:23:06.625Z</time>
      </trkpt>
      <trkpt lat="43.11494" lon="-2.7665602">
        <ele>136.648</ele>
        <time>2021-04-01T08:23:08.145Z</time>
      </trkpt>
      <trkpt lat="43.1148737" lon="-2.766568">
        <ele>137.093</ele>
        <time>2021-04-01T08:23:09.410Z</time>
      </trkpt>
      <trkpt lat="43.1148569" lon="-2.7665698">
        <ele>137.371</ele>
        <time>2021-04-01T08:23:09.575Z</time>
      </trkpt>
      <trkpt lat="43.1148541" lon="-2.7665699">
        <ele>137.411</ele>
        <time>2021-04-01T08:23:09.740Z</time>
      </trkpt>
      <trkpt lat="43.1148597" lon="-2.7665697">
        <ele>137.335</ele>
        <time>2021-04-01T08:23:09.905Z</time>
      </trkpt>
      <trkpt lat="43.1148569" lon="-2.7665698">
        <ele>137.371</ele>
        <time>2021-04-01T08:23:10.070Z</time>
      </trkpt>
      <trkpt lat="43.1148541" lon="-2.7665699">
        <ele>137.411</ele>
        <time>2021-04-01T08:23:10.235Z</time>
      </trkpt>
      <trkpt lat="43.1148597" lon="-2.7665697">
        <ele>137.335</ele>
        <time>2021-04-01T08:23:10.400Z</time>
      </trkpt>
      <trkpt lat="43.1148569" lon="-2.7665698">
        <ele>137.371</ele>
        <time>2021-04-01T08:23:10.565Z</time>
      </trkpt>
      <trkpt lat="43.1148541" lon="-2.7665699">
        <ele>137.411</ele>
        <time>2021-04-01T08:23:10.730Z</time>
      </trkpt>
      <trkpt lat="43.1147396" lon="-2.7665832">
        <ele>138.239</ele>
        <time>2021-04-01T08:23:13.040Z</time>
      </trkpt>
      <trkpt lat="43.1146169" lon="-2.7666005">
        <ele>137.739</ele>
        <time>2021-04-01T08:23:14.580Z</time>
      </trkpt>
      <trkpt lat="43.1145994" lon="-2.7666032">
        <ele>137.87</ele>
        <time>2021-04-01T08:23:14.735Z</time>
      </trkpt>
      <trkpt lat="43.1145966" lon="-2.7666037">
        <ele>137.878</ele>
        <time>2021-04-01T08:23:14.890Z</time>
      </trkpt>
      <trkpt lat="43.1146113" lon="-2.7666012">
        <ele>137.901</ele>
        <time>2021-04-01T08:23:15.045Z</time>
      </trkpt>
      <trkpt lat="43.1145909" lon="-2.7666051">
        <ele>137.853</ele>
        <time>2021-04-01T08:23:15.201Z</time>
      </trkpt>
      <trkpt lat="43.1145994" lon="-2.7666032">
        <ele>137.87</ele>
        <time>2021-04-01T08:23:15.356Z</time>
      </trkpt>
      <trkpt lat="43.1145966" lon="-2.7666037">
        <ele>137.878</ele>
        <time>2021-04-01T08:23:15.511Z</time>
      </trkpt>
      <trkpt lat="43.1145909" lon="-2.7666051">
        <ele>137.853</ele>
        <time>2021-04-01T08:23:15.667Z</time>
      </trkpt>
      <trkpt lat="43.1145994" lon="-2.7666032">
        <ele>137.87</ele>
        <time>2021-04-01T08:23:15.822Z</time>
      </trkpt>
      <trkpt lat="43.1145966" lon="-2.7666037">
        <ele>137.878</ele>
        <time>2021-04-01T08:23:15.977Z</time>
      </trkpt>
      <trkpt lat="43.1145909" lon="-2.7666051">
        <ele>137.853</ele>
        <time>2021-04-01T08:23:16.132Z</time>
      </trkpt>
      <trkpt lat="43.114534" lon="-2.7666074">
        <ele>139.235</ele>
        <time>2021-04-01T08:23:16.288Z</time>
      </trkpt>
      <trkpt lat="43.1144995" lon="-2.76661">
        <ele>139.288</ele>
        <time>2021-04-01T08:23:16.443Z</time>
      </trkpt>
      <trkpt lat="43.1145026" lon="-2.7666101">
        <ele>139.203</ele>
        <time>2021-04-01T08:23:16.598Z</time>
      </trkpt>
      <trkpt lat="43.1144995" lon="-2.76661">
        <ele>139.288</ele>
        <time>2021-04-01T08:23:16.754Z</time>
      </trkpt>
      <trkpt lat="43.1145026" lon="-2.7666101">
        <ele>139.203</ele>
        <time>2021-04-01T08:23:16.909Z</time>
      </trkpt>
      <trkpt lat="43.1144995" lon="-2.76661">
        <ele>139.288</ele>
        <time>2021-04-01T08:23:17.064Z</time>
      </trkpt>
      <trkpt lat="43.1143979" lon="-2.7666212">
        <ele>139.48</ele>
        <time>2021-04-01T08:23:17.715Z</time>
      </trkpt>
      <trkpt lat="43.1144395" lon="-2.7666134">
        <ele>139.153</ele>
        <time>2021-04-01T08:23:18.141Z</time>
      </trkpt>
      <trkpt lat="43.1144224" lon="-2.766616">
        <ele>139.06</ele>
        <time>2021-04-01T08:23:18.567Z</time>
      </trkpt>
      <trkpt lat="43.1144395" lon="-2.7666134">
        <ele>139.153</ele>
        <time>2021-04-01T08:23:18.993Z</time>
      </trkpt>
      <trkpt lat="43.1144224" lon="-2.766616">
        <ele>139.06</ele>
        <time>2021-04-01T08:23:19.420Z</time>
      </trkpt>
      <trkpt lat="43.1143544" lon="-2.7666306">
        <ele>139.469</ele>
        <time>2021-04-01T08:23:19.530Z</time>
      </trkpt>
      <trkpt lat="43.1143418" lon="-2.7666317">
        <ele>139.768</ele>
        <time>2021-04-01T08:23:19.640Z</time>
      </trkpt>
      <trkpt lat="43.1143544" lon="-2.7666306">
        <ele>139.469</ele>
        <time>2021-04-01T08:23:19.750Z</time>
      </trkpt>
      <trkpt lat="43.1143418" lon="-2.7666317">
        <ele>139.768</ele>
        <time>2021-04-01T08:23:19.860Z</time>
      </trkpt>
      <trkpt lat="43.1143362" lon="-2.7666325">
        <ele>139.819</ele>
        <time>2021-04-01T08:23:19.970Z</time>
      </trkpt>
      <trkpt lat="43.1143544" lon="-2.7666306">
        <ele>139.469</ele>
        <time>2021-04-01T08:23:20.080Z</time>
      </trkpt>
      <trkpt lat="43.1143418" lon="-2.7666317">
        <ele>139.768</ele>
        <time>2021-04-01T08:23:20.190Z</time>
      </trkpt>
      <trkpt lat="43.1143362" lon="-2.7666325">
        <ele>139.819</ele>
        <time>2021-04-01T08:23:20.300Z</time>
      </trkpt>
      <trkpt lat="43.1142842" lon="-2.766635">
        <ele>140.86</ele>
        <time>2021-04-01T08:23:20.410Z</time>
      </trkpt>
      <trkpt lat="43.1142815" lon="-2.7666354">
        <ele>140.749</ele>
        <time>2021-04-01T08:23:20.520Z</time>
      </trkpt>
      <trkpt lat="43.1142789" lon="-2.7666361">
        <ele>140.765</ele>
        <time>2021-04-01T08:23:20.630Z</time>
      </trkpt>
      <trkpt lat="43.1142842" lon="-2.766635">
        <ele>140.86</ele>
        <time>2021-04-01T08:23:20.740Z</time>
      </trkpt>
      <trkpt lat="43.1142815" lon="-2.7666354">
        <ele>140.749</ele>
        <time>2021-04-01T08:23:20.850Z</time>
      </trkpt>
      <trkpt lat="43.1142789" lon="-2.7666361">
        <ele>140.765</ele>
        <time>2021-04-01T08:23:20.960Z</time>
      </trkpt>
      <trkpt lat="43.1141978" lon="-2.766651">
        <ele>141.16</ele>
        <time>2021-04-01T08:23:21.070Z</time>
      </trkpt>
      <trkpt lat="43.1141724" lon="-2.7666591">
        <ele>141.252</ele>
        <time>2021-04-01T08:23:22.060Z</time>
      </trkpt>
      <trkpt lat="43.1141" lon="-2.7666854">
        <ele>141.851</ele>
        <time>2021-04-01T08:23:24.425Z</time>
      </trkpt>
      <trkpt lat="43.1140351" lon="-2.7667124">
        <ele>141.797</ele>
        <time>2021-04-01T08:23:24.569Z</time>
      </trkpt>
      <trkpt lat="43.1140325" lon="-2.7667136">
        <ele>141.768</ele>
        <time>2021-04-01T08:23:24.713Z</time>
      </trkpt>
      <trkpt lat="43.11403" lon="-2.7667148">
        <ele>141.703</ele>
        <time>2021-04-01T08:23:24.858Z</time>
      </trkpt>
      <trkpt lat="43.1140255" lon="-2.7667179">
        <ele>141.437</ele>
        <time>2021-04-01T08:23:25.002Z</time>
      </trkpt>
      <trkpt lat="43.1140325" lon="-2.7667136">
        <ele>141.768</ele>
        <time>2021-04-01T08:23:25.146Z</time>
      </trkpt>
      <trkpt lat="43.11403" lon="-2.7667148">
        <ele>141.703</ele>
        <time>2021-04-01T08:23:25.291Z</time>
      </trkpt>
      <trkpt lat="43.1140255" lon="-2.7667179">
        <ele>141.437</ele>
        <time>2021-04-01T08:23:25.435Z</time>
      </trkpt>
      <trkpt lat="43.1139828" lon="-2.7667422">
        <ele>141.643</ele>
        <time>2021-04-01T08:23:27.615Z</time>
      </trkpt>
      <trkpt lat="43.1138898" lon="-2.7667925">
        <ele>142.197</ele>
        <time>2021-04-01T08:23:29.375Z</time>
      </trkpt>
      <trkpt lat="43.1138081" lon="-2.766835">
        <ele>142.758</ele>
        <time>2021-04-01T08:23:29.628Z</time>
      </trkpt>
      <trkpt lat="43.1138012" lon="-2.7668404">
        <ele>142.749</ele>
        <time>2021-04-01T08:23:29.881Z</time>
      </trkpt>
      <trkpt lat="43.1138081" lon="-2.766835">
        <ele>142.758</ele>
        <time>2021-04-01T08:23:30.134Z</time>
      </trkpt>
      <trkpt lat="43.1138012" lon="-2.7668404">
        <ele>142.749</ele>
        <time>2021-04-01T08:23:30.387Z</time>
      </trkpt>
      <trkpt lat="43.1137507" lon="-2.7668718">
        <ele>143.09</ele>
        <time>2021-04-01T08:23:30.640Z</time>
      </trkpt>
      <trkpt lat="43.1137408" lon="-2.7668784">
        <ele>143.172</ele>
        <time>2021-04-01T08:23:30.997Z</time>
      </trkpt>
      <trkpt lat="43.1137277" lon="-2.7668847">
        <ele>143.181</ele>
        <time>2021-04-01T08:23:31.355Z</time>
      </trkpt>
      <trkpt lat="43.1137507" lon="-2.7668718">
        <ele>143.09</ele>
        <time>2021-04-01T08:23:31.712Z</time>
      </trkpt>
      <trkpt lat="43.1137408" lon="-2.7668784">
        <ele>143.172</ele>
        <time>2021-04-01T08:23:32.070Z</time>
      </trkpt>
      <trkpt lat="43.1137277" lon="-2.7668847">
        <ele>143.181</ele>
        <time>2021-04-01T08:23:32.427Z</time>
      </trkpt>
      <trkpt lat="43.1136502" lon="-2.7669299">
        <ele>144.319</ele>
        <time>2021-04-01T08:23:33.610Z</time>
      </trkpt>
      <trkpt lat="43.1136097" lon="-2.7669415">
        <ele>144.592</ele>
        <time>2021-04-01T08:23:34.118Z</time>
      </trkpt>
      <trkpt lat="43.1135709" lon="-2.7669503">
        <ele>145.025</ele>
        <time>2021-04-01T08:23:34.627Z</time>
      </trkpt>
      <trkpt lat="43.1135709" lon="-2.7669503">
        <ele>145.025</ele>
        <time>2021-04-01T08:23:35.136Z</time>
      </trkpt>
      <trkpt lat="43.1135124" lon="-2.7669559">
        <ele>144.985</ele>
        <time>2021-04-01T08:23:35.645Z</time>
      </trkpt>
      <trkpt lat="43.1133985" lon="-2.766927">
        <ele>145.451</ele>
        <time>2021-04-01T08:23:38.120Z</time>
      </trkpt>
      <trkpt lat="43.1133035" lon="-2.7668599">
        <ele>144.407</ele>
        <time>2021-04-01T08:23:42.245Z</time>
      </trkpt>
      <trkpt lat="43.1132198" lon="-2.7667541">
        <ele>143.176</ele>
        <time>2021-04-01T08:23:42.740Z</time>
      </trkpt>
      <trkpt lat="43.1132198" lon="-2.7667541">
        <ele>143.176</ele>
        <time>2021-04-01T08:23:43.235Z</time>
      </trkpt>
      <trkpt lat="43.1131649" lon="-2.7666727">
        <ele>142.788</ele>
        <time>2021-04-01T08:23:45.105Z</time>
      </trkpt>
      <trkpt lat="43.1131173" lon="-2.7665952">
        <ele>142.926</ele>
        <time>2021-04-01T08:23:45.334Z</time>
      </trkpt>
      <trkpt lat="43.1131111" lon="-2.7665864">
        <ele>142.859</ele>
        <time>2021-04-01T08:23:45.563Z</time>
      </trkpt>
      <trkpt lat="43.1131173" lon="-2.7665952">
        <ele>142.926</ele>
        <time>2021-04-01T08:23:45.792Z</time>
      </trkpt>
      <trkpt lat="43.1131111" lon="-2.7665864">
        <ele>142.859</ele>
        <time>2021-04-01T08:23:46.021Z</time>
      </trkpt>
      <trkpt lat="43.1131111" lon="-2.7665864">
        <ele>142.859</ele>
        <time>2021-04-01T08:23:46.250Z</time>
      </trkpt>
      <trkpt lat="43.1130693" lon="-2.7665171">
        <ele>143.241</ele>
        <time>2021-04-01T08:23:48.460Z</time>
      </trkpt>
      <trkpt lat="43.113005" lon="-2.7664088">
        <ele>143.598</ele>
        <time>2021-04-01T08:23:48.606Z</time>
      </trkpt>
      <trkpt lat="43.113005" lon="-2.7664088">
        <ele>143.598</ele>
        <time>2021-04-01T08:23:48.753Z</time>
      </trkpt>
      <trkpt lat="43.1130016" lon="-2.7664029">
        <ele>143.592</ele>
        <time>2021-04-01T08:23:48.900Z</time>
      </trkpt>
      <trkpt lat="43.113005" lon="-2.7664088">
        <ele>143.598</ele>
        <time>2021-04-01T08:23:49.046Z</time>
      </trkpt>
      <trkpt lat="43.1130016" lon="-2.7664029">
        <ele>143.592</ele>
        <time>2021-04-01T08:23:49.193Z</time>
      </trkpt>
      <trkpt lat="43.1129777" lon="-2.7663601">
        <ele>143.966</ele>
        <time>2021-04-01T08:23:49.340Z</time>
      </trkpt>
      <trkpt lat="43.1129611" lon="-2.7663299">
        <ele>144.052</ele>
        <time>2021-04-01T08:23:49.945Z</time>
      </trkpt>
      <trkpt lat="43.1129611" lon="-2.7663299">
        <ele>144.052</ele>
        <time>2021-04-01T08:23:50.550Z</time>
      </trkpt>
      <trkpt lat="43.1129231" lon="-2.7662803">
        <ele>140.775</ele>
        <time>2021-04-01T08:23:53.740Z</time>
      </trkpt>
      <trkpt lat="43.1129077" lon="-2.7662553">
        <ele>139.965</ele>
        <time>2021-04-01T08:23:53.758Z</time>
      </trkpt>
      <trkpt lat="43.1129231" lon="-2.7662803">
        <ele>140.775</ele>
        <time>2021-04-01T08:23:53.776Z</time>
      </trkpt>
      <trkpt lat="43.1129077" lon="-2.7662553">
        <ele>139.965</ele>
        <time>2021-04-01T08:23:53.795Z</time>
      </trkpt>
      <trkpt lat="43.1128556" lon="-2.7661276">
        <ele>143.01</ele>
        <time>2021-04-01T08:23:56.765Z</time>
      </trkpt>
      <trkpt lat="43.1127857" lon="-2.7659705">
        <ele>143.993</ele>
        <time>2021-04-01T08:23:56.856Z</time>
      </trkpt>
      <trkpt lat="43.1127945" lon="-2.7659908">
        <ele>143.84</ele>
        <time>2021-04-01T08:23:56.948Z</time>
      </trkpt>
      <trkpt lat="43.1127922" lon="-2.7659851">
        <ele>143.867</ele>
        <time>2021-04-01T08:23:57.040Z</time>
      </trkpt>
      <trkpt lat="43.1127945" lon="-2.7659908">
        <ele>143.84</ele>
        <time>2021-04-01T08:23:57.131Z</time>
      </trkpt>
      <trkpt lat="43.1127922" lon="-2.7659851">
        <ele>143.867</ele>
        <time>2021-04-01T08:23:57.223Z</time>
      </trkpt>
      <trkpt lat="43.1127741" lon="-2.7659418">
        <ele>144.086</ele>
        <time>2021-04-01T08:23:58.690Z</time>
      </trkpt>
      <trkpt lat="43.1127455" lon="-2.7658749">
        <ele>143.686</ele>
        <time>2021-04-01T08:23:58.971Z</time>
      </trkpt>
      <trkpt lat="43.1127344" lon="-2.7658466">
        <ele>143.469</ele>
        <time>2021-04-01T08:23:59.253Z</time>
      </trkpt>
      <trkpt lat="43.1127312" lon="-2.7658398">
        <ele>143.241</ele>
        <time>2021-04-01T08:23:59.535Z</time>
      </trkpt>
      <trkpt lat="43.1127344" lon="-2.7658466">
        <ele>143.469</ele>
        <time>2021-04-01T08:23:59.817Z</time>
      </trkpt>
      <trkpt lat="43.1127276" lon="-2.7658286">
        <ele>143.381</ele>
        <time>2021-04-01T08:24:00.099Z</time>
      </trkpt>
      <trkpt lat="43.1127276" lon="-2.7658286">
        <ele>143.381</ele>
        <time>2021-04-01T08:24:00.381Z</time>
      </trkpt>
      <trkpt lat="43.1127276" lon="-2.7658286">
        <ele>143.381</ele>
        <time>2021-04-01T08:24:00.663Z</time>
      </trkpt>
      <trkpt lat="43.1127075" lon="-2.7657624">
        <ele>144.801</ele>
        <time>2021-04-01T08:24:01.770Z</time>
      </trkpt>
      <trkpt lat="43.1126793" lon="-2.7656809">
        <ele>145.551</ele>
        <time>2021-04-01T08:24:02.202Z</time>
      </trkpt>
      <trkpt lat="43.1126787" lon="-2.7656779">
        <ele>145.638</ele>
        <time>2021-04-01T08:24:02.634Z</time>
      </trkpt>
      <trkpt lat="43.1126772" lon="-2.7656729">
        <ele>145.685</ele>
        <time>2021-04-01T08:24:03.066Z</time>
      </trkpt>
      <trkpt lat="43.1126793" lon="-2.7656809">
        <ele>145.551</ele>
        <time>2021-04-01T08:24:03.498Z</time>
      </trkpt>
      <trkpt lat="43.1126787" lon="-2.7656779">
        <ele>145.638</ele>
        <time>2021-04-01T08:24:03.930Z</time>
      </trkpt>
      <trkpt lat="43.1126772" lon="-2.7656729">
        <ele>145.685</ele>
        <time>2021-04-01T08:24:04.362Z</time>
      </trkpt>
      <trkpt lat="43.1126568" lon="-2.7655895">
        <ele>145.534</ele>
        <time>2021-04-01T08:24:04.795Z</time>
      </trkpt>
      <trkpt lat="43.1126612" lon="-2.7656096">
        <ele>145.833</ele>
        <time>2021-04-01T08:24:04.922Z</time>
      </trkpt>
      <trkpt lat="43.11266" lon="-2.765602">
        <ele>145.857</ele>
        <time>2021-04-01T08:24:05.049Z</time>
      </trkpt>
      <trkpt lat="43.1126612" lon="-2.7656096">
        <ele>145.833</ele>
        <time>2021-04-01T08:24:05.176Z</time>
      </trkpt>
      <trkpt lat="43.11266" lon="-2.765602">
        <ele>145.857</ele>
        <time>2021-04-01T08:24:05.303Z</time>
      </trkpt>
      <trkpt lat="43.1126612" lon="-2.7656096">
        <ele>145.833</ele>
        <time>2021-04-01T08:24:05.430Z</time>
      </trkpt>
      <trkpt lat="43.11266" lon="-2.765602">
        <ele>145.857</ele>
        <time>2021-04-01T08:24:05.558Z</time>
      </trkpt>
      <trkpt lat="43.1126568" lon="-2.7655895">
        <ele>145.534</ele>
        <time>2021-04-01T08:24:05.685Z</time>
      </trkpt>
      <trkpt lat="43.1126481" lon="-2.7655492">
        <ele>145.449</ele>
        <time>2021-04-01T08:24:05.812Z</time>
      </trkpt>
      <trkpt lat="43.1126477" lon="-2.7655469">
        <ele>145.404</ele>
        <time>2021-04-01T08:24:05.939Z</time>
      </trkpt>
      <trkpt lat="43.1126489" lon="-2.7655563">
        <ele>145.46</ele>
        <time>2021-04-01T08:24:06.066Z</time>
      </trkpt>
      <trkpt lat="43.1126481" lon="-2.7655492">
        <ele>145.449</ele>
        <time>2021-04-01T08:24:06.194Z</time>
      </trkpt>
      <trkpt lat="43.1126477" lon="-2.7655469">
        <ele>145.404</ele>
        <time>2021-04-01T08:24:06.321Z</time>
      </trkpt>
      <trkpt lat="43.1126489" lon="-2.7655563">
        <ele>145.46</ele>
        <time>2021-04-01T08:24:06.448Z</time>
      </trkpt>
      <trkpt lat="43.1126481" lon="-2.7655492">
        <ele>145.449</ele>
        <time>2021-04-01T08:24:06.575Z</time>
      </trkpt>
      <trkpt lat="43.1126477" lon="-2.7655469">
        <ele>145.404</ele>
        <time>2021-04-01T08:24:06.702Z</time>
      </trkpt>
      <trkpt lat="43.1126378" lon="-2.7655003">
        <ele>145.318</ele>
        <time>2021-04-01T08:24:06.830Z</time>
      </trkpt>
      <trkpt lat="43.1126321" lon="-2.7654773">
        <ele>145.518</ele>
        <time>2021-04-01T08:24:07.022Z</time>
      </trkpt>
      <trkpt lat="43.1126366" lon="-2.7654948">
        <ele>145.463</ele>
        <time>2021-04-01T08:24:07.215Z</time>
      </trkpt>
      <trkpt lat="43.1126326" lon="-2.7654793">
        <ele>145.577</ele>
        <time>2021-04-01T08:24:07.407Z</time>
      </trkpt>
      <trkpt lat="43.1126321" lon="-2.7654773">
        <ele>145.518</ele>
        <time>2021-04-01T08:24:07.600Z</time>
      </trkpt>
      <trkpt lat="43.1126366" lon="-2.7654948">
        <ele>145.463</ele>
        <time>2021-04-01T08:24:07.792Z</time>
      </trkpt>
      <trkpt lat="43.1126326" lon="-2.7654793">
        <ele>145.577</ele>
        <time>2021-04-01T08:24:07.985Z</time>
      </trkpt>
      <trkpt lat="43.1126321" lon="-2.7654773">
        <ele>145.518</ele>
        <time>2021-04-01T08:24:08.177Z</time>
      </trkpt>
      <trkpt lat="43.1126226" lon="-2.7654288">
        <ele>146.121</ele>
        <time>2021-04-01T08:24:09.525Z</time>
      </trkpt>
      <trkpt lat="43.1126095" lon="-2.7653821">
        <ele>145.83</ele>
        <time>2021-04-01T08:24:10.042Z</time>
      </trkpt>
      <trkpt lat="43.1126014" lon="-2.7653457">
        <ele>145.593</ele>
        <time>2021-04-01T08:24:10.559Z</time>
      </trkpt>
      <trkpt lat="43.1126014" lon="-2.7653457">
        <ele>145.593</ele>
        <time>2021-04-01T08:24:11.076Z</time>
      </trkpt>
      <trkpt lat="43.1126014" lon="-2.7653457">
        <ele>145.593</ele>
        <time>2021-04-01T08:24:11.593Z</time>
      </trkpt>
      <trkpt lat="43.1125845" lon="-2.7652764">
        <ele>145.466</ele>
        <time>2021-04-01T08:24:13.815Z</time>
      </trkpt>
      <trkpt lat="43.1125691" lon="-2.7651935">
        <ele>147.12</ele>
        <time>2021-04-01T08:24:13.932Z</time>
      </trkpt>
      <trkpt lat="43.112568" lon="-2.765189">
        <ele>147.094</ele>
        <time>2021-04-01T08:24:14.050Z</time>
      </trkpt>
      <trkpt lat="43.1125691" lon="-2.7651935">
        <ele>147.12</ele>
        <time>2021-04-01T08:24:14.168Z</time>
      </trkpt>
      <trkpt lat="43.112568" lon="-2.765189">
        <ele>147.094</ele>
        <time>2021-04-01T08:24:14.286Z</time>
      </trkpt>
      <trkpt lat="43.1125691" lon="-2.7651935">
        <ele>147.12</ele>
        <time>2021-04-01T08:24:14.404Z</time>
      </trkpt>
      <trkpt lat="43.112568" lon="-2.765189">
        <ele>147.094</ele>
        <time>2021-04-01T08:24:14.522Z</time>
      </trkpt>
      <trkpt lat="43.1125608" lon="-2.7651584">
        <ele>147.2</ele>
        <time>2021-04-01T08:24:14.640Z</time>
      </trkpt>
      <trkpt lat="43.1125417" lon="-2.7650821">
        <ele>147.448</ele>
        <time>2021-04-01T08:24:17.830Z</time>
      </trkpt>
      <trkpt lat="43.1125315" lon="-2.7650251">
        <ele>148.046</ele>
        <time>2021-04-01T08:24:18.517Z</time>
      </trkpt>
      <trkpt lat="43.1125299" lon="-2.7650166">
        <ele>147.937</ele>
        <time>2021-04-01T08:24:19.205Z</time>
      </trkpt>
      <trkpt lat="43.1125299" lon="-2.7650166">
        <ele>147.937</ele>
        <time>2021-04-01T08:24:19.892Z</time>
      </trkpt>
      <trkpt lat="43.1125073" lon="-2.7649231">
        <ele>147.443</ele>
        <time>2021-04-01T08:24:21.295Z</time>
      </trkpt>
      <trkpt lat="43.1125019" lon="-2.7648954">
        <ele>147.646</ele>
        <time>2021-04-01T08:24:21.808Z</time>
      </trkpt>
      <trkpt lat="43.1125019" lon="-2.7648954">
        <ele>147.646</ele>
        <time>2021-04-01T08:24:22.321Z</time>
      </trkpt>
      <trkpt lat="43.1124917" lon="-2.7648369">
        <ele>147.843</ele>
        <time>2021-04-01T08:24:24.540Z</time>
      </trkpt>
      <trkpt lat="43.1124785" lon="-2.7647738">
        <ele>148.51</ele>
        <time>2021-04-01T08:24:25.695Z</time>
      </trkpt>
      <trkpt lat="43.1124684" lon="-2.7647326">
        <ele>148.959</ele>
        <time>2021-04-01T08:24:25.933Z</time>
      </trkpt>
      <trkpt lat="43.1124669" lon="-2.7647227">
        <ele>148.935</ele>
        <time>2021-04-01T08:24:26.171Z</time>
      </trkpt>
      <trkpt lat="43.1124665" lon="-2.7647204">
        <ele>149.041</ele>
        <time>2021-04-01T08:24:26.409Z</time>
      </trkpt>
      <trkpt lat="43.1124669" lon="-2.7647227">
        <ele>148.935</ele>
        <time>2021-04-01T08:24:26.648Z</time>
      </trkpt>
      <trkpt lat="43.1124665" lon="-2.7647204">
        <ele>149.041</ele>
        <time>2021-04-01T08:24:26.886Z</time>
      </trkpt>
      <trkpt lat="43.1124578" lon="-2.7646814">
        <ele>149.464</ele>
        <time>2021-04-01T08:24:28.830Z</time>
      </trkpt>
      <trkpt lat="43.112445" lon="-2.7646136">
        <ele>151.21</ele>
        <time>2021-04-01T08:24:28.995Z</time>
      </trkpt>
      <trkpt lat="43.1124443" lon="-2.7646092">
        <ele>151.328</ele>
        <time>2021-04-01T08:24:29.160Z</time>
      </trkpt>
      <trkpt lat="43.1124441" lon="-2.7646072">
        <ele>151.348</ele>
        <time>2021-04-01T08:24:29.325Z</time>
      </trkpt>
      <trkpt lat="43.1124428" lon="-2.7645986">
        <ele>151.571</ele>
        <time>2021-04-01T08:24:29.490Z</time>
      </trkpt>
      <trkpt lat="43.1124398" lon="-2.7645809">
        <ele>151.635</ele>
        <time>2021-04-01T08:24:29.655Z</time>
      </trkpt>
      <trkpt lat="43.1124443" lon="-2.7646092">
        <ele>151.328</ele>
        <time>2021-04-01T08:24:29.820Z</time>
      </trkpt>
      <trkpt lat="43.1124441" lon="-2.7646072">
        <ele>151.348</ele>
        <time>2021-04-01T08:24:29.985Z</time>
      </trkpt>
      <trkpt lat="43.1124428" lon="-2.7645986">
        <ele>151.571</ele>
        <time>2021-04-01T08:24:30.150Z</time>
      </trkpt>
      <trkpt lat="43.1124398" lon="-2.7645809">
        <ele>151.635</ele>
        <time>2021-04-01T08:24:30.315Z</time>
      </trkpt>
      <trkpt lat="43.1124358" lon="-2.7645517">
        <ele>152.217</ele>
        <time>2021-04-01T08:24:31.910Z</time>
      </trkpt>
      <trkpt lat="43.1124262" lon="-2.7644991">
        <ele>153.181</ele>
        <time>2021-04-01T08:24:32.284Z</time>
      </trkpt>
      <trkpt lat="43.1124186" lon="-2.7644669">
        <ele>153.543</ele>
        <time>2021-04-01T08:24:32.658Z</time>
      </trkpt>
      <trkpt lat="43.1124186" lon="-2.7644669">
        <ele>153.543</ele>
        <time>2021-04-01T08:24:33.032Z</time>
      </trkpt>
      <trkpt lat="43.1124186" lon="-2.7644669">
        <ele>153.543</ele>
        <time>2021-04-01T08:24:33.406Z</time>
      </trkpt>
      <trkpt lat="43.1124115" lon="-2.7644293">
        <ele>153.804</ele>
        <time>2021-04-01T08:24:35.265Z</time>
      </trkpt>
      <trkpt lat="43.1123991" lon="-2.7643713">
        <ele>155.371</ele>
        <time>2021-04-01T08:24:35.524Z</time>
      </trkpt>
      <trkpt lat="43.1123956" lon="-2.764346">
        <ele>155.848</ele>
        <time>2021-04-01T08:24:35.783Z</time>
      </trkpt>
      <trkpt lat="43.1123963" lon="-2.7643543">
        <ele>155.778</ele>
        <time>2021-04-01T08:24:36.042Z</time>
      </trkpt>
      <trkpt lat="43.1123956" lon="-2.764346">
        <ele>155.848</ele>
        <time>2021-04-01T08:24:36.302Z</time>
      </trkpt>
      <trkpt lat="43.1123963" lon="-2.7643543">
        <ele>155.778</ele>
        <time>2021-04-01T08:24:36.561Z</time>
      </trkpt>
      <trkpt lat="43.1123956" lon="-2.764346">
        <ele>155.848</ele>
        <time>2021-04-01T08:24:36.820Z</time>
      </trkpt>
      <trkpt lat="43.1123878" lon="-2.7643036">
        <ele>156.186</ele>
        <time>2021-04-01T08:24:37.080Z</time>
      </trkpt>
      <trkpt lat="43.1123841" lon="-2.7642857">
        <ele>156.292</ele>
        <time>2021-04-01T08:24:37.476Z</time>
      </trkpt>
      <trkpt lat="43.1123883" lon="-2.7643054">
        <ele>156.181</ele>
        <time>2021-04-01T08:24:37.872Z</time>
      </trkpt>
      <trkpt lat="43.1123878" lon="-2.7643036">
        <ele>156.186</ele>
        <time>2021-04-01T08:24:38.268Z</time>
      </trkpt>
      <trkpt lat="43.1123841" lon="-2.7642857">
        <ele>156.292</ele>
        <time>2021-04-01T08:24:38.664Z</time>
      </trkpt>
      <trkpt lat="43.1123694" lon="-2.764229">
        <ele>157.361</ele>
        <time>2021-04-01T08:24:40.050Z</time>
      </trkpt>
      <trkpt lat="43.1123615" lon="-2.7641941">
        <ele>157.488</ele>
        <time>2021-04-01T08:24:40.283Z</time>
      </trkpt>
      <trkpt lat="43.1123594" lon="-2.7641844">
        <ele>157.41</ele>
        <time>2021-04-01T08:24:40.517Z</time>
      </trkpt>
      <trkpt lat="43.1123565" lon="-2.7641723">
        <ele>157.56</ele>
        <time>2021-04-01T08:24:40.751Z</time>
      </trkpt>
      <trkpt lat="43.1123594" lon="-2.7641844">
        <ele>157.41</ele>
        <time>2021-04-01T08:24:40.985Z</time>
      </trkpt>
      <trkpt lat="43.1123565" lon="-2.7641723">
        <ele>157.56</ele>
        <time>2021-04-01T08:24:41.218Z</time>
      </trkpt>
      <trkpt lat="43.1123594" lon="-2.7641844">
        <ele>157.41</ele>
        <time>2021-04-01T08:24:41.452Z</time>
      </trkpt>
      <trkpt lat="43.1123565" lon="-2.7641723">
        <ele>157.56</ele>
        <time>2021-04-01T08:24:41.686Z</time>
      </trkpt>
      <trkpt lat="43.112346" lon="-2.7641301">
        <ele>157.023</ele>
        <time>2021-04-01T08:24:43.240Z</time>
      </trkpt>
      <trkpt lat="43.1123311" lon="-2.7640877">
        <ele>156.468</ele>
        <time>2021-04-01T08:24:43.502Z</time>
      </trkpt>
      <trkpt lat="43.1123233" lon="-2.7640637">
        <ele>156.692</ele>
        <time>2021-04-01T08:24:43.765Z</time>
      </trkpt>
      <trkpt lat="43.1123261" lon="-2.7640737">
        <ele>156.669</ele>
        <time>2021-04-01T08:24:44.028Z</time>
      </trkpt>
      <trkpt lat="43.112325" lon="-2.7640701">
        <ele>156.637</ele>
        <time>2021-04-01T08:24:44.291Z</time>
      </trkpt>
      <trkpt lat="43.1123233" lon="-2.7640637">
        <ele>156.692</ele>
        <time>2021-04-01T08:24:44.553Z</time>
      </trkpt>
      <trkpt lat="43.1123261" lon="-2.7640737">
        <ele>156.669</ele>
        <time>2021-04-01T08:24:44.816Z</time>
      </trkpt>
      <trkpt lat="43.112325" lon="-2.7640701">
        <ele>156.637</ele>
        <time>2021-04-01T08:24:45.079Z</time>
      </trkpt>
      <trkpt lat="43.1123233" lon="-2.7640637">
        <ele>156.692</ele>
        <time>2021-04-01T08:24:45.342Z</time>
      </trkpt>
      <trkpt lat="43.1123086" lon="-2.7640091">
        <ele>155.677</ele>
        <time>2021-04-01T08:24:45.825Z</time>
      </trkpt>
      <trkpt lat="43.1123068" lon="-2.7640023">
        <ele>155.482</ele>
        <time>2021-04-01T08:24:47.365Z</time>
      </trkpt>
      <trkpt lat="43.1122906" lon="-2.7639482">
        <ele>155.635</ele>
        <time>2021-04-01T08:24:47.701Z</time>
      </trkpt>
      <trkpt lat="43.1122816" lon="-2.7639173">
        <ele>155.774</ele>
        <time>2021-04-01T08:24:48.038Z</time>
      </trkpt>
      <trkpt lat="43.1122798" lon="-2.7639105">
        <ele>155.574</ele>
        <time>2021-04-01T08:24:48.375Z</time>
      </trkpt>
      <trkpt lat="43.1122795" lon="-2.7639083">
        <ele>155.642</ele>
        <time>2021-04-01T08:24:48.712Z</time>
      </trkpt>
      <trkpt lat="43.1122816" lon="-2.7639173">
        <ele>155.774</ele>
        <time>2021-04-01T08:24:49.049Z</time>
      </trkpt>
      <trkpt lat="43.1122798" lon="-2.7639105">
        <ele>155.574</ele>
        <time>2021-04-01T08:24:49.386Z</time>
      </trkpt>
      <trkpt lat="43.1122795" lon="-2.7639083">
        <ele>155.642</ele>
        <time>2021-04-01T08:24:49.723Z</time>
      </trkpt>
      <trkpt lat="43.1122624" lon="-2.7638568">
        <ele>155.481</ele>
        <time>2021-04-01T08:24:51.105Z</time>
      </trkpt>
      <trkpt lat="43.1122516" lon="-2.7638174">
        <ele>156.014</ele>
        <time>2021-04-01T08:24:51.407Z</time>
      </trkpt>
      <trkpt lat="43.1122505" lon="-2.7638136">
        <ele>156.014</ele>
        <time>2021-04-01T08:24:51.710Z</time>
      </trkpt>
      <trkpt lat="43.1122457" lon="-2.7637962">
        <ele>155.696</ele>
        <time>2021-04-01T08:24:52.012Z</time>
      </trkpt>
      <trkpt lat="43.1122505" lon="-2.7638136">
        <ele>156.014</ele>
        <time>2021-04-01T08:24:52.315Z</time>
      </trkpt>
      <trkpt lat="43.1122457" lon="-2.7637962">
        <ele>155.696</ele>
        <time>2021-04-01T08:24:52.617Z</time>
      </trkpt>
      <trkpt lat="43.1122332" lon="-2.7637583">
        <ele>155.403</ele>
        <time>2021-04-01T08:24:54.130Z</time>
      </trkpt>
      <trkpt lat="43.1122206" lon="-2.7637158">
        <ele>155.569</ele>
        <time>2021-04-01T08:24:54.432Z</time>
      </trkpt>
      <trkpt lat="43.1122192" lon="-2.7637118">
        <ele>155.638</ele>
        <time>2021-04-01T08:24:54.735Z</time>
      </trkpt>
      <trkpt lat="43.1122185" lon="-2.7637105">
        <ele>155.578</ele>
        <time>2021-04-01T08:24:55.037Z</time>
      </trkpt>
      <trkpt lat="43.1122185" lon="-2.7637105">
        <ele>155.578</ele>
        <time>2021-04-01T08:24:55.340Z</time>
      </trkpt>
      <trkpt lat="43.1122185" lon="-2.7637105">
        <ele>155.578</ele>
        <time>2021-04-01T08:24:55.642Z</time>
      </trkpt>
      <trkpt lat="43.1122" lon="-2.7636497">
        <ele>156.171</ele>
        <time>2021-04-01T08:24:56.935Z</time>
      </trkpt>
      <trkpt lat="43.1121881" lon="-2.7636155">
        <ele>155.962</ele>
        <time>2021-04-01T08:24:59.080Z</time>
      </trkpt>
      <trkpt lat="43.1121621" lon="-2.7635331">
        <ele>156.638</ele>
        <time>2021-04-01T08:25:00.125Z</time>
      </trkpt>
      <trkpt lat="43.1121496" lon="-2.7634911">
        <ele>157.131</ele>
        <time>2021-04-01T08:25:02.325Z</time>
      </trkpt>
      <trkpt lat="43.1121168" lon="-2.7634079">
        <ele>156.958</ele>
        <time>2021-04-01T08:25:02.688Z</time>
      </trkpt>
      <trkpt lat="43.1121131" lon="-2.7633994">
        <ele>156.914</ele>
        <time>2021-04-01T08:25:03.051Z</time>
      </trkpt>
      <trkpt lat="43.1121168" lon="-2.7634079">
        <ele>156.958</ele>
        <time>2021-04-01T08:25:03.414Z</time>
      </trkpt>
      <trkpt lat="43.1121131" lon="-2.7633994">
        <ele>156.914</ele>
        <time>2021-04-01T08:25:03.777Z</time>
      </trkpt>
      <trkpt lat="43.1120873" lon="-2.7633271">
        <ele>157.63</ele>
        <time>2021-04-01T08:25:05.295Z</time>
      </trkpt>
      <trkpt lat="43.1120659" lon="-2.7632809">
        <ele>156.759</ele>
        <time>2021-04-01T08:25:05.702Z</time>
      </trkpt>
      <trkpt lat="43.1120515" lon="-2.7632523">
        <ele>156.677</ele>
        <time>2021-04-01T08:25:06.109Z</time>
      </trkpt>
      <trkpt lat="43.1120659" lon="-2.7632809">
        <ele>156.759</ele>
        <time>2021-04-01T08:25:06.516Z</time>
      </trkpt>
      <trkpt lat="43.1120515" lon="-2.7632523">
        <ele>156.677</ele>
        <time>2021-04-01T08:25:06.923Z</time>
      </trkpt>
      <trkpt lat="43.1120192" lon="-2.7631955">
        <ele>155.865</ele>
        <time>2021-04-01T08:25:08.045Z</time>
      </trkpt>
      <trkpt lat="43.1120008" lon="-2.763167">
        <ele>155.03</ele>
        <time>2021-04-01T08:25:10.135Z</time>
      </trkpt>
      <trkpt lat="43.1119338" lon="-2.7630907">
        <ele>152.622</ele>
        <time>2021-04-01T08:25:10.290Z</time>
      </trkpt>
      <trkpt lat="43.1119296" lon="-2.7630862">
        <ele>152.643</ele>
        <time>2021-04-01T08:25:10.446Z</time>
      </trkpt>
      <trkpt lat="43.1119276" lon="-2.7630841">
        <ele>152.596</ele>
        <time>2021-04-01T08:25:10.602Z</time>
      </trkpt>
      <trkpt lat="43.111936" lon="-2.7630927">
        <ele>152.681</ele>
        <time>2021-04-01T08:25:10.758Z</time>
      </trkpt>
      <trkpt lat="43.1119338" lon="-2.7630907">
        <ele>152.622</ele>
        <time>2021-04-01T08:25:10.914Z</time>
      </trkpt>
      <trkpt lat="43.1119296" lon="-2.7630862">
        <ele>152.643</ele>
        <time>2021-04-01T08:25:11.069Z</time>
      </trkpt>
      <trkpt lat="43.1119276" lon="-2.7630841">
        <ele>152.596</ele>
        <time>2021-04-01T08:25:11.225Z</time>
      </trkpt>
      <trkpt lat="43.111936" lon="-2.7630927">
        <ele>152.681</ele>
        <time>2021-04-01T08:25:11.381Z</time>
      </trkpt>
      <trkpt lat="43.1119338" lon="-2.7630907">
        <ele>152.622</ele>
        <time>2021-04-01T08:25:11.537Z</time>
      </trkpt>
      <trkpt lat="43.1119296" lon="-2.7630862">
        <ele>152.643</ele>
        <time>2021-04-01T08:25:11.693Z</time>
      </trkpt>
      <trkpt lat="43.1119276" lon="-2.7630841">
        <ele>152.596</ele>
        <time>2021-04-01T08:25:11.849Z</time>
      </trkpt>
      <trkpt lat="43.1118592" lon="-2.7630181">
        <ele>151.541</ele>
        <time>2021-04-01T08:25:12.940Z</time>
      </trkpt>
      <trkpt lat="43.1118176" lon="-2.7629831">
        <ele>151.184</ele>
        <time>2021-04-01T08:25:14.645Z</time>
      </trkpt>
      <trkpt lat="43.1117935" lon="-2.7629603">
        <ele>150.962</ele>
        <time>2021-04-01T08:25:14.815Z</time>
      </trkpt>
      <trkpt lat="43.1117911" lon="-2.762958">
        <ele>151.053</ele>
        <time>2021-04-01T08:25:14.985Z</time>
      </trkpt>
      <trkpt lat="43.111774" lon="-2.7629415">
        <ele>151.064</ele>
        <time>2021-04-01T08:25:15.155Z</time>
      </trkpt>
      <trkpt lat="43.1118029" lon="-2.7629697">
        <ele>151.078</ele>
        <time>2021-04-01T08:25:15.325Z</time>
      </trkpt>
      <trkpt lat="43.1117935" lon="-2.7629603">
        <ele>150.962</ele>
        <time>2021-04-01T08:25:15.495Z</time>
      </trkpt>
      <trkpt lat="43.1117911" lon="-2.762958">
        <ele>151.053</ele>
        <time>2021-04-01T08:25:15.665Z</time>
      </trkpt>
      <trkpt lat="43.111774" lon="-2.7629415">
        <ele>151.064</ele>
        <time>2021-04-01T08:25:15.835Z</time>
      </trkpt>
      <trkpt lat="43.1118029" lon="-2.7629697">
        <ele>151.078</ele>
        <time>2021-04-01T08:25:16.005Z</time>
      </trkpt>
      <trkpt lat="43.1117935" lon="-2.7629603">
        <ele>150.962</ele>
        <time>2021-04-01T08:25:16.175Z</time>
      </trkpt>
      <trkpt lat="43.1117911" lon="-2.762958">
        <ele>151.053</ele>
        <time>2021-04-01T08:25:16.345Z</time>
      </trkpt>
      <trkpt lat="43.111774" lon="-2.7629415">
        <ele>151.064</ele>
        <time>2021-04-01T08:25:16.515Z</time>
      </trkpt>
      <trkpt lat="43.1116564" lon="-2.76283">
        <ele>151.506</ele>
        <time>2021-04-01T08:25:16.900Z</time>
      </trkpt>
      <trkpt lat="43.1116537" lon="-2.7628272">
        <ele>151.493</ele>
        <time>2021-04-01T08:25:17.285Z</time>
      </trkpt>
      <trkpt lat="43.1116564" lon="-2.76283">
        <ele>151.506</ele>
        <time>2021-04-01T08:25:17.670Z</time>
      </trkpt>
      <trkpt lat="43.1116537" lon="-2.7628272">
        <ele>151.493</ele>
        <time>2021-04-01T08:25:18.055Z</time>
      </trkpt>
      <trkpt lat="43.1115592" lon="-2.7627414">
        <ele>151.982</ele>
        <time>2021-04-01T08:25:18.440Z</time>
      </trkpt>
      <trkpt lat="43.1115733" lon="-2.7627538">
        <ele>152.042</ele>
        <time>2021-04-01T08:25:18.565Z</time>
      </trkpt>
      <trkpt lat="43.111562" lon="-2.7627438">
        <ele>151.991</ele>
        <time>2021-04-01T08:25:18.691Z</time>
      </trkpt>
      <trkpt lat="43.1115592" lon="-2.7627414">
        <ele>151.982</ele>
        <time>2021-04-01T08:25:18.817Z</time>
      </trkpt>
      <trkpt lat="43.1115733" lon="-2.7627538">
        <ele>152.042</ele>
        <time>2021-04-01T08:25:18.942Z</time>
      </trkpt>
      <trkpt lat="43.111562" lon="-2.7627438">
        <ele>151.991</ele>
        <time>2021-04-01T08:25:19.068Z</time>
      </trkpt>
      <trkpt lat="43.1115592" lon="-2.7627414">
        <ele>151.982</ele>
        <time>2021-04-01T08:25:19.194Z</time>
      </trkpt>
      <trkpt lat="43.1115116" lon="-2.7627026">
        <ele>151.797</ele>
        <time>2021-04-01T08:25:21.905Z</time>
      </trkpt>
      <trkpt lat="43.1113646" lon="-2.7625843">
        <ele>151.363</ele>
        <time>2021-04-01T08:25:22.005Z</time>
      </trkpt>
      <trkpt lat="43.1113959" lon="-2.7626109">
        <ele>151.27</ele>
        <time>2021-04-01T08:25:22.106Z</time>
      </trkpt>
      <trkpt lat="43.111393" lon="-2.7626081">
        <ele>151.233</ele>
        <time>2021-04-01T08:25:22.207Z</time>
      </trkpt>
      <trkpt lat="43.1113959" lon="-2.7626109">
        <ele>151.27</ele>
        <time>2021-04-01T08:25:22.308Z</time>
      </trkpt>
      <trkpt lat="43.111393" lon="-2.7626081">
        <ele>151.233</ele>
        <time>2021-04-01T08:25:22.409Z</time>
      </trkpt>
      <trkpt lat="43.1113285" lon="-2.7625574">
        <ele>150.722</ele>
        <time>2021-04-01T08:25:22.510Z</time>
      </trkpt>
      <trkpt lat="43.1112895" lon="-2.7625275">
        <ele>150.013</ele>
        <time>2021-04-01T08:25:22.977Z</time>
      </trkpt>
      <trkpt lat="43.1112958" lon="-2.7625325">
        <ele>150.186</ele>
        <time>2021-04-01T08:25:23.445Z</time>
      </trkpt>
      <trkpt lat="43.1112895" lon="-2.7625275">
        <ele>150.013</ele>
        <time>2021-04-01T08:25:23.912Z</time>
      </trkpt>
      <trkpt lat="43.1112958" lon="-2.7625325">
        <ele>150.186</ele>
        <time>2021-04-01T08:25:24.380Z</time>
      </trkpt>
      <trkpt lat="43.1112895" lon="-2.7625275">
        <ele>150.013</ele>
        <time>2021-04-01T08:25:24.847Z</time>
      </trkpt>
      <trkpt lat="43.1111682" lon="-2.7624148">
        <ele>149.946</ele>
        <time>2021-04-01T08:25:26.910Z</time>
      </trkpt>
      <trkpt lat="43.1112207" lon="-2.762466">
        <ele>149.554</ele>
        <time>2021-04-01T08:25:27.001Z</time>
      </trkpt>
      <trkpt lat="43.1112081" lon="-2.7624551">
        <ele>149.491</ele>
        <time>2021-04-01T08:25:27.093Z</time>
      </trkpt>
      <trkpt lat="43.1111897" lon="-2.7624353">
        <ele>149.994</ele>
        <time>2021-04-01T08:25:27.185Z</time>
      </trkpt>
      <trkpt lat="43.1112207" lon="-2.762466">
        <ele>149.554</ele>
        <time>2021-04-01T08:25:27.276Z</time>
      </trkpt>
      <trkpt lat="43.1112081" lon="-2.7624551">
        <ele>149.491</ele>
        <time>2021-04-01T08:25:27.368Z</time>
      </trkpt>
      <trkpt lat="43.1111897" lon="-2.7624353">
        <ele>149.994</ele>
        <time>2021-04-01T08:25:27.460Z</time>
      </trkpt>
      <trkpt lat="43.1110553" lon="-2.7622871">
        <ele>151.085</ele>
        <time>2021-04-01T08:25:27.716Z</time>
      </trkpt>
      <trkpt lat="43.1110296" lon="-2.762259">
        <ele>151.292</ele>
        <time>2021-04-01T08:25:27.973Z</time>
      </trkpt>
      <trkpt lat="43.1110553" lon="-2.7622871">
        <ele>151.085</ele>
        <time>2021-04-01T08:25:28.230Z</time>
      </trkpt>
      <trkpt lat="43.1110296" lon="-2.762259">
        <ele>151.292</ele>
        <time>2021-04-01T08:25:28.486Z</time>
      </trkpt>
      <trkpt lat="43.1110296" lon="-2.762259">
        <ele>151.292</ele>
        <time>2021-04-01T08:25:28.743Z</time>
      </trkpt>
      <trkpt lat="43.1109741" lon="-2.7622074">
        <ele>151.251</ele>
        <time>2021-04-01T08:25:29.000Z</time>
      </trkpt>
      <trkpt lat="43.1109482" lon="-2.7621779">
        <ele>150.829</ele>
        <time>2021-04-01T08:25:29.421Z</time>
      </trkpt>
      <trkpt lat="43.1109482" lon="-2.7621779">
        <ele>150.829</ele>
        <time>2021-04-01T08:25:29.843Z</time>
      </trkpt>
      <trkpt lat="43.1109164" lon="-2.7621378">
        <ele>150.319</ele>
        <time>2021-04-01T08:25:32.355Z</time>
      </trkpt>
      <trkpt lat="43.1108311" lon="-2.7620281">
        <ele>148.568</ele>
        <time>2021-04-01T08:25:32.776Z</time>
      </trkpt>
      <trkpt lat="43.1108183" lon="-2.7620097">
        <ele>148.573</ele>
        <time>2021-04-01T08:25:33.198Z</time>
      </trkpt>
      <trkpt lat="43.1107815" lon="-2.7619585">
        <ele>148.306</ele>
        <time>2021-04-01T08:25:35.325Z</time>
      </trkpt>
      <trkpt lat="43.1107126" lon="-2.7618644">
        <ele>148.263</ele>
        <time>2021-04-01T08:25:35.589Z</time>
      </trkpt>
      <trkpt lat="43.1107082" lon="-2.7618581">
        <ele>148.277</ele>
        <time>2021-04-01T08:25:35.853Z</time>
      </trkpt>
      <trkpt lat="43.1107126" lon="-2.7618644">
        <ele>148.263</ele>
        <time>2021-04-01T08:25:36.117Z</time>
      </trkpt>
      <trkpt lat="43.1107082" lon="-2.7618581">
        <ele>148.277</ele>
        <time>2021-04-01T08:25:36.381Z</time>
      </trkpt>
      <trkpt lat="43.1106604" lon="-2.7617931">
        <ele>147.678</ele>
        <time>2021-04-01T08:25:36.645Z</time>
      </trkpt>
      <trkpt lat="43.1106346" lon="-2.7617557">
        <ele>147.438</ele>
        <time>2021-04-01T08:25:37.002Z</time>
      </trkpt>
      <trkpt lat="43.1106324" lon="-2.7617528">
        <ele>147.353</ele>
        <time>2021-04-01T08:25:37.360Z</time>
      </trkpt>
      <trkpt lat="43.110628" lon="-2.7617466">
        <ele>147.298</ele>
        <time>2021-04-01T08:25:37.717Z</time>
      </trkpt>
      <trkpt lat="43.1106604" lon="-2.7617931">
        <ele>147.678</ele>
        <time>2021-04-01T08:25:38.075Z</time>
      </trkpt>
      <trkpt lat="43.1106346" lon="-2.7617557">
        <ele>147.438</ele>
        <time>2021-04-01T08:25:38.432Z</time>
      </trkpt>
      <trkpt lat="43.1106324" lon="-2.7617528">
        <ele>147.353</ele>
        <time>2021-04-01T08:25:38.790Z</time>
      </trkpt>
      <trkpt lat="43.110628" lon="-2.7617466">
        <ele>147.298</ele>
        <time>2021-04-01T08:25:39.147Z</time>
      </trkpt>
      <trkpt lat="43.1105468" lon="-2.7616338">
        <ele>146.068</ele>
        <time>2021-04-01T08:25:39.560Z</time>
      </trkpt>
      <trkpt lat="43.1105446" lon="-2.7616306">
        <ele>146.029</ele>
        <time>2021-04-01T08:25:39.700Z</time>
      </trkpt>
      <trkpt lat="43.1105154" lon="-2.7615879">
        <ele>146.22</ele>
        <time>2021-04-01T08:25:39.840Z</time>
      </trkpt>
      <trkpt lat="43.1105086" lon="-2.7615783">
        <ele>146.225</ele>
        <time>2021-04-01T08:25:39.980Z</time>
      </trkpt>
      <trkpt lat="43.1105067" lon="-2.7615759">
        <ele>146.014</ele>
        <time>2021-04-01T08:25:40.120Z</time>
      </trkpt>
      <trkpt lat="43.1105154" lon="-2.7615879">
        <ele>146.22</ele>
        <time>2021-04-01T08:25:40.260Z</time>
      </trkpt>
      <trkpt lat="43.1105086" lon="-2.7615783">
        <ele>146.225</ele>
        <time>2021-04-01T08:25:40.400Z</time>
      </trkpt>
      <trkpt lat="43.1105067" lon="-2.7615759">
        <ele>146.014</ele>
        <time>2021-04-01T08:25:40.540Z</time>
      </trkpt>
      <trkpt lat="43.1105154" lon="-2.7615879">
        <ele>146.22</ele>
        <time>2021-04-01T08:25:40.680Z</time>
      </trkpt>
      <trkpt lat="43.1105086" lon="-2.7615783">
        <ele>146.225</ele>
        <time>2021-04-01T08:25:40.820Z</time>
      </trkpt>
      <trkpt lat="43.1105067" lon="-2.7615759">
        <ele>146.014</ele>
        <time>2021-04-01T08:25:40.960Z</time>
      </trkpt>
      <trkpt lat="43.1104822" lon="-2.7615428">
        <ele>145.66</ele>
        <time>2021-04-01T08:25:43.135Z</time>
      </trkpt>
      <trkpt lat="43.1104042" lon="-2.7614231">
        <ele>144.517</ele>
        <time>2021-04-01T08:25:44.180Z</time>
      </trkpt>
      <trkpt lat="43.110383" lon="-2.7613916">
        <ele>144.274</ele>
        <time>2021-04-01T08:25:44.341Z</time>
      </trkpt>
      <trkpt lat="43.1103789" lon="-2.7613857">
        <ele>144.22</ele>
        <time>2021-04-01T08:25:44.502Z</time>
      </trkpt>
      <trkpt lat="43.1103851" lon="-2.7613949">
        <ele>144.289</ele>
        <time>2021-04-01T08:25:44.663Z</time>
      </trkpt>
      <trkpt lat="43.110383" lon="-2.7613916">
        <ele>144.274</ele>
        <time>2021-04-01T08:25:44.825Z</time>
      </trkpt>
      <trkpt lat="43.1103789" lon="-2.7613857">
        <ele>144.22</ele>
        <time>2021-04-01T08:25:44.986Z</time>
      </trkpt>
      <trkpt lat="43.1103851" lon="-2.7613949">
        <ele>144.289</ele>
        <time>2021-04-01T08:25:45.147Z</time>
      </trkpt>
      <trkpt lat="43.110383" lon="-2.7613916">
        <ele>144.274</ele>
        <time>2021-04-01T08:25:45.309Z</time>
      </trkpt>
      <trkpt lat="43.1103789" lon="-2.7613857">
        <ele>144.22</ele>
        <time>2021-04-01T08:25:45.470Z</time>
      </trkpt>
      <trkpt lat="43.1103645" lon="-2.7613615">
        <ele>144.259</ele>
        <time>2021-04-01T08:25:45.631Z</time>
      </trkpt>
      <trkpt lat="43.1103489" lon="-2.761335">
        <ele>143.959</ele>
        <time>2021-04-01T08:25:45.793Z</time>
      </trkpt>
      <trkpt lat="43.110345" lon="-2.7613283">
        <ele>143.867</ele>
        <time>2021-04-01T08:25:45.954Z</time>
      </trkpt>
      <trkpt lat="43.1103203" lon="-2.7612899">
        <ele>143.355</ele>
        <time>2021-04-01T08:25:46.115Z</time>
      </trkpt>
      <trkpt lat="43.110345" lon="-2.7613283">
        <ele>143.867</ele>
        <time>2021-04-01T08:25:46.277Z</time>
      </trkpt>
      <trkpt lat="43.1103203" lon="-2.7612899">
        <ele>143.355</ele>
        <time>2021-04-01T08:25:46.438Z</time>
      </trkpt>
      <trkpt lat="43.1102771" lon="-2.7612134">
        <ele>143.286</ele>
        <time>2021-04-01T08:25:46.600Z</time>
      </trkpt>
      <trkpt lat="43.1103104" lon="-2.761273">
        <ele>143.229</ele>
        <time>2021-04-01T08:25:46.966Z</time>
      </trkpt>
      <trkpt lat="43.1102771" lon="-2.7612134">
        <ele>143.286</ele>
        <time>2021-04-01T08:25:47.333Z</time>
      </trkpt>
      <trkpt lat="43.1102386" lon="-2.7611384">
        <ele>143.892</ele>
        <time>2021-04-01T08:25:49.680Z</time>
      </trkpt>
      <trkpt lat="43.1101685" lon="-2.7610045">
        <ele>144.8</ele>
        <time>2021-04-01T08:25:50.890Z</time>
      </trkpt>
      <trkpt lat="43.1101253" lon="-2.7609232">
        <ele>145.488</ele>
        <time>2021-04-01T08:25:52.540Z</time>
      </trkpt>
      <trkpt lat="43.110026" lon="-2.7607131">
        <ele>145.635</ele>
        <time>2021-04-01T08:25:56.225Z</time>
      </trkpt>
      <trkpt lat="43.1100141" lon="-2.7606883">
        <ele>145.714</ele>
        <time>2021-04-01T08:25:56.399Z</time>
      </trkpt>
      <trkpt lat="43.1100123" lon="-2.7606849">
        <ele>145.694</ele>
        <time>2021-04-01T08:25:56.573Z</time>
      </trkpt>
      <trkpt lat="43.1100037" lon="-2.7606677">
        <ele>145.775</ele>
        <time>2021-04-01T08:25:56.747Z</time>
      </trkpt>
      <trkpt lat="43.1100141" lon="-2.7606883">
        <ele>145.714</ele>
        <time>2021-04-01T08:25:56.921Z</time>
      </trkpt>
      <trkpt lat="43.1100123" lon="-2.7606849">
        <ele>145.694</ele>
        <time>2021-04-01T08:25:57.095Z</time>
      </trkpt>
      <trkpt lat="43.1100037" lon="-2.7606677">
        <ele>145.775</ele>
        <time>2021-04-01T08:25:57.270Z</time>
      </trkpt>
      <trkpt lat="43.1099222" lon="-2.7605116">
        <ele>147.075</ele>
        <time>2021-04-01T08:25:58.590Z</time>
      </trkpt>
      <trkpt lat="43.1098796" lon="-2.7604244">
        <ele>148.029</ele>
        <time>2021-04-01T08:25:58.953Z</time>
      </trkpt>
      <trkpt lat="43.1098475" lon="-2.7603619">
        <ele>148.247</ele>
        <time>2021-04-01T08:25:59.316Z</time>
      </trkpt>
      <trkpt lat="43.1098475" lon="-2.7603619">
        <ele>148.247</ele>
        <time>2021-04-01T08:25:59.679Z</time>
      </trkpt>
      <trkpt lat="43.1098475" lon="-2.7603619">
        <ele>148.247</ele>
        <time>2021-04-01T08:26:00.042Z</time>
      </trkpt>
      <trkpt lat="43.1098199" lon="-2.7603108">
        <ele>148.293</ele>
        <time>2021-04-01T08:26:01.945Z</time>
      </trkpt>
      <trkpt lat="43.1097693" lon="-2.7602169">
        <ele>148.35</ele>
        <time>2021-04-01T08:26:02.125Z</time>
      </trkpt>
      <trkpt lat="43.1097441" lon="-2.7601716">
        <ele>148.416</ele>
        <time>2021-04-01T08:26:02.306Z</time>
      </trkpt>
      <trkpt lat="43.1097458" lon="-2.7601748">
        <ele>148.426</ele>
        <time>2021-04-01T08:26:02.487Z</time>
      </trkpt>
      <trkpt lat="43.1097441" lon="-2.7601716">
        <ele>148.416</ele>
        <time>2021-04-01T08:26:02.667Z</time>
      </trkpt>
      <trkpt lat="43.1097458" lon="-2.7601748">
        <ele>148.426</ele>
        <time>2021-04-01T08:26:02.848Z</time>
      </trkpt>
      <trkpt lat="43.1097441" lon="-2.7601716">
        <ele>148.416</ele>
        <time>2021-04-01T08:26:03.029Z</time>
      </trkpt>
      <trkpt lat="43.1097286" lon="-2.7601426">
        <ele>148.349</ele>
        <time>2021-04-01T08:26:05.520Z</time>
      </trkpt>
      <trkpt lat="43.1096559" lon="-2.7600047">
        <ele>148.166</ele>
        <time>2021-04-01T08:26:05.740Z</time>
      </trkpt>
      <trkpt lat="43.1096528" lon="-2.7599977">
        <ele>148.149</ele>
        <time>2021-04-01T08:26:05.960Z</time>
      </trkpt>
      <trkpt lat="43.1096559" lon="-2.7600047">
        <ele>148.166</ele>
        <time>2021-04-01T08:26:06.180Z</time>
      </trkpt>
      <trkpt lat="43.1096528" lon="-2.7599977">
        <ele>148.149</ele>
        <time>2021-04-01T08:26:06.400Z</time>
      </trkpt>
      <trkpt lat="43.1096559" lon="-2.7600047">
        <ele>148.166</ele>
        <time>2021-04-01T08:26:06.620Z</time>
      </trkpt>
      <trkpt lat="43.1096528" lon="-2.7599977">
        <ele>148.149</ele>
        <time>2021-04-01T08:26:06.840Z</time>
      </trkpt>
      <trkpt lat="43.1096061" lon="-2.7599094">
        <ele>147.994</ele>
        <time>2021-04-01T08:26:08.435Z</time>
      </trkpt>
      <trkpt lat="43.1095608" lon="-2.7598255">
        <ele>147.788</ele>
        <time>2021-04-01T08:26:10.635Z</time>
      </trkpt>
      <trkpt lat="43.1095502" lon="-2.759806">
        <ele>147.679</ele>
        <time>2021-04-01T08:26:10.751Z</time>
      </trkpt>
      <trkpt lat="43.109543" lon="-2.7597929">
        <ele>147.655</ele>
        <time>2021-04-01T08:26:10.868Z</time>
      </trkpt>
      <trkpt lat="43.109552" lon="-2.7598094">
        <ele>147.7</ele>
        <time>2021-04-01T08:26:10.985Z</time>
      </trkpt>
      <trkpt lat="43.1095502" lon="-2.759806">
        <ele>147.679</ele>
        <time>2021-04-01T08:26:11.102Z</time>
      </trkpt>
      <trkpt lat="43.109543" lon="-2.7597929">
        <ele>147.655</ele>
        <time>2021-04-01T08:26:11.219Z</time>
      </trkpt>
      <trkpt lat="43.109552" lon="-2.7598094">
        <ele>147.7</ele>
        <time>2021-04-01T08:26:11.336Z</time>
      </trkpt>
      <trkpt lat="43.1095502" lon="-2.759806">
        <ele>147.679</ele>
        <time>2021-04-01T08:26:11.453Z</time>
      </trkpt>
      <trkpt lat="43.109543" lon="-2.7597929">
        <ele>147.655</ele>
        <time>2021-04-01T08:26:11.570Z</time>
      </trkpt>
      <trkpt lat="43.1094598" lon="-2.7596406">
        <ele>146.893</ele>
        <time>2021-04-01T08:26:13.605Z</time>
      </trkpt>
      <trkpt lat="43.1093921" lon="-2.759523">
        <ele>146.68</ele>
        <time>2021-04-01T08:26:14.705Z</time>
      </trkpt>
      <trkpt lat="43.1093901" lon="-2.7595199">
        <ele>146.649</ele>
        <time>2021-04-01T08:26:14.775Z</time>
      </trkpt>
      <trkpt lat="43.1093884" lon="-2.7595168">
        <ele>146.632</ele>
        <time>2021-04-01T08:26:14.846Z</time>
      </trkpt>
      <trkpt lat="43.1093865" lon="-2.7595136">
        <ele>146.637</ele>
        <time>2021-04-01T08:26:14.917Z</time>
      </trkpt>
      <trkpt lat="43.1093921" lon="-2.759523">
        <ele>146.68</ele>
        <time>2021-04-01T08:26:14.987Z</time>
      </trkpt>
      <trkpt lat="43.1093901" lon="-2.7595199">
        <ele>146.649</ele>
        <time>2021-04-01T08:26:15.058Z</time>
      </trkpt>
      <trkpt lat="43.1093884" lon="-2.7595168">
        <ele>146.632</ele>
        <time>2021-04-01T08:26:15.129Z</time>
      </trkpt>
      <trkpt lat="43.1093865" lon="-2.7595136">
        <ele>146.637</ele>
        <time>2021-04-01T08:26:15.200Z</time>
      </trkpt>
      <trkpt lat="43.109354" lon="-2.7594607">
        <ele>146.498</ele>
        <time>2021-04-01T08:26:15.270Z</time>
      </trkpt>
      <trkpt lat="43.1093519" lon="-2.759458">
        <ele>146.448</ele>
        <time>2021-04-01T08:26:15.341Z</time>
      </trkpt>
      <trkpt lat="43.1093362" lon="-2.7594344">
        <ele>146.351</ele>
        <time>2021-04-01T08:26:15.412Z</time>
      </trkpt>
      <trkpt lat="43.109354" lon="-2.7594607">
        <ele>146.498</ele>
        <time>2021-04-01T08:26:15.482Z</time>
      </trkpt>
      <trkpt lat="43.1093519" lon="-2.759458">
        <ele>146.448</ele>
        <time>2021-04-01T08:26:15.553Z</time>
      </trkpt>
      <trkpt lat="43.1093362" lon="-2.7594344">
        <ele>146.351</ele>
        <time>2021-04-01T08:26:15.624Z</time>
      </trkpt>
      <trkpt lat="43.109318" lon="-2.7594087">
        <ele>146.227</ele>
        <time>2021-04-01T08:26:15.695Z</time>
      </trkpt>
      <trkpt lat="43.1092855" lon="-2.7593593">
        <ele>146.152</ele>
        <time>2021-04-01T08:26:15.893Z</time>
      </trkpt>
      <trkpt lat="43.1092818" lon="-2.7593533">
        <ele>146.2</ele>
        <time>2021-04-01T08:26:16.091Z</time>
      </trkpt>
      <trkpt lat="43.1092742" lon="-2.7593419">
        <ele>146.116</ele>
        <time>2021-04-01T08:26:16.289Z</time>
      </trkpt>
      <trkpt lat="43.1092855" lon="-2.7593593">
        <ele>146.152</ele>
        <time>2021-04-01T08:26:16.487Z</time>
      </trkpt>
      <trkpt lat="43.1092818" lon="-2.7593533">
        <ele>146.2</ele>
        <time>2021-04-01T08:26:16.685Z</time>
      </trkpt>
      <trkpt lat="43.1092742" lon="-2.7593419">
        <ele>146.116</ele>
        <time>2021-04-01T08:26:16.883Z</time>
      </trkpt>
      <trkpt lat="43.1092855" lon="-2.7593593">
        <ele>146.152</ele>
        <time>2021-04-01T08:26:17.081Z</time>
      </trkpt>
      <trkpt lat="43.1092818" lon="-2.7593533">
        <ele>146.2</ele>
        <time>2021-04-01T08:26:17.279Z</time>
      </trkpt>
      <trkpt lat="43.1092742" lon="-2.7593419">
        <ele>146.116</ele>
        <time>2021-04-01T08:26:17.477Z</time>
      </trkpt>
      <trkpt lat="43.1092494" lon="-2.7593047">
        <ele>146.07</ele>
        <time>2021-04-01T08:26:17.675Z</time>
      </trkpt>
      <trkpt lat="43.1092472" lon="-2.759302">
        <ele>146.047</ele>
        <time>2021-04-01T08:26:18.243Z</time>
      </trkpt>
      <trkpt lat="43.1092472" lon="-2.759302">
        <ele>146.047</ele>
        <time>2021-04-01T08:26:18.811Z</time>
      </trkpt>
      <trkpt lat="43.1091863" lon="-2.7592214">
        <ele>145.845</ele>
        <time>2021-04-01T08:26:21.140Z</time>
      </trkpt>
      <trkpt lat="43.1091722" lon="-2.7592029">
        <ele>145.788</ele>
        <time>2021-04-01T08:26:21.827Z</time>
      </trkpt>
      <trkpt lat="43.1091722" lon="-2.7592029">
        <ele>145.788</ele>
        <time>2021-04-01T08:26:22.515Z</time>
      </trkpt>
      <trkpt lat="43.1090683" lon="-2.7590769">
        <ele>144.988</ele>
        <time>2021-04-01T08:26:23.670Z</time>
      </trkpt>
      <trkpt lat="43.1090234" lon="-2.7590257">
        <ele>144.971</ele>
        <time>2021-04-01T08:26:23.865Z</time>
      </trkpt>
      <trkpt lat="43.1089812" lon="-2.7589778">
        <ele>144.862</ele>
        <time>2021-04-01T08:26:24.060Z</time>
      </trkpt>
      <trkpt lat="43.1089793" lon="-2.7589754">
        <ele>144.831</ele>
        <time>2021-04-01T08:26:24.255Z</time>
      </trkpt>
      <trkpt lat="43.1089774" lon="-2.7589728">
        <ele>144.86</ele>
        <time>2021-04-01T08:26:24.450Z</time>
      </trkpt>
      <trkpt lat="43.1089812" lon="-2.7589778">
        <ele>144.862</ele>
        <time>2021-04-01T08:26:24.645Z</time>
      </trkpt>
      <trkpt lat="43.1089793" lon="-2.7589754">
        <ele>144.831</ele>
        <time>2021-04-01T08:26:24.840Z</time>
      </trkpt>
      <trkpt lat="43.1089774" lon="-2.7589728">
        <ele>144.86</ele>
        <time>2021-04-01T08:26:25.035Z</time>
      </trkpt>
      <trkpt lat="43.1089812" lon="-2.7589778">
        <ele>144.862</ele>
        <time>2021-04-01T08:26:25.230Z</time>
      </trkpt>
      <trkpt lat="43.1089793" lon="-2.7589754">
        <ele>144.831</ele>
        <time>2021-04-01T08:26:25.425Z</time>
      </trkpt>
      <trkpt lat="43.1089774" lon="-2.7589728">
        <ele>144.86</ele>
        <time>2021-04-01T08:26:25.620Z</time>
      </trkpt>
      <trkpt lat="43.1089417" lon="-2.7589293">
        <ele>144.914</ele>
        <time>2021-04-01T08:26:27.135Z</time>
      </trkpt>
      <trkpt lat="43.1088904" lon="-2.7588705">
        <ele>144.949</ele>
        <time>2021-04-01T08:26:27.487Z</time>
      </trkpt>
      <trkpt lat="43.1088612" lon="-2.7588362">
        <ele>144.945</ele>
        <time>2021-04-01T08:26:27.839Z</time>
      </trkpt>
      <trkpt lat="43.1088634" lon="-2.7588386">
        <ele>144.958</ele>
        <time>2021-04-01T08:26:28.191Z</time>
      </trkpt>
      <trkpt lat="43.1088612" lon="-2.7588362">
        <ele>144.945</ele>
        <time>2021-04-01T08:26:28.543Z</time>
      </trkpt>
      <trkpt lat="43.1088231" lon="-2.7587935">
        <ele>145.045</ele>
        <time>2021-04-01T08:26:29.940Z</time>
      </trkpt>
      <trkpt lat="43.1087833" lon="-2.7587473">
        <ele>145.23</ele>
        <time>2021-04-01T08:26:31.755Z</time>
      </trkpt>
      <trkpt lat="43.1087158" lon="-2.7586718">
        <ele>145.307</ele>
        <time>2021-04-01T08:26:32.129Z</time>
      </trkpt>
      <trkpt lat="43.1086781" lon="-2.7586315">
        <ele>145.02</ele>
        <time>2021-04-01T08:26:32.503Z</time>
      </trkpt>
      <trkpt lat="43.1086781" lon="-2.7586315">
        <ele>145.02</ele>
        <time>2021-04-01T08:26:32.877Z</time>
      </trkpt>
      <trkpt lat="43.1086781" lon="-2.7586315">
        <ele>145.02</ele>
        <time>2021-04-01T08:26:33.251Z</time>
      </trkpt>
      <trkpt lat="43.1086441" lon="-2.7585949">
        <ele>144.722</ele>
        <time>2021-04-01T08:26:35.550Z</time>
      </trkpt>
      <trkpt lat="43.1085684" lon="-2.7585135">
        <ele>144.827</ele>
        <time>2021-04-01T08:26:35.935Z</time>
      </trkpt>
      <trkpt lat="43.1085643" lon="-2.758509">
        <ele>144.788</ele>
        <time>2021-04-01T08:26:36.320Z</time>
      </trkpt>
      <trkpt lat="43.1085643" lon="-2.758509">
        <ele>144.788</ele>
        <time>2021-04-01T08:26:36.705Z</time>
      </trkpt>
      <trkpt lat="43.1085092" lon="-2.7584502">
        <ele>144.704</ele>
        <time>2021-04-01T08:26:38.850Z</time>
      </trkpt>
      <trkpt lat="43.1084422" lon="-2.7583778">
        <ele>144.81</ele>
        <time>2021-04-01T08:26:39.895Z</time>
      </trkpt>
      <trkpt lat="43.1084034" lon="-2.7583347">
        <ele>144.721</ele>
        <time>2021-04-01T08:26:40.185Z</time>
      </trkpt>
      <trkpt lat="43.1084012" lon="-2.7583323">
        <ele>144.742</ele>
        <time>2021-04-01T08:26:40.476Z</time>
      </trkpt>
      <trkpt lat="43.1083933" lon="-2.758323">
        <ele>144.762</ele>
        <time>2021-04-01T08:26:40.767Z</time>
      </trkpt>
      <trkpt lat="43.1084034" lon="-2.7583347">
        <ele>144.721</ele>
        <time>2021-04-01T08:26:41.057Z</time>
      </trkpt>
      <trkpt lat="43.1084012" lon="-2.7583323">
        <ele>144.742</ele>
        <time>2021-04-01T08:26:41.348Z</time>
      </trkpt>
      <trkpt lat="43.1083933" lon="-2.758323">
        <ele>144.762</ele>
        <time>2021-04-01T08:26:41.639Z</time>
      </trkpt>
      <trkpt lat="43.1083283" lon="-2.7582508">
        <ele>145.125</ele>
        <time>2021-04-01T08:26:43.470Z</time>
      </trkpt>
      <trkpt lat="43.108274" lon="-2.7581881">
        <ele>145.14</ele>
        <time>2021-04-01T08:26:43.983Z</time>
      </trkpt>
      <trkpt lat="43.108274" lon="-2.7581881">
        <ele>145.14</ele>
        <time>2021-04-01T08:26:44.496Z</time>
      </trkpt>
      <trkpt lat="43.1082193" lon="-2.7581242">
        <ele>145.212</ele>
        <time>2021-04-01T08:26:45.010Z</time>
      </trkpt>
      <trkpt lat="43.1082076" lon="-2.7581112">
        <ele>145.112</ele>
        <time>2021-04-01T08:26:45.917Z</time>
      </trkpt>
      <trkpt lat="43.1081548" lon="-2.7580523">
        <ele>144.956</ele>
        <time>2021-04-01T08:26:48.090Z</time>
      </trkpt>
      <trkpt lat="43.1080576" lon="-2.7579432">
        <ele>144.955</ele>
        <time>2021-04-01T08:26:49.520Z</time>
      </trkpt>
      <trkpt lat="43.1079354" lon="-2.7578112">
        <ele>144.876</ele>
        <time>2021-04-01T08:26:53.975Z</time>
      </trkpt>
      <trkpt lat="43.1078984" lon="-2.7577676">
        <ele>145.308</ele>
        <time>2021-04-01T08:26:54.316Z</time>
      </trkpt>
      <trkpt lat="43.1078676" lon="-2.7577333">
        <ele>144.991</ele>
        <time>2021-04-01T08:26:54.657Z</time>
      </trkpt>
      <trkpt lat="43.1078984" lon="-2.7577676">
        <ele>145.308</ele>
        <time>2021-04-01T08:26:54.998Z</time>
      </trkpt>
      <trkpt lat="43.1078676" lon="-2.7577333">
        <ele>144.991</ele>
        <time>2021-04-01T08:26:55.339Z</time>
      </trkpt>
      <trkpt lat="43.1078372" lon="-2.7577017">
        <ele>144.97</ele>
        <time>2021-04-01T08:26:57.880Z</time>
      </trkpt>
      <trkpt lat="43.1077554" lon="-2.7576218">
        <ele>144.617</ele>
        <time>2021-04-01T08:26:57.982Z</time>
      </trkpt>
      <trkpt lat="43.1077536" lon="-2.7576197">
        <ele>144.566</ele>
        <time>2021-04-01T08:26:58.084Z</time>
      </trkpt>
      <trkpt lat="43.1077554" lon="-2.7576218">
        <ele>144.617</ele>
        <time>2021-04-01T08:26:58.186Z</time>
      </trkpt>
      <trkpt lat="43.1077536" lon="-2.7576197">
        <ele>144.566</ele>
        <time>2021-04-01T08:26:58.288Z</time>
      </trkpt>
      <trkpt lat="43.1077554" lon="-2.7576218">
        <ele>144.617</ele>
        <time>2021-04-01T08:26:58.390Z</time>
      </trkpt>
      <trkpt lat="43.1077536" lon="-2.7576197">
        <ele>144.566</ele>
        <time>2021-04-01T08:26:58.492Z</time>
      </trkpt>
      <trkpt lat="43.1077307" lon="-2.7575932">
        <ele>144.518</ele>
        <time>2021-04-01T08:26:58.595Z</time>
      </trkpt>
      <trkpt lat="43.1077168" lon="-2.7575775">
        <ele>144.643</ele>
        <time>2021-04-01T08:26:58.886Z</time>
      </trkpt>
      <trkpt lat="43.1077148" lon="-2.7575751">
        <ele>144.691</ele>
        <time>2021-04-01T08:26:59.178Z</time>
      </trkpt>
      <trkpt lat="43.107719" lon="-2.7575799">
        <ele>144.605</ele>
        <time>2021-04-01T08:26:59.469Z</time>
      </trkpt>
      <trkpt lat="43.1077168" lon="-2.7575775">
        <ele>144.643</ele>
        <time>2021-04-01T08:26:59.761Z</time>
      </trkpt>
      <trkpt lat="43.1077148" lon="-2.7575751">
        <ele>144.691</ele>
        <time>2021-04-01T08:27:00.052Z</time>
      </trkpt>
      <trkpt lat="43.107713" lon="-2.7575732">
        <ele>144.638</ele>
        <time>2021-04-01T08:27:00.344Z</time>
      </trkpt>
      <trkpt lat="43.1077168" lon="-2.7575775">
        <ele>144.643</ele>
        <time>2021-04-01T08:27:00.635Z</time>
      </trkpt>
      <trkpt lat="43.1077148" lon="-2.7575751">
        <ele>144.691</ele>
        <time>2021-04-01T08:27:00.927Z</time>
      </trkpt>
      <trkpt lat="43.107713" lon="-2.7575732">
        <ele>144.638</ele>
        <time>2021-04-01T08:27:01.218Z</time>
      </trkpt>
      <trkpt lat="43.1076284" lon="-2.7574779">
        <ele>144.68</ele>
        <time>2021-04-01T08:27:02.555Z</time>
      </trkpt>
      <trkpt lat="43.1075921" lon="-2.7574374">
        <ele>144.713</ele>
        <time>2021-04-01T08:27:02.830Z</time>
      </trkpt>
      <trkpt lat="43.107613" lon="-2.7574605">
        <ele>144.725</ele>
        <time>2021-04-01T08:27:03.105Z</time>
      </trkpt>
      <trkpt lat="43.1075921" lon="-2.7574374">
        <ele>144.713</ele>
        <time>2021-04-01T08:27:03.380Z</time>
      </trkpt>
      <trkpt lat="43.1075537" lon="-2.7573954">
        <ele>144.712</ele>
        <time>2021-04-01T08:27:05.910Z</time>
      </trkpt>
      <trkpt lat="43.1074702" lon="-2.7573117">
        <ele>144.225</ele>
        <time>2021-04-01T08:27:05.992Z</time>
      </trkpt>
      <trkpt lat="43.1074683" lon="-2.7573093">
        <ele>144.204</ele>
        <time>2021-04-01T08:27:06.075Z</time>
      </trkpt>
      <trkpt lat="43.1074661" lon="-2.7573071">
        <ele>144.202</ele>
        <time>2021-04-01T08:27:06.157Z</time>
      </trkpt>
      <trkpt lat="43.1074744" lon="-2.7573163">
        <ele>144.124</ele>
        <time>2021-04-01T08:27:06.240Z</time>
      </trkpt>
      <trkpt lat="43.1074702" lon="-2.7573117">
        <ele>144.225</ele>
        <time>2021-04-01T08:27:06.322Z</time>
      </trkpt>
      <trkpt lat="43.1074683" lon="-2.7573093">
        <ele>144.204</ele>
        <time>2021-04-01T08:27:06.405Z</time>
      </trkpt>
      <trkpt lat="43.1074661" lon="-2.7573071">
        <ele>144.202</ele>
        <time>2021-04-01T08:27:06.487Z</time>
      </trkpt>
      <trkpt lat="43.1074744" lon="-2.7573163">
        <ele>144.124</ele>
        <time>2021-04-01T08:27:06.570Z</time>
      </trkpt>
      <trkpt lat="43.1074702" lon="-2.7573117">
        <ele>144.225</ele>
        <time>2021-04-01T08:27:06.652Z</time>
      </trkpt>
      <trkpt lat="43.1074683" lon="-2.7573093">
        <ele>144.204</ele>
        <time>2021-04-01T08:27:06.735Z</time>
      </trkpt>
      <trkpt lat="43.1074661" lon="-2.7573071">
        <ele>144.202</ele>
        <time>2021-04-01T08:27:06.817Z</time>
      </trkpt>
      <trkpt lat="43.1074341" lon="-2.7572695">
        <ele>144.429</ele>
        <time>2021-04-01T08:27:07.835Z</time>
      </trkpt>
      <trkpt lat="43.1074001" lon="-2.7572278">
        <ele>144.963</ele>
        <time>2021-04-01T08:27:08.086Z</time>
      </trkpt>
      <trkpt lat="43.1073545" lon="-2.757174">
        <ele>145.101</ele>
        <time>2021-04-01T08:27:08.337Z</time>
      </trkpt>
      <trkpt lat="43.1073645" lon="-2.7571843">
        <ele>145.272</ele>
        <time>2021-04-01T08:27:08.589Z</time>
      </trkpt>
      <trkpt lat="43.1073545" lon="-2.757174">
        <ele>145.101</ele>
        <time>2021-04-01T08:27:08.840Z</time>
      </trkpt>
      <trkpt lat="43.1073645" lon="-2.7571843">
        <ele>145.272</ele>
        <time>2021-04-01T08:27:09.092Z</time>
      </trkpt>
      <trkpt lat="43.1073545" lon="-2.757174">
        <ele>145.101</ele>
        <time>2021-04-01T08:27:09.343Z</time>
      </trkpt>
      <trkpt lat="43.1073363" lon="-2.7571536">
        <ele>145.062</ele>
        <time>2021-04-01T08:27:10.915Z</time>
      </trkpt>
      <trkpt lat="43.1072881" lon="-2.7570917">
        <ele>146.127</ele>
        <time>2021-04-01T08:27:12.730Z</time>
      </trkpt>
      <trkpt lat="43.1072208" lon="-2.7570167">
        <ele>146.071</ele>
        <time>2021-04-01T08:27:14.710Z</time>
      </trkpt>
      <trkpt lat="43.1071986" lon="-2.756993">
        <ele>145.952</ele>
        <time>2021-04-01T08:27:14.790Z</time>
      </trkpt>
      <trkpt lat="43.1071944" lon="-2.7569887">
        <ele>145.987</ele>
        <time>2021-04-01T08:27:14.870Z</time>
      </trkpt>
      <trkpt lat="43.1071986" lon="-2.756993">
        <ele>145.952</ele>
        <time>2021-04-01T08:27:14.950Z</time>
      </trkpt>
      <trkpt lat="43.1071856" lon="-2.7569794">
        <ele>146.235</ele>
        <time>2021-04-01T08:27:15.030Z</time>
      </trkpt>
      <trkpt lat="43.1071813" lon="-2.7569745">
        <ele>146.336</ele>
        <time>2021-04-01T08:27:15.110Z</time>
      </trkpt>
      <trkpt lat="43.1071773" lon="-2.75697">
        <ele>146.282</ele>
        <time>2021-04-01T08:27:15.190Z</time>
      </trkpt>
      <trkpt lat="43.1071856" lon="-2.7569794">
        <ele>146.235</ele>
        <time>2021-04-01T08:27:15.270Z</time>
      </trkpt>
      <trkpt lat="43.1071813" lon="-2.7569745">
        <ele>146.336</ele>
        <time>2021-04-01T08:27:15.350Z</time>
      </trkpt>
      <trkpt lat="43.1071793" lon="-2.7569723">
        <ele>146.327</ele>
        <time>2021-04-01T08:27:15.430Z</time>
      </trkpt>
      <trkpt lat="43.1071773" lon="-2.75697">
        <ele>146.282</ele>
        <time>2021-04-01T08:27:15.510Z</time>
      </trkpt>
      <trkpt lat="43.1071856" lon="-2.7569794">
        <ele>146.235</ele>
        <time>2021-04-01T08:27:15.590Z</time>
      </trkpt>
      <trkpt lat="43.1071813" lon="-2.7569745">
        <ele>146.336</ele>
        <time>2021-04-01T08:27:15.670Z</time>
      </trkpt>
      <trkpt lat="43.1071793" lon="-2.7569723">
        <ele>146.327</ele>
        <time>2021-04-01T08:27:15.750Z</time>
      </trkpt>
      <trkpt lat="43.1071773" lon="-2.75697">
        <ele>146.282</ele>
        <time>2021-04-01T08:27:15.830Z</time>
      </trkpt>
      <trkpt lat="43.1071475" lon="-2.7569353">
        <ele>146.353</ele>
        <time>2021-04-01T08:27:15.910Z</time>
      </trkpt>
      <trkpt lat="43.1071302" lon="-2.756914">
        <ele>146.268</ele>
        <time>2021-04-01T08:27:15.990Z</time>
      </trkpt>
      <trkpt lat="43.1071339" lon="-2.7569189">
        <ele>146.312</ele>
        <time>2021-04-01T08:27:16.070Z</time>
      </trkpt>
      <trkpt lat="43.1071321" lon="-2.7569164">
        <ele>146.317</ele>
        <time>2021-04-01T08:27:16.150Z</time>
      </trkpt>
      <trkpt lat="43.1071302" lon="-2.756914">
        <ele>146.268</ele>
        <time>2021-04-01T08:27:16.230Z</time>
      </trkpt>
      <trkpt lat="43.1071321" lon="-2.7569164">
        <ele>146.317</ele>
        <time>2021-04-01T08:27:16.310Z</time>
      </trkpt>
      <trkpt lat="43.1071302" lon="-2.756914">
        <ele>146.268</ele>
        <time>2021-04-01T08:27:16.390Z</time>
      </trkpt>
      <trkpt lat="43.1070854" lon="-2.7568569">
        <ele>146.814</ele>
        <time>2021-04-01T08:27:17.845Z</time>
      </trkpt>
      <trkpt lat="43.1070392" lon="-2.7567935">
        <ele>147.173</ele>
        <time>2021-04-01T08:27:18.252Z</time>
      </trkpt>
      <trkpt lat="43.1070213" lon="-2.7567673">
        <ele>147.292</ele>
        <time>2021-04-01T08:27:18.659Z</time>
      </trkpt>
      <trkpt lat="43.1070392" lon="-2.7567935">
        <ele>147.173</ele>
        <time>2021-04-01T08:27:19.066Z</time>
      </trkpt>
      <trkpt lat="43.1070213" lon="-2.7567673">
        <ele>147.292</ele>
        <time>2021-04-01T08:27:19.473Z</time>
      </trkpt>
      <trkpt lat="43.1069717" lon="-2.756692">
        <ele>148.418</ele>
        <time>2021-04-01T08:27:21.255Z</time>
      </trkpt>
      <trkpt lat="43.1069319" lon="-2.7566195">
        <ele>148.786</ele>
        <time>2021-04-01T08:27:21.777Z</time>
      </trkpt>
      <trkpt lat="43.10692" lon="-2.7565959">
        <ele>148.913</ele>
        <time>2021-04-01T08:27:22.300Z</time>
      </trkpt>
      <trkpt lat="43.10692" lon="-2.7565959">
        <ele>148.913</ele>
        <time>2021-04-01T08:27:22.822Z</time>
      </trkpt>
      <trkpt lat="43.1068699" lon="-2.7565093">
        <ele>149.518</ele>
        <time>2021-04-01T08:27:23.785Z</time>
      </trkpt>
      <trkpt lat="43.1068556" lon="-2.7564867">
        <ele>149.568</ele>
        <time>2021-04-01T08:27:24.075Z</time>
      </trkpt>
      <trkpt lat="43.1068245" lon="-2.7564403">
        <ele>149.617</ele>
        <time>2021-04-01T08:27:24.366Z</time>
      </trkpt>
      <trkpt lat="43.1068245" lon="-2.7564403">
        <ele>149.617</ele>
        <time>2021-04-01T08:27:24.657Z</time>
      </trkpt>
      <trkpt lat="43.1068195" lon="-2.7564316">
        <ele>149.605</ele>
        <time>2021-04-01T08:27:24.947Z</time>
      </trkpt>
      <trkpt lat="43.1068245" lon="-2.7564403">
        <ele>149.617</ele>
        <time>2021-04-01T08:27:25.238Z</time>
      </trkpt>
      <trkpt lat="43.1068195" lon="-2.7564316">
        <ele>149.605</ele>
        <time>2021-04-01T08:27:25.529Z</time>
      </trkpt>
      <trkpt lat="43.106787" lon="-2.7563844">
        <ele>149.713</ele>
        <time>2021-04-01T08:27:27.525Z</time>
      </trkpt>
      <trkpt lat="43.1067347" lon="-2.7562942">
        <ele>149.724</ele>
        <time>2021-04-01T08:27:27.690Z</time>
      </trkpt>
      <trkpt lat="43.106721" lon="-2.7562692">
        <ele>149.895</ele>
        <time>2021-04-01T08:27:27.855Z</time>
      </trkpt>
      <trkpt lat="43.1067245" lon="-2.7562759">
        <ele>149.744</ele>
        <time>2021-04-01T08:27:28.020Z</time>
      </trkpt>
      <trkpt lat="43.106721" lon="-2.7562692">
        <ele>149.895</ele>
        <time>2021-04-01T08:27:28.185Z</time>
      </trkpt>
      <trkpt lat="43.1067245" lon="-2.7562759">
        <ele>149.744</ele>
        <time>2021-04-01T08:27:28.350Z</time>
      </trkpt>
      <trkpt lat="43.106721" lon="-2.7562692">
        <ele>149.895</ele>
        <time>2021-04-01T08:27:28.515Z</time>
      </trkpt>
      <trkpt lat="43.1066987" lon="-2.7562307">
        <ele>149.714</ele>
        <time>2021-04-01T08:27:28.680Z</time>
      </trkpt>
      <trkpt lat="43.1066886" lon="-2.756213">
        <ele>149.666</ele>
        <time>2021-04-01T08:27:28.955Z</time>
      </trkpt>
      <trkpt lat="43.1066701" lon="-2.7561803">
        <ele>149.712</ele>
        <time>2021-04-01T08:27:29.230Z</time>
      </trkpt>
      <trkpt lat="43.1066769" lon="-2.7561911">
        <ele>149.838</ele>
        <time>2021-04-01T08:27:29.505Z</time>
      </trkpt>
      <trkpt lat="43.1066701" lon="-2.7561803">
        <ele>149.712</ele>
        <time>2021-04-01T08:27:29.780Z</time>
      </trkpt>
      <trkpt lat="43.1066769" lon="-2.7561911">
        <ele>149.838</ele>
        <time>2021-04-01T08:27:30.055Z</time>
      </trkpt>
      <trkpt lat="43.1066701" lon="-2.7561803">
        <ele>149.712</ele>
        <time>2021-04-01T08:27:30.330Z</time>
      </trkpt>
      <trkpt lat="43.1066387" lon="-2.756127">
        <ele>149.618</ele>
        <time>2021-04-01T08:27:31.925Z</time>
      </trkpt>
      <trkpt lat="43.1065945" lon="-2.7560541">
        <ele>149.928</ele>
        <time>2021-04-01T08:27:32.110Z</time>
      </trkpt>
      <trkpt lat="43.1065675" lon="-2.7560091">
        <ele>149.632</ele>
        <time>2021-04-01T08:27:32.295Z</time>
      </trkpt>
      <trkpt lat="43.1065819" lon="-2.7560326">
        <ele>149.836</ele>
        <time>2021-04-01T08:27:32.480Z</time>
      </trkpt>
      <trkpt lat="43.1065638" lon="-2.7560031">
        <ele>149.617</ele>
        <time>2021-04-01T08:27:32.665Z</time>
      </trkpt>
      <trkpt lat="43.1065675" lon="-2.7560091">
        <ele>149.632</ele>
        <time>2021-04-01T08:27:32.850Z</time>
      </trkpt>
      <trkpt lat="43.1065657" lon="-2.7560062">
        <ele>149.593</ele>
        <time>2021-04-01T08:27:33.035Z</time>
      </trkpt>
      <trkpt lat="43.1065638" lon="-2.7560031">
        <ele>149.617</ele>
        <time>2021-04-01T08:27:33.220Z</time>
      </trkpt>
      <trkpt lat="43.1065675" lon="-2.7560091">
        <ele>149.632</ele>
        <time>2021-04-01T08:27:33.405Z</time>
      </trkpt>
      <trkpt lat="43.1065657" lon="-2.7560062">
        <ele>149.593</ele>
        <time>2021-04-01T08:27:33.590Z</time>
      </trkpt>
      <trkpt lat="43.1065638" lon="-2.7560031">
        <ele>149.617</ele>
        <time>2021-04-01T08:27:33.775Z</time>
      </trkpt>
      <trkpt lat="43.1065264" lon="-2.7559409">
        <ele>149.896</ele>
        <time>2021-04-01T08:27:33.960Z</time>
      </trkpt>
      <trkpt lat="43.1065152" lon="-2.7559221">
        <ele>150.077</ele>
        <time>2021-04-01T08:27:34.470Z</time>
      </trkpt>
      <trkpt lat="43.1065264" lon="-2.7559409">
        <ele>149.896</ele>
        <time>2021-04-01T08:27:34.980Z</time>
      </trkpt>
      <trkpt lat="43.1065152" lon="-2.7559221">
        <ele>150.077</ele>
        <time>2021-04-01T08:27:35.490Z</time>
      </trkpt>
      <trkpt lat="43.1064582" lon="-2.7558252">
        <ele>150.333</ele>
        <time>2021-04-01T08:27:37.095Z</time>
      </trkpt>
      <trkpt lat="43.106422" lon="-2.7557635">
        <ele>150.317</ele>
        <time>2021-04-01T08:27:37.755Z</time>
      </trkpt>
      <trkpt lat="43.106422" lon="-2.7557635">
        <ele>150.317</ele>
        <time>2021-04-01T08:27:38.415Z</time>
      </trkpt>
      <trkpt lat="43.1063592" lon="-2.7556574">
        <ele>149.408</ele>
        <time>2021-04-01T08:27:39.845Z</time>
      </trkpt>
      <trkpt lat="43.1063341" lon="-2.7556152">
        <ele>149.309</ele>
        <time>2021-04-01T08:27:40.181Z</time>
      </trkpt>
      <trkpt lat="43.1063093" lon="-2.7555734">
        <ele>149.068</ele>
        <time>2021-04-01T08:27:40.517Z</time>
      </trkpt>
      <trkpt lat="43.1063076" lon="-2.7555704">
        <ele>149.061</ele>
        <time>2021-04-01T08:27:40.853Z</time>
      </trkpt>
      <trkpt lat="43.1063217" lon="-2.7555945">
        <ele>149.207</ele>
        <time>2021-04-01T08:27:41.189Z</time>
      </trkpt>
      <trkpt lat="43.1063093" lon="-2.7555734">
        <ele>149.068</ele>
        <time>2021-04-01T08:27:41.525Z</time>
      </trkpt>
      <trkpt lat="43.1063076" lon="-2.7555704">
        <ele>149.061</ele>
        <time>2021-04-01T08:27:41.861Z</time>
      </trkpt>
      <trkpt lat="43.1063093" lon="-2.7555734">
        <ele>149.068</ele>
        <time>2021-04-01T08:27:42.197Z</time>
      </trkpt>
      <trkpt lat="43.1063076" lon="-2.7555704">
        <ele>149.061</ele>
        <time>2021-04-01T08:27:42.533Z</time>
      </trkpt>
      <trkpt lat="43.1062347" lon="-2.7554478">
        <ele>149.168</ele>
        <time>2021-04-01T08:27:42.980Z</time>
      </trkpt>
      <trkpt lat="43.1062312" lon="-2.7554416">
        <ele>149.151</ele>
        <time>2021-04-01T08:27:43.247Z</time>
      </trkpt>
      <trkpt lat="43.1062243" lon="-2.7554294">
        <ele>149.038</ele>
        <time>2021-04-01T08:27:43.514Z</time>
      </trkpt>
      <trkpt lat="43.1062152" lon="-2.755414">
        <ele>149.017</ele>
        <time>2021-04-01T08:27:43.781Z</time>
      </trkpt>
      <trkpt lat="43.1062312" lon="-2.7554416">
        <ele>149.151</ele>
        <time>2021-04-01T08:27:44.048Z</time>
      </trkpt>
      <trkpt lat="43.1062243" lon="-2.7554294">
        <ele>149.038</ele>
        <time>2021-04-01T08:27:44.315Z</time>
      </trkpt>
      <trkpt lat="43.1062152" lon="-2.755414">
        <ele>149.017</ele>
        <time>2021-04-01T08:27:44.582Z</time>
      </trkpt>
      <trkpt lat="43.1061675" lon="-2.7553429">
        <ele>148.068</ele>
        <time>2021-04-01T08:27:46.060Z</time>
      </trkpt>
      <trkpt lat="43.1061251" lon="-2.7552789">
        <ele>147.236</ele>
        <time>2021-04-01T08:27:47.875Z</time>
      </trkpt>
      <trkpt lat="43.1059552" lon="-2.7549995">
        <ele>146.141</ele>
        <time>2021-04-01T08:27:53.100Z</time>
      </trkpt>
      <trkpt lat="43.1058791" lon="-2.7548785">
        <ele>146.054</ele>
        <time>2021-04-01T08:27:54.640Z</time>
      </trkpt>
      <trkpt lat="43.1058252" lon="-2.754788">
        <ele>145.438</ele>
        <time>2021-04-01T08:27:54.750Z</time>
      </trkpt>
      <trkpt lat="43.1058231" lon="-2.7547847">
        <ele>145.403</ele>
        <time>2021-04-01T08:27:54.860Z</time>
      </trkpt>
      <trkpt lat="43.1058252" lon="-2.754788">
        <ele>145.438</ele>
        <time>2021-04-01T08:27:54.970Z</time>
      </trkpt>
      <trkpt lat="43.1058133" lon="-2.7547686">
        <ele>145.403</ele>
        <time>2021-04-01T08:27:55.080Z</time>
      </trkpt>
      <trkpt lat="43.1058133" lon="-2.7547686">
        <ele>145.403</ele>
        <time>2021-04-01T08:27:55.190Z</time>
      </trkpt>
      <trkpt lat="43.1058133" lon="-2.7547686">
        <ele>145.403</ele>
        <time>2021-04-01T08:27:55.300Z</time>
      </trkpt>
      <trkpt lat="43.1057975" lon="-2.7547435">
        <ele>145.172</ele>
        <time>2021-04-01T08:27:57.775Z</time>
      </trkpt>
      <trkpt lat="43.1057072" lon="-2.7546138">
        <ele>143.751</ele>
        <time>2021-04-01T08:27:57.930Z</time>
      </trkpt>
      <trkpt lat="43.105705" lon="-2.7546113">
        <ele>143.645</ele>
        <time>2021-04-01T08:27:58.086Z</time>
      </trkpt>
      <trkpt lat="43.1057029" lon="-2.7546084">
        <ele>143.581</ele>
        <time>2021-04-01T08:27:58.242Z</time>
      </trkpt>
      <trkpt lat="43.105705" lon="-2.7546113">
        <ele>143.645</ele>
        <time>2021-04-01T08:27:58.398Z</time>
      </trkpt>
      <trkpt lat="43.1057029" lon="-2.7546084">
        <ele>143.581</ele>
        <time>2021-04-01T08:27:58.554Z</time>
      </trkpt>
      <trkpt lat="43.1056686" lon="-2.7545588">
        <ele>144.18</ele>
        <time>2021-04-01T08:27:58.710Z</time>
      </trkpt>
      <trkpt lat="43.1056344" lon="-2.7545213">
        <ele>143.885</ele>
        <time>2021-04-01T08:27:58.971Z</time>
      </trkpt>
      <trkpt lat="43.1056495" lon="-2.7545374">
        <ele>143.895</ele>
        <time>2021-04-01T08:27:59.232Z</time>
      </trkpt>
      <trkpt lat="43.1056268" lon="-2.7545127">
        <ele>144.005</ele>
        <time>2021-04-01T08:27:59.493Z</time>
      </trkpt>
      <trkpt lat="43.1056344" lon="-2.7545213">
        <ele>143.885</ele>
        <time>2021-04-01T08:27:59.755Z</time>
      </trkpt>
      <trkpt lat="43.1056268" lon="-2.7545127">
        <ele>144.005</ele>
        <time>2021-04-01T08:28:00.016Z</time>
      </trkpt>
      <trkpt lat="43.1056344" lon="-2.7545213">
        <ele>143.885</ele>
        <time>2021-04-01T08:28:00.277Z</time>
      </trkpt>
      <trkpt lat="43.1056268" lon="-2.7545127">
        <ele>144.005</ele>
        <time>2021-04-01T08:28:00.538Z</time>
      </trkpt>
      <trkpt lat="43.1055709" lon="-2.75446">
        <ele>143.965</ele>
        <time>2021-04-01T08:28:02.285Z</time>
      </trkpt>
      <trkpt lat="43.1054944" lon="-2.7544018">
        <ele>143.639</ele>
        <time>2021-04-01T08:28:02.835Z</time>
      </trkpt>
      <trkpt lat="43.1054944" lon="-2.7544018">
        <ele>143.639</ele>
        <time>2021-04-01T08:28:03.385Z</time>
      </trkpt>
      <trkpt lat="43.1054024" lon="-2.7543495">
        <ele>143.564</ele>
        <time>2021-04-01T08:28:05.035Z</time>
      </trkpt>
      <trkpt lat="43.1053393" lon="-2.754323">
        <ele>143.014</ele>
        <time>2021-04-01T08:28:05.341Z</time>
      </trkpt>
      <trkpt lat="43.1052945" lon="-2.754309">
        <ele>142.767</ele>
        <time>2021-04-01T08:28:05.647Z</time>
      </trkpt>
      <trkpt lat="43.1052945" lon="-2.754309">
        <ele>142.767</ele>
        <time>2021-04-01T08:28:05.954Z</time>
      </trkpt>
      <trkpt lat="43.105288" lon="-2.7543061">
        <ele>142.914</ele>
        <time>2021-04-01T08:28:06.260Z</time>
      </trkpt>
      <trkpt lat="43.1052945" lon="-2.754309">
        <ele>142.767</ele>
        <time>2021-04-01T08:28:06.567Z</time>
      </trkpt>
      <trkpt lat="43.105288" lon="-2.7543061">
        <ele>142.914</ele>
        <time>2021-04-01T08:28:06.873Z</time>
      </trkpt>
      <trkpt lat="43.1052158" lon="-2.754272">
        <ele>144.728</ele>
        <time>2021-04-01T08:28:09.050Z</time>
      </trkpt>
      <trkpt lat="43.1051076" lon="-2.754236">
        <ele>145.739</ele>
        <time>2021-04-01T08:28:09.314Z</time>
      </trkpt>
      <trkpt lat="43.1050981" lon="-2.7542324">
        <ele>145.776</ele>
        <time>2021-04-01T08:28:09.578Z</time>
      </trkpt>
      <trkpt lat="43.1051076" lon="-2.754236">
        <ele>145.739</ele>
        <time>2021-04-01T08:28:09.842Z</time>
      </trkpt>
      <trkpt lat="43.1050981" lon="-2.7542324">
        <ele>145.776</ele>
        <time>2021-04-01T08:28:10.106Z</time>
      </trkpt>
      <trkpt lat="43.105031" lon="-2.7542067">
        <ele>146.073</ele>
        <time>2021-04-01T08:28:10.370Z</time>
      </trkpt>
      <trkpt lat="43.1050248" lon="-2.754204">
        <ele>146.077</ele>
        <time>2021-04-01T08:28:10.520Z</time>
      </trkpt>
      <trkpt lat="43.1050216" lon="-2.7542024">
        <ele>146.074</ele>
        <time>2021-04-01T08:28:10.670Z</time>
      </trkpt>
      <trkpt lat="43.1050368" lon="-2.754209">
        <ele>146.087</ele>
        <time>2021-04-01T08:28:10.820Z</time>
      </trkpt>
      <trkpt lat="43.105031" lon="-2.7542067">
        <ele>146.073</ele>
        <time>2021-04-01T08:28:10.970Z</time>
      </trkpt>
      <trkpt lat="43.1050248" lon="-2.754204">
        <ele>146.077</ele>
        <time>2021-04-01T08:28:11.120Z</time>
      </trkpt>
      <trkpt lat="43.1050216" lon="-2.7542024">
        <ele>146.074</ele>
        <time>2021-04-01T08:28:11.270Z</time>
      </trkpt>
      <trkpt lat="43.1050368" lon="-2.754209">
        <ele>146.087</ele>
        <time>2021-04-01T08:28:11.420Z</time>
      </trkpt>
      <trkpt lat="43.105031" lon="-2.7542067">
        <ele>146.073</ele>
        <time>2021-04-01T08:28:11.570Z</time>
      </trkpt>
      <trkpt lat="43.1050248" lon="-2.754204">
        <ele>146.077</ele>
        <time>2021-04-01T08:28:11.720Z</time>
      </trkpt>
      <trkpt lat="43.1050216" lon="-2.7542024">
        <ele>146.074</ele>
        <time>2021-04-01T08:28:11.870Z</time>
      </trkpt>
      <trkpt lat="43.1049402" lon="-2.7541656">
        <ele>145.75</ele>
        <time>2021-04-01T08:28:13.450Z</time>
      </trkpt>
      <trkpt lat="43.1048662" lon="-2.754113">
        <ele>145.609</ele>
        <time>2021-04-01T08:28:13.945Z</time>
      </trkpt>
      <trkpt lat="43.1048546" lon="-2.7541051">
        <ele>145.44</ele>
        <time>2021-04-01T08:28:14.440Z</time>
      </trkpt>
      <trkpt lat="43.1047891" lon="-2.7540581">
        <ele>144.884</ele>
        <time>2021-04-01T08:28:14.935Z</time>
      </trkpt>
      <trkpt lat="43.1047664" lon="-2.7540404">
        <ele>144.744</ele>
        <time>2021-04-01T08:28:15.258Z</time>
      </trkpt>
      <trkpt lat="43.1047636" lon="-2.7540384">
        <ele>144.699</ele>
        <time>2021-04-01T08:28:15.582Z</time>
      </trkpt>
      <trkpt lat="43.104769" lon="-2.7540424">
        <ele>144.832</ele>
        <time>2021-04-01T08:28:15.906Z</time>
      </trkpt>
      <trkpt lat="43.1047581" lon="-2.7540339">
        <ele>144.639</ele>
        <time>2021-04-01T08:28:16.230Z</time>
      </trkpt>
      <trkpt lat="43.1047636" lon="-2.7540384">
        <ele>144.699</ele>
        <time>2021-04-01T08:28:16.554Z</time>
      </trkpt>
      <trkpt lat="43.1047581" lon="-2.7540339">
        <ele>144.639</ele>
        <time>2021-04-01T08:28:16.878Z</time>
      </trkpt>
      <trkpt lat="43.1047636" lon="-2.7540384">
        <ele>144.699</ele>
        <time>2021-04-01T08:28:17.202Z</time>
      </trkpt>
      <trkpt lat="43.1047581" lon="-2.7540339">
        <ele>144.639</ele>
        <time>2021-04-01T08:28:17.526Z</time>
      </trkpt>
      <trkpt lat="43.1046793" lon="-2.7539666">
        <ele>143.726</ele>
        <time>2021-04-01T08:28:18.620Z</time>
      </trkpt>
      <trkpt lat="43.1046793" lon="-2.7539666">
        <ele>143.726</ele>
        <time>2021-04-01T08:28:19.390Z</time>
      </trkpt>
      <trkpt lat="43.1045786" lon="-2.7538564">
        <ele>145.372</ele>
        <time>2021-04-01T08:28:21.534Z</time>
      </trkpt>
      <trkpt lat="43.1044986" lon="-2.7537462">
        <ele>145.677</ele>
        <time>2021-04-01T08:28:22.377Z</time>
      </trkpt>
      <trkpt lat="43.1044986" lon="-2.7537462">
        <ele>145.677</ele>
        <time>2021-04-01T08:28:23.220Z</time>
      </trkpt>
      <trkpt lat="43.1044185" lon="-2.7535824">
        <ele>147.426</ele>
        <time>2021-04-01T08:28:24.284Z</time>
      </trkpt>
      <trkpt lat="43.1044127" lon="-2.7535675">
        <ele>147.462</ele>
        <time>2021-04-01T08:28:24.760Z</time>
      </trkpt>
      <trkpt lat="43.1043974" lon="-2.7535326">
        <ele>147.245</ele>
        <time>2021-04-01T08:28:25.237Z</time>
      </trkpt>
      <trkpt lat="43.1043945" lon="-2.7535253">
        <ele>147.208</ele>
        <time>2021-04-01T08:28:25.714Z</time>
      </trkpt>
      <trkpt lat="43.1043974" lon="-2.7535326">
        <ele>147.245</ele>
        <time>2021-04-01T08:28:26.190Z</time>
      </trkpt>
      <trkpt lat="43.1043945" lon="-2.7535253">
        <ele>147.208</ele>
        <time>2021-04-01T08:28:26.667Z</time>
      </trkpt>
      <trkpt lat="43.1043365" lon="-2.7533802">
        <ele>147.101</ele>
        <time>2021-04-01T08:28:27.144Z</time>
      </trkpt>
      <trkpt lat="43.1043548" lon="-2.7534287">
        <ele>146.817</ele>
        <time>2021-04-01T08:28:27.419Z</time>
      </trkpt>
      <trkpt lat="43.1043548" lon="-2.7534287">
        <ele>146.817</ele>
        <time>2021-04-01T08:28:27.694Z</time>
      </trkpt>
      <trkpt lat="43.1043161" lon="-2.7533265">
        <ele>147.255</ele>
        <time>2021-04-01T08:28:29.014Z</time>
      </trkpt>
      <trkpt lat="43.1042878" lon="-2.753266">
        <ele>146.792</ele>
        <time>2021-04-01T08:28:29.296Z</time>
      </trkpt>
      <trkpt lat="43.1042801" lon="-2.7532483">
        <ele>145.77</ele>
        <time>2021-04-01T08:28:29.579Z</time>
      </trkpt>
      <trkpt lat="43.1042811" lon="-2.7532507">
        <ele>146.054</ele>
        <time>2021-04-01T08:28:29.862Z</time>
      </trkpt>
      <trkpt lat="43.1042801" lon="-2.7532483">
        <ele>145.77</ele>
        <time>2021-04-01T08:28:30.145Z</time>
      </trkpt>
      <trkpt lat="43.1042811" lon="-2.7532507">
        <ele>146.054</ele>
        <time>2021-04-01T08:28:30.428Z</time>
      </trkpt>
      <trkpt lat="43.1042801" lon="-2.7532483">
        <ele>145.77</ele>
        <time>2021-04-01T08:28:30.711Z</time>
      </trkpt>
      <trkpt lat="43.1042462" lon="-2.7531594">
        <ele>144.324</ele>
        <time>2021-04-01T08:28:32.314Z</time>
      </trkpt>
      <trkpt lat="43.1042195" lon="-2.7530809">
        <ele>143.824</ele>
        <time>2021-04-01T08:28:32.634Z</time>
      </trkpt>
      <trkpt lat="43.1042118" lon="-2.7530591">
        <ele>144.335</ele>
        <time>2021-04-01T08:28:32.955Z</time>
      </trkpt>
      <trkpt lat="43.1042045" lon="-2.7530378">
        <ele>144.842</ele>
        <time>2021-04-01T08:28:33.276Z</time>
      </trkpt>
      <trkpt lat="43.1042118" lon="-2.7530591">
        <ele>144.335</ele>
        <time>2021-04-01T08:28:33.597Z</time>
      </trkpt>
      <trkpt lat="43.1042045" lon="-2.7530378">
        <ele>144.842</ele>
        <time>2021-04-01T08:28:33.918Z</time>
      </trkpt>
      <trkpt lat="43.1041789" lon="-2.7529621">
        <ele>145.353</ele>
        <time>2021-04-01T08:28:35.724Z</time>
      </trkpt>
      <trkpt lat="43.104155" lon="-2.7528665">
        <ele>147.713</ele>
        <time>2021-04-01T08:28:36.098Z</time>
      </trkpt>
      <trkpt lat="43.1041544" lon="-2.7528634">
        <ele>147.69</ele>
        <time>2021-04-01T08:28:36.472Z</time>
      </trkpt>
      <trkpt lat="43.104155" lon="-2.7528665">
        <ele>147.713</ele>
        <time>2021-04-01T08:28:36.846Z</time>
      </trkpt>
      <trkpt lat="43.1041544" lon="-2.7528634">
        <ele>147.69</ele>
        <time>2021-04-01T08:28:37.220Z</time>
      </trkpt>
      <trkpt lat="43.1041311" lon="-2.752751">
        <ele>149.306</ele>
        <time>2021-04-01T08:28:38.529Z</time>
      </trkpt>
      <trkpt lat="43.1041192" lon="-2.7526915">
        <ele>151.057</ele>
        <time>2021-04-01T08:28:38.982Z</time>
      </trkpt>
      <trkpt lat="43.1041175" lon="-2.7526809">
        <ele>151.308</ele>
        <time>2021-04-01T08:28:39.436Z</time>
      </trkpt>
      <trkpt lat="43.1041175" lon="-2.7526809">
        <ele>151.308</ele>
        <time>2021-04-01T08:28:39.890Z</time>
      </trkpt>
      <trkpt lat="43.1041003" lon="-2.7525793">
        <ele>153.203</ele>
        <time>2021-04-01T08:28:41.499Z</time>
      </trkpt>
      <trkpt lat="43.1040894" lon="-2.7525095">
        <ele>154.436</ele>
        <time>2021-04-01T08:28:43.424Z</time>
      </trkpt>
      <trkpt lat="43.1040657" lon="-2.7523561">
        <ele>156.47</ele>
        <time>2021-04-01T08:28:44.698Z</time>
      </trkpt>
      <trkpt lat="43.1040657" lon="-2.7523561">
        <ele>156.47</ele>
        <time>2021-04-01T08:28:45.074Z</time>
      </trkpt>
      <trkpt lat="43.1040425" lon="-2.7522321">
        <ele>157.437</ele>
        <time>2021-04-01T08:28:48.429Z</time>
      </trkpt>
      <trkpt lat="43.1040153" lon="-2.7521087">
        <ele>159.077</ele>
        <time>2021-04-01T08:28:48.525Z</time>
      </trkpt>
      <trkpt lat="43.1040144" lon="-2.7521059">
        <ele>159.049</ele>
        <time>2021-04-01T08:28:48.621Z</time>
      </trkpt>
      <trkpt lat="43.1040138" lon="-2.7521031">
        <ele>159.013</ele>
        <time>2021-04-01T08:28:48.717Z</time>
      </trkpt>
      <trkpt lat="43.1040116" lon="-2.7520938">
        <ele>159.07</ele>
        <time>2021-04-01T08:28:48.814Z</time>
      </trkpt>
      <trkpt lat="43.1040108" lon="-2.7520909">
        <ele>159.083</ele>
        <time>2021-04-01T08:28:48.910Z</time>
      </trkpt>
      <trkpt lat="43.1040138" lon="-2.7521031">
        <ele>159.013</ele>
        <time>2021-04-01T08:28:49.006Z</time>
      </trkpt>
      <trkpt lat="43.1040116" lon="-2.7520938">
        <ele>159.07</ele>
        <time>2021-04-01T08:28:49.102Z</time>
      </trkpt>
      <trkpt lat="43.1040108" lon="-2.7520909">
        <ele>159.083</ele>
        <time>2021-04-01T08:28:49.199Z</time>
      </trkpt>
      <trkpt lat="43.1040138" lon="-2.7521031">
        <ele>159.013</ele>
        <time>2021-04-01T08:28:49.295Z</time>
      </trkpt>
      <trkpt lat="43.1040116" lon="-2.7520938">
        <ele>159.07</ele>
        <time>2021-04-01T08:28:49.391Z</time>
      </trkpt>
      <trkpt lat="43.1040108" lon="-2.7520909">
        <ele>159.083</ele>
        <time>2021-04-01T08:28:49.487Z</time>
      </trkpt>
      <trkpt lat="43.1039996" lon="-2.752045">
        <ele>159.316</ele>
        <time>2021-04-01T08:28:50.739Z</time>
      </trkpt>
      <trkpt lat="43.1039809" lon="-2.7519808">
        <ele>159.947</ele>
        <time>2021-04-01T08:28:50.974Z</time>
      </trkpt>
      <trkpt lat="43.1039629" lon="-2.7519358">
        <ele>160.124</ele>
        <time>2021-04-01T08:28:51.210Z</time>
      </trkpt>
      <trkpt lat="43.1039576" lon="-2.7519255">
        <ele>160.087</ele>
        <time>2021-04-01T08:28:51.446Z</time>
      </trkpt>
      <trkpt lat="43.1039759" lon="-2.7519658">
        <ele>160.018</ele>
        <time>2021-04-01T08:28:51.681Z</time>
      </trkpt>
      <trkpt lat="43.1039629" lon="-2.7519358">
        <ele>160.124</ele>
        <time>2021-04-01T08:28:51.917Z</time>
      </trkpt>
      <trkpt lat="43.1039576" lon="-2.7519255">
        <ele>160.087</ele>
        <time>2021-04-01T08:28:52.153Z</time>
      </trkpt>
      <trkpt lat="43.1039451" lon="-2.7519001">
        <ele>160.018</ele>
        <time>2021-04-01T08:28:54.479Z</time>
      </trkpt>
      <trkpt lat="43.1038951" lon="-2.7518094">
        <ele>159.999</ele>
        <time>2021-04-01T08:28:54.699Z</time>
      </trkpt>
      <trkpt lat="43.1038935" lon="-2.7518074">
        <ele>160.037</ele>
        <time>2021-04-01T08:28:54.919Z</time>
      </trkpt>
      <trkpt lat="43.1038905" lon="-2.7518034">
        <ele>159.973</ele>
        <time>2021-04-01T08:28:55.139Z</time>
      </trkpt>
      <trkpt lat="43.1038951" lon="-2.7518094">
        <ele>159.999</ele>
        <time>2021-04-01T08:28:55.359Z</time>
      </trkpt>
      <trkpt lat="43.1038818" lon="-2.7517903">
        <ele>159.917</ele>
        <time>2021-04-01T08:28:55.579Z</time>
      </trkpt>
      <trkpt lat="43.1038818" lon="-2.7517903">
        <ele>159.917</ele>
        <time>2021-04-01T08:28:55.799Z</time>
      </trkpt>
      <trkpt lat="43.1038818" lon="-2.7517903">
        <ele>159.917</ele>
        <time>2021-04-01T08:28:56.019Z</time>
      </trkpt>
      <trkpt lat="43.1038479" lon="-2.7517434">
        <ele>159.908</ele>
        <time>2021-04-01T08:28:56.239Z</time>
      </trkpt>
      <trkpt lat="43.1038397" lon="-2.7517336">
        <ele>159.999</ele>
        <time>2021-04-01T08:28:56.503Z</time>
      </trkpt>
      <trkpt lat="43.1038367" lon="-2.7517295">
        <ele>160.091</ele>
        <time>2021-04-01T08:28:56.767Z</time>
      </trkpt>
      <trkpt lat="43.1038397" lon="-2.7517336">
        <ele>159.999</ele>
        <time>2021-04-01T08:28:57.031Z</time>
      </trkpt>
      <trkpt lat="43.1038367" lon="-2.7517295">
        <ele>160.091</ele>
        <time>2021-04-01T08:28:57.295Z</time>
      </trkpt>
      <trkpt lat="43.1038073" lon="-2.7516993">
        <ele>160.335</ele>
        <time>2021-04-01T08:28:59.044Z</time>
      </trkpt>
      <trkpt lat="43.1037578" lon="-2.751668">
        <ele>158.429</ele>
        <time>2021-04-01T08:28:59.264Z</time>
      </trkpt>
      <trkpt lat="43.1037336" lon="-2.7516513">
        <ele>157.65</ele>
        <time>2021-04-01T08:28:59.484Z</time>
      </trkpt>
      <trkpt lat="43.1037336" lon="-2.7516513">
        <ele>157.65</ele>
        <time>2021-04-01T08:28:59.704Z</time>
      </trkpt>
      <trkpt lat="43.1037336" lon="-2.7516513">
        <ele>157.65</ele>
        <time>2021-04-01T08:28:59.924Z</time>
      </trkpt>
      <trkpt lat="43.1037202" lon="-2.7516373">
        <ele>158.011</ele>
        <time>2021-04-01T08:29:02.399Z</time>
      </trkpt>
      <trkpt lat="43.1036411" lon="-2.7515606">
        <ele>158.73</ele>
        <time>2021-04-01T08:29:02.641Z</time>
      </trkpt>
      <trkpt lat="43.1036302" lon="-2.7515516">
        <ele>158.754</ele>
        <time>2021-04-01T08:29:02.883Z</time>
      </trkpt>
      <trkpt lat="43.1036302" lon="-2.7515516">
        <ele>158.754</ele>
        <time>2021-04-01T08:29:03.125Z</time>
      </trkpt>
      <trkpt lat="43.1036302" lon="-2.7515516">
        <ele>158.754</ele>
        <time>2021-04-01T08:29:03.367Z</time>
      </trkpt>
      <trkpt lat="43.1035925" lon="-2.7515226">
        <ele>158.765</ele>
        <time>2021-04-01T08:29:05.754Z</time>
      </trkpt>
      <trkpt lat="43.1035745" lon="-2.7515065">
        <ele>159.001</ele>
        <time>2021-04-01T08:29:07.129Z</time>
      </trkpt>
      <trkpt lat="43.103506" lon="-2.7514499">
        <ele>159.187</ele>
        <time>2021-04-01T08:29:07.254Z</time>
      </trkpt>
      <trkpt lat="43.1034932" lon="-2.7514383">
        <ele>159.311</ele>
        <time>2021-04-01T08:29:07.379Z</time>
      </trkpt>
      <trkpt lat="43.103491" lon="-2.7514361">
        <ele>159.394</ele>
        <time>2021-04-01T08:29:07.504Z</time>
      </trkpt>
      <trkpt lat="43.1035079" lon="-2.7514517">
        <ele>159.194</ele>
        <time>2021-04-01T08:29:07.629Z</time>
      </trkpt>
      <trkpt lat="43.103506" lon="-2.7514499">
        <ele>159.187</ele>
        <time>2021-04-01T08:29:07.754Z</time>
      </trkpt>
      <trkpt lat="43.1034932" lon="-2.7514383">
        <ele>159.311</ele>
        <time>2021-04-01T08:29:07.879Z</time>
      </trkpt>
      <trkpt lat="43.103491" lon="-2.7514361">
        <ele>159.394</ele>
        <time>2021-04-01T08:29:08.004Z</time>
      </trkpt>
      <trkpt lat="43.1035079" lon="-2.7514517">
        <ele>159.194</ele>
        <time>2021-04-01T08:29:08.129Z</time>
      </trkpt>
      <trkpt lat="43.103506" lon="-2.7514499">
        <ele>159.187</ele>
        <time>2021-04-01T08:29:08.254Z</time>
      </trkpt>
      <trkpt lat="43.1034932" lon="-2.7514383">
        <ele>159.311</ele>
        <time>2021-04-01T08:29:08.379Z</time>
      </trkpt>
      <trkpt lat="43.103491" lon="-2.7514361">
        <ele>159.394</ele>
        <time>2021-04-01T08:29:08.504Z</time>
      </trkpt>
      <trkpt lat="43.1034003" lon="-2.7513739">
        <ele>158.692</ele>
        <time>2021-04-01T08:29:08.875Z</time>
      </trkpt>
      <trkpt lat="43.1033924" lon="-2.7513688">
        <ele>158.609</ele>
        <time>2021-04-01T08:29:09.246Z</time>
      </trkpt>
      <trkpt lat="43.1033845" lon="-2.7513633">
        <ele>158.554</ele>
        <time>2021-04-01T08:29:09.617Z</time>
      </trkpt>
      <trkpt lat="43.1033488" lon="-2.7513402">
        <ele>158.75</ele>
        <time>2021-04-01T08:29:09.989Z</time>
      </trkpt>
      <trkpt lat="43.1033272" lon="-2.7513265">
        <ele>159.149</ele>
        <time>2021-04-01T08:29:10.159Z</time>
      </trkpt>
      <trkpt lat="43.1033379" lon="-2.7513342">
        <ele>158.888</ele>
        <time>2021-04-01T08:29:10.330Z</time>
      </trkpt>
      <trkpt lat="43.1033238" lon="-2.7513237">
        <ele>159.215</ele>
        <time>2021-04-01T08:29:10.500Z</time>
      </trkpt>
      <trkpt lat="43.1033272" lon="-2.7513265">
        <ele>159.149</ele>
        <time>2021-04-01T08:29:10.671Z</time>
      </trkpt>
      <trkpt lat="43.1033256" lon="-2.7513252">
        <ele>159.183</ele>
        <time>2021-04-01T08:29:10.841Z</time>
      </trkpt>
      <trkpt lat="43.1033238" lon="-2.7513237">
        <ele>159.215</ele>
        <time>2021-04-01T08:29:11.012Z</time>
      </trkpt>
      <trkpt lat="43.1033272" lon="-2.7513265">
        <ele>159.149</ele>
        <time>2021-04-01T08:29:11.182Z</time>
      </trkpt>
      <trkpt lat="43.1033256" lon="-2.7513252">
        <ele>159.183</ele>
        <time>2021-04-01T08:29:11.353Z</time>
      </trkpt>
      <trkpt lat="43.1033238" lon="-2.7513237">
        <ele>159.215</ele>
        <time>2021-04-01T08:29:11.523Z</time>
      </trkpt>
      <trkpt lat="43.1032994" lon="-2.7513119">
        <ele>159.605</ele>
        <time>2021-04-01T08:29:12.904Z</time>
      </trkpt>
      <trkpt lat="43.103273" lon="-2.7512966">
        <ele>159.58</ele>
        <time>2021-04-01T08:29:13.160Z</time>
      </trkpt>
      <trkpt lat="43.1032566" lon="-2.751285">
        <ele>159.527</ele>
        <time>2021-04-01T08:29:13.417Z</time>
      </trkpt>
      <trkpt lat="43.1032526" lon="-2.7512823">
        <ele>159.507</ele>
        <time>2021-04-01T08:29:13.674Z</time>
      </trkpt>
      <trkpt lat="43.1032481" lon="-2.7512784">
        <ele>159.454</ele>
        <time>2021-04-01T08:29:13.930Z</time>
      </trkpt>
      <trkpt lat="43.1032526" lon="-2.7512823">
        <ele>159.507</ele>
        <time>2021-04-01T08:29:14.187Z</time>
      </trkpt>
      <trkpt lat="43.1032481" lon="-2.7512784">
        <ele>159.454</ele>
        <time>2021-04-01T08:29:14.444Z</time>
      </trkpt>
      <trkpt lat="43.1032526" lon="-2.7512823">
        <ele>159.507</ele>
        <time>2021-04-01T08:29:14.700Z</time>
      </trkpt>
      <trkpt lat="43.1032481" lon="-2.7512784">
        <ele>159.454</ele>
        <time>2021-04-01T08:29:14.957Z</time>
      </trkpt>
      <trkpt lat="43.1028574" lon="-2.7510931">
        <ele>160.222</ele>
        <time>2021-04-01T08:29:23.904Z</time>
      </trkpt>
      <trkpt lat="43.1028224" lon="-2.7510692">
        <ele>159.964</ele>
        <time>2021-04-01T08:29:25.719Z</time>
      </trkpt>
      <trkpt lat="43.1027987" lon="-2.7510564">
        <ele>159.95</ele>
        <time>2021-04-01T08:29:25.804Z</time>
      </trkpt>
      <trkpt lat="43.1027964" lon="-2.7510549">
        <ele>159.97</ele>
        <time>2021-04-01T08:29:25.889Z</time>
      </trkpt>
      <trkpt lat="43.1027941" lon="-2.7510535">
        <ele>159.963</ele>
        <time>2021-04-01T08:29:25.974Z</time>
      </trkpt>
      <trkpt lat="43.1027917" lon="-2.751052">
        <ele>159.951</ele>
        <time>2021-04-01T08:29:26.059Z</time>
      </trkpt>
      <trkpt lat="43.1027893" lon="-2.7510507">
        <ele>159.938</ele>
        <time>2021-04-01T08:29:26.144Z</time>
      </trkpt>
      <trkpt lat="43.1027941" lon="-2.7510535">
        <ele>159.963</ele>
        <time>2021-04-01T08:29:26.229Z</time>
      </trkpt>
      <trkpt lat="43.1027917" lon="-2.751052">
        <ele>159.951</ele>
        <time>2021-04-01T08:29:26.314Z</time>
      </trkpt>
      <trkpt lat="43.1027893" lon="-2.7510507">
        <ele>159.938</ele>
        <time>2021-04-01T08:29:26.399Z</time>
      </trkpt>
      <trkpt lat="43.1027718" lon="-2.7510415">
        <ele>160.101</ele>
        <time>2021-04-01T08:29:26.484Z</time>
      </trkpt>
      <trkpt lat="43.1027917" lon="-2.751052">
        <ele>159.951</ele>
        <time>2021-04-01T08:29:26.569Z</time>
      </trkpt>
      <trkpt lat="43.1027893" lon="-2.7510507">
        <ele>159.938</ele>
        <time>2021-04-01T08:29:26.654Z</time>
      </trkpt>
      <trkpt lat="43.1027718" lon="-2.7510415">
        <ele>160.101</ele>
        <time>2021-04-01T08:29:26.739Z</time>
      </trkpt>
      <trkpt lat="43.1027448" lon="-2.7510251">
        <ele>160.5</ele>
        <time>2021-04-01T08:29:26.824Z</time>
      </trkpt>
      <trkpt lat="43.1027081" lon="-2.7510052">
        <ele>160.877</ele>
        <time>2021-04-01T08:29:26.909Z</time>
      </trkpt>
      <trkpt lat="43.1027057" lon="-2.751004">
        <ele>160.894</ele>
        <time>2021-04-01T08:29:26.994Z</time>
      </trkpt>
      <trkpt lat="43.1027081" lon="-2.7510052">
        <ele>160.877</ele>
        <time>2021-04-01T08:29:27.079Z</time>
      </trkpt>
      <trkpt lat="43.1027057" lon="-2.751004">
        <ele>160.894</ele>
        <time>2021-04-01T08:29:27.164Z</time>
      </trkpt>
      <trkpt lat="43.1027033" lon="-2.7510027">
        <ele>160.919</ele>
        <time>2021-04-01T08:29:27.249Z</time>
      </trkpt>
      <trkpt lat="43.1027081" lon="-2.7510052">
        <ele>160.877</ele>
        <time>2021-04-01T08:29:27.334Z</time>
      </trkpt>
      <trkpt lat="43.1027057" lon="-2.751004">
        <ele>160.894</ele>
        <time>2021-04-01T08:29:27.419Z</time>
      </trkpt>
      <trkpt lat="43.1027033" lon="-2.7510027">
        <ele>160.919</ele>
        <time>2021-04-01T08:29:27.504Z</time>
      </trkpt>
      <trkpt lat="43.1026622" lon="-2.7509826">
        <ele>161.107</ele>
        <time>2021-04-01T08:29:27.589Z</time>
      </trkpt>
      <trkpt lat="43.1026522" lon="-2.7509786">
        <ele>161.197</ele>
        <time>2021-04-01T08:29:27.891Z</time>
      </trkpt>
      <trkpt lat="43.1026622" lon="-2.7509826">
        <ele>161.107</ele>
        <time>2021-04-01T08:29:28.194Z</time>
      </trkpt>
      <trkpt lat="43.1026522" lon="-2.7509786">
        <ele>161.197</ele>
        <time>2021-04-01T08:29:28.496Z</time>
      </trkpt>
      <trkpt lat="43.1026622" lon="-2.7509826">
        <ele>161.107</ele>
        <time>2021-04-01T08:29:28.799Z</time>
      </trkpt>
      <trkpt lat="43.1026522" lon="-2.7509786">
        <ele>161.197</ele>
        <time>2021-04-01T08:29:29.101Z</time>
      </trkpt>
      <trkpt lat="43.1025836" lon="-2.7509519">
        <ele>161.075</ele>
        <time>2021-04-01T08:29:29.404Z</time>
      </trkpt>
      <trkpt lat="43.1025718" lon="-2.7509485">
        <ele>160.985</ele>
        <time>2021-04-01T08:29:29.582Z</time>
      </trkpt>
      <trkpt lat="43.102579" lon="-2.7509507">
        <ele>161.032</ele>
        <time>2021-04-01T08:29:29.761Z</time>
      </trkpt>
      <trkpt lat="43.102574" lon="-2.7509491">
        <ele>161.011</ele>
        <time>2021-04-01T08:29:29.940Z</time>
      </trkpt>
      <trkpt lat="43.1025718" lon="-2.7509485">
        <ele>160.985</ele>
        <time>2021-04-01T08:29:30.119Z</time>
      </trkpt>
      <trkpt lat="43.102579" lon="-2.7509507">
        <ele>161.032</ele>
        <time>2021-04-01T08:29:30.297Z</time>
      </trkpt>
      <trkpt lat="43.102574" lon="-2.7509491">
        <ele>161.011</ele>
        <time>2021-04-01T08:29:30.476Z</time>
      </trkpt>
      <trkpt lat="43.1025718" lon="-2.7509485">
        <ele>160.985</ele>
        <time>2021-04-01T08:29:30.655Z</time>
      </trkpt>
      <trkpt lat="43.1025215" lon="-2.750931">
        <ele>161.374</ele>
        <time>2021-04-01T08:29:32.594Z</time>
      </trkpt>
      <trkpt lat="43.1024422" lon="-2.7509058">
        <ele>161.312</ele>
        <time>2021-04-01T08:29:32.957Z</time>
      </trkpt>
      <trkpt lat="43.1024347" lon="-2.7509029">
        <ele>161.332</ele>
        <time>2021-04-01T08:29:33.320Z</time>
      </trkpt>
      <trkpt lat="43.1024422" lon="-2.7509058">
        <ele>161.312</ele>
        <time>2021-04-01T08:29:33.683Z</time>
      </trkpt>
      <trkpt lat="43.1024347" lon="-2.7509029">
        <ele>161.332</ele>
        <time>2021-04-01T08:29:34.046Z</time>
      </trkpt>
      <trkpt lat="43.1023621" lon="-2.7508847">
        <ele>161.045</ele>
        <time>2021-04-01T08:29:35.344Z</time>
      </trkpt>
      <trkpt lat="43.1023209" lon="-2.7508765">
        <ele>160.84</ele>
        <time>2021-04-01T08:29:35.605Z</time>
      </trkpt>
      <trkpt lat="43.1023022" lon="-2.7508719">
        <ele>160.805</ele>
        <time>2021-04-01T08:29:35.866Z</time>
      </trkpt>
      <trkpt lat="43.1022906" lon="-2.7508682">
        <ele>160.729</ele>
        <time>2021-04-01T08:29:36.127Z</time>
      </trkpt>
      <trkpt lat="43.1023022" lon="-2.7508719">
        <ele>160.805</ele>
        <time>2021-04-01T08:29:36.389Z</time>
      </trkpt>
      <trkpt lat="43.1022906" lon="-2.7508682">
        <ele>160.729</ele>
        <time>2021-04-01T08:29:36.650Z</time>
      </trkpt>
      <trkpt lat="43.1023022" lon="-2.7508719">
        <ele>160.805</ele>
        <time>2021-04-01T08:29:36.911Z</time>
      </trkpt>
      <trkpt lat="43.1022906" lon="-2.7508682">
        <ele>160.729</ele>
        <time>2021-04-01T08:29:37.172Z</time>
      </trkpt>
      <trkpt lat="43.1022305" lon="-2.7508487">
        <ele>160.969</ele>
        <time>2021-04-01T08:29:38.534Z</time>
      </trkpt>
      <trkpt lat="43.1022305" lon="-2.7508487">
        <ele>160.969</ele>
        <time>2021-04-01T08:29:40.514Z</time>
      </trkpt>
      <trkpt lat="43.102097" lon="-2.750811">
        <ele>160.367</ele>
        <time>2021-04-01T08:29:40.702Z</time>
      </trkpt>
      <trkpt lat="43.1020877" lon="-2.7508091">
        <ele>160.147</ele>
        <time>2021-04-01T08:29:40.891Z</time>
      </trkpt>
      <trkpt lat="43.102097" lon="-2.750811">
        <ele>160.367</ele>
        <time>2021-04-01T08:29:41.079Z</time>
      </trkpt>
      <trkpt lat="43.1020877" lon="-2.7508091">
        <ele>160.147</ele>
        <time>2021-04-01T08:29:41.268Z</time>
      </trkpt>
      <trkpt lat="43.102097" lon="-2.750811">
        <ele>160.367</ele>
        <time>2021-04-01T08:29:41.456Z</time>
      </trkpt>
      <trkpt lat="43.1020877" lon="-2.7508091">
        <ele>160.147</ele>
        <time>2021-04-01T08:29:41.645Z</time>
      </trkpt>
      <trkpt lat="43.102038" lon="-2.7507992">
        <ele>159.316</ele>
        <time>2021-04-01T08:29:43.759Z</time>
      </trkpt>
      <trkpt lat="43.1019515" lon="-2.7507806">
        <ele>158.41</ele>
        <time>2021-04-01T08:29:43.958Z</time>
      </trkpt>
      <trkpt lat="43.1019489" lon="-2.7507799">
        <ele>158.43</ele>
        <time>2021-04-01T08:29:44.157Z</time>
      </trkpt>
      <trkpt lat="43.1019463" lon="-2.7507791">
        <ele>158.456</ele>
        <time>2021-04-01T08:29:44.357Z</time>
      </trkpt>
      <trkpt lat="43.1019811" lon="-2.7507873">
        <ele>158.675</ele>
        <time>2021-04-01T08:29:44.556Z</time>
      </trkpt>
      <trkpt lat="43.1019515" lon="-2.7507806">
        <ele>158.41</ele>
        <time>2021-04-01T08:29:44.755Z</time>
      </trkpt>
      <trkpt lat="43.1019489" lon="-2.7507799">
        <ele>158.43</ele>
        <time>2021-04-01T08:29:44.955Z</time>
      </trkpt>
      <trkpt lat="43.1019463" lon="-2.7507791">
        <ele>158.456</ele>
        <time>2021-04-01T08:29:45.154Z</time>
      </trkpt>
      <trkpt lat="43.1018798" lon="-2.7507652">
        <ele>157.301</ele>
        <time>2021-04-01T08:29:45.354Z</time>
      </trkpt>
      <trkpt lat="43.1018798" lon="-2.7507652">
        <ele>157.301</ele>
        <time>2021-04-01T08:29:45.629Z</time>
      </trkpt>
      <trkpt lat="43.1018695" lon="-2.750762">
        <ele>157.42</ele>
        <time>2021-04-01T08:29:45.904Z</time>
      </trkpt>
      <trkpt lat="43.1018798" lon="-2.7507652">
        <ele>157.301</ele>
        <time>2021-04-01T08:29:46.179Z</time>
      </trkpt>
      <trkpt lat="43.1018695" lon="-2.750762">
        <ele>157.42</ele>
        <time>2021-04-01T08:29:46.454Z</time>
      </trkpt>
      <trkpt lat="43.1018176" lon="-2.7507482">
        <ele>156.534</ele>
        <time>2021-04-01T08:29:47.884Z</time>
      </trkpt>
      <trkpt lat="43.1018128" lon="-2.7507473">
        <ele>156.423</ele>
        <time>2021-04-01T08:29:48.203Z</time>
      </trkpt>
      <trkpt lat="43.1018031" lon="-2.7507436">
        <ele>156.337</ele>
        <time>2021-04-01T08:29:48.522Z</time>
      </trkpt>
      <trkpt lat="43.1018176" lon="-2.7507482">
        <ele>156.534</ele>
        <time>2021-04-01T08:29:48.841Z</time>
      </trkpt>
      <trkpt lat="43.1018128" lon="-2.7507473">
        <ele>156.423</ele>
        <time>2021-04-01T08:29:49.160Z</time>
      </trkpt>
      <trkpt lat="43.1018031" lon="-2.7507436">
        <ele>156.337</ele>
        <time>2021-04-01T08:29:49.479Z</time>
      </trkpt>
      <trkpt lat="43.1016992" lon="-2.7507123">
        <ele>155.829</ele>
        <time>2021-04-01T08:29:49.754Z</time>
      </trkpt>
      <trkpt lat="43.1016815" lon="-2.7507076">
        <ele>155.245</ele>
        <time>2021-04-01T08:29:50.029Z</time>
      </trkpt>
      <trkpt lat="43.1016792" lon="-2.7507068">
        <ele>155.229</ele>
        <time>2021-04-01T08:29:50.304Z</time>
      </trkpt>
      <trkpt lat="43.1016815" lon="-2.7507076">
        <ele>155.245</ele>
        <time>2021-04-01T08:29:50.579Z</time>
      </trkpt>
      <trkpt lat="43.1016792" lon="-2.7507068">
        <ele>155.229</ele>
        <time>2021-04-01T08:29:50.854Z</time>
      </trkpt>
      <trkpt lat="43.1016296" lon="-2.7506988">
        <ele>154.334</ele>
        <time>2021-04-01T08:29:51.129Z</time>
      </trkpt>
      <trkpt lat="43.1015983" lon="-2.7506906">
        <ele>154.417</ele>
        <time>2021-04-01T08:29:51.275Z</time>
      </trkpt>
      <trkpt lat="43.1015963" lon="-2.7506902">
        <ele>154.328</ele>
        <time>2021-04-01T08:29:51.422Z</time>
      </trkpt>
      <trkpt lat="43.101605" lon="-2.7506923">
        <ele>154.478</ele>
        <time>2021-04-01T08:29:51.569Z</time>
      </trkpt>
      <trkpt lat="43.1015983" lon="-2.7506906">
        <ele>154.417</ele>
        <time>2021-04-01T08:29:51.715Z</time>
      </trkpt>
      <trkpt lat="43.1015963" lon="-2.7506902">
        <ele>154.328</ele>
        <time>2021-04-01T08:29:51.862Z</time>
      </trkpt>
      <trkpt lat="43.101605" lon="-2.7506923">
        <ele>154.478</ele>
        <time>2021-04-01T08:29:52.009Z</time>
      </trkpt>
      <trkpt lat="43.1015983" lon="-2.7506906">
        <ele>154.417</ele>
        <time>2021-04-01T08:29:52.155Z</time>
      </trkpt>
      <trkpt lat="43.1015963" lon="-2.7506902">
        <ele>154.328</ele>
        <time>2021-04-01T08:29:52.302Z</time>
      </trkpt>
      <trkpt lat="43.1015736" lon="-2.7506865">
        <ele>154.149</ele>
        <time>2021-04-01T08:29:52.449Z</time>
      </trkpt>
      <trkpt lat="43.101553" lon="-2.7506818">
        <ele>154.063</ele>
        <time>2021-04-01T08:29:52.786Z</time>
      </trkpt>
      <trkpt lat="43.1015441" lon="-2.7506795">
        <ele>153.972</ele>
        <time>2021-04-01T08:29:53.124Z</time>
      </trkpt>
      <trkpt lat="43.101553" lon="-2.7506818">
        <ele>154.063</ele>
        <time>2021-04-01T08:29:53.462Z</time>
      </trkpt>
      <trkpt lat="43.1015441" lon="-2.7506795">
        <ele>153.972</ele>
        <time>2021-04-01T08:29:53.800Z</time>
      </trkpt>
      <trkpt lat="43.101553" lon="-2.7506818">
        <ele>154.063</ele>
        <time>2021-04-01T08:29:54.138Z</time>
      </trkpt>
      <trkpt lat="43.1015441" lon="-2.7506795">
        <ele>153.972</ele>
        <time>2021-04-01T08:29:54.476Z</time>
      </trkpt>
      <trkpt lat="43.1014785" lon="-2.7506527">
        <ele>153.703</ele>
        <time>2021-04-01T08:29:56.189Z</time>
      </trkpt>
      <trkpt lat="43.1014739" lon="-2.7506513">
        <ele>153.653</ele>
        <time>2021-04-01T08:29:56.253Z</time>
      </trkpt>
      <trkpt lat="43.1014719" lon="-2.75065">
        <ele>153.692</ele>
        <time>2021-04-01T08:29:56.317Z</time>
      </trkpt>
      <trkpt lat="43.1014696" lon="-2.7506489">
        <ele>153.772</ele>
        <time>2021-04-01T08:29:56.381Z</time>
      </trkpt>
      <trkpt lat="43.1014739" lon="-2.7506513">
        <ele>153.653</ele>
        <time>2021-04-01T08:29:56.445Z</time>
      </trkpt>
      <trkpt lat="43.1014719" lon="-2.75065">
        <ele>153.692</ele>
        <time>2021-04-01T08:29:56.509Z</time>
      </trkpt>
      <trkpt lat="43.1014696" lon="-2.7506489">
        <ele>153.772</ele>
        <time>2021-04-01T08:29:56.574Z</time>
      </trkpt>
      <trkpt lat="43.1014224" lon="-2.7506342">
        <ele>153.916</ele>
        <time>2021-04-01T08:29:56.638Z</time>
      </trkpt>
      <trkpt lat="43.1014246" lon="-2.7506349">
        <ele>153.919</ele>
        <time>2021-04-01T08:29:56.702Z</time>
      </trkpt>
      <trkpt lat="43.1014224" lon="-2.7506342">
        <ele>153.916</ele>
        <time>2021-04-01T08:29:56.766Z</time>
      </trkpt>
      <trkpt lat="43.1014246" lon="-2.7506349">
        <ele>153.919</ele>
        <time>2021-04-01T08:29:56.830Z</time>
      </trkpt>
      <trkpt lat="43.1014224" lon="-2.7506342">
        <ele>153.916</ele>
        <time>2021-04-01T08:29:56.894Z</time>
      </trkpt>
      <trkpt lat="43.1013917" lon="-2.7506221">
        <ele>154.876</ele>
        <time>2021-04-01T08:29:56.959Z</time>
      </trkpt>
      <trkpt lat="43.1013528" lon="-2.7506069">
        <ele>156.926</ele>
        <time>2021-04-01T08:29:57.204Z</time>
      </trkpt>
      <trkpt lat="43.1013507" lon="-2.7506059">
        <ele>157.083</ele>
        <time>2021-04-01T08:29:57.449Z</time>
      </trkpt>
      <trkpt lat="43.1013468" lon="-2.7506039">
        <ele>157.45</ele>
        <time>2021-04-01T08:29:57.694Z</time>
      </trkpt>
      <trkpt lat="43.1013446" lon="-2.7506029">
        <ele>157.696</ele>
        <time>2021-04-01T08:29:57.939Z</time>
      </trkpt>
      <trkpt lat="43.1013507" lon="-2.7506059">
        <ele>157.083</ele>
        <time>2021-04-01T08:29:58.184Z</time>
      </trkpt>
      <trkpt lat="43.1013468" lon="-2.7506039">
        <ele>157.45</ele>
        <time>2021-04-01T08:29:58.429Z</time>
      </trkpt>
      <trkpt lat="43.1013446" lon="-2.7506029">
        <ele>157.696</ele>
        <time>2021-04-01T08:29:58.674Z</time>
      </trkpt>
      <trkpt lat="43.1013507" lon="-2.7506059">
        <ele>157.083</ele>
        <time>2021-04-01T08:29:58.919Z</time>
      </trkpt>
      <trkpt lat="43.1013468" lon="-2.7506039">
        <ele>157.45</ele>
        <time>2021-04-01T08:29:59.164Z</time>
      </trkpt>
      <trkpt lat="43.1013446" lon="-2.7506029">
        <ele>157.696</ele>
        <time>2021-04-01T08:29:59.409Z</time>
      </trkpt>
      <trkpt lat="43.1012887" lon="-2.7505978">
        <ele>159.796</ele>
        <time>2021-04-01T08:29:59.654Z</time>
      </trkpt>
      <trkpt lat="43.1013097" lon="-2.750595">
        <ele>159.576</ele>
        <time>2021-04-01T08:29:59.907Z</time>
      </trkpt>
      <trkpt lat="43.1012887" lon="-2.7505978">
        <ele>159.796</ele>
        <time>2021-04-01T08:30:00.160Z</time>
      </trkpt>
      <trkpt lat="43.1013097" lon="-2.750595">
        <ele>159.576</ele>
        <time>2021-04-01T08:30:00.413Z</time>
      </trkpt>
      <trkpt lat="43.1012887" lon="-2.7505978">
        <ele>159.796</ele>
        <time>2021-04-01T08:30:00.666Z</time>
      </trkpt>
      <trkpt lat="43.1012406" lon="-2.7506166">
        <ele>160.85</ele>
        <time>2021-04-01T08:30:01.964Z</time>
      </trkpt>
      <trkpt lat="43.1012033" lon="-2.7506362">
        <ele>161.793</ele>
        <time>2021-04-01T08:30:02.321Z</time>
      </trkpt>
      <trkpt lat="43.1011876" lon="-2.7506398">
        <ele>162.316</ele>
        <time>2021-04-01T08:30:02.679Z</time>
      </trkpt>
      <trkpt lat="43.1011796" lon="-2.7506398">
        <ele>162.857</ele>
        <time>2021-04-01T08:30:03.036Z</time>
      </trkpt>
      <trkpt lat="43.1011876" lon="-2.7506398">
        <ele>162.316</ele>
        <time>2021-04-01T08:30:03.394Z</time>
      </trkpt>
      <trkpt lat="43.1011796" lon="-2.7506398">
        <ele>162.857</ele>
        <time>2021-04-01T08:30:03.751Z</time>
      </trkpt>
      <trkpt lat="43.101128" lon="-2.7506256">
        <ele>164.726</ele>
        <time>2021-04-01T08:30:05.814Z</time>
      </trkpt>
      <trkpt lat="43.1010742" lon="-2.7505771">
        <ele>165.271</ele>
        <time>2021-04-01T08:30:05.979Z</time>
      </trkpt>
      <trkpt lat="43.1010685" lon="-2.7505724">
        <ele>165.494</ele>
        <time>2021-04-01T08:30:06.144Z</time>
      </trkpt>
      <trkpt lat="43.1010742" lon="-2.7505771">
        <ele>165.271</ele>
        <time>2021-04-01T08:30:06.309Z</time>
      </trkpt>
      <trkpt lat="43.1010685" lon="-2.7505724">
        <ele>165.494</ele>
        <time>2021-04-01T08:30:06.474Z</time>
      </trkpt>
      <trkpt lat="43.1010742" lon="-2.7505771">
        <ele>165.271</ele>
        <time>2021-04-01T08:30:06.639Z</time>
      </trkpt>
      <trkpt lat="43.1010685" lon="-2.7505724">
        <ele>165.494</ele>
        <time>2021-04-01T08:30:06.804Z</time>
      </trkpt>
      <trkpt lat="43.1010368" lon="-2.7505456">
        <ele>165.706</ele>
        <time>2021-04-01T08:30:08.839Z</time>
      </trkpt>
      <trkpt lat="43.1009741" lon="-2.7504905">
        <ele>165.294</ele>
        <time>2021-04-01T08:30:09.010Z</time>
      </trkpt>
      <trkpt lat="43.1009609" lon="-2.7504806">
        <ele>165.046</ele>
        <time>2021-04-01T08:30:09.182Z</time>
      </trkpt>
      <trkpt lat="43.1009589" lon="-2.7504789">
        <ele>165.04</ele>
        <time>2021-04-01T08:30:09.354Z</time>
      </trkpt>
      <trkpt lat="43.1009609" lon="-2.7504806">
        <ele>165.046</ele>
        <time>2021-04-01T08:30:09.526Z</time>
      </trkpt>
      <trkpt lat="43.1009589" lon="-2.7504789">
        <ele>165.04</ele>
        <time>2021-04-01T08:30:09.698Z</time>
      </trkpt>
      <trkpt lat="43.1009609" lon="-2.7504806">
        <ele>165.046</ele>
        <time>2021-04-01T08:30:09.870Z</time>
      </trkpt>
      <trkpt lat="43.1009589" lon="-2.7504789">
        <ele>165.04</ele>
        <time>2021-04-01T08:30:10.042Z</time>
      </trkpt>
      <trkpt lat="43.1009252" lon="-2.7504533">
        <ele>165.264</ele>
        <time>2021-04-01T08:30:11.424Z</time>
      </trkpt>
      <trkpt lat="43.1008792" lon="-2.7504353">
        <ele>164.193</ele>
        <time>2021-04-01T08:30:11.732Z</time>
      </trkpt>
      <trkpt lat="43.1008463" lon="-2.7504271">
        <ele>163.814</ele>
        <time>2021-04-01T08:30:12.040Z</time>
      </trkpt>
      <trkpt lat="43.1008463" lon="-2.7504271">
        <ele>163.814</ele>
        <time>2021-04-01T08:30:12.348Z</time>
      </trkpt>
      <trkpt lat="43.1008463" lon="-2.7504271">
        <ele>163.814</ele>
        <time>2021-04-01T08:30:12.656Z</time>
      </trkpt>
      <trkpt lat="43.1008188" lon="-2.7504179">
        <ele>163.646</ele>
        <time>2021-04-01T08:30:12.964Z</time>
      </trkpt>
      <trkpt lat="43.1007908" lon="-2.7504021">
        <ele>163.998</ele>
        <time>2021-04-01T08:30:13.514Z</time>
      </trkpt>
      <trkpt lat="43.1007908" lon="-2.7504021">
        <ele>163.998</ele>
        <time>2021-04-01T08:30:14.064Z</time>
      </trkpt>
      <trkpt lat="43.1007908" lon="-2.7504021">
        <ele>163.998</ele>
        <time>2021-04-01T08:30:14.614Z</time>
      </trkpt>
      <trkpt lat="43.1007333" lon="-2.7503882">
        <ele>163.323</ele>
        <time>2021-04-01T08:30:16.429Z</time>
      </trkpt>
      <trkpt lat="43.1006817" lon="-2.7503805">
        <ele>163.017</ele>
        <time>2021-04-01T08:30:18.354Z</time>
      </trkpt>
      <trkpt lat="43.1005082" lon="-2.7503704">
        <ele>162.976</ele>
        <time>2021-04-01T08:30:20.939Z</time>
      </trkpt>
      <trkpt lat="43.1004968" lon="-2.7503707">
        <ele>162.819</ele>
        <time>2021-04-01T08:30:21.203Z</time>
      </trkpt>
      <trkpt lat="43.1004833" lon="-2.7503704">
        <ele>162.595</ele>
        <time>2021-04-01T08:30:21.468Z</time>
      </trkpt>
      <trkpt lat="43.1004811" lon="-2.7503702">
        <ele>162.609</ele>
        <time>2021-04-01T08:30:21.733Z</time>
      </trkpt>
      <trkpt lat="43.1004572" lon="-2.7503703">
        <ele>162.781</ele>
        <time>2021-04-01T08:30:21.997Z</time>
      </trkpt>
      <trkpt lat="43.1004833" lon="-2.7503704">
        <ele>162.595</ele>
        <time>2021-04-01T08:30:22.262Z</time>
      </trkpt>
      <trkpt lat="43.1004811" lon="-2.7503702">
        <ele>162.609</ele>
        <time>2021-04-01T08:30:22.527Z</time>
      </trkpt>
      <trkpt lat="43.1004572" lon="-2.7503703">
        <ele>162.781</ele>
        <time>2021-04-01T08:30:22.791Z</time>
      </trkpt>
      <trkpt lat="43.1003122" lon="-2.7503529">
        <ele>163.321</ele>
        <time>2021-04-01T08:30:26.164Z</time>
      </trkpt>
      <trkpt lat="43.1002695" lon="-2.7503383">
        <ele>163.274</ele>
        <time>2021-04-01T08:30:26.714Z</time>
      </trkpt>
      <trkpt lat="43.1002622" lon="-2.7503355">
        <ele>163.267</ele>
        <time>2021-04-01T08:30:27.264Z</time>
      </trkpt>
      <trkpt lat="43.1001995" lon="-2.7503052">
        <ele>163.236</ele>
        <time>2021-04-01T08:30:29.024Z</time>
      </trkpt>
      <trkpt lat="43.1001492" lon="-2.7502781">
        <ele>163.32</ele>
        <time>2021-04-01T08:30:29.292Z</time>
      </trkpt>
      <trkpt lat="43.1001222" lon="-2.7502662">
        <ele>163.163</ele>
        <time>2021-04-01T08:30:29.560Z</time>
      </trkpt>
      <trkpt lat="43.1001154" lon="-2.7502633">
        <ele>163.136</ele>
        <time>2021-04-01T08:30:29.828Z</time>
      </trkpt>
      <trkpt lat="43.1001222" lon="-2.7502662">
        <ele>163.163</ele>
        <time>2021-04-01T08:30:30.096Z</time>
      </trkpt>
      <trkpt lat="43.1001154" lon="-2.7502633">
        <ele>163.136</ele>
        <time>2021-04-01T08:30:30.364Z</time>
      </trkpt>
      <trkpt lat="43.1001222" lon="-2.7502662">
        <ele>163.163</ele>
        <time>2021-04-01T08:30:30.632Z</time>
      </trkpt>
      <trkpt lat="43.1001154" lon="-2.7502633">
        <ele>163.136</ele>
        <time>2021-04-01T08:30:30.900Z</time>
      </trkpt>
      <trkpt lat="43.1000615" lon="-2.7502299">
        <ele>164.011</ele>
        <time>2021-04-01T08:30:32.489Z</time>
      </trkpt>
      <trkpt lat="43.1000055" lon="-2.7502017">
        <ele>164.655</ele>
        <time>2021-04-01T08:30:32.685Z</time>
      </trkpt>
      <trkpt lat="43.1000008" lon="-2.750199">
        <ele>164.773</ele>
        <time>2021-04-01T08:30:32.881Z</time>
      </trkpt>
      <trkpt lat="43.1000315" lon="-2.7502154">
        <ele>164.294</ele>
        <time>2021-04-01T08:30:33.078Z</time>
      </trkpt>
      <trkpt lat="43.1000147" lon="-2.7502071">
        <ele>164.51</ele>
        <time>2021-04-01T08:30:33.274Z</time>
      </trkpt>
      <trkpt lat="43.1000055" lon="-2.7502017">
        <ele>164.655</ele>
        <time>2021-04-01T08:30:33.471Z</time>
      </trkpt>
      <trkpt lat="43.1000008" lon="-2.750199">
        <ele>164.773</ele>
        <time>2021-04-01T08:30:33.667Z</time>
      </trkpt>
      <trkpt lat="43.0999502" lon="-2.7501692">
        <ele>165.042</ele>
        <time>2021-04-01T08:30:35.239Z</time>
      </trkpt>
      <trkpt lat="43.0998962" lon="-2.7501359">
        <ele>165.416</ele>
        <time>2021-04-01T08:30:37.109Z</time>
      </trkpt>
      <trkpt lat="43.0997492" lon="-2.750044">
        <ele>167.094</ele>
        <time>2021-04-01T08:30:40.409Z</time>
      </trkpt>
      <trkpt lat="43.0996921" lon="-2.7500157">
        <ele>167.143</ele>
        <time>2021-04-01T08:30:40.629Z</time>
      </trkpt>
      <trkpt lat="43.099676" lon="-2.7500095">
        <ele>167.115</ele>
        <time>2021-04-01T08:30:40.849Z</time>
      </trkpt>
      <trkpt lat="43.099676" lon="-2.7500095">
        <ele>167.115</ele>
        <time>2021-04-01T08:30:41.069Z</time>
      </trkpt>
      <trkpt lat="43.099676" lon="-2.7500095">
        <ele>167.115</ele>
        <time>2021-04-01T08:30:41.289Z</time>
      </trkpt>
      <trkpt lat="43.0996462" lon="-2.7499962">
        <ele>167.238</ele>
        <time>2021-04-01T08:30:43.379Z</time>
      </trkpt>
      <trkpt lat="43.0995663" lon="-2.7499617">
        <ele>167.804</ele>
        <time>2021-04-01T08:30:44.699Z</time>
      </trkpt>
      <trkpt lat="43.0995082" lon="-2.7499409">
        <ele>168.084</ele>
        <time>2021-04-01T08:30:46.349Z</time>
      </trkpt>
      <trkpt lat="43.0994393" lon="-2.7499226">
        <ele>167.264</ele>
        <time>2021-04-01T08:30:46.789Z</time>
      </trkpt>
      <trkpt lat="43.0994089" lon="-2.7499135">
        <ele>167.198</ele>
        <time>2021-04-01T08:30:47.229Z</time>
      </trkpt>
      <trkpt lat="43.0994089" lon="-2.7499135">
        <ele>167.198</ele>
        <time>2021-04-01T08:30:47.669Z</time>
      </trkpt>
      <trkpt lat="43.0994089" lon="-2.7499135">
        <ele>167.198</ele>
        <time>2021-04-01T08:30:48.109Z</time>
      </trkpt>
      <trkpt lat="43.0993447" lon="-2.7498904">
        <ele>167.495</ele>
        <time>2021-04-01T08:30:48.549Z</time>
      </trkpt>
      <trkpt lat="43.0993447" lon="-2.7498904">
        <ele>167.495</ele>
        <time>2021-04-01T08:30:49.080Z</time>
      </trkpt>
      <trkpt lat="43.0993447" lon="-2.7498904">
        <ele>167.495</ele>
        <time>2021-04-01T08:30:49.612Z</time>
      </trkpt>
      <trkpt lat="43.0992758" lon="-2.7498757">
        <ele>167.327</ele>
        <time>2021-04-01T08:30:50.144Z</time>
      </trkpt>
      <trkpt lat="43.0992609" lon="-2.7498743">
        <ele>166.909</ele>
        <time>2021-04-01T08:30:50.419Z</time>
      </trkpt>
      <trkpt lat="43.0992708" lon="-2.7498752">
        <ele>167.17</ele>
        <time>2021-04-01T08:30:50.694Z</time>
      </trkpt>
      <trkpt lat="43.0992629" lon="-2.7498738">
        <ele>167.028</ele>
        <time>2021-04-01T08:30:50.969Z</time>
      </trkpt>
      <trkpt lat="43.0992609" lon="-2.7498743">
        <ele>166.909</ele>
        <time>2021-04-01T08:30:51.244Z</time>
      </trkpt>
      <trkpt lat="43.0992255" lon="-2.7498662">
        <ele>166.618</ele>
        <time>2021-04-01T08:30:52.399Z</time>
      </trkpt>
      <trkpt lat="43.0992233" lon="-2.7498663">
        <ele>166.538</ele>
        <time>2021-04-01T08:30:53.095Z</time>
      </trkpt>
      <trkpt lat="43.0992255" lon="-2.7498662">
        <ele>166.618</ele>
        <time>2021-04-01T08:30:53.792Z</time>
      </trkpt>
      <trkpt lat="43.0992233" lon="-2.7498663">
        <ele>166.538</ele>
        <time>2021-04-01T08:30:54.489Z</time>
      </trkpt>
      <trkpt lat="43.0991157" lon="-2.7498412">
        <ele>165.847</ele>
        <time>2021-04-01T08:30:54.771Z</time>
      </trkpt>
      <trkpt lat="43.0990869" lon="-2.7498314">
        <ele>165.787</ele>
        <time>2021-04-01T08:30:55.054Z</time>
      </trkpt>
      <trkpt lat="43.0990946" lon="-2.749834">
        <ele>165.907</ele>
        <time>2021-04-01T08:30:55.337Z</time>
      </trkpt>
      <trkpt lat="43.0990869" lon="-2.7498314">
        <ele>165.787</ele>
        <time>2021-04-01T08:30:55.620Z</time>
      </trkpt>
      <trkpt lat="43.0990946" lon="-2.749834">
        <ele>165.907</ele>
        <time>2021-04-01T08:30:55.903Z</time>
      </trkpt>
      <trkpt lat="43.0990869" lon="-2.7498314">
        <ele>165.787</ele>
        <time>2021-04-01T08:30:56.186Z</time>
      </trkpt>
      <trkpt lat="43.0990478" lon="-2.7498149">
        <ele>166.033</ele>
        <time>2021-04-01T08:30:58.284Z</time>
      </trkpt>
      <trkpt lat="43.0989811" lon="-2.7497921">
        <ele>166.522</ele>
        <time>2021-04-01T08:30:59.109Z</time>
      </trkpt>
      <trkpt lat="43.0989526" lon="-2.749779">
        <ele>167.003</ele>
        <time>2021-04-01T08:30:59.260Z</time>
      </trkpt>
      <trkpt lat="43.0989386" lon="-2.7497732">
        <ele>166.679</ele>
        <time>2021-04-01T08:30:59.411Z</time>
      </trkpt>
      <trkpt lat="43.0989268" lon="-2.7497676">
        <ele>166.712</ele>
        <time>2021-04-01T08:30:59.562Z</time>
      </trkpt>
      <trkpt lat="43.0989386" lon="-2.7497732">
        <ele>166.679</ele>
        <time>2021-04-01T08:30:59.714Z</time>
      </trkpt>
      <trkpt lat="43.0989268" lon="-2.7497676">
        <ele>166.712</ele>
        <time>2021-04-01T08:30:59.865Z</time>
      </trkpt>
      <trkpt lat="43.0989386" lon="-2.7497732">
        <ele>166.679</ele>
        <time>2021-04-01T08:31:00.016Z</time>
      </trkpt>
      <trkpt lat="43.0989268" lon="-2.7497676">
        <ele>166.712</ele>
        <time>2021-04-01T08:31:00.167Z</time>
      </trkpt>
      <trkpt lat="43.0989092" lon="-2.7497607">
        <ele>166.427</ele>
        <time>2021-04-01T08:31:02.409Z</time>
      </trkpt>
      <trkpt lat="43.0987299" lon="-2.7496986">
        <ele>169.944</ele>
        <time>2021-04-01T08:31:05.544Z</time>
      </trkpt>
      <trkpt lat="43.0987709" lon="-2.7497141">
        <ele>169.048</ele>
        <time>2021-04-01T08:31:05.764Z</time>
      </trkpt>
      <trkpt lat="43.0987692" lon="-2.7497134">
        <ele>169.083</ele>
        <time>2021-04-01T08:31:05.984Z</time>
      </trkpt>
      <trkpt lat="43.0987675" lon="-2.7497126">
        <ele>169.083</ele>
        <time>2021-04-01T08:31:06.204Z</time>
      </trkpt>
      <trkpt lat="43.0987657" lon="-2.7497114">
        <ele>169.12</ele>
        <time>2021-04-01T08:31:06.424Z</time>
      </trkpt>
      <trkpt lat="43.0987299" lon="-2.7496986">
        <ele>169.944</ele>
        <time>2021-04-01T08:31:06.644Z</time>
      </trkpt>
      <trkpt lat="43.0987709" lon="-2.7497141">
        <ele>169.048</ele>
        <time>2021-04-01T08:31:06.864Z</time>
      </trkpt>
      <trkpt lat="43.0987692" lon="-2.7497134">
        <ele>169.083</ele>
        <time>2021-04-01T08:31:07.084Z</time>
      </trkpt>
      <trkpt lat="43.0987675" lon="-2.7497126">
        <ele>169.083</ele>
        <time>2021-04-01T08:31:07.304Z</time>
      </trkpt>
      <trkpt lat="43.0987657" lon="-2.7497114">
        <ele>169.12</ele>
        <time>2021-04-01T08:31:07.524Z</time>
      </trkpt>
      <trkpt lat="43.0987299" lon="-2.7496986">
        <ele>169.944</ele>
        <time>2021-04-01T08:31:07.744Z</time>
      </trkpt>
      <trkpt lat="43.0987299" lon="-2.7496986">
        <ele>169.944</ele>
        <time>2021-04-01T08:31:07.964Z</time>
      </trkpt>
      <trkpt lat="43.0986505" lon="-2.7496591">
        <ele>171.218</ele>
        <time>2021-04-01T08:31:08.184Z</time>
      </trkpt>
      <trkpt lat="43.0986613" lon="-2.7496639">
        <ele>170.657</ele>
        <time>2021-04-01T08:31:08.262Z</time>
      </trkpt>
      <trkpt lat="43.0986701" lon="-2.7496667">
        <ele>170.482</ele>
        <time>2021-04-01T08:31:08.341Z</time>
      </trkpt>
      <trkpt lat="43.0986664" lon="-2.7496654">
        <ele>170.559</ele>
        <time>2021-04-01T08:31:08.419Z</time>
      </trkpt>
      <trkpt lat="43.0986613" lon="-2.7496639">
        <ele>170.657</ele>
        <time>2021-04-01T08:31:08.498Z</time>
      </trkpt>
      <trkpt lat="43.0986664" lon="-2.7496654">
        <ele>170.559</ele>
        <time>2021-04-01T08:31:08.576Z</time>
      </trkpt>
      <trkpt lat="43.0986613" lon="-2.7496639">
        <ele>170.657</ele>
        <time>2021-04-01T08:31:08.655Z</time>
      </trkpt>
      <trkpt lat="43.0986395" lon="-2.7496562">
        <ele>171.418</ele>
        <time>2021-04-01T08:31:10.494Z</time>
      </trkpt>
      <trkpt lat="43.0986266" lon="-2.7496665">
        <ele>172.506</ele>
        <time>2021-04-01T08:31:10.721Z</time>
      </trkpt>
      <trkpt lat="43.0986261" lon="-2.7496667">
        <ele>172.614</ele>
        <time>2021-04-01T08:31:10.949Z</time>
      </trkpt>
      <trkpt lat="43.0986255" lon="-2.7496671">
        <ele>172.725</ele>
        <time>2021-04-01T08:31:11.177Z</time>
      </trkpt>
      <trkpt lat="43.0986266" lon="-2.7496665">
        <ele>172.506</ele>
        <time>2021-04-01T08:31:11.405Z</time>
      </trkpt>
      <trkpt lat="43.0986261" lon="-2.7496667">
        <ele>172.614</ele>
        <time>2021-04-01T08:31:11.633Z</time>
      </trkpt>
      <trkpt lat="43.0986255" lon="-2.7496671">
        <ele>172.725</ele>
        <time>2021-04-01T08:31:11.861Z</time>
      </trkpt>
      <trkpt lat="43.0986153" lon="-2.749664">
        <ele>172.65</ele>
        <time>2021-04-01T08:31:12.089Z</time>
      </trkpt>
      <trkpt lat="43.0986115" lon="-2.7496644">
        <ele>172.628</ele>
        <time>2021-04-01T08:31:12.364Z</time>
      </trkpt>
      <trkpt lat="43.0986085" lon="-2.749665">
        <ele>172.496</ele>
        <time>2021-04-01T08:31:12.639Z</time>
      </trkpt>
      <trkpt lat="43.098624" lon="-2.750013">
        <ele>145.848</ele>
        <time>2021-04-01T09:09:26.160Z</time>
      </trkpt>
      <trkpt lat="43.098624" lon="-2.750013">
        <ele>145.848</ele>
        <time>2021-04-01T09:09:26.249Z</time>
      </trkpt>
      <trkpt lat="43.098624" lon="-2.750014">
        <ele>145.771</ele>
        <time>2021-04-01T09:09:26.367Z</time>
      </trkpt>
      <trkpt lat="43.0986244" lon="-2.7500139">
        <ele>145.781</ele>
        <time>2021-04-01T09:09:26.486Z</time>
      </trkpt>
      <trkpt lat="43.0986249" lon="-2.7500141">
        <ele>145.812</ele>
        <time>2021-04-01T09:09:26.605Z</time>
      </trkpt>
      <trkpt lat="43.0986249" lon="-2.7500135">
        <ele>145.894</ele>
        <time>2021-04-01T09:09:26.723Z</time>
      </trkpt>
      <trkpt lat="43.098625" lon="-2.7500128">
        <ele>146.004</ele>
        <time>2021-04-01T09:09:26.842Z</time>
      </trkpt>
      <trkpt lat="43.0986252" lon="-2.7500127">
        <ele>146.054</ele>
        <time>2021-04-01T09:09:26.961Z</time>
      </trkpt>
      <trkpt lat="43.0986253" lon="-2.7500125">
        <ele>146.095</ele>
        <time>2021-04-01T09:09:27.079Z</time>
      </trkpt>
      <trkpt lat="43.0986254" lon="-2.7500123">
        <ele>146.111</ele>
        <time>2021-04-01T09:09:27.198Z</time>
      </trkpt>
      <trkpt lat="43.0986255" lon="-2.7500123">
        <ele>146.093</ele>
        <time>2021-04-01T09:09:27.317Z</time>
      </trkpt>
      <trkpt lat="43.0986256" lon="-2.750012">
        <ele>146.106</ele>
        <time>2021-04-01T09:09:27.435Z</time>
      </trkpt>
      <trkpt lat="43.0986257" lon="-2.7500116">
        <ele>146.125</ele>
        <time>2021-04-01T09:09:27.554Z</time>
      </trkpt>
      <trkpt lat="43.0986258" lon="-2.750011">
        <ele>146.154</ele>
        <time>2021-04-01T09:09:27.673Z</time>
      </trkpt>
      <trkpt lat="43.0986259" lon="-2.7500108">
        <ele>146.146</ele>
        <time>2021-04-01T09:09:27.791Z</time>
      </trkpt>
      <trkpt lat="43.0986263" lon="-2.7500104">
        <ele>146.172</ele>
        <time>2021-04-01T09:09:27.910Z</time>
      </trkpt>
      <trkpt lat="43.0986266" lon="-2.7500098">
        <ele>146.207</ele>
        <time>2021-04-01T09:09:28.029Z</time>
      </trkpt>
      <trkpt lat="43.0986263" lon="-2.7500089">
        <ele>146.224</ele>
        <time>2021-04-01T09:09:28.147Z</time>
      </trkpt>
      <trkpt lat="43.098626" lon="-2.7500082">
        <ele>146.242</ele>
        <time>2021-04-01T09:09:28.266Z</time>
      </trkpt>
      <trkpt lat="43.0986261" lon="-2.7500077">
        <ele>146.269</ele>
        <time>2021-04-01T09:09:28.385Z</time>
      </trkpt>
      <trkpt lat="43.0986264" lon="-2.7500074">
        <ele>146.272</ele>
        <time>2021-04-01T09:09:28.504Z</time>
      </trkpt>
      <trkpt lat="43.0986266" lon="-2.7500068">
        <ele>146.285</ele>
        <time>2021-04-01T09:09:28.562Z</time>
      </trkpt>
      <trkpt lat="43.098627" lon="-2.7500061">
        <ele>146.305</ele>
        <time>2021-04-01T09:09:28.620Z</time>
      </trkpt>
      <trkpt lat="43.0986273" lon="-2.7500058">
        <ele>146.328</ele>
        <time>2021-04-01T09:09:28.678Z</time>
      </trkpt>
      <trkpt lat="43.0986274" lon="-2.7500049">
        <ele>146.422</ele>
        <time>2021-04-01T09:09:28.736Z</time>
      </trkpt>
      <trkpt lat="43.0986276" lon="-2.7500038">
        <ele>146.492</ele>
        <time>2021-04-01T09:09:28.794Z</time>
      </trkpt>
      <trkpt lat="43.0986279" lon="-2.7500034">
        <ele>146.516</ele>
        <time>2021-04-01T09:09:28.852Z</time>
      </trkpt>
      <trkpt lat="43.0986283" lon="-2.7500029">
        <ele>146.527</ele>
        <time>2021-04-01T09:09:28.910Z</time>
      </trkpt>
      <trkpt lat="43.0986289" lon="-2.7500034">
        <ele>146.524</ele>
        <time>2021-04-01T09:09:28.968Z</time>
      </trkpt>
      <trkpt lat="43.0986294" lon="-2.7500034">
        <ele>146.551</ele>
        <time>2021-04-01T09:09:29.026Z</time>
      </trkpt>
      <trkpt lat="43.0986299" lon="-2.7500031">
        <ele>146.613</ele>
        <time>2021-04-01T09:09:29.084Z</time>
      </trkpt>
      <trkpt lat="43.0986304" lon="-2.7500031">
        <ele>146.593</ele>
        <time>2021-04-01T09:09:29.142Z</time>
      </trkpt>
      <trkpt lat="43.098631" lon="-2.7500035">
        <ele>146.594</ele>
        <time>2021-04-01T09:09:29.200Z</time>
      </trkpt>
      <trkpt lat="43.0986317" lon="-2.7500037">
        <ele>146.621</ele>
        <time>2021-04-01T09:09:29.258Z</time>
      </trkpt>
      <trkpt lat="43.0986322" lon="-2.7500033">
        <ele>146.671</ele>
        <time>2021-04-01T09:09:29.316Z</time>
      </trkpt>
      <trkpt lat="43.0986322" lon="-2.7500026">
        <ele>146.741</ele>
        <time>2021-04-01T09:09:29.374Z</time>
      </trkpt>
      <trkpt lat="43.0986326" lon="-2.7500021">
        <ele>146.792</ele>
        <time>2021-04-01T09:09:29.432Z</time>
      </trkpt>
      <trkpt lat="43.0986332" lon="-2.7500021">
        <ele>146.83</ele>
        <time>2021-04-01T09:09:29.490Z</time>
      </trkpt>
      <trkpt lat="43.098634" lon="-2.7500025">
        <ele>146.841</ele>
        <time>2021-04-01T09:09:29.549Z</time>
      </trkpt>
      <trkpt lat="43.0986346" lon="-2.7500018">
        <ele>146.894</ele>
        <time>2021-04-01T09:09:29.598Z</time>
      </trkpt>
      <trkpt lat="43.098635" lon="-2.7500005">
        <ele>147.034</ele>
        <time>2021-04-01T09:09:29.647Z</time>
      </trkpt>
      <trkpt lat="43.0986355" lon="-2.7499997">
        <ele>147.105</ele>
        <time>2021-04-01T09:09:29.696Z</time>
      </trkpt>
      <trkpt lat="43.0986362" lon="-2.7499993">
        <ele>147.093</ele>
        <time>2021-04-01T09:09:29.745Z</time>
      </trkpt>
      <trkpt lat="43.0986368" lon="-2.7499977">
        <ele>147.238</ele>
        <time>2021-04-01T09:09:29.795Z</time>
      </trkpt>
      <trkpt lat="43.0986375" lon="-2.7499958">
        <ele>147.392</ele>
        <time>2021-04-01T09:09:29.844Z</time>
      </trkpt>
      <trkpt lat="43.0986383" lon="-2.7499937">
        <ele>147.583</ele>
        <time>2021-04-01T09:09:29.893Z</time>
      </trkpt>
      <trkpt lat="43.098639" lon="-2.7499919">
        <ele>147.699</ele>
        <time>2021-04-01T09:09:29.942Z</time>
      </trkpt>
      <trkpt lat="43.0986395" lon="-2.7499906">
        <ele>147.807</ele>
        <time>2021-04-01T09:09:29.991Z</time>
      </trkpt>
      <trkpt lat="43.0986399" lon="-2.7499893">
        <ele>147.903</ele>
        <time>2021-04-01T09:09:30.041Z</time>
      </trkpt>
      <trkpt lat="43.0986406" lon="-2.7499886">
        <ele>147.933</ele>
        <time>2021-04-01T09:09:30.090Z</time>
      </trkpt>
      <trkpt lat="43.0986411" lon="-2.7499877">
        <ele>147.994</ele>
        <time>2021-04-01T09:09:30.139Z</time>
      </trkpt>
      <trkpt lat="43.0986414" lon="-2.7499866">
        <ele>148.059</ele>
        <time>2021-04-01T09:09:30.188Z</time>
      </trkpt>
      <trkpt lat="43.0986419" lon="-2.7499851">
        <ele>148.18</ele>
        <time>2021-04-01T09:09:30.237Z</time>
      </trkpt>
      <trkpt lat="43.0986423" lon="-2.7499842">
        <ele>148.245</ele>
        <time>2021-04-01T09:09:30.287Z</time>
      </trkpt>
      <trkpt lat="43.0986426" lon="-2.7499833">
        <ele>148.273</ele>
        <time>2021-04-01T09:09:30.336Z</time>
      </trkpt>
      <trkpt lat="43.0986436" lon="-2.7499833">
        <ele>148.3</ele>
        <time>2021-04-01T09:09:30.385Z</time>
      </trkpt>
      <trkpt lat="43.0986443" lon="-2.7499822">
        <ele>148.38</ele>
        <time>2021-04-01T09:09:30.434Z</time>
      </trkpt>
      <trkpt lat="43.0986447" lon="-2.7499809">
        <ele>148.46</ele>
        <time>2021-04-01T09:09:30.484Z</time>
      </trkpt>
      <trkpt lat="43.0986453" lon="-2.7499802">
        <ele>148.475</ele>
        <time>2021-04-01T09:09:30.545Z</time>
      </trkpt>
      <trkpt lat="43.098646" lon="-2.74998">
        <ele>148.467</ele>
        <time>2021-04-01T09:09:30.606Z</time>
      </trkpt>
      <trkpt lat="43.0986466" lon="-2.7499795">
        <ele>148.488</ele>
        <time>2021-04-01T09:09:30.668Z</time>
      </trkpt>
      <trkpt lat="43.098647" lon="-2.7499782">
        <ele>148.55</ele>
        <time>2021-04-01T09:09:30.729Z</time>
      </trkpt>
      <trkpt lat="43.0986479" lon="-2.749977">
        <ele>148.641</ele>
        <time>2021-04-01T09:09:30.791Z</time>
      </trkpt>
      <trkpt lat="43.0986485" lon="-2.7499757">
        <ele>148.723</ele>
        <time>2021-04-01T09:09:30.852Z</time>
      </trkpt>
      <trkpt lat="43.098649" lon="-2.749975">
        <ele>148.752</ele>
        <time>2021-04-01T09:09:30.914Z</time>
      </trkpt>
      <trkpt lat="43.0986493" lon="-2.7499739">
        <ele>148.771</ele>
        <time>2021-04-01T09:09:30.975Z</time>
      </trkpt>
      <trkpt lat="43.0986498" lon="-2.7499715">
        <ele>148.924</ele>
        <time>2021-04-01T09:09:31.037Z</time>
      </trkpt>
      <trkpt lat="43.0986506" lon="-2.7499692">
        <ele>149.1</ele>
        <time>2021-04-01T09:09:31.098Z</time>
      </trkpt>
      <trkpt lat="43.0986513" lon="-2.749967">
        <ele>149.23</ele>
        <time>2021-04-01T09:09:31.160Z</time>
      </trkpt>
      <trkpt lat="43.0986511" lon="-2.7499641">
        <ele>149.357</ele>
        <time>2021-04-01T09:09:31.221Z</time>
      </trkpt>
      <trkpt lat="43.0986517" lon="-2.7499618">
        <ele>149.49</ele>
        <time>2021-04-01T09:09:31.283Z</time>
      </trkpt>
      <trkpt lat="43.0986527" lon="-2.7499599">
        <ele>149.623</ele>
        <time>2021-04-01T09:09:31.344Z</time>
      </trkpt>
      <trkpt lat="43.0986532" lon="-2.7499577">
        <ele>149.748</ele>
        <time>2021-04-01T09:09:31.406Z</time>
      </trkpt>
      <trkpt lat="43.0986538" lon="-2.7499558">
        <ele>149.902</ele>
        <time>2021-04-01T09:09:31.467Z</time>
      </trkpt>
      <trkpt lat="43.0986544" lon="-2.749954">
        <ele>150.017</ele>
        <time>2021-04-01T09:09:31.529Z</time>
      </trkpt>
      <trkpt lat="43.0986549" lon="-2.7499521">
        <ele>150.159</ele>
        <time>2021-04-01T09:09:31.581Z</time>
      </trkpt>
      <trkpt lat="43.0986551" lon="-2.7499505">
        <ele>150.235</ele>
        <time>2021-04-01T09:09:31.633Z</time>
      </trkpt>
      <trkpt lat="43.0986557" lon="-2.7499487">
        <ele>150.309</ele>
        <time>2021-04-01T09:09:31.685Z</time>
      </trkpt>
      <trkpt lat="43.0986565" lon="-2.7499466">
        <ele>150.424</ele>
        <time>2021-04-01T09:09:31.737Z</time>
      </trkpt>
      <trkpt lat="43.0986574" lon="-2.7499445">
        <ele>150.578</ele>
        <time>2021-04-01T09:09:31.789Z</time>
      </trkpt>
      <trkpt lat="43.0986582" lon="-2.7499425">
        <ele>150.655</ele>
        <time>2021-04-01T09:09:31.841Z</time>
      </trkpt>
      <trkpt lat="43.0986593" lon="-2.7499413">
        <ele>150.683</ele>
        <time>2021-04-01T09:09:31.893Z</time>
      </trkpt>
      <trkpt lat="43.09866" lon="-2.7499397">
        <ele>150.746</ele>
        <time>2021-04-01T09:09:31.945Z</time>
      </trkpt>
      <trkpt lat="43.0986606" lon="-2.749938">
        <ele>150.829</ele>
        <time>2021-04-01T09:09:31.997Z</time>
      </trkpt>
      <trkpt lat="43.0986617" lon="-2.7499371">
        <ele>150.841</ele>
        <time>2021-04-01T09:09:32.050Z</time>
      </trkpt>
      <trkpt lat="43.0986625" lon="-2.7499355">
        <ele>150.867</ele>
        <time>2021-04-01T09:09:32.102Z</time>
      </trkpt>
      <trkpt lat="43.0986631" lon="-2.7499345">
        <ele>150.875</ele>
        <time>2021-04-01T09:09:32.154Z</time>
      </trkpt>
      <trkpt lat="43.0986636" lon="-2.7499335">
        <ele>150.876</ele>
        <time>2021-04-01T09:09:32.206Z</time>
      </trkpt>
      <trkpt lat="43.0986644" lon="-2.7499322">
        <ele>150.95</ele>
        <time>2021-04-01T09:09:32.258Z</time>
      </trkpt>
      <trkpt lat="43.0986647" lon="-2.7499307">
        <ele>151.018</ele>
        <time>2021-04-01T09:09:32.310Z</time>
      </trkpt>
      <trkpt lat="43.0986649" lon="-2.7499295">
        <ele>151.066</ele>
        <time>2021-04-01T09:09:32.362Z</time>
      </trkpt>
      <trkpt lat="43.0986657" lon="-2.7499287">
        <ele>151.073</ele>
        <time>2021-04-01T09:09:32.414Z</time>
      </trkpt>
      <trkpt lat="43.0986662" lon="-2.7499279">
        <ele>151.106</ele>
        <time>2021-04-01T09:09:32.466Z</time>
      </trkpt>
      <trkpt lat="43.0986666" lon="-2.7499263">
        <ele>151.169</ele>
        <time>2021-04-01T09:09:32.519Z</time>
      </trkpt>
      <trkpt lat="43.0986673" lon="-2.7499255">
        <ele>151.231</ele>
        <time>2021-04-01T09:09:32.574Z</time>
      </trkpt>
      <trkpt lat="43.098668" lon="-2.7499252">
        <ele>151.236</ele>
        <time>2021-04-01T09:09:32.629Z</time>
      </trkpt>
      <trkpt lat="43.0986684" lon="-2.7499241">
        <ele>151.27</ele>
        <time>2021-04-01T09:09:32.684Z</time>
      </trkpt>
      <trkpt lat="43.0986689" lon="-2.7499231">
        <ele>151.321</ele>
        <time>2021-04-01T09:09:32.739Z</time>
      </trkpt>
      <trkpt lat="43.0986695" lon="-2.7499222">
        <ele>151.369</ele>
        <time>2021-04-01T09:09:32.794Z</time>
      </trkpt>
      <trkpt lat="43.0986702" lon="-2.7499211">
        <ele>151.405</ele>
        <time>2021-04-01T09:09:32.849Z</time>
      </trkpt>
      <trkpt lat="43.0986711" lon="-2.7499208">
        <ele>151.417</ele>
        <time>2021-04-01T09:09:32.904Z</time>
      </trkpt>
      <trkpt lat="43.0986721" lon="-2.7499204">
        <ele>151.428</ele>
        <time>2021-04-01T09:09:32.959Z</time>
      </trkpt>
      <trkpt lat="43.0986729" lon="-2.7499193">
        <ele>151.511</ele>
        <time>2021-04-01T09:09:33.014Z</time>
      </trkpt>
      <trkpt lat="43.0986734" lon="-2.749919">
        <ele>151.525</ele>
        <time>2021-04-01T09:09:33.069Z</time>
      </trkpt>
      <trkpt lat="43.0986744" lon="-2.7499185">
        <ele>151.5</ele>
        <time>2021-04-01T09:09:33.124Z</time>
      </trkpt>
      <trkpt lat="43.0986752" lon="-2.7499179">
        <ele>151.543</ele>
        <time>2021-04-01T09:09:33.179Z</time>
      </trkpt>
      <trkpt lat="43.0986763" lon="-2.7499173">
        <ele>151.59</ele>
        <time>2021-04-01T09:09:33.234Z</time>
      </trkpt>
      <trkpt lat="43.0986769" lon="-2.7499162">
        <ele>151.636</ele>
        <time>2021-04-01T09:09:33.289Z</time>
      </trkpt>
      <trkpt lat="43.0986775" lon="-2.7499158">
        <ele>151.664</ele>
        <time>2021-04-01T09:09:33.344Z</time>
      </trkpt>
      <trkpt lat="43.0986781" lon="-2.7499155">
        <ele>151.673</ele>
        <time>2021-04-01T09:09:33.399Z</time>
      </trkpt>
      <trkpt lat="43.0986795" lon="-2.7499161">
        <ele>151.676</ele>
        <time>2021-04-01T09:09:33.454Z</time>
      </trkpt>
      <trkpt lat="43.0986805" lon="-2.7499161">
        <ele>151.68</ele>
        <time>2021-04-01T09:09:33.509Z</time>
      </trkpt>
      <trkpt lat="43.0986817" lon="-2.7499166">
        <ele>151.679</ele>
        <time>2021-04-01T09:09:33.564Z</time>
      </trkpt>
      <trkpt lat="43.0986826" lon="-2.7499155">
        <ele>151.745</ele>
        <time>2021-04-01T09:09:33.619Z</time>
      </trkpt>
      <trkpt lat="43.0986838" lon="-2.7499151">
        <ele>151.782</ele>
        <time>2021-04-01T09:09:33.674Z</time>
      </trkpt>
      <trkpt lat="43.0986852" lon="-2.7499151">
        <ele>151.819</ele>
        <time>2021-04-01T09:09:33.729Z</time>
      </trkpt>
      <trkpt lat="43.0986861" lon="-2.7499145">
        <ele>151.841</ele>
        <time>2021-04-01T09:09:33.784Z</time>
      </trkpt>
      <trkpt lat="43.0986868" lon="-2.7499138">
        <ele>151.844</ele>
        <time>2021-04-01T09:09:33.839Z</time>
      </trkpt>
      <trkpt lat="43.0986878" lon="-2.749913">
        <ele>151.861</ele>
        <time>2021-04-01T09:09:33.894Z</time>
      </trkpt>
      <trkpt lat="43.0986887" lon="-2.7499119">
        <ele>151.933</ele>
        <time>2021-04-01T09:09:33.949Z</time>
      </trkpt>
      <trkpt lat="43.0986899" lon="-2.7499114">
        <ele>151.958</ele>
        <time>2021-04-01T09:09:34.004Z</time>
      </trkpt>
      <trkpt lat="43.0986908" lon="-2.7499108">
        <ele>152.007</ele>
        <time>2021-04-01T09:09:34.059Z</time>
      </trkpt>
      <trkpt lat="43.098692" lon="-2.7499103">
        <ele>152.029</ele>
        <time>2021-04-01T09:09:34.114Z</time>
      </trkpt>
      <trkpt lat="43.098693" lon="-2.7499092">
        <ele>152.126</ele>
        <time>2021-04-01T09:09:34.169Z</time>
      </trkpt>
      <trkpt lat="43.0986941" lon="-2.7499085">
        <ele>152.175</ele>
        <time>2021-04-01T09:09:34.224Z</time>
      </trkpt>
      <trkpt lat="43.0986953" lon="-2.7499081">
        <ele>152.241</ele>
        <time>2021-04-01T09:09:34.279Z</time>
      </trkpt>
      <trkpt lat="43.0986965" lon="-2.7499075">
        <ele>152.289</ele>
        <time>2021-04-01T09:09:34.334Z</time>
      </trkpt>
      <trkpt lat="43.0986976" lon="-2.7499064">
        <ele>152.397</ele>
        <time>2021-04-01T09:09:34.389Z</time>
      </trkpt>
      <trkpt lat="43.0986988" lon="-2.7499055">
        <ele>152.49</ele>
        <time>2021-04-01T09:09:34.444Z</time>
      </trkpt>
      <trkpt lat="43.0987002" lon="-2.7499051">
        <ele>152.492</ele>
        <time>2021-04-01T09:09:34.499Z</time>
      </trkpt>
      <trkpt lat="43.0987015" lon="-2.7499042">
        <ele>152.538</ele>
        <time>2021-04-01T09:09:34.554Z</time>
      </trkpt>
      <trkpt lat="43.0987025" lon="-2.7499032">
        <ele>152.666</ele>
        <time>2021-04-01T09:09:34.609Z</time>
      </trkpt>
      <trkpt lat="43.098704" lon="-2.7499026">
        <ele>152.736</ele>
        <time>2021-04-01T09:09:34.664Z</time>
      </trkpt>
      <trkpt lat="43.0987055" lon="-2.7499021">
        <ele>152.761</ele>
        <time>2021-04-01T09:09:34.719Z</time>
      </trkpt>
      <trkpt lat="43.098707" lon="-2.7499015">
        <ele>152.824</ele>
        <time>2021-04-01T09:09:34.774Z</time>
      </trkpt>
      <trkpt lat="43.0987084" lon="-2.7499005">
        <ele>152.924</ele>
        <time>2021-04-01T09:09:34.829Z</time>
      </trkpt>
      <trkpt lat="43.0987097" lon="-2.7499002">
        <ele>152.943</ele>
        <time>2021-04-01T09:09:34.884Z</time>
      </trkpt>
      <trkpt lat="43.0987108" lon="-2.7498997">
        <ele>152.962</ele>
        <time>2021-04-01T09:09:34.939Z</time>
      </trkpt>
      <trkpt lat="43.0987119" lon="-2.7498988">
        <ele>153.033</ele>
        <time>2021-04-01T09:09:34.994Z</time>
      </trkpt>
      <trkpt lat="43.0987131" lon="-2.7498982">
        <ele>153.086</ele>
        <time>2021-04-01T09:09:35.049Z</time>
      </trkpt>
      <trkpt lat="43.0987149" lon="-2.749898">
        <ele>153.174</ele>
        <time>2021-04-01T09:09:35.104Z</time>
      </trkpt>
      <trkpt lat="43.0987169" lon="-2.7498987">
        <ele>153.139</ele>
        <time>2021-04-01T09:09:35.159Z</time>
      </trkpt>
      <trkpt lat="43.0987183" lon="-2.749898">
        <ele>153.236</ele>
        <time>2021-04-01T09:09:35.214Z</time>
      </trkpt>
      <trkpt lat="43.0987195" lon="-2.7498979">
        <ele>153.246</ele>
        <time>2021-04-01T09:09:35.269Z</time>
      </trkpt>
      <trkpt lat="43.0987209" lon="-2.749898">
        <ele>153.218</ele>
        <time>2021-04-01T09:09:35.324Z</time>
      </trkpt>
      <trkpt lat="43.0987225" lon="-2.7498982">
        <ele>153.214</ele>
        <time>2021-04-01T09:09:35.379Z</time>
      </trkpt>
      <trkpt lat="43.0987238" lon="-2.7498981">
        <ele>153.263</ele>
        <time>2021-04-01T09:09:35.434Z</time>
      </trkpt>
      <trkpt lat="43.0987252" lon="-2.7498979">
        <ele>153.281</ele>
        <time>2021-04-01T09:09:35.489Z</time>
      </trkpt>
      <trkpt lat="43.0987266" lon="-2.7498976">
        <ele>153.279</ele>
        <time>2021-04-01T09:09:35.547Z</time>
      </trkpt>
      <trkpt lat="43.0987278" lon="-2.7498967">
        <ele>153.349</ele>
        <time>2021-04-01T09:09:35.605Z</time>
      </trkpt>
      <trkpt lat="43.0987292" lon="-2.7498956">
        <ele>153.453</ele>
        <time>2021-04-01T09:09:35.663Z</time>
      </trkpt>
      <trkpt lat="43.0987308" lon="-2.7498952">
        <ele>153.444</ele>
        <time>2021-04-01T09:09:35.721Z</time>
      </trkpt>
      <trkpt lat="43.0987321" lon="-2.7498943">
        <ele>153.498</ele>
        <time>2021-04-01T09:09:35.779Z</time>
      </trkpt>
      <trkpt lat="43.0987335" lon="-2.7498933">
        <ele>153.589</ele>
        <time>2021-04-01T09:09:35.837Z</time>
      </trkpt>
      <trkpt lat="43.0987348" lon="-2.7498929">
        <ele>153.644</ele>
        <time>2021-04-01T09:09:35.895Z</time>
      </trkpt>
      <trkpt lat="43.0987366" lon="-2.7498924">
        <ele>153.683</ele>
        <time>2021-04-01T09:09:35.953Z</time>
      </trkpt>
      <trkpt lat="43.0987385" lon="-2.7498916">
        <ele>153.777</ele>
        <time>2021-04-01T09:09:36.011Z</time>
      </trkpt>
      <trkpt lat="43.0987401" lon="-2.7498908">
        <ele>153.875</ele>
        <time>2021-04-01T09:09:36.069Z</time>
      </trkpt>
      <trkpt lat="43.0987417" lon="-2.7498898">
        <ele>153.96</ele>
        <time>2021-04-01T09:09:36.127Z</time>
      </trkpt>
      <trkpt lat="43.0987437" lon="-2.7498892">
        <ele>154.075</ele>
        <time>2021-04-01T09:09:36.185Z</time>
      </trkpt>
      <trkpt lat="43.0987457" lon="-2.7498891">
        <ele>154.132</ele>
        <time>2021-04-01T09:09:36.243Z</time>
      </trkpt>
      <trkpt lat="43.0987473" lon="-2.7498879">
        <ele>154.241</ele>
        <time>2021-04-01T09:09:36.301Z</time>
      </trkpt>
      <trkpt lat="43.0987487" lon="-2.7498864">
        <ele>154.373</ele>
        <time>2021-04-01T09:09:36.359Z</time>
      </trkpt>
      <trkpt lat="43.0987505" lon="-2.7498858">
        <ele>154.428</ele>
        <time>2021-04-01T09:09:36.417Z</time>
      </trkpt>
      <trkpt lat="43.0987522" lon="-2.7498851">
        <ele>154.495</ele>
        <time>2021-04-01T09:09:36.475Z</time>
      </trkpt>
      <trkpt lat="43.0987538" lon="-2.7498841">
        <ele>154.572</ele>
        <time>2021-04-01T09:09:36.534Z</time>
      </trkpt>
      <trkpt lat="43.0987552" lon="-2.7498831">
        <ele>154.644</ele>
        <time>2021-04-01T09:09:36.589Z</time>
      </trkpt>
      <trkpt lat="43.0987567" lon="-2.7498822">
        <ele>154.718</ele>
        <time>2021-04-01T09:09:36.644Z</time>
      </trkpt>
      <trkpt lat="43.0987582" lon="-2.749881">
        <ele>154.802</ele>
        <time>2021-04-01T09:09:36.699Z</time>
      </trkpt>
      <trkpt lat="43.0987596" lon="-2.74988">
        <ele>154.892</ele>
        <time>2021-04-01T09:09:36.754Z</time>
      </trkpt>
      <trkpt lat="43.098761" lon="-2.7498792">
        <ele>154.962</ele>
        <time>2021-04-01T09:09:36.809Z</time>
      </trkpt>
      <trkpt lat="43.0987626" lon="-2.7498786">
        <ele>155.036</ele>
        <time>2021-04-01T09:09:36.864Z</time>
      </trkpt>
      <trkpt lat="43.0987641" lon="-2.7498779">
        <ele>155.105</ele>
        <time>2021-04-01T09:09:36.919Z</time>
      </trkpt>
      <trkpt lat="43.0987653" lon="-2.7498766">
        <ele>155.177</ele>
        <time>2021-04-01T09:09:36.974Z</time>
      </trkpt>
      <trkpt lat="43.0987671" lon="-2.7498761">
        <ele>155.27</ele>
        <time>2021-04-01T09:09:37.029Z</time>
      </trkpt>
      <trkpt lat="43.0987686" lon="-2.7498752">
        <ele>155.369</ele>
        <time>2021-04-01T09:09:37.084Z</time>
      </trkpt>
      <trkpt lat="43.0987701" lon="-2.7498751">
        <ele>155.384</ele>
        <time>2021-04-01T09:09:37.139Z</time>
      </trkpt>
      <trkpt lat="43.0987722" lon="-2.7498758">
        <ele>155.343</ele>
        <time>2021-04-01T09:09:37.194Z</time>
      </trkpt>
      <trkpt lat="43.0987738" lon="-2.7498754">
        <ele>155.358</ele>
        <time>2021-04-01T09:09:37.249Z</time>
      </trkpt>
      <trkpt lat="43.0987756" lon="-2.7498753">
        <ele>155.376</ele>
        <time>2021-04-01T09:09:37.304Z</time>
      </trkpt>
      <trkpt lat="43.0987778" lon="-2.7498754">
        <ele>155.395</ele>
        <time>2021-04-01T09:09:37.359Z</time>
      </trkpt>
      <trkpt lat="43.0987794" lon="-2.7498752">
        <ele>155.387</ele>
        <time>2021-04-01T09:09:37.414Z</time>
      </trkpt>
      <trkpt lat="43.0987812" lon="-2.7498753">
        <ele>155.416</ele>
        <time>2021-04-01T09:09:37.469Z</time>
      </trkpt>
      <trkpt lat="43.0987828" lon="-2.7498749">
        <ele>155.479</ele>
        <time>2021-04-01T09:09:37.524Z</time>
      </trkpt>
      <trkpt lat="43.0987846" lon="-2.7498752">
        <ele>155.432</ele>
        <time>2021-04-01T09:09:37.579Z</time>
      </trkpt>
      <trkpt lat="43.0987862" lon="-2.7498748">
        <ele>155.45</ele>
        <time>2021-04-01T09:09:37.634Z</time>
      </trkpt>
      <trkpt lat="43.0987878" lon="-2.7498744">
        <ele>155.493</ele>
        <time>2021-04-01T09:09:37.689Z</time>
      </trkpt>
      <trkpt lat="43.0987895" lon="-2.7498745">
        <ele>155.507</ele>
        <time>2021-04-01T09:09:37.744Z</time>
      </trkpt>
      <trkpt lat="43.0987914" lon="-2.7498753">
        <ele>155.426</ele>
        <time>2021-04-01T09:09:37.799Z</time>
      </trkpt>
      <trkpt lat="43.0987932" lon="-2.7498755">
        <ele>155.42</ele>
        <time>2021-04-01T09:09:37.854Z</time>
      </trkpt>
      <trkpt lat="43.0987949" lon="-2.7498756">
        <ele>155.444</ele>
        <time>2021-04-01T09:09:37.909Z</time>
      </trkpt>
      <trkpt lat="43.0987965" lon="-2.7498757">
        <ele>155.464</ele>
        <time>2021-04-01T09:09:37.964Z</time>
      </trkpt>
      <trkpt lat="43.098798" lon="-2.7498761">
        <ele>155.433</ele>
        <time>2021-04-01T09:09:38.019Z</time>
      </trkpt>
      <trkpt lat="43.0987996" lon="-2.7498763">
        <ele>155.449</ele>
        <time>2021-04-01T09:09:38.074Z</time>
      </trkpt>
      <trkpt lat="43.0988015" lon="-2.7498766">
        <ele>155.48</ele>
        <time>2021-04-01T09:09:38.129Z</time>
      </trkpt>
      <trkpt lat="43.0988035" lon="-2.7498769">
        <ele>155.466</ele>
        <time>2021-04-01T09:09:38.184Z</time>
      </trkpt>
      <trkpt lat="43.0988053" lon="-2.749877">
        <ele>155.474</ele>
        <time>2021-04-01T09:09:38.239Z</time>
      </trkpt>
      <trkpt lat="43.0988069" lon="-2.7498769">
        <ele>155.501</ele>
        <time>2021-04-01T09:09:38.294Z</time>
      </trkpt>
      <trkpt lat="43.098809" lon="-2.7498775">
        <ele>155.479</ele>
        <time>2021-04-01T09:09:38.349Z</time>
      </trkpt>
      <trkpt lat="43.0988108" lon="-2.7498777">
        <ele>155.439</ele>
        <time>2021-04-01T09:09:38.404Z</time>
      </trkpt>
      <trkpt lat="43.0988125" lon="-2.7498776">
        <ele>155.441</ele>
        <time>2021-04-01T09:09:38.459Z</time>
      </trkpt>
      <trkpt lat="43.0988142" lon="-2.7498774">
        <ele>155.446</ele>
        <time>2021-04-01T09:09:38.514Z</time>
      </trkpt>
      <trkpt lat="43.0988162" lon="-2.7498777">
        <ele>155.453</ele>
        <time>2021-04-01T09:09:38.569Z</time>
      </trkpt>
      <trkpt lat="43.098818" lon="-2.7498779">
        <ele>155.479</ele>
        <time>2021-04-01T09:09:38.624Z</time>
      </trkpt>
      <trkpt lat="43.0988201" lon="-2.7498782">
        <ele>155.48</ele>
        <time>2021-04-01T09:09:38.679Z</time>
      </trkpt>
      <trkpt lat="43.0988222" lon="-2.7498786">
        <ele>155.498</ele>
        <time>2021-04-01T09:09:38.734Z</time>
      </trkpt>
      <trkpt lat="43.0988242" lon="-2.749879">
        <ele>155.486</ele>
        <time>2021-04-01T09:09:38.789Z</time>
      </trkpt>
      <trkpt lat="43.098826" lon="-2.7498788">
        <ele>155.505</ele>
        <time>2021-04-01T09:09:38.844Z</time>
      </trkpt>
      <trkpt lat="43.0988278" lon="-2.7498788">
        <ele>155.544</ele>
        <time>2021-04-01T09:09:38.899Z</time>
      </trkpt>
      <trkpt lat="43.0988296" lon="-2.7498788">
        <ele>155.577</ele>
        <time>2021-04-01T09:09:38.954Z</time>
      </trkpt>
      <trkpt lat="43.0988315" lon="-2.7498788">
        <ele>155.596</ele>
        <time>2021-04-01T09:09:39.009Z</time>
      </trkpt>
      <trkpt lat="43.0988334" lon="-2.7498793">
        <ele>155.604</ele>
        <time>2021-04-01T09:09:39.064Z</time>
      </trkpt>
      <trkpt lat="43.0988352" lon="-2.7498799">
        <ele>155.622</ele>
        <time>2021-04-01T09:09:39.119Z</time>
      </trkpt>
      <trkpt lat="43.0988369" lon="-2.7498799">
        <ele>155.662</ele>
        <time>2021-04-01T09:09:39.174Z</time>
      </trkpt>
      <trkpt lat="43.0988388" lon="-2.7498804">
        <ele>155.702</ele>
        <time>2021-04-01T09:09:39.229Z</time>
      </trkpt>
      <trkpt lat="43.0988405" lon="-2.7498809">
        <ele>155.712</ele>
        <time>2021-04-01T09:09:39.284Z</time>
      </trkpt>
      <trkpt lat="43.0988422" lon="-2.7498813">
        <ele>155.704</ele>
        <time>2021-04-01T09:09:39.339Z</time>
      </trkpt>
      <trkpt lat="43.098844" lon="-2.7498811">
        <ele>155.745</ele>
        <time>2021-04-01T09:09:39.394Z</time>
      </trkpt>
      <trkpt lat="43.0988461" lon="-2.7498814">
        <ele>155.729</ele>
        <time>2021-04-01T09:09:39.449Z</time>
      </trkpt>
      <trkpt lat="43.0988478" lon="-2.749882">
        <ele>155.708</ele>
        <time>2021-04-01T09:09:39.504Z</time>
      </trkpt>
      <trkpt lat="43.0988496" lon="-2.7498827">
        <ele>155.678</ele>
        <time>2021-04-01T09:09:39.559Z</time>
      </trkpt>
      <trkpt lat="43.0988516" lon="-2.749883">
        <ele>155.668</ele>
        <time>2021-04-01T09:09:39.614Z</time>
      </trkpt>
      <trkpt lat="43.0988533" lon="-2.7498834">
        <ele>155.684</ele>
        <time>2021-04-01T09:09:39.669Z</time>
      </trkpt>
      <trkpt lat="43.098855" lon="-2.7498839">
        <ele>155.702</ele>
        <time>2021-04-01T09:09:39.724Z</time>
      </trkpt>
      <trkpt lat="43.0988567" lon="-2.7498844">
        <ele>155.704</ele>
        <time>2021-04-01T09:09:39.779Z</time>
      </trkpt>
      <trkpt lat="43.0988585" lon="-2.7498852">
        <ele>155.679</ele>
        <time>2021-04-01T09:09:39.834Z</time>
      </trkpt>
      <trkpt lat="43.0988604" lon="-2.7498857">
        <ele>155.672</ele>
        <time>2021-04-01T09:09:39.889Z</time>
      </trkpt>
      <trkpt lat="43.0988623" lon="-2.7498863">
        <ele>155.655</ele>
        <time>2021-04-01T09:09:39.944Z</time>
      </trkpt>
      <trkpt lat="43.098864" lon="-2.7498867">
        <ele>155.671</ele>
        <time>2021-04-01T09:09:39.999Z</time>
      </trkpt>
      <trkpt lat="43.0988657" lon="-2.7498869">
        <ele>155.68</ele>
        <time>2021-04-01T09:09:40.054Z</time>
      </trkpt>
      <trkpt lat="43.0988675" lon="-2.7498878">
        <ele>155.642</ele>
        <time>2021-04-01T09:09:40.109Z</time>
      </trkpt>
      <trkpt lat="43.0988692" lon="-2.7498882">
        <ele>155.611</ele>
        <time>2021-04-01T09:09:40.164Z</time>
      </trkpt>
      <trkpt lat="43.0988711" lon="-2.7498885">
        <ele>155.591</ele>
        <time>2021-04-01T09:09:40.219Z</time>
      </trkpt>
      <trkpt lat="43.0988728" lon="-2.7498884">
        <ele>155.633</ele>
        <time>2021-04-01T09:09:40.274Z</time>
      </trkpt>
      <trkpt lat="43.0988747" lon="-2.7498889">
        <ele>155.634</ele>
        <time>2021-04-01T09:09:40.329Z</time>
      </trkpt>
      <trkpt lat="43.0988764" lon="-2.7498892">
        <ele>155.61</ele>
        <time>2021-04-01T09:09:40.384Z</time>
      </trkpt>
      <trkpt lat="43.0988781" lon="-2.7498894">
        <ele>155.623</ele>
        <time>2021-04-01T09:09:40.439Z</time>
      </trkpt>
      <trkpt lat="43.0988797" lon="-2.7498892">
        <ele>155.668</ele>
        <time>2021-04-01T09:09:40.494Z</time>
      </trkpt>
      <trkpt lat="43.0988812" lon="-2.7498894">
        <ele>155.707</ele>
        <time>2021-04-01T09:09:40.549Z</time>
      </trkpt>
      <trkpt lat="43.0988829" lon="-2.7498894">
        <ele>155.772</ele>
        <time>2021-04-01T09:09:40.604Z</time>
      </trkpt>
      <trkpt lat="43.0988849" lon="-2.7498903">
        <ele>155.725</ele>
        <time>2021-04-01T09:09:40.659Z</time>
      </trkpt>
      <trkpt lat="43.0988869" lon="-2.7498906">
        <ele>155.703</ele>
        <time>2021-04-01T09:09:40.714Z</time>
      </trkpt>
      <trkpt lat="43.0988886" lon="-2.7498907">
        <ele>155.731</ele>
        <time>2021-04-01T09:09:40.769Z</time>
      </trkpt>
      <trkpt lat="43.0988905" lon="-2.749891">
        <ele>155.737</ele>
        <time>2021-04-01T09:09:40.824Z</time>
      </trkpt>
      <trkpt lat="43.0988924" lon="-2.7498915">
        <ele>155.761</ele>
        <time>2021-04-01T09:09:40.879Z</time>
      </trkpt>
      <trkpt lat="43.098894" lon="-2.7498918">
        <ele>155.78</ele>
        <time>2021-04-01T09:09:40.934Z</time>
      </trkpt>
      <trkpt lat="43.0988958" lon="-2.7498923">
        <ele>155.806</ele>
        <time>2021-04-01T09:09:40.989Z</time>
      </trkpt>
      <trkpt lat="43.0988974" lon="-2.7498925">
        <ele>155.865</ele>
        <time>2021-04-01T09:09:41.044Z</time>
      </trkpt>
      <trkpt lat="43.098899" lon="-2.749893">
        <ele>155.891</ele>
        <time>2021-04-01T09:09:41.099Z</time>
      </trkpt>
      <trkpt lat="43.0989005" lon="-2.7498933">
        <ele>155.895</ele>
        <time>2021-04-01T09:09:41.154Z</time>
      </trkpt>
      <trkpt lat="43.0989025" lon="-2.7498939">
        <ele>155.879</ele>
        <time>2021-04-01T09:09:41.209Z</time>
      </trkpt>
      <trkpt lat="43.0989041" lon="-2.7498937">
        <ele>155.916</ele>
        <time>2021-04-01T09:09:41.264Z</time>
      </trkpt>
      <trkpt lat="43.0989057" lon="-2.7498937">
        <ele>155.949</ele>
        <time>2021-04-01T09:09:41.319Z</time>
      </trkpt>
      <trkpt lat="43.0989076" lon="-2.7498944">
        <ele>155.943</ele>
        <time>2021-04-01T09:09:41.374Z</time>
      </trkpt>
      <trkpt lat="43.0989095" lon="-2.749895">
        <ele>155.935</ele>
        <time>2021-04-01T09:09:41.429Z</time>
      </trkpt>
      <trkpt lat="43.0989114" lon="-2.7498951">
        <ele>155.964</ele>
        <time>2021-04-01T09:09:41.484Z</time>
      </trkpt>
      <trkpt lat="43.0989133" lon="-2.7498959">
        <ele>155.953</ele>
        <time>2021-04-01T09:09:41.539Z</time>
      </trkpt>
      <trkpt lat="43.0989155" lon="-2.7498967">
        <ele>155.846</ele>
        <time>2021-04-01T09:09:41.594Z</time>
      </trkpt>
      <trkpt lat="43.0989169" lon="-2.7498963">
        <ele>155.947</ele>
        <time>2021-04-01T09:09:41.649Z</time>
      </trkpt>
      <trkpt lat="43.0989185" lon="-2.7498967">
        <ele>156.024</ele>
        <time>2021-04-01T09:09:41.704Z</time>
      </trkpt>
      <trkpt lat="43.09892" lon="-2.7498968">
        <ele>156.168</ele>
        <time>2021-04-01T09:09:41.759Z</time>
      </trkpt>
      <trkpt lat="43.0989216" lon="-2.749897">
        <ele>156.245</ele>
        <time>2021-04-01T09:09:41.814Z</time>
      </trkpt>
      <trkpt lat="43.0989232" lon="-2.7498971">
        <ele>156.318</ele>
        <time>2021-04-01T09:09:41.869Z</time>
      </trkpt>
      <trkpt lat="43.0989252" lon="-2.7498979">
        <ele>156.323</ele>
        <time>2021-04-01T09:09:41.924Z</time>
      </trkpt>
      <trkpt lat="43.0989268" lon="-2.7498977">
        <ele>156.377</ele>
        <time>2021-04-01T09:09:41.979Z</time>
      </trkpt>
      <trkpt lat="43.0989286" lon="-2.7498979">
        <ele>156.39</ele>
        <time>2021-04-01T09:09:42.034Z</time>
      </trkpt>
      <trkpt lat="43.0989305" lon="-2.7498987">
        <ele>156.365</ele>
        <time>2021-04-01T09:09:42.089Z</time>
      </trkpt>
      <trkpt lat="43.0989324" lon="-2.749899">
        <ele>156.373</ele>
        <time>2021-04-01T09:09:42.144Z</time>
      </trkpt>
      <trkpt lat="43.0989343" lon="-2.7498995">
        <ele>156.352</ele>
        <time>2021-04-01T09:09:42.199Z</time>
      </trkpt>
      <trkpt lat="43.0989362" lon="-2.7499001">
        <ele>156.329</ele>
        <time>2021-04-01T09:09:42.254Z</time>
      </trkpt>
      <trkpt lat="43.098938" lon="-2.7499009">
        <ele>156.325</ele>
        <time>2021-04-01T09:09:42.309Z</time>
      </trkpt>
      <trkpt lat="43.0989399" lon="-2.7499013">
        <ele>156.325</ele>
        <time>2021-04-01T09:09:42.364Z</time>
      </trkpt>
      <trkpt lat="43.0989418" lon="-2.7499022">
        <ele>156.301</ele>
        <time>2021-04-01T09:09:42.419Z</time>
      </trkpt>
      <trkpt lat="43.0989435" lon="-2.7499027">
        <ele>156.292</ele>
        <time>2021-04-01T09:09:42.474Z</time>
      </trkpt>
      <trkpt lat="43.0989452" lon="-2.7499031">
        <ele>156.306</ele>
        <time>2021-04-01T09:09:42.529Z</time>
      </trkpt>
      <trkpt lat="43.0989469" lon="-2.7499035">
        <ele>156.322</ele>
        <time>2021-04-01T09:09:42.584Z</time>
      </trkpt>
      <trkpt lat="43.0989487" lon="-2.7499041">
        <ele>156.333</ele>
        <time>2021-04-01T09:09:42.639Z</time>
      </trkpt>
      <trkpt lat="43.0989504" lon="-2.7499043">
        <ele>156.35</ele>
        <time>2021-04-01T09:09:42.694Z</time>
      </trkpt>
      <trkpt lat="43.0989522" lon="-2.7499047">
        <ele>156.347</ele>
        <time>2021-04-01T09:09:42.749Z</time>
      </trkpt>
      <trkpt lat="43.0989539" lon="-2.7499046">
        <ele>156.358</ele>
        <time>2021-04-01T09:09:42.804Z</time>
      </trkpt>
      <trkpt lat="43.0989558" lon="-2.7499045">
        <ele>156.358</ele>
        <time>2021-04-01T09:09:42.859Z</time>
      </trkpt>
      <trkpt lat="43.0989575" lon="-2.7499048">
        <ele>156.393</ele>
        <time>2021-04-01T09:09:42.914Z</time>
      </trkpt>
      <trkpt lat="43.0989591" lon="-2.7499051">
        <ele>156.395</ele>
        <time>2021-04-01T09:09:42.969Z</time>
      </trkpt>
      <trkpt lat="43.0989608" lon="-2.7499053">
        <ele>156.403</ele>
        <time>2021-04-01T09:09:43.024Z</time>
      </trkpt>
      <trkpt lat="43.0989625" lon="-2.7499051">
        <ele>156.433</ele>
        <time>2021-04-01T09:09:43.079Z</time>
      </trkpt>
      <trkpt lat="43.0989641" lon="-2.7499053">
        <ele>156.497</ele>
        <time>2021-04-01T09:09:43.134Z</time>
      </trkpt>
      <trkpt lat="43.0989658" lon="-2.7499057">
        <ele>156.49</ele>
        <time>2021-04-01T09:09:43.189Z</time>
      </trkpt>
      <trkpt lat="43.0989675" lon="-2.7499064">
        <ele>156.457</ele>
        <time>2021-04-01T09:09:43.244Z</time>
      </trkpt>
      <trkpt lat="43.0989692" lon="-2.7499069">
        <ele>156.463</ele>
        <time>2021-04-01T09:09:43.299Z</time>
      </trkpt>
      <trkpt lat="43.0989709" lon="-2.7499072">
        <ele>156.491</ele>
        <time>2021-04-01T09:09:43.354Z</time>
      </trkpt>
      <trkpt lat="43.0989724" lon="-2.7499074">
        <ele>156.524</ele>
        <time>2021-04-01T09:09:43.409Z</time>
      </trkpt>
      <trkpt lat="43.0989741" lon="-2.7499081">
        <ele>156.501</ele>
        <time>2021-04-01T09:09:43.464Z</time>
      </trkpt>
      <trkpt lat="43.0989757" lon="-2.7499084">
        <ele>156.532</ele>
        <time>2021-04-01T09:09:43.519Z</time>
      </trkpt>
      <trkpt lat="43.0989773" lon="-2.7499084">
        <ele>156.609</ele>
        <time>2021-04-01T09:09:43.574Z</time>
      </trkpt>
      <trkpt lat="43.0989792" lon="-2.7499093">
        <ele>156.592</ele>
        <time>2021-04-01T09:09:43.629Z</time>
      </trkpt>
      <trkpt lat="43.0989809" lon="-2.7499103">
        <ele>156.597</ele>
        <time>2021-04-01T09:09:43.684Z</time>
      </trkpt>
      <trkpt lat="43.0989826" lon="-2.7499108">
        <ele>156.639</ele>
        <time>2021-04-01T09:09:43.739Z</time>
      </trkpt>
      <trkpt lat="43.0989844" lon="-2.7499111">
        <ele>156.689</ele>
        <time>2021-04-01T09:09:43.794Z</time>
      </trkpt>
      <trkpt lat="43.0989861" lon="-2.7499118">
        <ele>156.729</ele>
        <time>2021-04-01T09:09:43.849Z</time>
      </trkpt>
      <trkpt lat="43.0989879" lon="-2.7499131">
        <ele>156.722</ele>
        <time>2021-04-01T09:09:43.904Z</time>
      </trkpt>
      <trkpt lat="43.0989895" lon="-2.7499137">
        <ele>156.761</ele>
        <time>2021-04-01T09:09:43.959Z</time>
      </trkpt>
      <trkpt lat="43.0989912" lon="-2.749914">
        <ele>156.818</ele>
        <time>2021-04-01T09:09:44.014Z</time>
      </trkpt>
      <trkpt lat="43.0989929" lon="-2.7499144">
        <ele>156.887</ele>
        <time>2021-04-01T09:09:44.069Z</time>
      </trkpt>
      <trkpt lat="43.0989947" lon="-2.7499148">
        <ele>156.849</ele>
        <time>2021-04-01T09:09:44.124Z</time>
      </trkpt>
      <trkpt lat="43.0989964" lon="-2.7499157">
        <ele>156.83</ele>
        <time>2021-04-01T09:09:44.179Z</time>
      </trkpt>
      <trkpt lat="43.0989984" lon="-2.7499159">
        <ele>156.833</ele>
        <time>2021-04-01T09:09:44.234Z</time>
      </trkpt>
      <trkpt lat="43.0990002" lon="-2.7499162">
        <ele>156.852</ele>
        <time>2021-04-01T09:09:44.289Z</time>
      </trkpt>
      <trkpt lat="43.0990021" lon="-2.7499167">
        <ele>156.865</ele>
        <time>2021-04-01T09:09:44.344Z</time>
      </trkpt>
      <trkpt lat="43.0990039" lon="-2.7499173">
        <ele>156.861</ele>
        <time>2021-04-01T09:09:44.399Z</time>
      </trkpt>
      <trkpt lat="43.0990058" lon="-2.749918">
        <ele>156.853</ele>
        <time>2021-04-01T09:09:44.454Z</time>
      </trkpt>
      <trkpt lat="43.0990076" lon="-2.7499184">
        <ele>156.864</ele>
        <time>2021-04-01T09:09:44.509Z</time>
      </trkpt>
      <trkpt lat="43.0990093" lon="-2.7499183">
        <ele>156.892</ele>
        <time>2021-04-01T09:09:44.564Z</time>
      </trkpt>
      <trkpt lat="43.0990113" lon="-2.7499187">
        <ele>156.896</ele>
        <time>2021-04-01T09:09:44.619Z</time>
      </trkpt>
      <trkpt lat="43.099013" lon="-2.7499185">
        <ele>156.907</ele>
        <time>2021-04-01T09:09:44.674Z</time>
      </trkpt>
      <trkpt lat="43.0990151" lon="-2.7499188">
        <ele>156.901</ele>
        <time>2021-04-01T09:09:44.729Z</time>
      </trkpt>
      <trkpt lat="43.099017" lon="-2.7499192">
        <ele>156.915</ele>
        <time>2021-04-01T09:09:44.784Z</time>
      </trkpt>
      <trkpt lat="43.0990188" lon="-2.7499193">
        <ele>156.93</ele>
        <time>2021-04-01T09:09:44.839Z</time>
      </trkpt>
      <trkpt lat="43.0990206" lon="-2.7499202">
        <ele>156.898</ele>
        <time>2021-04-01T09:09:44.894Z</time>
      </trkpt>
      <trkpt lat="43.0990223" lon="-2.7499202">
        <ele>156.914</ele>
        <time>2021-04-01T09:09:44.949Z</time>
      </trkpt>
      <trkpt lat="43.0990242" lon="-2.74992">
        <ele>156.935</ele>
        <time>2021-04-01T09:09:45.004Z</time>
      </trkpt>
      <trkpt lat="43.099026" lon="-2.7499199">
        <ele>156.944</ele>
        <time>2021-04-01T09:09:45.059Z</time>
      </trkpt>
      <trkpt lat="43.0990279" lon="-2.7499199">
        <ele>156.967</ele>
        <time>2021-04-01T09:09:45.114Z</time>
      </trkpt>
      <trkpt lat="43.0990299" lon="-2.7499198">
        <ele>157.007</ele>
        <time>2021-04-01T09:09:45.169Z</time>
      </trkpt>
      <trkpt lat="43.0990316" lon="-2.7499206">
        <ele>157.013</ele>
        <time>2021-04-01T09:09:45.224Z</time>
      </trkpt>
      <trkpt lat="43.0990334" lon="-2.7499209">
        <ele>157.063</ele>
        <time>2021-04-01T09:09:45.279Z</time>
      </trkpt>
      <trkpt lat="43.0990351" lon="-2.7499203">
        <ele>157.16</ele>
        <time>2021-04-01T09:09:45.334Z</time>
      </trkpt>
      <trkpt lat="43.0990369" lon="-2.7499204">
        <ele>157.262</ele>
        <time>2021-04-01T09:09:45.389Z</time>
      </trkpt>
      <trkpt lat="43.0990385" lon="-2.7499205">
        <ele>157.31</ele>
        <time>2021-04-01T09:09:45.444Z</time>
      </trkpt>
      <trkpt lat="43.0990403" lon="-2.7499203">
        <ele>157.355</ele>
        <time>2021-04-01T09:09:45.499Z</time>
      </trkpt>
      <trkpt lat="43.0990421" lon="-2.7499199">
        <ele>157.411</ele>
        <time>2021-04-01T09:09:45.554Z</time>
      </trkpt>
      <trkpt lat="43.099044" lon="-2.7499209">
        <ele>157.397</ele>
        <time>2021-04-01T09:09:45.609Z</time>
      </trkpt>
      <trkpt lat="43.0990459" lon="-2.7499214">
        <ele>157.42</ele>
        <time>2021-04-01T09:09:45.664Z</time>
      </trkpt>
      <trkpt lat="43.0990479" lon="-2.7499214">
        <ele>157.462</ele>
        <time>2021-04-01T09:09:45.719Z</time>
      </trkpt>
      <trkpt lat="43.0990497" lon="-2.7499221">
        <ele>157.461</ele>
        <time>2021-04-01T09:09:45.774Z</time>
      </trkpt>
      <trkpt lat="43.0990515" lon="-2.7499224">
        <ele>157.468</ele>
        <time>2021-04-01T09:09:45.829Z</time>
      </trkpt>
      <trkpt lat="43.0990535" lon="-2.7499224">
        <ele>157.485</ele>
        <time>2021-04-01T09:09:45.884Z</time>
      </trkpt>
      <trkpt lat="43.099056" lon="-2.7499233">
        <ele>157.454</ele>
        <time>2021-04-01T09:09:45.939Z</time>
      </trkpt>
      <trkpt lat="43.099058" lon="-2.749924">
        <ele>157.438</ele>
        <time>2021-04-01T09:09:45.994Z</time>
      </trkpt>
      <trkpt lat="43.0990599" lon="-2.7499244">
        <ele>157.429</ele>
        <time>2021-04-01T09:09:46.049Z</time>
      </trkpt>
      <trkpt lat="43.0990613" lon="-2.7499237">
        <ele>157.428</ele>
        <time>2021-04-01T09:09:46.104Z</time>
      </trkpt>
      <trkpt lat="43.0990635" lon="-2.7499247">
        <ele>157.37</ele>
        <time>2021-04-01T09:09:46.159Z</time>
      </trkpt>
      <trkpt lat="43.0990658" lon="-2.7499255">
        <ele>157.327</ele>
        <time>2021-04-01T09:09:46.214Z</time>
      </trkpt>
      <trkpt lat="43.0990679" lon="-2.7499257">
        <ele>157.292</ele>
        <time>2021-04-01T09:09:46.269Z</time>
      </trkpt>
      <trkpt lat="43.0990698" lon="-2.749926">
        <ele>157.304</ele>
        <time>2021-04-01T09:09:46.324Z</time>
      </trkpt>
      <trkpt lat="43.0990716" lon="-2.7499258">
        <ele>157.33</ele>
        <time>2021-04-01T09:09:46.379Z</time>
      </trkpt>
      <trkpt lat="43.0990736" lon="-2.7499264">
        <ele>157.332</ele>
        <time>2021-04-01T09:09:46.434Z</time>
      </trkpt>
      <trkpt lat="43.0990756" lon="-2.7499272">
        <ele>157.343</ele>
        <time>2021-04-01T09:09:46.489Z</time>
      </trkpt>
      <trkpt lat="43.0990774" lon="-2.7499278">
        <ele>157.341</ele>
        <time>2021-04-01T09:09:46.544Z</time>
      </trkpt>
      <trkpt lat="43.0990793" lon="-2.7499284">
        <ele>157.329</ele>
        <time>2021-04-01T09:09:46.599Z</time>
      </trkpt>
      <trkpt lat="43.0990811" lon="-2.749928">
        <ele>157.376</ele>
        <time>2021-04-01T09:09:46.654Z</time>
      </trkpt>
      <trkpt lat="43.0990834" lon="-2.749929">
        <ele>157.372</ele>
        <time>2021-04-01T09:09:46.709Z</time>
      </trkpt>
      <trkpt lat="43.0990847" lon="-2.7499293">
        <ele>157.421</ele>
        <time>2021-04-01T09:09:46.764Z</time>
      </trkpt>
      <trkpt lat="43.0990872" lon="-2.7499304">
        <ele>157.42</ele>
        <time>2021-04-01T09:09:46.819Z</time>
      </trkpt>
      <trkpt lat="43.0990897" lon="-2.749931">
        <ele>157.453</ele>
        <time>2021-04-01T09:09:46.874Z</time>
      </trkpt>
      <trkpt lat="43.0990919" lon="-2.7499314">
        <ele>157.43</ele>
        <time>2021-04-01T09:09:46.929Z</time>
      </trkpt>
      <trkpt lat="43.0990939" lon="-2.7499325">
        <ele>157.359</ele>
        <time>2021-04-01T09:09:46.984Z</time>
      </trkpt>
      <trkpt lat="43.0990956" lon="-2.7499327">
        <ele>157.333</ele>
        <time>2021-04-01T09:09:47.039Z</time>
      </trkpt>
      <trkpt lat="43.0990975" lon="-2.7499327">
        <ele>157.319</ele>
        <time>2021-04-01T09:09:47.094Z</time>
      </trkpt>
      <trkpt lat="43.0990997" lon="-2.7499335">
        <ele>157.323</ele>
        <time>2021-04-01T09:09:47.149Z</time>
      </trkpt>
      <trkpt lat="43.0991021" lon="-2.7499343">
        <ele>157.34</ele>
        <time>2021-04-01T09:09:47.204Z</time>
      </trkpt>
      <trkpt lat="43.0991043" lon="-2.7499355">
        <ele>157.298</ele>
        <time>2021-04-01T09:09:47.259Z</time>
      </trkpt>
      <trkpt lat="43.0991067" lon="-2.7499366">
        <ele>157.272</ele>
        <time>2021-04-01T09:09:47.314Z</time>
      </trkpt>
      <trkpt lat="43.099109" lon="-2.7499375">
        <ele>157.242</ele>
        <time>2021-04-01T09:09:47.369Z</time>
      </trkpt>
      <trkpt lat="43.0991108" lon="-2.7499377">
        <ele>157.166</ele>
        <time>2021-04-01T09:09:47.424Z</time>
      </trkpt>
      <trkpt lat="43.0991129" lon="-2.7499379">
        <ele>157.116</ele>
        <time>2021-04-01T09:09:47.479Z</time>
      </trkpt>
      <trkpt lat="43.0991147" lon="-2.749938">
        <ele>157.08</ele>
        <time>2021-04-01T09:09:47.534Z</time>
      </trkpt>
      <trkpt lat="43.0991166" lon="-2.7499384">
        <ele>157.065</ele>
        <time>2021-04-01T09:09:47.586Z</time>
      </trkpt>
      <trkpt lat="43.0991185" lon="-2.7499389">
        <ele>157.032</ele>
        <time>2021-04-01T09:09:47.638Z</time>
      </trkpt>
      <trkpt lat="43.0991206" lon="-2.7499395">
        <ele>157.008</ele>
        <time>2021-04-01T09:09:47.690Z</time>
      </trkpt>
      <trkpt lat="43.0991228" lon="-2.7499396">
        <ele>156.979</ele>
        <time>2021-04-01T09:09:47.742Z</time>
      </trkpt>
      <trkpt lat="43.0991246" lon="-2.7499405">
        <ele>156.96</ele>
        <time>2021-04-01T09:09:47.794Z</time>
      </trkpt>
      <trkpt lat="43.0991267" lon="-2.7499414">
        <ele>156.901</ele>
        <time>2021-04-01T09:09:47.846Z</time>
      </trkpt>
      <trkpt lat="43.0991287" lon="-2.7499426">
        <ele>156.868</ele>
        <time>2021-04-01T09:09:47.898Z</time>
      </trkpt>
      <trkpt lat="43.0991308" lon="-2.7499438">
        <ele>156.829</ele>
        <time>2021-04-01T09:09:47.950Z</time>
      </trkpt>
      <trkpt lat="43.0991327" lon="-2.749944">
        <ele>156.835</ele>
        <time>2021-04-01T09:09:48.002Z</time>
      </trkpt>
      <trkpt lat="43.0991345" lon="-2.7499444">
        <ele>156.817</ele>
        <time>2021-04-01T09:09:48.055Z</time>
      </trkpt>
      <trkpt lat="43.0991363" lon="-2.7499454">
        <ele>156.792</ele>
        <time>2021-04-01T09:09:48.107Z</time>
      </trkpt>
      <trkpt lat="43.099138" lon="-2.7499463">
        <ele>156.8</ele>
        <time>2021-04-01T09:09:48.159Z</time>
      </trkpt>
      <trkpt lat="43.0991397" lon="-2.7499465">
        <ele>156.818</ele>
        <time>2021-04-01T09:09:48.211Z</time>
      </trkpt>
      <trkpt lat="43.0991413" lon="-2.7499458">
        <ele>156.842</ele>
        <time>2021-04-01T09:09:48.263Z</time>
      </trkpt>
      <trkpt lat="43.0991427" lon="-2.7499462">
        <ele>156.833</ele>
        <time>2021-04-01T09:09:48.315Z</time>
      </trkpt>
      <trkpt lat="43.0991442" lon="-2.7499478">
        <ele>156.777</ele>
        <time>2021-04-01T09:09:48.367Z</time>
      </trkpt>
      <trkpt lat="43.0991461" lon="-2.7499485">
        <ele>156.763</ele>
        <time>2021-04-01T09:09:48.419Z</time>
      </trkpt>
      <trkpt lat="43.0991486" lon="-2.7499488">
        <ele>156.665</ele>
        <time>2021-04-01T09:09:48.471Z</time>
      </trkpt>
      <trkpt lat="43.0991508" lon="-2.7499494">
        <ele>156.626</ele>
        <time>2021-04-01T09:09:48.524Z</time>
      </trkpt>
      <trkpt lat="43.0991535" lon="-2.7499509">
        <ele>156.446</ele>
        <time>2021-04-01T09:09:48.582Z</time>
      </trkpt>
      <trkpt lat="43.0991555" lon="-2.7499509">
        <ele>156.461</ele>
        <time>2021-04-01T09:09:48.640Z</time>
      </trkpt>
      <trkpt lat="43.0991577" lon="-2.7499516">
        <ele>156.461</ele>
        <time>2021-04-01T09:09:48.698Z</time>
      </trkpt>
      <trkpt lat="43.0991598" lon="-2.749952">
        <ele>156.51</ele>
        <time>2021-04-01T09:09:48.756Z</time>
      </trkpt>
      <trkpt lat="43.0991617" lon="-2.7499525">
        <ele>156.634</ele>
        <time>2021-04-01T09:09:48.815Z</time>
      </trkpt>
      <trkpt lat="43.0991635" lon="-2.7499528">
        <ele>156.704</ele>
        <time>2021-04-01T09:09:48.873Z</time>
      </trkpt>
      <trkpt lat="43.0991653" lon="-2.7499534">
        <ele>156.76</ele>
        <time>2021-04-01T09:09:48.931Z</time>
      </trkpt>
      <trkpt lat="43.0991673" lon="-2.7499542">
        <ele>156.701</ele>
        <time>2021-04-01T09:09:48.989Z</time>
      </trkpt>
      <trkpt lat="43.0991693" lon="-2.7499553">
        <ele>156.672</ele>
        <time>2021-04-01T09:09:49.048Z</time>
      </trkpt>
      <trkpt lat="43.099171" lon="-2.7499558">
        <ele>156.726</ele>
        <time>2021-04-01T09:09:49.106Z</time>
      </trkpt>
      <trkpt lat="43.0991727" lon="-2.7499563">
        <ele>156.76</ele>
        <time>2021-04-01T09:09:49.164Z</time>
      </trkpt>
      <trkpt lat="43.0991746" lon="-2.749956">
        <ele>156.847</ele>
        <time>2021-04-01T09:09:49.222Z</time>
      </trkpt>
      <trkpt lat="43.0991764" lon="-2.7499561">
        <ele>156.872</ele>
        <time>2021-04-01T09:09:49.281Z</time>
      </trkpt>
      <trkpt lat="43.0991782" lon="-2.7499561">
        <ele>156.912</ele>
        <time>2021-04-01T09:09:49.339Z</time>
      </trkpt>
      <trkpt lat="43.09918" lon="-2.7499562">
        <ele>156.925</ele>
        <time>2021-04-01T09:09:49.397Z</time>
      </trkpt>
      <trkpt lat="43.0991819" lon="-2.7499563">
        <ele>156.952</ele>
        <time>2021-04-01T09:09:49.455Z</time>
      </trkpt>
      <trkpt lat="43.0991838" lon="-2.7499566">
        <ele>156.98</ele>
        <time>2021-04-01T09:09:49.514Z</time>
      </trkpt>
      <trkpt lat="43.0991857" lon="-2.7499566">
        <ele>157.016</ele>
        <time>2021-04-01T09:09:49.569Z</time>
      </trkpt>
      <trkpt lat="43.0991875" lon="-2.7499556">
        <ele>157.134</ele>
        <time>2021-04-01T09:09:49.624Z</time>
      </trkpt>
      <trkpt lat="43.0991895" lon="-2.7499572">
        <ele>157.054</ele>
        <time>2021-04-01T09:09:49.679Z</time>
      </trkpt>
      <trkpt lat="43.0991917" lon="-2.7499573">
        <ele>157.099</ele>
        <time>2021-04-01T09:09:49.734Z</time>
      </trkpt>
      <trkpt lat="43.0991934" lon="-2.7499577">
        <ele>157.224</ele>
        <time>2021-04-01T09:09:49.789Z</time>
      </trkpt>
      <trkpt lat="43.0991951" lon="-2.7499575">
        <ele>157.367</ele>
        <time>2021-04-01T09:09:49.844Z</time>
      </trkpt>
      <trkpt lat="43.0991973" lon="-2.749959">
        <ele>157.313</ele>
        <time>2021-04-01T09:09:49.899Z</time>
      </trkpt>
      <trkpt lat="43.0991994" lon="-2.7499599">
        <ele>157.281</ele>
        <time>2021-04-01T09:09:49.954Z</time>
      </trkpt>
      <trkpt lat="43.0992012" lon="-2.7499596">
        <ele>157.37</ele>
        <time>2021-04-01T09:09:50.009Z</time>
      </trkpt>
      <trkpt lat="43.0992032" lon="-2.7499604">
        <ele>157.321</ele>
        <time>2021-04-01T09:09:50.064Z</time>
      </trkpt>
      <trkpt lat="43.099205" lon="-2.7499602">
        <ele>157.343</ele>
        <time>2021-04-01T09:09:50.119Z</time>
      </trkpt>
      <trkpt lat="43.0992076" lon="-2.749961">
        <ele>157.336</ele>
        <time>2021-04-01T09:09:50.174Z</time>
      </trkpt>
      <trkpt lat="43.0992096" lon="-2.7499613">
        <ele>157.332</ele>
        <time>2021-04-01T09:09:50.229Z</time>
      </trkpt>
      <trkpt lat="43.0992116" lon="-2.7499618">
        <ele>157.334</ele>
        <time>2021-04-01T09:09:50.284Z</time>
      </trkpt>
      <trkpt lat="43.0992139" lon="-2.7499625">
        <ele>157.277</ele>
        <time>2021-04-01T09:09:50.339Z</time>
      </trkpt>
      <trkpt lat="43.0992165" lon="-2.7499637">
        <ele>157.196</ele>
        <time>2021-04-01T09:09:50.394Z</time>
      </trkpt>
      <trkpt lat="43.0992187" lon="-2.7499641">
        <ele>157.155</ele>
        <time>2021-04-01T09:09:50.449Z</time>
      </trkpt>
      <trkpt lat="43.0992207" lon="-2.7499636">
        <ele>157.179</ele>
        <time>2021-04-01T09:09:50.504Z</time>
      </trkpt>
      <trkpt lat="43.0992226" lon="-2.749964">
        <ele>157.144</ele>
        <time>2021-04-01T09:09:50.559Z</time>
      </trkpt>
      <trkpt lat="43.0992248" lon="-2.7499651">
        <ele>157.07</ele>
        <time>2021-04-01T09:09:50.614Z</time>
      </trkpt>
      <trkpt lat="43.0992272" lon="-2.7499657">
        <ele>157.021</ele>
        <time>2021-04-01T09:09:50.669Z</time>
      </trkpt>
      <trkpt lat="43.0992292" lon="-2.7499653">
        <ele>157.07</ele>
        <time>2021-04-01T09:09:50.724Z</time>
      </trkpt>
      <trkpt lat="43.0992311" lon="-2.7499649">
        <ele>157.127</ele>
        <time>2021-04-01T09:09:50.779Z</time>
      </trkpt>
      <trkpt lat="43.0992331" lon="-2.7499655">
        <ele>157.073</ele>
        <time>2021-04-01T09:09:50.834Z</time>
      </trkpt>
      <trkpt lat="43.0992354" lon="-2.7499667">
        <ele>157.001</ele>
        <time>2021-04-01T09:09:50.889Z</time>
      </trkpt>
      <trkpt lat="43.0992373" lon="-2.749966">
        <ele>157.014</ele>
        <time>2021-04-01T09:09:50.944Z</time>
      </trkpt>
      <trkpt lat="43.09924" lon="-2.7499675">
        <ele>156.873</ele>
        <time>2021-04-01T09:09:50.999Z</time>
      </trkpt>
      <trkpt lat="43.0992424" lon="-2.7499684">
        <ele>156.843</ele>
        <time>2021-04-01T09:09:51.054Z</time>
      </trkpt>
      <trkpt lat="43.0992446" lon="-2.7499683">
        <ele>156.859</ele>
        <time>2021-04-01T09:09:51.109Z</time>
      </trkpt>
      <trkpt lat="43.0992468" lon="-2.749969">
        <ele>156.853</ele>
        <time>2021-04-01T09:09:51.164Z</time>
      </trkpt>
      <trkpt lat="43.0992487" lon="-2.7499694">
        <ele>156.886</ele>
        <time>2021-04-01T09:09:51.219Z</time>
      </trkpt>
      <trkpt lat="43.0992505" lon="-2.7499679">
        <ele>157.008</ele>
        <time>2021-04-01T09:09:51.274Z</time>
      </trkpt>
      <trkpt lat="43.0992525" lon="-2.7499682">
        <ele>157.059</ele>
        <time>2021-04-01T09:09:51.329Z</time>
      </trkpt>
      <trkpt lat="43.0992548" lon="-2.7499686">
        <ele>157.114</ele>
        <time>2021-04-01T09:09:51.384Z</time>
      </trkpt>
      <trkpt lat="43.0992567" lon="-2.7499685">
        <ele>157.183</ele>
        <time>2021-04-01T09:09:51.439Z</time>
      </trkpt>
      <trkpt lat="43.0992588" lon="-2.7499686">
        <ele>157.233</ele>
        <time>2021-04-01T09:09:51.494Z</time>
      </trkpt>
      <trkpt lat="43.099261" lon="-2.7499687">
        <ele>157.252</ele>
        <time>2021-04-01T09:09:51.549Z</time>
      </trkpt>
      <trkpt lat="43.099263" lon="-2.7499688">
        <ele>157.276</ele>
        <time>2021-04-01T09:09:51.604Z</time>
      </trkpt>
      <trkpt lat="43.0992653" lon="-2.7499693">
        <ele>157.279</ele>
        <time>2021-04-01T09:09:51.659Z</time>
      </trkpt>
      <trkpt lat="43.0992675" lon="-2.7499694">
        <ele>157.282</ele>
        <time>2021-04-01T09:09:51.714Z</time>
      </trkpt>
      <trkpt lat="43.0992697" lon="-2.7499697">
        <ele>157.255</ele>
        <time>2021-04-01T09:09:51.769Z</time>
      </trkpt>
      <trkpt lat="43.0992717" lon="-2.7499697">
        <ele>157.297</ele>
        <time>2021-04-01T09:09:51.824Z</time>
      </trkpt>
      <trkpt lat="43.0992738" lon="-2.74997">
        <ele>157.317</ele>
        <time>2021-04-01T09:09:51.879Z</time>
      </trkpt>
      <trkpt lat="43.0992762" lon="-2.7499703">
        <ele>157.342</ele>
        <time>2021-04-01T09:09:51.934Z</time>
      </trkpt>
      <trkpt lat="43.0992784" lon="-2.7499705">
        <ele>157.357</ele>
        <time>2021-04-01T09:09:51.989Z</time>
      </trkpt>
      <trkpt lat="43.0992805" lon="-2.7499711">
        <ele>157.368</ele>
        <time>2021-04-01T09:09:52.044Z</time>
      </trkpt>
      <trkpt lat="43.0992825" lon="-2.7499715">
        <ele>157.41</ele>
        <time>2021-04-01T09:09:52.099Z</time>
      </trkpt>
      <trkpt lat="43.0992844" lon="-2.7499719">
        <ele>157.451</ele>
        <time>2021-04-01T09:09:52.154Z</time>
      </trkpt>
      <trkpt lat="43.0992868" lon="-2.7499724">
        <ele>157.48</ele>
        <time>2021-04-01T09:09:52.209Z</time>
      </trkpt>
      <trkpt lat="43.0992891" lon="-2.7499729">
        <ele>157.494</ele>
        <time>2021-04-01T09:09:52.264Z</time>
      </trkpt>
      <trkpt lat="43.0992912" lon="-2.7499735">
        <ele>157.492</ele>
        <time>2021-04-01T09:09:52.319Z</time>
      </trkpt>
      <trkpt lat="43.0992931" lon="-2.749974">
        <ele>157.48</ele>
        <time>2021-04-01T09:09:52.374Z</time>
      </trkpt>
      <trkpt lat="43.0992948" lon="-2.749974">
        <ele>157.492</ele>
        <time>2021-04-01T09:09:52.429Z</time>
      </trkpt>
      <trkpt lat="43.0992964" lon="-2.7499739">
        <ele>157.53</ele>
        <time>2021-04-01T09:09:52.484Z</time>
      </trkpt>
      <trkpt lat="43.0992985" lon="-2.7499747">
        <ele>157.539</ele>
        <time>2021-04-01T09:09:52.539Z</time>
      </trkpt>
      <trkpt lat="43.0993004" lon="-2.7499745">
        <ele>157.598</ele>
        <time>2021-04-01T09:09:52.594Z</time>
      </trkpt>
      <trkpt lat="43.0993023" lon="-2.749975">
        <ele>157.604</ele>
        <time>2021-04-01T09:09:52.649Z</time>
      </trkpt>
      <trkpt lat="43.0993042" lon="-2.7499749">
        <ele>157.636</ele>
        <time>2021-04-01T09:09:52.704Z</time>
      </trkpt>
      <trkpt lat="43.0993063" lon="-2.7499742">
        <ele>157.702</ele>
        <time>2021-04-01T09:09:52.759Z</time>
      </trkpt>
      <trkpt lat="43.0993086" lon="-2.7499751">
        <ele>157.698</ele>
        <time>2021-04-01T09:09:52.814Z</time>
      </trkpt>
      <trkpt lat="43.0993106" lon="-2.7499766">
        <ele>157.693</ele>
        <time>2021-04-01T09:09:52.869Z</time>
      </trkpt>
      <trkpt lat="43.0993122" lon="-2.7499772">
        <ele>157.725</ele>
        <time>2021-04-01T09:09:52.924Z</time>
      </trkpt>
      <trkpt lat="43.0993144" lon="-2.7499779">
        <ele>157.756</ele>
        <time>2021-04-01T09:09:52.979Z</time>
      </trkpt>
      <trkpt lat="43.0993166" lon="-2.7499794">
        <ele>157.744</ele>
        <time>2021-04-01T09:09:53.034Z</time>
      </trkpt>
      <trkpt lat="43.0993189" lon="-2.7499804">
        <ele>157.752</ele>
        <time>2021-04-01T09:09:53.089Z</time>
      </trkpt>
      <trkpt lat="43.0993206" lon="-2.7499801">
        <ele>157.742</ele>
        <time>2021-04-01T09:09:53.144Z</time>
      </trkpt>
      <trkpt lat="43.0993226" lon="-2.7499804">
        <ele>157.77</ele>
        <time>2021-04-01T09:09:53.199Z</time>
      </trkpt>
      <trkpt lat="43.0993246" lon="-2.7499808">
        <ele>157.824</ele>
        <time>2021-04-01T09:09:53.254Z</time>
      </trkpt>
      <trkpt lat="43.0993264" lon="-2.7499808">
        <ele>157.896</ele>
        <time>2021-04-01T09:09:53.309Z</time>
      </trkpt>
      <trkpt lat="43.0993278" lon="-2.7499799">
        <ele>158.049</ele>
        <time>2021-04-01T09:09:53.364Z</time>
      </trkpt>
      <trkpt lat="43.0993298" lon="-2.7499801">
        <ele>158.075</ele>
        <time>2021-04-01T09:09:53.419Z</time>
      </trkpt>
      <trkpt lat="43.0993318" lon="-2.7499805">
        <ele>158.089</ele>
        <time>2021-04-01T09:09:53.474Z</time>
      </trkpt>
      <trkpt lat="43.0993337" lon="-2.749981">
        <ele>158.036</ele>
        <time>2021-04-01T09:09:53.529Z</time>
      </trkpt>
      <trkpt lat="43.0993359" lon="-2.749981">
        <ele>157.953</ele>
        <time>2021-04-01T09:09:53.584Z</time>
      </trkpt>
      <trkpt lat="43.0993382" lon="-2.7499815">
        <ele>157.876</ele>
        <time>2021-04-01T09:09:53.639Z</time>
      </trkpt>
      <trkpt lat="43.0993401" lon="-2.749982">
        <ele>157.869</ele>
        <time>2021-04-01T09:09:53.694Z</time>
      </trkpt>
      <trkpt lat="43.0993418" lon="-2.7499822">
        <ele>157.863</ele>
        <time>2021-04-01T09:09:53.749Z</time>
      </trkpt>
      <trkpt lat="43.0993438" lon="-2.749982">
        <ele>157.872</ele>
        <time>2021-04-01T09:09:53.804Z</time>
      </trkpt>
      <trkpt lat="43.0993456" lon="-2.7499817">
        <ele>157.894</ele>
        <time>2021-04-01T09:09:53.859Z</time>
      </trkpt>
      <trkpt lat="43.0993474" lon="-2.7499816">
        <ele>157.893</ele>
        <time>2021-04-01T09:09:53.914Z</time>
      </trkpt>
      <trkpt lat="43.0993493" lon="-2.749982">
        <ele>157.884</ele>
        <time>2021-04-01T09:09:53.969Z</time>
      </trkpt>
      <trkpt lat="43.0993509" lon="-2.7499819">
        <ele>157.936</ele>
        <time>2021-04-01T09:09:54.024Z</time>
      </trkpt>
      <trkpt lat="43.0993524" lon="-2.7499821">
        <ele>157.959</ele>
        <time>2021-04-01T09:09:54.079Z</time>
      </trkpt>
      <trkpt lat="43.0993539" lon="-2.7499818">
        <ele>158.032</ele>
        <time>2021-04-01T09:09:54.134Z</time>
      </trkpt>
      <trkpt lat="43.0993555" lon="-2.7499817">
        <ele>158.088</ele>
        <time>2021-04-01T09:09:54.189Z</time>
      </trkpt>
      <trkpt lat="43.0993571" lon="-2.7499815">
        <ele>158.169</ele>
        <time>2021-04-01T09:09:54.244Z</time>
      </trkpt>
      <trkpt lat="43.0993585" lon="-2.7499814">
        <ele>158.227</ele>
        <time>2021-04-01T09:09:54.299Z</time>
      </trkpt>
      <trkpt lat="43.0993599" lon="-2.7499809">
        <ele>158.295</ele>
        <time>2021-04-01T09:09:54.354Z</time>
      </trkpt>
      <trkpt lat="43.0993614" lon="-2.7499814">
        <ele>158.339</ele>
        <time>2021-04-01T09:09:54.409Z</time>
      </trkpt>
      <trkpt lat="43.0993627" lon="-2.749981">
        <ele>158.41</ele>
        <time>2021-04-01T09:09:54.464Z</time>
      </trkpt>
      <trkpt lat="43.0993642" lon="-2.7499809">
        <ele>158.464</ele>
        <time>2021-04-01T09:09:54.519Z</time>
      </trkpt>
      <trkpt lat="43.0993656" lon="-2.7499803">
        <ele>158.552</ele>
        <time>2021-04-01T09:09:54.571Z</time>
      </trkpt>
      <trkpt lat="43.0993668" lon="-2.7499802">
        <ele>158.622</ele>
        <time>2021-04-01T09:09:54.623Z</time>
      </trkpt>
      <trkpt lat="43.0993681" lon="-2.74998">
        <ele>158.703</ele>
        <time>2021-04-01T09:09:54.675Z</time>
      </trkpt>
      <trkpt lat="43.0993695" lon="-2.7499796">
        <ele>158.805</ele>
        <time>2021-04-01T09:09:54.727Z</time>
      </trkpt>
      <trkpt lat="43.0993709" lon="-2.7499795">
        <ele>158.888</ele>
        <time>2021-04-01T09:09:54.779Z</time>
      </trkpt>
      <trkpt lat="43.0993723" lon="-2.7499793">
        <ele>158.954</ele>
        <time>2021-04-01T09:09:54.831Z</time>
      </trkpt>
      <trkpt lat="43.0993736" lon="-2.7499792">
        <ele>159.001</ele>
        <time>2021-04-01T09:09:54.883Z</time>
      </trkpt>
      <trkpt lat="43.0993749" lon="-2.7499791">
        <ele>159.045</ele>
        <time>2021-04-01T09:09:54.935Z</time>
      </trkpt>
      <trkpt lat="43.0993761" lon="-2.7499789">
        <ele>159.085</ele>
        <time>2021-04-01T09:09:54.987Z</time>
      </trkpt>
      <trkpt lat="43.0993773" lon="-2.7499785">
        <ele>159.16</ele>
        <time>2021-04-01T09:09:55.040Z</time>
      </trkpt>
      <trkpt lat="43.0993785" lon="-2.7499786">
        <ele>159.225</ele>
        <time>2021-04-01T09:09:55.092Z</time>
      </trkpt>
      <trkpt lat="43.0993788" lon="-2.749977">
        <ele>159.269</ele>
        <time>2021-04-01T09:09:55.144Z</time>
      </trkpt>
      <trkpt lat="43.0993804" lon="-2.7499771">
        <ele>159.297</ele>
        <time>2021-04-01T09:09:55.196Z</time>
      </trkpt>
      <trkpt lat="43.0993818" lon="-2.749977">
        <ele>159.384</ele>
        <time>2021-04-01T09:09:55.248Z</time>
      </trkpt>
      <trkpt lat="43.0993834" lon="-2.7499773">
        <ele>159.4</ele>
        <time>2021-04-01T09:09:55.300Z</time>
      </trkpt>
      <trkpt lat="43.0993848" lon="-2.7499769">
        <ele>159.427</ele>
        <time>2021-04-01T09:09:55.352Z</time>
      </trkpt>
      <trkpt lat="43.099386" lon="-2.7499766">
        <ele>159.447</ele>
        <time>2021-04-01T09:09:55.404Z</time>
      </trkpt>
      <trkpt lat="43.0993872" lon="-2.7499764">
        <ele>159.464</ele>
        <time>2021-04-01T09:09:55.456Z</time>
      </trkpt>
      <trkpt lat="43.0993886" lon="-2.7499763">
        <ele>159.456</ele>
        <time>2021-04-01T09:09:55.509Z</time>
      </trkpt>
      <trkpt lat="43.0993902" lon="-2.7499762">
        <ele>159.454</ele>
        <time>2021-04-01T09:09:55.567Z</time>
      </trkpt>
      <trkpt lat="43.0993915" lon="-2.7499758">
        <ele>159.453</ele>
        <time>2021-04-01T09:09:55.625Z</time>
      </trkpt>
      <trkpt lat="43.0993927" lon="-2.7499758">
        <ele>159.481</ele>
        <time>2021-04-01T09:09:55.683Z</time>
      </trkpt>
      <trkpt lat="43.0993939" lon="-2.7499761">
        <ele>159.518</ele>
        <time>2021-04-01T09:09:55.741Z</time>
      </trkpt>
      <trkpt lat="43.0993951" lon="-2.7499761">
        <ele>159.574</ele>
        <time>2021-04-01T09:09:55.799Z</time>
      </trkpt>
      <trkpt lat="43.0993963" lon="-2.7499757">
        <ele>159.635</ele>
        <time>2021-04-01T09:09:55.857Z</time>
      </trkpt>
      <trkpt lat="43.0993974" lon="-2.7499751">
        <ele>159.707</ele>
        <time>2021-04-01T09:09:55.915Z</time>
      </trkpt>
      <trkpt lat="43.0993983" lon="-2.749975">
        <ele>159.852</ele>
        <time>2021-04-01T09:09:55.973Z</time>
      </trkpt>
      <trkpt lat="43.0993994" lon="-2.7499748">
        <ele>159.916</ele>
        <time>2021-04-01T09:09:56.031Z</time>
      </trkpt>
      <trkpt lat="43.0994005" lon="-2.7499744">
        <ele>159.98</ele>
        <time>2021-04-01T09:09:56.089Z</time>
      </trkpt>
      <trkpt lat="43.0994016" lon="-2.7499744">
        <ele>160.044</ele>
        <time>2021-04-01T09:09:56.147Z</time>
      </trkpt>
      <trkpt lat="43.0994028" lon="-2.7499741">
        <ele>160.111</ele>
        <time>2021-04-01T09:09:56.205Z</time>
      </trkpt>
      <trkpt lat="43.0994038" lon="-2.7499737">
        <ele>160.172</ele>
        <time>2021-04-01T09:09:56.263Z</time>
      </trkpt>
      <trkpt lat="43.099405" lon="-2.7499736">
        <ele>160.235</ele>
        <time>2021-04-01T09:09:56.321Z</time>
      </trkpt>
      <trkpt lat="43.0994061" lon="-2.7499736">
        <ele>160.259</ele>
        <time>2021-04-01T09:09:56.379Z</time>
      </trkpt>
      <trkpt lat="43.0994073" lon="-2.7499735">
        <ele>160.332</ele>
        <time>2021-04-01T09:09:56.437Z</time>
      </trkpt>
      <trkpt lat="43.0994083" lon="-2.7499731">
        <ele>160.414</ele>
        <time>2021-04-01T09:09:56.495Z</time>
      </trkpt>
      <trkpt lat="43.0994096" lon="-2.7499728">
        <ele>160.447</ele>
        <time>2021-04-01T09:09:56.554Z</time>
      </trkpt>
      <trkpt lat="43.0994109" lon="-2.7499727">
        <ele>160.488</ele>
        <time>2021-04-01T09:09:56.609Z</time>
      </trkpt>
      <trkpt lat="43.0994122" lon="-2.749973">
        <ele>160.515</ele>
        <time>2021-04-01T09:09:56.664Z</time>
      </trkpt>
      <trkpt lat="43.0994136" lon="-2.7499729">
        <ele>160.555</ele>
        <time>2021-04-01T09:09:56.719Z</time>
      </trkpt>
      <trkpt lat="43.0994148" lon="-2.7499724">
        <ele>160.635</ele>
        <time>2021-04-01T09:09:56.774Z</time>
      </trkpt>
      <trkpt lat="43.0994159" lon="-2.7499721">
        <ele>160.74</ele>
        <time>2021-04-01T09:09:56.829Z</time>
      </trkpt>
      <trkpt lat="43.0994169" lon="-2.7499714">
        <ele>160.848</ele>
        <time>2021-04-01T09:09:56.884Z</time>
      </trkpt>
      <trkpt lat="43.0994181" lon="-2.7499712">
        <ele>160.946</ele>
        <time>2021-04-01T09:09:56.939Z</time>
      </trkpt>
      <trkpt lat="43.0994192" lon="-2.7499711">
        <ele>161.023</ele>
        <time>2021-04-01T09:09:56.994Z</time>
      </trkpt>
      <trkpt lat="43.0994204" lon="-2.7499709">
        <ele>161.105</ele>
        <time>2021-04-01T09:09:57.049Z</time>
      </trkpt>
      <trkpt lat="43.0994216" lon="-2.7499706">
        <ele>161.201</ele>
        <time>2021-04-01T09:09:57.104Z</time>
      </trkpt>
      <trkpt lat="43.0994226" lon="-2.7499699">
        <ele>161.324</ele>
        <time>2021-04-01T09:09:57.159Z</time>
      </trkpt>
      <trkpt lat="43.0994235" lon="-2.7499694">
        <ele>161.487</ele>
        <time>2021-04-01T09:09:57.214Z</time>
      </trkpt>
      <trkpt lat="43.0994247" lon="-2.749969">
        <ele>161.548</ele>
        <time>2021-04-01T09:09:57.269Z</time>
      </trkpt>
      <trkpt lat="43.0994262" lon="-2.7499689">
        <ele>161.571</ele>
        <time>2021-04-01T09:09:57.324Z</time>
      </trkpt>
      <trkpt lat="43.0994272" lon="-2.7499681">
        <ele>161.658</ele>
        <time>2021-04-01T09:09:57.379Z</time>
      </trkpt>
      <trkpt lat="43.0994285" lon="-2.7499677">
        <ele>161.71</ele>
        <time>2021-04-01T09:09:57.434Z</time>
      </trkpt>
      <trkpt lat="43.0994297" lon="-2.7499672">
        <ele>161.771</ele>
        <time>2021-04-01T09:09:57.489Z</time>
      </trkpt>
      <trkpt lat="43.0994296" lon="-2.7499648">
        <ele>162.096</ele>
        <time>2021-04-01T09:09:57.544Z</time>
      </trkpt>
      <trkpt lat="43.0994307" lon="-2.7499641">
        <ele>162.259</ele>
        <time>2021-04-01T09:09:57.599Z</time>
      </trkpt>
      <trkpt lat="43.099432" lon="-2.7499637">
        <ele>162.306</ele>
        <time>2021-04-01T09:09:57.654Z</time>
      </trkpt>
      <trkpt lat="43.0994335" lon="-2.7499635">
        <ele>162.333</ele>
        <time>2021-04-01T09:09:57.709Z</time>
      </trkpt>
      <trkpt lat="43.0994348" lon="-2.749963">
        <ele>162.402</ele>
        <time>2021-04-01T09:09:57.764Z</time>
      </trkpt>
      <trkpt lat="43.0994358" lon="-2.7499622">
        <ele>162.508</ele>
        <time>2021-04-01T09:09:57.819Z</time>
      </trkpt>
      <trkpt lat="43.0994368" lon="-2.749961">
        <ele>162.622</ele>
        <time>2021-04-01T09:09:57.874Z</time>
      </trkpt>
      <trkpt lat="43.0994376" lon="-2.74996">
        <ele>162.766</ele>
        <time>2021-04-01T09:09:57.929Z</time>
      </trkpt>
      <trkpt lat="43.0994387" lon="-2.7499597">
        <ele>162.827</ele>
        <time>2021-04-01T09:09:57.984Z</time>
      </trkpt>
      <trkpt lat="43.0994396" lon="-2.7499588">
        <ele>162.968</ele>
        <time>2021-04-01T09:09:58.039Z</time>
      </trkpt>
      <trkpt lat="43.0994405" lon="-2.7499576">
        <ele>163.135</ele>
        <time>2021-04-01T09:09:58.094Z</time>
      </trkpt>
      <trkpt lat="43.0994413" lon="-2.7499563">
        <ele>163.335</ele>
        <time>2021-04-01T09:09:58.149Z</time>
      </trkpt>
      <trkpt lat="43.0994428" lon="-2.7499563">
        <ele>163.156</ele>
        <time>2021-04-01T09:09:58.204Z</time>
      </trkpt>
      <trkpt lat="43.099444" lon="-2.7499557">
        <ele>163.179</ele>
        <time>2021-04-01T09:09:58.259Z</time>
      </trkpt>
      <trkpt lat="43.0994453" lon="-2.7499549">
        <ele>163.257</ele>
        <time>2021-04-01T09:09:58.314Z</time>
      </trkpt>
      <trkpt lat="43.0994458" lon="-2.7499534">
        <ele>163.434</ele>
        <time>2021-04-01T09:09:58.369Z</time>
      </trkpt>
      <trkpt lat="43.0994462" lon="-2.7499519">
        <ele>163.68</ele>
        <time>2021-04-01T09:09:58.424Z</time>
      </trkpt>
      <trkpt lat="43.0994468" lon="-2.7499509">
        <ele>163.898</ele>
        <time>2021-04-01T09:09:58.479Z</time>
      </trkpt>
      <trkpt lat="43.099448" lon="-2.7499504">
        <ele>164.001</ele>
        <time>2021-04-01T09:09:58.534Z</time>
      </trkpt>
      <trkpt lat="43.099449" lon="-2.7499497">
        <ele>164.139</ele>
        <time>2021-04-01T09:09:58.589Z</time>
      </trkpt>
      <trkpt lat="43.09945" lon="-2.7499489">
        <ele>164.175</ele>
        <time>2021-04-01T09:09:58.644Z</time>
      </trkpt>
      <trkpt lat="43.0994508" lon="-2.7499484">
        <ele>164.266</ele>
        <time>2021-04-01T09:09:58.699Z</time>
      </trkpt>
      <trkpt lat="43.0994517" lon="-2.7499473">
        <ele>164.442</ele>
        <time>2021-04-01T09:09:58.754Z</time>
      </trkpt>
      <trkpt lat="43.0994529" lon="-2.7499472">
        <ele>164.438</ele>
        <time>2021-04-01T09:09:58.809Z</time>
      </trkpt>
      <trkpt lat="43.0994537" lon="-2.7499464">
        <ele>164.57</ele>
        <time>2021-04-01T09:09:58.864Z</time>
      </trkpt>
      <trkpt lat="43.0994538" lon="-2.7499445">
        <ele>164.983</ele>
        <time>2021-04-01T09:09:58.919Z</time>
      </trkpt>
      <trkpt lat="43.0994547" lon="-2.7499438">
        <ele>165.056</ele>
        <time>2021-04-01T09:09:58.974Z</time>
      </trkpt>
      <trkpt lat="43.0994556" lon="-2.7499429">
        <ele>165.149</ele>
        <time>2021-04-01T09:09:59.029Z</time>
      </trkpt>
      <trkpt lat="43.0994564" lon="-2.7499421">
        <ele>165.306</ele>
        <time>2021-04-01T09:09:59.084Z</time>
      </trkpt>
      <trkpt lat="43.0994571" lon="-2.7499414">
        <ele>165.429</ele>
        <time>2021-04-01T09:09:59.139Z</time>
      </trkpt>
      <trkpt lat="43.0994581" lon="-2.749941">
        <ele>165.51</ele>
        <time>2021-04-01T09:09:59.194Z</time>
      </trkpt>
      <trkpt lat="43.0994591" lon="-2.7499404">
        <ele>165.544</ele>
        <time>2021-04-01T09:09:59.249Z</time>
      </trkpt>
      <trkpt lat="43.09946" lon="-2.74994">
        <ele>165.579</ele>
        <time>2021-04-01T09:09:59.304Z</time>
      </trkpt>
      <trkpt lat="43.0994613" lon="-2.7499401">
        <ele>165.481</ele>
        <time>2021-04-01T09:09:59.359Z</time>
      </trkpt>
      <trkpt lat="43.0994625" lon="-2.7499398">
        <ele>165.504</ele>
        <time>2021-04-01T09:09:59.414Z</time>
      </trkpt>
      <trkpt lat="43.0994634" lon="-2.7499392">
        <ele>165.593</ele>
        <time>2021-04-01T09:09:59.469Z</time>
      </trkpt>
      <trkpt lat="43.0994641" lon="-2.7499386">
        <ele>165.657</ele>
        <time>2021-04-01T09:09:59.524Z</time>
      </trkpt>
      <trkpt lat="43.0994652" lon="-2.7499383">
        <ele>165.704</ele>
        <time>2021-04-01T09:09:59.576Z</time>
      </trkpt>
      <trkpt lat="43.099466" lon="-2.7499374">
        <ele>165.728</ele>
        <time>2021-04-01T09:09:59.628Z</time>
      </trkpt>
      <trkpt lat="43.099467" lon="-2.7499369">
        <ele>165.75</ele>
        <time>2021-04-01T09:09:59.680Z</time>
      </trkpt>
      <trkpt lat="43.0994683" lon="-2.7499365">
        <ele>165.707</ele>
        <time>2021-04-01T09:09:59.732Z</time>
      </trkpt>
      <trkpt lat="43.0994695" lon="-2.7499365">
        <ele>165.735</ele>
        <time>2021-04-01T09:09:59.784Z</time>
      </trkpt>
      <trkpt lat="43.0994706" lon="-2.7499361">
        <ele>165.713</ele>
        <time>2021-04-01T09:09:59.836Z</time>
      </trkpt>
      <trkpt lat="43.0994713" lon="-2.7499354">
        <ele>165.79</ele>
        <time>2021-04-01T09:09:59.888Z</time>
      </trkpt>
      <trkpt lat="43.0994722" lon="-2.7499349">
        <ele>165.8</ele>
        <time>2021-04-01T09:09:59.940Z</time>
      </trkpt>
      <trkpt lat="43.0994731" lon="-2.7499345">
        <ele>165.895</ele>
        <time>2021-04-01T09:09:59.992Z</time>
      </trkpt>
      <trkpt lat="43.0994738" lon="-2.7499338">
        <ele>165.965</ele>
        <time>2021-04-01T09:10:00.045Z</time>
      </trkpt>
      <trkpt lat="43.0994746" lon="-2.7499334">
        <ele>166.037</ele>
        <time>2021-04-01T09:10:00.097Z</time>
      </trkpt>
      <trkpt lat="43.0994755" lon="-2.749933">
        <ele>166.083</ele>
        <time>2021-04-01T09:10:00.149Z</time>
      </trkpt>
      <trkpt lat="43.0994762" lon="-2.7499325">
        <ele>166.217</ele>
        <time>2021-04-01T09:10:00.201Z</time>
      </trkpt>
      <trkpt lat="43.0994768" lon="-2.749932">
        <ele>166.391</ele>
        <time>2021-04-01T09:10:00.253Z</time>
      </trkpt>
      <trkpt lat="43.0994774" lon="-2.7499313">
        <ele>166.538</ele>
        <time>2021-04-01T09:10:00.305Z</time>
      </trkpt>
      <trkpt lat="43.0994785" lon="-2.7499314">
        <ele>166.514</ele>
        <time>2021-04-01T09:10:00.357Z</time>
      </trkpt>
      <trkpt lat="43.0994798" lon="-2.7499315">
        <ele>166.487</ele>
        <time>2021-04-01T09:10:00.409Z</time>
      </trkpt>
      <trkpt lat="43.0994809" lon="-2.7499312">
        <ele>166.472</ele>
        <time>2021-04-01T09:10:00.461Z</time>
      </trkpt>
      <trkpt lat="43.0994814" lon="-2.7499308">
        <ele>166.686</ele>
        <time>2021-04-01T09:10:00.514Z</time>
      </trkpt>
      <trkpt lat="43.0994825" lon="-2.7499306">
        <ele>166.651</ele>
        <time>2021-04-01T09:10:00.575Z</time>
      </trkpt>
      <trkpt lat="43.0994833" lon="-2.7499305">
        <ele>166.735</ele>
        <time>2021-04-01T09:10:00.636Z</time>
      </trkpt>
      <trkpt lat="43.0994843" lon="-2.7499303">
        <ele>166.751</ele>
        <time>2021-04-01T09:10:00.698Z</time>
      </trkpt>
      <trkpt lat="43.0994851" lon="-2.7499299">
        <ele>166.903</ele>
        <time>2021-04-01T09:10:00.759Z</time>
      </trkpt>
      <trkpt lat="43.0994862" lon="-2.7499297">
        <ele>166.931</ele>
        <time>2021-04-01T09:10:00.821Z</time>
      </trkpt>
      <trkpt lat="43.0994873" lon="-2.7499295">
        <ele>166.923</ele>
        <time>2021-04-01T09:10:00.882Z</time>
      </trkpt>
      <trkpt lat="43.0994885" lon="-2.7499295">
        <ele>166.86</ele>
        <time>2021-04-01T09:10:00.944Z</time>
      </trkpt>
      <trkpt lat="43.0994893" lon="-2.7499293">
        <ele>166.907</ele>
        <time>2021-04-01T09:10:01.005Z</time>
      </trkpt>
      <trkpt lat="43.0994899" lon="-2.7499289">
        <ele>167.052</ele>
        <time>2021-04-01T09:10:01.067Z</time>
      </trkpt>
      <trkpt lat="43.0994904" lon="-2.7499283">
        <ele>167.306</ele>
        <time>2021-04-01T09:10:01.128Z</time>
      </trkpt>
      <trkpt lat="43.0994921" lon="-2.7499284">
        <ele>167.074</ele>
        <time>2021-04-01T09:10:01.190Z</time>
      </trkpt>
      <trkpt lat="43.0994928" lon="-2.7499279">
        <ele>167.179</ele>
        <time>2021-04-01T09:10:01.251Z</time>
      </trkpt>
      <trkpt lat="43.0994939" lon="-2.7499277">
        <ele>167.179</ele>
        <time>2021-04-01T09:10:01.313Z</time>
      </trkpt>
      <trkpt lat="43.0994947" lon="-2.7499274">
        <ele>167.242</ele>
        <time>2021-04-01T09:10:01.374Z</time>
      </trkpt>
      <trkpt lat="43.0994957" lon="-2.7499273">
        <ele>167.255</ele>
        <time>2021-04-01T09:10:01.436Z</time>
      </trkpt>
      <trkpt lat="43.0994963" lon="-2.7499266">
        <ele>167.389</ele>
        <time>2021-04-01T09:10:01.497Z</time>
      </trkpt>
      <trkpt lat="43.0994975" lon="-2.7499262">
        <ele>167.403</ele>
        <time>2021-04-01T09:10:01.559Z</time>
      </trkpt>
      <trkpt lat="43.0994986" lon="-2.749926">
        <ele>167.376</ele>
        <time>2021-04-01T09:10:01.611Z</time>
      </trkpt>
      <trkpt lat="43.0994995" lon="-2.749926">
        <ele>167.419</ele>
        <time>2021-04-01T09:10:01.663Z</time>
      </trkpt>
      <trkpt lat="43.0995002" lon="-2.7499257">
        <ele>167.511</ele>
        <time>2021-04-01T09:10:01.715Z</time>
      </trkpt>
      <trkpt lat="43.0995018" lon="-2.7499258">
        <ele>167.387</ele>
        <time>2021-04-01T09:10:01.767Z</time>
      </trkpt>
      <trkpt lat="43.0995028" lon="-2.7499258">
        <ele>167.372</ele>
        <time>2021-04-01T09:10:01.819Z</time>
      </trkpt>
      <trkpt lat="43.0995037" lon="-2.7499258">
        <ele>167.415</ele>
        <time>2021-04-01T09:10:01.871Z</time>
      </trkpt>
      <trkpt lat="43.0995048" lon="-2.7499254">
        <ele>167.447</ele>
        <time>2021-04-01T09:10:01.923Z</time>
      </trkpt>
      <trkpt lat="43.0995057" lon="-2.7499254">
        <ele>167.503</ele>
        <time>2021-04-01T09:10:01.975Z</time>
      </trkpt>
      <trkpt lat="43.0995067" lon="-2.7499255">
        <ele>167.565</ele>
        <time>2021-04-01T09:10:02.027Z</time>
      </trkpt>
      <trkpt lat="43.0995078" lon="-2.7499256">
        <ele>167.551</ele>
        <time>2021-04-01T09:10:02.080Z</time>
      </trkpt>
      <trkpt lat="43.0995087" lon="-2.7499257">
        <ele>167.605</ele>
        <time>2021-04-01T09:10:02.132Z</time>
      </trkpt>
      <trkpt lat="43.0995097" lon="-2.7499258">
        <ele>167.661</ele>
        <time>2021-04-01T09:10:02.184Z</time>
      </trkpt>
      <trkpt lat="43.0995106" lon="-2.7499254">
        <ele>167.761</ele>
        <time>2021-04-01T09:10:02.236Z</time>
      </trkpt>
      <trkpt lat="43.0995115" lon="-2.7499249">
        <ele>167.846</ele>
        <time>2021-04-01T09:10:02.288Z</time>
      </trkpt>
      <trkpt lat="43.0995126" lon="-2.7499252">
        <ele>167.827</ele>
        <time>2021-04-01T09:10:02.340Z</time>
      </trkpt>
      <trkpt lat="43.0995135" lon="-2.7499252">
        <ele>167.892</ele>
        <time>2021-04-01T09:10:02.392Z</time>
      </trkpt>
      <trkpt lat="43.0995146" lon="-2.7499251">
        <ele>167.914</ele>
        <time>2021-04-01T09:10:02.444Z</time>
      </trkpt>
      <trkpt lat="43.0995152" lon="-2.7499246">
        <ele>168.106</ele>
        <time>2021-04-01T09:10:02.496Z</time>
      </trkpt>
      <trkpt lat="43.0995157" lon="-2.7499246">
        <ele>168.284</ele>
        <time>2021-04-01T09:10:02.549Z</time>
      </trkpt>
      <trkpt lat="43.0995166" lon="-2.7499238">
        <ele>168.307</ele>
        <time>2021-04-01T09:10:02.604Z</time>
      </trkpt>
      <trkpt lat="43.0995178" lon="-2.749923">
        <ele>168.349</ele>
        <time>2021-04-01T09:10:02.659Z</time>
      </trkpt>
      <trkpt lat="43.0995182" lon="-2.7499225">
        <ele>168.535</ele>
        <time>2021-04-01T09:10:02.714Z</time>
      </trkpt>
      <trkpt lat="43.0995189" lon="-2.7499225">
        <ele>168.61</ele>
        <time>2021-04-01T09:10:02.769Z</time>
      </trkpt>
      <trkpt lat="43.0995199" lon="-2.7499225">
        <ele>168.694</ele>
        <time>2021-04-01T09:10:02.824Z</time>
      </trkpt>
      <trkpt lat="43.0995211" lon="-2.7499223">
        <ele>168.684</ele>
        <time>2021-04-01T09:10:02.879Z</time>
      </trkpt>
      <trkpt lat="43.0995219" lon="-2.7499222">
        <ele>168.684</ele>
        <time>2021-04-01T09:10:02.934Z</time>
      </trkpt>
      <trkpt lat="43.0995229" lon="-2.7499223">
        <ele>168.707</ele>
        <time>2021-04-01T09:10:02.989Z</time>
      </trkpt>
      <trkpt lat="43.0995239" lon="-2.7499221">
        <ele>168.756</ele>
        <time>2021-04-01T09:10:03.044Z</time>
      </trkpt>
      <trkpt lat="43.0995248" lon="-2.7499221">
        <ele>168.836</ele>
        <time>2021-04-01T09:10:03.099Z</time>
      </trkpt>
      <trkpt lat="43.0995258" lon="-2.749922">
        <ele>168.882</ele>
        <time>2021-04-01T09:10:03.154Z</time>
      </trkpt>
      <trkpt lat="43.099527" lon="-2.7499219">
        <ele>168.818</ele>
        <time>2021-04-01T09:10:03.209Z</time>
      </trkpt>
      <trkpt lat="43.0995278" lon="-2.7499217">
        <ele>168.927</ele>
        <time>2021-04-01T09:10:03.264Z</time>
      </trkpt>
      <trkpt lat="43.0995285" lon="-2.7499215">
        <ele>169.011</ele>
        <time>2021-04-01T09:10:03.319Z</time>
      </trkpt>
      <trkpt lat="43.0995293" lon="-2.7499212">
        <ele>169.105</ele>
        <time>2021-04-01T09:10:03.374Z</time>
      </trkpt>
      <trkpt lat="43.0995304" lon="-2.7499208">
        <ele>169.144</ele>
        <time>2021-04-01T09:10:03.429Z</time>
      </trkpt>
      <trkpt lat="43.0995312" lon="-2.7499207">
        <ele>169.222</ele>
        <time>2021-04-01T09:10:03.484Z</time>
      </trkpt>
      <trkpt lat="43.0995319" lon="-2.7499206">
        <ele>169.293</ele>
        <time>2021-04-01T09:10:03.539Z</time>
      </trkpt>
      <trkpt lat="43.0995327" lon="-2.7499206">
        <ele>169.372</ele>
        <time>2021-04-01T09:10:03.597Z</time>
      </trkpt>
      <trkpt lat="43.0995336" lon="-2.7499205">
        <ele>169.444</ele>
        <time>2021-04-01T09:10:03.655Z</time>
      </trkpt>
      <trkpt lat="43.0995347" lon="-2.7499207">
        <ele>169.427</ele>
        <time>2021-04-01T09:10:03.713Z</time>
      </trkpt>
      <trkpt lat="43.0995358" lon="-2.7499203">
        <ele>169.46</ele>
        <time>2021-04-01T09:10:03.771Z</time>
      </trkpt>
      <trkpt lat="43.0995366" lon="-2.74992">
        <ele>169.591</ele>
        <time>2021-04-01T09:10:03.829Z</time>
      </trkpt>
      <trkpt lat="43.0995375" lon="-2.7499198">
        <ele>169.609</ele>
        <time>2021-04-01T09:10:03.887Z</time>
      </trkpt>
      <trkpt lat="43.099538" lon="-2.7499198">
        <ele>169.698</ele>
        <time>2021-04-01T09:10:03.945Z</time>
      </trkpt>
      <trkpt lat="43.0995389" lon="-2.7499199">
        <ele>169.765</ele>
        <time>2021-04-01T09:10:04.003Z</time>
      </trkpt>
      <trkpt lat="43.0995395" lon="-2.74992">
        <ele>169.894</ele>
        <time>2021-04-01T09:10:04.061Z</time>
      </trkpt>
      <trkpt lat="43.0995402" lon="-2.7499199">
        <ele>170.024</ele>
        <time>2021-04-01T09:10:04.119Z</time>
      </trkpt>
      <trkpt lat="43.0995411" lon="-2.7499198">
        <ele>170.019</ele>
        <time>2021-04-01T09:10:04.177Z</time>
      </trkpt>
      <trkpt lat="43.0995423" lon="-2.7499197">
        <ele>169.988</ele>
        <time>2021-04-01T09:10:04.235Z</time>
      </trkpt>
      <trkpt lat="43.0995431" lon="-2.7499187">
        <ele>169.885</ele>
        <time>2021-04-01T09:10:04.293Z</time>
      </trkpt>
      <trkpt lat="43.099544" lon="-2.7499185">
        <ele>169.916</ele>
        <time>2021-04-01T09:10:04.351Z</time>
      </trkpt>
      <trkpt lat="43.0995448" lon="-2.7499182">
        <ele>170.001</ele>
        <time>2021-04-01T09:10:04.409Z</time>
      </trkpt>
      <trkpt lat="43.0995459" lon="-2.7499175">
        <ele>169.989</ele>
        <time>2021-04-01T09:10:04.467Z</time>
      </trkpt>
      <trkpt lat="43.0995468" lon="-2.749917">
        <ele>170.046</ele>
        <time>2021-04-01T09:10:04.525Z</time>
      </trkpt>
      <trkpt lat="43.0995478" lon="-2.7499163">
        <ele>170.049</ele>
        <time>2021-04-01T09:10:04.584Z</time>
      </trkpt>
      <trkpt lat="43.0995487" lon="-2.7499158">
        <ele>170.119</ele>
        <time>2021-04-01T09:10:04.635Z</time>
      </trkpt>
      <trkpt lat="43.0995489" lon="-2.7499155">
        <ele>170.315</ele>
        <time>2021-04-01T09:10:04.687Z</time>
      </trkpt>
      <trkpt lat="43.0995497" lon="-2.7499149">
        <ele>170.337</ele>
        <time>2021-04-01T09:10:04.739Z</time>
      </trkpt>
      <trkpt lat="43.0995504" lon="-2.7499144">
        <ele>170.352</ele>
        <time>2021-04-01T09:10:04.791Z</time>
      </trkpt>
      <trkpt lat="43.0995515" lon="-2.7499143">
        <ele>170.343</ele>
        <time>2021-04-01T09:10:04.843Z</time>
      </trkpt>
      <trkpt lat="43.0995519" lon="-2.7499138">
        <ele>170.399</ele>
        <time>2021-04-01T09:10:04.895Z</time>
      </trkpt>
      <trkpt lat="43.0995527" lon="-2.7499133">
        <ele>170.43</ele>
        <time>2021-04-01T09:10:04.947Z</time>
      </trkpt>
      <trkpt lat="43.0995534" lon="-2.7499125">
        <ele>170.5</ele>
        <time>2021-04-01T09:10:04.999Z</time>
      </trkpt>
      <trkpt lat="43.099554" lon="-2.749912">
        <ele>170.618</ele>
        <time>2021-04-01T09:10:05.051Z</time>
      </trkpt>
      <trkpt lat="43.0995548" lon="-2.7499117">
        <ele>170.667</ele>
        <time>2021-04-01T09:10:05.103Z</time>
      </trkpt>
      <trkpt lat="43.0995561" lon="-2.7499115">
        <ele>170.683</ele>
        <time>2021-04-01T09:10:05.155Z</time>
      </trkpt>
      <trkpt lat="43.0995563" lon="-2.7499109">
        <ele>170.867</ele>
        <time>2021-04-01T09:10:05.207Z</time>
      </trkpt>
      <trkpt lat="43.0995572" lon="-2.7499106">
        <ele>170.879</ele>
        <time>2021-04-01T09:10:05.259Z</time>
      </trkpt>
      <trkpt lat="43.0995582" lon="-2.7499103">
        <ele>170.818</ele>
        <time>2021-04-01T09:10:05.311Z</time>
      </trkpt>
      <trkpt lat="43.0995593" lon="-2.7499104">
        <ele>170.847</ele>
        <time>2021-04-01T09:10:05.363Z</time>
      </trkpt>
      <trkpt lat="43.0995598" lon="-2.7499098">
        <ele>170.889</ele>
        <time>2021-04-01T09:10:05.415Z</time>
      </trkpt>
      <trkpt lat="43.0995608" lon="-2.7499096">
        <ele>170.892</ele>
        <time>2021-04-01T09:10:05.467Z</time>
      </trkpt>
      <trkpt lat="43.0995617" lon="-2.7499092">
        <ele>170.91</ele>
        <time>2021-04-01T09:10:05.519Z</time>
      </trkpt>
      <trkpt lat="43.0995625" lon="-2.7499088">
        <ele>170.854</ele>
        <time>2021-04-01T09:10:05.574Z</time>
      </trkpt>
      <trkpt lat="43.0995634" lon="-2.7499088">
        <ele>170.829</ele>
        <time>2021-04-01T09:10:05.629Z</time>
      </trkpt>
      <trkpt lat="43.0995643" lon="-2.7499088">
        <ele>170.79</ele>
        <time>2021-04-01T09:10:05.684Z</time>
      </trkpt>
      <trkpt lat="43.0995653" lon="-2.749909">
        <ele>170.779</ele>
        <time>2021-04-01T09:10:05.739Z</time>
      </trkpt>
      <trkpt lat="43.0995661" lon="-2.7499091">
        <ele>170.749</ele>
        <time>2021-04-01T09:10:05.794Z</time>
      </trkpt>
      <trkpt lat="43.0995672" lon="-2.7499095">
        <ele>170.699</ele>
        <time>2021-04-01T09:10:05.849Z</time>
      </trkpt>
      <trkpt lat="43.0995684" lon="-2.7499098">
        <ele>170.602</ele>
        <time>2021-04-01T09:10:05.904Z</time>
      </trkpt>
      <trkpt lat="43.0995696" lon="-2.7499101">
        <ele>170.499</ele>
        <time>2021-04-01T09:10:05.959Z</time>
      </trkpt>
      <trkpt lat="43.0995709" lon="-2.7499105">
        <ele>170.388</ele>
        <time>2021-04-01T09:10:06.014Z</time>
      </trkpt>
      <trkpt lat="43.0995719" lon="-2.7499113">
        <ele>170.33</ele>
        <time>2021-04-01T09:10:06.069Z</time>
      </trkpt>
      <trkpt lat="43.0995733" lon="-2.7499122">
        <ele>170.188</ele>
        <time>2021-04-01T09:10:06.124Z</time>
      </trkpt>
      <trkpt lat="43.099575" lon="-2.749913">
        <ele>169.956</ele>
        <time>2021-04-01T09:10:06.179Z</time>
      </trkpt>
      <trkpt lat="43.0995765" lon="-2.7499136">
        <ele>169.697</ele>
        <time>2021-04-01T09:10:06.234Z</time>
      </trkpt>
      <trkpt lat="43.0995779" lon="-2.7499139">
        <ele>169.631</ele>
        <time>2021-04-01T09:10:06.289Z</time>
      </trkpt>
      <trkpt lat="43.0995789" lon="-2.749914">
        <ele>169.53</ele>
        <time>2021-04-01T09:10:06.344Z</time>
      </trkpt>
      <trkpt lat="43.0995796" lon="-2.7499142">
        <ele>169.593</ele>
        <time>2021-04-01T09:10:06.399Z</time>
      </trkpt>
      <trkpt lat="43.0995805" lon="-2.7499141">
        <ele>169.604</ele>
        <time>2021-04-01T09:10:06.454Z</time>
      </trkpt>
      <trkpt lat="43.0995811" lon="-2.749914">
        <ele>169.575</ele>
        <time>2021-04-01T09:10:06.509Z</time>
      </trkpt>
      <trkpt lat="43.0995819" lon="-2.7499141">
        <ele>169.573</ele>
        <time>2021-04-01T09:10:06.564Z</time>
      </trkpt>
      <trkpt lat="43.0995822" lon="-2.7499137">
        <ele>169.592</ele>
        <time>2021-04-01T09:10:06.619Z</time>
      </trkpt>
      <trkpt lat="43.0995824" lon="-2.7499131">
        <ele>169.612</ele>
        <time>2021-04-01T09:10:06.674Z</time>
      </trkpt>
      <trkpt lat="43.0995833" lon="-2.7499132">
        <ele>169.657</ele>
        <time>2021-04-01T09:10:06.729Z</time>
      </trkpt>
      <trkpt lat="43.0995847" lon="-2.749914">
        <ele>169.648</ele>
        <time>2021-04-01T09:10:06.784Z</time>
      </trkpt>
      <trkpt lat="43.0995856" lon="-2.7499144">
        <ele>169.69</ele>
        <time>2021-04-01T09:10:06.839Z</time>
      </trkpt>
      <trkpt lat="43.099586" lon="-2.7499143">
        <ele>169.754</ele>
        <time>2021-04-01T09:10:06.894Z</time>
      </trkpt>
      <trkpt lat="43.0995867" lon="-2.7499144">
        <ele>169.687</ele>
        <time>2021-04-01T09:10:06.949Z</time>
      </trkpt>
      <trkpt lat="43.0995869" lon="-2.7499137">
        <ele>169.802</ele>
        <time>2021-04-01T09:10:07.004Z</time>
      </trkpt>
      <trkpt lat="43.0995876" lon="-2.7499138">
        <ele>169.853</ele>
        <time>2021-04-01T09:10:07.059Z</time>
      </trkpt>
      <trkpt lat="43.0995886" lon="-2.7499144">
        <ele>169.842</ele>
        <time>2021-04-01T09:10:07.114Z</time>
      </trkpt>
      <trkpt lat="43.0995896" lon="-2.7499154">
        <ele>169.829</ele>
        <time>2021-04-01T09:10:07.169Z</time>
      </trkpt>
      <trkpt lat="43.0995901" lon="-2.7499158">
        <ele>169.899</ele>
        <time>2021-04-01T09:10:07.224Z</time>
      </trkpt>
      <trkpt lat="43.0995908" lon="-2.7499162">
        <ele>169.909</ele>
        <time>2021-04-01T09:10:07.279Z</time>
      </trkpt>
      <trkpt lat="43.0995918" lon="-2.7499169">
        <ele>169.908</ele>
        <time>2021-04-01T09:10:07.334Z</time>
      </trkpt>
      <trkpt lat="43.0995926" lon="-2.7499173">
        <ele>169.928</ele>
        <time>2021-04-01T09:10:07.389Z</time>
      </trkpt>
      <trkpt lat="43.0995933" lon="-2.7499175">
        <ele>169.97</ele>
        <time>2021-04-01T09:10:07.444Z</time>
      </trkpt>
      <trkpt lat="43.0995944" lon="-2.7499184">
        <ele>170.034</ele>
        <time>2021-04-01T09:10:07.499Z</time>
      </trkpt>
      <trkpt lat="43.0995952" lon="-2.7499193">
        <ele>170.065</ele>
        <time>2021-04-01T09:10:07.554Z</time>
      </trkpt>
      <trkpt lat="43.0995959" lon="-2.7499199">
        <ele>170.141</ele>
        <time>2021-04-01T09:10:07.609Z</time>
      </trkpt>
      <trkpt lat="43.0995966" lon="-2.7499202">
        <ele>170.167</ele>
        <time>2021-04-01T09:10:07.664Z</time>
      </trkpt>
      <trkpt lat="43.0995966" lon="-2.7499198">
        <ele>170.18</ele>
        <time>2021-04-01T09:10:07.719Z</time>
      </trkpt>
      <trkpt lat="43.0995974" lon="-2.7499202">
        <ele>170.205</ele>
        <time>2021-04-01T09:10:07.774Z</time>
      </trkpt>
      <trkpt lat="43.0995981" lon="-2.7499204">
        <ele>170.273</ele>
        <time>2021-04-01T09:10:07.829Z</time>
      </trkpt>
      <trkpt lat="43.0995992" lon="-2.749921">
        <ele>170.316</ele>
        <time>2021-04-01T09:10:07.884Z</time>
      </trkpt>
      <trkpt lat="43.0996002" lon="-2.749921">
        <ele>170.418</ele>
        <time>2021-04-01T09:10:07.939Z</time>
      </trkpt>
      <trkpt lat="43.0996007" lon="-2.7499211">
        <ele>170.446</ele>
        <time>2021-04-01T09:10:07.994Z</time>
      </trkpt>
      <trkpt lat="43.0996012" lon="-2.7499214">
        <ele>170.508</ele>
        <time>2021-04-01T09:10:08.049Z</time>
      </trkpt>
      <trkpt lat="43.0996017" lon="-2.7499217">
        <ele>170.504</ele>
        <time>2021-04-01T09:10:08.104Z</time>
      </trkpt>
      <trkpt lat="43.0996024" lon="-2.7499219">
        <ele>170.547</ele>
        <time>2021-04-01T09:10:08.159Z</time>
      </trkpt>
      <trkpt lat="43.0996033" lon="-2.7499226">
        <ele>170.627</ele>
        <time>2021-04-01T09:10:08.214Z</time>
      </trkpt>
      <trkpt lat="43.0996037" lon="-2.7499224">
        <ele>170.72</ele>
        <time>2021-04-01T09:10:08.269Z</time>
      </trkpt>
      <trkpt lat="43.0996042" lon="-2.7499228">
        <ele>170.749</ele>
        <time>2021-04-01T09:10:08.324Z</time>
      </trkpt>
      <trkpt lat="43.099605" lon="-2.7499229">
        <ele>170.766</ele>
        <time>2021-04-01T09:10:08.379Z</time>
      </trkpt>
      <trkpt lat="43.0996058" lon="-2.7499236">
        <ele>170.797</ele>
        <time>2021-04-01T09:10:08.434Z</time>
      </trkpt>
      <trkpt lat="43.0996067" lon="-2.749924">
        <ele>170.815</ele>
        <time>2021-04-01T09:10:08.489Z</time>
      </trkpt>
      <trkpt lat="43.0996077" lon="-2.7499243">
        <ele>170.809</ele>
        <time>2021-04-01T09:10:08.544Z</time>
      </trkpt>
      <trkpt lat="43.0996084" lon="-2.7499248">
        <ele>170.81</ele>
        <time>2021-04-01T09:10:08.599Z</time>
      </trkpt>
      <trkpt lat="43.099609" lon="-2.7499251">
        <ele>170.807</ele>
        <time>2021-04-01T09:10:08.654Z</time>
      </trkpt>
      <trkpt lat="43.0996095" lon="-2.749925">
        <ele>170.784</ele>
        <time>2021-04-01T09:10:08.709Z</time>
      </trkpt>
      <trkpt lat="43.0996104" lon="-2.7499249">
        <ele>170.763</ele>
        <time>2021-04-01T09:10:08.764Z</time>
      </trkpt>
      <trkpt lat="43.0996107" lon="-2.7499252">
        <ele>170.777</ele>
        <time>2021-04-01T09:10:08.819Z</time>
      </trkpt>
      <trkpt lat="43.099611" lon="-2.7499251">
        <ele>170.809</ele>
        <time>2021-04-01T09:10:08.874Z</time>
      </trkpt>
      <trkpt lat="43.0996114" lon="-2.7499253">
        <ele>170.809</ele>
        <time>2021-04-01T09:10:08.929Z</time>
      </trkpt>
      <trkpt lat="43.0996122" lon="-2.7499253">
        <ele>170.803</ele>
        <time>2021-04-01T09:10:08.984Z</time>
      </trkpt>
      <trkpt lat="43.0996128" lon="-2.7499252">
        <ele>170.803</ele>
        <time>2021-04-01T09:10:09.039Z</time>
      </trkpt>
      <trkpt lat="43.0996133" lon="-2.7499253">
        <ele>170.807</ele>
        <time>2021-04-01T09:10:09.094Z</time>
      </trkpt>
      <trkpt lat="43.0996142" lon="-2.7499255">
        <ele>170.794</ele>
        <time>2021-04-01T09:10:09.149Z</time>
      </trkpt>
      <trkpt lat="43.0996149" lon="-2.7499257">
        <ele>170.764</ele>
        <time>2021-04-01T09:10:09.204Z</time>
      </trkpt>
      <trkpt lat="43.0996156" lon="-2.749926">
        <ele>170.736</ele>
        <time>2021-04-01T09:10:09.259Z</time>
      </trkpt>
      <trkpt lat="43.0996166" lon="-2.7499257">
        <ele>170.67</ele>
        <time>2021-04-01T09:10:09.314Z</time>
      </trkpt>
      <trkpt lat="43.099617" lon="-2.7499259">
        <ele>170.672</ele>
        <time>2021-04-01T09:10:09.369Z</time>
      </trkpt>
      <trkpt lat="43.0996175" lon="-2.7499261">
        <ele>170.662</ele>
        <time>2021-04-01T09:10:09.424Z</time>
      </trkpt>
      <trkpt lat="43.0996184" lon="-2.7499261">
        <ele>170.69</ele>
        <time>2021-04-01T09:10:09.479Z</time>
      </trkpt>
      <trkpt lat="43.0996195" lon="-2.7499272">
        <ele>170.747</ele>
        <time>2021-04-01T09:10:09.534Z</time>
      </trkpt>
      <trkpt lat="43.0996208" lon="-2.7499279">
        <ele>170.759</ele>
        <time>2021-04-01T09:10:09.589Z</time>
      </trkpt>
      <trkpt lat="43.0996217" lon="-2.7499286">
        <ele>170.735</ele>
        <time>2021-04-01T09:10:09.647Z</time>
      </trkpt>
      <trkpt lat="43.0996225" lon="-2.7499289">
        <ele>170.744</ele>
        <time>2021-04-01T09:10:09.705Z</time>
      </trkpt>
      <trkpt lat="43.0996234" lon="-2.7499293">
        <ele>170.784</ele>
        <time>2021-04-01T09:10:09.763Z</time>
      </trkpt>
      <trkpt lat="43.0996241" lon="-2.7499297">
        <ele>170.82</ele>
        <time>2021-04-01T09:10:09.821Z</time>
      </trkpt>
      <trkpt lat="43.0996252" lon="-2.7499304">
        <ele>170.85</ele>
        <time>2021-04-01T09:10:09.880Z</time>
      </trkpt>
      <trkpt lat="43.0996261" lon="-2.7499299">
        <ele>170.866</ele>
        <time>2021-04-01T09:10:09.938Z</time>
      </trkpt>
      <trkpt lat="43.0996271" lon="-2.7499308">
        <ele>170.875</ele>
        <time>2021-04-01T09:10:09.996Z</time>
      </trkpt>
      <trkpt lat="43.099628" lon="-2.7499312">
        <ele>170.855</ele>
        <time>2021-04-01T09:10:10.054Z</time>
      </trkpt>
      <trkpt lat="43.0996289" lon="-2.7499318">
        <ele>170.818</ele>
        <time>2021-04-01T09:10:10.113Z</time>
      </trkpt>
      <trkpt lat="43.0996301" lon="-2.7499328">
        <ele>170.773</ele>
        <time>2021-04-01T09:10:10.171Z</time>
      </trkpt>
      <trkpt lat="43.099631" lon="-2.7499332">
        <ele>170.746</ele>
        <time>2021-04-01T09:10:10.229Z</time>
      </trkpt>
      <trkpt lat="43.0996319" lon="-2.7499338">
        <ele>170.748</ele>
        <time>2021-04-01T09:10:10.287Z</time>
      </trkpt>
      <trkpt lat="43.0996327" lon="-2.7499343">
        <ele>170.745</ele>
        <time>2021-04-01T09:10:10.346Z</time>
      </trkpt>
      <trkpt lat="43.0996336" lon="-2.749935">
        <ele>170.726</ele>
        <time>2021-04-01T09:10:10.404Z</time>
      </trkpt>
      <trkpt lat="43.0996346" lon="-2.7499356">
        <ele>170.705</ele>
        <time>2021-04-01T09:10:10.462Z</time>
      </trkpt>
      <trkpt lat="43.0996357" lon="-2.7499356">
        <ele>170.717</ele>
        <time>2021-04-01T09:10:10.520Z</time>
      </trkpt>
      <trkpt lat="43.0996365" lon="-2.7499357">
        <ele>170.705</ele>
        <time>2021-04-01T09:10:10.579Z</time>
      </trkpt>
      <trkpt lat="43.0996375" lon="-2.7499365">
        <ele>170.66</ele>
        <time>2021-04-01T09:10:10.631Z</time>
      </trkpt>
      <trkpt lat="43.0996383" lon="-2.7499367">
        <ele>170.626</ele>
        <time>2021-04-01T09:10:10.683Z</time>
      </trkpt>
      <trkpt lat="43.0996392" lon="-2.749937">
        <ele>170.615</ele>
        <time>2021-04-01T09:10:10.735Z</time>
      </trkpt>
      <trkpt lat="43.0996386" lon="-2.7499351">
        <ele>170.614</ele>
        <time>2021-04-01T09:10:10.787Z</time>
      </trkpt>
      <trkpt lat="43.0996392" lon="-2.7499349">
        <ele>170.616</ele>
        <time>2021-04-01T09:10:10.839Z</time>
      </trkpt>
      <trkpt lat="43.0996394" lon="-2.7499349">
        <ele>170.61</ele>
        <time>2021-04-01T09:10:10.891Z</time>
      </trkpt>
      <trkpt lat="43.0996397" lon="-2.7499346">
        <ele>170.628</ele>
        <time>2021-04-01T09:10:10.943Z</time>
      </trkpt>
      <trkpt lat="43.0996402" lon="-2.7499343">
        <ele>170.647</ele>
        <time>2021-04-01T09:10:10.995Z</time>
      </trkpt>
      <trkpt lat="43.0996408" lon="-2.7499341">
        <ele>170.668</ele>
        <time>2021-04-01T09:10:11.047Z</time>
      </trkpt>
      <trkpt lat="43.0996418" lon="-2.7499343">
        <ele>170.68</ele>
        <time>2021-04-01T09:10:11.100Z</time>
      </trkpt>
      <trkpt lat="43.099643" lon="-2.7499347">
        <ele>170.669</ele>
        <time>2021-04-01T09:10:11.152Z</time>
      </trkpt>
      <trkpt lat="43.0996439" lon="-2.749935">
        <ele>170.701</ele>
        <time>2021-04-01T09:10:11.204Z</time>
      </trkpt>
      <trkpt lat="43.0996447" lon="-2.7499351">
        <ele>170.715</ele>
        <time>2021-04-01T09:10:11.256Z</time>
      </trkpt>
      <trkpt lat="43.0996456" lon="-2.7499355">
        <ele>170.72</ele>
        <time>2021-04-01T09:10:11.308Z</time>
      </trkpt>
      <trkpt lat="43.0996467" lon="-2.749936">
        <ele>170.711</ele>
        <time>2021-04-01T09:10:11.360Z</time>
      </trkpt>
      <trkpt lat="43.0996477" lon="-2.7499366">
        <ele>170.665</ele>
        <time>2021-04-01T09:10:11.412Z</time>
      </trkpt>
      <trkpt lat="43.0996492" lon="-2.7499372">
        <ele>170.633</ele>
        <time>2021-04-01T09:10:11.464Z</time>
      </trkpt>
      <trkpt lat="43.0996504" lon="-2.7499372">
        <ele>170.582</ele>
        <time>2021-04-01T09:10:11.516Z</time>
      </trkpt>
      <trkpt lat="43.0996513" lon="-2.7499376">
        <ele>170.583</ele>
        <time>2021-04-01T09:10:11.569Z</time>
      </trkpt>
      <trkpt lat="43.0996528" lon="-2.7499383">
        <ele>170.601</ele>
        <time>2021-04-01T09:10:11.624Z</time>
      </trkpt>
      <trkpt lat="43.0996539" lon="-2.7499395">
        <ele>170.652</ele>
        <time>2021-04-01T09:10:11.679Z</time>
      </trkpt>
      <trkpt lat="43.0996556" lon="-2.7499408">
        <ele>170.66</ele>
        <time>2021-04-01T09:10:11.734Z</time>
      </trkpt>
      <trkpt lat="43.0996571" lon="-2.7499416">
        <ele>170.65</ele>
        <time>2021-04-01T09:10:11.789Z</time>
      </trkpt>
      <trkpt lat="43.0996579" lon="-2.7499414">
        <ele>170.611</ele>
        <time>2021-04-01T09:10:11.844Z</time>
      </trkpt>
      <trkpt lat="43.0996592" lon="-2.7499417">
        <ele>170.556</ele>
        <time>2021-04-01T09:10:11.899Z</time>
      </trkpt>
      <trkpt lat="43.0996608" lon="-2.7499425">
        <ele>170.503</ele>
        <time>2021-04-01T09:10:11.954Z</time>
      </trkpt>
      <trkpt lat="43.099662" lon="-2.7499434">
        <ele>170.467</ele>
        <time>2021-04-01T09:10:12.009Z</time>
      </trkpt>
      <trkpt lat="43.0996633" lon="-2.7499445">
        <ele>170.428</ele>
        <time>2021-04-01T09:10:12.064Z</time>
      </trkpt>
      <trkpt lat="43.0996648" lon="-2.7499454">
        <ele>170.372</ele>
        <time>2021-04-01T09:10:12.119Z</time>
      </trkpt>
      <trkpt lat="43.0996661" lon="-2.7499467">
        <ele>170.338</ele>
        <time>2021-04-01T09:10:12.174Z</time>
      </trkpt>
      <trkpt lat="43.0996672" lon="-2.7499468">
        <ele>170.316</ele>
        <time>2021-04-01T09:10:12.229Z</time>
      </trkpt>
      <trkpt lat="43.0996685" lon="-2.7499471">
        <ele>170.31</ele>
        <time>2021-04-01T09:10:12.284Z</time>
      </trkpt>
      <trkpt lat="43.0996696" lon="-2.7499476">
        <ele>170.315</ele>
        <time>2021-04-01T09:10:12.339Z</time>
      </trkpt>
      <trkpt lat="43.0996707" lon="-2.749948">
        <ele>170.357</ele>
        <time>2021-04-01T09:10:12.394Z</time>
      </trkpt>
      <trkpt lat="43.0996717" lon="-2.7499487">
        <ele>170.344</ele>
        <time>2021-04-01T09:10:12.449Z</time>
      </trkpt>
      <trkpt lat="43.0996727" lon="-2.7499495">
        <ele>170.343</ele>
        <time>2021-04-01T09:10:12.504Z</time>
      </trkpt>
      <trkpt lat="43.0996741" lon="-2.7499498">
        <ele>170.305</ele>
        <time>2021-04-01T09:10:12.559Z</time>
      </trkpt>
      <trkpt lat="43.0996752" lon="-2.7499504">
        <ele>170.292</ele>
        <time>2021-04-01T09:10:12.617Z</time>
      </trkpt>
      <trkpt lat="43.0996763" lon="-2.7499512">
        <ele>170.302</ele>
        <time>2021-04-01T09:10:12.675Z</time>
      </trkpt>
      <trkpt lat="43.0996771" lon="-2.749952">
        <ele>170.354</ele>
        <time>2021-04-01T09:10:12.733Z</time>
      </trkpt>
      <trkpt lat="43.0996781" lon="-2.7499528">
        <ele>170.397</ele>
        <time>2021-04-01T09:10:12.791Z</time>
      </trkpt>
      <trkpt lat="43.0996792" lon="-2.7499538">
        <ele>170.43</ele>
        <time>2021-04-01T09:10:12.849Z</time>
      </trkpt>
      <trkpt lat="43.0996804" lon="-2.7499543">
        <ele>170.481</ele>
        <time>2021-04-01T09:10:12.907Z</time>
      </trkpt>
      <trkpt lat="43.0996817" lon="-2.7499549">
        <ele>170.443</ele>
        <time>2021-04-01T09:10:12.965Z</time>
      </trkpt>
      <trkpt lat="43.0996829" lon="-2.749956">
        <ele>170.46</ele>
        <time>2021-04-01T09:10:13.023Z</time>
      </trkpt>
      <trkpt lat="43.0996842" lon="-2.749957">
        <ele>170.534</ele>
        <time>2021-04-01T09:10:13.081Z</time>
      </trkpt>
      <trkpt lat="43.0996854" lon="-2.7499579">
        <ele>170.571</ele>
        <time>2021-04-01T09:10:13.139Z</time>
      </trkpt>
      <trkpt lat="43.0996865" lon="-2.7499587">
        <ele>170.589</ele>
        <time>2021-04-01T09:10:13.197Z</time>
      </trkpt>
      <trkpt lat="43.0996875" lon="-2.7499593">
        <ele>170.606</ele>
        <time>2021-04-01T09:10:13.255Z</time>
      </trkpt>
      <trkpt lat="43.0996887" lon="-2.7499604">
        <ele>170.672</ele>
        <time>2021-04-01T09:10:13.313Z</time>
      </trkpt>
      <trkpt lat="43.0996898" lon="-2.7499615">
        <ele>170.714</ele>
        <time>2021-04-01T09:10:13.371Z</time>
      </trkpt>
      <trkpt lat="43.0996911" lon="-2.7499623">
        <ele>170.775</ele>
        <time>2021-04-01T09:10:13.429Z</time>
      </trkpt>
      <trkpt lat="43.0996922" lon="-2.7499631">
        <ele>170.721</ele>
        <time>2021-04-01T09:10:13.487Z</time>
      </trkpt>
      <trkpt lat="43.0996936" lon="-2.7499639">
        <ele>170.683</ele>
        <time>2021-04-01T09:10:13.545Z</time>
      </trkpt>
      <trkpt lat="43.0996948" lon="-2.7499644">
        <ele>170.682</ele>
        <time>2021-04-01T09:10:13.604Z</time>
      </trkpt>
      <trkpt lat="43.0996965" lon="-2.7499658">
        <ele>170.588</ele>
        <time>2021-04-01T09:10:13.659Z</time>
      </trkpt>
      <trkpt lat="43.099698" lon="-2.7499671">
        <ele>170.605</ele>
        <time>2021-04-01T09:10:13.714Z</time>
      </trkpt>
      <trkpt lat="43.0996993" lon="-2.749968">
        <ele>170.615</ele>
        <time>2021-04-01T09:10:13.769Z</time>
      </trkpt>
      <trkpt lat="43.099701" lon="-2.7499693">
        <ele>170.602</ele>
        <time>2021-04-01T09:10:13.824Z</time>
      </trkpt>
      <trkpt lat="43.0997021" lon="-2.7499703">
        <ele>170.584</ele>
        <time>2021-04-01T09:10:13.879Z</time>
      </trkpt>
      <trkpt lat="43.0997032" lon="-2.7499708">
        <ele>170.585</ele>
        <time>2021-04-01T09:10:13.934Z</time>
      </trkpt>
      <trkpt lat="43.0997043" lon="-2.749971">
        <ele>170.593</ele>
        <time>2021-04-01T09:10:13.989Z</time>
      </trkpt>
      <trkpt lat="43.0997054" lon="-2.7499714">
        <ele>170.627</ele>
        <time>2021-04-01T09:10:14.044Z</time>
      </trkpt>
      <trkpt lat="43.099707" lon="-2.7499725">
        <ele>170.625</ele>
        <time>2021-04-01T09:10:14.099Z</time>
      </trkpt>
      <trkpt lat="43.0997085" lon="-2.749973">
        <ele>170.631</ele>
        <time>2021-04-01T09:10:14.154Z</time>
      </trkpt>
      <trkpt lat="43.0997096" lon="-2.7499736">
        <ele>170.634</ele>
        <time>2021-04-01T09:10:14.209Z</time>
      </trkpt>
      <trkpt lat="43.099711" lon="-2.7499744">
        <ele>170.644</ele>
        <time>2021-04-01T09:10:14.264Z</time>
      </trkpt>
      <trkpt lat="43.0997133" lon="-2.7499763">
        <ele>170.617</ele>
        <time>2021-04-01T09:10:14.319Z</time>
      </trkpt>
      <trkpt lat="43.0997146" lon="-2.7499771">
        <ele>170.528</ele>
        <time>2021-04-01T09:10:14.374Z</time>
      </trkpt>
      <trkpt lat="43.0997155" lon="-2.7499777">
        <ele>170.491</ele>
        <time>2021-04-01T09:10:14.429Z</time>
      </trkpt>
      <trkpt lat="43.099716" lon="-2.7499782">
        <ele>170.53</ele>
        <time>2021-04-01T09:10:14.484Z</time>
      </trkpt>
      <trkpt lat="43.0997171" lon="-2.7499789">
        <ele>170.552</ele>
        <time>2021-04-01T09:10:14.539Z</time>
      </trkpt>
      <trkpt lat="43.0997185" lon="-2.7499796">
        <ele>170.546</ele>
        <time>2021-04-01T09:10:14.594Z</time>
      </trkpt>
      <trkpt lat="43.0997201" lon="-2.7499802">
        <ele>170.535</ele>
        <time>2021-04-01T09:10:14.645Z</time>
      </trkpt>
      <trkpt lat="43.0997214" lon="-2.749981">
        <ele>170.539</ele>
        <time>2021-04-01T09:10:14.697Z</time>
      </trkpt>
      <trkpt lat="43.0997225" lon="-2.7499815">
        <ele>170.551</ele>
        <time>2021-04-01T09:10:14.749Z</time>
      </trkpt>
      <trkpt lat="43.0997241" lon="-2.7499827">
        <ele>170.577</ele>
        <time>2021-04-01T09:10:14.801Z</time>
      </trkpt>
      <trkpt lat="43.0997258" lon="-2.7499837">
        <ele>170.569</ele>
        <time>2021-04-01T09:10:14.853Z</time>
      </trkpt>
      <trkpt lat="43.0997274" lon="-2.7499847">
        <ele>170.565</ele>
        <time>2021-04-01T09:10:14.905Z</time>
      </trkpt>
      <trkpt lat="43.0997286" lon="-2.7499851">
        <ele>170.602</ele>
        <time>2021-04-01T09:10:14.957Z</time>
      </trkpt>
      <trkpt lat="43.0997301" lon="-2.7499861">
        <ele>170.606</ele>
        <time>2021-04-01T09:10:15.009Z</time>
      </trkpt>
      <trkpt lat="43.0997323" lon="-2.7499875">
        <ele>170.594</ele>
        <time>2021-04-01T09:10:15.061Z</time>
      </trkpt>
      <trkpt lat="43.0997335" lon="-2.7499885">
        <ele>170.57</ele>
        <time>2021-04-01T09:10:15.113Z</time>
      </trkpt>
      <trkpt lat="43.0997355" lon="-2.7499895">
        <ele>170.546</ele>
        <time>2021-04-01T09:10:15.165Z</time>
      </trkpt>
      <trkpt lat="43.0997375" lon="-2.7499904">
        <ele>170.53</ele>
        <time>2021-04-01T09:10:15.217Z</time>
      </trkpt>
      <trkpt lat="43.0997392" lon="-2.7499916">
        <ele>170.497</ele>
        <time>2021-04-01T09:10:15.269Z</time>
      </trkpt>
      <trkpt lat="43.0997408" lon="-2.7499922">
        <ele>170.494</ele>
        <time>2021-04-01T09:10:15.321Z</time>
      </trkpt>
      <trkpt lat="43.0997423" lon="-2.7499931">
        <ele>170.52</ele>
        <time>2021-04-01T09:10:15.373Z</time>
      </trkpt>
      <trkpt lat="43.0997439" lon="-2.7499941">
        <ele>170.535</ele>
        <time>2021-04-01T09:10:15.425Z</time>
      </trkpt>
      <trkpt lat="43.0997453" lon="-2.7499949">
        <ele>170.565</ele>
        <time>2021-04-01T09:10:15.477Z</time>
      </trkpt>
      <trkpt lat="43.0997467" lon="-2.7499956">
        <ele>170.52</ele>
        <time>2021-04-01T09:10:15.529Z</time>
      </trkpt>
      <trkpt lat="43.0997479" lon="-2.7499962">
        <ele>170.483</ele>
        <time>2021-04-01T09:10:15.584Z</time>
      </trkpt>
      <trkpt lat="43.0997495" lon="-2.7499974">
        <ele>170.436</ele>
        <time>2021-04-01T09:10:15.639Z</time>
      </trkpt>
      <trkpt lat="43.0997513" lon="-2.7499987">
        <ele>170.443</ele>
        <time>2021-04-01T09:10:15.694Z</time>
      </trkpt>
      <trkpt lat="43.099753" lon="-2.7499999">
        <ele>170.467</ele>
        <time>2021-04-01T09:10:15.749Z</time>
      </trkpt>
      <trkpt lat="43.0997542" lon="-2.7500003">
        <ele>170.499</ele>
        <time>2021-04-01T09:10:15.804Z</time>
      </trkpt>
      <trkpt lat="43.0997558" lon="-2.7500009">
        <ele>170.461</ele>
        <time>2021-04-01T09:10:15.859Z</time>
      </trkpt>
      <trkpt lat="43.0997576" lon="-2.7500018">
        <ele>170.418</ele>
        <time>2021-04-01T09:10:15.914Z</time>
      </trkpt>
      <trkpt lat="43.0997597" lon="-2.7500035">
        <ele>170.383</ele>
        <time>2021-04-01T09:10:15.969Z</time>
      </trkpt>
      <trkpt lat="43.0997611" lon="-2.7500045">
        <ele>170.34</ele>
        <time>2021-04-01T09:10:16.024Z</time>
      </trkpt>
      <trkpt lat="43.0997626" lon="-2.7500056">
        <ele>170.275</ele>
        <time>2021-04-01T09:10:16.079Z</time>
      </trkpt>
      <trkpt lat="43.0997642" lon="-2.7500067">
        <ele>170.159</ele>
        <time>2021-04-01T09:10:16.134Z</time>
      </trkpt>
      <trkpt lat="43.0997659" lon="-2.7500072">
        <ele>170.172</ele>
        <time>2021-04-01T09:10:16.189Z</time>
      </trkpt>
      <trkpt lat="43.0997674" lon="-2.7500083">
        <ele>170.128</ele>
        <time>2021-04-01T09:10:16.244Z</time>
      </trkpt>
      <trkpt lat="43.099769" lon="-2.7500094">
        <ele>170.076</ele>
        <time>2021-04-01T09:10:16.299Z</time>
      </trkpt>
      <trkpt lat="43.0997705" lon="-2.7500103">
        <ele>170.081</ele>
        <time>2021-04-01T09:10:16.354Z</time>
      </trkpt>
      <trkpt lat="43.0997721" lon="-2.7500113">
        <ele>170.093</ele>
        <time>2021-04-01T09:10:16.409Z</time>
      </trkpt>
      <trkpt lat="43.0997737" lon="-2.7500122">
        <ele>170.103</ele>
        <time>2021-04-01T09:10:16.464Z</time>
      </trkpt>
      <trkpt lat="43.0997753" lon="-2.7500135">
        <ele>170.081</ele>
        <time>2021-04-01T09:10:16.519Z</time>
      </trkpt>
      <trkpt lat="43.0997766" lon="-2.750014">
        <ele>170.105</ele>
        <time>2021-04-01T09:10:16.574Z</time>
      </trkpt>
      <trkpt lat="43.0997779" lon="-2.7500146">
        <ele>170.118</ele>
        <time>2021-04-01T09:10:16.629Z</time>
      </trkpt>
      <trkpt lat="43.0997796" lon="-2.7500158">
        <ele>170.053</ele>
        <time>2021-04-01T09:10:16.684Z</time>
      </trkpt>
      <trkpt lat="43.0997814" lon="-2.750017">
        <ele>170.037</ele>
        <time>2021-04-01T09:10:16.739Z</time>
      </trkpt>
      <trkpt lat="43.0997832" lon="-2.7500182">
        <ele>170.012</ele>
        <time>2021-04-01T09:10:16.794Z</time>
      </trkpt>
      <trkpt lat="43.0997849" lon="-2.7500193">
        <ele>170.018</ele>
        <time>2021-04-01T09:10:16.849Z</time>
      </trkpt>
      <trkpt lat="43.0997867" lon="-2.7500203">
        <ele>170.028</ele>
        <time>2021-04-01T09:10:16.904Z</time>
      </trkpt>
      <trkpt lat="43.0997881" lon="-2.7500211">
        <ele>170.023</ele>
        <time>2021-04-01T09:10:16.959Z</time>
      </trkpt>
      <trkpt lat="43.0997898" lon="-2.7500221">
        <ele>170.015</ele>
        <time>2021-04-01T09:10:17.014Z</time>
      </trkpt>
      <trkpt lat="43.0997914" lon="-2.7500232">
        <ele>170.067</ele>
        <time>2021-04-01T09:10:17.069Z</time>
      </trkpt>
      <trkpt lat="43.0997933" lon="-2.7500242">
        <ele>170.05</ele>
        <time>2021-04-01T09:10:17.124Z</time>
      </trkpt>
      <trkpt lat="43.0997951" lon="-2.7500254">
        <ele>170.036</ele>
        <time>2021-04-01T09:10:17.179Z</time>
      </trkpt>
      <trkpt lat="43.0997967" lon="-2.7500265">
        <ele>170.045</ele>
        <time>2021-04-01T09:10:17.234Z</time>
      </trkpt>
      <trkpt lat="43.0997985" lon="-2.7500279">
        <ele>170.093</ele>
        <time>2021-04-01T09:10:17.289Z</time>
      </trkpt>
      <trkpt lat="43.0998" lon="-2.7500284">
        <ele>170.083</ele>
        <time>2021-04-01T09:10:17.344Z</time>
      </trkpt>
      <trkpt lat="43.0998016" lon="-2.7500292">
        <ele>170.058</ele>
        <time>2021-04-01T09:10:17.399Z</time>
      </trkpt>
      <trkpt lat="43.099803" lon="-2.7500298">
        <ele>170.085</ele>
        <time>2021-04-01T09:10:17.454Z</time>
      </trkpt>
      <trkpt lat="43.0998047" lon="-2.7500307">
        <ele>170.146</ele>
        <time>2021-04-01T09:10:17.509Z</time>
      </trkpt>
      <trkpt lat="43.0998062" lon="-2.7500314">
        <ele>170.187</ele>
        <time>2021-04-01T09:10:17.564Z</time>
      </trkpt>
      <trkpt lat="43.0998075" lon="-2.7500317">
        <ele>170.202</ele>
        <time>2021-04-01T09:10:17.622Z</time>
      </trkpt>
      <trkpt lat="43.0998094" lon="-2.7500329">
        <ele>170.158</ele>
        <time>2021-04-01T09:10:17.680Z</time>
      </trkpt>
      <trkpt lat="43.0998112" lon="-2.750034">
        <ele>170.197</ele>
        <time>2021-04-01T09:10:17.738Z</time>
      </trkpt>
      <trkpt lat="43.0998131" lon="-2.7500357">
        <ele>170.165</ele>
        <time>2021-04-01T09:10:17.796Z</time>
      </trkpt>
      <trkpt lat="43.0998149" lon="-2.7500369">
        <ele>170.034</ele>
        <time>2021-04-01T09:10:17.854Z</time>
      </trkpt>
      <trkpt lat="43.0998163" lon="-2.7500376">
        <ele>170.087</ele>
        <time>2021-04-01T09:10:17.912Z</time>
      </trkpt>
      <trkpt lat="43.0998183" lon="-2.7500385">
        <ele>170.051</ele>
        <time>2021-04-01T09:10:17.970Z</time>
      </trkpt>
      <trkpt lat="43.0998198" lon="-2.7500391">
        <ele>170.113</ele>
        <time>2021-04-01T09:10:18.028Z</time>
      </trkpt>
      <trkpt lat="43.0998214" lon="-2.7500398">
        <ele>170.155</ele>
        <time>2021-04-01T09:10:18.086Z</time>
      </trkpt>
      <trkpt lat="43.0998232" lon="-2.7500406">
        <ele>170.199</ele>
        <time>2021-04-01T09:10:18.144Z</time>
      </trkpt>
      <trkpt lat="43.0998253" lon="-2.7500418">
        <ele>170.21</ele>
        <time>2021-04-01T09:10:18.202Z</time>
      </trkpt>
      <trkpt lat="43.0998274" lon="-2.7500429">
        <ele>170.135</ele>
        <time>2021-04-01T09:10:18.260Z</time>
      </trkpt>
      <trkpt lat="43.099829" lon="-2.750044">
        <ele>170.135</ele>
        <time>2021-04-01T09:10:18.318Z</time>
      </trkpt>
      <trkpt lat="43.0998304" lon="-2.7500444">
        <ele>170.17</ele>
        <time>2021-04-01T09:10:18.376Z</time>
      </trkpt>
      <trkpt lat="43.0998321" lon="-2.7500453">
        <ele>170.18</ele>
        <time>2021-04-01T09:10:18.434Z</time>
      </trkpt>
      <trkpt lat="43.0998339" lon="-2.7500463">
        <ele>170.174</ele>
        <time>2021-04-01T09:10:18.492Z</time>
      </trkpt>
      <trkpt lat="43.0998355" lon="-2.7500469">
        <ele>170.234</ele>
        <time>2021-04-01T09:10:18.550Z</time>
      </trkpt>
      <trkpt lat="43.0998371" lon="-2.7500476">
        <ele>170.251</ele>
        <time>2021-04-01T09:10:18.609Z</time>
      </trkpt>
      <trkpt lat="43.0998386" lon="-2.7500487">
        <ele>170.246</ele>
        <time>2021-04-01T09:10:18.660Z</time>
      </trkpt>
      <trkpt lat="43.0998404" lon="-2.7500499">
        <ele>170.262</ele>
        <time>2021-04-01T09:10:18.712Z</time>
      </trkpt>
      <trkpt lat="43.0998423" lon="-2.7500511">
        <ele>170.302</ele>
        <time>2021-04-01T09:10:18.764Z</time>
      </trkpt>
      <trkpt lat="43.0998435" lon="-2.750052">
        <ele>170.468</ele>
        <time>2021-04-01T09:10:18.816Z</time>
      </trkpt>
      <trkpt lat="43.0998454" lon="-2.7500533">
        <ele>170.495</ele>
        <time>2021-04-01T09:10:18.868Z</time>
      </trkpt>
      <trkpt lat="43.0998473" lon="-2.7500546">
        <ele>170.531</ele>
        <time>2021-04-01T09:10:18.920Z</time>
      </trkpt>
      <trkpt lat="43.0998491" lon="-2.7500559">
        <ele>170.531</ele>
        <time>2021-04-01T09:10:18.972Z</time>
      </trkpt>
      <trkpt lat="43.0998506" lon="-2.750057">
        <ele>170.541</ele>
        <time>2021-04-01T09:10:19.024Z</time>
      </trkpt>
      <trkpt lat="43.0998518" lon="-2.7500576">
        <ele>170.625</ele>
        <time>2021-04-01T09:10:19.076Z</time>
      </trkpt>
      <trkpt lat="43.0998532" lon="-2.7500584">
        <ele>170.662</ele>
        <time>2021-04-01T09:10:19.128Z</time>
      </trkpt>
      <trkpt lat="43.0998546" lon="-2.7500588">
        <ele>170.709</ele>
        <time>2021-04-01T09:10:19.180Z</time>
      </trkpt>
      <trkpt lat="43.0998559" lon="-2.7500595">
        <ele>170.721</ele>
        <time>2021-04-01T09:10:19.232Z</time>
      </trkpt>
      <trkpt lat="43.0998573" lon="-2.7500599">
        <ele>170.778</ele>
        <time>2021-04-01T09:10:19.284Z</time>
      </trkpt>
      <trkpt lat="43.0998587" lon="-2.7500604">
        <ele>170.83</ele>
        <time>2021-04-01T09:10:19.336Z</time>
      </trkpt>
      <trkpt lat="43.09986" lon="-2.750061">
        <ele>170.816</ele>
        <time>2021-04-01T09:10:19.388Z</time>
      </trkpt>
      <trkpt lat="43.0998614" lon="-2.7500614">
        <ele>170.816</ele>
        <time>2021-04-01T09:10:19.440Z</time>
      </trkpt>
      <trkpt lat="43.0998629" lon="-2.7500619">
        <ele>170.819</ele>
        <time>2021-04-01T09:10:19.492Z</time>
      </trkpt>
      <trkpt lat="43.0998644" lon="-2.7500624">
        <ele>170.75</ele>
        <time>2021-04-01T09:10:19.544Z</time>
      </trkpt>
      <trkpt lat="43.0998662" lon="-2.7500636">
        <ele>170.746</ele>
        <time>2021-04-01T09:10:19.599Z</time>
      </trkpt>
      <trkpt lat="43.0998684" lon="-2.7500648">
        <ele>170.672</ele>
        <time>2021-04-01T09:10:19.654Z</time>
      </trkpt>
      <trkpt lat="43.0998702" lon="-2.7500655">
        <ele>170.609</ele>
        <time>2021-04-01T09:10:19.709Z</time>
      </trkpt>
      <trkpt lat="43.0998718" lon="-2.7500661">
        <ele>170.72</ele>
        <time>2021-04-01T09:10:19.764Z</time>
      </trkpt>
      <trkpt lat="43.0998738" lon="-2.7500667">
        <ele>170.72</ele>
        <time>2021-04-01T09:10:19.819Z</time>
      </trkpt>
      <trkpt lat="43.0998753" lon="-2.7500669">
        <ele>170.757</ele>
        <time>2021-04-01T09:10:19.874Z</time>
      </trkpt>
      <trkpt lat="43.099876" lon="-2.7500663">
        <ele>170.77</ele>
        <time>2021-04-01T09:10:19.929Z</time>
      </trkpt>
      <trkpt lat="43.0998776" lon="-2.7500668">
        <ele>170.773</ele>
        <time>2021-04-01T09:10:19.984Z</time>
      </trkpt>
      <trkpt lat="43.0998795" lon="-2.7500671">
        <ele>170.736</ele>
        <time>2021-04-01T09:10:20.039Z</time>
      </trkpt>
      <trkpt lat="43.0998813" lon="-2.7500676">
        <ele>170.749</ele>
        <time>2021-04-01T09:10:20.094Z</time>
      </trkpt>
      <trkpt lat="43.0998834" lon="-2.7500685">
        <ele>170.714</ele>
        <time>2021-04-01T09:10:20.149Z</time>
      </trkpt>
      <trkpt lat="43.0998853" lon="-2.7500691">
        <ele>170.7</ele>
        <time>2021-04-01T09:10:20.204Z</time>
      </trkpt>
      <trkpt lat="43.0998871" lon="-2.7500698">
        <ele>170.691</ele>
        <time>2021-04-01T09:10:20.259Z</time>
      </trkpt>
      <trkpt lat="43.0998896" lon="-2.7500714">
        <ele>170.6</ele>
        <time>2021-04-01T09:10:20.314Z</time>
      </trkpt>
      <trkpt lat="43.0998921" lon="-2.7500726">
        <ele>170.631</ele>
        <time>2021-04-01T09:10:20.369Z</time>
      </trkpt>
      <trkpt lat="43.0998944" lon="-2.7500737">
        <ele>170.571</ele>
        <time>2021-04-01T09:10:20.424Z</time>
      </trkpt>
      <trkpt lat="43.0998963" lon="-2.7500747">
        <ele>170.577</ele>
        <time>2021-04-01T09:10:20.479Z</time>
      </trkpt>
      <trkpt lat="43.0998981" lon="-2.7500755">
        <ele>170.583</ele>
        <time>2021-04-01T09:10:20.534Z</time>
      </trkpt>
      <trkpt lat="43.0999006" lon="-2.7500768">
        <ele>170.546</ele>
        <time>2021-04-01T09:10:20.589Z</time>
      </trkpt>
      <trkpt lat="43.0999025" lon="-2.7500772">
        <ele>170.572</ele>
        <time>2021-04-01T09:10:20.640Z</time>
      </trkpt>
      <trkpt lat="43.0999045" lon="-2.7500778">
        <ele>170.568</ele>
        <time>2021-04-01T09:10:20.692Z</time>
      </trkpt>
      <trkpt lat="43.0999067" lon="-2.7500786">
        <ele>170.567</ele>
        <time>2021-04-01T09:10:20.744Z</time>
      </trkpt>
      <trkpt lat="43.0999089" lon="-2.7500793">
        <ele>170.578</ele>
        <time>2021-04-01T09:10:20.796Z</time>
      </trkpt>
      <trkpt lat="43.0999109" lon="-2.75008">
        <ele>170.568</ele>
        <time>2021-04-01T09:10:20.848Z</time>
      </trkpt>
      <trkpt lat="43.0999129" lon="-2.7500817">
        <ele>170.582</ele>
        <time>2021-04-01T09:10:20.900Z</time>
      </trkpt>
      <trkpt lat="43.0999148" lon="-2.7500824">
        <ele>170.622</ele>
        <time>2021-04-01T09:10:20.952Z</time>
      </trkpt>
      <trkpt lat="43.0999164" lon="-2.7500826">
        <ele>170.678</ele>
        <time>2021-04-01T09:10:21.004Z</time>
      </trkpt>
      <trkpt lat="43.0999179" lon="-2.7500823">
        <ele>170.776</ele>
        <time>2021-04-01T09:10:21.056Z</time>
      </trkpt>
      <trkpt lat="43.0999194" lon="-2.7500819">
        <ele>170.938</ele>
        <time>2021-04-01T09:10:21.108Z</time>
      </trkpt>
      <trkpt lat="43.0999209" lon="-2.7500823">
        <ele>171.109</ele>
        <time>2021-04-01T09:10:21.160Z</time>
      </trkpt>
      <trkpt lat="43.0999223" lon="-2.7500826">
        <ele>171.256</ele>
        <time>2021-04-01T09:10:21.212Z</time>
      </trkpt>
      <trkpt lat="43.0999237" lon="-2.7500828">
        <ele>171.337</ele>
        <time>2021-04-01T09:10:21.264Z</time>
      </trkpt>
      <trkpt lat="43.0999254" lon="-2.7500834">
        <ele>171.389</ele>
        <time>2021-04-01T09:10:21.316Z</time>
      </trkpt>
      <trkpt lat="43.0999272" lon="-2.7500841">
        <ele>171.408</ele>
        <time>2021-04-01T09:10:21.368Z</time>
      </trkpt>
      <trkpt lat="43.0999293" lon="-2.7500853">
        <ele>171.389</ele>
        <time>2021-04-01T09:10:21.420Z</time>
      </trkpt>
      <trkpt lat="43.0999311" lon="-2.7500862">
        <ele>171.342</ele>
        <time>2021-04-01T09:10:21.472Z</time>
      </trkpt>
      <trkpt lat="43.0999333" lon="-2.7500875">
        <ele>171.245</ele>
        <time>2021-04-01T09:10:21.524Z</time>
      </trkpt>
      <trkpt lat="43.0999354" lon="-2.7500887">
        <ele>171.221</ele>
        <time>2021-04-01T09:10:21.582Z</time>
      </trkpt>
      <trkpt lat="43.0999374" lon="-2.7500897">
        <ele>171.209</ele>
        <time>2021-04-01T09:10:21.640Z</time>
      </trkpt>
      <trkpt lat="43.0999391" lon="-2.7500907">
        <ele>171.184</ele>
        <time>2021-04-01T09:10:21.698Z</time>
      </trkpt>
      <trkpt lat="43.0999412" lon="-2.7500919">
        <ele>171.185</ele>
        <time>2021-04-01T09:10:21.756Z</time>
      </trkpt>
      <trkpt lat="43.099943" lon="-2.7500926">
        <ele>171.177</ele>
        <time>2021-04-01T09:10:21.814Z</time>
      </trkpt>
      <trkpt lat="43.0999448" lon="-2.7500934">
        <ele>171.168</ele>
        <time>2021-04-01T09:10:21.872Z</time>
      </trkpt>
      <trkpt lat="43.0999464" lon="-2.750094">
        <ele>171.199</ele>
        <time>2021-04-01T09:10:21.930Z</time>
      </trkpt>
      <trkpt lat="43.0999482" lon="-2.7500949">
        <ele>171.199</ele>
        <time>2021-04-01T09:10:21.988Z</time>
      </trkpt>
      <trkpt lat="43.0999504" lon="-2.7500966">
        <ele>171.121</ele>
        <time>2021-04-01T09:10:22.046Z</time>
      </trkpt>
      <trkpt lat="43.0999522" lon="-2.7500974">
        <ele>171.12</ele>
        <time>2021-04-01T09:10:22.104Z</time>
      </trkpt>
      <trkpt lat="43.0999537" lon="-2.750098">
        <ele>171.115</ele>
        <time>2021-04-01T09:10:22.162Z</time>
      </trkpt>
      <trkpt lat="43.0999559" lon="-2.7500998">
        <ele>171.055</ele>
        <time>2021-04-01T09:10:22.220Z</time>
      </trkpt>
      <trkpt lat="43.0999577" lon="-2.750101">
        <ele>171.013</ele>
        <time>2021-04-01T09:10:22.278Z</time>
      </trkpt>
      <trkpt lat="43.0999596" lon="-2.7501022">
        <ele>170.987</ele>
        <time>2021-04-01T09:10:22.336Z</time>
      </trkpt>
      <trkpt lat="43.0999614" lon="-2.7501038">
        <ele>170.944</ele>
        <time>2021-04-01T09:10:22.394Z</time>
      </trkpt>
      <trkpt lat="43.0999632" lon="-2.7501054">
        <ele>170.905</ele>
        <time>2021-04-01T09:10:22.452Z</time>
      </trkpt>
      <trkpt lat="43.099965" lon="-2.7501066">
        <ele>170.896</ele>
        <time>2021-04-01T09:10:22.510Z</time>
      </trkpt>
      <trkpt lat="43.0999669" lon="-2.7501083">
        <ele>170.883</ele>
        <time>2021-04-01T09:10:22.569Z</time>
      </trkpt>
      <trkpt lat="43.0999689" lon="-2.7501097">
        <ele>170.887</ele>
        <time>2021-04-01T09:10:22.624Z</time>
      </trkpt>
      <trkpt lat="43.099971" lon="-2.7501111">
        <ele>170.868</ele>
        <time>2021-04-01T09:10:22.679Z</time>
      </trkpt>
      <trkpt lat="43.0999731" lon="-2.7501124">
        <ele>170.835</ele>
        <time>2021-04-01T09:10:22.734Z</time>
      </trkpt>
      <trkpt lat="43.0999752" lon="-2.7501142">
        <ele>170.792</ele>
        <time>2021-04-01T09:10:22.789Z</time>
      </trkpt>
      <trkpt lat="43.0999773" lon="-2.7501154">
        <ele>170.738</ele>
        <time>2021-04-01T09:10:22.844Z</time>
      </trkpt>
      <trkpt lat="43.0999796" lon="-2.750117">
        <ele>170.698</ele>
        <time>2021-04-01T09:10:22.899Z</time>
      </trkpt>
      <trkpt lat="43.0999812" lon="-2.7501182">
        <ele>170.685</ele>
        <time>2021-04-01T09:10:22.954Z</time>
      </trkpt>
      <trkpt lat="43.0999831" lon="-2.7501193">
        <ele>170.688</ele>
        <time>2021-04-01T09:10:23.009Z</time>
      </trkpt>
      <trkpt lat="43.0999852" lon="-2.7501205">
        <ele>170.681</ele>
        <time>2021-04-01T09:10:23.064Z</time>
      </trkpt>
      <trkpt lat="43.0999874" lon="-2.7501216">
        <ele>170.682</ele>
        <time>2021-04-01T09:10:23.119Z</time>
      </trkpt>
      <trkpt lat="43.0999895" lon="-2.750123">
        <ele>170.657</ele>
        <time>2021-04-01T09:10:23.174Z</time>
      </trkpt>
      <trkpt lat="43.0999918" lon="-2.7501241">
        <ele>170.673</ele>
        <time>2021-04-01T09:10:23.229Z</time>
      </trkpt>
      <trkpt lat="43.0999939" lon="-2.7501251">
        <ele>170.676</ele>
        <time>2021-04-01T09:10:23.284Z</time>
      </trkpt>
      <trkpt lat="43.099996" lon="-2.7501262">
        <ele>170.654</ele>
        <time>2021-04-01T09:10:23.339Z</time>
      </trkpt>
      <trkpt lat="43.0999983" lon="-2.7501278">
        <ele>170.581</ele>
        <time>2021-04-01T09:10:23.394Z</time>
      </trkpt>
      <trkpt lat="43.1000006" lon="-2.7501298">
        <ele>170.494</ele>
        <time>2021-04-01T09:10:23.449Z</time>
      </trkpt>
      <trkpt lat="43.100003" lon="-2.7501319">
        <ele>170.409</ele>
        <time>2021-04-01T09:10:23.504Z</time>
      </trkpt>
      <trkpt lat="43.1000055" lon="-2.7501346">
        <ele>170.276</ele>
        <time>2021-04-01T09:10:23.559Z</time>
      </trkpt>
      <trkpt lat="43.1000081" lon="-2.7501369">
        <ele>170.168</ele>
        <time>2021-04-01T09:10:23.617Z</time>
      </trkpt>
      <trkpt lat="43.1000102" lon="-2.7501383">
        <ele>170.144</ele>
        <time>2021-04-01T09:10:23.675Z</time>
      </trkpt>
      <trkpt lat="43.1000123" lon="-2.7501393">
        <ele>170.145</ele>
        <time>2021-04-01T09:10:23.733Z</time>
      </trkpt>
      <trkpt lat="43.1000146" lon="-2.7501405">
        <ele>170.12</ele>
        <time>2021-04-01T09:10:23.791Z</time>
      </trkpt>
      <trkpt lat="43.1000165" lon="-2.7501416">
        <ele>170.11</ele>
        <time>2021-04-01T09:10:23.849Z</time>
      </trkpt>
      <trkpt lat="43.1000187" lon="-2.7501427">
        <ele>170.126</ele>
        <time>2021-04-01T09:10:23.907Z</time>
      </trkpt>
      <trkpt lat="43.1000206" lon="-2.7501431">
        <ele>170.217</ele>
        <time>2021-04-01T09:10:23.965Z</time>
      </trkpt>
      <trkpt lat="43.1000228" lon="-2.7501444">
        <ele>170.205</ele>
        <time>2021-04-01T09:10:24.023Z</time>
      </trkpt>
      <trkpt lat="43.100025" lon="-2.7501458">
        <ele>170.229</ele>
        <time>2021-04-01T09:10:24.081Z</time>
      </trkpt>
      <trkpt lat="43.1000274" lon="-2.7501473">
        <ele>170.213</ele>
        <time>2021-04-01T09:10:24.139Z</time>
      </trkpt>
      <trkpt lat="43.1000298" lon="-2.7501493">
        <ele>170.105</ele>
        <time>2021-04-01T09:10:24.197Z</time>
      </trkpt>
      <trkpt lat="43.100032" lon="-2.7501507">
        <ele>170.055</ele>
        <time>2021-04-01T09:10:24.255Z</time>
      </trkpt>
      <trkpt lat="43.1000344" lon="-2.7501524">
        <ele>170.014</ele>
        <time>2021-04-01T09:10:24.313Z</time>
      </trkpt>
      <trkpt lat="43.1000369" lon="-2.7501542">
        <ele>169.973</ele>
        <time>2021-04-01T09:10:24.371Z</time>
      </trkpt>
      <trkpt lat="43.1000393" lon="-2.7501556">
        <ele>169.938</ele>
        <time>2021-04-01T09:10:24.429Z</time>
      </trkpt>
      <trkpt lat="43.1000415" lon="-2.7501572">
        <ele>169.911</ele>
        <time>2021-04-01T09:10:24.487Z</time>
      </trkpt>
      <trkpt lat="43.1000435" lon="-2.750158">
        <ele>169.944</ele>
        <time>2021-04-01T09:10:24.545Z</time>
      </trkpt>
      <trkpt lat="43.1000457" lon="-2.7501592">
        <ele>169.955</ele>
        <time>2021-04-01T09:10:24.604Z</time>
      </trkpt>
      <trkpt lat="43.1000481" lon="-2.7501608">
        <ele>169.933</ele>
        <time>2021-04-01T09:10:24.655Z</time>
      </trkpt>
      <trkpt lat="43.1000505" lon="-2.7501622">
        <ele>169.909</ele>
        <time>2021-04-01T09:10:24.707Z</time>
      </trkpt>
      <trkpt lat="43.1000527" lon="-2.7501634">
        <ele>169.916</ele>
        <time>2021-04-01T09:10:24.759Z</time>
      </trkpt>
      <trkpt lat="43.1000549" lon="-2.7501646">
        <ele>169.909</ele>
        <time>2021-04-01T09:10:24.811Z</time>
      </trkpt>
      <trkpt lat="43.1000571" lon="-2.7501656">
        <ele>169.912</ele>
        <time>2021-04-01T09:10:24.863Z</time>
      </trkpt>
      <trkpt lat="43.1000594" lon="-2.750167">
        <ele>169.91</ele>
        <time>2021-04-01T09:10:24.915Z</time>
      </trkpt>
      <trkpt lat="43.1000617" lon="-2.7501681">
        <ele>169.917</ele>
        <time>2021-04-01T09:10:24.967Z</time>
      </trkpt>
      <trkpt lat="43.100064" lon="-2.750169">
        <ele>169.945</ele>
        <time>2021-04-01T09:10:25.019Z</time>
      </trkpt>
      <trkpt lat="43.1000663" lon="-2.7501702">
        <ele>169.916</ele>
        <time>2021-04-01T09:10:25.071Z</time>
      </trkpt>
      <trkpt lat="43.1000687" lon="-2.7501715">
        <ele>169.897</ele>
        <time>2021-04-01T09:10:25.123Z</time>
      </trkpt>
      <trkpt lat="43.1000711" lon="-2.7501725">
        <ele>169.877</ele>
        <time>2021-04-01T09:10:25.175Z</time>
      </trkpt>
      <trkpt lat="43.1000734" lon="-2.7501737">
        <ele>169.879</ele>
        <time>2021-04-01T09:10:25.227Z</time>
      </trkpt>
      <trkpt lat="43.1000758" lon="-2.7501749">
        <ele>169.864</ele>
        <time>2021-04-01T09:10:25.279Z</time>
      </trkpt>
      <trkpt lat="43.1000784" lon="-2.7501767">
        <ele>169.845</ele>
        <time>2021-04-01T09:10:25.331Z</time>
      </trkpt>
      <trkpt lat="43.1000806" lon="-2.7501783">
        <ele>169.856</ele>
        <time>2021-04-01T09:10:25.383Z</time>
      </trkpt>
      <trkpt lat="43.1000828" lon="-2.7501795">
        <ele>169.875</ele>
        <time>2021-04-01T09:10:25.435Z</time>
      </trkpt>
      <trkpt lat="43.1000851" lon="-2.7501808">
        <ele>169.856</ele>
        <time>2021-04-01T09:10:25.487Z</time>
      </trkpt>
      <trkpt lat="43.1000875" lon="-2.7501821">
        <ele>169.84</ele>
        <time>2021-04-01T09:10:25.539Z</time>
      </trkpt>
      <trkpt lat="43.1000898" lon="-2.7501837">
        <ele>169.829</ele>
        <time>2021-04-01T09:10:25.594Z</time>
      </trkpt>
      <trkpt lat="43.1000921" lon="-2.7501855">
        <ele>169.801</ele>
        <time>2021-04-01T09:10:25.649Z</time>
      </trkpt>
      <trkpt lat="43.1000943" lon="-2.7501864">
        <ele>169.799</ele>
        <time>2021-04-01T09:10:25.704Z</time>
      </trkpt>
      <trkpt lat="43.1000966" lon="-2.7501878">
        <ele>169.707</ele>
        <time>2021-04-01T09:10:25.759Z</time>
      </trkpt>
      <trkpt lat="43.1000991" lon="-2.7501894">
        <ele>169.632</ele>
        <time>2021-04-01T09:10:25.814Z</time>
      </trkpt>
      <trkpt lat="43.1001014" lon="-2.7501906">
        <ele>169.618</ele>
        <time>2021-04-01T09:10:25.869Z</time>
      </trkpt>
      <trkpt lat="43.1001034" lon="-2.7501913">
        <ele>169.667</ele>
        <time>2021-04-01T09:10:25.924Z</time>
      </trkpt>
      <trkpt lat="43.1001053" lon="-2.7501922">
        <ele>169.68</ele>
        <time>2021-04-01T09:10:25.979Z</time>
      </trkpt>
      <trkpt lat="43.1001075" lon="-2.7501934">
        <ele>169.647</ele>
        <time>2021-04-01T09:10:26.034Z</time>
      </trkpt>
      <trkpt lat="43.1001095" lon="-2.7501947">
        <ele>169.609</ele>
        <time>2021-04-01T09:10:26.089Z</time>
      </trkpt>
      <trkpt lat="43.1001115" lon="-2.7501955">
        <ele>169.608</ele>
        <time>2021-04-01T09:10:26.144Z</time>
      </trkpt>
      <trkpt lat="43.1001136" lon="-2.7501969">
        <ele>169.566</ele>
        <time>2021-04-01T09:10:26.199Z</time>
      </trkpt>
      <trkpt lat="43.100116" lon="-2.7501986">
        <ele>169.53</ele>
        <time>2021-04-01T09:10:26.254Z</time>
      </trkpt>
      <trkpt lat="43.1001181" lon="-2.7502003">
        <ele>169.497</ele>
        <time>2021-04-01T09:10:26.309Z</time>
      </trkpt>
      <trkpt lat="43.1001201" lon="-2.7502014">
        <ele>169.483</ele>
        <time>2021-04-01T09:10:26.364Z</time>
      </trkpt>
      <trkpt lat="43.1001217" lon="-2.7502022">
        <ele>169.411</ele>
        <time>2021-04-01T09:10:26.419Z</time>
      </trkpt>
      <trkpt lat="43.1001238" lon="-2.7502036">
        <ele>169.4</ele>
        <time>2021-04-01T09:10:26.474Z</time>
      </trkpt>
      <trkpt lat="43.1001259" lon="-2.7502049">
        <ele>169.398</ele>
        <time>2021-04-01T09:10:26.529Z</time>
      </trkpt>
      <trkpt lat="43.1001282" lon="-2.7502065">
        <ele>169.362</ele>
        <time>2021-04-01T09:10:26.584Z</time>
      </trkpt>
      <trkpt lat="43.1001301" lon="-2.7502074">
        <ele>169.359</ele>
        <time>2021-04-01T09:10:26.639Z</time>
      </trkpt>
      <trkpt lat="43.1001322" lon="-2.7502085">
        <ele>169.331</ele>
        <time>2021-04-01T09:10:26.694Z</time>
      </trkpt>
      <trkpt lat="43.1001342" lon="-2.7502098">
        <ele>169.324</ele>
        <time>2021-04-01T09:10:26.749Z</time>
      </trkpt>
      <trkpt lat="43.1001362" lon="-2.7502111">
        <ele>169.295</ele>
        <time>2021-04-01T09:10:26.804Z</time>
      </trkpt>
      <trkpt lat="43.1001381" lon="-2.7502122">
        <ele>169.262</ele>
        <time>2021-04-01T09:10:26.859Z</time>
      </trkpt>
      <trkpt lat="43.1001401" lon="-2.7502134">
        <ele>169.212</ele>
        <time>2021-04-01T09:10:26.914Z</time>
      </trkpt>
      <trkpt lat="43.1001423" lon="-2.7502147">
        <ele>169.155</ele>
        <time>2021-04-01T09:10:26.969Z</time>
      </trkpt>
      <trkpt lat="43.1001444" lon="-2.7502165">
        <ele>169.098</ele>
        <time>2021-04-01T09:10:27.024Z</time>
      </trkpt>
      <trkpt lat="43.1001462" lon="-2.7502174">
        <ele>169.039</ele>
        <time>2021-04-01T09:10:27.079Z</time>
      </trkpt>
      <trkpt lat="43.1001481" lon="-2.7502184">
        <ele>168.995</ele>
        <time>2021-04-01T09:10:27.134Z</time>
      </trkpt>
      <trkpt lat="43.10015" lon="-2.7502192">
        <ele>168.948</ele>
        <time>2021-04-01T09:10:27.189Z</time>
      </trkpt>
      <trkpt lat="43.1001522" lon="-2.7502202">
        <ele>168.887</ele>
        <time>2021-04-01T09:10:27.244Z</time>
      </trkpt>
      <trkpt lat="43.1001543" lon="-2.7502215">
        <ele>168.819</ele>
        <time>2021-04-01T09:10:27.299Z</time>
      </trkpt>
      <trkpt lat="43.1001563" lon="-2.7502225">
        <ele>168.749</ele>
        <time>2021-04-01T09:10:27.354Z</time>
      </trkpt>
      <trkpt lat="43.1001581" lon="-2.7502232">
        <ele>168.684</ele>
        <time>2021-04-01T09:10:27.409Z</time>
      </trkpt>
      <trkpt lat="43.1001598" lon="-2.7502237">
        <ele>168.672</ele>
        <time>2021-04-01T09:10:27.464Z</time>
      </trkpt>
      <trkpt lat="43.1001617" lon="-2.7502245">
        <ele>168.626</ele>
        <time>2021-04-01T09:10:27.519Z</time>
      </trkpt>
      <trkpt lat="43.1001636" lon="-2.7502253">
        <ele>168.584</ele>
        <time>2021-04-01T09:10:27.574Z</time>
      </trkpt>
      <trkpt lat="43.1001655" lon="-2.7502262">
        <ele>168.572</ele>
        <time>2021-04-01T09:10:27.629Z</time>
      </trkpt>
      <trkpt lat="43.1001672" lon="-2.7502271">
        <ele>168.551</ele>
        <time>2021-04-01T09:10:27.684Z</time>
      </trkpt>
      <trkpt lat="43.1001691" lon="-2.750228">
        <ele>168.535</ele>
        <time>2021-04-01T09:10:27.739Z</time>
      </trkpt>
      <trkpt lat="43.1001709" lon="-2.750229">
        <ele>168.463</ele>
        <time>2021-04-01T09:10:27.794Z</time>
      </trkpt>
      <trkpt lat="43.1001729" lon="-2.7502299">
        <ele>168.426</ele>
        <time>2021-04-01T09:10:27.849Z</time>
      </trkpt>
      <trkpt lat="43.1001743" lon="-2.7502302">
        <ele>168.428</ele>
        <time>2021-04-01T09:10:27.904Z</time>
      </trkpt>
      <trkpt lat="43.1001761" lon="-2.750231">
        <ele>168.426</ele>
        <time>2021-04-01T09:10:27.959Z</time>
      </trkpt>
      <trkpt lat="43.1001779" lon="-2.7502313">
        <ele>168.439</ele>
        <time>2021-04-01T09:10:28.014Z</time>
      </trkpt>
      <trkpt lat="43.1001798" lon="-2.7502321">
        <ele>168.435</ele>
        <time>2021-04-01T09:10:28.069Z</time>
      </trkpt>
      <trkpt lat="43.1001819" lon="-2.7502328">
        <ele>168.44</ele>
        <time>2021-04-01T09:10:28.124Z</time>
      </trkpt>
      <trkpt lat="43.1001837" lon="-2.7502333">
        <ele>168.417</ele>
        <time>2021-04-01T09:10:28.179Z</time>
      </trkpt>
      <trkpt lat="43.1001852" lon="-2.7502331">
        <ele>168.419</ele>
        <time>2021-04-01T09:10:28.234Z</time>
      </trkpt>
      <trkpt lat="43.100187" lon="-2.7502336">
        <ele>168.415</ele>
        <time>2021-04-01T09:10:28.289Z</time>
      </trkpt>
      <trkpt lat="43.1001889" lon="-2.7502337">
        <ele>168.438</ele>
        <time>2021-04-01T09:10:28.344Z</time>
      </trkpt>
      <trkpt lat="43.1001912" lon="-2.7502346">
        <ele>168.42</ele>
        <time>2021-04-01T09:10:28.399Z</time>
      </trkpt>
      <trkpt lat="43.1001934" lon="-2.7502354">
        <ele>168.413</ele>
        <time>2021-04-01T09:10:28.454Z</time>
      </trkpt>
      <trkpt lat="43.1001954" lon="-2.7502362">
        <ele>168.399</ele>
        <time>2021-04-01T09:10:28.509Z</time>
      </trkpt>
      <trkpt lat="43.1001982" lon="-2.750238">
        <ele>168.224</ele>
        <time>2021-04-01T09:10:28.564Z</time>
      </trkpt>
      <trkpt lat="43.1002006" lon="-2.7502396">
        <ele>168.126</ele>
        <time>2021-04-01T09:10:28.619Z</time>
      </trkpt>
      <trkpt lat="43.1002022" lon="-2.7502402">
        <ele>168.245</ele>
        <time>2021-04-01T09:10:28.674Z</time>
      </trkpt>
      <trkpt lat="43.1002038" lon="-2.7502403">
        <ele>168.299</ele>
        <time>2021-04-01T09:10:28.729Z</time>
      </trkpt>
      <trkpt lat="43.1002054" lon="-2.7502408">
        <ele>168.415</ele>
        <time>2021-04-01T09:10:28.784Z</time>
      </trkpt>
      <trkpt lat="43.1002073" lon="-2.7502416">
        <ele>168.42</ele>
        <time>2021-04-01T09:10:28.839Z</time>
      </trkpt>
      <trkpt lat="43.1002092" lon="-2.7502425">
        <ele>168.415</ele>
        <time>2021-04-01T09:10:28.894Z</time>
      </trkpt>
      <trkpt lat="43.1002114" lon="-2.7502434">
        <ele>168.437</ele>
        <time>2021-04-01T09:10:28.949Z</time>
      </trkpt>
      <trkpt lat="43.1002136" lon="-2.7502441">
        <ele>168.437</ele>
        <time>2021-04-01T09:10:29.004Z</time>
      </trkpt>
      <trkpt lat="43.1002158" lon="-2.7502448">
        <ele>168.386</ele>
        <time>2021-04-01T09:10:29.059Z</time>
      </trkpt>
      <trkpt lat="43.1002179" lon="-2.7502455">
        <ele>168.335</ele>
        <time>2021-04-01T09:10:29.114Z</time>
      </trkpt>
      <trkpt lat="43.1002202" lon="-2.7502464">
        <ele>168.299</ele>
        <time>2021-04-01T09:10:29.169Z</time>
      </trkpt>
      <trkpt lat="43.1002225" lon="-2.7502475">
        <ele>168.266</ele>
        <time>2021-04-01T09:10:29.224Z</time>
      </trkpt>
      <trkpt lat="43.1002248" lon="-2.7502483">
        <ele>168.237</ele>
        <time>2021-04-01T09:10:29.279Z</time>
      </trkpt>
      <trkpt lat="43.1002268" lon="-2.7502487">
        <ele>168.211</ele>
        <time>2021-04-01T09:10:29.334Z</time>
      </trkpt>
      <trkpt lat="43.100229" lon="-2.7502498">
        <ele>168.149</ele>
        <time>2021-04-01T09:10:29.389Z</time>
      </trkpt>
      <trkpt lat="43.1002318" lon="-2.7502509">
        <ele>168.104</ele>
        <time>2021-04-01T09:10:29.444Z</time>
      </trkpt>
      <trkpt lat="43.1002346" lon="-2.7502525">
        <ele>168.027</ele>
        <time>2021-04-01T09:10:29.499Z</time>
      </trkpt>
      <trkpt lat="43.1002372" lon="-2.7502539">
        <ele>167.965</ele>
        <time>2021-04-01T09:10:29.554Z</time>
      </trkpt>
      <trkpt lat="43.10024" lon="-2.7502554">
        <ele>167.871</ele>
        <time>2021-04-01T09:10:29.609Z</time>
      </trkpt>
      <trkpt lat="43.1002421" lon="-2.7502558">
        <ele>167.871</ele>
        <time>2021-04-01T09:10:29.664Z</time>
      </trkpt>
      <trkpt lat="43.1002444" lon="-2.7502563">
        <ele>167.87</ele>
        <time>2021-04-01T09:10:29.719Z</time>
      </trkpt>
      <trkpt lat="43.1002467" lon="-2.7502572">
        <ele>167.854</ele>
        <time>2021-04-01T09:10:29.774Z</time>
      </trkpt>
      <trkpt lat="43.1002493" lon="-2.7502578">
        <ele>167.869</ele>
        <time>2021-04-01T09:10:29.829Z</time>
      </trkpt>
      <trkpt lat="43.100252" lon="-2.7502592">
        <ele>167.77</ele>
        <time>2021-04-01T09:10:29.884Z</time>
      </trkpt>
      <trkpt lat="43.1002548" lon="-2.7502606">
        <ele>167.652</ele>
        <time>2021-04-01T09:10:29.939Z</time>
      </trkpt>
      <trkpt lat="43.1002571" lon="-2.7502613">
        <ele>167.655</ele>
        <time>2021-04-01T09:10:29.994Z</time>
      </trkpt>
      <trkpt lat="43.1002597" lon="-2.7502623">
        <ele>167.581</ele>
        <time>2021-04-01T09:10:30.049Z</time>
      </trkpt>
      <trkpt lat="43.100262" lon="-2.7502625">
        <ele>167.628</ele>
        <time>2021-04-01T09:10:30.104Z</time>
      </trkpt>
      <trkpt lat="43.1002645" lon="-2.7502631">
        <ele>167.639</ele>
        <time>2021-04-01T09:10:30.159Z</time>
      </trkpt>
      <trkpt lat="43.1002672" lon="-2.7502641">
        <ele>167.582</ele>
        <time>2021-04-01T09:10:30.214Z</time>
      </trkpt>
      <trkpt lat="43.1002699" lon="-2.7502649">
        <ele>167.543</ele>
        <time>2021-04-01T09:10:30.269Z</time>
      </trkpt>
      <trkpt lat="43.1002724" lon="-2.7502657">
        <ele>167.486</ele>
        <time>2021-04-01T09:10:30.324Z</time>
      </trkpt>
      <trkpt lat="43.1002748" lon="-2.7502661">
        <ele>167.518</ele>
        <time>2021-04-01T09:10:30.379Z</time>
      </trkpt>
      <trkpt lat="43.1002771" lon="-2.750266">
        <ele>167.593</ele>
        <time>2021-04-01T09:10:30.434Z</time>
      </trkpt>
      <trkpt lat="43.10028" lon="-2.750267">
        <ele>167.456</ele>
        <time>2021-04-01T09:10:30.489Z</time>
      </trkpt>
      <trkpt lat="43.1002828" lon="-2.7502679">
        <ele>167.415</ele>
        <time>2021-04-01T09:10:30.544Z</time>
      </trkpt>
      <trkpt lat="43.1002854" lon="-2.7502688">
        <ele>167.387</ele>
        <time>2021-04-01T09:10:30.599Z</time>
      </trkpt>
      <trkpt lat="43.1002881" lon="-2.7502697">
        <ele>167.299</ele>
        <time>2021-04-01T09:10:30.654Z</time>
      </trkpt>
      <trkpt lat="43.1002908" lon="-2.7502703">
        <ele>167.284</ele>
        <time>2021-04-01T09:10:30.709Z</time>
      </trkpt>
      <trkpt lat="43.1002933" lon="-2.7502703">
        <ele>167.267</ele>
        <time>2021-04-01T09:10:30.764Z</time>
      </trkpt>
      <trkpt lat="43.1002962" lon="-2.7502711">
        <ele>167.209</ele>
        <time>2021-04-01T09:10:30.819Z</time>
      </trkpt>
      <trkpt lat="43.1002988" lon="-2.7502719">
        <ele>167.151</ele>
        <time>2021-04-01T09:10:30.874Z</time>
      </trkpt>
      <trkpt lat="43.1003013" lon="-2.7502722">
        <ele>167.077</ele>
        <time>2021-04-01T09:10:30.929Z</time>
      </trkpt>
      <trkpt lat="43.100304" lon="-2.7502728">
        <ele>167.016</ele>
        <time>2021-04-01T09:10:30.984Z</time>
      </trkpt>
      <trkpt lat="43.1003065" lon="-2.7502732">
        <ele>167.023</ele>
        <time>2021-04-01T09:10:31.039Z</time>
      </trkpt>
      <trkpt lat="43.1003093" lon="-2.750274">
        <ele>167.016</ele>
        <time>2021-04-01T09:10:31.094Z</time>
      </trkpt>
      <trkpt lat="43.1003117" lon="-2.7502739">
        <ele>167.101</ele>
        <time>2021-04-01T09:10:31.149Z</time>
      </trkpt>
      <trkpt lat="43.1003143" lon="-2.750274">
        <ele>167.071</ele>
        <time>2021-04-01T09:10:31.204Z</time>
      </trkpt>
      <trkpt lat="43.1003169" lon="-2.7502737">
        <ele>167.104</ele>
        <time>2021-04-01T09:10:31.259Z</time>
      </trkpt>
      <trkpt lat="43.1003198" lon="-2.7502747">
        <ele>167.024</ele>
        <time>2021-04-01T09:10:31.314Z</time>
      </trkpt>
      <trkpt lat="43.1003226" lon="-2.7502757">
        <ele>166.965</ele>
        <time>2021-04-01T09:10:31.369Z</time>
      </trkpt>
      <trkpt lat="43.1003251" lon="-2.750276">
        <ele>166.977</ele>
        <time>2021-04-01T09:10:31.424Z</time>
      </trkpt>
      <trkpt lat="43.1003276" lon="-2.7502763">
        <ele>166.985</ele>
        <time>2021-04-01T09:10:31.479Z</time>
      </trkpt>
      <trkpt lat="43.1003303" lon="-2.7502766">
        <ele>166.959</ele>
        <time>2021-04-01T09:10:31.534Z</time>
      </trkpt>
      <trkpt lat="43.100333" lon="-2.7502775">
        <ele>166.846</ele>
        <time>2021-04-01T09:10:31.589Z</time>
      </trkpt>
      <trkpt lat="43.1003356" lon="-2.750278">
        <ele>166.835</ele>
        <time>2021-04-01T09:10:31.644Z</time>
      </trkpt>
      <trkpt lat="43.1003381" lon="-2.7502777">
        <ele>166.881</ele>
        <time>2021-04-01T09:10:31.699Z</time>
      </trkpt>
      <trkpt lat="43.1003408" lon="-2.750278">
        <ele>166.852</ele>
        <time>2021-04-01T09:10:31.754Z</time>
      </trkpt>
      <trkpt lat="43.1003436" lon="-2.7502784">
        <ele>166.791</ele>
        <time>2021-04-01T09:10:31.809Z</time>
      </trkpt>
      <trkpt lat="43.1003463" lon="-2.7502792">
        <ele>166.72</ele>
        <time>2021-04-01T09:10:31.864Z</time>
      </trkpt>
      <trkpt lat="43.1003491" lon="-2.7502797">
        <ele>166.687</ele>
        <time>2021-04-01T09:10:31.919Z</time>
      </trkpt>
      <trkpt lat="43.1003518" lon="-2.7502799">
        <ele>166.67</ele>
        <time>2021-04-01T09:10:31.974Z</time>
      </trkpt>
      <trkpt lat="43.1003544" lon="-2.7502801">
        <ele>166.647</ele>
        <time>2021-04-01T09:10:32.029Z</time>
      </trkpt>
      <trkpt lat="43.1003572" lon="-2.7502809">
        <ele>166.581</ele>
        <time>2021-04-01T09:10:32.084Z</time>
      </trkpt>
      <trkpt lat="43.1003602" lon="-2.7502818">
        <ele>166.53</ele>
        <time>2021-04-01T09:10:32.139Z</time>
      </trkpt>
      <trkpt lat="43.1003628" lon="-2.7502825">
        <ele>166.511</ele>
        <time>2021-04-01T09:10:32.194Z</time>
      </trkpt>
      <trkpt lat="43.1003653" lon="-2.7502827">
        <ele>166.505</ele>
        <time>2021-04-01T09:10:32.249Z</time>
      </trkpt>
      <trkpt lat="43.1003682" lon="-2.7502834">
        <ele>166.45</ele>
        <time>2021-04-01T09:10:32.304Z</time>
      </trkpt>
      <trkpt lat="43.100371" lon="-2.7502839">
        <ele>166.417</ele>
        <time>2021-04-01T09:10:32.359Z</time>
      </trkpt>
      <trkpt lat="43.1003737" lon="-2.7502845">
        <ele>166.392</ele>
        <time>2021-04-01T09:10:32.414Z</time>
      </trkpt>
      <trkpt lat="43.1003765" lon="-2.750285">
        <ele>166.33</ele>
        <time>2021-04-01T09:10:32.469Z</time>
      </trkpt>
      <trkpt lat="43.1003796" lon="-2.750286">
        <ele>166.206</ele>
        <time>2021-04-01T09:10:32.524Z</time>
      </trkpt>
      <trkpt lat="43.1003826" lon="-2.750287">
        <ele>166.118</ele>
        <time>2021-04-01T09:10:32.579Z</time>
      </trkpt>
      <trkpt lat="43.1003853" lon="-2.7502878">
        <ele>166.031</ele>
        <time>2021-04-01T09:10:32.634Z</time>
      </trkpt>
      <trkpt lat="43.1003881" lon="-2.7502884">
        <ele>165.947</ele>
        <time>2021-04-01T09:10:32.689Z</time>
      </trkpt>
      <trkpt lat="43.100391" lon="-2.750289">
        <ele>165.92</ele>
        <time>2021-04-01T09:10:32.744Z</time>
      </trkpt>
      <trkpt lat="43.1003937" lon="-2.7502891">
        <ele>165.931</ele>
        <time>2021-04-01T09:10:32.799Z</time>
      </trkpt>
      <trkpt lat="43.1003964" lon="-2.7502894">
        <ele>165.908</ele>
        <time>2021-04-01T09:10:32.854Z</time>
      </trkpt>
      <trkpt lat="43.1003993" lon="-2.7502896">
        <ele>165.907</ele>
        <time>2021-04-01T09:10:32.909Z</time>
      </trkpt>
      <trkpt lat="43.1004021" lon="-2.7502903">
        <ele>165.864</ele>
        <time>2021-04-01T09:10:32.964Z</time>
      </trkpt>
      <trkpt lat="43.1004048" lon="-2.7502906">
        <ele>165.845</ele>
        <time>2021-04-01T09:10:33.019Z</time>
      </trkpt>
      <trkpt lat="43.1004076" lon="-2.7502908">
        <ele>165.841</ele>
        <time>2021-04-01T09:10:33.074Z</time>
      </trkpt>
      <trkpt lat="43.1004104" lon="-2.7502914">
        <ele>165.796</ele>
        <time>2021-04-01T09:10:33.129Z</time>
      </trkpt>
      <trkpt lat="43.1004132" lon="-2.7502917">
        <ele>165.763</ele>
        <time>2021-04-01T09:10:33.184Z</time>
      </trkpt>
      <trkpt lat="43.1004161" lon="-2.7502923">
        <ele>165.729</ele>
        <time>2021-04-01T09:10:33.239Z</time>
      </trkpt>
      <trkpt lat="43.1004188" lon="-2.7502926">
        <ele>165.697</ele>
        <time>2021-04-01T09:10:33.294Z</time>
      </trkpt>
      <trkpt lat="43.1004217" lon="-2.7502928">
        <ele>165.668</ele>
        <time>2021-04-01T09:10:33.349Z</time>
      </trkpt>
      <trkpt lat="43.1004243" lon="-2.7502927">
        <ele>165.658</ele>
        <time>2021-04-01T09:10:33.404Z</time>
      </trkpt>
      <trkpt lat="43.100427" lon="-2.7502932">
        <ele>165.593</ele>
        <time>2021-04-01T09:10:33.459Z</time>
      </trkpt>
      <trkpt lat="43.1004298" lon="-2.7502935">
        <ele>165.554</ele>
        <time>2021-04-01T09:10:33.514Z</time>
      </trkpt>
      <trkpt lat="43.1004323" lon="-2.7502931">
        <ele>165.626</ele>
        <time>2021-04-01T09:10:33.569Z</time>
      </trkpt>
      <trkpt lat="43.1004349" lon="-2.7502929">
        <ele>165.661</ele>
        <time>2021-04-01T09:10:33.621Z</time>
      </trkpt>
      <trkpt lat="43.1004377" lon="-2.7502927">
        <ele>165.674</ele>
        <time>2021-04-01T09:10:33.673Z</time>
      </trkpt>
      <trkpt lat="43.1004404" lon="-2.7502929">
        <ele>165.64</ele>
        <time>2021-04-01T09:10:33.725Z</time>
      </trkpt>
      <trkpt lat="43.1004434" lon="-2.750293">
        <ele>165.636</ele>
        <time>2021-04-01T09:10:33.777Z</time>
      </trkpt>
      <trkpt lat="43.1004463" lon="-2.7502935">
        <ele>165.59</ele>
        <time>2021-04-01T09:10:33.829Z</time>
      </trkpt>
      <trkpt lat="43.100449" lon="-2.7502938">
        <ele>165.572</ele>
        <time>2021-04-01T09:10:33.881Z</time>
      </trkpt>
      <trkpt lat="43.1004518" lon="-2.7502941">
        <ele>165.543</ele>
        <time>2021-04-01T09:10:33.933Z</time>
      </trkpt>
      <trkpt lat="43.1004548" lon="-2.7502945">
        <ele>165.481</ele>
        <time>2021-04-01T09:10:33.985Z</time>
      </trkpt>
      <trkpt lat="43.1004575" lon="-2.7502943">
        <ele>165.511</ele>
        <time>2021-04-01T09:10:34.037Z</time>
      </trkpt>
      <trkpt lat="43.10046" lon="-2.750294">
        <ele>165.557</ele>
        <time>2021-04-01T09:10:34.090Z</time>
      </trkpt>
      <trkpt lat="43.1004627" lon="-2.750294">
        <ele>165.591</ele>
        <time>2021-04-01T09:10:34.142Z</time>
      </trkpt>
      <trkpt lat="43.1004656" lon="-2.7502941">
        <ele>165.542</ele>
        <time>2021-04-01T09:10:34.194Z</time>
      </trkpt>
      <trkpt lat="43.1004684" lon="-2.7502944">
        <ele>165.525</ele>
        <time>2021-04-01T09:10:34.246Z</time>
      </trkpt>
      <trkpt lat="43.1004711" lon="-2.7502947">
        <ele>165.53</ele>
        <time>2021-04-01T09:10:34.298Z</time>
      </trkpt>
      <trkpt lat="43.1004737" lon="-2.7502949">
        <ele>165.49</ele>
        <time>2021-04-01T09:10:34.350Z</time>
      </trkpt>
      <trkpt lat="43.1004765" lon="-2.7502949">
        <ele>165.506</ele>
        <time>2021-04-01T09:10:34.402Z</time>
      </trkpt>
      <trkpt lat="43.1004793" lon="-2.7502949">
        <ele>165.501</ele>
        <time>2021-04-01T09:10:34.454Z</time>
      </trkpt>
      <trkpt lat="43.100482" lon="-2.7502949">
        <ele>165.473</ele>
        <time>2021-04-01T09:10:34.506Z</time>
      </trkpt>
      <trkpt lat="43.1004849" lon="-2.7502954">
        <ele>165.438</ele>
        <time>2021-04-01T09:10:34.559Z</time>
      </trkpt>
      <trkpt lat="43.1004877" lon="-2.7502956">
        <ele>165.454</ele>
        <time>2021-04-01T09:10:34.620Z</time>
      </trkpt>
      <trkpt lat="43.1004908" lon="-2.7502961">
        <ele>165.421</ele>
        <time>2021-04-01T09:10:34.681Z</time>
      </trkpt>
      <trkpt lat="43.1004937" lon="-2.7502961">
        <ele>165.405</ele>
        <time>2021-04-01T09:10:34.743Z</time>
      </trkpt>
      <trkpt lat="43.1004965" lon="-2.7502965">
        <ele>165.369</ele>
        <time>2021-04-01T09:10:34.804Z</time>
      </trkpt>
      <trkpt lat="43.1004994" lon="-2.750297">
        <ele>165.344</ele>
        <time>2021-04-01T09:10:34.866Z</time>
      </trkpt>
      <trkpt lat="43.1005021" lon="-2.7502971">
        <ele>165.325</ele>
        <time>2021-04-01T09:10:34.927Z</time>
      </trkpt>
      <trkpt lat="43.1005051" lon="-2.7502976">
        <ele>165.261</ele>
        <time>2021-04-01T09:10:34.989Z</time>
      </trkpt>
      <trkpt lat="43.100508" lon="-2.7502977">
        <ele>165.243</ele>
        <time>2021-04-01T09:10:35.050Z</time>
      </trkpt>
      <trkpt lat="43.1005106" lon="-2.7502975">
        <ele>165.238</ele>
        <time>2021-04-01T09:10:35.112Z</time>
      </trkpt>
      <trkpt lat="43.1005134" lon="-2.7502976">
        <ele>165.227</ele>
        <time>2021-04-01T09:10:35.173Z</time>
      </trkpt>
      <trkpt lat="43.1005161" lon="-2.7502975">
        <ele>165.223</ele>
        <time>2021-04-01T09:10:35.235Z</time>
      </trkpt>
      <trkpt lat="43.100519" lon="-2.7502975">
        <ele>165.209</ele>
        <time>2021-04-01T09:10:35.296Z</time>
      </trkpt>
      <trkpt lat="43.1005221" lon="-2.750298">
        <ele>165.156</ele>
        <time>2021-04-01T09:10:35.358Z</time>
      </trkpt>
      <trkpt lat="43.1005251" lon="-2.7502982">
        <ele>165.13</ele>
        <time>2021-04-01T09:10:35.419Z</time>
      </trkpt>
      <trkpt lat="43.1005281" lon="-2.7502983">
        <ele>165.1</ele>
        <time>2021-04-01T09:10:35.481Z</time>
      </trkpt>
      <trkpt lat="43.1005309" lon="-2.7502983">
        <ele>165.129</ele>
        <time>2021-04-01T09:10:35.542Z</time>
      </trkpt>
      <trkpt lat="43.1005337" lon="-2.7502982">
        <ele>165.137</ele>
        <time>2021-04-01T09:10:35.604Z</time>
      </trkpt>
      <trkpt lat="43.1005364" lon="-2.7502982">
        <ele>165.135</ele>
        <time>2021-04-01T09:10:35.653Z</time>
      </trkpt>
      <trkpt lat="43.1005395" lon="-2.7502985">
        <ele>165.107</ele>
        <time>2021-04-01T09:10:35.702Z</time>
      </trkpt>
      <trkpt lat="43.1005422" lon="-2.7502984">
        <ele>165.09</ele>
        <time>2021-04-01T09:10:35.751Z</time>
      </trkpt>
      <trkpt lat="43.1005452" lon="-2.7502988">
        <ele>165.025</ele>
        <time>2021-04-01T09:10:35.800Z</time>
      </trkpt>
      <trkpt lat="43.1005484" lon="-2.7502991">
        <ele>164.975</ele>
        <time>2021-04-01T09:10:35.850Z</time>
      </trkpt>
      <trkpt lat="43.1005513" lon="-2.7502991">
        <ele>164.945</ele>
        <time>2021-04-01T09:10:35.899Z</time>
      </trkpt>
      <trkpt lat="43.1005541" lon="-2.7502992">
        <ele>164.915</ele>
        <time>2021-04-01T09:10:35.948Z</time>
      </trkpt>
      <trkpt lat="43.1005571" lon="-2.7502994">
        <ele>164.883</ele>
        <time>2021-04-01T09:10:35.997Z</time>
      </trkpt>
      <trkpt lat="43.1005599" lon="-2.7502995">
        <ele>164.865</ele>
        <time>2021-04-01T09:10:36.046Z</time>
      </trkpt>
      <trkpt lat="43.1005628" lon="-2.7502996">
        <ele>164.839</ele>
        <time>2021-04-01T09:10:36.096Z</time>
      </trkpt>
      <trkpt lat="43.1005657" lon="-2.7502999">
        <ele>164.802</ele>
        <time>2021-04-01T09:10:36.145Z</time>
      </trkpt>
      <trkpt lat="43.1005685" lon="-2.7503003">
        <ele>164.785</ele>
        <time>2021-04-01T09:10:36.194Z</time>
      </trkpt>
      <trkpt lat="43.1005717" lon="-2.7503011">
        <ele>164.745</ele>
        <time>2021-04-01T09:10:36.243Z</time>
      </trkpt>
      <trkpt lat="43.1005744" lon="-2.750301">
        <ele>164.796</ele>
        <time>2021-04-01T09:10:36.292Z</time>
      </trkpt>
      <trkpt lat="43.1005778" lon="-2.7503019">
        <ele>164.692</ele>
        <time>2021-04-01T09:10:36.342Z</time>
      </trkpt>
      <trkpt lat="43.1005812" lon="-2.7503024">
        <ele>164.637</ele>
        <time>2021-04-01T09:10:36.391Z</time>
      </trkpt>
      <trkpt lat="43.1005842" lon="-2.7503032">
        <ele>164.617</ele>
        <time>2021-04-01T09:10:36.440Z</time>
      </trkpt>
      <trkpt lat="43.100587" lon="-2.7503038">
        <ele>164.593</ele>
        <time>2021-04-01T09:10:36.489Z</time>
      </trkpt>
      <trkpt lat="43.1005899" lon="-2.7503039">
        <ele>164.594</ele>
        <time>2021-04-01T09:10:36.539Z</time>
      </trkpt>
      <trkpt lat="43.1005928" lon="-2.7503042">
        <ele>164.571</ele>
        <time>2021-04-01T09:10:36.597Z</time>
      </trkpt>
      <trkpt lat="43.1005957" lon="-2.7503044">
        <ele>164.551</ele>
        <time>2021-04-01T09:10:36.655Z</time>
      </trkpt>
      <trkpt lat="43.1005988" lon="-2.7503051">
        <ele>164.493</ele>
        <time>2021-04-01T09:10:36.713Z</time>
      </trkpt>
      <trkpt lat="43.1006016" lon="-2.7503055">
        <ele>164.509</ele>
        <time>2021-04-01T09:10:36.771Z</time>
      </trkpt>
      <trkpt lat="43.1006045" lon="-2.7503056">
        <ele>164.497</ele>
        <time>2021-04-01T09:10:36.829Z</time>
      </trkpt>
      <trkpt lat="43.1006074" lon="-2.7503058">
        <ele>164.472</ele>
        <time>2021-04-01T09:10:36.887Z</time>
      </trkpt>
      <trkpt lat="43.1006102" lon="-2.7503061">
        <ele>164.453</ele>
        <time>2021-04-01T09:10:36.945Z</time>
      </trkpt>
      <trkpt lat="43.100613" lon="-2.7503065">
        <ele>164.434</ele>
        <time>2021-04-01T09:10:37.003Z</time>
      </trkpt>
      <trkpt lat="43.100616" lon="-2.750307">
        <ele>164.397</ele>
        <time>2021-04-01T09:10:37.061Z</time>
      </trkpt>
      <trkpt lat="43.1006191" lon="-2.7503076">
        <ele>164.328</ele>
        <time>2021-04-01T09:10:37.119Z</time>
      </trkpt>
      <trkpt lat="43.1006223" lon="-2.7503085">
        <ele>164.249</ele>
        <time>2021-04-01T09:10:37.177Z</time>
      </trkpt>
      <trkpt lat="43.1006253" lon="-2.7503089">
        <ele>164.218</ele>
        <time>2021-04-01T09:10:37.235Z</time>
      </trkpt>
      <trkpt lat="43.1006285" lon="-2.7503094">
        <ele>164.181</ele>
        <time>2021-04-01T09:10:37.293Z</time>
      </trkpt>
      <trkpt lat="43.1006313" lon="-2.7503092">
        <ele>164.223</ele>
        <time>2021-04-01T09:10:37.351Z</time>
      </trkpt>
      <trkpt lat="43.1006342" lon="-2.7503094">
        <ele>164.248</ele>
        <time>2021-04-01T09:10:37.409Z</time>
      </trkpt>
      <trkpt lat="43.1006372" lon="-2.7503097">
        <ele>164.226</ele>
        <time>2021-04-01T09:10:37.467Z</time>
      </trkpt>
      <trkpt lat="43.1006401" lon="-2.7503099">
        <ele>164.203</ele>
        <time>2021-04-01T09:10:37.525Z</time>
      </trkpt>
      <trkpt lat="43.1006428" lon="-2.7503096">
        <ele>164.253</ele>
        <time>2021-04-01T09:10:37.584Z</time>
      </trkpt>
      <trkpt lat="43.1006457" lon="-2.7503102">
        <ele>164.24</ele>
        <time>2021-04-01T09:10:37.639Z</time>
      </trkpt>
      <trkpt lat="43.1006488" lon="-2.7503109">
        <ele>164.218</ele>
        <time>2021-04-01T09:10:37.694Z</time>
      </trkpt>
      <trkpt lat="43.1006519" lon="-2.7503114">
        <ele>164.203</ele>
        <time>2021-04-01T09:10:37.749Z</time>
      </trkpt>
      <trkpt lat="43.1006549" lon="-2.7503121">
        <ele>164.179</ele>
        <time>2021-04-01T09:10:37.804Z</time>
      </trkpt>
      <trkpt lat="43.1006579" lon="-2.7503125">
        <ele>164.16</ele>
        <time>2021-04-01T09:10:37.859Z</time>
      </trkpt>
      <trkpt lat="43.1006611" lon="-2.7503133">
        <ele>164.037</ele>
        <time>2021-04-01T09:10:37.914Z</time>
      </trkpt>
      <trkpt lat="43.1006639" lon="-2.7503135">
        <ele>163.986</ele>
        <time>2021-04-01T09:10:37.969Z</time>
      </trkpt>
      <trkpt lat="43.1006669" lon="-2.7503138">
        <ele>163.956</ele>
        <time>2021-04-01T09:10:38.024Z</time>
      </trkpt>
      <trkpt lat="43.1006698" lon="-2.7503143">
        <ele>163.924</ele>
        <time>2021-04-01T09:10:38.079Z</time>
      </trkpt>
      <trkpt lat="43.100673" lon="-2.7503155">
        <ele>163.839</ele>
        <time>2021-04-01T09:10:38.134Z</time>
      </trkpt>
      <trkpt lat="43.1006761" lon="-2.750316">
        <ele>163.826</ele>
        <time>2021-04-01T09:10:38.189Z</time>
      </trkpt>
      <trkpt lat="43.1006792" lon="-2.7503166">
        <ele>163.786</ele>
        <time>2021-04-01T09:10:38.244Z</time>
      </trkpt>
      <trkpt lat="43.1006821" lon="-2.7503171">
        <ele>163.757</ele>
        <time>2021-04-01T09:10:38.299Z</time>
      </trkpt>
      <trkpt lat="43.100685" lon="-2.7503177">
        <ele>163.716</ele>
        <time>2021-04-01T09:10:38.354Z</time>
      </trkpt>
      <trkpt lat="43.1006877" lon="-2.7503181">
        <ele>163.635</ele>
        <time>2021-04-01T09:10:38.409Z</time>
      </trkpt>
      <trkpt lat="43.1006907" lon="-2.7503186">
        <ele>163.607</ele>
        <time>2021-04-01T09:10:38.464Z</time>
      </trkpt>
      <trkpt lat="43.1006941" lon="-2.7503197">
        <ele>163.552</ele>
        <time>2021-04-01T09:10:38.519Z</time>
      </trkpt>
      <trkpt lat="43.1006971" lon="-2.7503204">
        <ele>163.531</ele>
        <time>2021-04-01T09:10:38.574Z</time>
      </trkpt>
      <trkpt lat="43.1007002" lon="-2.750321">
        <ele>163.482</ele>
        <time>2021-04-01T09:10:38.629Z</time>
      </trkpt>
      <trkpt lat="43.1007031" lon="-2.7503218">
        <ele>163.446</ele>
        <time>2021-04-01T09:10:38.684Z</time>
      </trkpt>
      <trkpt lat="43.1007061" lon="-2.750323">
        <ele>163.419</ele>
        <time>2021-04-01T09:10:38.739Z</time>
      </trkpt>
      <trkpt lat="43.1007091" lon="-2.7503235">
        <ele>163.441</ele>
        <time>2021-04-01T09:10:38.794Z</time>
      </trkpt>
      <trkpt lat="43.1007118" lon="-2.7503236">
        <ele>163.469</ele>
        <time>2021-04-01T09:10:38.849Z</time>
      </trkpt>
      <trkpt lat="43.1007147" lon="-2.7503242">
        <ele>163.453</ele>
        <time>2021-04-01T09:10:38.904Z</time>
      </trkpt>
      <trkpt lat="43.1007175" lon="-2.750325">
        <ele>163.422</ele>
        <time>2021-04-01T09:10:38.959Z</time>
      </trkpt>
      <trkpt lat="43.1007206" lon="-2.7503257">
        <ele>163.401</ele>
        <time>2021-04-01T09:10:39.014Z</time>
      </trkpt>
      <trkpt lat="43.1007235" lon="-2.7503262">
        <ele>163.398</ele>
        <time>2021-04-01T09:10:39.069Z</time>
      </trkpt>
      <trkpt lat="43.1007265" lon="-2.7503272">
        <ele>163.355</ele>
        <time>2021-04-01T09:10:39.124Z</time>
      </trkpt>
      <trkpt lat="43.1007297" lon="-2.7503281">
        <ele>163.312</ele>
        <time>2021-04-01T09:10:39.179Z</time>
      </trkpt>
      <trkpt lat="43.1007327" lon="-2.7503293">
        <ele>163.242</ele>
        <time>2021-04-01T09:10:39.234Z</time>
      </trkpt>
      <trkpt lat="43.1007357" lon="-2.7503296">
        <ele>163.222</ele>
        <time>2021-04-01T09:10:39.289Z</time>
      </trkpt>
      <trkpt lat="43.1007386" lon="-2.7503299">
        <ele>163.2</ele>
        <time>2021-04-01T09:10:39.344Z</time>
      </trkpt>
      <trkpt lat="43.1007415" lon="-2.7503308">
        <ele>163.13</ele>
        <time>2021-04-01T09:10:39.399Z</time>
      </trkpt>
      <trkpt lat="43.1007444" lon="-2.7503319">
        <ele>163.037</ele>
        <time>2021-04-01T09:10:39.454Z</time>
      </trkpt>
      <trkpt lat="43.1007474" lon="-2.750333">
        <ele>163.018</ele>
        <time>2021-04-01T09:10:39.509Z</time>
      </trkpt>
      <trkpt lat="43.1007506" lon="-2.7503343">
        <ele>162.923</ele>
        <time>2021-04-01T09:10:39.564Z</time>
      </trkpt>
      <trkpt lat="43.1007538" lon="-2.7503358">
        <ele>162.787</ele>
        <time>2021-04-01T09:10:39.622Z</time>
      </trkpt>
      <trkpt lat="43.1007569" lon="-2.7503373">
        <ele>162.693</ele>
        <time>2021-04-01T09:10:39.680Z</time>
      </trkpt>
      <trkpt lat="43.10076" lon="-2.7503391">
        <ele>162.598</ele>
        <time>2021-04-01T09:10:39.738Z</time>
      </trkpt>
      <trkpt lat="43.1007631" lon="-2.75034">
        <ele>162.518</ele>
        <time>2021-04-01T09:10:39.796Z</time>
      </trkpt>
      <trkpt lat="43.100766" lon="-2.7503411">
        <ele>162.441</ele>
        <time>2021-04-01T09:10:39.854Z</time>
      </trkpt>
      <trkpt lat="43.1007692" lon="-2.7503425">
        <ele>162.365</ele>
        <time>2021-04-01T09:10:39.912Z</time>
      </trkpt>
      <trkpt lat="43.1007725" lon="-2.7503439">
        <ele>162.328</ele>
        <time>2021-04-01T09:10:39.970Z</time>
      </trkpt>
      <trkpt lat="43.1007756" lon="-2.7503452">
        <ele>162.31</ele>
        <time>2021-04-01T09:10:40.028Z</time>
      </trkpt>
      <trkpt lat="43.1007787" lon="-2.7503455">
        <ele>162.352</ele>
        <time>2021-04-01T09:10:40.086Z</time>
      </trkpt>
      <trkpt lat="43.1007818" lon="-2.7503463">
        <ele>162.334</ele>
        <time>2021-04-01T09:10:40.144Z</time>
      </trkpt>
      <trkpt lat="43.1007848" lon="-2.7503472">
        <ele>162.298</ele>
        <time>2021-04-01T09:10:40.202Z</time>
      </trkpt>
      <trkpt lat="43.1007879" lon="-2.750348">
        <ele>162.308</ele>
        <time>2021-04-01T09:10:40.260Z</time>
      </trkpt>
      <trkpt lat="43.1007908" lon="-2.7503484">
        <ele>162.362</ele>
        <time>2021-04-01T09:10:40.318Z</time>
      </trkpt>
      <trkpt lat="43.1007939" lon="-2.7503493">
        <ele>162.382</ele>
        <time>2021-04-01T09:10:40.376Z</time>
      </trkpt>
      <trkpt lat="43.1007971" lon="-2.75035">
        <ele>162.375</ele>
        <time>2021-04-01T09:10:40.434Z</time>
      </trkpt>
      <trkpt lat="43.1008001" lon="-2.7503508">
        <ele>162.314</ele>
        <time>2021-04-01T09:10:40.492Z</time>
      </trkpt>
      <trkpt lat="43.1008028" lon="-2.7503515">
        <ele>162.301</ele>
        <time>2021-04-01T09:10:40.550Z</time>
      </trkpt>
      <trkpt lat="43.1008062" lon="-2.7503526">
        <ele>162.253</ele>
        <time>2021-04-01T09:10:40.609Z</time>
      </trkpt>
      <trkpt lat="43.1008093" lon="-2.7503534">
        <ele>162.226</ele>
        <time>2021-04-01T09:10:40.658Z</time>
      </trkpt>
      <trkpt lat="43.1008122" lon="-2.7503535">
        <ele>162.268</ele>
        <time>2021-04-01T09:10:40.707Z</time>
      </trkpt>
      <trkpt lat="43.1008153" lon="-2.750354">
        <ele>162.297</ele>
        <time>2021-04-01T09:10:40.756Z</time>
      </trkpt>
      <trkpt lat="43.1008184" lon="-2.7503547">
        <ele>162.284</ele>
        <time>2021-04-01T09:10:40.805Z</time>
      </trkpt>
      <trkpt lat="43.1008215" lon="-2.7503557">
        <ele>162.254</ele>
        <time>2021-04-01T09:10:40.855Z</time>
      </trkpt>
      <trkpt lat="43.1008245" lon="-2.7503563">
        <ele>162.256</ele>
        <time>2021-04-01T09:10:40.904Z</time>
      </trkpt>
      <trkpt lat="43.1008275" lon="-2.7503569">
        <ele>162.286</ele>
        <time>2021-04-01T09:10:40.953Z</time>
      </trkpt>
      <trkpt lat="43.1008303" lon="-2.7503574">
        <ele>162.322</ele>
        <time>2021-04-01T09:10:41.002Z</time>
      </trkpt>
      <trkpt lat="43.1008332" lon="-2.7503583">
        <ele>162.294</ele>
        <time>2021-04-01T09:10:41.051Z</time>
      </trkpt>
      <trkpt lat="43.1008361" lon="-2.7503588">
        <ele>162.342</ele>
        <time>2021-04-01T09:10:41.101Z</time>
      </trkpt>
      <trkpt lat="43.1008392" lon="-2.7503592">
        <ele>162.377</ele>
        <time>2021-04-01T09:10:41.150Z</time>
      </trkpt>
      <trkpt lat="43.1008427" lon="-2.7503609">
        <ele>162.224</ele>
        <time>2021-04-01T09:10:41.199Z</time>
      </trkpt>
      <trkpt lat="43.100846" lon="-2.7503618">
        <ele>162.228</ele>
        <time>2021-04-01T09:10:41.248Z</time>
      </trkpt>
      <trkpt lat="43.1008488" lon="-2.7503626">
        <ele>162.175</ele>
        <time>2021-04-01T09:10:41.297Z</time>
      </trkpt>
      <trkpt lat="43.1008525" lon="-2.7503635">
        <ele>162.032</ele>
        <time>2021-04-01T09:10:41.347Z</time>
      </trkpt>
      <trkpt lat="43.1008555" lon="-2.7503643">
        <ele>162.053</ele>
        <time>2021-04-01T09:10:41.396Z</time>
      </trkpt>
      <trkpt lat="43.1008581" lon="-2.7503648">
        <ele>162.091</ele>
        <time>2021-04-01T09:10:41.445Z</time>
      </trkpt>
      <trkpt lat="43.1008612" lon="-2.7503659">
        <ele>162.092</ele>
        <time>2021-04-01T09:10:41.494Z</time>
      </trkpt>
      <trkpt lat="43.1008642" lon="-2.7503669">
        <ele>162.075</ele>
        <time>2021-04-01T09:10:41.544Z</time>
      </trkpt>
      <trkpt lat="43.1008676" lon="-2.7503676">
        <ele>162.095</ele>
        <time>2021-04-01T09:10:41.602Z</time>
      </trkpt>
      <trkpt lat="43.1008704" lon="-2.7503684">
        <ele>162.123</ele>
        <time>2021-04-01T09:10:41.660Z</time>
      </trkpt>
      <trkpt lat="43.1008735" lon="-2.7503695">
        <ele>162.108</ele>
        <time>2021-04-01T09:10:41.718Z</time>
      </trkpt>
      <trkpt lat="43.1008765" lon="-2.7503702">
        <ele>162.092</ele>
        <time>2021-04-01T09:10:41.776Z</time>
      </trkpt>
      <trkpt lat="43.1008796" lon="-2.750371">
        <ele>162.043</ele>
        <time>2021-04-01T09:10:41.834Z</time>
      </trkpt>
      <trkpt lat="43.1008826" lon="-2.7503717">
        <ele>162.016</ele>
        <time>2021-04-01T09:10:41.892Z</time>
      </trkpt>
      <trkpt lat="43.1008857" lon="-2.7503726">
        <ele>162.004</ele>
        <time>2021-04-01T09:10:41.950Z</time>
      </trkpt>
      <trkpt lat="43.1008888" lon="-2.7503733">
        <ele>161.99</ele>
        <time>2021-04-01T09:10:42.008Z</time>
      </trkpt>
      <trkpt lat="43.1008916" lon="-2.7503739">
        <ele>161.974</ele>
        <time>2021-04-01T09:10:42.066Z</time>
      </trkpt>
      <trkpt lat="43.1008948" lon="-2.7503745">
        <ele>161.983</ele>
        <time>2021-04-01T09:10:42.124Z</time>
      </trkpt>
      <trkpt lat="43.1008978" lon="-2.7503755">
        <ele>162.008</ele>
        <time>2021-04-01T09:10:42.182Z</time>
      </trkpt>
      <trkpt lat="43.1009007" lon="-2.7503764">
        <ele>161.982</ele>
        <time>2021-04-01T09:10:42.240Z</time>
      </trkpt>
      <trkpt lat="43.1009035" lon="-2.7503771">
        <ele>161.985</ele>
        <time>2021-04-01T09:10:42.298Z</time>
      </trkpt>
      <trkpt lat="43.1009063" lon="-2.7503775">
        <ele>161.964</ele>
        <time>2021-04-01T09:10:42.356Z</time>
      </trkpt>
      <trkpt lat="43.1009093" lon="-2.7503779">
        <ele>161.949</ele>
        <time>2021-04-01T09:10:42.414Z</time>
      </trkpt>
      <trkpt lat="43.1009126" lon="-2.7503788">
        <ele>161.919</ele>
        <time>2021-04-01T09:10:42.472Z</time>
      </trkpt>
      <trkpt lat="43.1009154" lon="-2.7503797">
        <ele>161.943</ele>
        <time>2021-04-01T09:10:42.530Z</time>
      </trkpt>
      <trkpt lat="43.1009184" lon="-2.7503808">
        <ele>161.901</ele>
        <time>2021-04-01T09:10:42.589Z</time>
      </trkpt>
      <trkpt lat="43.1009213" lon="-2.7503817">
        <ele>161.865</ele>
        <time>2021-04-01T09:10:42.644Z</time>
      </trkpt>
      <trkpt lat="43.1009245" lon="-2.7503825">
        <ele>161.824</ele>
        <time>2021-04-01T09:10:42.699Z</time>
      </trkpt>
      <trkpt lat="43.1009277" lon="-2.7503835">
        <ele>161.749</ele>
        <time>2021-04-01T09:10:42.754Z</time>
      </trkpt>
      <trkpt lat="43.100931" lon="-2.7503845">
        <ele>161.631</ele>
        <time>2021-04-01T09:10:42.809Z</time>
      </trkpt>
      <trkpt lat="43.1009341" lon="-2.7503856">
        <ele>161.571</ele>
        <time>2021-04-01T09:10:42.864Z</time>
      </trkpt>
      <trkpt lat="43.1009372" lon="-2.7503866">
        <ele>161.503</ele>
        <time>2021-04-01T09:10:42.919Z</time>
      </trkpt>
      <trkpt lat="43.1009404" lon="-2.7503881">
        <ele>161.423</ele>
        <time>2021-04-01T09:10:42.974Z</time>
      </trkpt>
      <trkpt lat="43.1009433" lon="-2.7503892">
        <ele>161.338</ele>
        <time>2021-04-01T09:10:43.029Z</time>
      </trkpt>
      <trkpt lat="43.1009465" lon="-2.7503905">
        <ele>161.273</ele>
        <time>2021-04-01T09:10:43.084Z</time>
      </trkpt>
      <trkpt lat="43.10095" lon="-2.7503918">
        <ele>161.206</ele>
        <time>2021-04-01T09:10:43.139Z</time>
      </trkpt>
      <trkpt lat="43.1009533" lon="-2.7503929">
        <ele>161.147</ele>
        <time>2021-04-01T09:10:43.194Z</time>
      </trkpt>
      <trkpt lat="43.1009564" lon="-2.7503939">
        <ele>161.099</ele>
        <time>2021-04-01T09:10:43.249Z</time>
      </trkpt>
      <trkpt lat="43.1009595" lon="-2.750395">
        <ele>161.054</ele>
        <time>2021-04-01T09:10:43.304Z</time>
      </trkpt>
      <trkpt lat="43.1009627" lon="-2.7503958">
        <ele>161.026</ele>
        <time>2021-04-01T09:10:43.359Z</time>
      </trkpt>
      <trkpt lat="43.1009658" lon="-2.7503964">
        <ele>161.006</ele>
        <time>2021-04-01T09:10:43.414Z</time>
      </trkpt>
      <trkpt lat="43.100969" lon="-2.7503974">
        <ele>161.01</ele>
        <time>2021-04-01T09:10:43.469Z</time>
      </trkpt>
      <trkpt lat="43.1009721" lon="-2.7503984">
        <ele>160.963</ele>
        <time>2021-04-01T09:10:43.524Z</time>
      </trkpt>
      <trkpt lat="43.1009752" lon="-2.7503996">
        <ele>160.93</ele>
        <time>2021-04-01T09:10:43.579Z</time>
      </trkpt>
      <trkpt lat="43.1009779" lon="-2.7504007">
        <ele>160.898</ele>
        <time>2021-04-01T09:10:43.631Z</time>
      </trkpt>
      <trkpt lat="43.1009807" lon="-2.750401">
        <ele>160.918</ele>
        <time>2021-04-01T09:10:43.683Z</time>
      </trkpt>
      <trkpt lat="43.1009837" lon="-2.7504021">
        <ele>160.921</ele>
        <time>2021-04-01T09:10:43.735Z</time>
      </trkpt>
      <trkpt lat="43.1009874" lon="-2.7504031">
        <ele>160.924</ele>
        <time>2021-04-01T09:10:43.787Z</time>
      </trkpt>
      <trkpt lat="43.1009905" lon="-2.7504031">
        <ele>160.931</ele>
        <time>2021-04-01T09:10:43.839Z</time>
      </trkpt>
      <trkpt lat="43.1009934" lon="-2.7504033">
        <ele>160.964</ele>
        <time>2021-04-01T09:10:43.891Z</time>
      </trkpt>
      <trkpt lat="43.1009961" lon="-2.7504029">
        <ele>160.972</ele>
        <time>2021-04-01T09:10:43.943Z</time>
      </trkpt>
      <trkpt lat="43.1009988" lon="-2.7504029">
        <ele>160.994</ele>
        <time>2021-04-01T09:10:43.995Z</time>
      </trkpt>
      <trkpt lat="43.1010017" lon="-2.7504029">
        <ele>161.062</ele>
        <time>2021-04-01T09:10:44.047Z</time>
      </trkpt>
      <trkpt lat="43.1010046" lon="-2.7504016">
        <ele>161.159</ele>
        <time>2021-04-01T09:10:44.100Z</time>
      </trkpt>
      <trkpt lat="43.1010072" lon="-2.7504008">
        <ele>161.223</ele>
        <time>2021-04-01T09:10:44.152Z</time>
      </trkpt>
      <trkpt lat="43.10101" lon="-2.7504003">
        <ele>161.24</ele>
        <time>2021-04-01T09:10:44.204Z</time>
      </trkpt>
      <trkpt lat="43.1010132" lon="-2.750401">
        <ele>161.186</ele>
        <time>2021-04-01T09:10:44.256Z</time>
      </trkpt>
      <trkpt lat="43.1010167" lon="-2.7504016">
        <ele>161.154</ele>
        <time>2021-04-01T09:10:44.308Z</time>
      </trkpt>
      <trkpt lat="43.1010203" lon="-2.7504028">
        <ele>161.099</ele>
        <time>2021-04-01T09:10:44.360Z</time>
      </trkpt>
      <trkpt lat="43.1010234" lon="-2.7504034">
        <ele>161.081</ele>
        <time>2021-04-01T09:10:44.412Z</time>
      </trkpt>
      <trkpt lat="43.1010268" lon="-2.7504041">
        <ele>161.067</ele>
        <time>2021-04-01T09:10:44.464Z</time>
      </trkpt>
      <trkpt lat="43.1010301" lon="-2.7504048">
        <ele>161.052</ele>
        <time>2021-04-01T09:10:44.516Z</time>
      </trkpt>
      <trkpt lat="43.1010327" lon="-2.7504053">
        <ele>160.996</ele>
        <time>2021-04-01T09:10:44.569Z</time>
      </trkpt>
      <trkpt lat="43.1010356" lon="-2.7504072">
        <ele>160.992</ele>
        <time>2021-04-01T09:10:44.627Z</time>
      </trkpt>
      <trkpt lat="43.1010394" lon="-2.7504094">
        <ele>160.89</ele>
        <time>2021-04-01T09:10:44.685Z</time>
      </trkpt>
      <trkpt lat="43.1010428" lon="-2.7504107">
        <ele>160.865</ele>
        <time>2021-04-01T09:10:44.743Z</time>
      </trkpt>
      <trkpt lat="43.1010464" lon="-2.7504121">
        <ele>160.858</ele>
        <time>2021-04-01T09:10:44.801Z</time>
      </trkpt>
      <trkpt lat="43.10105" lon="-2.7504133">
        <ele>160.877</ele>
        <time>2021-04-01T09:10:44.859Z</time>
      </trkpt>
      <trkpt lat="43.1010536" lon="-2.7504148">
        <ele>160.788</ele>
        <time>2021-04-01T09:10:44.917Z</time>
      </trkpt>
      <trkpt lat="43.1010571" lon="-2.7504158">
        <ele>160.69</ele>
        <time>2021-04-01T09:10:44.975Z</time>
      </trkpt>
      <trkpt lat="43.1010605" lon="-2.7504161">
        <ele>160.61</ele>
        <time>2021-04-01T09:10:45.033Z</time>
      </trkpt>
      <trkpt lat="43.1010644" lon="-2.7504165">
        <ele>160.492</ele>
        <time>2021-04-01T09:10:45.091Z</time>
      </trkpt>
      <trkpt lat="43.1010676" lon="-2.7504176">
        <ele>160.421</ele>
        <time>2021-04-01T09:10:45.149Z</time>
      </trkpt>
      <trkpt lat="43.1010709" lon="-2.7504187">
        <ele>160.433</ele>
        <time>2021-04-01T09:10:45.207Z</time>
      </trkpt>
      <trkpt lat="43.1010743" lon="-2.7504196">
        <ele>160.478</ele>
        <time>2021-04-01T09:10:45.265Z</time>
      </trkpt>
      <trkpt lat="43.1010777" lon="-2.7504203">
        <ele>160.539</ele>
        <time>2021-04-01T09:10:45.323Z</time>
      </trkpt>
      <trkpt lat="43.1010809" lon="-2.7504212">
        <ele>160.544</ele>
        <time>2021-04-01T09:10:45.381Z</time>
      </trkpt>
      <trkpt lat="43.1010842" lon="-2.7504224">
        <ele>160.531</ele>
        <time>2021-04-01T09:10:45.439Z</time>
      </trkpt>
      <trkpt lat="43.1010879" lon="-2.7504233">
        <ele>160.525</ele>
        <time>2021-04-01T09:10:45.497Z</time>
      </trkpt>
      <trkpt lat="43.1010912" lon="-2.7504237">
        <ele>160.518</ele>
        <time>2021-04-01T09:10:45.555Z</time>
      </trkpt>
      <trkpt lat="43.1010939" lon="-2.750424">
        <ele>160.502</ele>
        <time>2021-04-01T09:10:45.614Z</time>
      </trkpt>
      <trkpt lat="43.1010972" lon="-2.7504251">
        <ele>160.449</ele>
        <time>2021-04-01T09:10:45.669Z</time>
      </trkpt>
      <trkpt lat="43.1011008" lon="-2.7504258">
        <ele>160.399</ele>
        <time>2021-04-01T09:10:45.724Z</time>
      </trkpt>
      <trkpt lat="43.1011041" lon="-2.7504269">
        <ele>160.405</ele>
        <time>2021-04-01T09:10:45.779Z</time>
      </trkpt>
      <trkpt lat="43.1011072" lon="-2.7504277">
        <ele>160.374</ele>
        <time>2021-04-01T09:10:45.834Z</time>
      </trkpt>
      <trkpt lat="43.1011106" lon="-2.7504282">
        <ele>160.331</ele>
        <time>2021-04-01T09:10:45.889Z</time>
      </trkpt>
      <trkpt lat="43.1011139" lon="-2.7504287">
        <ele>160.352</ele>
        <time>2021-04-01T09:10:45.944Z</time>
      </trkpt>
      <trkpt lat="43.1011171" lon="-2.7504299">
        <ele>160.371</ele>
        <time>2021-04-01T09:10:45.999Z</time>
      </trkpt>
      <trkpt lat="43.1011206" lon="-2.7504308">
        <ele>160.356</ele>
        <time>2021-04-01T09:10:46.054Z</time>
      </trkpt>
      <trkpt lat="43.101124" lon="-2.7504314">
        <ele>160.345</ele>
        <time>2021-04-01T09:10:46.109Z</time>
      </trkpt>
      <trkpt lat="43.1011274" lon="-2.7504317">
        <ele>160.379</ele>
        <time>2021-04-01T09:10:46.164Z</time>
      </trkpt>
      <trkpt lat="43.1011303" lon="-2.7504317">
        <ele>160.426</ele>
        <time>2021-04-01T09:10:46.219Z</time>
      </trkpt>
      <trkpt lat="43.1011336" lon="-2.7504322">
        <ele>160.405</ele>
        <time>2021-04-01T09:10:46.274Z</time>
      </trkpt>
      <trkpt lat="43.101137" lon="-2.7504327">
        <ele>160.39</ele>
        <time>2021-04-01T09:10:46.329Z</time>
      </trkpt>
      <trkpt lat="43.1011401" lon="-2.7504337">
        <ele>160.387</ele>
        <time>2021-04-01T09:10:46.384Z</time>
      </trkpt>
      <trkpt lat="43.101144" lon="-2.7504342">
        <ele>160.371</ele>
        <time>2021-04-01T09:10:46.439Z</time>
      </trkpt>
      <trkpt lat="43.1011475" lon="-2.7504349">
        <ele>160.32</ele>
        <time>2021-04-01T09:10:46.494Z</time>
      </trkpt>
      <trkpt lat="43.1011509" lon="-2.7504356">
        <ele>160.244</ele>
        <time>2021-04-01T09:10:46.549Z</time>
      </trkpt>
      <trkpt lat="43.1011546" lon="-2.7504366">
        <ele>160.2</ele>
        <time>2021-04-01T09:10:46.606Z</time>
      </trkpt>
      <trkpt lat="43.1011589" lon="-2.7504383">
        <ele>160.114</ele>
        <time>2021-04-01T09:10:46.664Z</time>
      </trkpt>
      <trkpt lat="43.1011622" lon="-2.7504396">
        <ele>160.067</ele>
        <time>2021-04-01T09:10:46.722Z</time>
      </trkpt>
      <trkpt lat="43.1011659" lon="-2.7504409">
        <ele>160.048</ele>
        <time>2021-04-01T09:10:46.780Z</time>
      </trkpt>
      <trkpt lat="43.1011695" lon="-2.7504414">
        <ele>160.086</ele>
        <time>2021-04-01T09:10:46.838Z</time>
      </trkpt>
      <trkpt lat="43.1011731" lon="-2.7504421">
        <ele>160.065</ele>
        <time>2021-04-01T09:10:46.896Z</time>
      </trkpt>
      <trkpt lat="43.1011767" lon="-2.7504428">
        <ele>160.069</ele>
        <time>2021-04-01T09:10:46.954Z</time>
      </trkpt>
      <trkpt lat="43.1011803" lon="-2.7504432">
        <ele>160.09</ele>
        <time>2021-04-01T09:10:47.012Z</time>
      </trkpt>
      <trkpt lat="43.1011838" lon="-2.7504437">
        <ele>160.11</ele>
        <time>2021-04-01T09:10:47.070Z</time>
      </trkpt>
      <trkpt lat="43.1011875" lon="-2.750445">
        <ele>160.118</ele>
        <time>2021-04-01T09:10:47.127Z</time>
      </trkpt>
      <trkpt lat="43.1011912" lon="-2.7504459">
        <ele>160.094</ele>
        <time>2021-04-01T09:10:47.185Z</time>
      </trkpt>
      <trkpt lat="43.1011944" lon="-2.7504458">
        <ele>160.11</ele>
        <time>2021-04-01T09:10:47.243Z</time>
      </trkpt>
      <trkpt lat="43.1011978" lon="-2.7504454">
        <ele>160.019</ele>
        <time>2021-04-01T09:10:47.301Z</time>
      </trkpt>
      <trkpt lat="43.1012015" lon="-2.7504452">
        <ele>160.031</ele>
        <time>2021-04-01T09:10:47.359Z</time>
      </trkpt>
      <trkpt lat="43.1012054" lon="-2.7504455">
        <ele>160.092</ele>
        <time>2021-04-01T09:10:47.417Z</time>
      </trkpt>
      <trkpt lat="43.1012088" lon="-2.7504461">
        <ele>160.184</ele>
        <time>2021-04-01T09:10:47.475Z</time>
      </trkpt>
      <trkpt lat="43.1012117" lon="-2.7504471">
        <ele>160.321</ele>
        <time>2021-04-01T09:10:47.533Z</time>
      </trkpt>
      <trkpt lat="43.1012147" lon="-2.7504469">
        <ele>160.503</ele>
        <time>2021-04-01T09:10:47.591Z</time>
      </trkpt>
      <trkpt lat="43.101218" lon="-2.7504465">
        <ele>160.686</ele>
        <time>2021-04-01T09:10:47.649Z</time>
      </trkpt>
      <trkpt lat="43.1012214" lon="-2.7504481">
        <ele>160.732</ele>
        <time>2021-04-01T09:10:47.704Z</time>
      </trkpt>
      <trkpt lat="43.1012251" lon="-2.7504492">
        <ele>160.659</ele>
        <time>2021-04-01T09:10:47.759Z</time>
      </trkpt>
      <trkpt lat="43.1012287" lon="-2.7504504">
        <ele>160.601</ele>
        <time>2021-04-01T09:10:47.814Z</time>
      </trkpt>
      <trkpt lat="43.1012323" lon="-2.7504517">
        <ele>160.48</ele>
        <time>2021-04-01T09:10:47.869Z</time>
      </trkpt>
      <trkpt lat="43.1012357" lon="-2.7504525">
        <ele>160.486</ele>
        <time>2021-04-01T09:10:47.924Z</time>
      </trkpt>
      <trkpt lat="43.1012388" lon="-2.7504535">
        <ele>160.485</ele>
        <time>2021-04-01T09:10:47.979Z</time>
      </trkpt>
      <trkpt lat="43.1012423" lon="-2.7504541">
        <ele>160.491</ele>
        <time>2021-04-01T09:10:48.034Z</time>
      </trkpt>
      <trkpt lat="43.101246" lon="-2.750455">
        <ele>160.463</ele>
        <time>2021-04-01T09:10:48.089Z</time>
      </trkpt>
      <trkpt lat="43.1012495" lon="-2.750456">
        <ele>160.39</ele>
        <time>2021-04-01T09:10:48.144Z</time>
      </trkpt>
      <trkpt lat="43.101253" lon="-2.7504566">
        <ele>160.348</ele>
        <time>2021-04-01T09:10:48.199Z</time>
      </trkpt>
      <trkpt lat="43.1012565" lon="-2.7504574">
        <ele>160.301</ele>
        <time>2021-04-01T09:10:48.254Z</time>
      </trkpt>
      <trkpt lat="43.1012598" lon="-2.7504575">
        <ele>160.223</ele>
        <time>2021-04-01T09:10:48.309Z</time>
      </trkpt>
      <trkpt lat="43.1012637" lon="-2.7504584">
        <ele>160.192</ele>
        <time>2021-04-01T09:10:48.364Z</time>
      </trkpt>
      <trkpt lat="43.1012677" lon="-2.7504609">
        <ele>160.015</ele>
        <time>2021-04-01T09:10:48.419Z</time>
      </trkpt>
      <trkpt lat="43.1012716" lon="-2.7504622">
        <ele>160.017</ele>
        <time>2021-04-01T09:10:48.474Z</time>
      </trkpt>
      <trkpt lat="43.1012751" lon="-2.7504631">
        <ele>160.017</ele>
        <time>2021-04-01T09:10:48.529Z</time>
      </trkpt>
      <trkpt lat="43.1012783" lon="-2.750464">
        <ele>160.005</ele>
        <time>2021-04-01T09:10:48.584Z</time>
      </trkpt>
      <trkpt lat="43.1012815" lon="-2.7504644">
        <ele>160.104</ele>
        <time>2021-04-01T09:10:48.639Z</time>
      </trkpt>
      <trkpt lat="43.101285" lon="-2.7504651">
        <ele>160.096</ele>
        <time>2021-04-01T09:10:48.688Z</time>
      </trkpt>
      <trkpt lat="43.1012887" lon="-2.7504664">
        <ele>160.096</ele>
        <time>2021-04-01T09:10:48.737Z</time>
      </trkpt>
      <trkpt lat="43.1012925" lon="-2.7504675">
        <ele>160.031</ele>
        <time>2021-04-01T09:10:48.786Z</time>
      </trkpt>
      <trkpt lat="43.101296" lon="-2.7504683">
        <ele>159.98</ele>
        <time>2021-04-01T09:10:48.835Z</time>
      </trkpt>
      <trkpt lat="43.1012998" lon="-2.7504694">
        <ele>159.939</ele>
        <time>2021-04-01T09:10:48.885Z</time>
      </trkpt>
      <trkpt lat="43.1013033" lon="-2.7504702">
        <ele>159.894</ele>
        <time>2021-04-01T09:10:48.934Z</time>
      </trkpt>
      <trkpt lat="43.1013074" lon="-2.7504721">
        <ele>159.822</ele>
        <time>2021-04-01T09:10:48.983Z</time>
      </trkpt>
      <trkpt lat="43.101311" lon="-2.7504731">
        <ele>159.718</ele>
        <time>2021-04-01T09:10:49.032Z</time>
      </trkpt>
      <trkpt lat="43.1013147" lon="-2.750474">
        <ele>159.619</ele>
        <time>2021-04-01T09:10:49.081Z</time>
      </trkpt>
      <trkpt lat="43.1013182" lon="-2.7504747">
        <ele>159.596</ele>
        <time>2021-04-01T09:10:49.131Z</time>
      </trkpt>
      <trkpt lat="43.1013214" lon="-2.750475">
        <ele>159.572</ele>
        <time>2021-04-01T09:10:49.180Z</time>
      </trkpt>
      <trkpt lat="43.101324" lon="-2.7504749">
        <ele>159.569</ele>
        <time>2021-04-01T09:10:49.229Z</time>
      </trkpt>
      <trkpt lat="43.1013267" lon="-2.7504748">
        <ele>159.567</ele>
        <time>2021-04-01T09:10:49.278Z</time>
      </trkpt>
      <trkpt lat="43.10133" lon="-2.7504753">
        <ele>159.58</ele>
        <time>2021-04-01T09:10:49.327Z</time>
      </trkpt>
      <trkpt lat="43.1013329" lon="-2.7504754">
        <ele>159.657</ele>
        <time>2021-04-01T09:10:49.377Z</time>
      </trkpt>
      <trkpt lat="43.1013362" lon="-2.7504763">
        <ele>159.707</ele>
        <time>2021-04-01T09:10:49.426Z</time>
      </trkpt>
      <trkpt lat="43.1013396" lon="-2.7504772">
        <ele>159.734</ele>
        <time>2021-04-01T09:10:49.475Z</time>
      </trkpt>
      <trkpt lat="43.1013432" lon="-2.7504777">
        <ele>159.777</ele>
        <time>2021-04-01T09:10:49.524Z</time>
      </trkpt>
      <trkpt lat="43.1013468" lon="-2.7504788">
        <ele>159.72</ele>
        <time>2021-04-01T09:10:49.574Z</time>
      </trkpt>
      <trkpt lat="43.1013499" lon="-2.7504794">
        <ele>159.678</ele>
        <time>2021-04-01T09:10:49.632Z</time>
      </trkpt>
      <trkpt lat="43.1013529" lon="-2.7504796">
        <ele>159.641</ele>
        <time>2021-04-01T09:10:49.690Z</time>
      </trkpt>
      <trkpt lat="43.1013574" lon="-2.7504814">
        <ele>159.613</ele>
        <time>2021-04-01T09:10:49.748Z</time>
      </trkpt>
      <trkpt lat="43.1013613" lon="-2.7504825">
        <ele>159.559</ele>
        <time>2021-04-01T09:10:49.806Z</time>
      </trkpt>
      <trkpt lat="43.101365" lon="-2.7504839">
        <ele>159.493</ele>
        <time>2021-04-01T09:10:49.865Z</time>
      </trkpt>
      <trkpt lat="43.1013689" lon="-2.7504855">
        <ele>159.425</ele>
        <time>2021-04-01T09:10:49.923Z</time>
      </trkpt>
      <trkpt lat="43.101373" lon="-2.7504872">
        <ele>159.375</ele>
        <time>2021-04-01T09:10:49.981Z</time>
      </trkpt>
      <trkpt lat="43.1013765" lon="-2.750488">
        <ele>159.353</ele>
        <time>2021-04-01T09:10:50.039Z</time>
      </trkpt>
      <trkpt lat="43.1013801" lon="-2.7504887">
        <ele>159.335</ele>
        <time>2021-04-01T09:10:50.098Z</time>
      </trkpt>
      <trkpt lat="43.1013835" lon="-2.7504896">
        <ele>159.313</ele>
        <time>2021-04-01T09:10:50.156Z</time>
      </trkpt>
      <trkpt lat="43.1013873" lon="-2.750491">
        <ele>159.25</ele>
        <time>2021-04-01T09:10:50.214Z</time>
      </trkpt>
      <trkpt lat="43.101391" lon="-2.7504922">
        <ele>159.19</ele>
        <time>2021-04-01T09:10:50.272Z</time>
      </trkpt>
      <trkpt lat="43.1013945" lon="-2.7504925">
        <ele>159.123</ele>
        <time>2021-04-01T09:10:50.331Z</time>
      </trkpt>
      <trkpt lat="43.1013977" lon="-2.7504927">
        <ele>159.056</ele>
        <time>2021-04-01T09:10:50.389Z</time>
      </trkpt>
      <trkpt lat="43.1014011" lon="-2.7504937">
        <ele>158.822</ele>
        <time>2021-04-01T09:10:50.447Z</time>
      </trkpt>
      <trkpt lat="43.1014048" lon="-2.7504948">
        <ele>158.765</ele>
        <time>2021-04-01T09:10:50.505Z</time>
      </trkpt>
      <trkpt lat="43.1014084" lon="-2.7504956">
        <ele>158.762</ele>
        <time>2021-04-01T09:10:50.564Z</time>
      </trkpt>
      <trkpt lat="43.101412" lon="-2.7504963">
        <ele>158.778</ele>
        <time>2021-04-01T09:10:50.619Z</time>
      </trkpt>
      <trkpt lat="43.1014154" lon="-2.7504974">
        <ele>158.776</ele>
        <time>2021-04-01T09:10:50.674Z</time>
      </trkpt>
      <trkpt lat="43.1014187" lon="-2.7504988">
        <ele>158.771</ele>
        <time>2021-04-01T09:10:50.729Z</time>
      </trkpt>
      <trkpt lat="43.1014225" lon="-2.7504998">
        <ele>158.776</ele>
        <time>2021-04-01T09:10:50.784Z</time>
      </trkpt>
      <trkpt lat="43.1014264" lon="-2.7505018">
        <ele>158.784</ele>
        <time>2021-04-01T09:10:50.839Z</time>
      </trkpt>
      <trkpt lat="43.1014304" lon="-2.7505035">
        <ele>158.814</ele>
        <time>2021-04-01T09:10:50.894Z</time>
      </trkpt>
      <trkpt lat="43.1014341" lon="-2.7505049">
        <ele>158.811</ele>
        <time>2021-04-01T09:10:50.949Z</time>
      </trkpt>
      <trkpt lat="43.1014378" lon="-2.7505065">
        <ele>158.846</ele>
        <time>2021-04-01T09:10:51.004Z</time>
      </trkpt>
      <trkpt lat="43.1014417" lon="-2.750508">
        <ele>158.896</ele>
        <time>2021-04-01T09:10:51.059Z</time>
      </trkpt>
      <trkpt lat="43.1014453" lon="-2.7505099">
        <ele>158.898</ele>
        <time>2021-04-01T09:10:51.114Z</time>
      </trkpt>
      <trkpt lat="43.101449" lon="-2.7505112">
        <ele>158.886</ele>
        <time>2021-04-01T09:10:51.169Z</time>
      </trkpt>
      <trkpt lat="43.1014518" lon="-2.7505118">
        <ele>158.858</ele>
        <time>2021-04-01T09:10:51.224Z</time>
      </trkpt>
      <trkpt lat="43.1014552" lon="-2.7505127">
        <ele>158.798</ele>
        <time>2021-04-01T09:10:51.279Z</time>
      </trkpt>
      <trkpt lat="43.1014589" lon="-2.7505133">
        <ele>158.756</ele>
        <time>2021-04-01T09:10:51.334Z</time>
      </trkpt>
      <trkpt lat="43.1014623" lon="-2.7505146">
        <ele>158.758</ele>
        <time>2021-04-01T09:10:51.389Z</time>
      </trkpt>
      <trkpt lat="43.1014662" lon="-2.7505168">
        <ele>158.656</ele>
        <time>2021-04-01T09:10:51.444Z</time>
      </trkpt>
      <trkpt lat="43.1014704" lon="-2.7505187">
        <ele>158.604</ele>
        <time>2021-04-01T09:10:51.499Z</time>
      </trkpt>
      <trkpt lat="43.1014742" lon="-2.7505205">
        <ele>158.546</ele>
        <time>2021-04-01T09:10:51.554Z</time>
      </trkpt>
      <trkpt lat="43.1014772" lon="-2.7505211">
        <ele>158.523</ele>
        <time>2021-04-01T09:10:51.609Z</time>
      </trkpt>
      <trkpt lat="43.1014808" lon="-2.7505221">
        <ele>158.54</ele>
        <time>2021-04-01T09:10:51.664Z</time>
      </trkpt>
      <trkpt lat="43.1014843" lon="-2.7505234">
        <ele>158.536</ele>
        <time>2021-04-01T09:10:51.719Z</time>
      </trkpt>
      <trkpt lat="43.1014883" lon="-2.7505245">
        <ele>158.492</ele>
        <time>2021-04-01T09:10:51.774Z</time>
      </trkpt>
      <trkpt lat="43.101492" lon="-2.7505255">
        <ele>158.415</ele>
        <time>2021-04-01T09:10:51.829Z</time>
      </trkpt>
      <trkpt lat="43.1014955" lon="-2.7505272">
        <ele>158.344</ele>
        <time>2021-04-01T09:10:51.884Z</time>
      </trkpt>
      <trkpt lat="43.1014994" lon="-2.7505274">
        <ele>158.351</ele>
        <time>2021-04-01T09:10:51.939Z</time>
      </trkpt>
      <trkpt lat="43.1015032" lon="-2.7505283">
        <ele>158.341</ele>
        <time>2021-04-01T09:10:51.994Z</time>
      </trkpt>
      <trkpt lat="43.1015068" lon="-2.7505292">
        <ele>158.299</ele>
        <time>2021-04-01T09:10:52.049Z</time>
      </trkpt>
      <trkpt lat="43.1015104" lon="-2.7505295">
        <ele>158.292</ele>
        <time>2021-04-01T09:10:52.104Z</time>
      </trkpt>
      <trkpt lat="43.1015133" lon="-2.7505299">
        <ele>158.275</ele>
        <time>2021-04-01T09:10:52.159Z</time>
      </trkpt>
      <trkpt lat="43.1015165" lon="-2.7505301">
        <ele>158.298</ele>
        <time>2021-04-01T09:10:52.214Z</time>
      </trkpt>
      <trkpt lat="43.1015201" lon="-2.7505313">
        <ele>158.28</ele>
        <time>2021-04-01T09:10:52.269Z</time>
      </trkpt>
      <trkpt lat="43.1015241" lon="-2.7505326">
        <ele>158.239</ele>
        <time>2021-04-01T09:10:52.324Z</time>
      </trkpt>
      <trkpt lat="43.1015276" lon="-2.7505338">
        <ele>158.179</ele>
        <time>2021-04-01T09:10:52.379Z</time>
      </trkpt>
      <trkpt lat="43.1015316" lon="-2.7505349">
        <ele>158.103</ele>
        <time>2021-04-01T09:10:52.434Z</time>
      </trkpt>
      <trkpt lat="43.1015355" lon="-2.7505358">
        <ele>158.011</ele>
        <time>2021-04-01T09:10:52.489Z</time>
      </trkpt>
      <trkpt lat="43.1015394" lon="-2.7505374">
        <ele>157.922</ele>
        <time>2021-04-01T09:10:52.544Z</time>
      </trkpt>
      <trkpt lat="43.1015433" lon="-2.7505391">
        <ele>157.819</ele>
        <time>2021-04-01T09:10:52.599Z</time>
      </trkpt>
      <trkpt lat="43.1015474" lon="-2.7505406">
        <ele>157.649</ele>
        <time>2021-04-01T09:10:52.657Z</time>
      </trkpt>
      <trkpt lat="43.1015515" lon="-2.7505418">
        <ele>157.588</ele>
        <time>2021-04-01T09:10:52.715Z</time>
      </trkpt>
      <trkpt lat="43.1015553" lon="-2.7505433">
        <ele>157.535</ele>
        <time>2021-04-01T09:10:52.773Z</time>
      </trkpt>
      <trkpt lat="43.1015586" lon="-2.7505439">
        <ele>157.517</ele>
        <time>2021-04-01T09:10:52.831Z</time>
      </trkpt>
      <trkpt lat="43.1015622" lon="-2.750545">
        <ele>157.455</ele>
        <time>2021-04-01T09:10:52.889Z</time>
      </trkpt>
      <trkpt lat="43.1015662" lon="-2.750546">
        <ele>157.398</ele>
        <time>2021-04-01T09:10:52.947Z</time>
      </trkpt>
      <trkpt lat="43.1015699" lon="-2.7505473">
        <ele>157.328</ele>
        <time>2021-04-01T09:10:53.005Z</time>
      </trkpt>
      <trkpt lat="43.1015737" lon="-2.7505482">
        <ele>157.263</ele>
        <time>2021-04-01T09:10:53.063Z</time>
      </trkpt>
      <trkpt lat="43.1015773" lon="-2.7505492">
        <ele>157.229</ele>
        <time>2021-04-01T09:10:53.121Z</time>
      </trkpt>
      <trkpt lat="43.1015807" lon="-2.7505503">
        <ele>157.209</ele>
        <time>2021-04-01T09:10:53.179Z</time>
      </trkpt>
      <trkpt lat="43.1015845" lon="-2.7505514">
        <ele>157.129</ele>
        <time>2021-04-01T09:10:53.237Z</time>
      </trkpt>
      <trkpt lat="43.1015885" lon="-2.7505526">
        <ele>157.036</ele>
        <time>2021-04-01T09:10:53.295Z</time>
      </trkpt>
      <trkpt lat="43.1015926" lon="-2.7505544">
        <ele>156.928</ele>
        <time>2021-04-01T09:10:53.353Z</time>
      </trkpt>
      <trkpt lat="43.1015966" lon="-2.7505563">
        <ele>156.748</ele>
        <time>2021-04-01T09:10:53.411Z</time>
      </trkpt>
      <trkpt lat="43.1016002" lon="-2.7505574">
        <ele>156.7</ele>
        <time>2021-04-01T09:10:53.469Z</time>
      </trkpt>
      <trkpt lat="43.1016038" lon="-2.7505586">
        <ele>156.66</ele>
        <time>2021-04-01T09:10:53.527Z</time>
      </trkpt>
      <trkpt lat="43.1016072" lon="-2.750559">
        <ele>156.675</ele>
        <time>2021-04-01T09:10:53.585Z</time>
      </trkpt>
      <trkpt lat="43.1016107" lon="-2.75056">
        <ele>156.724</ele>
        <time>2021-04-01T09:10:53.644Z</time>
      </trkpt>
      <trkpt lat="43.1016145" lon="-2.7505615">
        <ele>156.644</ele>
        <time>2021-04-01T09:10:53.695Z</time>
      </trkpt>
      <trkpt lat="43.1016183" lon="-2.750563">
        <ele>156.553</ele>
        <time>2021-04-01T09:10:53.747Z</time>
      </trkpt>
      <trkpt lat="43.1016221" lon="-2.7505644">
        <ele>156.461</ele>
        <time>2021-04-01T09:10:53.799Z</time>
      </trkpt>
      <trkpt lat="43.1016255" lon="-2.7505657">
        <ele>156.394</ele>
        <time>2021-04-01T09:10:53.851Z</time>
      </trkpt>
      <trkpt lat="43.1016292" lon="-2.7505668">
        <ele>156.318</ele>
        <time>2021-04-01T09:10:53.903Z</time>
      </trkpt>
      <trkpt lat="43.1016328" lon="-2.7505676">
        <ele>156.287</ele>
        <time>2021-04-01T09:10:53.955Z</time>
      </trkpt>
      <trkpt lat="43.1016364" lon="-2.750569">
        <ele>156.248</ele>
        <time>2021-04-01T09:10:54.007Z</time>
      </trkpt>
      <trkpt lat="43.1016398" lon="-2.7505693">
        <ele>156.245</ele>
        <time>2021-04-01T09:10:54.059Z</time>
      </trkpt>
      <trkpt lat="43.1016436" lon="-2.7505706">
        <ele>156.243</ele>
        <time>2021-04-01T09:10:54.111Z</time>
      </trkpt>
      <trkpt lat="43.101647" lon="-2.7505719">
        <ele>156.274</ele>
        <time>2021-04-01T09:10:54.163Z</time>
      </trkpt>
      <trkpt lat="43.1016506" lon="-2.7505732">
        <ele>156.306</ele>
        <time>2021-04-01T09:10:54.215Z</time>
      </trkpt>
      <trkpt lat="43.1016535" lon="-2.7505739">
        <ele>156.372</ele>
        <time>2021-04-01T09:10:54.267Z</time>
      </trkpt>
      <trkpt lat="43.1016563" lon="-2.7505743">
        <ele>156.62</ele>
        <time>2021-04-01T09:10:54.319Z</time>
      </trkpt>
      <trkpt lat="43.1016602" lon="-2.7505757">
        <ele>156.573</ele>
        <time>2021-04-01T09:10:54.371Z</time>
      </trkpt>
      <trkpt lat="43.1016645" lon="-2.7505773">
        <ele>156.466</ele>
        <time>2021-04-01T09:10:54.423Z</time>
      </trkpt>
      <trkpt lat="43.1016675" lon="-2.7505778">
        <ele>156.467</ele>
        <time>2021-04-01T09:10:54.475Z</time>
      </trkpt>
      <trkpt lat="43.101671" lon="-2.7505788">
        <ele>156.449</ele>
        <time>2021-04-01T09:10:54.527Z</time>
      </trkpt>
      <trkpt lat="43.1016746" lon="-2.75058">
        <ele>156.423</ele>
        <time>2021-04-01T09:10:54.579Z</time>
      </trkpt>
      <trkpt lat="43.1016785" lon="-2.7505814">
        <ele>156.416</ele>
        <time>2021-04-01T09:10:54.637Z</time>
      </trkpt>
      <trkpt lat="43.1016818" lon="-2.750582">
        <ele>156.41</ele>
        <time>2021-04-01T09:10:54.695Z</time>
      </trkpt>
      <trkpt lat="43.1016851" lon="-2.7505829">
        <ele>156.354</ele>
        <time>2021-04-01T09:10:54.753Z</time>
      </trkpt>
      <trkpt lat="43.1016887" lon="-2.7505845">
        <ele>156.303</ele>
        <time>2021-04-01T09:10:54.811Z</time>
      </trkpt>
      <trkpt lat="43.1016925" lon="-2.7505858">
        <ele>156.215</ele>
        <time>2021-04-01T09:10:54.869Z</time>
      </trkpt>
      <trkpt lat="43.1016962" lon="-2.7505871">
        <ele>156.136</ele>
        <time>2021-04-01T09:10:54.927Z</time>
      </trkpt>
      <trkpt lat="43.1016999" lon="-2.7505885">
        <ele>156.075</ele>
        <time>2021-04-01T09:10:54.985Z</time>
      </trkpt>
      <trkpt lat="43.1017033" lon="-2.7505894">
        <ele>156.113</ele>
        <time>2021-04-01T09:10:55.043Z</time>
      </trkpt>
      <trkpt lat="43.1017062" lon="-2.7505897">
        <ele>156.177</ele>
        <time>2021-04-01T09:10:55.101Z</time>
      </trkpt>
      <trkpt lat="43.1017098" lon="-2.7505907">
        <ele>156.198</ele>
        <time>2021-04-01T09:10:55.159Z</time>
      </trkpt>
      <trkpt lat="43.1017132" lon="-2.7505916">
        <ele>156.219</ele>
        <time>2021-04-01T09:10:55.217Z</time>
      </trkpt>
      <trkpt lat="43.1017166" lon="-2.7505929">
        <ele>156.241</ele>
        <time>2021-04-01T09:10:55.275Z</time>
      </trkpt>
      <trkpt lat="43.1017202" lon="-2.7505939">
        <ele>156.256</ele>
        <time>2021-04-01T09:10:55.333Z</time>
      </trkpt>
      <trkpt lat="43.1017235" lon="-2.7505948">
        <ele>156.258</ele>
        <time>2021-04-01T09:10:55.391Z</time>
      </trkpt>
      <trkpt lat="43.1017271" lon="-2.7505957">
        <ele>156.256</ele>
        <time>2021-04-01T09:10:55.449Z</time>
      </trkpt>
      <trkpt lat="43.10173" lon="-2.7505962">
        <ele>156.321</ele>
        <time>2021-04-01T09:10:55.507Z</time>
      </trkpt>
      <trkpt lat="43.1017335" lon="-2.7505969">
        <ele>156.318</ele>
        <time>2021-04-01T09:10:55.565Z</time>
      </trkpt>
      <trkpt lat="43.1017371" lon="-2.7505982">
        <ele>156.241</ele>
        <time>2021-04-01T09:10:55.624Z</time>
      </trkpt>
      <trkpt lat="43.101741" lon="-2.7505999">
        <ele>156.07</ele>
        <time>2021-04-01T09:10:55.676Z</time>
      </trkpt>
      <trkpt lat="43.1017446" lon="-2.7506006">
        <ele>156.062</ele>
        <time>2021-04-01T09:10:55.728Z</time>
      </trkpt>
      <trkpt lat="43.1017481" lon="-2.7506015">
        <ele>156.039</ele>
        <time>2021-04-01T09:10:55.780Z</time>
      </trkpt>
      <trkpt lat="43.1017515" lon="-2.7506027">
        <ele>156.01</ele>
        <time>2021-04-01T09:10:55.832Z</time>
      </trkpt>
      <trkpt lat="43.1017548" lon="-2.7506031">
        <ele>155.997</ele>
        <time>2021-04-01T09:10:55.884Z</time>
      </trkpt>
      <trkpt lat="43.1017582" lon="-2.7506037">
        <ele>156.027</ele>
        <time>2021-04-01T09:10:55.936Z</time>
      </trkpt>
      <trkpt lat="43.1017614" lon="-2.7506045">
        <ele>156.11</ele>
        <time>2021-04-01T09:10:55.988Z</time>
      </trkpt>
      <trkpt lat="43.1017649" lon="-2.7506056">
        <ele>156.099</ele>
        <time>2021-04-01T09:10:56.040Z</time>
      </trkpt>
      <trkpt lat="43.101768" lon="-2.7506066">
        <ele>156.143</ele>
        <time>2021-04-01T09:10:56.092Z</time>
      </trkpt>
      <trkpt lat="43.1017714" lon="-2.7506076">
        <ele>156.17</ele>
        <time>2021-04-01T09:10:56.145Z</time>
      </trkpt>
      <trkpt lat="43.1017748" lon="-2.7506083">
        <ele>156.242</ele>
        <time>2021-04-01T09:10:56.197Z</time>
      </trkpt>
      <trkpt lat="43.1017778" lon="-2.7506089">
        <ele>156.363</ele>
        <time>2021-04-01T09:10:56.249Z</time>
      </trkpt>
      <trkpt lat="43.1017808" lon="-2.75061">
        <ele>156.438</ele>
        <time>2021-04-01T09:10:56.301Z</time>
      </trkpt>
      <trkpt lat="43.1017841" lon="-2.7506113">
        <ele>156.548</ele>
        <time>2021-04-01T09:10:56.353Z</time>
      </trkpt>
      <trkpt lat="43.1017876" lon="-2.7506125">
        <ele>156.606</ele>
        <time>2021-04-01T09:10:56.405Z</time>
      </trkpt>
      <trkpt lat="43.1017911" lon="-2.7506134">
        <ele>156.602</ele>
        <time>2021-04-01T09:10:56.457Z</time>
      </trkpt>
      <trkpt lat="43.1017946" lon="-2.7506145">
        <ele>156.587</ele>
        <time>2021-04-01T09:10:56.509Z</time>
      </trkpt>
      <trkpt lat="43.1017984" lon="-2.7506158">
        <ele>156.469</ele>
        <time>2021-04-01T09:10:56.561Z</time>
      </trkpt>
      <trkpt lat="43.1018017" lon="-2.7506168">
        <ele>156.47</ele>
        <time>2021-04-01T09:10:56.614Z</time>
      </trkpt>
      <trkpt lat="43.1018049" lon="-2.7506179">
        <ele>156.495</ele>
        <time>2021-04-01T09:10:56.669Z</time>
      </trkpt>
      <trkpt lat="43.1018084" lon="-2.750619">
        <ele>156.515</ele>
        <time>2021-04-01T09:10:56.724Z</time>
      </trkpt>
      <trkpt lat="43.101812" lon="-2.75062">
        <ele>156.523</ele>
        <time>2021-04-01T09:10:56.779Z</time>
      </trkpt>
      <trkpt lat="43.1018151" lon="-2.7506207">
        <ele>156.572</ele>
        <time>2021-04-01T09:10:56.834Z</time>
      </trkpt>
      <trkpt lat="43.1018184" lon="-2.750622">
        <ele>156.589</ele>
        <time>2021-04-01T09:10:56.889Z</time>
      </trkpt>
      <trkpt lat="43.1018214" lon="-2.7506228">
        <ele>156.561</ele>
        <time>2021-04-01T09:10:56.944Z</time>
      </trkpt>
      <trkpt lat="43.1018241" lon="-2.750623">
        <ele>156.523</ele>
        <time>2021-04-01T09:10:56.999Z</time>
      </trkpt>
      <trkpt lat="43.101827" lon="-2.7506235">
        <ele>156.435</ele>
        <time>2021-04-01T09:10:57.054Z</time>
      </trkpt>
      <trkpt lat="43.1018294" lon="-2.7506239">
        <ele>156.475</ele>
        <time>2021-04-01T09:10:57.109Z</time>
      </trkpt>
      <trkpt lat="43.1018322" lon="-2.7506243">
        <ele>156.491</ele>
        <time>2021-04-01T09:10:57.164Z</time>
      </trkpt>
      <trkpt lat="43.1018351" lon="-2.7506249">
        <ele>156.527</ele>
        <time>2021-04-01T09:10:57.219Z</time>
      </trkpt>
      <trkpt lat="43.1018381" lon="-2.7506254">
        <ele>156.586</ele>
        <time>2021-04-01T09:10:57.274Z</time>
      </trkpt>
      <trkpt lat="43.1018414" lon="-2.7506266">
        <ele>156.561</ele>
        <time>2021-04-01T09:10:57.329Z</time>
      </trkpt>
      <trkpt lat="43.1018448" lon="-2.7506276">
        <ele>156.515</ele>
        <time>2021-04-01T09:10:57.384Z</time>
      </trkpt>
      <trkpt lat="43.1018485" lon="-2.7506289">
        <ele>156.526</ele>
        <time>2021-04-01T09:10:57.439Z</time>
      </trkpt>
      <trkpt lat="43.101852" lon="-2.7506304">
        <ele>156.516</ele>
        <time>2021-04-01T09:10:57.494Z</time>
      </trkpt>
      <trkpt lat="43.1018552" lon="-2.7506313">
        <ele>156.491</ele>
        <time>2021-04-01T09:10:57.549Z</time>
      </trkpt>
      <trkpt lat="43.1018584" lon="-2.7506322">
        <ele>156.571</ele>
        <time>2021-04-01T09:10:57.604Z</time>
      </trkpt>
      <trkpt lat="43.1018611" lon="-2.7506328">
        <ele>156.719</ele>
        <time>2021-04-01T09:10:57.656Z</time>
      </trkpt>
      <trkpt lat="43.1018641" lon="-2.7506337">
        <ele>156.726</ele>
        <time>2021-04-01T09:10:57.708Z</time>
      </trkpt>
      <trkpt lat="43.1018671" lon="-2.7506342">
        <ele>156.703</ele>
        <time>2021-04-01T09:10:57.760Z</time>
      </trkpt>
      <trkpt lat="43.1018705" lon="-2.7506354">
        <ele>156.687</ele>
        <time>2021-04-01T09:10:57.812Z</time>
      </trkpt>
      <trkpt lat="43.1018739" lon="-2.7506363">
        <ele>156.757</ele>
        <time>2021-04-01T09:10:57.864Z</time>
      </trkpt>
      <trkpt lat="43.1018769" lon="-2.750637">
        <ele>156.788</ele>
        <time>2021-04-01T09:10:57.916Z</time>
      </trkpt>
      <trkpt lat="43.1018807" lon="-2.7506392">
        <ele>156.807</ele>
        <time>2021-04-01T09:10:57.968Z</time>
      </trkpt>
      <trkpt lat="43.1018839" lon="-2.7506408">
        <ele>156.794</ele>
        <time>2021-04-01T09:10:58.020Z</time>
      </trkpt>
      <trkpt lat="43.1018874" lon="-2.7506426">
        <ele>156.701</ele>
        <time>2021-04-01T09:10:58.072Z</time>
      </trkpt>
      <trkpt lat="43.1018904" lon="-2.7506435">
        <ele>156.805</ele>
        <time>2021-04-01T09:10:58.125Z</time>
      </trkpt>
      <trkpt lat="43.1018935" lon="-2.7506443">
        <ele>156.859</ele>
        <time>2021-04-01T09:10:58.177Z</time>
      </trkpt>
      <trkpt lat="43.1018969" lon="-2.7506453">
        <ele>156.83</ele>
        <time>2021-04-01T09:10:58.229Z</time>
      </trkpt>
      <trkpt lat="43.1019004" lon="-2.7506466">
        <ele>156.761</ele>
        <time>2021-04-01T09:10:58.281Z</time>
      </trkpt>
      <trkpt lat="43.1019038" lon="-2.7506483">
        <ele>156.666</ele>
        <time>2021-04-01T09:10:58.333Z</time>
      </trkpt>
      <trkpt lat="43.1019075" lon="-2.7506497">
        <ele>156.589</ele>
        <time>2021-04-01T09:10:58.385Z</time>
      </trkpt>
      <trkpt lat="43.1019106" lon="-2.7506503">
        <ele>156.541</ele>
        <time>2021-04-01T09:10:58.437Z</time>
      </trkpt>
      <trkpt lat="43.1019139" lon="-2.750651">
        <ele>156.611</ele>
        <time>2021-04-01T09:10:58.489Z</time>
      </trkpt>
      <trkpt lat="43.1019171" lon="-2.7506518">
        <ele>156.649</ele>
        <time>2021-04-01T09:10:58.541Z</time>
      </trkpt>
      <trkpt lat="43.1019198" lon="-2.7506524">
        <ele>156.73</ele>
        <time>2021-04-01T09:10:58.594Z</time>
      </trkpt>
      <trkpt lat="43.101923" lon="-2.7506533">
        <ele>156.728</ele>
        <time>2021-04-01T09:10:58.652Z</time>
      </trkpt>
      <trkpt lat="43.101926" lon="-2.7506536">
        <ele>156.76</ele>
        <time>2021-04-01T09:10:58.710Z</time>
      </trkpt>
      <trkpt lat="43.101929" lon="-2.7506542">
        <ele>156.842</ele>
        <time>2021-04-01T09:10:58.768Z</time>
      </trkpt>
      <trkpt lat="43.1019318" lon="-2.750655">
        <ele>156.958</ele>
        <time>2021-04-01T09:10:58.826Z</time>
      </trkpt>
      <trkpt lat="43.1019349" lon="-2.7506562">
        <ele>157.046</ele>
        <time>2021-04-01T09:10:58.885Z</time>
      </trkpt>
      <trkpt lat="43.101938" lon="-2.7506572">
        <ele>157.074</ele>
        <time>2021-04-01T09:10:58.943Z</time>
      </trkpt>
      <trkpt lat="43.1019411" lon="-2.750658">
        <ele>157.116</ele>
        <time>2021-04-01T09:10:59.001Z</time>
      </trkpt>
      <trkpt lat="43.101944" lon="-2.7506587">
        <ele>157.148</ele>
        <time>2021-04-01T09:10:59.059Z</time>
      </trkpt>
      <trkpt lat="43.1019472" lon="-2.75066">
        <ele>157.141</ele>
        <time>2021-04-01T09:10:59.118Z</time>
      </trkpt>
      <trkpt lat="43.1019501" lon="-2.7506608">
        <ele>157.206</ele>
        <time>2021-04-01T09:10:59.176Z</time>
      </trkpt>
      <trkpt lat="43.101953" lon="-2.7506604">
        <ele>157.339</ele>
        <time>2021-04-01T09:10:59.234Z</time>
      </trkpt>
      <trkpt lat="43.1019562" lon="-2.7506609">
        <ele>157.38</ele>
        <time>2021-04-01T09:10:59.292Z</time>
      </trkpt>
      <trkpt lat="43.1019593" lon="-2.7506616">
        <ele>157.433</ele>
        <time>2021-04-01T09:10:59.351Z</time>
      </trkpt>
      <trkpt lat="43.1019625" lon="-2.7506626">
        <ele>157.428</ele>
        <time>2021-04-01T09:10:59.409Z</time>
      </trkpt>
      <trkpt lat="43.1019656" lon="-2.7506638">
        <ele>157.451</ele>
        <time>2021-04-01T09:10:59.467Z</time>
      </trkpt>
      <trkpt lat="43.1019685" lon="-2.7506644">
        <ele>157.498</ele>
        <time>2021-04-01T09:10:59.525Z</time>
      </trkpt>
      <trkpt lat="43.1019715" lon="-2.7506651">
        <ele>157.553</ele>
        <time>2021-04-01T09:10:59.584Z</time>
      </trkpt>
      <trkpt lat="43.1019746" lon="-2.7506657">
        <ele>157.618</ele>
        <time>2021-04-01T09:10:59.642Z</time>
      </trkpt>
      <trkpt lat="43.1019777" lon="-2.7506669">
        <ele>157.662</ele>
        <time>2021-04-01T09:10:59.700Z</time>
      </trkpt>
      <trkpt lat="43.1019808" lon="-2.750668">
        <ele>157.687</ele>
        <time>2021-04-01T09:10:59.758Z</time>
      </trkpt>
      <trkpt lat="43.1019842" lon="-2.7506696">
        <ele>157.608</ele>
        <time>2021-04-01T09:10:59.816Z</time>
      </trkpt>
      <trkpt lat="43.1019875" lon="-2.7506705">
        <ele>157.592</ele>
        <time>2021-04-01T09:10:59.874Z</time>
      </trkpt>
      <trkpt lat="43.101991" lon="-2.7506724">
        <ele>157.47</ele>
        <time>2021-04-01T09:10:59.932Z</time>
      </trkpt>
      <trkpt lat="43.1019941" lon="-2.750673">
        <ele>157.553</ele>
        <time>2021-04-01T09:10:59.990Z</time>
      </trkpt>
      <trkpt lat="43.1019973" lon="-2.7506739">
        <ele>157.549</ele>
        <time>2021-04-01T09:11:00.048Z</time>
      </trkpt>
      <trkpt lat="43.1020004" lon="-2.7506751">
        <ele>157.578</ele>
        <time>2021-04-01T09:11:00.106Z</time>
      </trkpt>
      <trkpt lat="43.1020037" lon="-2.7506756">
        <ele>157.615</ele>
        <time>2021-04-01T09:11:00.164Z</time>
      </trkpt>
      <trkpt lat="43.1020063" lon="-2.7506754">
        <ele>157.739</ele>
        <time>2021-04-01T09:11:00.222Z</time>
      </trkpt>
      <trkpt lat="43.1020093" lon="-2.750676">
        <ele>157.751</ele>
        <time>2021-04-01T09:11:00.280Z</time>
      </trkpt>
      <trkpt lat="43.1020126" lon="-2.7506775">
        <ele>157.737</ele>
        <time>2021-04-01T09:11:00.338Z</time>
      </trkpt>
      <trkpt lat="43.102016" lon="-2.7506793">
        <ele>157.742</ele>
        <time>2021-04-01T09:11:00.396Z</time>
      </trkpt>
      <trkpt lat="43.1020194" lon="-2.7506809">
        <ele>157.796</ele>
        <time>2021-04-01T09:11:00.454Z</time>
      </trkpt>
      <trkpt lat="43.1020229" lon="-2.750682">
        <ele>157.824</ele>
        <time>2021-04-01T09:11:00.512Z</time>
      </trkpt>
      <trkpt lat="43.1020261" lon="-2.7506832">
        <ele>157.809</ele>
        <time>2021-04-01T09:11:00.570Z</time>
      </trkpt>
      <trkpt lat="43.1020295" lon="-2.7506848">
        <ele>157.706</ele>
        <time>2021-04-01T09:11:00.629Z</time>
      </trkpt>
      <trkpt lat="43.102033" lon="-2.7506861">
        <ele>157.584</ele>
        <time>2021-04-01T09:11:00.681Z</time>
      </trkpt>
      <trkpt lat="43.1020361" lon="-2.7506871">
        <ele>157.578</ele>
        <time>2021-04-01T09:11:00.733Z</time>
      </trkpt>
      <trkpt lat="43.1020392" lon="-2.7506878">
        <ele>157.618</ele>
        <time>2021-04-01T09:11:00.785Z</time>
      </trkpt>
      <trkpt lat="43.102042" lon="-2.7506892">
        <ele>157.727</ele>
        <time>2021-04-01T09:11:00.837Z</time>
      </trkpt>
      <trkpt lat="43.1020448" lon="-2.7506906">
        <ele>157.746</ele>
        <time>2021-04-01T09:11:00.889Z</time>
      </trkpt>
      <trkpt lat="43.1020483" lon="-2.7506917">
        <ele>157.711</ele>
        <time>2021-04-01T09:11:00.941Z</time>
      </trkpt>
      <trkpt lat="43.1020509" lon="-2.7506922">
        <ele>157.8</ele>
        <time>2021-04-01T09:11:00.993Z</time>
      </trkpt>
      <trkpt lat="43.1020542" lon="-2.7506933">
        <ele>157.805</ele>
        <time>2021-04-01T09:11:01.045Z</time>
      </trkpt>
      <trkpt lat="43.1020574" lon="-2.7506944">
        <ele>157.798</ele>
        <time>2021-04-01T09:11:01.097Z</time>
      </trkpt>
      <trkpt lat="43.1020605" lon="-2.7506951">
        <ele>157.751</ele>
        <time>2021-04-01T09:11:01.150Z</time>
      </trkpt>
      <trkpt lat="43.1020639" lon="-2.7506958">
        <ele>157.716</ele>
        <time>2021-04-01T09:11:01.202Z</time>
      </trkpt>
      <trkpt lat="43.1020669" lon="-2.7506965">
        <ele>157.767</ele>
        <time>2021-04-01T09:11:01.254Z</time>
      </trkpt>
      <trkpt lat="43.1020701" lon="-2.750697">
        <ele>157.783</ele>
        <time>2021-04-01T09:11:01.306Z</time>
      </trkpt>
      <trkpt lat="43.1020725" lon="-2.7506974">
        <ele>157.989</ele>
        <time>2021-04-01T09:11:01.358Z</time>
      </trkpt>
      <trkpt lat="43.1020755" lon="-2.750698">
        <ele>158.081</ele>
        <time>2021-04-01T09:11:01.410Z</time>
      </trkpt>
      <trkpt lat="43.1020788" lon="-2.7506989">
        <ele>158.112</ele>
        <time>2021-04-01T09:11:01.462Z</time>
      </trkpt>
      <trkpt lat="43.102082" lon="-2.7506997">
        <ele>158.085</ele>
        <time>2021-04-01T09:11:01.514Z</time>
      </trkpt>
      <trkpt lat="43.102085" lon="-2.7507004">
        <ele>158.094</ele>
        <time>2021-04-01T09:11:01.566Z</time>
      </trkpt>
      <trkpt lat="43.1020882" lon="-2.7507014">
        <ele>158.142</ele>
        <time>2021-04-01T09:11:01.619Z</time>
      </trkpt>
      <trkpt lat="43.1020914" lon="-2.7507024">
        <ele>158.167</ele>
        <time>2021-04-01T09:11:01.674Z</time>
      </trkpt>
      <trkpt lat="43.1020942" lon="-2.7507029">
        <ele>158.198</ele>
        <time>2021-04-01T09:11:01.729Z</time>
      </trkpt>
      <trkpt lat="43.1020972" lon="-2.7507035">
        <ele>158.246</ele>
        <time>2021-04-01T09:11:01.784Z</time>
      </trkpt>
      <trkpt lat="43.1020999" lon="-2.7507037">
        <ele>158.384</ele>
        <time>2021-04-01T09:11:01.839Z</time>
      </trkpt>
      <trkpt lat="43.1021029" lon="-2.7507046">
        <ele>158.429</ele>
        <time>2021-04-01T09:11:01.894Z</time>
      </trkpt>
      <trkpt lat="43.1021061" lon="-2.7507057">
        <ele>158.48</ele>
        <time>2021-04-01T09:11:01.949Z</time>
      </trkpt>
      <trkpt lat="43.1021092" lon="-2.7507063">
        <ele>158.549</ele>
        <time>2021-04-01T09:11:02.004Z</time>
      </trkpt>
      <trkpt lat="43.1021123" lon="-2.7507068">
        <ele>158.527</ele>
        <time>2021-04-01T09:11:02.059Z</time>
      </trkpt>
      <trkpt lat="43.102116" lon="-2.7507081">
        <ele>158.385</ele>
        <time>2021-04-01T09:11:02.114Z</time>
      </trkpt>
      <trkpt lat="43.1021195" lon="-2.7507094">
        <ele>158.351</ele>
        <time>2021-04-01T09:11:02.169Z</time>
      </trkpt>
      <trkpt lat="43.1021232" lon="-2.750711">
        <ele>158.23</ele>
        <time>2021-04-01T09:11:02.224Z</time>
      </trkpt>
      <trkpt lat="43.1021263" lon="-2.750712">
        <ele>158.222</ele>
        <time>2021-04-01T09:11:02.279Z</time>
      </trkpt>
      <trkpt lat="43.1021295" lon="-2.7507134">
        <ele>158.129</ele>
        <time>2021-04-01T09:11:02.334Z</time>
      </trkpt>
      <trkpt lat="43.1021329" lon="-2.7507144">
        <ele>158.107</ele>
        <time>2021-04-01T09:11:02.389Z</time>
      </trkpt>
      <trkpt lat="43.1021362" lon="-2.7507152">
        <ele>158.115</ele>
        <time>2021-04-01T09:11:02.444Z</time>
      </trkpt>
      <trkpt lat="43.1021394" lon="-2.7507158">
        <ele>158.076</ele>
        <time>2021-04-01T09:11:02.499Z</time>
      </trkpt>
      <trkpt lat="43.1021428" lon="-2.750716">
        <ele>158.004</ele>
        <time>2021-04-01T09:11:02.554Z</time>
      </trkpt>
      <trkpt lat="43.1021459" lon="-2.7507166">
        <ele>157.967</ele>
        <time>2021-04-01T09:11:02.609Z</time>
      </trkpt>
      <trkpt lat="43.1021494" lon="-2.7507178">
        <ele>157.906</ele>
        <time>2021-04-01T09:11:02.664Z</time>
      </trkpt>
      <trkpt lat="43.1021528" lon="-2.7507194">
        <ele>157.848</ele>
        <time>2021-04-01T09:11:02.719Z</time>
      </trkpt>
      <trkpt lat="43.1021558" lon="-2.7507201">
        <ele>157.881</ele>
        <time>2021-04-01T09:11:02.774Z</time>
      </trkpt>
      <trkpt lat="43.1021588" lon="-2.7507208">
        <ele>157.873</ele>
        <time>2021-04-01T09:11:02.829Z</time>
      </trkpt>
      <trkpt lat="43.1021621" lon="-2.7507221">
        <ele>157.87</ele>
        <time>2021-04-01T09:11:02.884Z</time>
      </trkpt>
      <trkpt lat="43.1021651" lon="-2.750723">
        <ele>157.906</ele>
        <time>2021-04-01T09:11:02.939Z</time>
      </trkpt>
      <trkpt lat="43.1021685" lon="-2.7507239">
        <ele>157.933</ele>
        <time>2021-04-01T09:11:02.994Z</time>
      </trkpt>
      <trkpt lat="43.1021717" lon="-2.7507251">
        <ele>157.954</ele>
        <time>2021-04-01T09:11:03.049Z</time>
      </trkpt>
      <trkpt lat="43.1021747" lon="-2.7507261">
        <ele>157.98</ele>
        <time>2021-04-01T09:11:03.104Z</time>
      </trkpt>
      <trkpt lat="43.1021781" lon="-2.7507269">
        <ele>157.976</ele>
        <time>2021-04-01T09:11:03.159Z</time>
      </trkpt>
      <trkpt lat="43.1021816" lon="-2.750728">
        <ele>158</ele>
        <time>2021-04-01T09:11:03.214Z</time>
      </trkpt>
      <trkpt lat="43.1021845" lon="-2.7507285">
        <ele>158.073</ele>
        <time>2021-04-01T09:11:03.269Z</time>
      </trkpt>
      <trkpt lat="43.1021874" lon="-2.7507291">
        <ele>158.104</ele>
        <time>2021-04-01T09:11:03.324Z</time>
      </trkpt>
      <trkpt lat="43.1021906" lon="-2.7507301">
        <ele>158.153</ele>
        <time>2021-04-01T09:11:03.379Z</time>
      </trkpt>
      <trkpt lat="43.1021939" lon="-2.7507312">
        <ele>158.142</ele>
        <time>2021-04-01T09:11:03.434Z</time>
      </trkpt>
      <trkpt lat="43.102197" lon="-2.750732">
        <ele>158.164</ele>
        <time>2021-04-01T09:11:03.489Z</time>
      </trkpt>
      <trkpt lat="43.1022003" lon="-2.7507334">
        <ele>158.122</ele>
        <time>2021-04-01T09:11:03.544Z</time>
      </trkpt>
      <trkpt lat="43.1022036" lon="-2.7507343">
        <ele>158.116</ele>
        <time>2021-04-01T09:11:03.599Z</time>
      </trkpt>
      <trkpt lat="43.1022068" lon="-2.7507353">
        <ele>158.099</ele>
        <time>2021-04-01T09:11:03.651Z</time>
      </trkpt>
      <trkpt lat="43.1022103" lon="-2.7507368">
        <ele>158.049</ele>
        <time>2021-04-01T09:11:03.703Z</time>
      </trkpt>
      <trkpt lat="43.1022135" lon="-2.7507375">
        <ele>158.021</ele>
        <time>2021-04-01T09:11:03.755Z</time>
      </trkpt>
      <trkpt lat="43.1022166" lon="-2.7507382">
        <ele>158.008</ele>
        <time>2021-04-01T09:11:03.807Z</time>
      </trkpt>
      <trkpt lat="43.1022201" lon="-2.7507393">
        <ele>157.979</ele>
        <time>2021-04-01T09:11:03.859Z</time>
      </trkpt>
      <trkpt lat="43.1022232" lon="-2.7507402">
        <ele>158.02</ele>
        <time>2021-04-01T09:11:03.911Z</time>
      </trkpt>
      <trkpt lat="43.1022263" lon="-2.750741">
        <ele>158.004</ele>
        <time>2021-04-01T09:11:03.963Z</time>
      </trkpt>
      <trkpt lat="43.1022296" lon="-2.7507418">
        <ele>157.974</ele>
        <time>2021-04-01T09:11:04.015Z</time>
      </trkpt>
      <trkpt lat="43.1022328" lon="-2.7507427">
        <ele>158</ele>
        <time>2021-04-01T09:11:04.067Z</time>
      </trkpt>
      <trkpt lat="43.1022363" lon="-2.7507436">
        <ele>157.924</ele>
        <time>2021-04-01T09:11:04.120Z</time>
      </trkpt>
      <trkpt lat="43.1022393" lon="-2.7507444">
        <ele>157.891</ele>
        <time>2021-04-01T09:11:04.172Z</time>
      </trkpt>
      <trkpt lat="43.1022426" lon="-2.7507455">
        <ele>157.846</ele>
        <time>2021-04-01T09:11:04.224Z</time>
      </trkpt>
      <trkpt lat="43.1022457" lon="-2.7507468">
        <ele>157.841</ele>
        <time>2021-04-01T09:11:04.276Z</time>
      </trkpt>
      <trkpt lat="43.1022484" lon="-2.7507476">
        <ele>157.962</ele>
        <time>2021-04-01T09:11:04.328Z</time>
      </trkpt>
      <trkpt lat="43.1022514" lon="-2.7507484">
        <ele>157.936</ele>
        <time>2021-04-01T09:11:04.380Z</time>
      </trkpt>
      <trkpt lat="43.1022545" lon="-2.7507496">
        <ele>157.898</ele>
        <time>2021-04-01T09:11:04.432Z</time>
      </trkpt>
      <trkpt lat="43.1022577" lon="-2.7507508">
        <ele>157.893</ele>
        <time>2021-04-01T09:11:04.484Z</time>
      </trkpt>
      <trkpt lat="43.1022609" lon="-2.7507519">
        <ele>157.894</ele>
        <time>2021-04-01T09:11:04.536Z</time>
      </trkpt>
      <trkpt lat="43.102264" lon="-2.7507531">
        <ele>157.902</ele>
        <time>2021-04-01T09:11:04.589Z</time>
      </trkpt>
      <trkpt lat="43.1022671" lon="-2.750754">
        <ele>157.927</ele>
        <time>2021-04-01T09:11:04.647Z</time>
      </trkpt>
      <trkpt lat="43.1022697" lon="-2.7507545">
        <ele>157.948</ele>
        <time>2021-04-01T09:11:04.705Z</time>
      </trkpt>
      <trkpt lat="43.1022729" lon="-2.7507556">
        <ele>157.904</ele>
        <time>2021-04-01T09:11:04.763Z</time>
      </trkpt>
      <trkpt lat="43.1022762" lon="-2.7507563">
        <ele>157.861</ele>
        <time>2021-04-01T09:11:04.821Z</time>
      </trkpt>
      <trkpt lat="43.1022796" lon="-2.7507577">
        <ele>157.804</ele>
        <time>2021-04-01T09:11:04.880Z</time>
      </trkpt>
      <trkpt lat="43.1022831" lon="-2.7507592">
        <ele>157.789</ele>
        <time>2021-04-01T09:11:04.938Z</time>
      </trkpt>
      <trkpt lat="43.1022864" lon="-2.7507603">
        <ele>157.776</ele>
        <time>2021-04-01T09:11:04.996Z</time>
      </trkpt>
      <trkpt lat="43.1022895" lon="-2.7507609">
        <ele>157.799</ele>
        <time>2021-04-01T09:11:05.054Z</time>
      </trkpt>
      <trkpt lat="43.1022925" lon="-2.7507615">
        <ele>157.805</ele>
        <time>2021-04-01T09:11:05.113Z</time>
      </trkpt>
      <trkpt lat="43.1022957" lon="-2.7507627">
        <ele>157.77</ele>
        <time>2021-04-01T09:11:05.171Z</time>
      </trkpt>
      <trkpt lat="43.1022988" lon="-2.750764">
        <ele>157.773</ele>
        <time>2021-04-01T09:11:05.229Z</time>
      </trkpt>
      <trkpt lat="43.1023017" lon="-2.7507649">
        <ele>157.88</ele>
        <time>2021-04-01T09:11:05.287Z</time>
      </trkpt>
      <trkpt lat="43.1023047" lon="-2.7507659">
        <ele>157.999</ele>
        <time>2021-04-01T09:11:05.346Z</time>
      </trkpt>
      <trkpt lat="43.1023082" lon="-2.7507673">
        <ele>157.897</ele>
        <time>2021-04-01T09:11:05.404Z</time>
      </trkpt>
      <trkpt lat="43.1023115" lon="-2.7507682">
        <ele>157.889</ele>
        <time>2021-04-01T09:11:05.462Z</time>
      </trkpt>
      <trkpt lat="43.1023147" lon="-2.7507688">
        <ele>157.845</ele>
        <time>2021-04-01T09:11:05.520Z</time>
      </trkpt>
      <trkpt lat="43.1023175" lon="-2.7507696">
        <ele>157.943</ele>
        <time>2021-04-01T09:11:05.579Z</time>
      </trkpt>
      <trkpt lat="43.1023207" lon="-2.7507702">
        <ele>157.932</ele>
        <time>2021-04-01T09:11:05.634Z</time>
      </trkpt>
      <trkpt lat="43.1023237" lon="-2.7507711">
        <ele>157.986</ele>
        <time>2021-04-01T09:11:05.689Z</time>
      </trkpt>
      <trkpt lat="43.102327" lon="-2.7507718">
        <ele>157.973</ele>
        <time>2021-04-01T09:11:05.744Z</time>
      </trkpt>
      <trkpt lat="43.1023302" lon="-2.7507724">
        <ele>157.976</ele>
        <time>2021-04-01T09:11:05.799Z</time>
      </trkpt>
      <trkpt lat="43.1023333" lon="-2.7507731">
        <ele>158.038</ele>
        <time>2021-04-01T09:11:05.854Z</time>
      </trkpt>
      <trkpt lat="43.1023365" lon="-2.750774">
        <ele>158.031</ele>
        <time>2021-04-01T09:11:05.909Z</time>
      </trkpt>
      <trkpt lat="43.1023395" lon="-2.7507739">
        <ele>158.039</ele>
        <time>2021-04-01T09:11:05.964Z</time>
      </trkpt>
      <trkpt lat="43.1023427" lon="-2.7507746">
        <ele>158.009</ele>
        <time>2021-04-01T09:11:06.019Z</time>
      </trkpt>
      <trkpt lat="43.1023456" lon="-2.7507751">
        <ele>158.084</ele>
        <time>2021-04-01T09:11:06.074Z</time>
      </trkpt>
      <trkpt lat="43.1023491" lon="-2.7507764">
        <ele>157.974</ele>
        <time>2021-04-01T09:11:06.129Z</time>
      </trkpt>
      <trkpt lat="43.1023521" lon="-2.7507773">
        <ele>158.054</ele>
        <time>2021-04-01T09:11:06.184Z</time>
      </trkpt>
      <trkpt lat="43.1023551" lon="-2.7507778">
        <ele>158.159</ele>
        <time>2021-04-01T09:11:06.239Z</time>
      </trkpt>
      <trkpt lat="43.1023584" lon="-2.7507792">
        <ele>158.116</ele>
        <time>2021-04-01T09:11:06.294Z</time>
      </trkpt>
      <trkpt lat="43.1023617" lon="-2.7507806">
        <ele>158.031</ele>
        <time>2021-04-01T09:11:06.349Z</time>
      </trkpt>
      <trkpt lat="43.1023652" lon="-2.7507822">
        <ele>157.927</ele>
        <time>2021-04-01T09:11:06.404Z</time>
      </trkpt>
      <trkpt lat="43.102368" lon="-2.750783">
        <ele>158.115</ele>
        <time>2021-04-01T09:11:06.459Z</time>
      </trkpt>
      <trkpt lat="43.1023704" lon="-2.7507831">
        <ele>158.395</ele>
        <time>2021-04-01T09:11:06.514Z</time>
      </trkpt>
      <trkpt lat="43.1023737" lon="-2.7507841">
        <ele>158.403</ele>
        <time>2021-04-01T09:11:06.569Z</time>
      </trkpt>
      <trkpt lat="43.1023769" lon="-2.7507856">
        <ele>158.38</ele>
        <time>2021-04-01T09:11:06.624Z</time>
      </trkpt>
      <trkpt lat="43.1023798" lon="-2.7507864">
        <ele>158.457</ele>
        <time>2021-04-01T09:11:06.679Z</time>
      </trkpt>
      <trkpt lat="43.102383" lon="-2.7507875">
        <ele>158.427</ele>
        <time>2021-04-01T09:11:06.734Z</time>
      </trkpt>
      <trkpt lat="43.1023863" lon="-2.7507888">
        <ele>158.374</ele>
        <time>2021-04-01T09:11:06.789Z</time>
      </trkpt>
      <trkpt lat="43.1023895" lon="-2.7507903">
        <ele>158.398</ele>
        <time>2021-04-01T09:11:06.844Z</time>
      </trkpt>
      <trkpt lat="43.1023926" lon="-2.7507918">
        <ele>158.4</ele>
        <time>2021-04-01T09:11:06.899Z</time>
      </trkpt>
      <trkpt lat="43.1023963" lon="-2.7507933">
        <ele>158.239</ele>
        <time>2021-04-01T09:11:06.954Z</time>
      </trkpt>
      <trkpt lat="43.1023997" lon="-2.750795">
        <ele>158.148</ele>
        <time>2021-04-01T09:11:07.009Z</time>
      </trkpt>
      <trkpt lat="43.1024031" lon="-2.7507965">
        <ele>158.038</ele>
        <time>2021-04-01T09:11:07.064Z</time>
      </trkpt>
      <trkpt lat="43.1024065" lon="-2.7507979">
        <ele>157.998</ele>
        <time>2021-04-01T09:11:07.119Z</time>
      </trkpt>
      <trkpt lat="43.1024096" lon="-2.7507989">
        <ele>157.983</ele>
        <time>2021-04-01T09:11:07.174Z</time>
      </trkpt>
      <trkpt lat="43.1024129" lon="-2.7508006">
        <ele>157.974</ele>
        <time>2021-04-01T09:11:07.229Z</time>
      </trkpt>
      <trkpt lat="43.1024161" lon="-2.7508019">
        <ele>158.013</ele>
        <time>2021-04-01T09:11:07.284Z</time>
      </trkpt>
      <trkpt lat="43.1024192" lon="-2.7508029">
        <ele>157.993</ele>
        <time>2021-04-01T09:11:07.339Z</time>
      </trkpt>
      <trkpt lat="43.1024224" lon="-2.7508044">
        <ele>157.93</ele>
        <time>2021-04-01T09:11:07.394Z</time>
      </trkpt>
      <trkpt lat="43.1024258" lon="-2.7508062">
        <ele>157.897</ele>
        <time>2021-04-01T09:11:07.449Z</time>
      </trkpt>
      <trkpt lat="43.1024291" lon="-2.7508078">
        <ele>157.922</ele>
        <time>2021-04-01T09:11:07.504Z</time>
      </trkpt>
      <trkpt lat="43.1024326" lon="-2.7508096">
        <ele>157.819</ele>
        <time>2021-04-01T09:11:07.559Z</time>
      </trkpt>
      <trkpt lat="43.102436" lon="-2.7508115">
        <ele>157.703</ele>
        <time>2021-04-01T09:11:07.614Z</time>
      </trkpt>
      <trkpt lat="43.1024393" lon="-2.7508131">
        <ele>157.639</ele>
        <time>2021-04-01T09:11:07.669Z</time>
      </trkpt>
      <trkpt lat="43.1024425" lon="-2.7508141">
        <ele>157.695</ele>
        <time>2021-04-01T09:11:07.724Z</time>
      </trkpt>
      <trkpt lat="43.1024453" lon="-2.7508149">
        <ele>157.703</ele>
        <time>2021-04-01T09:11:07.779Z</time>
      </trkpt>
      <trkpt lat="43.102448" lon="-2.7508151">
        <ele>157.775</ele>
        <time>2021-04-01T09:11:07.834Z</time>
      </trkpt>
      <trkpt lat="43.1024513" lon="-2.7508166">
        <ele>157.791</ele>
        <time>2021-04-01T09:11:07.889Z</time>
      </trkpt>
      <trkpt lat="43.1024546" lon="-2.7508178">
        <ele>157.832</ele>
        <time>2021-04-01T09:11:07.944Z</time>
      </trkpt>
      <trkpt lat="43.1024582" lon="-2.7508194">
        <ele>157.741</ele>
        <time>2021-04-01T09:11:07.999Z</time>
      </trkpt>
      <trkpt lat="43.1024614" lon="-2.7508207">
        <ele>157.735</ele>
        <time>2021-04-01T09:11:08.054Z</time>
      </trkpt>
      <trkpt lat="43.1024654" lon="-2.7508228">
        <ele>157.462</ele>
        <time>2021-04-01T09:11:08.109Z</time>
      </trkpt>
      <trkpt lat="43.1024688" lon="-2.7508247">
        <ele>157.382</ele>
        <time>2021-04-01T09:11:08.164Z</time>
      </trkpt>
      <trkpt lat="43.1024721" lon="-2.7508261">
        <ele>157.352</ele>
        <time>2021-04-01T09:11:08.219Z</time>
      </trkpt>
      <trkpt lat="43.1024756" lon="-2.7508278">
        <ele>157.24</ele>
        <time>2021-04-01T09:11:08.274Z</time>
      </trkpt>
      <trkpt lat="43.1024789" lon="-2.7508294">
        <ele>157.198</ele>
        <time>2021-04-01T09:11:08.329Z</time>
      </trkpt>
      <trkpt lat="43.1024824" lon="-2.7508308">
        <ele>157.142</ele>
        <time>2021-04-01T09:11:08.384Z</time>
      </trkpt>
      <trkpt lat="43.1024856" lon="-2.7508319">
        <ele>157.127</ele>
        <time>2021-04-01T09:11:08.439Z</time>
      </trkpt>
      <trkpt lat="43.1024887" lon="-2.750833">
        <ele>157.129</ele>
        <time>2021-04-01T09:11:08.494Z</time>
      </trkpt>
      <trkpt lat="43.1024917" lon="-2.7508341">
        <ele>157.125</ele>
        <time>2021-04-01T09:11:08.549Z</time>
      </trkpt>
      <trkpt lat="43.1024949" lon="-2.7508353">
        <ele>157.146</ele>
        <time>2021-04-01T09:11:08.604Z</time>
      </trkpt>
      <trkpt lat="43.102498" lon="-2.7508362">
        <ele>157.133</ele>
        <time>2021-04-01T09:11:08.662Z</time>
      </trkpt>
      <trkpt lat="43.1025012" lon="-2.7508372">
        <ele>157.131</ele>
        <time>2021-04-01T09:11:08.720Z</time>
      </trkpt>
      <trkpt lat="43.1025046" lon="-2.7508386">
        <ele>157.143</ele>
        <time>2021-04-01T09:11:08.778Z</time>
      </trkpt>
      <trkpt lat="43.1025077" lon="-2.7508397">
        <ele>157.169</ele>
        <time>2021-04-01T09:11:08.836Z</time>
      </trkpt>
      <trkpt lat="43.1025111" lon="-2.750841">
        <ele>157.181</ele>
        <time>2021-04-01T09:11:08.894Z</time>
      </trkpt>
      <trkpt lat="43.1025144" lon="-2.7508423">
        <ele>157.213</ele>
        <time>2021-04-01T09:11:08.952Z</time>
      </trkpt>
      <trkpt lat="43.1025175" lon="-2.750843">
        <ele>157.27</ele>
        <time>2021-04-01T09:11:09.010Z</time>
      </trkpt>
      <trkpt lat="43.1025208" lon="-2.7508442">
        <ele>157.32</ele>
        <time>2021-04-01T09:11:09.068Z</time>
      </trkpt>
      <trkpt lat="43.1025243" lon="-2.7508452">
        <ele>157.364</ele>
        <time>2021-04-01T09:11:09.126Z</time>
      </trkpt>
      <trkpt lat="43.1025277" lon="-2.7508464">
        <ele>157.41</ele>
        <time>2021-04-01T09:11:09.184Z</time>
      </trkpt>
      <trkpt lat="43.102531" lon="-2.7508475">
        <ele>157.494</ele>
        <time>2021-04-01T09:11:09.242Z</time>
      </trkpt>
      <trkpt lat="43.1025345" lon="-2.7508494">
        <ele>157.455</ele>
        <time>2021-04-01T09:11:09.300Z</time>
      </trkpt>
      <trkpt lat="43.1025372" lon="-2.7508496">
        <ele>157.689</ele>
        <time>2021-04-01T09:11:09.358Z</time>
      </trkpt>
      <trkpt lat="43.1025402" lon="-2.7508502">
        <ele>157.758</ele>
        <time>2021-04-01T09:11:09.416Z</time>
      </trkpt>
      <trkpt lat="43.1025433" lon="-2.7508512">
        <ele>157.767</ele>
        <time>2021-04-01T09:11:09.474Z</time>
      </trkpt>
      <trkpt lat="43.1025464" lon="-2.7508522">
        <ele>157.827</ele>
        <time>2021-04-01T09:11:09.532Z</time>
      </trkpt>
      <trkpt lat="43.1025494" lon="-2.7508528">
        <ele>157.91</ele>
        <time>2021-04-01T09:11:09.590Z</time>
      </trkpt>
      <trkpt lat="43.1025523" lon="-2.7508533">
        <ele>158.014</ele>
        <time>2021-04-01T09:11:09.649Z</time>
      </trkpt>
      <trkpt lat="43.1025555" lon="-2.7508545">
        <ele>158.087</ele>
        <time>2021-04-01T09:11:09.700Z</time>
      </trkpt>
      <trkpt lat="43.1025587" lon="-2.7508557">
        <ele>158.09</ele>
        <time>2021-04-01T09:11:09.752Z</time>
      </trkpt>
      <trkpt lat="43.1025617" lon="-2.7508565">
        <ele>158.108</ele>
        <time>2021-04-01T09:11:09.804Z</time>
      </trkpt>
      <trkpt lat="43.1025651" lon="-2.7508574">
        <ele>158.129</ele>
        <time>2021-04-01T09:11:09.856Z</time>
      </trkpt>
      <trkpt lat="43.1025683" lon="-2.7508582">
        <ele>158.114</ele>
        <time>2021-04-01T09:11:09.908Z</time>
      </trkpt>
      <trkpt lat="43.1025715" lon="-2.7508596">
        <ele>158.066</ele>
        <time>2021-04-01T09:11:09.960Z</time>
      </trkpt>
      <trkpt lat="43.1025748" lon="-2.7508607">
        <ele>158.112</ele>
        <time>2021-04-01T09:11:10.012Z</time>
      </trkpt>
      <trkpt lat="43.1025778" lon="-2.7508616">
        <ele>158.136</ele>
        <time>2021-04-01T09:11:10.064Z</time>
      </trkpt>
      <trkpt lat="43.1025807" lon="-2.750862">
        <ele>158.182</ele>
        <time>2021-04-01T09:11:10.116Z</time>
      </trkpt>
      <trkpt lat="43.1025837" lon="-2.7508624">
        <ele>158.22</ele>
        <time>2021-04-01T09:11:10.168Z</time>
      </trkpt>
      <trkpt lat="43.1025866" lon="-2.7508636">
        <ele>158.234</ele>
        <time>2021-04-01T09:11:10.220Z</time>
      </trkpt>
      <trkpt lat="43.1025902" lon="-2.750866">
        <ele>158.043</ele>
        <time>2021-04-01T09:11:10.272Z</time>
      </trkpt>
      <trkpt lat="43.1025936" lon="-2.7508674">
        <ele>157.961</ele>
        <time>2021-04-01T09:11:10.324Z</time>
      </trkpt>
      <trkpt lat="43.102597" lon="-2.7508687">
        <ele>157.934</ele>
        <time>2021-04-01T09:11:10.376Z</time>
      </trkpt>
      <trkpt lat="43.1026002" lon="-2.7508694">
        <ele>157.991</ele>
        <time>2021-04-01T09:11:10.428Z</time>
      </trkpt>
      <trkpt lat="43.1026029" lon="-2.7508687">
        <ele>158.197</ele>
        <time>2021-04-01T09:11:10.480Z</time>
      </trkpt>
      <trkpt lat="43.1026066" lon="-2.7508702">
        <ele>158.116</ele>
        <time>2021-04-01T09:11:10.532Z</time>
      </trkpt>
      <trkpt lat="43.1026101" lon="-2.7508714">
        <ele>158.076</ele>
        <time>2021-04-01T09:11:10.584Z</time>
      </trkpt>
      <trkpt lat="43.1026135" lon="-2.7508723">
        <ele>158.056</ele>
        <time>2021-04-01T09:11:10.639Z</time>
      </trkpt>
      <trkpt lat="43.1026168" lon="-2.7508734">
        <ele>158.079</ele>
        <time>2021-04-01T09:11:10.694Z</time>
      </trkpt>
      <trkpt lat="43.1026199" lon="-2.750874">
        <ele>158.173</ele>
        <time>2021-04-01T09:11:10.749Z</time>
      </trkpt>
      <trkpt lat="43.1026231" lon="-2.7508745">
        <ele>158.246</ele>
        <time>2021-04-01T09:11:10.804Z</time>
      </trkpt>
      <trkpt lat="43.1026264" lon="-2.7508756">
        <ele>158.236</ele>
        <time>2021-04-01T09:11:10.859Z</time>
      </trkpt>
      <trkpt lat="43.1026299" lon="-2.7508767">
        <ele>158.179</ele>
        <time>2021-04-01T09:11:10.914Z</time>
      </trkpt>
      <trkpt lat="43.1026336" lon="-2.7508777">
        <ele>158.137</ele>
        <time>2021-04-01T09:11:10.969Z</time>
      </trkpt>
      <trkpt lat="43.102637" lon="-2.7508784">
        <ele>158.189</ele>
        <time>2021-04-01T09:11:11.024Z</time>
      </trkpt>
      <trkpt lat="43.1026405" lon="-2.7508796">
        <ele>158.115</ele>
        <time>2021-04-01T09:11:11.079Z</time>
      </trkpt>
      <trkpt lat="43.1026438" lon="-2.75088">
        <ele>158.262</ele>
        <time>2021-04-01T09:11:11.134Z</time>
      </trkpt>
      <trkpt lat="43.1026473" lon="-2.750881">
        <ele>158.232</ele>
        <time>2021-04-01T09:11:11.189Z</time>
      </trkpt>
      <trkpt lat="43.1026507" lon="-2.750882">
        <ele>158.223</ele>
        <time>2021-04-01T09:11:11.244Z</time>
      </trkpt>
      <trkpt lat="43.1026541" lon="-2.750883">
        <ele>158.236</ele>
        <time>2021-04-01T09:11:11.299Z</time>
      </trkpt>
      <trkpt lat="43.1026576" lon="-2.7508839">
        <ele>158.219</ele>
        <time>2021-04-01T09:11:11.354Z</time>
      </trkpt>
      <trkpt lat="43.102661" lon="-2.750885">
        <ele>158.18</ele>
        <time>2021-04-01T09:11:11.409Z</time>
      </trkpt>
      <trkpt lat="43.1026645" lon="-2.750886">
        <ele>158.191</ele>
        <time>2021-04-01T09:11:11.464Z</time>
      </trkpt>
      <trkpt lat="43.1026678" lon="-2.7508871">
        <ele>158.181</ele>
        <time>2021-04-01T09:11:11.519Z</time>
      </trkpt>
      <trkpt lat="43.1026712" lon="-2.7508883">
        <ele>158.109</ele>
        <time>2021-04-01T09:11:11.574Z</time>
      </trkpt>
      <trkpt lat="43.1026745" lon="-2.7508889">
        <ele>158.146</ele>
        <time>2021-04-01T09:11:11.629Z</time>
      </trkpt>
      <trkpt lat="43.1026777" lon="-2.7508899">
        <ele>158.142</ele>
        <time>2021-04-01T09:11:11.684Z</time>
      </trkpt>
      <trkpt lat="43.1026811" lon="-2.7508905">
        <ele>158.113</ele>
        <time>2021-04-01T09:11:11.739Z</time>
      </trkpt>
      <trkpt lat="43.1026844" lon="-2.7508914">
        <ele>158.141</ele>
        <time>2021-04-01T09:11:11.794Z</time>
      </trkpt>
      <trkpt lat="43.1026876" lon="-2.7508924">
        <ele>158.175</ele>
        <time>2021-04-01T09:11:11.849Z</time>
      </trkpt>
      <trkpt lat="43.1026909" lon="-2.7508935">
        <ele>158.208</ele>
        <time>2021-04-01T09:11:11.904Z</time>
      </trkpt>
      <trkpt lat="43.1026942" lon="-2.7508946">
        <ele>158.178</ele>
        <time>2021-04-01T09:11:11.959Z</time>
      </trkpt>
      <trkpt lat="43.1026974" lon="-2.7508956">
        <ele>158.205</ele>
        <time>2021-04-01T09:11:12.014Z</time>
      </trkpt>
      <trkpt lat="43.1027005" lon="-2.7508963">
        <ele>158.251</ele>
        <time>2021-04-01T09:11:12.069Z</time>
      </trkpt>
      <trkpt lat="43.1027039" lon="-2.750897">
        <ele>158.227</ele>
        <time>2021-04-01T09:11:12.124Z</time>
      </trkpt>
      <trkpt lat="43.1027071" lon="-2.7508979">
        <ele>158.24</ele>
        <time>2021-04-01T09:11:12.179Z</time>
      </trkpt>
      <trkpt lat="43.1027102" lon="-2.750899">
        <ele>158.225</ele>
        <time>2021-04-01T09:11:12.234Z</time>
      </trkpt>
      <trkpt lat="43.1027133" lon="-2.7509">
        <ele>158.234</ele>
        <time>2021-04-01T09:11:12.289Z</time>
      </trkpt>
      <trkpt lat="43.1027166" lon="-2.7509009">
        <ele>158.266</ele>
        <time>2021-04-01T09:11:12.344Z</time>
      </trkpt>
      <trkpt lat="43.1027197" lon="-2.750902">
        <ele>158.287</ele>
        <time>2021-04-01T09:11:12.399Z</time>
      </trkpt>
      <trkpt lat="43.1027229" lon="-2.750903">
        <ele>158.287</ele>
        <time>2021-04-01T09:11:12.454Z</time>
      </trkpt>
      <trkpt lat="43.1027261" lon="-2.750904">
        <ele>158.3</ele>
        <time>2021-04-01T09:11:12.509Z</time>
      </trkpt>
      <trkpt lat="43.1027296" lon="-2.7509051">
        <ele>158.308</ele>
        <time>2021-04-01T09:11:12.564Z</time>
      </trkpt>
      <trkpt lat="43.1027333" lon="-2.750907">
        <ele>158.259</ele>
        <time>2021-04-01T09:11:12.619Z</time>
      </trkpt>
      <trkpt lat="43.1027367" lon="-2.7509083">
        <ele>158.206</ele>
        <time>2021-04-01T09:11:12.674Z</time>
      </trkpt>
      <trkpt lat="43.1027401" lon="-2.7509088">
        <ele>158.219</ele>
        <time>2021-04-01T09:11:12.729Z</time>
      </trkpt>
      <trkpt lat="43.102743" lon="-2.7509102">
        <ele>158.212</ele>
        <time>2021-04-01T09:11:12.784Z</time>
      </trkpt>
      <trkpt lat="43.1027463" lon="-2.7509114">
        <ele>158.228</ele>
        <time>2021-04-01T09:11:12.839Z</time>
      </trkpt>
      <trkpt lat="43.1027495" lon="-2.750912">
        <ele>158.302</ele>
        <time>2021-04-01T09:11:12.894Z</time>
      </trkpt>
      <trkpt lat="43.1027528" lon="-2.750913">
        <ele>158.329</ele>
        <time>2021-04-01T09:11:12.949Z</time>
      </trkpt>
      <trkpt lat="43.1027559" lon="-2.7509142">
        <ele>158.37</ele>
        <time>2021-04-01T09:11:13.004Z</time>
      </trkpt>
      <trkpt lat="43.1027588" lon="-2.7509159">
        <ele>158.438</ele>
        <time>2021-04-01T09:11:13.059Z</time>
      </trkpt>
      <trkpt lat="43.1027621" lon="-2.7509168">
        <ele>158.45</ele>
        <time>2021-04-01T09:11:13.114Z</time>
      </trkpt>
      <trkpt lat="43.1027654" lon="-2.7509175">
        <ele>158.497</ele>
        <time>2021-04-01T09:11:13.169Z</time>
      </trkpt>
      <trkpt lat="43.1027685" lon="-2.7509185">
        <ele>158.487</ele>
        <time>2021-04-01T09:11:13.224Z</time>
      </trkpt>
      <trkpt lat="43.1027716" lon="-2.7509194">
        <ele>158.506</ele>
        <time>2021-04-01T09:11:13.279Z</time>
      </trkpt>
      <trkpt lat="43.1027748" lon="-2.7509201">
        <ele>158.506</ele>
        <time>2021-04-01T09:11:13.334Z</time>
      </trkpt>
      <trkpt lat="43.1027782" lon="-2.7509205">
        <ele>158.491</ele>
        <time>2021-04-01T09:11:13.389Z</time>
      </trkpt>
      <trkpt lat="43.1027815" lon="-2.7509211">
        <ele>158.494</ele>
        <time>2021-04-01T09:11:13.444Z</time>
      </trkpt>
      <trkpt lat="43.1027848" lon="-2.7509218">
        <ele>158.482</ele>
        <time>2021-04-01T09:11:13.499Z</time>
      </trkpt>
      <trkpt lat="43.1027879" lon="-2.7509229">
        <ele>158.519</ele>
        <time>2021-04-01T09:11:13.554Z</time>
      </trkpt>
      <trkpt lat="43.1027912" lon="-2.7509237">
        <ele>158.538</ele>
        <time>2021-04-01T09:11:13.609Z</time>
      </trkpt>
      <trkpt lat="43.1027944" lon="-2.7509247">
        <ele>158.557</ele>
        <time>2021-04-01T09:11:13.664Z</time>
      </trkpt>
      <trkpt lat="43.1027976" lon="-2.7509255">
        <ele>158.559</ele>
        <time>2021-04-01T09:11:13.719Z</time>
      </trkpt>
      <trkpt lat="43.102801" lon="-2.7509265">
        <ele>158.532</ele>
        <time>2021-04-01T09:11:13.774Z</time>
      </trkpt>
      <trkpt lat="43.1028045" lon="-2.7509277">
        <ele>158.486</ele>
        <time>2021-04-01T09:11:13.829Z</time>
      </trkpt>
      <trkpt lat="43.102808" lon="-2.7509289">
        <ele>158.467</ele>
        <time>2021-04-01T09:11:13.884Z</time>
      </trkpt>
      <trkpt lat="43.1028111" lon="-2.75093">
        <ele>158.431</ele>
        <time>2021-04-01T09:11:13.939Z</time>
      </trkpt>
      <trkpt lat="43.1028146" lon="-2.7509308">
        <ele>158.409</ele>
        <time>2021-04-01T09:11:13.994Z</time>
      </trkpt>
      <trkpt lat="43.1028179" lon="-2.7509318">
        <ele>158.349</ele>
        <time>2021-04-01T09:11:14.049Z</time>
      </trkpt>
      <trkpt lat="43.1028213" lon="-2.7509328">
        <ele>158.343</ele>
        <time>2021-04-01T09:11:14.104Z</time>
      </trkpt>
      <trkpt lat="43.1028247" lon="-2.7509336">
        <ele>158.307</ele>
        <time>2021-04-01T09:11:14.159Z</time>
      </trkpt>
      <trkpt lat="43.1028278" lon="-2.7509342">
        <ele>158.298</ele>
        <time>2021-04-01T09:11:14.214Z</time>
      </trkpt>
      <trkpt lat="43.1028307" lon="-2.7509346">
        <ele>158.401</ele>
        <time>2021-04-01T09:11:14.269Z</time>
      </trkpt>
      <trkpt lat="43.1028338" lon="-2.7509359">
        <ele>158.416</ele>
        <time>2021-04-01T09:11:14.324Z</time>
      </trkpt>
      <trkpt lat="43.102837" lon="-2.7509369">
        <ele>158.417</ele>
        <time>2021-04-01T09:11:14.379Z</time>
      </trkpt>
      <trkpt lat="43.1028404" lon="-2.7509383">
        <ele>158.417</ele>
        <time>2021-04-01T09:11:14.434Z</time>
      </trkpt>
      <trkpt lat="43.1028437" lon="-2.7509396">
        <ele>158.416</ele>
        <time>2021-04-01T09:11:14.489Z</time>
      </trkpt>
      <trkpt lat="43.1028468" lon="-2.7509407">
        <ele>158.458</ele>
        <time>2021-04-01T09:11:14.544Z</time>
      </trkpt>
      <trkpt lat="43.1028497" lon="-2.7509426">
        <ele>158.56</ele>
        <time>2021-04-01T09:11:14.599Z</time>
      </trkpt>
      <trkpt lat="43.1028528" lon="-2.750944">
        <ele>158.581</ele>
        <time>2021-04-01T09:11:14.651Z</time>
      </trkpt>
      <trkpt lat="43.1028561" lon="-2.750945">
        <ele>158.588</ele>
        <time>2021-04-01T09:11:14.703Z</time>
      </trkpt>
      <trkpt lat="43.1028593" lon="-2.7509463">
        <ele>158.61</ele>
        <time>2021-04-01T09:11:14.755Z</time>
      </trkpt>
      <trkpt lat="43.1028626" lon="-2.7509481">
        <ele>158.628</ele>
        <time>2021-04-01T09:11:14.807Z</time>
      </trkpt>
      <trkpt lat="43.1028659" lon="-2.7509497">
        <ele>158.64</ele>
        <time>2021-04-01T09:11:14.859Z</time>
      </trkpt>
      <trkpt lat="43.1028691" lon="-2.7509513">
        <ele>158.648</ele>
        <time>2021-04-01T09:11:14.911Z</time>
      </trkpt>
      <trkpt lat="43.1028722" lon="-2.7509528">
        <ele>158.664</ele>
        <time>2021-04-01T09:11:14.963Z</time>
      </trkpt>
      <trkpt lat="43.1028753" lon="-2.7509542">
        <ele>158.697</ele>
        <time>2021-04-01T09:11:15.015Z</time>
      </trkpt>
      <trkpt lat="43.1028782" lon="-2.7509553">
        <ele>158.735</ele>
        <time>2021-04-01T09:11:15.067Z</time>
      </trkpt>
      <trkpt lat="43.1028811" lon="-2.750957">
        <ele>158.797</ele>
        <time>2021-04-01T09:11:15.120Z</time>
      </trkpt>
      <trkpt lat="43.1028843" lon="-2.7509587">
        <ele>158.837</ele>
        <time>2021-04-01T09:11:15.172Z</time>
      </trkpt>
      <trkpt lat="43.1028874" lon="-2.7509607">
        <ele>158.82</ele>
        <time>2021-04-01T09:11:15.224Z</time>
      </trkpt>
      <trkpt lat="43.1028906" lon="-2.7509622">
        <ele>158.811</ele>
        <time>2021-04-01T09:11:15.276Z</time>
      </trkpt>
      <trkpt lat="43.1028937" lon="-2.7509636">
        <ele>158.814</ele>
        <time>2021-04-01T09:11:15.328Z</time>
      </trkpt>
      <trkpt lat="43.1028968" lon="-2.7509653">
        <ele>158.834</ele>
        <time>2021-04-01T09:11:15.380Z</time>
      </trkpt>
      <trkpt lat="43.1028998" lon="-2.7509667">
        <ele>158.821</ele>
        <time>2021-04-01T09:11:15.432Z</time>
      </trkpt>
      <trkpt lat="43.1029029" lon="-2.7509684">
        <ele>158.796</ele>
        <time>2021-04-01T09:11:15.484Z</time>
      </trkpt>
      <trkpt lat="43.1029059" lon="-2.75097">
        <ele>158.824</ele>
        <time>2021-04-01T09:11:15.536Z</time>
      </trkpt>
      <trkpt lat="43.1029088" lon="-2.7509713">
        <ele>158.846</ele>
        <time>2021-04-01T09:11:15.589Z</time>
      </trkpt>
      <trkpt lat="43.102912" lon="-2.7509729">
        <ele>158.838</ele>
        <time>2021-04-01T09:11:15.647Z</time>
      </trkpt>
      <trkpt lat="43.1029153" lon="-2.7509747">
        <ele>158.817</ele>
        <time>2021-04-01T09:11:15.705Z</time>
      </trkpt>
      <trkpt lat="43.1029184" lon="-2.7509765">
        <ele>158.795</ele>
        <time>2021-04-01T09:11:15.763Z</time>
      </trkpt>
      <trkpt lat="43.1029214" lon="-2.7509783">
        <ele>158.778</ele>
        <time>2021-04-01T09:11:15.821Z</time>
      </trkpt>
      <trkpt lat="43.1029242" lon="-2.7509798">
        <ele>158.771</ele>
        <time>2021-04-01T09:11:15.879Z</time>
      </trkpt>
      <trkpt lat="43.1029275" lon="-2.7509818">
        <ele>158.712</ele>
        <time>2021-04-01T09:11:15.937Z</time>
      </trkpt>
      <trkpt lat="43.1029307" lon="-2.7509836">
        <ele>158.713</ele>
        <time>2021-04-01T09:11:15.995Z</time>
      </trkpt>
      <trkpt lat="43.1029338" lon="-2.7509854">
        <ele>158.753</ele>
        <time>2021-04-01T09:11:16.053Z</time>
      </trkpt>
      <trkpt lat="43.1029369" lon="-2.7509871">
        <ele>158.76</ele>
        <time>2021-04-01T09:11:16.111Z</time>
      </trkpt>
      <trkpt lat="43.1029397" lon="-2.7509884">
        <ele>158.836</ele>
        <time>2021-04-01T09:11:16.169Z</time>
      </trkpt>
      <trkpt lat="43.1029428" lon="-2.7509903">
        <ele>158.834</ele>
        <time>2021-04-01T09:11:16.227Z</time>
      </trkpt>
      <trkpt lat="43.102946" lon="-2.750992">
        <ele>158.823</ele>
        <time>2021-04-01T09:11:16.285Z</time>
      </trkpt>
      <trkpt lat="43.1029489" lon="-2.7509935">
        <ele>158.832</ele>
        <time>2021-04-01T09:11:16.343Z</time>
      </trkpt>
      <trkpt lat="43.1029519" lon="-2.7509951">
        <ele>158.791</ele>
        <time>2021-04-01T09:11:16.401Z</time>
      </trkpt>
      <trkpt lat="43.102955" lon="-2.750997">
        <ele>158.776</ele>
        <time>2021-04-01T09:11:16.459Z</time>
      </trkpt>
      <trkpt lat="43.102958" lon="-2.7509989">
        <ele>158.74</ele>
        <time>2021-04-01T09:11:16.517Z</time>
      </trkpt>
      <trkpt lat="43.1029612" lon="-2.7510009">
        <ele>158.779</ele>
        <time>2021-04-01T09:11:16.575Z</time>
      </trkpt>
      <trkpt lat="43.1029645" lon="-2.7510027">
        <ele>158.783</ele>
        <time>2021-04-01T09:11:16.634Z</time>
      </trkpt>
      <trkpt lat="43.1029676" lon="-2.7510045">
        <ele>158.746</ele>
        <time>2021-04-01T09:11:16.689Z</time>
      </trkpt>
      <trkpt lat="43.1029705" lon="-2.7510066">
        <ele>158.748</ele>
        <time>2021-04-01T09:11:16.744Z</time>
      </trkpt>
      <trkpt lat="43.1029736" lon="-2.7510085">
        <ele>158.709</ele>
        <time>2021-04-01T09:11:16.799Z</time>
      </trkpt>
      <trkpt lat="43.1029764" lon="-2.7510101">
        <ele>158.725</ele>
        <time>2021-04-01T09:11:16.854Z</time>
      </trkpt>
      <trkpt lat="43.1029794" lon="-2.7510119">
        <ele>158.726</ele>
        <time>2021-04-01T09:11:16.909Z</time>
      </trkpt>
      <trkpt lat="43.1029823" lon="-2.7510134">
        <ele>158.769</ele>
        <time>2021-04-01T09:11:16.964Z</time>
      </trkpt>
      <trkpt lat="43.1029855" lon="-2.7510152">
        <ele>158.808</ele>
        <time>2021-04-01T09:11:17.019Z</time>
      </trkpt>
      <trkpt lat="43.1029887" lon="-2.7510172">
        <ele>158.772</ele>
        <time>2021-04-01T09:11:17.074Z</time>
      </trkpt>
      <trkpt lat="43.1029915" lon="-2.7510189">
        <ele>158.837</ele>
        <time>2021-04-01T09:11:17.129Z</time>
      </trkpt>
      <trkpt lat="43.1029945" lon="-2.7510208">
        <ele>158.85</ele>
        <time>2021-04-01T09:11:17.184Z</time>
      </trkpt>
      <trkpt lat="43.1029976" lon="-2.7510227">
        <ele>158.842</ele>
        <time>2021-04-01T09:11:17.239Z</time>
      </trkpt>
      <trkpt lat="43.1030007" lon="-2.7510248">
        <ele>158.869</ele>
        <time>2021-04-01T09:11:17.294Z</time>
      </trkpt>
      <trkpt lat="43.1030036" lon="-2.7510265">
        <ele>158.941</ele>
        <time>2021-04-01T09:11:17.349Z</time>
      </trkpt>
      <trkpt lat="43.1030066" lon="-2.751028">
        <ele>158.945</ele>
        <time>2021-04-01T09:11:17.404Z</time>
      </trkpt>
      <trkpt lat="43.1030096" lon="-2.7510299">
        <ele>158.951</ele>
        <time>2021-04-01T09:11:17.459Z</time>
      </trkpt>
      <trkpt lat="43.1030126" lon="-2.7510316">
        <ele>158.935</ele>
        <time>2021-04-01T09:11:17.514Z</time>
      </trkpt>
      <trkpt lat="43.1030157" lon="-2.7510335">
        <ele>158.934</ele>
        <time>2021-04-01T09:11:17.569Z</time>
      </trkpt>
      <trkpt lat="43.1030187" lon="-2.7510357">
        <ele>158.996</ele>
        <time>2021-04-01T09:11:17.624Z</time>
      </trkpt>
      <trkpt lat="43.1030217" lon="-2.7510374">
        <ele>159.031</ele>
        <time>2021-04-01T09:11:17.676Z</time>
      </trkpt>
      <trkpt lat="43.1030251" lon="-2.7510399">
        <ele>159.011</ele>
        <time>2021-04-01T09:11:17.728Z</time>
      </trkpt>
      <trkpt lat="43.1030283" lon="-2.7510424">
        <ele>158.929</ele>
        <time>2021-04-01T09:11:17.780Z</time>
      </trkpt>
      <trkpt lat="43.103031" lon="-2.7510443">
        <ele>158.91</ele>
        <time>2021-04-01T09:11:17.832Z</time>
      </trkpt>
      <trkpt lat="43.1030345" lon="-2.7510467">
        <ele>158.941</ele>
        <time>2021-04-01T09:11:17.884Z</time>
      </trkpt>
      <trkpt lat="43.1030378" lon="-2.7510493">
        <ele>158.901</ele>
        <time>2021-04-01T09:11:17.936Z</time>
      </trkpt>
      <trkpt lat="43.1030407" lon="-2.7510507">
        <ele>158.849</ele>
        <time>2021-04-01T09:11:17.988Z</time>
      </trkpt>
      <trkpt lat="43.1030437" lon="-2.7510526">
        <ele>158.878</ele>
        <time>2021-04-01T09:11:18.040Z</time>
      </trkpt>
      <trkpt lat="43.103047" lon="-2.7510546">
        <ele>158.834</ele>
        <time>2021-04-01T09:11:18.092Z</time>
      </trkpt>
      <trkpt lat="43.1030499" lon="-2.7510569">
        <ele>158.803</ele>
        <time>2021-04-01T09:11:18.145Z</time>
      </trkpt>
      <trkpt lat="43.1030529" lon="-2.7510587">
        <ele>158.837</ele>
        <time>2021-04-01T09:11:18.197Z</time>
      </trkpt>
      <trkpt lat="43.1030556" lon="-2.7510605">
        <ele>158.871</ele>
        <time>2021-04-01T09:11:18.249Z</time>
      </trkpt>
      <trkpt lat="43.1030584" lon="-2.7510624">
        <ele>158.864</ele>
        <time>2021-04-01T09:11:18.301Z</time>
      </trkpt>
      <trkpt lat="43.1030612" lon="-2.751064">
        <ele>158.874</ele>
        <time>2021-04-01T09:11:18.353Z</time>
      </trkpt>
      <trkpt lat="43.103064" lon="-2.7510657">
        <ele>158.887</ele>
        <time>2021-04-01T09:11:18.405Z</time>
      </trkpt>
      <trkpt lat="43.1030665" lon="-2.7510675">
        <ele>158.895</ele>
        <time>2021-04-01T09:11:18.457Z</time>
      </trkpt>
      <trkpt lat="43.1030689" lon="-2.7510694">
        <ele>158.908</ele>
        <time>2021-04-01T09:11:18.509Z</time>
      </trkpt>
      <trkpt lat="43.1030713" lon="-2.7510707">
        <ele>158.934</ele>
        <time>2021-04-01T09:11:18.561Z</time>
      </trkpt>
      <trkpt lat="43.1030739" lon="-2.7510727">
        <ele>158.929</ele>
        <time>2021-04-01T09:11:18.614Z</time>
      </trkpt>
      <trkpt lat="43.1030764" lon="-2.7510749">
        <ele>158.925</ele>
        <time>2021-04-01T09:11:18.672Z</time>
      </trkpt>
      <trkpt lat="43.1030791" lon="-2.7510772">
        <ele>158.925</ele>
        <time>2021-04-01T09:11:18.730Z</time>
      </trkpt>
      <trkpt lat="43.1030817" lon="-2.7510794">
        <ele>158.92</ele>
        <time>2021-04-01T09:11:18.788Z</time>
      </trkpt>
      <trkpt lat="43.1030844" lon="-2.7510818">
        <ele>158.905</ele>
        <time>2021-04-01T09:11:18.846Z</time>
      </trkpt>
      <trkpt lat="43.1030871" lon="-2.7510843">
        <ele>158.891</ele>
        <time>2021-04-01T09:11:18.905Z</time>
      </trkpt>
      <trkpt lat="43.1030898" lon="-2.7510869">
        <ele>158.877</ele>
        <time>2021-04-01T09:11:18.963Z</time>
      </trkpt>
      <trkpt lat="43.1030926" lon="-2.7510895">
        <ele>158.863</ele>
        <time>2021-04-01T09:11:19.021Z</time>
      </trkpt>
      <trkpt lat="43.1030953" lon="-2.7510921">
        <ele>158.847</ele>
        <time>2021-04-01T09:11:19.079Z</time>
      </trkpt>
      <trkpt lat="43.103098" lon="-2.7510948">
        <ele>158.838</ele>
        <time>2021-04-01T09:11:19.138Z</time>
      </trkpt>
      <trkpt lat="43.1031007" lon="-2.7510974">
        <ele>158.829</ele>
        <time>2021-04-01T09:11:19.196Z</time>
      </trkpt>
      <trkpt lat="43.1031034" lon="-2.7511003">
        <ele>158.822</ele>
        <time>2021-04-01T09:11:19.254Z</time>
      </trkpt>
      <trkpt lat="43.103106" lon="-2.751103">
        <ele>158.814</ele>
        <time>2021-04-01T09:11:19.312Z</time>
      </trkpt>
      <trkpt lat="43.1031085" lon="-2.7511059">
        <ele>158.807</ele>
        <time>2021-04-01T09:11:19.371Z</time>
      </trkpt>
      <trkpt lat="43.103111" lon="-2.7511087">
        <ele>158.806</ele>
        <time>2021-04-01T09:11:19.429Z</time>
      </trkpt>
      <trkpt lat="43.1031138" lon="-2.7511122">
        <ele>158.808</ele>
        <time>2021-04-01T09:11:19.487Z</time>
      </trkpt>
      <trkpt lat="43.1031163" lon="-2.7511152">
        <ele>158.804</ele>
        <time>2021-04-01T09:11:19.545Z</time>
      </trkpt>
      <trkpt lat="43.1031187" lon="-2.7511184">
        <ele>158.789</ele>
        <time>2021-04-01T09:11:19.604Z</time>
      </trkpt>
      <trkpt lat="43.103121" lon="-2.7511214">
        <ele>158.77</ele>
        <time>2021-04-01T09:11:19.656Z</time>
      </trkpt>
      <trkpt lat="43.1031241" lon="-2.7511235">
        <ele>158.778</ele>
        <time>2021-04-01T09:11:19.708Z</time>
      </trkpt>
      <trkpt lat="43.1031266" lon="-2.7511263">
        <ele>158.776</ele>
        <time>2021-04-01T09:11:19.760Z</time>
      </trkpt>
      <trkpt lat="43.103129" lon="-2.7511281">
        <ele>158.784</ele>
        <time>2021-04-01T09:11:19.812Z</time>
      </trkpt>
      <trkpt lat="43.1031312" lon="-2.7511294">
        <ele>158.804</ele>
        <time>2021-04-01T09:11:19.864Z</time>
      </trkpt>
      <trkpt lat="43.1031336" lon="-2.7511323">
        <ele>158.8</ele>
        <time>2021-04-01T09:11:19.916Z</time>
      </trkpt>
      <trkpt lat="43.1031365" lon="-2.7511348">
        <ele>158.795</ele>
        <time>2021-04-01T09:11:19.968Z</time>
      </trkpt>
      <trkpt lat="43.1031395" lon="-2.7511373">
        <ele>158.791</ele>
        <time>2021-04-01T09:11:20.020Z</time>
      </trkpt>
      <trkpt lat="43.1031431" lon="-2.7511414">
        <ele>158.751</ele>
        <time>2021-04-01T09:11:20.072Z</time>
      </trkpt>
      <trkpt lat="43.1031456" lon="-2.751144">
        <ele>158.751</ele>
        <time>2021-04-01T09:11:20.125Z</time>
      </trkpt>
      <trkpt lat="43.1031488" lon="-2.7511456">
        <ele>158.76</ele>
        <time>2021-04-01T09:11:20.177Z</time>
      </trkpt>
      <trkpt lat="43.1031521" lon="-2.7511472">
        <ele>158.77</ele>
        <time>2021-04-01T09:11:20.229Z</time>
      </trkpt>
      <trkpt lat="43.1031558" lon="-2.7511485">
        <ele>158.786</ele>
        <time>2021-04-01T09:11:20.281Z</time>
      </trkpt>
      <trkpt lat="43.1031596" lon="-2.7511494">
        <ele>158.805</ele>
        <time>2021-04-01T09:11:20.333Z</time>
      </trkpt>
      <trkpt lat="43.1031636" lon="-2.751151">
        <ele>158.812</ele>
        <time>2021-04-01T09:11:20.385Z</time>
      </trkpt>
      <trkpt lat="43.103168" lon="-2.751153">
        <ele>158.823</ele>
        <time>2021-04-01T09:11:20.437Z</time>
      </trkpt>
      <trkpt lat="43.1031723" lon="-2.7511553">
        <ele>158.816</ele>
        <time>2021-04-01T09:11:20.489Z</time>
      </trkpt>
      <trkpt lat="43.1031768" lon="-2.7511583">
        <ele>158.811</ele>
        <time>2021-04-01T09:11:20.541Z</time>
      </trkpt>
      <trkpt lat="43.1031805" lon="-2.7511604">
        <ele>158.845</ele>
        <time>2021-04-01T09:11:20.594Z</time>
      </trkpt>
      <trkpt lat="43.1031844" lon="-2.7511618">
        <ele>158.874</ele>
        <time>2021-04-01T09:11:20.652Z</time>
      </trkpt>
      <trkpt lat="43.1031882" lon="-2.7511632">
        <ele>158.903</ele>
        <time>2021-04-01T09:11:20.710Z</time>
      </trkpt>
      <trkpt lat="43.103192" lon="-2.7511645">
        <ele>158.933</ele>
        <time>2021-04-01T09:11:20.768Z</time>
      </trkpt>
      <trkpt lat="43.1031957" lon="-2.7511656">
        <ele>158.965</ele>
        <time>2021-04-01T09:11:20.826Z</time>
      </trkpt>
      <trkpt lat="43.1031992" lon="-2.7511664">
        <ele>159.002</ele>
        <time>2021-04-01T09:11:20.884Z</time>
      </trkpt>
      <trkpt lat="43.1032026" lon="-2.751167">
        <ele>159.039</ele>
        <time>2021-04-01T09:11:20.942Z</time>
      </trkpt>
      <trkpt lat="43.1032058" lon="-2.7511667">
        <ele>159.065</ele>
        <time>2021-04-01T09:11:21.000Z</time>
      </trkpt>
      <trkpt lat="43.1032086" lon="-2.751167">
        <ele>159.109</ele>
        <time>2021-04-01T09:11:21.058Z</time>
      </trkpt>
      <trkpt lat="43.1032115" lon="-2.7511673">
        <ele>159.152</ele>
        <time>2021-04-01T09:11:21.116Z</time>
      </trkpt>
      <trkpt lat="43.1032146" lon="-2.751169">
        <ele>159.18</ele>
        <time>2021-04-01T09:11:21.174Z</time>
      </trkpt>
      <trkpt lat="43.1032175" lon="-2.7511711">
        <ele>159.177</ele>
        <time>2021-04-01T09:11:21.232Z</time>
      </trkpt>
      <trkpt lat="43.1032204" lon="-2.7511742">
        <ele>159.177</ele>
        <time>2021-04-01T09:11:21.290Z</time>
      </trkpt>
      <trkpt lat="43.1032232" lon="-2.7511774">
        <ele>159.178</ele>
        <time>2021-04-01T09:11:21.348Z</time>
      </trkpt>
      <trkpt lat="43.1032238" lon="-2.7511796">
        <ele>159.16</ele>
        <time>2021-04-01T09:11:21.406Z</time>
      </trkpt>
      <trkpt lat="43.1032254" lon="-2.7511817">
        <ele>159.162</ele>
        <time>2021-04-01T09:11:21.464Z</time>
      </trkpt>
      <trkpt lat="43.1032265" lon="-2.7511826">
        <ele>159.175</ele>
        <time>2021-04-01T09:11:21.522Z</time>
      </trkpt>
      <trkpt lat="43.1032273" lon="-2.7511834">
        <ele>159.2</ele>
        <time>2021-04-01T09:11:21.580Z</time>
      </trkpt>
      <trkpt lat="43.103228" lon="-2.7511824">
        <ele>159.222</ele>
        <time>2021-04-01T09:11:21.639Z</time>
      </trkpt>
      <trkpt lat="43.1032296" lon="-2.751185">
        <ele>159.215</ele>
        <time>2021-04-01T09:11:21.694Z</time>
      </trkpt>
      <trkpt lat="43.1032311" lon="-2.7511876">
        <ele>159.208</ele>
        <time>2021-04-01T09:11:21.749Z</time>
      </trkpt>
      <trkpt lat="43.1032322" lon="-2.7511895">
        <ele>159.207</ele>
        <time>2021-04-01T09:11:21.804Z</time>
      </trkpt>
      <trkpt lat="43.1032332" lon="-2.7511904">
        <ele>159.217</ele>
        <time>2021-04-01T09:11:21.859Z</time>
      </trkpt>
      <trkpt lat="43.1032345" lon="-2.7511925">
        <ele>159.219</ele>
        <time>2021-04-01T09:11:21.914Z</time>
      </trkpt>
      <trkpt lat="43.1032359" lon="-2.7511949">
        <ele>159.211</ele>
        <time>2021-04-01T09:11:21.969Z</time>
      </trkpt>
      <trkpt lat="43.1032374" lon="-2.7511974">
        <ele>159.195</ele>
        <time>2021-04-01T09:11:22.024Z</time>
      </trkpt>
      <trkpt lat="43.103239" lon="-2.7512001">
        <ele>159.167</ele>
        <time>2021-04-01T09:11:22.079Z</time>
      </trkpt>
      <trkpt lat="43.1032405" lon="-2.7512026">
        <ele>159.149</ele>
        <time>2021-04-01T09:11:22.134Z</time>
      </trkpt>
      <trkpt lat="43.1032419" lon="-2.7512051">
        <ele>159.142</ele>
        <time>2021-04-01T09:11:22.189Z</time>
      </trkpt>
      <trkpt lat="43.1032436" lon="-2.7512077">
        <ele>159.135</ele>
        <time>2021-04-01T09:11:22.244Z</time>
      </trkpt>
      <trkpt lat="43.1032456" lon="-2.7512098">
        <ele>159.117</ele>
        <time>2021-04-01T09:11:22.299Z</time>
      </trkpt>
      <trkpt lat="43.1032473" lon="-2.7512117">
        <ele>159.103</ele>
        <time>2021-04-01T09:11:22.354Z</time>
      </trkpt>
      <trkpt lat="43.1032494" lon="-2.7512137">
        <ele>159.072</ele>
        <time>2021-04-01T09:11:22.409Z</time>
      </trkpt>
      <trkpt lat="43.1032518" lon="-2.751216">
        <ele>159.027</ele>
        <time>2021-04-01T09:11:22.464Z</time>
      </trkpt>
      <trkpt lat="43.103254" lon="-2.7512183">
        <ele>158.987</ele>
        <time>2021-04-01T09:11:22.519Z</time>
      </trkpt>
      <trkpt lat="43.1032562" lon="-2.7512204">
        <ele>158.949</ele>
        <time>2021-04-01T09:11:22.574Z</time>
      </trkpt>
      <trkpt lat="43.1032586" lon="-2.7512224">
        <ele>158.91</ele>
        <time>2021-04-01T09:11:22.629Z</time>
      </trkpt>
      <trkpt lat="43.1032609" lon="-2.7512251">
        <ele>158.857</ele>
        <time>2021-04-01T09:11:22.684Z</time>
      </trkpt>
      <trkpt lat="43.1032631" lon="-2.7512274">
        <ele>158.823</ele>
        <time>2021-04-01T09:11:22.739Z</time>
      </trkpt>
      <trkpt lat="43.1032679" lon="-2.7512284">
        <ele>158.71</ele>
        <time>2021-04-01T09:11:22.794Z</time>
      </trkpt>
      <trkpt lat="43.1032734" lon="-2.7512292">
        <ele>158.565</ele>
        <time>2021-04-01T09:11:22.849Z</time>
      </trkpt>
      <trkpt lat="43.1032768" lon="-2.7512311">
        <ele>158.516</ele>
        <time>2021-04-01T09:11:22.904Z</time>
      </trkpt>
      <trkpt lat="43.1032819" lon="-2.7512332">
        <ele>158.417</ele>
        <time>2021-04-01T09:11:22.959Z</time>
      </trkpt>
      <trkpt lat="43.1032872" lon="-2.7512346">
        <ele>158.292</ele>
        <time>2021-04-01T09:11:23.014Z</time>
      </trkpt>
      <trkpt lat="43.1032917" lon="-2.7512362">
        <ele>158.178</ele>
        <time>2021-04-01T09:11:23.069Z</time>
      </trkpt>
      <trkpt lat="43.1032956" lon="-2.7512377">
        <ele>158.042</ele>
        <time>2021-04-01T09:11:23.124Z</time>
      </trkpt>
      <trkpt lat="43.1032989" lon="-2.7512391">
        <ele>157.907</ele>
        <time>2021-04-01T09:11:23.179Z</time>
      </trkpt>
      <trkpt lat="43.1033019" lon="-2.7512401">
        <ele>157.82</ele>
        <time>2021-04-01T09:11:23.234Z</time>
      </trkpt>
      <trkpt lat="43.1033051" lon="-2.7512406">
        <ele>157.766</ele>
        <time>2021-04-01T09:11:23.289Z</time>
      </trkpt>
      <trkpt lat="43.1033091" lon="-2.7512396">
        <ele>157.743</ele>
        <time>2021-04-01T09:11:23.344Z</time>
      </trkpt>
      <trkpt lat="43.1033124" lon="-2.7512399">
        <ele>157.689</ele>
        <time>2021-04-01T09:11:23.399Z</time>
      </trkpt>
      <trkpt lat="43.1033172" lon="-2.7512387">
        <ele>157.659</ele>
        <time>2021-04-01T09:11:23.454Z</time>
      </trkpt>
      <trkpt lat="43.1033207" lon="-2.751239">
        <ele>157.581</ele>
        <time>2021-04-01T09:11:23.509Z</time>
      </trkpt>
      <trkpt lat="43.1033235" lon="-2.7512407">
        <ele>157.475</ele>
        <time>2021-04-01T09:11:23.564Z</time>
      </trkpt>
      <trkpt lat="43.1033265" lon="-2.7512408">
        <ele>157.378</ele>
        <time>2021-04-01T09:11:23.619Z</time>
      </trkpt>
      <trkpt lat="43.1033295" lon="-2.7512404">
        <ele>157.278</ele>
        <time>2021-04-01T09:11:23.671Z</time>
      </trkpt>
      <trkpt lat="43.1033318" lon="-2.7512432">
        <ele>157.184</ele>
        <time>2021-04-01T09:11:23.723Z</time>
      </trkpt>
      <trkpt lat="43.103335" lon="-2.7512448">
        <ele>157.099</ele>
        <time>2021-04-01T09:11:23.775Z</time>
      </trkpt>
      <trkpt lat="43.1033381" lon="-2.7512459">
        <ele>157.003</ele>
        <time>2021-04-01T09:11:23.827Z</time>
      </trkpt>
      <trkpt lat="43.1033414" lon="-2.7512477">
        <ele>156.999</ele>
        <time>2021-04-01T09:11:23.879Z</time>
      </trkpt>
      <trkpt lat="43.103345" lon="-2.7512497">
        <ele>156.994</ele>
        <time>2021-04-01T09:11:23.931Z</time>
      </trkpt>
      <trkpt lat="43.1033485" lon="-2.7512523">
        <ele>156.936</ele>
        <time>2021-04-01T09:11:23.983Z</time>
      </trkpt>
      <trkpt lat="43.1033522" lon="-2.7512551">
        <ele>156.917</ele>
        <time>2021-04-01T09:11:24.035Z</time>
      </trkpt>
      <trkpt lat="43.1033555" lon="-2.7512589">
        <ele>156.845</ele>
        <time>2021-04-01T09:11:24.087Z</time>
      </trkpt>
      <trkpt lat="43.1033595" lon="-2.7512617">
        <ele>156.801</ele>
        <time>2021-04-01T09:11:24.140Z</time>
      </trkpt>
      <trkpt lat="43.1033623" lon="-2.7512653">
        <ele>156.715</ele>
        <time>2021-04-01T09:11:24.192Z</time>
      </trkpt>
      <trkpt lat="43.1033655" lon="-2.7512684">
        <ele>156.615</ele>
        <time>2021-04-01T09:11:24.244Z</time>
      </trkpt>
      <trkpt lat="43.1033695" lon="-2.7512706">
        <ele>156.525</ele>
        <time>2021-04-01T09:11:24.296Z</time>
      </trkpt>
      <trkpt lat="43.1033743" lon="-2.7512732">
        <ele>156.468</ele>
        <time>2021-04-01T09:11:24.348Z</time>
      </trkpt>
      <trkpt lat="43.103378" lon="-2.7512767">
        <ele>156.363</ele>
        <time>2021-04-01T09:11:24.400Z</time>
      </trkpt>
      <trkpt lat="43.1033814" lon="-2.7512816">
        <ele>156.258</ele>
        <time>2021-04-01T09:11:24.452Z</time>
      </trkpt>
      <trkpt lat="43.103385" lon="-2.7512866">
        <ele>156.15</ele>
        <time>2021-04-01T09:11:24.504Z</time>
      </trkpt>
      <trkpt lat="43.1033888" lon="-2.7512894">
        <ele>156.056</ele>
        <time>2021-04-01T09:11:24.556Z</time>
      </trkpt>
      <trkpt lat="43.1033923" lon="-2.7512924">
        <ele>155.977</ele>
        <time>2021-04-01T09:11:24.609Z</time>
      </trkpt>
      <trkpt lat="43.1033955" lon="-2.7512997">
        <ele>155.89</ele>
        <time>2021-04-01T09:11:24.664Z</time>
      </trkpt>
      <trkpt lat="43.1033992" lon="-2.751305">
        <ele>155.798</ele>
        <time>2021-04-01T09:11:24.719Z</time>
      </trkpt>
      <trkpt lat="43.103403" lon="-2.7513093">
        <ele>155.734</ele>
        <time>2021-04-01T09:11:24.774Z</time>
      </trkpt>
      <trkpt lat="43.1034068" lon="-2.7513131">
        <ele>155.698</ele>
        <time>2021-04-01T09:11:24.829Z</time>
      </trkpt>
      <trkpt lat="43.1034104" lon="-2.7513154">
        <ele>155.632</ele>
        <time>2021-04-01T09:11:24.884Z</time>
      </trkpt>
      <trkpt lat="43.1034143" lon="-2.7513194">
        <ele>155.597</ele>
        <time>2021-04-01T09:11:24.939Z</time>
      </trkpt>
      <trkpt lat="43.103418" lon="-2.7513233">
        <ele>155.521</ele>
        <time>2021-04-01T09:11:24.994Z</time>
      </trkpt>
      <trkpt lat="43.1034219" lon="-2.7513273">
        <ele>155.551</ele>
        <time>2021-04-01T09:11:25.049Z</time>
      </trkpt>
      <trkpt lat="43.1034256" lon="-2.7513306">
        <ele>155.529</ele>
        <time>2021-04-01T09:11:25.104Z</time>
      </trkpt>
      <trkpt lat="43.1034294" lon="-2.7513343">
        <ele>155.472</ele>
        <time>2021-04-01T09:11:25.159Z</time>
      </trkpt>
      <trkpt lat="43.1034331" lon="-2.7513383">
        <ele>155.431</ele>
        <time>2021-04-01T09:11:25.214Z</time>
      </trkpt>
      <trkpt lat="43.1034369" lon="-2.7513422">
        <ele>155.354</ele>
        <time>2021-04-01T09:11:25.269Z</time>
      </trkpt>
      <trkpt lat="43.1034405" lon="-2.7513459">
        <ele>155.282</ele>
        <time>2021-04-01T09:11:25.324Z</time>
      </trkpt>
      <trkpt lat="43.1034442" lon="-2.7513496">
        <ele>155.284</ele>
        <time>2021-04-01T09:11:25.379Z</time>
      </trkpt>
      <trkpt lat="43.1034481" lon="-2.7513536">
        <ele>155.179</ele>
        <time>2021-04-01T09:11:25.434Z</time>
      </trkpt>
      <trkpt lat="43.103452" lon="-2.7513578">
        <ele>155.075</ele>
        <time>2021-04-01T09:11:25.489Z</time>
      </trkpt>
      <trkpt lat="43.1034562" lon="-2.7513618">
        <ele>154.993</ele>
        <time>2021-04-01T09:11:25.544Z</time>
      </trkpt>
      <trkpt lat="43.10346" lon="-2.7513657">
        <ele>154.908</ele>
        <time>2021-04-01T09:11:25.599Z</time>
      </trkpt>
      <trkpt lat="43.1034638" lon="-2.7513694">
        <ele>154.807</ele>
        <time>2021-04-01T09:11:25.657Z</time>
      </trkpt>
      <trkpt lat="43.1034677" lon="-2.7513743">
        <ele>154.619</ele>
        <time>2021-04-01T09:11:25.715Z</time>
      </trkpt>
      <trkpt lat="43.103471" lon="-2.7513788">
        <ele>154.465</ele>
        <time>2021-04-01T09:11:25.773Z</time>
      </trkpt>
      <trkpt lat="43.1034745" lon="-2.7513834">
        <ele>154.323</ele>
        <time>2021-04-01T09:11:25.831Z</time>
      </trkpt>
      <trkpt lat="43.1034774" lon="-2.7513872">
        <ele>154.24</ele>
        <time>2021-04-01T09:11:25.889Z</time>
      </trkpt>
      <trkpt lat="43.1034809" lon="-2.7513917">
        <ele>154.135</ele>
        <time>2021-04-01T09:11:25.947Z</time>
      </trkpt>
      <trkpt lat="43.1034849" lon="-2.7513967">
        <ele>154.038</ele>
        <time>2021-04-01T09:11:26.005Z</time>
      </trkpt>
      <trkpt lat="43.1034886" lon="-2.7514015">
        <ele>153.973</ele>
        <time>2021-04-01T09:11:26.063Z</time>
      </trkpt>
      <trkpt lat="43.1034921" lon="-2.7514051">
        <ele>153.932</ele>
        <time>2021-04-01T09:11:26.121Z</time>
      </trkpt>
      <trkpt lat="43.1034961" lon="-2.7514093">
        <ele>153.911</ele>
        <time>2021-04-01T09:11:26.179Z</time>
      </trkpt>
      <trkpt lat="43.1035" lon="-2.7514133">
        <ele>153.877</ele>
        <time>2021-04-01T09:11:26.237Z</time>
      </trkpt>
      <trkpt lat="43.103505" lon="-2.7514183">
        <ele>153.877</ele>
        <time>2021-04-01T09:11:26.295Z</time>
      </trkpt>
      <trkpt lat="43.1035094" lon="-2.7514233">
        <ele>153.766</ele>
        <time>2021-04-01T09:11:26.353Z</time>
      </trkpt>
      <trkpt lat="43.1035138" lon="-2.7514268">
        <ele>153.861</ele>
        <time>2021-04-01T09:11:26.411Z</time>
      </trkpt>
      <trkpt lat="43.1035184" lon="-2.751431">
        <ele>153.877</ele>
        <time>2021-04-01T09:11:26.469Z</time>
      </trkpt>
      <trkpt lat="43.1035227" lon="-2.7514357">
        <ele>153.806</ele>
        <time>2021-04-01T09:11:26.527Z</time>
      </trkpt>
      <trkpt lat="43.103527" lon="-2.7514398">
        <ele>153.769</ele>
        <time>2021-04-01T09:11:26.585Z</time>
      </trkpt>
      <trkpt lat="43.1035308" lon="-2.7514435">
        <ele>153.743</ele>
        <time>2021-04-01T09:11:26.644Z</time>
      </trkpt>
      <trkpt lat="43.1035348" lon="-2.7514465">
        <ele>153.762</ele>
        <time>2021-04-01T09:11:26.699Z</time>
      </trkpt>
      <trkpt lat="43.1035389" lon="-2.7514492">
        <ele>153.816</ele>
        <time>2021-04-01T09:11:26.754Z</time>
      </trkpt>
      <trkpt lat="43.1035432" lon="-2.751453">
        <ele>153.852</ele>
        <time>2021-04-01T09:11:26.809Z</time>
      </trkpt>
      <trkpt lat="43.1035472" lon="-2.7514565">
        <ele>153.77</ele>
        <time>2021-04-01T09:11:26.864Z</time>
      </trkpt>
      <trkpt lat="43.1035507" lon="-2.7514597">
        <ele>153.81</ele>
        <time>2021-04-01T09:11:26.919Z</time>
      </trkpt>
      <trkpt lat="43.1035544" lon="-2.7514635">
        <ele>153.6</ele>
        <time>2021-04-01T09:11:26.974Z</time>
      </trkpt>
      <trkpt lat="43.1035582" lon="-2.7514669">
        <ele>153.505</ele>
        <time>2021-04-01T09:11:27.029Z</time>
      </trkpt>
      <trkpt lat="43.1035628" lon="-2.7514706">
        <ele>153.571</ele>
        <time>2021-04-01T09:11:27.084Z</time>
      </trkpt>
      <trkpt lat="43.1035671" lon="-2.751474">
        <ele>153.524</ele>
        <time>2021-04-01T09:11:27.139Z</time>
      </trkpt>
      <trkpt lat="43.1035709" lon="-2.7514769">
        <ele>153.423</ele>
        <time>2021-04-01T09:11:27.194Z</time>
      </trkpt>
      <trkpt lat="43.1035751" lon="-2.75148">
        <ele>153.381</ele>
        <time>2021-04-01T09:11:27.249Z</time>
      </trkpt>
      <trkpt lat="43.1035791" lon="-2.7514828">
        <ele>153.39</ele>
        <time>2021-04-01T09:11:27.304Z</time>
      </trkpt>
      <trkpt lat="43.1035829" lon="-2.7514855">
        <ele>153.345</ele>
        <time>2021-04-01T09:11:27.359Z</time>
      </trkpt>
      <trkpt lat="43.1035868" lon="-2.7514881">
        <ele>153.389</ele>
        <time>2021-04-01T09:11:27.414Z</time>
      </trkpt>
      <trkpt lat="43.1035908" lon="-2.751491">
        <ele>153.525</ele>
        <time>2021-04-01T09:11:27.469Z</time>
      </trkpt>
      <trkpt lat="43.1035943" lon="-2.7514935">
        <ele>153.461</ele>
        <time>2021-04-01T09:11:27.524Z</time>
      </trkpt>
      <trkpt lat="43.1035978" lon="-2.751497">
        <ele>153.547</ele>
        <time>2021-04-01T09:11:27.579Z</time>
      </trkpt>
      <trkpt lat="43.103601" lon="-2.7515">
        <ele>153.474</ele>
        <time>2021-04-01T09:11:27.634Z</time>
      </trkpt>
      <trkpt lat="43.1036042" lon="-2.751503">
        <ele>153.462</ele>
        <time>2021-04-01T09:11:27.689Z</time>
      </trkpt>
      <trkpt lat="43.1036076" lon="-2.7515062">
        <ele>153.453</ele>
        <time>2021-04-01T09:11:27.744Z</time>
      </trkpt>
      <trkpt lat="43.1036112" lon="-2.7515094">
        <ele>153.477</ele>
        <time>2021-04-01T09:11:27.799Z</time>
      </trkpt>
      <trkpt lat="43.1036148" lon="-2.7515124">
        <ele>153.46</ele>
        <time>2021-04-01T09:11:27.854Z</time>
      </trkpt>
      <trkpt lat="43.103618" lon="-2.7515155">
        <ele>153.441</ele>
        <time>2021-04-01T09:11:27.909Z</time>
      </trkpt>
      <trkpt lat="43.1036214" lon="-2.7515185">
        <ele>153.404</ele>
        <time>2021-04-01T09:11:27.964Z</time>
      </trkpt>
      <trkpt lat="43.1036248" lon="-2.7515208">
        <ele>153.423</ele>
        <time>2021-04-01T09:11:28.019Z</time>
      </trkpt>
      <trkpt lat="43.1036285" lon="-2.751524">
        <ele>153.381</ele>
        <time>2021-04-01T09:11:28.074Z</time>
      </trkpt>
      <trkpt lat="43.1036326" lon="-2.7515286">
        <ele>153.264</ele>
        <time>2021-04-01T09:11:28.129Z</time>
      </trkpt>
      <trkpt lat="43.1036366" lon="-2.7515327">
        <ele>153.192</ele>
        <time>2021-04-01T09:11:28.184Z</time>
      </trkpt>
      <trkpt lat="43.1036401" lon="-2.7515362">
        <ele>153.132</ele>
        <time>2021-04-01T09:11:28.239Z</time>
      </trkpt>
      <trkpt lat="43.1036439" lon="-2.7515397">
        <ele>153.051</ele>
        <time>2021-04-01T09:11:28.294Z</time>
      </trkpt>
      <trkpt lat="43.1036472" lon="-2.7515428">
        <ele>152.979</ele>
        <time>2021-04-01T09:11:28.349Z</time>
      </trkpt>
      <trkpt lat="43.1036506" lon="-2.7515452">
        <ele>152.851</ele>
        <time>2021-04-01T09:11:28.404Z</time>
      </trkpt>
      <trkpt lat="43.1036533" lon="-2.7515483">
        <ele>152.602</ele>
        <time>2021-04-01T09:11:28.459Z</time>
      </trkpt>
      <trkpt lat="43.1036568" lon="-2.7515514">
        <ele>152.509</ele>
        <time>2021-04-01T09:11:28.514Z</time>
      </trkpt>
      <trkpt lat="43.1036604" lon="-2.751554">
        <ele>152.479</ele>
        <time>2021-04-01T09:11:28.569Z</time>
      </trkpt>
      <trkpt lat="43.1036635" lon="-2.7515567">
        <ele>152.421</ele>
        <time>2021-04-01T09:11:28.624Z</time>
      </trkpt>
      <trkpt lat="43.1036665" lon="-2.7515601">
        <ele>152.393</ele>
        <time>2021-04-01T09:11:28.679Z</time>
      </trkpt>
      <trkpt lat="43.1036696" lon="-2.7515632">
        <ele>152.343</ele>
        <time>2021-04-01T09:11:28.734Z</time>
      </trkpt>
      <trkpt lat="43.1036724" lon="-2.7515663">
        <ele>152.361</ele>
        <time>2021-04-01T09:11:28.789Z</time>
      </trkpt>
      <trkpt lat="43.1036754" lon="-2.7515692">
        <ele>152.342</ele>
        <time>2021-04-01T09:11:28.844Z</time>
      </trkpt>
      <trkpt lat="43.1036785" lon="-2.7515722">
        <ele>152.366</ele>
        <time>2021-04-01T09:11:28.899Z</time>
      </trkpt>
      <trkpt lat="43.1036813" lon="-2.751575">
        <ele>152.354</ele>
        <time>2021-04-01T09:11:28.954Z</time>
      </trkpt>
      <trkpt lat="43.1036845" lon="-2.7515778">
        <ele>152.364</ele>
        <time>2021-04-01T09:11:29.009Z</time>
      </trkpt>
      <trkpt lat="43.1036884" lon="-2.7515805">
        <ele>152.387</ele>
        <time>2021-04-01T09:11:29.064Z</time>
      </trkpt>
      <trkpt lat="43.1036922" lon="-2.751583">
        <ele>152.409</ele>
        <time>2021-04-01T09:11:29.119Z</time>
      </trkpt>
      <trkpt lat="43.1036959" lon="-2.7515863">
        <ele>152.507</ele>
        <time>2021-04-01T09:11:29.174Z</time>
      </trkpt>
      <trkpt lat="43.1036994" lon="-2.7515893">
        <ele>152.55</ele>
        <time>2021-04-01T09:11:29.229Z</time>
      </trkpt>
      <trkpt lat="43.1037027" lon="-2.7515923">
        <ele>152.585</ele>
        <time>2021-04-01T09:11:29.284Z</time>
      </trkpt>
      <trkpt lat="43.1037056" lon="-2.7515958">
        <ele>152.638</ele>
        <time>2021-04-01T09:11:29.339Z</time>
      </trkpt>
      <trkpt lat="43.1037082" lon="-2.7515993">
        <ele>152.683</ele>
        <time>2021-04-01T09:11:29.394Z</time>
      </trkpt>
      <trkpt lat="43.103711" lon="-2.7516034">
        <ele>152.763</ele>
        <time>2021-04-01T09:11:29.449Z</time>
      </trkpt>
      <trkpt lat="43.1037141" lon="-2.7516071">
        <ele>152.82</ele>
        <time>2021-04-01T09:11:29.504Z</time>
      </trkpt>
      <trkpt lat="43.1037173" lon="-2.7516106">
        <ele>152.835</ele>
        <time>2021-04-01T09:11:29.559Z</time>
      </trkpt>
      <trkpt lat="43.1037207" lon="-2.751614">
        <ele>152.809</ele>
        <time>2021-04-01T09:11:29.614Z</time>
      </trkpt>
      <trkpt lat="43.1037242" lon="-2.7516188">
        <ele>152.996</ele>
        <time>2021-04-01T09:11:29.669Z</time>
      </trkpt>
      <trkpt lat="43.1037276" lon="-2.7516239">
        <ele>153.176</ele>
        <time>2021-04-01T09:11:29.724Z</time>
      </trkpt>
      <trkpt lat="43.1037308" lon="-2.7516281">
        <ele>153.277</ele>
        <time>2021-04-01T09:11:29.779Z</time>
      </trkpt>
      <trkpt lat="43.1037334" lon="-2.7516314">
        <ele>153.291</ele>
        <time>2021-04-01T09:11:29.834Z</time>
      </trkpt>
      <trkpt lat="43.1037358" lon="-2.7516365">
        <ele>153.343</ele>
        <time>2021-04-01T09:11:29.889Z</time>
      </trkpt>
      <trkpt lat="43.1037384" lon="-2.7516402">
        <ele>153.319</ele>
        <time>2021-04-01T09:11:29.944Z</time>
      </trkpt>
      <trkpt lat="43.1037412" lon="-2.7516436">
        <ele>153.309</ele>
        <time>2021-04-01T09:11:29.999Z</time>
      </trkpt>
      <trkpt lat="43.1037437" lon="-2.7516471">
        <ele>153.297</ele>
        <time>2021-04-01T09:11:30.054Z</time>
      </trkpt>
      <trkpt lat="43.1037465" lon="-2.7516508">
        <ele>153.3</ele>
        <time>2021-04-01T09:11:30.109Z</time>
      </trkpt>
      <trkpt lat="43.1037493" lon="-2.7516544">
        <ele>153.284</ele>
        <time>2021-04-01T09:11:30.164Z</time>
      </trkpt>
      <trkpt lat="43.1037523" lon="-2.7516583">
        <ele>153.346</ele>
        <time>2021-04-01T09:11:30.219Z</time>
      </trkpt>
      <trkpt lat="43.103755" lon="-2.7516629">
        <ele>153.41</ele>
        <time>2021-04-01T09:11:30.274Z</time>
      </trkpt>
      <trkpt lat="43.1037585" lon="-2.7516668">
        <ele>153.367</ele>
        <time>2021-04-01T09:11:30.329Z</time>
      </trkpt>
      <trkpt lat="43.1037616" lon="-2.7516707">
        <ele>153.428</ele>
        <time>2021-04-01T09:11:30.384Z</time>
      </trkpt>
      <trkpt lat="43.1037646" lon="-2.7516742">
        <ele>153.441</ele>
        <time>2021-04-01T09:11:30.439Z</time>
      </trkpt>
      <trkpt lat="43.1037673" lon="-2.7516775">
        <ele>153.468</ele>
        <time>2021-04-01T09:11:30.494Z</time>
      </trkpt>
      <trkpt lat="43.1037704" lon="-2.7516815">
        <ele>153.451</ele>
        <time>2021-04-01T09:11:30.549Z</time>
      </trkpt>
      <trkpt lat="43.1037735" lon="-2.7516849">
        <ele>153.445</ele>
        <time>2021-04-01T09:11:30.604Z</time>
      </trkpt>
      <trkpt lat="43.1037766" lon="-2.7516882">
        <ele>153.464</ele>
        <time>2021-04-01T09:11:30.659Z</time>
      </trkpt>
      <trkpt lat="43.1037795" lon="-2.7516917">
        <ele>153.466</ele>
        <time>2021-04-01T09:11:30.714Z</time>
      </trkpt>
      <trkpt lat="43.1037826" lon="-2.7516947">
        <ele>153.394</ele>
        <time>2021-04-01T09:11:30.769Z</time>
      </trkpt>
      <trkpt lat="43.1037846" lon="-2.7516993">
        <ele>153.411</ele>
        <time>2021-04-01T09:11:30.824Z</time>
      </trkpt>
      <trkpt lat="43.103787" lon="-2.7517036">
        <ele>153.389</ele>
        <time>2021-04-01T09:11:30.879Z</time>
      </trkpt>
      <trkpt lat="43.10379" lon="-2.7517078">
        <ele>153.377</ele>
        <time>2021-04-01T09:11:30.934Z</time>
      </trkpt>
      <trkpt lat="43.1037929" lon="-2.7517119">
        <ele>153.356</ele>
        <time>2021-04-01T09:11:30.989Z</time>
      </trkpt>
      <trkpt lat="43.1037953" lon="-2.751716">
        <ele>153.283</ele>
        <time>2021-04-01T09:11:31.044Z</time>
      </trkpt>
      <trkpt lat="43.1037974" lon="-2.7517203">
        <ele>153.206</ele>
        <time>2021-04-01T09:11:31.099Z</time>
      </trkpt>
      <trkpt lat="43.1038002" lon="-2.7517248">
        <ele>153.202</ele>
        <time>2021-04-01T09:11:31.154Z</time>
      </trkpt>
      <trkpt lat="43.1038029" lon="-2.7517296">
        <ele>153.18</ele>
        <time>2021-04-01T09:11:31.209Z</time>
      </trkpt>
      <trkpt lat="43.1038054" lon="-2.7517329">
        <ele>153.415</ele>
        <time>2021-04-01T09:11:31.264Z</time>
      </trkpt>
      <trkpt lat="43.1038076" lon="-2.7517372">
        <ele>153.606</ele>
        <time>2021-04-01T09:11:31.319Z</time>
      </trkpt>
      <trkpt lat="43.1038101" lon="-2.7517406">
        <ele>153.747</ele>
        <time>2021-04-01T09:11:31.374Z</time>
      </trkpt>
      <trkpt lat="43.1038127" lon="-2.7517448">
        <ele>154.007</ele>
        <time>2021-04-01T09:11:31.429Z</time>
      </trkpt>
      <trkpt lat="43.1038148" lon="-2.7517488">
        <ele>154.049</ele>
        <time>2021-04-01T09:11:31.484Z</time>
      </trkpt>
      <trkpt lat="43.103817" lon="-2.7517529">
        <ele>154.168</ele>
        <time>2021-04-01T09:11:31.539Z</time>
      </trkpt>
      <trkpt lat="43.1038193" lon="-2.7517571">
        <ele>154.253</ele>
        <time>2021-04-01T09:11:31.594Z</time>
      </trkpt>
      <trkpt lat="43.1038212" lon="-2.7517606">
        <ele>154.185</ele>
        <time>2021-04-01T09:11:31.649Z</time>
      </trkpt>
      <trkpt lat="43.103823" lon="-2.7517645">
        <ele>154.151</ele>
        <time>2021-04-01T09:11:31.704Z</time>
      </trkpt>
      <trkpt lat="43.1038254" lon="-2.7517688">
        <ele>154.24</ele>
        <time>2021-04-01T09:11:31.759Z</time>
      </trkpt>
      <trkpt lat="43.1038277" lon="-2.7517727">
        <ele>154.395</ele>
        <time>2021-04-01T09:11:31.814Z</time>
      </trkpt>
      <trkpt lat="43.1038301" lon="-2.7517769">
        <ele>154.551</ele>
        <time>2021-04-01T09:11:31.869Z</time>
      </trkpt>
      <trkpt lat="43.1038322" lon="-2.7517815">
        <ele>154.653</ele>
        <time>2021-04-01T09:11:31.924Z</time>
      </trkpt>
      <trkpt lat="43.1038341" lon="-2.7517849">
        <ele>154.607</ele>
        <time>2021-04-01T09:11:31.979Z</time>
      </trkpt>
      <trkpt lat="43.1038362" lon="-2.7517888">
        <ele>154.597</ele>
        <time>2021-04-01T09:11:32.034Z</time>
      </trkpt>
      <trkpt lat="43.1038386" lon="-2.7517931">
        <ele>154.729</ele>
        <time>2021-04-01T09:11:32.089Z</time>
      </trkpt>
      <trkpt lat="43.1038412" lon="-2.7517982">
        <ele>154.917</ele>
        <time>2021-04-01T09:11:32.144Z</time>
      </trkpt>
      <trkpt lat="43.1038437" lon="-2.7518029">
        <ele>155.03</ele>
        <time>2021-04-01T09:11:32.199Z</time>
      </trkpt>
      <trkpt lat="43.1038457" lon="-2.7518076">
        <ele>155.052</ele>
        <time>2021-04-01T09:11:32.254Z</time>
      </trkpt>
      <trkpt lat="43.103848" lon="-2.7518118">
        <ele>155.098</ele>
        <time>2021-04-01T09:11:32.309Z</time>
      </trkpt>
      <trkpt lat="43.1038504" lon="-2.7518168">
        <ele>155.154</ele>
        <time>2021-04-01T09:11:32.364Z</time>
      </trkpt>
      <trkpt lat="43.1038527" lon="-2.7518216">
        <ele>155.205</ele>
        <time>2021-04-01T09:11:32.419Z</time>
      </trkpt>
      <trkpt lat="43.1038551" lon="-2.7518261">
        <ele>155.205</ele>
        <time>2021-04-01T09:11:32.474Z</time>
      </trkpt>
      <trkpt lat="43.1038577" lon="-2.7518308">
        <ele>155.244</ele>
        <time>2021-04-01T09:11:32.529Z</time>
      </trkpt>
      <trkpt lat="43.1038598" lon="-2.7518353">
        <ele>155.183</ele>
        <time>2021-04-01T09:11:32.584Z</time>
      </trkpt>
      <trkpt lat="43.1038619" lon="-2.7518404">
        <ele>155.174</ele>
        <time>2021-04-01T09:11:32.639Z</time>
      </trkpt>
      <trkpt lat="43.1038644" lon="-2.7518458">
        <ele>155.239</ele>
        <time>2021-04-01T09:11:32.694Z</time>
      </trkpt>
      <trkpt lat="43.1038668" lon="-2.7518507">
        <ele>155.256</ele>
        <time>2021-04-01T09:11:32.749Z</time>
      </trkpt>
      <trkpt lat="43.1038691" lon="-2.7518554">
        <ele>155.272</ele>
        <time>2021-04-01T09:11:32.804Z</time>
      </trkpt>
      <trkpt lat="43.1038712" lon="-2.7518606">
        <ele>155.261</ele>
        <time>2021-04-01T09:11:32.859Z</time>
      </trkpt>
      <trkpt lat="43.103873" lon="-2.7518651">
        <ele>155.131</ele>
        <time>2021-04-01T09:11:32.914Z</time>
      </trkpt>
      <trkpt lat="43.103876" lon="-2.7518699">
        <ele>155.263</ele>
        <time>2021-04-01T09:11:32.969Z</time>
      </trkpt>
      <trkpt lat="43.1038786" lon="-2.7518757">
        <ele>155.381</ele>
        <time>2021-04-01T09:11:33.024Z</time>
      </trkpt>
      <trkpt lat="43.1038808" lon="-2.7518809">
        <ele>155.346</ele>
        <time>2021-04-01T09:11:33.079Z</time>
      </trkpt>
      <trkpt lat="43.1038832" lon="-2.7518864">
        <ele>155.421</ele>
        <time>2021-04-01T09:11:33.134Z</time>
      </trkpt>
      <trkpt lat="43.1038854" lon="-2.7518917">
        <ele>155.439</ele>
        <time>2021-04-01T09:11:33.189Z</time>
      </trkpt>
      <trkpt lat="43.1038874" lon="-2.7518972">
        <ele>155.5</ele>
        <time>2021-04-01T09:11:33.244Z</time>
      </trkpt>
      <trkpt lat="43.1038895" lon="-2.7519026">
        <ele>155.559</ele>
        <time>2021-04-01T09:11:33.299Z</time>
      </trkpt>
      <trkpt lat="43.1038915" lon="-2.7519084">
        <ele>155.643</ele>
        <time>2021-04-01T09:11:33.354Z</time>
      </trkpt>
      <trkpt lat="43.1038935" lon="-2.7519138">
        <ele>155.676</ele>
        <time>2021-04-01T09:11:33.409Z</time>
      </trkpt>
      <trkpt lat="43.1038956" lon="-2.7519191">
        <ele>155.657</ele>
        <time>2021-04-01T09:11:33.464Z</time>
      </trkpt>
      <trkpt lat="43.1038979" lon="-2.7519248">
        <ele>155.631</ele>
        <time>2021-04-01T09:11:33.519Z</time>
      </trkpt>
      <trkpt lat="43.1038998" lon="-2.7519303">
        <ele>155.576</ele>
        <time>2021-04-01T09:11:33.574Z</time>
      </trkpt>
      <trkpt lat="43.1039019" lon="-2.7519362">
        <ele>155.551</ele>
        <time>2021-04-01T09:11:33.629Z</time>
      </trkpt>
      <trkpt lat="43.1039039" lon="-2.7519423">
        <ele>155.589</ele>
        <time>2021-04-01T09:11:33.684Z</time>
      </trkpt>
      <trkpt lat="43.1039057" lon="-2.7519476">
        <ele>155.55</ele>
        <time>2021-04-01T09:11:33.739Z</time>
      </trkpt>
      <trkpt lat="43.1039072" lon="-2.7519526">
        <ele>155.519</ele>
        <time>2021-04-01T09:11:33.794Z</time>
      </trkpt>
      <trkpt lat="43.1039093" lon="-2.7519582">
        <ele>155.484</ele>
        <time>2021-04-01T09:11:33.849Z</time>
      </trkpt>
      <trkpt lat="43.1039111" lon="-2.7519638">
        <ele>155.485</ele>
        <time>2021-04-01T09:11:33.904Z</time>
      </trkpt>
      <trkpt lat="43.1039127" lon="-2.7519691">
        <ele>155.476</ele>
        <time>2021-04-01T09:11:33.959Z</time>
      </trkpt>
      <trkpt lat="43.1039144" lon="-2.7519746">
        <ele>155.483</ele>
        <time>2021-04-01T09:11:34.014Z</time>
      </trkpt>
      <trkpt lat="43.1039161" lon="-2.7519803">
        <ele>155.462</ele>
        <time>2021-04-01T09:11:34.069Z</time>
      </trkpt>
      <trkpt lat="43.1039176" lon="-2.7519859">
        <ele>155.474</ele>
        <time>2021-04-01T09:11:34.124Z</time>
      </trkpt>
      <trkpt lat="43.1039191" lon="-2.7519915">
        <ele>155.477</ele>
        <time>2021-04-01T09:11:34.179Z</time>
      </trkpt>
      <trkpt lat="43.1039208" lon="-2.7519973">
        <ele>155.516</ele>
        <time>2021-04-01T09:11:34.234Z</time>
      </trkpt>
      <trkpt lat="43.1039225" lon="-2.7520031">
        <ele>155.567</ele>
        <time>2021-04-01T09:11:34.289Z</time>
      </trkpt>
      <trkpt lat="43.1039241" lon="-2.7520086">
        <ele>155.595</ele>
        <time>2021-04-01T09:11:34.344Z</time>
      </trkpt>
      <trkpt lat="43.1039252" lon="-2.7520143">
        <ele>155.558</ele>
        <time>2021-04-01T09:11:34.399Z</time>
      </trkpt>
      <trkpt lat="43.1039269" lon="-2.7520202">
        <ele>155.569</ele>
        <time>2021-04-01T09:11:34.454Z</time>
      </trkpt>
      <trkpt lat="43.1039285" lon="-2.7520262">
        <ele>155.583</ele>
        <time>2021-04-01T09:11:34.509Z</time>
      </trkpt>
      <trkpt lat="43.10393" lon="-2.7520319">
        <ele>155.605</ele>
        <time>2021-04-01T09:11:34.564Z</time>
      </trkpt>
      <trkpt lat="43.1039314" lon="-2.752038">
        <ele>155.607</ele>
        <time>2021-04-01T09:11:34.619Z</time>
      </trkpt>
      <trkpt lat="43.1039328" lon="-2.7520438">
        <ele>155.611</ele>
        <time>2021-04-01T09:11:34.674Z</time>
      </trkpt>
      <trkpt lat="43.1039345" lon="-2.7520499">
        <ele>155.63</ele>
        <time>2021-04-01T09:11:34.729Z</time>
      </trkpt>
      <trkpt lat="43.1039363" lon="-2.7520563">
        <ele>155.647</ele>
        <time>2021-04-01T09:11:34.784Z</time>
      </trkpt>
      <trkpt lat="43.1039381" lon="-2.7520621">
        <ele>155.629</ele>
        <time>2021-04-01T09:11:34.839Z</time>
      </trkpt>
      <trkpt lat="43.1039396" lon="-2.7520673">
        <ele>155.584</ele>
        <time>2021-04-01T09:11:34.894Z</time>
      </trkpt>
      <trkpt lat="43.103941" lon="-2.7520731">
        <ele>155.541</ele>
        <time>2021-04-01T09:11:34.949Z</time>
      </trkpt>
      <trkpt lat="43.1039428" lon="-2.7520793">
        <ele>155.583</ele>
        <time>2021-04-01T09:11:35.004Z</time>
      </trkpt>
      <trkpt lat="43.1039445" lon="-2.7520853">
        <ele>155.622</ele>
        <time>2021-04-01T09:11:35.059Z</time>
      </trkpt>
      <trkpt lat="43.103946" lon="-2.7520909">
        <ele>155.623</ele>
        <time>2021-04-01T09:11:35.114Z</time>
      </trkpt>
      <trkpt lat="43.1039473" lon="-2.7520968">
        <ele>155.607</ele>
        <time>2021-04-01T09:11:35.169Z</time>
      </trkpt>
      <trkpt lat="43.1039487" lon="-2.7521028">
        <ele>155.592</ele>
        <time>2021-04-01T09:11:35.224Z</time>
      </trkpt>
      <trkpt lat="43.1039499" lon="-2.7521088">
        <ele>155.531</ele>
        <time>2021-04-01T09:11:35.279Z</time>
      </trkpt>
      <trkpt lat="43.1039516" lon="-2.7521148">
        <ele>155.568</ele>
        <time>2021-04-01T09:11:35.334Z</time>
      </trkpt>
      <trkpt lat="43.1039529" lon="-2.7521206">
        <ele>155.582</ele>
        <time>2021-04-01T09:11:35.389Z</time>
      </trkpt>
      <trkpt lat="43.1039545" lon="-2.7521264">
        <ele>155.562</ele>
        <time>2021-04-01T09:11:35.444Z</time>
      </trkpt>
      <trkpt lat="43.1039559" lon="-2.7521323">
        <ele>155.562</ele>
        <time>2021-04-01T09:11:35.499Z</time>
      </trkpt>
      <trkpt lat="43.1039574" lon="-2.7521381">
        <ele>155.559</ele>
        <time>2021-04-01T09:11:35.554Z</time>
      </trkpt>
      <trkpt lat="43.103959" lon="-2.7521439">
        <ele>155.562</ele>
        <time>2021-04-01T09:11:35.609Z</time>
      </trkpt>
      <trkpt lat="43.1039605" lon="-2.7521496">
        <ele>155.54</ele>
        <time>2021-04-01T09:11:35.664Z</time>
      </trkpt>
      <trkpt lat="43.1039622" lon="-2.7521552">
        <ele>155.573</ele>
        <time>2021-04-01T09:11:35.722Z</time>
      </trkpt>
      <trkpt lat="43.1039637" lon="-2.7521609">
        <ele>155.574</ele>
        <time>2021-04-01T09:11:35.780Z</time>
      </trkpt>
      <trkpt lat="43.1039653" lon="-2.7521666">
        <ele>155.616</ele>
        <time>2021-04-01T09:11:35.838Z</time>
      </trkpt>
      <trkpt lat="43.1039668" lon="-2.7521724">
        <ele>155.58</ele>
        <time>2021-04-01T09:11:35.896Z</time>
      </trkpt>
      <trkpt lat="43.1039685" lon="-2.752178">
        <ele>155.591</ele>
        <time>2021-04-01T09:11:35.955Z</time>
      </trkpt>
      <trkpt lat="43.1039701" lon="-2.7521838">
        <ele>155.637</ele>
        <time>2021-04-01T09:11:36.013Z</time>
      </trkpt>
      <trkpt lat="43.1039716" lon="-2.7521896">
        <ele>155.634</ele>
        <time>2021-04-01T09:11:36.071Z</time>
      </trkpt>
      <trkpt lat="43.1039726" lon="-2.7521952">
        <ele>155.578</ele>
        <time>2021-04-01T09:11:36.129Z</time>
      </trkpt>
      <trkpt lat="43.1039743" lon="-2.752201">
        <ele>155.622</ele>
        <time>2021-04-01T09:11:36.188Z</time>
      </trkpt>
      <trkpt lat="43.1039755" lon="-2.7522065">
        <ele>155.557</ele>
        <time>2021-04-01T09:11:36.246Z</time>
      </trkpt>
      <trkpt lat="43.1039768" lon="-2.7522122">
        <ele>155.541</ele>
        <time>2021-04-01T09:11:36.304Z</time>
      </trkpt>
      <trkpt lat="43.103978" lon="-2.7522179">
        <ele>155.561</ele>
        <time>2021-04-01T09:11:36.362Z</time>
      </trkpt>
      <trkpt lat="43.1039791" lon="-2.7522235">
        <ele>155.504</ele>
        <time>2021-04-01T09:11:36.421Z</time>
      </trkpt>
      <trkpt lat="43.1039802" lon="-2.7522291">
        <ele>155.483</ele>
        <time>2021-04-01T09:11:36.479Z</time>
      </trkpt>
      <trkpt lat="43.1039814" lon="-2.7522349">
        <ele>155.485</ele>
        <time>2021-04-01T09:11:36.537Z</time>
      </trkpt>
      <trkpt lat="43.1039826" lon="-2.7522405">
        <ele>155.511</ele>
        <time>2021-04-01T09:11:36.595Z</time>
      </trkpt>
      <trkpt lat="43.1039836" lon="-2.7522462">
        <ele>155.475</ele>
        <time>2021-04-01T09:11:36.654Z</time>
      </trkpt>
      <trkpt lat="43.1039849" lon="-2.7522519">
        <ele>155.493</ele>
        <time>2021-04-01T09:11:36.706Z</time>
      </trkpt>
      <trkpt lat="43.103986" lon="-2.7522577">
        <ele>155.493</ele>
        <time>2021-04-01T09:11:36.758Z</time>
      </trkpt>
      <trkpt lat="43.1039874" lon="-2.7522635">
        <ele>155.529</ele>
        <time>2021-04-01T09:11:36.810Z</time>
      </trkpt>
      <trkpt lat="43.1039886" lon="-2.7522698">
        <ele>155.548</ele>
        <time>2021-04-01T09:11:36.862Z</time>
      </trkpt>
      <trkpt lat="43.1039899" lon="-2.7522757">
        <ele>155.521</ele>
        <time>2021-04-01T09:11:36.914Z</time>
      </trkpt>
      <trkpt lat="43.1039912" lon="-2.7522814">
        <ele>155.524</ele>
        <time>2021-04-01T09:11:36.966Z</time>
      </trkpt>
      <trkpt lat="43.1039922" lon="-2.752287">
        <ele>155.546</ele>
        <time>2021-04-01T09:11:37.018Z</time>
      </trkpt>
      <trkpt lat="43.1039935" lon="-2.7522926">
        <ele>155.522</ele>
        <time>2021-04-01T09:11:37.070Z</time>
      </trkpt>
      <trkpt lat="43.1039948" lon="-2.7522983">
        <ele>155.514</ele>
        <time>2021-04-01T09:11:37.122Z</time>
      </trkpt>
      <trkpt lat="43.1039964" lon="-2.7523041">
        <ele>155.579</ele>
        <time>2021-04-01T09:11:37.175Z</time>
      </trkpt>
      <trkpt lat="43.1039976" lon="-2.7523097">
        <ele>155.555</ele>
        <time>2021-04-01T09:11:37.227Z</time>
      </trkpt>
      <trkpt lat="43.1039992" lon="-2.7523157">
        <ele>155.6</ele>
        <time>2021-04-01T09:11:37.279Z</time>
      </trkpt>
      <trkpt lat="43.1040005" lon="-2.7523214">
        <ele>155.592</ele>
        <time>2021-04-01T09:11:37.331Z</time>
      </trkpt>
      <trkpt lat="43.1040018" lon="-2.7523275">
        <ele>155.556</ele>
        <time>2021-04-01T09:11:37.383Z</time>
      </trkpt>
      <trkpt lat="43.1040031" lon="-2.7523331">
        <ele>155.53</ele>
        <time>2021-04-01T09:11:37.435Z</time>
      </trkpt>
      <trkpt lat="43.1040045" lon="-2.7523388">
        <ele>155.573</ele>
        <time>2021-04-01T09:11:37.487Z</time>
      </trkpt>
      <trkpt lat="43.104006" lon="-2.7523448">
        <ele>155.536</ele>
        <time>2021-04-01T09:11:37.539Z</time>
      </trkpt>
      <trkpt lat="43.1040074" lon="-2.7523506">
        <ele>155.533</ele>
        <time>2021-04-01T09:11:37.591Z</time>
      </trkpt>
      <trkpt lat="43.1040088" lon="-2.7523567">
        <ele>155.467</ele>
        <time>2021-04-01T09:11:37.644Z</time>
      </trkpt>
      <trkpt lat="43.1040103" lon="-2.7523628">
        <ele>155.454</ele>
        <time>2021-04-01T09:11:37.699Z</time>
      </trkpt>
      <trkpt lat="43.1040118" lon="-2.7523687">
        <ele>155.456</ele>
        <time>2021-04-01T09:11:37.754Z</time>
      </trkpt>
      <trkpt lat="43.1040134" lon="-2.7523747">
        <ele>155.453</ele>
        <time>2021-04-01T09:11:37.809Z</time>
      </trkpt>
      <trkpt lat="43.1040146" lon="-2.7523805">
        <ele>155.384</ele>
        <time>2021-04-01T09:11:37.864Z</time>
      </trkpt>
      <trkpt lat="43.1040159" lon="-2.7523864">
        <ele>155.348</ele>
        <time>2021-04-01T09:11:37.919Z</time>
      </trkpt>
      <trkpt lat="43.1040172" lon="-2.7523923">
        <ele>155.36</ele>
        <time>2021-04-01T09:11:37.974Z</time>
      </trkpt>
      <trkpt lat="43.1040186" lon="-2.7523981">
        <ele>155.338</ele>
        <time>2021-04-01T09:11:38.029Z</time>
      </trkpt>
      <trkpt lat="43.1040201" lon="-2.7524042">
        <ele>155.301</ele>
        <time>2021-04-01T09:11:38.084Z</time>
      </trkpt>
      <trkpt lat="43.1040216" lon="-2.75241">
        <ele>155.312</ele>
        <time>2021-04-01T09:11:38.139Z</time>
      </trkpt>
      <trkpt lat="43.1040228" lon="-2.7524159">
        <ele>155.342</ele>
        <time>2021-04-01T09:11:38.194Z</time>
      </trkpt>
      <trkpt lat="43.1040242" lon="-2.752422">
        <ele>155.352</ele>
        <time>2021-04-01T09:11:38.249Z</time>
      </trkpt>
      <trkpt lat="43.1040255" lon="-2.752428">
        <ele>155.336</ele>
        <time>2021-04-01T09:11:38.304Z</time>
      </trkpt>
      <trkpt lat="43.1040271" lon="-2.7524341">
        <ele>155.35</ele>
        <time>2021-04-01T09:11:38.359Z</time>
      </trkpt>
      <trkpt lat="43.1040282" lon="-2.7524409">
        <ele>155.373</ele>
        <time>2021-04-01T09:11:38.414Z</time>
      </trkpt>
      <trkpt lat="43.1040297" lon="-2.7524471">
        <ele>155.373</ele>
        <time>2021-04-01T09:11:38.469Z</time>
      </trkpt>
      <trkpt lat="43.1040313" lon="-2.752453">
        <ele>155.352</ele>
        <time>2021-04-01T09:11:38.524Z</time>
      </trkpt>
      <trkpt lat="43.1040326" lon="-2.752459">
        <ele>155.339</ele>
        <time>2021-04-01T09:11:38.579Z</time>
      </trkpt>
      <trkpt lat="43.1040339" lon="-2.7524649">
        <ele>155.314</ele>
        <time>2021-04-01T09:11:38.634Z</time>
      </trkpt>
      <trkpt lat="43.1040352" lon="-2.7524711">
        <ele>155.306</ele>
        <time>2021-04-01T09:11:38.689Z</time>
      </trkpt>
      <trkpt lat="43.1040366" lon="-2.7524769">
        <ele>155.274</ele>
        <time>2021-04-01T09:11:38.744Z</time>
      </trkpt>
      <trkpt lat="43.104038" lon="-2.7524827">
        <ele>155.281</ele>
        <time>2021-04-01T09:11:38.799Z</time>
      </trkpt>
      <trkpt lat="43.1040393" lon="-2.7524887">
        <ele>155.248</ele>
        <time>2021-04-01T09:11:38.854Z</time>
      </trkpt>
      <trkpt lat="43.1040407" lon="-2.7524951">
        <ele>155.2</ele>
        <time>2021-04-01T09:11:38.909Z</time>
      </trkpt>
      <trkpt lat="43.1040423" lon="-2.7525016">
        <ele>155.16</ele>
        <time>2021-04-01T09:11:38.964Z</time>
      </trkpt>
      <trkpt lat="43.1040441" lon="-2.7525079">
        <ele>155.145</ele>
        <time>2021-04-01T09:11:39.019Z</time>
      </trkpt>
      <trkpt lat="43.1040459" lon="-2.7525141">
        <ele>155.159</ele>
        <time>2021-04-01T09:11:39.074Z</time>
      </trkpt>
      <trkpt lat="43.104047" lon="-2.7525201">
        <ele>155.122</ele>
        <time>2021-04-01T09:11:39.129Z</time>
      </trkpt>
      <trkpt lat="43.1040479" lon="-2.7525259">
        <ele>155.081</ele>
        <time>2021-04-01T09:11:39.184Z</time>
      </trkpt>
      <trkpt lat="43.1040491" lon="-2.7525318">
        <ele>155.037</ele>
        <time>2021-04-01T09:11:39.239Z</time>
      </trkpt>
      <trkpt lat="43.1040501" lon="-2.7525373">
        <ele>155</ele>
        <time>2021-04-01T09:11:39.294Z</time>
      </trkpt>
      <trkpt lat="43.1040514" lon="-2.7525431">
        <ele>155.013</ele>
        <time>2021-04-01T09:11:39.349Z</time>
      </trkpt>
      <trkpt lat="43.1040527" lon="-2.7525491">
        <ele>154.999</ele>
        <time>2021-04-01T09:11:39.404Z</time>
      </trkpt>
      <trkpt lat="43.1040541" lon="-2.7525552">
        <ele>155.002</ele>
        <time>2021-04-01T09:11:39.459Z</time>
      </trkpt>
      <trkpt lat="43.1040554" lon="-2.7525614">
        <ele>155.017</ele>
        <time>2021-04-01T09:11:39.514Z</time>
      </trkpt>
      <trkpt lat="43.1040568" lon="-2.7525674">
        <ele>155.022</ele>
        <time>2021-04-01T09:11:39.569Z</time>
      </trkpt>
      <trkpt lat="43.1040589" lon="-2.752574">
        <ele>154.967</ele>
        <time>2021-04-01T09:11:39.624Z</time>
      </trkpt>
      <trkpt lat="43.1040605" lon="-2.7525802">
        <ele>154.992</ele>
        <time>2021-04-01T09:11:39.679Z</time>
      </trkpt>
      <trkpt lat="43.1040618" lon="-2.7525862">
        <ele>154.975</ele>
        <time>2021-04-01T09:11:39.734Z</time>
      </trkpt>
      <trkpt lat="43.1040633" lon="-2.7525923">
        <ele>154.981</ele>
        <time>2021-04-01T09:11:39.789Z</time>
      </trkpt>
      <trkpt lat="43.1040647" lon="-2.7525986">
        <ele>154.946</ele>
        <time>2021-04-01T09:11:39.844Z</time>
      </trkpt>
      <trkpt lat="43.1040666" lon="-2.7526052">
        <ele>154.936</ele>
        <time>2021-04-01T09:11:39.899Z</time>
      </trkpt>
      <trkpt lat="43.1040681" lon="-2.7526111">
        <ele>154.942</ele>
        <time>2021-04-01T09:11:39.954Z</time>
      </trkpt>
      <trkpt lat="43.1040694" lon="-2.7526173">
        <ele>154.906</ele>
        <time>2021-04-01T09:11:40.009Z</time>
      </trkpt>
      <trkpt lat="43.1040711" lon="-2.7526241">
        <ele>154.808</ele>
        <time>2021-04-01T09:11:40.064Z</time>
      </trkpt>
      <trkpt lat="43.1040723" lon="-2.7526301">
        <ele>154.749</ele>
        <time>2021-04-01T09:11:40.119Z</time>
      </trkpt>
      <trkpt lat="43.1040736" lon="-2.752636">
        <ele>154.736</ele>
        <time>2021-04-01T09:11:40.174Z</time>
      </trkpt>
      <trkpt lat="43.1040751" lon="-2.7526421">
        <ele>154.718</ele>
        <time>2021-04-01T09:11:40.229Z</time>
      </trkpt>
      <trkpt lat="43.1040769" lon="-2.7526481">
        <ele>154.708</ele>
        <time>2021-04-01T09:11:40.284Z</time>
      </trkpt>
      <trkpt lat="43.1040785" lon="-2.7526541">
        <ele>154.701</ele>
        <time>2021-04-01T09:11:40.339Z</time>
      </trkpt>
      <trkpt lat="43.10408" lon="-2.7526604">
        <ele>154.653</ele>
        <time>2021-04-01T09:11:40.394Z</time>
      </trkpt>
      <trkpt lat="43.1040814" lon="-2.7526667">
        <ele>154.612</ele>
        <time>2021-04-01T09:11:40.449Z</time>
      </trkpt>
      <trkpt lat="43.104083" lon="-2.7526729">
        <ele>154.601</ele>
        <time>2021-04-01T09:11:40.504Z</time>
      </trkpt>
      <trkpt lat="43.1040848" lon="-2.7526788">
        <ele>154.593</ele>
        <time>2021-04-01T09:11:40.559Z</time>
      </trkpt>
      <trkpt lat="43.1040866" lon="-2.7526852">
        <ele>154.579</ele>
        <time>2021-04-01T09:11:40.614Z</time>
      </trkpt>
      <trkpt lat="43.1040882" lon="-2.7526914">
        <ele>154.562</ele>
        <time>2021-04-01T09:11:40.669Z</time>
      </trkpt>
      <trkpt lat="43.10409" lon="-2.7526976">
        <ele>154.527</ele>
        <time>2021-04-01T09:11:40.724Z</time>
      </trkpt>
      <trkpt lat="43.104092" lon="-2.7527035">
        <ele>154.561</ele>
        <time>2021-04-01T09:11:40.779Z</time>
      </trkpt>
      <trkpt lat="43.104094" lon="-2.7527096">
        <ele>154.545</ele>
        <time>2021-04-01T09:11:40.834Z</time>
      </trkpt>
      <trkpt lat="43.1040958" lon="-2.752716">
        <ele>154.491</ele>
        <time>2021-04-01T09:11:40.889Z</time>
      </trkpt>
      <trkpt lat="43.1040975" lon="-2.7527224">
        <ele>154.467</ele>
        <time>2021-04-01T09:11:40.944Z</time>
      </trkpt>
      <trkpt lat="43.1040993" lon="-2.7527284">
        <ele>154.417</ele>
        <time>2021-04-01T09:11:40.999Z</time>
      </trkpt>
      <trkpt lat="43.1041012" lon="-2.7527345">
        <ele>154.4</ele>
        <time>2021-04-01T09:11:41.054Z</time>
      </trkpt>
      <trkpt lat="43.104103" lon="-2.7527404">
        <ele>154.364</ele>
        <time>2021-04-01T09:11:41.109Z</time>
      </trkpt>
      <trkpt lat="43.1041046" lon="-2.7527463">
        <ele>154.297</ele>
        <time>2021-04-01T09:11:41.164Z</time>
      </trkpt>
      <trkpt lat="43.1041062" lon="-2.7527529">
        <ele>154.194</ele>
        <time>2021-04-01T09:11:41.219Z</time>
      </trkpt>
      <trkpt lat="43.1041082" lon="-2.7527586">
        <ele>154.194</ele>
        <time>2021-04-01T09:11:41.274Z</time>
      </trkpt>
      <trkpt lat="43.1041103" lon="-2.7527642">
        <ele>154.171</ele>
        <time>2021-04-01T09:11:41.329Z</time>
      </trkpt>
      <trkpt lat="43.1041122" lon="-2.7527704">
        <ele>154.115</ele>
        <time>2021-04-01T09:11:41.384Z</time>
      </trkpt>
      <trkpt lat="43.1041146" lon="-2.7527762">
        <ele>154.096</ele>
        <time>2021-04-01T09:11:41.439Z</time>
      </trkpt>
      <trkpt lat="43.1041166" lon="-2.7527819">
        <ele>154.126</ele>
        <time>2021-04-01T09:11:41.494Z</time>
      </trkpt>
      <trkpt lat="43.1041187" lon="-2.7527879">
        <ele>154.111</ele>
        <time>2021-04-01T09:11:41.549Z</time>
      </trkpt>
      <trkpt lat="43.1041208" lon="-2.7527938">
        <ele>154.127</ele>
        <time>2021-04-01T09:11:41.604Z</time>
      </trkpt>
      <trkpt lat="43.1041231" lon="-2.7528001">
        <ele>154.165</ele>
        <time>2021-04-01T09:11:41.659Z</time>
      </trkpt>
      <trkpt lat="43.1041253" lon="-2.7528061">
        <ele>154.172</ele>
        <time>2021-04-01T09:11:41.714Z</time>
      </trkpt>
      <trkpt lat="43.1041277" lon="-2.7528122">
        <ele>154.19</ele>
        <time>2021-04-01T09:11:41.769Z</time>
      </trkpt>
      <trkpt lat="43.1041303" lon="-2.7528184">
        <ele>154.215</ele>
        <time>2021-04-01T09:11:41.824Z</time>
      </trkpt>
      <trkpt lat="43.1041326" lon="-2.7528245">
        <ele>154.207</ele>
        <time>2021-04-01T09:11:41.879Z</time>
      </trkpt>
      <trkpt lat="43.1041346" lon="-2.7528309">
        <ele>154.192</ele>
        <time>2021-04-01T09:11:41.934Z</time>
      </trkpt>
      <trkpt lat="43.104137" lon="-2.7528373">
        <ele>154.243</ele>
        <time>2021-04-01T09:11:41.989Z</time>
      </trkpt>
      <trkpt lat="43.1041396" lon="-2.7528437">
        <ele>154.31</ele>
        <time>2021-04-01T09:11:42.044Z</time>
      </trkpt>
      <trkpt lat="43.1041418" lon="-2.75285">
        <ele>154.351</ele>
        <time>2021-04-01T09:11:42.099Z</time>
      </trkpt>
      <trkpt lat="43.1041438" lon="-2.7528563">
        <ele>154.346</ele>
        <time>2021-04-01T09:11:42.154Z</time>
      </trkpt>
      <trkpt lat="43.1041458" lon="-2.7528622">
        <ele>154.355</ele>
        <time>2021-04-01T09:11:42.209Z</time>
      </trkpt>
      <trkpt lat="43.1041478" lon="-2.7528683">
        <ele>154.371</ele>
        <time>2021-04-01T09:11:42.264Z</time>
      </trkpt>
      <trkpt lat="43.1041501" lon="-2.7528745">
        <ele>154.471</ele>
        <time>2021-04-01T09:11:42.319Z</time>
      </trkpt>
      <trkpt lat="43.1041523" lon="-2.7528807">
        <ele>154.481</ele>
        <time>2021-04-01T09:11:42.374Z</time>
      </trkpt>
      <trkpt lat="43.1041544" lon="-2.752887">
        <ele>154.513</ele>
        <time>2021-04-01T09:11:42.429Z</time>
      </trkpt>
      <trkpt lat="43.1041569" lon="-2.7528931">
        <ele>154.582</ele>
        <time>2021-04-01T09:11:42.484Z</time>
      </trkpt>
      <trkpt lat="43.1041589" lon="-2.7528992">
        <ele>154.611</ele>
        <time>2021-04-01T09:11:42.539Z</time>
      </trkpt>
      <trkpt lat="43.1041611" lon="-2.7529052">
        <ele>154.62</ele>
        <time>2021-04-01T09:11:42.594Z</time>
      </trkpt>
      <trkpt lat="43.1041634" lon="-2.7529113">
        <ele>154.648</ele>
        <time>2021-04-01T09:11:42.649Z</time>
      </trkpt>
      <trkpt lat="43.1041655" lon="-2.7529176">
        <ele>154.631</ele>
        <time>2021-04-01T09:11:42.704Z</time>
      </trkpt>
      <trkpt lat="43.1041678" lon="-2.7529239">
        <ele>154.674</ele>
        <time>2021-04-01T09:11:42.759Z</time>
      </trkpt>
      <trkpt lat="43.1041703" lon="-2.7529297">
        <ele>154.894</ele>
        <time>2021-04-01T09:11:42.814Z</time>
      </trkpt>
      <trkpt lat="43.1041725" lon="-2.7529358">
        <ele>154.94</ele>
        <time>2021-04-01T09:11:42.869Z</time>
      </trkpt>
      <trkpt lat="43.1041747" lon="-2.7529419">
        <ele>154.979</ele>
        <time>2021-04-01T09:11:42.924Z</time>
      </trkpt>
      <trkpt lat="43.1041769" lon="-2.7529478">
        <ele>155.017</ele>
        <time>2021-04-01T09:11:42.979Z</time>
      </trkpt>
      <trkpt lat="43.1041791" lon="-2.7529535">
        <ele>155.07</ele>
        <time>2021-04-01T09:11:43.034Z</time>
      </trkpt>
      <trkpt lat="43.1041812" lon="-2.7529595">
        <ele>155.133</ele>
        <time>2021-04-01T09:11:43.089Z</time>
      </trkpt>
      <trkpt lat="43.1041834" lon="-2.7529653">
        <ele>155.168</ele>
        <time>2021-04-01T09:11:43.144Z</time>
      </trkpt>
      <trkpt lat="43.1041856" lon="-2.7529714">
        <ele>155.186</ele>
        <time>2021-04-01T09:11:43.199Z</time>
      </trkpt>
      <trkpt lat="43.1041877" lon="-2.7529778">
        <ele>155.201</ele>
        <time>2021-04-01T09:11:43.254Z</time>
      </trkpt>
      <trkpt lat="43.10419" lon="-2.7529838">
        <ele>155.196</ele>
        <time>2021-04-01T09:11:43.309Z</time>
      </trkpt>
      <trkpt lat="43.1041923" lon="-2.75299">
        <ele>155.147</ele>
        <time>2021-04-01T09:11:43.364Z</time>
      </trkpt>
      <trkpt lat="43.1041945" lon="-2.7529961">
        <ele>155.128</ele>
        <time>2021-04-01T09:11:43.419Z</time>
      </trkpt>
      <trkpt lat="43.1041968" lon="-2.7530019">
        <ele>155.165</ele>
        <time>2021-04-01T09:11:43.474Z</time>
      </trkpt>
      <trkpt lat="43.1041987" lon="-2.7530083">
        <ele>155.159</ele>
        <time>2021-04-01T09:11:43.529Z</time>
      </trkpt>
      <trkpt lat="43.1042008" lon="-2.7530143">
        <ele>155.161</ele>
        <time>2021-04-01T09:11:43.584Z</time>
      </trkpt>
      <trkpt lat="43.1042029" lon="-2.7530199">
        <ele>155.127</ele>
        <time>2021-04-01T09:11:43.639Z</time>
      </trkpt>
      <trkpt lat="43.1042053" lon="-2.7530259">
        <ele>155.119</ele>
        <time>2021-04-01T09:11:43.694Z</time>
      </trkpt>
      <trkpt lat="43.1042073" lon="-2.7530319">
        <ele>155.102</ele>
        <time>2021-04-01T09:11:43.749Z</time>
      </trkpt>
      <trkpt lat="43.1042094" lon="-2.753038">
        <ele>155.084</ele>
        <time>2021-04-01T09:11:43.804Z</time>
      </trkpt>
      <trkpt lat="43.1042114" lon="-2.753044">
        <ele>155.1</ele>
        <time>2021-04-01T09:11:43.859Z</time>
      </trkpt>
      <trkpt lat="43.1042134" lon="-2.7530501">
        <ele>155.107</ele>
        <time>2021-04-01T09:11:43.914Z</time>
      </trkpt>
      <trkpt lat="43.1042156" lon="-2.7530555">
        <ele>155.092</ele>
        <time>2021-04-01T09:11:43.969Z</time>
      </trkpt>
      <trkpt lat="43.1042175" lon="-2.7530613">
        <ele>155.093</ele>
        <time>2021-04-01T09:11:44.024Z</time>
      </trkpt>
      <trkpt lat="43.1042195" lon="-2.7530675">
        <ele>155.113</ele>
        <time>2021-04-01T09:11:44.079Z</time>
      </trkpt>
      <trkpt lat="43.1042217" lon="-2.7530734">
        <ele>155.149</ele>
        <time>2021-04-01T09:11:44.134Z</time>
      </trkpt>
      <trkpt lat="43.1042239" lon="-2.7530795">
        <ele>155.145</ele>
        <time>2021-04-01T09:11:44.189Z</time>
      </trkpt>
      <trkpt lat="43.1042256" lon="-2.7530851">
        <ele>155.083</ele>
        <time>2021-04-01T09:11:44.244Z</time>
      </trkpt>
      <trkpt lat="43.1042277" lon="-2.753091">
        <ele>155.082</ele>
        <time>2021-04-01T09:11:44.299Z</time>
      </trkpt>
      <trkpt lat="43.10423" lon="-2.7530972">
        <ele>155.118</ele>
        <time>2021-04-01T09:11:44.354Z</time>
      </trkpt>
      <trkpt lat="43.1042321" lon="-2.7531034">
        <ele>155.124</ele>
        <time>2021-04-01T09:11:44.409Z</time>
      </trkpt>
      <trkpt lat="43.1042344" lon="-2.7531094">
        <ele>155.149</ele>
        <time>2021-04-01T09:11:44.464Z</time>
      </trkpt>
      <trkpt lat="43.1042366" lon="-2.7531152">
        <ele>155.137</ele>
        <time>2021-04-01T09:11:44.519Z</time>
      </trkpt>
      <trkpt lat="43.1042392" lon="-2.7531209">
        <ele>155.165</ele>
        <time>2021-04-01T09:11:44.574Z</time>
      </trkpt>
      <trkpt lat="43.1042413" lon="-2.7531265">
        <ele>155.11</ele>
        <time>2021-04-01T09:11:44.629Z</time>
      </trkpt>
      <trkpt lat="43.1042436" lon="-2.7531324">
        <ele>155.064</ele>
        <time>2021-04-01T09:11:44.684Z</time>
      </trkpt>
      <trkpt lat="43.1042459" lon="-2.7531386">
        <ele>155.026</ele>
        <time>2021-04-01T09:11:44.739Z</time>
      </trkpt>
      <trkpt lat="43.1042484" lon="-2.7531446">
        <ele>155.02</ele>
        <time>2021-04-01T09:11:44.794Z</time>
      </trkpt>
      <trkpt lat="43.1042504" lon="-2.7531507">
        <ele>154.996</ele>
        <time>2021-04-01T09:11:44.849Z</time>
      </trkpt>
      <trkpt lat="43.1042524" lon="-2.7531565">
        <ele>155.023</ele>
        <time>2021-04-01T09:11:44.904Z</time>
      </trkpt>
      <trkpt lat="43.1042546" lon="-2.7531624">
        <ele>155.023</ele>
        <time>2021-04-01T09:11:44.959Z</time>
      </trkpt>
      <trkpt lat="43.1042566" lon="-2.7531685">
        <ele>154.959</ele>
        <time>2021-04-01T09:11:45.014Z</time>
      </trkpt>
      <trkpt lat="43.1042588" lon="-2.7531745">
        <ele>154.946</ele>
        <time>2021-04-01T09:11:45.069Z</time>
      </trkpt>
      <trkpt lat="43.104261" lon="-2.7531804">
        <ele>154.95</ele>
        <time>2021-04-01T09:11:45.124Z</time>
      </trkpt>
      <trkpt lat="43.1042632" lon="-2.7531864">
        <ele>154.961</ele>
        <time>2021-04-01T09:11:45.179Z</time>
      </trkpt>
      <trkpt lat="43.1042653" lon="-2.7531925">
        <ele>154.96</ele>
        <time>2021-04-01T09:11:45.234Z</time>
      </trkpt>
      <trkpt lat="43.1042673" lon="-2.7531987">
        <ele>154.928</ele>
        <time>2021-04-01T09:11:45.289Z</time>
      </trkpt>
      <trkpt lat="43.1042698" lon="-2.7532051">
        <ele>154.938</ele>
        <time>2021-04-01T09:11:45.344Z</time>
      </trkpt>
      <trkpt lat="43.1042723" lon="-2.7532116">
        <ele>154.961</ele>
        <time>2021-04-01T09:11:45.399Z</time>
      </trkpt>
      <trkpt lat="43.1042745" lon="-2.753218">
        <ele>154.969</ele>
        <time>2021-04-01T09:11:45.454Z</time>
      </trkpt>
      <trkpt lat="43.1042765" lon="-2.7532242">
        <ele>154.954</ele>
        <time>2021-04-01T09:11:45.509Z</time>
      </trkpt>
      <trkpt lat="43.1042791" lon="-2.7532306">
        <ele>154.977</ele>
        <time>2021-04-01T09:11:45.564Z</time>
      </trkpt>
      <trkpt lat="43.1042813" lon="-2.7532372">
        <ele>154.951</ele>
        <time>2021-04-01T09:11:45.619Z</time>
      </trkpt>
      <trkpt lat="43.1042835" lon="-2.7532435">
        <ele>154.934</ele>
        <time>2021-04-01T09:11:45.674Z</time>
      </trkpt>
      <trkpt lat="43.1042859" lon="-2.7532497">
        <ele>154.928</ele>
        <time>2021-04-01T09:11:45.725Z</time>
      </trkpt>
      <trkpt lat="43.1042882" lon="-2.7532553">
        <ele>154.91</ele>
        <time>2021-04-01T09:11:45.777Z</time>
      </trkpt>
      <trkpt lat="43.1042903" lon="-2.7532614">
        <ele>154.866</ele>
        <time>2021-04-01T09:11:45.829Z</time>
      </trkpt>
      <trkpt lat="43.1042925" lon="-2.7532675">
        <ele>154.826</ele>
        <time>2021-04-01T09:11:45.881Z</time>
      </trkpt>
      <trkpt lat="43.1042946" lon="-2.7532735">
        <ele>154.766</ele>
        <time>2021-04-01T09:11:45.933Z</time>
      </trkpt>
      <trkpt lat="43.1042971" lon="-2.7532795">
        <ele>154.772</ele>
        <time>2021-04-01T09:11:45.985Z</time>
      </trkpt>
      <trkpt lat="43.1042994" lon="-2.7532855">
        <ele>154.785</ele>
        <time>2021-04-01T09:11:46.037Z</time>
      </trkpt>
      <trkpt lat="43.1043014" lon="-2.7532917">
        <ele>154.725</ele>
        <time>2021-04-01T09:11:46.089Z</time>
      </trkpt>
      <trkpt lat="43.1043036" lon="-2.7532979">
        <ele>154.713</ele>
        <time>2021-04-01T09:11:46.141Z</time>
      </trkpt>
      <trkpt lat="43.104306" lon="-2.7533039">
        <ele>154.676</ele>
        <time>2021-04-01T09:11:46.193Z</time>
      </trkpt>
      <trkpt lat="43.1043083" lon="-2.7533099">
        <ele>154.644</ele>
        <time>2021-04-01T09:11:46.245Z</time>
      </trkpt>
      <trkpt lat="43.1043107" lon="-2.7533158">
        <ele>154.648</ele>
        <time>2021-04-01T09:11:46.297Z</time>
      </trkpt>
      <trkpt lat="43.1043132" lon="-2.7533217">
        <ele>154.664</ele>
        <time>2021-04-01T09:11:46.349Z</time>
      </trkpt>
      <trkpt lat="43.1043154" lon="-2.7533279">
        <ele>154.625</ele>
        <time>2021-04-01T09:11:46.401Z</time>
      </trkpt>
      <trkpt lat="43.1043175" lon="-2.7533341">
        <ele>154.598</ele>
        <time>2021-04-01T09:11:46.453Z</time>
      </trkpt>
      <trkpt lat="43.1043198" lon="-2.7533401">
        <ele>154.559</ele>
        <time>2021-04-01T09:11:46.505Z</time>
      </trkpt>
      <trkpt lat="43.104322" lon="-2.7533463">
        <ele>154.558</ele>
        <time>2021-04-01T09:11:46.557Z</time>
      </trkpt>
      <trkpt lat="43.1043242" lon="-2.7533523">
        <ele>154.527</ele>
        <time>2021-04-01T09:11:46.609Z</time>
      </trkpt>
      <trkpt lat="43.1043264" lon="-2.7533584">
        <ele>154.522</ele>
        <time>2021-04-01T09:11:46.667Z</time>
      </trkpt>
      <trkpt lat="43.1043288" lon="-2.7533644">
        <ele>154.516</ele>
        <time>2021-04-01T09:11:46.725Z</time>
      </trkpt>
      <trkpt lat="43.1043314" lon="-2.7533704">
        <ele>154.495</ele>
        <time>2021-04-01T09:11:46.783Z</time>
      </trkpt>
      <trkpt lat="43.1043339" lon="-2.7533768">
        <ele>154.442</ele>
        <time>2021-04-01T09:11:46.841Z</time>
      </trkpt>
      <trkpt lat="43.1043363" lon="-2.753383">
        <ele>154.403</ele>
        <time>2021-04-01T09:11:46.899Z</time>
      </trkpt>
      <trkpt lat="43.1043387" lon="-2.7533888">
        <ele>154.358</ele>
        <time>2021-04-01T09:11:46.957Z</time>
      </trkpt>
      <trkpt lat="43.1043409" lon="-2.7533944">
        <ele>154.33</ele>
        <time>2021-04-01T09:11:47.015Z</time>
      </trkpt>
      <trkpt lat="43.1043431" lon="-2.7534">
        <ele>154.256</ele>
        <time>2021-04-01T09:11:47.073Z</time>
      </trkpt>
      <trkpt lat="43.1043455" lon="-2.7534061">
        <ele>154.258</ele>
        <time>2021-04-01T09:11:47.131Z</time>
      </trkpt>
      <trkpt lat="43.104348" lon="-2.7534123">
        <ele>154.21</ele>
        <time>2021-04-01T09:11:47.189Z</time>
      </trkpt>
      <trkpt lat="43.1043505" lon="-2.753418">
        <ele>154.138</ele>
        <time>2021-04-01T09:11:47.247Z</time>
      </trkpt>
      <trkpt lat="43.1043528" lon="-2.7534235">
        <ele>154.058</ele>
        <time>2021-04-01T09:11:47.305Z</time>
      </trkpt>
      <trkpt lat="43.104355" lon="-2.753429">
        <ele>154.006</ele>
        <time>2021-04-01T09:11:47.363Z</time>
      </trkpt>
      <trkpt lat="43.1043575" lon="-2.7534346">
        <ele>154.013</ele>
        <time>2021-04-01T09:11:47.421Z</time>
      </trkpt>
      <trkpt lat="43.1043599" lon="-2.7534401">
        <ele>153.991</ele>
        <time>2021-04-01T09:11:47.479Z</time>
      </trkpt>
      <trkpt lat="43.1043624" lon="-2.7534459">
        <ele>153.98</ele>
        <time>2021-04-01T09:11:47.537Z</time>
      </trkpt>
      <trkpt lat="43.1043648" lon="-2.7534516">
        <ele>153.97</ele>
        <time>2021-04-01T09:11:47.595Z</time>
      </trkpt>
      <trkpt lat="43.1043672" lon="-2.7534572">
        <ele>153.949</ele>
        <time>2021-04-01T09:11:47.654Z</time>
      </trkpt>
      <trkpt lat="43.1043696" lon="-2.7534629">
        <ele>153.94</ele>
        <time>2021-04-01T09:11:47.709Z</time>
      </trkpt>
      <trkpt lat="43.1043723" lon="-2.7534685">
        <ele>153.939</ele>
        <time>2021-04-01T09:11:47.764Z</time>
      </trkpt>
      <trkpt lat="43.1043747" lon="-2.7534741">
        <ele>153.927</ele>
        <time>2021-04-01T09:11:47.819Z</time>
      </trkpt>
      <trkpt lat="43.1043774" lon="-2.7534797">
        <ele>153.946</ele>
        <time>2021-04-01T09:11:47.874Z</time>
      </trkpt>
      <trkpt lat="43.1043798" lon="-2.7534852">
        <ele>153.924</ele>
        <time>2021-04-01T09:11:47.929Z</time>
      </trkpt>
      <trkpt lat="43.1043825" lon="-2.7534909">
        <ele>153.942</ele>
        <time>2021-04-01T09:11:47.984Z</time>
      </trkpt>
      <trkpt lat="43.1043848" lon="-2.7534964">
        <ele>153.889</ele>
        <time>2021-04-01T09:11:48.039Z</time>
      </trkpt>
      <trkpt lat="43.1043873" lon="-2.753502">
        <ele>153.888</ele>
        <time>2021-04-01T09:11:48.094Z</time>
      </trkpt>
      <trkpt lat="43.10439" lon="-2.7535074">
        <ele>153.88</ele>
        <time>2021-04-01T09:11:48.149Z</time>
      </trkpt>
      <trkpt lat="43.1043926" lon="-2.753513">
        <ele>153.87</ele>
        <time>2021-04-01T09:11:48.204Z</time>
      </trkpt>
      <trkpt lat="43.1043952" lon="-2.7535184">
        <ele>153.852</ele>
        <time>2021-04-01T09:11:48.259Z</time>
      </trkpt>
      <trkpt lat="43.104398" lon="-2.753524">
        <ele>153.858</ele>
        <time>2021-04-01T09:11:48.314Z</time>
      </trkpt>
      <trkpt lat="43.1044005" lon="-2.7535294">
        <ele>153.842</ele>
        <time>2021-04-01T09:11:48.369Z</time>
      </trkpt>
      <trkpt lat="43.1044028" lon="-2.7535346">
        <ele>153.768</ele>
        <time>2021-04-01T09:11:48.424Z</time>
      </trkpt>
      <trkpt lat="43.1044053" lon="-2.75354">
        <ele>153.74</ele>
        <time>2021-04-01T09:11:48.479Z</time>
      </trkpt>
      <trkpt lat="43.1044079" lon="-2.7535452">
        <ele>153.698</ele>
        <time>2021-04-01T09:11:48.534Z</time>
      </trkpt>
      <trkpt lat="43.1044107" lon="-2.7535502">
        <ele>153.664</ele>
        <time>2021-04-01T09:11:48.589Z</time>
      </trkpt>
      <trkpt lat="43.1044132" lon="-2.7535546">
        <ele>153.577</ele>
        <time>2021-04-01T09:11:48.644Z</time>
      </trkpt>
      <trkpt lat="43.1044157" lon="-2.7535595">
        <ele>153.517</ele>
        <time>2021-04-01T09:11:48.699Z</time>
      </trkpt>
      <trkpt lat="43.1044183" lon="-2.7535648">
        <ele>153.473</ele>
        <time>2021-04-01T09:11:48.754Z</time>
      </trkpt>
      <trkpt lat="43.1044211" lon="-2.7535702">
        <ele>153.463</ele>
        <time>2021-04-01T09:11:48.809Z</time>
      </trkpt>
      <trkpt lat="43.1044239" lon="-2.7535756">
        <ele>153.455</ele>
        <time>2021-04-01T09:11:48.864Z</time>
      </trkpt>
      <trkpt lat="43.1044265" lon="-2.7535808">
        <ele>153.414</ele>
        <time>2021-04-01T09:11:48.919Z</time>
      </trkpt>
      <trkpt lat="43.1044292" lon="-2.7535858">
        <ele>153.378</ele>
        <time>2021-04-01T09:11:48.974Z</time>
      </trkpt>
      <trkpt lat="43.1044323" lon="-2.7535915">
        <ele>153.415</ele>
        <time>2021-04-01T09:11:49.029Z</time>
      </trkpt>
      <trkpt lat="43.1044351" lon="-2.7535965">
        <ele>153.356</ele>
        <time>2021-04-01T09:11:49.084Z</time>
      </trkpt>
      <trkpt lat="43.1044377" lon="-2.7536011">
        <ele>153.278</ele>
        <time>2021-04-01T09:11:49.139Z</time>
      </trkpt>
      <trkpt lat="43.1044404" lon="-2.7536055">
        <ele>153.198</ele>
        <time>2021-04-01T09:11:49.194Z</time>
      </trkpt>
      <trkpt lat="43.1044433" lon="-2.75361">
        <ele>153.124</ele>
        <time>2021-04-01T09:11:49.249Z</time>
      </trkpt>
      <trkpt lat="43.1044461" lon="-2.7536149">
        <ele>153.095</ele>
        <time>2021-04-01T09:11:49.304Z</time>
      </trkpt>
      <trkpt lat="43.1044488" lon="-2.7536198">
        <ele>153.032</ele>
        <time>2021-04-01T09:11:49.359Z</time>
      </trkpt>
      <trkpt lat="43.1044517" lon="-2.7536244">
        <ele>152.984</ele>
        <time>2021-04-01T09:11:49.414Z</time>
      </trkpt>
      <trkpt lat="43.1044548" lon="-2.7536294">
        <ele>152.963</ele>
        <time>2021-04-01T09:11:49.469Z</time>
      </trkpt>
      <trkpt lat="43.1044578" lon="-2.7536345">
        <ele>152.968</ele>
        <time>2021-04-01T09:11:49.524Z</time>
      </trkpt>
      <trkpt lat="43.1044606" lon="-2.7536395">
        <ele>152.955</ele>
        <time>2021-04-01T09:11:49.579Z</time>
      </trkpt>
      <trkpt lat="43.1044635" lon="-2.7536439">
        <ele>152.876</ele>
        <time>2021-04-01T09:11:49.634Z</time>
      </trkpt>
      <trkpt lat="43.1044662" lon="-2.7536488">
        <ele>152.813</ele>
        <time>2021-04-01T09:11:49.689Z</time>
      </trkpt>
      <trkpt lat="43.1044694" lon="-2.7536533">
        <ele>152.781</ele>
        <time>2021-04-01T09:11:49.744Z</time>
      </trkpt>
      <trkpt lat="43.1044727" lon="-2.7536581">
        <ele>152.782</ele>
        <time>2021-04-01T09:11:49.799Z</time>
      </trkpt>
      <trkpt lat="43.1044759" lon="-2.7536626">
        <ele>152.741</ele>
        <time>2021-04-01T09:11:49.854Z</time>
      </trkpt>
      <trkpt lat="43.1044797" lon="-2.7536671">
        <ele>152.736</ele>
        <time>2021-04-01T09:11:49.909Z</time>
      </trkpt>
      <trkpt lat="43.1044827" lon="-2.7536715">
        <ele>152.693</ele>
        <time>2021-04-01T09:11:49.964Z</time>
      </trkpt>
      <trkpt lat="43.1044853" lon="-2.753676">
        <ele>152.633</ele>
        <time>2021-04-01T09:11:50.019Z</time>
      </trkpt>
      <trkpt lat="43.1044884" lon="-2.7536805">
        <ele>152.589</ele>
        <time>2021-04-01T09:11:50.074Z</time>
      </trkpt>
      <trkpt lat="43.1044917" lon="-2.7536847">
        <ele>152.555</ele>
        <time>2021-04-01T09:11:50.129Z</time>
      </trkpt>
      <trkpt lat="43.1044951" lon="-2.7536887">
        <ele>152.512</ele>
        <time>2021-04-01T09:11:50.184Z</time>
      </trkpt>
      <trkpt lat="43.1044979" lon="-2.7536921">
        <ele>152.357</ele>
        <time>2021-04-01T09:11:50.239Z</time>
      </trkpt>
      <trkpt lat="43.1045012" lon="-2.7536963">
        <ele>152.3</ele>
        <time>2021-04-01T09:11:50.294Z</time>
      </trkpt>
      <trkpt lat="43.1045051" lon="-2.7536998">
        <ele>152.257</ele>
        <time>2021-04-01T09:11:50.349Z</time>
      </trkpt>
      <trkpt lat="43.1045084" lon="-2.7537033">
        <ele>152.175</ele>
        <time>2021-04-01T09:11:50.404Z</time>
      </trkpt>
      <trkpt lat="43.1045113" lon="-2.7537068">
        <ele>152.067</ele>
        <time>2021-04-01T09:11:50.459Z</time>
      </trkpt>
      <trkpt lat="43.1045143" lon="-2.7537108">
        <ele>151.967</ele>
        <time>2021-04-01T09:11:50.514Z</time>
      </trkpt>
      <trkpt lat="43.1045177" lon="-2.7537146">
        <ele>151.897</ele>
        <time>2021-04-01T09:11:50.569Z</time>
      </trkpt>
      <trkpt lat="43.1045212" lon="-2.7537182">
        <ele>151.864</ele>
        <time>2021-04-01T09:11:50.624Z</time>
      </trkpt>
      <trkpt lat="43.104525" lon="-2.753722">
        <ele>151.872</ele>
        <time>2021-04-01T09:11:50.676Z</time>
      </trkpt>
      <trkpt lat="43.1045281" lon="-2.7537262">
        <ele>151.85</ele>
        <time>2021-04-01T09:11:50.728Z</time>
      </trkpt>
      <trkpt lat="43.1045322" lon="-2.75373">
        <ele>151.844</ele>
        <time>2021-04-01T09:11:50.780Z</time>
      </trkpt>
      <trkpt lat="43.1045358" lon="-2.7537337">
        <ele>151.862</ele>
        <time>2021-04-01T09:11:50.832Z</time>
      </trkpt>
      <trkpt lat="43.1045395" lon="-2.7537373">
        <ele>151.829</ele>
        <time>2021-04-01T09:11:50.884Z</time>
      </trkpt>
      <trkpt lat="43.104543" lon="-2.7537407">
        <ele>151.742</ele>
        <time>2021-04-01T09:11:50.936Z</time>
      </trkpt>
      <trkpt lat="43.1045461" lon="-2.7537441">
        <ele>151.663</ele>
        <time>2021-04-01T09:11:50.988Z</time>
      </trkpt>
      <trkpt lat="43.1045494" lon="-2.7537472">
        <ele>151.564</ele>
        <time>2021-04-01T09:11:51.040Z</time>
      </trkpt>
      <trkpt lat="43.1045529" lon="-2.7537503">
        <ele>151.442</ele>
        <time>2021-04-01T09:11:51.092Z</time>
      </trkpt>
      <trkpt lat="43.1045565" lon="-2.7537534">
        <ele>151.326</ele>
        <time>2021-04-01T09:11:51.145Z</time>
      </trkpt>
      <trkpt lat="43.1045595" lon="-2.753757">
        <ele>151.216</ele>
        <time>2021-04-01T09:11:51.197Z</time>
      </trkpt>
      <trkpt lat="43.104563" lon="-2.7537601">
        <ele>151.144</ele>
        <time>2021-04-01T09:11:51.249Z</time>
      </trkpt>
      <trkpt lat="43.1045667" lon="-2.7537628">
        <ele>151.089</ele>
        <time>2021-04-01T09:11:51.301Z</time>
      </trkpt>
      <trkpt lat="43.1045698" lon="-2.7537664">
        <ele>151.045</ele>
        <time>2021-04-01T09:11:51.353Z</time>
      </trkpt>
      <trkpt lat="43.1045731" lon="-2.7537696">
        <ele>150.939</ele>
        <time>2021-04-01T09:11:51.405Z</time>
      </trkpt>
      <trkpt lat="43.1045764" lon="-2.7537726">
        <ele>150.812</ele>
        <time>2021-04-01T09:11:51.457Z</time>
      </trkpt>
      <trkpt lat="43.1045799" lon="-2.7537751">
        <ele>150.682</ele>
        <time>2021-04-01T09:11:51.509Z</time>
      </trkpt>
      <trkpt lat="43.1045831" lon="-2.753778">
        <ele>150.567</ele>
        <time>2021-04-01T09:11:51.561Z</time>
      </trkpt>
      <trkpt lat="43.1045863" lon="-2.7537814">
        <ele>150.488</ele>
        <time>2021-04-01T09:11:51.614Z</time>
      </trkpt>
      <trkpt lat="43.1045895" lon="-2.7537846">
        <ele>150.397</ele>
        <time>2021-04-01T09:11:51.672Z</time>
      </trkpt>
      <trkpt lat="43.1045933" lon="-2.7537882">
        <ele>150.379</ele>
        <time>2021-04-01T09:11:51.730Z</time>
      </trkpt>
      <trkpt lat="43.1045967" lon="-2.7537917">
        <ele>150.373</ele>
        <time>2021-04-01T09:11:51.788Z</time>
      </trkpt>
      <trkpt lat="43.1045998" lon="-2.753795">
        <ele>150.309</ele>
        <time>2021-04-01T09:11:51.846Z</time>
      </trkpt>
      <trkpt lat="43.1046027" lon="-2.7537983">
        <ele>150.226</ele>
        <time>2021-04-01T09:11:51.904Z</time>
      </trkpt>
      <trkpt lat="43.1046058" lon="-2.7538015">
        <ele>150.108</ele>
        <time>2021-04-01T09:11:51.962Z</time>
      </trkpt>
      <trkpt lat="43.1046091" lon="-2.7538042">
        <ele>149.947</ele>
        <time>2021-04-01T09:11:52.020Z</time>
      </trkpt>
      <trkpt lat="43.1046122" lon="-2.7538066">
        <ele>149.747</ele>
        <time>2021-04-01T09:11:52.078Z</time>
      </trkpt>
      <trkpt lat="43.1046155" lon="-2.7538086">
        <ele>149.629</ele>
        <time>2021-04-01T09:11:52.136Z</time>
      </trkpt>
      <trkpt lat="43.1046184" lon="-2.7538114">
        <ele>149.509</ele>
        <time>2021-04-01T09:11:52.194Z</time>
      </trkpt>
      <trkpt lat="43.1046216" lon="-2.7538138">
        <ele>149.398</ele>
        <time>2021-04-01T09:11:52.252Z</time>
      </trkpt>
      <trkpt lat="43.1046246" lon="-2.7538166">
        <ele>149.312</ele>
        <time>2021-04-01T09:11:52.310Z</time>
      </trkpt>
      <trkpt lat="43.1046282" lon="-2.7538196">
        <ele>149.297</ele>
        <time>2021-04-01T09:11:52.368Z</time>
      </trkpt>
      <trkpt lat="43.1046322" lon="-2.7538222">
        <ele>149.283</ele>
        <time>2021-04-01T09:11:52.426Z</time>
      </trkpt>
      <trkpt lat="43.1046359" lon="-2.7538245">
        <ele>149.171</ele>
        <time>2021-04-01T09:11:52.484Z</time>
      </trkpt>
      <trkpt lat="43.1046397" lon="-2.753827">
        <ele>149.083</ele>
        <time>2021-04-01T09:11:52.542Z</time>
      </trkpt>
      <trkpt lat="43.1046436" lon="-2.7538299">
        <ele>149.044</ele>
        <time>2021-04-01T09:11:52.600Z</time>
      </trkpt>
      <trkpt lat="43.1046473" lon="-2.7538328">
        <ele>148.995</ele>
        <time>2021-04-01T09:11:52.659Z</time>
      </trkpt>
      <trkpt lat="43.1046511" lon="-2.7538355">
        <ele>148.948</ele>
        <time>2021-04-01T09:11:52.714Z</time>
      </trkpt>
      <trkpt lat="43.1046549" lon="-2.7538386">
        <ele>148.926</ele>
        <time>2021-04-01T09:11:52.769Z</time>
      </trkpt>
      <trkpt lat="43.1046585" lon="-2.7538417">
        <ele>148.89</ele>
        <time>2021-04-01T09:11:52.824Z</time>
      </trkpt>
      <trkpt lat="43.1046624" lon="-2.753845">
        <ele>148.896</ele>
        <time>2021-04-01T09:11:52.879Z</time>
      </trkpt>
      <trkpt lat="43.104666" lon="-2.753848">
        <ele>148.824</ele>
        <time>2021-04-01T09:11:52.934Z</time>
      </trkpt>
      <trkpt lat="43.1046698" lon="-2.7538513">
        <ele>148.802</ele>
        <time>2021-04-01T09:11:52.989Z</time>
      </trkpt>
      <trkpt lat="43.1046732" lon="-2.7538545">
        <ele>148.735</ele>
        <time>2021-04-01T09:11:53.044Z</time>
      </trkpt>
      <trkpt lat="43.1046769" lon="-2.7538575">
        <ele>148.69</ele>
        <time>2021-04-01T09:11:53.099Z</time>
      </trkpt>
      <trkpt lat="43.1046803" lon="-2.7538606">
        <ele>148.625</ele>
        <time>2021-04-01T09:11:53.154Z</time>
      </trkpt>
      <trkpt lat="43.1046844" lon="-2.7538635">
        <ele>148.57</ele>
        <time>2021-04-01T09:11:53.209Z</time>
      </trkpt>
      <trkpt lat="43.1046885" lon="-2.7538666">
        <ele>148.551</ele>
        <time>2021-04-01T09:11:53.264Z</time>
      </trkpt>
      <trkpt lat="43.1046924" lon="-2.7538701">
        <ele>148.57</ele>
        <time>2021-04-01T09:11:53.319Z</time>
      </trkpt>
      <trkpt lat="43.1046962" lon="-2.7538733">
        <ele>148.535</ele>
        <time>2021-04-01T09:11:53.374Z</time>
      </trkpt>
      <trkpt lat="43.1046997" lon="-2.7538767">
        <ele>148.486</ele>
        <time>2021-04-01T09:11:53.429Z</time>
      </trkpt>
      <trkpt lat="43.1047036" lon="-2.7538799">
        <ele>148.428</ele>
        <time>2021-04-01T09:11:53.484Z</time>
      </trkpt>
      <trkpt lat="43.1047083" lon="-2.7538834">
        <ele>148.459</ele>
        <time>2021-04-01T09:11:53.539Z</time>
      </trkpt>
      <trkpt lat="43.104712" lon="-2.7538865">
        <ele>148.435</ele>
        <time>2021-04-01T09:11:53.594Z</time>
      </trkpt>
      <trkpt lat="43.1047152" lon="-2.7538896">
        <ele>148.387</ele>
        <time>2021-04-01T09:11:53.649Z</time>
      </trkpt>
      <trkpt lat="43.1047191" lon="-2.7538927">
        <ele>148.333</ele>
        <time>2021-04-01T09:11:53.704Z</time>
      </trkpt>
      <trkpt lat="43.1047231" lon="-2.7538954">
        <ele>148.267</ele>
        <time>2021-04-01T09:11:53.759Z</time>
      </trkpt>
      <trkpt lat="43.1047269" lon="-2.7538979">
        <ele>148.186</ele>
        <time>2021-04-01T09:11:53.814Z</time>
      </trkpt>
      <trkpt lat="43.1047306" lon="-2.7539008">
        <ele>148.139</ele>
        <time>2021-04-01T09:11:53.869Z</time>
      </trkpt>
      <trkpt lat="43.1047339" lon="-2.7539037">
        <ele>148.098</ele>
        <time>2021-04-01T09:11:53.924Z</time>
      </trkpt>
      <trkpt lat="43.1047369" lon="-2.753906">
        <ele>148.055</ele>
        <time>2021-04-01T09:11:53.979Z</time>
      </trkpt>
      <trkpt lat="43.1047403" lon="-2.753908">
        <ele>147.968</ele>
        <time>2021-04-01T09:11:54.034Z</time>
      </trkpt>
      <trkpt lat="43.1047435" lon="-2.7539103">
        <ele>147.888</ele>
        <time>2021-04-01T09:11:54.089Z</time>
      </trkpt>
      <trkpt lat="43.104747" lon="-2.7539123">
        <ele>147.811</ele>
        <time>2021-04-01T09:11:54.144Z</time>
      </trkpt>
      <trkpt lat="43.10475" lon="-2.7539133">
        <ele>147.684</ele>
        <time>2021-04-01T09:11:54.199Z</time>
      </trkpt>
      <trkpt lat="43.1047527" lon="-2.7539155">
        <ele>147.592</ele>
        <time>2021-04-01T09:11:54.254Z</time>
      </trkpt>
      <trkpt lat="43.1047556" lon="-2.7539175">
        <ele>147.546</ele>
        <time>2021-04-01T09:11:54.309Z</time>
      </trkpt>
      <trkpt lat="43.1047595" lon="-2.7539208">
        <ele>147.544</ele>
        <time>2021-04-01T09:11:54.364Z</time>
      </trkpt>
      <trkpt lat="43.1047634" lon="-2.7539241">
        <ele>147.538</ele>
        <time>2021-04-01T09:11:54.419Z</time>
      </trkpt>
      <trkpt lat="43.1047672" lon="-2.753927">
        <ele>147.55</ele>
        <time>2021-04-01T09:11:54.474Z</time>
      </trkpt>
      <trkpt lat="43.1047713" lon="-2.7539301">
        <ele>147.584</ele>
        <time>2021-04-01T09:11:54.529Z</time>
      </trkpt>
      <trkpt lat="43.1047753" lon="-2.753933">
        <ele>147.55</ele>
        <time>2021-04-01T09:11:54.584Z</time>
      </trkpt>
      <trkpt lat="43.1047793" lon="-2.7539365">
        <ele>147.573</ele>
        <time>2021-04-01T09:11:54.639Z</time>
      </trkpt>
      <trkpt lat="43.1047831" lon="-2.7539397">
        <ele>147.57</ele>
        <time>2021-04-01T09:11:54.691Z</time>
      </trkpt>
      <trkpt lat="43.1047869" lon="-2.753943">
        <ele>147.62</ele>
        <time>2021-04-01T09:11:54.743Z</time>
      </trkpt>
      <trkpt lat="43.1047906" lon="-2.7539462">
        <ele>147.694</ele>
        <time>2021-04-01T09:11:54.795Z</time>
      </trkpt>
      <trkpt lat="43.1047939" lon="-2.7539492">
        <ele>147.74</ele>
        <time>2021-04-01T09:11:54.847Z</time>
      </trkpt>
      <trkpt lat="43.1047979" lon="-2.7539529">
        <ele>147.843</ele>
        <time>2021-04-01T09:11:54.899Z</time>
      </trkpt>
      <trkpt lat="43.1048019" lon="-2.7539565">
        <ele>147.977</ele>
        <time>2021-04-01T09:11:54.951Z</time>
      </trkpt>
      <trkpt lat="43.1048055" lon="-2.7539594">
        <ele>147.955</ele>
        <time>2021-04-01T09:11:55.003Z</time>
      </trkpt>
      <trkpt lat="43.1048091" lon="-2.7539619">
        <ele>147.884</ele>
        <time>2021-04-01T09:11:55.055Z</time>
      </trkpt>
      <trkpt lat="43.1048134" lon="-2.7539649">
        <ele>147.936</ele>
        <time>2021-04-01T09:11:55.107Z</time>
      </trkpt>
      <trkpt lat="43.104817" lon="-2.7539678">
        <ele>147.916</ele>
        <time>2021-04-01T09:11:55.160Z</time>
      </trkpt>
      <trkpt lat="43.104821" lon="-2.7539706">
        <ele>147.964</ele>
        <time>2021-04-01T09:11:55.212Z</time>
      </trkpt>
      <trkpt lat="43.1048251" lon="-2.7539738">
        <ele>148.011</ele>
        <time>2021-04-01T09:11:55.264Z</time>
      </trkpt>
      <trkpt lat="43.1048287" lon="-2.7539764">
        <ele>148.141</ele>
        <time>2021-04-01T09:11:55.316Z</time>
      </trkpt>
      <trkpt lat="43.1048329" lon="-2.7539799">
        <ele>148.301</ele>
        <time>2021-04-01T09:11:55.368Z</time>
      </trkpt>
      <trkpt lat="43.1048376" lon="-2.7539835">
        <ele>148.423</ele>
        <time>2021-04-01T09:11:55.420Z</time>
      </trkpt>
      <trkpt lat="43.1048419" lon="-2.7539866">
        <ele>148.475</ele>
        <time>2021-04-01T09:11:55.472Z</time>
      </trkpt>
      <trkpt lat="43.1048461" lon="-2.7539902">
        <ele>148.492</ele>
        <time>2021-04-01T09:11:55.524Z</time>
      </trkpt>
      <trkpt lat="43.1048502" lon="-2.7539929">
        <ele>148.557</ele>
        <time>2021-04-01T09:11:55.576Z</time>
      </trkpt>
      <trkpt lat="43.104853" lon="-2.7539938">
        <ele>148.45</ele>
        <time>2021-04-01T09:11:55.629Z</time>
      </trkpt>
      <trkpt lat="43.1048564" lon="-2.753996">
        <ele>148.338</ele>
        <time>2021-04-01T09:11:55.687Z</time>
      </trkpt>
      <trkpt lat="43.1048602" lon="-2.7539985">
        <ele>148.356</ele>
        <time>2021-04-01T09:11:55.745Z</time>
      </trkpt>
      <trkpt lat="43.1048639" lon="-2.7540012">
        <ele>148.353</ele>
        <time>2021-04-01T09:11:55.803Z</time>
      </trkpt>
      <trkpt lat="43.1048676" lon="-2.7540038">
        <ele>148.307</ele>
        <time>2021-04-01T09:11:55.861Z</time>
      </trkpt>
      <trkpt lat="43.1048713" lon="-2.7540065">
        <ele>148.303</ele>
        <time>2021-04-01T09:11:55.919Z</time>
      </trkpt>
      <trkpt lat="43.1048751" lon="-2.7540085">
        <ele>148.357</ele>
        <time>2021-04-01T09:11:55.977Z</time>
      </trkpt>
      <trkpt lat="43.1048788" lon="-2.7540109">
        <ele>148.375</ele>
        <time>2021-04-01T09:11:56.035Z</time>
      </trkpt>
      <trkpt lat="43.1048828" lon="-2.7540135">
        <ele>148.382</ele>
        <time>2021-04-01T09:11:56.093Z</time>
      </trkpt>
      <trkpt lat="43.104887" lon="-2.7540164">
        <ele>148.379</ele>
        <time>2021-04-01T09:11:56.151Z</time>
      </trkpt>
      <trkpt lat="43.1048903" lon="-2.754018">
        <ele>148.393</ele>
        <time>2021-04-01T09:11:56.209Z</time>
      </trkpt>
      <trkpt lat="43.1048941" lon="-2.7540197">
        <ele>148.461</ele>
        <time>2021-04-01T09:11:56.267Z</time>
      </trkpt>
      <trkpt lat="43.1048979" lon="-2.7540215">
        <ele>148.463</ele>
        <time>2021-04-01T09:11:56.325Z</time>
      </trkpt>
      <trkpt lat="43.1049019" lon="-2.7540229">
        <ele>148.386</ele>
        <time>2021-04-01T09:11:56.383Z</time>
      </trkpt>
      <trkpt lat="43.1049058" lon="-2.7540248">
        <ele>148.339</ele>
        <time>2021-04-01T09:11:56.441Z</time>
      </trkpt>
      <trkpt lat="43.1049093" lon="-2.7540261">
        <ele>148.254</ele>
        <time>2021-04-01T09:11:56.499Z</time>
      </trkpt>
      <trkpt lat="43.1049132" lon="-2.7540283">
        <ele>148.2</ele>
        <time>2021-04-01T09:11:56.557Z</time>
      </trkpt>
      <trkpt lat="43.1049173" lon="-2.7540307">
        <ele>148.225</ele>
        <time>2021-04-01T09:11:56.615Z</time>
      </trkpt>
      <trkpt lat="43.1049218" lon="-2.7540335">
        <ele>148.424</ele>
        <time>2021-04-01T09:11:56.674Z</time>
      </trkpt>
      <trkpt lat="43.1049258" lon="-2.7540357">
        <ele>148.598</ele>
        <time>2021-04-01T09:11:56.735Z</time>
      </trkpt>
      <trkpt lat="43.1049296" lon="-2.7540375">
        <ele>148.605</ele>
        <time>2021-04-01T09:11:56.796Z</time>
      </trkpt>
      <trkpt lat="43.1049334" lon="-2.7540395">
        <ele>148.601</ele>
        <time>2021-04-01T09:11:56.858Z</time>
      </trkpt>
      <trkpt lat="43.1049373" lon="-2.7540417">
        <ele>148.637</ele>
        <time>2021-04-01T09:11:56.919Z</time>
      </trkpt>
      <trkpt lat="43.1049414" lon="-2.7540436">
        <ele>148.724</ele>
        <time>2021-04-01T09:11:56.981Z</time>
      </trkpt>
      <trkpt lat="43.1049455" lon="-2.7540454">
        <ele>148.727</ele>
        <time>2021-04-01T09:11:57.042Z</time>
      </trkpt>
      <trkpt lat="43.1049493" lon="-2.7540471">
        <ele>148.683</ele>
        <time>2021-04-01T09:11:57.104Z</time>
      </trkpt>
      <trkpt lat="43.1049533" lon="-2.754049">
        <ele>148.686</ele>
        <time>2021-04-01T09:11:57.165Z</time>
      </trkpt>
      <trkpt lat="43.1049573" lon="-2.7540508">
        <ele>148.725</ele>
        <time>2021-04-01T09:11:57.227Z</time>
      </trkpt>
      <trkpt lat="43.1049611" lon="-2.7540528">
        <ele>148.628</ele>
        <time>2021-04-01T09:11:57.288Z</time>
      </trkpt>
      <trkpt lat="43.104965" lon="-2.7540545">
        <ele>148.672</ele>
        <time>2021-04-01T09:11:57.350Z</time>
      </trkpt>
      <trkpt lat="43.1049691" lon="-2.7540564">
        <ele>148.829</ele>
        <time>2021-04-01T09:11:57.411Z</time>
      </trkpt>
      <trkpt lat="43.104973" lon="-2.7540583">
        <ele>148.929</ele>
        <time>2021-04-01T09:11:57.473Z</time>
      </trkpt>
      <trkpt lat="43.1049769" lon="-2.7540598">
        <ele>148.901</ele>
        <time>2021-04-01T09:11:57.534Z</time>
      </trkpt>
      <trkpt lat="43.104981" lon="-2.7540612">
        <ele>148.89</ele>
        <time>2021-04-01T09:11:57.596Z</time>
      </trkpt>
      <trkpt lat="43.1049852" lon="-2.7540632">
        <ele>149.062</ele>
        <time>2021-04-01T09:11:57.657Z</time>
      </trkpt>
      <trkpt lat="43.1049892" lon="-2.7540652">
        <ele>149.15</ele>
        <time>2021-04-01T09:11:57.719Z</time>
      </trkpt>
      <trkpt lat="43.1049934" lon="-2.7540669">
        <ele>149.179</ele>
        <time>2021-04-01T09:11:57.768Z</time>
      </trkpt>
      <trkpt lat="43.1049973" lon="-2.754068">
        <ele>149.119</ele>
        <time>2021-04-01T09:11:57.817Z</time>
      </trkpt>
      <trkpt lat="43.1050011" lon="-2.7540687">
        <ele>149.02</ele>
        <time>2021-04-01T09:11:57.866Z</time>
      </trkpt>
      <trkpt lat="43.1050053" lon="-2.75407">
        <ele>148.997</ele>
        <time>2021-04-01T09:11:57.915Z</time>
      </trkpt>
      <trkpt lat="43.1050093" lon="-2.7540709">
        <ele>148.849</ele>
        <time>2021-04-01T09:11:57.965Z</time>
      </trkpt>
      <trkpt lat="43.1050137" lon="-2.7540725">
        <ele>148.91</ele>
        <time>2021-04-01T09:11:58.014Z</time>
      </trkpt>
      <trkpt lat="43.1050179" lon="-2.7540739">
        <ele>148.941</ele>
        <time>2021-04-01T09:11:58.063Z</time>
      </trkpt>
      <trkpt lat="43.1050221" lon="-2.7540759">
        <ele>149.049</ele>
        <time>2021-04-01T09:11:58.112Z</time>
      </trkpt>
      <trkpt lat="43.1050263" lon="-2.7540782">
        <ele>149.129</ele>
        <time>2021-04-01T09:11:58.161Z</time>
      </trkpt>
      <trkpt lat="43.1050302" lon="-2.75408">
        <ele>149.167</ele>
        <time>2021-04-01T09:11:58.211Z</time>
      </trkpt>
      <trkpt lat="43.1050344" lon="-2.7540817">
        <ele>149.253</ele>
        <time>2021-04-01T09:11:58.260Z</time>
      </trkpt>
      <trkpt lat="43.1050386" lon="-2.7540829">
        <ele>149.346</ele>
        <time>2021-04-01T09:11:58.309Z</time>
      </trkpt>
      <trkpt lat="43.1050426" lon="-2.7540841">
        <ele>149.285</ele>
        <time>2021-04-01T09:11:58.358Z</time>
      </trkpt>
      <trkpt lat="43.1050467" lon="-2.7540856">
        <ele>149.241</ele>
        <time>2021-04-01T09:11:58.407Z</time>
      </trkpt>
      <trkpt lat="43.1050509" lon="-2.7540868">
        <ele>149.289</ele>
        <time>2021-04-01T09:11:58.457Z</time>
      </trkpt>
      <trkpt lat="43.1050547" lon="-2.7540879">
        <ele>149.23</ele>
        <time>2021-04-01T09:11:58.506Z</time>
      </trkpt>
      <trkpt lat="43.1050589" lon="-2.7540892">
        <ele>149.276</ele>
        <time>2021-04-01T09:11:58.555Z</time>
      </trkpt>
      <trkpt lat="43.1050631" lon="-2.754091">
        <ele>149.316</ele>
        <time>2021-04-01T09:11:58.604Z</time>
      </trkpt>
      <trkpt lat="43.1050671" lon="-2.7540921">
        <ele>149.341</ele>
        <time>2021-04-01T09:11:58.654Z</time>
      </trkpt>
      <trkpt lat="43.105071" lon="-2.7540931">
        <ele>149.276</ele>
        <time>2021-04-01T09:11:58.709Z</time>
      </trkpt>
      <trkpt lat="43.1050751" lon="-2.7540941">
        <ele>149.272</ele>
        <time>2021-04-01T09:11:58.764Z</time>
      </trkpt>
      <trkpt lat="43.105079" lon="-2.754095">
        <ele>149.217</ele>
        <time>2021-04-01T09:11:58.819Z</time>
      </trkpt>
      <trkpt lat="43.105083" lon="-2.7540963">
        <ele>149.167</ele>
        <time>2021-04-01T09:11:58.874Z</time>
      </trkpt>
      <trkpt lat="43.1050874" lon="-2.7540979">
        <ele>149.237</ele>
        <time>2021-04-01T09:11:58.929Z</time>
      </trkpt>
      <trkpt lat="43.1050915" lon="-2.7540992">
        <ele>149.196</ele>
        <time>2021-04-01T09:11:58.984Z</time>
      </trkpt>
      <trkpt lat="43.1050956" lon="-2.7541012">
        <ele>149.246</ele>
        <time>2021-04-01T09:11:59.039Z</time>
      </trkpt>
      <trkpt lat="43.1050996" lon="-2.7541026">
        <ele>149.203</ele>
        <time>2021-04-01T09:11:59.094Z</time>
      </trkpt>
      <trkpt lat="43.1051037" lon="-2.7541038">
        <ele>149.219</ele>
        <time>2021-04-01T09:11:59.149Z</time>
      </trkpt>
      <trkpt lat="43.1051078" lon="-2.7541049">
        <ele>149.263</ele>
        <time>2021-04-01T09:11:59.204Z</time>
      </trkpt>
      <trkpt lat="43.1051121" lon="-2.7541062">
        <ele>149.272</ele>
        <time>2021-04-01T09:11:59.259Z</time>
      </trkpt>
      <trkpt lat="43.1051163" lon="-2.7541076">
        <ele>149.251</ele>
        <time>2021-04-01T09:11:59.314Z</time>
      </trkpt>
      <trkpt lat="43.1051208" lon="-2.7541089">
        <ele>149.294</ele>
        <time>2021-04-01T09:11:59.369Z</time>
      </trkpt>
      <trkpt lat="43.1051251" lon="-2.75411">
        <ele>149.354</ele>
        <time>2021-04-01T09:11:59.424Z</time>
      </trkpt>
      <trkpt lat="43.1051293" lon="-2.7541111">
        <ele>149.371</ele>
        <time>2021-04-01T09:11:59.479Z</time>
      </trkpt>
      <trkpt lat="43.1051335" lon="-2.7541123">
        <ele>149.411</ele>
        <time>2021-04-01T09:11:59.534Z</time>
      </trkpt>
      <trkpt lat="43.1051375" lon="-2.7541137">
        <ele>149.414</ele>
        <time>2021-04-01T09:11:59.589Z</time>
      </trkpt>
      <trkpt lat="43.1051416" lon="-2.7541153">
        <ele>149.388</ele>
        <time>2021-04-01T09:11:59.644Z</time>
      </trkpt>
      <trkpt lat="43.1051456" lon="-2.7541168">
        <ele>149.344</ele>
        <time>2021-04-01T09:11:59.699Z</time>
      </trkpt>
      <trkpt lat="43.1051495" lon="-2.7541185">
        <ele>149.322</ele>
        <time>2021-04-01T09:11:59.754Z</time>
      </trkpt>
      <trkpt lat="43.1051535" lon="-2.7541202">
        <ele>149.333</ele>
        <time>2021-04-01T09:11:59.809Z</time>
      </trkpt>
      <trkpt lat="43.1051574" lon="-2.7541217">
        <ele>149.337</ele>
        <time>2021-04-01T09:11:59.864Z</time>
      </trkpt>
      <trkpt lat="43.1051613" lon="-2.7541232">
        <ele>149.337</ele>
        <time>2021-04-01T09:11:59.919Z</time>
      </trkpt>
      <trkpt lat="43.1051653" lon="-2.7541248">
        <ele>149.311</ele>
        <time>2021-04-01T09:11:59.974Z</time>
      </trkpt>
      <trkpt lat="43.1051693" lon="-2.7541259">
        <ele>149.319</ele>
        <time>2021-04-01T09:12:00.029Z</time>
      </trkpt>
      <trkpt lat="43.1051733" lon="-2.7541274">
        <ele>149.324</ele>
        <time>2021-04-01T09:12:00.084Z</time>
      </trkpt>
      <trkpt lat="43.1051774" lon="-2.7541291">
        <ele>149.322</ele>
        <time>2021-04-01T09:12:00.139Z</time>
      </trkpt>
      <trkpt lat="43.1051815" lon="-2.7541309">
        <ele>149.358</ele>
        <time>2021-04-01T09:12:00.194Z</time>
      </trkpt>
      <trkpt lat="43.1051854" lon="-2.7541329">
        <ele>149.387</ele>
        <time>2021-04-01T09:12:00.249Z</time>
      </trkpt>
      <trkpt lat="43.1051894" lon="-2.7541348">
        <ele>149.403</ele>
        <time>2021-04-01T09:12:00.304Z</time>
      </trkpt>
      <trkpt lat="43.1051934" lon="-2.7541367">
        <ele>149.373</ele>
        <time>2021-04-01T09:12:00.359Z</time>
      </trkpt>
      <trkpt lat="43.1051974" lon="-2.7541385">
        <ele>149.353</ele>
        <time>2021-04-01T09:12:00.414Z</time>
      </trkpt>
      <trkpt lat="43.1052014" lon="-2.75414">
        <ele>149.331</ele>
        <time>2021-04-01T09:12:00.469Z</time>
      </trkpt>
      <trkpt lat="43.1052054" lon="-2.7541417">
        <ele>149.346</ele>
        <time>2021-04-01T09:12:00.524Z</time>
      </trkpt>
      <trkpt lat="43.1052095" lon="-2.7541438">
        <ele>149.381</ele>
        <time>2021-04-01T09:12:00.579Z</time>
      </trkpt>
      <trkpt lat="43.1052135" lon="-2.7541457">
        <ele>149.397</ele>
        <time>2021-04-01T09:12:00.634Z</time>
      </trkpt>
      <trkpt lat="43.1052176" lon="-2.7541477">
        <ele>149.408</ele>
        <time>2021-04-01T09:12:00.689Z</time>
      </trkpt>
      <trkpt lat="43.1052217" lon="-2.7541497">
        <ele>149.432</ele>
        <time>2021-04-01T09:12:00.744Z</time>
      </trkpt>
      <trkpt lat="43.1052254" lon="-2.7541511">
        <ele>149.404</ele>
        <time>2021-04-01T09:12:00.799Z</time>
      </trkpt>
      <trkpt lat="43.1052294" lon="-2.7541525">
        <ele>149.381</ele>
        <time>2021-04-01T09:12:00.854Z</time>
      </trkpt>
      <trkpt lat="43.1052334" lon="-2.7541536">
        <ele>149.351</ele>
        <time>2021-04-01T09:12:00.909Z</time>
      </trkpt>
      <trkpt lat="43.1052374" lon="-2.7541548">
        <ele>149.314</ele>
        <time>2021-04-01T09:12:00.964Z</time>
      </trkpt>
      <trkpt lat="43.1052411" lon="-2.7541564">
        <ele>149.255</ele>
        <time>2021-04-01T09:12:01.019Z</time>
      </trkpt>
      <trkpt lat="43.1052449" lon="-2.7541583">
        <ele>149.266</ele>
        <time>2021-04-01T09:12:01.074Z</time>
      </trkpt>
      <trkpt lat="43.1052484" lon="-2.7541603">
        <ele>149.229</ele>
        <time>2021-04-01T09:12:01.129Z</time>
      </trkpt>
      <trkpt lat="43.1052522" lon="-2.7541621">
        <ele>149.225</ele>
        <time>2021-04-01T09:12:01.184Z</time>
      </trkpt>
      <trkpt lat="43.105256" lon="-2.7541637">
        <ele>149.196</ele>
        <time>2021-04-01T09:12:01.239Z</time>
      </trkpt>
      <trkpt lat="43.1052599" lon="-2.7541651">
        <ele>149.185</ele>
        <time>2021-04-01T09:12:01.294Z</time>
      </trkpt>
      <trkpt lat="43.1052638" lon="-2.7541665">
        <ele>149.14</ele>
        <time>2021-04-01T09:12:01.349Z</time>
      </trkpt>
      <trkpt lat="43.1052675" lon="-2.7541678">
        <ele>149.102</ele>
        <time>2021-04-01T09:12:01.404Z</time>
      </trkpt>
      <trkpt lat="43.1052713" lon="-2.7541696">
        <ele>149.136</ele>
        <time>2021-04-01T09:12:01.459Z</time>
      </trkpt>
      <trkpt lat="43.1052752" lon="-2.7541711">
        <ele>149.112</ele>
        <time>2021-04-01T09:12:01.514Z</time>
      </trkpt>
      <trkpt lat="43.1052791" lon="-2.7541725">
        <ele>149.113</ele>
        <time>2021-04-01T09:12:01.569Z</time>
      </trkpt>
      <trkpt lat="43.1052832" lon="-2.754174">
        <ele>149.129</ele>
        <time>2021-04-01T09:12:01.624Z</time>
      </trkpt>
      <trkpt lat="43.1052869" lon="-2.7541754">
        <ele>149.107</ele>
        <time>2021-04-01T09:12:01.679Z</time>
      </trkpt>
      <trkpt lat="43.1052908" lon="-2.7541769">
        <ele>149.114</ele>
        <time>2021-04-01T09:12:01.734Z</time>
      </trkpt>
      <trkpt lat="43.1052947" lon="-2.7541787">
        <ele>149.139</ele>
        <time>2021-04-01T09:12:01.789Z</time>
      </trkpt>
      <trkpt lat="43.1052984" lon="-2.7541803">
        <ele>149.128</ele>
        <time>2021-04-01T09:12:01.844Z</time>
      </trkpt>
      <trkpt lat="43.1053024" lon="-2.7541817">
        <ele>149.102</ele>
        <time>2021-04-01T09:12:01.899Z</time>
      </trkpt>
      <trkpt lat="43.1053063" lon="-2.7541832">
        <ele>149.079</ele>
        <time>2021-04-01T09:12:01.954Z</time>
      </trkpt>
      <trkpt lat="43.1053102" lon="-2.7541847">
        <ele>149.081</ele>
        <time>2021-04-01T09:12:02.009Z</time>
      </trkpt>
      <trkpt lat="43.1053143" lon="-2.7541861">
        <ele>149.148</ele>
        <time>2021-04-01T09:12:02.064Z</time>
      </trkpt>
      <trkpt lat="43.1053179" lon="-2.7541873">
        <ele>149.115</ele>
        <time>2021-04-01T09:12:02.119Z</time>
      </trkpt>
      <trkpt lat="43.1053218" lon="-2.7541884">
        <ele>149.11</ele>
        <time>2021-04-01T09:12:02.174Z</time>
      </trkpt>
      <trkpt lat="43.1053256" lon="-2.7541896">
        <ele>149.089</ele>
        <time>2021-04-01T09:12:02.229Z</time>
      </trkpt>
      <trkpt lat="43.1053294" lon="-2.7541908">
        <ele>149.05</ele>
        <time>2021-04-01T09:12:02.284Z</time>
      </trkpt>
      <trkpt lat="43.1053335" lon="-2.7541922">
        <ele>149.076</ele>
        <time>2021-04-01T09:12:02.339Z</time>
      </trkpt>
      <trkpt lat="43.1053375" lon="-2.7541933">
        <ele>149.103</ele>
        <time>2021-04-01T09:12:02.394Z</time>
      </trkpt>
      <trkpt lat="43.1053414" lon="-2.7541946">
        <ele>149.139</ele>
        <time>2021-04-01T09:12:02.449Z</time>
      </trkpt>
      <trkpt lat="43.1053451" lon="-2.7541955">
        <ele>149.141</ele>
        <time>2021-04-01T09:12:02.504Z</time>
      </trkpt>
      <trkpt lat="43.1053491" lon="-2.7541965">
        <ele>149.123</ele>
        <time>2021-04-01T09:12:02.559Z</time>
      </trkpt>
      <trkpt lat="43.1053531" lon="-2.7541978">
        <ele>149.139</ele>
        <time>2021-04-01T09:12:02.614Z</time>
      </trkpt>
      <trkpt lat="43.105357" lon="-2.7541994">
        <ele>149.157</ele>
        <time>2021-04-01T09:12:02.669Z</time>
      </trkpt>
      <trkpt lat="43.1053607" lon="-2.7542009">
        <ele>149.164</ele>
        <time>2021-04-01T09:12:02.724Z</time>
      </trkpt>
      <trkpt lat="43.1053646" lon="-2.7542022">
        <ele>149.176</ele>
        <time>2021-04-01T09:12:02.779Z</time>
      </trkpt>
      <trkpt lat="43.1053684" lon="-2.7542034">
        <ele>149.15</ele>
        <time>2021-04-01T09:12:02.834Z</time>
      </trkpt>
      <trkpt lat="43.1053723" lon="-2.7542047">
        <ele>149.177</ele>
        <time>2021-04-01T09:12:02.889Z</time>
      </trkpt>
      <trkpt lat="43.1053763" lon="-2.7542061">
        <ele>149.229</ele>
        <time>2021-04-01T09:12:02.944Z</time>
      </trkpt>
      <trkpt lat="43.1053802" lon="-2.7542073">
        <ele>149.247</ele>
        <time>2021-04-01T09:12:02.999Z</time>
      </trkpt>
      <trkpt lat="43.105384" lon="-2.7542088">
        <ele>149.273</ele>
        <time>2021-04-01T09:12:03.054Z</time>
      </trkpt>
      <trkpt lat="43.1053876" lon="-2.7542102">
        <ele>149.31</ele>
        <time>2021-04-01T09:12:03.109Z</time>
      </trkpt>
      <trkpt lat="43.1053917" lon="-2.7542115">
        <ele>149.354</ele>
        <time>2021-04-01T09:12:03.164Z</time>
      </trkpt>
      <trkpt lat="43.1053957" lon="-2.7542129">
        <ele>149.362</ele>
        <time>2021-04-01T09:12:03.219Z</time>
      </trkpt>
      <trkpt lat="43.1053996" lon="-2.7542144">
        <ele>149.359</ele>
        <time>2021-04-01T09:12:03.274Z</time>
      </trkpt>
      <trkpt lat="43.1054032" lon="-2.7542164">
        <ele>149.346</ele>
        <time>2021-04-01T09:12:03.329Z</time>
      </trkpt>
      <trkpt lat="43.105407" lon="-2.7542183">
        <ele>149.376</ele>
        <time>2021-04-01T09:12:03.384Z</time>
      </trkpt>
      <trkpt lat="43.1054106" lon="-2.7542202">
        <ele>149.394</ele>
        <time>2021-04-01T09:12:03.439Z</time>
      </trkpt>
      <trkpt lat="43.105414" lon="-2.7542223">
        <ele>149.425</ele>
        <time>2021-04-01T09:12:03.494Z</time>
      </trkpt>
      <trkpt lat="43.1054178" lon="-2.7542245">
        <ele>149.396</ele>
        <time>2021-04-01T09:12:03.549Z</time>
      </trkpt>
      <trkpt lat="43.1054216" lon="-2.7542268">
        <ele>149.36</ele>
        <time>2021-04-01T09:12:03.604Z</time>
      </trkpt>
      <trkpt lat="43.105425" lon="-2.7542289">
        <ele>149.351</ele>
        <time>2021-04-01T09:12:03.659Z</time>
      </trkpt>
      <trkpt lat="43.1054287" lon="-2.7542311">
        <ele>149.344</ele>
        <time>2021-04-01T09:12:03.714Z</time>
      </trkpt>
      <trkpt lat="43.1054325" lon="-2.7542338">
        <ele>149.405</ele>
        <time>2021-04-01T09:12:03.769Z</time>
      </trkpt>
      <trkpt lat="43.1054361" lon="-2.7542362">
        <ele>149.42</ele>
        <time>2021-04-01T09:12:03.824Z</time>
      </trkpt>
      <trkpt lat="43.1054397" lon="-2.7542382">
        <ele>149.403</ele>
        <time>2021-04-01T09:12:03.879Z</time>
      </trkpt>
      <trkpt lat="43.1054431" lon="-2.7542403">
        <ele>149.373</ele>
        <time>2021-04-01T09:12:03.934Z</time>
      </trkpt>
      <trkpt lat="43.1054465" lon="-2.7542427">
        <ele>149.339</ele>
        <time>2021-04-01T09:12:03.989Z</time>
      </trkpt>
      <trkpt lat="43.10545" lon="-2.754245">
        <ele>149.334</ele>
        <time>2021-04-01T09:12:04.044Z</time>
      </trkpt>
      <trkpt lat="43.1054537" lon="-2.7542472">
        <ele>149.342</ele>
        <time>2021-04-01T09:12:04.099Z</time>
      </trkpt>
      <trkpt lat="43.1054573" lon="-2.7542494">
        <ele>149.343</ele>
        <time>2021-04-01T09:12:04.154Z</time>
      </trkpt>
      <trkpt lat="43.1054609" lon="-2.7542518">
        <ele>149.324</ele>
        <time>2021-04-01T09:12:04.209Z</time>
      </trkpt>
      <trkpt lat="43.1054644" lon="-2.7542542">
        <ele>149.319</ele>
        <time>2021-04-01T09:12:04.264Z</time>
      </trkpt>
      <trkpt lat="43.1054681" lon="-2.7542564">
        <ele>149.298</ele>
        <time>2021-04-01T09:12:04.319Z</time>
      </trkpt>
      <trkpt lat="43.1054716" lon="-2.7542587">
        <ele>149.3</ele>
        <time>2021-04-01T09:12:04.374Z</time>
      </trkpt>
      <trkpt lat="43.1054751" lon="-2.754261">
        <ele>149.348</ele>
        <time>2021-04-01T09:12:04.429Z</time>
      </trkpt>
      <trkpt lat="43.1054785" lon="-2.7542634">
        <ele>149.376</ele>
        <time>2021-04-01T09:12:04.484Z</time>
      </trkpt>
      <trkpt lat="43.1054817" lon="-2.7542664">
        <ele>149.405</ele>
        <time>2021-04-01T09:12:04.539Z</time>
      </trkpt>
      <trkpt lat="43.105485" lon="-2.7542687">
        <ele>149.413</ele>
        <time>2021-04-01T09:12:04.594Z</time>
      </trkpt>
      <trkpt lat="43.1054884" lon="-2.7542714">
        <ele>149.457</ele>
        <time>2021-04-01T09:12:04.649Z</time>
      </trkpt>
      <trkpt lat="43.1054918" lon="-2.7542742">
        <ele>149.489</ele>
        <time>2021-04-01T09:12:04.704Z</time>
      </trkpt>
      <trkpt lat="43.1054951" lon="-2.7542765">
        <ele>149.545</ele>
        <time>2021-04-01T09:12:04.759Z</time>
      </trkpt>
      <trkpt lat="43.1054985" lon="-2.7542789">
        <ele>149.586</ele>
        <time>2021-04-01T09:12:04.814Z</time>
      </trkpt>
      <trkpt lat="43.1055019" lon="-2.7542816">
        <ele>149.601</ele>
        <time>2021-04-01T09:12:04.869Z</time>
      </trkpt>
      <trkpt lat="43.1055053" lon="-2.7542842">
        <ele>149.611</ele>
        <time>2021-04-01T09:12:04.924Z</time>
      </trkpt>
      <trkpt lat="43.1055086" lon="-2.7542866">
        <ele>149.594</ele>
        <time>2021-04-01T09:12:04.979Z</time>
      </trkpt>
      <trkpt lat="43.1055119" lon="-2.7542891">
        <ele>149.593</ele>
        <time>2021-04-01T09:12:05.034Z</time>
      </trkpt>
      <trkpt lat="43.1055152" lon="-2.7542917">
        <ele>149.624</ele>
        <time>2021-04-01T09:12:05.089Z</time>
      </trkpt>
      <trkpt lat="43.1055186" lon="-2.7542946">
        <ele>149.632</ele>
        <time>2021-04-01T09:12:05.144Z</time>
      </trkpt>
      <trkpt lat="43.1055218" lon="-2.7542974">
        <ele>149.637</ele>
        <time>2021-04-01T09:12:05.199Z</time>
      </trkpt>
      <trkpt lat="43.105525" lon="-2.7543001">
        <ele>149.634</ele>
        <time>2021-04-01T09:12:05.254Z</time>
      </trkpt>
      <trkpt lat="43.1055281" lon="-2.7543028">
        <ele>149.613</ele>
        <time>2021-04-01T09:12:05.309Z</time>
      </trkpt>
      <trkpt lat="43.1055314" lon="-2.754306">
        <ele>149.631</ele>
        <time>2021-04-01T09:12:05.364Z</time>
      </trkpt>
      <trkpt lat="43.1055343" lon="-2.7543095">
        <ele>149.669</ele>
        <time>2021-04-01T09:12:05.419Z</time>
      </trkpt>
      <trkpt lat="43.1055376" lon="-2.7543122">
        <ele>149.704</ele>
        <time>2021-04-01T09:12:05.474Z</time>
      </trkpt>
      <trkpt lat="43.1055407" lon="-2.754315">
        <ele>149.737</ele>
        <time>2021-04-01T09:12:05.529Z</time>
      </trkpt>
      <trkpt lat="43.105544" lon="-2.7543178">
        <ele>149.748</ele>
        <time>2021-04-01T09:12:05.584Z</time>
      </trkpt>
      <trkpt lat="43.1055471" lon="-2.7543209">
        <ele>149.762</ele>
        <time>2021-04-01T09:12:05.639Z</time>
      </trkpt>
      <trkpt lat="43.1055503" lon="-2.7543235">
        <ele>149.751</ele>
        <time>2021-04-01T09:12:05.694Z</time>
      </trkpt>
      <trkpt lat="43.1055537" lon="-2.7543262">
        <ele>149.746</ele>
        <time>2021-04-01T09:12:05.752Z</time>
      </trkpt>
      <trkpt lat="43.1055569" lon="-2.7543292">
        <ele>149.732</ele>
        <time>2021-04-01T09:12:05.810Z</time>
      </trkpt>
      <trkpt lat="43.1055599" lon="-2.7543322">
        <ele>149.724</ele>
        <time>2021-04-01T09:12:05.868Z</time>
      </trkpt>
      <trkpt lat="43.1055631" lon="-2.754335">
        <ele>149.699</ele>
        <time>2021-04-01T09:12:05.926Z</time>
      </trkpt>
      <trkpt lat="43.1055662" lon="-2.7543379">
        <ele>149.697</ele>
        <time>2021-04-01T09:12:05.985Z</time>
      </trkpt>
      <trkpt lat="43.1055691" lon="-2.754341">
        <ele>149.7</ele>
        <time>2021-04-01T09:12:06.043Z</time>
      </trkpt>
      <trkpt lat="43.1055721" lon="-2.7543444">
        <ele>149.714</ele>
        <time>2021-04-01T09:12:06.101Z</time>
      </trkpt>
      <trkpt lat="43.1055753" lon="-2.7543476">
        <ele>149.718</ele>
        <time>2021-04-01T09:12:06.159Z</time>
      </trkpt>
      <trkpt lat="43.1055787" lon="-2.7543504">
        <ele>149.724</ele>
        <time>2021-04-01T09:12:06.218Z</time>
      </trkpt>
      <trkpt lat="43.1055821" lon="-2.7543535">
        <ele>149.731</ele>
        <time>2021-04-01T09:12:06.276Z</time>
      </trkpt>
      <trkpt lat="43.1055852" lon="-2.7543568">
        <ele>149.734</ele>
        <time>2021-04-01T09:12:06.334Z</time>
      </trkpt>
      <trkpt lat="43.1055881" lon="-2.7543599">
        <ele>149.759</ele>
        <time>2021-04-01T09:12:06.392Z</time>
      </trkpt>
      <trkpt lat="43.1055912" lon="-2.7543632">
        <ele>149.772</ele>
        <time>2021-04-01T09:12:06.451Z</time>
      </trkpt>
      <trkpt lat="43.1055944" lon="-2.7543663">
        <ele>149.776</ele>
        <time>2021-04-01T09:12:06.509Z</time>
      </trkpt>
      <trkpt lat="43.1055974" lon="-2.7543699">
        <ele>149.793</ele>
        <time>2021-04-01T09:12:06.567Z</time>
      </trkpt>
      <trkpt lat="43.1056005" lon="-2.7543731">
        <ele>149.79</ele>
        <time>2021-04-01T09:12:06.625Z</time>
      </trkpt>
      <trkpt lat="43.1056036" lon="-2.7543766">
        <ele>149.791</ele>
        <time>2021-04-01T09:12:06.684Z</time>
      </trkpt>
      <trkpt lat="43.1056068" lon="-2.7543799">
        <ele>149.808</ele>
        <time>2021-04-01T09:12:06.736Z</time>
      </trkpt>
      <trkpt lat="43.1056099" lon="-2.7543832">
        <ele>149.827</ele>
        <time>2021-04-01T09:12:06.788Z</time>
      </trkpt>
      <trkpt lat="43.105613" lon="-2.7543866">
        <ele>149.847</ele>
        <time>2021-04-01T09:12:06.840Z</time>
      </trkpt>
      <trkpt lat="43.1056163" lon="-2.7543899">
        <ele>149.866</ele>
        <time>2021-04-01T09:12:06.892Z</time>
      </trkpt>
      <trkpt lat="43.1056193" lon="-2.7543928">
        <ele>149.875</ele>
        <time>2021-04-01T09:12:06.944Z</time>
      </trkpt>
      <trkpt lat="43.1056224" lon="-2.7543965">
        <ele>149.928</ele>
        <time>2021-04-01T09:12:06.996Z</time>
      </trkpt>
      <trkpt lat="43.1056257" lon="-2.7543998">
        <ele>149.951</ele>
        <time>2021-04-01T09:12:07.048Z</time>
      </trkpt>
      <trkpt lat="43.1056287" lon="-2.7544031">
        <ele>149.951</ele>
        <time>2021-04-01T09:12:07.100Z</time>
      </trkpt>
      <trkpt lat="43.105632" lon="-2.7544065">
        <ele>149.964</ele>
        <time>2021-04-01T09:12:07.152Z</time>
      </trkpt>
      <trkpt lat="43.1056351" lon="-2.75441">
        <ele>150.001</ele>
        <time>2021-04-01T09:12:07.205Z</time>
      </trkpt>
      <trkpt lat="43.1056379" lon="-2.7544136">
        <ele>150.02</ele>
        <time>2021-04-01T09:12:07.257Z</time>
      </trkpt>
      <trkpt lat="43.1056408" lon="-2.7544171">
        <ele>150.036</ele>
        <time>2021-04-01T09:12:07.309Z</time>
      </trkpt>
      <trkpt lat="43.1056437" lon="-2.7544206">
        <ele>150.056</ele>
        <time>2021-04-01T09:12:07.361Z</time>
      </trkpt>
      <trkpt lat="43.1056467" lon="-2.754424">
        <ele>150.058</ele>
        <time>2021-04-01T09:12:07.413Z</time>
      </trkpt>
      <trkpt lat="43.1056498" lon="-2.7544275">
        <ele>150.084</ele>
        <time>2021-04-01T09:12:07.465Z</time>
      </trkpt>
      <trkpt lat="43.1056529" lon="-2.7544309">
        <ele>150.097</ele>
        <time>2021-04-01T09:12:07.517Z</time>
      </trkpt>
      <trkpt lat="43.1056556" lon="-2.7544349">
        <ele>150.15</ele>
        <time>2021-04-01T09:12:07.569Z</time>
      </trkpt>
      <trkpt lat="43.1056579" lon="-2.754439">
        <ele>150.183</ele>
        <time>2021-04-01T09:12:07.621Z</time>
      </trkpt>
      <trkpt lat="43.1056608" lon="-2.7544427">
        <ele>150.223</ele>
        <time>2021-04-01T09:12:07.674Z</time>
      </trkpt>
      <trkpt lat="43.1056633" lon="-2.7544464">
        <ele>150.246</ele>
        <time>2021-04-01T09:12:07.729Z</time>
      </trkpt>
      <trkpt lat="43.1056659" lon="-2.75445">
        <ele>150.242</ele>
        <time>2021-04-01T09:12:07.784Z</time>
      </trkpt>
      <trkpt lat="43.1056685" lon="-2.7544535">
        <ele>150.231</ele>
        <time>2021-04-01T09:12:07.839Z</time>
      </trkpt>
      <trkpt lat="43.1056711" lon="-2.7544571">
        <ele>150.223</ele>
        <time>2021-04-01T09:12:07.894Z</time>
      </trkpt>
      <trkpt lat="43.1056736" lon="-2.7544607">
        <ele>150.213</ele>
        <time>2021-04-01T09:12:07.949Z</time>
      </trkpt>
      <trkpt lat="43.1056764" lon="-2.7544646">
        <ele>150.234</ele>
        <time>2021-04-01T09:12:08.004Z</time>
      </trkpt>
      <trkpt lat="43.1056792" lon="-2.7544684">
        <ele>150.251</ele>
        <time>2021-04-01T09:12:08.059Z</time>
      </trkpt>
      <trkpt lat="43.1056817" lon="-2.7544725">
        <ele>150.299</ele>
        <time>2021-04-01T09:12:08.114Z</time>
      </trkpt>
      <trkpt lat="43.1056845" lon="-2.7544764">
        <ele>150.33</ele>
        <time>2021-04-01T09:12:08.169Z</time>
      </trkpt>
      <trkpt lat="43.1056872" lon="-2.7544802">
        <ele>150.359</ele>
        <time>2021-04-01T09:12:08.224Z</time>
      </trkpt>
      <trkpt lat="43.10569" lon="-2.7544838">
        <ele>150.402</ele>
        <time>2021-04-01T09:12:08.279Z</time>
      </trkpt>
      <trkpt lat="43.1056927" lon="-2.7544878">
        <ele>150.423</ele>
        <time>2021-04-01T09:12:08.334Z</time>
      </trkpt>
      <trkpt lat="43.1056952" lon="-2.7544919">
        <ele>150.407</ele>
        <time>2021-04-01T09:12:08.389Z</time>
      </trkpt>
      <trkpt lat="43.1056976" lon="-2.7544959">
        <ele>150.41</ele>
        <time>2021-04-01T09:12:08.444Z</time>
      </trkpt>
      <trkpt lat="43.1057001" lon="-2.7545">
        <ele>150.433</ele>
        <time>2021-04-01T09:12:08.499Z</time>
      </trkpt>
      <trkpt lat="43.1057027" lon="-2.754504">
        <ele>150.475</ele>
        <time>2021-04-01T09:12:08.554Z</time>
      </trkpt>
      <trkpt lat="43.1057053" lon="-2.7545081">
        <ele>150.514</ele>
        <time>2021-04-01T09:12:08.609Z</time>
      </trkpt>
      <trkpt lat="43.1057078" lon="-2.7545122">
        <ele>150.519</ele>
        <time>2021-04-01T09:12:08.664Z</time>
      </trkpt>
      <trkpt lat="43.1057103" lon="-2.7545163">
        <ele>150.519</ele>
        <time>2021-04-01T09:12:08.719Z</time>
      </trkpt>
      <trkpt lat="43.1057127" lon="-2.7545202">
        <ele>150.534</ele>
        <time>2021-04-01T09:12:08.774Z</time>
      </trkpt>
      <trkpt lat="43.1057153" lon="-2.7545242">
        <ele>150.541</ele>
        <time>2021-04-01T09:12:08.829Z</time>
      </trkpt>
      <trkpt lat="43.105718" lon="-2.7545283">
        <ele>150.541</ele>
        <time>2021-04-01T09:12:08.884Z</time>
      </trkpt>
      <trkpt lat="43.1057205" lon="-2.7545326">
        <ele>150.567</ele>
        <time>2021-04-01T09:12:08.939Z</time>
      </trkpt>
      <trkpt lat="43.1057229" lon="-2.7545366">
        <ele>150.603</ele>
        <time>2021-04-01T09:12:08.994Z</time>
      </trkpt>
      <trkpt lat="43.1057254" lon="-2.7545406">
        <ele>150.637</ele>
        <time>2021-04-01T09:12:09.049Z</time>
      </trkpt>
      <trkpt lat="43.1057278" lon="-2.7545445">
        <ele>150.642</ele>
        <time>2021-04-01T09:12:09.104Z</time>
      </trkpt>
      <trkpt lat="43.1057304" lon="-2.7545486">
        <ele>150.677</ele>
        <time>2021-04-01T09:12:09.159Z</time>
      </trkpt>
      <trkpt lat="43.1057329" lon="-2.7545524">
        <ele>150.701</ele>
        <time>2021-04-01T09:12:09.214Z</time>
      </trkpt>
      <trkpt lat="43.1057356" lon="-2.7545563">
        <ele>150.734</ele>
        <time>2021-04-01T09:12:09.269Z</time>
      </trkpt>
      <trkpt lat="43.1057383" lon="-2.7545605">
        <ele>150.801</ele>
        <time>2021-04-01T09:12:09.324Z</time>
      </trkpt>
      <trkpt lat="43.1057406" lon="-2.7545647">
        <ele>150.834</ele>
        <time>2021-04-01T09:12:09.379Z</time>
      </trkpt>
      <trkpt lat="43.1057431" lon="-2.7545688">
        <ele>150.849</ele>
        <time>2021-04-01T09:12:09.434Z</time>
      </trkpt>
      <trkpt lat="43.1057455" lon="-2.7545731">
        <ele>150.912</ele>
        <time>2021-04-01T09:12:09.489Z</time>
      </trkpt>
      <trkpt lat="43.105748" lon="-2.7545769">
        <ele>150.912</ele>
        <time>2021-04-01T09:12:09.544Z</time>
      </trkpt>
      <trkpt lat="43.1057503" lon="-2.754581">
        <ele>150.932</ele>
        <time>2021-04-01T09:12:09.599Z</time>
      </trkpt>
      <trkpt lat="43.1057527" lon="-2.7545852">
        <ele>150.979</ele>
        <time>2021-04-01T09:12:09.654Z</time>
      </trkpt>
      <trkpt lat="43.105755" lon="-2.7545895">
        <ele>151.003</ele>
        <time>2021-04-01T09:12:09.706Z</time>
      </trkpt>
      <trkpt lat="43.1057574" lon="-2.7545938">
        <ele>151.004</ele>
        <time>2021-04-01T09:12:09.758Z</time>
      </trkpt>
      <trkpt lat="43.1057598" lon="-2.7545978">
        <ele>151.023</ele>
        <time>2021-04-01T09:12:09.810Z</time>
      </trkpt>
      <trkpt lat="43.1057623" lon="-2.7546018">
        <ele>151.036</ele>
        <time>2021-04-01T09:12:09.862Z</time>
      </trkpt>
      <trkpt lat="43.1057649" lon="-2.7546061">
        <ele>151.07</ele>
        <time>2021-04-01T09:12:09.914Z</time>
      </trkpt>
      <trkpt lat="43.1057674" lon="-2.7546099">
        <ele>151.066</ele>
        <time>2021-04-01T09:12:09.966Z</time>
      </trkpt>
      <trkpt lat="43.1057694" lon="-2.7546142">
        <ele>151.051</ele>
        <time>2021-04-01T09:12:10.018Z</time>
      </trkpt>
      <trkpt lat="43.105772" lon="-2.7546186">
        <ele>151.087</ele>
        <time>2021-04-01T09:12:10.070Z</time>
      </trkpt>
      <trkpt lat="43.1057743" lon="-2.7546228">
        <ele>151.1</ele>
        <time>2021-04-01T09:12:10.122Z</time>
      </trkpt>
      <trkpt lat="43.1057766" lon="-2.7546273">
        <ele>151.13</ele>
        <time>2021-04-01T09:12:10.175Z</time>
      </trkpt>
      <trkpt lat="43.1057787" lon="-2.7546314">
        <ele>151.105</ele>
        <time>2021-04-01T09:12:10.227Z</time>
      </trkpt>
      <trkpt lat="43.1057814" lon="-2.7546356">
        <ele>151.137</ele>
        <time>2021-04-01T09:12:10.279Z</time>
      </trkpt>
      <trkpt lat="43.1057837" lon="-2.7546399">
        <ele>151.14</ele>
        <time>2021-04-01T09:12:10.331Z</time>
      </trkpt>
      <trkpt lat="43.1057856" lon="-2.754644">
        <ele>151.105</ele>
        <time>2021-04-01T09:12:10.383Z</time>
      </trkpt>
      <trkpt lat="43.1057879" lon="-2.7546482">
        <ele>151.116</ele>
        <time>2021-04-01T09:12:10.435Z</time>
      </trkpt>
      <trkpt lat="43.1057902" lon="-2.7546526">
        <ele>151.133</ele>
        <time>2021-04-01T09:12:10.487Z</time>
      </trkpt>
      <trkpt lat="43.1057921" lon="-2.7546569">
        <ele>151.115</ele>
        <time>2021-04-01T09:12:10.539Z</time>
      </trkpt>
      <trkpt lat="43.1057944" lon="-2.7546612">
        <ele>151.143</ele>
        <time>2021-04-01T09:12:10.591Z</time>
      </trkpt>
      <trkpt lat="43.1057967" lon="-2.7546654">
        <ele>151.148</ele>
        <time>2021-04-01T09:12:10.644Z</time>
      </trkpt>
      <trkpt lat="43.1057993" lon="-2.7546698">
        <ele>151.201</ele>
        <time>2021-04-01T09:12:10.705Z</time>
      </trkpt>
      <trkpt lat="43.1058024" lon="-2.7546741">
        <ele>151.278</ele>
        <time>2021-04-01T09:12:10.766Z</time>
      </trkpt>
      <trkpt lat="43.1058048" lon="-2.7546784">
        <ele>151.317</ele>
        <time>2021-04-01T09:12:10.828Z</time>
      </trkpt>
      <trkpt lat="43.1058069" lon="-2.7546826">
        <ele>151.311</ele>
        <time>2021-04-01T09:12:10.889Z</time>
      </trkpt>
      <trkpt lat="43.1058092" lon="-2.7546869">
        <ele>151.318</ele>
        <time>2021-04-01T09:12:10.951Z</time>
      </trkpt>
      <trkpt lat="43.1058113" lon="-2.7546912">
        <ele>151.309</ele>
        <time>2021-04-01T09:12:11.012Z</time>
      </trkpt>
      <trkpt lat="43.1058137" lon="-2.7546954">
        <ele>151.308</ele>
        <time>2021-04-01T09:12:11.074Z</time>
      </trkpt>
      <trkpt lat="43.1058161" lon="-2.7546996">
        <ele>151.327</ele>
        <time>2021-04-01T09:12:11.135Z</time>
      </trkpt>
      <trkpt lat="43.1058185" lon="-2.7547037">
        <ele>151.338</ele>
        <time>2021-04-01T09:12:11.197Z</time>
      </trkpt>
      <trkpt lat="43.1058207" lon="-2.7547079">
        <ele>151.321</ele>
        <time>2021-04-01T09:12:11.258Z</time>
      </trkpt>
      <trkpt lat="43.1058231" lon="-2.754712">
        <ele>151.347</ele>
        <time>2021-04-01T09:12:11.320Z</time>
      </trkpt>
      <trkpt lat="43.1058251" lon="-2.7547161">
        <ele>151.333</ele>
        <time>2021-04-01T09:12:11.381Z</time>
      </trkpt>
      <trkpt lat="43.1058273" lon="-2.7547203">
        <ele>151.346</ele>
        <time>2021-04-01T09:12:11.443Z</time>
      </trkpt>
      <trkpt lat="43.1058298" lon="-2.7547246">
        <ele>151.381</ele>
        <time>2021-04-01T09:12:11.504Z</time>
      </trkpt>
      <trkpt lat="43.1058324" lon="-2.754729">
        <ele>151.443</ele>
        <time>2021-04-01T09:12:11.566Z</time>
      </trkpt>
      <trkpt lat="43.105835" lon="-2.7547334">
        <ele>151.51</ele>
        <time>2021-04-01T09:12:11.627Z</time>
      </trkpt>
      <trkpt lat="43.1058375" lon="-2.7547376">
        <ele>151.509</ele>
        <time>2021-04-01T09:12:11.689Z</time>
      </trkpt>
      <trkpt lat="43.10584" lon="-2.7547419">
        <ele>151.516</ele>
        <time>2021-04-01T09:12:11.738Z</time>
      </trkpt>
      <trkpt lat="43.1058426" lon="-2.7547462">
        <ele>151.54</ele>
        <time>2021-04-01T09:12:11.787Z</time>
      </trkpt>
      <trkpt lat="43.105845" lon="-2.7547502">
        <ele>151.535</ele>
        <time>2021-04-01T09:12:11.836Z</time>
      </trkpt>
      <trkpt lat="43.1058476" lon="-2.7547544">
        <ele>151.565</ele>
        <time>2021-04-01T09:12:11.885Z</time>
      </trkpt>
      <trkpt lat="43.1058503" lon="-2.7547586">
        <ele>151.598</ele>
        <time>2021-04-01T09:12:11.935Z</time>
      </trkpt>
      <trkpt lat="43.1058531" lon="-2.7547624">
        <ele>151.598</ele>
        <time>2021-04-01T09:12:11.984Z</time>
      </trkpt>
      <trkpt lat="43.1058557" lon="-2.7547666">
        <ele>151.629</ele>
        <time>2021-04-01T09:12:12.033Z</time>
      </trkpt>
      <trkpt lat="43.1058581" lon="-2.7547706">
        <ele>151.638</ele>
        <time>2021-04-01T09:12:12.082Z</time>
      </trkpt>
      <trkpt lat="43.1058605" lon="-2.7547748">
        <ele>151.647</ele>
        <time>2021-04-01T09:12:12.131Z</time>
      </trkpt>
      <trkpt lat="43.1058631" lon="-2.754779">
        <ele>151.67</ele>
        <time>2021-04-01T09:12:12.181Z</time>
      </trkpt>
      <trkpt lat="43.1058655" lon="-2.7547833">
        <ele>151.673</ele>
        <time>2021-04-01T09:12:12.230Z</time>
      </trkpt>
      <trkpt lat="43.105868" lon="-2.7547876">
        <ele>151.685</ele>
        <time>2021-04-01T09:12:12.279Z</time>
      </trkpt>
      <trkpt lat="43.1058706" lon="-2.7547917">
        <ele>151.711</ele>
        <time>2021-04-01T09:12:12.328Z</time>
      </trkpt>
      <trkpt lat="43.1058731" lon="-2.7547959">
        <ele>151.735</ele>
        <time>2021-04-01T09:12:12.377Z</time>
      </trkpt>
      <trkpt lat="43.1058756" lon="-2.7548">
        <ele>151.747</ele>
        <time>2021-04-01T09:12:12.427Z</time>
      </trkpt>
      <trkpt lat="43.105878" lon="-2.7548039">
        <ele>151.751</ele>
        <time>2021-04-01T09:12:12.476Z</time>
      </trkpt>
      <trkpt lat="43.1058805" lon="-2.754808">
        <ele>151.775</ele>
        <time>2021-04-01T09:12:12.525Z</time>
      </trkpt>
      <trkpt lat="43.1058829" lon="-2.7548124">
        <ele>151.815</ele>
        <time>2021-04-01T09:12:12.574Z</time>
      </trkpt>
      <trkpt lat="43.1058854" lon="-2.7548166">
        <ele>151.853</ele>
        <time>2021-04-01T09:12:12.624Z</time>
      </trkpt>
      <trkpt lat="43.1058877" lon="-2.7548207">
        <ele>151.852</ele>
        <time>2021-04-01T09:12:12.682Z</time>
      </trkpt>
      <trkpt lat="43.1058904" lon="-2.7548245">
        <ele>151.866</ele>
        <time>2021-04-01T09:12:12.740Z</time>
      </trkpt>
      <trkpt lat="43.1058927" lon="-2.7548287">
        <ele>151.874</ele>
        <time>2021-04-01T09:12:12.798Z</time>
      </trkpt>
      <trkpt lat="43.1058957" lon="-2.7548329">
        <ele>151.926</ele>
        <time>2021-04-01T09:12:12.856Z</time>
      </trkpt>
      <trkpt lat="43.1058987" lon="-2.7548372">
        <ele>152.018</ele>
        <time>2021-04-01T09:12:12.914Z</time>
      </trkpt>
      <trkpt lat="43.1059011" lon="-2.7548416">
        <ele>152.044</ele>
        <time>2021-04-01T09:12:12.972Z</time>
      </trkpt>
      <trkpt lat="43.1059033" lon="-2.7548458">
        <ele>152.06</ele>
        <time>2021-04-01T09:12:13.030Z</time>
      </trkpt>
      <trkpt lat="43.1059057" lon="-2.7548498">
        <ele>152.059</ele>
        <time>2021-04-01T09:12:13.088Z</time>
      </trkpt>
      <trkpt lat="43.1059083" lon="-2.7548541">
        <ele>152.07</ele>
        <time>2021-04-01T09:12:13.146Z</time>
      </trkpt>
      <trkpt lat="43.1059108" lon="-2.7548585">
        <ele>152.086</ele>
        <time>2021-04-01T09:12:13.204Z</time>
      </trkpt>
      <trkpt lat="43.1059132" lon="-2.7548629">
        <ele>152.111</ele>
        <time>2021-04-01T09:12:13.262Z</time>
      </trkpt>
      <trkpt lat="43.1059152" lon="-2.7548671">
        <ele>152.099</ele>
        <time>2021-04-01T09:12:13.320Z</time>
      </trkpt>
      <trkpt lat="43.1059176" lon="-2.7548715">
        <ele>152.129</ele>
        <time>2021-04-01T09:12:13.378Z</time>
      </trkpt>
      <trkpt lat="43.1059202" lon="-2.7548756">
        <ele>152.155</ele>
        <time>2021-04-01T09:12:13.436Z</time>
      </trkpt>
      <trkpt lat="43.1059227" lon="-2.7548799">
        <ele>152.18</ele>
        <time>2021-04-01T09:12:13.494Z</time>
      </trkpt>
      <trkpt lat="43.1059254" lon="-2.754884">
        <ele>152.207</ele>
        <time>2021-04-01T09:12:13.552Z</time>
      </trkpt>
      <trkpt lat="43.1059278" lon="-2.7548882">
        <ele>152.219</ele>
        <time>2021-04-01T09:12:13.610Z</time>
      </trkpt>
      <trkpt lat="43.1059303" lon="-2.7548923">
        <ele>152.254</ele>
        <time>2021-04-01T09:12:13.669Z</time>
      </trkpt>
      <trkpt lat="43.1059327" lon="-2.7548967">
        <ele>152.285</ele>
        <time>2021-04-01T09:12:13.721Z</time>
      </trkpt>
      <trkpt lat="43.1059351" lon="-2.7549012">
        <ele>152.314</ele>
        <time>2021-04-01T09:12:13.773Z</time>
      </trkpt>
      <trkpt lat="43.1059379" lon="-2.7549053">
        <ele>152.371</ele>
        <time>2021-04-01T09:12:13.825Z</time>
      </trkpt>
      <trkpt lat="43.1059403" lon="-2.7549095">
        <ele>152.378</ele>
        <time>2021-04-01T09:12:13.877Z</time>
      </trkpt>
      <trkpt lat="43.1059427" lon="-2.7549139">
        <ele>152.408</ele>
        <time>2021-04-01T09:12:13.929Z</time>
      </trkpt>
      <trkpt lat="43.1059448" lon="-2.7549182">
        <ele>152.394</ele>
        <time>2021-04-01T09:12:13.981Z</time>
      </trkpt>
      <trkpt lat="43.1059473" lon="-2.7549223">
        <ele>152.417</ele>
        <time>2021-04-01T09:12:14.033Z</time>
      </trkpt>
      <trkpt lat="43.1059498" lon="-2.7549263">
        <ele>152.432</ele>
        <time>2021-04-01T09:12:14.085Z</time>
      </trkpt>
      <trkpt lat="43.1059519" lon="-2.7549303">
        <ele>152.394</ele>
        <time>2021-04-01T09:12:14.137Z</time>
      </trkpt>
      <trkpt lat="43.1059542" lon="-2.7549345">
        <ele>152.383</ele>
        <time>2021-04-01T09:12:14.190Z</time>
      </trkpt>
      <trkpt lat="43.1059567" lon="-2.7549387">
        <ele>152.407</ele>
        <time>2021-04-01T09:12:14.242Z</time>
      </trkpt>
      <trkpt lat="43.1059592" lon="-2.7549427">
        <ele>152.431</ele>
        <time>2021-04-01T09:12:14.294Z</time>
      </trkpt>
      <trkpt lat="43.1059614" lon="-2.7549469">
        <ele>152.39</ele>
        <time>2021-04-01T09:12:14.346Z</time>
      </trkpt>
      <trkpt lat="43.1059637" lon="-2.7549511">
        <ele>152.396</ele>
        <time>2021-04-01T09:12:14.398Z</time>
      </trkpt>
      <trkpt lat="43.1059661" lon="-2.7549553">
        <ele>152.439</ele>
        <time>2021-04-01T09:12:14.450Z</time>
      </trkpt>
      <trkpt lat="43.1059687" lon="-2.7549593">
        <ele>152.439</ele>
        <time>2021-04-01T09:12:14.502Z</time>
      </trkpt>
      <trkpt lat="43.1059713" lon="-2.7549632">
        <ele>152.423</ele>
        <time>2021-04-01T09:12:14.554Z</time>
      </trkpt>
      <trkpt lat="43.1059739" lon="-2.7549675">
        <ele>152.455</ele>
        <time>2021-04-01T09:12:14.606Z</time>
      </trkpt>
      <trkpt lat="43.1059763" lon="-2.7549717">
        <ele>152.45</ele>
        <time>2021-04-01T09:12:14.659Z</time>
      </trkpt>
      <trkpt lat="43.1059786" lon="-2.7549758">
        <ele>152.437</ele>
        <time>2021-04-01T09:12:14.717Z</time>
      </trkpt>
      <trkpt lat="43.105981" lon="-2.7549798">
        <ele>152.429</ele>
        <time>2021-04-01T09:12:14.775Z</time>
      </trkpt>
      <trkpt lat="43.1059834" lon="-2.7549841">
        <ele>152.45</ele>
        <time>2021-04-01T09:12:14.833Z</time>
      </trkpt>
      <trkpt lat="43.1059862" lon="-2.7549884">
        <ele>152.504</ele>
        <time>2021-04-01T09:12:14.891Z</time>
      </trkpt>
      <trkpt lat="43.1059887" lon="-2.7549927">
        <ele>152.537</ele>
        <time>2021-04-01T09:12:14.950Z</time>
      </trkpt>
      <trkpt lat="43.1059911" lon="-2.754997">
        <ele>152.57</ele>
        <time>2021-04-01T09:12:15.008Z</time>
      </trkpt>
      <trkpt lat="43.1059937" lon="-2.7550014">
        <ele>152.623</ele>
        <time>2021-04-01T09:12:15.066Z</time>
      </trkpt>
      <trkpt lat="43.1059962" lon="-2.7550056">
        <ele>152.634</ele>
        <time>2021-04-01T09:12:15.124Z</time>
      </trkpt>
      <trkpt lat="43.1059987" lon="-2.7550095">
        <ele>152.643</ele>
        <time>2021-04-01T09:12:15.183Z</time>
      </trkpt>
      <trkpt lat="43.1060014" lon="-2.7550136">
        <ele>152.68</ele>
        <time>2021-04-01T09:12:15.241Z</time>
      </trkpt>
      <trkpt lat="43.1060039" lon="-2.7550179">
        <ele>152.687</ele>
        <time>2021-04-01T09:12:15.299Z</time>
      </trkpt>
      <trkpt lat="43.1060062" lon="-2.7550221">
        <ele>152.693</ele>
        <time>2021-04-01T09:12:15.357Z</time>
      </trkpt>
      <trkpt lat="43.106009" lon="-2.7550264">
        <ele>152.734</ele>
        <time>2021-04-01T09:12:15.416Z</time>
      </trkpt>
      <trkpt lat="43.1060116" lon="-2.7550305">
        <ele>152.775</ele>
        <time>2021-04-01T09:12:15.474Z</time>
      </trkpt>
      <trkpt lat="43.106014" lon="-2.7550346">
        <ele>152.778</ele>
        <time>2021-04-01T09:12:15.532Z</time>
      </trkpt>
      <trkpt lat="43.1060164" lon="-2.7550388">
        <ele>152.79</ele>
        <time>2021-04-01T09:12:15.590Z</time>
      </trkpt>
      <trkpt lat="43.1060191" lon="-2.7550432">
        <ele>152.839</ele>
        <time>2021-04-01T09:12:15.649Z</time>
      </trkpt>
      <trkpt lat="43.1060215" lon="-2.7550475">
        <ele>152.86</ele>
        <time>2021-04-01T09:12:15.704Z</time>
      </trkpt>
      <trkpt lat="43.1060238" lon="-2.7550518">
        <ele>152.859</ele>
        <time>2021-04-01T09:12:15.759Z</time>
      </trkpt>
      <trkpt lat="43.1060261" lon="-2.755056">
        <ele>152.854</ele>
        <time>2021-04-01T09:12:15.814Z</time>
      </trkpt>
      <trkpt lat="43.1060285" lon="-2.75506">
        <ele>152.852</ele>
        <time>2021-04-01T09:12:15.869Z</time>
      </trkpt>
      <trkpt lat="43.1060311" lon="-2.755064">
        <ele>152.853</ele>
        <time>2021-04-01T09:12:15.924Z</time>
      </trkpt>
      <trkpt lat="43.1060338" lon="-2.7550681">
        <ele>152.869</ele>
        <time>2021-04-01T09:12:15.979Z</time>
      </trkpt>
      <trkpt lat="43.1060363" lon="-2.7550722">
        <ele>152.88</ele>
        <time>2021-04-01T09:12:16.034Z</time>
      </trkpt>
      <trkpt lat="43.1060388" lon="-2.7550763">
        <ele>152.882</ele>
        <time>2021-04-01T09:12:16.089Z</time>
      </trkpt>
      <trkpt lat="43.1060411" lon="-2.7550806">
        <ele>152.895</ele>
        <time>2021-04-01T09:12:16.144Z</time>
      </trkpt>
      <trkpt lat="43.1060436" lon="-2.7550847">
        <ele>152.904</ele>
        <time>2021-04-01T09:12:16.199Z</time>
      </trkpt>
      <trkpt lat="43.1060464" lon="-2.7550889">
        <ele>152.936</ele>
        <time>2021-04-01T09:12:16.254Z</time>
      </trkpt>
      <trkpt lat="43.1060493" lon="-2.755093">
        <ele>152.961</ele>
        <time>2021-04-01T09:12:16.309Z</time>
      </trkpt>
      <trkpt lat="43.1060518" lon="-2.7550972">
        <ele>152.98</ele>
        <time>2021-04-01T09:12:16.364Z</time>
      </trkpt>
      <trkpt lat="43.1060543" lon="-2.7551014">
        <ele>152.986</ele>
        <time>2021-04-01T09:12:16.419Z</time>
      </trkpt>
      <trkpt lat="43.1060569" lon="-2.7551058">
        <ele>153.019</ele>
        <time>2021-04-01T09:12:16.474Z</time>
      </trkpt>
      <trkpt lat="43.1060595" lon="-2.7551103">
        <ele>153.061</ele>
        <time>2021-04-01T09:12:16.529Z</time>
      </trkpt>
      <trkpt lat="43.1060621" lon="-2.7551145">
        <ele>153.067</ele>
        <time>2021-04-01T09:12:16.584Z</time>
      </trkpt>
      <trkpt lat="43.1060646" lon="-2.7551187">
        <ele>153.078</ele>
        <time>2021-04-01T09:12:16.639Z</time>
      </trkpt>
      <trkpt lat="43.1060669" lon="-2.7551228">
        <ele>153.091</ele>
        <time>2021-04-01T09:12:16.694Z</time>
      </trkpt>
      <trkpt lat="43.1060693" lon="-2.7551271">
        <ele>153.123</ele>
        <time>2021-04-01T09:12:16.745Z</time>
      </trkpt>
      <trkpt lat="43.1060719" lon="-2.7551314">
        <ele>153.141</ele>
        <time>2021-04-01T09:12:16.797Z</time>
      </trkpt>
      <trkpt lat="43.1060743" lon="-2.7551358">
        <ele>153.145</ele>
        <time>2021-04-01T09:12:16.849Z</time>
      </trkpt>
      <trkpt lat="43.1060767" lon="-2.7551401">
        <ele>153.138</ele>
        <time>2021-04-01T09:12:16.901Z</time>
      </trkpt>
      <trkpt lat="43.1060792" lon="-2.7551442">
        <ele>153.169</ele>
        <time>2021-04-01T09:12:16.953Z</time>
      </trkpt>
      <trkpt lat="43.1060818" lon="-2.7551482">
        <ele>153.19</ele>
        <time>2021-04-01T09:12:17.005Z</time>
      </trkpt>
      <trkpt lat="43.1060841" lon="-2.7551523">
        <ele>153.19</ele>
        <time>2021-04-01T09:12:17.057Z</time>
      </trkpt>
      <trkpt lat="43.1060866" lon="-2.7551565">
        <ele>153.188</ele>
        <time>2021-04-01T09:12:17.109Z</time>
      </trkpt>
      <trkpt lat="43.1060888" lon="-2.7551609">
        <ele>153.175</ele>
        <time>2021-04-01T09:12:17.161Z</time>
      </trkpt>
      <trkpt lat="43.1060911" lon="-2.7551651">
        <ele>153.175</ele>
        <time>2021-04-01T09:12:17.213Z</time>
      </trkpt>
      <trkpt lat="43.1060936" lon="-2.7551693">
        <ele>153.198</ele>
        <time>2021-04-01T09:12:17.265Z</time>
      </trkpt>
      <trkpt lat="43.106096" lon="-2.7551736">
        <ele>153.2</ele>
        <time>2021-04-01T09:12:17.317Z</time>
      </trkpt>
      <trkpt lat="43.1060983" lon="-2.7551779">
        <ele>153.206</ele>
        <time>2021-04-01T09:12:17.369Z</time>
      </trkpt>
      <trkpt lat="43.1061006" lon="-2.7551823">
        <ele>153.222</ele>
        <time>2021-04-01T09:12:17.421Z</time>
      </trkpt>
      <trkpt lat="43.1061029" lon="-2.7551865">
        <ele>153.239</ele>
        <time>2021-04-01T09:12:17.473Z</time>
      </trkpt>
      <trkpt lat="43.1061052" lon="-2.7551909">
        <ele>153.244</ele>
        <time>2021-04-01T09:12:17.525Z</time>
      </trkpt>
      <trkpt lat="43.1061075" lon="-2.7551957">
        <ele>153.281</ele>
        <time>2021-04-01T09:12:17.577Z</time>
      </trkpt>
      <trkpt lat="43.10611" lon="-2.7552003">
        <ele>153.347</ele>
        <time>2021-04-01T09:12:17.629Z</time>
      </trkpt>
      <trkpt lat="43.1061126" lon="-2.7552045">
        <ele>153.369</ele>
        <time>2021-04-01T09:12:17.687Z</time>
      </trkpt>
      <trkpt lat="43.1061148" lon="-2.7552089">
        <ele>153.346</ele>
        <time>2021-04-01T09:12:17.745Z</time>
      </trkpt>
      <trkpt lat="43.1061173" lon="-2.7552132">
        <ele>153.373</ele>
        <time>2021-04-01T09:12:17.803Z</time>
      </trkpt>
      <trkpt lat="43.1061196" lon="-2.7552174">
        <ele>153.387</ele>
        <time>2021-04-01T09:12:17.861Z</time>
      </trkpt>
      <trkpt lat="43.106122" lon="-2.7552216">
        <ele>153.399</ele>
        <time>2021-04-01T09:12:17.919Z</time>
      </trkpt>
      <trkpt lat="43.1061245" lon="-2.7552257">
        <ele>153.398</ele>
        <time>2021-04-01T09:12:17.977Z</time>
      </trkpt>
      <trkpt lat="43.106127" lon="-2.7552298">
        <ele>153.403</ele>
        <time>2021-04-01T09:12:18.035Z</time>
      </trkpt>
      <trkpt lat="43.1061294" lon="-2.7552339">
        <ele>153.412</ele>
        <time>2021-04-01T09:12:18.093Z</time>
      </trkpt>
      <trkpt lat="43.1061318" lon="-2.7552381">
        <ele>153.415</ele>
        <time>2021-04-01T09:12:18.151Z</time>
      </trkpt>
      <trkpt lat="43.1061341" lon="-2.7552424">
        <ele>153.43</ele>
        <time>2021-04-01T09:12:18.209Z</time>
      </trkpt>
      <trkpt lat="43.1061366" lon="-2.7552466">
        <ele>153.418</ele>
        <time>2021-04-01T09:12:18.267Z</time>
      </trkpt>
      <trkpt lat="43.1061391" lon="-2.755251">
        <ele>153.441</ele>
        <time>2021-04-01T09:12:18.325Z</time>
      </trkpt>
      <trkpt lat="43.1061416" lon="-2.7552553">
        <ele>153.469</ele>
        <time>2021-04-01T09:12:18.383Z</time>
      </trkpt>
      <trkpt lat="43.106144" lon="-2.7552597">
        <ele>153.495</ele>
        <time>2021-04-01T09:12:18.441Z</time>
      </trkpt>
      <trkpt lat="43.1061461" lon="-2.7552643">
        <ele>153.49</ele>
        <time>2021-04-01T09:12:18.499Z</time>
      </trkpt>
      <trkpt lat="43.1061484" lon="-2.7552686">
        <ele>153.487</ele>
        <time>2021-04-01T09:12:18.557Z</time>
      </trkpt>
      <trkpt lat="43.1061507" lon="-2.7552724">
        <ele>153.467</ele>
        <time>2021-04-01T09:12:18.615Z</time>
      </trkpt>
      <trkpt lat="43.1061531" lon="-2.7552766">
        <ele>153.481</ele>
        <time>2021-04-01T09:12:18.674Z</time>
      </trkpt>
      <trkpt lat="43.1061556" lon="-2.7552808">
        <ele>153.471</ele>
        <time>2021-04-01T09:12:18.729Z</time>
      </trkpt>
      <trkpt lat="43.1061579" lon="-2.7552851">
        <ele>153.465</ele>
        <time>2021-04-01T09:12:18.784Z</time>
      </trkpt>
      <trkpt lat="43.1061607" lon="-2.7552889">
        <ele>153.489</ele>
        <time>2021-04-01T09:12:18.839Z</time>
      </trkpt>
      <trkpt lat="43.1061633" lon="-2.755293">
        <ele>153.526</ele>
        <time>2021-04-01T09:12:18.894Z</time>
      </trkpt>
      <trkpt lat="43.1061654" lon="-2.7552974">
        <ele>153.525</ele>
        <time>2021-04-01T09:12:18.949Z</time>
      </trkpt>
      <trkpt lat="43.1061676" lon="-2.7553018">
        <ele>153.508</ele>
        <time>2021-04-01T09:12:19.004Z</time>
      </trkpt>
      <trkpt lat="43.1061699" lon="-2.7553061">
        <ele>153.521</ele>
        <time>2021-04-01T09:12:19.059Z</time>
      </trkpt>
      <trkpt lat="43.1061723" lon="-2.7553102">
        <ele>153.548</ele>
        <time>2021-04-01T09:12:19.114Z</time>
      </trkpt>
      <trkpt lat="43.1061748" lon="-2.7553146">
        <ele>153.586</ele>
        <time>2021-04-01T09:12:19.169Z</time>
      </trkpt>
      <trkpt lat="43.1061772" lon="-2.7553189">
        <ele>153.588</ele>
        <time>2021-04-01T09:12:19.224Z</time>
      </trkpt>
      <trkpt lat="43.1061797" lon="-2.7553233">
        <ele>153.614</ele>
        <time>2021-04-01T09:12:19.279Z</time>
      </trkpt>
      <trkpt lat="43.1061823" lon="-2.7553274">
        <ele>153.604</ele>
        <time>2021-04-01T09:12:19.334Z</time>
      </trkpt>
      <trkpt lat="43.1061846" lon="-2.7553314">
        <ele>153.613</ele>
        <time>2021-04-01T09:12:19.389Z</time>
      </trkpt>
      <trkpt lat="43.1061871" lon="-2.7553355">
        <ele>153.619</ele>
        <time>2021-04-01T09:12:19.444Z</time>
      </trkpt>
      <trkpt lat="43.1061897" lon="-2.7553396">
        <ele>153.636</ele>
        <time>2021-04-01T09:12:19.499Z</time>
      </trkpt>
      <trkpt lat="43.1061922" lon="-2.7553435">
        <ele>153.622</ele>
        <time>2021-04-01T09:12:19.554Z</time>
      </trkpt>
      <trkpt lat="43.1061948" lon="-2.7553477">
        <ele>153.62</ele>
        <time>2021-04-01T09:12:19.609Z</time>
      </trkpt>
      <trkpt lat="43.1061972" lon="-2.755352">
        <ele>153.643</ele>
        <time>2021-04-01T09:12:19.664Z</time>
      </trkpt>
      <trkpt lat="43.1061995" lon="-2.7553563">
        <ele>153.654</ele>
        <time>2021-04-01T09:12:19.716Z</time>
      </trkpt>
      <trkpt lat="43.1062019" lon="-2.7553602">
        <ele>153.652</ele>
        <time>2021-04-01T09:12:19.768Z</time>
      </trkpt>
      <trkpt lat="43.1062044" lon="-2.7553641">
        <ele>153.62</ele>
        <time>2021-04-01T09:12:19.820Z</time>
      </trkpt>
      <trkpt lat="43.1062068" lon="-2.755368">
        <ele>153.608</ele>
        <time>2021-04-01T09:12:19.872Z</time>
      </trkpt>
      <trkpt lat="43.1062092" lon="-2.7553718">
        <ele>153.593</ele>
        <time>2021-04-01T09:12:19.924Z</time>
      </trkpt>
      <trkpt lat="43.1062117" lon="-2.7553758">
        <ele>153.578</ele>
        <time>2021-04-01T09:12:19.976Z</time>
      </trkpt>
      <trkpt lat="43.1062142" lon="-2.7553798">
        <ele>153.59</ele>
        <time>2021-04-01T09:12:20.028Z</time>
      </trkpt>
      <trkpt lat="43.1062164" lon="-2.7553839">
        <ele>153.586</ele>
        <time>2021-04-01T09:12:20.080Z</time>
      </trkpt>
      <trkpt lat="43.1062191" lon="-2.7553879">
        <ele>153.585</ele>
        <time>2021-04-01T09:12:20.132Z</time>
      </trkpt>
      <trkpt lat="43.1062217" lon="-2.7553921">
        <ele>153.6</ele>
        <time>2021-04-01T09:12:20.185Z</time>
      </trkpt>
      <trkpt lat="43.106224" lon="-2.7553963">
        <ele>153.6</ele>
        <time>2021-04-01T09:12:20.237Z</time>
      </trkpt>
      <trkpt lat="43.1062264" lon="-2.7554003">
        <ele>153.603</ele>
        <time>2021-04-01T09:12:20.289Z</time>
      </trkpt>
      <trkpt lat="43.1062288" lon="-2.7554045">
        <ele>153.599</ele>
        <time>2021-04-01T09:12:20.341Z</time>
      </trkpt>
      <trkpt lat="43.1062313" lon="-2.7554088">
        <ele>153.608</ele>
        <time>2021-04-01T09:12:20.393Z</time>
      </trkpt>
      <trkpt lat="43.1062335" lon="-2.755413">
        <ele>153.607</ele>
        <time>2021-04-01T09:12:20.445Z</time>
      </trkpt>
      <trkpt lat="43.106236" lon="-2.7554169">
        <ele>153.596</ele>
        <time>2021-04-01T09:12:20.497Z</time>
      </trkpt>
      <trkpt lat="43.1062383" lon="-2.755421">
        <ele>153.576</ele>
        <time>2021-04-01T09:12:20.549Z</time>
      </trkpt>
      <trkpt lat="43.1062407" lon="-2.7554254">
        <ele>153.591</ele>
        <time>2021-04-01T09:12:20.601Z</time>
      </trkpt>
      <trkpt lat="43.1062433" lon="-2.7554295">
        <ele>153.594</ele>
        <time>2021-04-01T09:12:20.654Z</time>
      </trkpt>
      <trkpt lat="43.1062457" lon="-2.7554335">
        <ele>153.577</ele>
        <time>2021-04-01T09:12:20.715Z</time>
      </trkpt>
      <trkpt lat="43.1062481" lon="-2.7554374">
        <ele>153.57</ele>
        <time>2021-04-01T09:12:20.776Z</time>
      </trkpt>
      <trkpt lat="43.1062506" lon="-2.7554415">
        <ele>153.58</ele>
        <time>2021-04-01T09:12:20.838Z</time>
      </trkpt>
      <trkpt lat="43.1062533" lon="-2.7554458">
        <ele>153.607</ele>
        <time>2021-04-01T09:12:20.899Z</time>
      </trkpt>
      <trkpt lat="43.1062558" lon="-2.75545">
        <ele>153.618</ele>
        <time>2021-04-01T09:12:20.961Z</time>
      </trkpt>
      <trkpt lat="43.106258" lon="-2.7554541">
        <ele>153.605</ele>
        <time>2021-04-01T09:12:21.022Z</time>
      </trkpt>
      <trkpt lat="43.1062604" lon="-2.7554582">
        <ele>153.618</ele>
        <time>2021-04-01T09:12:21.084Z</time>
      </trkpt>
      <trkpt lat="43.106263" lon="-2.7554624">
        <ele>153.624</ele>
        <time>2021-04-01T09:12:21.145Z</time>
      </trkpt>
      <trkpt lat="43.1062655" lon="-2.7554664">
        <ele>153.621</ele>
        <time>2021-04-01T09:12:21.207Z</time>
      </trkpt>
      <trkpt lat="43.1062679" lon="-2.7554703">
        <ele>153.61</ele>
        <time>2021-04-01T09:12:21.268Z</time>
      </trkpt>
      <trkpt lat="43.1062702" lon="-2.7554748">
        <ele>153.618</ele>
        <time>2021-04-01T09:12:21.330Z</time>
      </trkpt>
      <trkpt lat="43.1062724" lon="-2.7554788">
        <ele>153.594</ele>
        <time>2021-04-01T09:12:21.391Z</time>
      </trkpt>
      <trkpt lat="43.1062747" lon="-2.7554829">
        <ele>153.568</ele>
        <time>2021-04-01T09:12:21.453Z</time>
      </trkpt>
      <trkpt lat="43.1062771" lon="-2.755487">
        <ele>153.567</ele>
        <time>2021-04-01T09:12:21.514Z</time>
      </trkpt>
      <trkpt lat="43.1062793" lon="-2.7554912">
        <ele>153.561</ele>
        <time>2021-04-01T09:12:21.576Z</time>
      </trkpt>
      <trkpt lat="43.1062816" lon="-2.7554954">
        <ele>153.566</ele>
        <time>2021-04-01T09:12:21.637Z</time>
      </trkpt>
      <trkpt lat="43.106284" lon="-2.7554996">
        <ele>153.575</ele>
        <time>2021-04-01T09:12:21.699Z</time>
      </trkpt>
      <trkpt lat="43.1062863" lon="-2.7555038">
        <ele>153.574</ele>
        <time>2021-04-01T09:12:21.751Z</time>
      </trkpt>
      <trkpt lat="43.1062886" lon="-2.7555081">
        <ele>153.592</ele>
        <time>2021-04-01T09:12:21.803Z</time>
      </trkpt>
      <trkpt lat="43.106291" lon="-2.7555126">
        <ele>153.621</ele>
        <time>2021-04-01T09:12:21.855Z</time>
      </trkpt>
      <trkpt lat="43.1062933" lon="-2.7555173">
        <ele>153.643</ele>
        <time>2021-04-01T09:12:21.907Z</time>
      </trkpt>
      <trkpt lat="43.1062958" lon="-2.7555214">
        <ele>153.667</ele>
        <time>2021-04-01T09:12:21.959Z</time>
      </trkpt>
      <trkpt lat="43.106298" lon="-2.7555258">
        <ele>153.68</ele>
        <time>2021-04-01T09:12:22.011Z</time>
      </trkpt>
      <trkpt lat="43.1063" lon="-2.7555301">
        <ele>153.652</ele>
        <time>2021-04-01T09:12:22.063Z</time>
      </trkpt>
      <trkpt lat="43.1063024" lon="-2.7555345">
        <ele>153.692</ele>
        <time>2021-04-01T09:12:22.115Z</time>
      </trkpt>
      <trkpt lat="43.1063046" lon="-2.755539">
        <ele>153.721</ele>
        <time>2021-04-01T09:12:22.167Z</time>
      </trkpt>
      <trkpt lat="43.106307" lon="-2.7555434">
        <ele>153.733</ele>
        <time>2021-04-01T09:12:22.220Z</time>
      </trkpt>
      <trkpt lat="43.1063093" lon="-2.7555477">
        <ele>153.734</ele>
        <time>2021-04-01T09:12:22.272Z</time>
      </trkpt>
      <trkpt lat="43.1063113" lon="-2.755552">
        <ele>153.723</ele>
        <time>2021-04-01T09:12:22.324Z</time>
      </trkpt>
      <trkpt lat="43.1063134" lon="-2.7555564">
        <ele>153.733</ele>
        <time>2021-04-01T09:12:22.376Z</time>
      </trkpt>
      <trkpt lat="43.1063159" lon="-2.7555606">
        <ele>153.744</ele>
        <time>2021-04-01T09:12:22.428Z</time>
      </trkpt>
      <trkpt lat="43.1063181" lon="-2.7555646">
        <ele>153.719</ele>
        <time>2021-04-01T09:12:22.480Z</time>
      </trkpt>
      <trkpt lat="43.1063205" lon="-2.7555689">
        <ele>153.709</ele>
        <time>2021-04-01T09:12:22.532Z</time>
      </trkpt>
      <trkpt lat="43.1063227" lon="-2.755573">
        <ele>153.707</ele>
        <time>2021-04-01T09:12:22.584Z</time>
      </trkpt>
      <trkpt lat="43.1063252" lon="-2.7555774">
        <ele>153.769</ele>
        <time>2021-04-01T09:12:22.636Z</time>
      </trkpt>
      <trkpt lat="43.1063276" lon="-2.7555818">
        <ele>153.774</ele>
        <time>2021-04-01T09:12:22.689Z</time>
      </trkpt>
      <trkpt lat="43.1063297" lon="-2.7555862">
        <ele>153.758</ele>
        <time>2021-04-01T09:12:22.744Z</time>
      </trkpt>
      <trkpt lat="43.106332" lon="-2.7555904">
        <ele>153.751</ele>
        <time>2021-04-01T09:12:22.799Z</time>
      </trkpt>
      <trkpt lat="43.1063343" lon="-2.7555945">
        <ele>153.763</ele>
        <time>2021-04-01T09:12:22.854Z</time>
      </trkpt>
      <trkpt lat="43.1063369" lon="-2.7555986">
        <ele>153.772</ele>
        <time>2021-04-01T09:12:22.909Z</time>
      </trkpt>
      <trkpt lat="43.1063392" lon="-2.7556028">
        <ele>153.768</ele>
        <time>2021-04-01T09:12:22.964Z</time>
      </trkpt>
      <trkpt lat="43.1063417" lon="-2.7556069">
        <ele>153.785</ele>
        <time>2021-04-01T09:12:23.019Z</time>
      </trkpt>
      <trkpt lat="43.1063442" lon="-2.7556111">
        <ele>153.799</ele>
        <time>2021-04-01T09:12:23.074Z</time>
      </trkpt>
      <trkpt lat="43.1063466" lon="-2.7556155">
        <ele>153.817</ele>
        <time>2021-04-01T09:12:23.129Z</time>
      </trkpt>
      <trkpt lat="43.106349" lon="-2.7556199">
        <ele>153.834</ele>
        <time>2021-04-01T09:12:23.184Z</time>
      </trkpt>
      <trkpt lat="43.1063514" lon="-2.7556241">
        <ele>153.821</ele>
        <time>2021-04-01T09:12:23.239Z</time>
      </trkpt>
      <trkpt lat="43.1063536" lon="-2.7556287">
        <ele>153.834</ele>
        <time>2021-04-01T09:12:23.294Z</time>
      </trkpt>
      <trkpt lat="43.106356" lon="-2.7556331">
        <ele>153.853</ele>
        <time>2021-04-01T09:12:23.349Z</time>
      </trkpt>
      <trkpt lat="43.1063582" lon="-2.7556373">
        <ele>153.855</ele>
        <time>2021-04-01T09:12:23.404Z</time>
      </trkpt>
      <trkpt lat="43.1063607" lon="-2.7556413">
        <ele>153.836</ele>
        <time>2021-04-01T09:12:23.459Z</time>
      </trkpt>
      <trkpt lat="43.106363" lon="-2.7556456">
        <ele>153.826</ele>
        <time>2021-04-01T09:12:23.514Z</time>
      </trkpt>
      <trkpt lat="43.1063653" lon="-2.7556499">
        <ele>153.841</ele>
        <time>2021-04-01T09:12:23.569Z</time>
      </trkpt>
      <trkpt lat="43.1063676" lon="-2.755654">
        <ele>153.827</ele>
        <time>2021-04-01T09:12:23.624Z</time>
      </trkpt>
      <trkpt lat="43.1063701" lon="-2.7556581">
        <ele>153.849</ele>
        <time>2021-04-01T09:12:23.679Z</time>
      </trkpt>
      <trkpt lat="43.1063724" lon="-2.7556624">
        <ele>153.831</ele>
        <time>2021-04-01T09:12:23.740Z</time>
      </trkpt>
      <trkpt lat="43.1063746" lon="-2.7556665">
        <ele>153.821</ele>
        <time>2021-04-01T09:12:23.801Z</time>
      </trkpt>
      <trkpt lat="43.106377" lon="-2.7556707">
        <ele>153.815</ele>
        <time>2021-04-01T09:12:23.863Z</time>
      </trkpt>
      <trkpt lat="43.1063796" lon="-2.7556749">
        <ele>153.829</ele>
        <time>2021-04-01T09:12:23.924Z</time>
      </trkpt>
      <trkpt lat="43.106382" lon="-2.755679">
        <ele>153.835</ele>
        <time>2021-04-01T09:12:23.986Z</time>
      </trkpt>
      <trkpt lat="43.106384" lon="-2.7556832">
        <ele>153.799</ele>
        <time>2021-04-01T09:12:24.047Z</time>
      </trkpt>
      <trkpt lat="43.1063863" lon="-2.7556875">
        <ele>153.787</ele>
        <time>2021-04-01T09:12:24.109Z</time>
      </trkpt>
      <trkpt lat="43.1063891" lon="-2.7556918">
        <ele>153.845</ele>
        <time>2021-04-01T09:12:24.170Z</time>
      </trkpt>
      <trkpt lat="43.1063917" lon="-2.7556957">
        <ele>153.839</ele>
        <time>2021-04-01T09:12:24.232Z</time>
      </trkpt>
      <trkpt lat="43.1063941" lon="-2.7556999">
        <ele>153.831</ele>
        <time>2021-04-01T09:12:24.293Z</time>
      </trkpt>
      <trkpt lat="43.1063965" lon="-2.7557041">
        <ele>153.836</ele>
        <time>2021-04-01T09:12:24.355Z</time>
      </trkpt>
      <trkpt lat="43.1063984" lon="-2.7557084">
        <ele>153.822</ele>
        <time>2021-04-01T09:12:24.416Z</time>
      </trkpt>
      <trkpt lat="43.1064009" lon="-2.7557126">
        <ele>153.833</ele>
        <time>2021-04-01T09:12:24.478Z</time>
      </trkpt>
      <trkpt lat="43.1064033" lon="-2.755717">
        <ele>153.837</ele>
        <time>2021-04-01T09:12:24.539Z</time>
      </trkpt>
      <trkpt lat="43.1064057" lon="-2.7557207">
        <ele>153.816</ele>
        <time>2021-04-01T09:12:24.601Z</time>
      </trkpt>
      <trkpt lat="43.1064081" lon="-2.7557247">
        <ele>153.809</ele>
        <time>2021-04-01T09:12:24.662Z</time>
      </trkpt>
      <trkpt lat="43.1064105" lon="-2.755729">
        <ele>153.825</ele>
        <time>2021-04-01T09:12:24.724Z</time>
      </trkpt>
      <trkpt lat="43.1064128" lon="-2.7557332">
        <ele>153.82</ele>
        <time>2021-04-01T09:12:24.776Z</time>
      </trkpt>
      <trkpt lat="43.1064152" lon="-2.7557373">
        <ele>153.797</ele>
        <time>2021-04-01T09:12:24.828Z</time>
      </trkpt>
      <trkpt lat="43.1064176" lon="-2.7557417">
        <ele>153.826</ele>
        <time>2021-04-01T09:12:24.880Z</time>
      </trkpt>
      <trkpt lat="43.1064202" lon="-2.755746">
        <ele>153.839</ele>
        <time>2021-04-01T09:12:24.932Z</time>
      </trkpt>
      <trkpt lat="43.1064227" lon="-2.7557502">
        <ele>153.872</ele>
        <time>2021-04-01T09:12:24.984Z</time>
      </trkpt>
      <trkpt lat="43.106425" lon="-2.7557544">
        <ele>153.862</ele>
        <time>2021-04-01T09:12:25.036Z</time>
      </trkpt>
      <trkpt lat="43.1064274" lon="-2.7557585">
        <ele>153.861</ele>
        <time>2021-04-01T09:12:25.088Z</time>
      </trkpt>
      <trkpt lat="43.1064297" lon="-2.7557625">
        <ele>153.874</ele>
        <time>2021-04-01T09:12:25.140Z</time>
      </trkpt>
      <trkpt lat="43.1064324" lon="-2.7557666">
        <ele>153.896</ele>
        <time>2021-04-01T09:12:25.192Z</time>
      </trkpt>
      <trkpt lat="43.1064351" lon="-2.7557708">
        <ele>153.915</ele>
        <time>2021-04-01T09:12:25.245Z</time>
      </trkpt>
      <trkpt lat="43.1064374" lon="-2.7557749">
        <ele>153.9</ele>
        <time>2021-04-01T09:12:25.297Z</time>
      </trkpt>
      <trkpt lat="43.1064398" lon="-2.755779">
        <ele>153.921</ele>
        <time>2021-04-01T09:12:25.349Z</time>
      </trkpt>
      <trkpt lat="43.1064421" lon="-2.7557833">
        <ele>153.91</ele>
        <time>2021-04-01T09:12:25.401Z</time>
      </trkpt>
      <trkpt lat="43.1064448" lon="-2.7557873">
        <ele>153.917</ele>
        <time>2021-04-01T09:12:25.453Z</time>
      </trkpt>
      <trkpt lat="43.1064472" lon="-2.7557912">
        <ele>153.902</ele>
        <time>2021-04-01T09:12:25.505Z</time>
      </trkpt>
      <trkpt lat="43.1064496" lon="-2.7557954">
        <ele>153.94</ele>
        <time>2021-04-01T09:12:25.557Z</time>
      </trkpt>
      <trkpt lat="43.1064522" lon="-2.7557996">
        <ele>153.948</ele>
        <time>2021-04-01T09:12:25.609Z</time>
      </trkpt>
      <trkpt lat="43.1064549" lon="-2.7558037">
        <ele>153.966</ele>
        <time>2021-04-01T09:12:25.661Z</time>
      </trkpt>
      <trkpt lat="43.1064572" lon="-2.755808">
        <ele>153.972</ele>
        <time>2021-04-01T09:12:25.714Z</time>
      </trkpt>
      <trkpt lat="43.1064597" lon="-2.7558122">
        <ele>153.993</ele>
        <time>2021-04-01T09:12:25.763Z</time>
      </trkpt>
      <trkpt lat="43.1064619" lon="-2.7558161">
        <ele>153.955</ele>
        <time>2021-04-01T09:12:25.812Z</time>
      </trkpt>
      <trkpt lat="43.1064642" lon="-2.7558201">
        <ele>153.944</ele>
        <time>2021-04-01T09:12:25.861Z</time>
      </trkpt>
      <trkpt lat="43.1064665" lon="-2.7558241">
        <ele>153.939</ele>
        <time>2021-04-01T09:12:25.910Z</time>
      </trkpt>
      <trkpt lat="43.1064689" lon="-2.7558283">
        <ele>153.934</ele>
        <time>2021-04-01T09:12:25.960Z</time>
      </trkpt>
      <trkpt lat="43.1064713" lon="-2.7558323">
        <ele>153.939</ele>
        <time>2021-04-01T09:12:26.009Z</time>
      </trkpt>
      <trkpt lat="43.1064737" lon="-2.7558366">
        <ele>153.954</ele>
        <time>2021-04-01T09:12:26.058Z</time>
      </trkpt>
      <trkpt lat="43.1064761" lon="-2.7558406">
        <ele>153.937</ele>
        <time>2021-04-01T09:12:26.107Z</time>
      </trkpt>
      <trkpt lat="43.1064785" lon="-2.7558444">
        <ele>153.909</ele>
        <time>2021-04-01T09:12:26.156Z</time>
      </trkpt>
      <trkpt lat="43.1064807" lon="-2.7558486">
        <ele>153.915</ele>
        <time>2021-04-01T09:12:26.206Z</time>
      </trkpt>
      <trkpt lat="43.1064831" lon="-2.7558528">
        <ele>153.927</ele>
        <time>2021-04-01T09:12:26.255Z</time>
      </trkpt>
      <trkpt lat="43.1064858" lon="-2.7558571">
        <ele>153.959</ele>
        <time>2021-04-01T09:12:26.304Z</time>
      </trkpt>
      <trkpt lat="43.1064884" lon="-2.7558612">
        <ele>153.971</ele>
        <time>2021-04-01T09:12:26.353Z</time>
      </trkpt>
      <trkpt lat="43.1064909" lon="-2.7558652">
        <ele>153.974</ele>
        <time>2021-04-01T09:12:26.402Z</time>
      </trkpt>
      <trkpt lat="43.1064932" lon="-2.7558695">
        <ele>153.983</ele>
        <time>2021-04-01T09:12:26.452Z</time>
      </trkpt>
      <trkpt lat="43.1064955" lon="-2.7558736">
        <ele>153.985</ele>
        <time>2021-04-01T09:12:26.501Z</time>
      </trkpt>
      <trkpt lat="43.1064981" lon="-2.7558779">
        <ele>154.002</ele>
        <time>2021-04-01T09:12:26.550Z</time>
      </trkpt>
      <trkpt lat="43.1065005" lon="-2.755882">
        <ele>154.025</ele>
        <time>2021-04-01T09:12:26.599Z</time>
      </trkpt>
      <trkpt lat="43.1065029" lon="-2.7558866">
        <ele>154.069</ele>
        <time>2021-04-01T09:12:26.649Z</time>
      </trkpt>
      <trkpt lat="43.1065052" lon="-2.7558907">
        <ele>154.056</ele>
        <time>2021-04-01T09:12:26.707Z</time>
      </trkpt>
      <trkpt lat="43.1065076" lon="-2.7558949">
        <ele>154.072</ele>
        <time>2021-04-01T09:12:26.765Z</time>
      </trkpt>
      <trkpt lat="43.1065101" lon="-2.7558992">
        <ele>154.108</ele>
        <time>2021-04-01T09:12:26.823Z</time>
      </trkpt>
      <trkpt lat="43.1065125" lon="-2.7559034">
        <ele>154.107</ele>
        <time>2021-04-01T09:12:26.881Z</time>
      </trkpt>
      <trkpt lat="43.1065148" lon="-2.7559073">
        <ele>154.087</ele>
        <time>2021-04-01T09:12:26.939Z</time>
      </trkpt>
      <trkpt lat="43.1065172" lon="-2.7559114">
        <ele>154.09</ele>
        <time>2021-04-01T09:12:26.997Z</time>
      </trkpt>
      <trkpt lat="43.1065197" lon="-2.7559155">
        <ele>154.109</ele>
        <time>2021-04-01T09:12:27.055Z</time>
      </trkpt>
      <trkpt lat="43.1065222" lon="-2.7559195">
        <ele>154.117</ele>
        <time>2021-04-01T09:12:27.113Z</time>
      </trkpt>
      <trkpt lat="43.1065244" lon="-2.7559236">
        <ele>154.087</ele>
        <time>2021-04-01T09:12:27.171Z</time>
      </trkpt>
      <trkpt lat="43.1065267" lon="-2.7559278">
        <ele>154.088</ele>
        <time>2021-04-01T09:12:27.229Z</time>
      </trkpt>
      <trkpt lat="43.1065288" lon="-2.755932">
        <ele>154.072</ele>
        <time>2021-04-01T09:12:27.287Z</time>
      </trkpt>
      <trkpt lat="43.1065312" lon="-2.7559362">
        <ele>154.084</ele>
        <time>2021-04-01T09:12:27.345Z</time>
      </trkpt>
      <trkpt lat="43.1065336" lon="-2.7559404">
        <ele>154.093</ele>
        <time>2021-04-01T09:12:27.403Z</time>
      </trkpt>
      <trkpt lat="43.1065359" lon="-2.7559446">
        <ele>154.102</ele>
        <time>2021-04-01T09:12:27.461Z</time>
      </trkpt>
      <trkpt lat="43.1065381" lon="-2.7559488">
        <ele>154.108</ele>
        <time>2021-04-01T09:12:27.519Z</time>
      </trkpt>
      <trkpt lat="43.1065404" lon="-2.7559529">
        <ele>154.104</ele>
        <time>2021-04-01T09:12:27.577Z</time>
      </trkpt>
      <trkpt lat="43.1065428" lon="-2.7559571">
        <ele>154.111</ele>
        <time>2021-04-01T09:12:27.635Z</time>
      </trkpt>
      <trkpt lat="43.1065451" lon="-2.7559613">
        <ele>154.112</ele>
        <time>2021-04-01T09:12:27.694Z</time>
      </trkpt>
      <trkpt lat="43.1065475" lon="-2.7559654">
        <ele>154.132</ele>
        <time>2021-04-01T09:12:27.749Z</time>
      </trkpt>
      <trkpt lat="43.1065498" lon="-2.7559696">
        <ele>154.133</ele>
        <time>2021-04-01T09:12:27.804Z</time>
      </trkpt>
      <trkpt lat="43.1065521" lon="-2.7559737">
        <ele>154.134</ele>
        <time>2021-04-01T09:12:27.859Z</time>
      </trkpt>
      <trkpt lat="43.1065545" lon="-2.7559778">
        <ele>154.12</ele>
        <time>2021-04-01T09:12:27.914Z</time>
      </trkpt>
      <trkpt lat="43.1065568" lon="-2.7559818">
        <ele>154.13</ele>
        <time>2021-04-01T09:12:27.969Z</time>
      </trkpt>
      <trkpt lat="43.1065591" lon="-2.7559859">
        <ele>154.124</ele>
        <time>2021-04-01T09:12:28.024Z</time>
      </trkpt>
      <trkpt lat="43.1065614" lon="-2.75599">
        <ele>154.108</ele>
        <time>2021-04-01T09:12:28.079Z</time>
      </trkpt>
      <trkpt lat="43.1065638" lon="-2.7559942">
        <ele>154.133</ele>
        <time>2021-04-01T09:12:28.134Z</time>
      </trkpt>
      <trkpt lat="43.1065659" lon="-2.7559984">
        <ele>154.122</ele>
        <time>2021-04-01T09:12:28.189Z</time>
      </trkpt>
      <trkpt lat="43.1065685" lon="-2.7560026">
        <ele>154.149</ele>
        <time>2021-04-01T09:12:28.244Z</time>
      </trkpt>
      <trkpt lat="43.106571" lon="-2.7560066">
        <ele>154.171</ele>
        <time>2021-04-01T09:12:28.299Z</time>
      </trkpt>
      <trkpt lat="43.1065732" lon="-2.7560107">
        <ele>154.157</ele>
        <time>2021-04-01T09:12:28.354Z</time>
      </trkpt>
      <trkpt lat="43.1065755" lon="-2.7560148">
        <ele>154.154</ele>
        <time>2021-04-01T09:12:28.409Z</time>
      </trkpt>
      <trkpt lat="43.106578" lon="-2.7560189">
        <ele>154.18</ele>
        <time>2021-04-01T09:12:28.464Z</time>
      </trkpt>
      <trkpt lat="43.1065805" lon="-2.7560232">
        <ele>154.198</ele>
        <time>2021-04-01T09:12:28.519Z</time>
      </trkpt>
      <trkpt lat="43.1065829" lon="-2.7560274">
        <ele>154.195</ele>
        <time>2021-04-01T09:12:28.574Z</time>
      </trkpt>
      <trkpt lat="43.1065853" lon="-2.7560313">
        <ele>154.189</ele>
        <time>2021-04-01T09:12:28.629Z</time>
      </trkpt>
      <trkpt lat="43.1065879" lon="-2.7560354">
        <ele>154.21</ele>
        <time>2021-04-01T09:12:28.684Z</time>
      </trkpt>
      <trkpt lat="43.1065902" lon="-2.7560394">
        <ele>154.213</ele>
        <time>2021-04-01T09:12:28.739Z</time>
      </trkpt>
      <trkpt lat="43.1065926" lon="-2.7560434">
        <ele>154.22</ele>
        <time>2021-04-01T09:12:28.794Z</time>
      </trkpt>
      <trkpt lat="43.106595" lon="-2.7560475">
        <ele>154.204</ele>
        <time>2021-04-01T09:12:28.849Z</time>
      </trkpt>
      <trkpt lat="43.1065971" lon="-2.7560517">
        <ele>154.182</ele>
        <time>2021-04-01T09:12:28.904Z</time>
      </trkpt>
      <trkpt lat="43.1065995" lon="-2.7560558">
        <ele>154.196</ele>
        <time>2021-04-01T09:12:28.959Z</time>
      </trkpt>
      <trkpt lat="43.1066018" lon="-2.7560599">
        <ele>154.206</ele>
        <time>2021-04-01T09:12:29.014Z</time>
      </trkpt>
      <trkpt lat="43.1066042" lon="-2.7560639">
        <ele>154.205</ele>
        <time>2021-04-01T09:12:29.069Z</time>
      </trkpt>
      <trkpt lat="43.1066066" lon="-2.7560678">
        <ele>154.192</ele>
        <time>2021-04-01T09:12:29.124Z</time>
      </trkpt>
      <trkpt lat="43.1066089" lon="-2.756072">
        <ele>154.189</ele>
        <time>2021-04-01T09:12:29.179Z</time>
      </trkpt>
      <trkpt lat="43.1066112" lon="-2.7560762">
        <ele>154.186</ele>
        <time>2021-04-01T09:12:29.234Z</time>
      </trkpt>
      <trkpt lat="43.1066135" lon="-2.7560803">
        <ele>154.185</ele>
        <time>2021-04-01T09:12:29.289Z</time>
      </trkpt>
      <trkpt lat="43.1066158" lon="-2.7560845">
        <ele>154.193</ele>
        <time>2021-04-01T09:12:29.344Z</time>
      </trkpt>
      <trkpt lat="43.1066183" lon="-2.7560883">
        <ele>154.179</ele>
        <time>2021-04-01T09:12:29.399Z</time>
      </trkpt>
      <trkpt lat="43.1066206" lon="-2.7560922">
        <ele>154.171</ele>
        <time>2021-04-01T09:12:29.454Z</time>
      </trkpt>
      <trkpt lat="43.1066228" lon="-2.7560965">
        <ele>154.161</ele>
        <time>2021-04-01T09:12:29.509Z</time>
      </trkpt>
      <trkpt lat="43.1066253" lon="-2.7561007">
        <ele>154.144</ele>
        <time>2021-04-01T09:12:29.564Z</time>
      </trkpt>
      <trkpt lat="43.106628" lon="-2.7561049">
        <ele>154.153</ele>
        <time>2021-04-01T09:12:29.619Z</time>
      </trkpt>
      <trkpt lat="43.1066301" lon="-2.7561091">
        <ele>154.145</ele>
        <time>2021-04-01T09:12:29.674Z</time>
      </trkpt>
      <trkpt lat="43.1066324" lon="-2.7561133">
        <ele>154.13</ele>
        <time>2021-04-01T09:12:29.729Z</time>
      </trkpt>
      <trkpt lat="43.1066347" lon="-2.7561175">
        <ele>154.124</ele>
        <time>2021-04-01T09:12:29.784Z</time>
      </trkpt>
      <trkpt lat="43.1066369" lon="-2.7561219">
        <ele>154.131</ele>
        <time>2021-04-01T09:12:29.839Z</time>
      </trkpt>
      <trkpt lat="43.1066392" lon="-2.7561261">
        <ele>154.126</ele>
        <time>2021-04-01T09:12:29.894Z</time>
      </trkpt>
      <trkpt lat="43.1066416" lon="-2.7561303">
        <ele>154.136</ele>
        <time>2021-04-01T09:12:29.949Z</time>
      </trkpt>
      <trkpt lat="43.1066437" lon="-2.7561347">
        <ele>154.141</ele>
        <time>2021-04-01T09:12:30.004Z</time>
      </trkpt>
      <trkpt lat="43.106646" lon="-2.7561389">
        <ele>154.166</ele>
        <time>2021-04-01T09:12:30.059Z</time>
      </trkpt>
      <trkpt lat="43.1066483" lon="-2.7561433">
        <ele>154.181</ele>
        <time>2021-04-01T09:12:30.114Z</time>
      </trkpt>
      <trkpt lat="43.1066508" lon="-2.7561478">
        <ele>154.193</ele>
        <time>2021-04-01T09:12:30.169Z</time>
      </trkpt>
      <trkpt lat="43.106653" lon="-2.756152">
        <ele>154.194</ele>
        <time>2021-04-01T09:12:30.224Z</time>
      </trkpt>
      <trkpt lat="43.1066548" lon="-2.7561566">
        <ele>154.18</ele>
        <time>2021-04-01T09:12:30.279Z</time>
      </trkpt>
      <trkpt lat="43.1066572" lon="-2.7561609">
        <ele>154.187</ele>
        <time>2021-04-01T09:12:30.334Z</time>
      </trkpt>
      <trkpt lat="43.1066597" lon="-2.7561653">
        <ele>154.202</ele>
        <time>2021-04-01T09:12:30.389Z</time>
      </trkpt>
      <trkpt lat="43.1066623" lon="-2.7561695">
        <ele>154.217</ele>
        <time>2021-04-01T09:12:30.444Z</time>
      </trkpt>
      <trkpt lat="43.1066646" lon="-2.7561738">
        <ele>154.21</ele>
        <time>2021-04-01T09:12:30.499Z</time>
      </trkpt>
      <trkpt lat="43.106667" lon="-2.7561776">
        <ele>154.19</ele>
        <time>2021-04-01T09:12:30.554Z</time>
      </trkpt>
      <trkpt lat="43.1066698" lon="-2.7561812">
        <ele>154.217</ele>
        <time>2021-04-01T09:12:30.609Z</time>
      </trkpt>
      <trkpt lat="43.106673" lon="-2.7561844">
        <ele>154.331</ele>
        <time>2021-04-01T09:12:30.664Z</time>
      </trkpt>
      <trkpt lat="43.1066756" lon="-2.7561885">
        <ele>154.399</ele>
        <time>2021-04-01T09:12:30.716Z</time>
      </trkpt>
      <trkpt lat="43.1066779" lon="-2.7561932">
        <ele>154.386</ele>
        <time>2021-04-01T09:12:30.768Z</time>
      </trkpt>
      <trkpt lat="43.1066801" lon="-2.7561975">
        <ele>154.315</ele>
        <time>2021-04-01T09:12:30.820Z</time>
      </trkpt>
      <trkpt lat="43.1066821" lon="-2.7562018">
        <ele>154.302</ele>
        <time>2021-04-01T09:12:30.872Z</time>
      </trkpt>
      <trkpt lat="43.1066842" lon="-2.756206">
        <ele>154.333</ele>
        <time>2021-04-01T09:12:30.924Z</time>
      </trkpt>
      <trkpt lat="43.1066861" lon="-2.7562101">
        <ele>154.315</ele>
        <time>2021-04-01T09:12:30.976Z</time>
      </trkpt>
      <trkpt lat="43.1066882" lon="-2.7562144">
        <ele>154.307</ele>
        <time>2021-04-01T09:12:31.028Z</time>
      </trkpt>
      <trkpt lat="43.1066906" lon="-2.7562184">
        <ele>154.3</ele>
        <time>2021-04-01T09:12:31.080Z</time>
      </trkpt>
      <trkpt lat="43.1066932" lon="-2.7562224">
        <ele>154.321</ele>
        <time>2021-04-01T09:12:31.132Z</time>
      </trkpt>
      <trkpt lat="43.1066959" lon="-2.7562265">
        <ele>154.317</ele>
        <time>2021-04-01T09:12:31.185Z</time>
      </trkpt>
      <trkpt lat="43.1066979" lon="-2.7562306">
        <ele>154.289</ele>
        <time>2021-04-01T09:12:31.237Z</time>
      </trkpt>
      <trkpt lat="43.1067001" lon="-2.7562349">
        <ele>154.259</ele>
        <time>2021-04-01T09:12:31.289Z</time>
      </trkpt>
      <trkpt lat="43.1067024" lon="-2.756239">
        <ele>154.201</ele>
        <time>2021-04-01T09:12:31.341Z</time>
      </trkpt>
      <trkpt lat="43.1067049" lon="-2.7562429">
        <ele>154.169</ele>
        <time>2021-04-01T09:12:31.393Z</time>
      </trkpt>
      <trkpt lat="43.1067074" lon="-2.7562468">
        <ele>154.194</ele>
        <time>2021-04-01T09:12:31.445Z</time>
      </trkpt>
      <trkpt lat="43.1067103" lon="-2.756251">
        <ele>154.255</ele>
        <time>2021-04-01T09:12:31.497Z</time>
      </trkpt>
      <trkpt lat="43.1067126" lon="-2.7562551">
        <ele>154.261</ele>
        <time>2021-04-01T09:12:31.549Z</time>
      </trkpt>
      <trkpt lat="43.106715" lon="-2.7562591">
        <ele>154.313</ele>
        <time>2021-04-01T09:12:31.601Z</time>
      </trkpt>
      <trkpt lat="43.1067173" lon="-2.7562633">
        <ele>154.317</ele>
        <time>2021-04-01T09:12:31.654Z</time>
      </trkpt>
      <trkpt lat="43.1067197" lon="-2.7562674">
        <ele>154.334</ele>
        <time>2021-04-01T09:12:31.712Z</time>
      </trkpt>
      <trkpt lat="43.1067221" lon="-2.7562714">
        <ele>154.334</ele>
        <time>2021-04-01T09:12:31.770Z</time>
      </trkpt>
      <trkpt lat="43.1067246" lon="-2.7562753">
        <ele>154.347</ele>
        <time>2021-04-01T09:12:31.828Z</time>
      </trkpt>
      <trkpt lat="43.1067271" lon="-2.7562795">
        <ele>154.349</ele>
        <time>2021-04-01T09:12:31.886Z</time>
      </trkpt>
      <trkpt lat="43.1067295" lon="-2.7562835">
        <ele>154.356</ele>
        <time>2021-04-01T09:12:31.944Z</time>
      </trkpt>
      <trkpt lat="43.1067317" lon="-2.7562877">
        <ele>154.341</ele>
        <time>2021-04-01T09:12:32.002Z</time>
      </trkpt>
      <trkpt lat="43.1067342" lon="-2.7562915">
        <ele>154.356</ele>
        <time>2021-04-01T09:12:32.060Z</time>
      </trkpt>
      <trkpt lat="43.1067363" lon="-2.7562957">
        <ele>154.349</ele>
        <time>2021-04-01T09:12:32.118Z</time>
      </trkpt>
      <trkpt lat="43.1067386" lon="-2.7563">
        <ele>154.322</ele>
        <time>2021-04-01T09:12:32.176Z</time>
      </trkpt>
      <trkpt lat="43.1067409" lon="-2.7563045">
        <ele>154.285</ele>
        <time>2021-04-01T09:12:32.234Z</time>
      </trkpt>
      <trkpt lat="43.1067434" lon="-2.7563083">
        <ele>154.282</ele>
        <time>2021-04-01T09:12:32.292Z</time>
      </trkpt>
      <trkpt lat="43.1067458" lon="-2.7563126">
        <ele>154.262</ele>
        <time>2021-04-01T09:12:32.350Z</time>
      </trkpt>
      <trkpt lat="43.1067481" lon="-2.7563174">
        <ele>154.298</ele>
        <time>2021-04-01T09:12:32.408Z</time>
      </trkpt>
      <trkpt lat="43.1067506" lon="-2.7563219">
        <ele>154.321</ele>
        <time>2021-04-01T09:12:32.466Z</time>
      </trkpt>
      <trkpt lat="43.1067531" lon="-2.7563263">
        <ele>154.325</ele>
        <time>2021-04-01T09:12:32.524Z</time>
      </trkpt>
      <trkpt lat="43.1067554" lon="-2.7563304">
        <ele>154.357</ele>
        <time>2021-04-01T09:12:32.582Z</time>
      </trkpt>
      <trkpt lat="43.1067578" lon="-2.7563343">
        <ele>154.368</ele>
        <time>2021-04-01T09:12:32.640Z</time>
      </trkpt>
      <trkpt lat="43.1067599" lon="-2.7563384">
        <ele>154.34</ele>
        <time>2021-04-01T09:12:32.699Z</time>
      </trkpt>
      <trkpt lat="43.1067621" lon="-2.7563425">
        <ele>154.341</ele>
        <time>2021-04-01T09:12:32.754Z</time>
      </trkpt>
      <trkpt lat="43.1067645" lon="-2.7563464">
        <ele>154.333</ele>
        <time>2021-04-01T09:12:32.809Z</time>
      </trkpt>
      <trkpt lat="43.1067671" lon="-2.7563505">
        <ele>154.352</ele>
        <time>2021-04-01T09:12:32.864Z</time>
      </trkpt>
      <trkpt lat="43.1067693" lon="-2.7563547">
        <ele>154.348</ele>
        <time>2021-04-01T09:12:32.919Z</time>
      </trkpt>
      <trkpt lat="43.1067719" lon="-2.7563584">
        <ele>154.356</ele>
        <time>2021-04-01T09:12:32.974Z</time>
      </trkpt>
      <trkpt lat="43.1067743" lon="-2.7563624">
        <ele>154.345</ele>
        <time>2021-04-01T09:12:33.029Z</time>
      </trkpt>
      <trkpt lat="43.1067766" lon="-2.7563668">
        <ele>154.362</ele>
        <time>2021-04-01T09:12:33.084Z</time>
      </trkpt>
      <trkpt lat="43.1067788" lon="-2.7563711">
        <ele>154.353</ele>
        <time>2021-04-01T09:12:33.139Z</time>
      </trkpt>
      <trkpt lat="43.1067814" lon="-2.7563749">
        <ele>154.34</ele>
        <time>2021-04-01T09:12:33.194Z</time>
      </trkpt>
      <trkpt lat="43.1067841" lon="-2.756379">
        <ele>154.337</ele>
        <time>2021-04-01T09:12:33.249Z</time>
      </trkpt>
      <trkpt lat="43.1067866" lon="-2.756383">
        <ele>154.351</ele>
        <time>2021-04-01T09:12:33.304Z</time>
      </trkpt>
      <trkpt lat="43.1067891" lon="-2.7563874">
        <ele>154.371</ele>
        <time>2021-04-01T09:12:33.359Z</time>
      </trkpt>
      <trkpt lat="43.1067916" lon="-2.7563916">
        <ele>154.366</ele>
        <time>2021-04-01T09:12:33.414Z</time>
      </trkpt>
      <trkpt lat="43.1067941" lon="-2.7563959">
        <ele>154.371</ele>
        <time>2021-04-01T09:12:33.469Z</time>
      </trkpt>
      <trkpt lat="43.1067965" lon="-2.7564001">
        <ele>154.399</ele>
        <time>2021-04-01T09:12:33.524Z</time>
      </trkpt>
      <trkpt lat="43.106799" lon="-2.7564039">
        <ele>154.381</ele>
        <time>2021-04-01T09:12:33.579Z</time>
      </trkpt>
      <trkpt lat="43.1068015" lon="-2.7564076">
        <ele>154.351</ele>
        <time>2021-04-01T09:12:33.634Z</time>
      </trkpt>
      <trkpt lat="43.1068039" lon="-2.7564114">
        <ele>154.328</ele>
        <time>2021-04-01T09:12:33.689Z</time>
      </trkpt>
      <trkpt lat="43.1068064" lon="-2.7564154">
        <ele>154.304</ele>
        <time>2021-04-01T09:12:33.744Z</time>
      </trkpt>
      <trkpt lat="43.1068092" lon="-2.7564192">
        <ele>154.319</ele>
        <time>2021-04-01T09:12:33.799Z</time>
      </trkpt>
      <trkpt lat="43.1068116" lon="-2.7564235">
        <ele>154.307</ele>
        <time>2021-04-01T09:12:33.854Z</time>
      </trkpt>
      <trkpt lat="43.106814" lon="-2.7564275">
        <ele>154.281</ele>
        <time>2021-04-01T09:12:33.909Z</time>
      </trkpt>
      <trkpt lat="43.1068163" lon="-2.7564317">
        <ele>154.251</ele>
        <time>2021-04-01T09:12:33.964Z</time>
      </trkpt>
      <trkpt lat="43.106819" lon="-2.7564354">
        <ele>154.202</ele>
        <time>2021-04-01T09:12:34.019Z</time>
      </trkpt>
      <trkpt lat="43.1068214" lon="-2.7564393">
        <ele>154.196</ele>
        <time>2021-04-01T09:12:34.074Z</time>
      </trkpt>
      <trkpt lat="43.106824" lon="-2.7564435">
        <ele>154.176</ele>
        <time>2021-04-01T09:12:34.129Z</time>
      </trkpt>
      <trkpt lat="43.1068266" lon="-2.7564477">
        <ele>154.177</ele>
        <time>2021-04-01T09:12:34.184Z</time>
      </trkpt>
      <trkpt lat="43.106829" lon="-2.7564522">
        <ele>154.172</ele>
        <time>2021-04-01T09:12:34.239Z</time>
      </trkpt>
      <trkpt lat="43.1068314" lon="-2.7564564">
        <ele>154.158</ele>
        <time>2021-04-01T09:12:34.294Z</time>
      </trkpt>
      <trkpt lat="43.1068339" lon="-2.7564604">
        <ele>154.164</ele>
        <time>2021-04-01T09:12:34.349Z</time>
      </trkpt>
      <trkpt lat="43.1068364" lon="-2.7564643">
        <ele>154.147</ele>
        <time>2021-04-01T09:12:34.404Z</time>
      </trkpt>
      <trkpt lat="43.1068389" lon="-2.7564686">
        <ele>154.143</ele>
        <time>2021-04-01T09:12:34.459Z</time>
      </trkpt>
      <trkpt lat="43.1068413" lon="-2.7564733">
        <ele>154.195</ele>
        <time>2021-04-01T09:12:34.514Z</time>
      </trkpt>
      <trkpt lat="43.1068438" lon="-2.7564772">
        <ele>154.188</ele>
        <time>2021-04-01T09:12:34.569Z</time>
      </trkpt>
      <trkpt lat="43.1068464" lon="-2.756481">
        <ele>154.157</ele>
        <time>2021-04-01T09:12:34.624Z</time>
      </trkpt>
      <trkpt lat="43.1068489" lon="-2.7564853">
        <ele>154.131</ele>
        <time>2021-04-01T09:12:34.679Z</time>
      </trkpt>
      <trkpt lat="43.1068514" lon="-2.7564894">
        <ele>154.131</ele>
        <time>2021-04-01T09:12:34.734Z</time>
      </trkpt>
      <trkpt lat="43.106854" lon="-2.7564935">
        <ele>154.131</ele>
        <time>2021-04-01T09:12:34.789Z</time>
      </trkpt>
      <trkpt lat="43.1068566" lon="-2.7564976">
        <ele>154.138</ele>
        <time>2021-04-01T09:12:34.844Z</time>
      </trkpt>
      <trkpt lat="43.1068591" lon="-2.7565016">
        <ele>154.149</ele>
        <time>2021-04-01T09:12:34.899Z</time>
      </trkpt>
      <trkpt lat="43.1068615" lon="-2.7565056">
        <ele>154.142</ele>
        <time>2021-04-01T09:12:34.954Z</time>
      </trkpt>
      <trkpt lat="43.1068639" lon="-2.7565096">
        <ele>154.133</ele>
        <time>2021-04-01T09:12:35.009Z</time>
      </trkpt>
      <trkpt lat="43.1068664" lon="-2.7565137">
        <ele>154.134</ele>
        <time>2021-04-01T09:12:35.064Z</time>
      </trkpt>
      <trkpt lat="43.1068689" lon="-2.7565177">
        <ele>154.145</ele>
        <time>2021-04-01T09:12:35.119Z</time>
      </trkpt>
      <trkpt lat="43.1068715" lon="-2.7565219">
        <ele>154.143</ele>
        <time>2021-04-01T09:12:35.174Z</time>
      </trkpt>
      <trkpt lat="43.1068739" lon="-2.7565262">
        <ele>154.123</ele>
        <time>2021-04-01T09:12:35.229Z</time>
      </trkpt>
      <trkpt lat="43.1068766" lon="-2.7565305">
        <ele>154.131</ele>
        <time>2021-04-01T09:12:35.284Z</time>
      </trkpt>
      <trkpt lat="43.1068791" lon="-2.7565347">
        <ele>154.097</ele>
        <time>2021-04-01T09:12:35.339Z</time>
      </trkpt>
      <trkpt lat="43.1068816" lon="-2.756539">
        <ele>154.134</ele>
        <time>2021-04-01T09:12:35.394Z</time>
      </trkpt>
      <trkpt lat="43.1068838" lon="-2.7565431">
        <ele>154.239</ele>
        <time>2021-04-01T09:12:35.449Z</time>
      </trkpt>
      <trkpt lat="43.1068861" lon="-2.756547">
        <ele>154.335</ele>
        <time>2021-04-01T09:12:35.504Z</time>
      </trkpt>
      <trkpt lat="43.1068888" lon="-2.7565514">
        <ele>154.272</ele>
        <time>2021-04-01T09:12:35.559Z</time>
      </trkpt>
      <trkpt lat="43.1068911" lon="-2.7565558">
        <ele>154.213</ele>
        <time>2021-04-01T09:12:35.614Z</time>
      </trkpt>
      <trkpt lat="43.1068934" lon="-2.7565597">
        <ele>154.172</ele>
        <time>2021-04-01T09:12:35.669Z</time>
      </trkpt>
      <trkpt lat="43.1068955" lon="-2.7565635">
        <ele>154.131</ele>
        <time>2021-04-01T09:12:35.724Z</time>
      </trkpt>
      <trkpt lat="43.1068978" lon="-2.7565674">
        <ele>154.107</ele>
        <time>2021-04-01T09:12:35.782Z</time>
      </trkpt>
      <trkpt lat="43.1069007" lon="-2.7565713">
        <ele>154.131</ele>
        <time>2021-04-01T09:12:35.840Z</time>
      </trkpt>
      <trkpt lat="43.1069034" lon="-2.7565757">
        <ele>154.132</ele>
        <time>2021-04-01T09:12:35.898Z</time>
      </trkpt>
      <trkpt lat="43.1069059" lon="-2.7565799">
        <ele>154.082</ele>
        <time>2021-04-01T09:12:35.956Z</time>
      </trkpt>
      <trkpt lat="43.1069084" lon="-2.7565841">
        <ele>154.068</ele>
        <time>2021-04-01T09:12:36.015Z</time>
      </trkpt>
      <trkpt lat="43.1069109" lon="-2.7565883">
        <ele>154.048</ele>
        <time>2021-04-01T09:12:36.073Z</time>
      </trkpt>
      <trkpt lat="43.106913" lon="-2.7565925">
        <ele>153.929</ele>
        <time>2021-04-01T09:12:36.131Z</time>
      </trkpt>
      <trkpt lat="43.1069153" lon="-2.7565968">
        <ele>153.837</ele>
        <time>2021-04-01T09:12:36.189Z</time>
      </trkpt>
      <trkpt lat="43.1069176" lon="-2.7566007">
        <ele>153.812</ele>
        <time>2021-04-01T09:12:36.248Z</time>
      </trkpt>
      <trkpt lat="43.1069202" lon="-2.7566048">
        <ele>153.87</ele>
        <time>2021-04-01T09:12:36.306Z</time>
      </trkpt>
      <trkpt lat="43.1069226" lon="-2.7566089">
        <ele>153.879</ele>
        <time>2021-04-01T09:12:36.364Z</time>
      </trkpt>
      <trkpt lat="43.1069251" lon="-2.7566134">
        <ele>153.869</ele>
        <time>2021-04-01T09:12:36.422Z</time>
      </trkpt>
      <trkpt lat="43.1069275" lon="-2.7566173">
        <ele>153.87</ele>
        <time>2021-04-01T09:12:36.481Z</time>
      </trkpt>
      <trkpt lat="43.1069296" lon="-2.7566214">
        <ele>153.885</ele>
        <time>2021-04-01T09:12:36.539Z</time>
      </trkpt>
      <trkpt lat="43.1069318" lon="-2.7566254">
        <ele>153.831</ele>
        <time>2021-04-01T09:12:36.597Z</time>
      </trkpt>
      <trkpt lat="43.1069337" lon="-2.7566294">
        <ele>153.809</ele>
        <time>2021-04-01T09:12:36.655Z</time>
      </trkpt>
      <trkpt lat="43.1069347" lon="-2.7566336">
        <ele>153.717</ele>
        <time>2021-04-01T09:12:36.714Z</time>
      </trkpt>
      <trkpt lat="43.1069362" lon="-2.756638">
        <ele>153.661</ele>
        <time>2021-04-01T09:12:36.769Z</time>
      </trkpt>
      <trkpt lat="43.1069381" lon="-2.7566423">
        <ele>153.609</ele>
        <time>2021-04-01T09:12:36.824Z</time>
      </trkpt>
      <trkpt lat="43.1069407" lon="-2.7566462">
        <ele>153.598</ele>
        <time>2021-04-01T09:12:36.879Z</time>
      </trkpt>
      <trkpt lat="43.1069424" lon="-2.75665">
        <ele>153.51</ele>
        <time>2021-04-01T09:12:36.934Z</time>
      </trkpt>
      <trkpt lat="43.1069448" lon="-2.7566536">
        <ele>153.479</ele>
        <time>2021-04-01T09:12:36.989Z</time>
      </trkpt>
      <trkpt lat="43.1069473" lon="-2.7566574">
        <ele>153.476</ele>
        <time>2021-04-01T09:12:37.044Z</time>
      </trkpt>
      <trkpt lat="43.1069497" lon="-2.7566612">
        <ele>153.466</ele>
        <time>2021-04-01T09:12:37.099Z</time>
      </trkpt>
      <trkpt lat="43.1069521" lon="-2.7566649">
        <ele>153.421</ele>
        <time>2021-04-01T09:12:37.154Z</time>
      </trkpt>
      <trkpt lat="43.1069548" lon="-2.7566685">
        <ele>153.446</ele>
        <time>2021-04-01T09:12:37.209Z</time>
      </trkpt>
      <trkpt lat="43.1069573" lon="-2.756672">
        <ele>153.473</ele>
        <time>2021-04-01T09:12:37.264Z</time>
      </trkpt>
      <trkpt lat="43.10696" lon="-2.7566757">
        <ele>153.451</ele>
        <time>2021-04-01T09:12:37.319Z</time>
      </trkpt>
      <trkpt lat="43.1069626" lon="-2.7566791">
        <ele>153.392</ele>
        <time>2021-04-01T09:12:37.374Z</time>
      </trkpt>
      <trkpt lat="43.1069653" lon="-2.7566827">
        <ele>153.368</ele>
        <time>2021-04-01T09:12:37.429Z</time>
      </trkpt>
      <trkpt lat="43.1069678" lon="-2.7566863">
        <ele>153.35</ele>
        <time>2021-04-01T09:12:37.484Z</time>
      </trkpt>
      <trkpt lat="43.1069703" lon="-2.7566901">
        <ele>153.316</ele>
        <time>2021-04-01T09:12:37.539Z</time>
      </trkpt>
      <trkpt lat="43.106973" lon="-2.7566938">
        <ele>153.292</ele>
        <time>2021-04-01T09:12:37.594Z</time>
      </trkpt>
      <trkpt lat="43.106976" lon="-2.7566974">
        <ele>153.263</ele>
        <time>2021-04-01T09:12:37.649Z</time>
      </trkpt>
      <trkpt lat="43.1069788" lon="-2.756701">
        <ele>153.23</ele>
        <time>2021-04-01T09:12:37.704Z</time>
      </trkpt>
      <trkpt lat="43.1069814" lon="-2.7567046">
        <ele>153.204</ele>
        <time>2021-04-01T09:12:37.759Z</time>
      </trkpt>
      <trkpt lat="43.1069844" lon="-2.7567078">
        <ele>153.177</ele>
        <time>2021-04-01T09:12:37.810Z</time>
      </trkpt>
      <trkpt lat="43.1069869" lon="-2.7567114">
        <ele>153.082</ele>
        <time>2021-04-01T09:12:37.862Z</time>
      </trkpt>
      <trkpt lat="43.1069895" lon="-2.7567155">
        <ele>153.061</ele>
        <time>2021-04-01T09:12:37.914Z</time>
      </trkpt>
      <trkpt lat="43.1069923" lon="-2.7567192">
        <ele>153.067</ele>
        <time>2021-04-01T09:12:37.966Z</time>
      </trkpt>
      <trkpt lat="43.1069954" lon="-2.7567226">
        <ele>153.063</ele>
        <time>2021-04-01T09:12:38.018Z</time>
      </trkpt>
      <trkpt lat="43.1069989" lon="-2.7567255">
        <ele>153.058</ele>
        <time>2021-04-01T09:12:38.070Z</time>
      </trkpt>
      <trkpt lat="43.1070017" lon="-2.7567291">
        <ele>153.015</ele>
        <time>2021-04-01T09:12:38.122Z</time>
      </trkpt>
      <trkpt lat="43.1070049" lon="-2.7567326">
        <ele>153.039</ele>
        <time>2021-04-01T09:12:38.174Z</time>
      </trkpt>
      <trkpt lat="43.1070078" lon="-2.7567356">
        <ele>152.983</ele>
        <time>2021-04-01T09:12:38.226Z</time>
      </trkpt>
      <trkpt lat="43.1070108" lon="-2.7567388">
        <ele>152.927</ele>
        <time>2021-04-01T09:12:38.278Z</time>
      </trkpt>
      <trkpt lat="43.107014" lon="-2.7567413">
        <ele>152.866</ele>
        <time>2021-04-01T09:12:38.330Z</time>
      </trkpt>
      <trkpt lat="43.1070173" lon="-2.7567444">
        <ele>152.857</ele>
        <time>2021-04-01T09:12:38.382Z</time>
      </trkpt>
      <trkpt lat="43.1070202" lon="-2.756748">
        <ele>152.839</ele>
        <time>2021-04-01T09:12:38.434Z</time>
      </trkpt>
      <trkpt lat="43.1070232" lon="-2.7567515">
        <ele>152.834</ele>
        <time>2021-04-01T09:12:38.486Z</time>
      </trkpt>
      <trkpt lat="43.1070264" lon="-2.7567548">
        <ele>152.83</ele>
        <time>2021-04-01T09:12:38.538Z</time>
      </trkpt>
      <trkpt lat="43.1070296" lon="-2.7567581">
        <ele>152.838</ele>
        <time>2021-04-01T09:12:38.590Z</time>
      </trkpt>
      <trkpt lat="43.1070327" lon="-2.7567613">
        <ele>152.832</ele>
        <time>2021-04-01T09:12:38.642Z</time>
      </trkpt>
      <trkpt lat="43.107036" lon="-2.7567652">
        <ele>152.874</ele>
        <time>2021-04-01T09:12:38.694Z</time>
      </trkpt>
      <trkpt lat="43.1070391" lon="-2.7567688">
        <ele>152.906</ele>
        <time>2021-04-01T09:12:38.749Z</time>
      </trkpt>
      <trkpt lat="43.1070418" lon="-2.7567724">
        <ele>152.862</ele>
        <time>2021-04-01T09:12:38.804Z</time>
      </trkpt>
      <trkpt lat="43.107045" lon="-2.7567755">
        <ele>152.834</ele>
        <time>2021-04-01T09:12:38.859Z</time>
      </trkpt>
      <trkpt lat="43.1070484" lon="-2.7567787">
        <ele>152.856</ele>
        <time>2021-04-01T09:12:38.914Z</time>
      </trkpt>
      <trkpt lat="43.1070519" lon="-2.7567818">
        <ele>152.897</ele>
        <time>2021-04-01T09:12:38.969Z</time>
      </trkpt>
      <trkpt lat="43.1070556" lon="-2.756785">
        <ele>152.952</ele>
        <time>2021-04-01T09:12:39.024Z</time>
      </trkpt>
      <trkpt lat="43.1070587" lon="-2.7567883">
        <ele>152.9</ele>
        <time>2021-04-01T09:12:39.079Z</time>
      </trkpt>
      <trkpt lat="43.1070615" lon="-2.7567915">
        <ele>152.861</ele>
        <time>2021-04-01T09:12:39.134Z</time>
      </trkpt>
      <trkpt lat="43.1070645" lon="-2.7567952">
        <ele>152.884</ele>
        <time>2021-04-01T09:12:39.189Z</time>
      </trkpt>
      <trkpt lat="43.1070671" lon="-2.756799">
        <ele>152.83</ele>
        <time>2021-04-01T09:12:39.244Z</time>
      </trkpt>
      <trkpt lat="43.10707" lon="-2.7568026">
        <ele>152.761</ele>
        <time>2021-04-01T09:12:39.299Z</time>
      </trkpt>
      <trkpt lat="43.107073" lon="-2.7568059">
        <ele>152.748</ele>
        <time>2021-04-01T09:12:39.354Z</time>
      </trkpt>
      <trkpt lat="43.107076" lon="-2.756809">
        <ele>152.711</ele>
        <time>2021-04-01T09:12:39.409Z</time>
      </trkpt>
      <trkpt lat="43.1070789" lon="-2.7568125">
        <ele>152.705</ele>
        <time>2021-04-01T09:12:39.464Z</time>
      </trkpt>
      <trkpt lat="43.1070817" lon="-2.756816">
        <ele>152.677</ele>
        <time>2021-04-01T09:12:39.519Z</time>
      </trkpt>
      <trkpt lat="43.1070847" lon="-2.7568194">
        <ele>152.641</ele>
        <time>2021-04-01T09:12:39.574Z</time>
      </trkpt>
      <trkpt lat="43.1070877" lon="-2.7568228">
        <ele>152.595</ele>
        <time>2021-04-01T09:12:39.629Z</time>
      </trkpt>
      <trkpt lat="43.1070909" lon="-2.7568264">
        <ele>152.581</ele>
        <time>2021-04-01T09:12:39.684Z</time>
      </trkpt>
      <trkpt lat="43.1070944" lon="-2.75683">
        <ele>152.593</ele>
        <time>2021-04-01T09:12:39.736Z</time>
      </trkpt>
      <trkpt lat="43.1070975" lon="-2.7568334">
        <ele>152.559</ele>
        <time>2021-04-01T09:12:39.788Z</time>
      </trkpt>
      <trkpt lat="43.1071005" lon="-2.7568367">
        <ele>152.54</ele>
        <time>2021-04-01T09:12:39.840Z</time>
      </trkpt>
      <trkpt lat="43.1071035" lon="-2.75684">
        <ele>152.495</ele>
        <time>2021-04-01T09:12:39.892Z</time>
      </trkpt>
      <trkpt lat="43.1071065" lon="-2.7568434">
        <ele>152.469</ele>
        <time>2021-04-01T09:12:39.944Z</time>
      </trkpt>
      <trkpt lat="43.1071096" lon="-2.7568469">
        <ele>152.455</ele>
        <time>2021-04-01T09:12:39.996Z</time>
      </trkpt>
      <trkpt lat="43.1071128" lon="-2.75685">
        <ele>152.439</ele>
        <time>2021-04-01T09:12:40.048Z</time>
      </trkpt>
      <trkpt lat="43.107116" lon="-2.7568531">
        <ele>152.409</ele>
        <time>2021-04-01T09:12:40.100Z</time>
      </trkpt>
      <trkpt lat="43.1071189" lon="-2.7568561">
        <ele>152.35</ele>
        <time>2021-04-01T09:12:40.152Z</time>
      </trkpt>
      <trkpt lat="43.1071219" lon="-2.7568595">
        <ele>152.334</ele>
        <time>2021-04-01T09:12:40.205Z</time>
      </trkpt>
      <trkpt lat="43.1071252" lon="-2.7568629">
        <ele>152.352</ele>
        <time>2021-04-01T09:12:40.257Z</time>
      </trkpt>
      <trkpt lat="43.1071285" lon="-2.7568661">
        <ele>152.338</ele>
        <time>2021-04-01T09:12:40.309Z</time>
      </trkpt>
      <trkpt lat="43.1071316" lon="-2.7568697">
        <ele>152.338</ele>
        <time>2021-04-01T09:12:40.361Z</time>
      </trkpt>
      <trkpt lat="43.1071346" lon="-2.7568733">
        <ele>152.323</ele>
        <time>2021-04-01T09:12:40.413Z</time>
      </trkpt>
      <trkpt lat="43.1071379" lon="-2.756877">
        <ele>152.3</ele>
        <time>2021-04-01T09:12:40.465Z</time>
      </trkpt>
      <trkpt lat="43.1071411" lon="-2.756881">
        <ele>152.327</ele>
        <time>2021-04-01T09:12:40.517Z</time>
      </trkpt>
      <trkpt lat="43.1071444" lon="-2.7568846">
        <ele>152.325</ele>
        <time>2021-04-01T09:12:40.569Z</time>
      </trkpt>
      <trkpt lat="43.1071475" lon="-2.7568881">
        <ele>152.302</ele>
        <time>2021-04-01T09:12:40.621Z</time>
      </trkpt>
      <trkpt lat="43.1071506" lon="-2.7568917">
        <ele>152.266</ele>
        <time>2021-04-01T09:12:40.674Z</time>
      </trkpt>
      <trkpt lat="43.1071538" lon="-2.7568951">
        <ele>152.24</ele>
        <time>2021-04-01T09:12:40.735Z</time>
      </trkpt>
      <trkpt lat="43.107157" lon="-2.7568985">
        <ele>152.219</ele>
        <time>2021-04-01T09:12:40.796Z</time>
      </trkpt>
      <trkpt lat="43.1071601" lon="-2.7569018">
        <ele>152.178</ele>
        <time>2021-04-01T09:12:40.858Z</time>
      </trkpt>
      <trkpt lat="43.1071631" lon="-2.7569054">
        <ele>152.138</ele>
        <time>2021-04-01T09:12:40.919Z</time>
      </trkpt>
      <trkpt lat="43.1071662" lon="-2.756909">
        <ele>152.133</ele>
        <time>2021-04-01T09:12:40.981Z</time>
      </trkpt>
      <trkpt lat="43.1071694" lon="-2.7569125">
        <ele>152.116</ele>
        <time>2021-04-01T09:12:41.042Z</time>
      </trkpt>
      <trkpt lat="43.1071726" lon="-2.7569163">
        <ele>152.136</ele>
        <time>2021-04-01T09:12:41.104Z</time>
      </trkpt>
      <trkpt lat="43.1071759" lon="-2.7569201">
        <ele>152.166</ele>
        <time>2021-04-01T09:12:41.165Z</time>
      </trkpt>
      <trkpt lat="43.107179" lon="-2.7569231">
        <ele>152.103</ele>
        <time>2021-04-01T09:12:41.227Z</time>
      </trkpt>
      <trkpt lat="43.1071822" lon="-2.7569268">
        <ele>152.108</ele>
        <time>2021-04-01T09:12:41.288Z</time>
      </trkpt>
      <trkpt lat="43.1071855" lon="-2.7569303">
        <ele>152.108</ele>
        <time>2021-04-01T09:12:41.350Z</time>
      </trkpt>
      <trkpt lat="43.1071888" lon="-2.7569337">
        <ele>152.099</ele>
        <time>2021-04-01T09:12:41.411Z</time>
      </trkpt>
      <trkpt lat="43.1071921" lon="-2.7569372">
        <ele>152.082</ele>
        <time>2021-04-01T09:12:41.473Z</time>
      </trkpt>
      <trkpt lat="43.107195" lon="-2.7569404">
        <ele>152.021</ele>
        <time>2021-04-01T09:12:41.534Z</time>
      </trkpt>
      <trkpt lat="43.1071979" lon="-2.7569438">
        <ele>151.988</ele>
        <time>2021-04-01T09:12:41.596Z</time>
      </trkpt>
      <trkpt lat="43.1072014" lon="-2.7569474">
        <ele>152.003</ele>
        <time>2021-04-01T09:12:41.657Z</time>
      </trkpt>
      <trkpt lat="43.1072047" lon="-2.756951">
        <ele>152.015</ele>
        <time>2021-04-01T09:12:41.719Z</time>
      </trkpt>
      <trkpt lat="43.1072079" lon="-2.7569545">
        <ele>152.009</ele>
        <time>2021-04-01T09:12:41.774Z</time>
      </trkpt>
      <trkpt lat="43.107211" lon="-2.7569579">
        <ele>151.969</ele>
        <time>2021-04-01T09:12:41.829Z</time>
      </trkpt>
      <trkpt lat="43.1072143" lon="-2.756961">
        <ele>151.922</ele>
        <time>2021-04-01T09:12:41.884Z</time>
      </trkpt>
      <trkpt lat="43.1072176" lon="-2.7569643">
        <ele>151.93</ele>
        <time>2021-04-01T09:12:41.939Z</time>
      </trkpt>
      <trkpt lat="43.1072209" lon="-2.7569683">
        <ele>151.96</ele>
        <time>2021-04-01T09:12:41.994Z</time>
      </trkpt>
      <trkpt lat="43.1072241" lon="-2.7569721">
        <ele>151.969</ele>
        <time>2021-04-01T09:12:42.049Z</time>
      </trkpt>
      <trkpt lat="43.1072272" lon="-2.7569753">
        <ele>151.927</ele>
        <time>2021-04-01T09:12:42.104Z</time>
      </trkpt>
      <trkpt lat="43.1072302" lon="-2.7569789">
        <ele>151.896</ele>
        <time>2021-04-01T09:12:42.159Z</time>
      </trkpt>
      <trkpt lat="43.1072334" lon="-2.7569826">
        <ele>151.89</ele>
        <time>2021-04-01T09:12:42.214Z</time>
      </trkpt>
      <trkpt lat="43.1072365" lon="-2.7569861">
        <ele>151.893</ele>
        <time>2021-04-01T09:12:42.269Z</time>
      </trkpt>
      <trkpt lat="43.1072398" lon="-2.7569898">
        <ele>151.906</ele>
        <time>2021-04-01T09:12:42.324Z</time>
      </trkpt>
      <trkpt lat="43.1072432" lon="-2.7569932">
        <ele>151.9</ele>
        <time>2021-04-01T09:12:42.379Z</time>
      </trkpt>
      <trkpt lat="43.1072465" lon="-2.7569965">
        <ele>151.875</ele>
        <time>2021-04-01T09:12:42.434Z</time>
      </trkpt>
      <trkpt lat="43.1072498" lon="-2.7570002">
        <ele>151.889</ele>
        <time>2021-04-01T09:12:42.489Z</time>
      </trkpt>
      <trkpt lat="43.1072531" lon="-2.7570036">
        <ele>151.899</ele>
        <time>2021-04-01T09:12:42.544Z</time>
      </trkpt>
      <trkpt lat="43.1072566" lon="-2.757007">
        <ele>151.912</ele>
        <time>2021-04-01T09:12:42.599Z</time>
      </trkpt>
      <trkpt lat="43.1072599" lon="-2.7570102">
        <ele>151.884</ele>
        <time>2021-04-01T09:12:42.654Z</time>
      </trkpt>
      <trkpt lat="43.107263" lon="-2.7570136">
        <ele>151.85</ele>
        <time>2021-04-01T09:12:42.709Z</time>
      </trkpt>
      <trkpt lat="43.1072662" lon="-2.7570167">
        <ele>151.84</ele>
        <time>2021-04-01T09:12:42.761Z</time>
      </trkpt>
      <trkpt lat="43.1072694" lon="-2.7570202">
        <ele>151.818</ele>
        <time>2021-04-01T09:12:42.813Z</time>
      </trkpt>
      <trkpt lat="43.1072728" lon="-2.757024">
        <ele>151.843</ele>
        <time>2021-04-01T09:12:42.865Z</time>
      </trkpt>
      <trkpt lat="43.107276" lon="-2.7570274">
        <ele>151.823</ele>
        <time>2021-04-01T09:12:42.917Z</time>
      </trkpt>
      <trkpt lat="43.1072792" lon="-2.7570309">
        <ele>151.822</ele>
        <time>2021-04-01T09:12:42.969Z</time>
      </trkpt>
      <trkpt lat="43.1072825" lon="-2.7570344">
        <ele>151.83</ele>
        <time>2021-04-01T09:12:43.021Z</time>
      </trkpt>
      <trkpt lat="43.1072856" lon="-2.7570375">
        <ele>151.772</ele>
        <time>2021-04-01T09:12:43.073Z</time>
      </trkpt>
      <trkpt lat="43.1072891" lon="-2.7570408">
        <ele>151.776</ele>
        <time>2021-04-01T09:12:43.125Z</time>
      </trkpt>
      <trkpt lat="43.1072927" lon="-2.7570442">
        <ele>151.819</ele>
        <time>2021-04-01T09:12:43.177Z</time>
      </trkpt>
      <trkpt lat="43.1072957" lon="-2.7570476">
        <ele>151.785</ele>
        <time>2021-04-01T09:12:43.230Z</time>
      </trkpt>
      <trkpt lat="43.1072988" lon="-2.757051">
        <ele>151.749</ele>
        <time>2021-04-01T09:12:43.282Z</time>
      </trkpt>
      <trkpt lat="43.1073022" lon="-2.7570547">
        <ele>151.765</ele>
        <time>2021-04-01T09:12:43.334Z</time>
      </trkpt>
      <trkpt lat="43.1073053" lon="-2.7570581">
        <ele>151.724</ele>
        <time>2021-04-01T09:12:43.386Z</time>
      </trkpt>
      <trkpt lat="43.1073086" lon="-2.7570614">
        <ele>151.731</ele>
        <time>2021-04-01T09:12:43.438Z</time>
      </trkpt>
      <trkpt lat="43.1073119" lon="-2.7570647">
        <ele>151.743</ele>
        <time>2021-04-01T09:12:43.490Z</time>
      </trkpt>
      <trkpt lat="43.1073152" lon="-2.7570684">
        <ele>151.721</ele>
        <time>2021-04-01T09:12:43.542Z</time>
      </trkpt>
      <trkpt lat="43.1073185" lon="-2.7570719">
        <ele>151.746</ele>
        <time>2021-04-01T09:12:43.594Z</time>
      </trkpt>
      <trkpt lat="43.1073217" lon="-2.7570753">
        <ele>151.719</ele>
        <time>2021-04-01T09:12:43.646Z</time>
      </trkpt>
      <trkpt lat="43.1073251" lon="-2.7570785">
        <ele>151.731</ele>
        <time>2021-04-01T09:12:43.699Z</time>
      </trkpt>
      <trkpt lat="43.1073283" lon="-2.7570818">
        <ele>151.694</ele>
        <time>2021-04-01T09:12:43.754Z</time>
      </trkpt>
      <trkpt lat="43.1073318" lon="-2.7570852">
        <ele>151.695</ele>
        <time>2021-04-01T09:12:43.809Z</time>
      </trkpt>
      <trkpt lat="43.107335" lon="-2.7570887">
        <ele>151.679</ele>
        <time>2021-04-01T09:12:43.864Z</time>
      </trkpt>
      <trkpt lat="43.1073381" lon="-2.7570918">
        <ele>151.626</ele>
        <time>2021-04-01T09:12:43.919Z</time>
      </trkpt>
      <trkpt lat="43.1073413" lon="-2.7570953">
        <ele>151.626</ele>
        <time>2021-04-01T09:12:43.974Z</time>
      </trkpt>
      <trkpt lat="43.1073446" lon="-2.7570987">
        <ele>151.615</ele>
        <time>2021-04-01T09:12:44.029Z</time>
      </trkpt>
      <trkpt lat="43.1073482" lon="-2.7571022">
        <ele>151.652</ele>
        <time>2021-04-01T09:12:44.084Z</time>
      </trkpt>
      <trkpt lat="43.1073512" lon="-2.7571057">
        <ele>151.603</ele>
        <time>2021-04-01T09:12:44.139Z</time>
      </trkpt>
      <trkpt lat="43.1073544" lon="-2.7571094">
        <ele>151.601</ele>
        <time>2021-04-01T09:12:44.194Z</time>
      </trkpt>
      <trkpt lat="43.1073579" lon="-2.7571125">
        <ele>151.607</ele>
        <time>2021-04-01T09:12:44.249Z</time>
      </trkpt>
      <trkpt lat="43.1073614" lon="-2.7571161">
        <ele>151.634</ele>
        <time>2021-04-01T09:12:44.304Z</time>
      </trkpt>
      <trkpt lat="43.1073644" lon="-2.7571195">
        <ele>151.58</ele>
        <time>2021-04-01T09:12:44.359Z</time>
      </trkpt>
      <trkpt lat="43.1073678" lon="-2.7571229">
        <ele>151.587</ele>
        <time>2021-04-01T09:12:44.414Z</time>
      </trkpt>
      <trkpt lat="43.1073712" lon="-2.7571259">
        <ele>151.592</ele>
        <time>2021-04-01T09:12:44.469Z</time>
      </trkpt>
      <trkpt lat="43.1073742" lon="-2.7571292">
        <ele>151.543</ele>
        <time>2021-04-01T09:12:44.524Z</time>
      </trkpt>
      <trkpt lat="43.1073775" lon="-2.757133">
        <ele>151.563</ele>
        <time>2021-04-01T09:12:44.579Z</time>
      </trkpt>
      <trkpt lat="43.1073808" lon="-2.7571366">
        <ele>151.58</ele>
        <time>2021-04-01T09:12:44.634Z</time>
      </trkpt>
      <trkpt lat="43.1073839" lon="-2.7571403">
        <ele>151.572</ele>
        <time>2021-04-01T09:12:44.689Z</time>
      </trkpt>
      <trkpt lat="43.1073872" lon="-2.7571436">
        <ele>151.545</ele>
        <time>2021-04-01T09:12:44.741Z</time>
      </trkpt>
      <trkpt lat="43.1073906" lon="-2.7571466">
        <ele>151.523</ele>
        <time>2021-04-01T09:12:44.793Z</time>
      </trkpt>
      <trkpt lat="43.1073939" lon="-2.75715">
        <ele>151.523</ele>
        <time>2021-04-01T09:12:44.845Z</time>
      </trkpt>
      <trkpt lat="43.1073971" lon="-2.7571538">
        <ele>151.551</ele>
        <time>2021-04-01T09:12:44.897Z</time>
      </trkpt>
      <trkpt lat="43.1073999" lon="-2.7571574">
        <ele>151.468</ele>
        <time>2021-04-01T09:12:44.949Z</time>
      </trkpt>
      <trkpt lat="43.107403" lon="-2.757161">
        <ele>151.456</ele>
        <time>2021-04-01T09:12:45.001Z</time>
      </trkpt>
      <trkpt lat="43.1074065" lon="-2.7571647">
        <ele>151.503</ele>
        <time>2021-04-01T09:12:45.053Z</time>
      </trkpt>
      <trkpt lat="43.1074096" lon="-2.7571686">
        <ele>151.497</ele>
        <time>2021-04-01T09:12:45.105Z</time>
      </trkpt>
      <trkpt lat="43.1074128" lon="-2.7571724">
        <ele>151.518</ele>
        <time>2021-04-01T09:12:45.157Z</time>
      </trkpt>
      <trkpt lat="43.107416" lon="-2.757176">
        <ele>151.494</ele>
        <time>2021-04-01T09:12:45.210Z</time>
      </trkpt>
      <trkpt lat="43.1074192" lon="-2.7571793">
        <ele>151.464</ele>
        <time>2021-04-01T09:12:45.262Z</time>
      </trkpt>
      <trkpt lat="43.1074225" lon="-2.7571826">
        <ele>151.443</ele>
        <time>2021-04-01T09:12:45.314Z</time>
      </trkpt>
      <trkpt lat="43.107426" lon="-2.7571858">
        <ele>151.424</ele>
        <time>2021-04-01T09:12:45.366Z</time>
      </trkpt>
      <trkpt lat="43.1074293" lon="-2.7571893">
        <ele>151.407</ele>
        <time>2021-04-01T09:12:45.418Z</time>
      </trkpt>
      <trkpt lat="43.1074325" lon="-2.7571929">
        <ele>151.387</ele>
        <time>2021-04-01T09:12:45.470Z</time>
      </trkpt>
      <trkpt lat="43.1074356" lon="-2.7571964">
        <ele>151.364</ele>
        <time>2021-04-01T09:12:45.522Z</time>
      </trkpt>
      <trkpt lat="43.1074383" lon="-2.7572004">
        <ele>151.345</ele>
        <time>2021-04-01T09:12:45.574Z</time>
      </trkpt>
      <trkpt lat="43.1074413" lon="-2.7572041">
        <ele>151.335</ele>
        <time>2021-04-01T09:12:45.626Z</time>
      </trkpt>
      <trkpt lat="43.1074441" lon="-2.7572078">
        <ele>151.296</ele>
        <time>2021-04-01T09:12:45.679Z</time>
      </trkpt>
      <trkpt lat="43.1074477" lon="-2.757211">
        <ele>151.255</ele>
        <time>2021-04-01T09:12:45.740Z</time>
      </trkpt>
      <trkpt lat="43.1074512" lon="-2.7572137">
        <ele>151.201</ele>
        <time>2021-04-01T09:12:45.801Z</time>
      </trkpt>
      <trkpt lat="43.1074543" lon="-2.7572174">
        <ele>151.207</ele>
        <time>2021-04-01T09:12:45.863Z</time>
      </trkpt>
      <trkpt lat="43.1074573" lon="-2.7572213">
        <ele>151.226</ele>
        <time>2021-04-01T09:12:45.924Z</time>
      </trkpt>
      <trkpt lat="43.1074602" lon="-2.757225">
        <ele>151.178</ele>
        <time>2021-04-01T09:12:45.986Z</time>
      </trkpt>
      <trkpt lat="43.1074633" lon="-2.7572288">
        <ele>151.173</ele>
        <time>2021-04-01T09:12:46.047Z</time>
      </trkpt>
      <trkpt lat="43.1074665" lon="-2.7572324">
        <ele>151.159</ele>
        <time>2021-04-01T09:12:46.109Z</time>
      </trkpt>
      <trkpt lat="43.1074694" lon="-2.7572361">
        <ele>151.143</ele>
        <time>2021-04-01T09:12:46.170Z</time>
      </trkpt>
      <trkpt lat="43.1074725" lon="-2.7572398">
        <ele>151.113</ele>
        <time>2021-04-01T09:12:46.232Z</time>
      </trkpt>
      <trkpt lat="43.1074754" lon="-2.7572434">
        <ele>151.07</ele>
        <time>2021-04-01T09:12:46.293Z</time>
      </trkpt>
      <trkpt lat="43.1074787" lon="-2.7572465">
        <ele>151.073</ele>
        <time>2021-04-01T09:12:46.355Z</time>
      </trkpt>
      <trkpt lat="43.1074819" lon="-2.75725">
        <ele>151.05</ele>
        <time>2021-04-01T09:12:46.416Z</time>
      </trkpt>
      <trkpt lat="43.1074851" lon="-2.7572535">
        <ele>151.01</ele>
        <time>2021-04-01T09:12:46.478Z</time>
      </trkpt>
      <trkpt lat="43.1074884" lon="-2.7572569">
        <ele>150.997</ele>
        <time>2021-04-01T09:12:46.539Z</time>
      </trkpt>
      <trkpt lat="43.1074914" lon="-2.7572605">
        <ele>150.982</ele>
        <time>2021-04-01T09:12:46.601Z</time>
      </trkpt>
      <trkpt lat="43.1074945" lon="-2.7572638">
        <ele>150.949</ele>
        <time>2021-04-01T09:12:46.662Z</time>
      </trkpt>
      <trkpt lat="43.1074977" lon="-2.7572671">
        <ele>150.9</ele>
        <time>2021-04-01T09:12:46.724Z</time>
      </trkpt>
      <trkpt lat="43.107501" lon="-2.7572706">
        <ele>150.896</ele>
        <time>2021-04-01T09:12:46.773Z</time>
      </trkpt>
      <trkpt lat="43.1075043" lon="-2.7572741">
        <ele>150.896</ele>
        <time>2021-04-01T09:12:46.822Z</time>
      </trkpt>
      <trkpt lat="43.1075079" lon="-2.7572773">
        <ele>150.902</ele>
        <time>2021-04-01T09:12:46.871Z</time>
      </trkpt>
      <trkpt lat="43.1075113" lon="-2.7572811">
        <ele>150.894</ele>
        <time>2021-04-01T09:12:46.920Z</time>
      </trkpt>
      <trkpt lat="43.1075144" lon="-2.7572846">
        <ele>150.878</ele>
        <time>2021-04-01T09:12:46.970Z</time>
      </trkpt>
      <trkpt lat="43.1075182" lon="-2.7572879">
        <ele>150.903</ele>
        <time>2021-04-01T09:12:47.019Z</time>
      </trkpt>
      <trkpt lat="43.1075215" lon="-2.7572913">
        <ele>150.887</ele>
        <time>2021-04-01T09:12:47.068Z</time>
      </trkpt>
      <trkpt lat="43.1075248" lon="-2.7572946">
        <ele>150.858</ele>
        <time>2021-04-01T09:12:47.117Z</time>
      </trkpt>
      <trkpt lat="43.107528" lon="-2.7572982">
        <ele>150.834</ele>
        <time>2021-04-01T09:12:47.166Z</time>
      </trkpt>
      <trkpt lat="43.1075312" lon="-2.7573018">
        <ele>150.824</ele>
        <time>2021-04-01T09:12:47.216Z</time>
      </trkpt>
      <trkpt lat="43.1075344" lon="-2.7573055">
        <ele>150.827</ele>
        <time>2021-04-01T09:12:47.265Z</time>
      </trkpt>
      <trkpt lat="43.1075379" lon="-2.7573093">
        <ele>150.844</ele>
        <time>2021-04-01T09:12:47.314Z</time>
      </trkpt>
      <trkpt lat="43.1075413" lon="-2.7573132">
        <ele>150.846</ele>
        <time>2021-04-01T09:12:47.363Z</time>
      </trkpt>
      <trkpt lat="43.1075448" lon="-2.7573169">
        <ele>150.854</ele>
        <time>2021-04-01T09:12:47.412Z</time>
      </trkpt>
      <trkpt lat="43.1075483" lon="-2.7573203">
        <ele>150.873</ele>
        <time>2021-04-01T09:12:47.462Z</time>
      </trkpt>
      <trkpt lat="43.1075517" lon="-2.7573237">
        <ele>150.86</ele>
        <time>2021-04-01T09:12:47.511Z</time>
      </trkpt>
      <trkpt lat="43.107555" lon="-2.7573272">
        <ele>150.825</ele>
        <time>2021-04-01T09:12:47.560Z</time>
      </trkpt>
      <trkpt lat="43.107558" lon="-2.7573307">
        <ele>150.778</ele>
        <time>2021-04-01T09:12:47.609Z</time>
      </trkpt>
      <trkpt lat="43.1075614" lon="-2.7573341">
        <ele>150.752</ele>
        <time>2021-04-01T09:12:47.659Z</time>
      </trkpt>
      <trkpt lat="43.1075647" lon="-2.7573375">
        <ele>150.732</ele>
        <time>2021-04-01T09:12:47.717Z</time>
      </trkpt>
      <trkpt lat="43.1075678" lon="-2.7573414">
        <ele>150.723</ele>
        <time>2021-04-01T09:12:47.775Z</time>
      </trkpt>
      <trkpt lat="43.1075712" lon="-2.7573452">
        <ele>150.726</ele>
        <time>2021-04-01T09:12:47.833Z</time>
      </trkpt>
      <trkpt lat="43.1075745" lon="-2.757349">
        <ele>150.741</ele>
        <time>2021-04-01T09:12:47.891Z</time>
      </trkpt>
      <trkpt lat="43.1075778" lon="-2.7573525">
        <ele>150.703</ele>
        <time>2021-04-01T09:12:47.949Z</time>
      </trkpt>
      <trkpt lat="43.1075811" lon="-2.757356">
        <ele>150.681</ele>
        <time>2021-04-01T09:12:48.007Z</time>
      </trkpt>
      <trkpt lat="43.1075845" lon="-2.7573598">
        <ele>150.703</ele>
        <time>2021-04-01T09:12:48.065Z</time>
      </trkpt>
      <trkpt lat="43.1075878" lon="-2.7573634">
        <ele>150.688</ele>
        <time>2021-04-01T09:12:48.123Z</time>
      </trkpt>
      <trkpt lat="43.1075913" lon="-2.7573668">
        <ele>150.67</ele>
        <time>2021-04-01T09:12:48.181Z</time>
      </trkpt>
      <trkpt lat="43.1075948" lon="-2.7573703">
        <ele>150.661</ele>
        <time>2021-04-01T09:12:48.239Z</time>
      </trkpt>
      <trkpt lat="43.1075981" lon="-2.7573745">
        <ele>150.694</ele>
        <time>2021-04-01T09:12:48.297Z</time>
      </trkpt>
      <trkpt lat="43.1076013" lon="-2.7573783">
        <ele>150.681</ele>
        <time>2021-04-01T09:12:48.355Z</time>
      </trkpt>
      <trkpt lat="43.1076047" lon="-2.7573818">
        <ele>150.677</ele>
        <time>2021-04-01T09:12:48.413Z</time>
      </trkpt>
      <trkpt lat="43.107608" lon="-2.7573853">
        <ele>150.655</ele>
        <time>2021-04-01T09:12:48.471Z</time>
      </trkpt>
      <trkpt lat="43.1076114" lon="-2.7573889">
        <ele>150.627</ele>
        <time>2021-04-01T09:12:48.529Z</time>
      </trkpt>
      <trkpt lat="43.1076149" lon="-2.7573928">
        <ele>150.66</ele>
        <time>2021-04-01T09:12:48.587Z</time>
      </trkpt>
      <trkpt lat="43.1076182" lon="-2.7573964">
        <ele>150.651</ele>
        <time>2021-04-01T09:12:48.645Z</time>
      </trkpt>
      <trkpt lat="43.1076214" lon="-2.7573999">
        <ele>150.629</ele>
        <time>2021-04-01T09:12:48.704Z</time>
      </trkpt>
      <trkpt lat="43.1076247" lon="-2.7574036">
        <ele>150.608</ele>
        <time>2021-04-01T09:12:48.759Z</time>
      </trkpt>
      <trkpt lat="43.1076281" lon="-2.7574073">
        <ele>150.609</ele>
        <time>2021-04-01T09:12:48.814Z</time>
      </trkpt>
      <trkpt lat="43.1076315" lon="-2.7574107">
        <ele>150.595</ele>
        <time>2021-04-01T09:12:48.869Z</time>
      </trkpt>
      <trkpt lat="43.1076348" lon="-2.7574145">
        <ele>150.592</ele>
        <time>2021-04-01T09:12:48.924Z</time>
      </trkpt>
      <trkpt lat="43.1076382" lon="-2.7574183">
        <ele>150.597</ele>
        <time>2021-04-01T09:12:48.979Z</time>
      </trkpt>
      <trkpt lat="43.1076415" lon="-2.7574221">
        <ele>150.61</ele>
        <time>2021-04-01T09:12:49.034Z</time>
      </trkpt>
      <trkpt lat="43.1076447" lon="-2.7574254">
        <ele>150.577</ele>
        <time>2021-04-01T09:12:49.089Z</time>
      </trkpt>
      <trkpt lat="43.107648" lon="-2.7574293">
        <ele>150.582</ele>
        <time>2021-04-01T09:12:49.144Z</time>
      </trkpt>
      <trkpt lat="43.1076514" lon="-2.7574329">
        <ele>150.554</ele>
        <time>2021-04-01T09:12:49.199Z</time>
      </trkpt>
      <trkpt lat="43.1076549" lon="-2.7574364">
        <ele>150.558</ele>
        <time>2021-04-01T09:12:49.254Z</time>
      </trkpt>
      <trkpt lat="43.1076582" lon="-2.7574399">
        <ele>150.532</ele>
        <time>2021-04-01T09:12:49.309Z</time>
      </trkpt>
      <trkpt lat="43.1076614" lon="-2.7574433">
        <ele>150.508</ele>
        <time>2021-04-01T09:12:49.364Z</time>
      </trkpt>
      <trkpt lat="43.1076648" lon="-2.7574469">
        <ele>150.519</ele>
        <time>2021-04-01T09:12:49.419Z</time>
      </trkpt>
      <trkpt lat="43.1076683" lon="-2.7574505">
        <ele>150.517</ele>
        <time>2021-04-01T09:12:49.474Z</time>
      </trkpt>
      <trkpt lat="43.1076717" lon="-2.7574541">
        <ele>150.501</ele>
        <time>2021-04-01T09:12:49.529Z</time>
      </trkpt>
      <trkpt lat="43.1076749" lon="-2.7574578">
        <ele>150.498</ele>
        <time>2021-04-01T09:12:49.584Z</time>
      </trkpt>
      <trkpt lat="43.1076782" lon="-2.7574616">
        <ele>150.499</ele>
        <time>2021-04-01T09:12:49.639Z</time>
      </trkpt>
      <trkpt lat="43.1076813" lon="-2.7574652">
        <ele>150.484</ele>
        <time>2021-04-01T09:12:49.694Z</time>
      </trkpt>
      <trkpt lat="43.1076845" lon="-2.757469">
        <ele>150.468</ele>
        <time>2021-04-01T09:12:49.746Z</time>
      </trkpt>
      <trkpt lat="43.1076881" lon="-2.7574728">
        <ele>150.498</ele>
        <time>2021-04-01T09:12:49.798Z</time>
      </trkpt>
      <trkpt lat="43.1076914" lon="-2.7574767">
        <ele>150.496</ele>
        <time>2021-04-01T09:12:49.850Z</time>
      </trkpt>
      <trkpt lat="43.1076947" lon="-2.7574802">
        <ele>150.487</ele>
        <time>2021-04-01T09:12:49.902Z</time>
      </trkpt>
      <trkpt lat="43.107698" lon="-2.7574838">
        <ele>150.492</ele>
        <time>2021-04-01T09:12:49.954Z</time>
      </trkpt>
      <trkpt lat="43.1077012" lon="-2.7574877">
        <ele>150.495</ele>
        <time>2021-04-01T09:12:50.006Z</time>
      </trkpt>
      <trkpt lat="43.1077045" lon="-2.7574914">
        <ele>150.486</ele>
        <time>2021-04-01T09:12:50.058Z</time>
      </trkpt>
      <trkpt lat="43.1077078" lon="-2.7574953">
        <ele>150.478</ele>
        <time>2021-04-01T09:12:50.110Z</time>
      </trkpt>
      <trkpt lat="43.1077109" lon="-2.7574989">
        <ele>150.467</ele>
        <time>2021-04-01T09:12:50.162Z</time>
      </trkpt>
      <trkpt lat="43.1077142" lon="-2.7575026">
        <ele>150.46</ele>
        <time>2021-04-01T09:12:50.215Z</time>
      </trkpt>
      <trkpt lat="43.1077175" lon="-2.7575062">
        <ele>150.463</ele>
        <time>2021-04-01T09:12:50.267Z</time>
      </trkpt>
      <trkpt lat="43.1077207" lon="-2.7575104">
        <ele>150.473</ele>
        <time>2021-04-01T09:12:50.319Z</time>
      </trkpt>
      <trkpt lat="43.1077237" lon="-2.7575144">
        <ele>150.457</ele>
        <time>2021-04-01T09:12:50.371Z</time>
      </trkpt>
      <trkpt lat="43.1077268" lon="-2.7575183">
        <ele>150.459</ele>
        <time>2021-04-01T09:12:50.423Z</time>
      </trkpt>
      <trkpt lat="43.10773" lon="-2.757522">
        <ele>150.448</ele>
        <time>2021-04-01T09:12:50.475Z</time>
      </trkpt>
      <trkpt lat="43.1077332" lon="-2.7575257">
        <ele>150.425</ele>
        <time>2021-04-01T09:12:50.527Z</time>
      </trkpt>
      <trkpt lat="43.1077364" lon="-2.7575295">
        <ele>150.414</ele>
        <time>2021-04-01T09:12:50.579Z</time>
      </trkpt>
      <trkpt lat="43.1077397" lon="-2.7575331">
        <ele>150.404</ele>
        <time>2021-04-01T09:12:50.631Z</time>
      </trkpt>
      <trkpt lat="43.107743" lon="-2.7575367">
        <ele>150.396</ele>
        <time>2021-04-01T09:12:50.684Z</time>
      </trkpt>
      <trkpt lat="43.1077463" lon="-2.7575404">
        <ele>150.402</ele>
        <time>2021-04-01T09:12:50.742Z</time>
      </trkpt>
      <trkpt lat="43.1077496" lon="-2.7575443">
        <ele>150.4</ele>
        <time>2021-04-01T09:12:50.800Z</time>
      </trkpt>
      <trkpt lat="43.1077529" lon="-2.757548">
        <ele>150.402</ele>
        <time>2021-04-01T09:12:50.858Z</time>
      </trkpt>
      <trkpt lat="43.107756" lon="-2.7575516">
        <ele>150.38</ele>
        <time>2021-04-01T09:12:50.916Z</time>
      </trkpt>
      <trkpt lat="43.1077591" lon="-2.7575553">
        <ele>150.355</ele>
        <time>2021-04-01T09:12:50.974Z</time>
      </trkpt>
      <trkpt lat="43.1077625" lon="-2.7575588">
        <ele>150.35</ele>
        <time>2021-04-01T09:12:51.032Z</time>
      </trkpt>
      <trkpt lat="43.1077657" lon="-2.7575623">
        <ele>150.319</ele>
        <time>2021-04-01T09:12:51.090Z</time>
      </trkpt>
      <trkpt lat="43.1077691" lon="-2.7575658">
        <ele>150.306</ele>
        <time>2021-04-01T09:12:51.148Z</time>
      </trkpt>
      <trkpt lat="43.1077722" lon="-2.7575696">
        <ele>150.286</ele>
        <time>2021-04-01T09:12:51.206Z</time>
      </trkpt>
      <trkpt lat="43.1077755" lon="-2.7575733">
        <ele>150.284</ele>
        <time>2021-04-01T09:12:51.264Z</time>
      </trkpt>
      <trkpt lat="43.1077788" lon="-2.757577">
        <ele>150.284</ele>
        <time>2021-04-01T09:12:51.322Z</time>
      </trkpt>
      <trkpt lat="43.1077822" lon="-2.7575805">
        <ele>150.281</ele>
        <time>2021-04-01T09:12:51.380Z</time>
      </trkpt>
      <trkpt lat="43.1077855" lon="-2.7575842">
        <ele>150.28</ele>
        <time>2021-04-01T09:12:51.438Z</time>
      </trkpt>
      <trkpt lat="43.1077888" lon="-2.757588">
        <ele>150.274</ele>
        <time>2021-04-01T09:12:51.496Z</time>
      </trkpt>
      <trkpt lat="43.1077923" lon="-2.7575914">
        <ele>150.252</ele>
        <time>2021-04-01T09:12:51.554Z</time>
      </trkpt>
      <trkpt lat="43.1077955" lon="-2.7575949">
        <ele>150.233</ele>
        <time>2021-04-01T09:12:51.612Z</time>
      </trkpt>
      <trkpt lat="43.1077987" lon="-2.7575985">
        <ele>150.227</ele>
        <time>2021-04-01T09:12:51.670Z</time>
      </trkpt>
      <trkpt lat="43.107802" lon="-2.7576022">
        <ele>150.218</ele>
        <time>2021-04-01T09:12:51.729Z</time>
      </trkpt>
      <trkpt lat="43.1078052" lon="-2.7576059">
        <ele>150.195</ele>
        <time>2021-04-01T09:12:51.780Z</time>
      </trkpt>
      <trkpt lat="43.1078085" lon="-2.7576095">
        <ele>150.192</ele>
        <time>2021-04-01T09:12:51.832Z</time>
      </trkpt>
      <trkpt lat="43.1078117" lon="-2.7576131">
        <ele>150.173</ele>
        <time>2021-04-01T09:12:51.884Z</time>
      </trkpt>
      <trkpt lat="43.1078148" lon="-2.7576166">
        <ele>150.139</ele>
        <time>2021-04-01T09:12:51.936Z</time>
      </trkpt>
      <trkpt lat="43.107818" lon="-2.7576202">
        <ele>150.118</ele>
        <time>2021-04-01T09:12:51.988Z</time>
      </trkpt>
      <trkpt lat="43.1078213" lon="-2.7576239">
        <ele>150.11</ele>
        <time>2021-04-01T09:12:52.040Z</time>
      </trkpt>
      <trkpt lat="43.1078246" lon="-2.7576275">
        <ele>150.097</ele>
        <time>2021-04-01T09:12:52.092Z</time>
      </trkpt>
      <trkpt lat="43.107828" lon="-2.7576309">
        <ele>150.09</ele>
        <time>2021-04-01T09:12:52.144Z</time>
      </trkpt>
      <trkpt lat="43.1078313" lon="-2.7576346">
        <ele>150.088</ele>
        <time>2021-04-01T09:12:52.196Z</time>
      </trkpt>
      <trkpt lat="43.1078348" lon="-2.7576381">
        <ele>150.081</ele>
        <time>2021-04-01T09:12:52.248Z</time>
      </trkpt>
      <trkpt lat="43.1078382" lon="-2.7576416">
        <ele>150.07</ele>
        <time>2021-04-01T09:12:52.300Z</time>
      </trkpt>
      <trkpt lat="43.1078417" lon="-2.7576452">
        <ele>150.081</ele>
        <time>2021-04-01T09:12:52.352Z</time>
      </trkpt>
      <trkpt lat="43.1078454" lon="-2.7576485">
        <ele>150.103</ele>
        <time>2021-04-01T09:12:52.404Z</time>
      </trkpt>
      <trkpt lat="43.1078489" lon="-2.7576523">
        <ele>150.12</ele>
        <time>2021-04-01T09:12:52.456Z</time>
      </trkpt>
      <trkpt lat="43.1078523" lon="-2.7576559">
        <ele>150.112</ele>
        <time>2021-04-01T09:12:52.508Z</time>
      </trkpt>
      <trkpt lat="43.1078557" lon="-2.7576591">
        <ele>150.082</ele>
        <time>2021-04-01T09:12:52.560Z</time>
      </trkpt>
      <trkpt lat="43.107859" lon="-2.7576626">
        <ele>150.074</ele>
        <time>2021-04-01T09:12:52.612Z</time>
      </trkpt>
      <trkpt lat="43.1078625" lon="-2.7576666">
        <ele>150.109</ele>
        <time>2021-04-01T09:12:52.664Z</time>
      </trkpt>
      <trkpt lat="43.1078659" lon="-2.7576705">
        <ele>150.118</ele>
        <time>2021-04-01T09:12:52.722Z</time>
      </trkpt>
      <trkpt lat="43.1078692" lon="-2.757674">
        <ele>150.108</ele>
        <time>2021-04-01T09:12:52.780Z</time>
      </trkpt>
      <trkpt lat="43.1078724" lon="-2.7576774">
        <ele>150.071</ele>
        <time>2021-04-01T09:12:52.838Z</time>
      </trkpt>
      <trkpt lat="43.107876" lon="-2.7576812">
        <ele>150.096</ele>
        <time>2021-04-01T09:12:52.896Z</time>
      </trkpt>
      <trkpt lat="43.1078794" lon="-2.7576847">
        <ele>150.084</ele>
        <time>2021-04-01T09:12:52.954Z</time>
      </trkpt>
      <trkpt lat="43.1078827" lon="-2.7576883">
        <ele>150.073</ele>
        <time>2021-04-01T09:12:53.012Z</time>
      </trkpt>
      <trkpt lat="43.1078861" lon="-2.7576921">
        <ele>150.08</ele>
        <time>2021-04-01T09:12:53.070Z</time>
      </trkpt>
      <trkpt lat="43.1078891" lon="-2.7576959">
        <ele>150.056</ele>
        <time>2021-04-01T09:12:53.128Z</time>
      </trkpt>
      <trkpt lat="43.1078925" lon="-2.7576995">
        <ele>150.035</ele>
        <time>2021-04-01T09:12:53.186Z</time>
      </trkpt>
      <trkpt lat="43.1078959" lon="-2.7577031">
        <ele>150.03</ele>
        <time>2021-04-01T09:12:53.244Z</time>
      </trkpt>
      <trkpt lat="43.1078994" lon="-2.7577068">
        <ele>150.038</ele>
        <time>2021-04-01T09:12:53.302Z</time>
      </trkpt>
      <trkpt lat="43.1079026" lon="-2.7577107">
        <ele>150.043</ele>
        <time>2021-04-01T09:12:53.360Z</time>
      </trkpt>
      <trkpt lat="43.1079059" lon="-2.7577145">
        <ele>150.036</ele>
        <time>2021-04-01T09:12:53.418Z</time>
      </trkpt>
      <trkpt lat="43.1079092" lon="-2.7577183">
        <ele>150.041</ele>
        <time>2021-04-01T09:12:53.476Z</time>
      </trkpt>
      <trkpt lat="43.1079125" lon="-2.757722">
        <ele>150.036</ele>
        <time>2021-04-01T09:12:53.534Z</time>
      </trkpt>
      <trkpt lat="43.1079159" lon="-2.7577259">
        <ele>150.047</ele>
        <time>2021-04-01T09:12:53.592Z</time>
      </trkpt>
      <trkpt lat="43.1079192" lon="-2.7577298">
        <ele>150.046</ele>
        <time>2021-04-01T09:12:53.650Z</time>
      </trkpt>
      <trkpt lat="43.1079224" lon="-2.7577335">
        <ele>150.026</ele>
        <time>2021-04-01T09:12:53.709Z</time>
      </trkpt>
      <trkpt lat="43.1079255" lon="-2.7577374">
        <ele>150.018</ele>
        <time>2021-04-01T09:12:53.767Z</time>
      </trkpt>
      <trkpt lat="43.1079288" lon="-2.7577411">
        <ele>150.029</ele>
        <time>2021-04-01T09:12:53.825Z</time>
      </trkpt>
      <trkpt lat="43.1079321" lon="-2.7577449">
        <ele>150.028</ele>
        <time>2021-04-01T09:12:53.883Z</time>
      </trkpt>
      <trkpt lat="43.1079353" lon="-2.7577488">
        <ele>150.005</ele>
        <time>2021-04-01T09:12:53.941Z</time>
      </trkpt>
      <trkpt lat="43.1079386" lon="-2.7577527">
        <ele>150</ele>
        <time>2021-04-01T09:12:53.999Z</time>
      </trkpt>
      <trkpt lat="43.1079418" lon="-2.7577564">
        <ele>149.988</ele>
        <time>2021-04-01T09:12:54.057Z</time>
      </trkpt>
      <trkpt lat="43.1079452" lon="-2.7577603">
        <ele>150.004</ele>
        <time>2021-04-01T09:12:54.115Z</time>
      </trkpt>
      <trkpt lat="43.1079486" lon="-2.7577639">
        <ele>150</ele>
        <time>2021-04-01T09:12:54.173Z</time>
      </trkpt>
      <trkpt lat="43.1079519" lon="-2.7577674">
        <ele>149.97</ele>
        <time>2021-04-01T09:12:54.231Z</time>
      </trkpt>
      <trkpt lat="43.1079554" lon="-2.7577706">
        <ele>149.927</ele>
        <time>2021-04-01T09:12:54.289Z</time>
      </trkpt>
      <trkpt lat="43.1079586" lon="-2.757774">
        <ele>149.895</ele>
        <time>2021-04-01T09:12:54.347Z</time>
      </trkpt>
      <trkpt lat="43.1079617" lon="-2.7577778">
        <ele>149.888</ele>
        <time>2021-04-01T09:12:54.405Z</time>
      </trkpt>
      <trkpt lat="43.107965" lon="-2.7577813">
        <ele>149.871</ele>
        <time>2021-04-01T09:12:54.463Z</time>
      </trkpt>
      <trkpt lat="43.1079685" lon="-2.7577852">
        <ele>149.866</ele>
        <time>2021-04-01T09:12:54.521Z</time>
      </trkpt>
      <trkpt lat="43.1079716" lon="-2.7577892">
        <ele>149.86</ele>
        <time>2021-04-01T09:12:54.579Z</time>
      </trkpt>
      <trkpt lat="43.107975" lon="-2.757793">
        <ele>149.869</ele>
        <time>2021-04-01T09:12:54.637Z</time>
      </trkpt>
      <trkpt lat="43.1079782" lon="-2.7577969">
        <ele>149.873</ele>
        <time>2021-04-01T09:12:54.695Z</time>
      </trkpt>
      <trkpt lat="43.1079814" lon="-2.7578007">
        <ele>149.863</ele>
        <time>2021-04-01T09:12:54.754Z</time>
      </trkpt>
      <trkpt lat="43.1079846" lon="-2.7578046">
        <ele>149.853</ele>
        <time>2021-04-01T09:12:54.805Z</time>
      </trkpt>
      <trkpt lat="43.1079878" lon="-2.7578085">
        <ele>149.825</ele>
        <time>2021-04-01T09:12:54.857Z</time>
      </trkpt>
      <trkpt lat="43.1079911" lon="-2.7578123">
        <ele>149.819</ele>
        <time>2021-04-01T09:12:54.909Z</time>
      </trkpt>
      <trkpt lat="43.1079944" lon="-2.7578162">
        <ele>149.822</ele>
        <time>2021-04-01T09:12:54.961Z</time>
      </trkpt>
      <trkpt lat="43.1079977" lon="-2.7578202">
        <ele>149.816</ele>
        <time>2021-04-01T09:12:55.013Z</time>
      </trkpt>
      <trkpt lat="43.108001" lon="-2.757824">
        <ele>149.796</ele>
        <time>2021-04-01T09:12:55.065Z</time>
      </trkpt>
      <trkpt lat="43.1080041" lon="-2.7578278">
        <ele>149.782</ele>
        <time>2021-04-01T09:12:55.117Z</time>
      </trkpt>
      <trkpt lat="43.1080075" lon="-2.7578314">
        <ele>149.762</ele>
        <time>2021-04-01T09:12:55.169Z</time>
      </trkpt>
      <trkpt lat="43.1080107" lon="-2.7578349">
        <ele>149.72</ele>
        <time>2021-04-01T09:12:55.221Z</time>
      </trkpt>
      <trkpt lat="43.1080139" lon="-2.7578386">
        <ele>149.696</ele>
        <time>2021-04-01T09:12:55.273Z</time>
      </trkpt>
      <trkpt lat="43.1080173" lon="-2.7578426">
        <ele>149.713</ele>
        <time>2021-04-01T09:12:55.325Z</time>
      </trkpt>
      <trkpt lat="43.1080205" lon="-2.7578464">
        <ele>149.691</ele>
        <time>2021-04-01T09:12:55.377Z</time>
      </trkpt>
      <trkpt lat="43.1080237" lon="-2.7578502">
        <ele>149.685</ele>
        <time>2021-04-01T09:12:55.429Z</time>
      </trkpt>
      <trkpt lat="43.108027" lon="-2.7578541">
        <ele>149.68</ele>
        <time>2021-04-01T09:12:55.481Z</time>
      </trkpt>
      <trkpt lat="43.1080303" lon="-2.7578577">
        <ele>149.668</ele>
        <time>2021-04-01T09:12:55.533Z</time>
      </trkpt>
      <trkpt lat="43.1080336" lon="-2.7578614">
        <ele>149.632</ele>
        <time>2021-04-01T09:12:55.585Z</time>
      </trkpt>
      <trkpt lat="43.1080368" lon="-2.7578648">
        <ele>149.589</ele>
        <time>2021-04-01T09:12:55.637Z</time>
      </trkpt>
      <trkpt lat="43.1080402" lon="-2.7578685">
        <ele>149.583</ele>
        <time>2021-04-01T09:12:55.689Z</time>
      </trkpt>
      <trkpt lat="43.1080437" lon="-2.7578723">
        <ele>149.598</ele>
        <time>2021-04-01T09:12:55.744Z</time>
      </trkpt>
      <trkpt lat="43.108047" lon="-2.757876">
        <ele>149.577</ele>
        <time>2021-04-01T09:12:55.799Z</time>
      </trkpt>
      <trkpt lat="43.1080502" lon="-2.7578798">
        <ele>149.572</ele>
        <time>2021-04-01T09:12:55.854Z</time>
      </trkpt>
      <trkpt lat="43.1080535" lon="-2.7578836">
        <ele>149.557</ele>
        <time>2021-04-01T09:12:55.909Z</time>
      </trkpt>
      <trkpt lat="43.1080569" lon="-2.7578874">
        <ele>149.558</ele>
        <time>2021-04-01T09:12:55.964Z</time>
      </trkpt>
      <trkpt lat="43.1080603" lon="-2.7578911">
        <ele>149.541</ele>
        <time>2021-04-01T09:12:56.019Z</time>
      </trkpt>
      <trkpt lat="43.1080635" lon="-2.7578946">
        <ele>149.509</ele>
        <time>2021-04-01T09:12:56.074Z</time>
      </trkpt>
      <trkpt lat="43.1080667" lon="-2.7578984">
        <ele>149.49</ele>
        <time>2021-04-01T09:12:56.129Z</time>
      </trkpt>
      <trkpt lat="43.10807" lon="-2.7579023">
        <ele>149.496</ele>
        <time>2021-04-01T09:12:56.184Z</time>
      </trkpt>
      <trkpt lat="43.1080733" lon="-2.7579059">
        <ele>149.471</ele>
        <time>2021-04-01T09:12:56.239Z</time>
      </trkpt>
      <trkpt lat="43.1080767" lon="-2.7579097">
        <ele>149.463</ele>
        <time>2021-04-01T09:12:56.294Z</time>
      </trkpt>
      <trkpt lat="43.1080799" lon="-2.7579137">
        <ele>149.473</ele>
        <time>2021-04-01T09:12:56.349Z</time>
      </trkpt>
      <trkpt lat="43.1080834" lon="-2.7579174">
        <ele>149.474</ele>
        <time>2021-04-01T09:12:56.404Z</time>
      </trkpt>
      <trkpt lat="43.1080868" lon="-2.7579211">
        <ele>149.479</ele>
        <time>2021-04-01T09:12:56.459Z</time>
      </trkpt>
      <trkpt lat="43.1080901" lon="-2.757925">
        <ele>149.469</ele>
        <time>2021-04-01T09:12:56.514Z</time>
      </trkpt>
      <trkpt lat="43.1080935" lon="-2.7579288">
        <ele>149.472</ele>
        <time>2021-04-01T09:12:56.569Z</time>
      </trkpt>
      <trkpt lat="43.1080968" lon="-2.7579326">
        <ele>149.483</ele>
        <time>2021-04-01T09:12:56.624Z</time>
      </trkpt>
      <trkpt lat="43.1081001" lon="-2.7579364">
        <ele>149.477</ele>
        <time>2021-04-01T09:12:56.679Z</time>
      </trkpt>
      <trkpt lat="43.1081034" lon="-2.7579404">
        <ele>149.486</ele>
        <time>2021-04-01T09:12:56.734Z</time>
      </trkpt>
      <trkpt lat="43.1081068" lon="-2.7579442">
        <ele>149.484</ele>
        <time>2021-04-01T09:12:56.792Z</time>
      </trkpt>
      <trkpt lat="43.10811" lon="-2.7579481">
        <ele>149.481</ele>
        <time>2021-04-01T09:12:56.850Z</time>
      </trkpt>
      <trkpt lat="43.1081132" lon="-2.7579519">
        <ele>149.478</ele>
        <time>2021-04-01T09:12:56.908Z</time>
      </trkpt>
      <trkpt lat="43.1081166" lon="-2.7579558">
        <ele>149.488</ele>
        <time>2021-04-01T09:12:56.966Z</time>
      </trkpt>
      <trkpt lat="43.1081199" lon="-2.7579597">
        <ele>149.487</ele>
        <time>2021-04-01T09:12:57.025Z</time>
      </trkpt>
      <trkpt lat="43.1081232" lon="-2.7579635">
        <ele>149.48</ele>
        <time>2021-04-01T09:12:57.083Z</time>
      </trkpt>
      <trkpt lat="43.1081264" lon="-2.7579675">
        <ele>149.479</ele>
        <time>2021-04-01T09:12:57.141Z</time>
      </trkpt>
      <trkpt lat="43.1081296" lon="-2.7579712">
        <ele>149.456</ele>
        <time>2021-04-01T09:12:57.199Z</time>
      </trkpt>
      <trkpt lat="43.1081329" lon="-2.7579751">
        <ele>149.446</ele>
        <time>2021-04-01T09:12:57.258Z</time>
      </trkpt>
      <trkpt lat="43.1081361" lon="-2.757979">
        <ele>149.446</ele>
        <time>2021-04-01T09:12:57.316Z</time>
      </trkpt>
      <trkpt lat="43.1081395" lon="-2.7579828">
        <ele>149.456</ele>
        <time>2021-04-01T09:12:57.374Z</time>
      </trkpt>
      <trkpt lat="43.1081429" lon="-2.7579867">
        <ele>149.453</ele>
        <time>2021-04-01T09:12:57.432Z</time>
      </trkpt>
      <trkpt lat="43.1081461" lon="-2.7579904">
        <ele>149.438</ele>
        <time>2021-04-01T09:12:57.491Z</time>
      </trkpt>
      <trkpt lat="43.1081495" lon="-2.7579943">
        <ele>149.437</ele>
        <time>2021-04-01T09:12:57.549Z</time>
      </trkpt>
      <trkpt lat="43.1081527" lon="-2.7579981">
        <ele>149.429</ele>
        <time>2021-04-01T09:12:57.607Z</time>
      </trkpt>
      <trkpt lat="43.1081561" lon="-2.7580018">
        <ele>149.423</ele>
        <time>2021-04-01T09:12:57.665Z</time>
      </trkpt>
      <trkpt lat="43.1081594" lon="-2.7580055">
        <ele>149.402</ele>
        <time>2021-04-01T09:12:57.724Z</time>
      </trkpt>
      <trkpt lat="43.1081627" lon="-2.7580091">
        <ele>149.401</ele>
        <time>2021-04-01T09:12:57.776Z</time>
      </trkpt>
      <trkpt lat="43.108166" lon="-2.7580129">
        <ele>149.395</ele>
        <time>2021-04-01T09:12:57.828Z</time>
      </trkpt>
      <trkpt lat="43.1081695" lon="-2.7580166">
        <ele>149.39</ele>
        <time>2021-04-01T09:12:57.880Z</time>
      </trkpt>
      <trkpt lat="43.1081729" lon="-2.7580203">
        <ele>149.385</ele>
        <time>2021-04-01T09:12:57.932Z</time>
      </trkpt>
      <trkpt lat="43.1081764" lon="-2.7580238">
        <ele>149.382</ele>
        <time>2021-04-01T09:12:57.984Z</time>
      </trkpt>
      <trkpt lat="43.1081799" lon="-2.7580271">
        <ele>149.366</ele>
        <time>2021-04-01T09:12:58.036Z</time>
      </trkpt>
      <trkpt lat="43.1081832" lon="-2.7580309">
        <ele>149.352</ele>
        <time>2021-04-01T09:12:58.088Z</time>
      </trkpt>
      <trkpt lat="43.1081868" lon="-2.7580345">
        <ele>149.348</ele>
        <time>2021-04-01T09:12:58.140Z</time>
      </trkpt>
      <trkpt lat="43.1081902" lon="-2.7580382">
        <ele>149.345</ele>
        <time>2021-04-01T09:12:58.192Z</time>
      </trkpt>
      <trkpt lat="43.1081935" lon="-2.7580416">
        <ele>149.318</ele>
        <time>2021-04-01T09:12:58.245Z</time>
      </trkpt>
      <trkpt lat="43.108197" lon="-2.7580452">
        <ele>149.298</ele>
        <time>2021-04-01T09:12:58.297Z</time>
      </trkpt>
      <trkpt lat="43.1082004" lon="-2.7580488">
        <ele>149.276</ele>
        <time>2021-04-01T09:12:58.349Z</time>
      </trkpt>
      <trkpt lat="43.1082037" lon="-2.7580525">
        <ele>149.28</ele>
        <time>2021-04-01T09:12:58.401Z</time>
      </trkpt>
      <trkpt lat="43.1082072" lon="-2.7580561">
        <ele>149.284</ele>
        <time>2021-04-01T09:12:58.453Z</time>
      </trkpt>
      <trkpt lat="43.1082107" lon="-2.7580597">
        <ele>149.281</ele>
        <time>2021-04-01T09:12:58.505Z</time>
      </trkpt>
      <trkpt lat="43.1082142" lon="-2.7580634">
        <ele>149.268</ele>
        <time>2021-04-01T09:12:58.557Z</time>
      </trkpt>
      <trkpt lat="43.1082177" lon="-2.7580669">
        <ele>149.268</ele>
        <time>2021-04-01T09:12:58.609Z</time>
      </trkpt>
      <trkpt lat="43.1082211" lon="-2.7580706">
        <ele>149.268</ele>
        <time>2021-04-01T09:12:58.661Z</time>
      </trkpt>
      <trkpt lat="43.1082246" lon="-2.7580743">
        <ele>149.263</ele>
        <time>2021-04-01T09:12:58.714Z</time>
      </trkpt>
      <trkpt lat="43.1082279" lon="-2.7580778">
        <ele>149.243</ele>
        <time>2021-04-01T09:12:58.769Z</time>
      </trkpt>
      <trkpt lat="43.1082313" lon="-2.7580814">
        <ele>149.234</ele>
        <time>2021-04-01T09:12:58.824Z</time>
      </trkpt>
      <trkpt lat="43.1082347" lon="-2.7580847">
        <ele>149.206</ele>
        <time>2021-04-01T09:12:58.879Z</time>
      </trkpt>
      <trkpt lat="43.1082383" lon="-2.7580882">
        <ele>149.209</ele>
        <time>2021-04-01T09:12:58.934Z</time>
      </trkpt>
      <trkpt lat="43.1082418" lon="-2.7580921">
        <ele>149.222</ele>
        <time>2021-04-01T09:12:58.989Z</time>
      </trkpt>
      <trkpt lat="43.1082453" lon="-2.7580958">
        <ele>149.237</ele>
        <time>2021-04-01T09:12:59.044Z</time>
      </trkpt>
      <trkpt lat="43.1082487" lon="-2.7580993">
        <ele>149.227</ele>
        <time>2021-04-01T09:12:59.099Z</time>
      </trkpt>
      <trkpt lat="43.1082522" lon="-2.7581028">
        <ele>149.218</ele>
        <time>2021-04-01T09:12:59.154Z</time>
      </trkpt>
      <trkpt lat="43.1082555" lon="-2.7581063">
        <ele>149.203</ele>
        <time>2021-04-01T09:12:59.209Z</time>
      </trkpt>
      <trkpt lat="43.1082589" lon="-2.7581099">
        <ele>149.191</ele>
        <time>2021-04-01T09:12:59.264Z</time>
      </trkpt>
      <trkpt lat="43.1082622" lon="-2.7581136">
        <ele>149.174</ele>
        <time>2021-04-01T09:12:59.319Z</time>
      </trkpt>
      <trkpt lat="43.1082655" lon="-2.7581172">
        <ele>149.164</ele>
        <time>2021-04-01T09:12:59.374Z</time>
      </trkpt>
      <trkpt lat="43.1082689" lon="-2.7581209">
        <ele>149.154</ele>
        <time>2021-04-01T09:12:59.429Z</time>
      </trkpt>
      <trkpt lat="43.1082724" lon="-2.7581247">
        <ele>149.161</ele>
        <time>2021-04-01T09:12:59.484Z</time>
      </trkpt>
      <trkpt lat="43.1082757" lon="-2.7581282">
        <ele>149.15</ele>
        <time>2021-04-01T09:12:59.539Z</time>
      </trkpt>
      <trkpt lat="43.1082793" lon="-2.7581317">
        <ele>149.135</ele>
        <time>2021-04-01T09:12:59.594Z</time>
      </trkpt>
      <trkpt lat="43.1082827" lon="-2.7581356">
        <ele>149.15</ele>
        <time>2021-04-01T09:12:59.649Z</time>
      </trkpt>
      <trkpt lat="43.1082863" lon="-2.7581391">
        <ele>149.152</ele>
        <time>2021-04-01T09:12:59.704Z</time>
      </trkpt>
      <trkpt lat="43.1082898" lon="-2.7581425">
        <ele>149.137</ele>
        <time>2021-04-01T09:12:59.759Z</time>
      </trkpt>
      <trkpt lat="43.1082933" lon="-2.7581464">
        <ele>149.15</ele>
        <time>2021-04-01T09:12:59.814Z</time>
      </trkpt>
      <trkpt lat="43.1082969" lon="-2.7581504">
        <ele>149.186</ele>
        <time>2021-04-01T09:12:59.869Z</time>
      </trkpt>
      <trkpt lat="43.1083003" lon="-2.758154">
        <ele>149.183</ele>
        <time>2021-04-01T09:12:59.924Z</time>
      </trkpt>
      <trkpt lat="43.1083036" lon="-2.7581576">
        <ele>149.16</ele>
        <time>2021-04-01T09:12:59.979Z</time>
      </trkpt>
      <trkpt lat="43.1083068" lon="-2.7581613">
        <ele>149.139</ele>
        <time>2021-04-01T09:13:00.034Z</time>
      </trkpt>
      <trkpt lat="43.1083102" lon="-2.7581652">
        <ele>149.144</ele>
        <time>2021-04-01T09:13:00.089Z</time>
      </trkpt>
      <trkpt lat="43.1083137" lon="-2.7581692">
        <ele>149.158</ele>
        <time>2021-04-01T09:13:00.144Z</time>
      </trkpt>
      <trkpt lat="43.1083171" lon="-2.7581727">
        <ele>149.144</ele>
        <time>2021-04-01T09:13:00.199Z</time>
      </trkpt>
      <trkpt lat="43.1083206" lon="-2.7581763">
        <ele>149.126</ele>
        <time>2021-04-01T09:13:00.254Z</time>
      </trkpt>
      <trkpt lat="43.108324" lon="-2.7581799">
        <ele>149.115</ele>
        <time>2021-04-01T09:13:00.309Z</time>
      </trkpt>
      <trkpt lat="43.1083275" lon="-2.7581837">
        <ele>149.123</ele>
        <time>2021-04-01T09:13:00.364Z</time>
      </trkpt>
      <trkpt lat="43.1083308" lon="-2.7581874">
        <ele>149.106</ele>
        <time>2021-04-01T09:13:00.419Z</time>
      </trkpt>
      <trkpt lat="43.1083342" lon="-2.7581915">
        <ele>149.134</ele>
        <time>2021-04-01T09:13:00.474Z</time>
      </trkpt>
      <trkpt lat="43.1083377" lon="-2.7581954">
        <ele>149.144</ele>
        <time>2021-04-01T09:13:00.529Z</time>
      </trkpt>
      <trkpt lat="43.108341" lon="-2.7581989">
        <ele>149.123</ele>
        <time>2021-04-01T09:13:00.584Z</time>
      </trkpt>
      <trkpt lat="43.1083444" lon="-2.7582026">
        <ele>149.113</ele>
        <time>2021-04-01T09:13:00.639Z</time>
      </trkpt>
      <trkpt lat="43.1083479" lon="-2.7582064">
        <ele>149.116</ele>
        <time>2021-04-01T09:13:00.694Z</time>
      </trkpt>
      <trkpt lat="43.1083514" lon="-2.7582106">
        <ele>149.155</ele>
        <time>2021-04-01T09:13:00.749Z</time>
      </trkpt>
      <trkpt lat="43.1083547" lon="-2.7582145">
        <ele>149.155</ele>
        <time>2021-04-01T09:13:00.804Z</time>
      </trkpt>
      <trkpt lat="43.1083583" lon="-2.7582182">
        <ele>149.15</ele>
        <time>2021-04-01T09:13:00.859Z</time>
      </trkpt>
      <trkpt lat="43.1083617" lon="-2.758222">
        <ele>149.158</ele>
        <time>2021-04-01T09:13:00.914Z</time>
      </trkpt>
      <trkpt lat="43.1083654" lon="-2.7582258">
        <ele>149.181</ele>
        <time>2021-04-01T09:13:00.969Z</time>
      </trkpt>
      <trkpt lat="43.1083688" lon="-2.7582297">
        <ele>149.186</ele>
        <time>2021-04-01T09:13:01.024Z</time>
      </trkpt>
      <trkpt lat="43.1083723" lon="-2.7582334">
        <ele>149.179</ele>
        <time>2021-04-01T09:13:01.079Z</time>
      </trkpt>
      <trkpt lat="43.1083756" lon="-2.7582373">
        <ele>149.175</ele>
        <time>2021-04-01T09:13:01.134Z</time>
      </trkpt>
      <trkpt lat="43.1083789" lon="-2.7582412">
        <ele>149.175</ele>
        <time>2021-04-01T09:13:01.189Z</time>
      </trkpt>
      <trkpt lat="43.1083823" lon="-2.7582448">
        <ele>149.155</ele>
        <time>2021-04-01T09:13:01.244Z</time>
      </trkpt>
      <trkpt lat="43.1083858" lon="-2.7582486">
        <ele>149.162</ele>
        <time>2021-04-01T09:13:01.299Z</time>
      </trkpt>
      <trkpt lat="43.1083893" lon="-2.7582524">
        <ele>149.172</ele>
        <time>2021-04-01T09:13:01.354Z</time>
      </trkpt>
      <trkpt lat="43.1083925" lon="-2.7582563">
        <ele>149.149</ele>
        <time>2021-04-01T09:13:01.409Z</time>
      </trkpt>
      <trkpt lat="43.1083959" lon="-2.7582602">
        <ele>149.175</ele>
        <time>2021-04-01T09:13:01.464Z</time>
      </trkpt>
      <trkpt lat="43.1083994" lon="-2.7582639">
        <ele>149.168</ele>
        <time>2021-04-01T09:13:01.519Z</time>
      </trkpt>
      <trkpt lat="43.1084027" lon="-2.7582676">
        <ele>149.151</ele>
        <time>2021-04-01T09:13:01.574Z</time>
      </trkpt>
      <trkpt lat="43.1084061" lon="-2.7582713">
        <ele>149.12</ele>
        <time>2021-04-01T09:13:01.629Z</time>
      </trkpt>
      <trkpt lat="43.1084095" lon="-2.7582751">
        <ele>149.129</ele>
        <time>2021-04-01T09:13:01.684Z</time>
      </trkpt>
      <trkpt lat="43.1084128" lon="-2.7582787">
        <ele>149.11</ele>
        <time>2021-04-01T09:13:01.739Z</time>
      </trkpt>
      <trkpt lat="43.1084163" lon="-2.7582826">
        <ele>149.123</ele>
        <time>2021-04-01T09:13:01.794Z</time>
      </trkpt>
      <trkpt lat="43.1084197" lon="-2.7582863">
        <ele>149.112</ele>
        <time>2021-04-01T09:13:01.849Z</time>
      </trkpt>
      <trkpt lat="43.1084232" lon="-2.75829">
        <ele>149.109</ele>
        <time>2021-04-01T09:13:01.904Z</time>
      </trkpt>
      <trkpt lat="43.1084265" lon="-2.758294">
        <ele>149.11</ele>
        <time>2021-04-01T09:13:01.959Z</time>
      </trkpt>
      <trkpt lat="43.1084297" lon="-2.7582978">
        <ele>149.11</ele>
        <time>2021-04-01T09:13:02.014Z</time>
      </trkpt>
      <trkpt lat="43.1084332" lon="-2.7583015">
        <ele>149.1</ele>
        <time>2021-04-01T09:13:02.069Z</time>
      </trkpt>
      <trkpt lat="43.1084368" lon="-2.7583052">
        <ele>149.111</ele>
        <time>2021-04-01T09:13:02.124Z</time>
      </trkpt>
      <trkpt lat="43.1084403" lon="-2.758309">
        <ele>149.117</ele>
        <time>2021-04-01T09:13:02.179Z</time>
      </trkpt>
      <trkpt lat="43.1084437" lon="-2.7583129">
        <ele>149.102</ele>
        <time>2021-04-01T09:13:02.234Z</time>
      </trkpt>
      <trkpt lat="43.1084472" lon="-2.7583166">
        <ele>149.104</ele>
        <time>2021-04-01T09:13:02.289Z</time>
      </trkpt>
      <trkpt lat="43.1084506" lon="-2.7583201">
        <ele>149.09</ele>
        <time>2021-04-01T09:13:02.344Z</time>
      </trkpt>
      <trkpt lat="43.1084539" lon="-2.758324">
        <ele>149.089</ele>
        <time>2021-04-01T09:13:02.399Z</time>
      </trkpt>
      <trkpt lat="43.1084573" lon="-2.7583278">
        <ele>149.074</ele>
        <time>2021-04-01T09:13:02.454Z</time>
      </trkpt>
      <trkpt lat="43.1084607" lon="-2.7583316">
        <ele>149.062</ele>
        <time>2021-04-01T09:13:02.509Z</time>
      </trkpt>
      <trkpt lat="43.1084643" lon="-2.7583354">
        <ele>149.064</ele>
        <time>2021-04-01T09:13:02.564Z</time>
      </trkpt>
      <trkpt lat="43.1084679" lon="-2.7583392">
        <ele>149.082</ele>
        <time>2021-04-01T09:13:02.619Z</time>
      </trkpt>
      <trkpt lat="43.1084714" lon="-2.7583431">
        <ele>149.097</ele>
        <time>2021-04-01T09:13:02.674Z</time>
      </trkpt>
      <trkpt lat="43.1084748" lon="-2.7583472">
        <ele>149.105</ele>
        <time>2021-04-01T09:13:02.729Z</time>
      </trkpt>
      <trkpt lat="43.1084782" lon="-2.758351">
        <ele>149.106</ele>
        <time>2021-04-01T09:13:02.784Z</time>
      </trkpt>
      <trkpt lat="43.1084817" lon="-2.7583549">
        <ele>149.113</ele>
        <time>2021-04-01T09:13:02.839Z</time>
      </trkpt>
      <trkpt lat="43.1084852" lon="-2.7583587">
        <ele>149.119</ele>
        <time>2021-04-01T09:13:02.894Z</time>
      </trkpt>
      <trkpt lat="43.1084887" lon="-2.7583624">
        <ele>149.118</ele>
        <time>2021-04-01T09:13:02.949Z</time>
      </trkpt>
      <trkpt lat="43.1084922" lon="-2.7583661">
        <ele>149.115</ele>
        <time>2021-04-01T09:13:03.004Z</time>
      </trkpt>
      <trkpt lat="43.1084957" lon="-2.7583698">
        <ele>149.111</ele>
        <time>2021-04-01T09:13:03.059Z</time>
      </trkpt>
      <trkpt lat="43.108499" lon="-2.7583737">
        <ele>149.114</ele>
        <time>2021-04-01T09:13:03.114Z</time>
      </trkpt>
      <trkpt lat="43.1085026" lon="-2.7583774">
        <ele>149.104</ele>
        <time>2021-04-01T09:13:03.169Z</time>
      </trkpt>
      <trkpt lat="43.1085061" lon="-2.7583811">
        <ele>149.099</ele>
        <time>2021-04-01T09:13:03.224Z</time>
      </trkpt>
      <trkpt lat="43.1085095" lon="-2.7583849">
        <ele>149.1</ele>
        <time>2021-04-01T09:13:03.279Z</time>
      </trkpt>
      <trkpt lat="43.1085128" lon="-2.7583888">
        <ele>149.087</ele>
        <time>2021-04-01T09:13:03.334Z</time>
      </trkpt>
      <trkpt lat="43.1085161" lon="-2.7583926">
        <ele>149.069</ele>
        <time>2021-04-01T09:13:03.389Z</time>
      </trkpt>
      <trkpt lat="43.1085197" lon="-2.7583962">
        <ele>149.069</ele>
        <time>2021-04-01T09:13:03.444Z</time>
      </trkpt>
      <trkpt lat="43.1085232" lon="-2.7583999">
        <ele>149.068</ele>
        <time>2021-04-01T09:13:03.499Z</time>
      </trkpt>
      <trkpt lat="43.1085266" lon="-2.7584034">
        <ele>149.035</ele>
        <time>2021-04-01T09:13:03.554Z</time>
      </trkpt>
      <trkpt lat="43.1085299" lon="-2.7584071">
        <ele>149.002</ele>
        <time>2021-04-01T09:13:03.609Z</time>
      </trkpt>
      <trkpt lat="43.1085332" lon="-2.7584107">
        <ele>148.973</ele>
        <time>2021-04-01T09:13:03.664Z</time>
      </trkpt>
      <trkpt lat="43.1085367" lon="-2.7584144">
        <ele>148.968</ele>
        <time>2021-04-01T09:13:03.719Z</time>
      </trkpt>
      <trkpt lat="43.1085402" lon="-2.758418">
        <ele>148.946</ele>
        <time>2021-04-01T09:13:03.774Z</time>
      </trkpt>
      <trkpt lat="43.1085436" lon="-2.7584216">
        <ele>148.933</ele>
        <time>2021-04-01T09:13:03.829Z</time>
      </trkpt>
      <trkpt lat="43.108547" lon="-2.7584254">
        <ele>148.925</ele>
        <time>2021-04-01T09:13:03.884Z</time>
      </trkpt>
      <trkpt lat="43.1085504" lon="-2.7584291">
        <ele>148.902</ele>
        <time>2021-04-01T09:13:03.939Z</time>
      </trkpt>
      <trkpt lat="43.1085542" lon="-2.7584328">
        <ele>148.923</ele>
        <time>2021-04-01T09:13:03.994Z</time>
      </trkpt>
      <trkpt lat="43.1085577" lon="-2.7584366">
        <ele>148.913</ele>
        <time>2021-04-01T09:13:04.049Z</time>
      </trkpt>
      <trkpt lat="43.1085612" lon="-2.7584403">
        <ele>148.919</ele>
        <time>2021-04-01T09:13:04.104Z</time>
      </trkpt>
      <trkpt lat="43.1085646" lon="-2.7584443">
        <ele>148.925</ele>
        <time>2021-04-01T09:13:04.159Z</time>
      </trkpt>
      <trkpt lat="43.1085682" lon="-2.7584482">
        <ele>148.939</ele>
        <time>2021-04-01T09:13:04.214Z</time>
      </trkpt>
      <trkpt lat="43.1085716" lon="-2.7584521">
        <ele>148.944</ele>
        <time>2021-04-01T09:13:04.269Z</time>
      </trkpt>
      <trkpt lat="43.1085751" lon="-2.7584559">
        <ele>148.929</ele>
        <time>2021-04-01T09:13:04.324Z</time>
      </trkpt>
      <trkpt lat="43.1085786" lon="-2.7584598">
        <ele>148.935</ele>
        <time>2021-04-01T09:13:04.379Z</time>
      </trkpt>
      <trkpt lat="43.1085819" lon="-2.7584636">
        <ele>148.918</ele>
        <time>2021-04-01T09:13:04.434Z</time>
      </trkpt>
      <trkpt lat="43.1085853" lon="-2.7584674">
        <ele>148.915</ele>
        <time>2021-04-01T09:13:04.489Z</time>
      </trkpt>
      <trkpt lat="43.1085888" lon="-2.7584715">
        <ele>148.918</ele>
        <time>2021-04-01T09:13:04.544Z</time>
      </trkpt>
      <trkpt lat="43.1085921" lon="-2.7584755">
        <ele>148.912</ele>
        <time>2021-04-01T09:13:04.599Z</time>
      </trkpt>
      <trkpt lat="43.1085956" lon="-2.7584794">
        <ele>148.911</ele>
        <time>2021-04-01T09:13:04.654Z</time>
      </trkpt>
      <trkpt lat="43.1085992" lon="-2.7584828">
        <ele>148.885</ele>
        <time>2021-04-01T09:13:04.709Z</time>
      </trkpt>
      <trkpt lat="43.1086028" lon="-2.7584869">
        <ele>148.921</ele>
        <time>2021-04-01T09:13:04.764Z</time>
      </trkpt>
      <trkpt lat="43.1086062" lon="-2.7584907">
        <ele>148.89</ele>
        <time>2021-04-01T09:13:04.819Z</time>
      </trkpt>
      <trkpt lat="43.1086097" lon="-2.7584947">
        <ele>148.89</ele>
        <time>2021-04-01T09:13:04.874Z</time>
      </trkpt>
      <trkpt lat="43.1086131" lon="-2.7584985">
        <ele>148.865</ele>
        <time>2021-04-01T09:13:04.929Z</time>
      </trkpt>
      <trkpt lat="43.1086165" lon="-2.7585023">
        <ele>148.858</ele>
        <time>2021-04-01T09:13:04.984Z</time>
      </trkpt>
      <trkpt lat="43.10862" lon="-2.7585063">
        <ele>148.871</ele>
        <time>2021-04-01T09:13:05.039Z</time>
      </trkpt>
      <trkpt lat="43.1086234" lon="-2.7585102">
        <ele>148.861</ele>
        <time>2021-04-01T09:13:05.094Z</time>
      </trkpt>
      <trkpt lat="43.108627" lon="-2.7585139">
        <ele>148.865</ele>
        <time>2021-04-01T09:13:05.149Z</time>
      </trkpt>
      <trkpt lat="43.1086306" lon="-2.7585175">
        <ele>148.847</ele>
        <time>2021-04-01T09:13:05.204Z</time>
      </trkpt>
      <trkpt lat="43.1086338" lon="-2.7585212">
        <ele>148.795</ele>
        <time>2021-04-01T09:13:05.259Z</time>
      </trkpt>
      <trkpt lat="43.1086373" lon="-2.7585252">
        <ele>148.805</ele>
        <time>2021-04-01T09:13:05.314Z</time>
      </trkpt>
      <trkpt lat="43.1086408" lon="-2.7585292">
        <ele>148.816</ele>
        <time>2021-04-01T09:13:05.369Z</time>
      </trkpt>
      <trkpt lat="43.1086442" lon="-2.7585332">
        <ele>148.825</ele>
        <time>2021-04-01T09:13:05.424Z</time>
      </trkpt>
      <trkpt lat="43.1086478" lon="-2.7585373">
        <ele>148.842</ele>
        <time>2021-04-01T09:13:05.479Z</time>
      </trkpt>
      <trkpt lat="43.1086516" lon="-2.7585413">
        <ele>148.873</ele>
        <time>2021-04-01T09:13:05.534Z</time>
      </trkpt>
      <trkpt lat="43.1086551" lon="-2.7585451">
        <ele>148.873</ele>
        <time>2021-04-01T09:13:05.589Z</time>
      </trkpt>
      <trkpt lat="43.1086586" lon="-2.7585491">
        <ele>148.875</ele>
        <time>2021-04-01T09:13:05.644Z</time>
      </trkpt>
      <trkpt lat="43.1086622" lon="-2.758553">
        <ele>148.89</ele>
        <time>2021-04-01T09:13:05.699Z</time>
      </trkpt>
      <trkpt lat="43.1086657" lon="-2.7585567">
        <ele>148.88</ele>
        <time>2021-04-01T09:13:05.754Z</time>
      </trkpt>
      <trkpt lat="43.1086691" lon="-2.7585605">
        <ele>148.851</ele>
        <time>2021-04-01T09:13:05.809Z</time>
      </trkpt>
      <trkpt lat="43.1086726" lon="-2.7585644">
        <ele>148.839</ele>
        <time>2021-04-01T09:13:05.864Z</time>
      </trkpt>
      <trkpt lat="43.1086761" lon="-2.7585682">
        <ele>148.834</ele>
        <time>2021-04-01T09:13:05.919Z</time>
      </trkpt>
      <trkpt lat="43.1086796" lon="-2.758572">
        <ele>148.84</ele>
        <time>2021-04-01T09:13:05.974Z</time>
      </trkpt>
      <trkpt lat="43.108683" lon="-2.7585756">
        <ele>148.821</ele>
        <time>2021-04-01T09:13:06.029Z</time>
      </trkpt>
      <trkpt lat="43.1086865" lon="-2.7585795">
        <ele>148.812</ele>
        <time>2021-04-01T09:13:06.084Z</time>
      </trkpt>
      <trkpt lat="43.1086901" lon="-2.7585834">
        <ele>148.817</ele>
        <time>2021-04-01T09:13:06.139Z</time>
      </trkpt>
      <trkpt lat="43.1086935" lon="-2.7585874">
        <ele>148.811</ele>
        <time>2021-04-01T09:13:06.194Z</time>
      </trkpt>
      <trkpt lat="43.108697" lon="-2.7585912">
        <ele>148.818</ele>
        <time>2021-04-01T09:13:06.249Z</time>
      </trkpt>
      <trkpt lat="43.1087006" lon="-2.7585949">
        <ele>148.804</ele>
        <time>2021-04-01T09:13:06.304Z</time>
      </trkpt>
      <trkpt lat="43.1087042" lon="-2.7585985">
        <ele>148.775</ele>
        <time>2021-04-01T09:13:06.359Z</time>
      </trkpt>
      <trkpt lat="43.1087077" lon="-2.7586022">
        <ele>148.763</ele>
        <time>2021-04-01T09:13:06.414Z</time>
      </trkpt>
      <trkpt lat="43.1087114" lon="-2.758606">
        <ele>148.772</ele>
        <time>2021-04-01T09:13:06.469Z</time>
      </trkpt>
      <trkpt lat="43.1087149" lon="-2.7586102">
        <ele>148.793</ele>
        <time>2021-04-01T09:13:06.524Z</time>
      </trkpt>
      <trkpt lat="43.1087184" lon="-2.7586139">
        <ele>148.78</ele>
        <time>2021-04-01T09:13:06.579Z</time>
      </trkpt>
      <trkpt lat="43.1087218" lon="-2.7586176">
        <ele>148.759</ele>
        <time>2021-04-01T09:13:06.634Z</time>
      </trkpt>
      <trkpt lat="43.1087253" lon="-2.7586216">
        <ele>148.767</ele>
        <time>2021-04-01T09:13:06.689Z</time>
      </trkpt>
      <trkpt lat="43.108729" lon="-2.7586257">
        <ele>148.79</ele>
        <time>2021-04-01T09:13:06.744Z</time>
      </trkpt>
      <trkpt lat="43.1087324" lon="-2.7586295">
        <ele>148.795</ele>
        <time>2021-04-01T09:13:06.799Z</time>
      </trkpt>
      <trkpt lat="43.108736" lon="-2.7586335">
        <ele>148.801</ele>
        <time>2021-04-01T09:13:06.854Z</time>
      </trkpt>
      <trkpt lat="43.1087396" lon="-2.7586373">
        <ele>148.801</ele>
        <time>2021-04-01T09:13:06.909Z</time>
      </trkpt>
      <trkpt lat="43.1087431" lon="-2.7586412">
        <ele>148.802</ele>
        <time>2021-04-01T09:13:06.964Z</time>
      </trkpt>
      <trkpt lat="43.1087465" lon="-2.758645">
        <ele>148.805</ele>
        <time>2021-04-01T09:13:07.019Z</time>
      </trkpt>
      <trkpt lat="43.1087501" lon="-2.758649">
        <ele>148.829</ele>
        <time>2021-04-01T09:13:07.074Z</time>
      </trkpt>
      <trkpt lat="43.1087536" lon="-2.7586528">
        <ele>148.821</ele>
        <time>2021-04-01T09:13:07.129Z</time>
      </trkpt>
      <trkpt lat="43.1087572" lon="-2.7586569">
        <ele>148.836</ele>
        <time>2021-04-01T09:13:07.184Z</time>
      </trkpt>
      <trkpt lat="43.1087606" lon="-2.7586608">
        <ele>148.831</ele>
        <time>2021-04-01T09:13:07.239Z</time>
      </trkpt>
      <trkpt lat="43.108764" lon="-2.7586647">
        <ele>148.838</ele>
        <time>2021-04-01T09:13:07.294Z</time>
      </trkpt>
      <trkpt lat="43.1087676" lon="-2.7586686">
        <ele>148.839</ele>
        <time>2021-04-01T09:13:07.349Z</time>
      </trkpt>
      <trkpt lat="43.1087712" lon="-2.7586724">
        <ele>148.845</ele>
        <time>2021-04-01T09:13:07.404Z</time>
      </trkpt>
      <trkpt lat="43.1087746" lon="-2.7586762">
        <ele>148.843</ele>
        <time>2021-04-01T09:13:07.459Z</time>
      </trkpt>
      <trkpt lat="43.1087782" lon="-2.7586802">
        <ele>148.848</ele>
        <time>2021-04-01T09:13:07.514Z</time>
      </trkpt>
      <trkpt lat="43.1087817" lon="-2.7586843">
        <ele>148.849</ele>
        <time>2021-04-01T09:13:07.569Z</time>
      </trkpt>
      <trkpt lat="43.1087853" lon="-2.7586879">
        <ele>148.839</ele>
        <time>2021-04-01T09:13:07.624Z</time>
      </trkpt>
      <trkpt lat="43.1087889" lon="-2.7586918">
        <ele>148.857</ele>
        <time>2021-04-01T09:13:07.679Z</time>
      </trkpt>
      <trkpt lat="43.1087924" lon="-2.7586958">
        <ele>148.857</ele>
        <time>2021-04-01T09:13:07.734Z</time>
      </trkpt>
      <trkpt lat="43.1087961" lon="-2.7586998">
        <ele>148.87</ele>
        <time>2021-04-01T09:13:07.789Z</time>
      </trkpt>
      <trkpt lat="43.1087998" lon="-2.7587037">
        <ele>148.889</ele>
        <time>2021-04-01T09:13:07.844Z</time>
      </trkpt>
      <trkpt lat="43.1088034" lon="-2.7587075">
        <ele>148.898</ele>
        <time>2021-04-01T09:13:07.899Z</time>
      </trkpt>
      <trkpt lat="43.1088067" lon="-2.7587114">
        <ele>148.892</ele>
        <time>2021-04-01T09:13:07.954Z</time>
      </trkpt>
      <trkpt lat="43.1088103" lon="-2.7587155">
        <ele>148.908</ele>
        <time>2021-04-01T09:13:08.009Z</time>
      </trkpt>
      <trkpt lat="43.1088141" lon="-2.7587194">
        <ele>148.92</ele>
        <time>2021-04-01T09:13:08.064Z</time>
      </trkpt>
      <trkpt lat="43.1088177" lon="-2.758723">
        <ele>148.905</ele>
        <time>2021-04-01T09:13:08.119Z</time>
      </trkpt>
      <trkpt lat="43.1088211" lon="-2.7587273">
        <ele>148.906</ele>
        <time>2021-04-01T09:13:08.174Z</time>
      </trkpt>
      <trkpt lat="43.1088244" lon="-2.7587315">
        <ele>148.878</ele>
        <time>2021-04-01T09:13:08.229Z</time>
      </trkpt>
      <trkpt lat="43.1088276" lon="-2.7587355">
        <ele>148.855</ele>
        <time>2021-04-01T09:13:08.284Z</time>
      </trkpt>
      <trkpt lat="43.1088312" lon="-2.7587395">
        <ele>148.86</ele>
        <time>2021-04-01T09:13:08.339Z</time>
      </trkpt>
      <trkpt lat="43.1088345" lon="-2.7587436">
        <ele>148.831</ele>
        <time>2021-04-01T09:13:08.394Z</time>
      </trkpt>
      <trkpt lat="43.1088382" lon="-2.7587473">
        <ele>148.823</ele>
        <time>2021-04-01T09:13:08.449Z</time>
      </trkpt>
      <trkpt lat="43.1088419" lon="-2.7587512">
        <ele>148.845</ele>
        <time>2021-04-01T09:13:08.504Z</time>
      </trkpt>
      <trkpt lat="43.1088455" lon="-2.7587551">
        <ele>148.854</ele>
        <time>2021-04-01T09:13:08.559Z</time>
      </trkpt>
      <trkpt lat="43.1088491" lon="-2.7587591">
        <ele>148.87</ele>
        <time>2021-04-01T09:13:08.614Z</time>
      </trkpt>
      <trkpt lat="43.1088527" lon="-2.758763">
        <ele>148.872</ele>
        <time>2021-04-01T09:13:08.669Z</time>
      </trkpt>
      <trkpt lat="43.1088563" lon="-2.7587668">
        <ele>148.857</ele>
        <time>2021-04-01T09:13:08.724Z</time>
      </trkpt>
      <trkpt lat="43.1088598" lon="-2.7587706">
        <ele>148.843</ele>
        <time>2021-04-01T09:13:08.782Z</time>
      </trkpt>
      <trkpt lat="43.1088634" lon="-2.7587742">
        <ele>148.827</ele>
        <time>2021-04-01T09:13:08.840Z</time>
      </trkpt>
      <trkpt lat="43.1088667" lon="-2.758778">
        <ele>148.802</ele>
        <time>2021-04-01T09:13:08.898Z</time>
      </trkpt>
      <trkpt lat="43.1088703" lon="-2.7587818">
        <ele>148.794</ele>
        <time>2021-04-01T09:13:08.956Z</time>
      </trkpt>
      <trkpt lat="43.1088737" lon="-2.7587857">
        <ele>148.785</ele>
        <time>2021-04-01T09:13:09.014Z</time>
      </trkpt>
      <trkpt lat="43.1088773" lon="-2.7587895">
        <ele>148.781</ele>
        <time>2021-04-01T09:13:09.072Z</time>
      </trkpt>
      <trkpt lat="43.1088808" lon="-2.7587933">
        <ele>148.786</ele>
        <time>2021-04-01T09:13:09.130Z</time>
      </trkpt>
      <trkpt lat="43.1088843" lon="-2.7587972">
        <ele>148.78</ele>
        <time>2021-04-01T09:13:09.188Z</time>
      </trkpt>
      <trkpt lat="43.1088879" lon="-2.758801">
        <ele>148.779</ele>
        <time>2021-04-01T09:13:09.246Z</time>
      </trkpt>
      <trkpt lat="43.1088919" lon="-2.7588045">
        <ele>148.779</ele>
        <time>2021-04-01T09:13:09.304Z</time>
      </trkpt>
      <trkpt lat="43.1088956" lon="-2.7588081">
        <ele>148.788</ele>
        <time>2021-04-01T09:13:09.362Z</time>
      </trkpt>
      <trkpt lat="43.1088994" lon="-2.758812">
        <ele>148.811</ele>
        <time>2021-04-01T09:13:09.420Z</time>
      </trkpt>
      <trkpt lat="43.1089032" lon="-2.758816">
        <ele>148.843</ele>
        <time>2021-04-01T09:13:09.478Z</time>
      </trkpt>
      <trkpt lat="43.1089067" lon="-2.7588196">
        <ele>148.826</ele>
        <time>2021-04-01T09:13:09.536Z</time>
      </trkpt>
      <trkpt lat="43.1089103" lon="-2.7588233">
        <ele>148.832</ele>
        <time>2021-04-01T09:13:09.594Z</time>
      </trkpt>
      <trkpt lat="43.1089138" lon="-2.7588272">
        <ele>148.833</ele>
        <time>2021-04-01T09:13:09.652Z</time>
      </trkpt>
      <trkpt lat="43.1089173" lon="-2.758831">
        <ele>148.819</ele>
        <time>2021-04-01T09:13:09.710Z</time>
      </trkpt>
      <trkpt lat="43.1089208" lon="-2.7588349">
        <ele>148.807</ele>
        <time>2021-04-01T09:13:09.769Z</time>
      </trkpt>
      <trkpt lat="43.1089243" lon="-2.7588388">
        <ele>148.808</ele>
        <time>2021-04-01T09:13:09.820Z</time>
      </trkpt>
      <trkpt lat="43.1089279" lon="-2.7588425">
        <ele>148.82</ele>
        <time>2021-04-01T09:13:09.872Z</time>
      </trkpt>
      <trkpt lat="43.1089317" lon="-2.7588465">
        <ele>148.821</ele>
        <time>2021-04-01T09:13:09.924Z</time>
      </trkpt>
      <trkpt lat="43.1089351" lon="-2.7588502">
        <ele>148.786</ele>
        <time>2021-04-01T09:13:09.976Z</time>
      </trkpt>
      <trkpt lat="43.1089388" lon="-2.7588539">
        <ele>148.779</ele>
        <time>2021-04-01T09:13:10.028Z</time>
      </trkpt>
      <trkpt lat="43.1089423" lon="-2.7588578">
        <ele>148.779</ele>
        <time>2021-04-01T09:13:10.080Z</time>
      </trkpt>
      <trkpt lat="43.1089458" lon="-2.7588617">
        <ele>148.789</ele>
        <time>2021-04-01T09:13:10.132Z</time>
      </trkpt>
      <trkpt lat="43.1089495" lon="-2.7588654">
        <ele>148.782</ele>
        <time>2021-04-01T09:13:10.184Z</time>
      </trkpt>
      <trkpt lat="43.1089532" lon="-2.758869">
        <ele>148.766</ele>
        <time>2021-04-01T09:13:10.236Z</time>
      </trkpt>
      <trkpt lat="43.108957" lon="-2.7588728">
        <ele>148.781</ele>
        <time>2021-04-01T09:13:10.288Z</time>
      </trkpt>
      <trkpt lat="43.1089609" lon="-2.7588765">
        <ele>148.815</ele>
        <time>2021-04-01T09:13:10.340Z</time>
      </trkpt>
      <trkpt lat="43.1089644" lon="-2.7588808">
        <ele>148.828</ele>
        <time>2021-04-01T09:13:10.392Z</time>
      </trkpt>
      <trkpt lat="43.1089675" lon="-2.7588847">
        <ele>148.79</ele>
        <time>2021-04-01T09:13:10.444Z</time>
      </trkpt>
      <trkpt lat="43.1089709" lon="-2.7588883">
        <ele>148.765</ele>
        <time>2021-04-01T09:13:10.496Z</time>
      </trkpt>
      <trkpt lat="43.1089744" lon="-2.7588921">
        <ele>148.748</ele>
        <time>2021-04-01T09:13:10.548Z</time>
      </trkpt>
      <trkpt lat="43.108978" lon="-2.7588961">
        <ele>148.748</ele>
        <time>2021-04-01T09:13:10.600Z</time>
      </trkpt>
      <trkpt lat="43.1089815" lon="-2.7589">
        <ele>148.748</ele>
        <time>2021-04-01T09:13:10.652Z</time>
      </trkpt>
      <trkpt lat="43.1089849" lon="-2.758904">
        <ele>148.759</ele>
        <time>2021-04-01T09:13:10.704Z</time>
      </trkpt>
      <trkpt lat="43.1089888" lon="-2.7589078">
        <ele>148.771</ele>
        <time>2021-04-01T09:13:10.759Z</time>
      </trkpt>
      <trkpt lat="43.1089924" lon="-2.7589115">
        <ele>148.758</ele>
        <time>2021-04-01T09:13:10.814Z</time>
      </trkpt>
      <trkpt lat="43.1089958" lon="-2.7589156">
        <ele>148.775</ele>
        <time>2021-04-01T09:13:10.869Z</time>
      </trkpt>
      <trkpt lat="43.1089993" lon="-2.7589195">
        <ele>148.78</ele>
        <time>2021-04-01T09:13:10.924Z</time>
      </trkpt>
      <trkpt lat="43.1090029" lon="-2.7589233">
        <ele>148.774</ele>
        <time>2021-04-01T09:13:10.979Z</time>
      </trkpt>
      <trkpt lat="43.1090063" lon="-2.7589272">
        <ele>148.768</ele>
        <time>2021-04-01T09:13:11.034Z</time>
      </trkpt>
      <trkpt lat="43.1090094" lon="-2.7589311">
        <ele>148.725</ele>
        <time>2021-04-01T09:13:11.089Z</time>
      </trkpt>
      <trkpt lat="43.1090129" lon="-2.7589351">
        <ele>148.737</ele>
        <time>2021-04-01T09:13:11.144Z</time>
      </trkpt>
      <trkpt lat="43.1090164" lon="-2.758939">
        <ele>148.739</ele>
        <time>2021-04-01T09:13:11.199Z</time>
      </trkpt>
      <trkpt lat="43.1090198" lon="-2.758943">
        <ele>148.735</ele>
        <time>2021-04-01T09:13:11.254Z</time>
      </trkpt>
      <trkpt lat="43.1090233" lon="-2.758947">
        <ele>148.747</ele>
        <time>2021-04-01T09:13:11.309Z</time>
      </trkpt>
      <trkpt lat="43.1090268" lon="-2.758951">
        <ele>148.743</ele>
        <time>2021-04-01T09:13:11.364Z</time>
      </trkpt>
      <trkpt lat="43.1090302" lon="-2.7589544">
        <ele>148.693</ele>
        <time>2021-04-01T09:13:11.419Z</time>
      </trkpt>
      <trkpt lat="43.1090336" lon="-2.7589584">
        <ele>148.683</ele>
        <time>2021-04-01T09:13:11.474Z</time>
      </trkpt>
      <trkpt lat="43.1090373" lon="-2.7589622">
        <ele>148.681</ele>
        <time>2021-04-01T09:13:11.529Z</time>
      </trkpt>
      <trkpt lat="43.1090406" lon="-2.7589661">
        <ele>148.672</ele>
        <time>2021-04-01T09:13:11.584Z</time>
      </trkpt>
      <trkpt lat="43.1090439" lon="-2.7589701">
        <ele>148.649</ele>
        <time>2021-04-01T09:13:11.639Z</time>
      </trkpt>
      <trkpt lat="43.1090473" lon="-2.7589739">
        <ele>148.627</ele>
        <time>2021-04-01T09:13:11.694Z</time>
      </trkpt>
      <trkpt lat="43.1090507" lon="-2.7589779">
        <ele>148.627</ele>
        <time>2021-04-01T09:13:11.749Z</time>
      </trkpt>
      <trkpt lat="43.1090542" lon="-2.758982">
        <ele>148.635</ele>
        <time>2021-04-01T09:13:11.804Z</time>
      </trkpt>
      <trkpt lat="43.1090577" lon="-2.7589865">
        <ele>148.677</ele>
        <time>2021-04-01T09:13:11.859Z</time>
      </trkpt>
      <trkpt lat="43.109061" lon="-2.7589908">
        <ele>148.677</ele>
        <time>2021-04-01T09:13:11.914Z</time>
      </trkpt>
      <trkpt lat="43.1090643" lon="-2.7589947">
        <ele>148.642</ele>
        <time>2021-04-01T09:13:11.969Z</time>
      </trkpt>
      <trkpt lat="43.1090675" lon="-2.7589988">
        <ele>148.638</ele>
        <time>2021-04-01T09:13:12.024Z</time>
      </trkpt>
      <trkpt lat="43.1090709" lon="-2.7590028">
        <ele>148.614</ele>
        <time>2021-04-01T09:13:12.079Z</time>
      </trkpt>
      <trkpt lat="43.1090743" lon="-2.7590069">
        <ele>148.603</ele>
        <time>2021-04-01T09:13:12.134Z</time>
      </trkpt>
      <trkpt lat="43.1090776" lon="-2.7590107">
        <ele>148.585</ele>
        <time>2021-04-01T09:13:12.189Z</time>
      </trkpt>
      <trkpt lat="43.1090811" lon="-2.7590144">
        <ele>148.568</ele>
        <time>2021-04-01T09:13:12.244Z</time>
      </trkpt>
      <trkpt lat="43.1090842" lon="-2.7590186">
        <ele>148.555</ele>
        <time>2021-04-01T09:13:12.299Z</time>
      </trkpt>
      <trkpt lat="43.1090875" lon="-2.7590227">
        <ele>148.555</ele>
        <time>2021-04-01T09:13:12.354Z</time>
      </trkpt>
      <trkpt lat="43.1090909" lon="-2.7590273">
        <ele>148.6</ele>
        <time>2021-04-01T09:13:12.409Z</time>
      </trkpt>
      <trkpt lat="43.1090944" lon="-2.7590316">
        <ele>148.634</ele>
        <time>2021-04-01T09:13:12.464Z</time>
      </trkpt>
      <trkpt lat="43.1090977" lon="-2.7590361">
        <ele>148.661</ele>
        <time>2021-04-01T09:13:12.519Z</time>
      </trkpt>
      <trkpt lat="43.1091008" lon="-2.7590399">
        <ele>148.617</ele>
        <time>2021-04-01T09:13:12.574Z</time>
      </trkpt>
      <trkpt lat="43.1091038" lon="-2.759044">
        <ele>148.587</ele>
        <time>2021-04-01T09:13:12.629Z</time>
      </trkpt>
      <trkpt lat="43.109107" lon="-2.7590481">
        <ele>148.58</ele>
        <time>2021-04-01T09:13:12.684Z</time>
      </trkpt>
      <trkpt lat="43.1091105" lon="-2.7590526">
        <ele>148.615</ele>
        <time>2021-04-01T09:13:12.739Z</time>
      </trkpt>
      <trkpt lat="43.109114" lon="-2.7590569">
        <ele>148.633</ele>
        <time>2021-04-01T09:13:12.794Z</time>
      </trkpt>
      <trkpt lat="43.1091172" lon="-2.759061">
        <ele>148.615</ele>
        <time>2021-04-01T09:13:12.849Z</time>
      </trkpt>
      <trkpt lat="43.1091204" lon="-2.7590653">
        <ele>148.624</ele>
        <time>2021-04-01T09:13:12.904Z</time>
      </trkpt>
      <trkpt lat="43.1091238" lon="-2.7590698">
        <ele>148.635</ele>
        <time>2021-04-01T09:13:12.959Z</time>
      </trkpt>
      <trkpt lat="43.1091272" lon="-2.7590742">
        <ele>148.649</ele>
        <time>2021-04-01T09:13:13.014Z</time>
      </trkpt>
      <trkpt lat="43.1091307" lon="-2.7590784">
        <ele>148.678</ele>
        <time>2021-04-01T09:13:13.069Z</time>
      </trkpt>
      <trkpt lat="43.109134" lon="-2.7590828">
        <ele>148.708</ele>
        <time>2021-04-01T09:13:13.124Z</time>
      </trkpt>
      <trkpt lat="43.1091372" lon="-2.7590872">
        <ele>148.72</ele>
        <time>2021-04-01T09:13:13.179Z</time>
      </trkpt>
      <trkpt lat="43.1091408" lon="-2.7590917">
        <ele>148.755</ele>
        <time>2021-04-01T09:13:13.234Z</time>
      </trkpt>
      <trkpt lat="43.1091443" lon="-2.7590958">
        <ele>148.771</ele>
        <time>2021-04-01T09:13:13.289Z</time>
      </trkpt>
      <trkpt lat="43.1091475" lon="-2.7591">
        <ele>148.766</ele>
        <time>2021-04-01T09:13:13.344Z</time>
      </trkpt>
      <trkpt lat="43.1091509" lon="-2.759104">
        <ele>148.758</ele>
        <time>2021-04-01T09:13:13.399Z</time>
      </trkpt>
      <trkpt lat="43.1091541" lon="-2.7591085">
        <ele>148.786</ele>
        <time>2021-04-01T09:13:13.454Z</time>
      </trkpt>
      <trkpt lat="43.1091574" lon="-2.7591128">
        <ele>148.788</ele>
        <time>2021-04-01T09:13:13.509Z</time>
      </trkpt>
      <trkpt lat="43.1091605" lon="-2.7591173">
        <ele>148.79</ele>
        <time>2021-04-01T09:13:13.564Z</time>
      </trkpt>
      <trkpt lat="43.1091638" lon="-2.7591218">
        <ele>148.79</ele>
        <time>2021-04-01T09:13:13.619Z</time>
      </trkpt>
      <trkpt lat="43.1091671" lon="-2.7591261">
        <ele>148.808</ele>
        <time>2021-04-01T09:13:13.674Z</time>
      </trkpt>
      <trkpt lat="43.1091703" lon="-2.7591306">
        <ele>148.833</ele>
        <time>2021-04-01T09:13:13.729Z</time>
      </trkpt>
      <trkpt lat="43.1091735" lon="-2.7591351">
        <ele>148.84</ele>
        <time>2021-04-01T09:13:13.784Z</time>
      </trkpt>
      <trkpt lat="43.1091769" lon="-2.7591397">
        <ele>148.879</ele>
        <time>2021-04-01T09:13:13.839Z</time>
      </trkpt>
      <trkpt lat="43.1091804" lon="-2.7591443">
        <ele>148.919</ele>
        <time>2021-04-01T09:13:13.894Z</time>
      </trkpt>
      <trkpt lat="43.1091838" lon="-2.7591489">
        <ele>148.955</ele>
        <time>2021-04-01T09:13:13.949Z</time>
      </trkpt>
      <trkpt lat="43.1091867" lon="-2.7591532">
        <ele>148.939</ele>
        <time>2021-04-01T09:13:14.004Z</time>
      </trkpt>
      <trkpt lat="43.1091897" lon="-2.7591577">
        <ele>148.921</ele>
        <time>2021-04-01T09:13:14.059Z</time>
      </trkpt>
      <trkpt lat="43.1091927" lon="-2.7591621">
        <ele>148.905</ele>
        <time>2021-04-01T09:13:14.114Z</time>
      </trkpt>
      <trkpt lat="43.109196" lon="-2.7591669">
        <ele>148.951</ele>
        <time>2021-04-01T09:13:14.169Z</time>
      </trkpt>
      <trkpt lat="43.1091993" lon="-2.7591717">
        <ele>148.996</ele>
        <time>2021-04-01T09:13:14.224Z</time>
      </trkpt>
      <trkpt lat="43.1092024" lon="-2.7591762">
        <ele>148.985</ele>
        <time>2021-04-01T09:13:14.279Z</time>
      </trkpt>
      <trkpt lat="43.1092055" lon="-2.7591807">
        <ele>148.987</ele>
        <time>2021-04-01T09:13:14.334Z</time>
      </trkpt>
      <trkpt lat="43.1092088" lon="-2.7591851">
        <ele>148.996</ele>
        <time>2021-04-01T09:13:14.389Z</time>
      </trkpt>
      <trkpt lat="43.1092118" lon="-2.7591898">
        <ele>148.998</ele>
        <time>2021-04-01T09:13:14.444Z</time>
      </trkpt>
      <trkpt lat="43.1092149" lon="-2.7591944">
        <ele>149.017</ele>
        <time>2021-04-01T09:13:14.499Z</time>
      </trkpt>
      <trkpt lat="43.1092179" lon="-2.7591991">
        <ele>149.028</ele>
        <time>2021-04-01T09:13:14.554Z</time>
      </trkpt>
      <trkpt lat="43.1092207" lon="-2.7592038">
        <ele>149.014</ele>
        <time>2021-04-01T09:13:14.609Z</time>
      </trkpt>
      <trkpt lat="43.1092237" lon="-2.7592085">
        <ele>149.016</ele>
        <time>2021-04-01T09:13:14.664Z</time>
      </trkpt>
      <trkpt lat="43.1092267" lon="-2.7592133">
        <ele>149.039</ele>
        <time>2021-04-01T09:13:14.719Z</time>
      </trkpt>
      <trkpt lat="43.1092296" lon="-2.7592181">
        <ele>149.041</ele>
        <time>2021-04-01T09:13:14.777Z</time>
      </trkpt>
      <trkpt lat="43.1092327" lon="-2.759223">
        <ele>149.067</ele>
        <time>2021-04-01T09:13:14.835Z</time>
      </trkpt>
      <trkpt lat="43.1092356" lon="-2.7592282">
        <ele>149.102</ele>
        <time>2021-04-01T09:13:14.893Z</time>
      </trkpt>
      <trkpt lat="43.1092386" lon="-2.759233">
        <ele>149.108</ele>
        <time>2021-04-01T09:13:14.951Z</time>
      </trkpt>
      <trkpt lat="43.1092415" lon="-2.7592378">
        <ele>149.12</ele>
        <time>2021-04-01T09:13:15.009Z</time>
      </trkpt>
      <trkpt lat="43.1092444" lon="-2.7592425">
        <ele>149.126</ele>
        <time>2021-04-01T09:13:15.067Z</time>
      </trkpt>
      <trkpt lat="43.1092472" lon="-2.7592474">
        <ele>149.127</ele>
        <time>2021-04-01T09:13:15.125Z</time>
      </trkpt>
      <trkpt lat="43.1092501" lon="-2.7592522">
        <ele>149.134</ele>
        <time>2021-04-01T09:13:15.183Z</time>
      </trkpt>
      <trkpt lat="43.109253" lon="-2.7592569">
        <ele>149.13</ele>
        <time>2021-04-01T09:13:15.241Z</time>
      </trkpt>
      <trkpt lat="43.1092559" lon="-2.7592619">
        <ele>149.147</ele>
        <time>2021-04-01T09:13:15.299Z</time>
      </trkpt>
      <trkpt lat="43.1092588" lon="-2.7592665">
        <ele>149.137</ele>
        <time>2021-04-01T09:13:15.357Z</time>
      </trkpt>
      <trkpt lat="43.1092616" lon="-2.7592713">
        <ele>149.124</ele>
        <time>2021-04-01T09:13:15.415Z</time>
      </trkpt>
      <trkpt lat="43.1092645" lon="-2.7592759">
        <ele>149.125</ele>
        <time>2021-04-01T09:13:15.473Z</time>
      </trkpt>
      <trkpt lat="43.1092674" lon="-2.7592807">
        <ele>149.138</ele>
        <time>2021-04-01T09:13:15.531Z</time>
      </trkpt>
      <trkpt lat="43.1092703" lon="-2.7592854">
        <ele>149.136</ele>
        <time>2021-04-01T09:13:15.589Z</time>
      </trkpt>
      <trkpt lat="43.109273" lon="-2.75929">
        <ele>149.115</ele>
        <time>2021-04-01T09:13:15.647Z</time>
      </trkpt>
      <trkpt lat="43.1092759" lon="-2.7592947">
        <ele>149.108</ele>
        <time>2021-04-01T09:13:15.705Z</time>
      </trkpt>
      <trkpt lat="43.1092788" lon="-2.7592996">
        <ele>149.123</ele>
        <time>2021-04-01T09:13:15.764Z</time>
      </trkpt>
      <trkpt lat="43.1092816" lon="-2.7593044">
        <ele>149.134</ele>
        <time>2021-04-01T09:13:15.815Z</time>
      </trkpt>
      <trkpt lat="43.1092845" lon="-2.7593091">
        <ele>149.138</ele>
        <time>2021-04-01T09:13:15.867Z</time>
      </trkpt>
      <trkpt lat="43.1092873" lon="-2.759314">
        <ele>149.146</ele>
        <time>2021-04-01T09:13:15.919Z</time>
      </trkpt>
      <trkpt lat="43.1092901" lon="-2.7593189">
        <ele>149.15</ele>
        <time>2021-04-01T09:13:15.971Z</time>
      </trkpt>
      <trkpt lat="43.1092928" lon="-2.7593238">
        <ele>149.168</ele>
        <time>2021-04-01T09:13:16.023Z</time>
      </trkpt>
      <trkpt lat="43.1092958" lon="-2.7593284">
        <ele>149.165</ele>
        <time>2021-04-01T09:13:16.075Z</time>
      </trkpt>
      <trkpt lat="43.1092988" lon="-2.7593332">
        <ele>149.185</ele>
        <time>2021-04-01T09:13:16.127Z</time>
      </trkpt>
      <trkpt lat="43.1093016" lon="-2.7593381">
        <ele>149.195</ele>
        <time>2021-04-01T09:13:16.179Z</time>
      </trkpt>
      <trkpt lat="43.1093045" lon="-2.759343">
        <ele>149.224</ele>
        <time>2021-04-01T09:13:16.231Z</time>
      </trkpt>
      <trkpt lat="43.1093074" lon="-2.7593479">
        <ele>149.237</ele>
        <time>2021-04-01T09:13:16.283Z</time>
      </trkpt>
      <trkpt lat="43.1093103" lon="-2.7593527">
        <ele>149.237</ele>
        <time>2021-04-01T09:13:16.335Z</time>
      </trkpt>
      <trkpt lat="43.1093132" lon="-2.7593576">
        <ele>149.238</ele>
        <time>2021-04-01T09:13:16.387Z</time>
      </trkpt>
      <trkpt lat="43.109316" lon="-2.7593626">
        <ele>149.271</ele>
        <time>2021-04-01T09:13:16.439Z</time>
      </trkpt>
      <trkpt lat="43.1093188" lon="-2.7593678">
        <ele>149.308</ele>
        <time>2021-04-01T09:13:16.491Z</time>
      </trkpt>
      <trkpt lat="43.1093215" lon="-2.7593727">
        <ele>149.322</ele>
        <time>2021-04-01T09:13:16.543Z</time>
      </trkpt>
      <trkpt lat="43.1093242" lon="-2.7593776">
        <ele>149.324</ele>
        <time>2021-04-01T09:13:16.595Z</time>
      </trkpt>
      <trkpt lat="43.1093269" lon="-2.7593823">
        <ele>149.312</ele>
        <time>2021-04-01T09:13:16.647Z</time>
      </trkpt>
      <trkpt lat="43.10933" lon="-2.7593872">
        <ele>149.35</ele>
        <time>2021-04-01T09:13:16.699Z</time>
      </trkpt>
      <trkpt lat="43.1093327" lon="-2.759392">
        <ele>149.357</ele>
        <time>2021-04-01T09:13:16.754Z</time>
      </trkpt>
      <trkpt lat="43.1093356" lon="-2.7593969">
        <ele>149.372</ele>
        <time>2021-04-01T09:13:16.809Z</time>
      </trkpt>
      <trkpt lat="43.1093384" lon="-2.7594019">
        <ele>149.398</ele>
        <time>2021-04-01T09:13:16.864Z</time>
      </trkpt>
      <trkpt lat="43.109341" lon="-2.7594065">
        <ele>149.371</ele>
        <time>2021-04-01T09:13:16.919Z</time>
      </trkpt>
      <trkpt lat="43.1093439" lon="-2.7594113">
        <ele>149.395</ele>
        <time>2021-04-01T09:13:16.974Z</time>
      </trkpt>
      <trkpt lat="43.1093467" lon="-2.7594164">
        <ele>149.411</ele>
        <time>2021-04-01T09:13:17.029Z</time>
      </trkpt>
      <trkpt lat="43.1093495" lon="-2.7594214">
        <ele>149.446</ele>
        <time>2021-04-01T09:13:17.084Z</time>
      </trkpt>
      <trkpt lat="43.1093522" lon="-2.7594263">
        <ele>149.46</ele>
        <time>2021-04-01T09:13:17.139Z</time>
      </trkpt>
      <trkpt lat="43.1093551" lon="-2.7594311">
        <ele>149.483</ele>
        <time>2021-04-01T09:13:17.194Z</time>
      </trkpt>
      <trkpt lat="43.1093582" lon="-2.7594361">
        <ele>149.532</ele>
        <time>2021-04-01T09:13:17.249Z</time>
      </trkpt>
      <trkpt lat="43.1093609" lon="-2.759441">
        <ele>149.541</ele>
        <time>2021-04-01T09:13:17.304Z</time>
      </trkpt>
      <trkpt lat="43.1093637" lon="-2.7594459">
        <ele>149.572</ele>
        <time>2021-04-01T09:13:17.359Z</time>
      </trkpt>
      <trkpt lat="43.1093664" lon="-2.7594507">
        <ele>149.574</ele>
        <time>2021-04-01T09:13:17.414Z</time>
      </trkpt>
      <trkpt lat="43.109369" lon="-2.7594555">
        <ele>149.572</ele>
        <time>2021-04-01T09:13:17.469Z</time>
      </trkpt>
      <trkpt lat="43.1093718" lon="-2.7594604">
        <ele>149.573</ele>
        <time>2021-04-01T09:13:17.524Z</time>
      </trkpt>
      <trkpt lat="43.1093745" lon="-2.7594654">
        <ele>149.601</ele>
        <time>2021-04-01T09:13:17.579Z</time>
      </trkpt>
      <trkpt lat="43.1093772" lon="-2.7594703">
        <ele>149.613</ele>
        <time>2021-04-01T09:13:17.634Z</time>
      </trkpt>
      <trkpt lat="43.1093799" lon="-2.7594753">
        <ele>149.638</ele>
        <time>2021-04-01T09:13:17.689Z</time>
      </trkpt>
      <trkpt lat="43.1093827" lon="-2.7594801">
        <ele>149.652</ele>
        <time>2021-04-01T09:13:17.744Z</time>
      </trkpt>
      <trkpt lat="43.1093855" lon="-2.7594847">
        <ele>149.634</ele>
        <time>2021-04-01T09:13:17.799Z</time>
      </trkpt>
      <trkpt lat="43.1093882" lon="-2.7594896">
        <ele>149.632</ele>
        <time>2021-04-01T09:13:17.854Z</time>
      </trkpt>
      <trkpt lat="43.1093909" lon="-2.7594945">
        <ele>149.641</ele>
        <time>2021-04-01T09:13:17.909Z</time>
      </trkpt>
      <trkpt lat="43.1093935" lon="-2.7594993">
        <ele>149.646</ele>
        <time>2021-04-01T09:13:17.964Z</time>
      </trkpt>
      <trkpt lat="43.1093962" lon="-2.7595042">
        <ele>149.652</ele>
        <time>2021-04-01T09:13:18.019Z</time>
      </trkpt>
      <trkpt lat="43.1093992" lon="-2.7595091">
        <ele>149.689</ele>
        <time>2021-04-01T09:13:18.074Z</time>
      </trkpt>
      <trkpt lat="43.1094021" lon="-2.7595139">
        <ele>149.709</ele>
        <time>2021-04-01T09:13:18.129Z</time>
      </trkpt>
      <trkpt lat="43.1094049" lon="-2.7595187">
        <ele>149.73</ele>
        <time>2021-04-01T09:13:18.184Z</time>
      </trkpt>
      <trkpt lat="43.1094075" lon="-2.7595236">
        <ele>149.739</ele>
        <time>2021-04-01T09:13:18.239Z</time>
      </trkpt>
      <trkpt lat="43.1094103" lon="-2.7595285">
        <ele>149.76</ele>
        <time>2021-04-01T09:13:18.294Z</time>
      </trkpt>
      <trkpt lat="43.109413" lon="-2.7595332">
        <ele>149.757</ele>
        <time>2021-04-01T09:13:18.349Z</time>
      </trkpt>
      <trkpt lat="43.1094158" lon="-2.7595383">
        <ele>149.789</ele>
        <time>2021-04-01T09:13:18.404Z</time>
      </trkpt>
      <trkpt lat="43.1094184" lon="-2.7595433">
        <ele>149.776</ele>
        <time>2021-04-01T09:13:18.459Z</time>
      </trkpt>
      <trkpt lat="43.109421" lon="-2.7595481">
        <ele>149.787</ele>
        <time>2021-04-01T09:13:18.514Z</time>
      </trkpt>
      <trkpt lat="43.1094236" lon="-2.7595528">
        <ele>149.801</ele>
        <time>2021-04-01T09:13:18.569Z</time>
      </trkpt>
      <trkpt lat="43.1094263" lon="-2.7595577">
        <ele>149.811</ele>
        <time>2021-04-01T09:13:18.624Z</time>
      </trkpt>
      <trkpt lat="43.1094292" lon="-2.759563">
        <ele>149.872</ele>
        <time>2021-04-01T09:13:18.679Z</time>
      </trkpt>
      <trkpt lat="43.1094318" lon="-2.7595678">
        <ele>149.87</ele>
        <time>2021-04-01T09:13:18.734Z</time>
      </trkpt>
      <trkpt lat="43.1094342" lon="-2.7595726">
        <ele>149.852</ele>
        <time>2021-04-01T09:13:18.789Z</time>
      </trkpt>
      <trkpt lat="43.1094369" lon="-2.7595773">
        <ele>149.855</ele>
        <time>2021-04-01T09:13:18.844Z</time>
      </trkpt>
      <trkpt lat="43.1094393" lon="-2.7595821">
        <ele>149.837</ele>
        <time>2021-04-01T09:13:18.899Z</time>
      </trkpt>
      <trkpt lat="43.109442" lon="-2.7595869">
        <ele>149.854</ele>
        <time>2021-04-01T09:13:18.954Z</time>
      </trkpt>
      <trkpt lat="43.1094446" lon="-2.7595918">
        <ele>149.865</ele>
        <time>2021-04-01T09:13:19.009Z</time>
      </trkpt>
      <trkpt lat="43.1094471" lon="-2.7595969">
        <ele>149.872</ele>
        <time>2021-04-01T09:13:19.064Z</time>
      </trkpt>
      <trkpt lat="43.1094497" lon="-2.7596018">
        <ele>149.888</ele>
        <time>2021-04-01T09:13:19.119Z</time>
      </trkpt>
      <trkpt lat="43.1094526" lon="-2.7596068">
        <ele>149.912</ele>
        <time>2021-04-01T09:13:19.174Z</time>
      </trkpt>
      <trkpt lat="43.1094552" lon="-2.7596118">
        <ele>149.935</ele>
        <time>2021-04-01T09:13:19.229Z</time>
      </trkpt>
      <trkpt lat="43.1094579" lon="-2.7596166">
        <ele>149.959</ele>
        <time>2021-04-01T09:13:19.284Z</time>
      </trkpt>
      <trkpt lat="43.1094605" lon="-2.7596217">
        <ele>149.985</ele>
        <time>2021-04-01T09:13:19.339Z</time>
      </trkpt>
      <trkpt lat="43.109463" lon="-2.7596265">
        <ele>149.987</ele>
        <time>2021-04-01T09:13:19.394Z</time>
      </trkpt>
      <trkpt lat="43.1094655" lon="-2.7596314">
        <ele>149.973</ele>
        <time>2021-04-01T09:13:19.449Z</time>
      </trkpt>
      <trkpt lat="43.1094682" lon="-2.7596363">
        <ele>150.006</ele>
        <time>2021-04-01T09:13:19.504Z</time>
      </trkpt>
      <trkpt lat="43.1094707" lon="-2.7596411">
        <ele>150.011</ele>
        <time>2021-04-01T09:13:19.559Z</time>
      </trkpt>
      <trkpt lat="43.1094732" lon="-2.7596461">
        <ele>150.01</ele>
        <time>2021-04-01T09:13:19.614Z</time>
      </trkpt>
      <trkpt lat="43.1094756" lon="-2.7596508">
        <ele>150</ele>
        <time>2021-04-01T09:13:19.669Z</time>
      </trkpt>
      <trkpt lat="43.1094783" lon="-2.7596557">
        <ele>150.014</ele>
        <time>2021-04-01T09:13:19.724Z</time>
      </trkpt>
      <trkpt lat="43.1094808" lon="-2.7596606">
        <ele>150.028</ele>
        <time>2021-04-01T09:13:19.782Z</time>
      </trkpt>
      <trkpt lat="43.1094835" lon="-2.7596654">
        <ele>150.055</ele>
        <time>2021-04-01T09:13:19.840Z</time>
      </trkpt>
      <trkpt lat="43.1094861" lon="-2.7596703">
        <ele>150.082</ele>
        <time>2021-04-01T09:13:19.898Z</time>
      </trkpt>
      <trkpt lat="43.1094887" lon="-2.7596752">
        <ele>150.087</ele>
        <time>2021-04-01T09:13:19.956Z</time>
      </trkpt>
      <trkpt lat="43.1094914" lon="-2.7596801">
        <ele>150.103</ele>
        <time>2021-04-01T09:13:20.014Z</time>
      </trkpt>
      <trkpt lat="43.1094941" lon="-2.759685">
        <ele>150.13</ele>
        <time>2021-04-01T09:13:20.072Z</time>
      </trkpt>
      <trkpt lat="43.1094967" lon="-2.75969">
        <ele>150.146</ele>
        <time>2021-04-01T09:13:20.130Z</time>
      </trkpt>
      <trkpt lat="43.1094994" lon="-2.7596949">
        <ele>150.17</ele>
        <time>2021-04-01T09:13:20.188Z</time>
      </trkpt>
      <trkpt lat="43.1095021" lon="-2.7596997">
        <ele>150.202</ele>
        <time>2021-04-01T09:13:20.246Z</time>
      </trkpt>
      <trkpt lat="43.1095048" lon="-2.7597045">
        <ele>150.226</ele>
        <time>2021-04-01T09:13:20.304Z</time>
      </trkpt>
      <trkpt lat="43.1095075" lon="-2.7597097">
        <ele>150.261</ele>
        <time>2021-04-01T09:13:20.362Z</time>
      </trkpt>
      <trkpt lat="43.1095101" lon="-2.7597147">
        <ele>150.277</ele>
        <time>2021-04-01T09:13:20.420Z</time>
      </trkpt>
      <trkpt lat="43.1095127" lon="-2.7597194">
        <ele>150.276</ele>
        <time>2021-04-01T09:13:20.478Z</time>
      </trkpt>
      <trkpt lat="43.1095151" lon="-2.7597243">
        <ele>150.298</ele>
        <time>2021-04-01T09:13:20.536Z</time>
      </trkpt>
      <trkpt lat="43.1095178" lon="-2.7597291">
        <ele>150.31</ele>
        <time>2021-04-01T09:13:20.594Z</time>
      </trkpt>
      <trkpt lat="43.1095203" lon="-2.7597339">
        <ele>150.311</ele>
        <time>2021-04-01T09:13:20.652Z</time>
      </trkpt>
      <trkpt lat="43.1095229" lon="-2.7597386">
        <ele>150.304</ele>
        <time>2021-04-01T09:13:20.710Z</time>
      </trkpt>
      <trkpt lat="43.1095254" lon="-2.7597431">
        <ele>150.281</ele>
        <time>2021-04-01T09:13:20.769Z</time>
      </trkpt>
      <trkpt lat="43.1095278" lon="-2.7597477">
        <ele>150.253</ele>
        <time>2021-04-01T09:13:20.821Z</time>
      </trkpt>
      <trkpt lat="43.1095304" lon="-2.7597525">
        <ele>150.269</ele>
        <time>2021-04-01T09:13:20.873Z</time>
      </trkpt>
      <trkpt lat="43.1095329" lon="-2.7597574">
        <ele>150.273</ele>
        <time>2021-04-01T09:13:20.925Z</time>
      </trkpt>
      <trkpt lat="43.1095353" lon="-2.7597622">
        <ele>150.27</ele>
        <time>2021-04-01T09:13:20.977Z</time>
      </trkpt>
      <trkpt lat="43.1095377" lon="-2.759767">
        <ele>150.248</ele>
        <time>2021-04-01T09:13:21.029Z</time>
      </trkpt>
      <trkpt lat="43.1095403" lon="-2.7597715">
        <ele>150.245</ele>
        <time>2021-04-01T09:13:21.081Z</time>
      </trkpt>
      <trkpt lat="43.1095428" lon="-2.7597762">
        <ele>150.254</ele>
        <time>2021-04-01T09:13:21.133Z</time>
      </trkpt>
      <trkpt lat="43.1095455" lon="-2.759781">
        <ele>150.253</ele>
        <time>2021-04-01T09:13:21.185Z</time>
      </trkpt>
      <trkpt lat="43.1095481" lon="-2.7597858">
        <ele>150.256</ele>
        <time>2021-04-01T09:13:21.237Z</time>
      </trkpt>
      <trkpt lat="43.1095505" lon="-2.7597905">
        <ele>150.257</ele>
        <time>2021-04-01T09:13:21.290Z</time>
      </trkpt>
      <trkpt lat="43.1095532" lon="-2.7597953">
        <ele>150.27</ele>
        <time>2021-04-01T09:13:21.342Z</time>
      </trkpt>
      <trkpt lat="43.1095558" lon="-2.7598001">
        <ele>150.285</ele>
        <time>2021-04-01T09:13:21.394Z</time>
      </trkpt>
      <trkpt lat="43.1095585" lon="-2.7598049">
        <ele>150.309</ele>
        <time>2021-04-01T09:13:21.446Z</time>
      </trkpt>
      <trkpt lat="43.109561" lon="-2.7598099">
        <ele>150.32</ele>
        <time>2021-04-01T09:13:21.498Z</time>
      </trkpt>
      <trkpt lat="43.1095636" lon="-2.7598146">
        <ele>150.337</ele>
        <time>2021-04-01T09:13:21.550Z</time>
      </trkpt>
      <trkpt lat="43.1095661" lon="-2.7598194">
        <ele>150.342</ele>
        <time>2021-04-01T09:13:21.602Z</time>
      </trkpt>
      <trkpt lat="43.1095686" lon="-2.7598242">
        <ele>150.345</ele>
        <time>2021-04-01T09:13:21.654Z</time>
      </trkpt>
      <trkpt lat="43.1095713" lon="-2.7598288">
        <ele>150.353</ele>
        <time>2021-04-01T09:13:21.706Z</time>
      </trkpt>
      <trkpt lat="43.1095737" lon="-2.7598335">
        <ele>150.358</ele>
        <time>2021-04-01T09:13:21.759Z</time>
      </trkpt>
      <trkpt lat="43.1095761" lon="-2.7598385">
        <ele>150.367</ele>
        <time>2021-04-01T09:13:21.814Z</time>
      </trkpt>
      <trkpt lat="43.1095788" lon="-2.7598435">
        <ele>150.383</ele>
        <time>2021-04-01T09:13:21.869Z</time>
      </trkpt>
      <trkpt lat="43.1095813" lon="-2.7598484">
        <ele>150.384</ele>
        <time>2021-04-01T09:13:21.924Z</time>
      </trkpt>
      <trkpt lat="43.1095838" lon="-2.7598532">
        <ele>150.387</ele>
        <time>2021-04-01T09:13:21.979Z</time>
      </trkpt>
      <trkpt lat="43.1095862" lon="-2.7598581">
        <ele>150.403</ele>
        <time>2021-04-01T09:13:22.034Z</time>
      </trkpt>
      <trkpt lat="43.1095888" lon="-2.759863">
        <ele>150.42</ele>
        <time>2021-04-01T09:13:22.089Z</time>
      </trkpt>
      <trkpt lat="43.1095914" lon="-2.7598677">
        <ele>150.418</ele>
        <time>2021-04-01T09:13:22.144Z</time>
      </trkpt>
      <trkpt lat="43.1095939" lon="-2.7598728">
        <ele>150.446</ele>
        <time>2021-04-01T09:13:22.199Z</time>
      </trkpt>
      <trkpt lat="43.1095964" lon="-2.7598777">
        <ele>150.459</ele>
        <time>2021-04-01T09:13:22.254Z</time>
      </trkpt>
      <trkpt lat="43.1095988" lon="-2.7598826">
        <ele>150.462</ele>
        <time>2021-04-01T09:13:22.309Z</time>
      </trkpt>
      <trkpt lat="43.1096014" lon="-2.7598873">
        <ele>150.464</ele>
        <time>2021-04-01T09:13:22.364Z</time>
      </trkpt>
      <trkpt lat="43.1096041" lon="-2.7598919">
        <ele>150.474</ele>
        <time>2021-04-01T09:13:22.419Z</time>
      </trkpt>
      <trkpt lat="43.1096065" lon="-2.7598968">
        <ele>150.462</ele>
        <time>2021-04-01T09:13:22.474Z</time>
      </trkpt>
      <trkpt lat="43.109609" lon="-2.7599016">
        <ele>150.461</ele>
        <time>2021-04-01T09:13:22.529Z</time>
      </trkpt>
      <trkpt lat="43.1096114" lon="-2.7599065">
        <ele>150.469</ele>
        <time>2021-04-01T09:13:22.584Z</time>
      </trkpt>
      <trkpt lat="43.1096139" lon="-2.7599112">
        <ele>150.456</ele>
        <time>2021-04-01T09:13:22.639Z</time>
      </trkpt>
      <trkpt lat="43.1096163" lon="-2.7599158">
        <ele>150.429</ele>
        <time>2021-04-01T09:13:22.694Z</time>
      </trkpt>
      <trkpt lat="43.1096186" lon="-2.7599206">
        <ele>150.405</ele>
        <time>2021-04-01T09:13:22.749Z</time>
      </trkpt>
      <trkpt lat="43.109621" lon="-2.7599254">
        <ele>150.404</ele>
        <time>2021-04-01T09:13:22.804Z</time>
      </trkpt>
      <trkpt lat="43.1096234" lon="-2.7599301">
        <ele>150.393</ele>
        <time>2021-04-01T09:13:22.859Z</time>
      </trkpt>
      <trkpt lat="43.1096261" lon="-2.7599349">
        <ele>150.403</ele>
        <time>2021-04-01T09:13:22.914Z</time>
      </trkpt>
      <trkpt lat="43.1096288" lon="-2.7599395">
        <ele>150.398</ele>
        <time>2021-04-01T09:13:22.969Z</time>
      </trkpt>
      <trkpt lat="43.1096311" lon="-2.7599442">
        <ele>150.386</ele>
        <time>2021-04-01T09:13:23.024Z</time>
      </trkpt>
      <trkpt lat="43.1096335" lon="-2.7599487">
        <ele>150.357</ele>
        <time>2021-04-01T09:13:23.079Z</time>
      </trkpt>
      <trkpt lat="43.1096359" lon="-2.7599536">
        <ele>150.347</ele>
        <time>2021-04-01T09:13:23.134Z</time>
      </trkpt>
      <trkpt lat="43.1096386" lon="-2.7599584">
        <ele>150.372</ele>
        <time>2021-04-01T09:13:23.189Z</time>
      </trkpt>
      <trkpt lat="43.1096412" lon="-2.7599631">
        <ele>150.385</ele>
        <time>2021-04-01T09:13:23.244Z</time>
      </trkpt>
      <trkpt lat="43.1096437" lon="-2.7599678">
        <ele>150.378</ele>
        <time>2021-04-01T09:13:23.299Z</time>
      </trkpt>
      <trkpt lat="43.109646" lon="-2.7599724">
        <ele>150.34</ele>
        <time>2021-04-01T09:13:23.354Z</time>
      </trkpt>
      <trkpt lat="43.1096486" lon="-2.7599772">
        <ele>150.367</ele>
        <time>2021-04-01T09:13:23.409Z</time>
      </trkpt>
      <trkpt lat="43.1096513" lon="-2.759982">
        <ele>150.382</ele>
        <time>2021-04-01T09:13:23.464Z</time>
      </trkpt>
      <trkpt lat="43.1096539" lon="-2.7599868">
        <ele>150.394</ele>
        <time>2021-04-01T09:13:23.519Z</time>
      </trkpt>
      <trkpt lat="43.1096563" lon="-2.7599916">
        <ele>150.395</ele>
        <time>2021-04-01T09:13:23.574Z</time>
      </trkpt>
      <trkpt lat="43.1096588" lon="-2.7599964">
        <ele>150.389</ele>
        <time>2021-04-01T09:13:23.629Z</time>
      </trkpt>
      <trkpt lat="43.1096612" lon="-2.7600009">
        <ele>150.396</ele>
        <time>2021-04-01T09:13:23.684Z</time>
      </trkpt>
      <trkpt lat="43.1096637" lon="-2.7600056">
        <ele>150.393</ele>
        <time>2021-04-01T09:13:23.739Z</time>
      </trkpt>
      <trkpt lat="43.1096661" lon="-2.7600105">
        <ele>150.375</ele>
        <time>2021-04-01T09:13:23.794Z</time>
      </trkpt>
      <trkpt lat="43.1096684" lon="-2.7600152">
        <ele>150.359</ele>
        <time>2021-04-01T09:13:23.849Z</time>
      </trkpt>
      <trkpt lat="43.109671" lon="-2.76002">
        <ele>150.373</ele>
        <time>2021-04-01T09:13:23.904Z</time>
      </trkpt>
      <trkpt lat="43.1096734" lon="-2.7600247">
        <ele>150.37</ele>
        <time>2021-04-01T09:13:23.959Z</time>
      </trkpt>
      <trkpt lat="43.1096756" lon="-2.7600294">
        <ele>150.339</ele>
        <time>2021-04-01T09:13:24.014Z</time>
      </trkpt>
      <trkpt lat="43.1096781" lon="-2.7600343">
        <ele>150.359</ele>
        <time>2021-04-01T09:13:24.069Z</time>
      </trkpt>
      <trkpt lat="43.1096806" lon="-2.7600393">
        <ele>150.38</ele>
        <time>2021-04-01T09:13:24.124Z</time>
      </trkpt>
      <trkpt lat="43.1096831" lon="-2.7600441">
        <ele>150.392</ele>
        <time>2021-04-01T09:13:24.179Z</time>
      </trkpt>
      <trkpt lat="43.1096856" lon="-2.7600489">
        <ele>150.401</ele>
        <time>2021-04-01T09:13:24.234Z</time>
      </trkpt>
      <trkpt lat="43.109688" lon="-2.7600535">
        <ele>150.378</ele>
        <time>2021-04-01T09:13:24.289Z</time>
      </trkpt>
      <trkpt lat="43.1096905" lon="-2.7600583">
        <ele>150.393</ele>
        <time>2021-04-01T09:13:24.344Z</time>
      </trkpt>
      <trkpt lat="43.1096928" lon="-2.760063">
        <ele>150.375</ele>
        <time>2021-04-01T09:13:24.399Z</time>
      </trkpt>
      <trkpt lat="43.1096954" lon="-2.7600678">
        <ele>150.392</ele>
        <time>2021-04-01T09:13:24.454Z</time>
      </trkpt>
      <trkpt lat="43.1096979" lon="-2.7600726">
        <ele>150.388</ele>
        <time>2021-04-01T09:13:24.509Z</time>
      </trkpt>
      <trkpt lat="43.1097002" lon="-2.7600772">
        <ele>150.364</ele>
        <time>2021-04-01T09:13:24.564Z</time>
      </trkpt>
      <trkpt lat="43.1097026" lon="-2.7600819">
        <ele>150.354</ele>
        <time>2021-04-01T09:13:24.619Z</time>
      </trkpt>
      <trkpt lat="43.109705" lon="-2.7600865">
        <ele>150.337</ele>
        <time>2021-04-01T09:13:24.674Z</time>
      </trkpt>
      <trkpt lat="43.1097075" lon="-2.7600913">
        <ele>150.353</ele>
        <time>2021-04-01T09:13:24.729Z</time>
      </trkpt>
      <trkpt lat="43.10971" lon="-2.760096">
        <ele>150.364</ele>
        <time>2021-04-01T09:13:24.784Z</time>
      </trkpt>
      <trkpt lat="43.1097125" lon="-2.7601009">
        <ele>150.366</ele>
        <time>2021-04-01T09:13:24.839Z</time>
      </trkpt>
      <trkpt lat="43.1097148" lon="-2.7601058">
        <ele>150.366</ele>
        <time>2021-04-01T09:13:24.894Z</time>
      </trkpt>
      <trkpt lat="43.1097176" lon="-2.7601103">
        <ele>150.388</ele>
        <time>2021-04-01T09:13:24.949Z</time>
      </trkpt>
      <trkpt lat="43.1097199" lon="-2.7601147">
        <ele>150.354</ele>
        <time>2021-04-01T09:13:25.004Z</time>
      </trkpt>
      <trkpt lat="43.1097224" lon="-2.7601194">
        <ele>150.344</ele>
        <time>2021-04-01T09:13:25.059Z</time>
      </trkpt>
      <trkpt lat="43.109725" lon="-2.760124">
        <ele>150.349</ele>
        <time>2021-04-01T09:13:25.114Z</time>
      </trkpt>
      <trkpt lat="43.1097274" lon="-2.7601288">
        <ele>150.34</ele>
        <time>2021-04-01T09:13:25.169Z</time>
      </trkpt>
      <trkpt lat="43.1097298" lon="-2.7601335">
        <ele>150.325</ele>
        <time>2021-04-01T09:13:25.224Z</time>
      </trkpt>
      <trkpt lat="43.1097325" lon="-2.7601382">
        <ele>150.343</ele>
        <time>2021-04-01T09:13:25.279Z</time>
      </trkpt>
      <trkpt lat="43.1097352" lon="-2.7601431">
        <ele>150.366</ele>
        <time>2021-04-01T09:13:25.334Z</time>
      </trkpt>
      <trkpt lat="43.1097376" lon="-2.7601477">
        <ele>150.342</ele>
        <time>2021-04-01T09:13:25.389Z</time>
      </trkpt>
      <trkpt lat="43.10974" lon="-2.7601525">
        <ele>150.313</ele>
        <time>2021-04-01T09:13:25.444Z</time>
      </trkpt>
      <trkpt lat="43.1097427" lon="-2.7601572">
        <ele>150.333</ele>
        <time>2021-04-01T09:13:25.499Z</time>
      </trkpt>
      <trkpt lat="43.1097454" lon="-2.7601619">
        <ele>150.377</ele>
        <time>2021-04-01T09:13:25.554Z</time>
      </trkpt>
      <trkpt lat="43.1097481" lon="-2.7601667">
        <ele>150.401</ele>
        <time>2021-04-01T09:13:25.609Z</time>
      </trkpt>
      <trkpt lat="43.1097508" lon="-2.7601713">
        <ele>150.401</ele>
        <time>2021-04-01T09:13:25.664Z</time>
      </trkpt>
      <trkpt lat="43.1097534" lon="-2.7601758">
        <ele>150.405</ele>
        <time>2021-04-01T09:13:25.719Z</time>
      </trkpt>
      <trkpt lat="43.109756" lon="-2.7601805">
        <ele>150.421</ele>
        <time>2021-04-01T09:13:25.774Z</time>
      </trkpt>
      <trkpt lat="43.1097585" lon="-2.7601852">
        <ele>150.42</ele>
        <time>2021-04-01T09:13:25.829Z</time>
      </trkpt>
      <trkpt lat="43.1097612" lon="-2.7601898">
        <ele>150.437</ele>
        <time>2021-04-01T09:13:25.884Z</time>
      </trkpt>
      <trkpt lat="43.109764" lon="-2.7601945">
        <ele>150.453</ele>
        <time>2021-04-01T09:13:25.939Z</time>
      </trkpt>
      <trkpt lat="43.1097665" lon="-2.760199">
        <ele>150.432</ele>
        <time>2021-04-01T09:13:25.994Z</time>
      </trkpt>
      <trkpt lat="43.1097689" lon="-2.7602038">
        <ele>150.452</ele>
        <time>2021-04-01T09:13:26.049Z</time>
      </trkpt>
      <trkpt lat="43.1097715" lon="-2.7602087">
        <ele>150.467</ele>
        <time>2021-04-01T09:13:26.104Z</time>
      </trkpt>
      <trkpt lat="43.1097743" lon="-2.7602133">
        <ele>150.488</ele>
        <time>2021-04-01T09:13:26.159Z</time>
      </trkpt>
      <trkpt lat="43.109777" lon="-2.7602181">
        <ele>150.508</ele>
        <time>2021-04-01T09:13:26.214Z</time>
      </trkpt>
      <trkpt lat="43.1097793" lon="-2.7602226">
        <ele>150.489</ele>
        <time>2021-04-01T09:13:26.269Z</time>
      </trkpt>
      <trkpt lat="43.1097817" lon="-2.760227">
        <ele>150.457</ele>
        <time>2021-04-01T09:13:26.324Z</time>
      </trkpt>
      <trkpt lat="43.1097839" lon="-2.7602316">
        <ele>150.414</ele>
        <time>2021-04-01T09:13:26.379Z</time>
      </trkpt>
      <trkpt lat="43.1097865" lon="-2.7602364">
        <ele>150.427</ele>
        <time>2021-04-01T09:13:26.434Z</time>
      </trkpt>
      <trkpt lat="43.1097891" lon="-2.760241">
        <ele>150.436</ele>
        <time>2021-04-01T09:13:26.489Z</time>
      </trkpt>
      <trkpt lat="43.1097916" lon="-2.7602455">
        <ele>150.427</ele>
        <time>2021-04-01T09:13:26.544Z</time>
      </trkpt>
      <trkpt lat="43.1097942" lon="-2.7602501">
        <ele>150.427</ele>
        <time>2021-04-01T09:13:26.599Z</time>
      </trkpt>
      <trkpt lat="43.1097968" lon="-2.760255">
        <ele>150.442</ele>
        <time>2021-04-01T09:13:26.654Z</time>
      </trkpt>
      <trkpt lat="43.1097994" lon="-2.7602597">
        <ele>150.441</ele>
        <time>2021-04-01T09:13:26.709Z</time>
      </trkpt>
      <trkpt lat="43.1098019" lon="-2.7602642">
        <ele>150.427</ele>
        <time>2021-04-01T09:13:26.764Z</time>
      </trkpt>
      <trkpt lat="43.1098044" lon="-2.760269">
        <ele>150.429</ele>
        <time>2021-04-01T09:13:26.815Z</time>
      </trkpt>
      <trkpt lat="43.1098068" lon="-2.7602737">
        <ele>150.423</ele>
        <time>2021-04-01T09:13:26.867Z</time>
      </trkpt>
      <trkpt lat="43.1098092" lon="-2.7602784">
        <ele>150.415</ele>
        <time>2021-04-01T09:13:26.919Z</time>
      </trkpt>
      <trkpt lat="43.1098116" lon="-2.7602828">
        <ele>150.381</ele>
        <time>2021-04-01T09:13:26.971Z</time>
      </trkpt>
      <trkpt lat="43.1098142" lon="-2.7602875">
        <ele>150.382</ele>
        <time>2021-04-01T09:13:27.023Z</time>
      </trkpt>
      <trkpt lat="43.1098168" lon="-2.7602923">
        <ele>150.383</ele>
        <time>2021-04-01T09:13:27.075Z</time>
      </trkpt>
      <trkpt lat="43.1098193" lon="-2.760297">
        <ele>150.379</ele>
        <time>2021-04-01T09:13:27.127Z</time>
      </trkpt>
      <trkpt lat="43.1098218" lon="-2.7603016">
        <ele>150.38</ele>
        <time>2021-04-01T09:13:27.179Z</time>
      </trkpt>
      <trkpt lat="43.1098244" lon="-2.7603063">
        <ele>150.377</ele>
        <time>2021-04-01T09:13:27.231Z</time>
      </trkpt>
      <trkpt lat="43.1098269" lon="-2.7603108">
        <ele>150.365</ele>
        <time>2021-04-01T09:13:27.283Z</time>
      </trkpt>
      <trkpt lat="43.1098294" lon="-2.7603156">
        <ele>150.374</ele>
        <time>2021-04-01T09:13:27.335Z</time>
      </trkpt>
      <trkpt lat="43.109832" lon="-2.7603203">
        <ele>150.367</ele>
        <time>2021-04-01T09:13:27.387Z</time>
      </trkpt>
      <trkpt lat="43.1098346" lon="-2.760325">
        <ele>150.369</ele>
        <time>2021-04-01T09:13:27.439Z</time>
      </trkpt>
      <trkpt lat="43.1098373" lon="-2.7603299">
        <ele>150.397</ele>
        <time>2021-04-01T09:13:27.491Z</time>
      </trkpt>
      <trkpt lat="43.1098399" lon="-2.7603346">
        <ele>150.403</ele>
        <time>2021-04-01T09:13:27.543Z</time>
      </trkpt>
      <trkpt lat="43.1098424" lon="-2.7603392">
        <ele>150.411</ele>
        <time>2021-04-01T09:13:27.595Z</time>
      </trkpt>
      <trkpt lat="43.1098448" lon="-2.7603438">
        <ele>150.387</ele>
        <time>2021-04-01T09:13:27.647Z</time>
      </trkpt>
      <trkpt lat="43.1098475" lon="-2.7603485">
        <ele>150.389</ele>
        <time>2021-04-01T09:13:27.699Z</time>
      </trkpt>
      <trkpt lat="43.1098501" lon="-2.7603531">
        <ele>150.38</ele>
        <time>2021-04-01T09:13:27.757Z</time>
      </trkpt>
      <trkpt lat="43.1098528" lon="-2.7603577">
        <ele>150.383</ele>
        <time>2021-04-01T09:13:27.815Z</time>
      </trkpt>
      <trkpt lat="43.1098553" lon="-2.7603623">
        <ele>150.386</ele>
        <time>2021-04-01T09:13:27.873Z</time>
      </trkpt>
      <trkpt lat="43.1098578" lon="-2.760367">
        <ele>150.382</ele>
        <time>2021-04-01T09:13:27.931Z</time>
      </trkpt>
      <trkpt lat="43.1098604" lon="-2.7603717">
        <ele>150.381</ele>
        <time>2021-04-01T09:13:27.989Z</time>
      </trkpt>
      <trkpt lat="43.109863" lon="-2.7603765">
        <ele>150.392</ele>
        <time>2021-04-01T09:13:28.047Z</time>
      </trkpt>
      <trkpt lat="43.1098656" lon="-2.7603812">
        <ele>150.391</ele>
        <time>2021-04-01T09:13:28.105Z</time>
      </trkpt>
      <trkpt lat="43.1098685" lon="-2.7603859">
        <ele>150.432</ele>
        <time>2021-04-01T09:13:28.163Z</time>
      </trkpt>
      <trkpt lat="43.1098711" lon="-2.7603904">
        <ele>150.429</ele>
        <time>2021-04-01T09:13:28.221Z</time>
      </trkpt>
      <trkpt lat="43.1098735" lon="-2.7603951">
        <ele>150.427</ele>
        <time>2021-04-01T09:13:28.279Z</time>
      </trkpt>
      <trkpt lat="43.109876" lon="-2.7603997">
        <ele>150.418</ele>
        <time>2021-04-01T09:13:28.337Z</time>
      </trkpt>
      <trkpt lat="43.1098785" lon="-2.7604042">
        <ele>150.398</ele>
        <time>2021-04-01T09:13:28.395Z</time>
      </trkpt>
      <trkpt lat="43.109881" lon="-2.7604088">
        <ele>150.392</ele>
        <time>2021-04-01T09:13:28.453Z</time>
      </trkpt>
      <trkpt lat="43.1098834" lon="-2.7604134">
        <ele>150.377</ele>
        <time>2021-04-01T09:13:28.511Z</time>
      </trkpt>
      <trkpt lat="43.109886" lon="-2.7604182">
        <ele>150.388</ele>
        <time>2021-04-01T09:13:28.569Z</time>
      </trkpt>
      <trkpt lat="43.1098885" lon="-2.7604228">
        <ele>150.387</ele>
        <time>2021-04-01T09:13:28.627Z</time>
      </trkpt>
      <trkpt lat="43.1098909" lon="-2.7604277">
        <ele>150.387</ele>
        <time>2021-04-01T09:13:28.685Z</time>
      </trkpt>
      <trkpt lat="43.1098936" lon="-2.7604324">
        <ele>150.4</ele>
        <time>2021-04-01T09:13:28.744Z</time>
      </trkpt>
      <trkpt lat="43.1098962" lon="-2.7604371">
        <ele>150.416</ele>
        <time>2021-04-01T09:13:28.802Z</time>
      </trkpt>
      <trkpt lat="43.1098986" lon="-2.7604419">
        <ele>150.403</ele>
        <time>2021-04-01T09:13:28.860Z</time>
      </trkpt>
      <trkpt lat="43.1099012" lon="-2.7604466">
        <ele>150.41</ele>
        <time>2021-04-01T09:13:28.918Z</time>
      </trkpt>
      <trkpt lat="43.1099038" lon="-2.7604511">
        <ele>150.418</ele>
        <time>2021-04-01T09:13:28.976Z</time>
      </trkpt>
      <trkpt lat="43.1099064" lon="-2.7604559">
        <ele>150.428</ele>
        <time>2021-04-01T09:13:29.034Z</time>
      </trkpt>
      <trkpt lat="43.1099091" lon="-2.7604606">
        <ele>150.447</ele>
        <time>2021-04-01T09:13:29.092Z</time>
      </trkpt>
      <trkpt lat="43.1099114" lon="-2.7604654">
        <ele>150.423</ele>
        <time>2021-04-01T09:13:29.150Z</time>
      </trkpt>
      <trkpt lat="43.109914" lon="-2.7604701">
        <ele>150.431</ele>
        <time>2021-04-01T09:13:29.208Z</time>
      </trkpt>
      <trkpt lat="43.1099166" lon="-2.7604749">
        <ele>150.439</ele>
        <time>2021-04-01T09:13:29.266Z</time>
      </trkpt>
      <trkpt lat="43.1099192" lon="-2.7604796">
        <ele>150.447</ele>
        <time>2021-04-01T09:13:29.324Z</time>
      </trkpt>
      <trkpt lat="43.1099216" lon="-2.7604844">
        <ele>150.456</ele>
        <time>2021-04-01T09:13:29.382Z</time>
      </trkpt>
      <trkpt lat="43.1099241" lon="-2.7604891">
        <ele>150.459</ele>
        <time>2021-04-01T09:13:29.440Z</time>
      </trkpt>
      <trkpt lat="43.1099266" lon="-2.7604938">
        <ele>150.451</ele>
        <time>2021-04-01T09:13:29.498Z</time>
      </trkpt>
      <trkpt lat="43.109929" lon="-2.7604985">
        <ele>150.442</ele>
        <time>2021-04-01T09:13:29.556Z</time>
      </trkpt>
      <trkpt lat="43.1099316" lon="-2.7605031">
        <ele>150.435</ele>
        <time>2021-04-01T09:13:29.614Z</time>
      </trkpt>
      <trkpt lat="43.1099338" lon="-2.7605079">
        <ele>150.414</ele>
        <time>2021-04-01T09:13:29.672Z</time>
      </trkpt>
      <trkpt lat="43.1099365" lon="-2.7605126">
        <ele>150.446</ele>
        <time>2021-04-01T09:13:29.730Z</time>
      </trkpt>
      <trkpt lat="43.1099392" lon="-2.7605175">
        <ele>150.482</ele>
        <time>2021-04-01T09:13:29.789Z</time>
      </trkpt>
      <trkpt lat="43.1099415" lon="-2.7605222">
        <ele>150.458</ele>
        <time>2021-04-01T09:13:29.840Z</time>
      </trkpt>
      <trkpt lat="43.109944" lon="-2.760527">
        <ele>150.461</ele>
        <time>2021-04-01T09:13:29.892Z</time>
      </trkpt>
      <trkpt lat="43.1099465" lon="-2.7605318">
        <ele>150.479</ele>
        <time>2021-04-01T09:13:29.944Z</time>
      </trkpt>
      <trkpt lat="43.1099492" lon="-2.7605366">
        <ele>150.494</ele>
        <time>2021-04-01T09:13:29.996Z</time>
      </trkpt>
      <trkpt lat="43.1099518" lon="-2.7605413">
        <ele>150.525</ele>
        <time>2021-04-01T09:13:30.048Z</time>
      </trkpt>
      <trkpt lat="43.1099541" lon="-2.7605462">
        <ele>150.505</ele>
        <time>2021-04-01T09:13:30.100Z</time>
      </trkpt>
      <trkpt lat="43.1099566" lon="-2.760551">
        <ele>150.51</ele>
        <time>2021-04-01T09:13:30.152Z</time>
      </trkpt>
      <trkpt lat="43.1099591" lon="-2.7605557">
        <ele>150.536</ele>
        <time>2021-04-01T09:13:30.204Z</time>
      </trkpt>
      <trkpt lat="43.1099617" lon="-2.7605606">
        <ele>150.566</ele>
        <time>2021-04-01T09:13:30.256Z</time>
      </trkpt>
      <trkpt lat="43.1099642" lon="-2.7605655">
        <ele>150.56</ele>
        <time>2021-04-01T09:13:30.308Z</time>
      </trkpt>
      <trkpt lat="43.109967" lon="-2.7605702">
        <ele>150.566</ele>
        <time>2021-04-01T09:13:30.360Z</time>
      </trkpt>
      <trkpt lat="43.1099697" lon="-2.7605748">
        <ele>150.595</ele>
        <time>2021-04-01T09:13:30.412Z</time>
      </trkpt>
      <trkpt lat="43.1099722" lon="-2.7605795">
        <ele>150.611</ele>
        <time>2021-04-01T09:13:30.464Z</time>
      </trkpt>
      <trkpt lat="43.1099748" lon="-2.7605844">
        <ele>150.622</ele>
        <time>2021-04-01T09:13:30.516Z</time>
      </trkpt>
      <trkpt lat="43.1099774" lon="-2.7605892">
        <ele>150.63</ele>
        <time>2021-04-01T09:13:30.568Z</time>
      </trkpt>
      <trkpt lat="43.10998" lon="-2.760594">
        <ele>150.636</ele>
        <time>2021-04-01T09:13:30.620Z</time>
      </trkpt>
      <trkpt lat="43.1099826" lon="-2.7605988">
        <ele>150.653</ele>
        <time>2021-04-01T09:13:30.672Z</time>
      </trkpt>
      <trkpt lat="43.1099852" lon="-2.7606036">
        <ele>150.659</ele>
        <time>2021-04-01T09:13:30.724Z</time>
      </trkpt>
      <trkpt lat="43.1099878" lon="-2.7606083">
        <ele>150.688</ele>
        <time>2021-04-01T09:13:30.779Z</time>
      </trkpt>
      <trkpt lat="43.1099904" lon="-2.7606131">
        <ele>150.693</ele>
        <time>2021-04-01T09:13:30.834Z</time>
      </trkpt>
      <trkpt lat="43.1099929" lon="-2.7606176">
        <ele>150.672</ele>
        <time>2021-04-01T09:13:30.889Z</time>
      </trkpt>
      <trkpt lat="43.1099956" lon="-2.7606221">
        <ele>150.655</ele>
        <time>2021-04-01T09:13:30.944Z</time>
      </trkpt>
      <trkpt lat="43.1099983" lon="-2.7606268">
        <ele>150.679</ele>
        <time>2021-04-01T09:13:30.999Z</time>
      </trkpt>
      <trkpt lat="43.110001" lon="-2.7606314">
        <ele>150.709</ele>
        <time>2021-04-01T09:13:31.054Z</time>
      </trkpt>
      <trkpt lat="43.1100037" lon="-2.760636">
        <ele>150.719</ele>
        <time>2021-04-01T09:13:31.109Z</time>
      </trkpt>
      <trkpt lat="43.1100063" lon="-2.7606408">
        <ele>150.726</ele>
        <time>2021-04-01T09:13:31.164Z</time>
      </trkpt>
      <trkpt lat="43.110009" lon="-2.7606453">
        <ele>150.731</ele>
        <time>2021-04-01T09:13:31.219Z</time>
      </trkpt>
      <trkpt lat="43.1100117" lon="-2.7606497">
        <ele>150.721</ele>
        <time>2021-04-01T09:13:31.274Z</time>
      </trkpt>
      <trkpt lat="43.1100142" lon="-2.7606542">
        <ele>150.684</ele>
        <time>2021-04-01T09:13:31.329Z</time>
      </trkpt>
      <trkpt lat="43.1100167" lon="-2.7606588">
        <ele>150.736</ele>
        <time>2021-04-01T09:13:31.384Z</time>
      </trkpt>
      <trkpt lat="43.1100195" lon="-2.7606635">
        <ele>150.791</ele>
        <time>2021-04-01T09:13:31.439Z</time>
      </trkpt>
      <trkpt lat="43.1100221" lon="-2.7606684">
        <ele>150.881</ele>
        <time>2021-04-01T09:13:31.494Z</time>
      </trkpt>
      <trkpt lat="43.1100247" lon="-2.7606729">
        <ele>150.924</ele>
        <time>2021-04-01T09:13:31.549Z</time>
      </trkpt>
      <trkpt lat="43.1100272" lon="-2.7606775">
        <ele>150.921</ele>
        <time>2021-04-01T09:13:31.604Z</time>
      </trkpt>
      <trkpt lat="43.1100298" lon="-2.760682">
        <ele>150.956</ele>
        <time>2021-04-01T09:13:31.659Z</time>
      </trkpt>
      <trkpt lat="43.1100325" lon="-2.7606865">
        <ele>150.992</ele>
        <time>2021-04-01T09:13:31.714Z</time>
      </trkpt>
      <trkpt lat="43.1100349" lon="-2.760691">
        <ele>150.96</ele>
        <time>2021-04-01T09:13:31.769Z</time>
      </trkpt>
      <trkpt lat="43.1100374" lon="-2.7606957">
        <ele>150.953</ele>
        <time>2021-04-01T09:13:31.824Z</time>
      </trkpt>
      <trkpt lat="43.1100401" lon="-2.7607003">
        <ele>150.948</ele>
        <time>2021-04-01T09:13:31.879Z</time>
      </trkpt>
      <trkpt lat="43.110043" lon="-2.7607047">
        <ele>150.953</ele>
        <time>2021-04-01T09:13:31.934Z</time>
      </trkpt>
      <trkpt lat="43.1100456" lon="-2.7607092">
        <ele>150.955</ele>
        <time>2021-04-01T09:13:31.989Z</time>
      </trkpt>
      <trkpt lat="43.1100482" lon="-2.7607137">
        <ele>150.965</ele>
        <time>2021-04-01T09:13:32.044Z</time>
      </trkpt>
      <trkpt lat="43.1100509" lon="-2.7607182">
        <ele>150.991</ele>
        <time>2021-04-01T09:13:32.099Z</time>
      </trkpt>
      <trkpt lat="43.1100537" lon="-2.7607231">
        <ele>150.976</ele>
        <time>2021-04-01T09:13:32.154Z</time>
      </trkpt>
      <trkpt lat="43.1100564" lon="-2.7607278">
        <ele>150.984</ele>
        <time>2021-04-01T09:13:32.209Z</time>
      </trkpt>
      <trkpt lat="43.110059" lon="-2.7607324">
        <ele>150.989</ele>
        <time>2021-04-01T09:13:32.264Z</time>
      </trkpt>
      <trkpt lat="43.1100616" lon="-2.7607371">
        <ele>150.994</ele>
        <time>2021-04-01T09:13:32.319Z</time>
      </trkpt>
      <trkpt lat="43.1100642" lon="-2.7607419">
        <ele>151.017</ele>
        <time>2021-04-01T09:13:32.374Z</time>
      </trkpt>
      <trkpt lat="43.1100669" lon="-2.7607465">
        <ele>151.021</ele>
        <time>2021-04-01T09:13:32.429Z</time>
      </trkpt>
      <trkpt lat="43.1100695" lon="-2.7607509">
        <ele>151.028</ele>
        <time>2021-04-01T09:13:32.484Z</time>
      </trkpt>
      <trkpt lat="43.1100722" lon="-2.7607553">
        <ele>151.01</ele>
        <time>2021-04-01T09:13:32.539Z</time>
      </trkpt>
      <trkpt lat="43.1100751" lon="-2.7607597">
        <ele>151.024</ele>
        <time>2021-04-01T09:13:32.594Z</time>
      </trkpt>
      <trkpt lat="43.1100777" lon="-2.7607643">
        <ele>151.039</ele>
        <time>2021-04-01T09:13:32.649Z</time>
      </trkpt>
      <trkpt lat="43.11008" lon="-2.7607695">
        <ele>151.034</ele>
        <time>2021-04-01T09:13:32.704Z</time>
      </trkpt>
      <trkpt lat="43.1100827" lon="-2.7607741">
        <ele>151.066</ele>
        <time>2021-04-01T09:13:32.759Z</time>
      </trkpt>
      <trkpt lat="43.1100854" lon="-2.7607789">
        <ele>151.083</ele>
        <time>2021-04-01T09:13:32.814Z</time>
      </trkpt>
      <trkpt lat="43.1100878" lon="-2.7607839">
        <ele>151.093</ele>
        <time>2021-04-01T09:13:32.869Z</time>
      </trkpt>
      <trkpt lat="43.1100904" lon="-2.7607887">
        <ele>151.102</ele>
        <time>2021-04-01T09:13:32.924Z</time>
      </trkpt>
      <trkpt lat="43.110093" lon="-2.7607933">
        <ele>151.135</ele>
        <time>2021-04-01T09:13:32.979Z</time>
      </trkpt>
      <trkpt lat="43.1100958" lon="-2.760798">
        <ele>151.146</ele>
        <time>2021-04-01T09:13:33.034Z</time>
      </trkpt>
      <trkpt lat="43.1100986" lon="-2.7608028">
        <ele>151.148</ele>
        <time>2021-04-01T09:13:33.089Z</time>
      </trkpt>
      <trkpt lat="43.110101" lon="-2.7608078">
        <ele>151.172</ele>
        <time>2021-04-01T09:13:33.144Z</time>
      </trkpt>
      <trkpt lat="43.1101035" lon="-2.7608128">
        <ele>151.171</ele>
        <time>2021-04-01T09:13:33.199Z</time>
      </trkpt>
      <trkpt lat="43.1101063" lon="-2.7608176">
        <ele>151.184</ele>
        <time>2021-04-01T09:13:33.254Z</time>
      </trkpt>
      <trkpt lat="43.1101088" lon="-2.7608225">
        <ele>151.167</ele>
        <time>2021-04-01T09:13:33.309Z</time>
      </trkpt>
      <trkpt lat="43.1101111" lon="-2.7608272">
        <ele>151.158</ele>
        <time>2021-04-01T09:13:33.364Z</time>
      </trkpt>
      <trkpt lat="43.1101141" lon="-2.7608318">
        <ele>151.197</ele>
        <time>2021-04-01T09:13:33.419Z</time>
      </trkpt>
      <trkpt lat="43.1101168" lon="-2.7608365">
        <ele>151.224</ele>
        <time>2021-04-01T09:13:33.474Z</time>
      </trkpt>
      <trkpt lat="43.1101193" lon="-2.7608413">
        <ele>151.237</ele>
        <time>2021-04-01T09:13:33.529Z</time>
      </trkpt>
      <trkpt lat="43.1101221" lon="-2.7608459">
        <ele>151.25</ele>
        <time>2021-04-01T09:13:33.584Z</time>
      </trkpt>
      <trkpt lat="43.1101246" lon="-2.7608509">
        <ele>151.256</ele>
        <time>2021-04-01T09:13:33.639Z</time>
      </trkpt>
      <trkpt lat="43.1101272" lon="-2.7608557">
        <ele>151.253</ele>
        <time>2021-04-01T09:13:33.694Z</time>
      </trkpt>
      <trkpt lat="43.1101298" lon="-2.7608604">
        <ele>151.236</ele>
        <time>2021-04-01T09:13:33.749Z</time>
      </trkpt>
      <trkpt lat="43.1101325" lon="-2.7608647">
        <ele>151.245</ele>
        <time>2021-04-01T09:13:33.804Z</time>
      </trkpt>
      <trkpt lat="43.1101351" lon="-2.7608689">
        <ele>151.21</ele>
        <time>2021-04-01T09:13:33.859Z</time>
      </trkpt>
      <trkpt lat="43.1101378" lon="-2.7608737">
        <ele>151.214</ele>
        <time>2021-04-01T09:13:33.914Z</time>
      </trkpt>
      <trkpt lat="43.1101405" lon="-2.7608787">
        <ele>151.227</ele>
        <time>2021-04-01T09:13:33.969Z</time>
      </trkpt>
      <trkpt lat="43.1101431" lon="-2.7608832">
        <ele>151.233</ele>
        <time>2021-04-01T09:13:34.024Z</time>
      </trkpt>
      <trkpt lat="43.1101456" lon="-2.7608877">
        <ele>151.21</ele>
        <time>2021-04-01T09:13:34.079Z</time>
      </trkpt>
      <trkpt lat="43.1101484" lon="-2.7608922">
        <ele>151.227</ele>
        <time>2021-04-01T09:13:34.134Z</time>
      </trkpt>
      <trkpt lat="43.1101511" lon="-2.7608971">
        <ele>151.251</ele>
        <time>2021-04-01T09:13:34.189Z</time>
      </trkpt>
      <trkpt lat="43.1101541" lon="-2.7609017">
        <ele>151.287</ele>
        <time>2021-04-01T09:13:34.244Z</time>
      </trkpt>
      <trkpt lat="43.1101569" lon="-2.7609064">
        <ele>151.316</ele>
        <time>2021-04-01T09:13:34.299Z</time>
      </trkpt>
      <trkpt lat="43.1101597" lon="-2.7609108">
        <ele>151.321</ele>
        <time>2021-04-01T09:13:34.354Z</time>
      </trkpt>
      <trkpt lat="43.1101628" lon="-2.760915">
        <ele>151.351</ele>
        <time>2021-04-01T09:13:34.409Z</time>
      </trkpt>
      <trkpt lat="43.1101653" lon="-2.7609195">
        <ele>151.326</ele>
        <time>2021-04-01T09:13:34.464Z</time>
      </trkpt>
      <trkpt lat="43.1101679" lon="-2.7609239">
        <ele>151.296</ele>
        <time>2021-04-01T09:13:34.519Z</time>
      </trkpt>
      <trkpt lat="43.1101707" lon="-2.7609285">
        <ele>151.299</ele>
        <time>2021-04-01T09:13:34.574Z</time>
      </trkpt>
      <trkpt lat="43.1101734" lon="-2.7609334">
        <ele>151.289</ele>
        <time>2021-04-01T09:13:34.629Z</time>
      </trkpt>
      <trkpt lat="43.110176" lon="-2.760938">
        <ele>151.287</ele>
        <time>2021-04-01T09:13:34.684Z</time>
      </trkpt>
      <trkpt lat="43.1101786" lon="-2.7609426">
        <ele>151.28</ele>
        <time>2021-04-01T09:13:34.739Z</time>
      </trkpt>
      <trkpt lat="43.1101815" lon="-2.7609475">
        <ele>151.353</ele>
        <time>2021-04-01T09:13:34.794Z</time>
      </trkpt>
      <trkpt lat="43.1101841" lon="-2.7609522">
        <ele>151.352</ele>
        <time>2021-04-01T09:13:34.849Z</time>
      </trkpt>
      <trkpt lat="43.1101868" lon="-2.7609571">
        <ele>151.351</ele>
        <time>2021-04-01T09:13:34.904Z</time>
      </trkpt>
      <trkpt lat="43.1101893" lon="-2.7609617">
        <ele>151.328</ele>
        <time>2021-04-01T09:13:34.959Z</time>
      </trkpt>
      <trkpt lat="43.1101919" lon="-2.7609661">
        <ele>151.317</ele>
        <time>2021-04-01T09:13:35.014Z</time>
      </trkpt>
      <trkpt lat="43.1101946" lon="-2.7609708">
        <ele>151.318</ele>
        <time>2021-04-01T09:13:35.069Z</time>
      </trkpt>
      <trkpt lat="43.1101973" lon="-2.7609752">
        <ele>151.304</ele>
        <time>2021-04-01T09:13:35.124Z</time>
      </trkpt>
      <trkpt lat="43.1102" lon="-2.7609797">
        <ele>151.301</ele>
        <time>2021-04-01T09:13:35.179Z</time>
      </trkpt>
      <trkpt lat="43.1102028" lon="-2.7609845">
        <ele>151.31</ele>
        <time>2021-04-01T09:13:35.234Z</time>
      </trkpt>
      <trkpt lat="43.1102056" lon="-2.760989">
        <ele>151.316</ele>
        <time>2021-04-01T09:13:35.289Z</time>
      </trkpt>
      <trkpt lat="43.110208" lon="-2.7609936">
        <ele>151.318</ele>
        <time>2021-04-01T09:13:35.344Z</time>
      </trkpt>
      <trkpt lat="43.1102108" lon="-2.7609982">
        <ele>151.346</ele>
        <time>2021-04-01T09:13:35.399Z</time>
      </trkpt>
      <trkpt lat="43.1102137" lon="-2.7610029">
        <ele>151.392</ele>
        <time>2021-04-01T09:13:35.454Z</time>
      </trkpt>
      <trkpt lat="43.1102164" lon="-2.7610074">
        <ele>151.393</ele>
        <time>2021-04-01T09:13:35.509Z</time>
      </trkpt>
      <trkpt lat="43.1102193" lon="-2.7610121">
        <ele>151.434</ele>
        <time>2021-04-01T09:13:35.564Z</time>
      </trkpt>
      <trkpt lat="43.110222" lon="-2.7610166">
        <ele>151.439</ele>
        <time>2021-04-01T09:13:35.619Z</time>
      </trkpt>
      <trkpt lat="43.1102245" lon="-2.7610212">
        <ele>151.418</ele>
        <time>2021-04-01T09:13:35.674Z</time>
      </trkpt>
      <trkpt lat="43.1102272" lon="-2.7610259">
        <ele>151.428</ele>
        <time>2021-04-01T09:13:35.729Z</time>
      </trkpt>
      <trkpt lat="43.1102299" lon="-2.7610303">
        <ele>151.424</ele>
        <time>2021-04-01T09:13:35.784Z</time>
      </trkpt>
      <trkpt lat="43.1102326" lon="-2.7610347">
        <ele>151.398</ele>
        <time>2021-04-01T09:13:35.839Z</time>
      </trkpt>
      <trkpt lat="43.1102355" lon="-2.7610391">
        <ele>151.418</ele>
        <time>2021-04-01T09:13:35.894Z</time>
      </trkpt>
      <trkpt lat="43.1102383" lon="-2.7610435">
        <ele>151.452</ele>
        <time>2021-04-01T09:13:35.949Z</time>
      </trkpt>
      <trkpt lat="43.1102408" lon="-2.7610483">
        <ele>151.447</ele>
        <time>2021-04-01T09:13:36.004Z</time>
      </trkpt>
      <trkpt lat="43.1102435" lon="-2.7610528">
        <ele>151.441</ele>
        <time>2021-04-01T09:13:36.059Z</time>
      </trkpt>
      <trkpt lat="43.1102464" lon="-2.7610571">
        <ele>151.442</ele>
        <time>2021-04-01T09:13:36.114Z</time>
      </trkpt>
      <trkpt lat="43.1102492" lon="-2.7610616">
        <ele>151.477</ele>
        <time>2021-04-01T09:13:36.169Z</time>
      </trkpt>
      <trkpt lat="43.110252" lon="-2.7610662">
        <ele>151.479</ele>
        <time>2021-04-01T09:13:36.224Z</time>
      </trkpt>
      <trkpt lat="43.1102545" lon="-2.7610708">
        <ele>151.461</ele>
        <time>2021-04-01T09:13:36.279Z</time>
      </trkpt>
      <trkpt lat="43.1102572" lon="-2.7610754">
        <ele>151.468</ele>
        <time>2021-04-01T09:13:36.334Z</time>
      </trkpt>
      <trkpt lat="43.1102599" lon="-2.7610796">
        <ele>151.442</ele>
        <time>2021-04-01T09:13:36.389Z</time>
      </trkpt>
      <trkpt lat="43.1102626" lon="-2.7610841">
        <ele>151.418</ele>
        <time>2021-04-01T09:13:36.444Z</time>
      </trkpt>
      <trkpt lat="43.1102652" lon="-2.7610889">
        <ele>151.434</ele>
        <time>2021-04-01T09:13:36.499Z</time>
      </trkpt>
      <trkpt lat="43.1102681" lon="-2.7610934">
        <ele>151.452</ele>
        <time>2021-04-01T09:13:36.554Z</time>
      </trkpt>
      <trkpt lat="43.1102707" lon="-2.7610978">
        <ele>151.45</ele>
        <time>2021-04-01T09:13:36.609Z</time>
      </trkpt>
      <trkpt lat="43.1102734" lon="-2.7611023">
        <ele>151.447</ele>
        <time>2021-04-01T09:13:36.664Z</time>
      </trkpt>
      <trkpt lat="43.110276" lon="-2.761107">
        <ele>151.442</ele>
        <time>2021-04-01T09:13:36.719Z</time>
      </trkpt>
      <trkpt lat="43.1102787" lon="-2.7611116">
        <ele>151.441</ele>
        <time>2021-04-01T09:13:36.774Z</time>
      </trkpt>
      <trkpt lat="43.1102814" lon="-2.7611161">
        <ele>151.45</ele>
        <time>2021-04-01T09:13:36.829Z</time>
      </trkpt>
      <trkpt lat="43.1102841" lon="-2.7611207">
        <ele>151.446</ele>
        <time>2021-04-01T09:13:36.884Z</time>
      </trkpt>
      <trkpt lat="43.1102867" lon="-2.7611252">
        <ele>151.442</ele>
        <time>2021-04-01T09:13:36.939Z</time>
      </trkpt>
      <trkpt lat="43.1102893" lon="-2.7611296">
        <ele>151.437</ele>
        <time>2021-04-01T09:13:36.994Z</time>
      </trkpt>
      <trkpt lat="43.110292" lon="-2.7611342">
        <ele>151.444</ele>
        <time>2021-04-01T09:13:37.049Z</time>
      </trkpt>
      <trkpt lat="43.1102948" lon="-2.7611389">
        <ele>151.446</ele>
        <time>2021-04-01T09:13:37.104Z</time>
      </trkpt>
      <trkpt lat="43.1102974" lon="-2.7611433">
        <ele>151.428</ele>
        <time>2021-04-01T09:13:37.159Z</time>
      </trkpt>
      <trkpt lat="43.1103001" lon="-2.7611478">
        <ele>151.436</ele>
        <time>2021-04-01T09:13:37.214Z</time>
      </trkpt>
      <trkpt lat="43.110303" lon="-2.7611523">
        <ele>151.464</ele>
        <time>2021-04-01T09:13:37.269Z</time>
      </trkpt>
      <trkpt lat="43.1103058" lon="-2.7611568">
        <ele>151.456</ele>
        <time>2021-04-01T09:13:37.324Z</time>
      </trkpt>
      <trkpt lat="43.1103087" lon="-2.7611611">
        <ele>151.457</ele>
        <time>2021-04-01T09:13:37.379Z</time>
      </trkpt>
      <trkpt lat="43.1103113" lon="-2.7611657">
        <ele>151.47</ele>
        <time>2021-04-01T09:13:37.434Z</time>
      </trkpt>
      <trkpt lat="43.1103139" lon="-2.7611702">
        <ele>151.473</ele>
        <time>2021-04-01T09:13:37.489Z</time>
      </trkpt>
      <trkpt lat="43.1103164" lon="-2.7611747">
        <ele>151.484</ele>
        <time>2021-04-01T09:13:37.544Z</time>
      </trkpt>
      <trkpt lat="43.1103191" lon="-2.7611791">
        <ele>151.463</ele>
        <time>2021-04-01T09:13:37.599Z</time>
      </trkpt>
      <trkpt lat="43.1103218" lon="-2.7611836">
        <ele>151.461</ele>
        <time>2021-04-01T09:13:37.654Z</time>
      </trkpt>
      <trkpt lat="43.1103244" lon="-2.7611881">
        <ele>151.465</ele>
        <time>2021-04-01T09:13:37.709Z</time>
      </trkpt>
      <trkpt lat="43.110327" lon="-2.7611925">
        <ele>151.454</ele>
        <time>2021-04-01T09:13:37.764Z</time>
      </trkpt>
      <trkpt lat="43.1103298" lon="-2.7611968">
        <ele>151.457</ele>
        <time>2021-04-01T09:13:37.819Z</time>
      </trkpt>
      <trkpt lat="43.1103323" lon="-2.7612012">
        <ele>151.456</ele>
        <time>2021-04-01T09:13:37.874Z</time>
      </trkpt>
      <trkpt lat="43.1103349" lon="-2.7612058">
        <ele>151.455</ele>
        <time>2021-04-01T09:13:37.929Z</time>
      </trkpt>
      <trkpt lat="43.1103378" lon="-2.7612103">
        <ele>151.468</ele>
        <time>2021-04-01T09:13:37.984Z</time>
      </trkpt>
      <trkpt lat="43.1103405" lon="-2.7612148">
        <ele>151.474</ele>
        <time>2021-04-01T09:13:38.039Z</time>
      </trkpt>
      <trkpt lat="43.1103432" lon="-2.7612194">
        <ele>151.49</ele>
        <time>2021-04-01T09:13:38.094Z</time>
      </trkpt>
      <trkpt lat="43.1103459" lon="-2.7612238">
        <ele>151.488</ele>
        <time>2021-04-01T09:13:38.149Z</time>
      </trkpt>
      <trkpt lat="43.1103486" lon="-2.7612284">
        <ele>151.498</ele>
        <time>2021-04-01T09:13:38.204Z</time>
      </trkpt>
      <trkpt lat="43.1103513" lon="-2.7612327">
        <ele>151.493</ele>
        <time>2021-04-01T09:13:38.259Z</time>
      </trkpt>
      <trkpt lat="43.1103538" lon="-2.7612372">
        <ele>151.462</ele>
        <time>2021-04-01T09:13:38.314Z</time>
      </trkpt>
      <trkpt lat="43.1103564" lon="-2.7612417">
        <ele>151.468</ele>
        <time>2021-04-01T09:13:38.369Z</time>
      </trkpt>
      <trkpt lat="43.1103592" lon="-2.7612461">
        <ele>151.476</ele>
        <time>2021-04-01T09:13:38.424Z</time>
      </trkpt>
      <trkpt lat="43.1103619" lon="-2.7612505">
        <ele>151.459</ele>
        <time>2021-04-01T09:13:38.479Z</time>
      </trkpt>
      <trkpt lat="43.1103647" lon="-2.7612548">
        <ele>151.46</ele>
        <time>2021-04-01T09:13:38.534Z</time>
      </trkpt>
      <trkpt lat="43.1103677" lon="-2.7612592">
        <ele>151.492</ele>
        <time>2021-04-01T09:13:38.589Z</time>
      </trkpt>
      <trkpt lat="43.1103706" lon="-2.7612633">
        <ele>151.473</ele>
        <time>2021-04-01T09:13:38.644Z</time>
      </trkpt>
      <trkpt lat="43.1103732" lon="-2.7612677">
        <ele>151.458</ele>
        <time>2021-04-01T09:13:38.699Z</time>
      </trkpt>
      <trkpt lat="43.1103764" lon="-2.7612718">
        <ele>151.459</ele>
        <time>2021-04-01T09:13:38.754Z</time>
      </trkpt>
      <trkpt lat="43.1103793" lon="-2.761276">
        <ele>151.464</ele>
        <time>2021-04-01T09:13:38.806Z</time>
      </trkpt>
      <trkpt lat="43.1103818" lon="-2.7612802">
        <ele>151.445</ele>
        <time>2021-04-01T09:13:38.858Z</time>
      </trkpt>
      <trkpt lat="43.1103846" lon="-2.7612845">
        <ele>151.426</ele>
        <time>2021-04-01T09:13:38.910Z</time>
      </trkpt>
      <trkpt lat="43.1103873" lon="-2.7612885">
        <ele>151.401</ele>
        <time>2021-04-01T09:13:38.962Z</time>
      </trkpt>
      <trkpt lat="43.1103901" lon="-2.7612928">
        <ele>151.4</ele>
        <time>2021-04-01T09:13:39.014Z</time>
      </trkpt>
      <trkpt lat="43.1103928" lon="-2.761297">
        <ele>151.362</ele>
        <time>2021-04-01T09:13:39.066Z</time>
      </trkpt>
      <trkpt lat="43.1103956" lon="-2.7613014">
        <ele>151.355</ele>
        <time>2021-04-01T09:13:39.118Z</time>
      </trkpt>
      <trkpt lat="43.1103982" lon="-2.7613057">
        <ele>151.328</ele>
        <time>2021-04-01T09:13:39.170Z</time>
      </trkpt>
      <trkpt lat="43.1104008" lon="-2.7613098">
        <ele>151.297</ele>
        <time>2021-04-01T09:13:39.222Z</time>
      </trkpt>
      <trkpt lat="43.1104038" lon="-2.7613139">
        <ele>151.285</ele>
        <time>2021-04-01T09:13:39.275Z</time>
      </trkpt>
      <trkpt lat="43.1104065" lon="-2.7613179">
        <ele>151.26</ele>
        <time>2021-04-01T09:13:39.327Z</time>
      </trkpt>
      <trkpt lat="43.1104095" lon="-2.7613222">
        <ele>151.28</ele>
        <time>2021-04-01T09:13:39.379Z</time>
      </trkpt>
      <trkpt lat="43.1104125" lon="-2.7613265">
        <ele>151.279</ele>
        <time>2021-04-01T09:13:39.431Z</time>
      </trkpt>
      <trkpt lat="43.1104151" lon="-2.7613311">
        <ele>151.287</ele>
        <time>2021-04-01T09:13:39.483Z</time>
      </trkpt>
      <trkpt lat="43.1104181" lon="-2.7613354">
        <ele>151.312</ele>
        <time>2021-04-01T09:13:39.535Z</time>
      </trkpt>
      <trkpt lat="43.1104212" lon="-2.7613396">
        <ele>151.339</ele>
        <time>2021-04-01T09:13:39.587Z</time>
      </trkpt>
      <trkpt lat="43.110424" lon="-2.7613438">
        <ele>151.339</ele>
        <time>2021-04-01T09:13:39.639Z</time>
      </trkpt>
      <trkpt lat="43.1104266" lon="-2.761348">
        <ele>151.318</ele>
        <time>2021-04-01T09:13:39.691Z</time>
      </trkpt>
      <trkpt lat="43.1104294" lon="-2.7613519">
        <ele>151.282</ele>
        <time>2021-04-01T09:13:39.744Z</time>
      </trkpt>
      <trkpt lat="43.1104323" lon="-2.7613556">
        <ele>151.244</ele>
        <time>2021-04-01T09:13:39.805Z</time>
      </trkpt>
      <trkpt lat="43.1104351" lon="-2.7613595">
        <ele>151.222</ele>
        <time>2021-04-01T09:13:39.866Z</time>
      </trkpt>
      <trkpt lat="43.1104381" lon="-2.7613632">
        <ele>151.184</ele>
        <time>2021-04-01T09:13:39.928Z</time>
      </trkpt>
      <trkpt lat="43.110441" lon="-2.7613672">
        <ele>151.176</ele>
        <time>2021-04-01T09:13:39.989Z</time>
      </trkpt>
      <trkpt lat="43.1104439" lon="-2.7613717">
        <ele>151.203</ele>
        <time>2021-04-01T09:13:40.051Z</time>
      </trkpt>
      <trkpt lat="43.1104469" lon="-2.7613765">
        <ele>151.261</ele>
        <time>2021-04-01T09:13:40.112Z</time>
      </trkpt>
      <trkpt lat="43.1104495" lon="-2.7613809">
        <ele>151.26</ele>
        <time>2021-04-01T09:13:40.174Z</time>
      </trkpt>
      <trkpt lat="43.1104529" lon="-2.7613845">
        <ele>151.256</ele>
        <time>2021-04-01T09:13:40.235Z</time>
      </trkpt>
      <trkpt lat="43.1104558" lon="-2.7613886">
        <ele>151.246</ele>
        <time>2021-04-01T09:13:40.297Z</time>
      </trkpt>
      <trkpt lat="43.1104585" lon="-2.7613929">
        <ele>151.262</ele>
        <time>2021-04-01T09:13:40.358Z</time>
      </trkpt>
      <trkpt lat="43.1104616" lon="-2.7613973">
        <ele>151.288</ele>
        <time>2021-04-01T09:13:40.420Z</time>
      </trkpt>
      <trkpt lat="43.1104644" lon="-2.7614017">
        <ele>151.281</ele>
        <time>2021-04-01T09:13:40.481Z</time>
      </trkpt>
      <trkpt lat="43.1104674" lon="-2.7614061">
        <ele>151.275</ele>
        <time>2021-04-01T09:13:40.543Z</time>
      </trkpt>
      <trkpt lat="43.1104702" lon="-2.7614103">
        <ele>151.259</ele>
        <time>2021-04-01T09:13:40.604Z</time>
      </trkpt>
      <trkpt lat="43.1104731" lon="-2.7614144">
        <ele>151.269</ele>
        <time>2021-04-01T09:13:40.666Z</time>
      </trkpt>
      <trkpt lat="43.1104761" lon="-2.7614183">
        <ele>151.281</ele>
        <time>2021-04-01T09:13:40.727Z</time>
      </trkpt>
      <trkpt lat="43.1104791" lon="-2.7614226">
        <ele>151.283</ele>
        <time>2021-04-01T09:13:40.789Z</time>
      </trkpt>
      <trkpt lat="43.110482" lon="-2.7614268">
        <ele>151.297</ele>
        <time>2021-04-01T09:13:40.840Z</time>
      </trkpt>
      <trkpt lat="43.1104851" lon="-2.761431">
        <ele>151.326</ele>
        <time>2021-04-01T09:13:40.892Z</time>
      </trkpt>
      <trkpt lat="43.1104881" lon="-2.7614353">
        <ele>151.347</ele>
        <time>2021-04-01T09:13:40.944Z</time>
      </trkpt>
      <trkpt lat="43.1104913" lon="-2.7614397">
        <ele>151.397</ele>
        <time>2021-04-01T09:13:40.996Z</time>
      </trkpt>
      <trkpt lat="43.1104942" lon="-2.7614439">
        <ele>151.399</ele>
        <time>2021-04-01T09:13:41.048Z</time>
      </trkpt>
      <trkpt lat="43.1104969" lon="-2.7614484">
        <ele>151.411</ele>
        <time>2021-04-01T09:13:41.100Z</time>
      </trkpt>
      <trkpt lat="43.1105" lon="-2.7614526">
        <ele>151.445</ele>
        <time>2021-04-01T09:13:41.152Z</time>
      </trkpt>
      <trkpt lat="43.1105031" lon="-2.7614567">
        <ele>151.469</ele>
        <time>2021-04-01T09:13:41.204Z</time>
      </trkpt>
      <trkpt lat="43.1105061" lon="-2.7614609">
        <ele>151.472</ele>
        <time>2021-04-01T09:13:41.256Z</time>
      </trkpt>
      <trkpt lat="43.1105088" lon="-2.7614653">
        <ele>151.463</ele>
        <time>2021-04-01T09:13:41.308Z</time>
      </trkpt>
      <trkpt lat="43.1105116" lon="-2.7614697">
        <ele>151.476</ele>
        <time>2021-04-01T09:13:41.360Z</time>
      </trkpt>
      <trkpt lat="43.1105145" lon="-2.7614741">
        <ele>151.502</ele>
        <time>2021-04-01T09:13:41.412Z</time>
      </trkpt>
      <trkpt lat="43.1105175" lon="-2.7614783">
        <ele>151.519</ele>
        <time>2021-04-01T09:13:41.464Z</time>
      </trkpt>
      <trkpt lat="43.1105206" lon="-2.7614822">
        <ele>151.519</ele>
        <time>2021-04-01T09:13:41.516Z</time>
      </trkpt>
      <trkpt lat="43.1105233" lon="-2.7614861">
        <ele>151.493</ele>
        <time>2021-04-01T09:13:41.568Z</time>
      </trkpt>
      <trkpt lat="43.1105261" lon="-2.7614903">
        <ele>151.495</ele>
        <time>2021-04-01T09:13:41.620Z</time>
      </trkpt>
      <trkpt lat="43.1105292" lon="-2.7614945">
        <ele>151.533</ele>
        <time>2021-04-01T09:13:41.672Z</time>
      </trkpt>
      <trkpt lat="43.110532" lon="-2.761499">
        <ele>151.551</ele>
        <time>2021-04-01T09:13:41.724Z</time>
      </trkpt>
      <trkpt lat="43.1105349" lon="-2.7615031">
        <ele>151.556</ele>
        <time>2021-04-01T09:13:41.776Z</time>
      </trkpt>
      <trkpt lat="43.1105374" lon="-2.7615074">
        <ele>151.53</ele>
        <time>2021-04-01T09:13:41.828Z</time>
      </trkpt>
      <trkpt lat="43.1105402" lon="-2.7615114">
        <ele>151.527</ele>
        <time>2021-04-01T09:13:41.880Z</time>
      </trkpt>
      <trkpt lat="43.1105431" lon="-2.7615155">
        <ele>151.53</ele>
        <time>2021-04-01T09:13:41.932Z</time>
      </trkpt>
      <trkpt lat="43.1105456" lon="-2.7615198">
        <ele>151.516</ele>
        <time>2021-04-01T09:13:41.984Z</time>
      </trkpt>
      <trkpt lat="43.1105477" lon="-2.761524">
        <ele>151.453</ele>
        <time>2021-04-01T09:13:42.036Z</time>
      </trkpt>
      <trkpt lat="43.1105504" lon="-2.7615282">
        <ele>151.436</ele>
        <time>2021-04-01T09:13:42.088Z</time>
      </trkpt>
      <trkpt lat="43.1105533" lon="-2.7615323">
        <ele>151.437</ele>
        <time>2021-04-01T09:13:42.140Z</time>
      </trkpt>
      <trkpt lat="43.110557" lon="-2.7615366">
        <ele>151.539</ele>
        <time>2021-04-01T09:13:42.192Z</time>
      </trkpt>
      <trkpt lat="43.1105602" lon="-2.7615406">
        <ele>151.559</ele>
        <time>2021-04-01T09:13:42.245Z</time>
      </trkpt>
      <trkpt lat="43.1105632" lon="-2.7615448">
        <ele>151.583</ele>
        <time>2021-04-01T09:13:42.297Z</time>
      </trkpt>
      <trkpt lat="43.110566" lon="-2.7615492">
        <ele>151.603</ele>
        <time>2021-04-01T09:13:42.349Z</time>
      </trkpt>
      <trkpt lat="43.1105689" lon="-2.7615534">
        <ele>151.623</ele>
        <time>2021-04-01T09:13:42.401Z</time>
      </trkpt>
      <trkpt lat="43.1105719" lon="-2.7615578">
        <ele>151.653</ele>
        <time>2021-04-01T09:13:42.453Z</time>
      </trkpt>
      <trkpt lat="43.110575" lon="-2.761562">
        <ele>151.664</ele>
        <time>2021-04-01T09:13:42.505Z</time>
      </trkpt>
      <trkpt lat="43.1105777" lon="-2.761566">
        <ele>151.667</ele>
        <time>2021-04-01T09:13:42.557Z</time>
      </trkpt>
      <trkpt lat="43.1105808" lon="-2.7615699">
        <ele>151.688</ele>
        <time>2021-04-01T09:13:42.609Z</time>
      </trkpt>
      <trkpt lat="43.1105836" lon="-2.761574">
        <ele>151.68</ele>
        <time>2021-04-01T09:13:42.661Z</time>
      </trkpt>
      <trkpt lat="43.1105865" lon="-2.7615781">
        <ele>151.676</ele>
        <time>2021-04-01T09:13:42.714Z</time>
      </trkpt>
      <trkpt lat="43.1105894" lon="-2.7615821">
        <ele>151.683</ele>
        <time>2021-04-01T09:13:42.772Z</time>
      </trkpt>
      <trkpt lat="43.1105923" lon="-2.7615865">
        <ele>151.711</ele>
        <time>2021-04-01T09:13:42.830Z</time>
      </trkpt>
      <trkpt lat="43.1105954" lon="-2.7615905">
        <ele>151.732</ele>
        <time>2021-04-01T09:13:42.888Z</time>
      </trkpt>
      <trkpt lat="43.110598" lon="-2.7615946">
        <ele>151.718</ele>
        <time>2021-04-01T09:13:42.946Z</time>
      </trkpt>
      <trkpt lat="43.1106009" lon="-2.7615986">
        <ele>151.713</ele>
        <time>2021-04-01T09:13:43.004Z</time>
      </trkpt>
      <trkpt lat="43.1106039" lon="-2.7616029">
        <ele>151.748</ele>
        <time>2021-04-01T09:13:43.062Z</time>
      </trkpt>
      <trkpt lat="43.110607" lon="-2.7616071">
        <ele>151.785</ele>
        <time>2021-04-01T09:13:43.120Z</time>
      </trkpt>
      <trkpt lat="43.11061" lon="-2.7616113">
        <ele>151.8</ele>
        <time>2021-04-01T09:13:43.178Z</time>
      </trkpt>
      <trkpt lat="43.1106129" lon="-2.7616153">
        <ele>151.798</ele>
        <time>2021-04-01T09:13:43.236Z</time>
      </trkpt>
      <trkpt lat="43.1106159" lon="-2.7616192">
        <ele>151.813</ele>
        <time>2021-04-01T09:13:43.294Z</time>
      </trkpt>
      <trkpt lat="43.110619" lon="-2.7616233">
        <ele>151.844</ele>
        <time>2021-04-01T09:13:43.352Z</time>
      </trkpt>
      <trkpt lat="43.1106218" lon="-2.7616272">
        <ele>151.829</ele>
        <time>2021-04-01T09:13:43.410Z</time>
      </trkpt>
      <trkpt lat="43.1106245" lon="-2.7616315">
        <ele>151.821</ele>
        <time>2021-04-01T09:13:43.468Z</time>
      </trkpt>
      <trkpt lat="43.1106273" lon="-2.7616359">
        <ele>151.831</ele>
        <time>2021-04-01T09:13:43.526Z</time>
      </trkpt>
      <trkpt lat="43.1106303" lon="-2.7616401">
        <ele>151.868</ele>
        <time>2021-04-01T09:13:43.584Z</time>
      </trkpt>
      <trkpt lat="43.1106333" lon="-2.7616441">
        <ele>151.894</ele>
        <time>2021-04-01T09:13:43.642Z</time>
      </trkpt>
      <trkpt lat="43.1106361" lon="-2.7616484">
        <ele>151.885</ele>
        <time>2021-04-01T09:13:43.700Z</time>
      </trkpt>
      <trkpt lat="43.110639" lon="-2.7616524">
        <ele>151.903</ele>
        <time>2021-04-01T09:13:43.759Z</time>
      </trkpt>
      <trkpt lat="43.1106418" lon="-2.7616565">
        <ele>151.904</ele>
        <time>2021-04-01T09:13:43.814Z</time>
      </trkpt>
      <trkpt lat="43.1106448" lon="-2.7616606">
        <ele>151.921</ele>
        <time>2021-04-01T09:13:43.869Z</time>
      </trkpt>
      <trkpt lat="43.1106478" lon="-2.7616648">
        <ele>151.942</ele>
        <time>2021-04-01T09:13:43.924Z</time>
      </trkpt>
      <trkpt lat="43.1106506" lon="-2.761669">
        <ele>151.95</ele>
        <time>2021-04-01T09:13:43.979Z</time>
      </trkpt>
      <trkpt lat="43.1106535" lon="-2.7616731">
        <ele>151.974</ele>
        <time>2021-04-01T09:13:44.034Z</time>
      </trkpt>
      <trkpt lat="43.1106568" lon="-2.7616772">
        <ele>152.02</ele>
        <time>2021-04-01T09:13:44.089Z</time>
      </trkpt>
      <trkpt lat="43.1106597" lon="-2.7616813">
        <ele>152.027</ele>
        <time>2021-04-01T09:13:44.144Z</time>
      </trkpt>
      <trkpt lat="43.1106625" lon="-2.7616856">
        <ele>152.039</ele>
        <time>2021-04-01T09:13:44.199Z</time>
      </trkpt>
      <trkpt lat="43.1106654" lon="-2.7616898">
        <ele>152.046</ele>
        <time>2021-04-01T09:13:44.254Z</time>
      </trkpt>
      <trkpt lat="43.1106681" lon="-2.7616942">
        <ele>152.056</ele>
        <time>2021-04-01T09:13:44.309Z</time>
      </trkpt>
      <trkpt lat="43.1106707" lon="-2.7616981">
        <ele>152.063</ele>
        <time>2021-04-01T09:13:44.364Z</time>
      </trkpt>
      <trkpt lat="43.1106733" lon="-2.761702">
        <ele>152.028</ele>
        <time>2021-04-01T09:13:44.419Z</time>
      </trkpt>
      <trkpt lat="43.110676" lon="-2.761706">
        <ele>152.029</ele>
        <time>2021-04-01T09:13:44.474Z</time>
      </trkpt>
      <trkpt lat="43.1106789" lon="-2.76171">
        <ele>152.021</ele>
        <time>2021-04-01T09:13:44.529Z</time>
      </trkpt>
      <trkpt lat="43.110682" lon="-2.761714">
        <ele>152.025</ele>
        <time>2021-04-01T09:13:44.584Z</time>
      </trkpt>
      <trkpt lat="43.1106851" lon="-2.7617182">
        <ele>152.053</ele>
        <time>2021-04-01T09:13:44.639Z</time>
      </trkpt>
      <trkpt lat="43.110688" lon="-2.761722">
        <ele>152.067</ele>
        <time>2021-04-01T09:13:44.694Z</time>
      </trkpt>
      <trkpt lat="43.1106908" lon="-2.761726">
        <ele>152.06</ele>
        <time>2021-04-01T09:13:44.749Z</time>
      </trkpt>
      <trkpt lat="43.1106937" lon="-2.7617303">
        <ele>152.083</ele>
        <time>2021-04-01T09:13:44.801Z</time>
      </trkpt>
      <trkpt lat="43.1106965" lon="-2.7617343">
        <ele>152.077</ele>
        <time>2021-04-01T09:13:44.853Z</time>
      </trkpt>
      <trkpt lat="43.1106993" lon="-2.7617385">
        <ele>152.092</ele>
        <time>2021-04-01T09:13:44.905Z</time>
      </trkpt>
      <trkpt lat="43.1107023" lon="-2.7617426">
        <ele>152.107</ele>
        <time>2021-04-01T09:13:44.957Z</time>
      </trkpt>
      <trkpt lat="43.1107052" lon="-2.7617466">
        <ele>152.111</ele>
        <time>2021-04-01T09:13:45.009Z</time>
      </trkpt>
      <trkpt lat="43.1107082" lon="-2.7617505">
        <ele>152.122</ele>
        <time>2021-04-01T09:13:45.061Z</time>
      </trkpt>
      <trkpt lat="43.1107112" lon="-2.7617545">
        <ele>152.123</ele>
        <time>2021-04-01T09:13:45.113Z</time>
      </trkpt>
      <trkpt lat="43.1107141" lon="-2.7617583">
        <ele>152.138</ele>
        <time>2021-04-01T09:13:45.165Z</time>
      </trkpt>
      <trkpt lat="43.1107171" lon="-2.7617622">
        <ele>152.147</ele>
        <time>2021-04-01T09:13:45.217Z</time>
      </trkpt>
      <trkpt lat="43.1107199" lon="-2.7617662">
        <ele>152.135</ele>
        <time>2021-04-01T09:13:45.270Z</time>
      </trkpt>
      <trkpt lat="43.110723" lon="-2.7617701">
        <ele>152.169</ele>
        <time>2021-04-01T09:13:45.322Z</time>
      </trkpt>
      <trkpt lat="43.110726" lon="-2.7617741">
        <ele>152.169</ele>
        <time>2021-04-01T09:13:45.374Z</time>
      </trkpt>
      <trkpt lat="43.1107289" lon="-2.7617781">
        <ele>152.177</ele>
        <time>2021-04-01T09:13:45.426Z</time>
      </trkpt>
      <trkpt lat="43.1107319" lon="-2.7617822">
        <ele>152.211</ele>
        <time>2021-04-01T09:13:45.478Z</time>
      </trkpt>
      <trkpt lat="43.110735" lon="-2.7617864">
        <ele>152.258</ele>
        <time>2021-04-01T09:13:45.530Z</time>
      </trkpt>
      <trkpt lat="43.1107382" lon="-2.7617904">
        <ele>152.293</ele>
        <time>2021-04-01T09:13:45.582Z</time>
      </trkpt>
      <trkpt lat="43.1107412" lon="-2.7617942">
        <ele>152.296</ele>
        <time>2021-04-01T09:13:45.634Z</time>
      </trkpt>
      <trkpt lat="43.1107442" lon="-2.7617981">
        <ele>152.318</ele>
        <time>2021-04-01T09:13:45.686Z</time>
      </trkpt>
      <trkpt lat="43.1107477" lon="-2.7618023">
        <ele>152.393</ele>
        <time>2021-04-01T09:13:45.739Z</time>
      </trkpt>
      <trkpt lat="43.1107511" lon="-2.7618064">
        <ele>152.447</ele>
        <time>2021-04-01T09:13:45.800Z</time>
      </trkpt>
      <trkpt lat="43.1107544" lon="-2.7618101">
        <ele>152.493</ele>
        <time>2021-04-01T09:13:45.861Z</time>
      </trkpt>
      <trkpt lat="43.1107569" lon="-2.7618139">
        <ele>152.437</ele>
        <time>2021-04-01T09:13:45.923Z</time>
      </trkpt>
      <trkpt lat="43.1107595" lon="-2.7618177">
        <ele>152.395</ele>
        <time>2021-04-01T09:13:45.984Z</time>
      </trkpt>
      <trkpt lat="43.1107623" lon="-2.7618216">
        <ele>152.404</ele>
        <time>2021-04-01T09:13:46.046Z</time>
      </trkpt>
      <trkpt lat="43.1107655" lon="-2.7618251">
        <ele>152.397</ele>
        <time>2021-04-01T09:13:46.107Z</time>
      </trkpt>
      <trkpt lat="43.1107687" lon="-2.7618293">
        <ele>152.441</ele>
        <time>2021-04-01T09:13:46.169Z</time>
      </trkpt>
      <trkpt lat="43.1107718" lon="-2.7618334">
        <ele>152.492</ele>
        <time>2021-04-01T09:13:46.230Z</time>
      </trkpt>
      <trkpt lat="43.1107746" lon="-2.7618374">
        <ele>152.504</ele>
        <time>2021-04-01T09:13:46.292Z</time>
      </trkpt>
      <trkpt lat="43.1107777" lon="-2.7618412">
        <ele>152.518</ele>
        <time>2021-04-01T09:13:46.353Z</time>
      </trkpt>
      <trkpt lat="43.1107805" lon="-2.7618451">
        <ele>152.523</ele>
        <time>2021-04-01T09:13:46.415Z</time>
      </trkpt>
      <trkpt lat="43.1107834" lon="-2.761849">
        <ele>152.515</ele>
        <time>2021-04-01T09:13:46.476Z</time>
      </trkpt>
      <trkpt lat="43.1107864" lon="-2.761853">
        <ele>152.54</ele>
        <time>2021-04-01T09:13:46.538Z</time>
      </trkpt>
      <trkpt lat="43.1107896" lon="-2.7618569">
        <ele>152.594</ele>
        <time>2021-04-01T09:13:46.599Z</time>
      </trkpt>
      <trkpt lat="43.1107925" lon="-2.7618604">
        <ele>152.58</ele>
        <time>2021-04-01T09:13:46.661Z</time>
      </trkpt>
      <trkpt lat="43.1107953" lon="-2.7618641">
        <ele>152.57</ele>
        <time>2021-04-01T09:13:46.722Z</time>
      </trkpt>
      <trkpt lat="43.1107983" lon="-2.7618681">
        <ele>152.586</ele>
        <time>2021-04-01T09:13:46.784Z</time>
      </trkpt>
      <trkpt lat="43.1108012" lon="-2.761872">
        <ele>152.593</ele>
        <time>2021-04-01T09:13:46.833Z</time>
      </trkpt>
      <trkpt lat="43.1108041" lon="-2.761876">
        <ele>152.607</ele>
        <time>2021-04-01T09:13:46.882Z</time>
      </trkpt>
      <trkpt lat="43.1108072" lon="-2.7618799">
        <ele>152.627</ele>
        <time>2021-04-01T09:13:46.931Z</time>
      </trkpt>
      <trkpt lat="43.11081" lon="-2.7618836">
        <ele>152.628</ele>
        <time>2021-04-01T09:13:46.980Z</time>
      </trkpt>
      <trkpt lat="43.1108129" lon="-2.7618875">
        <ele>152.642</ele>
        <time>2021-04-01T09:13:47.030Z</time>
      </trkpt>
      <trkpt lat="43.110816" lon="-2.7618913">
        <ele>152.647</ele>
        <time>2021-04-01T09:13:47.079Z</time>
      </trkpt>
      <trkpt lat="43.110819" lon="-2.7618953">
        <ele>152.672</ele>
        <time>2021-04-01T09:13:47.128Z</time>
      </trkpt>
      <trkpt lat="43.1108219" lon="-2.7618992">
        <ele>152.686</ele>
        <time>2021-04-01T09:13:47.177Z</time>
      </trkpt>
      <trkpt lat="43.110825" lon="-2.761903">
        <ele>152.707</ele>
        <time>2021-04-01T09:13:47.226Z</time>
      </trkpt>
      <trkpt lat="43.1108277" lon="-2.7619068">
        <ele>152.714</ele>
        <time>2021-04-01T09:13:47.276Z</time>
      </trkpt>
      <trkpt lat="43.1108307" lon="-2.7619105">
        <ele>152.71</ele>
        <time>2021-04-01T09:13:47.325Z</time>
      </trkpt>
      <trkpt lat="43.1108338" lon="-2.7619142">
        <ele>152.718</ele>
        <time>2021-04-01T09:13:47.374Z</time>
      </trkpt>
      <trkpt lat="43.1108367" lon="-2.7619181">
        <ele>152.73</ele>
        <time>2021-04-01T09:13:47.423Z</time>
      </trkpt>
      <trkpt lat="43.1108396" lon="-2.7619219">
        <ele>152.751</ele>
        <time>2021-04-01T09:13:47.472Z</time>
      </trkpt>
      <trkpt lat="43.1108424" lon="-2.7619257">
        <ele>152.743</ele>
        <time>2021-04-01T09:13:47.522Z</time>
      </trkpt>
      <trkpt lat="43.1108451" lon="-2.7619295">
        <ele>152.726</ele>
        <time>2021-04-01T09:13:47.571Z</time>
      </trkpt>
      <trkpt lat="43.1108477" lon="-2.7619333">
        <ele>152.712</ele>
        <time>2021-04-01T09:13:47.620Z</time>
      </trkpt>
      <trkpt lat="43.1108504" lon="-2.7619373">
        <ele>152.722</ele>
        <time>2021-04-01T09:13:47.669Z</time>
      </trkpt>
      <trkpt lat="43.1108534" lon="-2.7619412">
        <ele>152.727</ele>
        <time>2021-04-01T09:13:47.719Z</time>
      </trkpt>
      <trkpt lat="43.1108564" lon="-2.761945">
        <ele>152.731</ele>
        <time>2021-04-01T09:13:47.777Z</time>
      </trkpt>
      <trkpt lat="43.1108591" lon="-2.7619487">
        <ele>152.711</ele>
        <time>2021-04-01T09:13:47.835Z</time>
      </trkpt>
      <trkpt lat="43.1108616" lon="-2.7619527">
        <ele>152.701</ele>
        <time>2021-04-01T09:13:47.893Z</time>
      </trkpt>
      <trkpt lat="43.1108647" lon="-2.7619562">
        <ele>152.709</ele>
        <time>2021-04-01T09:13:47.951Z</time>
      </trkpt>
      <trkpt lat="43.1108676" lon="-2.76196">
        <ele>152.708</ele>
        <time>2021-04-01T09:13:48.009Z</time>
      </trkpt>
      <trkpt lat="43.1108708" lon="-2.7619634">
        <ele>152.681</ele>
        <time>2021-04-01T09:13:48.067Z</time>
      </trkpt>
      <trkpt lat="43.1108738" lon="-2.7619668">
        <ele>152.672</ele>
        <time>2021-04-01T09:13:48.125Z</time>
      </trkpt>
      <trkpt lat="43.1108769" lon="-2.7619703">
        <ele>152.647</ele>
        <time>2021-04-01T09:13:48.183Z</time>
      </trkpt>
      <trkpt lat="43.1108801" lon="-2.7619738">
        <ele>152.64</ele>
        <time>2021-04-01T09:13:48.241Z</time>
      </trkpt>
      <trkpt lat="43.1108831" lon="-2.7619773">
        <ele>152.623</ele>
        <time>2021-04-01T09:13:48.299Z</time>
      </trkpt>
      <trkpt lat="43.1108862" lon="-2.761981">
        <ele>152.635</ele>
        <time>2021-04-01T09:13:48.357Z</time>
      </trkpt>
      <trkpt lat="43.1108896" lon="-2.7619844">
        <ele>152.659</ele>
        <time>2021-04-01T09:13:48.415Z</time>
      </trkpt>
      <trkpt lat="43.1108927" lon="-2.7619882">
        <ele>152.661</ele>
        <time>2021-04-01T09:13:48.473Z</time>
      </trkpt>
      <trkpt lat="43.1108957" lon="-2.7619917">
        <ele>152.665</ele>
        <time>2021-04-01T09:13:48.531Z</time>
      </trkpt>
      <trkpt lat="43.1108983" lon="-2.7619956">
        <ele>152.651</ele>
        <time>2021-04-01T09:13:48.589Z</time>
      </trkpt>
      <trkpt lat="43.1109013" lon="-2.7619993">
        <ele>152.637</ele>
        <time>2021-04-01T09:13:48.647Z</time>
      </trkpt>
      <trkpt lat="43.1109042" lon="-2.7620029">
        <ele>152.628</ele>
        <time>2021-04-01T09:13:48.705Z</time>
      </trkpt>
      <trkpt lat="43.1109072" lon="-2.7620064">
        <ele>152.615</ele>
        <time>2021-04-01T09:13:48.764Z</time>
      </trkpt>
      <trkpt lat="43.1109103" lon="-2.7620099">
        <ele>152.617</ele>
        <time>2021-04-01T09:13:48.819Z</time>
      </trkpt>
      <trkpt lat="43.1109135" lon="-2.7620134">
        <ele>152.61</ele>
        <time>2021-04-01T09:13:48.874Z</time>
      </trkpt>
      <trkpt lat="43.1109164" lon="-2.7620171">
        <ele>152.59</ele>
        <time>2021-04-01T09:13:48.929Z</time>
      </trkpt>
      <trkpt lat="43.1109192" lon="-2.7620209">
        <ele>152.573</ele>
        <time>2021-04-01T09:13:48.984Z</time>
      </trkpt>
      <trkpt lat="43.110922" lon="-2.7620244">
        <ele>152.538</ele>
        <time>2021-04-01T09:13:49.039Z</time>
      </trkpt>
      <trkpt lat="43.1109254" lon="-2.7620279">
        <ele>152.551</ele>
        <time>2021-04-01T09:13:49.094Z</time>
      </trkpt>
      <trkpt lat="43.1109287" lon="-2.7620314">
        <ele>152.567</ele>
        <time>2021-04-01T09:13:49.149Z</time>
      </trkpt>
      <trkpt lat="43.1109318" lon="-2.762035">
        <ele>152.581</ele>
        <time>2021-04-01T09:13:49.204Z</time>
      </trkpt>
      <trkpt lat="43.1109348" lon="-2.7620385">
        <ele>152.579</ele>
        <time>2021-04-01T09:13:49.259Z</time>
      </trkpt>
      <trkpt lat="43.1109379" lon="-2.7620421">
        <ele>152.575</ele>
        <time>2021-04-01T09:13:49.314Z</time>
      </trkpt>
      <trkpt lat="43.1109411" lon="-2.7620456">
        <ele>152.569</ele>
        <time>2021-04-01T09:13:49.369Z</time>
      </trkpt>
      <trkpt lat="43.1109446" lon="-2.762049">
        <ele>152.588</ele>
        <time>2021-04-01T09:13:49.424Z</time>
      </trkpt>
      <trkpt lat="43.1109476" lon="-2.7620524">
        <ele>152.558</ele>
        <time>2021-04-01T09:13:49.479Z</time>
      </trkpt>
      <trkpt lat="43.1109508" lon="-2.7620557">
        <ele>152.545</ele>
        <time>2021-04-01T09:13:49.534Z</time>
      </trkpt>
      <trkpt lat="43.1109539" lon="-2.7620593">
        <ele>152.539</ele>
        <time>2021-04-01T09:13:49.589Z</time>
      </trkpt>
      <trkpt lat="43.1109572" lon="-2.7620627">
        <ele>152.55</ele>
        <time>2021-04-01T09:13:49.644Z</time>
      </trkpt>
      <trkpt lat="43.1109605" lon="-2.7620661">
        <ele>152.564</ele>
        <time>2021-04-01T09:13:49.699Z</time>
      </trkpt>
      <trkpt lat="43.1109634" lon="-2.7620694">
        <ele>152.521</ele>
        <time>2021-04-01T09:13:49.754Z</time>
      </trkpt>
      <trkpt lat="43.1109663" lon="-2.7620728">
        <ele>152.484</ele>
        <time>2021-04-01T09:13:49.812Z</time>
      </trkpt>
      <trkpt lat="43.1109695" lon="-2.7620763">
        <ele>152.468</ele>
        <time>2021-04-01T09:13:49.870Z</time>
      </trkpt>
      <trkpt lat="43.1109729" lon="-2.7620798">
        <ele>152.485</ele>
        <time>2021-04-01T09:13:49.928Z</time>
      </trkpt>
      <trkpt lat="43.1109762" lon="-2.7620832">
        <ele>152.473</ele>
        <time>2021-04-01T09:13:49.986Z</time>
      </trkpt>
      <trkpt lat="43.1109794" lon="-2.7620868">
        <ele>152.486</ele>
        <time>2021-04-01T09:13:50.044Z</time>
      </trkpt>
      <trkpt lat="43.1109828" lon="-2.7620903">
        <ele>152.533</ele>
        <time>2021-04-01T09:13:50.102Z</time>
      </trkpt>
      <trkpt lat="43.110986" lon="-2.7620936">
        <ele>152.552</ele>
        <time>2021-04-01T09:13:50.160Z</time>
      </trkpt>
      <trkpt lat="43.1109893" lon="-2.7620972">
        <ele>152.552</ele>
        <time>2021-04-01T09:13:50.218Z</time>
      </trkpt>
      <trkpt lat="43.1109927" lon="-2.7621008">
        <ele>152.565</ele>
        <time>2021-04-01T09:13:50.276Z</time>
      </trkpt>
      <trkpt lat="43.1109958" lon="-2.7621043">
        <ele>152.567</ele>
        <time>2021-04-01T09:13:50.334Z</time>
      </trkpt>
      <trkpt lat="43.110999" lon="-2.7621079">
        <ele>152.569</ele>
        <time>2021-04-01T09:13:50.392Z</time>
      </trkpt>
      <trkpt lat="43.1110019" lon="-2.7621111">
        <ele>152.551</ele>
        <time>2021-04-01T09:13:50.450Z</time>
      </trkpt>
      <trkpt lat="43.1110046" lon="-2.7621145">
        <ele>152.546</ele>
        <time>2021-04-01T09:13:50.508Z</time>
      </trkpt>
      <trkpt lat="43.111008" lon="-2.762118">
        <ele>152.549</ele>
        <time>2021-04-01T09:13:50.566Z</time>
      </trkpt>
      <trkpt lat="43.1110116" lon="-2.7621212">
        <ele>152.559</ele>
        <time>2021-04-01T09:13:50.624Z</time>
      </trkpt>
      <trkpt lat="43.1110151" lon="-2.7621242">
        <ele>152.57</ele>
        <time>2021-04-01T09:13:50.682Z</time>
      </trkpt>
      <trkpt lat="43.1110185" lon="-2.7621276">
        <ele>152.552</ele>
        <time>2021-04-01T09:13:50.740Z</time>
      </trkpt>
      <trkpt lat="43.111022" lon="-2.7621307">
        <ele>152.565</ele>
        <time>2021-04-01T09:13:50.799Z</time>
      </trkpt>
      <trkpt lat="43.1110254" lon="-2.7621337">
        <ele>152.587</ele>
        <time>2021-04-01T09:13:50.848Z</time>
      </trkpt>
      <trkpt lat="43.1110286" lon="-2.7621367">
        <ele>152.581</ele>
        <time>2021-04-01T09:13:50.897Z</time>
      </trkpt>
      <trkpt lat="43.1110318" lon="-2.7621394">
        <ele>152.514</ele>
        <time>2021-04-01T09:13:50.946Z</time>
      </trkpt>
      <trkpt lat="43.1110349" lon="-2.7621424">
        <ele>152.483</ele>
        <time>2021-04-01T09:13:50.995Z</time>
      </trkpt>
      <trkpt lat="43.1110385" lon="-2.7621455">
        <ele>152.507</ele>
        <time>2021-04-01T09:13:51.045Z</time>
      </trkpt>
      <trkpt lat="43.1110421" lon="-2.7621487">
        <ele>152.532</ele>
        <time>2021-04-01T09:13:51.094Z</time>
      </trkpt>
      <trkpt lat="43.1110454" lon="-2.7621519">
        <ele>152.534</ele>
        <time>2021-04-01T09:13:51.143Z</time>
      </trkpt>
      <trkpt lat="43.1110486" lon="-2.7621552">
        <ele>152.548</ele>
        <time>2021-04-01T09:13:51.192Z</time>
      </trkpt>
      <trkpt lat="43.111052" lon="-2.7621583">
        <ele>152.56</ele>
        <time>2021-04-01T09:13:51.241Z</time>
      </trkpt>
      <trkpt lat="43.1110553" lon="-2.7621617">
        <ele>152.556</ele>
        <time>2021-04-01T09:13:51.291Z</time>
      </trkpt>
      <trkpt lat="43.1110584" lon="-2.7621651">
        <ele>152.582</ele>
        <time>2021-04-01T09:13:51.340Z</time>
      </trkpt>
      <trkpt lat="43.1110618" lon="-2.7621683">
        <ele>152.567</ele>
        <time>2021-04-01T09:13:51.389Z</time>
      </trkpt>
      <trkpt lat="43.111065" lon="-2.7621718">
        <ele>152.576</ele>
        <time>2021-04-01T09:13:51.438Z</time>
      </trkpt>
      <trkpt lat="43.1110681" lon="-2.762175">
        <ele>152.594</ele>
        <time>2021-04-01T09:13:51.487Z</time>
      </trkpt>
      <trkpt lat="43.1110713" lon="-2.762178">
        <ele>152.593</ele>
        <time>2021-04-01T09:13:51.537Z</time>
      </trkpt>
      <trkpt lat="43.1110746" lon="-2.7621812">
        <ele>152.611</ele>
        <time>2021-04-01T09:13:51.586Z</time>
      </trkpt>
      <trkpt lat="43.1110778" lon="-2.7621844">
        <ele>152.603</ele>
        <time>2021-04-01T09:13:51.635Z</time>
      </trkpt>
      <trkpt lat="43.1110811" lon="-2.7621874">
        <ele>152.604</ele>
        <time>2021-04-01T09:13:51.684Z</time>
      </trkpt>
      <trkpt lat="43.1110845" lon="-2.7621904">
        <ele>152.611</ele>
        <time>2021-04-01T09:13:51.734Z</time>
      </trkpt>
      <trkpt lat="43.1110877" lon="-2.7621936">
        <ele>152.657</ele>
        <time>2021-04-01T09:13:51.789Z</time>
      </trkpt>
      <trkpt lat="43.1110909" lon="-2.7621969">
        <ele>152.697</ele>
        <time>2021-04-01T09:13:51.844Z</time>
      </trkpt>
      <trkpt lat="43.1110941" lon="-2.7622004">
        <ele>152.702</ele>
        <time>2021-04-01T09:13:51.899Z</time>
      </trkpt>
      <trkpt lat="43.1110974" lon="-2.7622038">
        <ele>152.758</ele>
        <time>2021-04-01T09:13:51.954Z</time>
      </trkpt>
      <trkpt lat="43.1111006" lon="-2.7622072">
        <ele>152.799</ele>
        <time>2021-04-01T09:13:52.009Z</time>
      </trkpt>
      <trkpt lat="43.111104" lon="-2.7622103">
        <ele>152.829</ele>
        <time>2021-04-01T09:13:52.064Z</time>
      </trkpt>
      <trkpt lat="43.1111071" lon="-2.7622135">
        <ele>152.839</ele>
        <time>2021-04-01T09:13:52.119Z</time>
      </trkpt>
      <trkpt lat="43.1111103" lon="-2.7622166">
        <ele>152.843</ele>
        <time>2021-04-01T09:13:52.174Z</time>
      </trkpt>
      <trkpt lat="43.1111135" lon="-2.7622198">
        <ele>152.843</ele>
        <time>2021-04-01T09:13:52.229Z</time>
      </trkpt>
      <trkpt lat="43.1111168" lon="-2.7622229">
        <ele>152.838</ele>
        <time>2021-04-01T09:13:52.284Z</time>
      </trkpt>
      <trkpt lat="43.1111201" lon="-2.7622259">
        <ele>152.841</ele>
        <time>2021-04-01T09:13:52.339Z</time>
      </trkpt>
      <trkpt lat="43.1111233" lon="-2.7622289">
        <ele>152.831</ele>
        <time>2021-04-01T09:13:52.394Z</time>
      </trkpt>
      <trkpt lat="43.1111265" lon="-2.7622319">
        <ele>152.829</ele>
        <time>2021-04-01T09:13:52.449Z</time>
      </trkpt>
      <trkpt lat="43.1111299" lon="-2.7622351">
        <ele>152.843</ele>
        <time>2021-04-01T09:13:52.504Z</time>
      </trkpt>
      <trkpt lat="43.111133" lon="-2.7622382">
        <ele>152.852</ele>
        <time>2021-04-01T09:13:52.559Z</time>
      </trkpt>
      <trkpt lat="43.1111362" lon="-2.7622415">
        <ele>152.871</ele>
        <time>2021-04-01T09:13:52.614Z</time>
      </trkpt>
      <trkpt lat="43.1111391" lon="-2.7622447">
        <ele>152.884</ele>
        <time>2021-04-01T09:13:52.669Z</time>
      </trkpt>
      <trkpt lat="43.1111423" lon="-2.7622479">
        <ele>152.918</ele>
        <time>2021-04-01T09:13:52.724Z</time>
      </trkpt>
      <trkpt lat="43.1111457" lon="-2.7622508">
        <ele>152.917</ele>
        <time>2021-04-01T09:13:52.782Z</time>
      </trkpt>
      <trkpt lat="43.1111492" lon="-2.7622536">
        <ele>152.963</ele>
        <time>2021-04-01T09:13:52.840Z</time>
      </trkpt>
      <trkpt lat="43.1111527" lon="-2.7622563">
        <ele>152.967</ele>
        <time>2021-04-01T09:13:52.898Z</time>
      </trkpt>
      <trkpt lat="43.111156" lon="-2.7622592">
        <ele>152.979</ele>
        <time>2021-04-01T09:13:52.956Z</time>
      </trkpt>
      <trkpt lat="43.1111595" lon="-2.7622624">
        <ele>153.016</ele>
        <time>2021-04-01T09:13:53.014Z</time>
      </trkpt>
      <trkpt lat="43.1111626" lon="-2.7622653">
        <ele>153.031</ele>
        <time>2021-04-01T09:13:53.072Z</time>
      </trkpt>
      <trkpt lat="43.1111656" lon="-2.7622682">
        <ele>153.028</ele>
        <time>2021-04-01T09:13:53.130Z</time>
      </trkpt>
      <trkpt lat="43.1111684" lon="-2.7622707">
        <ele>152.926</ele>
        <time>2021-04-01T09:13:53.188Z</time>
      </trkpt>
      <trkpt lat="43.1111717" lon="-2.7622735">
        <ele>152.917</ele>
        <time>2021-04-01T09:13:53.246Z</time>
      </trkpt>
      <trkpt lat="43.1111748" lon="-2.7622762">
        <ele>152.919</ele>
        <time>2021-04-01T09:13:53.304Z</time>
      </trkpt>
      <trkpt lat="43.1111781" lon="-2.7622789">
        <ele>152.912</ele>
        <time>2021-04-01T09:13:53.362Z</time>
      </trkpt>
      <trkpt lat="43.1111812" lon="-2.7622817">
        <ele>152.892</ele>
        <time>2021-04-01T09:13:53.420Z</time>
      </trkpt>
      <trkpt lat="43.1111845" lon="-2.7622846">
        <ele>152.866</ele>
        <time>2021-04-01T09:13:53.478Z</time>
      </trkpt>
      <trkpt lat="43.1111878" lon="-2.7622873">
        <ele>152.87</ele>
        <time>2021-04-01T09:13:53.536Z</time>
      </trkpt>
      <trkpt lat="43.1111911" lon="-2.7622901">
        <ele>152.89</ele>
        <time>2021-04-01T09:13:53.594Z</time>
      </trkpt>
      <trkpt lat="43.1111944" lon="-2.7622928">
        <ele>152.9</ele>
        <time>2021-04-01T09:13:53.652Z</time>
      </trkpt>
      <trkpt lat="43.1111977" lon="-2.7622958">
        <ele>152.905</ele>
        <time>2021-04-01T09:13:53.710Z</time>
      </trkpt>
      <trkpt lat="43.1112011" lon="-2.7622987">
        <ele>152.934</ele>
        <time>2021-04-01T09:13:53.769Z</time>
      </trkpt>
      <trkpt lat="43.1112043" lon="-2.7623016">
        <ele>152.97</ele>
        <time>2021-04-01T09:13:53.827Z</time>
      </trkpt>
      <trkpt lat="43.1112074" lon="-2.7623043">
        <ele>152.953</ele>
        <time>2021-04-01T09:13:53.885Z</time>
      </trkpt>
      <trkpt lat="43.1112106" lon="-2.7623074">
        <ele>152.984</ele>
        <time>2021-04-01T09:13:53.943Z</time>
      </trkpt>
      <trkpt lat="43.1112136" lon="-2.7623099">
        <ele>152.962</ele>
        <time>2021-04-01T09:13:54.001Z</time>
      </trkpt>
      <trkpt lat="43.1112168" lon="-2.7623128">
        <ele>152.986</ele>
        <time>2021-04-01T09:13:54.059Z</time>
      </trkpt>
      <trkpt lat="43.1112202" lon="-2.7623152">
        <ele>152.985</ele>
        <time>2021-04-01T09:13:54.117Z</time>
      </trkpt>
      <trkpt lat="43.1112231" lon="-2.7623179">
        <ele>153.009</ele>
        <time>2021-04-01T09:13:54.175Z</time>
      </trkpt>
      <trkpt lat="43.1112265" lon="-2.7623207">
        <ele>153.041</ele>
        <time>2021-04-01T09:13:54.233Z</time>
      </trkpt>
      <trkpt lat="43.1112297" lon="-2.7623233">
        <ele>153.035</ele>
        <time>2021-04-01T09:13:54.291Z</time>
      </trkpt>
      <trkpt lat="43.1112331" lon="-2.762326">
        <ele>153.056</ele>
        <time>2021-04-01T09:13:54.349Z</time>
      </trkpt>
      <trkpt lat="43.1112363" lon="-2.7623286">
        <ele>153.083</ele>
        <time>2021-04-01T09:13:54.407Z</time>
      </trkpt>
      <trkpt lat="43.1112399" lon="-2.7623311">
        <ele>153.15</ele>
        <time>2021-04-01T09:13:54.465Z</time>
      </trkpt>
      <trkpt lat="43.111243" lon="-2.7623343">
        <ele>153.222</ele>
        <time>2021-04-01T09:13:54.523Z</time>
      </trkpt>
      <trkpt lat="43.1112461" lon="-2.762337">
        <ele>153.229</ele>
        <time>2021-04-01T09:13:54.581Z</time>
      </trkpt>
      <trkpt lat="43.1112492" lon="-2.7623399">
        <ele>153.273</ele>
        <time>2021-04-01T09:13:54.639Z</time>
      </trkpt>
      <trkpt lat="43.1112524" lon="-2.762343">
        <ele>153.33</ele>
        <time>2021-04-01T09:13:54.697Z</time>
      </trkpt>
      <trkpt lat="43.1112555" lon="-2.7623461">
        <ele>153.366</ele>
        <time>2021-04-01T09:13:54.755Z</time>
      </trkpt>
      <trkpt lat="43.1112588" lon="-2.7623487">
        <ele>153.39</ele>
        <time>2021-04-01T09:13:54.814Z</time>
      </trkpt>
      <trkpt lat="43.1112622" lon="-2.7623516">
        <ele>153.4</ele>
        <time>2021-04-01T09:13:54.865Z</time>
      </trkpt>
      <trkpt lat="43.1112652" lon="-2.7623542">
        <ele>153.401</ele>
        <time>2021-04-01T09:13:54.917Z</time>
      </trkpt>
      <trkpt lat="43.1112683" lon="-2.7623566">
        <ele>153.385</ele>
        <time>2021-04-01T09:13:54.969Z</time>
      </trkpt>
      <trkpt lat="43.1112713" lon="-2.762359">
        <ele>153.358</ele>
        <time>2021-04-01T09:13:55.021Z</time>
      </trkpt>
      <trkpt lat="43.1112746" lon="-2.7623612">
        <ele>153.359</ele>
        <time>2021-04-01T09:13:55.073Z</time>
      </trkpt>
      <trkpt lat="43.1112779" lon="-2.7623639">
        <ele>153.402</ele>
        <time>2021-04-01T09:13:55.125Z</time>
      </trkpt>
      <trkpt lat="43.1112812" lon="-2.7623666">
        <ele>153.433</ele>
        <time>2021-04-01T09:13:55.177Z</time>
      </trkpt>
      <trkpt lat="43.1112846" lon="-2.7623692">
        <ele>153.47</ele>
        <time>2021-04-01T09:13:55.229Z</time>
      </trkpt>
      <trkpt lat="43.1112879" lon="-2.762372">
        <ele>153.514</ele>
        <time>2021-04-01T09:13:55.281Z</time>
      </trkpt>
      <trkpt lat="43.111291" lon="-2.7623744">
        <ele>153.539</ele>
        <time>2021-04-01T09:13:55.333Z</time>
      </trkpt>
      <trkpt lat="43.1112942" lon="-2.7623765">
        <ele>153.51</ele>
        <time>2021-04-01T09:13:55.385Z</time>
      </trkpt>
      <trkpt lat="43.1112975" lon="-2.762379">
        <ele>153.507</ele>
        <time>2021-04-01T09:13:55.437Z</time>
      </trkpt>
      <trkpt lat="43.1113007" lon="-2.7623815">
        <ele>153.539</ele>
        <time>2021-04-01T09:13:55.489Z</time>
      </trkpt>
      <trkpt lat="43.1113037" lon="-2.7623844">
        <ele>153.591</ele>
        <time>2021-04-01T09:13:55.541Z</time>
      </trkpt>
      <trkpt lat="43.1113066" lon="-2.7623871">
        <ele>153.575</ele>
        <time>2021-04-01T09:13:55.593Z</time>
      </trkpt>
      <trkpt lat="43.1113095" lon="-2.7623897">
        <ele>153.554</ele>
        <time>2021-04-01T09:13:55.645Z</time>
      </trkpt>
      <trkpt lat="43.1113127" lon="-2.7623922">
        <ele>153.582</ele>
        <time>2021-04-01T09:13:55.697Z</time>
      </trkpt>
      <trkpt lat="43.111316" lon="-2.7623948">
        <ele>153.621</ele>
        <time>2021-04-01T09:13:55.749Z</time>
      </trkpt>
      <trkpt lat="43.1113192" lon="-2.7623974">
        <ele>153.629</ele>
        <time>2021-04-01T09:13:55.804Z</time>
      </trkpt>
      <trkpt lat="43.1113224" lon="-2.7624001">
        <ele>153.674</ele>
        <time>2021-04-01T09:13:55.859Z</time>
      </trkpt>
      <trkpt lat="43.1113256" lon="-2.7624026">
        <ele>153.692</ele>
        <time>2021-04-01T09:13:55.914Z</time>
      </trkpt>
      <trkpt lat="43.1113288" lon="-2.7624054">
        <ele>153.752</ele>
        <time>2021-04-01T09:13:55.969Z</time>
      </trkpt>
      <trkpt lat="43.1113323" lon="-2.7624076">
        <ele>153.753</ele>
        <time>2021-04-01T09:13:56.024Z</time>
      </trkpt>
      <trkpt lat="43.1113353" lon="-2.7624105">
        <ele>153.816</ele>
        <time>2021-04-01T09:13:56.079Z</time>
      </trkpt>
      <trkpt lat="43.1113382" lon="-2.7624129">
        <ele>153.792</ele>
        <time>2021-04-01T09:13:56.134Z</time>
      </trkpt>
      <trkpt lat="43.1113412" lon="-2.7624158">
        <ele>153.835</ele>
        <time>2021-04-01T09:13:56.189Z</time>
      </trkpt>
      <trkpt lat="43.1113446" lon="-2.7624188">
        <ele>153.936</ele>
        <time>2021-04-01T09:13:56.244Z</time>
      </trkpt>
      <trkpt lat="43.1113475" lon="-2.7624212">
        <ele>153.948</ele>
        <time>2021-04-01T09:13:56.299Z</time>
      </trkpt>
      <trkpt lat="43.1113506" lon="-2.7624244">
        <ele>154.06</ele>
        <time>2021-04-01T09:13:56.354Z</time>
      </trkpt>
      <trkpt lat="43.1113536" lon="-2.7624279">
        <ele>154.22</ele>
        <time>2021-04-01T09:13:56.409Z</time>
      </trkpt>
      <trkpt lat="43.1113568" lon="-2.762431">
        <ele>154.312</ele>
        <time>2021-04-01T09:13:56.464Z</time>
      </trkpt>
      <trkpt lat="43.1113594" lon="-2.7624335">
        <ele>154.299</ele>
        <time>2021-04-01T09:13:56.519Z</time>
      </trkpt>
      <trkpt lat="43.1113623" lon="-2.7624359">
        <ele>154.295</ele>
        <time>2021-04-01T09:13:56.574Z</time>
      </trkpt>
      <trkpt lat="43.1113654" lon="-2.7624385">
        <ele>154.332</ele>
        <time>2021-04-01T09:13:56.629Z</time>
      </trkpt>
      <trkpt lat="43.1113684" lon="-2.762441">
        <ele>154.347</ele>
        <time>2021-04-01T09:13:56.684Z</time>
      </trkpt>
      <trkpt lat="43.1113714" lon="-2.7624436">
        <ele>154.359</ele>
        <time>2021-04-01T09:13:56.739Z</time>
      </trkpt>
      <trkpt lat="43.1113743" lon="-2.762446">
        <ele>154.368</ele>
        <time>2021-04-01T09:13:56.794Z</time>
      </trkpt>
      <trkpt lat="43.1113773" lon="-2.7624486">
        <ele>154.376</ele>
        <time>2021-04-01T09:13:56.852Z</time>
      </trkpt>
      <trkpt lat="43.1113806" lon="-2.762451">
        <ele>154.426</ele>
        <time>2021-04-01T09:13:56.910Z</time>
      </trkpt>
      <trkpt lat="43.1113838" lon="-2.7624534">
        <ele>154.473</ele>
        <time>2021-04-01T09:13:56.968Z</time>
      </trkpt>
      <trkpt lat="43.1113869" lon="-2.7624558">
        <ele>154.498</ele>
        <time>2021-04-01T09:13:57.026Z</time>
      </trkpt>
      <trkpt lat="43.1113899" lon="-2.7624584">
        <ele>154.513</ele>
        <time>2021-04-01T09:13:57.085Z</time>
      </trkpt>
      <trkpt lat="43.1113929" lon="-2.7624613">
        <ele>154.539</ele>
        <time>2021-04-01T09:13:57.143Z</time>
      </trkpt>
      <trkpt lat="43.1113961" lon="-2.762464">
        <ele>154.568</ele>
        <time>2021-04-01T09:13:57.201Z</time>
      </trkpt>
      <trkpt lat="43.1113988" lon="-2.7624666">
        <ele>154.547</ele>
        <time>2021-04-01T09:13:57.259Z</time>
      </trkpt>
      <trkpt lat="43.111401" lon="-2.7624688">
        <ele>154.43</ele>
        <time>2021-04-01T09:13:57.318Z</time>
      </trkpt>
      <trkpt lat="43.1114036" lon="-2.762471">
        <ele>154.36</ele>
        <time>2021-04-01T09:13:57.376Z</time>
      </trkpt>
      <trkpt lat="43.1114069" lon="-2.7624732">
        <ele>154.407</ele>
        <time>2021-04-01T09:13:57.434Z</time>
      </trkpt>
      <trkpt lat="43.1114097" lon="-2.7624757">
        <ele>154.391</ele>
        <time>2021-04-01T09:13:57.492Z</time>
      </trkpt>
      <trkpt lat="43.1114125" lon="-2.7624783">
        <ele>154.4</ele>
        <time>2021-04-01T09:13:57.551Z</time>
      </trkpt>
      <trkpt lat="43.1114154" lon="-2.7624809">
        <ele>154.394</ele>
        <time>2021-04-01T09:13:57.609Z</time>
      </trkpt>
      <trkpt lat="43.1114184" lon="-2.7624832">
        <ele>154.408</ele>
        <time>2021-04-01T09:13:57.667Z</time>
      </trkpt>
      <trkpt lat="43.1114211" lon="-2.7624855">
        <ele>154.385</ele>
        <time>2021-04-01T09:13:57.725Z</time>
      </trkpt>
      <trkpt lat="43.111424" lon="-2.7624879">
        <ele>154.388</ele>
        <time>2021-04-01T09:13:57.784Z</time>
      </trkpt>
      <trkpt lat="43.1114268" lon="-2.7624903">
        <ele>154.392</ele>
        <time>2021-04-01T09:13:57.836Z</time>
      </trkpt>
      <trkpt lat="43.1114296" lon="-2.7624927">
        <ele>154.408</ele>
        <time>2021-04-01T09:13:57.888Z</time>
      </trkpt>
      <trkpt lat="43.1114325" lon="-2.7624951">
        <ele>154.416</ele>
        <time>2021-04-01T09:13:57.940Z</time>
      </trkpt>
      <trkpt lat="43.1114356" lon="-2.7624975">
        <ele>154.428</ele>
        <time>2021-04-01T09:13:57.992Z</time>
      </trkpt>
      <trkpt lat="43.1114385" lon="-2.7625003">
        <ele>154.434</ele>
        <time>2021-04-01T09:13:58.044Z</time>
      </trkpt>
      <trkpt lat="43.1114415" lon="-2.7625026">
        <ele>154.444</ele>
        <time>2021-04-01T09:13:58.096Z</time>
      </trkpt>
      <trkpt lat="43.1114445" lon="-2.7625048">
        <ele>154.47</ele>
        <time>2021-04-01T09:13:58.148Z</time>
      </trkpt>
      <trkpt lat="43.1114477" lon="-2.7625069">
        <ele>154.515</ele>
        <time>2021-04-01T09:13:58.200Z</time>
      </trkpt>
      <trkpt lat="43.1114505" lon="-2.7625096">
        <ele>154.491</ele>
        <time>2021-04-01T09:13:58.252Z</time>
      </trkpt>
      <trkpt lat="43.1114539" lon="-2.7625119">
        <ele>154.521</ele>
        <time>2021-04-01T09:13:58.305Z</time>
      </trkpt>
      <trkpt lat="43.111457" lon="-2.7625143">
        <ele>154.548</ele>
        <time>2021-04-01T09:13:58.357Z</time>
      </trkpt>
      <trkpt lat="43.11146" lon="-2.7625166">
        <ele>154.565</ele>
        <time>2021-04-01T09:13:58.409Z</time>
      </trkpt>
      <trkpt lat="43.1114629" lon="-2.762519">
        <ele>154.582</ele>
        <time>2021-04-01T09:13:58.461Z</time>
      </trkpt>
      <trkpt lat="43.1114658" lon="-2.7625215">
        <ele>154.621</ele>
        <time>2021-04-01T09:13:58.513Z</time>
      </trkpt>
      <trkpt lat="43.1114686" lon="-2.7625243">
        <ele>154.673</ele>
        <time>2021-04-01T09:13:58.565Z</time>
      </trkpt>
      <trkpt lat="43.1114715" lon="-2.7625271">
        <ele>154.725</ele>
        <time>2021-04-01T09:13:58.617Z</time>
      </trkpt>
      <trkpt lat="43.1114745" lon="-2.7625298">
        <ele>154.767</ele>
        <time>2021-04-01T09:13:58.669Z</time>
      </trkpt>
      <trkpt lat="43.1114776" lon="-2.762532">
        <ele>154.778</ele>
        <time>2021-04-01T09:13:58.721Z</time>
      </trkpt>
      <trkpt lat="43.1114801" lon="-2.7625349">
        <ele>154.806</ele>
        <time>2021-04-01T09:13:58.774Z</time>
      </trkpt>
      <trkpt lat="43.1114829" lon="-2.7625375">
        <ele>154.834</ele>
        <time>2021-04-01T09:13:58.829Z</time>
      </trkpt>
      <trkpt lat="43.1114858" lon="-2.7625401">
        <ele>154.872</ele>
        <time>2021-04-01T09:13:58.884Z</time>
      </trkpt>
      <trkpt lat="43.1114888" lon="-2.7625427">
        <ele>154.9</ele>
        <time>2021-04-01T09:13:58.939Z</time>
      </trkpt>
      <trkpt lat="43.1114917" lon="-2.7625451">
        <ele>154.917</ele>
        <time>2021-04-01T09:13:58.994Z</time>
      </trkpt>
      <trkpt lat="43.1114946" lon="-2.7625478">
        <ele>154.943</ele>
        <time>2021-04-01T09:13:59.049Z</time>
      </trkpt>
      <trkpt lat="43.1114973" lon="-2.7625505">
        <ele>154.963</ele>
        <time>2021-04-01T09:13:59.104Z</time>
      </trkpt>
      <trkpt lat="43.1115002" lon="-2.7625531">
        <ele>154.964</ele>
        <time>2021-04-01T09:13:59.159Z</time>
      </trkpt>
      <trkpt lat="43.1115028" lon="-2.7625557">
        <ele>154.981</ele>
        <time>2021-04-01T09:13:59.214Z</time>
      </trkpt>
      <trkpt lat="43.1115056" lon="-2.762558">
        <ele>154.971</ele>
        <time>2021-04-01T09:13:59.269Z</time>
      </trkpt>
      <trkpt lat="43.1115087" lon="-2.7625601">
        <ele>154.976</ele>
        <time>2021-04-01T09:13:59.324Z</time>
      </trkpt>
      <trkpt lat="43.1115123" lon="-2.7625615">
        <ele>154.967</ele>
        <time>2021-04-01T09:13:59.379Z</time>
      </trkpt>
      <trkpt lat="43.1115155" lon="-2.7625638">
        <ele>155.004</ele>
        <time>2021-04-01T09:13:59.434Z</time>
      </trkpt>
      <trkpt lat="43.1115187" lon="-2.7625661">
        <ele>155.031</ele>
        <time>2021-04-01T09:13:59.489Z</time>
      </trkpt>
      <trkpt lat="43.1115217" lon="-2.7625683">
        <ele>155.041</ele>
        <time>2021-04-01T09:13:59.544Z</time>
      </trkpt>
      <trkpt lat="43.1115245" lon="-2.7625704">
        <ele>155.048</ele>
        <time>2021-04-01T09:13:59.599Z</time>
      </trkpt>
      <trkpt lat="43.111527" lon="-2.7625724">
        <ele>155.025</ele>
        <time>2021-04-01T09:13:59.654Z</time>
      </trkpt>
      <trkpt lat="43.1115294" lon="-2.7625752">
        <ele>155.028</ele>
        <time>2021-04-01T09:13:59.709Z</time>
      </trkpt>
      <trkpt lat="43.1115324" lon="-2.7625781">
        <ele>155.093</ele>
        <time>2021-04-01T09:13:59.764Z</time>
      </trkpt>
      <trkpt lat="43.1115352" lon="-2.7625808">
        <ele>155.138</ele>
        <time>2021-04-01T09:13:59.822Z</time>
      </trkpt>
      <trkpt lat="43.1115381" lon="-2.7625838">
        <ele>155.207</ele>
        <time>2021-04-01T09:13:59.880Z</time>
      </trkpt>
      <trkpt lat="43.1115412" lon="-2.7625862">
        <ele>155.238</ele>
        <time>2021-04-01T09:13:59.938Z</time>
      </trkpt>
      <trkpt lat="43.111544" lon="-2.7625887">
        <ele>155.249</ele>
        <time>2021-04-01T09:13:59.996Z</time>
      </trkpt>
      <trkpt lat="43.111547" lon="-2.7625914">
        <ele>155.307</ele>
        <time>2021-04-01T09:14:00.054Z</time>
      </trkpt>
      <trkpt lat="43.1115498" lon="-2.7625944">
        <ele>155.371</ele>
        <time>2021-04-01T09:14:00.112Z</time>
      </trkpt>
      <trkpt lat="43.1115527" lon="-2.762597">
        <ele>155.421</ele>
        <time>2021-04-01T09:14:00.170Z</time>
      </trkpt>
      <trkpt lat="43.1115556" lon="-2.7625999">
        <ele>155.468</ele>
        <time>2021-04-01T09:14:00.228Z</time>
      </trkpt>
      <trkpt lat="43.1115585" lon="-2.7626027">
        <ele>155.51</ele>
        <time>2021-04-01T09:14:00.286Z</time>
      </trkpt>
      <trkpt lat="43.1115613" lon="-2.7626051">
        <ele>155.506</ele>
        <time>2021-04-01T09:14:00.344Z</time>
      </trkpt>
      <trkpt lat="43.111564" lon="-2.7626075">
        <ele>155.507</ele>
        <time>2021-04-01T09:14:00.402Z</time>
      </trkpt>
      <trkpt lat="43.1115668" lon="-2.76261">
        <ele>155.547</ele>
        <time>2021-04-01T09:14:00.460Z</time>
      </trkpt>
      <trkpt lat="43.1115698" lon="-2.7626123">
        <ele>155.58</ele>
        <time>2021-04-01T09:14:00.518Z</time>
      </trkpt>
      <trkpt lat="43.1115725" lon="-2.7626148">
        <ele>155.582</ele>
        <time>2021-04-01T09:14:00.576Z</time>
      </trkpt>
      <trkpt lat="43.1115755" lon="-2.7626173">
        <ele>155.608</ele>
        <time>2021-04-01T09:14:00.634Z</time>
      </trkpt>
      <trkpt lat="43.1115783" lon="-2.7626198">
        <ele>155.62</ele>
        <time>2021-04-01T09:14:00.692Z</time>
      </trkpt>
      <trkpt lat="43.1115811" lon="-2.7626223">
        <ele>155.642</ele>
        <time>2021-04-01T09:14:00.750Z</time>
      </trkpt>
      <trkpt lat="43.1115837" lon="-2.7626246">
        <ele>155.643</ele>
        <time>2021-04-01T09:14:00.809Z</time>
      </trkpt>
      <trkpt lat="43.1115864" lon="-2.7626267">
        <ele>155.621</ele>
        <time>2021-04-01T09:14:00.858Z</time>
      </trkpt>
      <trkpt lat="43.1115892" lon="-2.762629">
        <ele>155.631</ele>
        <time>2021-04-01T09:14:00.907Z</time>
      </trkpt>
      <trkpt lat="43.1115922" lon="-2.7626314">
        <ele>155.66</ele>
        <time>2021-04-01T09:14:00.956Z</time>
      </trkpt>
      <trkpt lat="43.1115951" lon="-2.7626339">
        <ele>155.702</ele>
        <time>2021-04-01T09:14:01.005Z</time>
      </trkpt>
      <trkpt lat="43.1115983" lon="-2.7626364">
        <ele>155.742</ele>
        <time>2021-04-01T09:14:01.055Z</time>
      </trkpt>
      <trkpt lat="43.1116014" lon="-2.7626385">
        <ele>155.763</ele>
        <time>2021-04-01T09:14:01.104Z</time>
      </trkpt>
      <trkpt lat="43.1116043" lon="-2.7626407">
        <ele>155.802</ele>
        <time>2021-04-01T09:14:01.153Z</time>
      </trkpt>
      <trkpt lat="43.1116071" lon="-2.7626433">
        <ele>155.844</ele>
        <time>2021-04-01T09:14:01.202Z</time>
      </trkpt>
      <trkpt lat="43.11161" lon="-2.7626459">
        <ele>155.861</ele>
        <time>2021-04-01T09:14:01.251Z</time>
      </trkpt>
      <trkpt lat="43.1116127" lon="-2.7626481">
        <ele>155.827</ele>
        <time>2021-04-01T09:14:01.301Z</time>
      </trkpt>
      <trkpt lat="43.1116154" lon="-2.7626506">
        <ele>155.833</ele>
        <time>2021-04-01T09:14:01.350Z</time>
      </trkpt>
      <trkpt lat="43.1116184" lon="-2.7626531">
        <ele>155.841</ele>
        <time>2021-04-01T09:14:01.399Z</time>
      </trkpt>
      <trkpt lat="43.1116216" lon="-2.7626555">
        <ele>155.873</ele>
        <time>2021-04-01T09:14:01.448Z</time>
      </trkpt>
      <trkpt lat="43.1116242" lon="-2.7626579">
        <ele>155.873</ele>
        <time>2021-04-01T09:14:01.497Z</time>
      </trkpt>
      <trkpt lat="43.1116273" lon="-2.7626602">
        <ele>155.906</ele>
        <time>2021-04-01T09:14:01.547Z</time>
      </trkpt>
      <trkpt lat="43.1116303" lon="-2.7626627">
        <ele>155.93</ele>
        <time>2021-04-01T09:14:01.596Z</time>
      </trkpt>
      <trkpt lat="43.1116333" lon="-2.7626652">
        <ele>155.961</ele>
        <time>2021-04-01T09:14:01.645Z</time>
      </trkpt>
      <trkpt lat="43.1116364" lon="-2.7626674">
        <ele>155.97</ele>
        <time>2021-04-01T09:14:01.694Z</time>
      </trkpt>
      <trkpt lat="43.1116392" lon="-2.7626696">
        <ele>155.947</ele>
        <time>2021-04-01T09:14:01.744Z</time>
      </trkpt>
      <trkpt lat="43.111642" lon="-2.7626719">
        <ele>155.94</ele>
        <time>2021-04-01T09:14:01.802Z</time>
      </trkpt>
      <trkpt lat="43.1116449" lon="-2.762674">
        <ele>155.959</ele>
        <time>2021-04-01T09:14:01.860Z</time>
      </trkpt>
      <trkpt lat="43.1116478" lon="-2.7626761">
        <ele>155.978</ele>
        <time>2021-04-01T09:14:01.918Z</time>
      </trkpt>
      <trkpt lat="43.1116508" lon="-2.7626784">
        <ele>155.994</ele>
        <time>2021-04-01T09:14:01.976Z</time>
      </trkpt>
      <trkpt lat="43.1116539" lon="-2.7626807">
        <ele>156.015</ele>
        <time>2021-04-01T09:14:02.034Z</time>
      </trkpt>
      <trkpt lat="43.1116568" lon="-2.7626832">
        <ele>156.027</ele>
        <time>2021-04-01T09:14:02.092Z</time>
      </trkpt>
      <trkpt lat="43.1116596" lon="-2.7626855">
        <ele>156.05</ele>
        <time>2021-04-01T09:14:02.150Z</time>
      </trkpt>
      <trkpt lat="43.1116623" lon="-2.7626881">
        <ele>156.06</ele>
        <time>2021-04-01T09:14:02.208Z</time>
      </trkpt>
      <trkpt lat="43.111665" lon="-2.7626908">
        <ele>156.087</ele>
        <time>2021-04-01T09:14:02.266Z</time>
      </trkpt>
      <trkpt lat="43.1116678" lon="-2.7626933">
        <ele>156.118</ele>
        <time>2021-04-01T09:14:02.324Z</time>
      </trkpt>
      <trkpt lat="43.1116705" lon="-2.7626959">
        <ele>156.129</ele>
        <time>2021-04-01T09:14:02.382Z</time>
      </trkpt>
      <trkpt lat="43.1116734" lon="-2.7626984">
        <ele>156.137</ele>
        <time>2021-04-01T09:14:02.440Z</time>
      </trkpt>
      <trkpt lat="43.1116763" lon="-2.7627009">
        <ele>156.159</ele>
        <time>2021-04-01T09:14:02.498Z</time>
      </trkpt>
      <trkpt lat="43.1116792" lon="-2.7627034">
        <ele>156.189</ele>
        <time>2021-04-01T09:14:02.556Z</time>
      </trkpt>
      <trkpt lat="43.1116821" lon="-2.7627059">
        <ele>156.235</ele>
        <time>2021-04-01T09:14:02.614Z</time>
      </trkpt>
      <trkpt lat="43.1116848" lon="-2.7627081">
        <ele>156.239</ele>
        <time>2021-04-01T09:14:02.672Z</time>
      </trkpt>
      <trkpt lat="43.1116874" lon="-2.7627109">
        <ele>156.278</ele>
        <time>2021-04-01T09:14:02.730Z</time>
      </trkpt>
      <trkpt lat="43.1116904" lon="-2.7627132">
        <ele>156.285</ele>
        <time>2021-04-01T09:14:02.789Z</time>
      </trkpt>
      <trkpt lat="43.1116929" lon="-2.7627156">
        <ele>156.245</ele>
        <time>2021-04-01T09:14:02.844Z</time>
      </trkpt>
      <trkpt lat="43.1116959" lon="-2.7627181">
        <ele>156.286</ele>
        <time>2021-04-01T09:14:02.899Z</time>
      </trkpt>
      <trkpt lat="43.111699" lon="-2.7627203">
        <ele>156.299</ele>
        <time>2021-04-01T09:14:02.954Z</time>
      </trkpt>
      <trkpt lat="43.1117019" lon="-2.7627225">
        <ele>156.293</ele>
        <time>2021-04-01T09:14:03.009Z</time>
      </trkpt>
      <trkpt lat="43.111705" lon="-2.7627244">
        <ele>156.281</ele>
        <time>2021-04-01T09:14:03.064Z</time>
      </trkpt>
      <trkpt lat="43.1117079" lon="-2.7627265">
        <ele>156.309</ele>
        <time>2021-04-01T09:14:03.119Z</time>
      </trkpt>
      <trkpt lat="43.111711" lon="-2.7627287">
        <ele>156.316</ele>
        <time>2021-04-01T09:14:03.174Z</time>
      </trkpt>
      <trkpt lat="43.1117137" lon="-2.7627315">
        <ele>156.322</ele>
        <time>2021-04-01T09:14:03.229Z</time>
      </trkpt>
      <trkpt lat="43.1117165" lon="-2.7627337">
        <ele>156.333</ele>
        <time>2021-04-01T09:14:03.284Z</time>
      </trkpt>
      <trkpt lat="43.1117196" lon="-2.762736">
        <ele>156.379</ele>
        <time>2021-04-01T09:14:03.339Z</time>
      </trkpt>
      <trkpt lat="43.1117224" lon="-2.7627385">
        <ele>156.387</ele>
        <time>2021-04-01T09:14:03.394Z</time>
      </trkpt>
      <trkpt lat="43.1117252" lon="-2.7627409">
        <ele>156.409</ele>
        <time>2021-04-01T09:14:03.449Z</time>
      </trkpt>
      <trkpt lat="43.1117281" lon="-2.7627431">
        <ele>156.415</ele>
        <time>2021-04-01T09:14:03.504Z</time>
      </trkpt>
      <trkpt lat="43.111731" lon="-2.7627452">
        <ele>156.425</ele>
        <time>2021-04-01T09:14:03.559Z</time>
      </trkpt>
      <trkpt lat="43.1117339" lon="-2.7627478">
        <ele>156.45</ele>
        <time>2021-04-01T09:14:03.614Z</time>
      </trkpt>
      <trkpt lat="43.1117364" lon="-2.7627503">
        <ele>156.45</ele>
        <time>2021-04-01T09:14:03.669Z</time>
      </trkpt>
      <trkpt lat="43.1117396" lon="-2.7627525">
        <ele>156.48</ele>
        <time>2021-04-01T09:14:03.724Z</time>
      </trkpt>
      <trkpt lat="43.1117422" lon="-2.7627549">
        <ele>156.472</ele>
        <time>2021-04-01T09:14:03.779Z</time>
      </trkpt>
      <trkpt lat="43.1117448" lon="-2.7627575">
        <ele>156.499</ele>
        <time>2021-04-01T09:14:03.834Z</time>
      </trkpt>
      <trkpt lat="43.1117479" lon="-2.7627601">
        <ele>156.563</ele>
        <time>2021-04-01T09:14:03.889Z</time>
      </trkpt>
      <trkpt lat="43.1117508" lon="-2.7627628">
        <ele>156.601</ele>
        <time>2021-04-01T09:14:03.944Z</time>
      </trkpt>
      <trkpt lat="43.1117536" lon="-2.7627652">
        <ele>156.603</ele>
        <time>2021-04-01T09:14:03.999Z</time>
      </trkpt>
      <trkpt lat="43.1117568" lon="-2.7627674">
        <ele>156.622</ele>
        <time>2021-04-01T09:14:04.054Z</time>
      </trkpt>
      <trkpt lat="43.1117595" lon="-2.7627699">
        <ele>156.649</ele>
        <time>2021-04-01T09:14:04.109Z</time>
      </trkpt>
      <trkpt lat="43.1117623" lon="-2.7627726">
        <ele>156.696</ele>
        <time>2021-04-01T09:14:04.164Z</time>
      </trkpt>
      <trkpt lat="43.111765" lon="-2.762775">
        <ele>156.718</ele>
        <time>2021-04-01T09:14:04.219Z</time>
      </trkpt>
      <trkpt lat="43.1117679" lon="-2.7627773">
        <ele>156.726</ele>
        <time>2021-04-01T09:14:04.274Z</time>
      </trkpt>
      <trkpt lat="43.1117707" lon="-2.7627797">
        <ele>156.737</ele>
        <time>2021-04-01T09:14:04.329Z</time>
      </trkpt>
      <trkpt lat="43.1117735" lon="-2.7627825">
        <ele>156.765</ele>
        <time>2021-04-01T09:14:04.384Z</time>
      </trkpt>
      <trkpt lat="43.1117762" lon="-2.762785">
        <ele>156.79</ele>
        <time>2021-04-01T09:14:04.439Z</time>
      </trkpt>
      <trkpt lat="43.1117791" lon="-2.7627873">
        <ele>156.809</ele>
        <time>2021-04-01T09:14:04.494Z</time>
      </trkpt>
      <trkpt lat="43.1117819" lon="-2.7627896">
        <ele>156.814</ele>
        <time>2021-04-01T09:14:04.549Z</time>
      </trkpt>
      <trkpt lat="43.1117847" lon="-2.7627919">
        <ele>156.823</ele>
        <time>2021-04-01T09:14:04.604Z</time>
      </trkpt>
      <trkpt lat="43.1117873" lon="-2.7627946">
        <ele>156.834</ele>
        <time>2021-04-01T09:14:04.659Z</time>
      </trkpt>
      <trkpt lat="43.1117899" lon="-2.7627971">
        <ele>156.837</ele>
        <time>2021-04-01T09:14:04.714Z</time>
      </trkpt>
      <trkpt lat="43.1117926" lon="-2.7627996">
        <ele>156.85</ele>
        <time>2021-04-01T09:14:04.769Z</time>
      </trkpt>
      <trkpt lat="43.1117955" lon="-2.762802">
        <ele>156.886</ele>
        <time>2021-04-01T09:14:04.827Z</time>
      </trkpt>
      <trkpt lat="43.1117985" lon="-2.7628044">
        <ele>156.92</ele>
        <time>2021-04-01T09:14:04.885Z</time>
      </trkpt>
      <trkpt lat="43.1118015" lon="-2.7628064">
        <ele>156.942</ele>
        <time>2021-04-01T09:14:04.943Z</time>
      </trkpt>
      <trkpt lat="43.1118044" lon="-2.7628088">
        <ele>156.975</ele>
        <time>2021-04-01T09:14:05.001Z</time>
      </trkpt>
      <trkpt lat="43.1118069" lon="-2.7628116">
        <ele>156.997</ele>
        <time>2021-04-01T09:14:05.059Z</time>
      </trkpt>
      <trkpt lat="43.1118097" lon="-2.7628143">
        <ele>157.023</ele>
        <time>2021-04-01T09:14:05.117Z</time>
      </trkpt>
      <trkpt lat="43.1118124" lon="-2.7628169">
        <ele>157.064</ele>
        <time>2021-04-01T09:14:05.175Z</time>
      </trkpt>
      <trkpt lat="43.1118152" lon="-2.7628195">
        <ele>157.094</ele>
        <time>2021-04-01T09:14:05.233Z</time>
      </trkpt>
      <trkpt lat="43.111818" lon="-2.7628221">
        <ele>157.109</ele>
        <time>2021-04-01T09:14:05.291Z</time>
      </trkpt>
      <trkpt lat="43.1118207" lon="-2.7628247">
        <ele>157.146</ele>
        <time>2021-04-01T09:14:05.349Z</time>
      </trkpt>
      <trkpt lat="43.1118235" lon="-2.7628273">
        <ele>157.186</ele>
        <time>2021-04-01T09:14:05.407Z</time>
      </trkpt>
      <trkpt lat="43.1118262" lon="-2.76283">
        <ele>157.217</ele>
        <time>2021-04-01T09:14:05.465Z</time>
      </trkpt>
      <trkpt lat="43.1118292" lon="-2.7628325">
        <ele>157.255</ele>
        <time>2021-04-01T09:14:05.523Z</time>
      </trkpt>
      <trkpt lat="43.1118317" lon="-2.7628352">
        <ele>157.244</ele>
        <time>2021-04-01T09:14:05.581Z</time>
      </trkpt>
      <trkpt lat="43.1118344" lon="-2.7628378">
        <ele>157.252</ele>
        <time>2021-04-01T09:14:05.639Z</time>
      </trkpt>
      <trkpt lat="43.1118371" lon="-2.7628401">
        <ele>157.266</ele>
        <time>2021-04-01T09:14:05.697Z</time>
      </trkpt>
      <trkpt lat="43.11184" lon="-2.7628424">
        <ele>157.268</ele>
        <time>2021-04-01T09:14:05.755Z</time>
      </trkpt>
      <trkpt lat="43.1118429" lon="-2.7628445">
        <ele>157.285</ele>
        <time>2021-04-01T09:14:05.814Z</time>
      </trkpt>
      <trkpt lat="43.1118456" lon="-2.7628468">
        <ele>157.3</ele>
        <time>2021-04-01T09:14:05.865Z</time>
      </trkpt>
      <trkpt lat="43.1118484" lon="-2.7628494">
        <ele>157.318</ele>
        <time>2021-04-01T09:14:05.917Z</time>
      </trkpt>
      <trkpt lat="43.1118511" lon="-2.762852">
        <ele>157.342</ele>
        <time>2021-04-01T09:14:05.969Z</time>
      </trkpt>
      <trkpt lat="43.1118538" lon="-2.7628546">
        <ele>157.363</ele>
        <time>2021-04-01T09:14:06.021Z</time>
      </trkpt>
      <trkpt lat="43.1118565" lon="-2.7628574">
        <ele>157.384</ele>
        <time>2021-04-01T09:14:06.073Z</time>
      </trkpt>
      <trkpt lat="43.1118592" lon="-2.7628603">
        <ele>157.423</ele>
        <time>2021-04-01T09:14:06.125Z</time>
      </trkpt>
      <trkpt lat="43.1118618" lon="-2.7628627">
        <ele>157.425</ele>
        <time>2021-04-01T09:14:06.177Z</time>
      </trkpt>
      <trkpt lat="43.1118646" lon="-2.7628645">
        <ele>157.416</ele>
        <time>2021-04-01T09:14:06.229Z</time>
      </trkpt>
      <trkpt lat="43.1118673" lon="-2.7628669">
        <ele>157.422</ele>
        <time>2021-04-01T09:14:06.281Z</time>
      </trkpt>
      <trkpt lat="43.1118703" lon="-2.7628693">
        <ele>157.433</ele>
        <time>2021-04-01T09:14:06.333Z</time>
      </trkpt>
      <trkpt lat="43.1118734" lon="-2.7628714">
        <ele>157.447</ele>
        <time>2021-04-01T09:14:06.385Z</time>
      </trkpt>
      <trkpt lat="43.1118764" lon="-2.7628738">
        <ele>157.467</ele>
        <time>2021-04-01T09:14:06.437Z</time>
      </trkpt>
      <trkpt lat="43.1118793" lon="-2.7628763">
        <ele>157.498</ele>
        <time>2021-04-01T09:14:06.489Z</time>
      </trkpt>
      <trkpt lat="43.1118821" lon="-2.7628788">
        <ele>157.529</ele>
        <time>2021-04-01T09:14:06.541Z</time>
      </trkpt>
      <trkpt lat="43.1118849" lon="-2.7628813">
        <ele>157.576</ele>
        <time>2021-04-01T09:14:06.593Z</time>
      </trkpt>
      <trkpt lat="43.1118876" lon="-2.7628842">
        <ele>157.61</ele>
        <time>2021-04-01T09:14:06.645Z</time>
      </trkpt>
      <trkpt lat="43.1118903" lon="-2.7628868">
        <ele>157.647</ele>
        <time>2021-04-01T09:14:06.697Z</time>
      </trkpt>
      <trkpt lat="43.1118929" lon="-2.7628896">
        <ele>157.663</ele>
        <time>2021-04-01T09:14:06.749Z</time>
      </trkpt>
      <trkpt lat="43.1118954" lon="-2.7628926">
        <ele>157.696</ele>
        <time>2021-04-01T09:14:06.804Z</time>
      </trkpt>
      <trkpt lat="43.111898" lon="-2.7628955">
        <ele>157.727</ele>
        <time>2021-04-01T09:14:06.859Z</time>
      </trkpt>
      <trkpt lat="43.1119007" lon="-2.7628985">
        <ele>157.784</ele>
        <time>2021-04-01T09:14:06.914Z</time>
      </trkpt>
      <trkpt lat="43.1119031" lon="-2.7629016">
        <ele>157.82</ele>
        <time>2021-04-01T09:14:06.969Z</time>
      </trkpt>
      <trkpt lat="43.1119056" lon="-2.7629044">
        <ele>157.856</ele>
        <time>2021-04-01T09:14:07.024Z</time>
      </trkpt>
      <trkpt lat="43.1119081" lon="-2.7629072">
        <ele>157.869</ele>
        <time>2021-04-01T09:14:07.079Z</time>
      </trkpt>
      <trkpt lat="43.1119106" lon="-2.76291">
        <ele>157.868</ele>
        <time>2021-04-01T09:14:07.134Z</time>
      </trkpt>
      <trkpt lat="43.1119132" lon="-2.7629129">
        <ele>157.889</ele>
        <time>2021-04-01T09:14:07.189Z</time>
      </trkpt>
      <trkpt lat="43.111916" lon="-2.7629156">
        <ele>157.912</ele>
        <time>2021-04-01T09:14:07.244Z</time>
      </trkpt>
      <trkpt lat="43.1119186" lon="-2.7629182">
        <ele>157.931</ele>
        <time>2021-04-01T09:14:07.299Z</time>
      </trkpt>
      <trkpt lat="43.1119213" lon="-2.7629206">
        <ele>157.961</ele>
        <time>2021-04-01T09:14:07.354Z</time>
      </trkpt>
      <trkpt lat="43.1119238" lon="-2.7629233">
        <ele>157.979</ele>
        <time>2021-04-01T09:14:07.409Z</time>
      </trkpt>
      <trkpt lat="43.1119263" lon="-2.7629261">
        <ele>157.993</ele>
        <time>2021-04-01T09:14:07.464Z</time>
      </trkpt>
      <trkpt lat="43.1119288" lon="-2.7629286">
        <ele>157.968</ele>
        <time>2021-04-01T09:14:07.519Z</time>
      </trkpt>
      <trkpt lat="43.1119314" lon="-2.7629313">
        <ele>157.98</ele>
        <time>2021-04-01T09:14:07.574Z</time>
      </trkpt>
      <trkpt lat="43.111934" lon="-2.7629337">
        <ele>157.957</ele>
        <time>2021-04-01T09:14:07.629Z</time>
      </trkpt>
      <trkpt lat="43.1119366" lon="-2.7629365">
        <ele>157.981</ele>
        <time>2021-04-01T09:14:07.684Z</time>
      </trkpt>
      <trkpt lat="43.1119391" lon="-2.7629394">
        <ele>158.037</ele>
        <time>2021-04-01T09:14:07.739Z</time>
      </trkpt>
      <trkpt lat="43.1119415" lon="-2.7629423">
        <ele>158.07</ele>
        <time>2021-04-01T09:14:07.794Z</time>
      </trkpt>
      <trkpt lat="43.1119439" lon="-2.7629452">
        <ele>158.09</ele>
        <time>2021-04-01T09:14:07.852Z</time>
      </trkpt>
      <trkpt lat="43.1119465" lon="-2.7629479">
        <ele>158.091</ele>
        <time>2021-04-01T09:14:07.910Z</time>
      </trkpt>
      <trkpt lat="43.111949" lon="-2.7629507">
        <ele>158.122</ele>
        <time>2021-04-01T09:14:07.968Z</time>
      </trkpt>
      <trkpt lat="43.1119517" lon="-2.7629532">
        <ele>158.135</ele>
        <time>2021-04-01T09:14:08.026Z</time>
      </trkpt>
      <trkpt lat="43.1119544" lon="-2.7629564">
        <ele>158.204</ele>
        <time>2021-04-01T09:14:08.085Z</time>
      </trkpt>
      <trkpt lat="43.111957" lon="-2.762959">
        <ele>158.234</ele>
        <time>2021-04-01T09:14:08.143Z</time>
      </trkpt>
      <trkpt lat="43.1119596" lon="-2.7629617">
        <ele>158.27</ele>
        <time>2021-04-01T09:14:08.201Z</time>
      </trkpt>
      <trkpt lat="43.111962" lon="-2.7629644">
        <ele>158.279</ele>
        <time>2021-04-01T09:14:08.259Z</time>
      </trkpt>
      <trkpt lat="43.1119643" lon="-2.762967">
        <ele>158.285</ele>
        <time>2021-04-01T09:14:08.318Z</time>
      </trkpt>
      <trkpt lat="43.1119668" lon="-2.76297">
        <ele>158.313</ele>
        <time>2021-04-01T09:14:08.376Z</time>
      </trkpt>
      <trkpt lat="43.1119696" lon="-2.7629727">
        <ele>158.309</ele>
        <time>2021-04-01T09:14:08.434Z</time>
      </trkpt>
      <trkpt lat="43.111972" lon="-2.7629758">
        <ele>158.348</ele>
        <time>2021-04-01T09:14:08.492Z</time>
      </trkpt>
      <trkpt lat="43.1119743" lon="-2.7629787">
        <ele>158.407</ele>
        <time>2021-04-01T09:14:08.551Z</time>
      </trkpt>
      <trkpt lat="43.1119764" lon="-2.7629816">
        <ele>158.426</ele>
        <time>2021-04-01T09:14:08.609Z</time>
      </trkpt>
      <trkpt lat="43.1119787" lon="-2.7629842">
        <ele>158.384</ele>
        <time>2021-04-01T09:14:08.667Z</time>
      </trkpt>
      <trkpt lat="43.111981" lon="-2.762987">
        <ele>158.371</ele>
        <time>2021-04-01T09:14:08.725Z</time>
      </trkpt>
      <trkpt lat="43.1119835" lon="-2.7629901">
        <ele>158.42</ele>
        <time>2021-04-01T09:14:08.784Z</time>
      </trkpt>
      <trkpt lat="43.111986" lon="-2.762993">
        <ele>158.426</ele>
        <time>2021-04-01T09:14:08.836Z</time>
      </trkpt>
      <trkpt lat="43.1119886" lon="-2.762996">
        <ele>158.461</ele>
        <time>2021-04-01T09:14:08.888Z</time>
      </trkpt>
      <trkpt lat="43.111991" lon="-2.762999">
        <ele>158.505</ele>
        <time>2021-04-01T09:14:08.940Z</time>
      </trkpt>
      <trkpt lat="43.1119935" lon="-2.7630015">
        <ele>158.533</ele>
        <time>2021-04-01T09:14:08.992Z</time>
      </trkpt>
      <trkpt lat="43.1119959" lon="-2.7630044">
        <ele>158.532</ele>
        <time>2021-04-01T09:14:09.044Z</time>
      </trkpt>
      <trkpt lat="43.1119981" lon="-2.7630072">
        <ele>158.52</ele>
        <time>2021-04-01T09:14:09.096Z</time>
      </trkpt>
      <trkpt lat="43.1120004" lon="-2.76301">
        <ele>158.515</ele>
        <time>2021-04-01T09:14:09.148Z</time>
      </trkpt>
      <trkpt lat="43.1120028" lon="-2.7630127">
        <ele>158.487</ele>
        <time>2021-04-01T09:14:09.200Z</time>
      </trkpt>
      <trkpt lat="43.1120053" lon="-2.7630154">
        <ele>158.465</ele>
        <time>2021-04-01T09:14:09.252Z</time>
      </trkpt>
      <trkpt lat="43.1120075" lon="-2.7630186">
        <ele>158.496</ele>
        <time>2021-04-01T09:14:09.305Z</time>
      </trkpt>
      <trkpt lat="43.1120097" lon="-2.763022">
        <ele>158.547</ele>
        <time>2021-04-01T09:14:09.357Z</time>
      </trkpt>
      <trkpt lat="43.1120119" lon="-2.7630249">
        <ele>158.551</ele>
        <time>2021-04-01T09:14:09.409Z</time>
      </trkpt>
      <trkpt lat="43.112014" lon="-2.7630279">
        <ele>158.52</ele>
        <time>2021-04-01T09:14:09.461Z</time>
      </trkpt>
      <trkpt lat="43.1120161" lon="-2.7630309">
        <ele>158.502</ele>
        <time>2021-04-01T09:14:09.513Z</time>
      </trkpt>
      <trkpt lat="43.1120182" lon="-2.7630343">
        <ele>158.525</ele>
        <time>2021-04-01T09:14:09.565Z</time>
      </trkpt>
      <trkpt lat="43.1120204" lon="-2.7630375">
        <ele>158.525</ele>
        <time>2021-04-01T09:14:09.617Z</time>
      </trkpt>
      <trkpt lat="43.1120227" lon="-2.7630409">
        <ele>158.565</ele>
        <time>2021-04-01T09:14:09.669Z</time>
      </trkpt>
      <trkpt lat="43.1120246" lon="-2.7630445">
        <ele>158.594</ele>
        <time>2021-04-01T09:14:09.721Z</time>
      </trkpt>
      <trkpt lat="43.1120266" lon="-2.7630478">
        <ele>158.596</ele>
        <time>2021-04-01T09:14:09.774Z</time>
      </trkpt>
      <trkpt lat="43.1120288" lon="-2.7630509">
        <ele>158.606</ele>
        <time>2021-04-01T09:14:09.826Z</time>
      </trkpt>
      <trkpt lat="43.1120309" lon="-2.7630539">
        <ele>158.588</ele>
        <time>2021-04-01T09:14:09.878Z</time>
      </trkpt>
      <trkpt lat="43.1120333" lon="-2.7630569">
        <ele>158.573</ele>
        <time>2021-04-01T09:14:09.930Z</time>
      </trkpt>
      <trkpt lat="43.1120356" lon="-2.7630604">
        <ele>158.598</ele>
        <time>2021-04-01T09:14:09.982Z</time>
      </trkpt>
      <trkpt lat="43.1120377" lon="-2.7630637">
        <ele>158.618</ele>
        <time>2021-04-01T09:14:10.034Z</time>
      </trkpt>
      <trkpt lat="43.1120397" lon="-2.763067">
        <ele>158.624</ele>
        <time>2021-04-01T09:14:10.086Z</time>
      </trkpt>
      <trkpt lat="43.1120416" lon="-2.7630704">
        <ele>158.627</ele>
        <time>2021-04-01T09:14:10.138Z</time>
      </trkpt>
      <trkpt lat="43.1120435" lon="-2.7630737">
        <ele>158.628</ele>
        <time>2021-04-01T09:14:10.190Z</time>
      </trkpt>
      <trkpt lat="43.1120453" lon="-2.763077">
        <ele>158.596</ele>
        <time>2021-04-01T09:14:10.242Z</time>
      </trkpt>
      <trkpt lat="43.1120471" lon="-2.7630803">
        <ele>158.576</ele>
        <time>2021-04-01T09:14:10.295Z</time>
      </trkpt>
      <trkpt lat="43.1120492" lon="-2.7630836">
        <ele>158.568</ele>
        <time>2021-04-01T09:14:10.347Z</time>
      </trkpt>
      <trkpt lat="43.1120511" lon="-2.763087">
        <ele>158.574</ele>
        <time>2021-04-01T09:14:10.399Z</time>
      </trkpt>
      <trkpt lat="43.112053" lon="-2.7630907">
        <ele>158.607</ele>
        <time>2021-04-01T09:14:10.451Z</time>
      </trkpt>
      <trkpt lat="43.1120549" lon="-2.7630942">
        <ele>158.619</ele>
        <time>2021-04-01T09:14:10.503Z</time>
      </trkpt>
      <trkpt lat="43.1120567" lon="-2.763098">
        <ele>158.637</ele>
        <time>2021-04-01T09:14:10.555Z</time>
      </trkpt>
      <trkpt lat="43.1120584" lon="-2.7631015">
        <ele>158.629</ele>
        <time>2021-04-01T09:14:10.607Z</time>
      </trkpt>
      <trkpt lat="43.1120604" lon="-2.7631051">
        <ele>158.634</ele>
        <time>2021-04-01T09:14:10.659Z</time>
      </trkpt>
      <trkpt lat="43.1120623" lon="-2.7631085">
        <ele>158.616</ele>
        <time>2021-04-01T09:14:10.711Z</time>
      </trkpt>
      <trkpt lat="43.1120642" lon="-2.763112">
        <ele>158.618</ele>
        <time>2021-04-01T09:14:10.764Z</time>
      </trkpt>
      <trkpt lat="43.1120659" lon="-2.7631153">
        <ele>158.581</ele>
        <time>2021-04-01T09:14:10.825Z</time>
      </trkpt>
      <trkpt lat="43.1120677" lon="-2.7631186">
        <ele>158.573</ele>
        <time>2021-04-01T09:14:10.886Z</time>
      </trkpt>
      <trkpt lat="43.1120698" lon="-2.7631223">
        <ele>158.615</ele>
        <time>2021-04-01T09:14:10.948Z</time>
      </trkpt>
      <trkpt lat="43.1120717" lon="-2.763126">
        <ele>158.62</ele>
        <time>2021-04-01T09:14:11.009Z</time>
      </trkpt>
      <trkpt lat="43.1120736" lon="-2.7631296">
        <ele>158.632</ele>
        <time>2021-04-01T09:14:11.071Z</time>
      </trkpt>
      <trkpt lat="43.1120755" lon="-2.7631334">
        <ele>158.635</ele>
        <time>2021-04-01T09:14:11.132Z</time>
      </trkpt>
      <trkpt lat="43.1120773" lon="-2.7631371">
        <ele>158.643</ele>
        <time>2021-04-01T09:14:11.194Z</time>
      </trkpt>
      <trkpt lat="43.1120791" lon="-2.7631407">
        <ele>158.649</ele>
        <time>2021-04-01T09:14:11.255Z</time>
      </trkpt>
      <trkpt lat="43.1120809" lon="-2.7631444">
        <ele>158.672</ele>
        <time>2021-04-01T09:14:11.317Z</time>
      </trkpt>
      <trkpt lat="43.1120828" lon="-2.7631482">
        <ele>158.676</ele>
        <time>2021-04-01T09:14:11.378Z</time>
      </trkpt>
      <trkpt lat="43.1120847" lon="-2.763152">
        <ele>158.687</ele>
        <time>2021-04-01T09:14:11.440Z</time>
      </trkpt>
      <trkpt lat="43.1120865" lon="-2.7631557">
        <ele>158.683</ele>
        <time>2021-04-01T09:14:11.501Z</time>
      </trkpt>
      <trkpt lat="43.1120883" lon="-2.7631594">
        <ele>158.687</ele>
        <time>2021-04-01T09:14:11.563Z</time>
      </trkpt>
      <trkpt lat="43.1120896" lon="-2.7631632">
        <ele>158.643</ele>
        <time>2021-04-01T09:14:11.624Z</time>
      </trkpt>
      <trkpt lat="43.1120912" lon="-2.7631669">
        <ele>158.634</ele>
        <time>2021-04-01T09:14:11.686Z</time>
      </trkpt>
      <trkpt lat="43.112093" lon="-2.7631707">
        <ele>158.643</ele>
        <time>2021-04-01T09:14:11.747Z</time>
      </trkpt>
      <trkpt lat="43.1120946" lon="-2.7631744">
        <ele>158.615</ele>
        <time>2021-04-01T09:14:11.809Z</time>
      </trkpt>
      <trkpt lat="43.112096" lon="-2.7631785">
        <ele>158.617</ele>
        <time>2021-04-01T09:14:11.861Z</time>
      </trkpt>
      <trkpt lat="43.1120976" lon="-2.7631826">
        <ele>158.629</ele>
        <time>2021-04-01T09:14:11.913Z</time>
      </trkpt>
      <trkpt lat="43.1120994" lon="-2.7631864">
        <ele>158.639</ele>
        <time>2021-04-01T09:14:11.965Z</time>
      </trkpt>
      <trkpt lat="43.1121011" lon="-2.7631903">
        <ele>158.638</ele>
        <time>2021-04-01T09:14:12.017Z</time>
      </trkpt>
      <trkpt lat="43.1121028" lon="-2.763194">
        <ele>158.625</ele>
        <time>2021-04-01T09:14:12.069Z</time>
      </trkpt>
      <trkpt lat="43.1121042" lon="-2.7631978">
        <ele>158.612</ele>
        <time>2021-04-01T09:14:12.121Z</time>
      </trkpt>
      <trkpt lat="43.1121059" lon="-2.7632016">
        <ele>158.601</ele>
        <time>2021-04-01T09:14:12.173Z</time>
      </trkpt>
      <trkpt lat="43.112108" lon="-2.7632057">
        <ele>158.635</ele>
        <time>2021-04-01T09:14:12.225Z</time>
      </trkpt>
      <trkpt lat="43.1121099" lon="-2.7632094">
        <ele>158.63</ele>
        <time>2021-04-01T09:14:12.277Z</time>
      </trkpt>
      <trkpt lat="43.1121115" lon="-2.7632132">
        <ele>158.6</ele>
        <time>2021-04-01T09:14:12.330Z</time>
      </trkpt>
      <trkpt lat="43.112113" lon="-2.7632177">
        <ele>158.625</ele>
        <time>2021-04-01T09:14:12.382Z</time>
      </trkpt>
      <trkpt lat="43.1121143" lon="-2.7632218">
        <ele>158.636</ele>
        <time>2021-04-01T09:14:12.434Z</time>
      </trkpt>
      <trkpt lat="43.1121161" lon="-2.7632258">
        <ele>158.669</ele>
        <time>2021-04-01T09:14:12.486Z</time>
      </trkpt>
      <trkpt lat="43.1121176" lon="-2.7632298">
        <ele>158.656</ele>
        <time>2021-04-01T09:14:12.538Z</time>
      </trkpt>
      <trkpt lat="43.1121189" lon="-2.7632339">
        <ele>158.605</ele>
        <time>2021-04-01T09:14:12.590Z</time>
      </trkpt>
      <trkpt lat="43.1121203" lon="-2.7632384">
        <ele>158.603</ele>
        <time>2021-04-01T09:14:12.642Z</time>
      </trkpt>
      <trkpt lat="43.1121217" lon="-2.7632426">
        <ele>158.591</ele>
        <time>2021-04-01T09:14:12.694Z</time>
      </trkpt>
      <trkpt lat="43.1121233" lon="-2.7632469">
        <ele>158.605</ele>
        <time>2021-04-01T09:14:12.746Z</time>
      </trkpt>
      <trkpt lat="43.1121246" lon="-2.7632512">
        <ele>158.631</ele>
        <time>2021-04-01T09:14:12.799Z</time>
      </trkpt>
      <trkpt lat="43.1121263" lon="-2.7632554">
        <ele>158.679</ele>
        <time>2021-04-01T09:14:12.854Z</time>
      </trkpt>
      <trkpt lat="43.1121281" lon="-2.7632592">
        <ele>158.666</ele>
        <time>2021-04-01T09:14:12.909Z</time>
      </trkpt>
      <trkpt lat="43.1121297" lon="-2.7632632">
        <ele>158.646</ele>
        <time>2021-04-01T09:14:12.964Z</time>
      </trkpt>
      <trkpt lat="43.1121311" lon="-2.7632672">
        <ele>158.632</ele>
        <time>2021-04-01T09:14:13.019Z</time>
      </trkpt>
      <trkpt lat="43.1121327" lon="-2.7632708">
        <ele>158.603</ele>
        <time>2021-04-01T09:14:13.074Z</time>
      </trkpt>
      <trkpt lat="43.1121344" lon="-2.7632751">
        <ele>158.628</ele>
        <time>2021-04-01T09:14:13.129Z</time>
      </trkpt>
      <trkpt lat="43.1121361" lon="-2.7632789">
        <ele>158.612</ele>
        <time>2021-04-01T09:14:13.184Z</time>
      </trkpt>
      <trkpt lat="43.1121377" lon="-2.7632828">
        <ele>158.62</ele>
        <time>2021-04-01T09:14:13.239Z</time>
      </trkpt>
      <trkpt lat="43.1121393" lon="-2.7632867">
        <ele>158.623</ele>
        <time>2021-04-01T09:14:13.294Z</time>
      </trkpt>
      <trkpt lat="43.1121407" lon="-2.7632905">
        <ele>158.596</ele>
        <time>2021-04-01T09:14:13.349Z</time>
      </trkpt>
      <trkpt lat="43.1121421" lon="-2.7632946">
        <ele>158.57</ele>
        <time>2021-04-01T09:14:13.404Z</time>
      </trkpt>
      <trkpt lat="43.1121437" lon="-2.7632986">
        <ele>158.553</ele>
        <time>2021-04-01T09:14:13.459Z</time>
      </trkpt>
      <trkpt lat="43.1121451" lon="-2.7633028">
        <ele>158.533</ele>
        <time>2021-04-01T09:14:13.514Z</time>
      </trkpt>
      <trkpt lat="43.1121463" lon="-2.7633074">
        <ele>158.546</ele>
        <time>2021-04-01T09:14:13.569Z</time>
      </trkpt>
      <trkpt lat="43.1121476" lon="-2.7633116">
        <ele>158.51</ele>
        <time>2021-04-01T09:14:13.624Z</time>
      </trkpt>
      <trkpt lat="43.1121489" lon="-2.7633159">
        <ele>158.482</ele>
        <time>2021-04-01T09:14:13.679Z</time>
      </trkpt>
      <trkpt lat="43.1121503" lon="-2.7633202">
        <ele>158.472</ele>
        <time>2021-04-01T09:14:13.734Z</time>
      </trkpt>
      <trkpt lat="43.1121517" lon="-2.7633247">
        <ele>158.467</ele>
        <time>2021-04-01T09:14:13.789Z</time>
      </trkpt>
      <trkpt lat="43.1121529" lon="-2.7633291">
        <ele>158.446</ele>
        <time>2021-04-01T09:14:13.841Z</time>
      </trkpt>
      <trkpt lat="43.1121542" lon="-2.7633334">
        <ele>158.415</ele>
        <time>2021-04-01T09:14:13.893Z</time>
      </trkpt>
      <trkpt lat="43.1121555" lon="-2.763338">
        <ele>158.426</ele>
        <time>2021-04-01T09:14:13.945Z</time>
      </trkpt>
      <trkpt lat="43.1121568" lon="-2.7633425">
        <ele>158.418</ele>
        <time>2021-04-01T09:14:13.997Z</time>
      </trkpt>
      <trkpt lat="43.1121583" lon="-2.7633468">
        <ele>158.398</ele>
        <time>2021-04-01T09:14:14.049Z</time>
      </trkpt>
      <trkpt lat="43.1121595" lon="-2.7633511">
        <ele>158.359</ele>
        <time>2021-04-01T09:14:14.101Z</time>
      </trkpt>
      <trkpt lat="43.1121608" lon="-2.7633554">
        <ele>158.348</ele>
        <time>2021-04-01T09:14:14.153Z</time>
      </trkpt>
      <trkpt lat="43.112162" lon="-2.7633597">
        <ele>158.319</ele>
        <time>2021-04-01T09:14:14.205Z</time>
      </trkpt>
      <trkpt lat="43.1121633" lon="-2.763364">
        <ele>158.29</ele>
        <time>2021-04-01T09:14:14.257Z</time>
      </trkpt>
      <trkpt lat="43.1121646" lon="-2.7633685">
        <ele>158.263</ele>
        <time>2021-04-01T09:14:14.310Z</time>
      </trkpt>
      <trkpt lat="43.1121658" lon="-2.7633729">
        <ele>158.245</ele>
        <time>2021-04-01T09:14:14.362Z</time>
      </trkpt>
      <trkpt lat="43.1121671" lon="-2.7633774">
        <ele>158.243</ele>
        <time>2021-04-01T09:14:14.414Z</time>
      </trkpt>
      <trkpt lat="43.1121684" lon="-2.7633818">
        <ele>158.233</ele>
        <time>2021-04-01T09:14:14.466Z</time>
      </trkpt>
      <trkpt lat="43.1121696" lon="-2.7633863">
        <ele>158.205</ele>
        <time>2021-04-01T09:14:14.518Z</time>
      </trkpt>
      <trkpt lat="43.1121708" lon="-2.7633909">
        <ele>158.188</ele>
        <time>2021-04-01T09:14:14.570Z</time>
      </trkpt>
      <trkpt lat="43.112172" lon="-2.7633953">
        <ele>158.15</ele>
        <time>2021-04-01T09:14:14.622Z</time>
      </trkpt>
      <trkpt lat="43.1121732" lon="-2.7633998">
        <ele>158.129</ele>
        <time>2021-04-01T09:14:14.674Z</time>
      </trkpt>
      <trkpt lat="43.1121746" lon="-2.7634044">
        <ele>158.12</ele>
        <time>2021-04-01T09:14:14.726Z</time>
      </trkpt>
      <trkpt lat="43.1121759" lon="-2.7634091">
        <ele>158.099</ele>
        <time>2021-04-01T09:14:14.779Z</time>
      </trkpt>
      <trkpt lat="43.1121772" lon="-2.7634137">
        <ele>158.097</ele>
        <time>2021-04-01T09:14:14.837Z</time>
      </trkpt>
      <trkpt lat="43.1121784" lon="-2.7634184">
        <ele>158.075</ele>
        <time>2021-04-01T09:14:14.895Z</time>
      </trkpt>
      <trkpt lat="43.1121796" lon="-2.7634231">
        <ele>158.043</ele>
        <time>2021-04-01T09:14:14.953Z</time>
      </trkpt>
      <trkpt lat="43.1121809" lon="-2.7634278">
        <ele>158.019</ele>
        <time>2021-04-01T09:14:15.011Z</time>
      </trkpt>
      <trkpt lat="43.1121821" lon="-2.7634325">
        <ele>157.995</ele>
        <time>2021-04-01T09:14:15.070Z</time>
      </trkpt>
      <trkpt lat="43.1121833" lon="-2.7634373">
        <ele>157.979</ele>
        <time>2021-04-01T09:14:15.128Z</time>
      </trkpt>
      <trkpt lat="43.1121847" lon="-2.7634421">
        <ele>157.953</ele>
        <time>2021-04-01T09:14:15.186Z</time>
      </trkpt>
      <trkpt lat="43.1121858" lon="-2.7634468">
        <ele>157.911</ele>
        <time>2021-04-01T09:14:15.244Z</time>
      </trkpt>
      <trkpt lat="43.1121869" lon="-2.7634514">
        <ele>157.852</ele>
        <time>2021-04-01T09:14:15.303Z</time>
      </trkpt>
      <trkpt lat="43.1121884" lon="-2.7634562">
        <ele>157.849</ele>
        <time>2021-04-01T09:14:15.361Z</time>
      </trkpt>
      <trkpt lat="43.1121899" lon="-2.7634609">
        <ele>157.839</ele>
        <time>2021-04-01T09:14:15.419Z</time>
      </trkpt>
      <trkpt lat="43.1121912" lon="-2.7634657">
        <ele>157.806</ele>
        <time>2021-04-01T09:14:15.477Z</time>
      </trkpt>
      <trkpt lat="43.1121926" lon="-2.7634705">
        <ele>157.809</ele>
        <time>2021-04-01T09:14:15.536Z</time>
      </trkpt>
      <trkpt lat="43.1121937" lon="-2.7634753">
        <ele>157.773</ele>
        <time>2021-04-01T09:14:15.594Z</time>
      </trkpt>
      <trkpt lat="43.1121951" lon="-2.7634801">
        <ele>157.739</ele>
        <time>2021-04-01T09:14:15.652Z</time>
      </trkpt>
      <trkpt lat="43.1121963" lon="-2.763485">
        <ele>157.712</ele>
        <time>2021-04-01T09:14:15.710Z</time>
      </trkpt>
      <trkpt lat="43.1121976" lon="-2.7634898">
        <ele>157.711</ele>
        <time>2021-04-01T09:14:15.769Z</time>
      </trkpt>
      <trkpt lat="43.112199" lon="-2.7634945">
        <ele>157.691</ele>
        <time>2021-04-01T09:14:15.821Z</time>
      </trkpt>
      <trkpt lat="43.1122006" lon="-2.7634993">
        <ele>157.675</ele>
        <time>2021-04-01T09:14:15.873Z</time>
      </trkpt>
      <trkpt lat="43.112202" lon="-2.7635042">
        <ele>157.624</ele>
        <time>2021-04-01T09:14:15.925Z</time>
      </trkpt>
      <trkpt lat="43.1122036" lon="-2.763509">
        <ele>157.624</ele>
        <time>2021-04-01T09:14:15.977Z</time>
      </trkpt>
      <trkpt lat="43.112205" lon="-2.7635139">
        <ele>157.618</ele>
        <time>2021-04-01T09:14:16.029Z</time>
      </trkpt>
      <trkpt lat="43.1122066" lon="-2.7635187">
        <ele>157.588</ele>
        <time>2021-04-01T09:14:16.081Z</time>
      </trkpt>
      <trkpt lat="43.1122082" lon="-2.7635235">
        <ele>157.564</ele>
        <time>2021-04-01T09:14:16.133Z</time>
      </trkpt>
      <trkpt lat="43.1122099" lon="-2.7635283">
        <ele>157.544</ele>
        <time>2021-04-01T09:14:16.185Z</time>
      </trkpt>
      <trkpt lat="43.1122114" lon="-2.7635332">
        <ele>157.534</ele>
        <time>2021-04-01T09:14:16.237Z</time>
      </trkpt>
      <trkpt lat="43.1122131" lon="-2.7635379">
        <ele>157.513</ele>
        <time>2021-04-01T09:14:16.290Z</time>
      </trkpt>
      <trkpt lat="43.1122147" lon="-2.7635428">
        <ele>157.493</ele>
        <time>2021-04-01T09:14:16.342Z</time>
      </trkpt>
      <trkpt lat="43.1122163" lon="-2.7635477">
        <ele>157.497</ele>
        <time>2021-04-01T09:14:16.394Z</time>
      </trkpt>
      <trkpt lat="43.1122179" lon="-2.7635527">
        <ele>157.485</ele>
        <time>2021-04-01T09:14:16.446Z</time>
      </trkpt>
      <trkpt lat="43.1122194" lon="-2.7635577">
        <ele>157.472</ele>
        <time>2021-04-01T09:14:16.498Z</time>
      </trkpt>
      <trkpt lat="43.112221" lon="-2.7635626">
        <ele>157.444</ele>
        <time>2021-04-01T09:14:16.550Z</time>
      </trkpt>
      <trkpt lat="43.1122227" lon="-2.7635674">
        <ele>157.404</ele>
        <time>2021-04-01T09:14:16.602Z</time>
      </trkpt>
      <trkpt lat="43.1122244" lon="-2.7635722">
        <ele>157.394</ele>
        <time>2021-04-01T09:14:16.654Z</time>
      </trkpt>
      <trkpt lat="43.1122261" lon="-2.763577">
        <ele>157.362</ele>
        <time>2021-04-01T09:14:16.706Z</time>
      </trkpt>
      <trkpt lat="43.1122279" lon="-2.7635817">
        <ele>157.334</ele>
        <time>2021-04-01T09:14:16.759Z</time>
      </trkpt>
      <trkpt lat="43.1122296" lon="-2.7635865">
        <ele>157.294</ele>
        <time>2021-04-01T09:14:16.817Z</time>
      </trkpt>
      <trkpt lat="43.1122313" lon="-2.7635915">
        <ele>157.316</ele>
        <time>2021-04-01T09:14:16.875Z</time>
      </trkpt>
      <trkpt lat="43.112233" lon="-2.7635966">
        <ele>157.282</ele>
        <time>2021-04-01T09:14:16.933Z</time>
      </trkpt>
      <trkpt lat="43.1122347" lon="-2.7636018">
        <ele>157.281</ele>
        <time>2021-04-01T09:14:16.991Z</time>
      </trkpt>
      <trkpt lat="43.1122363" lon="-2.7636067">
        <ele>157.275</ele>
        <time>2021-04-01T09:14:17.049Z</time>
      </trkpt>
      <trkpt lat="43.112238" lon="-2.7636117">
        <ele>157.244</ele>
        <time>2021-04-01T09:14:17.107Z</time>
      </trkpt>
      <trkpt lat="43.1122397" lon="-2.7636168">
        <ele>157.221</ele>
        <time>2021-04-01T09:14:17.165Z</time>
      </trkpt>
      <trkpt lat="43.1122415" lon="-2.7636219">
        <ele>157.203</ele>
        <time>2021-04-01T09:14:17.223Z</time>
      </trkpt>
      <trkpt lat="43.1122433" lon="-2.7636269">
        <ele>157.197</ele>
        <time>2021-04-01T09:14:17.281Z</time>
      </trkpt>
      <trkpt lat="43.112245" lon="-2.763632">
        <ele>157.173</ele>
        <time>2021-04-01T09:14:17.339Z</time>
      </trkpt>
      <trkpt lat="43.1122465" lon="-2.7636371">
        <ele>157.147</ele>
        <time>2021-04-01T09:14:17.397Z</time>
      </trkpt>
      <trkpt lat="43.112248" lon="-2.7636423">
        <ele>157.111</ele>
        <time>2021-04-01T09:14:17.455Z</time>
      </trkpt>
      <trkpt lat="43.1122497" lon="-2.7636476">
        <ele>157.092</ele>
        <time>2021-04-01T09:14:17.513Z</time>
      </trkpt>
      <trkpt lat="43.1122513" lon="-2.7636527">
        <ele>157.07</ele>
        <time>2021-04-01T09:14:17.571Z</time>
      </trkpt>
      <trkpt lat="43.112253" lon="-2.7636577">
        <ele>157.033</ele>
        <time>2021-04-01T09:14:17.629Z</time>
      </trkpt>
      <trkpt lat="43.1122548" lon="-2.7636629">
        <ele>157.014</ele>
        <time>2021-04-01T09:14:17.687Z</time>
      </trkpt>
      <trkpt lat="43.1122564" lon="-2.7636679">
        <ele>156.995</ele>
        <time>2021-04-01T09:14:17.745Z</time>
      </trkpt>
      <trkpt lat="43.1122582" lon="-2.763673">
        <ele>156.97</ele>
        <time>2021-04-01T09:14:17.804Z</time>
      </trkpt>
      <trkpt lat="43.1122599" lon="-2.7636783">
        <ele>156.933</ele>
        <time>2021-04-01T09:14:17.859Z</time>
      </trkpt>
      <trkpt lat="43.1122615" lon="-2.7636835">
        <ele>156.915</ele>
        <time>2021-04-01T09:14:17.914Z</time>
      </trkpt>
      <trkpt lat="43.1122632" lon="-2.7636888">
        <ele>156.877</ele>
        <time>2021-04-01T09:14:17.969Z</time>
      </trkpt>
      <trkpt lat="43.1122648" lon="-2.763694">
        <ele>156.871</ele>
        <time>2021-04-01T09:14:18.024Z</time>
      </trkpt>
      <trkpt lat="43.1122666" lon="-2.7636993">
        <ele>156.863</ele>
        <time>2021-04-01T09:14:18.079Z</time>
      </trkpt>
      <trkpt lat="43.1122683" lon="-2.7637047">
        <ele>156.852</ele>
        <time>2021-04-01T09:14:18.134Z</time>
      </trkpt>
      <trkpt lat="43.11227" lon="-2.76371">
        <ele>156.825</ele>
        <time>2021-04-01T09:14:18.189Z</time>
      </trkpt>
      <trkpt lat="43.1122716" lon="-2.7637154">
        <ele>156.781</ele>
        <time>2021-04-01T09:14:18.244Z</time>
      </trkpt>
      <trkpt lat="43.1122732" lon="-2.7637207">
        <ele>156.761</ele>
        <time>2021-04-01T09:14:18.299Z</time>
      </trkpt>
      <trkpt lat="43.112275" lon="-2.763726">
        <ele>156.744</ele>
        <time>2021-04-01T09:14:18.354Z</time>
      </trkpt>
      <trkpt lat="43.1122767" lon="-2.7637314">
        <ele>156.745</ele>
        <time>2021-04-01T09:14:18.409Z</time>
      </trkpt>
      <trkpt lat="43.1122786" lon="-2.7637368">
        <ele>156.729</ele>
        <time>2021-04-01T09:14:18.464Z</time>
      </trkpt>
      <trkpt lat="43.1122801" lon="-2.7637422">
        <ele>156.709</ele>
        <time>2021-04-01T09:14:18.519Z</time>
      </trkpt>
      <trkpt lat="43.1122817" lon="-2.7637477">
        <ele>156.685</ele>
        <time>2021-04-01T09:14:18.574Z</time>
      </trkpt>
      <trkpt lat="43.1122832" lon="-2.7637532">
        <ele>156.643</ele>
        <time>2021-04-01T09:14:18.629Z</time>
      </trkpt>
      <trkpt lat="43.1122848" lon="-2.7637586">
        <ele>156.624</ele>
        <time>2021-04-01T09:14:18.684Z</time>
      </trkpt>
      <trkpt lat="43.1122863" lon="-2.7637639">
        <ele>156.599</ele>
        <time>2021-04-01T09:14:18.739Z</time>
      </trkpt>
      <trkpt lat="43.1122882" lon="-2.7637694">
        <ele>156.574</ele>
        <time>2021-04-01T09:14:18.794Z</time>
      </trkpt>
      <trkpt lat="43.1122899" lon="-2.763775">
        <ele>156.553</ele>
        <time>2021-04-01T09:14:18.849Z</time>
      </trkpt>
      <trkpt lat="43.1122914" lon="-2.7637803">
        <ele>156.532</ele>
        <time>2021-04-01T09:14:18.904Z</time>
      </trkpt>
      <trkpt lat="43.112293" lon="-2.7637859">
        <ele>156.512</ele>
        <time>2021-04-01T09:14:18.959Z</time>
      </trkpt>
      <trkpt lat="43.1122944" lon="-2.7637916">
        <ele>156.476</ele>
        <time>2021-04-01T09:14:19.014Z</time>
      </trkpt>
      <trkpt lat="43.1122963" lon="-2.7637972">
        <ele>156.475</ele>
        <time>2021-04-01T09:14:19.069Z</time>
      </trkpt>
      <trkpt lat="43.1122979" lon="-2.7638027">
        <ele>156.438</ele>
        <time>2021-04-01T09:14:19.124Z</time>
      </trkpt>
      <trkpt lat="43.1122995" lon="-2.7638082">
        <ele>156.395</ele>
        <time>2021-04-01T09:14:19.179Z</time>
      </trkpt>
      <trkpt lat="43.112301" lon="-2.7638137">
        <ele>156.349</ele>
        <time>2021-04-01T09:14:19.234Z</time>
      </trkpt>
      <trkpt lat="43.1123023" lon="-2.7638194">
        <ele>156.317</ele>
        <time>2021-04-01T09:14:19.289Z</time>
      </trkpt>
      <trkpt lat="43.1123038" lon="-2.7638251">
        <ele>156.283</ele>
        <time>2021-04-01T09:14:19.344Z</time>
      </trkpt>
      <trkpt lat="43.1123055" lon="-2.7638308">
        <ele>156.266</ele>
        <time>2021-04-01T09:14:19.399Z</time>
      </trkpt>
      <trkpt lat="43.112307" lon="-2.7638365">
        <ele>156.228</ele>
        <time>2021-04-01T09:14:19.454Z</time>
      </trkpt>
      <trkpt lat="43.1123085" lon="-2.7638423">
        <ele>156.212</ele>
        <time>2021-04-01T09:14:19.509Z</time>
      </trkpt>
      <trkpt lat="43.11231" lon="-2.763848">
        <ele>156.189</ele>
        <time>2021-04-01T09:14:19.564Z</time>
      </trkpt>
      <trkpt lat="43.1123116" lon="-2.7638538">
        <ele>156.176</ele>
        <time>2021-04-01T09:14:19.619Z</time>
      </trkpt>
      <trkpt lat="43.1123131" lon="-2.7638596">
        <ele>156.141</ele>
        <time>2021-04-01T09:14:19.674Z</time>
      </trkpt>
      <trkpt lat="43.1123146" lon="-2.7638654">
        <ele>156.113</ele>
        <time>2021-04-01T09:14:19.729Z</time>
      </trkpt>
      <trkpt lat="43.1123163" lon="-2.7638711">
        <ele>156.102</ele>
        <time>2021-04-01T09:14:19.784Z</time>
      </trkpt>
      <trkpt lat="43.1123179" lon="-2.7638769">
        <ele>156.083</ele>
        <time>2021-04-01T09:14:19.836Z</time>
      </trkpt>
      <trkpt lat="43.1123192" lon="-2.7638827">
        <ele>156.063</ele>
        <time>2021-04-01T09:14:19.888Z</time>
      </trkpt>
      <trkpt lat="43.1123206" lon="-2.7638887">
        <ele>156.072</ele>
        <time>2021-04-01T09:14:19.940Z</time>
      </trkpt>
      <trkpt lat="43.1123222" lon="-2.7638946">
        <ele>156.054</ele>
        <time>2021-04-01T09:14:19.992Z</time>
      </trkpt>
      <trkpt lat="43.1123237" lon="-2.7639004">
        <ele>156.025</ele>
        <time>2021-04-01T09:14:20.044Z</time>
      </trkpt>
      <trkpt lat="43.1123253" lon="-2.7639064">
        <ele>156.023</ele>
        <time>2021-04-01T09:14:20.096Z</time>
      </trkpt>
      <trkpt lat="43.1123269" lon="-2.7639123">
        <ele>155.999</ele>
        <time>2021-04-01T09:14:20.148Z</time>
      </trkpt>
      <trkpt lat="43.1123282" lon="-2.7639182">
        <ele>155.959</ele>
        <time>2021-04-01T09:14:20.200Z</time>
      </trkpt>
      <trkpt lat="43.1123298" lon="-2.7639243">
        <ele>155.951</ele>
        <time>2021-04-01T09:14:20.252Z</time>
      </trkpt>
      <trkpt lat="43.112331" lon="-2.7639301">
        <ele>155.898</ele>
        <time>2021-04-01T09:14:20.305Z</time>
      </trkpt>
      <trkpt lat="43.1123325" lon="-2.7639361">
        <ele>155.862</ele>
        <time>2021-04-01T09:14:20.357Z</time>
      </trkpt>
      <trkpt lat="43.1123342" lon="-2.7639421">
        <ele>155.846</ele>
        <time>2021-04-01T09:14:20.409Z</time>
      </trkpt>
      <trkpt lat="43.112336" lon="-2.7639482">
        <ele>155.841</ele>
        <time>2021-04-01T09:14:20.461Z</time>
      </trkpt>
      <trkpt lat="43.1123375" lon="-2.7639542">
        <ele>155.796</ele>
        <time>2021-04-01T09:14:20.513Z</time>
      </trkpt>
      <trkpt lat="43.1123391" lon="-2.7639604">
        <ele>155.793</ele>
        <time>2021-04-01T09:14:20.565Z</time>
      </trkpt>
      <trkpt lat="43.1123406" lon="-2.7639665">
        <ele>155.771</ele>
        <time>2021-04-01T09:14:20.617Z</time>
      </trkpt>
      <trkpt lat="43.1123422" lon="-2.7639726">
        <ele>155.753</ele>
        <time>2021-04-01T09:14:20.669Z</time>
      </trkpt>
      <trkpt lat="43.1123435" lon="-2.7639786">
        <ele>155.726</ele>
        <time>2021-04-01T09:14:20.721Z</time>
      </trkpt>
      <trkpt lat="43.1123447" lon="-2.7639846">
        <ele>155.705</ele>
        <time>2021-04-01T09:14:20.774Z</time>
      </trkpt>
      <trkpt lat="43.1123461" lon="-2.7639907">
        <ele>155.69</ele>
        <time>2021-04-01T09:14:20.835Z</time>
      </trkpt>
      <trkpt lat="43.1123474" lon="-2.7639968">
        <ele>155.645</ele>
        <time>2021-04-01T09:14:20.896Z</time>
      </trkpt>
      <trkpt lat="43.112349" lon="-2.7640031">
        <ele>155.618</ele>
        <time>2021-04-01T09:14:20.958Z</time>
      </trkpt>
      <trkpt lat="43.11235" lon="-2.7640092">
        <ele>155.582</ele>
        <time>2021-04-01T09:14:21.019Z</time>
      </trkpt>
      <trkpt lat="43.1123515" lon="-2.7640153">
        <ele>155.559</ele>
        <time>2021-04-01T09:14:21.081Z</time>
      </trkpt>
      <trkpt lat="43.112353" lon="-2.7640217">
        <ele>155.538</ele>
        <time>2021-04-01T09:14:21.142Z</time>
      </trkpt>
      <trkpt lat="43.1123543" lon="-2.7640279">
        <ele>155.508</ele>
        <time>2021-04-01T09:14:21.204Z</time>
      </trkpt>
      <trkpt lat="43.1123558" lon="-2.764034">
        <ele>155.468</ele>
        <time>2021-04-01T09:14:21.265Z</time>
      </trkpt>
      <trkpt lat="43.1123571" lon="-2.7640403">
        <ele>155.452</ele>
        <time>2021-04-01T09:14:21.327Z</time>
      </trkpt>
      <trkpt lat="43.1123582" lon="-2.7640465">
        <ele>155.405</ele>
        <time>2021-04-01T09:14:21.388Z</time>
      </trkpt>
      <trkpt lat="43.1123594" lon="-2.7640528">
        <ele>155.368</ele>
        <time>2021-04-01T09:14:21.450Z</time>
      </trkpt>
      <trkpt lat="43.1123608" lon="-2.7640591">
        <ele>155.346</ele>
        <time>2021-04-01T09:14:21.511Z</time>
      </trkpt>
      <trkpt lat="43.1123621" lon="-2.7640655">
        <ele>155.313</ele>
        <time>2021-04-01T09:14:21.573Z</time>
      </trkpt>
      <trkpt lat="43.1123635" lon="-2.7640719">
        <ele>155.307</ele>
        <time>2021-04-01T09:14:21.634Z</time>
      </trkpt>
      <trkpt lat="43.1123649" lon="-2.7640782">
        <ele>155.281</ele>
        <time>2021-04-01T09:14:21.696Z</time>
      </trkpt>
      <trkpt lat="43.1123661" lon="-2.7640846">
        <ele>155.25</ele>
        <time>2021-04-01T09:14:21.757Z</time>
      </trkpt>
      <trkpt lat="43.1123672" lon="-2.7640911">
        <ele>155.208</ele>
        <time>2021-04-01T09:14:21.819Z</time>
      </trkpt>
      <trkpt lat="43.1123685" lon="-2.7640976">
        <ele>155.184</ele>
        <time>2021-04-01T09:14:21.871Z</time>
      </trkpt>
      <trkpt lat="43.1123698" lon="-2.764104">
        <ele>155.181</ele>
        <time>2021-04-01T09:14:21.923Z</time>
      </trkpt>
      <trkpt lat="43.1123711" lon="-2.7641106">
        <ele>155.127</ele>
        <time>2021-04-01T09:14:21.975Z</time>
      </trkpt>
      <trkpt lat="43.1123724" lon="-2.7641171">
        <ele>155.105</ele>
        <time>2021-04-01T09:14:22.027Z</time>
      </trkpt>
      <trkpt lat="43.1123738" lon="-2.7641236">
        <ele>155.104</ele>
        <time>2021-04-01T09:14:22.079Z</time>
      </trkpt>
      <trkpt lat="43.112375" lon="-2.7641301">
        <ele>155.06</ele>
        <time>2021-04-01T09:14:22.131Z</time>
      </trkpt>
      <trkpt lat="43.1123764" lon="-2.7641367">
        <ele>155.021</ele>
        <time>2021-04-01T09:14:22.183Z</time>
      </trkpt>
      <trkpt lat="43.1123778" lon="-2.7641434">
        <ele>155.026</ele>
        <time>2021-04-01T09:14:22.235Z</time>
      </trkpt>
      <trkpt lat="43.1123791" lon="-2.7641498">
        <ele>154.99</ele>
        <time>2021-04-01T09:14:22.287Z</time>
      </trkpt>
      <trkpt lat="43.1123803" lon="-2.7641563">
        <ele>154.952</ele>
        <time>2021-04-01T09:14:22.340Z</time>
      </trkpt>
      <trkpt lat="43.1123817" lon="-2.764163">
        <ele>154.913</ele>
        <time>2021-04-01T09:14:22.392Z</time>
      </trkpt>
      <trkpt lat="43.1123831" lon="-2.7641697">
        <ele>154.898</ele>
        <time>2021-04-01T09:14:22.444Z</time>
      </trkpt>
      <trkpt lat="43.1123844" lon="-2.7641763">
        <ele>154.892</ele>
        <time>2021-04-01T09:14:22.496Z</time>
      </trkpt>
      <trkpt lat="43.1123856" lon="-2.7641829">
        <ele>154.838</ele>
        <time>2021-04-01T09:14:22.548Z</time>
      </trkpt>
      <trkpt lat="43.1123867" lon="-2.7641894">
        <ele>154.806</ele>
        <time>2021-04-01T09:14:22.600Z</time>
      </trkpt>
      <trkpt lat="43.112388" lon="-2.7641961">
        <ele>154.775</ele>
        <time>2021-04-01T09:14:22.652Z</time>
      </trkpt>
      <trkpt lat="43.1123893" lon="-2.7642028">
        <ele>154.768</ele>
        <time>2021-04-01T09:14:22.704Z</time>
      </trkpt>
      <trkpt lat="43.1123903" lon="-2.7642094">
        <ele>154.741</ele>
        <time>2021-04-01T09:14:22.756Z</time>
      </trkpt>
      <trkpt lat="43.1123916" lon="-2.7642161">
        <ele>154.686</ele>
        <time>2021-04-01T09:14:22.809Z</time>
      </trkpt>
      <trkpt lat="43.1123928" lon="-2.7642227">
        <ele>154.662</ele>
        <time>2021-04-01T09:14:22.864Z</time>
      </trkpt>
      <trkpt lat="43.1123941" lon="-2.7642292">
        <ele>154.625</ele>
        <time>2021-04-01T09:14:22.919Z</time>
      </trkpt>
      <trkpt lat="43.1123952" lon="-2.7642359">
        <ele>154.598</ele>
        <time>2021-04-01T09:14:22.974Z</time>
      </trkpt>
      <trkpt lat="43.1123964" lon="-2.7642425">
        <ele>154.543</ele>
        <time>2021-04-01T09:14:23.029Z</time>
      </trkpt>
      <trkpt lat="43.1123973" lon="-2.7642492">
        <ele>154.496</ele>
        <time>2021-04-01T09:14:23.084Z</time>
      </trkpt>
      <trkpt lat="43.1123987" lon="-2.7642559">
        <ele>154.497</ele>
        <time>2021-04-01T09:14:23.139Z</time>
      </trkpt>
      <trkpt lat="43.1124001" lon="-2.7642626">
        <ele>154.499</ele>
        <time>2021-04-01T09:14:23.194Z</time>
      </trkpt>
      <trkpt lat="43.1124014" lon="-2.7642692">
        <ele>154.473</ele>
        <time>2021-04-01T09:14:23.249Z</time>
      </trkpt>
      <trkpt lat="43.1124027" lon="-2.7642759">
        <ele>154.458</ele>
        <time>2021-04-01T09:14:23.304Z</time>
      </trkpt>
      <trkpt lat="43.1124038" lon="-2.7642825">
        <ele>154.4</ele>
        <time>2021-04-01T09:14:23.359Z</time>
      </trkpt>
      <trkpt lat="43.112405" lon="-2.7642891">
        <ele>154.376</ele>
        <time>2021-04-01T09:14:23.414Z</time>
      </trkpt>
      <trkpt lat="43.112406" lon="-2.7642957">
        <ele>154.33</ele>
        <time>2021-04-01T09:14:23.469Z</time>
      </trkpt>
      <trkpt lat="43.1124071" lon="-2.7643023">
        <ele>154.311</ele>
        <time>2021-04-01T09:14:23.524Z</time>
      </trkpt>
      <trkpt lat="43.1124082" lon="-2.7643089">
        <ele>154.275</ele>
        <time>2021-04-01T09:14:23.579Z</time>
      </trkpt>
      <trkpt lat="43.1124094" lon="-2.7643156">
        <ele>154.245</ele>
        <time>2021-04-01T09:14:23.634Z</time>
      </trkpt>
      <trkpt lat="43.1124106" lon="-2.7643224">
        <ele>154.22</ele>
        <time>2021-04-01T09:14:23.689Z</time>
      </trkpt>
      <trkpt lat="43.1124117" lon="-2.7643291">
        <ele>154.21</ele>
        <time>2021-04-01T09:14:23.744Z</time>
      </trkpt>
      <trkpt lat="43.1124128" lon="-2.7643358">
        <ele>154.194</ele>
        <time>2021-04-01T09:14:23.799Z</time>
      </trkpt>
      <trkpt lat="43.1124137" lon="-2.7643425">
        <ele>154.167</ele>
        <time>2021-04-01T09:14:23.854Z</time>
      </trkpt>
      <trkpt lat="43.1124144" lon="-2.7643492">
        <ele>154.1</ele>
        <time>2021-04-01T09:14:23.909Z</time>
      </trkpt>
      <trkpt lat="43.112415" lon="-2.7643557">
        <ele>154.005</ele>
        <time>2021-04-01T09:14:23.964Z</time>
      </trkpt>
      <trkpt lat="43.1124159" lon="-2.7643623">
        <ele>153.969</ele>
        <time>2021-04-01T09:14:24.019Z</time>
      </trkpt>
      <trkpt lat="43.1124169" lon="-2.764369">
        <ele>153.937</ele>
        <time>2021-04-01T09:14:24.074Z</time>
      </trkpt>
      <trkpt lat="43.1124179" lon="-2.7643757">
        <ele>153.935</ele>
        <time>2021-04-01T09:14:24.129Z</time>
      </trkpt>
      <trkpt lat="43.1124189" lon="-2.7643825">
        <ele>153.924</ele>
        <time>2021-04-01T09:14:24.184Z</time>
      </trkpt>
      <trkpt lat="43.11242" lon="-2.7643893">
        <ele>153.879</ele>
        <time>2021-04-01T09:14:24.239Z</time>
      </trkpt>
      <trkpt lat="43.112421" lon="-2.764396">
        <ele>153.846</ele>
        <time>2021-04-01T09:14:24.294Z</time>
      </trkpt>
      <trkpt lat="43.1124223" lon="-2.7644026">
        <ele>153.839</ele>
        <time>2021-04-01T09:14:24.349Z</time>
      </trkpt>
      <trkpt lat="43.1124234" lon="-2.7644093">
        <ele>153.8</ele>
        <time>2021-04-01T09:14:24.404Z</time>
      </trkpt>
      <trkpt lat="43.1124245" lon="-2.7644159">
        <ele>153.751</ele>
        <time>2021-04-01T09:14:24.459Z</time>
      </trkpt>
      <trkpt lat="43.1124257" lon="-2.7644228">
        <ele>153.708</ele>
        <time>2021-04-01T09:14:24.514Z</time>
      </trkpt>
      <trkpt lat="43.1124265" lon="-2.7644293">
        <ele>153.659</ele>
        <time>2021-04-01T09:14:24.569Z</time>
      </trkpt>
      <trkpt lat="43.1124275" lon="-2.7644354">
        <ele>153.593</ele>
        <time>2021-04-01T09:14:24.624Z</time>
      </trkpt>
      <trkpt lat="43.1124284" lon="-2.7644418">
        <ele>153.535</ele>
        <time>2021-04-01T09:14:24.679Z</time>
      </trkpt>
      <trkpt lat="43.1124293" lon="-2.7644487">
        <ele>153.488</ele>
        <time>2021-04-01T09:14:24.734Z</time>
      </trkpt>
      <trkpt lat="43.1124302" lon="-2.7644555">
        <ele>153.454</ele>
        <time>2021-04-01T09:14:24.789Z</time>
      </trkpt>
      <trkpt lat="43.1124315" lon="-2.7644623">
        <ele>153.444</ele>
        <time>2021-04-01T09:14:24.844Z</time>
      </trkpt>
      <trkpt lat="43.1124328" lon="-2.764469">
        <ele>153.431</ele>
        <time>2021-04-01T09:14:24.899Z</time>
      </trkpt>
      <trkpt lat="43.1124347" lon="-2.7644759">
        <ele>153.391</ele>
        <time>2021-04-01T09:14:24.954Z</time>
      </trkpt>
      <trkpt lat="43.112436" lon="-2.7644824">
        <ele>153.371</ele>
        <time>2021-04-01T09:14:25.009Z</time>
      </trkpt>
      <trkpt lat="43.1124371" lon="-2.7644891">
        <ele>153.326</ele>
        <time>2021-04-01T09:14:25.064Z</time>
      </trkpt>
      <trkpt lat="43.1124383" lon="-2.7644957">
        <ele>153.317</ele>
        <time>2021-04-01T09:14:25.119Z</time>
      </trkpt>
      <trkpt lat="43.1124397" lon="-2.7645021">
        <ele>153.292</ele>
        <time>2021-04-01T09:14:25.174Z</time>
      </trkpt>
      <trkpt lat="43.1124407" lon="-2.7645089">
        <ele>153.255</ele>
        <time>2021-04-01T09:14:25.229Z</time>
      </trkpt>
      <trkpt lat="43.1124416" lon="-2.7645156">
        <ele>153.204</ele>
        <time>2021-04-01T09:14:25.284Z</time>
      </trkpt>
      <trkpt lat="43.1124427" lon="-2.7645216">
        <ele>153.132</ele>
        <time>2021-04-01T09:14:25.339Z</time>
      </trkpt>
      <trkpt lat="43.1124428" lon="-2.764528">
        <ele>153.021</ele>
        <time>2021-04-01T09:14:25.394Z</time>
      </trkpt>
      <trkpt lat="43.112444" lon="-2.7645347">
        <ele>152.992</ele>
        <time>2021-04-01T09:14:25.449Z</time>
      </trkpt>
      <trkpt lat="43.1124452" lon="-2.7645417">
        <ele>152.958</ele>
        <time>2021-04-01T09:14:25.504Z</time>
      </trkpt>
      <trkpt lat="43.1124465" lon="-2.7645487">
        <ele>152.972</ele>
        <time>2021-04-01T09:14:25.559Z</time>
      </trkpt>
      <trkpt lat="43.1124477" lon="-2.7645555">
        <ele>152.948</ele>
        <time>2021-04-01T09:14:25.614Z</time>
      </trkpt>
      <trkpt lat="43.1124484" lon="-2.764562">
        <ele>152.9</ele>
        <time>2021-04-01T09:14:25.669Z</time>
      </trkpt>
      <trkpt lat="43.1124493" lon="-2.7645686">
        <ele>152.859</ele>
        <time>2021-04-01T09:14:25.724Z</time>
      </trkpt>
      <trkpt lat="43.1124501" lon="-2.7645754">
        <ele>152.793</ele>
        <time>2021-04-01T09:14:25.779Z</time>
      </trkpt>
      <trkpt lat="43.1124512" lon="-2.7645819">
        <ele>152.722</ele>
        <time>2021-04-01T09:14:25.834Z</time>
      </trkpt>
      <trkpt lat="43.1124521" lon="-2.7645881">
        <ele>152.652</ele>
        <time>2021-04-01T09:14:25.889Z</time>
      </trkpt>
      <trkpt lat="43.1124531" lon="-2.7645945">
        <ele>152.575</ele>
        <time>2021-04-01T09:14:25.944Z</time>
      </trkpt>
      <trkpt lat="43.1124538" lon="-2.764601">
        <ele>152.481</ele>
        <time>2021-04-01T09:14:25.999Z</time>
      </trkpt>
      <trkpt lat="43.1124549" lon="-2.7646073">
        <ele>152.431</ele>
        <time>2021-04-01T09:14:26.054Z</time>
      </trkpt>
      <trkpt lat="43.1124559" lon="-2.7646136">
        <ele>152.344</ele>
        <time>2021-04-01T09:14:26.109Z</time>
      </trkpt>
      <trkpt lat="43.1124571" lon="-2.7646197">
        <ele>152.283</ele>
        <time>2021-04-01T09:14:26.164Z</time>
      </trkpt>
      <trkpt lat="43.1124583" lon="-2.7646263">
        <ele>152.246</ele>
        <time>2021-04-01T09:14:26.219Z</time>
      </trkpt>
      <trkpt lat="43.112459" lon="-2.764633">
        <ele>152.223</ele>
        <time>2021-04-01T09:14:26.274Z</time>
      </trkpt>
      <trkpt lat="43.1124605" lon="-2.7646396">
        <ele>152.185</ele>
        <time>2021-04-01T09:14:26.329Z</time>
      </trkpt>
      <trkpt lat="43.1124616" lon="-2.7646463">
        <ele>152.135</ele>
        <time>2021-04-01T09:14:26.384Z</time>
      </trkpt>
      <trkpt lat="43.1124627" lon="-2.7646532">
        <ele>152.11</ele>
        <time>2021-04-01T09:14:26.439Z</time>
      </trkpt>
      <trkpt lat="43.1124637" lon="-2.7646601">
        <ele>152.12</ele>
        <time>2021-04-01T09:14:26.494Z</time>
      </trkpt>
      <trkpt lat="43.112465" lon="-2.7646671">
        <ele>152.131</ele>
        <time>2021-04-01T09:14:26.549Z</time>
      </trkpt>
      <trkpt lat="43.1124661" lon="-2.7646742">
        <ele>152.113</ele>
        <time>2021-04-01T09:14:26.604Z</time>
      </trkpt>
      <trkpt lat="43.1124674" lon="-2.7646811">
        <ele>152.088</ele>
        <time>2021-04-01T09:14:26.659Z</time>
      </trkpt>
      <trkpt lat="43.1124686" lon="-2.7646878">
        <ele>152.073</ele>
        <time>2021-04-01T09:14:26.714Z</time>
      </trkpt>
      <trkpt lat="43.1124698" lon="-2.7646947">
        <ele>152.094</ele>
        <time>2021-04-01T09:14:26.769Z</time>
      </trkpt>
      <trkpt lat="43.1124709" lon="-2.7647016">
        <ele>152.078</ele>
        <time>2021-04-01T09:14:26.824Z</time>
      </trkpt>
      <trkpt lat="43.112472" lon="-2.7647084">
        <ele>152.063</ele>
        <time>2021-04-01T09:14:26.879Z</time>
      </trkpt>
      <trkpt lat="43.1124731" lon="-2.7647153">
        <ele>152.031</ele>
        <time>2021-04-01T09:14:26.934Z</time>
      </trkpt>
      <trkpt lat="43.1124745" lon="-2.7647223">
        <ele>152.027</ele>
        <time>2021-04-01T09:14:26.989Z</time>
      </trkpt>
      <trkpt lat="43.1124754" lon="-2.764729">
        <ele>151.994</ele>
        <time>2021-04-01T09:14:27.044Z</time>
      </trkpt>
      <trkpt lat="43.1124765" lon="-2.7647357">
        <ele>151.975</ele>
        <time>2021-04-01T09:14:27.099Z</time>
      </trkpt>
      <trkpt lat="43.1124772" lon="-2.7647424">
        <ele>151.914</ele>
        <time>2021-04-01T09:14:27.154Z</time>
      </trkpt>
      <trkpt lat="43.1124784" lon="-2.7647494">
        <ele>151.898</ele>
        <time>2021-04-01T09:14:27.209Z</time>
      </trkpt>
      <trkpt lat="43.1124796" lon="-2.7647563">
        <ele>151.902</ele>
        <time>2021-04-01T09:14:27.264Z</time>
      </trkpt>
      <trkpt lat="43.1124811" lon="-2.7647634">
        <ele>151.925</ele>
        <time>2021-04-01T09:14:27.319Z</time>
      </trkpt>
      <trkpt lat="43.1124822" lon="-2.7647702">
        <ele>151.907</ele>
        <time>2021-04-01T09:14:27.374Z</time>
      </trkpt>
      <trkpt lat="43.1124831" lon="-2.7647769">
        <ele>151.875</ele>
        <time>2021-04-01T09:14:27.429Z</time>
      </trkpt>
      <trkpt lat="43.112484" lon="-2.7647837">
        <ele>151.874</ele>
        <time>2021-04-01T09:14:27.484Z</time>
      </trkpt>
      <trkpt lat="43.1124846" lon="-2.7647904">
        <ele>151.803</ele>
        <time>2021-04-01T09:14:27.539Z</time>
      </trkpt>
      <trkpt lat="43.1124856" lon="-2.7647973">
        <ele>151.778</ele>
        <time>2021-04-01T09:14:27.594Z</time>
      </trkpt>
      <trkpt lat="43.1124874" lon="-2.7648045">
        <ele>151.806</ele>
        <time>2021-04-01T09:14:27.649Z</time>
      </trkpt>
      <trkpt lat="43.1124884" lon="-2.764811">
        <ele>151.745</ele>
        <time>2021-04-01T09:14:27.704Z</time>
      </trkpt>
      <trkpt lat="43.1124894" lon="-2.7648175">
        <ele>151.695</ele>
        <time>2021-04-01T09:14:27.759Z</time>
      </trkpt>
      <trkpt lat="43.1124904" lon="-2.7648244">
        <ele>151.677</ele>
        <time>2021-04-01T09:14:27.814Z</time>
      </trkpt>
      <trkpt lat="43.1124916" lon="-2.7648312">
        <ele>151.63</ele>
        <time>2021-04-01T09:14:27.869Z</time>
      </trkpt>
      <trkpt lat="43.1124926" lon="-2.7648379">
        <ele>151.577</ele>
        <time>2021-04-01T09:14:27.924Z</time>
      </trkpt>
      <trkpt lat="43.1124938" lon="-2.7648449">
        <ele>151.572</ele>
        <time>2021-04-01T09:14:27.979Z</time>
      </trkpt>
      <trkpt lat="43.112495" lon="-2.7648518">
        <ele>151.553</ele>
        <time>2021-04-01T09:14:28.034Z</time>
      </trkpt>
      <trkpt lat="43.1124962" lon="-2.7648587">
        <ele>151.547</ele>
        <time>2021-04-01T09:14:28.089Z</time>
      </trkpt>
      <trkpt lat="43.1124975" lon="-2.7648657">
        <ele>151.543</ele>
        <time>2021-04-01T09:14:28.144Z</time>
      </trkpt>
      <trkpt lat="43.1124985" lon="-2.7648725">
        <ele>151.507</ele>
        <time>2021-04-01T09:14:28.199Z</time>
      </trkpt>
      <trkpt lat="43.1124998" lon="-2.764879">
        <ele>151.44</ele>
        <time>2021-04-01T09:14:28.254Z</time>
      </trkpt>
      <trkpt lat="43.1125012" lon="-2.7648857">
        <ele>151.394</ele>
        <time>2021-04-01T09:14:28.309Z</time>
      </trkpt>
      <trkpt lat="43.1125026" lon="-2.7648926">
        <ele>151.416</ele>
        <time>2021-04-01T09:14:28.364Z</time>
      </trkpt>
      <trkpt lat="43.1125041" lon="-2.7648994">
        <ele>151.423</ele>
        <time>2021-04-01T09:14:28.419Z</time>
      </trkpt>
      <trkpt lat="43.1125052" lon="-2.7649061">
        <ele>151.367</ele>
        <time>2021-04-01T09:14:28.474Z</time>
      </trkpt>
      <trkpt lat="43.1125064" lon="-2.7649127">
        <ele>151.341</ele>
        <time>2021-04-01T09:14:28.529Z</time>
      </trkpt>
      <trkpt lat="43.1125074" lon="-2.7649194">
        <ele>151.304</ele>
        <time>2021-04-01T09:14:28.584Z</time>
      </trkpt>
      <trkpt lat="43.1125085" lon="-2.7649262">
        <ele>151.286</ele>
        <time>2021-04-01T09:14:28.639Z</time>
      </trkpt>
      <trkpt lat="43.1125097" lon="-2.7649328">
        <ele>151.234</ele>
        <time>2021-04-01T09:14:28.694Z</time>
      </trkpt>
      <trkpt lat="43.1125107" lon="-2.7649395">
        <ele>151.184</ele>
        <time>2021-04-01T09:14:28.749Z</time>
      </trkpt>
      <trkpt lat="43.1125118" lon="-2.7649462">
        <ele>151.151</ele>
        <time>2021-04-01T09:14:28.804Z</time>
      </trkpt>
      <trkpt lat="43.1125129" lon="-2.7649529">
        <ele>151.136</ele>
        <time>2021-04-01T09:14:28.859Z</time>
      </trkpt>
      <trkpt lat="43.1125136" lon="-2.7649593">
        <ele>151.039</ele>
        <time>2021-04-01T09:14:28.914Z</time>
      </trkpt>
      <trkpt lat="43.1125148" lon="-2.7649658">
        <ele>150.981</ele>
        <time>2021-04-01T09:14:28.969Z</time>
      </trkpt>
      <trkpt lat="43.1125159" lon="-2.7649723">
        <ele>150.943</ele>
        <time>2021-04-01T09:14:29.024Z</time>
      </trkpt>
      <trkpt lat="43.1125174" lon="-2.7649792">
        <ele>150.996</ele>
        <time>2021-04-01T09:14:29.079Z</time>
      </trkpt>
      <trkpt lat="43.1125185" lon="-2.7649861">
        <ele>150.988</ele>
        <time>2021-04-01T09:14:29.134Z</time>
      </trkpt>
      <trkpt lat="43.1125196" lon="-2.7649925">
        <ele>150.941</ele>
        <time>2021-04-01T09:14:29.189Z</time>
      </trkpt>
      <trkpt lat="43.1125208" lon="-2.764999">
        <ele>150.909</ele>
        <time>2021-04-01T09:14:29.244Z</time>
      </trkpt>
      <trkpt lat="43.1125215" lon="-2.7650052">
        <ele>150.794</ele>
        <time>2021-04-01T09:14:29.299Z</time>
      </trkpt>
      <trkpt lat="43.1125228" lon="-2.7650117">
        <ele>150.777</ele>
        <time>2021-04-01T09:14:29.354Z</time>
      </trkpt>
      <trkpt lat="43.1125241" lon="-2.7650183">
        <ele>150.752</ele>
        <time>2021-04-01T09:14:29.409Z</time>
      </trkpt>
      <trkpt lat="43.1125254" lon="-2.7650247">
        <ele>150.722</ele>
        <time>2021-04-01T09:14:29.464Z</time>
      </trkpt>
      <trkpt lat="43.1125265" lon="-2.7650311">
        <ele>150.667</ele>
        <time>2021-04-01T09:14:29.519Z</time>
      </trkpt>
      <trkpt lat="43.1125277" lon="-2.7650377">
        <ele>150.656</ele>
        <time>2021-04-01T09:14:29.574Z</time>
      </trkpt>
      <trkpt lat="43.112529" lon="-2.7650441">
        <ele>150.619</ele>
        <time>2021-04-01T09:14:29.629Z</time>
      </trkpt>
      <trkpt lat="43.11253" lon="-2.7650502">
        <ele>150.533</ele>
        <time>2021-04-01T09:14:29.684Z</time>
      </trkpt>
      <trkpt lat="43.1125313" lon="-2.7650568">
        <ele>150.506</ele>
        <time>2021-04-01T09:14:29.739Z</time>
      </trkpt>
      <trkpt lat="43.1125324" lon="-2.7650634">
        <ele>150.487</ele>
        <time>2021-04-01T09:14:29.794Z</time>
      </trkpt>
      <trkpt lat="43.1125339" lon="-2.7650705">
        <ele>150.565</ele>
        <time>2021-04-01T09:14:29.849Z</time>
      </trkpt>
      <trkpt lat="43.1125352" lon="-2.765077">
        <ele>150.504</ele>
        <time>2021-04-01T09:14:29.904Z</time>
      </trkpt>
      <trkpt lat="43.1125364" lon="-2.7650834">
        <ele>150.428</ele>
        <time>2021-04-01T09:14:29.959Z</time>
      </trkpt>
      <trkpt lat="43.1125378" lon="-2.7650898">
        <ele>150.415</ele>
        <time>2021-04-01T09:14:30.014Z</time>
      </trkpt>
      <trkpt lat="43.1125392" lon="-2.7650961">
        <ele>150.388</ele>
        <time>2021-04-01T09:14:30.069Z</time>
      </trkpt>
      <trkpt lat="43.1125404" lon="-2.7651027">
        <ele>150.356</ele>
        <time>2021-04-01T09:14:30.124Z</time>
      </trkpt>
      <trkpt lat="43.1125417" lon="-2.7651095">
        <ele>150.353</ele>
        <time>2021-04-01T09:14:30.179Z</time>
      </trkpt>
      <trkpt lat="43.112543" lon="-2.765116">
        <ele>150.302</ele>
        <time>2021-04-01T09:14:30.234Z</time>
      </trkpt>
      <trkpt lat="43.1125441" lon="-2.7651224">
        <ele>150.211</ele>
        <time>2021-04-01T09:14:30.289Z</time>
      </trkpt>
      <trkpt lat="43.1125454" lon="-2.7651289">
        <ele>150.188</ele>
        <time>2021-04-01T09:14:30.344Z</time>
      </trkpt>
      <trkpt lat="43.1125467" lon="-2.7651355">
        <ele>150.164</ele>
        <time>2021-04-01T09:14:30.399Z</time>
      </trkpt>
      <trkpt lat="43.1125481" lon="-2.7651422">
        <ele>150.154</ele>
        <time>2021-04-01T09:14:30.454Z</time>
      </trkpt>
      <trkpt lat="43.1125491" lon="-2.7651487">
        <ele>150.088</ele>
        <time>2021-04-01T09:14:30.509Z</time>
      </trkpt>
      <trkpt lat="43.1125504" lon="-2.7651552">
        <ele>150.052</ele>
        <time>2021-04-01T09:14:30.564Z</time>
      </trkpt>
      <trkpt lat="43.1125517" lon="-2.7651617">
        <ele>150.039</ele>
        <time>2021-04-01T09:14:30.619Z</time>
      </trkpt>
      <trkpt lat="43.1125529" lon="-2.7651685">
        <ele>150.003</ele>
        <time>2021-04-01T09:14:30.674Z</time>
      </trkpt>
      <trkpt lat="43.1125542" lon="-2.7651753">
        <ele>149.989</ele>
        <time>2021-04-01T09:14:30.729Z</time>
      </trkpt>
      <trkpt lat="43.1125552" lon="-2.7651818">
        <ele>149.925</ele>
        <time>2021-04-01T09:14:30.784Z</time>
      </trkpt>
      <trkpt lat="43.1125564" lon="-2.7651885">
        <ele>149.896</ele>
        <time>2021-04-01T09:14:30.836Z</time>
      </trkpt>
      <trkpt lat="43.1125574" lon="-2.7651952">
        <ele>149.847</ele>
        <time>2021-04-01T09:14:30.888Z</time>
      </trkpt>
      <trkpt lat="43.1125584" lon="-2.7652018">
        <ele>149.777</ele>
        <time>2021-04-01T09:14:30.940Z</time>
      </trkpt>
      <trkpt lat="43.1125595" lon="-2.7652084">
        <ele>149.723</ele>
        <time>2021-04-01T09:14:30.992Z</time>
      </trkpt>
      <trkpt lat="43.1125606" lon="-2.7652152">
        <ele>149.686</ele>
        <time>2021-04-01T09:14:31.044Z</time>
      </trkpt>
      <trkpt lat="43.1125616" lon="-2.7652218">
        <ele>149.64</ele>
        <time>2021-04-01T09:14:31.096Z</time>
      </trkpt>
      <trkpt lat="43.1125627" lon="-2.7652285">
        <ele>149.61</ele>
        <time>2021-04-01T09:14:31.148Z</time>
      </trkpt>
      <trkpt lat="43.1125639" lon="-2.7652352">
        <ele>149.577</ele>
        <time>2021-04-01T09:14:31.200Z</time>
      </trkpt>
      <trkpt lat="43.1125649" lon="-2.7652418">
        <ele>149.525</ele>
        <time>2021-04-01T09:14:31.252Z</time>
      </trkpt>
      <trkpt lat="43.1125659" lon="-2.7652484">
        <ele>149.474</ele>
        <time>2021-04-01T09:14:31.305Z</time>
      </trkpt>
      <trkpt lat="43.112567" lon="-2.765255">
        <ele>149.43</ele>
        <time>2021-04-01T09:14:31.357Z</time>
      </trkpt>
      <trkpt lat="43.1125681" lon="-2.7652616">
        <ele>149.393</ele>
        <time>2021-04-01T09:14:31.409Z</time>
      </trkpt>
      <trkpt lat="43.1125691" lon="-2.7652682">
        <ele>149.339</ele>
        <time>2021-04-01T09:14:31.461Z</time>
      </trkpt>
      <trkpt lat="43.1125702" lon="-2.7652747">
        <ele>149.314</ele>
        <time>2021-04-01T09:14:31.513Z</time>
      </trkpt>
      <trkpt lat="43.1125712" lon="-2.7652812">
        <ele>149.291</ele>
        <time>2021-04-01T09:14:31.565Z</time>
      </trkpt>
      <trkpt lat="43.1125722" lon="-2.7652878">
        <ele>149.261</ele>
        <time>2021-04-01T09:14:31.617Z</time>
      </trkpt>
      <trkpt lat="43.1125732" lon="-2.7652944">
        <ele>149.225</ele>
        <time>2021-04-01T09:14:31.669Z</time>
      </trkpt>
      <trkpt lat="43.1125744" lon="-2.7653009">
        <ele>149.187</ele>
        <time>2021-04-01T09:14:31.721Z</time>
      </trkpt>
      <trkpt lat="43.1125754" lon="-2.7653074">
        <ele>149.189</ele>
        <time>2021-04-01T09:14:31.774Z</time>
      </trkpt>
      <trkpt lat="43.1125766" lon="-2.7653138">
        <ele>149.184</ele>
        <time>2021-04-01T09:14:31.832Z</time>
      </trkpt>
      <trkpt lat="43.1125776" lon="-2.7653201">
        <ele>149.112</ele>
        <time>2021-04-01T09:14:31.890Z</time>
      </trkpt>
      <trkpt lat="43.1125787" lon="-2.7653264">
        <ele>149.072</ele>
        <time>2021-04-01T09:14:31.948Z</time>
      </trkpt>
      <trkpt lat="43.1125798" lon="-2.7653327">
        <ele>149.041</ele>
        <time>2021-04-01T09:14:32.006Z</time>
      </trkpt>
      <trkpt lat="43.1125808" lon="-2.765339">
        <ele>148.993</ele>
        <time>2021-04-01T09:14:32.064Z</time>
      </trkpt>
      <trkpt lat="43.1125819" lon="-2.7653453">
        <ele>148.951</ele>
        <time>2021-04-01T09:14:32.122Z</time>
      </trkpt>
      <trkpt lat="43.1125831" lon="-2.7653515">
        <ele>148.915</ele>
        <time>2021-04-01T09:14:32.180Z</time>
      </trkpt>
      <trkpt lat="43.1125844" lon="-2.7653579">
        <ele>148.927</ele>
        <time>2021-04-01T09:14:32.238Z</time>
      </trkpt>
      <trkpt lat="43.1125858" lon="-2.7653641">
        <ele>148.923</ele>
        <time>2021-04-01T09:14:32.296Z</time>
      </trkpt>
      <trkpt lat="43.1125868" lon="-2.7653703">
        <ele>148.905</ele>
        <time>2021-04-01T09:14:32.354Z</time>
      </trkpt>
      <trkpt lat="43.1125878" lon="-2.7653765">
        <ele>148.849</ele>
        <time>2021-04-01T09:14:32.412Z</time>
      </trkpt>
      <trkpt lat="43.1125889" lon="-2.7653828">
        <ele>148.794</ele>
        <time>2021-04-01T09:14:32.470Z</time>
      </trkpt>
      <trkpt lat="43.11259" lon="-2.7653888">
        <ele>148.759</ele>
        <time>2021-04-01T09:14:32.528Z</time>
      </trkpt>
      <trkpt lat="43.1125913" lon="-2.765395">
        <ele>148.754</ele>
        <time>2021-04-01T09:14:32.586Z</time>
      </trkpt>
      <trkpt lat="43.1125926" lon="-2.7654013">
        <ele>148.715</ele>
        <time>2021-04-01T09:14:32.644Z</time>
      </trkpt>
      <trkpt lat="43.1125939" lon="-2.7654076">
        <ele>148.695</ele>
        <time>2021-04-01T09:14:32.702Z</time>
      </trkpt>
      <trkpt lat="43.1125952" lon="-2.7654139">
        <ele>148.689</ele>
        <time>2021-04-01T09:14:32.760Z</time>
      </trkpt>
      <trkpt lat="43.1125962" lon="-2.76542">
        <ele>148.673</ele>
        <time>2021-04-01T09:14:32.819Z</time>
      </trkpt>
      <trkpt lat="43.1125973" lon="-2.7654261">
        <ele>148.646</ele>
        <time>2021-04-01T09:14:32.874Z</time>
      </trkpt>
      <trkpt lat="43.1125984" lon="-2.7654323">
        <ele>148.607</ele>
        <time>2021-04-01T09:14:32.929Z</time>
      </trkpt>
      <trkpt lat="43.1125996" lon="-2.7654385">
        <ele>148.59</ele>
        <time>2021-04-01T09:14:32.984Z</time>
      </trkpt>
      <trkpt lat="43.1126006" lon="-2.7654448">
        <ele>148.544</ele>
        <time>2021-04-01T09:14:33.039Z</time>
      </trkpt>
      <trkpt lat="43.1126019" lon="-2.7654511">
        <ele>148.523</ele>
        <time>2021-04-01T09:14:33.094Z</time>
      </trkpt>
      <trkpt lat="43.1126031" lon="-2.7654572">
        <ele>148.465</ele>
        <time>2021-04-01T09:14:33.149Z</time>
      </trkpt>
      <trkpt lat="43.1126046" lon="-2.7654636">
        <ele>148.462</ele>
        <time>2021-04-01T09:14:33.204Z</time>
      </trkpt>
      <trkpt lat="43.1126059" lon="-2.7654697">
        <ele>148.418</ele>
        <time>2021-04-01T09:14:33.259Z</time>
      </trkpt>
      <trkpt lat="43.112607" lon="-2.7654759">
        <ele>148.369</ele>
        <time>2021-04-01T09:14:33.314Z</time>
      </trkpt>
      <trkpt lat="43.1126082" lon="-2.7654821">
        <ele>148.355</ele>
        <time>2021-04-01T09:14:33.369Z</time>
      </trkpt>
      <trkpt lat="43.1126093" lon="-2.7654886">
        <ele>148.353</ele>
        <time>2021-04-01T09:14:33.424Z</time>
      </trkpt>
      <trkpt lat="43.1126106" lon="-2.7654949">
        <ele>148.296</ele>
        <time>2021-04-01T09:14:33.479Z</time>
      </trkpt>
      <trkpt lat="43.112612" lon="-2.765501">
        <ele>148.249</ele>
        <time>2021-04-01T09:14:33.534Z</time>
      </trkpt>
      <trkpt lat="43.1126134" lon="-2.765507">
        <ele>148.213</ele>
        <time>2021-04-01T09:14:33.589Z</time>
      </trkpt>
      <trkpt lat="43.112615" lon="-2.7655134">
        <ele>148.197</ele>
        <time>2021-04-01T09:14:33.644Z</time>
      </trkpt>
      <trkpt lat="43.1126166" lon="-2.76552">
        <ele>148.181</ele>
        <time>2021-04-01T09:14:33.699Z</time>
      </trkpt>
      <trkpt lat="43.1126183" lon="-2.7655265">
        <ele>148.195</ele>
        <time>2021-04-01T09:14:33.754Z</time>
      </trkpt>
      <trkpt lat="43.1126198" lon="-2.7655326">
        <ele>148.176</ele>
        <time>2021-04-01T09:14:33.809Z</time>
      </trkpt>
      <trkpt lat="43.112621" lon="-2.7655388">
        <ele>148.112</ele>
        <time>2021-04-01T09:14:33.864Z</time>
      </trkpt>
      <trkpt lat="43.1126223" lon="-2.765545">
        <ele>148.056</ele>
        <time>2021-04-01T09:14:33.919Z</time>
      </trkpt>
      <trkpt lat="43.1126236" lon="-2.7655509">
        <ele>147.992</ele>
        <time>2021-04-01T09:14:33.974Z</time>
      </trkpt>
      <trkpt lat="43.1126254" lon="-2.7655571">
        <ele>147.968</ele>
        <time>2021-04-01T09:14:34.029Z</time>
      </trkpt>
      <trkpt lat="43.1126274" lon="-2.7655635">
        <ele>147.948</ele>
        <time>2021-04-01T09:14:34.084Z</time>
      </trkpt>
      <trkpt lat="43.1126287" lon="-2.7655698">
        <ele>147.945</ele>
        <time>2021-04-01T09:14:34.139Z</time>
      </trkpt>
      <trkpt lat="43.1126302" lon="-2.765576">
        <ele>147.922</ele>
        <time>2021-04-01T09:14:34.194Z</time>
      </trkpt>
      <trkpt lat="43.1126316" lon="-2.7655823">
        <ele>147.86</ele>
        <time>2021-04-01T09:14:34.249Z</time>
      </trkpt>
      <trkpt lat="43.1126335" lon="-2.7655885">
        <ele>147.824</ele>
        <time>2021-04-01T09:14:34.304Z</time>
      </trkpt>
      <trkpt lat="43.1126353" lon="-2.7655947">
        <ele>147.796</ele>
        <time>2021-04-01T09:14:34.359Z</time>
      </trkpt>
      <trkpt lat="43.1126369" lon="-2.7656011">
        <ele>147.743</ele>
        <time>2021-04-01T09:14:34.414Z</time>
      </trkpt>
      <trkpt lat="43.1126385" lon="-2.7656075">
        <ele>147.73</ele>
        <time>2021-04-01T09:14:34.469Z</time>
      </trkpt>
      <trkpt lat="43.1126401" lon="-2.7656137">
        <ele>147.686</ele>
        <time>2021-04-01T09:14:34.524Z</time>
      </trkpt>
      <trkpt lat="43.1126419" lon="-2.76562">
        <ele>147.651</ele>
        <time>2021-04-01T09:14:34.579Z</time>
      </trkpt>
      <trkpt lat="43.1126434" lon="-2.7656264">
        <ele>147.585</ele>
        <time>2021-04-01T09:14:34.634Z</time>
      </trkpt>
      <trkpt lat="43.112645" lon="-2.7656327">
        <ele>147.557</ele>
        <time>2021-04-01T09:14:34.689Z</time>
      </trkpt>
      <trkpt lat="43.1126468" lon="-2.7656389">
        <ele>147.522</ele>
        <time>2021-04-01T09:14:34.744Z</time>
      </trkpt>
      <trkpt lat="43.1126486" lon="-2.7656451">
        <ele>147.467</ele>
        <time>2021-04-01T09:14:34.799Z</time>
      </trkpt>
      <trkpt lat="43.1126502" lon="-2.7656513">
        <ele>147.413</ele>
        <time>2021-04-01T09:14:34.857Z</time>
      </trkpt>
      <trkpt lat="43.112652" lon="-2.7656576">
        <ele>147.365</ele>
        <time>2021-04-01T09:14:34.915Z</time>
      </trkpt>
      <trkpt lat="43.1126539" lon="-2.7656638">
        <ele>147.34</ele>
        <time>2021-04-01T09:14:34.973Z</time>
      </trkpt>
      <trkpt lat="43.1126558" lon="-2.7656701">
        <ele>147.288</ele>
        <time>2021-04-01T09:14:35.031Z</time>
      </trkpt>
      <trkpt lat="43.1126577" lon="-2.7656764">
        <ele>147.233</ele>
        <time>2021-04-01T09:14:35.089Z</time>
      </trkpt>
      <trkpt lat="43.1126597" lon="-2.7656826">
        <ele>147.188</ele>
        <time>2021-04-01T09:14:35.147Z</time>
      </trkpt>
      <trkpt lat="43.1126617" lon="-2.7656889">
        <ele>147.15</ele>
        <time>2021-04-01T09:14:35.205Z</time>
      </trkpt>
      <trkpt lat="43.1126637" lon="-2.7656951">
        <ele>147.122</ele>
        <time>2021-04-01T09:14:35.263Z</time>
      </trkpt>
      <trkpt lat="43.1126658" lon="-2.7657014">
        <ele>147.097</ele>
        <time>2021-04-01T09:14:35.321Z</time>
      </trkpt>
      <trkpt lat="43.1126678" lon="-2.7657077">
        <ele>147.032</ele>
        <time>2021-04-01T09:14:35.379Z</time>
      </trkpt>
      <trkpt lat="43.1126699" lon="-2.765714">
        <ele>146.991</ele>
        <time>2021-04-01T09:14:35.437Z</time>
      </trkpt>
      <trkpt lat="43.1126726" lon="-2.7657203">
        <ele>147.027</ele>
        <time>2021-04-01T09:14:35.495Z</time>
      </trkpt>
      <trkpt lat="43.1126751" lon="-2.7657269">
        <ele>147.08</ele>
        <time>2021-04-01T09:14:35.553Z</time>
      </trkpt>
      <trkpt lat="43.1126774" lon="-2.7657331">
        <ele>147.015</ele>
        <time>2021-04-01T09:14:35.611Z</time>
      </trkpt>
      <trkpt lat="43.1126792" lon="-2.7657391">
        <ele>146.897</ele>
        <time>2021-04-01T09:14:35.669Z</time>
      </trkpt>
      <trkpt lat="43.1126814" lon="-2.765745">
        <ele>146.885</ele>
        <time>2021-04-01T09:14:35.727Z</time>
      </trkpt>
      <trkpt lat="43.1126836" lon="-2.7657511">
        <ele>146.834</ele>
        <time>2021-04-01T09:14:35.785Z</time>
      </trkpt>
      <trkpt lat="43.1126859" lon="-2.7657575">
        <ele>146.828</ele>
        <time>2021-04-01T09:14:35.844Z</time>
      </trkpt>
      <trkpt lat="43.1126882" lon="-2.7657639">
        <ele>146.785</ele>
        <time>2021-04-01T09:14:35.902Z</time>
      </trkpt>
      <trkpt lat="43.1126906" lon="-2.76577">
        <ele>146.751</ele>
        <time>2021-04-01T09:14:35.960Z</time>
      </trkpt>
      <trkpt lat="43.1126929" lon="-2.7657761">
        <ele>146.736</ele>
        <time>2021-04-01T09:14:36.018Z</time>
      </trkpt>
      <trkpt lat="43.1126952" lon="-2.7657822">
        <ele>146.719</ele>
        <time>2021-04-01T09:14:36.076Z</time>
      </trkpt>
      <trkpt lat="43.1126974" lon="-2.7657884">
        <ele>146.682</ele>
        <time>2021-04-01T09:14:36.134Z</time>
      </trkpt>
      <trkpt lat="43.1126997" lon="-2.7657946">
        <ele>146.639</ele>
        <time>2021-04-01T09:14:36.192Z</time>
      </trkpt>
      <trkpt lat="43.1127023" lon="-2.7658007">
        <ele>146.624</ele>
        <time>2021-04-01T09:14:36.250Z</time>
      </trkpt>
      <trkpt lat="43.1127046" lon="-2.7658068">
        <ele>146.583</ele>
        <time>2021-04-01T09:14:36.308Z</time>
      </trkpt>
      <trkpt lat="43.1127071" lon="-2.7658129">
        <ele>146.545</ele>
        <time>2021-04-01T09:14:36.366Z</time>
      </trkpt>
      <trkpt lat="43.1127095" lon="-2.7658191">
        <ele>146.517</ele>
        <time>2021-04-01T09:14:36.424Z</time>
      </trkpt>
      <trkpt lat="43.1127119" lon="-2.765825">
        <ele>146.475</ele>
        <time>2021-04-01T09:14:36.482Z</time>
      </trkpt>
      <trkpt lat="43.1127145" lon="-2.7658309">
        <ele>146.431</ele>
        <time>2021-04-01T09:14:36.540Z</time>
      </trkpt>
      <trkpt lat="43.1127169" lon="-2.765837">
        <ele>146.379</ele>
        <time>2021-04-01T09:14:36.598Z</time>
      </trkpt>
      <trkpt lat="43.1127193" lon="-2.7658429">
        <ele>146.309</ele>
        <time>2021-04-01T09:14:36.656Z</time>
      </trkpt>
      <trkpt lat="43.112722" lon="-2.7658487">
        <ele>146.25</ele>
        <time>2021-04-01T09:14:36.714Z</time>
      </trkpt>
      <trkpt lat="43.112725" lon="-2.7658545">
        <ele>146.219</ele>
        <time>2021-04-01T09:14:36.772Z</time>
      </trkpt>
      <trkpt lat="43.1127274" lon="-2.7658603">
        <ele>146.161</ele>
        <time>2021-04-01T09:14:36.830Z</time>
      </trkpt>
      <trkpt lat="43.1127298" lon="-2.7658665">
        <ele>146.127</ele>
        <time>2021-04-01T09:14:36.889Z</time>
      </trkpt>
      <trkpt lat="43.1127322" lon="-2.7658729">
        <ele>146.142</ele>
        <time>2021-04-01T09:14:36.938Z</time>
      </trkpt>
      <trkpt lat="43.1127348" lon="-2.765879">
        <ele>146.126</ele>
        <time>2021-04-01T09:14:36.987Z</time>
      </trkpt>
      <trkpt lat="43.1127376" lon="-2.7658849">
        <ele>146.105</ele>
        <time>2021-04-01T09:14:37.036Z</time>
      </trkpt>
      <trkpt lat="43.1127406" lon="-2.7658909">
        <ele>146.094</ele>
        <time>2021-04-01T09:14:37.085Z</time>
      </trkpt>
      <trkpt lat="43.1127434" lon="-2.7658969">
        <ele>146.087</ele>
        <time>2021-04-01T09:14:37.135Z</time>
      </trkpt>
      <trkpt lat="43.1127459" lon="-2.7659027">
        <ele>146.04</ele>
        <time>2021-04-01T09:14:37.184Z</time>
      </trkpt>
      <trkpt lat="43.1127483" lon="-2.7659086">
        <ele>145.985</ele>
        <time>2021-04-01T09:14:37.233Z</time>
      </trkpt>
      <trkpt lat="43.1127509" lon="-2.7659146">
        <ele>145.949</ele>
        <time>2021-04-01T09:14:37.282Z</time>
      </trkpt>
      <trkpt lat="43.1127537" lon="-2.7659206">
        <ele>145.931</ele>
        <time>2021-04-01T09:14:37.331Z</time>
      </trkpt>
      <trkpt lat="43.1127566" lon="-2.7659265">
        <ele>145.928</ele>
        <time>2021-04-01T09:14:37.381Z</time>
      </trkpt>
      <trkpt lat="43.1127594" lon="-2.7659327">
        <ele>145.917</ele>
        <time>2021-04-01T09:14:37.430Z</time>
      </trkpt>
      <trkpt lat="43.1127619" lon="-2.765939">
        <ele>145.928</ele>
        <time>2021-04-01T09:14:37.479Z</time>
      </trkpt>
      <trkpt lat="43.1127644" lon="-2.7659449">
        <ele>145.898</ele>
        <time>2021-04-01T09:14:37.528Z</time>
      </trkpt>
      <trkpt lat="43.112767" lon="-2.765951">
        <ele>145.884</ele>
        <time>2021-04-01T09:14:37.577Z</time>
      </trkpt>
      <trkpt lat="43.1127698" lon="-2.7659568">
        <ele>145.864</ele>
        <time>2021-04-01T09:14:37.627Z</time>
      </trkpt>
      <trkpt lat="43.1127727" lon="-2.7659629">
        <ele>145.868</ele>
        <time>2021-04-01T09:14:37.676Z</time>
      </trkpt>
      <trkpt lat="43.1127754" lon="-2.765969">
        <ele>145.831</ele>
        <time>2021-04-01T09:14:37.725Z</time>
      </trkpt>
      <trkpt lat="43.1127778" lon="-2.7659748">
        <ele>145.81</ele>
        <time>2021-04-01T09:14:37.774Z</time>
      </trkpt>
      <trkpt lat="43.1127803" lon="-2.765981">
        <ele>145.787</ele>
        <time>2021-04-01T09:14:37.824Z</time>
      </trkpt>
      <trkpt lat="43.1127829" lon="-2.7659872">
        <ele>145.769</ele>
        <time>2021-04-01T09:14:37.879Z</time>
      </trkpt>
      <trkpt lat="43.1127855" lon="-2.7659934">
        <ele>145.738</ele>
        <time>2021-04-01T09:14:37.934Z</time>
      </trkpt>
      <trkpt lat="43.1127881" lon="-2.7659994">
        <ele>145.728</ele>
        <time>2021-04-01T09:14:37.989Z</time>
      </trkpt>
      <trkpt lat="43.112791" lon="-2.7660053">
        <ele>145.709</ele>
        <time>2021-04-01T09:14:38.044Z</time>
      </trkpt>
      <trkpt lat="43.1127939" lon="-2.7660117">
        <ele>145.704</ele>
        <time>2021-04-01T09:14:38.099Z</time>
      </trkpt>
      <trkpt lat="43.1127965" lon="-2.7660178">
        <ele>145.664</ele>
        <time>2021-04-01T09:14:38.154Z</time>
      </trkpt>
      <trkpt lat="43.1127991" lon="-2.7660237">
        <ele>145.615</ele>
        <time>2021-04-01T09:14:38.209Z</time>
      </trkpt>
      <trkpt lat="43.1128019" lon="-2.7660296">
        <ele>145.59</ele>
        <time>2021-04-01T09:14:38.264Z</time>
      </trkpt>
      <trkpt lat="43.1128047" lon="-2.7660356">
        <ele>145.553</ele>
        <time>2021-04-01T09:14:38.319Z</time>
      </trkpt>
      <trkpt lat="43.1128074" lon="-2.7660417">
        <ele>145.519</ele>
        <time>2021-04-01T09:14:38.374Z</time>
      </trkpt>
      <trkpt lat="43.1128101" lon="-2.7660479">
        <ele>145.511</ele>
        <time>2021-04-01T09:14:38.429Z</time>
      </trkpt>
      <trkpt lat="43.1128128" lon="-2.7660537">
        <ele>145.5</ele>
        <time>2021-04-01T09:14:38.484Z</time>
      </trkpt>
      <trkpt lat="43.1128155" lon="-2.7660599">
        <ele>145.458</ele>
        <time>2021-04-01T09:14:38.539Z</time>
      </trkpt>
      <trkpt lat="43.1128183" lon="-2.7660661">
        <ele>145.432</ele>
        <time>2021-04-01T09:14:38.594Z</time>
      </trkpt>
      <trkpt lat="43.1128212" lon="-2.7660722">
        <ele>145.43</ele>
        <time>2021-04-01T09:14:38.649Z</time>
      </trkpt>
      <trkpt lat="43.112824" lon="-2.7660782">
        <ele>145.408</ele>
        <time>2021-04-01T09:14:38.704Z</time>
      </trkpt>
      <trkpt lat="43.1128267" lon="-2.7660842">
        <ele>145.369</ele>
        <time>2021-04-01T09:14:38.759Z</time>
      </trkpt>
      <trkpt lat="43.1128295" lon="-2.7660903">
        <ele>145.362</ele>
        <time>2021-04-01T09:14:38.814Z</time>
      </trkpt>
      <trkpt lat="43.1128322" lon="-2.7660963">
        <ele>145.331</ele>
        <time>2021-04-01T09:14:38.869Z</time>
      </trkpt>
      <trkpt lat="43.1128349" lon="-2.7661022">
        <ele>145.291</ele>
        <time>2021-04-01T09:14:38.924Z</time>
      </trkpt>
      <trkpt lat="43.1128376" lon="-2.7661081">
        <ele>145.249</ele>
        <time>2021-04-01T09:14:38.979Z</time>
      </trkpt>
      <trkpt lat="43.1128403" lon="-2.766114">
        <ele>145.236</ele>
        <time>2021-04-01T09:14:39.034Z</time>
      </trkpt>
      <trkpt lat="43.1128431" lon="-2.7661199">
        <ele>145.214</ele>
        <time>2021-04-01T09:14:39.089Z</time>
      </trkpt>
      <trkpt lat="43.112846" lon="-2.7661257">
        <ele>145.207</ele>
        <time>2021-04-01T09:14:39.144Z</time>
      </trkpt>
      <trkpt lat="43.1128486" lon="-2.7661316">
        <ele>145.165</ele>
        <time>2021-04-01T09:14:39.199Z</time>
      </trkpt>
      <trkpt lat="43.1128512" lon="-2.7661375">
        <ele>145.131</ele>
        <time>2021-04-01T09:14:39.254Z</time>
      </trkpt>
      <trkpt lat="43.1128538" lon="-2.7661436">
        <ele>145.098</ele>
        <time>2021-04-01T09:14:39.309Z</time>
      </trkpt>
      <trkpt lat="43.1128564" lon="-2.7661494">
        <ele>145.077</ele>
        <time>2021-04-01T09:14:39.364Z</time>
      </trkpt>
      <trkpt lat="43.1128592" lon="-2.7661552">
        <ele>145.052</ele>
        <time>2021-04-01T09:14:39.419Z</time>
      </trkpt>
      <trkpt lat="43.112862" lon="-2.7661608">
        <ele>145.033</ele>
        <time>2021-04-01T09:14:39.474Z</time>
      </trkpt>
      <trkpt lat="43.112865" lon="-2.7661669">
        <ele>145.015</ele>
        <time>2021-04-01T09:14:39.529Z</time>
      </trkpt>
      <trkpt lat="43.1128678" lon="-2.7661729">
        <ele>145.035</ele>
        <time>2021-04-01T09:14:39.584Z</time>
      </trkpt>
      <trkpt lat="43.1128704" lon="-2.7661787">
        <ele>144.996</ele>
        <time>2021-04-01T09:14:39.639Z</time>
      </trkpt>
      <trkpt lat="43.1128732" lon="-2.7661844">
        <ele>144.988</ele>
        <time>2021-04-01T09:14:39.694Z</time>
      </trkpt>
      <trkpt lat="43.1128759" lon="-2.76619">
        <ele>144.955</ele>
        <time>2021-04-01T09:14:39.749Z</time>
      </trkpt>
      <trkpt lat="43.1128786" lon="-2.7661957">
        <ele>144.888</ele>
        <time>2021-04-01T09:14:39.804Z</time>
      </trkpt>
      <trkpt lat="43.1128814" lon="-2.7662015">
        <ele>144.851</ele>
        <time>2021-04-01T09:14:39.859Z</time>
      </trkpt>
      <trkpt lat="43.1128843" lon="-2.7662072">
        <ele>144.856</ele>
        <time>2021-04-01T09:14:39.914Z</time>
      </trkpt>
      <trkpt lat="43.1128872" lon="-2.7662131">
        <ele>144.824</ele>
        <time>2021-04-01T09:14:39.969Z</time>
      </trkpt>
      <trkpt lat="43.1128901" lon="-2.7662189">
        <ele>144.826</ele>
        <time>2021-04-01T09:14:40.024Z</time>
      </trkpt>
      <trkpt lat="43.112893" lon="-2.7662246">
        <ele>144.819</ele>
        <time>2021-04-01T09:14:40.079Z</time>
      </trkpt>
      <trkpt lat="43.112896" lon="-2.7662303">
        <ele>144.784</ele>
        <time>2021-04-01T09:14:40.134Z</time>
      </trkpt>
      <trkpt lat="43.112899" lon="-2.7662361">
        <ele>144.783</ele>
        <time>2021-04-01T09:14:40.189Z</time>
      </trkpt>
      <trkpt lat="43.1129019" lon="-2.7662419">
        <ele>144.749</ele>
        <time>2021-04-01T09:14:40.244Z</time>
      </trkpt>
      <trkpt lat="43.112905" lon="-2.7662477">
        <ele>144.721</ele>
        <time>2021-04-01T09:14:40.299Z</time>
      </trkpt>
      <trkpt lat="43.1129078" lon="-2.7662534">
        <ele>144.728</ele>
        <time>2021-04-01T09:14:40.354Z</time>
      </trkpt>
      <trkpt lat="43.1129107" lon="-2.7662593">
        <ele>144.716</ele>
        <time>2021-04-01T09:14:40.409Z</time>
      </trkpt>
      <trkpt lat="43.1129137" lon="-2.7662651">
        <ele>144.723</ele>
        <time>2021-04-01T09:14:40.464Z</time>
      </trkpt>
      <trkpt lat="43.1129166" lon="-2.7662711">
        <ele>144.732</ele>
        <time>2021-04-01T09:14:40.519Z</time>
      </trkpt>
      <trkpt lat="43.1129193" lon="-2.766277">
        <ele>144.664</ele>
        <time>2021-04-01T09:14:40.574Z</time>
      </trkpt>
      <trkpt lat="43.1129222" lon="-2.7662827">
        <ele>144.643</ele>
        <time>2021-04-01T09:14:40.629Z</time>
      </trkpt>
      <trkpt lat="43.1129249" lon="-2.7662883">
        <ele>144.629</ele>
        <time>2021-04-01T09:14:40.684Z</time>
      </trkpt>
      <trkpt lat="43.1129281" lon="-2.7662943">
        <ele>144.657</ele>
        <time>2021-04-01T09:14:40.739Z</time>
      </trkpt>
      <trkpt lat="43.112931" lon="-2.7663002">
        <ele>144.616</ele>
        <time>2021-04-01T09:14:40.794Z</time>
      </trkpt>
      <trkpt lat="43.1129341" lon="-2.766306">
        <ele>144.607</ele>
        <time>2021-04-01T09:14:40.849Z</time>
      </trkpt>
      <trkpt lat="43.1129369" lon="-2.7663119">
        <ele>144.591</ele>
        <time>2021-04-01T09:14:40.904Z</time>
      </trkpt>
      <trkpt lat="43.1129398" lon="-2.7663174">
        <ele>144.565</ele>
        <time>2021-04-01T09:14:40.959Z</time>
      </trkpt>
      <trkpt lat="43.1129426" lon="-2.7663232">
        <ele>144.54</ele>
        <time>2021-04-01T09:14:41.014Z</time>
      </trkpt>
      <trkpt lat="43.1129456" lon="-2.7663292">
        <ele>144.522</ele>
        <time>2021-04-01T09:14:41.069Z</time>
      </trkpt>
      <trkpt lat="43.1129485" lon="-2.7663347">
        <ele>144.511</ele>
        <time>2021-04-01T09:14:41.124Z</time>
      </trkpt>
      <trkpt lat="43.1129514" lon="-2.7663403">
        <ele>144.506</ele>
        <time>2021-04-01T09:14:41.179Z</time>
      </trkpt>
      <trkpt lat="43.1129547" lon="-2.766346">
        <ele>144.492</ele>
        <time>2021-04-01T09:14:41.234Z</time>
      </trkpt>
      <trkpt lat="43.1129579" lon="-2.7663518">
        <ele>144.5</ele>
        <time>2021-04-01T09:14:41.289Z</time>
      </trkpt>
      <trkpt lat="43.1129609" lon="-2.7663574">
        <ele>144.526</ele>
        <time>2021-04-01T09:14:41.344Z</time>
      </trkpt>
      <trkpt lat="43.1129639" lon="-2.766363">
        <ele>144.505</ele>
        <time>2021-04-01T09:14:41.399Z</time>
      </trkpt>
      <trkpt lat="43.112967" lon="-2.7663681">
        <ele>144.497</ele>
        <time>2021-04-01T09:14:41.454Z</time>
      </trkpt>
      <trkpt lat="43.1129702" lon="-2.7663739">
        <ele>144.496</ele>
        <time>2021-04-01T09:14:41.509Z</time>
      </trkpt>
      <trkpt lat="43.1129735" lon="-2.7663797">
        <ele>144.468</ele>
        <time>2021-04-01T09:14:41.564Z</time>
      </trkpt>
      <trkpt lat="43.1129766" lon="-2.7663854">
        <ele>144.447</ele>
        <time>2021-04-01T09:14:41.619Z</time>
      </trkpt>
      <trkpt lat="43.1129795" lon="-2.7663909">
        <ele>144.434</ele>
        <time>2021-04-01T09:14:41.674Z</time>
      </trkpt>
      <trkpt lat="43.1129827" lon="-2.7663967">
        <ele>144.423</ele>
        <time>2021-04-01T09:14:41.729Z</time>
      </trkpt>
      <trkpt lat="43.112986" lon="-2.7664021">
        <ele>144.439</ele>
        <time>2021-04-01T09:14:41.784Z</time>
      </trkpt>
      <trkpt lat="43.1129893" lon="-2.7664074">
        <ele>144.427</ele>
        <time>2021-04-01T09:14:41.839Z</time>
      </trkpt>
      <trkpt lat="43.1129924" lon="-2.7664128">
        <ele>144.386</ele>
        <time>2021-04-01T09:14:41.894Z</time>
      </trkpt>
      <trkpt lat="43.1129956" lon="-2.7664184">
        <ele>144.4</ele>
        <time>2021-04-01T09:14:41.949Z</time>
      </trkpt>
      <trkpt lat="43.1129987" lon="-2.7664239">
        <ele>144.395</ele>
        <time>2021-04-01T09:14:42.004Z</time>
      </trkpt>
      <trkpt lat="43.1130018" lon="-2.7664294">
        <ele>144.409</ele>
        <time>2021-04-01T09:14:42.059Z</time>
      </trkpt>
      <trkpt lat="43.1130053" lon="-2.7664346">
        <ele>144.416</ele>
        <time>2021-04-01T09:14:42.114Z</time>
      </trkpt>
      <trkpt lat="43.1130085" lon="-2.7664401">
        <ele>144.454</ele>
        <time>2021-04-01T09:14:42.169Z</time>
      </trkpt>
      <trkpt lat="43.1130115" lon="-2.7664457">
        <ele>144.486</ele>
        <time>2021-04-01T09:14:42.224Z</time>
      </trkpt>
      <trkpt lat="43.1130147" lon="-2.7664513">
        <ele>144.515</ele>
        <time>2021-04-01T09:14:42.279Z</time>
      </trkpt>
      <trkpt lat="43.1130179" lon="-2.7664568">
        <ele>144.527</ele>
        <time>2021-04-01T09:14:42.334Z</time>
      </trkpt>
      <trkpt lat="43.113021" lon="-2.7664622">
        <ele>144.503</ele>
        <time>2021-04-01T09:14:42.389Z</time>
      </trkpt>
      <trkpt lat="43.1130241" lon="-2.7664679">
        <ele>144.534</ele>
        <time>2021-04-01T09:14:42.444Z</time>
      </trkpt>
      <trkpt lat="43.1130274" lon="-2.7664732">
        <ele>144.527</ele>
        <time>2021-04-01T09:14:42.499Z</time>
      </trkpt>
      <trkpt lat="43.1130306" lon="-2.7664786">
        <ele>144.514</ele>
        <time>2021-04-01T09:14:42.554Z</time>
      </trkpt>
      <trkpt lat="43.1130336" lon="-2.7664838">
        <ele>144.475</ele>
        <time>2021-04-01T09:14:42.609Z</time>
      </trkpt>
      <trkpt lat="43.1130367" lon="-2.7664895">
        <ele>144.456</ele>
        <time>2021-04-01T09:14:42.664Z</time>
      </trkpt>
      <trkpt lat="43.1130397" lon="-2.7664949">
        <ele>144.452</ele>
        <time>2021-04-01T09:14:42.719Z</time>
      </trkpt>
      <trkpt lat="43.1130429" lon="-2.7664999">
        <ele>144.44</ele>
        <time>2021-04-01T09:14:42.774Z</time>
      </trkpt>
      <trkpt lat="43.1130459" lon="-2.7665056">
        <ele>144.408</ele>
        <time>2021-04-01T09:14:42.829Z</time>
      </trkpt>
      <trkpt lat="43.1130487" lon="-2.7665109">
        <ele>144.418</ele>
        <time>2021-04-01T09:14:42.884Z</time>
      </trkpt>
      <trkpt lat="43.1130517" lon="-2.7665158">
        <ele>144.435</ele>
        <time>2021-04-01T09:14:42.939Z</time>
      </trkpt>
      <trkpt lat="43.1130543" lon="-2.7665209">
        <ele>144.404</ele>
        <time>2021-04-01T09:14:42.994Z</time>
      </trkpt>
      <trkpt lat="43.1130571" lon="-2.7665261">
        <ele>144.39</ele>
        <time>2021-04-01T09:14:43.049Z</time>
      </trkpt>
      <trkpt lat="43.1130601" lon="-2.7665313">
        <ele>144.411</ele>
        <time>2021-04-01T09:14:43.104Z</time>
      </trkpt>
      <trkpt lat="43.113063" lon="-2.7665364">
        <ele>144.424</ele>
        <time>2021-04-01T09:14:43.159Z</time>
      </trkpt>
      <trkpt lat="43.113066" lon="-2.7665417">
        <ele>144.46</ele>
        <time>2021-04-01T09:14:43.214Z</time>
      </trkpt>
      <trkpt lat="43.1130689" lon="-2.7665467">
        <ele>144.475</ele>
        <time>2021-04-01T09:14:43.269Z</time>
      </trkpt>
      <trkpt lat="43.1130717" lon="-2.7665517">
        <ele>144.508</ele>
        <time>2021-04-01T09:14:43.324Z</time>
      </trkpt>
      <trkpt lat="43.1130745" lon="-2.7665565">
        <ele>144.554</ele>
        <time>2021-04-01T09:14:43.379Z</time>
      </trkpt>
      <trkpt lat="43.1130774" lon="-2.7665615">
        <ele>144.59</ele>
        <time>2021-04-01T09:14:43.434Z</time>
      </trkpt>
      <trkpt lat="43.1130801" lon="-2.7665664">
        <ele>144.598</ele>
        <time>2021-04-01T09:14:43.489Z</time>
      </trkpt>
      <trkpt lat="43.1130831" lon="-2.7665719">
        <ele>144.615</ele>
        <time>2021-04-01T09:14:43.544Z</time>
      </trkpt>
      <trkpt lat="43.113086" lon="-2.7665771">
        <ele>144.637</ele>
        <time>2021-04-01T09:14:43.599Z</time>
      </trkpt>
      <trkpt lat="43.1130889" lon="-2.7665824">
        <ele>144.652</ele>
        <time>2021-04-01T09:14:43.654Z</time>
      </trkpt>
      <trkpt lat="43.1130918" lon="-2.7665873">
        <ele>144.659</ele>
        <time>2021-04-01T09:14:43.709Z</time>
      </trkpt>
      <trkpt lat="43.113095" lon="-2.7665922">
        <ele>144.692</ele>
        <time>2021-04-01T09:14:43.764Z</time>
      </trkpt>
      <trkpt lat="43.113098" lon="-2.7665973">
        <ele>144.74</ele>
        <time>2021-04-01T09:14:43.819Z</time>
      </trkpt>
      <trkpt lat="43.1131011" lon="-2.766602">
        <ele>144.76</ele>
        <time>2021-04-01T09:14:43.874Z</time>
      </trkpt>
      <trkpt lat="43.113104" lon="-2.7666067">
        <ele>144.795</ele>
        <time>2021-04-01T09:14:43.929Z</time>
      </trkpt>
      <trkpt lat="43.1131068" lon="-2.7666116">
        <ele>144.795</ele>
        <time>2021-04-01T09:14:43.984Z</time>
      </trkpt>
      <trkpt lat="43.1131097" lon="-2.7666165">
        <ele>144.77</ele>
        <time>2021-04-01T09:14:44.039Z</time>
      </trkpt>
      <trkpt lat="43.1131127" lon="-2.7666207">
        <ele>144.778</ele>
        <time>2021-04-01T09:14:44.094Z</time>
      </trkpt>
      <trkpt lat="43.1131157" lon="-2.7666256">
        <ele>144.788</ele>
        <time>2021-04-01T09:14:44.149Z</time>
      </trkpt>
      <trkpt lat="43.1131189" lon="-2.7666303">
        <ele>144.822</ele>
        <time>2021-04-01T09:14:44.204Z</time>
      </trkpt>
      <trkpt lat="43.1131221" lon="-2.7666336">
        <ele>144.824</ele>
        <time>2021-04-01T09:14:44.259Z</time>
      </trkpt>
      <trkpt lat="43.1131248" lon="-2.7666384">
        <ele>144.83</ele>
        <time>2021-04-01T09:14:44.314Z</time>
      </trkpt>
      <trkpt lat="43.1131275" lon="-2.7666427">
        <ele>144.862</ele>
        <time>2021-04-01T09:14:44.369Z</time>
      </trkpt>
      <trkpt lat="43.1131306" lon="-2.7666472">
        <ele>144.873</ele>
        <time>2021-04-01T09:14:44.424Z</time>
      </trkpt>
      <trkpt lat="43.1131335" lon="-2.7666522">
        <ele>144.889</ele>
        <time>2021-04-01T09:14:44.479Z</time>
      </trkpt>
      <trkpt lat="43.1131364" lon="-2.7666569">
        <ele>144.91</ele>
        <time>2021-04-01T09:14:44.534Z</time>
      </trkpt>
      <trkpt lat="43.1131396" lon="-2.7666614">
        <ele>144.926</ele>
        <time>2021-04-01T09:14:44.589Z</time>
      </trkpt>
      <trkpt lat="43.1131424" lon="-2.766666">
        <ele>144.935</ele>
        <time>2021-04-01T09:14:44.644Z</time>
      </trkpt>
      <trkpt lat="43.1131456" lon="-2.7666708">
        <ele>144.922</ele>
        <time>2021-04-01T09:14:44.699Z</time>
      </trkpt>
      <trkpt lat="43.1131487" lon="-2.7666749">
        <ele>144.91</ele>
        <time>2021-04-01T09:14:44.754Z</time>
      </trkpt>
      <trkpt lat="43.1131518" lon="-2.766679">
        <ele>144.884</ele>
        <time>2021-04-01T09:14:44.809Z</time>
      </trkpt>
      <trkpt lat="43.1131548" lon="-2.7666833">
        <ele>144.852</ele>
        <time>2021-04-01T09:14:44.864Z</time>
      </trkpt>
      <trkpt lat="43.113158" lon="-2.7666881">
        <ele>144.838</ele>
        <time>2021-04-01T09:14:44.919Z</time>
      </trkpt>
      <trkpt lat="43.1131611" lon="-2.7666922">
        <ele>144.829</ele>
        <time>2021-04-01T09:14:44.974Z</time>
      </trkpt>
      <trkpt lat="43.1131644" lon="-2.7666967">
        <ele>144.793</ele>
        <time>2021-04-01T09:14:45.029Z</time>
      </trkpt>
      <trkpt lat="43.1131675" lon="-2.7667012">
        <ele>144.842</ele>
        <time>2021-04-01T09:14:45.084Z</time>
      </trkpt>
      <trkpt lat="43.1131709" lon="-2.7667059">
        <ele>144.84</ele>
        <time>2021-04-01T09:14:45.139Z</time>
      </trkpt>
      <trkpt lat="43.113174" lon="-2.7667106">
        <ele>144.82</ele>
        <time>2021-04-01T09:14:45.194Z</time>
      </trkpt>
      <trkpt lat="43.1131766" lon="-2.7667151">
        <ele>144.835</ele>
        <time>2021-04-01T09:14:45.249Z</time>
      </trkpt>
      <trkpt lat="43.1131796" lon="-2.7667194">
        <ele>144.82</ele>
        <time>2021-04-01T09:14:45.304Z</time>
      </trkpt>
      <trkpt lat="43.1131824" lon="-2.7667236">
        <ele>144.788</ele>
        <time>2021-04-01T09:14:45.359Z</time>
      </trkpt>
      <trkpt lat="43.113186" lon="-2.7667277">
        <ele>144.786</ele>
        <time>2021-04-01T09:14:45.414Z</time>
      </trkpt>
      <trkpt lat="43.1131895" lon="-2.7667314">
        <ele>144.749</ele>
        <time>2021-04-01T09:14:45.469Z</time>
      </trkpt>
      <trkpt lat="43.1131929" lon="-2.7667365">
        <ele>144.73</ele>
        <time>2021-04-01T09:14:45.524Z</time>
      </trkpt>
      <trkpt lat="43.1131965" lon="-2.7667407">
        <ele>144.678</ele>
        <time>2021-04-01T09:14:45.579Z</time>
      </trkpt>
      <trkpt lat="43.1131999" lon="-2.7667447">
        <ele>144.642</ele>
        <time>2021-04-01T09:14:45.634Z</time>
      </trkpt>
      <trkpt lat="43.113203" lon="-2.7667493">
        <ele>144.658</ele>
        <time>2021-04-01T09:14:45.689Z</time>
      </trkpt>
      <trkpt lat="43.1132063" lon="-2.7667538">
        <ele>144.652</ele>
        <time>2021-04-01T09:14:45.744Z</time>
      </trkpt>
      <trkpt lat="43.1132096" lon="-2.7667579">
        <ele>144.648</ele>
        <time>2021-04-01T09:14:45.799Z</time>
      </trkpt>
      <trkpt lat="43.1132128" lon="-2.7667621">
        <ele>144.658</ele>
        <time>2021-04-01T09:14:45.854Z</time>
      </trkpt>
      <trkpt lat="43.1132161" lon="-2.7667662">
        <ele>144.674</ele>
        <time>2021-04-01T09:14:45.909Z</time>
      </trkpt>
      <trkpt lat="43.1132194" lon="-2.7667705">
        <ele>144.671</ele>
        <time>2021-04-01T09:14:45.964Z</time>
      </trkpt>
      <trkpt lat="43.113223" lon="-2.7667747">
        <ele>144.646</ele>
        <time>2021-04-01T09:14:46.019Z</time>
      </trkpt>
      <trkpt lat="43.1132265" lon="-2.7667788">
        <ele>144.616</ele>
        <time>2021-04-01T09:14:46.074Z</time>
      </trkpt>
      <trkpt lat="43.1132296" lon="-2.7667827">
        <ele>144.591</ele>
        <time>2021-04-01T09:14:46.129Z</time>
      </trkpt>
      <trkpt lat="43.1132328" lon="-2.7667863">
        <ele>144.614</ele>
        <time>2021-04-01T09:14:46.184Z</time>
      </trkpt>
      <trkpt lat="43.113236" lon="-2.7667902">
        <ele>144.575</ele>
        <time>2021-04-01T09:14:46.239Z</time>
      </trkpt>
      <trkpt lat="43.1132393" lon="-2.7667935">
        <ele>144.474</ele>
        <time>2021-04-01T09:14:46.294Z</time>
      </trkpt>
      <trkpt lat="43.1132429" lon="-2.7667971">
        <ele>144.402</ele>
        <time>2021-04-01T09:14:46.349Z</time>
      </trkpt>
      <trkpt lat="43.1132461" lon="-2.7668007">
        <ele>144.324</ele>
        <time>2021-04-01T09:14:46.404Z</time>
      </trkpt>
      <trkpt lat="43.1132494" lon="-2.7668038">
        <ele>144.199</ele>
        <time>2021-04-01T09:14:46.459Z</time>
      </trkpt>
      <trkpt lat="43.1132518" lon="-2.7668062">
        <ele>144.165</ele>
        <time>2021-04-01T09:14:46.514Z</time>
      </trkpt>
      <trkpt lat="43.1132552" lon="-2.7668094">
        <ele>144.162</ele>
        <time>2021-04-01T09:14:46.569Z</time>
      </trkpt>
      <trkpt lat="43.1132586" lon="-2.7668124">
        <ele>144.15</ele>
        <time>2021-04-01T09:14:46.624Z</time>
      </trkpt>
      <trkpt lat="43.1132616" lon="-2.7668149">
        <ele>144.095</ele>
        <time>2021-04-01T09:14:46.679Z</time>
      </trkpt>
      <trkpt lat="43.1132651" lon="-2.7668182">
        <ele>144.061</ele>
        <time>2021-04-01T09:14:46.734Z</time>
      </trkpt>
      <trkpt lat="43.1132687" lon="-2.7668212">
        <ele>143.974</ele>
        <time>2021-04-01T09:14:46.789Z</time>
      </trkpt>
      <trkpt lat="43.1132722" lon="-2.766824">
        <ele>143.926</ele>
        <time>2021-04-01T09:14:46.847Z</time>
      </trkpt>
      <trkpt lat="43.1132757" lon="-2.7668267">
        <ele>143.87</ele>
        <time>2021-04-01T09:14:46.905Z</time>
      </trkpt>
      <trkpt lat="43.1132797" lon="-2.7668297">
        <ele>143.852</ele>
        <time>2021-04-01T09:14:46.963Z</time>
      </trkpt>
      <trkpt lat="43.1132832" lon="-2.7668326">
        <ele>143.846</ele>
        <time>2021-04-01T09:14:47.021Z</time>
      </trkpt>
      <trkpt lat="43.1132869" lon="-2.7668352">
        <ele>143.841</ele>
        <time>2021-04-01T09:14:47.079Z</time>
      </trkpt>
      <trkpt lat="43.1132906" lon="-2.7668371">
        <ele>143.746</ele>
        <time>2021-04-01T09:14:47.137Z</time>
      </trkpt>
      <trkpt lat="43.1132939" lon="-2.7668392">
        <ele>143.733</ele>
        <time>2021-04-01T09:14:47.195Z</time>
      </trkpt>
      <trkpt lat="43.113298" lon="-2.7668416">
        <ele>143.743</ele>
        <time>2021-04-01T09:14:47.253Z</time>
      </trkpt>
      <trkpt lat="43.1133022" lon="-2.766844">
        <ele>143.738</ele>
        <time>2021-04-01T09:14:47.311Z</time>
      </trkpt>
      <trkpt lat="43.113306" lon="-2.7668458">
        <ele>143.702</ele>
        <time>2021-04-01T09:14:47.369Z</time>
      </trkpt>
      <trkpt lat="43.1133092" lon="-2.7668473">
        <ele>143.689</ele>
        <time>2021-04-01T09:14:47.427Z</time>
      </trkpt>
      <trkpt lat="43.1133127" lon="-2.7668493">
        <ele>143.694</ele>
        <time>2021-04-01T09:14:47.485Z</time>
      </trkpt>
      <trkpt lat="43.1133161" lon="-2.7668514">
        <ele>143.741</ele>
        <time>2021-04-01T09:14:47.543Z</time>
      </trkpt>
      <trkpt lat="43.11332" lon="-2.7668531">
        <ele>143.734</ele>
        <time>2021-04-01T09:14:47.601Z</time>
      </trkpt>
      <trkpt lat="43.1133244" lon="-2.7668551">
        <ele>143.679</ele>
        <time>2021-04-01T09:14:47.659Z</time>
      </trkpt>
      <trkpt lat="43.1133286" lon="-2.7668575">
        <ele>143.526</ele>
        <time>2021-04-01T09:14:47.717Z</time>
      </trkpt>
      <trkpt lat="43.1133324" lon="-2.7668596">
        <ele>143.59</ele>
        <time>2021-04-01T09:14:47.775Z</time>
      </trkpt>
      <trkpt lat="43.1133364" lon="-2.7668615">
        <ele>143.603</ele>
        <time>2021-04-01T09:14:47.834Z</time>
      </trkpt>
      <trkpt lat="43.1133395" lon="-2.7668624">
        <ele>143.667</ele>
        <time>2021-04-01T09:14:47.886Z</time>
      </trkpt>
      <trkpt lat="43.1133436" lon="-2.7668642">
        <ele>143.551</ele>
        <time>2021-04-01T09:14:47.938Z</time>
      </trkpt>
      <trkpt lat="43.1133481" lon="-2.7668662">
        <ele>143.472</ele>
        <time>2021-04-01T09:14:47.990Z</time>
      </trkpt>
      <trkpt lat="43.1133518" lon="-2.7668677">
        <ele>143.505</ele>
        <time>2021-04-01T09:14:48.042Z</time>
      </trkpt>
      <trkpt lat="43.1133556" lon="-2.7668689">
        <ele>143.469</ele>
        <time>2021-04-01T09:14:48.094Z</time>
      </trkpt>
      <trkpt lat="43.1133595" lon="-2.7668701">
        <ele>143.486</ele>
        <time>2021-04-01T09:14:48.146Z</time>
      </trkpt>
      <trkpt lat="43.1133631" lon="-2.766871">
        <ele>143.471</ele>
        <time>2021-04-01T09:14:48.198Z</time>
      </trkpt>
      <trkpt lat="43.1133672" lon="-2.7668722">
        <ele>143.417</ele>
        <time>2021-04-01T09:14:48.250Z</time>
      </trkpt>
      <trkpt lat="43.1133711" lon="-2.7668732">
        <ele>143.445</ele>
        <time>2021-04-01T09:14:48.302Z</time>
      </trkpt>
      <trkpt lat="43.1133752" lon="-2.7668745">
        <ele>143.376</ele>
        <time>2021-04-01T09:14:48.355Z</time>
      </trkpt>
      <trkpt lat="43.1133792" lon="-2.7668756">
        <ele>143.41</ele>
        <time>2021-04-01T09:14:48.407Z</time>
      </trkpt>
      <trkpt lat="43.1133833" lon="-2.7668766">
        <ele>143.337</ele>
        <time>2021-04-01T09:14:48.459Z</time>
      </trkpt>
      <trkpt lat="43.1133865" lon="-2.7668763">
        <ele>143.369</ele>
        <time>2021-04-01T09:14:48.511Z</time>
      </trkpt>
      <trkpt lat="43.1133908" lon="-2.7668776">
        <ele>143.353</ele>
        <time>2021-04-01T09:14:48.563Z</time>
      </trkpt>
      <trkpt lat="43.1133948" lon="-2.7668784">
        <ele>143.291</ele>
        <time>2021-04-01T09:14:48.615Z</time>
      </trkpt>
      <trkpt lat="43.1133988" lon="-2.7668792">
        <ele>143.255</ele>
        <time>2021-04-01T09:14:48.667Z</time>
      </trkpt>
      <trkpt lat="43.1134026" lon="-2.7668799">
        <ele>143.275</ele>
        <time>2021-04-01T09:14:48.719Z</time>
      </trkpt>
      <trkpt lat="43.1134064" lon="-2.7668805">
        <ele>143.205</ele>
        <time>2021-04-01T09:14:48.771Z</time>
      </trkpt>
      <trkpt lat="43.1134104" lon="-2.7668805">
        <ele>143.183</ele>
        <time>2021-04-01T09:14:48.824Z</time>
      </trkpt>
      <trkpt lat="43.113414" lon="-2.7668808">
        <ele>143.228</ele>
        <time>2021-04-01T09:14:48.879Z</time>
      </trkpt>
      <trkpt lat="43.1134182" lon="-2.7668818">
        <ele>143.124</ele>
        <time>2021-04-01T09:14:48.934Z</time>
      </trkpt>
      <trkpt lat="43.1134223" lon="-2.7668829">
        <ele>142.894</ele>
        <time>2021-04-01T09:14:48.989Z</time>
      </trkpt>
      <trkpt lat="43.1134259" lon="-2.7668832">
        <ele>142.883</ele>
        <time>2021-04-01T09:14:49.044Z</time>
      </trkpt>
      <trkpt lat="43.1134292" lon="-2.7668825">
        <ele>142.951</ele>
        <time>2021-04-01T09:14:49.099Z</time>
      </trkpt>
      <trkpt lat="43.113432" lon="-2.7668818">
        <ele>143.008</ele>
        <time>2021-04-01T09:14:49.154Z</time>
      </trkpt>
      <trkpt lat="43.1134352" lon="-2.7668818">
        <ele>142.967</ele>
        <time>2021-04-01T09:14:49.209Z</time>
      </trkpt>
      <trkpt lat="43.1134391" lon="-2.7668815">
        <ele>142.973</ele>
        <time>2021-04-01T09:14:49.264Z</time>
      </trkpt>
      <trkpt lat="43.1134432" lon="-2.7668815">
        <ele>142.915</ele>
        <time>2021-04-01T09:14:49.319Z</time>
      </trkpt>
      <trkpt lat="43.1134473" lon="-2.7668815">
        <ele>142.855</ele>
        <time>2021-04-01T09:14:49.374Z</time>
      </trkpt>
      <trkpt lat="43.1134512" lon="-2.7668815">
        <ele>142.867</ele>
        <time>2021-04-01T09:14:49.429Z</time>
      </trkpt>
      <trkpt lat="43.1134549" lon="-2.7668814">
        <ele>142.829</ele>
        <time>2021-04-01T09:14:49.484Z</time>
      </trkpt>
      <trkpt lat="43.1134589" lon="-2.7668811">
        <ele>142.809</ele>
        <time>2021-04-01T09:14:49.539Z</time>
      </trkpt>
      <trkpt lat="43.1134628" lon="-2.766881">
        <ele>142.788</ele>
        <time>2021-04-01T09:14:49.594Z</time>
      </trkpt>
      <trkpt lat="43.1134665" lon="-2.7668807">
        <ele>142.76</ele>
        <time>2021-04-01T09:14:49.649Z</time>
      </trkpt>
      <trkpt lat="43.1134704" lon="-2.7668807">
        <ele>142.726</ele>
        <time>2021-04-01T09:14:49.704Z</time>
      </trkpt>
      <trkpt lat="43.1134742" lon="-2.7668802">
        <ele>142.72</ele>
        <time>2021-04-01T09:14:49.759Z</time>
      </trkpt>
      <trkpt lat="43.1134779" lon="-2.7668793">
        <ele>142.696</ele>
        <time>2021-04-01T09:14:49.814Z</time>
      </trkpt>
      <trkpt lat="43.1134817" lon="-2.7668789">
        <ele>142.686</ele>
        <time>2021-04-01T09:14:49.869Z</time>
      </trkpt>
      <trkpt lat="43.1134857" lon="-2.766879">
        <ele>142.682</ele>
        <time>2021-04-01T09:14:49.924Z</time>
      </trkpt>
      <trkpt lat="43.1134894" lon="-2.7668786">
        <ele>142.697</ele>
        <time>2021-04-01T09:14:49.979Z</time>
      </trkpt>
      <trkpt lat="43.1134933" lon="-2.766878">
        <ele>142.716</ele>
        <time>2021-04-01T09:14:50.034Z</time>
      </trkpt>
      <trkpt lat="43.1134973" lon="-2.766877">
        <ele>142.698</ele>
        <time>2021-04-01T09:14:50.089Z</time>
      </trkpt>
      <trkpt lat="43.1135013" lon="-2.7668762">
        <ele>142.642</ele>
        <time>2021-04-01T09:14:50.144Z</time>
      </trkpt>
      <trkpt lat="43.113505" lon="-2.7668751">
        <ele>142.59</ele>
        <time>2021-04-01T09:14:50.199Z</time>
      </trkpt>
      <trkpt lat="43.1135086" lon="-2.7668742">
        <ele>142.574</ele>
        <time>2021-04-01T09:14:50.254Z</time>
      </trkpt>
      <trkpt lat="43.1135124" lon="-2.7668732">
        <ele>142.538</ele>
        <time>2021-04-01T09:14:50.309Z</time>
      </trkpt>
      <trkpt lat="43.1135162" lon="-2.7668725">
        <ele>142.493</ele>
        <time>2021-04-01T09:14:50.364Z</time>
      </trkpt>
      <trkpt lat="43.1135195" lon="-2.7668709">
        <ele>142.517</ele>
        <time>2021-04-01T09:14:50.419Z</time>
      </trkpt>
      <trkpt lat="43.1135232" lon="-2.7668699">
        <ele>142.49</ele>
        <time>2021-04-01T09:14:50.474Z</time>
      </trkpt>
      <trkpt lat="43.1135267" lon="-2.7668688">
        <ele>142.464</ele>
        <time>2021-04-01T09:14:50.529Z</time>
      </trkpt>
      <trkpt lat="43.1135304" lon="-2.7668674">
        <ele>142.49</ele>
        <time>2021-04-01T09:14:50.584Z</time>
      </trkpt>
      <trkpt lat="43.1135342" lon="-2.766866">
        <ele>142.533</ele>
        <time>2021-04-01T09:14:50.639Z</time>
      </trkpt>
      <trkpt lat="43.1135383" lon="-2.7668654">
        <ele>142.427</ele>
        <time>2021-04-01T09:14:50.694Z</time>
      </trkpt>
      <trkpt lat="43.1135416" lon="-2.766864">
        <ele>142.466</ele>
        <time>2021-04-01T09:14:50.749Z</time>
      </trkpt>
      <trkpt lat="43.1135451" lon="-2.7668623">
        <ele>142.55</ele>
        <time>2021-04-01T09:14:50.804Z</time>
      </trkpt>
      <trkpt lat="43.113549" lon="-2.7668608">
        <ele>142.645</ele>
        <time>2021-04-01T09:14:50.859Z</time>
      </trkpt>
      <trkpt lat="43.1135528" lon="-2.7668601">
        <ele>142.529</ele>
        <time>2021-04-01T09:14:50.914Z</time>
      </trkpt>
      <trkpt lat="43.1135569" lon="-2.7668591">
        <ele>142.452</ele>
        <time>2021-04-01T09:14:50.969Z</time>
      </trkpt>
      <trkpt lat="43.1135605" lon="-2.7668577">
        <ele>142.465</ele>
        <time>2021-04-01T09:14:51.024Z</time>
      </trkpt>
      <trkpt lat="43.1135636" lon="-2.7668559">
        <ele>142.463</ele>
        <time>2021-04-01T09:14:51.079Z</time>
      </trkpt>
      <trkpt lat="43.1135668" lon="-2.766854">
        <ele>142.456</ele>
        <time>2021-04-01T09:14:51.134Z</time>
      </trkpt>
      <trkpt lat="43.1135701" lon="-2.766852">
        <ele>142.424</ele>
        <time>2021-04-01T09:14:51.189Z</time>
      </trkpt>
      <trkpt lat="43.1135738" lon="-2.7668504">
        <ele>142.414</ele>
        <time>2021-04-01T09:14:51.244Z</time>
      </trkpt>
      <trkpt lat="43.1135777" lon="-2.7668491">
        <ele>142.442</ele>
        <time>2021-04-01T09:14:51.299Z</time>
      </trkpt>
      <trkpt lat="43.1135811" lon="-2.7668473">
        <ele>142.457</ele>
        <time>2021-04-01T09:14:51.354Z</time>
      </trkpt>
      <trkpt lat="43.1135841" lon="-2.7668452">
        <ele>142.521</ele>
        <time>2021-04-01T09:14:51.409Z</time>
      </trkpt>
      <trkpt lat="43.1135876" lon="-2.7668434">
        <ele>142.533</ele>
        <time>2021-04-01T09:14:51.464Z</time>
      </trkpt>
      <trkpt lat="43.1135911" lon="-2.7668417">
        <ele>142.559</ele>
        <time>2021-04-01T09:14:51.519Z</time>
      </trkpt>
      <trkpt lat="43.1135948" lon="-2.7668404">
        <ele>142.55</ele>
        <time>2021-04-01T09:14:51.574Z</time>
      </trkpt>
      <trkpt lat="43.1135984" lon="-2.7668389">
        <ele>142.601</ele>
        <time>2021-04-01T09:14:51.629Z</time>
      </trkpt>
      <trkpt lat="43.113602" lon="-2.7668379">
        <ele>142.622</ele>
        <time>2021-04-01T09:14:51.684Z</time>
      </trkpt>
      <trkpt lat="43.1136058" lon="-2.7668368">
        <ele>142.65</ele>
        <time>2021-04-01T09:14:51.739Z</time>
      </trkpt>
      <trkpt lat="43.1136091" lon="-2.7668352">
        <ele>142.746</ele>
        <time>2021-04-01T09:14:51.794Z</time>
      </trkpt>
      <trkpt lat="43.1136127" lon="-2.7668337">
        <ele>142.824</ele>
        <time>2021-04-01T09:14:51.849Z</time>
      </trkpt>
      <trkpt lat="43.1136165" lon="-2.7668322">
        <ele>142.907</ele>
        <time>2021-04-01T09:14:51.907Z</time>
      </trkpt>
      <trkpt lat="43.1136198" lon="-2.7668305">
        <ele>142.92</ele>
        <time>2021-04-01T09:14:51.965Z</time>
      </trkpt>
      <trkpt lat="43.1136233" lon="-2.7668289">
        <ele>142.995</ele>
        <time>2021-04-01T09:14:52.023Z</time>
      </trkpt>
      <trkpt lat="43.1136268" lon="-2.7668273">
        <ele>143.014</ele>
        <time>2021-04-01T09:14:52.081Z</time>
      </trkpt>
      <trkpt lat="43.11363" lon="-2.7668256">
        <ele>143.023</ele>
        <time>2021-04-01T09:14:52.140Z</time>
      </trkpt>
      <trkpt lat="43.113633" lon="-2.7668236">
        <ele>143.03</ele>
        <time>2021-04-01T09:14:52.198Z</time>
      </trkpt>
      <trkpt lat="43.1136365" lon="-2.7668219">
        <ele>143.043</ele>
        <time>2021-04-01T09:14:52.256Z</time>
      </trkpt>
      <trkpt lat="43.1136401" lon="-2.7668205">
        <ele>143.064</ele>
        <time>2021-04-01T09:14:52.314Z</time>
      </trkpt>
      <trkpt lat="43.1136434" lon="-2.7668188">
        <ele>143.089</ele>
        <time>2021-04-01T09:14:52.373Z</time>
      </trkpt>
      <trkpt lat="43.1136469" lon="-2.7668171">
        <ele>143.093</ele>
        <time>2021-04-01T09:14:52.431Z</time>
      </trkpt>
      <trkpt lat="43.1136502" lon="-2.7668152">
        <ele>143.112</ele>
        <time>2021-04-01T09:14:52.489Z</time>
      </trkpt>
      <trkpt lat="43.1136535" lon="-2.7668133">
        <ele>143.136</ele>
        <time>2021-04-01T09:14:52.547Z</time>
      </trkpt>
      <trkpt lat="43.1136568" lon="-2.7668114">
        <ele>143.137</ele>
        <time>2021-04-01T09:14:52.606Z</time>
      </trkpt>
      <trkpt lat="43.1136604" lon="-2.7668097">
        <ele>143.178</ele>
        <time>2021-04-01T09:14:52.664Z</time>
      </trkpt>
      <trkpt lat="43.1136639" lon="-2.7668078">
        <ele>143.216</ele>
        <time>2021-04-01T09:14:52.722Z</time>
      </trkpt>
      <trkpt lat="43.1136673" lon="-2.7668063">
        <ele>143.19</ele>
        <time>2021-04-01T09:14:52.780Z</time>
      </trkpt>
      <trkpt lat="43.1136705" lon="-2.7668043">
        <ele>143.22</ele>
        <time>2021-04-01T09:14:52.839Z</time>
      </trkpt>
      <trkpt lat="43.1136739" lon="-2.7668025">
        <ele>143.253</ele>
        <time>2021-04-01T09:14:52.891Z</time>
      </trkpt>
      <trkpt lat="43.1136776" lon="-2.7668005">
        <ele>143.309</ele>
        <time>2021-04-01T09:14:52.943Z</time>
      </trkpt>
      <trkpt lat="43.113681" lon="-2.7667988">
        <ele>143.297</ele>
        <time>2021-04-01T09:14:52.995Z</time>
      </trkpt>
      <trkpt lat="43.1136845" lon="-2.7667972">
        <ele>143.318</ele>
        <time>2021-04-01T09:14:53.047Z</time>
      </trkpt>
      <trkpt lat="43.1136878" lon="-2.7667952">
        <ele>143.37</ele>
        <time>2021-04-01T09:14:53.099Z</time>
      </trkpt>
      <trkpt lat="43.1136914" lon="-2.7667934">
        <ele>143.382</ele>
        <time>2021-04-01T09:14:53.151Z</time>
      </trkpt>
      <trkpt lat="43.1136945" lon="-2.7667915">
        <ele>143.408</ele>
        <time>2021-04-01T09:14:53.203Z</time>
      </trkpt>
      <trkpt lat="43.1136978" lon="-2.7667893">
        <ele>143.456</ele>
        <time>2021-04-01T09:14:53.255Z</time>
      </trkpt>
      <trkpt lat="43.1137013" lon="-2.7667875">
        <ele>143.523</ele>
        <time>2021-04-01T09:14:53.307Z</time>
      </trkpt>
      <trkpt lat="43.1137049" lon="-2.7667863">
        <ele>143.52</ele>
        <time>2021-04-01T09:14:53.360Z</time>
      </trkpt>
      <trkpt lat="43.1137083" lon="-2.7667842">
        <ele>143.57</ele>
        <time>2021-04-01T09:14:53.412Z</time>
      </trkpt>
      <trkpt lat="43.1137114" lon="-2.7667818">
        <ele>143.664</ele>
        <time>2021-04-01T09:14:53.464Z</time>
      </trkpt>
      <trkpt lat="43.1137147" lon="-2.7667796">
        <ele>143.733</ele>
        <time>2021-04-01T09:14:53.516Z</time>
      </trkpt>
      <trkpt lat="43.1137182" lon="-2.7667779">
        <ele>143.718</ele>
        <time>2021-04-01T09:14:53.568Z</time>
      </trkpt>
      <trkpt lat="43.1137218" lon="-2.7667763">
        <ele>143.685</ele>
        <time>2021-04-01T09:14:53.620Z</time>
      </trkpt>
      <trkpt lat="43.113725" lon="-2.7667741">
        <ele>143.713</ele>
        <time>2021-04-01T09:14:53.672Z</time>
      </trkpt>
      <trkpt lat="43.1137281" lon="-2.7667714">
        <ele>143.804</ele>
        <time>2021-04-01T09:14:53.724Z</time>
      </trkpt>
      <trkpt lat="43.1137313" lon="-2.766769">
        <ele>143.9</ele>
        <time>2021-04-01T09:14:53.776Z</time>
      </trkpt>
      <trkpt lat="43.1137346" lon="-2.7667674">
        <ele>143.905</ele>
        <time>2021-04-01T09:14:53.829Z</time>
      </trkpt>
      <trkpt lat="43.1137379" lon="-2.7667655">
        <ele>143.932</ele>
        <time>2021-04-01T09:14:53.884Z</time>
      </trkpt>
      <trkpt lat="43.1137413" lon="-2.7667636">
        <ele>143.956</ele>
        <time>2021-04-01T09:14:53.939Z</time>
      </trkpt>
      <trkpt lat="43.1137446" lon="-2.7667614">
        <ele>143.962</ele>
        <time>2021-04-01T09:14:53.994Z</time>
      </trkpt>
      <trkpt lat="43.113748" lon="-2.7667594">
        <ele>143.966</ele>
        <time>2021-04-01T09:14:54.049Z</time>
      </trkpt>
      <trkpt lat="43.1137513" lon="-2.7667578">
        <ele>143.946</ele>
        <time>2021-04-01T09:14:54.104Z</time>
      </trkpt>
      <trkpt lat="43.1137547" lon="-2.7667557">
        <ele>143.978</ele>
        <time>2021-04-01T09:14:54.159Z</time>
      </trkpt>
      <trkpt lat="43.1137582" lon="-2.766754">
        <ele>144.004</ele>
        <time>2021-04-01T09:14:54.214Z</time>
      </trkpt>
      <trkpt lat="43.1137617" lon="-2.7667522">
        <ele>144.03</ele>
        <time>2021-04-01T09:14:54.269Z</time>
      </trkpt>
      <trkpt lat="43.113765" lon="-2.7667502">
        <ele>144.053</ele>
        <time>2021-04-01T09:14:54.324Z</time>
      </trkpt>
      <trkpt lat="43.1137682" lon="-2.766748">
        <ele>144.119</ele>
        <time>2021-04-01T09:14:54.379Z</time>
      </trkpt>
      <trkpt lat="43.1137717" lon="-2.7667457">
        <ele>144.162</ele>
        <time>2021-04-01T09:14:54.434Z</time>
      </trkpt>
      <trkpt lat="43.1137752" lon="-2.7667435">
        <ele>144.169</ele>
        <time>2021-04-01T09:14:54.489Z</time>
      </trkpt>
      <trkpt lat="43.1137786" lon="-2.7667417">
        <ele>144.165</ele>
        <time>2021-04-01T09:14:54.544Z</time>
      </trkpt>
      <trkpt lat="43.1137819" lon="-2.7667401">
        <ele>144.164</ele>
        <time>2021-04-01T09:14:54.599Z</time>
      </trkpt>
      <trkpt lat="43.1137852" lon="-2.7667385">
        <ele>144.173</ele>
        <time>2021-04-01T09:14:54.654Z</time>
      </trkpt>
      <trkpt lat="43.1137885" lon="-2.7667358">
        <ele>144.219</ele>
        <time>2021-04-01T09:14:54.709Z</time>
      </trkpt>
      <trkpt lat="43.1137921" lon="-2.7667331">
        <ele>144.253</ele>
        <time>2021-04-01T09:14:54.764Z</time>
      </trkpt>
      <trkpt lat="43.1137953" lon="-2.7667303">
        <ele>144.313</ele>
        <time>2021-04-01T09:14:54.819Z</time>
      </trkpt>
      <trkpt lat="43.1137988" lon="-2.7667279">
        <ele>144.325</ele>
        <time>2021-04-01T09:14:54.874Z</time>
      </trkpt>
      <trkpt lat="43.1138024" lon="-2.7667254">
        <ele>144.36</ele>
        <time>2021-04-01T09:14:54.929Z</time>
      </trkpt>
      <trkpt lat="43.1138058" lon="-2.7667232">
        <ele>144.402</ele>
        <time>2021-04-01T09:14:54.984Z</time>
      </trkpt>
      <trkpt lat="43.1138092" lon="-2.7667204">
        <ele>144.472</ele>
        <time>2021-04-01T09:14:55.039Z</time>
      </trkpt>
      <trkpt lat="43.1138123" lon="-2.7667176">
        <ele>144.56</ele>
        <time>2021-04-01T09:14:55.094Z</time>
      </trkpt>
      <trkpt lat="43.1138154" lon="-2.7667155">
        <ele>144.574</ele>
        <time>2021-04-01T09:14:55.149Z</time>
      </trkpt>
      <trkpt lat="43.1138184" lon="-2.7667139">
        <ele>144.571</ele>
        <time>2021-04-01T09:14:55.204Z</time>
      </trkpt>
      <trkpt lat="43.1138212" lon="-2.7667116">
        <ele>144.604</ele>
        <time>2021-04-01T09:14:55.259Z</time>
      </trkpt>
      <trkpt lat="43.1138243" lon="-2.7667086">
        <ele>144.68</ele>
        <time>2021-04-01T09:14:55.314Z</time>
      </trkpt>
      <trkpt lat="43.1138276" lon="-2.7667066">
        <ele>144.739</ele>
        <time>2021-04-01T09:14:55.369Z</time>
      </trkpt>
      <trkpt lat="43.1138308" lon="-2.7667046">
        <ele>144.761</ele>
        <time>2021-04-01T09:14:55.424Z</time>
      </trkpt>
      <trkpt lat="43.1138341" lon="-2.7667032">
        <ele>144.763</ele>
        <time>2021-04-01T09:14:55.479Z</time>
      </trkpt>
      <trkpt lat="43.1138378" lon="-2.7667022">
        <ele>144.73</ele>
        <time>2021-04-01T09:14:55.534Z</time>
      </trkpt>
      <trkpt lat="43.1138413" lon="-2.7667009">
        <ele>144.709</ele>
        <time>2021-04-01T09:14:55.589Z</time>
      </trkpt>
      <trkpt lat="43.1138449" lon="-2.7666992">
        <ele>144.68</ele>
        <time>2021-04-01T09:14:55.644Z</time>
      </trkpt>
      <trkpt lat="43.1138482" lon="-2.766697">
        <ele>144.638</ele>
        <time>2021-04-01T09:14:55.699Z</time>
      </trkpt>
      <trkpt lat="43.1138517" lon="-2.7666958">
        <ele>144.605</ele>
        <time>2021-04-01T09:14:55.754Z</time>
      </trkpt>
      <trkpt lat="43.1138553" lon="-2.7666937">
        <ele>144.637</ele>
        <time>2021-04-01T09:14:55.809Z</time>
      </trkpt>
      <trkpt lat="43.113859" lon="-2.7666924">
        <ele>144.638</ele>
        <time>2021-04-01T09:14:55.861Z</time>
      </trkpt>
      <trkpt lat="43.1138628" lon="-2.7666908">
        <ele>144.64</ele>
        <time>2021-04-01T09:14:55.913Z</time>
      </trkpt>
      <trkpt lat="43.1138668" lon="-2.7666905">
        <ele>144.519</ele>
        <time>2021-04-01T09:14:55.965Z</time>
      </trkpt>
      <trkpt lat="43.1138706" lon="-2.7666889">
        <ele>144.498</ele>
        <time>2021-04-01T09:14:56.017Z</time>
      </trkpt>
      <trkpt lat="43.1138746" lon="-2.7666864">
        <ele>144.469</ele>
        <time>2021-04-01T09:14:56.069Z</time>
      </trkpt>
      <trkpt lat="43.1138784" lon="-2.7666848">
        <ele>144.433</ele>
        <time>2021-04-01T09:14:56.121Z</time>
      </trkpt>
      <trkpt lat="43.1138824" lon="-2.7666832">
        <ele>144.387</ele>
        <time>2021-04-01T09:14:56.173Z</time>
      </trkpt>
      <trkpt lat="43.1138858" lon="-2.7666816">
        <ele>144.393</ele>
        <time>2021-04-01T09:14:56.225Z</time>
      </trkpt>
      <trkpt lat="43.1138893" lon="-2.7666794">
        <ele>144.395</ele>
        <time>2021-04-01T09:14:56.277Z</time>
      </trkpt>
      <trkpt lat="43.1138928" lon="-2.7666771">
        <ele>144.406</ele>
        <time>2021-04-01T09:14:56.330Z</time>
      </trkpt>
      <trkpt lat="43.1138962" lon="-2.7666751">
        <ele>144.389</ele>
        <time>2021-04-01T09:14:56.382Z</time>
      </trkpt>
      <trkpt lat="43.1138995" lon="-2.766673">
        <ele>144.353</ele>
        <time>2021-04-01T09:14:56.434Z</time>
      </trkpt>
      <trkpt lat="43.1139028" lon="-2.7666718">
        <ele>144.278</ele>
        <time>2021-04-01T09:14:56.486Z</time>
      </trkpt>
      <trkpt lat="43.1139059" lon="-2.7666703">
        <ele>144.242</ele>
        <time>2021-04-01T09:14:56.538Z</time>
      </trkpt>
      <trkpt lat="43.1139088" lon="-2.7666673">
        <ele>144.251</ele>
        <time>2021-04-01T09:14:56.590Z</time>
      </trkpt>
      <trkpt lat="43.1139119" lon="-2.7666648">
        <ele>144.26</ele>
        <time>2021-04-01T09:14:56.642Z</time>
      </trkpt>
      <trkpt lat="43.1139154" lon="-2.766663">
        <ele>144.204</ele>
        <time>2021-04-01T09:14:56.694Z</time>
      </trkpt>
      <trkpt lat="43.113919" lon="-2.7666607">
        <ele>144.213</ele>
        <time>2021-04-01T09:14:56.746Z</time>
      </trkpt>
      <trkpt lat="43.1139228" lon="-2.7666594">
        <ele>144.154</ele>
        <time>2021-04-01T09:14:56.799Z</time>
      </trkpt>
      <trkpt lat="43.113927" lon="-2.7666583">
        <ele>144.054</ele>
        <time>2021-04-01T09:14:56.854Z</time>
      </trkpt>
      <trkpt lat="43.1139307" lon="-2.766658">
        <ele>143.897</ele>
        <time>2021-04-01T09:14:56.909Z</time>
      </trkpt>
      <trkpt lat="43.1139344" lon="-2.7666568">
        <ele>143.865</ele>
        <time>2021-04-01T09:14:56.964Z</time>
      </trkpt>
      <trkpt lat="43.113937" lon="-2.7666548">
        <ele>143.794</ele>
        <time>2021-04-01T09:14:57.019Z</time>
      </trkpt>
      <trkpt lat="43.1139403" lon="-2.7666538">
        <ele>143.713</ele>
        <time>2021-04-01T09:14:57.074Z</time>
      </trkpt>
      <trkpt lat="43.1139432" lon="-2.7666521">
        <ele>143.63</ele>
        <time>2021-04-01T09:14:57.129Z</time>
      </trkpt>
      <trkpt lat="43.113946" lon="-2.7666497">
        <ele>143.595</ele>
        <time>2021-04-01T09:14:57.184Z</time>
      </trkpt>
      <trkpt lat="43.1139493" lon="-2.7666474">
        <ele>143.571</ele>
        <time>2021-04-01T09:14:57.239Z</time>
      </trkpt>
      <trkpt lat="43.1139537" lon="-2.7666466">
        <ele>143.584</ele>
        <time>2021-04-01T09:14:57.294Z</time>
      </trkpt>
      <trkpt lat="43.1139584" lon="-2.7666448">
        <ele>143.661</ele>
        <time>2021-04-01T09:14:57.349Z</time>
      </trkpt>
      <trkpt lat="43.1139624" lon="-2.7666428">
        <ele>143.708</ele>
        <time>2021-04-01T09:14:57.404Z</time>
      </trkpt>
      <trkpt lat="43.1139659" lon="-2.7666402">
        <ele>143.709</ele>
        <time>2021-04-01T09:14:57.459Z</time>
      </trkpt>
      <trkpt lat="43.1139678" lon="-2.7666374">
        <ele>143.604</ele>
        <time>2021-04-01T09:14:57.514Z</time>
      </trkpt>
      <trkpt lat="43.1139706" lon="-2.7666346">
        <ele>143.622</ele>
        <time>2021-04-01T09:14:57.569Z</time>
      </trkpt>
      <trkpt lat="43.113974" lon="-2.7666322">
        <ele>143.663</ele>
        <time>2021-04-01T09:14:57.624Z</time>
      </trkpt>
      <trkpt lat="43.1139771" lon="-2.7666314">
        <ele>143.663</ele>
        <time>2021-04-01T09:14:57.679Z</time>
      </trkpt>
      <trkpt lat="43.1139796" lon="-2.7666284">
        <ele>143.706</ele>
        <time>2021-04-01T09:14:57.734Z</time>
      </trkpt>
      <trkpt lat="43.1139831" lon="-2.7666266">
        <ele>143.686</ele>
        <time>2021-04-01T09:14:57.789Z</time>
      </trkpt>
      <trkpt lat="43.1139866" lon="-2.7666254">
        <ele>143.657</ele>
        <time>2021-04-01T09:14:57.847Z</time>
      </trkpt>
      <trkpt lat="43.1139899" lon="-2.7666236">
        <ele>143.701</ele>
        <time>2021-04-01T09:14:57.905Z</time>
      </trkpt>
      <trkpt lat="43.1139935" lon="-2.7666207">
        <ele>143.773</ele>
        <time>2021-04-01T09:14:57.963Z</time>
      </trkpt>
      <trkpt lat="43.1139974" lon="-2.7666183">
        <ele>143.833</ele>
        <time>2021-04-01T09:14:58.021Z</time>
      </trkpt>
      <trkpt lat="43.1140018" lon="-2.7666181">
        <ele>143.778</ele>
        <time>2021-04-01T09:14:58.079Z</time>
      </trkpt>
      <trkpt lat="43.1140043" lon="-2.7666154">
        <ele>143.766</ele>
        <time>2021-04-01T09:14:58.137Z</time>
      </trkpt>
      <trkpt lat="43.1140085" lon="-2.766614">
        <ele>143.752</ele>
        <time>2021-04-01T09:14:58.195Z</time>
      </trkpt>
      <trkpt lat="43.1140123" lon="-2.7666125">
        <ele>143.719</ele>
        <time>2021-04-01T09:14:58.253Z</time>
      </trkpt>
      <trkpt lat="43.1140169" lon="-2.7666116">
        <ele>143.716</ele>
        <time>2021-04-01T09:14:58.311Z</time>
      </trkpt>
      <trkpt lat="43.1140209" lon="-2.7666099">
        <ele>143.74</ele>
        <time>2021-04-01T09:14:58.369Z</time>
      </trkpt>
      <trkpt lat="43.1140251" lon="-2.7666087">
        <ele>143.748</ele>
        <time>2021-04-01T09:14:58.427Z</time>
      </trkpt>
      <trkpt lat="43.1140289" lon="-2.7666069">
        <ele>143.818</ele>
        <time>2021-04-01T09:14:58.485Z</time>
      </trkpt>
      <trkpt lat="43.1140334" lon="-2.7666055">
        <ele>143.802</ele>
        <time>2021-04-01T09:14:58.543Z</time>
      </trkpt>
      <trkpt lat="43.114038" lon="-2.7666045">
        <ele>143.784</ele>
        <time>2021-04-01T09:14:58.601Z</time>
      </trkpt>
      <trkpt lat="43.1140418" lon="-2.7666024">
        <ele>143.858</ele>
        <time>2021-04-01T09:14:58.659Z</time>
      </trkpt>
      <trkpt lat="43.1140458" lon="-2.7666012">
        <ele>143.835</ele>
        <time>2021-04-01T09:14:58.717Z</time>
      </trkpt>
      <trkpt lat="43.1140504" lon="-2.7666006">
        <ele>143.83</ele>
        <time>2021-04-01T09:14:58.775Z</time>
      </trkpt>
      <trkpt lat="43.1140546" lon="-2.7665998">
        <ele>143.764</ele>
        <time>2021-04-01T09:14:58.834Z</time>
      </trkpt>
      <trkpt lat="43.1140587" lon="-2.7665985">
        <ele>143.758</ele>
        <time>2021-04-01T09:14:58.889Z</time>
      </trkpt>
      <trkpt lat="43.1140629" lon="-2.7665973">
        <ele>143.738</ele>
        <time>2021-04-01T09:14:58.944Z</time>
      </trkpt>
      <trkpt lat="43.1140666" lon="-2.766596">
        <ele>143.664</ele>
        <time>2021-04-01T09:14:58.999Z</time>
      </trkpt>
      <trkpt lat="43.1140707" lon="-2.7665955">
        <ele>143.632</ele>
        <time>2021-04-01T09:14:59.054Z</time>
      </trkpt>
      <trkpt lat="43.1140742" lon="-2.7665935">
        <ele>143.656</ele>
        <time>2021-04-01T09:14:59.109Z</time>
      </trkpt>
      <trkpt lat="43.1140785" lon="-2.7665923">
        <ele>143.654</ele>
        <time>2021-04-01T09:14:59.164Z</time>
      </trkpt>
      <trkpt lat="43.1140824" lon="-2.7665908">
        <ele>143.658</ele>
        <time>2021-04-01T09:14:59.219Z</time>
      </trkpt>
      <trkpt lat="43.114087" lon="-2.7665904">
        <ele>143.642</ele>
        <time>2021-04-01T09:14:59.274Z</time>
      </trkpt>
      <trkpt lat="43.114091" lon="-2.7665887">
        <ele>143.648</ele>
        <time>2021-04-01T09:14:59.329Z</time>
      </trkpt>
      <trkpt lat="43.1140953" lon="-2.7665884">
        <ele>143.597</ele>
        <time>2021-04-01T09:14:59.384Z</time>
      </trkpt>
      <trkpt lat="43.1140995" lon="-2.7665875">
        <ele>143.597</ele>
        <time>2021-04-01T09:14:59.439Z</time>
      </trkpt>
      <trkpt lat="43.1141034" lon="-2.7665864">
        <ele>143.567</ele>
        <time>2021-04-01T09:14:59.494Z</time>
      </trkpt>
      <trkpt lat="43.1141066" lon="-2.7665842">
        <ele>143.611</ele>
        <time>2021-04-01T09:14:59.549Z</time>
      </trkpt>
      <trkpt lat="43.1141112" lon="-2.7665834">
        <ele>143.594</ele>
        <time>2021-04-01T09:14:59.604Z</time>
      </trkpt>
      <trkpt lat="43.1141152" lon="-2.7665824">
        <ele>143.596</ele>
        <time>2021-04-01T09:14:59.659Z</time>
      </trkpt>
      <trkpt lat="43.1141189" lon="-2.7665811">
        <ele>143.583</ele>
        <time>2021-04-01T09:14:59.714Z</time>
      </trkpt>
      <trkpt lat="43.1141226" lon="-2.7665801">
        <ele>143.496</ele>
        <time>2021-04-01T09:14:59.769Z</time>
      </trkpt>
      <trkpt lat="43.1141259" lon="-2.7665782">
        <ele>143.477</ele>
        <time>2021-04-01T09:14:59.824Z</time>
      </trkpt>
      <trkpt lat="43.1141297" lon="-2.7665771">
        <ele>143.411</ele>
        <time>2021-04-01T09:14:59.879Z</time>
      </trkpt>
      <trkpt lat="43.1141338" lon="-2.7665757">
        <ele>143.392</ele>
        <time>2021-04-01T09:14:59.934Z</time>
      </trkpt>
      <trkpt lat="43.1141376" lon="-2.7665743">
        <ele>143.398</ele>
        <time>2021-04-01T09:14:59.989Z</time>
      </trkpt>
      <trkpt lat="43.1141411" lon="-2.7665724">
        <ele>143.422</ele>
        <time>2021-04-01T09:15:00.044Z</time>
      </trkpt>
      <trkpt lat="43.1141442" lon="-2.7665698">
        <ele>143.465</ele>
        <time>2021-04-01T09:15:00.099Z</time>
      </trkpt>
      <trkpt lat="43.1141476" lon="-2.7665682">
        <ele>143.423</ele>
        <time>2021-04-01T09:15:00.154Z</time>
      </trkpt>
      <trkpt lat="43.1141518" lon="-2.7665672">
        <ele>143.409</ele>
        <time>2021-04-01T09:15:00.209Z</time>
      </trkpt>
      <trkpt lat="43.1141562" lon="-2.7665672">
        <ele>143.365</ele>
        <time>2021-04-01T09:15:00.264Z</time>
      </trkpt>
      <trkpt lat="43.1141608" lon="-2.7665665">
        <ele>143.366</ele>
        <time>2021-04-01T09:15:00.319Z</time>
      </trkpt>
      <trkpt lat="43.1141651" lon="-2.7665654">
        <ele>143.385</ele>
        <time>2021-04-01T09:15:00.374Z</time>
      </trkpt>
      <trkpt lat="43.114169" lon="-2.7665643">
        <ele>143.373</ele>
        <time>2021-04-01T09:15:00.429Z</time>
      </trkpt>
      <trkpt lat="43.1141731" lon="-2.7665638">
        <ele>143.381</ele>
        <time>2021-04-01T09:15:00.484Z</time>
      </trkpt>
      <trkpt lat="43.1141772" lon="-2.7665626">
        <ele>143.433</ele>
        <time>2021-04-01T09:15:00.539Z</time>
      </trkpt>
      <trkpt lat="43.1141815" lon="-2.7665622">
        <ele>143.491</ele>
        <time>2021-04-01T09:15:00.594Z</time>
      </trkpt>
      <trkpt lat="43.1141855" lon="-2.7665609">
        <ele>143.579</ele>
        <time>2021-04-01T09:15:00.649Z</time>
      </trkpt>
      <trkpt lat="43.1141896" lon="-2.7665602">
        <ele>143.596</ele>
        <time>2021-04-01T09:15:00.704Z</time>
      </trkpt>
      <trkpt lat="43.1141941" lon="-2.7665598">
        <ele>143.62</ele>
        <time>2021-04-01T09:15:00.759Z</time>
      </trkpt>
      <trkpt lat="43.1141979" lon="-2.7665588">
        <ele>143.611</ele>
        <time>2021-04-01T09:15:00.814Z</time>
      </trkpt>
      <trkpt lat="43.1142033" lon="-2.7665598">
        <ele>143.375</ele>
        <time>2021-04-01T09:15:00.869Z</time>
      </trkpt>
      <trkpt lat="43.1142083" lon="-2.7665597">
        <ele>143.386</ele>
        <time>2021-04-01T09:15:00.924Z</time>
      </trkpt>
      <trkpt lat="43.1142127" lon="-2.7665589">
        <ele>143.375</ele>
        <time>2021-04-01T09:15:00.979Z</time>
      </trkpt>
      <trkpt lat="43.1142172" lon="-2.766558">
        <ele>143.339</ele>
        <time>2021-04-01T09:15:01.034Z</time>
      </trkpt>
      <trkpt lat="43.1142219" lon="-2.7665585">
        <ele>143.204</ele>
        <time>2021-04-01T09:15:01.089Z</time>
      </trkpt>
      <trkpt lat="43.1142266" lon="-2.7665583">
        <ele>143.12</ele>
        <time>2021-04-01T09:15:01.144Z</time>
      </trkpt>
      <trkpt lat="43.1142309" lon="-2.7665576">
        <ele>143.131</ele>
        <time>2021-04-01T09:15:01.199Z</time>
      </trkpt>
      <trkpt lat="43.1142352" lon="-2.7665572">
        <ele>143.124</ele>
        <time>2021-04-01T09:15:01.254Z</time>
      </trkpt>
      <trkpt lat="43.1142395" lon="-2.7665561">
        <ele>143.097</ele>
        <time>2021-04-01T09:15:01.309Z</time>
      </trkpt>
      <trkpt lat="43.1142436" lon="-2.7665557">
        <ele>143.035</ele>
        <time>2021-04-01T09:15:01.364Z</time>
      </trkpt>
      <trkpt lat="43.1142475" lon="-2.7665549">
        <ele>143.038</ele>
        <time>2021-04-01T09:15:01.419Z</time>
      </trkpt>
      <trkpt lat="43.1142521" lon="-2.7665553">
        <ele>143.009</ele>
        <time>2021-04-01T09:15:01.474Z</time>
      </trkpt>
      <trkpt lat="43.1142566" lon="-2.766555">
        <ele>142.944</ele>
        <time>2021-04-01T09:15:01.529Z</time>
      </trkpt>
      <trkpt lat="43.1142609" lon="-2.7665545">
        <ele>142.911</ele>
        <time>2021-04-01T09:15:01.584Z</time>
      </trkpt>
      <trkpt lat="43.1142651" lon="-2.7665538">
        <ele>142.917</ele>
        <time>2021-04-01T09:15:01.639Z</time>
      </trkpt>
      <trkpt lat="43.1142689" lon="-2.7665523">
        <ele>142.98</ele>
        <time>2021-04-01T09:15:01.694Z</time>
      </trkpt>
      <trkpt lat="43.1142731" lon="-2.7665516">
        <ele>142.916</ele>
        <time>2021-04-01T09:15:01.749Z</time>
      </trkpt>
      <trkpt lat="43.1142767" lon="-2.7665508">
        <ele>142.841</ele>
        <time>2021-04-01T09:15:01.804Z</time>
      </trkpt>
      <trkpt lat="43.1142807" lon="-2.7665501">
        <ele>142.844</ele>
        <time>2021-04-01T09:15:01.859Z</time>
      </trkpt>
      <trkpt lat="43.1142846" lon="-2.7665488">
        <ele>142.888</ele>
        <time>2021-04-01T09:15:01.914Z</time>
      </trkpt>
      <trkpt lat="43.114289" lon="-2.766548">
        <ele>142.877</ele>
        <time>2021-04-01T09:15:01.969Z</time>
      </trkpt>
      <trkpt lat="43.1142935" lon="-2.7665477">
        <ele>142.79</ele>
        <time>2021-04-01T09:15:02.024Z</time>
      </trkpt>
      <trkpt lat="43.1142991" lon="-2.7665494">
        <ele>142.588</ele>
        <time>2021-04-01T09:15:02.079Z</time>
      </trkpt>
      <trkpt lat="43.1143044" lon="-2.7665502">
        <ele>142.51</ele>
        <time>2021-04-01T09:15:02.134Z</time>
      </trkpt>
      <trkpt lat="43.1143094" lon="-2.7665505">
        <ele>142.486</ele>
        <time>2021-04-01T09:15:02.189Z</time>
      </trkpt>
      <trkpt lat="43.1143135" lon="-2.7665503">
        <ele>142.415</ele>
        <time>2021-04-01T09:15:02.244Z</time>
      </trkpt>
      <trkpt lat="43.1143178" lon="-2.7665502">
        <ele>142.366</ele>
        <time>2021-04-01T09:15:02.299Z</time>
      </trkpt>
      <trkpt lat="43.1143236" lon="-2.7665514">
        <ele>142.223</ele>
        <time>2021-04-01T09:15:02.354Z</time>
      </trkpt>
      <trkpt lat="43.1143278" lon="-2.7665512">
        <ele>142.142</ele>
        <time>2021-04-01T09:15:02.409Z</time>
      </trkpt>
      <trkpt lat="43.1143324" lon="-2.7665519">
        <ele>142.024</ele>
        <time>2021-04-01T09:15:02.464Z</time>
      </trkpt>
      <trkpt lat="43.1143363" lon="-2.7665508">
        <ele>142.034</ele>
        <time>2021-04-01T09:15:02.519Z</time>
      </trkpt>
      <trkpt lat="43.1143405" lon="-2.7665507">
        <ele>141.966</ele>
        <time>2021-04-01T09:15:02.574Z</time>
      </trkpt>
      <trkpt lat="43.1143451" lon="-2.7665506">
        <ele>141.872</ele>
        <time>2021-04-01T09:15:02.629Z</time>
      </trkpt>
      <trkpt lat="43.1143495" lon="-2.7665501">
        <ele>141.826</ele>
        <time>2021-04-01T09:15:02.684Z</time>
      </trkpt>
      <trkpt lat="43.1143545" lon="-2.7665508">
        <ele>141.686</ele>
        <time>2021-04-01T09:15:02.739Z</time>
      </trkpt>
      <trkpt lat="43.1143575" lon="-2.7665485">
        <ele>141.869</ele>
        <time>2021-04-01T09:15:02.794Z</time>
      </trkpt>
      <trkpt lat="43.1143616" lon="-2.7665474">
        <ele>141.866</ele>
        <time>2021-04-01T09:15:02.849Z</time>
      </trkpt>
      <trkpt lat="43.1143655" lon="-2.7665454">
        <ele>141.906</ele>
        <time>2021-04-01T09:15:02.904Z</time>
      </trkpt>
      <trkpt lat="43.1143696" lon="-2.7665442">
        <ele>141.873</ele>
        <time>2021-04-01T09:15:02.959Z</time>
      </trkpt>
      <trkpt lat="43.114374" lon="-2.7665434">
        <ele>141.817</ele>
        <time>2021-04-01T09:15:03.014Z</time>
      </trkpt>
      <trkpt lat="43.1143782" lon="-2.7665431">
        <ele>141.742</ele>
        <time>2021-04-01T09:15:03.069Z</time>
      </trkpt>
      <trkpt lat="43.1143826" lon="-2.7665424">
        <ele>141.674</ele>
        <time>2021-04-01T09:15:03.124Z</time>
      </trkpt>
      <trkpt lat="43.1143869" lon="-2.766542">
        <ele>141.572</ele>
        <time>2021-04-01T09:15:03.179Z</time>
      </trkpt>
      <trkpt lat="43.1143919" lon="-2.7665417">
        <ele>141.504</ele>
        <time>2021-04-01T09:15:03.234Z</time>
      </trkpt>
      <trkpt lat="43.1143965" lon="-2.7665413">
        <ele>141.452</ele>
        <time>2021-04-01T09:15:03.289Z</time>
      </trkpt>
      <trkpt lat="43.1144016" lon="-2.7665418">
        <ele>141.312</ele>
        <time>2021-04-01T09:15:03.344Z</time>
      </trkpt>
      <trkpt lat="43.1144066" lon="-2.7665424">
        <ele>141.13</ele>
        <time>2021-04-01T09:15:03.399Z</time>
      </trkpt>
      <trkpt lat="43.1144113" lon="-2.7665422">
        <ele>141.029</ele>
        <time>2021-04-01T09:15:03.454Z</time>
      </trkpt>
      <trkpt lat="43.1144157" lon="-2.7665419">
        <ele>140.994</ele>
        <time>2021-04-01T09:15:03.509Z</time>
      </trkpt>
      <trkpt lat="43.1144198" lon="-2.7665412">
        <ele>140.915</ele>
        <time>2021-04-01T09:15:03.564Z</time>
      </trkpt>
      <trkpt lat="43.1144236" lon="-2.7665394">
        <ele>140.922</ele>
        <time>2021-04-01T09:15:03.619Z</time>
      </trkpt>
      <trkpt lat="43.1144271" lon="-2.7665378">
        <ele>140.908</ele>
        <time>2021-04-01T09:15:03.674Z</time>
      </trkpt>
      <trkpt lat="43.1144312" lon="-2.7665368">
        <ele>140.882</ele>
        <time>2021-04-01T09:15:03.729Z</time>
      </trkpt>
      <trkpt lat="43.1144355" lon="-2.7665363">
        <ele>140.831</ele>
        <time>2021-04-01T09:15:03.784Z</time>
      </trkpt>
      <trkpt lat="43.1144409" lon="-2.7665364">
        <ele>140.778</ele>
        <time>2021-04-01T09:15:03.839Z</time>
      </trkpt>
      <trkpt lat="43.1144455" lon="-2.7665366">
        <ele>140.724</ele>
        <time>2021-04-01T09:15:03.894Z</time>
      </trkpt>
      <trkpt lat="43.1144501" lon="-2.7665365">
        <ele>140.756</ele>
        <time>2021-04-01T09:15:03.949Z</time>
      </trkpt>
      <trkpt lat="43.1144546" lon="-2.766536">
        <ele>140.726</ele>
        <time>2021-04-01T09:15:04.004Z</time>
      </trkpt>
      <trkpt lat="43.1144592" lon="-2.7665356">
        <ele>140.679</ele>
        <time>2021-04-01T09:15:04.059Z</time>
      </trkpt>
      <trkpt lat="43.1144634" lon="-2.7665343">
        <ele>140.743</ele>
        <time>2021-04-01T09:15:04.114Z</time>
      </trkpt>
      <trkpt lat="43.1144678" lon="-2.766534">
        <ele>140.72</ele>
        <time>2021-04-01T09:15:04.169Z</time>
      </trkpt>
      <trkpt lat="43.1144726" lon="-2.7665341">
        <ele>140.631</ele>
        <time>2021-04-01T09:15:04.224Z</time>
      </trkpt>
      <trkpt lat="43.114477" lon="-2.7665332">
        <ele>140.624</ele>
        <time>2021-04-01T09:15:04.279Z</time>
      </trkpt>
      <trkpt lat="43.114481" lon="-2.766532">
        <ele>140.69</ele>
        <time>2021-04-01T09:15:04.334Z</time>
      </trkpt>
      <trkpt lat="43.1144857" lon="-2.7665318">
        <ele>140.645</ele>
        <time>2021-04-01T09:15:04.389Z</time>
      </trkpt>
      <trkpt lat="43.1144903" lon="-2.7665315">
        <ele>140.563</ele>
        <time>2021-04-01T09:15:04.444Z</time>
      </trkpt>
      <trkpt lat="43.1144955" lon="-2.7665326">
        <ele>140.382</ele>
        <time>2021-04-01T09:15:04.499Z</time>
      </trkpt>
      <trkpt lat="43.1145002" lon="-2.7665332">
        <ele>140.236</ele>
        <time>2021-04-01T09:15:04.554Z</time>
      </trkpt>
      <trkpt lat="43.1145045" lon="-2.7665318">
        <ele>140.347</ele>
        <time>2021-04-01T09:15:04.609Z</time>
      </trkpt>
      <trkpt lat="43.1145086" lon="-2.7665309">
        <ele>140.399</ele>
        <time>2021-04-01T09:15:04.664Z</time>
      </trkpt>
      <trkpt lat="43.1145129" lon="-2.7665304">
        <ele>140.398</ele>
        <time>2021-04-01T09:15:04.719Z</time>
      </trkpt>
      <trkpt lat="43.1145173" lon="-2.7665304">
        <ele>140.401</ele>
        <time>2021-04-01T09:15:04.774Z</time>
      </trkpt>
      <trkpt lat="43.1145217" lon="-2.7665293">
        <ele>140.473</ele>
        <time>2021-04-01T09:15:04.829Z</time>
      </trkpt>
      <trkpt lat="43.1145263" lon="-2.7665292">
        <ele>140.47</ele>
        <time>2021-04-01T09:15:04.884Z</time>
      </trkpt>
      <trkpt lat="43.1145305" lon="-2.7665286">
        <ele>140.469</ele>
        <time>2021-04-01T09:15:04.939Z</time>
      </trkpt>
      <trkpt lat="43.1145347" lon="-2.7665279">
        <ele>140.473</ele>
        <time>2021-04-01T09:15:04.994Z</time>
      </trkpt>
      <trkpt lat="43.1145399" lon="-2.7665286">
        <ele>140.366</ele>
        <time>2021-04-01T09:15:05.049Z</time>
      </trkpt>
      <trkpt lat="43.1145443" lon="-2.7665279">
        <ele>140.363</ele>
        <time>2021-04-01T09:15:05.104Z</time>
      </trkpt>
      <trkpt lat="43.1145488" lon="-2.7665276">
        <ele>140.316</ele>
        <time>2021-04-01T09:15:05.159Z</time>
      </trkpt>
      <trkpt lat="43.1145534" lon="-2.7665272">
        <ele>140.278</ele>
        <time>2021-04-01T09:15:05.214Z</time>
      </trkpt>
      <trkpt lat="43.1145577" lon="-2.7665266">
        <ele>140.246</ele>
        <time>2021-04-01T09:15:05.269Z</time>
      </trkpt>
      <trkpt lat="43.1145622" lon="-2.7665258">
        <ele>140.252</ele>
        <time>2021-04-01T09:15:05.324Z</time>
      </trkpt>
      <trkpt lat="43.1145666" lon="-2.7665256">
        <ele>140.197</ele>
        <time>2021-04-01T09:15:05.379Z</time>
      </trkpt>
      <trkpt lat="43.1145714" lon="-2.7665256">
        <ele>140.084</ele>
        <time>2021-04-01T09:15:05.434Z</time>
      </trkpt>
      <trkpt lat="43.1145763" lon="-2.7665255">
        <ele>139.991</ele>
        <time>2021-04-01T09:15:05.489Z</time>
      </trkpt>
      <trkpt lat="43.1145811" lon="-2.7665253">
        <ele>139.889</ele>
        <time>2021-04-01T09:15:05.544Z</time>
      </trkpt>
      <trkpt lat="43.114586" lon="-2.7665253">
        <ele>139.742</ele>
        <time>2021-04-01T09:15:05.599Z</time>
      </trkpt>
      <trkpt lat="43.1145906" lon="-2.7665256">
        <ele>139.616</ele>
        <time>2021-04-01T09:15:05.654Z</time>
      </trkpt>
      <trkpt lat="43.1145951" lon="-2.7665252">
        <ele>139.611</ele>
        <time>2021-04-01T09:15:05.709Z</time>
      </trkpt>
      <trkpt lat="43.114599" lon="-2.7665241">
        <ele>139.63</ele>
        <time>2021-04-01T09:15:05.764Z</time>
      </trkpt>
      <trkpt lat="43.114603" lon="-2.7665225">
        <ele>139.753</ele>
        <time>2021-04-01T09:15:05.819Z</time>
      </trkpt>
      <trkpt lat="43.1146074" lon="-2.7665224">
        <ele>139.718</ele>
        <time>2021-04-01T09:15:05.874Z</time>
      </trkpt>
      <trkpt lat="43.1146116" lon="-2.7665222">
        <ele>139.757</ele>
        <time>2021-04-01T09:15:05.929Z</time>
      </trkpt>
      <trkpt lat="43.114616" lon="-2.7665211">
        <ele>139.782</ele>
        <time>2021-04-01T09:15:05.984Z</time>
      </trkpt>
      <trkpt lat="43.1146207" lon="-2.766521">
        <ele>139.73</ele>
        <time>2021-04-01T09:15:06.039Z</time>
      </trkpt>
      <trkpt lat="43.1146248" lon="-2.7665205">
        <ele>139.7</ele>
        <time>2021-04-01T09:15:06.094Z</time>
      </trkpt>
      <trkpt lat="43.1146294" lon="-2.7665205">
        <ele>139.592</ele>
        <time>2021-04-01T09:15:06.149Z</time>
      </trkpt>
      <trkpt lat="43.1146343" lon="-2.7665201">
        <ele>139.416</ele>
        <time>2021-04-01T09:15:06.204Z</time>
      </trkpt>
      <trkpt lat="43.1146387" lon="-2.7665195">
        <ele>139.35</ele>
        <time>2021-04-01T09:15:06.259Z</time>
      </trkpt>
      <trkpt lat="43.1146431" lon="-2.7665188">
        <ele>139.301</ele>
        <time>2021-04-01T09:15:06.314Z</time>
      </trkpt>
      <trkpt lat="43.1146474" lon="-2.7665182">
        <ele>139.282</ele>
        <time>2021-04-01T09:15:06.369Z</time>
      </trkpt>
      <trkpt lat="43.1146517" lon="-2.7665177">
        <ele>139.277</ele>
        <time>2021-04-01T09:15:06.424Z</time>
      </trkpt>
      <trkpt lat="43.1146561" lon="-2.7665166">
        <ele>139.308</ele>
        <time>2021-04-01T09:15:06.479Z</time>
      </trkpt>
      <trkpt lat="43.1146606" lon="-2.7665165">
        <ele>139.27</ele>
        <time>2021-04-01T09:15:06.534Z</time>
      </trkpt>
      <trkpt lat="43.1146648" lon="-2.7665157">
        <ele>139.272</ele>
        <time>2021-04-01T09:15:06.589Z</time>
      </trkpt>
      <trkpt lat="43.114669" lon="-2.7665149">
        <ele>139.315</ele>
        <time>2021-04-01T09:15:06.644Z</time>
      </trkpt>
      <trkpt lat="43.1146736" lon="-2.7665146">
        <ele>139.282</ele>
        <time>2021-04-01T09:15:06.699Z</time>
      </trkpt>
      <trkpt lat="43.1146779" lon="-2.7665144">
        <ele>139.3</ele>
        <time>2021-04-01T09:15:06.754Z</time>
      </trkpt>
      <trkpt lat="43.1146822" lon="-2.7665138">
        <ele>139.322</ele>
        <time>2021-04-01T09:15:06.809Z</time>
      </trkpt>
      <trkpt lat="43.1146866" lon="-2.7665132">
        <ele>139.298</ele>
        <time>2021-04-01T09:15:06.864Z</time>
      </trkpt>
      <trkpt lat="43.1146907" lon="-2.7665124">
        <ele>139.29</ele>
        <time>2021-04-01T09:15:06.922Z</time>
      </trkpt>
      <trkpt lat="43.1146951" lon="-2.766512">
        <ele>139.306</ele>
        <time>2021-04-01T09:15:06.980Z</time>
      </trkpt>
      <trkpt lat="43.1146992" lon="-2.766511">
        <ele>139.337</ele>
        <time>2021-04-01T09:15:07.038Z</time>
      </trkpt>
      <trkpt lat="43.1147033" lon="-2.7665104">
        <ele>139.343</ele>
        <time>2021-04-01T09:15:07.096Z</time>
      </trkpt>
      <trkpt lat="43.1147076" lon="-2.7665096">
        <ele>139.352</ele>
        <time>2021-04-01T09:15:07.155Z</time>
      </trkpt>
      <trkpt lat="43.1147119" lon="-2.7665094">
        <ele>139.322</ele>
        <time>2021-04-01T09:15:07.213Z</time>
      </trkpt>
      <trkpt lat="43.1147161" lon="-2.7665089">
        <ele>139.3</ele>
        <time>2021-04-01T09:15:07.271Z</time>
      </trkpt>
      <trkpt lat="43.1147202" lon="-2.7665085">
        <ele>139.24</ele>
        <time>2021-04-01T09:15:07.329Z</time>
      </trkpt>
      <trkpt lat="43.1147246" lon="-2.7665079">
        <ele>139.178</ele>
        <time>2021-04-01T09:15:07.388Z</time>
      </trkpt>
      <trkpt lat="43.1147288" lon="-2.7665071">
        <ele>139.13</ele>
        <time>2021-04-01T09:15:07.446Z</time>
      </trkpt>
      <trkpt lat="43.1147329" lon="-2.7665065">
        <ele>139.171</ele>
        <time>2021-04-01T09:15:07.504Z</time>
      </trkpt>
      <trkpt lat="43.1147371" lon="-2.766506">
        <ele>139.148</ele>
        <time>2021-04-01T09:15:07.562Z</time>
      </trkpt>
      <trkpt lat="43.1147415" lon="-2.7665053">
        <ele>139.137</ele>
        <time>2021-04-01T09:15:07.621Z</time>
      </trkpt>
      <trkpt lat="43.1147457" lon="-2.7665039">
        <ele>139.222</ele>
        <time>2021-04-01T09:15:07.679Z</time>
      </trkpt>
      <trkpt lat="43.1147499" lon="-2.766503">
        <ele>139.26</ele>
        <time>2021-04-01T09:15:07.737Z</time>
      </trkpt>
      <trkpt lat="43.114754" lon="-2.7665017">
        <ele>139.312</ele>
        <time>2021-04-01T09:15:07.795Z</time>
      </trkpt>
      <trkpt lat="43.1147584" lon="-2.766501">
        <ele>139.265</ele>
        <time>2021-04-01T09:15:07.854Z</time>
      </trkpt>
      <trkpt lat="43.1147624" lon="-2.7665003">
        <ele>139.292</ele>
        <time>2021-04-01T09:15:07.906Z</time>
      </trkpt>
      <trkpt lat="43.1147667" lon="-2.7664996">
        <ele>139.247</ele>
        <time>2021-04-01T09:15:07.958Z</time>
      </trkpt>
      <trkpt lat="43.114771" lon="-2.7664987">
        <ele>139.19</ele>
        <time>2021-04-01T09:15:08.010Z</time>
      </trkpt>
      <trkpt lat="43.1147749" lon="-2.7664975">
        <ele>139.153</ele>
        <time>2021-04-01T09:15:08.062Z</time>
      </trkpt>
      <trkpt lat="43.1147791" lon="-2.7664965">
        <ele>139.179</ele>
        <time>2021-04-01T09:15:08.114Z</time>
      </trkpt>
      <trkpt lat="43.1147838" lon="-2.7664964">
        <ele>139.076</ele>
        <time>2021-04-01T09:15:08.166Z</time>
      </trkpt>
      <trkpt lat="43.114788" lon="-2.7664954">
        <ele>139.077</ele>
        <time>2021-04-01T09:15:08.218Z</time>
      </trkpt>
      <trkpt lat="43.1147922" lon="-2.7664951">
        <ele>139.091</ele>
        <time>2021-04-01T09:15:08.270Z</time>
      </trkpt>
      <trkpt lat="43.1147971" lon="-2.7664953">
        <ele>139.096</ele>
        <time>2021-04-01T09:15:08.322Z</time>
      </trkpt>
      <trkpt lat="43.1148016" lon="-2.7664952">
        <ele>139.032</ele>
        <time>2021-04-01T09:15:08.375Z</time>
      </trkpt>
      <trkpt lat="43.1148062" lon="-2.7664952">
        <ele>138.962</ele>
        <time>2021-04-01T09:15:08.427Z</time>
      </trkpt>
      <trkpt lat="43.1148106" lon="-2.7664947">
        <ele>138.888</ele>
        <time>2021-04-01T09:15:08.479Z</time>
      </trkpt>
      <trkpt lat="43.1148151" lon="-2.7664941">
        <ele>138.824</ele>
        <time>2021-04-01T09:15:08.531Z</time>
      </trkpt>
      <trkpt lat="43.1148194" lon="-2.766493">
        <ele>138.865</ele>
        <time>2021-04-01T09:15:08.583Z</time>
      </trkpt>
      <trkpt lat="43.1148248" lon="-2.7664936">
        <ele>138.847</ele>
        <time>2021-04-01T09:15:08.635Z</time>
      </trkpt>
      <trkpt lat="43.1148301" lon="-2.7664939">
        <ele>138.756</ele>
        <time>2021-04-01T09:15:08.687Z</time>
      </trkpt>
      <trkpt lat="43.1148348" lon="-2.766493">
        <ele>138.775</ele>
        <time>2021-04-01T09:15:08.739Z</time>
      </trkpt>
      <trkpt lat="43.1148393" lon="-2.7664927">
        <ele>138.736</ele>
        <time>2021-04-01T09:15:08.791Z</time>
      </trkpt>
      <trkpt lat="43.1148443" lon="-2.766493">
        <ele>138.727</ele>
        <time>2021-04-01T09:15:08.844Z</time>
      </trkpt>
      <trkpt lat="43.1148493" lon="-2.7664938">
        <ele>138.602</ele>
        <time>2021-04-01T09:15:08.899Z</time>
      </trkpt>
      <trkpt lat="43.1148538" lon="-2.7664934">
        <ele>138.532</ele>
        <time>2021-04-01T09:15:08.954Z</time>
      </trkpt>
      <trkpt lat="43.1148585" lon="-2.7664928">
        <ele>138.503</ele>
        <time>2021-04-01T09:15:09.009Z</time>
      </trkpt>
      <trkpt lat="43.1148632" lon="-2.7664926">
        <ele>138.435</ele>
        <time>2021-04-01T09:15:09.064Z</time>
      </trkpt>
      <trkpt lat="43.1148673" lon="-2.7664921">
        <ele>138.451</ele>
        <time>2021-04-01T09:15:09.119Z</time>
      </trkpt>
      <trkpt lat="43.1148719" lon="-2.7664916">
        <ele>138.454</ele>
        <time>2021-04-01T09:15:09.174Z</time>
      </trkpt>
      <trkpt lat="43.1148766" lon="-2.7664911">
        <ele>138.448</ele>
        <time>2021-04-01T09:15:09.229Z</time>
      </trkpt>
      <trkpt lat="43.1148814" lon="-2.7664904">
        <ele>138.49</ele>
        <time>2021-04-01T09:15:09.284Z</time>
      </trkpt>
      <trkpt lat="43.1148863" lon="-2.7664903">
        <ele>138.482</ele>
        <time>2021-04-01T09:15:09.339Z</time>
      </trkpt>
      <trkpt lat="43.1148915" lon="-2.7664905">
        <ele>138.312</ele>
        <time>2021-04-01T09:15:09.394Z</time>
      </trkpt>
      <trkpt lat="43.1148966" lon="-2.7664901">
        <ele>138.205</ele>
        <time>2021-04-01T09:15:09.449Z</time>
      </trkpt>
      <trkpt lat="43.1149014" lon="-2.7664899">
        <ele>138.086</ele>
        <time>2021-04-01T09:15:09.504Z</time>
      </trkpt>
      <trkpt lat="43.1149061" lon="-2.7664885">
        <ele>138.115</ele>
        <time>2021-04-01T09:15:09.559Z</time>
      </trkpt>
      <trkpt lat="43.1149105" lon="-2.7664875">
        <ele>138.164</ele>
        <time>2021-04-01T09:15:09.614Z</time>
      </trkpt>
      <trkpt lat="43.1149152" lon="-2.7664874">
        <ele>138.085</ele>
        <time>2021-04-01T09:15:09.669Z</time>
      </trkpt>
      <trkpt lat="43.1149196" lon="-2.7664868">
        <ele>138.151</ele>
        <time>2021-04-01T09:15:09.724Z</time>
      </trkpt>
      <trkpt lat="43.1149241" lon="-2.766486">
        <ele>138.229</ele>
        <time>2021-04-01T09:15:09.779Z</time>
      </trkpt>
      <trkpt lat="43.1149289" lon="-2.7664859">
        <ele>138.238</ele>
        <time>2021-04-01T09:15:09.834Z</time>
      </trkpt>
      <trkpt lat="43.1149336" lon="-2.7664855">
        <ele>138.279</ele>
        <time>2021-04-01T09:15:09.886Z</time>
      </trkpt>
      <trkpt lat="43.1149383" lon="-2.7664847">
        <ele>138.262</ele>
        <time>2021-04-01T09:15:09.938Z</time>
      </trkpt>
      <trkpt lat="43.1149429" lon="-2.7664845">
        <ele>138.239</ele>
        <time>2021-04-01T09:15:09.990Z</time>
      </trkpt>
      <trkpt lat="43.1149473" lon="-2.7664837">
        <ele>138.321</ele>
        <time>2021-04-01T09:15:10.042Z</time>
      </trkpt>
      <trkpt lat="43.1149518" lon="-2.7664828">
        <ele>138.317</ele>
        <time>2021-04-01T09:15:10.094Z</time>
      </trkpt>
      <trkpt lat="43.1149563" lon="-2.7664819">
        <ele>138.372</ele>
        <time>2021-04-01T09:15:10.146Z</time>
      </trkpt>
      <trkpt lat="43.1149616" lon="-2.7664815">
        <ele>138.247</ele>
        <time>2021-04-01T09:15:10.198Z</time>
      </trkpt>
      <trkpt lat="43.1149666" lon="-2.7664814">
        <ele>138.144</ele>
        <time>2021-04-01T09:15:10.250Z</time>
      </trkpt>
      <trkpt lat="43.1149716" lon="-2.7664816">
        <ele>138.003</ele>
        <time>2021-04-01T09:15:10.302Z</time>
      </trkpt>
      <trkpt lat="43.1149766" lon="-2.7664813">
        <ele>137.968</ele>
        <time>2021-04-01T09:15:10.355Z</time>
      </trkpt>
      <trkpt lat="43.1149816" lon="-2.7664818">
        <ele>137.856</ele>
        <time>2021-04-01T09:15:10.407Z</time>
      </trkpt>
      <trkpt lat="43.1149863" lon="-2.7664816">
        <ele>137.815</ele>
        <time>2021-04-01T09:15:10.459Z</time>
      </trkpt>
      <trkpt lat="43.1149911" lon="-2.7664808">
        <ele>137.791</ele>
        <time>2021-04-01T09:15:10.511Z</time>
      </trkpt>
      <trkpt lat="43.1149961" lon="-2.7664807">
        <ele>137.75</ele>
        <time>2021-04-01T09:15:10.563Z</time>
      </trkpt>
      <trkpt lat="43.1150008" lon="-2.7664805">
        <ele>137.672</ele>
        <time>2021-04-01T09:15:10.615Z</time>
      </trkpt>
      <trkpt lat="43.1150057" lon="-2.7664799">
        <ele>137.651</ele>
        <time>2021-04-01T09:15:10.667Z</time>
      </trkpt>
      <trkpt lat="43.1150105" lon="-2.7664791">
        <ele>137.606</ele>
        <time>2021-04-01T09:15:10.719Z</time>
      </trkpt>
      <trkpt lat="43.1150151" lon="-2.7664784">
        <ele>137.574</ele>
        <time>2021-04-01T09:15:10.771Z</time>
      </trkpt>
      <trkpt lat="43.1150194" lon="-2.7664775">
        <ele>137.53</ele>
        <time>2021-04-01T09:15:10.824Z</time>
      </trkpt>
      <trkpt lat="43.1150241" lon="-2.766477">
        <ele>137.408</ele>
        <time>2021-04-01T09:15:10.882Z</time>
      </trkpt>
      <trkpt lat="43.1150289" lon="-2.7664767">
        <ele>137.342</ele>
        <time>2021-04-01T09:15:10.940Z</time>
      </trkpt>
      <trkpt lat="43.1150337" lon="-2.7664761">
        <ele>137.297</ele>
        <time>2021-04-01T09:15:10.998Z</time>
      </trkpt>
      <trkpt lat="43.1150387" lon="-2.7664758">
        <ele>137.229</ele>
        <time>2021-04-01T09:15:11.056Z</time>
      </trkpt>
      <trkpt lat="43.1150436" lon="-2.7664755">
        <ele>137.183</ele>
        <time>2021-04-01T09:15:11.115Z</time>
      </trkpt>
      <trkpt lat="43.1150485" lon="-2.7664753">
        <ele>137.161</ele>
        <time>2021-04-01T09:15:11.173Z</time>
      </trkpt>
      <trkpt lat="43.1150532" lon="-2.7664747">
        <ele>137.152</ele>
        <time>2021-04-01T09:15:11.231Z</time>
      </trkpt>
      <trkpt lat="43.1150577" lon="-2.7664741">
        <ele>137.104</ele>
        <time>2021-04-01T09:15:11.289Z</time>
      </trkpt>
      <trkpt lat="43.1150616" lon="-2.7664731">
        <ele>137.077</ele>
        <time>2021-04-01T09:15:11.348Z</time>
      </trkpt>
      <trkpt lat="43.1150658" lon="-2.766472">
        <ele>137.01</ele>
        <time>2021-04-01T09:15:11.406Z</time>
      </trkpt>
      <trkpt lat="43.1150694" lon="-2.7664704">
        <ele>136.931</ele>
        <time>2021-04-01T09:15:11.464Z</time>
      </trkpt>
      <trkpt lat="43.1150739" lon="-2.7664691">
        <ele>136.947</ele>
        <time>2021-04-01T09:15:11.522Z</time>
      </trkpt>
      <trkpt lat="43.1150783" lon="-2.7664683">
        <ele>136.949</ele>
        <time>2021-04-01T09:15:11.581Z</time>
      </trkpt>
      <trkpt lat="43.1150827" lon="-2.766468">
        <ele>136.88</ele>
        <time>2021-04-01T09:15:11.639Z</time>
      </trkpt>
      <trkpt lat="43.115087" lon="-2.7664675">
        <ele>136.827</ele>
        <time>2021-04-01T09:15:11.697Z</time>
      </trkpt>
      <trkpt lat="43.1150918" lon="-2.7664665">
        <ele>136.802</ele>
        <time>2021-04-01T09:15:11.755Z</time>
      </trkpt>
      <trkpt lat="43.1150965" lon="-2.7664661">
        <ele>136.853</ele>
        <time>2021-04-01T09:15:11.814Z</time>
      </trkpt>
      <trkpt lat="43.1151001" lon="-2.766466">
        <ele>136.801</ele>
        <time>2021-04-01T09:15:11.872Z</time>
      </trkpt>
      <trkpt lat="43.1151048" lon="-2.7664653">
        <ele>136.752</ele>
        <time>2021-04-01T09:15:11.930Z</time>
      </trkpt>
      <trkpt lat="43.1151096" lon="-2.7664651">
        <ele>136.755</ele>
        <time>2021-04-01T09:15:11.988Z</time>
      </trkpt>
      <trkpt lat="43.1151141" lon="-2.7664647">
        <ele>136.738</ele>
        <time>2021-04-01T09:15:12.046Z</time>
      </trkpt>
      <trkpt lat="43.1151185" lon="-2.7664636">
        <ele>136.722</ele>
        <time>2021-04-01T09:15:12.104Z</time>
      </trkpt>
      <trkpt lat="43.1151228" lon="-2.7664627">
        <ele>136.705</ele>
        <time>2021-04-01T09:15:12.162Z</time>
      </trkpt>
      <trkpt lat="43.1151273" lon="-2.7664621">
        <ele>136.713</ele>
        <time>2021-04-01T09:15:12.220Z</time>
      </trkpt>
      <trkpt lat="43.1151323" lon="-2.7664617">
        <ele>136.677</ele>
        <time>2021-04-01T09:15:12.278Z</time>
      </trkpt>
      <trkpt lat="43.115137" lon="-2.7664614">
        <ele>136.652</ele>
        <time>2021-04-01T09:15:12.336Z</time>
      </trkpt>
      <trkpt lat="43.1151417" lon="-2.7664612">
        <ele>136.698</ele>
        <time>2021-04-01T09:15:12.394Z</time>
      </trkpt>
      <trkpt lat="43.1151464" lon="-2.7664612">
        <ele>136.647</ele>
        <time>2021-04-01T09:15:12.452Z</time>
      </trkpt>
      <trkpt lat="43.1151507" lon="-2.7664606">
        <ele>136.613</ele>
        <time>2021-04-01T09:15:12.510Z</time>
      </trkpt>
      <trkpt lat="43.1151551" lon="-2.7664593">
        <ele>136.611</ele>
        <time>2021-04-01T09:15:12.568Z</time>
      </trkpt>
      <trkpt lat="43.1151594" lon="-2.7664585">
        <ele>136.611</ele>
        <time>2021-04-01T09:15:12.626Z</time>
      </trkpt>
      <trkpt lat="43.1151638" lon="-2.7664581">
        <ele>136.593</ele>
        <time>2021-04-01T09:15:12.684Z</time>
      </trkpt>
      <trkpt lat="43.1151681" lon="-2.7664579">
        <ele>136.577</ele>
        <time>2021-04-01T09:15:12.742Z</time>
      </trkpt>
      <trkpt lat="43.115173" lon="-2.7664575">
        <ele>136.554</ele>
        <time>2021-04-01T09:15:12.800Z</time>
      </trkpt>
      <trkpt lat="43.1151777" lon="-2.7664568">
        <ele>136.591</ele>
        <time>2021-04-01T09:15:12.859Z</time>
      </trkpt>
      <trkpt lat="43.1151827" lon="-2.7664568">
        <ele>136.583</ele>
        <time>2021-04-01T09:15:12.914Z</time>
      </trkpt>
      <trkpt lat="43.1151869" lon="-2.7664564">
        <ele>136.516</ele>
        <time>2021-04-01T09:15:12.969Z</time>
      </trkpt>
      <trkpt lat="43.1151917" lon="-2.7664558">
        <ele>136.49</ele>
        <time>2021-04-01T09:15:13.024Z</time>
      </trkpt>
      <trkpt lat="43.1151968" lon="-2.7664555">
        <ele>136.404</ele>
        <time>2021-04-01T09:15:13.079Z</time>
      </trkpt>
      <trkpt lat="43.1152014" lon="-2.7664553">
        <ele>136.311</ele>
        <time>2021-04-01T09:15:13.134Z</time>
      </trkpt>
      <trkpt lat="43.1152057" lon="-2.7664549">
        <ele>136.225</ele>
        <time>2021-04-01T09:15:13.189Z</time>
      </trkpt>
      <trkpt lat="43.1152102" lon="-2.7664549">
        <ele>136.159</ele>
        <time>2021-04-01T09:15:13.244Z</time>
      </trkpt>
      <trkpt lat="43.1152145" lon="-2.7664542">
        <ele>136.142</ele>
        <time>2021-04-01T09:15:13.299Z</time>
      </trkpt>
      <trkpt lat="43.1152192" lon="-2.766454">
        <ele>136.005</ele>
        <time>2021-04-01T09:15:13.354Z</time>
      </trkpt>
      <trkpt lat="43.1152239" lon="-2.7664536">
        <ele>135.94</ele>
        <time>2021-04-01T09:15:13.409Z</time>
      </trkpt>
      <trkpt lat="43.1152285" lon="-2.766453">
        <ele>135.959</ele>
        <time>2021-04-01T09:15:13.464Z</time>
      </trkpt>
      <trkpt lat="43.1152333" lon="-2.7664521">
        <ele>135.915</ele>
        <time>2021-04-01T09:15:13.519Z</time>
      </trkpt>
      <trkpt lat="43.1152375" lon="-2.7664519">
        <ele>135.897</ele>
        <time>2021-04-01T09:15:13.574Z</time>
      </trkpt>
      <trkpt lat="43.1152418" lon="-2.7664521">
        <ele>135.838</ele>
        <time>2021-04-01T09:15:13.629Z</time>
      </trkpt>
      <trkpt lat="43.115246" lon="-2.7664514">
        <ele>135.779</ele>
        <time>2021-04-01T09:15:13.684Z</time>
      </trkpt>
      <trkpt lat="43.1152506" lon="-2.7664514">
        <ele>135.76</ele>
        <time>2021-04-01T09:15:13.739Z</time>
      </trkpt>
      <trkpt lat="43.1152554" lon="-2.7664509">
        <ele>135.781</ele>
        <time>2021-04-01T09:15:13.794Z</time>
      </trkpt>
      <trkpt lat="43.1152597" lon="-2.7664496">
        <ele>135.717</ele>
        <time>2021-04-01T09:15:13.849Z</time>
      </trkpt>
      <trkpt lat="43.115264" lon="-2.7664488">
        <ele>135.692</ele>
        <time>2021-04-01T09:15:13.904Z</time>
      </trkpt>
      <trkpt lat="43.1152687" lon="-2.7664489">
        <ele>135.689</ele>
        <time>2021-04-01T09:15:13.955Z</time>
      </trkpt>
      <trkpt lat="43.1152734" lon="-2.7664493">
        <ele>135.702</ele>
        <time>2021-04-01T09:15:14.007Z</time>
      </trkpt>
      <trkpt lat="43.1152774" lon="-2.7664494">
        <ele>135.658</ele>
        <time>2021-04-01T09:15:14.059Z</time>
      </trkpt>
      <trkpt lat="43.1152821" lon="-2.7664497">
        <ele>135.539</ele>
        <time>2021-04-01T09:15:14.111Z</time>
      </trkpt>
      <trkpt lat="43.1152868" lon="-2.7664495">
        <ele>135.442</ele>
        <time>2021-04-01T09:15:14.163Z</time>
      </trkpt>
      <trkpt lat="43.1152897" lon="-2.7664486">
        <ele>135.309</ele>
        <time>2021-04-01T09:15:14.215Z</time>
      </trkpt>
      <trkpt lat="43.1152942" lon="-2.7664478">
        <ele>135.282</ele>
        <time>2021-04-01T09:15:14.267Z</time>
      </trkpt>
      <trkpt lat="43.1152986" lon="-2.7664472">
        <ele>135.269</ele>
        <time>2021-04-01T09:15:14.319Z</time>
      </trkpt>
      <trkpt lat="43.1153027" lon="-2.7664467">
        <ele>135.199</ele>
        <time>2021-04-01T09:15:14.371Z</time>
      </trkpt>
      <trkpt lat="43.1153072" lon="-2.7664457">
        <ele>135.179</ele>
        <time>2021-04-01T09:15:14.423Z</time>
      </trkpt>
      <trkpt lat="43.1153114" lon="-2.7664448">
        <ele>135.156</ele>
        <time>2021-04-01T09:15:14.475Z</time>
      </trkpt>
      <trkpt lat="43.1153162" lon="-2.7664445">
        <ele>135.238</ele>
        <time>2021-04-01T09:15:14.527Z</time>
      </trkpt>
      <trkpt lat="43.1153211" lon="-2.7664441">
        <ele>135.169</ele>
        <time>2021-04-01T09:15:14.579Z</time>
      </trkpt>
      <trkpt lat="43.1153252" lon="-2.7664433">
        <ele>135.109</ele>
        <time>2021-04-01T09:15:14.631Z</time>
      </trkpt>
      <trkpt lat="43.11533" lon="-2.7664428">
        <ele>135.049</ele>
        <time>2021-04-01T09:15:14.683Z</time>
      </trkpt>
      <trkpt lat="43.115334" lon="-2.7664421">
        <ele>135.077</ele>
        <time>2021-04-01T09:15:14.735Z</time>
      </trkpt>
      <trkpt lat="43.1153385" lon="-2.7664421">
        <ele>135.071</ele>
        <time>2021-04-01T09:15:14.787Z</time>
      </trkpt>
      <trkpt lat="43.1153431" lon="-2.7664419">
        <ele>135.053</ele>
        <time>2021-04-01T09:15:14.839Z</time>
      </trkpt>
      <trkpt lat="43.1153476" lon="-2.7664418">
        <ele>135.017</ele>
        <time>2021-04-01T09:15:14.894Z</time>
      </trkpt>
      <trkpt lat="43.1153525" lon="-2.7664414">
        <ele>135.037</ele>
        <time>2021-04-01T09:15:14.949Z</time>
      </trkpt>
      <trkpt lat="43.1153575" lon="-2.766441">
        <ele>135.07</ele>
        <time>2021-04-01T09:15:15.004Z</time>
      </trkpt>
      <trkpt lat="43.1153622" lon="-2.7664404">
        <ele>135.096</ele>
        <time>2021-04-01T09:15:15.059Z</time>
      </trkpt>
      <trkpt lat="43.115367" lon="-2.7664402">
        <ele>135.053</ele>
        <time>2021-04-01T09:15:15.114Z</time>
      </trkpt>
      <trkpt lat="43.1153708" lon="-2.7664389">
        <ele>135.065</ele>
        <time>2021-04-01T09:15:15.169Z</time>
      </trkpt>
      <trkpt lat="43.1153751" lon="-2.7664374">
        <ele>135.118</ele>
        <time>2021-04-01T09:15:15.224Z</time>
      </trkpt>
      <trkpt lat="43.1153794" lon="-2.7664362">
        <ele>135.139</ele>
        <time>2021-04-01T09:15:15.279Z</time>
      </trkpt>
      <trkpt lat="43.1153835" lon="-2.7664353">
        <ele>135.17</ele>
        <time>2021-04-01T09:15:15.334Z</time>
      </trkpt>
      <trkpt lat="43.1153877" lon="-2.7664343">
        <ele>135.175</ele>
        <time>2021-04-01T09:15:15.389Z</time>
      </trkpt>
      <trkpt lat="43.1153921" lon="-2.7664335">
        <ele>135.153</ele>
        <time>2021-04-01T09:15:15.444Z</time>
      </trkpt>
      <trkpt lat="43.1153969" lon="-2.7664325">
        <ele>135.143</ele>
        <time>2021-04-01T09:15:15.499Z</time>
      </trkpt>
      <trkpt lat="43.1154015" lon="-2.7664316">
        <ele>135.228</ele>
        <time>2021-04-01T09:15:15.554Z</time>
      </trkpt>
      <trkpt lat="43.1154062" lon="-2.7664307">
        <ele>135.254</ele>
        <time>2021-04-01T09:15:15.609Z</time>
      </trkpt>
      <trkpt lat="43.1154106" lon="-2.7664299">
        <ele>135.309</ele>
        <time>2021-04-01T09:15:15.664Z</time>
      </trkpt>
      <trkpt lat="43.115415" lon="-2.766429">
        <ele>135.357</ele>
        <time>2021-04-01T09:15:15.719Z</time>
      </trkpt>
      <trkpt lat="43.1154196" lon="-2.7664288">
        <ele>135.324</ele>
        <time>2021-04-01T09:15:15.774Z</time>
      </trkpt>
      <trkpt lat="43.1154244" lon="-2.7664288">
        <ele>135.299</ele>
        <time>2021-04-01T09:15:15.829Z</time>
      </trkpt>
      <trkpt lat="43.1154287" lon="-2.7664277">
        <ele>135.294</ele>
        <time>2021-04-01T09:15:15.881Z</time>
      </trkpt>
      <trkpt lat="43.1154328" lon="-2.7664269">
        <ele>135.277</ele>
        <time>2021-04-01T09:15:15.933Z</time>
      </trkpt>
      <trkpt lat="43.1154372" lon="-2.7664264">
        <ele>135.253</ele>
        <time>2021-04-01T09:15:15.985Z</time>
      </trkpt>
      <trkpt lat="43.1154418" lon="-2.7664255">
        <ele>135.284</ele>
        <time>2021-04-01T09:15:16.037Z</time>
      </trkpt>
      <trkpt lat="43.1154462" lon="-2.7664248">
        <ele>135.353</ele>
        <time>2021-04-01T09:15:16.089Z</time>
      </trkpt>
      <trkpt lat="43.1154508" lon="-2.7664243">
        <ele>135.425</ele>
        <time>2021-04-01T09:15:16.141Z</time>
      </trkpt>
      <trkpt lat="43.1154555" lon="-2.7664241">
        <ele>135.449</ele>
        <time>2021-04-01T09:15:16.193Z</time>
      </trkpt>
      <trkpt lat="43.1154603" lon="-2.766424">
        <ele>135.448</ele>
        <time>2021-04-01T09:15:16.245Z</time>
      </trkpt>
      <trkpt lat="43.1154651" lon="-2.7664237">
        <ele>135.46</ele>
        <time>2021-04-01T09:15:16.297Z</time>
      </trkpt>
      <trkpt lat="43.1154699" lon="-2.7664233">
        <ele>135.473</ele>
        <time>2021-04-01T09:15:16.350Z</time>
      </trkpt>
      <trkpt lat="43.1154748" lon="-2.7664231">
        <ele>135.461</ele>
        <time>2021-04-01T09:15:16.402Z</time>
      </trkpt>
      <trkpt lat="43.1154791" lon="-2.7664226">
        <ele>135.468</ele>
        <time>2021-04-01T09:15:16.454Z</time>
      </trkpt>
      <trkpt lat="43.1154835" lon="-2.7664225">
        <ele>135.4</ele>
        <time>2021-04-01T09:15:16.506Z</time>
      </trkpt>
      <trkpt lat="43.1154875" lon="-2.7664223">
        <ele>135.351</ele>
        <time>2021-04-01T09:15:16.558Z</time>
      </trkpt>
      <trkpt lat="43.1154918" lon="-2.7664223">
        <ele>135.39</ele>
        <time>2021-04-01T09:15:16.610Z</time>
      </trkpt>
      <trkpt lat="43.1154959" lon="-2.7664216">
        <ele>135.351</ele>
        <time>2021-04-01T09:15:16.662Z</time>
      </trkpt>
      <trkpt lat="43.1155006" lon="-2.7664216">
        <ele>135.35</ele>
        <time>2021-04-01T09:15:16.714Z</time>
      </trkpt>
      <trkpt lat="43.1155054" lon="-2.7664216">
        <ele>135.324</ele>
        <time>2021-04-01T09:15:16.766Z</time>
      </trkpt>
      <trkpt lat="43.1155107" lon="-2.7664218">
        <ele>135.317</ele>
        <time>2021-04-01T09:15:16.819Z</time>
      </trkpt>
      <trkpt lat="43.1155157" lon="-2.7664219">
        <ele>135.285</ele>
        <time>2021-04-01T09:15:16.880Z</time>
      </trkpt>
      <trkpt lat="43.1155209" lon="-2.7664221">
        <ele>135.222</ele>
        <time>2021-04-01T09:15:16.941Z</time>
      </trkpt>
      <trkpt lat="43.1155256" lon="-2.7664219">
        <ele>135.226</ele>
        <time>2021-04-01T09:15:17.003Z</time>
      </trkpt>
      <trkpt lat="43.1155302" lon="-2.7664213">
        <ele>135.257</ele>
        <time>2021-04-01T09:15:17.064Z</time>
      </trkpt>
      <trkpt lat="43.1155347" lon="-2.7664211">
        <ele>135.24</ele>
        <time>2021-04-01T09:15:17.126Z</time>
      </trkpt>
      <trkpt lat="43.1155392" lon="-2.7664207">
        <ele>135.248</ele>
        <time>2021-04-01T09:15:17.187Z</time>
      </trkpt>
      <trkpt lat="43.115544" lon="-2.7664207">
        <ele>135.231</ele>
        <time>2021-04-01T09:15:17.249Z</time>
      </trkpt>
      <trkpt lat="43.1155488" lon="-2.7664204">
        <ele>135.234</ele>
        <time>2021-04-01T09:15:17.310Z</time>
      </trkpt>
      <trkpt lat="43.1155528" lon="-2.7664202">
        <ele>135.28</ele>
        <time>2021-04-01T09:15:17.372Z</time>
      </trkpt>
      <trkpt lat="43.1155571" lon="-2.7664203">
        <ele>135.287</ele>
        <time>2021-04-01T09:15:17.433Z</time>
      </trkpt>
      <trkpt lat="43.1155615" lon="-2.7664206">
        <ele>135.228</ele>
        <time>2021-04-01T09:15:17.495Z</time>
      </trkpt>
      <trkpt lat="43.1155668" lon="-2.7664213">
        <ele>135.103</ele>
        <time>2021-04-01T09:15:17.556Z</time>
      </trkpt>
      <trkpt lat="43.1155717" lon="-2.7664221">
        <ele>135.025</ele>
        <time>2021-04-01T09:15:17.618Z</time>
      </trkpt>
      <trkpt lat="43.1155761" lon="-2.7664225">
        <ele>135.022</ele>
        <time>2021-04-01T09:15:17.679Z</time>
      </trkpt>
      <trkpt lat="43.1155804" lon="-2.7664224">
        <ele>135.041</ele>
        <time>2021-04-01T09:15:17.741Z</time>
      </trkpt>
      <trkpt lat="43.1155847" lon="-2.7664223">
        <ele>135.056</ele>
        <time>2021-04-01T09:15:17.802Z</time>
      </trkpt>
      <trkpt lat="43.1155892" lon="-2.7664222">
        <ele>135.022</ele>
        <time>2021-04-01T09:15:17.864Z</time>
      </trkpt>
      <trkpt lat="43.1155938" lon="-2.7664224">
        <ele>135.055</ele>
        <time>2021-04-01T09:15:17.916Z</time>
      </trkpt>
      <trkpt lat="43.1155986" lon="-2.7664227">
        <ele>135.087</ele>
        <time>2021-04-01T09:15:17.968Z</time>
      </trkpt>
      <trkpt lat="43.1156032" lon="-2.7664229">
        <ele>135.082</ele>
        <time>2021-04-01T09:15:18.020Z</time>
      </trkpt>
      <trkpt lat="43.1156077" lon="-2.7664228">
        <ele>135.116</ele>
        <time>2021-04-01T09:15:18.072Z</time>
      </trkpt>
      <trkpt lat="43.1156121" lon="-2.7664229">
        <ele>135.124</ele>
        <time>2021-04-01T09:15:18.124Z</time>
      </trkpt>
      <trkpt lat="43.1156168" lon="-2.766423">
        <ele>135.123</ele>
        <time>2021-04-01T09:15:18.176Z</time>
      </trkpt>
      <trkpt lat="43.1156212" lon="-2.7664233">
        <ele>135.157</ele>
        <time>2021-04-01T09:15:18.228Z</time>
      </trkpt>
      <trkpt lat="43.1156258" lon="-2.7664238">
        <ele>135.118</ele>
        <time>2021-04-01T09:15:18.280Z</time>
      </trkpt>
      <trkpt lat="43.1156307" lon="-2.7664241">
        <ele>135.196</ele>
        <time>2021-04-01T09:15:18.332Z</time>
      </trkpt>
      <trkpt lat="43.1156354" lon="-2.7664246">
        <ele>135.256</ele>
        <time>2021-04-01T09:15:18.385Z</time>
      </trkpt>
      <trkpt lat="43.1156401" lon="-2.7664252">
        <ele>135.302</ele>
        <time>2021-04-01T09:15:18.437Z</time>
      </trkpt>
      <trkpt lat="43.1156444" lon="-2.7664254">
        <ele>135.308</ele>
        <time>2021-04-01T09:15:18.489Z</time>
      </trkpt>
      <trkpt lat="43.1156489" lon="-2.7664259">
        <ele>135.282</ele>
        <time>2021-04-01T09:15:18.541Z</time>
      </trkpt>
      <trkpt lat="43.1156537" lon="-2.7664264">
        <ele>135.322</ele>
        <time>2021-04-01T09:15:18.593Z</time>
      </trkpt>
      <trkpt lat="43.1156586" lon="-2.766427">
        <ele>135.372</ele>
        <time>2021-04-01T09:15:18.645Z</time>
      </trkpt>
      <trkpt lat="43.1156635" lon="-2.7664276">
        <ele>135.411</ele>
        <time>2021-04-01T09:15:18.697Z</time>
      </trkpt>
      <trkpt lat="43.1156681" lon="-2.7664281">
        <ele>135.451</ele>
        <time>2021-04-01T09:15:18.749Z</time>
      </trkpt>
      <trkpt lat="43.1156726" lon="-2.7664287">
        <ele>135.487</ele>
        <time>2021-04-01T09:15:18.801Z</time>
      </trkpt>
      <trkpt lat="43.1156776" lon="-2.7664294">
        <ele>135.512</ele>
        <time>2021-04-01T09:15:18.854Z</time>
      </trkpt>
      <trkpt lat="43.1156825" lon="-2.7664302">
        <ele>135.544</ele>
        <time>2021-04-01T09:15:18.909Z</time>
      </trkpt>
      <trkpt lat="43.1156872" lon="-2.7664308">
        <ele>135.608</ele>
        <time>2021-04-01T09:15:18.964Z</time>
      </trkpt>
      <trkpt lat="43.115692" lon="-2.7664317">
        <ele>135.647</ele>
        <time>2021-04-01T09:15:19.019Z</time>
      </trkpt>
      <trkpt lat="43.1156967" lon="-2.7664326">
        <ele>135.71</ele>
        <time>2021-04-01T09:15:19.074Z</time>
      </trkpt>
      <trkpt lat="43.1157015" lon="-2.7664334">
        <ele>135.791</ele>
        <time>2021-04-01T09:15:19.129Z</time>
      </trkpt>
      <trkpt lat="43.1157059" lon="-2.7664343">
        <ele>135.758</ele>
        <time>2021-04-01T09:15:19.184Z</time>
      </trkpt>
      <trkpt lat="43.1157106" lon="-2.766435">
        <ele>135.79</ele>
        <time>2021-04-01T09:15:19.239Z</time>
      </trkpt>
      <trkpt lat="43.1157158" lon="-2.7664358">
        <ele>135.904</ele>
        <time>2021-04-01T09:15:19.294Z</time>
      </trkpt>
      <trkpt lat="43.1157205" lon="-2.7664371">
        <ele>135.93</ele>
        <time>2021-04-01T09:15:19.349Z</time>
      </trkpt>
      <trkpt lat="43.1157255" lon="-2.7664383">
        <ele>135.983</ele>
        <time>2021-04-01T09:15:19.404Z</time>
      </trkpt>
      <trkpt lat="43.1157302" lon="-2.7664397">
        <ele>135.99</ele>
        <time>2021-04-01T09:15:19.459Z</time>
      </trkpt>
      <trkpt lat="43.1157351" lon="-2.7664413">
        <ele>135.959</ele>
        <time>2021-04-01T09:15:19.514Z</time>
      </trkpt>
      <trkpt lat="43.1157397" lon="-2.7664427">
        <ele>135.884</ele>
        <time>2021-04-01T09:15:19.569Z</time>
      </trkpt>
      <trkpt lat="43.1157446" lon="-2.7664444">
        <ele>135.88</ele>
        <time>2021-04-01T09:15:19.624Z</time>
      </trkpt>
      <trkpt lat="43.1157497" lon="-2.7664458">
        <ele>135.933</ele>
        <time>2021-04-01T09:15:19.679Z</time>
      </trkpt>
      <trkpt lat="43.115755" lon="-2.7664474">
        <ele>135.956</ele>
        <time>2021-04-01T09:15:19.734Z</time>
      </trkpt>
      <trkpt lat="43.1157602" lon="-2.7664491">
        <ele>135.959</ele>
        <time>2021-04-01T09:15:19.789Z</time>
      </trkpt>
      <trkpt lat="43.1157651" lon="-2.7664506">
        <ele>136.019</ele>
        <time>2021-04-01T09:15:19.844Z</time>
      </trkpt>
      <trkpt lat="43.1157699" lon="-2.7664521">
        <ele>135.96</ele>
        <time>2021-04-01T09:15:19.899Z</time>
      </trkpt>
      <trkpt lat="43.1157748" lon="-2.7664534">
        <ele>135.968</ele>
        <time>2021-04-01T09:15:19.954Z</time>
      </trkpt>
      <trkpt lat="43.1157797" lon="-2.7664554">
        <ele>135.936</ele>
        <time>2021-04-01T09:15:20.009Z</time>
      </trkpt>
      <trkpt lat="43.1157846" lon="-2.7664571">
        <ele>135.941</ele>
        <time>2021-04-01T09:15:20.064Z</time>
      </trkpt>
      <trkpt lat="43.1157892" lon="-2.7664587">
        <ele>135.943</ele>
        <time>2021-04-01T09:15:20.119Z</time>
      </trkpt>
      <trkpt lat="43.1157941" lon="-2.7664601">
        <ele>135.979</ele>
        <time>2021-04-01T09:15:20.174Z</time>
      </trkpt>
      <trkpt lat="43.115799" lon="-2.7664618">
        <ele>136.001</ele>
        <time>2021-04-01T09:15:20.229Z</time>
      </trkpt>
      <trkpt lat="43.1158038" lon="-2.7664634">
        <ele>136.033</ele>
        <time>2021-04-01T09:15:20.284Z</time>
      </trkpt>
      <trkpt lat="43.1158086" lon="-2.766465">
        <ele>136.056</ele>
        <time>2021-04-01T09:15:20.339Z</time>
      </trkpt>
      <trkpt lat="43.1158133" lon="-2.7664665">
        <ele>136.086</ele>
        <time>2021-04-01T09:15:20.394Z</time>
      </trkpt>
      <trkpt lat="43.115818" lon="-2.766468">
        <ele>136.112</ele>
        <time>2021-04-01T09:15:20.449Z</time>
      </trkpt>
      <trkpt lat="43.1158228" lon="-2.7664696">
        <ele>136.142</ele>
        <time>2021-04-01T09:15:20.504Z</time>
      </trkpt>
      <trkpt lat="43.1158276" lon="-2.7664712">
        <ele>136.175</ele>
        <time>2021-04-01T09:15:20.559Z</time>
      </trkpt>
      <trkpt lat="43.1158322" lon="-2.7664729">
        <ele>136.207</ele>
        <time>2021-04-01T09:15:20.614Z</time>
      </trkpt>
      <trkpt lat="43.1158367" lon="-2.7664745">
        <ele>136.222</ele>
        <time>2021-04-01T09:15:20.669Z</time>
      </trkpt>
      <trkpt lat="43.1158415" lon="-2.7664763">
        <ele>136.251</ele>
        <time>2021-04-01T09:15:20.724Z</time>
      </trkpt>
      <trkpt lat="43.1158463" lon="-2.766478">
        <ele>136.298</ele>
        <time>2021-04-01T09:15:20.779Z</time>
      </trkpt>
      <trkpt lat="43.1158509" lon="-2.76648">
        <ele>136.312</ele>
        <time>2021-04-01T09:15:20.834Z</time>
      </trkpt>
      <trkpt lat="43.1158554" lon="-2.7664817">
        <ele>136.315</ele>
        <time>2021-04-01T09:15:20.886Z</time>
      </trkpt>
      <trkpt lat="43.1158603" lon="-2.7664832">
        <ele>136.326</ele>
        <time>2021-04-01T09:15:20.938Z</time>
      </trkpt>
      <trkpt lat="43.1158649" lon="-2.7664854">
        <ele>136.33</ele>
        <time>2021-04-01T09:15:20.990Z</time>
      </trkpt>
      <trkpt lat="43.1158696" lon="-2.7664873">
        <ele>136.29</ele>
        <time>2021-04-01T09:15:21.042Z</time>
      </trkpt>
      <trkpt lat="43.1158742" lon="-2.766489">
        <ele>136.307</ele>
        <time>2021-04-01T09:15:21.094Z</time>
      </trkpt>
      <trkpt lat="43.115879" lon="-2.7664908">
        <ele>136.341</ele>
        <time>2021-04-01T09:15:21.146Z</time>
      </trkpt>
      <trkpt lat="43.1158838" lon="-2.7664927">
        <ele>136.357</ele>
        <time>2021-04-01T09:15:21.198Z</time>
      </trkpt>
      <trkpt lat="43.1158885" lon="-2.7664951">
        <ele>136.343</ele>
        <time>2021-04-01T09:15:21.250Z</time>
      </trkpt>
      <trkpt lat="43.1158931" lon="-2.7664974">
        <ele>136.374</ele>
        <time>2021-04-01T09:15:21.302Z</time>
      </trkpt>
      <trkpt lat="43.1158976" lon="-2.7664995">
        <ele>136.371</ele>
        <time>2021-04-01T09:15:21.355Z</time>
      </trkpt>
      <trkpt lat="43.1159024" lon="-2.7665014">
        <ele>136.385</ele>
        <time>2021-04-01T09:15:21.407Z</time>
      </trkpt>
      <trkpt lat="43.1159069" lon="-2.7665034">
        <ele>136.398</ele>
        <time>2021-04-01T09:15:21.459Z</time>
      </trkpt>
      <trkpt lat="43.1159113" lon="-2.7665052">
        <ele>136.4</ele>
        <time>2021-04-01T09:15:21.511Z</time>
      </trkpt>
      <trkpt lat="43.1159159" lon="-2.7665073">
        <ele>136.416</ele>
        <time>2021-04-01T09:15:21.563Z</time>
      </trkpt>
      <trkpt lat="43.1159207" lon="-2.7665094">
        <ele>136.411</ele>
        <time>2021-04-01T09:15:21.615Z</time>
      </trkpt>
      <trkpt lat="43.1159253" lon="-2.7665114">
        <ele>136.4</ele>
        <time>2021-04-01T09:15:21.667Z</time>
      </trkpt>
      <trkpt lat="43.1159299" lon="-2.7665138">
        <ele>136.385</ele>
        <time>2021-04-01T09:15:21.719Z</time>
      </trkpt>
      <trkpt lat="43.1159345" lon="-2.7665158">
        <ele>136.393</ele>
        <time>2021-04-01T09:15:21.771Z</time>
      </trkpt>
      <trkpt lat="43.1159391" lon="-2.7665179">
        <ele>136.391</ele>
        <time>2021-04-01T09:15:21.824Z</time>
      </trkpt>
      <trkpt lat="43.1159435" lon="-2.76652">
        <ele>136.38</ele>
        <time>2021-04-01T09:15:21.879Z</time>
      </trkpt>
      <trkpt lat="43.1159479" lon="-2.7665224">
        <ele>136.37</ele>
        <time>2021-04-01T09:15:21.934Z</time>
      </trkpt>
      <trkpt lat="43.1159522" lon="-2.7665248">
        <ele>136.357</ele>
        <time>2021-04-01T09:15:21.989Z</time>
      </trkpt>
      <trkpt lat="43.1159567" lon="-2.7665271">
        <ele>136.388</ele>
        <time>2021-04-01T09:15:22.044Z</time>
      </trkpt>
      <trkpt lat="43.1159611" lon="-2.7665292">
        <ele>136.374</ele>
        <time>2021-04-01T09:15:22.099Z</time>
      </trkpt>
      <trkpt lat="43.1159656" lon="-2.7665313">
        <ele>136.384</ele>
        <time>2021-04-01T09:15:22.154Z</time>
      </trkpt>
      <trkpt lat="43.1159701" lon="-2.766533">
        <ele>136.385</ele>
        <time>2021-04-01T09:15:22.209Z</time>
      </trkpt>
      <trkpt lat="43.1159745" lon="-2.766535">
        <ele>136.367</ele>
        <time>2021-04-01T09:15:22.264Z</time>
      </trkpt>
      <trkpt lat="43.1159792" lon="-2.7665365">
        <ele>136.454</ele>
        <time>2021-04-01T09:15:22.319Z</time>
      </trkpt>
      <trkpt lat="43.1159836" lon="-2.7665385">
        <ele>136.449</ele>
        <time>2021-04-01T09:15:22.374Z</time>
      </trkpt>
      <trkpt lat="43.1159881" lon="-2.7665405">
        <ele>136.406</ele>
        <time>2021-04-01T09:15:22.429Z</time>
      </trkpt>
      <trkpt lat="43.1159928" lon="-2.766542">
        <ele>136.423</ele>
        <time>2021-04-01T09:15:22.484Z</time>
      </trkpt>
      <trkpt lat="43.1159973" lon="-2.766544">
        <ele>136.413</ele>
        <time>2021-04-01T09:15:22.539Z</time>
      </trkpt>
      <trkpt lat="43.1160023" lon="-2.7665457">
        <ele>136.399</ele>
        <time>2021-04-01T09:15:22.594Z</time>
      </trkpt>
      <trkpt lat="43.1160071" lon="-2.7665473">
        <ele>136.398</ele>
        <time>2021-04-01T09:15:22.649Z</time>
      </trkpt>
      <trkpt lat="43.1160115" lon="-2.7665492">
        <ele>136.376</ele>
        <time>2021-04-01T09:15:22.704Z</time>
      </trkpt>
      <trkpt lat="43.1160162" lon="-2.7665512">
        <ele>136.299</ele>
        <time>2021-04-01T09:15:22.759Z</time>
      </trkpt>
      <trkpt lat="43.1160209" lon="-2.7665536">
        <ele>136.285</ele>
        <time>2021-04-01T09:15:22.814Z</time>
      </trkpt>
      <trkpt lat="43.1160256" lon="-2.7665558">
        <ele>136.261</ele>
        <time>2021-04-01T09:15:22.872Z</time>
      </trkpt>
      <trkpt lat="43.1160304" lon="-2.7665578">
        <ele>136.251</ele>
        <time>2021-04-01T09:15:22.930Z</time>
      </trkpt>
      <trkpt lat="43.1160347" lon="-2.7665604">
        <ele>136.261</ele>
        <time>2021-04-01T09:15:22.988Z</time>
      </trkpt>
      <trkpt lat="43.1160393" lon="-2.7665627">
        <ele>136.214</ele>
        <time>2021-04-01T09:15:23.046Z</time>
      </trkpt>
      <trkpt lat="43.116044" lon="-2.7665653">
        <ele>136.193</ele>
        <time>2021-04-01T09:15:23.104Z</time>
      </trkpt>
      <trkpt lat="43.1160487" lon="-2.7665679">
        <ele>136.154</ele>
        <time>2021-04-01T09:15:23.162Z</time>
      </trkpt>
      <trkpt lat="43.1160535" lon="-2.7665704">
        <ele>136.132</ele>
        <time>2021-04-01T09:15:23.220Z</time>
      </trkpt>
      <trkpt lat="43.116058" lon="-2.7665729">
        <ele>136.118</ele>
        <time>2021-04-01T09:15:23.278Z</time>
      </trkpt>
      <trkpt lat="43.1160627" lon="-2.7665753">
        <ele>136.096</ele>
        <time>2021-04-01T09:15:23.336Z</time>
      </trkpt>
      <trkpt lat="43.1160675" lon="-2.7665778">
        <ele>136.08</ele>
        <time>2021-04-01T09:15:23.394Z</time>
      </trkpt>
      <trkpt lat="43.116072" lon="-2.7665804">
        <ele>136.067</ele>
        <time>2021-04-01T09:15:23.452Z</time>
      </trkpt>
      <trkpt lat="43.1160767" lon="-2.7665828">
        <ele>136.049</ele>
        <time>2021-04-01T09:15:23.510Z</time>
      </trkpt>
      <trkpt lat="43.1160813" lon="-2.7665856">
        <ele>136.023</ele>
        <time>2021-04-01T09:15:23.568Z</time>
      </trkpt>
      <trkpt lat="43.1160858" lon="-2.7665882">
        <ele>136.022</ele>
        <time>2021-04-01T09:15:23.626Z</time>
      </trkpt>
      <trkpt lat="43.1160901" lon="-2.7665904">
        <ele>136.018</ele>
        <time>2021-04-01T09:15:23.684Z</time>
      </trkpt>
      <trkpt lat="43.1160945" lon="-2.7665926">
        <ele>136.003</ele>
        <time>2021-04-01T09:15:23.742Z</time>
      </trkpt>
      <trkpt lat="43.1160988" lon="-2.7665946">
        <ele>136.01</ele>
        <time>2021-04-01T09:15:23.800Z</time>
      </trkpt>
      <trkpt lat="43.1161035" lon="-2.766596">
        <ele>135.986</ele>
        <time>2021-04-01T09:15:23.859Z</time>
      </trkpt>
      <trkpt lat="43.1161077" lon="-2.7665979">
        <ele>136.018</ele>
        <time>2021-04-01T09:15:23.914Z</time>
      </trkpt>
      <trkpt lat="43.1161121" lon="-2.7665999">
        <ele>136.029</ele>
        <time>2021-04-01T09:15:23.969Z</time>
      </trkpt>
      <trkpt lat="43.1161165" lon="-2.7666021">
        <ele>136.043</ele>
        <time>2021-04-01T09:15:24.024Z</time>
      </trkpt>
      <trkpt lat="43.1161207" lon="-2.7666038">
        <ele>136.078</ele>
        <time>2021-04-01T09:15:24.079Z</time>
      </trkpt>
      <trkpt lat="43.1161252" lon="-2.7666057">
        <ele>136.087</ele>
        <time>2021-04-01T09:15:24.134Z</time>
      </trkpt>
      <trkpt lat="43.1161296" lon="-2.7666075">
        <ele>136.074</ele>
        <time>2021-04-01T09:15:24.189Z</time>
      </trkpt>
      <trkpt lat="43.1161338" lon="-2.7666094">
        <ele>136.074</ele>
        <time>2021-04-01T09:15:24.244Z</time>
      </trkpt>
      <trkpt lat="43.1161384" lon="-2.7666115">
        <ele>136.05</ele>
        <time>2021-04-01T09:15:24.299Z</time>
      </trkpt>
      <trkpt lat="43.1161429" lon="-2.7666136">
        <ele>136.018</ele>
        <time>2021-04-01T09:15:24.354Z</time>
      </trkpt>
      <trkpt lat="43.1161475" lon="-2.7666153">
        <ele>136.024</ele>
        <time>2021-04-01T09:15:24.409Z</time>
      </trkpt>
      <trkpt lat="43.1161517" lon="-2.7666174">
        <ele>136.046</ele>
        <time>2021-04-01T09:15:24.464Z</time>
      </trkpt>
      <trkpt lat="43.1161563" lon="-2.7666194">
        <ele>136.041</ele>
        <time>2021-04-01T09:15:24.519Z</time>
      </trkpt>
      <trkpt lat="43.1161608" lon="-2.7666217">
        <ele>136.033</ele>
        <time>2021-04-01T09:15:24.574Z</time>
      </trkpt>
      <trkpt lat="43.1161652" lon="-2.766624">
        <ele>136.009</ele>
        <time>2021-04-01T09:15:24.629Z</time>
      </trkpt>
      <trkpt lat="43.11617" lon="-2.7666254">
        <ele>136.035</ele>
        <time>2021-04-01T09:15:24.684Z</time>
      </trkpt>
      <trkpt lat="43.1161745" lon="-2.7666273">
        <ele>136.055</ele>
        <time>2021-04-01T09:15:24.739Z</time>
      </trkpt>
      <trkpt lat="43.1161792" lon="-2.7666291">
        <ele>136.077</ele>
        <time>2021-04-01T09:15:24.794Z</time>
      </trkpt>
      <trkpt lat="43.1161838" lon="-2.7666309">
        <ele>136.038</ele>
        <time>2021-04-01T09:15:24.849Z</time>
      </trkpt>
      <trkpt lat="43.116188" lon="-2.766633">
        <ele>135.991</ele>
        <time>2021-04-01T09:15:24.904Z</time>
      </trkpt>
      <trkpt lat="43.116192" lon="-2.7666353">
        <ele>135.977</ele>
        <time>2021-04-01T09:15:24.959Z</time>
      </trkpt>
      <trkpt lat="43.1161965" lon="-2.7666372">
        <ele>135.97</ele>
        <time>2021-04-01T09:15:25.014Z</time>
      </trkpt>
      <trkpt lat="43.1162009" lon="-2.7666393">
        <ele>135.967</ele>
        <time>2021-04-01T09:15:25.069Z</time>
      </trkpt>
      <trkpt lat="43.1162052" lon="-2.7666419">
        <ele>135.986</ele>
        <time>2021-04-01T09:15:25.124Z</time>
      </trkpt>
      <trkpt lat="43.1162094" lon="-2.766644">
        <ele>135.935</ele>
        <time>2021-04-01T09:15:25.179Z</time>
      </trkpt>
      <trkpt lat="43.1162137" lon="-2.766646">
        <ele>135.941</ele>
        <time>2021-04-01T09:15:25.234Z</time>
      </trkpt>
      <trkpt lat="43.1162181" lon="-2.7666479">
        <ele>135.998</ele>
        <time>2021-04-01T09:15:25.289Z</time>
      </trkpt>
      <trkpt lat="43.1162222" lon="-2.76665">
        <ele>135.913</ele>
        <time>2021-04-01T09:15:25.344Z</time>
      </trkpt>
      <trkpt lat="43.1162259" lon="-2.766652">
        <ele>135.779</ele>
        <time>2021-04-01T09:15:25.399Z</time>
      </trkpt>
      <trkpt lat="43.1162296" lon="-2.7666535">
        <ele>135.696</ele>
        <time>2021-04-01T09:15:25.454Z</time>
      </trkpt>
      <trkpt lat="43.1162339" lon="-2.7666552">
        <ele>135.705</ele>
        <time>2021-04-01T09:15:25.509Z</time>
      </trkpt>
      <trkpt lat="43.1162376" lon="-2.7666572">
        <ele>135.692</ele>
        <time>2021-04-01T09:15:25.564Z</time>
      </trkpt>
      <trkpt lat="43.1162417" lon="-2.7666592">
        <ele>135.604</ele>
        <time>2021-04-01T09:15:25.619Z</time>
      </trkpt>
      <trkpt lat="43.1162457" lon="-2.7666606">
        <ele>135.53</ele>
        <time>2021-04-01T09:15:25.674Z</time>
      </trkpt>
      <trkpt lat="43.1162496" lon="-2.7666624">
        <ele>135.488</ele>
        <time>2021-04-01T09:15:25.729Z</time>
      </trkpt>
      <trkpt lat="43.1162534" lon="-2.7666647">
        <ele>135.48</ele>
        <time>2021-04-01T09:15:25.784Z</time>
      </trkpt>
      <trkpt lat="43.1162573" lon="-2.7666669">
        <ele>135.457</ele>
        <time>2021-04-01T09:15:25.839Z</time>
      </trkpt>
      <trkpt lat="43.1162613" lon="-2.7666687">
        <ele>135.454</ele>
        <time>2021-04-01T09:15:25.894Z</time>
      </trkpt>
      <trkpt lat="43.1162656" lon="-2.7666707">
        <ele>135.429</ele>
        <time>2021-04-01T09:15:25.949Z</time>
      </trkpt>
      <trkpt lat="43.1162696" lon="-2.7666725">
        <ele>135.429</ele>
        <time>2021-04-01T09:15:26.004Z</time>
      </trkpt>
      <trkpt lat="43.1162737" lon="-2.7666743">
        <ele>135.406</ele>
        <time>2021-04-01T09:15:26.059Z</time>
      </trkpt>
      <trkpt lat="43.1162781" lon="-2.7666758">
        <ele>135.382</ele>
        <time>2021-04-01T09:15:26.114Z</time>
      </trkpt>
      <trkpt lat="43.1162819" lon="-2.7666778">
        <ele>135.337</ele>
        <time>2021-04-01T09:15:26.169Z</time>
      </trkpt>
      <trkpt lat="43.116286" lon="-2.7666796">
        <ele>135.307</ele>
        <time>2021-04-01T09:15:26.224Z</time>
      </trkpt>
      <trkpt lat="43.1162902" lon="-2.7666816">
        <ele>135.298</ele>
        <time>2021-04-01T09:15:26.279Z</time>
      </trkpt>
      <trkpt lat="43.1162947" lon="-2.7666835">
        <ele>135.287</ele>
        <time>2021-04-01T09:15:26.334Z</time>
      </trkpt>
      <trkpt lat="43.116299" lon="-2.7666853">
        <ele>135.274</ele>
        <time>2021-04-01T09:15:26.389Z</time>
      </trkpt>
      <trkpt lat="43.1163032" lon="-2.7666876">
        <ele>135.282</ele>
        <time>2021-04-01T09:15:26.444Z</time>
      </trkpt>
      <trkpt lat="43.1163073" lon="-2.7666901">
        <ele>135.278</ele>
        <time>2021-04-01T09:15:26.499Z</time>
      </trkpt>
      <trkpt lat="43.1163116" lon="-2.7666918">
        <ele>135.221</ele>
        <time>2021-04-01T09:15:26.554Z</time>
      </trkpt>
      <trkpt lat="43.1163158" lon="-2.7666938">
        <ele>135.236</ele>
        <time>2021-04-01T09:15:26.609Z</time>
      </trkpt>
      <trkpt lat="43.1163199" lon="-2.7666955">
        <ele>135.242</ele>
        <time>2021-04-01T09:15:26.664Z</time>
      </trkpt>
      <trkpt lat="43.116324" lon="-2.7666977">
        <ele>135.228</ele>
        <time>2021-04-01T09:15:26.719Z</time>
      </trkpt>
      <trkpt lat="43.1163284" lon="-2.7666998">
        <ele>135.23</ele>
        <time>2021-04-01T09:15:26.774Z</time>
      </trkpt>
      <trkpt lat="43.1163327" lon="-2.7667019">
        <ele>135.234</ele>
        <time>2021-04-01T09:15:26.829Z</time>
      </trkpt>
      <trkpt lat="43.1163369" lon="-2.7667038">
        <ele>135.231</ele>
        <time>2021-04-01T09:15:26.884Z</time>
      </trkpt>
      <trkpt lat="43.1163413" lon="-2.7667058">
        <ele>135.185</ele>
        <time>2021-04-01T09:15:26.939Z</time>
      </trkpt>
      <trkpt lat="43.1163456" lon="-2.7667079">
        <ele>135.16</ele>
        <time>2021-04-01T09:15:26.994Z</time>
      </trkpt>
      <trkpt lat="43.1163498" lon="-2.7667099">
        <ele>135.19</ele>
        <time>2021-04-01T09:15:27.049Z</time>
      </trkpt>
      <trkpt lat="43.1163541" lon="-2.7667122">
        <ele>135.207</ele>
        <time>2021-04-01T09:15:27.104Z</time>
      </trkpt>
      <trkpt lat="43.1163584" lon="-2.7667141">
        <ele>135.182</ele>
        <time>2021-04-01T09:15:27.159Z</time>
      </trkpt>
      <trkpt lat="43.1163625" lon="-2.766716">
        <ele>135.164</ele>
        <time>2021-04-01T09:15:27.214Z</time>
      </trkpt>
      <trkpt lat="43.1163667" lon="-2.7667181">
        <ele>135.183</ele>
        <time>2021-04-01T09:15:27.269Z</time>
      </trkpt>
      <trkpt lat="43.1163709" lon="-2.7667203">
        <ele>135.157</ele>
        <time>2021-04-01T09:15:27.324Z</time>
      </trkpt>
      <trkpt lat="43.1163751" lon="-2.7667224">
        <ele>135.16</ele>
        <time>2021-04-01T09:15:27.379Z</time>
      </trkpt>
      <trkpt lat="43.1163795" lon="-2.7667245">
        <ele>135.155</ele>
        <time>2021-04-01T09:15:27.434Z</time>
      </trkpt>
      <trkpt lat="43.1163837" lon="-2.7667265">
        <ele>135.13</ele>
        <time>2021-04-01T09:15:27.489Z</time>
      </trkpt>
      <trkpt lat="43.1163877" lon="-2.7667288">
        <ele>135.1</ele>
        <time>2021-04-01T09:15:27.544Z</time>
      </trkpt>
      <trkpt lat="43.116392" lon="-2.7667308">
        <ele>135.135</ele>
        <time>2021-04-01T09:15:27.599Z</time>
      </trkpt>
      <trkpt lat="43.1163961" lon="-2.7667327">
        <ele>135.129</ele>
        <time>2021-04-01T09:15:27.654Z</time>
      </trkpt>
      <trkpt lat="43.1164003" lon="-2.7667347">
        <ele>135.131</ele>
        <time>2021-04-01T09:15:27.709Z</time>
      </trkpt>
      <trkpt lat="43.1164046" lon="-2.7667367">
        <ele>135.141</ele>
        <time>2021-04-01T09:15:27.764Z</time>
      </trkpt>
      <trkpt lat="43.1164086" lon="-2.7667387">
        <ele>135.128</ele>
        <time>2021-04-01T09:15:27.819Z</time>
      </trkpt>
      <trkpt lat="43.1164127" lon="-2.7667407">
        <ele>135.134</ele>
        <time>2021-04-01T09:15:27.874Z</time>
      </trkpt>
      <trkpt lat="43.1164169" lon="-2.7667429">
        <ele>135.134</ele>
        <time>2021-04-01T09:15:27.929Z</time>
      </trkpt>
      <trkpt lat="43.1164209" lon="-2.7667446">
        <ele>135.161</ele>
        <time>2021-04-01T09:15:27.984Z</time>
      </trkpt>
      <trkpt lat="43.116425" lon="-2.7667469">
        <ele>135.167</ele>
        <time>2021-04-01T09:15:28.039Z</time>
      </trkpt>
      <trkpt lat="43.1164292" lon="-2.7667491">
        <ele>135.152</ele>
        <time>2021-04-01T09:15:28.094Z</time>
      </trkpt>
      <trkpt lat="43.1164336" lon="-2.7667509">
        <ele>135.174</ele>
        <time>2021-04-01T09:15:28.149Z</time>
      </trkpt>
      <trkpt lat="43.1164377" lon="-2.7667527">
        <ele>135.159</ele>
        <time>2021-04-01T09:15:28.204Z</time>
      </trkpt>
      <trkpt lat="43.116442" lon="-2.7667547">
        <ele>135.137</ele>
        <time>2021-04-01T09:15:28.259Z</time>
      </trkpt>
      <trkpt lat="43.1164462" lon="-2.7667571">
        <ele>135.145</ele>
        <time>2021-04-01T09:15:28.314Z</time>
      </trkpt>
      <trkpt lat="43.1164503" lon="-2.7667595">
        <ele>135.163</ele>
        <time>2021-04-01T09:15:28.369Z</time>
      </trkpt>
      <trkpt lat="43.1164543" lon="-2.7667615">
        <ele>135.192</ele>
        <time>2021-04-01T09:15:28.424Z</time>
      </trkpt>
      <trkpt lat="43.1164583" lon="-2.7667635">
        <ele>135.181</ele>
        <time>2021-04-01T09:15:28.479Z</time>
      </trkpt>
      <trkpt lat="43.1164621" lon="-2.7667655">
        <ele>135.155</ele>
        <time>2021-04-01T09:15:28.534Z</time>
      </trkpt>
      <trkpt lat="43.1164661" lon="-2.7667675">
        <ele>135.154</ele>
        <time>2021-04-01T09:15:28.589Z</time>
      </trkpt>
      <trkpt lat="43.1164704" lon="-2.7667696">
        <ele>135.113</ele>
        <time>2021-04-01T09:15:28.644Z</time>
      </trkpt>
      <trkpt lat="43.1164747" lon="-2.7667712">
        <ele>135.03</ele>
        <time>2021-04-01T09:15:28.699Z</time>
      </trkpt>
      <trkpt lat="43.1164786" lon="-2.7667732">
        <ele>135.009</ele>
        <time>2021-04-01T09:15:28.754Z</time>
      </trkpt>
      <trkpt lat="43.1164827" lon="-2.7667753">
        <ele>135.016</ele>
        <time>2021-04-01T09:15:28.809Z</time>
      </trkpt>
      <trkpt lat="43.1164867" lon="-2.7667776">
        <ele>135.002</ele>
        <time>2021-04-01T09:15:28.864Z</time>
      </trkpt>
      <trkpt lat="43.1164908" lon="-2.7667796">
        <ele>134.997</ele>
        <time>2021-04-01T09:15:28.919Z</time>
      </trkpt>
      <trkpt lat="43.1164948" lon="-2.7667815">
        <ele>135.034</ele>
        <time>2021-04-01T09:15:28.974Z</time>
      </trkpt>
      <trkpt lat="43.1164989" lon="-2.7667833">
        <ele>135.038</ele>
        <time>2021-04-01T09:15:29.029Z</time>
      </trkpt>
      <trkpt lat="43.1165028" lon="-2.766785">
        <ele>135.029</ele>
        <time>2021-04-01T09:15:29.084Z</time>
      </trkpt>
      <trkpt lat="43.1165069" lon="-2.7667865">
        <ele>134.985</ele>
        <time>2021-04-01T09:15:29.139Z</time>
      </trkpt>
      <trkpt lat="43.116511" lon="-2.7667885">
        <ele>134.973</ele>
        <time>2021-04-01T09:15:29.194Z</time>
      </trkpt>
      <trkpt lat="43.1165148" lon="-2.7667907">
        <ele>134.974</ele>
        <time>2021-04-01T09:15:29.249Z</time>
      </trkpt>
      <trkpt lat="43.116519" lon="-2.7667929">
        <ele>134.985</ele>
        <time>2021-04-01T09:15:29.304Z</time>
      </trkpt>
      <trkpt lat="43.1165231" lon="-2.7667951">
        <ele>134.994</ele>
        <time>2021-04-01T09:15:29.359Z</time>
      </trkpt>
      <trkpt lat="43.1165271" lon="-2.7667972">
        <ele>134.99</ele>
        <time>2021-04-01T09:15:29.414Z</time>
      </trkpt>
      <trkpt lat="43.116531" lon="-2.766799">
        <ele>134.962</ele>
        <time>2021-04-01T09:15:29.469Z</time>
      </trkpt>
      <trkpt lat="43.1165349" lon="-2.7668009">
        <ele>134.936</ele>
        <time>2021-04-01T09:15:29.524Z</time>
      </trkpt>
      <trkpt lat="43.1165389" lon="-2.7668028">
        <ele>134.927</ele>
        <time>2021-04-01T09:15:29.579Z</time>
      </trkpt>
      <trkpt lat="43.1165431" lon="-2.7668048">
        <ele>134.918</ele>
        <time>2021-04-01T09:15:29.634Z</time>
      </trkpt>
      <trkpt lat="43.1165472" lon="-2.7668072">
        <ele>134.914</ele>
        <time>2021-04-01T09:15:29.689Z</time>
      </trkpt>
      <trkpt lat="43.1165511" lon="-2.7668092">
        <ele>134.938</ele>
        <time>2021-04-01T09:15:29.744Z</time>
      </trkpt>
      <trkpt lat="43.1165552" lon="-2.7668111">
        <ele>134.916</ele>
        <time>2021-04-01T09:15:29.799Z</time>
      </trkpt>
      <trkpt lat="43.1165591" lon="-2.7668132">
        <ele>134.898</ele>
        <time>2021-04-01T09:15:29.854Z</time>
      </trkpt>
      <trkpt lat="43.1165631" lon="-2.766815">
        <ele>134.887</ele>
        <time>2021-04-01T09:15:29.909Z</time>
      </trkpt>
      <trkpt lat="43.116567" lon="-2.7668172">
        <ele>134.873</ele>
        <time>2021-04-01T09:15:29.964Z</time>
      </trkpt>
      <trkpt lat="43.1165712" lon="-2.7668193">
        <ele>134.862</ele>
        <time>2021-04-01T09:15:30.019Z</time>
      </trkpt>
      <trkpt lat="43.1165754" lon="-2.7668215">
        <ele>134.872</ele>
        <time>2021-04-01T09:15:30.074Z</time>
      </trkpt>
      <trkpt lat="43.1165795" lon="-2.7668235">
        <ele>134.878</ele>
        <time>2021-04-01T09:15:30.129Z</time>
      </trkpt>
      <trkpt lat="43.1165834" lon="-2.7668252">
        <ele>134.862</ele>
        <time>2021-04-01T09:15:30.184Z</time>
      </trkpt>
      <trkpt lat="43.1165875" lon="-2.7668268">
        <ele>134.838</ele>
        <time>2021-04-01T09:15:30.239Z</time>
      </trkpt>
      <trkpt lat="43.1165916" lon="-2.766829">
        <ele>134.848</ele>
        <time>2021-04-01T09:15:30.294Z</time>
      </trkpt>
      <trkpt lat="43.1165955" lon="-2.7668304">
        <ele>134.779</ele>
        <time>2021-04-01T09:15:30.349Z</time>
      </trkpt>
      <trkpt lat="43.1165996" lon="-2.766832">
        <ele>134.736</ele>
        <time>2021-04-01T09:15:30.404Z</time>
      </trkpt>
      <trkpt lat="43.1166035" lon="-2.7668339">
        <ele>134.733</ele>
        <time>2021-04-01T09:15:30.459Z</time>
      </trkpt>
      <trkpt lat="43.1166074" lon="-2.766836">
        <ele>134.717</ele>
        <time>2021-04-01T09:15:30.514Z</time>
      </trkpt>
      <trkpt lat="43.1166114" lon="-2.7668379">
        <ele>134.745</ele>
        <time>2021-04-01T09:15:30.569Z</time>
      </trkpt>
      <trkpt lat="43.1166155" lon="-2.7668398">
        <ele>134.736</ele>
        <time>2021-04-01T09:15:30.624Z</time>
      </trkpt>
      <trkpt lat="43.1166196" lon="-2.7668418">
        <ele>134.74</ele>
        <time>2021-04-01T09:15:30.679Z</time>
      </trkpt>
      <trkpt lat="43.1166237" lon="-2.766844">
        <ele>134.717</ele>
        <time>2021-04-01T09:15:30.734Z</time>
      </trkpt>
      <trkpt lat="43.1166277" lon="-2.7668461">
        <ele>134.704</ele>
        <time>2021-04-01T09:15:30.789Z</time>
      </trkpt>
      <trkpt lat="43.1166316" lon="-2.7668482">
        <ele>134.691</ele>
        <time>2021-04-01T09:15:30.844Z</time>
      </trkpt>
      <trkpt lat="43.1166357" lon="-2.7668502">
        <ele>134.695</ele>
        <time>2021-04-01T09:15:30.896Z</time>
      </trkpt>
      <trkpt lat="43.1166398" lon="-2.7668527">
        <ele>134.715</ele>
        <time>2021-04-01T09:15:30.948Z</time>
      </trkpt>
      <trkpt lat="43.1166439" lon="-2.7668552">
        <ele>134.761</ele>
        <time>2021-04-01T09:15:31.000Z</time>
      </trkpt>
      <trkpt lat="43.1166479" lon="-2.7668573">
        <ele>134.782</ele>
        <time>2021-04-01T09:15:31.052Z</time>
      </trkpt>
      <trkpt lat="43.1166518" lon="-2.766859">
        <ele>134.718</ele>
        <time>2021-04-01T09:15:31.104Z</time>
      </trkpt>
      <trkpt lat="43.1166558" lon="-2.7668607">
        <ele>134.674</ele>
        <time>2021-04-01T09:15:31.156Z</time>
      </trkpt>
      <trkpt lat="43.1166602" lon="-2.7668627">
        <ele>134.666</ele>
        <time>2021-04-01T09:15:31.208Z</time>
      </trkpt>
      <trkpt lat="43.1166642" lon="-2.7668649">
        <ele>134.688</ele>
        <time>2021-04-01T09:15:31.260Z</time>
      </trkpt>
      <trkpt lat="43.1166682" lon="-2.7668668">
        <ele>134.688</ele>
        <time>2021-04-01T09:15:31.312Z</time>
      </trkpt>
      <trkpt lat="43.1166724" lon="-2.7668688">
        <ele>134.712</ele>
        <time>2021-04-01T09:15:31.365Z</time>
      </trkpt>
      <trkpt lat="43.1166765" lon="-2.7668708">
        <ele>134.677</ele>
        <time>2021-04-01T09:15:31.417Z</time>
      </trkpt>
      <trkpt lat="43.1166805" lon="-2.7668726">
        <ele>134.662</ele>
        <time>2021-04-01T09:15:31.469Z</time>
      </trkpt>
      <trkpt lat="43.1166847" lon="-2.7668746">
        <ele>134.69</ele>
        <time>2021-04-01T09:15:31.521Z</time>
      </trkpt>
      <trkpt lat="43.1166888" lon="-2.7668763">
        <ele>134.66</ele>
        <time>2021-04-01T09:15:31.573Z</time>
      </trkpt>
      <trkpt lat="43.1166929" lon="-2.7668781">
        <ele>134.654</ele>
        <time>2021-04-01T09:15:31.625Z</time>
      </trkpt>
      <trkpt lat="43.116697" lon="-2.7668796">
        <ele>134.664</ele>
        <time>2021-04-01T09:15:31.677Z</time>
      </trkpt>
      <trkpt lat="43.1167009" lon="-2.7668812">
        <ele>134.659</ele>
        <time>2021-04-01T09:15:31.729Z</time>
      </trkpt>
      <trkpt lat="43.116705" lon="-2.7668833">
        <ele>134.657</ele>
        <time>2021-04-01T09:15:31.781Z</time>
      </trkpt>
      <trkpt lat="43.1167089" lon="-2.7668855">
        <ele>134.684</ele>
        <time>2021-04-01T09:15:31.834Z</time>
      </trkpt>
      <trkpt lat="43.1167127" lon="-2.7668878">
        <ele>134.72</ele>
        <time>2021-04-01T09:15:31.892Z</time>
      </trkpt>
      <trkpt lat="43.1167167" lon="-2.7668899">
        <ele>134.735</ele>
        <time>2021-04-01T09:15:31.950Z</time>
      </trkpt>
      <trkpt lat="43.1167208" lon="-2.7668918">
        <ele>134.715</ele>
        <time>2021-04-01T09:15:32.008Z</time>
      </trkpt>
      <trkpt lat="43.1167249" lon="-2.7668934">
        <ele>134.683</ele>
        <time>2021-04-01T09:15:32.066Z</time>
      </trkpt>
      <trkpt lat="43.1167288" lon="-2.7668953">
        <ele>134.688</ele>
        <time>2021-04-01T09:15:32.124Z</time>
      </trkpt>
      <trkpt lat="43.1167328" lon="-2.7668973">
        <ele>134.7</ele>
        <time>2021-04-01T09:15:32.182Z</time>
      </trkpt>
      <trkpt lat="43.1167368" lon="-2.7668995">
        <ele>134.686</ele>
        <time>2021-04-01T09:15:32.240Z</time>
      </trkpt>
      <trkpt lat="43.1167408" lon="-2.7669018">
        <ele>134.656</ele>
        <time>2021-04-01T09:15:32.298Z</time>
      </trkpt>
      <trkpt lat="43.1167449" lon="-2.766904">
        <ele>134.618</ele>
        <time>2021-04-01T09:15:32.356Z</time>
      </trkpt>
      <trkpt lat="43.1167491" lon="-2.7669062">
        <ele>134.632</ele>
        <time>2021-04-01T09:15:32.414Z</time>
      </trkpt>
      <trkpt lat="43.1167531" lon="-2.7669083">
        <ele>134.657</ele>
        <time>2021-04-01T09:15:32.472Z</time>
      </trkpt>
      <trkpt lat="43.116757" lon="-2.7669102">
        <ele>134.621</ele>
        <time>2021-04-01T09:15:32.530Z</time>
      </trkpt>
      <trkpt lat="43.1167612" lon="-2.7669122">
        <ele>134.618</ele>
        <time>2021-04-01T09:15:32.588Z</time>
      </trkpt>
      <trkpt lat="43.1167652" lon="-2.766914">
        <ele>134.607</ele>
        <time>2021-04-01T09:15:32.646Z</time>
      </trkpt>
      <trkpt lat="43.1167692" lon="-2.7669159">
        <ele>134.612</ele>
        <time>2021-04-01T09:15:32.704Z</time>
      </trkpt>
      <trkpt lat="43.1167732" lon="-2.7669178">
        <ele>134.595</ele>
        <time>2021-04-01T09:15:32.762Z</time>
      </trkpt>
      <trkpt lat="43.1167775" lon="-2.76692">
        <ele>134.582</ele>
        <time>2021-04-01T09:15:32.820Z</time>
      </trkpt>
      <trkpt lat="43.1167816" lon="-2.7669216">
        <ele>134.555</ele>
        <time>2021-04-01T09:15:32.879Z</time>
      </trkpt>
      <trkpt lat="43.1167857" lon="-2.7669232">
        <ele>134.545</ele>
        <time>2021-04-01T09:15:32.937Z</time>
      </trkpt>
      <trkpt lat="43.1167897" lon="-2.7669249">
        <ele>134.533</ele>
        <time>2021-04-01T09:15:32.995Z</time>
      </trkpt>
      <trkpt lat="43.1167938" lon="-2.7669268">
        <ele>134.562</ele>
        <time>2021-04-01T09:15:33.053Z</time>
      </trkpt>
      <trkpt lat="43.1167978" lon="-2.7669289">
        <ele>134.569</ele>
        <time>2021-04-01T09:15:33.111Z</time>
      </trkpt>
      <trkpt lat="43.1168019" lon="-2.7669308">
        <ele>134.592</ele>
        <time>2021-04-01T09:15:33.170Z</time>
      </trkpt>
      <trkpt lat="43.1168057" lon="-2.766933">
        <ele>134.59</ele>
        <time>2021-04-01T09:15:33.228Z</time>
      </trkpt>
      <trkpt lat="43.1168097" lon="-2.7669353">
        <ele>134.592</ele>
        <time>2021-04-01T09:15:33.286Z</time>
      </trkpt>
      <trkpt lat="43.1168137" lon="-2.7669372">
        <ele>134.615</ele>
        <time>2021-04-01T09:15:33.344Z</time>
      </trkpt>
      <trkpt lat="43.1168177" lon="-2.7669389">
        <ele>134.633</ele>
        <time>2021-04-01T09:15:33.403Z</time>
      </trkpt>
      <trkpt lat="43.1168217" lon="-2.7669409">
        <ele>134.628</ele>
        <time>2021-04-01T09:15:33.461Z</time>
      </trkpt>
      <trkpt lat="43.1168258" lon="-2.7669431">
        <ele>134.598</ele>
        <time>2021-04-01T09:15:33.519Z</time>
      </trkpt>
      <trkpt lat="43.1168297" lon="-2.7669451">
        <ele>134.538</ele>
        <time>2021-04-01T09:15:33.577Z</time>
      </trkpt>
      <trkpt lat="43.1168338" lon="-2.7669473">
        <ele>134.523</ele>
        <time>2021-04-01T09:15:33.636Z</time>
      </trkpt>
      <trkpt lat="43.1168379" lon="-2.7669497">
        <ele>134.487</ele>
        <time>2021-04-01T09:15:33.694Z</time>
      </trkpt>
      <trkpt lat="43.1168421" lon="-2.7669519">
        <ele>134.461</ele>
        <time>2021-04-01T09:15:33.752Z</time>
      </trkpt>
      <trkpt lat="43.116846" lon="-2.766954">
        <ele>134.436</ele>
        <time>2021-04-01T09:15:33.810Z</time>
      </trkpt>
      <trkpt lat="43.11685" lon="-2.7669559">
        <ele>134.406</ele>
        <time>2021-04-01T09:15:33.869Z</time>
      </trkpt>
      <trkpt lat="43.116854" lon="-2.7669579">
        <ele>134.383</ele>
        <time>2021-04-01T09:15:33.921Z</time>
      </trkpt>
      <trkpt lat="43.116858" lon="-2.7669599">
        <ele>134.367</ele>
        <time>2021-04-01T09:15:33.973Z</time>
      </trkpt>
      <trkpt lat="43.1168619" lon="-2.7669616">
        <ele>134.359</ele>
        <time>2021-04-01T09:15:34.025Z</time>
      </trkpt>
      <trkpt lat="43.1168657" lon="-2.7669634">
        <ele>134.336</ele>
        <time>2021-04-01T09:15:34.077Z</time>
      </trkpt>
      <trkpt lat="43.1168695" lon="-2.7669651">
        <ele>134.293</ele>
        <time>2021-04-01T09:15:34.129Z</time>
      </trkpt>
      <trkpt lat="43.1168735" lon="-2.7669668">
        <ele>134.247</ele>
        <time>2021-04-01T09:15:34.181Z</time>
      </trkpt>
      <trkpt lat="43.1168774" lon="-2.7669687">
        <ele>134.24</ele>
        <time>2021-04-01T09:15:34.233Z</time>
      </trkpt>
      <trkpt lat="43.1168812" lon="-2.7669707">
        <ele>134.249</ele>
        <time>2021-04-01T09:15:34.285Z</time>
      </trkpt>
      <trkpt lat="43.1168852" lon="-2.7669725">
        <ele>134.27</ele>
        <time>2021-04-01T09:15:34.337Z</time>
      </trkpt>
      <trkpt lat="43.1168892" lon="-2.7669743">
        <ele>134.286</ele>
        <time>2021-04-01T09:15:34.390Z</time>
      </trkpt>
      <trkpt lat="43.116893" lon="-2.7669759">
        <ele>134.29</ele>
        <time>2021-04-01T09:15:34.442Z</time>
      </trkpt>
      <trkpt lat="43.1168968" lon="-2.7669776">
        <ele>134.309</ele>
        <time>2021-04-01T09:15:34.494Z</time>
      </trkpt>
      <trkpt lat="43.1169005" lon="-2.7669794">
        <ele>134.328</ele>
        <time>2021-04-01T09:15:34.546Z</time>
      </trkpt>
      <trkpt lat="43.1169042" lon="-2.7669812">
        <ele>134.323</ele>
        <time>2021-04-01T09:15:34.598Z</time>
      </trkpt>
      <trkpt lat="43.116908" lon="-2.7669828">
        <ele>134.318</ele>
        <time>2021-04-01T09:15:34.650Z</time>
      </trkpt>
      <trkpt lat="43.1169117" lon="-2.7669842">
        <ele>134.361</ele>
        <time>2021-04-01T09:15:34.702Z</time>
      </trkpt>
      <trkpt lat="43.1169155" lon="-2.7669861">
        <ele>134.384</ele>
        <time>2021-04-01T09:15:34.754Z</time>
      </trkpt>
      <trkpt lat="43.1169194" lon="-2.766988">
        <ele>134.425</ele>
        <time>2021-04-01T09:15:34.806Z</time>
      </trkpt>
      <trkpt lat="43.1169233" lon="-2.7669898">
        <ele>134.454</ele>
        <time>2021-04-01T09:15:34.859Z</time>
      </trkpt>
      <trkpt lat="43.1169274" lon="-2.7669915">
        <ele>134.503</ele>
        <time>2021-04-01T09:15:34.914Z</time>
      </trkpt>
      <trkpt lat="43.1169312" lon="-2.7669932">
        <ele>134.492</ele>
        <time>2021-04-01T09:15:34.969Z</time>
      </trkpt>
      <trkpt lat="43.1169347" lon="-2.7669949">
        <ele>134.461</ele>
        <time>2021-04-01T09:15:35.024Z</time>
      </trkpt>
      <trkpt lat="43.1169384" lon="-2.7669966">
        <ele>134.459</ele>
        <time>2021-04-01T09:15:35.079Z</time>
      </trkpt>
      <trkpt lat="43.1169419" lon="-2.766998">
        <ele>134.408</ele>
        <time>2021-04-01T09:15:35.134Z</time>
      </trkpt>
      <trkpt lat="43.116946" lon="-2.767">
        <ele>134.416</ele>
        <time>2021-04-01T09:15:35.189Z</time>
      </trkpt>
      <trkpt lat="43.1169501" lon="-2.7670019">
        <ele>134.422</ele>
        <time>2021-04-01T09:15:35.244Z</time>
      </trkpt>
      <trkpt lat="43.1169541" lon="-2.7670036">
        <ele>134.442</ele>
        <time>2021-04-01T09:15:35.299Z</time>
      </trkpt>
      <trkpt lat="43.1169579" lon="-2.7670056">
        <ele>134.521</ele>
        <time>2021-04-01T09:15:35.354Z</time>
      </trkpt>
      <trkpt lat="43.1169617" lon="-2.7670074">
        <ele>134.575</ele>
        <time>2021-04-01T09:15:35.409Z</time>
      </trkpt>
      <trkpt lat="43.1169654" lon="-2.767009">
        <ele>134.582</ele>
        <time>2021-04-01T09:15:35.464Z</time>
      </trkpt>
      <trkpt lat="43.1169689" lon="-2.7670106">
        <ele>134.556</ele>
        <time>2021-04-01T09:15:35.519Z</time>
      </trkpt>
      <trkpt lat="43.1169725" lon="-2.7670122">
        <ele>134.532</ele>
        <time>2021-04-01T09:15:35.574Z</time>
      </trkpt>
      <trkpt lat="43.1169759" lon="-2.7670138">
        <ele>134.499</ele>
        <time>2021-04-01T09:15:35.629Z</time>
      </trkpt>
      <trkpt lat="43.1169796" lon="-2.7670154">
        <ele>134.484</ele>
        <time>2021-04-01T09:15:35.684Z</time>
      </trkpt>
      <trkpt lat="43.1169835" lon="-2.7670173">
        <ele>134.485</ele>
        <time>2021-04-01T09:15:35.739Z</time>
      </trkpt>
      <trkpt lat="43.1169873" lon="-2.767019">
        <ele>134.452</ele>
        <time>2021-04-01T09:15:35.794Z</time>
      </trkpt>
      <trkpt lat="43.1169911" lon="-2.7670207">
        <ele>134.409</ele>
        <time>2021-04-01T09:15:35.849Z</time>
      </trkpt>
      <trkpt lat="43.1169946" lon="-2.7670223">
        <ele>134.359</ele>
        <time>2021-04-01T09:15:35.904Z</time>
      </trkpt>
      <trkpt lat="43.1169983" lon="-2.7670236">
        <ele>134.307</ele>
        <time>2021-04-01T09:15:35.959Z</time>
      </trkpt>
      <trkpt lat="43.1170021" lon="-2.7670251">
        <ele>134.312</ele>
        <time>2021-04-01T09:15:36.014Z</time>
      </trkpt>
      <trkpt lat="43.117006" lon="-2.7670267">
        <ele>134.326</ele>
        <time>2021-04-01T09:15:36.069Z</time>
      </trkpt>
      <trkpt lat="43.1170098" lon="-2.7670284">
        <ele>134.299</ele>
        <time>2021-04-01T09:15:36.124Z</time>
      </trkpt>
      <trkpt lat="43.1170138" lon="-2.7670301">
        <ele>134.275</ele>
        <time>2021-04-01T09:15:36.179Z</time>
      </trkpt>
      <trkpt lat="43.1170178" lon="-2.7670313">
        <ele>134.279</ele>
        <time>2021-04-01T09:15:36.234Z</time>
      </trkpt>
      <trkpt lat="43.1170218" lon="-2.7670329">
        <ele>134.296</ele>
        <time>2021-04-01T09:15:36.289Z</time>
      </trkpt>
      <trkpt lat="43.1170255" lon="-2.7670345">
        <ele>134.278</ele>
        <time>2021-04-01T09:15:36.344Z</time>
      </trkpt>
      <trkpt lat="43.1170292" lon="-2.7670362">
        <ele>134.266</ele>
        <time>2021-04-01T09:15:36.399Z</time>
      </trkpt>
      <trkpt lat="43.117033" lon="-2.7670379">
        <ele>134.262</ele>
        <time>2021-04-01T09:15:36.454Z</time>
      </trkpt>
      <trkpt lat="43.1170369" lon="-2.7670398">
        <ele>134.288</ele>
        <time>2021-04-01T09:15:36.509Z</time>
      </trkpt>
      <trkpt lat="43.1170408" lon="-2.7670416">
        <ele>134.303</ele>
        <time>2021-04-01T09:15:36.564Z</time>
      </trkpt>
      <trkpt lat="43.1170444" lon="-2.7670435">
        <ele>134.306</ele>
        <time>2021-04-01T09:15:36.619Z</time>
      </trkpt>
      <trkpt lat="43.1170483" lon="-2.7670451">
        <ele>134.321</ele>
        <time>2021-04-01T09:15:36.674Z</time>
      </trkpt>
      <trkpt lat="43.1170522" lon="-2.7670468">
        <ele>134.316</ele>
        <time>2021-04-01T09:15:36.729Z</time>
      </trkpt>
      <trkpt lat="43.1170561" lon="-2.7670486">
        <ele>134.307</ele>
        <time>2021-04-01T09:15:36.784Z</time>
      </trkpt>
      <trkpt lat="43.11706" lon="-2.7670504">
        <ele>134.313</ele>
        <time>2021-04-01T09:15:36.839Z</time>
      </trkpt>
      <trkpt lat="43.1170639" lon="-2.7670522">
        <ele>134.301</ele>
        <time>2021-04-01T09:15:36.894Z</time>
      </trkpt>
      <trkpt lat="43.1170679" lon="-2.767054">
        <ele>134.324</ele>
        <time>2021-04-01T09:15:36.949Z</time>
      </trkpt>
      <trkpt lat="43.1170716" lon="-2.7670558">
        <ele>134.302</ele>
        <time>2021-04-01T09:15:37.004Z</time>
      </trkpt>
      <trkpt lat="43.1170752" lon="-2.7670575">
        <ele>134.305</ele>
        <time>2021-04-01T09:15:37.059Z</time>
      </trkpt>
      <trkpt lat="43.1170791" lon="-2.7670594">
        <ele>134.327</ele>
        <time>2021-04-01T09:15:37.114Z</time>
      </trkpt>
      <trkpt lat="43.1170831" lon="-2.7670613">
        <ele>134.355</ele>
        <time>2021-04-01T09:15:37.169Z</time>
      </trkpt>
      <trkpt lat="43.1170869" lon="-2.7670632">
        <ele>134.355</ele>
        <time>2021-04-01T09:15:37.224Z</time>
      </trkpt>
      <trkpt lat="43.1170908" lon="-2.767065">
        <ele>134.346</ele>
        <time>2021-04-01T09:15:37.279Z</time>
      </trkpt>
      <trkpt lat="43.1170946" lon="-2.767067">
        <ele>134.333</ele>
        <time>2021-04-01T09:15:37.334Z</time>
      </trkpt>
      <trkpt lat="43.1170984" lon="-2.7670688">
        <ele>134.334</ele>
        <time>2021-04-01T09:15:37.389Z</time>
      </trkpt>
      <trkpt lat="43.1171022" lon="-2.7670701">
        <ele>134.327</ele>
        <time>2021-04-01T09:15:37.444Z</time>
      </trkpt>
      <trkpt lat="43.117106" lon="-2.7670719">
        <ele>134.319</ele>
        <time>2021-04-01T09:15:37.499Z</time>
      </trkpt>
      <trkpt lat="43.1171099" lon="-2.767074">
        <ele>134.326</ele>
        <time>2021-04-01T09:15:37.554Z</time>
      </trkpt>
      <trkpt lat="43.1171139" lon="-2.7670758">
        <ele>134.311</ele>
        <time>2021-04-01T09:15:37.609Z</time>
      </trkpt>
      <trkpt lat="43.1171179" lon="-2.7670774">
        <ele>134.336</ele>
        <time>2021-04-01T09:15:37.664Z</time>
      </trkpt>
      <trkpt lat="43.1171218" lon="-2.7670791">
        <ele>134.329</ele>
        <time>2021-04-01T09:15:37.719Z</time>
      </trkpt>
      <trkpt lat="43.1171256" lon="-2.7670807">
        <ele>134.315</ele>
        <time>2021-04-01T09:15:37.774Z</time>
      </trkpt>
      <trkpt lat="43.1171295" lon="-2.7670825">
        <ele>134.294</ele>
        <time>2021-04-01T09:15:37.829Z</time>
      </trkpt>
      <trkpt lat="43.1171335" lon="-2.7670844">
        <ele>134.304</ele>
        <time>2021-04-01T09:15:37.884Z</time>
      </trkpt>
      <trkpt lat="43.1171373" lon="-2.7670858">
        <ele>134.288</ele>
        <time>2021-04-01T09:15:37.939Z</time>
      </trkpt>
      <trkpt lat="43.1171413" lon="-2.7670875">
        <ele>134.321</ele>
        <time>2021-04-01T09:15:37.994Z</time>
      </trkpt>
      <trkpt lat="43.117145" lon="-2.7670893">
        <ele>134.326</ele>
        <time>2021-04-01T09:15:38.049Z</time>
      </trkpt>
      <trkpt lat="43.1171488" lon="-2.7670911">
        <ele>134.314</ele>
        <time>2021-04-01T09:15:38.104Z</time>
      </trkpt>
      <trkpt lat="43.1171527" lon="-2.7670926">
        <ele>134.299</ele>
        <time>2021-04-01T09:15:38.159Z</time>
      </trkpt>
      <trkpt lat="43.1171566" lon="-2.7670943">
        <ele>134.281</ele>
        <time>2021-04-01T09:15:38.214Z</time>
      </trkpt>
      <trkpt lat="43.1171606" lon="-2.7670962">
        <ele>134.301</ele>
        <time>2021-04-01T09:15:38.269Z</time>
      </trkpt>
      <trkpt lat="43.1171644" lon="-2.7670982">
        <ele>134.29</ele>
        <time>2021-04-01T09:15:38.324Z</time>
      </trkpt>
      <trkpt lat="43.1171682" lon="-2.7670997">
        <ele>134.25</ele>
        <time>2021-04-01T09:15:38.379Z</time>
      </trkpt>
      <trkpt lat="43.1171721" lon="-2.7671012">
        <ele>134.238</ele>
        <time>2021-04-01T09:15:38.434Z</time>
      </trkpt>
      <trkpt lat="43.1171759" lon="-2.7671029">
        <ele>134.223</ele>
        <time>2021-04-01T09:15:38.489Z</time>
      </trkpt>
      <trkpt lat="43.1171799" lon="-2.7671046">
        <ele>134.225</ele>
        <time>2021-04-01T09:15:38.544Z</time>
      </trkpt>
      <trkpt lat="43.1171838" lon="-2.7671063">
        <ele>134.216</ele>
        <time>2021-04-01T09:15:38.599Z</time>
      </trkpt>
      <trkpt lat="43.1171877" lon="-2.7671082">
        <ele>134.216</ele>
        <time>2021-04-01T09:15:38.654Z</time>
      </trkpt>
      <trkpt lat="43.1171916" lon="-2.7671098">
        <ele>134.23</ele>
        <time>2021-04-01T09:15:38.709Z</time>
      </trkpt>
      <trkpt lat="43.1171954" lon="-2.7671116">
        <ele>134.261</ele>
        <time>2021-04-01T09:15:38.764Z</time>
      </trkpt>
      <trkpt lat="43.117199" lon="-2.7671134">
        <ele>134.222</ele>
        <time>2021-04-01T09:15:38.819Z</time>
      </trkpt>
      <trkpt lat="43.117203" lon="-2.7671152">
        <ele>134.207</ele>
        <time>2021-04-01T09:15:38.874Z</time>
      </trkpt>
      <trkpt lat="43.1172071" lon="-2.7671171">
        <ele>134.259</ele>
        <time>2021-04-01T09:15:38.929Z</time>
      </trkpt>
      <trkpt lat="43.1172111" lon="-2.7671191">
        <ele>134.299</ele>
        <time>2021-04-01T09:15:38.984Z</time>
      </trkpt>
      <trkpt lat="43.117215" lon="-2.7671208">
        <ele>134.276</ele>
        <time>2021-04-01T09:15:39.039Z</time>
      </trkpt>
      <trkpt lat="43.1172189" lon="-2.7671227">
        <ele>134.297</ele>
        <time>2021-04-01T09:15:39.094Z</time>
      </trkpt>
      <trkpt lat="43.1172226" lon="-2.7671243">
        <ele>134.283</ele>
        <time>2021-04-01T09:15:39.149Z</time>
      </trkpt>
      <trkpt lat="43.1172265" lon="-2.7671259">
        <ele>134.265</ele>
        <time>2021-04-01T09:15:39.204Z</time>
      </trkpt>
      <trkpt lat="43.1172302" lon="-2.7671278">
        <ele>134.277</ele>
        <time>2021-04-01T09:15:39.259Z</time>
      </trkpt>
      <trkpt lat="43.1172341" lon="-2.7671297">
        <ele>134.285</ele>
        <time>2021-04-01T09:15:39.314Z</time>
      </trkpt>
      <trkpt lat="43.117238" lon="-2.7671315">
        <ele>134.316</ele>
        <time>2021-04-01T09:15:39.369Z</time>
      </trkpt>
      <trkpt lat="43.1172418" lon="-2.7671334">
        <ele>134.339</ele>
        <time>2021-04-01T09:15:39.424Z</time>
      </trkpt>
      <trkpt lat="43.1172455" lon="-2.7671353">
        <ele>134.34</ele>
        <time>2021-04-01T09:15:39.479Z</time>
      </trkpt>
      <trkpt lat="43.1172495" lon="-2.7671369">
        <ele>134.321</ele>
        <time>2021-04-01T09:15:39.534Z</time>
      </trkpt>
      <trkpt lat="43.1172532" lon="-2.7671386">
        <ele>134.315</ele>
        <time>2021-04-01T09:15:39.589Z</time>
      </trkpt>
      <trkpt lat="43.1172571" lon="-2.7671402">
        <ele>134.313</ele>
        <time>2021-04-01T09:15:39.644Z</time>
      </trkpt>
      <trkpt lat="43.117261" lon="-2.7671417">
        <ele>134.285</ele>
        <time>2021-04-01T09:15:39.699Z</time>
      </trkpt>
      <trkpt lat="43.1172649" lon="-2.7671437">
        <ele>134.289</ele>
        <time>2021-04-01T09:15:39.754Z</time>
      </trkpt>
      <trkpt lat="43.1172687" lon="-2.7671456">
        <ele>134.298</ele>
        <time>2021-04-01T09:15:39.809Z</time>
      </trkpt>
      <trkpt lat="43.1172726" lon="-2.7671476">
        <ele>134.312</ele>
        <time>2021-04-01T09:15:39.864Z</time>
      </trkpt>
      <trkpt lat="43.1172764" lon="-2.7671496">
        <ele>134.315</ele>
        <time>2021-04-01T09:15:39.919Z</time>
      </trkpt>
      <trkpt lat="43.1172804" lon="-2.7671514">
        <ele>134.314</ele>
        <time>2021-04-01T09:15:39.974Z</time>
      </trkpt>
      <trkpt lat="43.1172843" lon="-2.7671532">
        <ele>134.338</ele>
        <time>2021-04-01T09:15:40.029Z</time>
      </trkpt>
      <trkpt lat="43.1172882" lon="-2.7671549">
        <ele>134.357</ele>
        <time>2021-04-01T09:15:40.084Z</time>
      </trkpt>
      <trkpt lat="43.1172918" lon="-2.7671571">
        <ele>134.35</ele>
        <time>2021-04-01T09:15:40.139Z</time>
      </trkpt>
      <trkpt lat="43.1172955" lon="-2.767159">
        <ele>134.334</ele>
        <time>2021-04-01T09:15:40.194Z</time>
      </trkpt>
      <trkpt lat="43.117299" lon="-2.767161">
        <ele>134.3</ele>
        <time>2021-04-01T09:15:40.249Z</time>
      </trkpt>
      <trkpt lat="43.1173028" lon="-2.7671628">
        <ele>134.288</ele>
        <time>2021-04-01T09:15:40.304Z</time>
      </trkpt>
      <trkpt lat="43.1173067" lon="-2.7671647">
        <ele>134.298</ele>
        <time>2021-04-01T09:15:40.359Z</time>
      </trkpt>
      <trkpt lat="43.1173105" lon="-2.7671665">
        <ele>134.292</ele>
        <time>2021-04-01T09:15:40.414Z</time>
      </trkpt>
      <trkpt lat="43.1173143" lon="-2.7671685">
        <ele>134.286</ele>
        <time>2021-04-01T09:15:40.469Z</time>
      </trkpt>
      <trkpt lat="43.1173182" lon="-2.7671703">
        <ele>134.274</ele>
        <time>2021-04-01T09:15:40.524Z</time>
      </trkpt>
      <trkpt lat="43.1173222" lon="-2.7671721">
        <ele>134.284</ele>
        <time>2021-04-01T09:15:40.579Z</time>
      </trkpt>
      <trkpt lat="43.117326" lon="-2.767174">
        <ele>134.291</ele>
        <time>2021-04-01T09:15:40.634Z</time>
      </trkpt>
      <trkpt lat="43.1173297" lon="-2.7671758">
        <ele>134.249</ele>
        <time>2021-04-01T09:15:40.689Z</time>
      </trkpt>
      <trkpt lat="43.1173334" lon="-2.7671774">
        <ele>134.216</ele>
        <time>2021-04-01T09:15:40.744Z</time>
      </trkpt>
      <trkpt lat="43.1173375" lon="-2.767179">
        <ele>134.197</ele>
        <time>2021-04-01T09:15:40.799Z</time>
      </trkpt>
      <trkpt lat="43.1173414" lon="-2.7671808">
        <ele>134.19</ele>
        <time>2021-04-01T09:15:40.854Z</time>
      </trkpt>
      <trkpt lat="43.1173454" lon="-2.7671827">
        <ele>134.177</ele>
        <time>2021-04-01T09:15:40.912Z</time>
      </trkpt>
      <trkpt lat="43.1173493" lon="-2.7671844">
        <ele>134.175</ele>
        <time>2021-04-01T09:15:40.970Z</time>
      </trkpt>
      <trkpt lat="43.1173532" lon="-2.7671861">
        <ele>134.179</ele>
        <time>2021-04-01T09:15:41.028Z</time>
      </trkpt>
      <trkpt lat="43.1173573" lon="-2.767188">
        <ele>134.175</ele>
        <time>2021-04-01T09:15:41.086Z</time>
      </trkpt>
      <trkpt lat="43.1173615" lon="-2.7671897">
        <ele>134.17</ele>
        <time>2021-04-01T09:15:41.144Z</time>
      </trkpt>
      <trkpt lat="43.1173653" lon="-2.7671916">
        <ele>134.173</ele>
        <time>2021-04-01T09:15:41.202Z</time>
      </trkpt>
      <trkpt lat="43.117369" lon="-2.7671932">
        <ele>134.173</ele>
        <time>2021-04-01T09:15:41.260Z</time>
      </trkpt>
      <trkpt lat="43.1173729" lon="-2.767195">
        <ele>134.164</ele>
        <time>2021-04-01T09:15:41.318Z</time>
      </trkpt>
      <trkpt lat="43.1173768" lon="-2.7671971">
        <ele>134.151</ele>
        <time>2021-04-01T09:15:41.376Z</time>
      </trkpt>
      <trkpt lat="43.1173807" lon="-2.7671988">
        <ele>134.155</ele>
        <time>2021-04-01T09:15:41.434Z</time>
      </trkpt>
      <trkpt lat="43.1173846" lon="-2.7672005">
        <ele>134.152</ele>
        <time>2021-04-01T09:15:41.492Z</time>
      </trkpt>
      <trkpt lat="43.1173885" lon="-2.7672022">
        <ele>134.151</ele>
        <time>2021-04-01T09:15:41.550Z</time>
      </trkpt>
      <trkpt lat="43.1173923" lon="-2.7672039">
        <ele>134.132</ele>
        <time>2021-04-01T09:15:41.608Z</time>
      </trkpt>
      <trkpt lat="43.1173963" lon="-2.7672058">
        <ele>134.123</ele>
        <time>2021-04-01T09:15:41.666Z</time>
      </trkpt>
      <trkpt lat="43.1174004" lon="-2.7672073">
        <ele>134.117</ele>
        <time>2021-04-01T09:15:41.724Z</time>
      </trkpt>
      <trkpt lat="43.1174046" lon="-2.767209">
        <ele>134.13</ele>
        <time>2021-04-01T09:15:41.782Z</time>
      </trkpt>
      <trkpt lat="43.1174087" lon="-2.7672108">
        <ele>134.143</ele>
        <time>2021-04-01T09:15:41.840Z</time>
      </trkpt>
      <trkpt lat="43.1174128" lon="-2.7672125">
        <ele>134.133</ele>
        <time>2021-04-01T09:15:41.899Z</time>
      </trkpt>
      <trkpt lat="43.1174167" lon="-2.7672144">
        <ele>134.111</ele>
        <time>2021-04-01T09:15:41.951Z</time>
      </trkpt>
      <trkpt lat="43.1174206" lon="-2.7672163">
        <ele>134.1</ele>
        <time>2021-04-01T09:15:42.003Z</time>
      </trkpt>
      <trkpt lat="43.1174245" lon="-2.767218">
        <ele>134.086</ele>
        <time>2021-04-01T09:15:42.055Z</time>
      </trkpt>
      <trkpt lat="43.1174285" lon="-2.7672199">
        <ele>134.076</ele>
        <time>2021-04-01T09:15:42.107Z</time>
      </trkpt>
      <trkpt lat="43.1174326" lon="-2.7672217">
        <ele>134.06</ele>
        <time>2021-04-01T09:15:42.159Z</time>
      </trkpt>
      <trkpt lat="43.1174367" lon="-2.7672235">
        <ele>134.065</ele>
        <time>2021-04-01T09:15:42.211Z</time>
      </trkpt>
      <trkpt lat="43.1174406" lon="-2.7672253">
        <ele>134.081</ele>
        <time>2021-04-01T09:15:42.263Z</time>
      </trkpt>
      <trkpt lat="43.1174445" lon="-2.7672271">
        <ele>134.073</ele>
        <time>2021-04-01T09:15:42.315Z</time>
      </trkpt>
      <trkpt lat="43.1174483" lon="-2.7672291">
        <ele>134.055</ele>
        <time>2021-04-01T09:15:42.367Z</time>
      </trkpt>
      <trkpt lat="43.1174525" lon="-2.7672308">
        <ele>134.061</ele>
        <time>2021-04-01T09:15:42.420Z</time>
      </trkpt>
      <trkpt lat="43.1174568" lon="-2.7672325">
        <ele>134.069</ele>
        <time>2021-04-01T09:15:42.472Z</time>
      </trkpt>
      <trkpt lat="43.1174609" lon="-2.7672343">
        <ele>134.063</ele>
        <time>2021-04-01T09:15:42.524Z</time>
      </trkpt>
      <trkpt lat="43.1174648" lon="-2.7672361">
        <ele>134.048</ele>
        <time>2021-04-01T09:15:42.576Z</time>
      </trkpt>
      <trkpt lat="43.1174688" lon="-2.7672376">
        <ele>134.043</ele>
        <time>2021-04-01T09:15:42.628Z</time>
      </trkpt>
      <trkpt lat="43.1174727" lon="-2.7672393">
        <ele>134.032</ele>
        <time>2021-04-01T09:15:42.680Z</time>
      </trkpt>
      <trkpt lat="43.1174769" lon="-2.767241">
        <ele>134.024</ele>
        <time>2021-04-01T09:15:42.732Z</time>
      </trkpt>
      <trkpt lat="43.1174811" lon="-2.7672428">
        <ele>134.023</ele>
        <time>2021-04-01T09:15:42.784Z</time>
      </trkpt>
      <trkpt lat="43.1174853" lon="-2.7672446">
        <ele>134.041</ele>
        <time>2021-04-01T09:15:42.836Z</time>
      </trkpt>
      <trkpt lat="43.1174893" lon="-2.7672463">
        <ele>134.056</ele>
        <time>2021-04-01T09:15:42.889Z</time>
      </trkpt>
      <trkpt lat="43.1174932" lon="-2.7672481">
        <ele>134.043</ele>
        <time>2021-04-01T09:15:42.947Z</time>
      </trkpt>
      <trkpt lat="43.1174972" lon="-2.7672497">
        <ele>134.015</ele>
        <time>2021-04-01T09:15:43.005Z</time>
      </trkpt>
      <trkpt lat="43.1175013" lon="-2.7672512">
        <ele>134.015</ele>
        <time>2021-04-01T09:15:43.063Z</time>
      </trkpt>
      <trkpt lat="43.1175055" lon="-2.7672529">
        <ele>134</ele>
        <time>2021-04-01T09:15:43.121Z</time>
      </trkpt>
      <trkpt lat="43.1175096" lon="-2.7672546">
        <ele>134.005</ele>
        <time>2021-04-01T09:15:43.180Z</time>
      </trkpt>
      <trkpt lat="43.1175136" lon="-2.7672565">
        <ele>134.018</ele>
        <time>2021-04-01T09:15:43.238Z</time>
      </trkpt>
      <trkpt lat="43.1175176" lon="-2.7672583">
        <ele>134.011</ele>
        <time>2021-04-01T09:15:43.296Z</time>
      </trkpt>
      <trkpt lat="43.1175217" lon="-2.7672601">
        <ele>134.015</ele>
        <time>2021-04-01T09:15:43.354Z</time>
      </trkpt>
      <trkpt lat="43.1175257" lon="-2.767262">
        <ele>134.022</ele>
        <time>2021-04-01T09:15:43.413Z</time>
      </trkpt>
      <trkpt lat="43.1175297" lon="-2.7672637">
        <ele>134.021</ele>
        <time>2021-04-01T09:15:43.471Z</time>
      </trkpt>
      <trkpt lat="43.1175337" lon="-2.7672655">
        <ele>134.025</ele>
        <time>2021-04-01T09:15:43.529Z</time>
      </trkpt>
      <trkpt lat="43.117538" lon="-2.7672673">
        <ele>134.017</ele>
        <time>2021-04-01T09:15:43.587Z</time>
      </trkpt>
      <trkpt lat="43.117542" lon="-2.7672691">
        <ele>134.03</ele>
        <time>2021-04-01T09:15:43.646Z</time>
      </trkpt>
      <trkpt lat="43.117546" lon="-2.7672708">
        <ele>134.022</ele>
        <time>2021-04-01T09:15:43.704Z</time>
      </trkpt>
      <trkpt lat="43.11755" lon="-2.7672726">
        <ele>134.004</ele>
        <time>2021-04-01T09:15:43.762Z</time>
      </trkpt>
      <trkpt lat="43.1175541" lon="-2.767274">
        <ele>133.988</ele>
        <time>2021-04-01T09:15:43.820Z</time>
      </trkpt>
      <trkpt lat="43.1175581" lon="-2.7672759">
        <ele>133.997</ele>
        <time>2021-04-01T09:15:43.879Z</time>
      </trkpt>
      <trkpt lat="43.1175622" lon="-2.7672779">
        <ele>133.981</ele>
        <time>2021-04-01T09:15:43.931Z</time>
      </trkpt>
      <trkpt lat="43.1175663" lon="-2.7672798">
        <ele>133.996</ele>
        <time>2021-04-01T09:15:43.983Z</time>
      </trkpt>
      <trkpt lat="43.1175703" lon="-2.7672816">
        <ele>133.995</ele>
        <time>2021-04-01T09:15:44.035Z</time>
      </trkpt>
      <trkpt lat="43.1175741" lon="-2.7672836">
        <ele>133.995</ele>
        <time>2021-04-01T09:15:44.087Z</time>
      </trkpt>
      <trkpt lat="43.1175781" lon="-2.7672854">
        <ele>134.004</ele>
        <time>2021-04-01T09:15:44.139Z</time>
      </trkpt>
      <trkpt lat="43.117582" lon="-2.7672873">
        <ele>133.999</ele>
        <time>2021-04-01T09:15:44.191Z</time>
      </trkpt>
      <trkpt lat="43.117586" lon="-2.7672893">
        <ele>133.99</ele>
        <time>2021-04-01T09:15:44.243Z</time>
      </trkpt>
      <trkpt lat="43.1175902" lon="-2.7672911">
        <ele>133.993</ele>
        <time>2021-04-01T09:15:44.295Z</time>
      </trkpt>
      <trkpt lat="43.1175943" lon="-2.7672928">
        <ele>133.998</ele>
        <time>2021-04-01T09:15:44.347Z</time>
      </trkpt>
      <trkpt lat="43.1175983" lon="-2.7672946">
        <ele>134.01</ele>
        <time>2021-04-01T09:15:44.400Z</time>
      </trkpt>
      <trkpt lat="43.1176023" lon="-2.7672963">
        <ele>134</ele>
        <time>2021-04-01T09:15:44.452Z</time>
      </trkpt>
      <trkpt lat="43.1176061" lon="-2.767298">
        <ele>133.971</ele>
        <time>2021-04-01T09:15:44.504Z</time>
      </trkpt>
      <trkpt lat="43.1176102" lon="-2.7672999">
        <ele>133.967</ele>
        <time>2021-04-01T09:15:44.556Z</time>
      </trkpt>
      <trkpt lat="43.1176143" lon="-2.7673017">
        <ele>133.975</ele>
        <time>2021-04-01T09:15:44.608Z</time>
      </trkpt>
      <trkpt lat="43.1176182" lon="-2.7673033">
        <ele>133.986</ele>
        <time>2021-04-01T09:15:44.660Z</time>
      </trkpt>
      <trkpt lat="43.1176221" lon="-2.7673049">
        <ele>134.001</ele>
        <time>2021-04-01T09:15:44.712Z</time>
      </trkpt>
      <trkpt lat="43.117626" lon="-2.7673066">
        <ele>133.961</ele>
        <time>2021-04-01T09:15:44.764Z</time>
      </trkpt>
      <trkpt lat="43.1176301" lon="-2.7673082">
        <ele>133.961</ele>
        <time>2021-04-01T09:15:44.816Z</time>
      </trkpt>
      <trkpt lat="43.117634" lon="-2.7673099">
        <ele>133.992</ele>
        <time>2021-04-01T09:15:44.869Z</time>
      </trkpt>
      <trkpt lat="43.1176379" lon="-2.7673116">
        <ele>133.968</ele>
        <time>2021-04-01T09:15:44.924Z</time>
      </trkpt>
      <trkpt lat="43.1176417" lon="-2.7673133">
        <ele>133.964</ele>
        <time>2021-04-01T09:15:44.979Z</time>
      </trkpt>
      <trkpt lat="43.1176456" lon="-2.7673149">
        <ele>133.978</ele>
        <time>2021-04-01T09:15:45.034Z</time>
      </trkpt>
      <trkpt lat="43.1176496" lon="-2.7673162">
        <ele>134.015</ele>
        <time>2021-04-01T09:15:45.089Z</time>
      </trkpt>
      <trkpt lat="43.1176536" lon="-2.7673177">
        <ele>134.034</ele>
        <time>2021-04-01T09:15:45.144Z</time>
      </trkpt>
      <trkpt lat="43.1176576" lon="-2.7673194">
        <ele>134.082</ele>
        <time>2021-04-01T09:15:45.199Z</time>
      </trkpt>
      <trkpt lat="43.1176615" lon="-2.7673212">
        <ele>134.12</ele>
        <time>2021-04-01T09:15:45.254Z</time>
      </trkpt>
      <trkpt lat="43.1176655" lon="-2.767323">
        <ele>134.133</ele>
        <time>2021-04-01T09:15:45.309Z</time>
      </trkpt>
      <trkpt lat="43.1176693" lon="-2.7673249">
        <ele>134.147</ele>
        <time>2021-04-01T09:15:45.364Z</time>
      </trkpt>
      <trkpt lat="43.1176732" lon="-2.7673267">
        <ele>134.18</ele>
        <time>2021-04-01T09:15:45.419Z</time>
      </trkpt>
      <trkpt lat="43.117677" lon="-2.7673285">
        <ele>134.204</ele>
        <time>2021-04-01T09:15:45.474Z</time>
      </trkpt>
      <trkpt lat="43.1176808" lon="-2.7673305">
        <ele>134.208</ele>
        <time>2021-04-01T09:15:45.529Z</time>
      </trkpt>
      <trkpt lat="43.1176846" lon="-2.7673323">
        <ele>134.2</ele>
        <time>2021-04-01T09:15:45.584Z</time>
      </trkpt>
      <trkpt lat="43.1176885" lon="-2.7673342">
        <ele>134.218</ele>
        <time>2021-04-01T09:15:45.639Z</time>
      </trkpt>
      <trkpt lat="43.1176925" lon="-2.7673361">
        <ele>134.273</ele>
        <time>2021-04-01T09:15:45.694Z</time>
      </trkpt>
      <trkpt lat="43.1176963" lon="-2.7673379">
        <ele>134.266</ele>
        <time>2021-04-01T09:15:45.749Z</time>
      </trkpt>
      <trkpt lat="43.1177" lon="-2.7673395">
        <ele>134.263</ele>
        <time>2021-04-01T09:15:45.804Z</time>
      </trkpt>
      <trkpt lat="43.1177038" lon="-2.767341">
        <ele>134.251</ele>
        <time>2021-04-01T09:15:45.859Z</time>
      </trkpt>
      <trkpt lat="43.1177077" lon="-2.7673428">
        <ele>134.25</ele>
        <time>2021-04-01T09:15:45.914Z</time>
      </trkpt>
      <trkpt lat="43.1177115" lon="-2.7673446">
        <ele>134.262</ele>
        <time>2021-04-01T09:15:45.969Z</time>
      </trkpt>
      <trkpt lat="43.1177152" lon="-2.7673466">
        <ele>134.248</ele>
        <time>2021-04-01T09:15:46.024Z</time>
      </trkpt>
      <trkpt lat="43.1177188" lon="-2.7673485">
        <ele>134.265</ele>
        <time>2021-04-01T09:15:46.079Z</time>
      </trkpt>
      <trkpt lat="43.1177224" lon="-2.7673503">
        <ele>134.292</ele>
        <time>2021-04-01T09:15:46.134Z</time>
      </trkpt>
      <trkpt lat="43.1177262" lon="-2.7673521">
        <ele>134.314</ele>
        <time>2021-04-01T09:15:46.189Z</time>
      </trkpt>
      <trkpt lat="43.1177299" lon="-2.7673539">
        <ele>134.343</ele>
        <time>2021-04-01T09:15:46.244Z</time>
      </trkpt>
      <trkpt lat="43.1177335" lon="-2.767356">
        <ele>134.342</ele>
        <time>2021-04-01T09:15:46.299Z</time>
      </trkpt>
      <trkpt lat="43.1177371" lon="-2.767358">
        <ele>134.298</ele>
        <time>2021-04-01T09:15:46.354Z</time>
      </trkpt>
      <trkpt lat="43.1177409" lon="-2.7673592">
        <ele>134.194</ele>
        <time>2021-04-01T09:15:46.409Z</time>
      </trkpt>
      <trkpt lat="43.1177446" lon="-2.7673606">
        <ele>134.176</ele>
        <time>2021-04-01T09:15:46.464Z</time>
      </trkpt>
      <trkpt lat="43.1177484" lon="-2.7673619">
        <ele>134.167</ele>
        <time>2021-04-01T09:15:46.519Z</time>
      </trkpt>
      <trkpt lat="43.1177522" lon="-2.7673636">
        <ele>134.177</ele>
        <time>2021-04-01T09:15:46.574Z</time>
      </trkpt>
      <trkpt lat="43.1177561" lon="-2.7673655">
        <ele>134.19</ele>
        <time>2021-04-01T09:15:46.629Z</time>
      </trkpt>
      <trkpt lat="43.1177598" lon="-2.7673675">
        <ele>134.166</ele>
        <time>2021-04-01T09:15:46.684Z</time>
      </trkpt>
      <trkpt lat="43.1177635" lon="-2.767369">
        <ele>134.12</ele>
        <time>2021-04-01T09:15:46.739Z</time>
      </trkpt>
      <trkpt lat="43.1177675" lon="-2.7673705">
        <ele>134.135</ele>
        <time>2021-04-01T09:15:46.794Z</time>
      </trkpt>
      <trkpt lat="43.117771" lon="-2.7673719">
        <ele>134.144</ele>
        <time>2021-04-01T09:15:46.849Z</time>
      </trkpt>
      <trkpt lat="43.1177746" lon="-2.7673737">
        <ele>134.141</ele>
        <time>2021-04-01T09:15:46.904Z</time>
      </trkpt>
      <trkpt lat="43.1177784" lon="-2.7673755">
        <ele>134.141</ele>
        <time>2021-04-01T09:15:46.959Z</time>
      </trkpt>
      <trkpt lat="43.1177824" lon="-2.7673774">
        <ele>134.129</ele>
        <time>2021-04-01T09:15:47.014Z</time>
      </trkpt>
      <trkpt lat="43.1177864" lon="-2.7673789">
        <ele>134.127</ele>
        <time>2021-04-01T09:15:47.069Z</time>
      </trkpt>
      <trkpt lat="43.1177902" lon="-2.7673806">
        <ele>134.14</ele>
        <time>2021-04-01T09:15:47.124Z</time>
      </trkpt>
      <trkpt lat="43.1177937" lon="-2.7673823">
        <ele>134.119</ele>
        <time>2021-04-01T09:15:47.179Z</time>
      </trkpt>
      <trkpt lat="43.1177975" lon="-2.7673842">
        <ele>134.115</ele>
        <time>2021-04-01T09:15:47.234Z</time>
      </trkpt>
      <trkpt lat="43.1178013" lon="-2.7673862">
        <ele>134.106</ele>
        <time>2021-04-01T09:15:47.289Z</time>
      </trkpt>
      <trkpt lat="43.1178054" lon="-2.767388">
        <ele>134.137</ele>
        <time>2021-04-01T09:15:47.344Z</time>
      </trkpt>
      <trkpt lat="43.1178092" lon="-2.7673895">
        <ele>134.143</ele>
        <time>2021-04-01T09:15:47.399Z</time>
      </trkpt>
      <trkpt lat="43.1178129" lon="-2.7673913">
        <ele>134.141</ele>
        <time>2021-04-01T09:15:47.454Z</time>
      </trkpt>
      <trkpt lat="43.1178165" lon="-2.7673928">
        <ele>134.117</ele>
        <time>2021-04-01T09:15:47.509Z</time>
      </trkpt>
      <trkpt lat="43.1178204" lon="-2.7673945">
        <ele>134.066</ele>
        <time>2021-04-01T09:15:47.564Z</time>
      </trkpt>
      <trkpt lat="43.117824" lon="-2.7673962">
        <ele>134.054</ele>
        <time>2021-04-01T09:15:47.619Z</time>
      </trkpt>
      <trkpt lat="43.1178276" lon="-2.7673982">
        <ele>134.074</ele>
        <time>2021-04-01T09:15:47.674Z</time>
      </trkpt>
      <trkpt lat="43.1178315" lon="-2.7674004">
        <ele>134.099</ele>
        <time>2021-04-01T09:15:47.729Z</time>
      </trkpt>
      <trkpt lat="43.1178354" lon="-2.7674023">
        <ele>134.135</ele>
        <time>2021-04-01T09:15:47.784Z</time>
      </trkpt>
      <trkpt lat="43.1178391" lon="-2.7674043">
        <ele>134.142</ele>
        <time>2021-04-01T09:15:47.839Z</time>
      </trkpt>
      <trkpt lat="43.1178432" lon="-2.7674059">
        <ele>134.181</ele>
        <time>2021-04-01T09:15:47.894Z</time>
      </trkpt>
      <trkpt lat="43.117847" lon="-2.7674076">
        <ele>134.153</ele>
        <time>2021-04-01T09:15:47.949Z</time>
      </trkpt>
      <trkpt lat="43.1178509" lon="-2.7674093">
        <ele>134.138</ele>
        <time>2021-04-01T09:15:48.004Z</time>
      </trkpt>
      <trkpt lat="43.1178548" lon="-2.7674111">
        <ele>134.185</ele>
        <time>2021-04-01T09:15:48.059Z</time>
      </trkpt>
      <trkpt lat="43.1178587" lon="-2.7674128">
        <ele>134.198</ele>
        <time>2021-04-01T09:15:48.114Z</time>
      </trkpt>
      <trkpt lat="43.1178626" lon="-2.7674146">
        <ele>134.203</ele>
        <time>2021-04-01T09:15:48.169Z</time>
      </trkpt>
      <trkpt lat="43.1178664" lon="-2.7674163">
        <ele>134.194</ele>
        <time>2021-04-01T09:15:48.224Z</time>
      </trkpt>
      <trkpt lat="43.1178703" lon="-2.7674181">
        <ele>134.226</ele>
        <time>2021-04-01T09:15:48.279Z</time>
      </trkpt>
      <trkpt lat="43.1178741" lon="-2.76742">
        <ele>134.234</ele>
        <time>2021-04-01T09:15:48.334Z</time>
      </trkpt>
      <trkpt lat="43.1178783" lon="-2.7674217">
        <ele>134.243</ele>
        <time>2021-04-01T09:15:48.389Z</time>
      </trkpt>
      <trkpt lat="43.1178821" lon="-2.767423">
        <ele>134.193</ele>
        <time>2021-04-01T09:15:48.444Z</time>
      </trkpt>
      <trkpt lat="43.1178856" lon="-2.7674244">
        <ele>134.135</ele>
        <time>2021-04-01T09:15:48.499Z</time>
      </trkpt>
      <trkpt lat="43.1178897" lon="-2.7674261">
        <ele>134.147</ele>
        <time>2021-04-01T09:15:48.554Z</time>
      </trkpt>
      <trkpt lat="43.1178938" lon="-2.7674279">
        <ele>134.134</ele>
        <time>2021-04-01T09:15:48.609Z</time>
      </trkpt>
      <trkpt lat="43.1178976" lon="-2.7674301">
        <ele>134.167</ele>
        <time>2021-04-01T09:15:48.664Z</time>
      </trkpt>
      <trkpt lat="43.1179015" lon="-2.7674317">
        <ele>134.178</ele>
        <time>2021-04-01T09:15:48.719Z</time>
      </trkpt>
      <trkpt lat="43.1179052" lon="-2.7674335">
        <ele>134.173</ele>
        <time>2021-04-01T09:15:48.774Z</time>
      </trkpt>
      <trkpt lat="43.117909" lon="-2.7674349">
        <ele>134.11</ele>
        <time>2021-04-01T09:15:48.829Z</time>
      </trkpt>
      <trkpt lat="43.117913" lon="-2.7674366">
        <ele>134.097</ele>
        <time>2021-04-01T09:15:48.884Z</time>
      </trkpt>
      <trkpt lat="43.117917" lon="-2.7674385">
        <ele>134.105</ele>
        <time>2021-04-01T09:15:48.939Z</time>
      </trkpt>
      <trkpt lat="43.1179208" lon="-2.7674402">
        <ele>134.11</ele>
        <time>2021-04-01T09:15:48.994Z</time>
      </trkpt>
      <trkpt lat="43.1179245" lon="-2.767442">
        <ele>134.125</ele>
        <time>2021-04-01T09:15:49.049Z</time>
      </trkpt>
      <trkpt lat="43.1179284" lon="-2.7674438">
        <ele>134.134</ele>
        <time>2021-04-01T09:15:49.104Z</time>
      </trkpt>
      <trkpt lat="43.1179323" lon="-2.7674455">
        <ele>134.144</ele>
        <time>2021-04-01T09:15:49.159Z</time>
      </trkpt>
      <trkpt lat="43.117936" lon="-2.7674471">
        <ele>134.157</ele>
        <time>2021-04-01T09:15:49.214Z</time>
      </trkpt>
      <trkpt lat="43.11794" lon="-2.7674489">
        <ele>134.183</ele>
        <time>2021-04-01T09:15:49.269Z</time>
      </trkpt>
      <trkpt lat="43.1179439" lon="-2.7674506">
        <ele>134.206</ele>
        <time>2021-04-01T09:15:49.324Z</time>
      </trkpt>
      <trkpt lat="43.1179478" lon="-2.7674524">
        <ele>134.204</ele>
        <time>2021-04-01T09:15:49.379Z</time>
      </trkpt>
      <trkpt lat="43.1179517" lon="-2.7674544">
        <ele>134.188</ele>
        <time>2021-04-01T09:15:49.434Z</time>
      </trkpt>
      <trkpt lat="43.1179558" lon="-2.7674561">
        <ele>134.219</ele>
        <time>2021-04-01T09:15:49.489Z</time>
      </trkpt>
      <trkpt lat="43.1179596" lon="-2.7674578">
        <ele>134.223</ele>
        <time>2021-04-01T09:15:49.544Z</time>
      </trkpt>
      <trkpt lat="43.1179635" lon="-2.7674596">
        <ele>134.219</ele>
        <time>2021-04-01T09:15:49.599Z</time>
      </trkpt>
      <trkpt lat="43.1179674" lon="-2.7674616">
        <ele>134.228</ele>
        <time>2021-04-01T09:15:49.654Z</time>
      </trkpt>
      <trkpt lat="43.1179713" lon="-2.7674634">
        <ele>134.258</ele>
        <time>2021-04-01T09:15:49.709Z</time>
      </trkpt>
      <trkpt lat="43.117975" lon="-2.7674651">
        <ele>134.251</ele>
        <time>2021-04-01T09:15:49.764Z</time>
      </trkpt>
      <trkpt lat="43.1179787" lon="-2.7674668">
        <ele>134.228</ele>
        <time>2021-04-01T09:15:49.819Z</time>
      </trkpt>
      <trkpt lat="43.1179824" lon="-2.7674685">
        <ele>134.214</ele>
        <time>2021-04-01T09:15:49.874Z</time>
      </trkpt>
      <trkpt lat="43.1179861" lon="-2.7674703">
        <ele>134.211</ele>
        <time>2021-04-01T09:15:49.929Z</time>
      </trkpt>
      <trkpt lat="43.1179899" lon="-2.7674722">
        <ele>134.214</ele>
        <time>2021-04-01T09:15:49.984Z</time>
      </trkpt>
      <trkpt lat="43.1179939" lon="-2.7674742">
        <ele>134.214</ele>
        <time>2021-04-01T09:15:50.039Z</time>
      </trkpt>
      <trkpt lat="43.1179979" lon="-2.7674759">
        <ele>134.21</ele>
        <time>2021-04-01T09:15:50.094Z</time>
      </trkpt>
      <trkpt lat="43.1180017" lon="-2.7674778">
        <ele>134.22</ele>
        <time>2021-04-01T09:15:50.149Z</time>
      </trkpt>
      <trkpt lat="43.1180055" lon="-2.7674796">
        <ele>134.223</ele>
        <time>2021-04-01T09:15:50.204Z</time>
      </trkpt>
      <trkpt lat="43.1180094" lon="-2.7674812">
        <ele>134.207</ele>
        <time>2021-04-01T09:15:50.259Z</time>
      </trkpt>
      <trkpt lat="43.1180131" lon="-2.767483">
        <ele>134.193</ele>
        <time>2021-04-01T09:15:50.314Z</time>
      </trkpt>
      <trkpt lat="43.1180172" lon="-2.7674846">
        <ele>134.187</ele>
        <time>2021-04-01T09:15:50.369Z</time>
      </trkpt>
      <trkpt lat="43.118021" lon="-2.7674862">
        <ele>134.188</ele>
        <time>2021-04-01T09:15:50.424Z</time>
      </trkpt>
      <trkpt lat="43.1180249" lon="-2.7674881">
        <ele>134.2</ele>
        <time>2021-04-01T09:15:50.479Z</time>
      </trkpt>
      <trkpt lat="43.1180287" lon="-2.7674898">
        <ele>134.202</ele>
        <time>2021-04-01T09:15:50.534Z</time>
      </trkpt>
      <trkpt lat="43.1180326" lon="-2.7674916">
        <ele>134.207</ele>
        <time>2021-04-01T09:15:50.589Z</time>
      </trkpt>
      <trkpt lat="43.1180364" lon="-2.7674932">
        <ele>134.21</ele>
        <time>2021-04-01T09:15:50.644Z</time>
      </trkpt>
      <trkpt lat="43.1180402" lon="-2.767495">
        <ele>134.224</ele>
        <time>2021-04-01T09:15:50.699Z</time>
      </trkpt>
      <trkpt lat="43.118044" lon="-2.7674968">
        <ele>134.23</ele>
        <time>2021-04-01T09:15:50.754Z</time>
      </trkpt>
      <trkpt lat="43.118048" lon="-2.7674987">
        <ele>134.224</ele>
        <time>2021-04-01T09:15:50.809Z</time>
      </trkpt>
      <trkpt lat="43.118052" lon="-2.7675007">
        <ele>134.233</ele>
        <time>2021-04-01T09:15:50.864Z</time>
      </trkpt>
      <trkpt lat="43.1180557" lon="-2.7675024">
        <ele>134.233</ele>
        <time>2021-04-01T09:15:50.922Z</time>
      </trkpt>
      <trkpt lat="43.1180594" lon="-2.7675042">
        <ele>134.239</ele>
        <time>2021-04-01T09:15:50.980Z</time>
      </trkpt>
      <trkpt lat="43.1180632" lon="-2.767506">
        <ele>134.227</ele>
        <time>2021-04-01T09:15:51.038Z</time>
      </trkpt>
      <trkpt lat="43.118067" lon="-2.7675077">
        <ele>134.215</ele>
        <time>2021-04-01T09:15:51.096Z</time>
      </trkpt>
      <trkpt lat="43.118071" lon="-2.7675095">
        <ele>134.22</ele>
        <time>2021-04-01T09:15:51.154Z</time>
      </trkpt>
      <trkpt lat="43.1180747" lon="-2.7675114">
        <ele>134.197</ele>
        <time>2021-04-01T09:15:51.212Z</time>
      </trkpt>
      <trkpt lat="43.1180783" lon="-2.767513">
        <ele>134.201</ele>
        <time>2021-04-01T09:15:51.270Z</time>
      </trkpt>
      <trkpt lat="43.118082" lon="-2.7675148">
        <ele>134.204</ele>
        <time>2021-04-01T09:15:51.328Z</time>
      </trkpt>
      <trkpt lat="43.1180857" lon="-2.7675164">
        <ele>134.187</ele>
        <time>2021-04-01T09:15:51.386Z</time>
      </trkpt>
      <trkpt lat="43.1180896" lon="-2.7675182">
        <ele>134.197</ele>
        <time>2021-04-01T09:15:51.444Z</time>
      </trkpt>
      <trkpt lat="43.1180935" lon="-2.7675202">
        <ele>134.204</ele>
        <time>2021-04-01T09:15:51.502Z</time>
      </trkpt>
      <trkpt lat="43.1180974" lon="-2.7675219">
        <ele>134.176</ele>
        <time>2021-04-01T09:15:51.560Z</time>
      </trkpt>
      <trkpt lat="43.1181012" lon="-2.7675238">
        <ele>134.204</ele>
        <time>2021-04-01T09:15:51.618Z</time>
      </trkpt>
      <trkpt lat="43.1181049" lon="-2.7675256">
        <ele>134.208</ele>
        <time>2021-04-01T09:15:51.676Z</time>
      </trkpt>
      <trkpt lat="43.1181086" lon="-2.7675275">
        <ele>134.196</ele>
        <time>2021-04-01T09:15:51.734Z</time>
      </trkpt>
      <trkpt lat="43.1181123" lon="-2.7675293">
        <ele>134.221</ele>
        <time>2021-04-01T09:15:51.792Z</time>
      </trkpt>
      <trkpt lat="43.1181161" lon="-2.7675309">
        <ele>134.242</ele>
        <time>2021-04-01T09:15:51.850Z</time>
      </trkpt>
      <trkpt lat="43.1181202" lon="-2.7675324">
        <ele>134.259</ele>
        <time>2021-04-01T09:15:51.909Z</time>
      </trkpt>
      <trkpt lat="43.1181238" lon="-2.7675345">
        <ele>134.26</ele>
        <time>2021-04-01T09:15:51.960Z</time>
      </trkpt>
      <trkpt lat="43.1181277" lon="-2.7675361">
        <ele>134.289</ele>
        <time>2021-04-01T09:15:52.012Z</time>
      </trkpt>
      <trkpt lat="43.1181315" lon="-2.7675378">
        <ele>134.288</ele>
        <time>2021-04-01T09:15:52.064Z</time>
      </trkpt>
      <trkpt lat="43.1181353" lon="-2.7675393">
        <ele>134.273</ele>
        <time>2021-04-01T09:15:52.116Z</time>
      </trkpt>
      <trkpt lat="43.1181392" lon="-2.767541">
        <ele>134.276</ele>
        <time>2021-04-01T09:15:52.168Z</time>
      </trkpt>
      <trkpt lat="43.118143" lon="-2.7675428">
        <ele>134.302</ele>
        <time>2021-04-01T09:15:52.220Z</time>
      </trkpt>
      <trkpt lat="43.1181469" lon="-2.7675446">
        <ele>134.321</ele>
        <time>2021-04-01T09:15:52.272Z</time>
      </trkpt>
      <trkpt lat="43.1181506" lon="-2.7675463">
        <ele>134.328</ele>
        <time>2021-04-01T09:15:52.324Z</time>
      </trkpt>
      <trkpt lat="43.1181543" lon="-2.7675479">
        <ele>134.323</ele>
        <time>2021-04-01T09:15:52.376Z</time>
      </trkpt>
      <trkpt lat="43.1181581" lon="-2.7675494">
        <ele>134.331</ele>
        <time>2021-04-01T09:15:52.428Z</time>
      </trkpt>
      <trkpt lat="43.1181619" lon="-2.7675511">
        <ele>134.356</ele>
        <time>2021-04-01T09:15:52.480Z</time>
      </trkpt>
      <trkpt lat="43.1181658" lon="-2.7675527">
        <ele>134.367</ele>
        <time>2021-04-01T09:15:52.532Z</time>
      </trkpt>
      <trkpt lat="43.1181697" lon="-2.7675544">
        <ele>134.365</ele>
        <time>2021-04-01T09:15:52.584Z</time>
      </trkpt>
      <trkpt lat="43.1181734" lon="-2.7675557">
        <ele>134.36</ele>
        <time>2021-04-01T09:15:52.636Z</time>
      </trkpt>
      <trkpt lat="43.1181771" lon="-2.7675575">
        <ele>134.349</ele>
        <time>2021-04-01T09:15:52.688Z</time>
      </trkpt>
      <trkpt lat="43.1181811" lon="-2.7675592">
        <ele>134.328</ele>
        <time>2021-04-01T09:15:52.740Z</time>
      </trkpt>
      <trkpt lat="43.118185" lon="-2.7675611">
        <ele>134.314</ele>
        <time>2021-04-01T09:15:52.792Z</time>
      </trkpt>
      <trkpt lat="43.118189" lon="-2.7675632">
        <ele>134.288</ele>
        <time>2021-04-01T09:15:52.844Z</time>
      </trkpt>
      <trkpt lat="43.1181929" lon="-2.7675649">
        <ele>134.31</ele>
        <time>2021-04-01T09:15:52.899Z</time>
      </trkpt>
      <trkpt lat="43.1181966" lon="-2.7675666">
        <ele>134.323</ele>
        <time>2021-04-01T09:15:52.954Z</time>
      </trkpt>
      <trkpt lat="43.1182" lon="-2.7675682">
        <ele>134.331</ele>
        <time>2021-04-01T09:15:53.009Z</time>
      </trkpt>
      <trkpt lat="43.1182037" lon="-2.76757">
        <ele>134.31</ele>
        <time>2021-04-01T09:15:53.064Z</time>
      </trkpt>
      <trkpt lat="43.1182076" lon="-2.7675721">
        <ele>134.299</ele>
        <time>2021-04-01T09:15:53.119Z</time>
      </trkpt>
      <trkpt lat="43.1182115" lon="-2.7675739">
        <ele>134.302</ele>
        <time>2021-04-01T09:15:53.174Z</time>
      </trkpt>
      <trkpt lat="43.118215" lon="-2.7675757">
        <ele>134.336</ele>
        <time>2021-04-01T09:15:53.229Z</time>
      </trkpt>
      <trkpt lat="43.1182185" lon="-2.7675775">
        <ele>134.31</ele>
        <time>2021-04-01T09:15:53.284Z</time>
      </trkpt>
      <trkpt lat="43.1182224" lon="-2.7675792">
        <ele>134.315</ele>
        <time>2021-04-01T09:15:53.339Z</time>
      </trkpt>
      <trkpt lat="43.1182264" lon="-2.7675811">
        <ele>134.328</ele>
        <time>2021-04-01T09:15:53.394Z</time>
      </trkpt>
      <trkpt lat="43.1182299" lon="-2.7675831">
        <ele>134.342</ele>
        <time>2021-04-01T09:15:53.449Z</time>
      </trkpt>
      <trkpt lat="43.1182336" lon="-2.767585">
        <ele>134.389</ele>
        <time>2021-04-01T09:15:53.504Z</time>
      </trkpt>
      <trkpt lat="43.1182373" lon="-2.7675867">
        <ele>134.386</ele>
        <time>2021-04-01T09:15:53.559Z</time>
      </trkpt>
      <trkpt lat="43.1182411" lon="-2.7675884">
        <ele>134.364</ele>
        <time>2021-04-01T09:15:53.614Z</time>
      </trkpt>
      <trkpt lat="43.1182448" lon="-2.7675905">
        <ele>134.321</ele>
        <time>2021-04-01T09:15:53.669Z</time>
      </trkpt>
      <trkpt lat="43.1182487" lon="-2.7675924">
        <ele>134.342</ele>
        <time>2021-04-01T09:15:53.724Z</time>
      </trkpt>
      <trkpt lat="43.1182524" lon="-2.7675941">
        <ele>134.347</ele>
        <time>2021-04-01T09:15:53.779Z</time>
      </trkpt>
      <trkpt lat="43.1182562" lon="-2.7675958">
        <ele>134.364</ele>
        <time>2021-04-01T09:15:53.834Z</time>
      </trkpt>
      <trkpt lat="43.1182599" lon="-2.7675974">
        <ele>134.32</ele>
        <time>2021-04-01T09:15:53.889Z</time>
      </trkpt>
      <trkpt lat="43.1182638" lon="-2.7675992">
        <ele>134.335</ele>
        <time>2021-04-01T09:15:53.944Z</time>
      </trkpt>
      <trkpt lat="43.1182676" lon="-2.7676011">
        <ele>134.337</ele>
        <time>2021-04-01T09:15:53.999Z</time>
      </trkpt>
      <trkpt lat="43.1182713" lon="-2.7676029">
        <ele>134.301</ele>
        <time>2021-04-01T09:15:54.054Z</time>
      </trkpt>
      <trkpt lat="43.118275" lon="-2.7676051">
        <ele>134.321</ele>
        <time>2021-04-01T09:15:54.109Z</time>
      </trkpt>
      <trkpt lat="43.1182788" lon="-2.7676068">
        <ele>134.356</ele>
        <time>2021-04-01T09:15:54.164Z</time>
      </trkpt>
      <trkpt lat="43.1182829" lon="-2.7676083">
        <ele>134.363</ele>
        <time>2021-04-01T09:15:54.219Z</time>
      </trkpt>
      <trkpt lat="43.1182868" lon="-2.7676097">
        <ele>134.329</ele>
        <time>2021-04-01T09:15:54.274Z</time>
      </trkpt>
      <trkpt lat="43.1182907" lon="-2.7676113">
        <ele>134.344</ele>
        <time>2021-04-01T09:15:54.329Z</time>
      </trkpt>
      <trkpt lat="43.1182946" lon="-2.767613">
        <ele>134.32</ele>
        <time>2021-04-01T09:15:54.384Z</time>
      </trkpt>
      <trkpt lat="43.1182984" lon="-2.7676146">
        <ele>134.294</ele>
        <time>2021-04-01T09:15:54.439Z</time>
      </trkpt>
      <trkpt lat="43.1183021" lon="-2.767616">
        <ele>134.303</ele>
        <time>2021-04-01T09:15:54.494Z</time>
      </trkpt>
      <trkpt lat="43.1183062" lon="-2.7676175">
        <ele>134.324</ele>
        <time>2021-04-01T09:15:54.549Z</time>
      </trkpt>
      <trkpt lat="43.1183102" lon="-2.767619">
        <ele>134.32</ele>
        <time>2021-04-01T09:15:54.604Z</time>
      </trkpt>
      <trkpt lat="43.1183141" lon="-2.7676205">
        <ele>134.348</ele>
        <time>2021-04-01T09:15:54.659Z</time>
      </trkpt>
      <trkpt lat="43.118318" lon="-2.7676221">
        <ele>134.319</ele>
        <time>2021-04-01T09:15:54.714Z</time>
      </trkpt>
      <trkpt lat="43.1183218" lon="-2.7676236">
        <ele>134.279</ele>
        <time>2021-04-01T09:15:54.769Z</time>
      </trkpt>
      <trkpt lat="43.1183255" lon="-2.7676252">
        <ele>134.234</ele>
        <time>2021-04-01T09:15:54.824Z</time>
      </trkpt>
      <trkpt lat="43.1183294" lon="-2.7676273">
        <ele>134.257</ele>
        <time>2021-04-01T09:15:54.879Z</time>
      </trkpt>
      <trkpt lat="43.1183332" lon="-2.767629">
        <ele>134.259</ele>
        <time>2021-04-01T09:15:54.934Z</time>
      </trkpt>
      <trkpt lat="43.1183369" lon="-2.767631">
        <ele>134.217</ele>
        <time>2021-04-01T09:15:54.989Z</time>
      </trkpt>
      <trkpt lat="43.1183406" lon="-2.7676325">
        <ele>134.245</ele>
        <time>2021-04-01T09:15:55.044Z</time>
      </trkpt>
      <trkpt lat="43.1183444" lon="-2.767634">
        <ele>134.267</ele>
        <time>2021-04-01T09:15:55.099Z</time>
      </trkpt>
      <trkpt lat="43.1183482" lon="-2.7676359">
        <ele>134.25</ele>
        <time>2021-04-01T09:15:55.154Z</time>
      </trkpt>
      <trkpt lat="43.1183521" lon="-2.7676378">
        <ele>134.248</ele>
        <time>2021-04-01T09:15:55.209Z</time>
      </trkpt>
      <trkpt lat="43.118356" lon="-2.7676398">
        <ele>134.259</ele>
        <time>2021-04-01T09:15:55.264Z</time>
      </trkpt>
      <trkpt lat="43.1183603" lon="-2.7676413">
        <ele>134.295</ele>
        <time>2021-04-01T09:15:55.319Z</time>
      </trkpt>
      <trkpt lat="43.1183641" lon="-2.7676429">
        <ele>134.291</ele>
        <time>2021-04-01T09:15:55.374Z</time>
      </trkpt>
      <trkpt lat="43.1183678" lon="-2.7676448">
        <ele>134.296</ele>
        <time>2021-04-01T09:15:55.429Z</time>
      </trkpt>
      <trkpt lat="43.1183715" lon="-2.7676466">
        <ele>134.293</ele>
        <time>2021-04-01T09:15:55.484Z</time>
      </trkpt>
      <trkpt lat="43.1183753" lon="-2.7676484">
        <ele>134.283</ele>
        <time>2021-04-01T09:15:55.539Z</time>
      </trkpt>
      <trkpt lat="43.1183791" lon="-2.7676503">
        <ele>134.297</ele>
        <time>2021-04-01T09:15:55.594Z</time>
      </trkpt>
      <trkpt lat="43.1183829" lon="-2.7676523">
        <ele>134.301</ele>
        <time>2021-04-01T09:15:55.649Z</time>
      </trkpt>
      <trkpt lat="43.1183868" lon="-2.7676541">
        <ele>134.286</ele>
        <time>2021-04-01T09:15:55.704Z</time>
      </trkpt>
      <trkpt lat="43.1183906" lon="-2.7676558">
        <ele>134.251</ele>
        <time>2021-04-01T09:15:55.759Z</time>
      </trkpt>
      <trkpt lat="43.1183945" lon="-2.7676575">
        <ele>134.26</ele>
        <time>2021-04-01T09:15:55.814Z</time>
      </trkpt>
      <trkpt lat="43.1183985" lon="-2.7676592">
        <ele>134.262</ele>
        <time>2021-04-01T09:15:55.869Z</time>
      </trkpt>
      <trkpt lat="43.1184023" lon="-2.7676609">
        <ele>134.27</ele>
        <time>2021-04-01T09:15:55.924Z</time>
      </trkpt>
      <trkpt lat="43.1184064" lon="-2.7676626">
        <ele>134.309</ele>
        <time>2021-04-01T09:15:55.979Z</time>
      </trkpt>
      <trkpt lat="43.1184102" lon="-2.7676644">
        <ele>134.313</ele>
        <time>2021-04-01T09:15:56.034Z</time>
      </trkpt>
      <trkpt lat="43.1184141" lon="-2.7676663">
        <ele>134.306</ele>
        <time>2021-04-01T09:15:56.089Z</time>
      </trkpt>
      <trkpt lat="43.118418" lon="-2.767668">
        <ele>134.309</ele>
        <time>2021-04-01T09:15:56.144Z</time>
      </trkpt>
      <trkpt lat="43.1184219" lon="-2.7676698">
        <ele>134.315</ele>
        <time>2021-04-01T09:15:56.199Z</time>
      </trkpt>
      <trkpt lat="43.118426" lon="-2.7676713">
        <ele>134.353</ele>
        <time>2021-04-01T09:15:56.254Z</time>
      </trkpt>
      <trkpt lat="43.1184301" lon="-2.7676729">
        <ele>134.371</ele>
        <time>2021-04-01T09:15:56.309Z</time>
      </trkpt>
      <trkpt lat="43.1184339" lon="-2.7676748">
        <ele>134.408</ele>
        <time>2021-04-01T09:15:56.364Z</time>
      </trkpt>
      <trkpt lat="43.1184382" lon="-2.7676766">
        <ele>134.419</ele>
        <time>2021-04-01T09:15:56.419Z</time>
      </trkpt>
      <trkpt lat="43.1184424" lon="-2.7676778">
        <ele>134.459</ele>
        <time>2021-04-01T09:15:56.474Z</time>
      </trkpt>
      <trkpt lat="43.1184464" lon="-2.7676793">
        <ele>134.475</ele>
        <time>2021-04-01T09:15:56.529Z</time>
      </trkpt>
      <trkpt lat="43.1184501" lon="-2.7676809">
        <ele>134.495</ele>
        <time>2021-04-01T09:15:56.584Z</time>
      </trkpt>
      <trkpt lat="43.1184541" lon="-2.7676824">
        <ele>134.498</ele>
        <time>2021-04-01T09:15:56.639Z</time>
      </trkpt>
      <trkpt lat="43.118458" lon="-2.7676839">
        <ele>134.49</ele>
        <time>2021-04-01T09:15:56.694Z</time>
      </trkpt>
      <trkpt lat="43.1184619" lon="-2.7676854">
        <ele>134.488</ele>
        <time>2021-04-01T09:15:56.749Z</time>
      </trkpt>
      <trkpt lat="43.1184658" lon="-2.767687">
        <ele>134.511</ele>
        <time>2021-04-01T09:15:56.804Z</time>
      </trkpt>
      <trkpt lat="43.1184696" lon="-2.7676885">
        <ele>134.511</ele>
        <time>2021-04-01T09:15:56.859Z</time>
      </trkpt>
      <trkpt lat="43.1184735" lon="-2.7676901">
        <ele>134.514</ele>
        <time>2021-04-01T09:15:56.914Z</time>
      </trkpt>
      <trkpt lat="43.1184775" lon="-2.7676914">
        <ele>134.498</ele>
        <time>2021-04-01T09:15:56.969Z</time>
      </trkpt>
      <trkpt lat="43.1184812" lon="-2.7676929">
        <ele>134.485</ele>
        <time>2021-04-01T09:15:57.024Z</time>
      </trkpt>
      <trkpt lat="43.1184851" lon="-2.7676945">
        <ele>134.466</ele>
        <time>2021-04-01T09:15:57.079Z</time>
      </trkpt>
      <trkpt lat="43.1184889" lon="-2.7676961">
        <ele>134.469</ele>
        <time>2021-04-01T09:15:57.134Z</time>
      </trkpt>
      <trkpt lat="43.1184928" lon="-2.7676975">
        <ele>134.478</ele>
        <time>2021-04-01T09:15:57.189Z</time>
      </trkpt>
      <trkpt lat="43.1184967" lon="-2.7676991">
        <ele>134.482</ele>
        <time>2021-04-01T09:15:57.244Z</time>
      </trkpt>
      <trkpt lat="43.1185004" lon="-2.7677008">
        <ele>134.467</ele>
        <time>2021-04-01T09:15:57.299Z</time>
      </trkpt>
      <trkpt lat="43.1185043" lon="-2.7677023">
        <ele>134.474</ele>
        <time>2021-04-01T09:15:57.354Z</time>
      </trkpt>
      <trkpt lat="43.1185083" lon="-2.7677038">
        <ele>134.482</ele>
        <time>2021-04-01T09:15:57.409Z</time>
      </trkpt>
      <trkpt lat="43.1185122" lon="-2.7677054">
        <ele>134.483</ele>
        <time>2021-04-01T09:15:57.464Z</time>
      </trkpt>
      <trkpt lat="43.1185159" lon="-2.7677071">
        <ele>134.501</ele>
        <time>2021-04-01T09:15:57.519Z</time>
      </trkpt>
      <trkpt lat="43.1185197" lon="-2.7677086">
        <ele>134.543</ele>
        <time>2021-04-01T09:15:57.574Z</time>
      </trkpt>
      <trkpt lat="43.1185236" lon="-2.76771">
        <ele>134.563</ele>
        <time>2021-04-01T09:15:57.629Z</time>
      </trkpt>
      <trkpt lat="43.1185275" lon="-2.7677114">
        <ele>134.538</ele>
        <time>2021-04-01T09:15:57.684Z</time>
      </trkpt>
      <trkpt lat="43.1185313" lon="-2.7677129">
        <ele>134.514</ele>
        <time>2021-04-01T09:15:57.739Z</time>
      </trkpt>
      <trkpt lat="43.1185351" lon="-2.7677144">
        <ele>134.492</ele>
        <time>2021-04-01T09:15:57.794Z</time>
      </trkpt>
      <trkpt lat="43.1185391" lon="-2.767716">
        <ele>134.505</ele>
        <time>2021-04-01T09:15:57.849Z</time>
      </trkpt>
      <trkpt lat="43.1185429" lon="-2.7677175">
        <ele>134.485</ele>
        <time>2021-04-01T09:15:57.904Z</time>
      </trkpt>
      <trkpt lat="43.1185469" lon="-2.7677191">
        <ele>134.517</ele>
        <time>2021-04-01T09:15:57.959Z</time>
      </trkpt>
      <trkpt lat="43.118551" lon="-2.7677206">
        <ele>134.564</ele>
        <time>2021-04-01T09:15:58.014Z</time>
      </trkpt>
      <trkpt lat="43.1185549" lon="-2.7677221">
        <ele>134.59</ele>
        <time>2021-04-01T09:15:58.069Z</time>
      </trkpt>
      <trkpt lat="43.118559" lon="-2.7677236">
        <ele>134.603</ele>
        <time>2021-04-01T09:15:58.124Z</time>
      </trkpt>
      <trkpt lat="43.1185627" lon="-2.7677251">
        <ele>134.578</ele>
        <time>2021-04-01T09:15:58.179Z</time>
      </trkpt>
      <trkpt lat="43.1185664" lon="-2.7677265">
        <ele>134.544</ele>
        <time>2021-04-01T09:15:58.234Z</time>
      </trkpt>
      <trkpt lat="43.1185703" lon="-2.7677278">
        <ele>134.533</ele>
        <time>2021-04-01T09:15:58.289Z</time>
      </trkpt>
      <trkpt lat="43.118574" lon="-2.7677293">
        <ele>134.511</ele>
        <time>2021-04-01T09:15:58.344Z</time>
      </trkpt>
      <trkpt lat="43.1185779" lon="-2.7677307">
        <ele>134.549</ele>
        <time>2021-04-01T09:15:58.399Z</time>
      </trkpt>
      <trkpt lat="43.1185815" lon="-2.7677322">
        <ele>134.454</ele>
        <time>2021-04-01T09:15:58.454Z</time>
      </trkpt>
      <trkpt lat="43.1185853" lon="-2.7677339">
        <ele>134.44</ele>
        <time>2021-04-01T09:15:58.509Z</time>
      </trkpt>
      <trkpt lat="43.118589" lon="-2.7677355">
        <ele>134.457</ele>
        <time>2021-04-01T09:15:58.564Z</time>
      </trkpt>
      <trkpt lat="43.1185928" lon="-2.7677371">
        <ele>134.486</ele>
        <time>2021-04-01T09:15:58.619Z</time>
      </trkpt>
      <trkpt lat="43.1185965" lon="-2.7677389">
        <ele>134.53</ele>
        <time>2021-04-01T09:15:58.674Z</time>
      </trkpt>
      <trkpt lat="43.1186002" lon="-2.7677406">
        <ele>134.479</ele>
        <time>2021-04-01T09:15:58.729Z</time>
      </trkpt>
      <trkpt lat="43.1186039" lon="-2.7677425">
        <ele>134.489</ele>
        <time>2021-04-01T09:15:58.784Z</time>
      </trkpt>
      <trkpt lat="43.1186078" lon="-2.7677443">
        <ele>134.52</ele>
        <time>2021-04-01T09:15:58.839Z</time>
      </trkpt>
      <trkpt lat="43.1186116" lon="-2.7677459">
        <ele>134.52</ele>
        <time>2021-04-01T09:15:58.894Z</time>
      </trkpt>
      <trkpt lat="43.1186153" lon="-2.7677476">
        <ele>134.496</ele>
        <time>2021-04-01T09:15:58.949Z</time>
      </trkpt>
      <trkpt lat="43.1186189" lon="-2.7677496">
        <ele>134.497</ele>
        <time>2021-04-01T09:15:59.004Z</time>
      </trkpt>
      <trkpt lat="43.1186223" lon="-2.7677519">
        <ele>134.484</ele>
        <time>2021-04-01T09:15:59.059Z</time>
      </trkpt>
      <trkpt lat="43.1186258" lon="-2.7677535">
        <ele>134.466</ele>
        <time>2021-04-01T09:15:59.114Z</time>
      </trkpt>
      <trkpt lat="43.1186296" lon="-2.7677545">
        <ele>134.46</ele>
        <time>2021-04-01T09:15:59.169Z</time>
      </trkpt>
      <trkpt lat="43.1186331" lon="-2.7677562">
        <ele>134.455</ele>
        <time>2021-04-01T09:15:59.224Z</time>
      </trkpt>
      <trkpt lat="43.1186363" lon="-2.7677576">
        <ele>134.417</ele>
        <time>2021-04-01T09:15:59.279Z</time>
      </trkpt>
      <trkpt lat="43.1186398" lon="-2.767759">
        <ele>134.394</ele>
        <time>2021-04-01T09:15:59.334Z</time>
      </trkpt>
      <trkpt lat="43.1186432" lon="-2.7677605">
        <ele>134.384</ele>
        <time>2021-04-01T09:15:59.389Z</time>
      </trkpt>
      <trkpt lat="43.1186466" lon="-2.7677619">
        <ele>134.38</ele>
        <time>2021-04-01T09:15:59.444Z</time>
      </trkpt>
      <trkpt lat="43.1186504" lon="-2.7677635">
        <ele>134.376</ele>
        <time>2021-04-01T09:15:59.499Z</time>
      </trkpt>
      <trkpt lat="43.1186544" lon="-2.7677652">
        <ele>134.387</ele>
        <time>2021-04-01T09:15:59.554Z</time>
      </trkpt>
      <trkpt lat="43.1186583" lon="-2.7677669">
        <ele>134.384</ele>
        <time>2021-04-01T09:15:59.609Z</time>
      </trkpt>
      <trkpt lat="43.118662" lon="-2.7677688">
        <ele>134.384</ele>
        <time>2021-04-01T09:15:59.664Z</time>
      </trkpt>
      <trkpt lat="43.1186656" lon="-2.7677703">
        <ele>134.327</ele>
        <time>2021-04-01T09:15:59.719Z</time>
      </trkpt>
      <trkpt lat="43.1186689" lon="-2.7677721">
        <ele>134.314</ele>
        <time>2021-04-01T09:15:59.774Z</time>
      </trkpt>
      <trkpt lat="43.1186723" lon="-2.767774">
        <ele>134.345</ele>
        <time>2021-04-01T09:15:59.829Z</time>
      </trkpt>
      <trkpt lat="43.1186757" lon="-2.7677757">
        <ele>134.342</ele>
        <time>2021-04-01T09:15:59.884Z</time>
      </trkpt>
      <trkpt lat="43.1186792" lon="-2.7677772">
        <ele>134.346</ele>
        <time>2021-04-01T09:15:59.939Z</time>
      </trkpt>
      <trkpt lat="43.1186828" lon="-2.7677787">
        <ele>134.339</ele>
        <time>2021-04-01T09:15:59.994Z</time>
      </trkpt>
      <trkpt lat="43.1186865" lon="-2.7677802">
        <ele>134.318</ele>
        <time>2021-04-01T09:16:00.049Z</time>
      </trkpt>
      <trkpt lat="43.1186903" lon="-2.7677819">
        <ele>134.299</ele>
        <time>2021-04-01T09:16:00.104Z</time>
      </trkpt>
      <trkpt lat="43.1186939" lon="-2.7677836">
        <ele>134.277</ele>
        <time>2021-04-01T09:16:00.159Z</time>
      </trkpt>
      <trkpt lat="43.1186977" lon="-2.7677853">
        <ele>134.254</ele>
        <time>2021-04-01T09:16:00.214Z</time>
      </trkpt>
      <trkpt lat="43.1187014" lon="-2.7677868">
        <ele>134.228</ele>
        <time>2021-04-01T09:16:00.269Z</time>
      </trkpt>
      <trkpt lat="43.118705" lon="-2.7677886">
        <ele>134.23</ele>
        <time>2021-04-01T09:16:00.324Z</time>
      </trkpt>
      <trkpt lat="43.1187088" lon="-2.7677898">
        <ele>134.216</ele>
        <time>2021-04-01T09:16:00.379Z</time>
      </trkpt>
      <trkpt lat="43.1187127" lon="-2.7677916">
        <ele>134.205</ele>
        <time>2021-04-01T09:16:00.434Z</time>
      </trkpt>
      <trkpt lat="43.1187164" lon="-2.7677935">
        <ele>134.194</ele>
        <time>2021-04-01T09:16:00.489Z</time>
      </trkpt>
      <trkpt lat="43.11872" lon="-2.7677953">
        <ele>134.163</ele>
        <time>2021-04-01T09:16:00.544Z</time>
      </trkpt>
      <trkpt lat="43.1187239" lon="-2.7677966">
        <ele>134.145</ele>
        <time>2021-04-01T09:16:00.599Z</time>
      </trkpt>
      <trkpt lat="43.1187277" lon="-2.7677982">
        <ele>134.148</ele>
        <time>2021-04-01T09:16:00.654Z</time>
      </trkpt>
      <trkpt lat="43.1187314" lon="-2.7677999">
        <ele>134.154</ele>
        <time>2021-04-01T09:16:00.709Z</time>
      </trkpt>
      <trkpt lat="43.118735" lon="-2.7678014">
        <ele>134.142</ele>
        <time>2021-04-01T09:16:00.764Z</time>
      </trkpt>
      <trkpt lat="43.1187387" lon="-2.7678031">
        <ele>134.127</ele>
        <time>2021-04-01T09:16:00.819Z</time>
      </trkpt>
      <trkpt lat="43.1187421" lon="-2.7678045">
        <ele>134.117</ele>
        <time>2021-04-01T09:16:00.874Z</time>
      </trkpt>
      <trkpt lat="43.1187455" lon="-2.7678057">
        <ele>134.135</ele>
        <time>2021-04-01T09:16:00.929Z</time>
      </trkpt>
      <trkpt lat="43.1187495" lon="-2.7678071">
        <ele>134.13</ele>
        <time>2021-04-01T09:16:00.984Z</time>
      </trkpt>
      <trkpt lat="43.1187534" lon="-2.7678085">
        <ele>134.073</ele>
        <time>2021-04-01T09:16:01.039Z</time>
      </trkpt>
      <trkpt lat="43.1187571" lon="-2.76781">
        <ele>134.017</ele>
        <time>2021-04-01T09:16:01.094Z</time>
      </trkpt>
      <trkpt lat="43.1187608" lon="-2.7678123">
        <ele>134.044</ele>
        <time>2021-04-01T09:16:01.149Z</time>
      </trkpt>
      <trkpt lat="43.1187643" lon="-2.7678135">
        <ele>134.061</ele>
        <time>2021-04-01T09:16:01.204Z</time>
      </trkpt>
      <trkpt lat="43.1187681" lon="-2.7678151">
        <ele>134.054</ele>
        <time>2021-04-01T09:16:01.259Z</time>
      </trkpt>
      <trkpt lat="43.118772" lon="-2.7678165">
        <ele>134.066</ele>
        <time>2021-04-01T09:16:01.314Z</time>
      </trkpt>
      <trkpt lat="43.1187754" lon="-2.7678177">
        <ele>134.068</ele>
        <time>2021-04-01T09:16:01.369Z</time>
      </trkpt>
      <trkpt lat="43.1187791" lon="-2.7678192">
        <ele>134.077</ele>
        <time>2021-04-01T09:16:01.424Z</time>
      </trkpt>
      <trkpt lat="43.1187829" lon="-2.7678209">
        <ele>134.08</ele>
        <time>2021-04-01T09:16:01.479Z</time>
      </trkpt>
      <trkpt lat="43.1187865" lon="-2.7678224">
        <ele>134.048</ele>
        <time>2021-04-01T09:16:01.534Z</time>
      </trkpt>
      <trkpt lat="43.1187902" lon="-2.7678235">
        <ele>134.051</ele>
        <time>2021-04-01T09:16:01.589Z</time>
      </trkpt>
      <trkpt lat="43.1187939" lon="-2.7678246">
        <ele>134.047</ele>
        <time>2021-04-01T09:16:01.644Z</time>
      </trkpt>
      <trkpt lat="43.1187973" lon="-2.7678254">
        <ele>134.076</ele>
        <time>2021-04-01T09:16:01.699Z</time>
      </trkpt>
      <trkpt lat="43.1188007" lon="-2.7678271">
        <ele>134.124</ele>
        <time>2021-04-01T09:16:01.754Z</time>
      </trkpt>
      <trkpt lat="43.1188044" lon="-2.7678285">
        <ele>134.195</ele>
        <time>2021-04-01T09:16:01.809Z</time>
      </trkpt>
      <trkpt lat="43.1188079" lon="-2.76783">
        <ele>134.181</ele>
        <time>2021-04-01T09:16:01.864Z</time>
      </trkpt>
      <trkpt lat="43.1188115" lon="-2.767832">
        <ele>134.2</ele>
        <time>2021-04-01T09:16:01.919Z</time>
      </trkpt>
      <trkpt lat="43.1188151" lon="-2.7678335">
        <ele>134.222</ele>
        <time>2021-04-01T09:16:01.974Z</time>
      </trkpt>
      <trkpt lat="43.1188189" lon="-2.7678349">
        <ele>134.221</ele>
        <time>2021-04-01T09:16:02.029Z</time>
      </trkpt>
      <trkpt lat="43.1188226" lon="-2.7678364">
        <ele>134.242</ele>
        <time>2021-04-01T09:16:02.084Z</time>
      </trkpt>
      <trkpt lat="43.1188261" lon="-2.7678378">
        <ele>134.252</ele>
        <time>2021-04-01T09:16:02.139Z</time>
      </trkpt>
      <trkpt lat="43.1188299" lon="-2.767839">
        <ele>134.294</ele>
        <time>2021-04-01T09:16:02.194Z</time>
      </trkpt>
      <trkpt lat="43.1188333" lon="-2.7678405">
        <ele>134.284</ele>
        <time>2021-04-01T09:16:02.249Z</time>
      </trkpt>
      <trkpt lat="43.1188371" lon="-2.7678421">
        <ele>134.304</ele>
        <time>2021-04-01T09:16:02.304Z</time>
      </trkpt>
      <trkpt lat="43.1188407" lon="-2.7678437">
        <ele>134.311</ele>
        <time>2021-04-01T09:16:02.359Z</time>
      </trkpt>
      <trkpt lat="43.1188444" lon="-2.7678452">
        <ele>134.328</ele>
        <time>2021-04-01T09:16:02.414Z</time>
      </trkpt>
      <trkpt lat="43.118848" lon="-2.7678466">
        <ele>134.34</ele>
        <time>2021-04-01T09:16:02.469Z</time>
      </trkpt>
      <trkpt lat="43.1188516" lon="-2.767848">
        <ele>134.367</ele>
        <time>2021-04-01T09:16:02.524Z</time>
      </trkpt>
      <trkpt lat="43.1188551" lon="-2.7678493">
        <ele>134.376</ele>
        <time>2021-04-01T09:16:02.579Z</time>
      </trkpt>
      <trkpt lat="43.1188587" lon="-2.7678506">
        <ele>134.378</ele>
        <time>2021-04-01T09:16:02.634Z</time>
      </trkpt>
      <trkpt lat="43.1188623" lon="-2.7678518">
        <ele>134.365</ele>
        <time>2021-04-01T09:16:02.689Z</time>
      </trkpt>
      <trkpt lat="43.1188658" lon="-2.767853">
        <ele>134.374</ele>
        <time>2021-04-01T09:16:02.744Z</time>
      </trkpt>
      <trkpt lat="43.1188693" lon="-2.7678543">
        <ele>134.381</ele>
        <time>2021-04-01T09:16:02.799Z</time>
      </trkpt>
      <trkpt lat="43.1188734" lon="-2.767856">
        <ele>134.39</ele>
        <time>2021-04-01T09:16:02.854Z</time>
      </trkpt>
      <trkpt lat="43.118877" lon="-2.7678573">
        <ele>134.396</ele>
        <time>2021-04-01T09:16:02.909Z</time>
      </trkpt>
      <trkpt lat="43.1188805" lon="-2.7678585">
        <ele>134.413</ele>
        <time>2021-04-01T09:16:02.964Z</time>
      </trkpt>
      <trkpt lat="43.1188844" lon="-2.7678601">
        <ele>134.418</ele>
        <time>2021-04-01T09:16:03.019Z</time>
      </trkpt>
      <trkpt lat="43.1188881" lon="-2.7678615">
        <ele>134.443</ele>
        <time>2021-04-01T09:16:03.074Z</time>
      </trkpt>
      <trkpt lat="43.1188918" lon="-2.7678629">
        <ele>134.443</ele>
        <time>2021-04-01T09:16:03.129Z</time>
      </trkpt>
      <trkpt lat="43.1188954" lon="-2.7678641">
        <ele>134.434</ele>
        <time>2021-04-01T09:16:03.184Z</time>
      </trkpt>
      <trkpt lat="43.1188991" lon="-2.7678655">
        <ele>134.423</ele>
        <time>2021-04-01T09:16:03.239Z</time>
      </trkpt>
      <trkpt lat="43.1189029" lon="-2.7678673">
        <ele>134.408</ele>
        <time>2021-04-01T09:16:03.294Z</time>
      </trkpt>
      <trkpt lat="43.1189065" lon="-2.7678689">
        <ele>134.414</ele>
        <time>2021-04-01T09:16:03.349Z</time>
      </trkpt>
      <trkpt lat="43.1189101" lon="-2.7678705">
        <ele>134.407</ele>
        <time>2021-04-01T09:16:03.404Z</time>
      </trkpt>
      <trkpt lat="43.1189135" lon="-2.7678721">
        <ele>134.406</ele>
        <time>2021-04-01T09:16:03.459Z</time>
      </trkpt>
      <trkpt lat="43.118917" lon="-2.7678737">
        <ele>134.433</ele>
        <time>2021-04-01T09:16:03.514Z</time>
      </trkpt>
      <trkpt lat="43.1189206" lon="-2.7678758">
        <ele>134.458</ele>
        <time>2021-04-01T09:16:03.569Z</time>
      </trkpt>
      <trkpt lat="43.1189239" lon="-2.767879">
        <ele>134.448</ele>
        <time>2021-04-01T09:16:03.624Z</time>
      </trkpt>
      <trkpt lat="43.1189274" lon="-2.7678814">
        <ele>134.425</ele>
        <time>2021-04-01T09:16:03.679Z</time>
      </trkpt>
      <trkpt lat="43.1189306" lon="-2.7678824">
        <ele>134.44</ele>
        <time>2021-04-01T09:16:03.734Z</time>
      </trkpt>
      <trkpt lat="43.118934" lon="-2.7678839">
        <ele>134.426</ele>
        <time>2021-04-01T09:16:03.789Z</time>
      </trkpt>
      <trkpt lat="43.1189375" lon="-2.7678856">
        <ele>134.396</ele>
        <time>2021-04-01T09:16:03.844Z</time>
      </trkpt>
      <trkpt lat="43.118941" lon="-2.7678878">
        <ele>134.365</ele>
        <time>2021-04-01T09:16:03.899Z</time>
      </trkpt>
      <trkpt lat="43.1189442" lon="-2.7678895">
        <ele>134.307</ele>
        <time>2021-04-01T09:16:03.954Z</time>
      </trkpt>
      <trkpt lat="43.1189472" lon="-2.7678922">
        <ele>134.314</ele>
        <time>2021-04-01T09:16:04.009Z</time>
      </trkpt>
      <trkpt lat="43.1189501" lon="-2.767894">
        <ele>134.383</ele>
        <time>2021-04-01T09:16:04.064Z</time>
      </trkpt>
      <trkpt lat="43.118953" lon="-2.7678956">
        <ele>134.34</ele>
        <time>2021-04-01T09:16:04.119Z</time>
      </trkpt>
      <trkpt lat="43.1189559" lon="-2.7678974">
        <ele>134.305</ele>
        <time>2021-04-01T09:16:04.174Z</time>
      </trkpt>
      <trkpt lat="43.1189591" lon="-2.7678992">
        <ele>134.312</ele>
        <time>2021-04-01T09:16:04.229Z</time>
      </trkpt>
      <trkpt lat="43.1189623" lon="-2.7679019">
        <ele>134.31</ele>
        <time>2021-04-01T09:16:04.284Z</time>
      </trkpt>
      <trkpt lat="43.1189655" lon="-2.7679042">
        <ele>134.294</ele>
        <time>2021-04-01T09:16:04.339Z</time>
      </trkpt>
      <trkpt lat="43.1189686" lon="-2.7679064">
        <ele>134.376</ele>
        <time>2021-04-01T09:16:04.394Z</time>
      </trkpt>
      <trkpt lat="43.1189721" lon="-2.7679088">
        <ele>134.339</ele>
        <time>2021-04-01T09:16:04.449Z</time>
      </trkpt>
      <trkpt lat="43.1189752" lon="-2.7679109">
        <ele>134.371</ele>
        <time>2021-04-01T09:16:04.504Z</time>
      </trkpt>
      <trkpt lat="43.1189786" lon="-2.7679127">
        <ele>134.381</ele>
        <time>2021-04-01T09:16:04.559Z</time>
      </trkpt>
      <trkpt lat="43.1189823" lon="-2.7679146">
        <ele>134.401</ele>
        <time>2021-04-01T09:16:04.614Z</time>
      </trkpt>
      <trkpt lat="43.1189855" lon="-2.7679164">
        <ele>134.361</ele>
        <time>2021-04-01T09:16:04.669Z</time>
      </trkpt>
      <trkpt lat="43.1189891" lon="-2.7679181">
        <ele>134.331</ele>
        <time>2021-04-01T09:16:04.724Z</time>
      </trkpt>
      <trkpt lat="43.1189925" lon="-2.7679198">
        <ele>134.287</ele>
        <time>2021-04-01T09:16:04.779Z</time>
      </trkpt>
      <trkpt lat="43.1189958" lon="-2.767922">
        <ele>134.191</ele>
        <time>2021-04-01T09:16:04.834Z</time>
      </trkpt>
      <trkpt lat="43.1189989" lon="-2.7679236">
        <ele>134.184</ele>
        <time>2021-04-01T09:16:04.889Z</time>
      </trkpt>
      <trkpt lat="43.1190023" lon="-2.7679255">
        <ele>134.175</ele>
        <time>2021-04-01T09:16:04.944Z</time>
      </trkpt>
      <trkpt lat="43.1190058" lon="-2.7679274">
        <ele>134.156</ele>
        <time>2021-04-01T09:16:04.999Z</time>
      </trkpt>
      <trkpt lat="43.1190102" lon="-2.7679296">
        <ele>134.186</ele>
        <time>2021-04-01T09:16:05.054Z</time>
      </trkpt>
      <trkpt lat="43.119013" lon="-2.7679305">
        <ele>134.208</ele>
        <time>2021-04-01T09:16:05.109Z</time>
      </trkpt>
      <trkpt lat="43.1190163" lon="-2.7679314">
        <ele>134.242</ele>
        <time>2021-04-01T09:16:05.164Z</time>
      </trkpt>
      <trkpt lat="43.1190195" lon="-2.7679322">
        <ele>134.268</ele>
        <time>2021-04-01T09:16:05.219Z</time>
      </trkpt>
      <trkpt lat="43.1190227" lon="-2.7679334">
        <ele>134.305</ele>
        <time>2021-04-01T09:16:05.274Z</time>
      </trkpt>
      <trkpt lat="43.1190265" lon="-2.7679346">
        <ele>134.363</ele>
        <time>2021-04-01T09:16:05.329Z</time>
      </trkpt>
      <trkpt lat="43.1190305" lon="-2.7679369">
        <ele>134.349</ele>
        <time>2021-04-01T09:16:05.384Z</time>
      </trkpt>
      <trkpt lat="43.1190342" lon="-2.7679389">
        <ele>134.29</ele>
        <time>2021-04-01T09:16:05.439Z</time>
      </trkpt>
      <trkpt lat="43.1190375" lon="-2.7679404">
        <ele>134.273</ele>
        <time>2021-04-01T09:16:05.494Z</time>
      </trkpt>
      <trkpt lat="43.1190408" lon="-2.7679419">
        <ele>134.292</ele>
        <time>2021-04-01T09:16:05.549Z</time>
      </trkpt>
      <trkpt lat="43.1190441" lon="-2.767943">
        <ele>134.299</ele>
        <time>2021-04-01T09:16:05.604Z</time>
      </trkpt>
      <trkpt lat="43.119048" lon="-2.7679443">
        <ele>134.283</ele>
        <time>2021-04-01T09:16:05.659Z</time>
      </trkpt>
      <trkpt lat="43.1190518" lon="-2.7679465">
        <ele>134.316</ele>
        <time>2021-04-01T09:16:05.714Z</time>
      </trkpt>
      <trkpt lat="43.1190553" lon="-2.7679487">
        <ele>134.359</ele>
        <time>2021-04-01T09:16:05.769Z</time>
      </trkpt>
      <trkpt lat="43.1190588" lon="-2.7679503">
        <ele>134.319</ele>
        <time>2021-04-01T09:16:05.824Z</time>
      </trkpt>
      <trkpt lat="43.1190617" lon="-2.7679511">
        <ele>134.419</ele>
        <time>2021-04-01T09:16:05.879Z</time>
      </trkpt>
      <trkpt lat="43.1190652" lon="-2.7679532">
        <ele>134.361</ele>
        <time>2021-04-01T09:16:05.934Z</time>
      </trkpt>
      <trkpt lat="43.119069" lon="-2.7679554">
        <ele>134.296</ele>
        <time>2021-04-01T09:16:05.989Z</time>
      </trkpt>
      <trkpt lat="43.1190729" lon="-2.7679577">
        <ele>134.216</ele>
        <time>2021-04-01T09:16:06.044Z</time>
      </trkpt>
      <trkpt lat="43.1190766" lon="-2.7679595">
        <ele>134.193</ele>
        <time>2021-04-01T09:16:06.099Z</time>
      </trkpt>
      <trkpt lat="43.1190802" lon="-2.7679613">
        <ele>134.178</ele>
        <time>2021-04-01T09:16:06.154Z</time>
      </trkpt>
      <trkpt lat="43.1190836" lon="-2.7679629">
        <ele>134.225</ele>
        <time>2021-04-01T09:16:06.209Z</time>
      </trkpt>
      <trkpt lat="43.1190871" lon="-2.7679645">
        <ele>134.205</ele>
        <time>2021-04-01T09:16:06.264Z</time>
      </trkpt>
      <trkpt lat="43.1190907" lon="-2.7679659">
        <ele>134.162</ele>
        <time>2021-04-01T09:16:06.319Z</time>
      </trkpt>
      <trkpt lat="43.1190943" lon="-2.7679672">
        <ele>134.182</ele>
        <time>2021-04-01T09:16:06.374Z</time>
      </trkpt>
      <trkpt lat="43.1190981" lon="-2.7679685">
        <ele>134.224</ele>
        <time>2021-04-01T09:16:06.429Z</time>
      </trkpt>
      <trkpt lat="43.1191016" lon="-2.7679698">
        <ele>134.315</ele>
        <time>2021-04-01T09:16:06.484Z</time>
      </trkpt>
      <trkpt lat="43.1191048" lon="-2.7679711">
        <ele>134.354</ele>
        <time>2021-04-01T09:16:06.539Z</time>
      </trkpt>
      <trkpt lat="43.1191082" lon="-2.7679727">
        <ele>134.407</ele>
        <time>2021-04-01T09:16:06.594Z</time>
      </trkpt>
      <trkpt lat="43.1191118" lon="-2.7679742">
        <ele>134.376</ele>
        <time>2021-04-01T09:16:06.649Z</time>
      </trkpt>
      <trkpt lat="43.1191156" lon="-2.7679759">
        <ele>134.327</ele>
        <time>2021-04-01T09:16:06.704Z</time>
      </trkpt>
      <trkpt lat="43.1191195" lon="-2.7679774">
        <ele>134.283</ele>
        <time>2021-04-01T09:16:06.759Z</time>
      </trkpt>
      <trkpt lat="43.1191231" lon="-2.7679794">
        <ele>134.267</ele>
        <time>2021-04-01T09:16:06.814Z</time>
      </trkpt>
      <trkpt lat="43.1191267" lon="-2.767981">
        <ele>134.294</ele>
        <time>2021-04-01T09:16:06.869Z</time>
      </trkpt>
      <trkpt lat="43.1191306" lon="-2.7679824">
        <ele>134.227</ele>
        <time>2021-04-01T09:16:06.924Z</time>
      </trkpt>
      <trkpt lat="43.1191342" lon="-2.7679835">
        <ele>134.211</ele>
        <time>2021-04-01T09:16:06.979Z</time>
      </trkpt>
      <trkpt lat="43.1191377" lon="-2.7679851">
        <ele>134.157</ele>
        <time>2021-04-01T09:16:07.034Z</time>
      </trkpt>
      <trkpt lat="43.1191414" lon="-2.7679867">
        <ele>134.066</ele>
        <time>2021-04-01T09:16:07.089Z</time>
      </trkpt>
      <trkpt lat="43.1191451" lon="-2.7679881">
        <ele>134.036</ele>
        <time>2021-04-01T09:16:07.144Z</time>
      </trkpt>
      <trkpt lat="43.1191485" lon="-2.7679892">
        <ele>134.071</ele>
        <time>2021-04-01T09:16:07.199Z</time>
      </trkpt>
      <trkpt lat="43.1191522" lon="-2.7679909">
        <ele>133.988</ele>
        <time>2021-04-01T09:16:07.254Z</time>
      </trkpt>
      <trkpt lat="43.1191562" lon="-2.7679927">
        <ele>133.916</ele>
        <time>2021-04-01T09:16:07.309Z</time>
      </trkpt>
      <trkpt lat="43.1191601" lon="-2.7679941">
        <ele>133.908</ele>
        <time>2021-04-01T09:16:07.364Z</time>
      </trkpt>
      <trkpt lat="43.1191636" lon="-2.7679954">
        <ele>133.974</ele>
        <time>2021-04-01T09:16:07.419Z</time>
      </trkpt>
      <trkpt lat="43.1191669" lon="-2.7679971">
        <ele>134.046</ele>
        <time>2021-04-01T09:16:07.474Z</time>
      </trkpt>
      <trkpt lat="43.1191702" lon="-2.7679986">
        <ele>134.078</ele>
        <time>2021-04-01T09:16:07.529Z</time>
      </trkpt>
      <trkpt lat="43.1191735" lon="-2.7680004">
        <ele>134.102</ele>
        <time>2021-04-01T09:16:07.584Z</time>
      </trkpt>
      <trkpt lat="43.1191771" lon="-2.7680021">
        <ele>134.095</ele>
        <time>2021-04-01T09:16:07.639Z</time>
      </trkpt>
      <trkpt lat="43.1191806" lon="-2.7680036">
        <ele>134.113</ele>
        <time>2021-04-01T09:16:07.694Z</time>
      </trkpt>
      <trkpt lat="43.1191842" lon="-2.7680051">
        <ele>134.075</ele>
        <time>2021-04-01T09:16:07.749Z</time>
      </trkpt>
      <trkpt lat="43.1191877" lon="-2.7680066">
        <ele>133.998</ele>
        <time>2021-04-01T09:16:07.804Z</time>
      </trkpt>
      <trkpt lat="43.1191913" lon="-2.7680082">
        <ele>133.916</ele>
        <time>2021-04-01T09:16:07.859Z</time>
      </trkpt>
      <trkpt lat="43.119195" lon="-2.7680098">
        <ele>133.853</ele>
        <time>2021-04-01T09:16:07.914Z</time>
      </trkpt>
      <trkpt lat="43.1191987" lon="-2.7680111">
        <ele>133.795</ele>
        <time>2021-04-01T09:16:07.969Z</time>
      </trkpt>
      <trkpt lat="43.1192023" lon="-2.7680121">
        <ele>133.778</ele>
        <time>2021-04-01T09:16:08.024Z</time>
      </trkpt>
      <trkpt lat="43.1192062" lon="-2.7680132">
        <ele>133.752</ele>
        <time>2021-04-01T09:16:08.079Z</time>
      </trkpt>
      <trkpt lat="43.1192099" lon="-2.7680146">
        <ele>133.725</ele>
        <time>2021-04-01T09:16:08.134Z</time>
      </trkpt>
      <trkpt lat="43.1192136" lon="-2.7680161">
        <ele>133.661</ele>
        <time>2021-04-01T09:16:08.189Z</time>
      </trkpt>
      <trkpt lat="43.1192168" lon="-2.7680177">
        <ele>133.569</ele>
        <time>2021-04-01T09:16:08.244Z</time>
      </trkpt>
      <trkpt lat="43.1192202" lon="-2.7680192">
        <ele>133.549</ele>
        <time>2021-04-01T09:16:08.299Z</time>
      </trkpt>
      <trkpt lat="43.1192236" lon="-2.7680208">
        <ele>133.484</ele>
        <time>2021-04-01T09:16:08.354Z</time>
      </trkpt>
      <trkpt lat="43.1192276" lon="-2.7680222">
        <ele>133.464</ele>
        <time>2021-04-01T09:16:08.409Z</time>
      </trkpt>
      <trkpt lat="43.1192314" lon="-2.7680237">
        <ele>133.481</ele>
        <time>2021-04-01T09:16:08.464Z</time>
      </trkpt>
      <trkpt lat="43.1192352" lon="-2.7680252">
        <ele>133.521</ele>
        <time>2021-04-01T09:16:08.519Z</time>
      </trkpt>
      <trkpt lat="43.1192388" lon="-2.7680268">
        <ele>133.531</ele>
        <time>2021-04-01T09:16:08.574Z</time>
      </trkpt>
      <trkpt lat="43.1192423" lon="-2.7680285">
        <ele>133.505</ele>
        <time>2021-04-01T09:16:08.629Z</time>
      </trkpt>
      <trkpt lat="43.119246" lon="-2.7680299">
        <ele>133.477</ele>
        <time>2021-04-01T09:16:08.684Z</time>
      </trkpt>
      <trkpt lat="43.1192498" lon="-2.7680311">
        <ele>133.475</ele>
        <time>2021-04-01T09:16:08.739Z</time>
      </trkpt>
      <trkpt lat="43.1192537" lon="-2.7680323">
        <ele>133.478</ele>
        <time>2021-04-01T09:16:08.794Z</time>
      </trkpt>
      <trkpt lat="43.1192573" lon="-2.7680337">
        <ele>133.445</ele>
        <time>2021-04-01T09:16:08.849Z</time>
      </trkpt>
      <trkpt lat="43.1192607" lon="-2.768035">
        <ele>133.35</ele>
        <time>2021-04-01T09:16:08.904Z</time>
      </trkpt>
      <trkpt lat="43.1192645" lon="-2.7680361">
        <ele>133.273</ele>
        <time>2021-04-01T09:16:08.959Z</time>
      </trkpt>
      <trkpt lat="43.1192686" lon="-2.7680369">
        <ele>133.207</ele>
        <time>2021-04-01T09:16:09.014Z</time>
      </trkpt>
      <trkpt lat="43.1192725" lon="-2.768038">
        <ele>133.175</ele>
        <time>2021-04-01T09:16:09.069Z</time>
      </trkpt>
      <trkpt lat="43.1192762" lon="-2.7680393">
        <ele>133.145</ele>
        <time>2021-04-01T09:16:09.124Z</time>
      </trkpt>
      <trkpt lat="43.1192799" lon="-2.7680409">
        <ele>133.114</ele>
        <time>2021-04-01T09:16:09.179Z</time>
      </trkpt>
      <trkpt lat="43.1192837" lon="-2.7680423">
        <ele>133.087</ele>
        <time>2021-04-01T09:16:09.234Z</time>
      </trkpt>
      <trkpt lat="43.1192872" lon="-2.7680438">
        <ele>133.067</ele>
        <time>2021-04-01T09:16:09.289Z</time>
      </trkpt>
      <trkpt lat="43.1192909" lon="-2.7680452">
        <ele>133.057</ele>
        <time>2021-04-01T09:16:09.344Z</time>
      </trkpt>
      <trkpt lat="43.1192946" lon="-2.7680464">
        <ele>133.024</ele>
        <time>2021-04-01T09:16:09.399Z</time>
      </trkpt>
      <trkpt lat="43.1192974" lon="-2.768048">
        <ele>132.954</ele>
        <time>2021-04-01T09:16:09.454Z</time>
      </trkpt>
      <trkpt lat="43.1193008" lon="-2.7680493">
        <ele>132.921</ele>
        <time>2021-04-01T09:16:09.509Z</time>
      </trkpt>
      <trkpt lat="43.1193043" lon="-2.7680507">
        <ele>132.99</ele>
        <time>2021-04-01T09:16:09.564Z</time>
      </trkpt>
      <trkpt lat="43.1193079" lon="-2.7680527">
        <ele>133.007</ele>
        <time>2021-04-01T09:16:09.619Z</time>
      </trkpt>
      <trkpt lat="43.1193118" lon="-2.7680549">
        <ele>133.024</ele>
        <time>2021-04-01T09:16:09.674Z</time>
      </trkpt>
      <trkpt lat="43.1193158" lon="-2.7680572">
        <ele>133.063</ele>
        <time>2021-04-01T09:16:09.729Z</time>
      </trkpt>
      <trkpt lat="43.11932" lon="-2.768059">
        <ele>133.079</ele>
        <time>2021-04-01T09:16:09.784Z</time>
      </trkpt>
      <trkpt lat="43.1193239" lon="-2.7680614">
        <ele>133.095</ele>
        <time>2021-04-01T09:16:09.839Z</time>
      </trkpt>
      <trkpt lat="43.119327" lon="-2.7680629">
        <ele>133.088</ele>
        <time>2021-04-01T09:16:09.894Z</time>
      </trkpt>
      <trkpt lat="43.1193303" lon="-2.7680645">
        <ele>133.091</ele>
        <time>2021-04-01T09:16:09.949Z</time>
      </trkpt>
      <trkpt lat="43.1193331" lon="-2.7680652">
        <ele>133.077</ele>
        <time>2021-04-01T09:16:10.004Z</time>
      </trkpt>
      <trkpt lat="43.1193368" lon="-2.7680669">
        <ele>133.095</ele>
        <time>2021-04-01T09:16:10.059Z</time>
      </trkpt>
      <trkpt lat="43.1193407" lon="-2.7680685">
        <ele>133.124</ele>
        <time>2021-04-01T09:16:10.114Z</time>
      </trkpt>
      <trkpt lat="43.1193442" lon="-2.7680699">
        <ele>133.126</ele>
        <time>2021-04-01T09:16:10.169Z</time>
      </trkpt>
      <trkpt lat="43.1193478" lon="-2.7680712">
        <ele>133.107</ele>
        <time>2021-04-01T09:16:10.224Z</time>
      </trkpt>
      <trkpt lat="43.1193513" lon="-2.7680732">
        <ele>133.128</ele>
        <time>2021-04-01T09:16:10.279Z</time>
      </trkpt>
      <trkpt lat="43.1193549" lon="-2.7680744">
        <ele>133.166</ele>
        <time>2021-04-01T09:16:10.334Z</time>
      </trkpt>
      <trkpt lat="43.1193584" lon="-2.7680754">
        <ele>133.208</ele>
        <time>2021-04-01T09:16:10.389Z</time>
      </trkpt>
      <trkpt lat="43.119362" lon="-2.7680766">
        <ele>133.168</ele>
        <time>2021-04-01T09:16:10.444Z</time>
      </trkpt>
      <trkpt lat="43.1193657" lon="-2.7680776">
        <ele>133.186</ele>
        <time>2021-04-01T09:16:10.499Z</time>
      </trkpt>
      <trkpt lat="43.1193692" lon="-2.7680785">
        <ele>133.207</ele>
        <time>2021-04-01T09:16:10.554Z</time>
      </trkpt>
      <trkpt lat="43.1193727" lon="-2.7680797">
        <ele>133.221</ele>
        <time>2021-04-01T09:16:10.609Z</time>
      </trkpt>
      <trkpt lat="43.119376" lon="-2.7680816">
        <ele>133.223</ele>
        <time>2021-04-01T09:16:10.664Z</time>
      </trkpt>
      <trkpt lat="43.1193796" lon="-2.7680834">
        <ele>133.216</ele>
        <time>2021-04-01T09:16:10.719Z</time>
      </trkpt>
      <trkpt lat="43.1193831" lon="-2.7680849">
        <ele>133.219</ele>
        <time>2021-04-01T09:16:10.774Z</time>
      </trkpt>
      <trkpt lat="43.1193862" lon="-2.7680873">
        <ele>133.236</ele>
        <time>2021-04-01T09:16:10.829Z</time>
      </trkpt>
      <trkpt lat="43.1193898" lon="-2.7680894">
        <ele>133.233</ele>
        <time>2021-04-01T09:16:10.884Z</time>
      </trkpt>
      <trkpt lat="43.1193944" lon="-2.7680905">
        <ele>133.202</ele>
        <time>2021-04-01T09:16:10.939Z</time>
      </trkpt>
      <trkpt lat="43.1193981" lon="-2.7680927">
        <ele>133.207</ele>
        <time>2021-04-01T09:16:10.994Z</time>
      </trkpt>
      <trkpt lat="43.1194017" lon="-2.7680948">
        <ele>133.263</ele>
        <time>2021-04-01T09:16:11.049Z</time>
      </trkpt>
      <trkpt lat="43.1194049" lon="-2.7680973">
        <ele>133.36</ele>
        <time>2021-04-01T09:16:11.104Z</time>
      </trkpt>
      <trkpt lat="43.1194086" lon="-2.7680992">
        <ele>133.396</ele>
        <time>2021-04-01T09:16:11.159Z</time>
      </trkpt>
      <trkpt lat="43.1194122" lon="-2.7681011">
        <ele>133.419</ele>
        <time>2021-04-01T09:16:11.214Z</time>
      </trkpt>
      <trkpt lat="43.1194159" lon="-2.768103">
        <ele>133.409</ele>
        <time>2021-04-01T09:16:11.269Z</time>
      </trkpt>
      <trkpt lat="43.1194195" lon="-2.7681049">
        <ele>133.405</ele>
        <time>2021-04-01T09:16:11.324Z</time>
      </trkpt>
      <trkpt lat="43.119423" lon="-2.7681072">
        <ele>133.454</ele>
        <time>2021-04-01T09:16:11.379Z</time>
      </trkpt>
      <trkpt lat="43.1194265" lon="-2.7681092">
        <ele>133.431</ele>
        <time>2021-04-01T09:16:11.434Z</time>
      </trkpt>
      <trkpt lat="43.11943" lon="-2.7681112">
        <ele>133.424</ele>
        <time>2021-04-01T09:16:11.489Z</time>
      </trkpt>
      <trkpt lat="43.1194333" lon="-2.7681133">
        <ele>133.407</ele>
        <time>2021-04-01T09:16:11.544Z</time>
      </trkpt>
      <trkpt lat="43.1194371" lon="-2.7681152">
        <ele>133.417</ele>
        <time>2021-04-01T09:16:11.599Z</time>
      </trkpt>
      <trkpt lat="43.1194409" lon="-2.7681172">
        <ele>133.475</ele>
        <time>2021-04-01T09:16:11.654Z</time>
      </trkpt>
      <trkpt lat="43.1194445" lon="-2.7681193">
        <ele>133.519</ele>
        <time>2021-04-01T09:16:11.709Z</time>
      </trkpt>
      <trkpt lat="43.119448" lon="-2.7681211">
        <ele>133.476</ele>
        <time>2021-04-01T09:16:11.764Z</time>
      </trkpt>
      <trkpt lat="43.1194517" lon="-2.7681231">
        <ele>133.396</ele>
        <time>2021-04-01T09:16:11.819Z</time>
      </trkpt>
      <trkpt lat="43.1194553" lon="-2.7681254">
        <ele>133.287</ele>
        <time>2021-04-01T09:16:11.874Z</time>
      </trkpt>
      <trkpt lat="43.1194587" lon="-2.7681271">
        <ele>133.285</ele>
        <time>2021-04-01T09:16:11.929Z</time>
      </trkpt>
      <trkpt lat="43.1194622" lon="-2.7681289">
        <ele>133.27</ele>
        <time>2021-04-01T09:16:11.984Z</time>
      </trkpt>
      <trkpt lat="43.1194658" lon="-2.7681305">
        <ele>133.201</ele>
        <time>2021-04-01T09:16:12.039Z</time>
      </trkpt>
      <trkpt lat="43.1194693" lon="-2.7681322">
        <ele>133.169</ele>
        <time>2021-04-01T09:16:12.094Z</time>
      </trkpt>
      <trkpt lat="43.1194728" lon="-2.7681341">
        <ele>133.133</ele>
        <time>2021-04-01T09:16:12.149Z</time>
      </trkpt>
      <trkpt lat="43.1194764" lon="-2.768136">
        <ele>133.111</ele>
        <time>2021-04-01T09:16:12.204Z</time>
      </trkpt>
      <trkpt lat="43.11948" lon="-2.768138">
        <ele>133.141</ele>
        <time>2021-04-01T09:16:12.259Z</time>
      </trkpt>
      <trkpt lat="43.1194835" lon="-2.7681398">
        <ele>133.156</ele>
        <time>2021-04-01T09:16:12.314Z</time>
      </trkpt>
      <trkpt lat="43.1194872" lon="-2.7681412">
        <ele>133.127</ele>
        <time>2021-04-01T09:16:12.369Z</time>
      </trkpt>
      <trkpt lat="43.119491" lon="-2.7681427">
        <ele>133.151</ele>
        <time>2021-04-01T09:16:12.424Z</time>
      </trkpt>
      <trkpt lat="43.1194948" lon="-2.7681444">
        <ele>133.245</ele>
        <time>2021-04-01T09:16:12.479Z</time>
      </trkpt>
      <trkpt lat="43.1194991" lon="-2.768146">
        <ele>133.319</ele>
        <time>2021-04-01T09:16:12.534Z</time>
      </trkpt>
      <trkpt lat="43.119503" lon="-2.7681475">
        <ele>133.387</ele>
        <time>2021-04-01T09:16:12.589Z</time>
      </trkpt>
      <trkpt lat="43.1195063" lon="-2.768149">
        <ele>133.341</ele>
        <time>2021-04-01T09:16:12.644Z</time>
      </trkpt>
      <trkpt lat="43.1195097" lon="-2.7681505">
        <ele>133.315</ele>
        <time>2021-04-01T09:16:12.699Z</time>
      </trkpt>
      <trkpt lat="43.1195133" lon="-2.7681518">
        <ele>133.311</ele>
        <time>2021-04-01T09:16:12.754Z</time>
      </trkpt>
      <trkpt lat="43.1195165" lon="-2.7681532">
        <ele>133.317</ele>
        <time>2021-04-01T09:16:12.809Z</time>
      </trkpt>
      <trkpt lat="43.1195198" lon="-2.7681549">
        <ele>133.317</ele>
        <time>2021-04-01T09:16:12.864Z</time>
      </trkpt>
      <trkpt lat="43.1195233" lon="-2.7681565">
        <ele>133.268</ele>
        <time>2021-04-01T09:16:12.919Z</time>
      </trkpt>
      <trkpt lat="43.1195265" lon="-2.7681587">
        <ele>133.213</ele>
        <time>2021-04-01T09:16:12.974Z</time>
      </trkpt>
      <trkpt lat="43.1195301" lon="-2.7681604">
        <ele>133.199</ele>
        <time>2021-04-01T09:16:13.029Z</time>
      </trkpt>
      <trkpt lat="43.1195338" lon="-2.768162">
        <ele>133.2</ele>
        <time>2021-04-01T09:16:13.084Z</time>
      </trkpt>
      <trkpt lat="43.1195373" lon="-2.7681631">
        <ele>133.176</ele>
        <time>2021-04-01T09:16:13.139Z</time>
      </trkpt>
      <trkpt lat="43.1195409" lon="-2.7681645">
        <ele>133.173</ele>
        <time>2021-04-01T09:16:13.194Z</time>
      </trkpt>
      <trkpt lat="43.1195449" lon="-2.7681663">
        <ele>133.195</ele>
        <time>2021-04-01T09:16:13.249Z</time>
      </trkpt>
      <trkpt lat="43.1195478" lon="-2.7681678">
        <ele>133.131</ele>
        <time>2021-04-01T09:16:13.304Z</time>
      </trkpt>
      <trkpt lat="43.1195512" lon="-2.7681693">
        <ele>133.132</ele>
        <time>2021-04-01T09:16:13.359Z</time>
      </trkpt>
      <trkpt lat="43.1195547" lon="-2.7681707">
        <ele>133.177</ele>
        <time>2021-04-01T09:16:13.414Z</time>
      </trkpt>
      <trkpt lat="43.1195584" lon="-2.7681723">
        <ele>133.205</ele>
        <time>2021-04-01T09:16:13.469Z</time>
      </trkpt>
      <trkpt lat="43.1195616" lon="-2.7681738">
        <ele>133.125</ele>
        <time>2021-04-01T09:16:13.524Z</time>
      </trkpt>
      <trkpt lat="43.1195649" lon="-2.7681754">
        <ele>133.071</ele>
        <time>2021-04-01T09:16:13.579Z</time>
      </trkpt>
      <trkpt lat="43.1195685" lon="-2.7681769">
        <ele>133.071</ele>
        <time>2021-04-01T09:16:13.634Z</time>
      </trkpt>
      <trkpt lat="43.1195721" lon="-2.7681783">
        <ele>133.064</ele>
        <time>2021-04-01T09:16:13.689Z</time>
      </trkpt>
      <trkpt lat="43.1195755" lon="-2.7681798">
        <ele>133.08</ele>
        <time>2021-04-01T09:16:13.744Z</time>
      </trkpt>
      <trkpt lat="43.1195789" lon="-2.7681816">
        <ele>133.122</ele>
        <time>2021-04-01T09:16:13.799Z</time>
      </trkpt>
      <trkpt lat="43.1195823" lon="-2.7681832">
        <ele>133.123</ele>
        <time>2021-04-01T09:16:13.854Z</time>
      </trkpt>
      <trkpt lat="43.1195854" lon="-2.7681851">
        <ele>133.111</ele>
        <time>2021-04-01T09:16:13.909Z</time>
      </trkpt>
      <trkpt lat="43.1195889" lon="-2.7681868">
        <ele>133.114</ele>
        <time>2021-04-01T09:16:13.964Z</time>
      </trkpt>
      <trkpt lat="43.1195924" lon="-2.7681887">
        <ele>133.077</ele>
        <time>2021-04-01T09:16:14.019Z</time>
      </trkpt>
      <trkpt lat="43.1195957" lon="-2.7681904">
        <ele>133.076</ele>
        <time>2021-04-01T09:16:14.074Z</time>
      </trkpt>
      <trkpt lat="43.1195989" lon="-2.7681923">
        <ele>133.074</ele>
        <time>2021-04-01T09:16:14.129Z</time>
      </trkpt>
      <trkpt lat="43.1196026" lon="-2.7681939">
        <ele>133.107</ele>
        <time>2021-04-01T09:16:14.184Z</time>
      </trkpt>
      <trkpt lat="43.1196061" lon="-2.7681962">
        <ele>133.141</ele>
        <time>2021-04-01T09:16:14.239Z</time>
      </trkpt>
      <trkpt lat="43.1196099" lon="-2.7681977">
        <ele>133.148</ele>
        <time>2021-04-01T09:16:14.294Z</time>
      </trkpt>
      <trkpt lat="43.1196134" lon="-2.7682004">
        <ele>133.126</ele>
        <time>2021-04-01T09:16:14.349Z</time>
      </trkpt>
      <trkpt lat="43.119617" lon="-2.7682019">
        <ele>133.157</ele>
        <time>2021-04-01T09:16:14.404Z</time>
      </trkpt>
      <trkpt lat="43.1196205" lon="-2.7682029">
        <ele>133.206</ele>
        <time>2021-04-01T09:16:14.459Z</time>
      </trkpt>
      <trkpt lat="43.1196237" lon="-2.7682053">
        <ele>133.217</ele>
        <time>2021-04-01T09:16:14.514Z</time>
      </trkpt>
      <trkpt lat="43.1196276" lon="-2.7682068">
        <ele>133.151</ele>
        <time>2021-04-01T09:16:14.569Z</time>
      </trkpt>
      <trkpt lat="43.1196314" lon="-2.7682076">
        <ele>133.09</ele>
        <time>2021-04-01T09:16:14.624Z</time>
      </trkpt>
      <trkpt lat="43.1196351" lon="-2.7682085">
        <ele>133.055</ele>
        <time>2021-04-01T09:16:14.679Z</time>
      </trkpt>
      <trkpt lat="43.1196384" lon="-2.7682106">
        <ele>133.078</ele>
        <time>2021-04-01T09:16:14.734Z</time>
      </trkpt>
      <trkpt lat="43.1196417" lon="-2.7682128">
        <ele>133.097</ele>
        <time>2021-04-01T09:16:14.789Z</time>
      </trkpt>
      <trkpt lat="43.1196454" lon="-2.7682144">
        <ele>133.045</ele>
        <time>2021-04-01T09:16:14.844Z</time>
      </trkpt>
      <trkpt lat="43.1196489" lon="-2.7682164">
        <ele>133.066</ele>
        <time>2021-04-01T09:16:14.899Z</time>
      </trkpt>
      <trkpt lat="43.1196525" lon="-2.7682182">
        <ele>133.074</ele>
        <time>2021-04-01T09:16:14.954Z</time>
      </trkpt>
      <trkpt lat="43.119656" lon="-2.7682202">
        <ele>133.1</ele>
        <time>2021-04-01T09:16:15.009Z</time>
      </trkpt>
      <trkpt lat="43.1196595" lon="-2.768222">
        <ele>133.128</ele>
        <time>2021-04-01T09:16:15.064Z</time>
      </trkpt>
      <trkpt lat="43.1196632" lon="-2.7682238">
        <ele>133.176</ele>
        <time>2021-04-01T09:16:15.119Z</time>
      </trkpt>
      <trkpt lat="43.1196667" lon="-2.7682256">
        <ele>133.217</ele>
        <time>2021-04-01T09:16:15.174Z</time>
      </trkpt>
      <trkpt lat="43.1196697" lon="-2.7682272">
        <ele>133.199</ele>
        <time>2021-04-01T09:16:15.229Z</time>
      </trkpt>
      <trkpt lat="43.1196733" lon="-2.7682292">
        <ele>133.239</ele>
        <time>2021-04-01T09:16:15.284Z</time>
      </trkpt>
      <trkpt lat="43.1196774" lon="-2.7682311">
        <ele>133.303</ele>
        <time>2021-04-01T09:16:15.339Z</time>
      </trkpt>
      <trkpt lat="43.1196813" lon="-2.7682322">
        <ele>133.264</ele>
        <time>2021-04-01T09:16:15.394Z</time>
      </trkpt>
      <trkpt lat="43.119685" lon="-2.7682338">
        <ele>133.237</ele>
        <time>2021-04-01T09:16:15.449Z</time>
      </trkpt>
      <trkpt lat="43.1196887" lon="-2.7682353">
        <ele>133.22</ele>
        <time>2021-04-01T09:16:15.504Z</time>
      </trkpt>
      <trkpt lat="43.1196921" lon="-2.7682365">
        <ele>133.161</ele>
        <time>2021-04-01T09:16:15.559Z</time>
      </trkpt>
      <trkpt lat="43.1196956" lon="-2.7682375">
        <ele>133.079</ele>
        <time>2021-04-01T09:16:15.614Z</time>
      </trkpt>
      <trkpt lat="43.1196992" lon="-2.7682391">
        <ele>133.092</ele>
        <time>2021-04-01T09:16:15.669Z</time>
      </trkpt>
      <trkpt lat="43.1197028" lon="-2.7682409">
        <ele>133.121</ele>
        <time>2021-04-01T09:16:15.724Z</time>
      </trkpt>
      <trkpt lat="43.1197067" lon="-2.7682426">
        <ele>133.119</ele>
        <time>2021-04-01T09:16:15.779Z</time>
      </trkpt>
      <trkpt lat="43.1197102" lon="-2.7682439">
        <ele>133.125</ele>
        <time>2021-04-01T09:16:15.834Z</time>
      </trkpt>
      <trkpt lat="43.1197137" lon="-2.7682452">
        <ele>133.137</ele>
        <time>2021-04-01T09:16:15.889Z</time>
      </trkpt>
      <trkpt lat="43.1197172" lon="-2.7682463">
        <ele>133.117</ele>
        <time>2021-04-01T09:16:15.947Z</time>
      </trkpt>
      <trkpt lat="43.1197204" lon="-2.7682475">
        <ele>133.077</ele>
        <time>2021-04-01T09:16:16.005Z</time>
      </trkpt>
      <trkpt lat="43.1197238" lon="-2.7682492">
        <ele>133.074</ele>
        <time>2021-04-01T09:16:16.063Z</time>
      </trkpt>
      <trkpt lat="43.1197272" lon="-2.768251">
        <ele>133.09</ele>
        <time>2021-04-01T09:16:16.121Z</time>
      </trkpt>
      <trkpt lat="43.1197305" lon="-2.7682526">
        <ele>133.083</ele>
        <time>2021-04-01T09:16:16.179Z</time>
      </trkpt>
      <trkpt lat="43.119734" lon="-2.7682538">
        <ele>133.086</ele>
        <time>2021-04-01T09:16:16.237Z</time>
      </trkpt>
      <trkpt lat="43.1197375" lon="-2.7682549">
        <ele>133.095</ele>
        <time>2021-04-01T09:16:16.295Z</time>
      </trkpt>
      <trkpt lat="43.119741" lon="-2.7682562">
        <ele>133.084</ele>
        <time>2021-04-01T09:16:16.353Z</time>
      </trkpt>
      <trkpt lat="43.1197444" lon="-2.7682577">
        <ele>133.078</ele>
        <time>2021-04-01T09:16:16.411Z</time>
      </trkpt>
      <trkpt lat="43.119748" lon="-2.768259">
        <ele>133.051</ele>
        <time>2021-04-01T09:16:16.469Z</time>
      </trkpt>
      <trkpt lat="43.1197517" lon="-2.7682604">
        <ele>133.049</ele>
        <time>2021-04-01T09:16:16.527Z</time>
      </trkpt>
      <trkpt lat="43.1197551" lon="-2.7682621">
        <ele>133.044</ele>
        <time>2021-04-01T09:16:16.585Z</time>
      </trkpt>
      <trkpt lat="43.1197581" lon="-2.768264">
        <ele>133.041</ele>
        <time>2021-04-01T09:16:16.643Z</time>
      </trkpt>
      <trkpt lat="43.1197619" lon="-2.7682655">
        <ele>133.041</ele>
        <time>2021-04-01T09:16:16.701Z</time>
      </trkpt>
      <trkpt lat="43.1197656" lon="-2.7682669">
        <ele>133.066</ele>
        <time>2021-04-01T09:16:16.759Z</time>
      </trkpt>
      <trkpt lat="43.1197691" lon="-2.7682684">
        <ele>133.068</ele>
        <time>2021-04-01T09:16:16.817Z</time>
      </trkpt>
      <trkpt lat="43.1197724" lon="-2.7682702">
        <ele>133.068</ele>
        <time>2021-04-01T09:16:16.875Z</time>
      </trkpt>
      <trkpt lat="43.1197759" lon="-2.7682717">
        <ele>133.09</ele>
        <time>2021-04-01T09:16:16.934Z</time>
      </trkpt>
      <trkpt lat="43.1197795" lon="-2.7682732">
        <ele>133.15</ele>
        <time>2021-04-01T09:16:16.986Z</time>
      </trkpt>
      <trkpt lat="43.1197831" lon="-2.7682747">
        <ele>133.156</ele>
        <time>2021-04-01T09:16:17.038Z</time>
      </trkpt>
      <trkpt lat="43.1197866" lon="-2.7682764">
        <ele>133.14</ele>
        <time>2021-04-01T09:16:17.090Z</time>
      </trkpt>
      <trkpt lat="43.11979" lon="-2.7682783">
        <ele>133.167</ele>
        <time>2021-04-01T09:16:17.142Z</time>
      </trkpt>
      <trkpt lat="43.1197938" lon="-2.7682801">
        <ele>133.193</ele>
        <time>2021-04-01T09:16:17.194Z</time>
      </trkpt>
      <trkpt lat="43.1197973" lon="-2.7682816">
        <ele>133.197</ele>
        <time>2021-04-01T09:16:17.246Z</time>
      </trkpt>
      <trkpt lat="43.1198007" lon="-2.7682834">
        <ele>133.207</ele>
        <time>2021-04-01T09:16:17.298Z</time>
      </trkpt>
      <trkpt lat="43.1198041" lon="-2.768285">
        <ele>133.21</ele>
        <time>2021-04-01T09:16:17.350Z</time>
      </trkpt>
      <trkpt lat="43.1198076" lon="-2.7682866">
        <ele>133.215</ele>
        <time>2021-04-01T09:16:17.402Z</time>
      </trkpt>
      <trkpt lat="43.1198111" lon="-2.7682881">
        <ele>133.215</ele>
        <time>2021-04-01T09:16:17.455Z</time>
      </trkpt>
      <trkpt lat="43.1198143" lon="-2.7682893">
        <ele>133.203</ele>
        <time>2021-04-01T09:16:17.507Z</time>
      </trkpt>
      <trkpt lat="43.1198179" lon="-2.768291">
        <ele>133.212</ele>
        <time>2021-04-01T09:16:17.559Z</time>
      </trkpt>
      <trkpt lat="43.1198213" lon="-2.7682925">
        <ele>133.236</ele>
        <time>2021-04-01T09:16:17.611Z</time>
      </trkpt>
      <trkpt lat="43.119825" lon="-2.7682939">
        <ele>133.263</ele>
        <time>2021-04-01T09:16:17.663Z</time>
      </trkpt>
      <trkpt lat="43.1198288" lon="-2.7682961">
        <ele>133.353</ele>
        <time>2021-04-01T09:16:17.715Z</time>
      </trkpt>
      <trkpt lat="43.119832" lon="-2.7682974">
        <ele>133.313</ele>
        <time>2021-04-01T09:16:17.767Z</time>
      </trkpt>
      <trkpt lat="43.1198355" lon="-2.7682993">
        <ele>133.313</ele>
        <time>2021-04-01T09:16:17.819Z</time>
      </trkpt>
      <trkpt lat="43.119839" lon="-2.768301">
        <ele>133.318</ele>
        <time>2021-04-01T09:16:17.871Z</time>
      </trkpt>
      <trkpt lat="43.1198426" lon="-2.7683028">
        <ele>133.286</ele>
        <time>2021-04-01T09:16:17.924Z</time>
      </trkpt>
      <trkpt lat="43.1198456" lon="-2.7683044">
        <ele>133.29</ele>
        <time>2021-04-01T09:16:17.982Z</time>
      </trkpt>
      <trkpt lat="43.1198488" lon="-2.7683061">
        <ele>133.286</ele>
        <time>2021-04-01T09:16:18.040Z</time>
      </trkpt>
      <trkpt lat="43.1198522" lon="-2.7683076">
        <ele>133.28</ele>
        <time>2021-04-01T09:16:18.098Z</time>
      </trkpt>
      <trkpt lat="43.1198557" lon="-2.7683099">
        <ele>133.321</ele>
        <time>2021-04-01T09:16:18.156Z</time>
      </trkpt>
      <trkpt lat="43.1198589" lon="-2.7683117">
        <ele>133.341</ele>
        <time>2021-04-01T09:16:18.214Z</time>
      </trkpt>
      <trkpt lat="43.1198622" lon="-2.7683137">
        <ele>133.297</ele>
        <time>2021-04-01T09:16:18.272Z</time>
      </trkpt>
      <trkpt lat="43.1198656" lon="-2.7683152">
        <ele>133.305</ele>
        <time>2021-04-01T09:16:18.330Z</time>
      </trkpt>
      <trkpt lat="43.1198688" lon="-2.7683166">
        <ele>133.315</ele>
        <time>2021-04-01T09:16:18.388Z</time>
      </trkpt>
      <trkpt lat="43.1198721" lon="-2.7683181">
        <ele>133.317</ele>
        <time>2021-04-01T09:16:18.446Z</time>
      </trkpt>
      <trkpt lat="43.1198753" lon="-2.7683195">
        <ele>133.248</ele>
        <time>2021-04-01T09:16:18.504Z</time>
      </trkpt>
      <trkpt lat="43.1198786" lon="-2.768321">
        <ele>133.219</ele>
        <time>2021-04-01T09:16:18.562Z</time>
      </trkpt>
      <trkpt lat="43.1198818" lon="-2.7683227">
        <ele>133.243</ele>
        <time>2021-04-01T09:16:18.620Z</time>
      </trkpt>
      <trkpt lat="43.1198852" lon="-2.7683242">
        <ele>133.24</ele>
        <time>2021-04-01T09:16:18.678Z</time>
      </trkpt>
      <trkpt lat="43.1198885" lon="-2.7683258">
        <ele>133.231</ele>
        <time>2021-04-01T09:16:18.736Z</time>
      </trkpt>
      <trkpt lat="43.1198917" lon="-2.7683273">
        <ele>133.249</ele>
        <time>2021-04-01T09:16:18.794Z</time>
      </trkpt>
      <trkpt lat="43.1198948" lon="-2.7683291">
        <ele>133.243</ele>
        <time>2021-04-01T09:16:18.852Z</time>
      </trkpt>
      <trkpt lat="43.1198981" lon="-2.7683304">
        <ele>133.24</ele>
        <time>2021-04-01T09:16:18.910Z</time>
      </trkpt>
      <trkpt lat="43.1199015" lon="-2.768332">
        <ele>133.245</ele>
        <time>2021-04-01T09:16:18.969Z</time>
      </trkpt>
      <trkpt lat="43.1199048" lon="-2.7683332">
        <ele>133.225</ele>
        <time>2021-04-01T09:16:19.020Z</time>
      </trkpt>
      <trkpt lat="43.119908" lon="-2.7683345">
        <ele>133.194</ele>
        <time>2021-04-01T09:16:19.072Z</time>
      </trkpt>
      <trkpt lat="43.1199111" lon="-2.768336">
        <ele>133.137</ele>
        <time>2021-04-01T09:16:19.124Z</time>
      </trkpt>
      <trkpt lat="43.1199141" lon="-2.7683377">
        <ele>133.167</ele>
        <time>2021-04-01T09:16:19.176Z</time>
      </trkpt>
      <trkpt lat="43.1199173" lon="-2.7683393">
        <ele>133.127</ele>
        <time>2021-04-01T09:16:19.228Z</time>
      </trkpt>
      <trkpt lat="43.1199204" lon="-2.768341">
        <ele>133.085</ele>
        <time>2021-04-01T09:16:19.280Z</time>
      </trkpt>
      <trkpt lat="43.119924" lon="-2.7683429">
        <ele>133.115</ele>
        <time>2021-04-01T09:16:19.332Z</time>
      </trkpt>
      <trkpt lat="43.1199274" lon="-2.7683446">
        <ele>133.085</ele>
        <time>2021-04-01T09:16:19.384Z</time>
      </trkpt>
      <trkpt lat="43.1199305" lon="-2.7683465">
        <ele>133.008</ele>
        <time>2021-04-01T09:16:19.436Z</time>
      </trkpt>
      <trkpt lat="43.1199335" lon="-2.768348">
        <ele>133.003</ele>
        <time>2021-04-01T09:16:19.488Z</time>
      </trkpt>
      <trkpt lat="43.1199365" lon="-2.7683494">
        <ele>133.031</ele>
        <time>2021-04-01T09:16:19.540Z</time>
      </trkpt>
      <trkpt lat="43.1199395" lon="-2.7683509">
        <ele>133.06</ele>
        <time>2021-04-01T09:16:19.592Z</time>
      </trkpt>
      <trkpt lat="43.1199424" lon="-2.7683529">
        <ele>133.084</ele>
        <time>2021-04-01T09:16:19.644Z</time>
      </trkpt>
      <trkpt lat="43.1199454" lon="-2.7683549">
        <ele>133.113</ele>
        <time>2021-04-01T09:16:19.696Z</time>
      </trkpt>
      <trkpt lat="43.1199485" lon="-2.7683571">
        <ele>133.113</ele>
        <time>2021-04-01T09:16:19.748Z</time>
      </trkpt>
      <trkpt lat="43.1199516" lon="-2.7683596">
        <ele>133.101</ele>
        <time>2021-04-01T09:16:19.800Z</time>
      </trkpt>
      <trkpt lat="43.1199543" lon="-2.7683611">
        <ele>133.182</ele>
        <time>2021-04-01T09:16:19.852Z</time>
      </trkpt>
      <trkpt lat="43.1199569" lon="-2.7683627">
        <ele>133.212</ele>
        <time>2021-04-01T09:16:19.904Z</time>
      </trkpt>
      <trkpt lat="43.1199592" lon="-2.7683652">
        <ele>133.244</ele>
        <time>2021-04-01T09:16:19.959Z</time>
      </trkpt>
      <trkpt lat="43.1199618" lon="-2.7683672">
        <ele>133.303</ele>
        <time>2021-04-01T09:16:20.014Z</time>
      </trkpt>
      <trkpt lat="43.1199644" lon="-2.7683692">
        <ele>133.321</ele>
        <time>2021-04-01T09:16:20.069Z</time>
      </trkpt>
      <trkpt lat="43.1199672" lon="-2.7683708">
        <ele>133.32</ele>
        <time>2021-04-01T09:16:20.124Z</time>
      </trkpt>
      <trkpt lat="43.1199699" lon="-2.7683728">
        <ele>133.274</ele>
        <time>2021-04-01T09:16:20.179Z</time>
      </trkpt>
      <trkpt lat="43.1199724" lon="-2.7683746">
        <ele>133.25</ele>
        <time>2021-04-01T09:16:20.234Z</time>
      </trkpt>
      <trkpt lat="43.119975" lon="-2.7683763">
        <ele>133.277</ele>
        <time>2021-04-01T09:16:20.289Z</time>
      </trkpt>
      <trkpt lat="43.1199776" lon="-2.7683779">
        <ele>133.243</ele>
        <time>2021-04-01T09:16:20.344Z</time>
      </trkpt>
      <trkpt lat="43.1199804" lon="-2.7683798">
        <ele>133.243</ele>
        <time>2021-04-01T09:16:20.399Z</time>
      </trkpt>
      <trkpt lat="43.1199833" lon="-2.7683823">
        <ele>133.16</ele>
        <time>2021-04-01T09:16:20.454Z</time>
      </trkpt>
      <trkpt lat="43.1199861" lon="-2.768384">
        <ele>133.189</ele>
        <time>2021-04-01T09:16:20.509Z</time>
      </trkpt>
      <trkpt lat="43.1199889" lon="-2.7683855">
        <ele>133.29</ele>
        <time>2021-04-01T09:16:20.564Z</time>
      </trkpt>
      <trkpt lat="43.1199915" lon="-2.7683878">
        <ele>133.308</ele>
        <time>2021-04-01T09:16:20.619Z</time>
      </trkpt>
      <trkpt lat="43.1199947" lon="-2.7683895">
        <ele>133.313</ele>
        <time>2021-04-01T09:16:20.674Z</time>
      </trkpt>
      <trkpt lat="43.1199976" lon="-2.7683915">
        <ele>133.291</ele>
        <time>2021-04-01T09:16:20.729Z</time>
      </trkpt>
      <trkpt lat="43.1200005" lon="-2.7683933">
        <ele>133.365</ele>
        <time>2021-04-01T09:16:20.784Z</time>
      </trkpt>
      <trkpt lat="43.1200038" lon="-2.7683944">
        <ele>133.364</ele>
        <time>2021-04-01T09:16:20.839Z</time>
      </trkpt>
      <trkpt lat="43.1200071" lon="-2.7683953">
        <ele>133.314</ele>
        <time>2021-04-01T09:16:20.894Z</time>
      </trkpt>
      <trkpt lat="43.12001" lon="-2.768397">
        <ele>133.284</ele>
        <time>2021-04-01T09:16:20.952Z</time>
      </trkpt>
      <trkpt lat="43.1200125" lon="-2.7683988">
        <ele>133.329</ele>
        <time>2021-04-01T09:16:21.010Z</time>
      </trkpt>
      <trkpt lat="43.1200154" lon="-2.7684008">
        <ele>133.286</ele>
        <time>2021-04-01T09:16:21.068Z</time>
      </trkpt>
      <trkpt lat="43.1200188" lon="-2.7684019">
        <ele>133.256</ele>
        <time>2021-04-01T09:16:21.126Z</time>
      </trkpt>
      <trkpt lat="43.1200217" lon="-2.7684036">
        <ele>133.305</ele>
        <time>2021-04-01T09:16:21.184Z</time>
      </trkpt>
      <trkpt lat="43.1200248" lon="-2.768405">
        <ele>133.353</ele>
        <time>2021-04-01T09:16:21.242Z</time>
      </trkpt>
      <trkpt lat="43.1200281" lon="-2.7684068">
        <ele>133.322</ele>
        <time>2021-04-01T09:16:21.300Z</time>
      </trkpt>
      <trkpt lat="43.1200313" lon="-2.7684086">
        <ele>133.305</ele>
        <time>2021-04-01T09:16:21.358Z</time>
      </trkpt>
      <trkpt lat="43.1200342" lon="-2.7684108">
        <ele>133.305</ele>
        <time>2021-04-01T09:16:21.416Z</time>
      </trkpt>
      <trkpt lat="43.1200372" lon="-2.7684125">
        <ele>133.32</ele>
        <time>2021-04-01T09:16:21.474Z</time>
      </trkpt>
      <trkpt lat="43.1200401" lon="-2.7684146">
        <ele>133.39</ele>
        <time>2021-04-01T09:16:21.532Z</time>
      </trkpt>
      <trkpt lat="43.1200431" lon="-2.7684167">
        <ele>133.383</ele>
        <time>2021-04-01T09:16:21.590Z</time>
      </trkpt>
      <trkpt lat="43.1200459" lon="-2.7684185">
        <ele>133.367</ele>
        <time>2021-04-01T09:16:21.648Z</time>
      </trkpt>
      <trkpt lat="43.1200489" lon="-2.7684205">
        <ele>133.36</ele>
        <time>2021-04-01T09:16:21.706Z</time>
      </trkpt>
      <trkpt lat="43.1200521" lon="-2.7684222">
        <ele>133.337</ele>
        <time>2021-04-01T09:16:21.764Z</time>
      </trkpt>
      <trkpt lat="43.1200553" lon="-2.7684241">
        <ele>133.37</ele>
        <time>2021-04-01T09:16:21.822Z</time>
      </trkpt>
      <trkpt lat="43.1200583" lon="-2.7684258">
        <ele>133.393</ele>
        <time>2021-04-01T09:16:21.880Z</time>
      </trkpt>
      <trkpt lat="43.1200612" lon="-2.7684277">
        <ele>133.409</ele>
        <time>2021-04-01T09:16:21.939Z</time>
      </trkpt>
      <trkpt lat="43.120064" lon="-2.7684298">
        <ele>133.415</ele>
        <time>2021-04-01T09:16:21.988Z</time>
      </trkpt>
      <trkpt lat="43.1200668" lon="-2.7684314">
        <ele>133.407</ele>
        <time>2021-04-01T09:16:22.037Z</time>
      </trkpt>
      <trkpt lat="43.1200695" lon="-2.7684341">
        <ele>133.437</ele>
        <time>2021-04-01T09:16:22.086Z</time>
      </trkpt>
      <trkpt lat="43.1200727" lon="-2.7684359">
        <ele>133.448</ele>
        <time>2021-04-01T09:16:22.135Z</time>
      </trkpt>
      <trkpt lat="43.1200761" lon="-2.7684376">
        <ele>133.45</ele>
        <time>2021-04-01T09:16:22.185Z</time>
      </trkpt>
      <trkpt lat="43.1200792" lon="-2.7684391">
        <ele>133.541</ele>
        <time>2021-04-01T09:16:22.234Z</time>
      </trkpt>
      <trkpt lat="43.1200827" lon="-2.76844">
        <ele>133.618</ele>
        <time>2021-04-01T09:16:22.283Z</time>
      </trkpt>
      <trkpt lat="43.1200864" lon="-2.7684409">
        <ele>133.665</ele>
        <time>2021-04-01T09:16:22.332Z</time>
      </trkpt>
      <trkpt lat="43.1200901" lon="-2.7684425">
        <ele>133.724</ele>
        <time>2021-04-01T09:16:22.381Z</time>
      </trkpt>
      <trkpt lat="43.1200935" lon="-2.7684443">
        <ele>133.717</ele>
        <time>2021-04-01T09:16:22.431Z</time>
      </trkpt>
      <trkpt lat="43.1200967" lon="-2.7684462">
        <ele>133.755</ele>
        <time>2021-04-01T09:16:22.480Z</time>
      </trkpt>
      <trkpt lat="43.1200997" lon="-2.7684476">
        <ele>133.741</ele>
        <time>2021-04-01T09:16:22.529Z</time>
      </trkpt>
      <trkpt lat="43.1201026" lon="-2.7684493">
        <ele>133.745</ele>
        <time>2021-04-01T09:16:22.578Z</time>
      </trkpt>
      <trkpt lat="43.1201058" lon="-2.7684507">
        <ele>133.751</ele>
        <time>2021-04-01T09:16:22.627Z</time>
      </trkpt>
      <trkpt lat="43.120109" lon="-2.7684523">
        <ele>133.76</ele>
        <time>2021-04-01T09:16:22.677Z</time>
      </trkpt>
      <trkpt lat="43.1201119" lon="-2.7684544">
        <ele>133.761</ele>
        <time>2021-04-01T09:16:22.726Z</time>
      </trkpt>
      <trkpt lat="43.1201142" lon="-2.7684569">
        <ele>133.721</ele>
        <time>2021-04-01T09:16:22.775Z</time>
      </trkpt>
      <trkpt lat="43.120117" lon="-2.768459">
        <ele>133.703</ele>
        <time>2021-04-01T09:16:22.824Z</time>
      </trkpt>
      <trkpt lat="43.1201197" lon="-2.7684614">
        <ele>133.697</ele>
        <time>2021-04-01T09:16:22.874Z</time>
      </trkpt>
      <trkpt lat="43.1201224" lon="-2.768464">
        <ele>133.705</ele>
        <time>2021-04-01T09:16:22.932Z</time>
      </trkpt>
      <trkpt lat="43.1201257" lon="-2.7684658">
        <ele>133.712</ele>
        <time>2021-04-01T09:16:22.990Z</time>
      </trkpt>
      <trkpt lat="43.1201284" lon="-2.7684681">
        <ele>133.709</ele>
        <time>2021-04-01T09:16:23.048Z</time>
      </trkpt>
      <trkpt lat="43.1201311" lon="-2.7684705">
        <ele>133.727</ele>
        <time>2021-04-01T09:16:23.106Z</time>
      </trkpt>
      <trkpt lat="43.1201341" lon="-2.7684724">
        <ele>133.74</ele>
        <time>2021-04-01T09:16:23.164Z</time>
      </trkpt>
      <trkpt lat="43.1201365" lon="-2.7684748">
        <ele>133.726</ele>
        <time>2021-04-01T09:16:23.222Z</time>
      </trkpt>
      <trkpt lat="43.1201386" lon="-2.768478">
        <ele>133.719</ele>
        <time>2021-04-01T09:16:23.280Z</time>
      </trkpt>
      <trkpt lat="43.1201411" lon="-2.7684809">
        <ele>133.766</ele>
        <time>2021-04-01T09:16:23.338Z</time>
      </trkpt>
      <trkpt lat="43.1201438" lon="-2.7684833">
        <ele>133.81</ele>
        <time>2021-04-01T09:16:23.396Z</time>
      </trkpt>
      <trkpt lat="43.1201464" lon="-2.7684858">
        <ele>133.831</ele>
        <time>2021-04-01T09:16:23.454Z</time>
      </trkpt>
      <trkpt lat="43.1201493" lon="-2.7684882">
        <ele>133.853</ele>
        <time>2021-04-01T09:16:23.512Z</time>
      </trkpt>
      <trkpt lat="43.1201525" lon="-2.7684897">
        <ele>133.849</ele>
        <time>2021-04-01T09:16:23.570Z</time>
      </trkpt>
      <trkpt lat="43.1201552" lon="-2.768492">
        <ele>133.884</ele>
        <time>2021-04-01T09:16:23.628Z</time>
      </trkpt>
      <trkpt lat="43.1201582" lon="-2.7684939">
        <ele>133.878</ele>
        <time>2021-04-01T09:16:23.686Z</time>
      </trkpt>
      <trkpt lat="43.1201602" lon="-2.7684972">
        <ele>133.844</ele>
        <time>2021-04-01T09:16:23.744Z</time>
      </trkpt>
      <trkpt lat="43.1201627" lon="-2.7685004">
        <ele>133.87</ele>
        <time>2021-04-01T09:16:23.802Z</time>
      </trkpt>
      <trkpt lat="43.1201656" lon="-2.7685025">
        <ele>133.883</ele>
        <time>2021-04-01T09:16:23.860Z</time>
      </trkpt>
      <trkpt lat="43.1201686" lon="-2.7685046">
        <ele>133.875</ele>
        <time>2021-04-01T09:16:23.919Z</time>
      </trkpt>
      <trkpt lat="43.1201718" lon="-2.7685073">
        <ele>133.938</ele>
        <time>2021-04-01T09:16:23.974Z</time>
      </trkpt>
      <trkpt lat="43.1201746" lon="-2.76851">
        <ele>133.92</ele>
        <time>2021-04-01T09:16:24.029Z</time>
      </trkpt>
      <trkpt lat="43.120177" lon="-2.7685124">
        <ele>133.896</ele>
        <time>2021-04-01T09:16:24.084Z</time>
      </trkpt>
      <trkpt lat="43.1201799" lon="-2.7685148">
        <ele>133.899</ele>
        <time>2021-04-01T09:16:24.139Z</time>
      </trkpt>
      <trkpt lat="43.1201827" lon="-2.7685172">
        <ele>133.908</ele>
        <time>2021-04-01T09:16:24.194Z</time>
      </trkpt>
      <trkpt lat="43.1201852" lon="-2.76852">
        <ele>133.903</ele>
        <time>2021-04-01T09:16:24.249Z</time>
      </trkpt>
      <trkpt lat="43.1201878" lon="-2.7685222">
        <ele>133.831</ele>
        <time>2021-04-01T09:16:24.304Z</time>
      </trkpt>
      <trkpt lat="43.1201904" lon="-2.7685251">
        <ele>133.852</ele>
        <time>2021-04-01T09:16:24.359Z</time>
      </trkpt>
      <trkpt lat="43.1201933" lon="-2.7685281">
        <ele>133.899</ele>
        <time>2021-04-01T09:16:24.414Z</time>
      </trkpt>
      <trkpt lat="43.1201956" lon="-2.7685313">
        <ele>133.953</ele>
        <time>2021-04-01T09:16:24.469Z</time>
      </trkpt>
      <trkpt lat="43.120198" lon="-2.7685341">
        <ele>133.979</ele>
        <time>2021-04-01T09:16:24.524Z</time>
      </trkpt>
      <trkpt lat="43.1202003" lon="-2.7685369">
        <ele>133.975</ele>
        <time>2021-04-01T09:16:24.579Z</time>
      </trkpt>
      <trkpt lat="43.1202029" lon="-2.7685392">
        <ele>133.982</ele>
        <time>2021-04-01T09:16:24.634Z</time>
      </trkpt>
      <trkpt lat="43.1202053" lon="-2.7685417">
        <ele>134.029</ele>
        <time>2021-04-01T09:16:24.689Z</time>
      </trkpt>
      <trkpt lat="43.1202079" lon="-2.7685443">
        <ele>134.079</ele>
        <time>2021-04-01T09:16:24.744Z</time>
      </trkpt>
      <trkpt lat="43.1202105" lon="-2.7685471">
        <ele>134.155</ele>
        <time>2021-04-01T09:16:24.799Z</time>
      </trkpt>
      <trkpt lat="43.1202131" lon="-2.7685497">
        <ele>134.217</ele>
        <time>2021-04-01T09:16:24.854Z</time>
      </trkpt>
      <trkpt lat="43.1202156" lon="-2.7685523">
        <ele>134.273</ele>
        <time>2021-04-01T09:16:24.909Z</time>
      </trkpt>
      <trkpt lat="43.1202182" lon="-2.768555">
        <ele>134.304</ele>
        <time>2021-04-01T09:16:24.964Z</time>
      </trkpt>
      <trkpt lat="43.1202208" lon="-2.7685576">
        <ele>134.326</ele>
        <time>2021-04-01T09:16:25.019Z</time>
      </trkpt>
      <trkpt lat="43.1202235" lon="-2.76856">
        <ele>134.339</ele>
        <time>2021-04-01T09:16:25.074Z</time>
      </trkpt>
      <trkpt lat="43.120226" lon="-2.7685627">
        <ele>134.336</ele>
        <time>2021-04-01T09:16:25.129Z</time>
      </trkpt>
      <trkpt lat="43.1202285" lon="-2.7685652">
        <ele>134.323</ele>
        <time>2021-04-01T09:16:25.184Z</time>
      </trkpt>
      <trkpt lat="43.120231" lon="-2.7685678">
        <ele>134.332</ele>
        <time>2021-04-01T09:16:25.239Z</time>
      </trkpt>
      <trkpt lat="43.1202333" lon="-2.7685705">
        <ele>134.322</ele>
        <time>2021-04-01T09:16:25.294Z</time>
      </trkpt>
      <trkpt lat="43.1202357" lon="-2.7685732">
        <ele>134.322</ele>
        <time>2021-04-01T09:16:25.349Z</time>
      </trkpt>
      <trkpt lat="43.1202382" lon="-2.7685762">
        <ele>134.347</ele>
        <time>2021-04-01T09:16:25.404Z</time>
      </trkpt>
      <trkpt lat="43.1202409" lon="-2.7685801">
        <ele>134.479</ele>
        <time>2021-04-01T09:16:25.459Z</time>
      </trkpt>
      <trkpt lat="43.1202441" lon="-2.7685831">
        <ele>134.56</ele>
        <time>2021-04-01T09:16:25.514Z</time>
      </trkpt>
      <trkpt lat="43.1202472" lon="-2.7685868">
        <ele>134.689</ele>
        <time>2021-04-01T09:16:25.569Z</time>
      </trkpt>
      <trkpt lat="43.1202499" lon="-2.7685903">
        <ele>134.759</ele>
        <time>2021-04-01T09:16:25.624Z</time>
      </trkpt>
      <trkpt lat="43.1202524" lon="-2.768593">
        <ele>134.772</ele>
        <time>2021-04-01T09:16:25.679Z</time>
      </trkpt>
      <trkpt lat="43.1202548" lon="-2.7685957">
        <ele>134.79</ele>
        <time>2021-04-01T09:16:25.734Z</time>
      </trkpt>
      <trkpt lat="43.1202573" lon="-2.7685982">
        <ele>134.782</ele>
        <time>2021-04-01T09:16:25.789Z</time>
      </trkpt>
      <trkpt lat="43.1202598" lon="-2.768601">
        <ele>134.776</ele>
        <time>2021-04-01T09:16:25.844Z</time>
      </trkpt>
      <trkpt lat="43.1202625" lon="-2.7686035">
        <ele>134.793</ele>
        <time>2021-04-01T09:16:25.899Z</time>
      </trkpt>
      <trkpt lat="43.1202653" lon="-2.7686062">
        <ele>134.82</ele>
        <time>2021-04-01T09:16:25.954Z</time>
      </trkpt>
      <trkpt lat="43.1202678" lon="-2.7686096">
        <ele>134.874</ele>
        <time>2021-04-01T09:16:26.009Z</time>
      </trkpt>
      <trkpt lat="43.1202703" lon="-2.768613">
        <ele>134.898</ele>
        <time>2021-04-01T09:16:26.064Z</time>
      </trkpt>
      <trkpt lat="43.1202728" lon="-2.7686162">
        <ele>134.909</ele>
        <time>2021-04-01T09:16:26.119Z</time>
      </trkpt>
      <trkpt lat="43.1202754" lon="-2.7686189">
        <ele>134.909</ele>
        <time>2021-04-01T09:16:26.174Z</time>
      </trkpt>
      <trkpt lat="43.120278" lon="-2.7686209">
        <ele>134.878</ele>
        <time>2021-04-01T09:16:26.229Z</time>
      </trkpt>
      <trkpt lat="43.1202805" lon="-2.768624">
        <ele>134.899</ele>
        <time>2021-04-01T09:16:26.284Z</time>
      </trkpt>
      <trkpt lat="43.1202833" lon="-2.7686264">
        <ele>134.895</ele>
        <time>2021-04-01T09:16:26.339Z</time>
      </trkpt>
      <trkpt lat="43.1202861" lon="-2.7686289">
        <ele>134.937</ele>
        <time>2021-04-01T09:16:26.394Z</time>
      </trkpt>
      <trkpt lat="43.1202891" lon="-2.7686316">
        <ele>134.947</ele>
        <time>2021-04-01T09:16:26.449Z</time>
      </trkpt>
      <trkpt lat="43.120292" lon="-2.7686342">
        <ele>134.963</ele>
        <time>2021-04-01T09:16:26.504Z</time>
      </trkpt>
      <trkpt lat="43.1202948" lon="-2.7686366">
        <ele>135.026</ele>
        <time>2021-04-01T09:16:26.559Z</time>
      </trkpt>
      <trkpt lat="43.1202972" lon="-2.7686397">
        <ele>135.112</ele>
        <time>2021-04-01T09:16:26.614Z</time>
      </trkpt>
      <trkpt lat="43.1203001" lon="-2.768642">
        <ele>135.131</ele>
        <time>2021-04-01T09:16:26.669Z</time>
      </trkpt>
      <trkpt lat="43.1203031" lon="-2.7686442">
        <ele>135.156</ele>
        <time>2021-04-01T09:16:26.724Z</time>
      </trkpt>
      <trkpt lat="43.1203061" lon="-2.7686467">
        <ele>135.199</ele>
        <time>2021-04-01T09:16:26.779Z</time>
      </trkpt>
      <trkpt lat="43.1203091" lon="-2.7686494">
        <ele>135.24</ele>
        <time>2021-04-01T09:16:26.834Z</time>
      </trkpt>
      <trkpt lat="43.1203121" lon="-2.7686517">
        <ele>135.253</ele>
        <time>2021-04-01T09:16:26.889Z</time>
      </trkpt>
      <trkpt lat="43.1203148" lon="-2.7686543">
        <ele>135.266</ele>
        <time>2021-04-01T09:16:26.944Z</time>
      </trkpt>
      <trkpt lat="43.1203171" lon="-2.7686565">
        <ele>135.249</ele>
        <time>2021-04-01T09:16:26.999Z</time>
      </trkpt>
      <trkpt lat="43.1203198" lon="-2.7686589">
        <ele>135.259</ele>
        <time>2021-04-01T09:16:27.054Z</time>
      </trkpt>
      <trkpt lat="43.1203231" lon="-2.7686615">
        <ele>135.307</ele>
        <time>2021-04-01T09:16:27.109Z</time>
      </trkpt>
      <trkpt lat="43.1203261" lon="-2.768664">
        <ele>135.342</ele>
        <time>2021-04-01T09:16:27.164Z</time>
      </trkpt>
      <trkpt lat="43.120329" lon="-2.7686664">
        <ele>135.356</ele>
        <time>2021-04-01T09:16:27.219Z</time>
      </trkpt>
      <trkpt lat="43.1203313" lon="-2.7686693">
        <ele>135.349</ele>
        <time>2021-04-01T09:16:27.274Z</time>
      </trkpt>
      <trkpt lat="43.1203341" lon="-2.7686718">
        <ele>135.34</ele>
        <time>2021-04-01T09:16:27.329Z</time>
      </trkpt>
      <trkpt lat="43.1203371" lon="-2.7686741">
        <ele>135.355</ele>
        <time>2021-04-01T09:16:27.384Z</time>
      </trkpt>
      <trkpt lat="43.1203399" lon="-2.7686767">
        <ele>135.389</ele>
        <time>2021-04-01T09:16:27.439Z</time>
      </trkpt>
      <trkpt lat="43.1203427" lon="-2.7686789">
        <ele>135.404</ele>
        <time>2021-04-01T09:16:27.494Z</time>
      </trkpt>
      <trkpt lat="43.1203453" lon="-2.7686813">
        <ele>135.418</ele>
        <time>2021-04-01T09:16:27.549Z</time>
      </trkpt>
      <trkpt lat="43.1203482" lon="-2.7686834">
        <ele>135.422</ele>
        <time>2021-04-01T09:16:27.604Z</time>
      </trkpt>
      <trkpt lat="43.1203511" lon="-2.7686855">
        <ele>135.424</ele>
        <time>2021-04-01T09:16:27.659Z</time>
      </trkpt>
      <trkpt lat="43.1203541" lon="-2.7686876">
        <ele>135.418</ele>
        <time>2021-04-01T09:16:27.714Z</time>
      </trkpt>
      <trkpt lat="43.1203572" lon="-2.7686898">
        <ele>135.435</ele>
        <time>2021-04-01T09:16:27.769Z</time>
      </trkpt>
      <trkpt lat="43.1203599" lon="-2.768692">
        <ele>135.464</ele>
        <time>2021-04-01T09:16:27.824Z</time>
      </trkpt>
      <trkpt lat="43.1203622" lon="-2.7686949">
        <ele>135.47</ele>
        <time>2021-04-01T09:16:27.879Z</time>
      </trkpt>
      <trkpt lat="43.120365" lon="-2.7686971">
        <ele>135.478</ele>
        <time>2021-04-01T09:16:27.931Z</time>
      </trkpt>
      <trkpt lat="43.1203678" lon="-2.7686999">
        <ele>135.472</ele>
        <time>2021-04-01T09:16:27.983Z</time>
      </trkpt>
      <trkpt lat="43.1203709" lon="-2.7687022">
        <ele>135.48</ele>
        <time>2021-04-01T09:16:28.035Z</time>
      </trkpt>
      <trkpt lat="43.1203738" lon="-2.7687048">
        <ele>135.503</ele>
        <time>2021-04-01T09:16:28.087Z</time>
      </trkpt>
      <trkpt lat="43.1203768" lon="-2.7687073">
        <ele>135.526</ele>
        <time>2021-04-01T09:16:28.139Z</time>
      </trkpt>
      <trkpt lat="43.1203798" lon="-2.7687098">
        <ele>135.525</ele>
        <time>2021-04-01T09:16:28.191Z</time>
      </trkpt>
      <trkpt lat="43.1203827" lon="-2.7687122">
        <ele>135.539</ele>
        <time>2021-04-01T09:16:28.243Z</time>
      </trkpt>
      <trkpt lat="43.1203854" lon="-2.7687147">
        <ele>135.548</ele>
        <time>2021-04-01T09:16:28.295Z</time>
      </trkpt>
      <trkpt lat="43.120388" lon="-2.7687175">
        <ele>135.564</ele>
        <time>2021-04-01T09:16:28.347Z</time>
      </trkpt>
      <trkpt lat="43.1203908" lon="-2.7687206">
        <ele>135.597</ele>
        <time>2021-04-01T09:16:28.400Z</time>
      </trkpt>
      <trkpt lat="43.1203938" lon="-2.7687234">
        <ele>135.589</ele>
        <time>2021-04-01T09:16:28.452Z</time>
      </trkpt>
      <trkpt lat="43.1203963" lon="-2.7687264">
        <ele>135.596</ele>
        <time>2021-04-01T09:16:28.504Z</time>
      </trkpt>
      <trkpt lat="43.1203989" lon="-2.7687291">
        <ele>135.584</ele>
        <time>2021-04-01T09:16:28.556Z</time>
      </trkpt>
      <trkpt lat="43.1204014" lon="-2.7687314">
        <ele>135.566</ele>
        <time>2021-04-01T09:16:28.608Z</time>
      </trkpt>
      <trkpt lat="43.1204039" lon="-2.7687337">
        <ele>135.532</ele>
        <time>2021-04-01T09:16:28.660Z</time>
      </trkpt>
      <trkpt lat="43.1204063" lon="-2.7687361">
        <ele>135.553</ele>
        <time>2021-04-01T09:16:28.712Z</time>
      </trkpt>
      <trkpt lat="43.120409" lon="-2.7687383">
        <ele>135.553</ele>
        <time>2021-04-01T09:16:28.764Z</time>
      </trkpt>
      <trkpt lat="43.120412" lon="-2.7687406">
        <ele>135.58</ele>
        <time>2021-04-01T09:16:28.816Z</time>
      </trkpt>
      <trkpt lat="43.1204148" lon="-2.768743">
        <ele>135.598</ele>
        <time>2021-04-01T09:16:28.869Z</time>
      </trkpt>
      <trkpt lat="43.1204172" lon="-2.7687451">
        <ele>135.593</ele>
        <time>2021-04-01T09:16:28.927Z</time>
      </trkpt>
      <trkpt lat="43.12042" lon="-2.7687471">
        <ele>135.631</ele>
        <time>2021-04-01T09:16:28.985Z</time>
      </trkpt>
      <trkpt lat="43.1204228" lon="-2.7687495">
        <ele>135.684</ele>
        <time>2021-04-01T09:16:29.043Z</time>
      </trkpt>
      <trkpt lat="43.1204251" lon="-2.7687521">
        <ele>135.711</ele>
        <time>2021-04-01T09:16:29.101Z</time>
      </trkpt>
      <trkpt lat="43.1204272" lon="-2.7687548">
        <ele>135.72</ele>
        <time>2021-04-01T09:16:29.159Z</time>
      </trkpt>
      <trkpt lat="43.1204296" lon="-2.768757">
        <ele>135.708</ele>
        <time>2021-04-01T09:16:29.217Z</time>
      </trkpt>
      <trkpt lat="43.120432" lon="-2.7687595">
        <ele>135.731</ele>
        <time>2021-04-01T09:16:29.275Z</time>
      </trkpt>
      <trkpt lat="43.1204348" lon="-2.7687618">
        <ele>135.763</ele>
        <time>2021-04-01T09:16:29.333Z</time>
      </trkpt>
      <trkpt lat="43.1204373" lon="-2.7687642">
        <ele>135.789</ele>
        <time>2021-04-01T09:16:29.391Z</time>
      </trkpt>
      <trkpt lat="43.1204398" lon="-2.7687663">
        <ele>135.801</ele>
        <time>2021-04-01T09:16:29.449Z</time>
      </trkpt>
      <trkpt lat="43.1204424" lon="-2.7687684">
        <ele>135.814</ele>
        <time>2021-04-01T09:16:29.507Z</time>
      </trkpt>
      <trkpt lat="43.1204447" lon="-2.7687708">
        <ele>135.85</ele>
        <time>2021-04-01T09:16:29.565Z</time>
      </trkpt>
      <trkpt lat="43.1204473" lon="-2.7687734">
        <ele>135.89</ele>
        <time>2021-04-01T09:16:29.623Z</time>
      </trkpt>
      <trkpt lat="43.1204498" lon="-2.7687757">
        <ele>135.881</ele>
        <time>2021-04-01T09:16:29.681Z</time>
      </trkpt>
      <trkpt lat="43.1204521" lon="-2.7687783">
        <ele>135.898</ele>
        <time>2021-04-01T09:16:29.739Z</time>
      </trkpt>
      <trkpt lat="43.1204547" lon="-2.7687807">
        <ele>135.903</ele>
        <time>2021-04-01T09:16:29.797Z</time>
      </trkpt>
      <trkpt lat="43.1204575" lon="-2.7687833">
        <ele>135.937</ele>
        <time>2021-04-01T09:16:29.855Z</time>
      </trkpt>
      <trkpt lat="43.1204601" lon="-2.768786">
        <ele>135.969</ele>
        <time>2021-04-01T09:16:29.914Z</time>
      </trkpt>
      <trkpt lat="43.1204628" lon="-2.7687885">
        <ele>135.966</ele>
        <time>2021-04-01T09:16:29.969Z</time>
      </trkpt>
      <trkpt lat="43.1204652" lon="-2.7687908">
        <ele>135.931</ele>
        <time>2021-04-01T09:16:30.024Z</time>
      </trkpt>
      <trkpt lat="43.1204677" lon="-2.7687932">
        <ele>135.918</ele>
        <time>2021-04-01T09:16:30.079Z</time>
      </trkpt>
      <trkpt lat="43.1204705" lon="-2.7687956">
        <ele>135.928</ele>
        <time>2021-04-01T09:16:30.134Z</time>
      </trkpt>
      <trkpt lat="43.1204729" lon="-2.7687982">
        <ele>135.899</ele>
        <time>2021-04-01T09:16:30.189Z</time>
      </trkpt>
      <trkpt lat="43.1204753" lon="-2.7688008">
        <ele>135.836</ele>
        <time>2021-04-01T09:16:30.244Z</time>
      </trkpt>
      <trkpt lat="43.1204776" lon="-2.7688029">
        <ele>135.79</ele>
        <time>2021-04-01T09:16:30.299Z</time>
      </trkpt>
      <trkpt lat="43.1204804" lon="-2.7688056">
        <ele>135.808</ele>
        <time>2021-04-01T09:16:30.354Z</time>
      </trkpt>
      <trkpt lat="43.1204837" lon="-2.7688079">
        <ele>135.81</ele>
        <time>2021-04-01T09:16:30.409Z</time>
      </trkpt>
      <trkpt lat="43.1204865" lon="-2.7688102">
        <ele>135.823</ele>
        <time>2021-04-01T09:16:30.464Z</time>
      </trkpt>
      <trkpt lat="43.1204889" lon="-2.7688127">
        <ele>135.785</ele>
        <time>2021-04-01T09:16:30.519Z</time>
      </trkpt>
      <trkpt lat="43.120491" lon="-2.7688154">
        <ele>135.725</ele>
        <time>2021-04-01T09:16:30.574Z</time>
      </trkpt>
      <trkpt lat="43.1204942" lon="-2.7688176">
        <ele>135.75</ele>
        <time>2021-04-01T09:16:30.629Z</time>
      </trkpt>
      <trkpt lat="43.1204968" lon="-2.7688201">
        <ele>135.74</ele>
        <time>2021-04-01T09:16:30.684Z</time>
      </trkpt>
      <trkpt lat="43.1204995" lon="-2.7688226">
        <ele>135.719</ele>
        <time>2021-04-01T09:16:30.739Z</time>
      </trkpt>
      <trkpt lat="43.1205019" lon="-2.768825">
        <ele>135.679</ele>
        <time>2021-04-01T09:16:30.794Z</time>
      </trkpt>
      <trkpt lat="43.120504" lon="-2.7688274">
        <ele>135.643</ele>
        <time>2021-04-01T09:16:30.849Z</time>
      </trkpt>
      <trkpt lat="43.1205066" lon="-2.7688297">
        <ele>135.609</ele>
        <time>2021-04-01T09:16:30.904Z</time>
      </trkpt>
      <trkpt lat="43.1205092" lon="-2.7688322">
        <ele>135.574</ele>
        <time>2021-04-01T09:16:30.959Z</time>
      </trkpt>
      <trkpt lat="43.1205121" lon="-2.7688345">
        <ele>135.597</ele>
        <time>2021-04-01T09:16:31.014Z</time>
      </trkpt>
      <trkpt lat="43.1205145" lon="-2.7688367">
        <ele>135.532</ele>
        <time>2021-04-01T09:16:31.069Z</time>
      </trkpt>
      <trkpt lat="43.1205169" lon="-2.7688391">
        <ele>135.443</ele>
        <time>2021-04-01T09:16:31.124Z</time>
      </trkpt>
      <trkpt lat="43.1205194" lon="-2.7688414">
        <ele>135.411</ele>
        <time>2021-04-01T09:16:31.179Z</time>
      </trkpt>
      <trkpt lat="43.1205222" lon="-2.7688438">
        <ele>135.426</ele>
        <time>2021-04-01T09:16:31.234Z</time>
      </trkpt>
      <trkpt lat="43.1205247" lon="-2.7688461">
        <ele>135.426</ele>
        <time>2021-04-01T09:16:31.289Z</time>
      </trkpt>
      <trkpt lat="43.1205274" lon="-2.7688482">
        <ele>135.441</ele>
        <time>2021-04-01T09:16:31.344Z</time>
      </trkpt>
      <trkpt lat="43.1205293" lon="-2.7688504">
        <ele>135.375</ele>
        <time>2021-04-01T09:16:31.399Z</time>
      </trkpt>
      <trkpt lat="43.1205311" lon="-2.7688522">
        <ele>135.219</ele>
        <time>2021-04-01T09:16:31.454Z</time>
      </trkpt>
      <trkpt lat="43.1205344" lon="-2.7688545">
        <ele>135.216</ele>
        <time>2021-04-01T09:16:31.509Z</time>
      </trkpt>
      <trkpt lat="43.1205371" lon="-2.7688568">
        <ele>135.142</ele>
        <time>2021-04-01T09:16:31.564Z</time>
      </trkpt>
      <trkpt lat="43.1205393" lon="-2.7688593">
        <ele>135.145</ele>
        <time>2021-04-01T09:16:31.619Z</time>
      </trkpt>
      <trkpt lat="43.120542" lon="-2.7688612">
        <ele>135.147</ele>
        <time>2021-04-01T09:16:31.674Z</time>
      </trkpt>
      <trkpt lat="43.1205449" lon="-2.768863">
        <ele>135.146</ele>
        <time>2021-04-01T09:16:31.729Z</time>
      </trkpt>
      <trkpt lat="43.1205475" lon="-2.7688655">
        <ele>135.154</ele>
        <time>2021-04-01T09:16:31.784Z</time>
      </trkpt>
      <trkpt lat="43.1205503" lon="-2.7688684">
        <ele>135.183</ele>
        <time>2021-04-01T09:16:31.839Z</time>
      </trkpt>
      <trkpt lat="43.1205528" lon="-2.7688708">
        <ele>135.137</ele>
        <time>2021-04-01T09:16:31.894Z</time>
      </trkpt>
      <trkpt lat="43.1205555" lon="-2.7688729">
        <ele>135.124</ele>
        <time>2021-04-01T09:16:31.949Z</time>
      </trkpt>
      <trkpt lat="43.1205582" lon="-2.7688751">
        <ele>135.127</ele>
        <time>2021-04-01T09:16:32.004Z</time>
      </trkpt>
      <trkpt lat="43.120561" lon="-2.7688775">
        <ele>135.145</ele>
        <time>2021-04-01T09:16:32.059Z</time>
      </trkpt>
      <trkpt lat="43.1205638" lon="-2.7688802">
        <ele>135.18</ele>
        <time>2021-04-01T09:16:32.114Z</time>
      </trkpt>
      <trkpt lat="43.1205665" lon="-2.7688831">
        <ele>135.195</ele>
        <time>2021-04-01T09:16:32.169Z</time>
      </trkpt>
      <trkpt lat="43.1205689" lon="-2.7688857">
        <ele>135.211</ele>
        <time>2021-04-01T09:16:32.224Z</time>
      </trkpt>
      <trkpt lat="43.1205714" lon="-2.7688881">
        <ele>135.182</ele>
        <time>2021-04-01T09:16:32.279Z</time>
      </trkpt>
      <trkpt lat="43.1205741" lon="-2.7688905">
        <ele>135.171</ele>
        <time>2021-04-01T09:16:32.334Z</time>
      </trkpt>
      <trkpt lat="43.1205768" lon="-2.7688932">
        <ele>135.157</ele>
        <time>2021-04-01T09:16:32.389Z</time>
      </trkpt>
      <trkpt lat="43.1205797" lon="-2.7688959">
        <ele>135.191</ele>
        <time>2021-04-01T09:16:32.444Z</time>
      </trkpt>
      <trkpt lat="43.1205826" lon="-2.7688984">
        <ele>135.253</ele>
        <time>2021-04-01T09:16:32.499Z</time>
      </trkpt>
      <trkpt lat="43.1205855" lon="-2.7689007">
        <ele>135.287</ele>
        <time>2021-04-01T09:16:32.554Z</time>
      </trkpt>
      <trkpt lat="43.120588" lon="-2.7689029">
        <ele>135.261</ele>
        <time>2021-04-01T09:16:32.609Z</time>
      </trkpt>
      <trkpt lat="43.1205902" lon="-2.7689058">
        <ele>135.247</ele>
        <time>2021-04-01T09:16:32.664Z</time>
      </trkpt>
      <trkpt lat="43.1205929" lon="-2.7689081">
        <ele>135.238</ele>
        <time>2021-04-01T09:16:32.719Z</time>
      </trkpt>
      <trkpt lat="43.1205958" lon="-2.7689102">
        <ele>135.256</ele>
        <time>2021-04-01T09:16:32.774Z</time>
      </trkpt>
      <trkpt lat="43.1205988" lon="-2.7689123">
        <ele>135.24</ele>
        <time>2021-04-01T09:16:32.829Z</time>
      </trkpt>
      <trkpt lat="43.1206017" lon="-2.7689147">
        <ele>135.237</ele>
        <time>2021-04-01T09:16:32.884Z</time>
      </trkpt>
      <trkpt lat="43.120604" lon="-2.7689172">
        <ele>135.192</ele>
        <time>2021-04-01T09:16:32.939Z</time>
      </trkpt>
      <trkpt lat="43.1206065" lon="-2.7689193">
        <ele>135.156</ele>
        <time>2021-04-01T09:16:32.994Z</time>
      </trkpt>
      <trkpt lat="43.1206088" lon="-2.7689214">
        <ele>135.075</ele>
        <time>2021-04-01T09:16:33.049Z</time>
      </trkpt>
      <trkpt lat="43.1206112" lon="-2.7689238">
        <ele>135.049</ele>
        <time>2021-04-01T09:16:33.104Z</time>
      </trkpt>
      <trkpt lat="43.1206133" lon="-2.7689266">
        <ele>135.022</ele>
        <time>2021-04-01T09:16:33.159Z</time>
      </trkpt>
      <trkpt lat="43.1206158" lon="-2.7689294">
        <ele>135.017</ele>
        <time>2021-04-01T09:16:33.214Z</time>
      </trkpt>
      <trkpt lat="43.1206185" lon="-2.7689323">
        <ele>135.01</ele>
        <time>2021-04-01T09:16:33.269Z</time>
      </trkpt>
      <trkpt lat="43.1206219" lon="-2.7689349">
        <ele>135.111</ele>
        <time>2021-04-01T09:16:33.324Z</time>
      </trkpt>
      <trkpt lat="43.1206245" lon="-2.7689379">
        <ele>135.163</ele>
        <time>2021-04-01T09:16:33.379Z</time>
      </trkpt>
      <trkpt lat="43.1206269" lon="-2.7689405">
        <ele>135.142</ele>
        <time>2021-04-01T09:16:33.434Z</time>
      </trkpt>
      <trkpt lat="43.1206293" lon="-2.7689431">
        <ele>135.115</ele>
        <time>2021-04-01T09:16:33.489Z</time>
      </trkpt>
      <trkpt lat="43.1206325" lon="-2.7689454">
        <ele>135.126</ele>
        <time>2021-04-01T09:16:33.544Z</time>
      </trkpt>
      <trkpt lat="43.1206348" lon="-2.7689486">
        <ele>135.15</ele>
        <time>2021-04-01T09:16:33.599Z</time>
      </trkpt>
      <trkpt lat="43.1206374" lon="-2.7689517">
        <ele>135.161</ele>
        <time>2021-04-01T09:16:33.654Z</time>
      </trkpt>
      <trkpt lat="43.1206394" lon="-2.7689546">
        <ele>135.118</ele>
        <time>2021-04-01T09:16:33.709Z</time>
      </trkpt>
      <trkpt lat="43.1206416" lon="-2.7689572">
        <ele>135.073</ele>
        <time>2021-04-01T09:16:33.764Z</time>
      </trkpt>
      <trkpt lat="43.1206436" lon="-2.7689585">
        <ele>134.955</ele>
        <time>2021-04-01T09:16:33.819Z</time>
      </trkpt>
      <trkpt lat="43.120646" lon="-2.7689609">
        <ele>134.929</ele>
        <time>2021-04-01T09:16:33.874Z</time>
      </trkpt>
      <trkpt lat="43.1206487" lon="-2.7689642">
        <ele>134.978</ele>
        <time>2021-04-01T09:16:33.929Z</time>
      </trkpt>
      <trkpt lat="43.1206513" lon="-2.7689668">
        <ele>134.95</ele>
        <time>2021-04-01T09:16:33.984Z</time>
      </trkpt>
      <trkpt lat="43.1206537" lon="-2.7689694">
        <ele>134.964</ele>
        <time>2021-04-01T09:16:34.039Z</time>
      </trkpt>
      <trkpt lat="43.1206557" lon="-2.7689719">
        <ele>134.876</ele>
        <time>2021-04-01T09:16:34.094Z</time>
      </trkpt>
      <trkpt lat="43.1206581" lon="-2.7689746">
        <ele>134.876</ele>
        <time>2021-04-01T09:16:34.149Z</time>
      </trkpt>
      <trkpt lat="43.1206606" lon="-2.7689778">
        <ele>134.928</ele>
        <time>2021-04-01T09:16:34.204Z</time>
      </trkpt>
      <trkpt lat="43.120663" lon="-2.7689796">
        <ele>134.845</ele>
        <time>2021-04-01T09:16:34.259Z</time>
      </trkpt>
      <trkpt lat="43.1206651" lon="-2.7689827">
        <ele>134.854</ele>
        <time>2021-04-01T09:16:34.314Z</time>
      </trkpt>
      <trkpt lat="43.1206673" lon="-2.7689857">
        <ele>134.824</ele>
        <time>2021-04-01T09:16:34.369Z</time>
      </trkpt>
      <trkpt lat="43.12067" lon="-2.7689878">
        <ele>134.809</ele>
        <time>2021-04-01T09:16:34.424Z</time>
      </trkpt>
      <trkpt lat="43.1206724" lon="-2.7689907">
        <ele>134.827</ele>
        <time>2021-04-01T09:16:34.479Z</time>
      </trkpt>
      <trkpt lat="43.1206748" lon="-2.7689927">
        <ele>134.743</ele>
        <time>2021-04-01T09:16:34.534Z</time>
      </trkpt>
      <trkpt lat="43.1206779" lon="-2.7689957">
        <ele>134.822</ele>
        <time>2021-04-01T09:16:34.589Z</time>
      </trkpt>
      <trkpt lat="43.1206807" lon="-2.7689982">
        <ele>134.834</ele>
        <time>2021-04-01T09:16:34.644Z</time>
      </trkpt>
      <trkpt lat="43.1206835" lon="-2.7690009">
        <ele>134.853</ele>
        <time>2021-04-01T09:16:34.699Z</time>
      </trkpt>
      <trkpt lat="43.1206862" lon="-2.7690037">
        <ele>134.903</ele>
        <time>2021-04-01T09:16:34.754Z</time>
      </trkpt>
      <trkpt lat="43.1206889" lon="-2.7690062">
        <ele>134.893</ele>
        <time>2021-04-01T09:16:34.809Z</time>
      </trkpt>
      <trkpt lat="43.1206914" lon="-2.7690085">
        <ele>134.863</ele>
        <time>2021-04-01T09:16:34.864Z</time>
      </trkpt>
      <trkpt lat="43.1206941" lon="-2.7690107">
        <ele>134.863</ele>
        <time>2021-04-01T09:16:34.919Z</time>
      </trkpt>
      <trkpt lat="43.1206966" lon="-2.7690132">
        <ele>134.867</ele>
        <time>2021-04-01T09:16:34.974Z</time>
      </trkpt>
      <trkpt lat="43.1206992" lon="-2.7690159">
        <ele>134.86</ele>
        <time>2021-04-01T09:16:35.029Z</time>
      </trkpt>
      <trkpt lat="43.1207017" lon="-2.7690182">
        <ele>134.833</ele>
        <time>2021-04-01T09:16:35.084Z</time>
      </trkpt>
      <trkpt lat="43.1207042" lon="-2.7690207">
        <ele>134.835</ele>
        <time>2021-04-01T09:16:35.139Z</time>
      </trkpt>
      <trkpt lat="43.120707" lon="-2.7690227">
        <ele>134.816</ele>
        <time>2021-04-01T09:16:35.194Z</time>
      </trkpt>
      <trkpt lat="43.1207093" lon="-2.7690253">
        <ele>134.796</ele>
        <time>2021-04-01T09:16:35.249Z</time>
      </trkpt>
      <trkpt lat="43.1207115" lon="-2.7690282">
        <ele>134.798</ele>
        <time>2021-04-01T09:16:35.304Z</time>
      </trkpt>
      <trkpt lat="43.120714" lon="-2.76903">
        <ele>134.732</ele>
        <time>2021-04-01T09:16:35.359Z</time>
      </trkpt>
      <trkpt lat="43.1207164" lon="-2.769033">
        <ele>134.77</ele>
        <time>2021-04-01T09:16:35.414Z</time>
      </trkpt>
      <trkpt lat="43.120719" lon="-2.769035">
        <ele>134.746</ele>
        <time>2021-04-01T09:16:35.469Z</time>
      </trkpt>
      <trkpt lat="43.1207214" lon="-2.7690372">
        <ele>134.711</ele>
        <time>2021-04-01T09:16:35.524Z</time>
      </trkpt>
      <trkpt lat="43.1207239" lon="-2.7690398">
        <ele>134.728</ele>
        <time>2021-04-01T09:16:35.579Z</time>
      </trkpt>
      <trkpt lat="43.1207259" lon="-2.7690418">
        <ele>134.641</ele>
        <time>2021-04-01T09:16:35.634Z</time>
      </trkpt>
      <trkpt lat="43.1207282" lon="-2.7690436">
        <ele>134.592</ele>
        <time>2021-04-01T09:16:35.689Z</time>
      </trkpt>
      <trkpt lat="43.1207309" lon="-2.7690457">
        <ele>134.65</ele>
        <time>2021-04-01T09:16:35.744Z</time>
      </trkpt>
      <trkpt lat="43.1207334" lon="-2.7690477">
        <ele>134.667</ele>
        <time>2021-04-01T09:16:35.799Z</time>
      </trkpt>
      <trkpt lat="43.1207358" lon="-2.7690492">
        <ele>134.614</ele>
        <time>2021-04-01T09:16:35.854Z</time>
      </trkpt>
      <trkpt lat="43.1207379" lon="-2.7690516">
        <ele>134.615</ele>
        <time>2021-04-01T09:16:35.909Z</time>
      </trkpt>
      <trkpt lat="43.1207401" lon="-2.7690532">
        <ele>134.58</ele>
        <time>2021-04-01T09:16:35.961Z</time>
      </trkpt>
      <trkpt lat="43.1207424" lon="-2.7690551">
        <ele>134.538</ele>
        <time>2021-04-01T09:16:36.013Z</time>
      </trkpt>
      <trkpt lat="43.1207446" lon="-2.7690572">
        <ele>134.526</ele>
        <time>2021-04-01T09:16:36.065Z</time>
      </trkpt>
      <trkpt lat="43.1207468" lon="-2.7690593">
        <ele>134.515</ele>
        <time>2021-04-01T09:16:36.117Z</time>
      </trkpt>
      <trkpt lat="43.1207488" lon="-2.7690616">
        <ele>134.485</ele>
        <time>2021-04-01T09:16:36.169Z</time>
      </trkpt>
      <trkpt lat="43.1207511" lon="-2.7690638">
        <ele>134.478</ele>
        <time>2021-04-01T09:16:36.221Z</time>
      </trkpt>
      <trkpt lat="43.1207533" lon="-2.7690664">
        <ele>134.496</ele>
        <time>2021-04-01T09:16:36.273Z</time>
      </trkpt>
      <trkpt lat="43.1207556" lon="-2.7690688">
        <ele>134.515</ele>
        <time>2021-04-01T09:16:36.325Z</time>
      </trkpt>
      <trkpt lat="43.1207576" lon="-2.7690713">
        <ele>134.489</ele>
        <time>2021-04-01T09:16:36.377Z</time>
      </trkpt>
      <trkpt lat="43.1207598" lon="-2.7690737">
        <ele>134.469</ele>
        <time>2021-04-01T09:16:36.430Z</time>
      </trkpt>
      <trkpt lat="43.1207618" lon="-2.7690761">
        <ele>134.456</ele>
        <time>2021-04-01T09:16:36.482Z</time>
      </trkpt>
      <trkpt lat="43.1207637" lon="-2.7690789">
        <ele>134.443</ele>
        <time>2021-04-01T09:16:36.534Z</time>
      </trkpt>
      <trkpt lat="43.1207657" lon="-2.7690816">
        <ele>134.461</ele>
        <time>2021-04-01T09:16:36.586Z</time>
      </trkpt>
      <trkpt lat="43.1207669" lon="-2.7690846">
        <ele>134.421</ele>
        <time>2021-04-01T09:16:36.638Z</time>
      </trkpt>
      <trkpt lat="43.1207686" lon="-2.7690879">
        <ele>134.448</ele>
        <time>2021-04-01T09:16:36.690Z</time>
      </trkpt>
      <trkpt lat="43.1207711" lon="-2.769091">
        <ele>134.544</ele>
        <time>2021-04-01T09:16:36.742Z</time>
      </trkpt>
      <trkpt lat="43.1207732" lon="-2.7690934">
        <ele>134.551</ele>
        <time>2021-04-01T09:16:36.794Z</time>
      </trkpt>
      <trkpt lat="43.120775" lon="-2.7690957">
        <ele>134.51</ele>
        <time>2021-04-01T09:16:36.846Z</time>
      </trkpt>
      <trkpt lat="43.1207769" lon="-2.769098">
        <ele>134.492</ele>
        <time>2021-04-01T09:16:36.899Z</time>
      </trkpt>
      <trkpt lat="43.1207789" lon="-2.7691002">
        <ele>134.48</ele>
        <time>2021-04-01T09:16:36.957Z</time>
      </trkpt>
      <trkpt lat="43.1207809" lon="-2.7691021">
        <ele>134.433</ele>
        <time>2021-04-01T09:16:37.015Z</time>
      </trkpt>
      <trkpt lat="43.1207829" lon="-2.7691045">
        <ele>134.435</ele>
        <time>2021-04-01T09:16:37.073Z</time>
      </trkpt>
      <trkpt lat="43.1207849" lon="-2.7691066">
        <ele>134.421</ele>
        <time>2021-04-01T09:16:37.131Z</time>
      </trkpt>
      <trkpt lat="43.120787" lon="-2.7691088">
        <ele>134.424</ele>
        <time>2021-04-01T09:16:37.190Z</time>
      </trkpt>
      <trkpt lat="43.1207889" lon="-2.7691107">
        <ele>134.389</ele>
        <time>2021-04-01T09:16:37.248Z</time>
      </trkpt>
      <trkpt lat="43.120791" lon="-2.7691119">
        <ele>134.304</ele>
        <time>2021-04-01T09:16:37.306Z</time>
      </trkpt>
      <trkpt lat="43.1207931" lon="-2.7691128">
        <ele>134.201</ele>
        <time>2021-04-01T09:16:37.364Z</time>
      </trkpt>
      <trkpt lat="43.120795" lon="-2.7691147">
        <ele>134.134</ele>
        <time>2021-04-01T09:16:37.423Z</time>
      </trkpt>
      <trkpt lat="43.1207975" lon="-2.7691167">
        <ele>134.137</ele>
        <time>2021-04-01T09:16:37.481Z</time>
      </trkpt>
      <trkpt lat="43.1208" lon="-2.7691189">
        <ele>134.148</ele>
        <time>2021-04-01T09:16:37.539Z</time>
      </trkpt>
      <trkpt lat="43.1208019" lon="-2.7691218">
        <ele>134.143</ele>
        <time>2021-04-01T09:16:37.597Z</time>
      </trkpt>
      <trkpt lat="43.120804" lon="-2.7691242">
        <ele>134.13</ele>
        <time>2021-04-01T09:16:37.656Z</time>
      </trkpt>
      <trkpt lat="43.1208056" lon="-2.7691267">
        <ele>134.112</ele>
        <time>2021-04-01T09:16:37.714Z</time>
      </trkpt>
      <trkpt lat="43.1208072" lon="-2.769129">
        <ele>134.081</ele>
        <time>2021-04-01T09:16:37.772Z</time>
      </trkpt>
      <trkpt lat="43.1208085" lon="-2.7691315">
        <ele>134.041</ele>
        <time>2021-04-01T09:16:37.830Z</time>
      </trkpt>
      <trkpt lat="43.12081" lon="-2.7691336">
        <ele>134.002</ele>
        <time>2021-04-01T09:16:37.889Z</time>
      </trkpt>
      <trkpt lat="43.1208121" lon="-2.769136">
        <ele>134.032</ele>
        <time>2021-04-01T09:16:37.944Z</time>
      </trkpt>
      <trkpt lat="43.1208142" lon="-2.7691382">
        <ele>134.018</ele>
        <time>2021-04-01T09:16:37.999Z</time>
      </trkpt>
      <trkpt lat="43.1208159" lon="-2.7691413">
        <ele>134.038</ele>
        <time>2021-04-01T09:16:38.054Z</time>
      </trkpt>
      <trkpt lat="43.1208173" lon="-2.7691436">
        <ele>134.02</ele>
        <time>2021-04-01T09:16:38.109Z</time>
      </trkpt>
      <trkpt lat="43.120819" lon="-2.769146">
        <ele>133.999</ele>
        <time>2021-04-01T09:16:38.164Z</time>
      </trkpt>
      <trkpt lat="43.1208213" lon="-2.7691483">
        <ele>134.036</ele>
        <time>2021-04-01T09:16:38.219Z</time>
      </trkpt>
      <trkpt lat="43.1208245" lon="-2.7691497">
        <ele>134.044</ele>
        <time>2021-04-01T09:16:38.274Z</time>
      </trkpt>
      <trkpt lat="43.1208274" lon="-2.7691509">
        <ele>134.028</ele>
        <time>2021-04-01T09:16:38.329Z</time>
      </trkpt>
      <trkpt lat="43.1208289" lon="-2.7691531">
        <ele>133.972</ele>
        <time>2021-04-01T09:16:38.384Z</time>
      </trkpt>
      <trkpt lat="43.1208307" lon="-2.7691559">
        <ele>134.018</ele>
        <time>2021-04-01T09:16:38.439Z</time>
      </trkpt>
      <trkpt lat="43.1208325" lon="-2.7691582">
        <ele>134.028</ele>
        <time>2021-04-01T09:16:38.494Z</time>
      </trkpt>
      <trkpt lat="43.1208344" lon="-2.7691601">
        <ele>134.007</ele>
        <time>2021-04-01T09:16:38.549Z</time>
      </trkpt>
      <trkpt lat="43.1208365" lon="-2.7691617">
        <ele>133.965</ele>
        <time>2021-04-01T09:16:38.604Z</time>
      </trkpt>
      <trkpt lat="43.1208383" lon="-2.7691633">
        <ele>133.887</ele>
        <time>2021-04-01T09:16:38.659Z</time>
      </trkpt>
      <trkpt lat="43.1208401" lon="-2.7691652">
        <ele>133.855</ele>
        <time>2021-04-01T09:16:38.714Z</time>
      </trkpt>
      <trkpt lat="43.120842" lon="-2.7691672">
        <ele>133.852</ele>
        <time>2021-04-01T09:16:38.769Z</time>
      </trkpt>
      <trkpt lat="43.1208441" lon="-2.7691694">
        <ele>133.883</ele>
        <time>2021-04-01T09:16:38.824Z</time>
      </trkpt>
      <trkpt lat="43.1208469" lon="-2.7691714">
        <ele>133.929</ele>
        <time>2021-04-01T09:16:38.879Z</time>
      </trkpt>
      <trkpt lat="43.1208491" lon="-2.7691731">
        <ele>133.938</ele>
        <time>2021-04-01T09:16:38.934Z</time>
      </trkpt>
      <trkpt lat="43.1208509" lon="-2.7691759">
        <ele>133.978</ele>
        <time>2021-04-01T09:16:38.989Z</time>
      </trkpt>
      <trkpt lat="43.1208532" lon="-2.7691778">
        <ele>134.024</ele>
        <time>2021-04-01T09:16:39.044Z</time>
      </trkpt>
      <trkpt lat="43.1208554" lon="-2.7691804">
        <ele>134.075</ele>
        <time>2021-04-01T09:16:39.099Z</time>
      </trkpt>
      <trkpt lat="43.1208577" lon="-2.7691829">
        <ele>134.124</ele>
        <time>2021-04-01T09:16:39.154Z</time>
      </trkpt>
      <trkpt lat="43.12086" lon="-2.7691855">
        <ele>134.196</ele>
        <time>2021-04-01T09:16:39.209Z</time>
      </trkpt>
      <trkpt lat="43.1208627" lon="-2.7691869">
        <ele>134.209</ele>
        <time>2021-04-01T09:16:39.264Z</time>
      </trkpt>
      <trkpt lat="43.1208658" lon="-2.7691877">
        <ele>134.214</ele>
        <time>2021-04-01T09:16:39.319Z</time>
      </trkpt>
      <trkpt lat="43.1208681" lon="-2.769189">
        <ele>134.182</ele>
        <time>2021-04-01T09:16:39.374Z</time>
      </trkpt>
      <trkpt lat="43.1208704" lon="-2.7691908">
        <ele>134.178</ele>
        <time>2021-04-01T09:16:39.429Z</time>
      </trkpt>
      <trkpt lat="43.1208727" lon="-2.7691928">
        <ele>134.197</ele>
        <time>2021-04-01T09:16:39.484Z</time>
      </trkpt>
      <trkpt lat="43.1208751" lon="-2.7691948">
        <ele>134.247</ele>
        <time>2021-04-01T09:16:39.539Z</time>
      </trkpt>
      <trkpt lat="43.1208773" lon="-2.7691971">
        <ele>134.286</ele>
        <time>2021-04-01T09:16:39.594Z</time>
      </trkpt>
      <trkpt lat="43.1208793" lon="-2.7691995">
        <ele>134.309</ele>
        <time>2021-04-01T09:16:39.649Z</time>
      </trkpt>
      <trkpt lat="43.1208814" lon="-2.7692015">
        <ele>134.339</ele>
        <time>2021-04-01T09:16:39.704Z</time>
      </trkpt>
      <trkpt lat="43.1208832" lon="-2.7692037">
        <ele>134.32</ele>
        <time>2021-04-01T09:16:39.759Z</time>
      </trkpt>
      <trkpt lat="43.120885" lon="-2.7692061">
        <ele>134.309</ele>
        <time>2021-04-01T09:16:39.814Z</time>
      </trkpt>
      <trkpt lat="43.1208869" lon="-2.7692079">
        <ele>134.286</ele>
        <time>2021-04-01T09:16:39.869Z</time>
      </trkpt>
      <trkpt lat="43.1208887" lon="-2.7692104">
        <ele>134.3</ele>
        <time>2021-04-01T09:16:39.924Z</time>
      </trkpt>
      <trkpt lat="43.1208912" lon="-2.769212">
        <ele>134.334</ele>
        <time>2021-04-01T09:16:39.979Z</time>
      </trkpt>
      <trkpt lat="43.1208924" lon="-2.7692151">
        <ele>134.338</ele>
        <time>2021-04-01T09:16:40.034Z</time>
      </trkpt>
      <trkpt lat="43.1208943" lon="-2.7692169">
        <ele>134.312</ele>
        <time>2021-04-01T09:16:40.089Z</time>
      </trkpt>
      <trkpt lat="43.120896" lon="-2.7692191">
        <ele>134.301</ele>
        <time>2021-04-01T09:16:40.144Z</time>
      </trkpt>
      <trkpt lat="43.1208975" lon="-2.7692214">
        <ele>134.273</ele>
        <time>2021-04-01T09:16:40.199Z</time>
      </trkpt>
      <trkpt lat="43.1208993" lon="-2.769223">
        <ele>134.218</ele>
        <time>2021-04-01T09:16:40.254Z</time>
      </trkpt>
      <trkpt lat="43.1209009" lon="-2.769225">
        <ele>134.199</ele>
        <time>2021-04-01T09:16:40.309Z</time>
      </trkpt>
      <trkpt lat="43.1209025" lon="-2.7692268">
        <ele>134.161</ele>
        <time>2021-04-01T09:16:40.364Z</time>
      </trkpt>
      <trkpt lat="43.1209041" lon="-2.7692291">
        <ele>134.106</ele>
        <time>2021-04-01T09:16:40.419Z</time>
      </trkpt>
      <trkpt lat="43.1209054" lon="-2.769231">
        <ele>134.031</ele>
        <time>2021-04-01T09:16:40.474Z</time>
      </trkpt>
      <trkpt lat="43.1209069" lon="-2.7692334">
        <ele>134.021</ele>
        <time>2021-04-01T09:16:40.529Z</time>
      </trkpt>
      <trkpt lat="43.1209081" lon="-2.7692356">
        <ele>133.98</ele>
        <time>2021-04-01T09:16:40.584Z</time>
      </trkpt>
      <trkpt lat="43.12091" lon="-2.7692366">
        <ele>133.888</ele>
        <time>2021-04-01T09:16:40.639Z</time>
      </trkpt>
      <trkpt lat="43.1209113" lon="-2.7692399">
        <ele>133.921</ele>
        <time>2021-04-01T09:16:40.694Z</time>
      </trkpt>
      <trkpt lat="43.1209131" lon="-2.7692425">
        <ele>133.946</ele>
        <time>2021-04-01T09:16:40.749Z</time>
      </trkpt>
      <trkpt lat="43.1209149" lon="-2.7692449">
        <ele>133.958</ele>
        <time>2021-04-01T09:16:40.804Z</time>
      </trkpt>
      <trkpt lat="43.1209167" lon="-2.7692473">
        <ele>133.978</ele>
        <time>2021-04-01T09:16:40.859Z</time>
      </trkpt>
      <trkpt lat="43.1209185" lon="-2.7692496">
        <ele>133.98</ele>
        <time>2021-04-01T09:16:40.914Z</time>
      </trkpt>
      <trkpt lat="43.1209202" lon="-2.7692523">
        <ele>134.002</ele>
        <time>2021-04-01T09:16:40.969Z</time>
      </trkpt>
      <trkpt lat="43.1209221" lon="-2.7692549">
        <ele>134.014</ele>
        <time>2021-04-01T09:16:41.024Z</time>
      </trkpt>
      <trkpt lat="43.1209242" lon="-2.7692571">
        <ele>134.021</ele>
        <time>2021-04-01T09:16:41.079Z</time>
      </trkpt>
      <trkpt lat="43.1209266" lon="-2.7692592">
        <ele>134.061</ele>
        <time>2021-04-01T09:16:41.134Z</time>
      </trkpt>
      <trkpt lat="43.1209288" lon="-2.7692615">
        <ele>134.094</ele>
        <time>2021-04-01T09:16:41.189Z</time>
      </trkpt>
      <trkpt lat="43.1209299" lon="-2.7692648">
        <ele>134.102</ele>
        <time>2021-04-01T09:16:41.244Z</time>
      </trkpt>
      <trkpt lat="43.1209314" lon="-2.7692668">
        <ele>134.058</ele>
        <time>2021-04-01T09:16:41.299Z</time>
      </trkpt>
      <trkpt lat="43.1209334" lon="-2.7692694">
        <ele>134.087</ele>
        <time>2021-04-01T09:16:41.354Z</time>
      </trkpt>
      <trkpt lat="43.1209356" lon="-2.7692719">
        <ele>134.142</ele>
        <time>2021-04-01T09:16:41.409Z</time>
      </trkpt>
      <trkpt lat="43.1209377" lon="-2.7692741">
        <ele>134.148</ele>
        <time>2021-04-01T09:16:41.464Z</time>
      </trkpt>
      <trkpt lat="43.1209391" lon="-2.7692766">
        <ele>134.104</ele>
        <time>2021-04-01T09:16:41.519Z</time>
      </trkpt>
      <trkpt lat="43.120941" lon="-2.7692789">
        <ele>134.095</ele>
        <time>2021-04-01T09:16:41.574Z</time>
      </trkpt>
      <trkpt lat="43.1209428" lon="-2.7692815">
        <ele>134.113</ele>
        <time>2021-04-01T09:16:41.629Z</time>
      </trkpt>
      <trkpt lat="43.1209447" lon="-2.7692839">
        <ele>134.154</ele>
        <time>2021-04-01T09:16:41.684Z</time>
      </trkpt>
      <trkpt lat="43.1209468" lon="-2.7692865">
        <ele>134.209</ele>
        <time>2021-04-01T09:16:41.739Z</time>
      </trkpt>
      <trkpt lat="43.1209488" lon="-2.7692895">
        <ele>134.279</ele>
        <time>2021-04-01T09:16:41.794Z</time>
      </trkpt>
      <trkpt lat="43.1209509" lon="-2.7692922">
        <ele>134.323</ele>
        <time>2021-04-01T09:16:41.849Z</time>
      </trkpt>
      <trkpt lat="43.1209533" lon="-2.7692947">
        <ele>134.413</ele>
        <time>2021-04-01T09:16:41.904Z</time>
      </trkpt>
      <trkpt lat="43.1209554" lon="-2.7692975">
        <ele>134.469</ele>
        <time>2021-04-01T09:16:41.956Z</time>
      </trkpt>
      <trkpt lat="43.1209573" lon="-2.7692988">
        <ele>134.417</ele>
        <time>2021-04-01T09:16:42.008Z</time>
      </trkpt>
      <trkpt lat="43.120959" lon="-2.769301">
        <ele>134.38</ele>
        <time>2021-04-01T09:16:42.060Z</time>
      </trkpt>
      <trkpt lat="43.1209606" lon="-2.7693022">
        <ele>134.27</ele>
        <time>2021-04-01T09:16:42.112Z</time>
      </trkpt>
      <trkpt lat="43.1209625" lon="-2.7693038">
        <ele>134.226</ele>
        <time>2021-04-01T09:16:42.164Z</time>
      </trkpt>
      <trkpt lat="43.1209646" lon="-2.7693058">
        <ele>134.211</ele>
        <time>2021-04-01T09:16:42.216Z</time>
      </trkpt>
      <trkpt lat="43.1209666" lon="-2.7693085">
        <ele>134.253</ele>
        <time>2021-04-01T09:16:42.268Z</time>
      </trkpt>
      <trkpt lat="43.1209688" lon="-2.7693108">
        <ele>134.283</ele>
        <time>2021-04-01T09:16:42.320Z</time>
      </trkpt>
      <trkpt lat="43.1209709" lon="-2.7693129">
        <ele>134.286</ele>
        <time>2021-04-01T09:16:42.372Z</time>
      </trkpt>
      <trkpt lat="43.1209728" lon="-2.7693153">
        <ele>134.289</ele>
        <time>2021-04-01T09:16:42.425Z</time>
      </trkpt>
      <trkpt lat="43.1209749" lon="-2.7693175">
        <ele>134.291</ele>
        <time>2021-04-01T09:16:42.477Z</time>
      </trkpt>
      <trkpt lat="43.1209772" lon="-2.76932">
        <ele>134.316</ele>
        <time>2021-04-01T09:16:42.529Z</time>
      </trkpt>
      <trkpt lat="43.1209792" lon="-2.7693225">
        <ele>134.323</ele>
        <time>2021-04-01T09:16:42.581Z</time>
      </trkpt>
      <trkpt lat="43.120981" lon="-2.7693245">
        <ele>134.282</ele>
        <time>2021-04-01T09:16:42.633Z</time>
      </trkpt>
      <trkpt lat="43.1209828" lon="-2.7693272">
        <ele>134.321</ele>
        <time>2021-04-01T09:16:42.685Z</time>
      </trkpt>
      <trkpt lat="43.1209847" lon="-2.7693294">
        <ele>134.291</ele>
        <time>2021-04-01T09:16:42.737Z</time>
      </trkpt>
      <trkpt lat="43.1209867" lon="-2.7693314">
        <ele>134.246</ele>
        <time>2021-04-01T09:16:42.789Z</time>
      </trkpt>
      <trkpt lat="43.1209886" lon="-2.7693337">
        <ele>134.211</ele>
        <time>2021-04-01T09:16:42.841Z</time>
      </trkpt>
      <trkpt lat="43.1209908" lon="-2.7693362">
        <ele>134.248</ele>
        <time>2021-04-01T09:16:42.894Z</time>
      </trkpt>
      <trkpt lat="43.1209931" lon="-2.7693387">
        <ele>134.306</ele>
        <time>2021-04-01T09:16:42.955Z</time>
      </trkpt>
      <trkpt lat="43.1209953" lon="-2.7693412">
        <ele>134.327</ele>
        <time>2021-04-01T09:16:43.016Z</time>
      </trkpt>
      <trkpt lat="43.1209973" lon="-2.7693439">
        <ele>134.35</ele>
        <time>2021-04-01T09:16:43.078Z</time>
      </trkpt>
      <trkpt lat="43.1209994" lon="-2.769346">
        <ele>134.313</ele>
        <time>2021-04-01T09:16:43.139Z</time>
      </trkpt>
      <trkpt lat="43.1210018" lon="-2.7693479">
        <ele>134.316</ele>
        <time>2021-04-01T09:16:43.201Z</time>
      </trkpt>
      <trkpt lat="43.121004" lon="-2.7693512">
        <ele>134.439</ele>
        <time>2021-04-01T09:16:43.262Z</time>
      </trkpt>
      <trkpt lat="43.1210061" lon="-2.7693536">
        <ele>134.441</ele>
        <time>2021-04-01T09:16:43.324Z</time>
      </trkpt>
      <trkpt lat="43.1210082" lon="-2.7693562">
        <ele>134.464</ele>
        <time>2021-04-01T09:16:43.385Z</time>
      </trkpt>
      <trkpt lat="43.1210105" lon="-2.7693585">
        <ele>134.472</ele>
        <time>2021-04-01T09:16:43.447Z</time>
      </trkpt>
      <trkpt lat="43.1210126" lon="-2.7693611">
        <ele>134.486</ele>
        <time>2021-04-01T09:16:43.508Z</time>
      </trkpt>
      <trkpt lat="43.1210147" lon="-2.7693638">
        <ele>134.522</ele>
        <time>2021-04-01T09:16:43.570Z</time>
      </trkpt>
      <trkpt lat="43.1210167" lon="-2.769366">
        <ele>134.504</ele>
        <time>2021-04-01T09:16:43.631Z</time>
      </trkpt>
      <trkpt lat="43.1210187" lon="-2.7693688">
        <ele>134.542</ele>
        <time>2021-04-01T09:16:43.693Z</time>
      </trkpt>
      <trkpt lat="43.1210205" lon="-2.7693716">
        <ele>134.587</ele>
        <time>2021-04-01T09:16:43.754Z</time>
      </trkpt>
      <trkpt lat="43.1210223" lon="-2.7693738">
        <ele>134.571</ele>
        <time>2021-04-01T09:16:43.816Z</time>
      </trkpt>
      <trkpt lat="43.1210246" lon="-2.7693759">
        <ele>134.545</ele>
        <time>2021-04-01T09:16:43.877Z</time>
      </trkpt>
      <trkpt lat="43.1210264" lon="-2.7693787">
        <ele>134.538</ele>
        <time>2021-04-01T09:16:43.939Z</time>
      </trkpt>
      <trkpt lat="43.1210281" lon="-2.7693813">
        <ele>134.532</ele>
        <time>2021-04-01T09:16:43.991Z</time>
      </trkpt>
      <trkpt lat="43.12103" lon="-2.7693836">
        <ele>134.502</ele>
        <time>2021-04-01T09:16:44.043Z</time>
      </trkpt>
      <trkpt lat="43.121032" lon="-2.7693864">
        <ele>134.537</ele>
        <time>2021-04-01T09:16:44.095Z</time>
      </trkpt>
      <trkpt lat="43.1210341" lon="-2.7693885">
        <ele>134.501</ele>
        <time>2021-04-01T09:16:44.147Z</time>
      </trkpt>
      <trkpt lat="43.1210359" lon="-2.7693909">
        <ele>134.492</ele>
        <time>2021-04-01T09:16:44.199Z</time>
      </trkpt>
      <trkpt lat="43.1210372" lon="-2.7693935">
        <ele>134.482</ele>
        <time>2021-04-01T09:16:44.251Z</time>
      </trkpt>
      <trkpt lat="43.1210382" lon="-2.7693959">
        <ele>134.383</ele>
        <time>2021-04-01T09:16:44.303Z</time>
      </trkpt>
      <trkpt lat="43.1210398" lon="-2.7693986">
        <ele>134.331</ele>
        <time>2021-04-01T09:16:44.355Z</time>
      </trkpt>
      <trkpt lat="43.1210412" lon="-2.7694017">
        <ele>134.345</ele>
        <time>2021-04-01T09:16:44.407Z</time>
      </trkpt>
      <trkpt lat="43.1210426" lon="-2.7694044">
        <ele>134.343</ele>
        <time>2021-04-01T09:16:44.460Z</time>
      </trkpt>
      <trkpt lat="43.1210444" lon="-2.7694069">
        <ele>134.314</ele>
        <time>2021-04-01T09:16:44.512Z</time>
      </trkpt>
      <trkpt lat="43.1210459" lon="-2.7694095">
        <ele>134.295</ele>
        <time>2021-04-01T09:16:44.564Z</time>
      </trkpt>
      <trkpt lat="43.1210473" lon="-2.7694124">
        <ele>134.255</ele>
        <time>2021-04-01T09:16:44.616Z</time>
      </trkpt>
      <trkpt lat="43.1210487" lon="-2.7694155">
        <ele>134.259</ele>
        <time>2021-04-01T09:16:44.668Z</time>
      </trkpt>
      <trkpt lat="43.12105" lon="-2.7694187">
        <ele>134.255</ele>
        <time>2021-04-01T09:16:44.720Z</time>
      </trkpt>
      <trkpt lat="43.1210513" lon="-2.7694219">
        <ele>134.263</ele>
        <time>2021-04-01T09:16:44.772Z</time>
      </trkpt>
      <trkpt lat="43.1210526" lon="-2.7694247">
        <ele>134.23</ele>
        <time>2021-04-01T09:16:44.824Z</time>
      </trkpt>
      <trkpt lat="43.121054" lon="-2.7694278">
        <ele>134.251</ele>
        <time>2021-04-01T09:16:44.876Z</time>
      </trkpt>
      <trkpt lat="43.1210554" lon="-2.7694312">
        <ele>134.294</ele>
        <time>2021-04-01T09:16:44.929Z</time>
      </trkpt>
      <trkpt lat="43.1210567" lon="-2.7694347">
        <ele>134.343</ele>
        <time>2021-04-01T09:16:44.984Z</time>
      </trkpt>
      <trkpt lat="43.1210581" lon="-2.7694376">
        <ele>134.312</ele>
        <time>2021-04-01T09:16:45.039Z</time>
      </trkpt>
      <trkpt lat="43.1210596" lon="-2.7694409">
        <ele>134.337</ele>
        <time>2021-04-01T09:16:45.094Z</time>
      </trkpt>
      <trkpt lat="43.1210612" lon="-2.7694441">
        <ele>134.368</ele>
        <time>2021-04-01T09:16:45.149Z</time>
      </trkpt>
      <trkpt lat="43.1210628" lon="-2.7694472">
        <ele>134.376</ele>
        <time>2021-04-01T09:16:45.204Z</time>
      </trkpt>
      <trkpt lat="43.1210642" lon="-2.7694505">
        <ele>134.368</ele>
        <time>2021-04-01T09:16:45.259Z</time>
      </trkpt>
      <trkpt lat="43.1210658" lon="-2.7694534">
        <ele>134.37</ele>
        <time>2021-04-01T09:16:45.314Z</time>
      </trkpt>
      <trkpt lat="43.1210674" lon="-2.7694568">
        <ele>134.415</ele>
        <time>2021-04-01T09:16:45.369Z</time>
      </trkpt>
      <trkpt lat="43.1210694" lon="-2.76946">
        <ele>134.451</ele>
        <time>2021-04-01T09:16:45.424Z</time>
      </trkpt>
      <trkpt lat="43.1210709" lon="-2.7694632">
        <ele>134.476</ele>
        <time>2021-04-01T09:16:45.479Z</time>
      </trkpt>
      <trkpt lat="43.1210725" lon="-2.7694663">
        <ele>134.485</ele>
        <time>2021-04-01T09:16:45.534Z</time>
      </trkpt>
      <trkpt lat="43.1210743" lon="-2.7694694">
        <ele>134.518</ele>
        <time>2021-04-01T09:16:45.589Z</time>
      </trkpt>
      <trkpt lat="43.121076" lon="-2.7694722">
        <ele>134.501</ele>
        <time>2021-04-01T09:16:45.644Z</time>
      </trkpt>
      <trkpt lat="43.1210777" lon="-2.769475">
        <ele>134.503</ele>
        <time>2021-04-01T09:16:45.699Z</time>
      </trkpt>
      <trkpt lat="43.121079" lon="-2.7694778">
        <ele>134.478</ele>
        <time>2021-04-01T09:16:45.754Z</time>
      </trkpt>
      <trkpt lat="43.1210807" lon="-2.7694809">
        <ele>134.501</ele>
        <time>2021-04-01T09:16:45.809Z</time>
      </trkpt>
      <trkpt lat="43.1210821" lon="-2.7694839">
        <ele>134.468</ele>
        <time>2021-04-01T09:16:45.864Z</time>
      </trkpt>
      <trkpt lat="43.1210835" lon="-2.7694869">
        <ele>134.464</ele>
        <time>2021-04-01T09:16:45.919Z</time>
      </trkpt>
      <trkpt lat="43.1210854" lon="-2.7694898">
        <ele>134.504</ele>
        <time>2021-04-01T09:16:45.974Z</time>
      </trkpt>
      <trkpt lat="43.121087" lon="-2.7694925">
        <ele>134.474</ele>
        <time>2021-04-01T09:16:46.029Z</time>
      </trkpt>
      <trkpt lat="43.1210885" lon="-2.7694956">
        <ele>134.462</ele>
        <time>2021-04-01T09:16:46.084Z</time>
      </trkpt>
      <trkpt lat="43.12109" lon="-2.7694989">
        <ele>134.449</ele>
        <time>2021-04-01T09:16:46.139Z</time>
      </trkpt>
      <trkpt lat="43.1210917" lon="-2.7695021">
        <ele>134.508</ele>
        <time>2021-04-01T09:16:46.194Z</time>
      </trkpt>
      <trkpt lat="43.1210931" lon="-2.7695051">
        <ele>134.494</ele>
        <time>2021-04-01T09:16:46.249Z</time>
      </trkpt>
      <trkpt lat="43.1210946" lon="-2.7695083">
        <ele>134.473</ele>
        <time>2021-04-01T09:16:46.304Z</time>
      </trkpt>
      <trkpt lat="43.1210961" lon="-2.7695113">
        <ele>134.465</ele>
        <time>2021-04-01T09:16:46.359Z</time>
      </trkpt>
      <trkpt lat="43.1210975" lon="-2.7695143">
        <ele>134.461</ele>
        <time>2021-04-01T09:16:46.414Z</time>
      </trkpt>
      <trkpt lat="43.1210989" lon="-2.7695174">
        <ele>134.446</ele>
        <time>2021-04-01T09:16:46.469Z</time>
      </trkpt>
      <trkpt lat="43.1211004" lon="-2.7695202">
        <ele>134.433</ele>
        <time>2021-04-01T09:16:46.524Z</time>
      </trkpt>
      <trkpt lat="43.1211018" lon="-2.7695233">
        <ele>134.412</ele>
        <time>2021-04-01T09:16:46.579Z</time>
      </trkpt>
      <trkpt lat="43.1211031" lon="-2.7695265">
        <ele>134.395</ele>
        <time>2021-04-01T09:16:46.634Z</time>
      </trkpt>
      <trkpt lat="43.1211044" lon="-2.7695298">
        <ele>134.394</ele>
        <time>2021-04-01T09:16:46.689Z</time>
      </trkpt>
      <trkpt lat="43.1211058" lon="-2.769533">
        <ele>134.383</ele>
        <time>2021-04-01T09:16:46.744Z</time>
      </trkpt>
      <trkpt lat="43.1211072" lon="-2.769536">
        <ele>134.379</ele>
        <time>2021-04-01T09:16:46.799Z</time>
      </trkpt>
      <trkpt lat="43.1211086" lon="-2.7695389">
        <ele>134.353</ele>
        <time>2021-04-01T09:16:46.854Z</time>
      </trkpt>
      <trkpt lat="43.1211101" lon="-2.7695421">
        <ele>134.344</ele>
        <time>2021-04-01T09:16:46.909Z</time>
      </trkpt>
      <trkpt lat="43.1211114" lon="-2.7695452">
        <ele>134.32</ele>
        <time>2021-04-01T09:16:46.964Z</time>
      </trkpt>
      <trkpt lat="43.1211128" lon="-2.7695482">
        <ele>134.29</ele>
        <time>2021-04-01T09:16:47.019Z</time>
      </trkpt>
      <trkpt lat="43.121114" lon="-2.7695512">
        <ele>134.259</ele>
        <time>2021-04-01T09:16:47.074Z</time>
      </trkpt>
      <trkpt lat="43.1211151" lon="-2.7695541">
        <ele>134.223</ele>
        <time>2021-04-01T09:16:47.129Z</time>
      </trkpt>
      <trkpt lat="43.1211165" lon="-2.7695569">
        <ele>134.175</ele>
        <time>2021-04-01T09:16:47.184Z</time>
      </trkpt>
      <trkpt lat="43.1211178" lon="-2.7695597">
        <ele>134.117</ele>
        <time>2021-04-01T09:16:47.239Z</time>
      </trkpt>
      <trkpt lat="43.1211192" lon="-2.7695626">
        <ele>134.076</ele>
        <time>2021-04-01T09:16:47.294Z</time>
      </trkpt>
      <trkpt lat="43.1211207" lon="-2.7695655">
        <ele>134.073</ele>
        <time>2021-04-01T09:16:47.349Z</time>
      </trkpt>
      <trkpt lat="43.1211223" lon="-2.7695685">
        <ele>134.072</ele>
        <time>2021-04-01T09:16:47.404Z</time>
      </trkpt>
      <trkpt lat="43.1211241" lon="-2.7695717">
        <ele>134.055</ele>
        <time>2021-04-01T09:16:47.459Z</time>
      </trkpt>
      <trkpt lat="43.1211256" lon="-2.7695747">
        <ele>134.049</ele>
        <time>2021-04-01T09:16:47.514Z</time>
      </trkpt>
      <trkpt lat="43.1211275" lon="-2.7695777">
        <ele>134.064</ele>
        <time>2021-04-01T09:16:47.569Z</time>
      </trkpt>
      <trkpt lat="43.121129" lon="-2.7695808">
        <ele>134.058</ele>
        <time>2021-04-01T09:16:47.624Z</time>
      </trkpt>
      <trkpt lat="43.1211307" lon="-2.7695837">
        <ele>134.052</ele>
        <time>2021-04-01T09:16:47.679Z</time>
      </trkpt>
      <trkpt lat="43.121132" lon="-2.769587">
        <ele>134.042</ele>
        <time>2021-04-01T09:16:47.734Z</time>
      </trkpt>
      <trkpt lat="43.1211339" lon="-2.76959">
        <ele>134.061</ele>
        <time>2021-04-01T09:16:47.789Z</time>
      </trkpt>
      <trkpt lat="43.1211355" lon="-2.7695934">
        <ele>134.084</ele>
        <time>2021-04-01T09:16:47.844Z</time>
      </trkpt>
      <trkpt lat="43.1211369" lon="-2.7695959">
        <ele>134.022</ele>
        <time>2021-04-01T09:16:47.899Z</time>
      </trkpt>
      <trkpt lat="43.1211386" lon="-2.7695985">
        <ele>134.004</ele>
        <time>2021-04-01T09:16:47.954Z</time>
      </trkpt>
      <trkpt lat="43.1211401" lon="-2.7696013">
        <ele>133.954</ele>
        <time>2021-04-01T09:16:48.009Z</time>
      </trkpt>
      <trkpt lat="43.1211417" lon="-2.7696042">
        <ele>133.927</ele>
        <time>2021-04-01T09:16:48.064Z</time>
      </trkpt>
      <trkpt lat="43.1211434" lon="-2.7696068">
        <ele>133.905</ele>
        <time>2021-04-01T09:16:48.119Z</time>
      </trkpt>
      <trkpt lat="43.1211452" lon="-2.76961">
        <ele>133.909</ele>
        <time>2021-04-01T09:16:48.174Z</time>
      </trkpt>
      <trkpt lat="43.1211465" lon="-2.7696126">
        <ele>133.841</ele>
        <time>2021-04-01T09:16:48.229Z</time>
      </trkpt>
      <trkpt lat="43.1211484" lon="-2.7696156">
        <ele>133.856</ele>
        <time>2021-04-01T09:16:48.284Z</time>
      </trkpt>
      <trkpt lat="43.1211502" lon="-2.7696189">
        <ele>133.886</ele>
        <time>2021-04-01T09:16:48.339Z</time>
      </trkpt>
      <trkpt lat="43.1211522" lon="-2.7696213">
        <ele>133.856</ele>
        <time>2021-04-01T09:16:48.394Z</time>
      </trkpt>
      <trkpt lat="43.121154" lon="-2.7696236">
        <ele>133.805</ele>
        <time>2021-04-01T09:16:48.449Z</time>
      </trkpt>
      <trkpt lat="43.1211556" lon="-2.7696268">
        <ele>133.816</ele>
        <time>2021-04-01T09:16:48.504Z</time>
      </trkpt>
      <trkpt lat="43.1211571" lon="-2.7696301">
        <ele>133.809</ele>
        <time>2021-04-01T09:16:48.559Z</time>
      </trkpt>
      <trkpt lat="43.1211589" lon="-2.7696336">
        <ele>133.856</ele>
        <time>2021-04-01T09:16:48.614Z</time>
      </trkpt>
      <trkpt lat="43.1211607" lon="-2.7696364">
        <ele>133.855</ele>
        <time>2021-04-01T09:16:48.669Z</time>
      </trkpt>
      <trkpt lat="43.1211628" lon="-2.7696392">
        <ele>133.86</ele>
        <time>2021-04-01T09:16:48.724Z</time>
      </trkpt>
      <trkpt lat="43.1211648" lon="-2.7696416">
        <ele>133.83</ele>
        <time>2021-04-01T09:16:48.779Z</time>
      </trkpt>
      <trkpt lat="43.1211668" lon="-2.7696442">
        <ele>133.809</ele>
        <time>2021-04-01T09:16:48.834Z</time>
      </trkpt>
      <trkpt lat="43.121169" lon="-2.7696469">
        <ele>133.8</ele>
        <time>2021-04-01T09:16:48.889Z</time>
      </trkpt>
      <trkpt lat="43.1211707" lon="-2.7696499">
        <ele>133.81</ele>
        <time>2021-04-01T09:16:48.944Z</time>
      </trkpt>
      <trkpt lat="43.1211725" lon="-2.7696528">
        <ele>133.801</ele>
        <time>2021-04-01T09:16:48.995Z</time>
      </trkpt>
      <trkpt lat="43.1211745" lon="-2.7696552">
        <ele>133.78</ele>
        <time>2021-04-01T09:16:49.047Z</time>
      </trkpt>
      <trkpt lat="43.1211767" lon="-2.7696579">
        <ele>133.791</ele>
        <time>2021-04-01T09:16:49.099Z</time>
      </trkpt>
      <trkpt lat="43.1211786" lon="-2.769661">
        <ele>133.802</ele>
        <time>2021-04-01T09:16:49.151Z</time>
      </trkpt>
      <trkpt lat="43.1211804" lon="-2.7696639">
        <ele>133.778</ele>
        <time>2021-04-01T09:16:49.203Z</time>
      </trkpt>
      <trkpt lat="43.1211821" lon="-2.7696672">
        <ele>133.796</ele>
        <time>2021-04-01T09:16:49.255Z</time>
      </trkpt>
      <trkpt lat="43.1211843" lon="-2.76967">
        <ele>133.819</ele>
        <time>2021-04-01T09:16:49.307Z</time>
      </trkpt>
      <trkpt lat="43.1211863" lon="-2.7696731">
        <ele>133.81</ele>
        <time>2021-04-01T09:16:49.359Z</time>
      </trkpt>
      <trkpt lat="43.1211881" lon="-2.7696757">
        <ele>133.769</ele>
        <time>2021-04-01T09:16:49.411Z</time>
      </trkpt>
      <trkpt lat="43.12119" lon="-2.7696785">
        <ele>133.761</ele>
        <time>2021-04-01T09:16:49.463Z</time>
      </trkpt>
      <trkpt lat="43.1211919" lon="-2.7696813">
        <ele>133.752</ele>
        <time>2021-04-01T09:16:49.515Z</time>
      </trkpt>
      <trkpt lat="43.1211939" lon="-2.7696845">
        <ele>133.797</ele>
        <time>2021-04-01T09:16:49.567Z</time>
      </trkpt>
      <trkpt lat="43.1211959" lon="-2.7696875">
        <ele>133.792</ele>
        <time>2021-04-01T09:16:49.619Z</time>
      </trkpt>
      <trkpt lat="43.1211979" lon="-2.7696902">
        <ele>133.769</ele>
        <time>2021-04-01T09:16:49.671Z</time>
      </trkpt>
      <trkpt lat="43.1211999" lon="-2.7696932">
        <ele>133.788</ele>
        <time>2021-04-01T09:16:49.723Z</time>
      </trkpt>
      <trkpt lat="43.1212019" lon="-2.7696959">
        <ele>133.804</ele>
        <time>2021-04-01T09:16:49.775Z</time>
      </trkpt>
      <trkpt lat="43.1212041" lon="-2.7696985">
        <ele>133.816</ele>
        <time>2021-04-01T09:16:49.827Z</time>
      </trkpt>
      <trkpt lat="43.121206" lon="-2.7697015">
        <ele>133.837</ele>
        <time>2021-04-01T09:16:49.879Z</time>
      </trkpt>
      <trkpt lat="43.1212081" lon="-2.7697042">
        <ele>133.847</ele>
        <time>2021-04-01T09:16:49.937Z</time>
      </trkpt>
      <trkpt lat="43.1212102" lon="-2.7697071">
        <ele>133.892</ele>
        <time>2021-04-01T09:16:49.995Z</time>
      </trkpt>
      <trkpt lat="43.1212122" lon="-2.7697097">
        <ele>133.897</ele>
        <time>2021-04-01T09:16:50.053Z</time>
      </trkpt>
      <trkpt lat="43.1212142" lon="-2.7697122">
        <ele>133.88</ele>
        <time>2021-04-01T09:16:50.111Z</time>
      </trkpt>
      <trkpt lat="43.1212161" lon="-2.7697145">
        <ele>133.854</ele>
        <time>2021-04-01T09:16:50.169Z</time>
      </trkpt>
      <trkpt lat="43.1212182" lon="-2.7697171">
        <ele>133.866</ele>
        <time>2021-04-01T09:16:50.227Z</time>
      </trkpt>
      <trkpt lat="43.1212203" lon="-2.7697199">
        <ele>133.905</ele>
        <time>2021-04-01T09:16:50.285Z</time>
      </trkpt>
      <trkpt lat="43.1212223" lon="-2.7697221">
        <ele>133.902</ele>
        <time>2021-04-01T09:16:50.343Z</time>
      </trkpt>
      <trkpt lat="43.1212242" lon="-2.7697245">
        <ele>133.862</ele>
        <time>2021-04-01T09:16:50.401Z</time>
      </trkpt>
      <trkpt lat="43.1212263" lon="-2.7697271">
        <ele>133.879</ele>
        <time>2021-04-01T09:16:50.459Z</time>
      </trkpt>
      <trkpt lat="43.1212285" lon="-2.7697295">
        <ele>133.901</ele>
        <time>2021-04-01T09:16:50.517Z</time>
      </trkpt>
      <trkpt lat="43.1212304" lon="-2.7697317">
        <ele>133.851</ele>
        <time>2021-04-01T09:16:50.575Z</time>
      </trkpt>
      <trkpt lat="43.1212325" lon="-2.7697339">
        <ele>133.822</ele>
        <time>2021-04-01T09:16:50.633Z</time>
      </trkpt>
      <trkpt lat="43.1212346" lon="-2.7697363">
        <ele>133.829</ele>
        <time>2021-04-01T09:16:50.691Z</time>
      </trkpt>
      <trkpt lat="43.1212367" lon="-2.7697386">
        <ele>133.81</ele>
        <time>2021-04-01T09:16:50.749Z</time>
      </trkpt>
      <trkpt lat="43.1212385" lon="-2.769741">
        <ele>133.78</ele>
        <time>2021-04-01T09:16:50.807Z</time>
      </trkpt>
      <trkpt lat="43.1212409" lon="-2.7697437">
        <ele>133.801</ele>
        <time>2021-04-01T09:16:50.865Z</time>
      </trkpt>
      <trkpt lat="43.121243" lon="-2.7697462">
        <ele>133.782</ele>
        <time>2021-04-01T09:16:50.924Z</time>
      </trkpt>
      <trkpt lat="43.1212449" lon="-2.7697487">
        <ele>133.755</ele>
        <time>2021-04-01T09:16:50.976Z</time>
      </trkpt>
      <trkpt lat="43.1212468" lon="-2.7697512">
        <ele>133.739</ele>
        <time>2021-04-01T09:16:51.028Z</time>
      </trkpt>
      <trkpt lat="43.1212491" lon="-2.7697539">
        <ele>133.756</ele>
        <time>2021-04-01T09:16:51.080Z</time>
      </trkpt>
      <trkpt lat="43.1212513" lon="-2.7697564">
        <ele>133.742</ele>
        <time>2021-04-01T09:16:51.132Z</time>
      </trkpt>
      <trkpt lat="43.1212534" lon="-2.7697586">
        <ele>133.726</ele>
        <time>2021-04-01T09:16:51.184Z</time>
      </trkpt>
      <trkpt lat="43.1212556" lon="-2.7697608">
        <ele>133.715</ele>
        <time>2021-04-01T09:16:51.236Z</time>
      </trkpt>
      <trkpt lat="43.1212578" lon="-2.7697632">
        <ele>133.709</ele>
        <time>2021-04-01T09:16:51.288Z</time>
      </trkpt>
      <trkpt lat="43.1212601" lon="-2.7697653">
        <ele>133.704</ele>
        <time>2021-04-01T09:16:51.340Z</time>
      </trkpt>
      <trkpt lat="43.1212621" lon="-2.7697675">
        <ele>133.675</ele>
        <time>2021-04-01T09:16:51.392Z</time>
      </trkpt>
      <trkpt lat="43.1212643" lon="-2.7697699">
        <ele>133.621</ele>
        <time>2021-04-01T09:16:51.445Z</time>
      </trkpt>
      <trkpt lat="43.1212666" lon="-2.7697721">
        <ele>133.611</ele>
        <time>2021-04-01T09:16:51.497Z</time>
      </trkpt>
      <trkpt lat="43.1212687" lon="-2.7697745">
        <ele>133.614</ele>
        <time>2021-04-01T09:16:51.549Z</time>
      </trkpt>
      <trkpt lat="43.1212708" lon="-2.769777">
        <ele>133.608</ele>
        <time>2021-04-01T09:16:51.601Z</time>
      </trkpt>
      <trkpt lat="43.1212727" lon="-2.7697796">
        <ele>133.614</ele>
        <time>2021-04-01T09:16:51.653Z</time>
      </trkpt>
      <trkpt lat="43.1212749" lon="-2.769782">
        <ele>133.606</ele>
        <time>2021-04-01T09:16:51.705Z</time>
      </trkpt>
      <trkpt lat="43.121277" lon="-2.7697849">
        <ele>133.592</ele>
        <time>2021-04-01T09:16:51.757Z</time>
      </trkpt>
      <trkpt lat="43.1212791" lon="-2.7697872">
        <ele>133.577</ele>
        <time>2021-04-01T09:16:51.809Z</time>
      </trkpt>
      <trkpt lat="43.1212812" lon="-2.7697896">
        <ele>133.571</ele>
        <time>2021-04-01T09:16:51.861Z</time>
      </trkpt>
      <trkpt lat="43.1212835" lon="-2.7697923">
        <ele>133.551</ele>
        <time>2021-04-01T09:16:51.914Z</time>
      </trkpt>
      <trkpt lat="43.1212857" lon="-2.7697949">
        <ele>133.539</ele>
        <time>2021-04-01T09:16:51.972Z</time>
      </trkpt>
      <trkpt lat="43.1212879" lon="-2.769797">
        <ele>133.524</ele>
        <time>2021-04-01T09:16:52.030Z</time>
      </trkpt>
      <trkpt lat="43.1212906" lon="-2.769799">
        <ele>133.505</ele>
        <time>2021-04-01T09:16:52.088Z</time>
      </trkpt>
      <trkpt lat="43.1212928" lon="-2.7698008">
        <ele>133.415</ele>
        <time>2021-04-01T09:16:52.146Z</time>
      </trkpt>
      <trkpt lat="43.121295" lon="-2.769803">
        <ele>133.359</ele>
        <time>2021-04-01T09:16:52.205Z</time>
      </trkpt>
      <trkpt lat="43.1212972" lon="-2.7698053">
        <ele>133.361</ele>
        <time>2021-04-01T09:16:52.263Z</time>
      </trkpt>
      <trkpt lat="43.1212993" lon="-2.7698076">
        <ele>133.35</ele>
        <time>2021-04-01T09:16:52.321Z</time>
      </trkpt>
      <trkpt lat="43.1213012" lon="-2.7698098">
        <ele>133.307</ele>
        <time>2021-04-01T09:16:52.379Z</time>
      </trkpt>
      <trkpt lat="43.1213033" lon="-2.7698124">
        <ele>133.302</ele>
        <time>2021-04-01T09:16:52.438Z</time>
      </trkpt>
      <trkpt lat="43.1213058" lon="-2.7698148">
        <ele>133.321</ele>
        <time>2021-04-01T09:16:52.496Z</time>
      </trkpt>
      <trkpt lat="43.1213079" lon="-2.7698169">
        <ele>133.29</ele>
        <time>2021-04-01T09:16:52.554Z</time>
      </trkpt>
      <trkpt lat="43.1213099" lon="-2.7698197">
        <ele>133.326</ele>
        <time>2021-04-01T09:16:52.612Z</time>
      </trkpt>
      <trkpt lat="43.1213123" lon="-2.7698223">
        <ele>133.352</ele>
        <time>2021-04-01T09:16:52.671Z</time>
      </trkpt>
      <trkpt lat="43.1213145" lon="-2.7698246">
        <ele>133.336</ele>
        <time>2021-04-01T09:16:52.729Z</time>
      </trkpt>
      <trkpt lat="43.1213167" lon="-2.7698275">
        <ele>133.369</ele>
        <time>2021-04-01T09:16:52.787Z</time>
      </trkpt>
      <trkpt lat="43.1213189" lon="-2.76983">
        <ele>133.371</ele>
        <time>2021-04-01T09:16:52.845Z</time>
      </trkpt>
      <trkpt lat="43.1213212" lon="-2.7698324">
        <ele>133.38</ele>
        <time>2021-04-01T09:16:52.904Z</time>
      </trkpt>
      <trkpt lat="43.1213234" lon="-2.7698347">
        <ele>133.352</ele>
        <time>2021-04-01T09:16:52.956Z</time>
      </trkpt>
      <trkpt lat="43.1213258" lon="-2.7698366">
        <ele>133.312</ele>
        <time>2021-04-01T09:16:53.008Z</time>
      </trkpt>
      <trkpt lat="43.1213284" lon="-2.7698386">
        <ele>133.309</ele>
        <time>2021-04-01T09:16:53.060Z</time>
      </trkpt>
      <trkpt lat="43.1213308" lon="-2.769841">
        <ele>133.267</ele>
        <time>2021-04-01T09:16:53.112Z</time>
      </trkpt>
      <trkpt lat="43.1213331" lon="-2.7698431">
        <ele>133.218</ele>
        <time>2021-04-01T09:16:53.164Z</time>
      </trkpt>
      <trkpt lat="43.1213354" lon="-2.769845">
        <ele>133.172</ele>
        <time>2021-04-01T09:16:53.216Z</time>
      </trkpt>
      <trkpt lat="43.1213379" lon="-2.7698473">
        <ele>133.135</ele>
        <time>2021-04-01T09:16:53.268Z</time>
      </trkpt>
      <trkpt lat="43.1213403" lon="-2.7698497">
        <ele>133.146</ele>
        <time>2021-04-01T09:16:53.320Z</time>
      </trkpt>
      <trkpt lat="43.1213426" lon="-2.7698513">
        <ele>133.133</ele>
        <time>2021-04-01T09:16:53.372Z</time>
      </trkpt>
      <trkpt lat="43.121345" lon="-2.7698533">
        <ele>133.094</ele>
        <time>2021-04-01T09:16:53.425Z</time>
      </trkpt>
      <trkpt lat="43.1213472" lon="-2.7698555">
        <ele>133.057</ele>
        <time>2021-04-01T09:16:53.477Z</time>
      </trkpt>
      <trkpt lat="43.1213496" lon="-2.7698578">
        <ele>133.02</ele>
        <time>2021-04-01T09:16:53.529Z</time>
      </trkpt>
      <trkpt lat="43.1213519" lon="-2.7698601">
        <ele>132.998</ele>
        <time>2021-04-01T09:16:53.581Z</time>
      </trkpt>
      <trkpt lat="43.1213543" lon="-2.7698622">
        <ele>132.982</ele>
        <time>2021-04-01T09:16:53.633Z</time>
      </trkpt>
      <trkpt lat="43.1213566" lon="-2.7698646">
        <ele>132.985</ele>
        <time>2021-04-01T09:16:53.685Z</time>
      </trkpt>
      <trkpt lat="43.1213588" lon="-2.7698665">
        <ele>132.938</ele>
        <time>2021-04-01T09:16:53.737Z</time>
      </trkpt>
      <trkpt lat="43.121361" lon="-2.7698687">
        <ele>132.885</ele>
        <time>2021-04-01T09:16:53.789Z</time>
      </trkpt>
      <trkpt lat="43.1213634" lon="-2.7698707">
        <ele>132.865</ele>
        <time>2021-04-01T09:16:53.841Z</time>
      </trkpt>
      <trkpt lat="43.1213658" lon="-2.7698727">
        <ele>132.834</ele>
        <time>2021-04-01T09:16:53.894Z</time>
      </trkpt>
      <trkpt lat="43.1213682" lon="-2.7698748">
        <ele>132.832</ele>
        <time>2021-04-01T09:16:53.952Z</time>
      </trkpt>
      <trkpt lat="43.1213707" lon="-2.7698768">
        <ele>132.817</ele>
        <time>2021-04-01T09:16:54.010Z</time>
      </trkpt>
      <trkpt lat="43.1213731" lon="-2.7698791">
        <ele>132.826</ele>
        <time>2021-04-01T09:16:54.068Z</time>
      </trkpt>
      <trkpt lat="43.1213756" lon="-2.7698809">
        <ele>132.812</ele>
        <time>2021-04-01T09:16:54.126Z</time>
      </trkpt>
      <trkpt lat="43.1213779" lon="-2.7698833">
        <ele>132.819</ele>
        <time>2021-04-01T09:16:54.184Z</time>
      </trkpt>
      <trkpt lat="43.1213803" lon="-2.7698855">
        <ele>132.815</ele>
        <time>2021-04-01T09:16:54.242Z</time>
      </trkpt>
      <trkpt lat="43.1213827" lon="-2.7698877">
        <ele>132.818</ele>
        <time>2021-04-01T09:16:54.300Z</time>
      </trkpt>
      <trkpt lat="43.1213852" lon="-2.76989">
        <ele>132.838</ele>
        <time>2021-04-01T09:16:54.358Z</time>
      </trkpt>
      <trkpt lat="43.1213876" lon="-2.769892">
        <ele>132.841</ele>
        <time>2021-04-01T09:16:54.416Z</time>
      </trkpt>
      <trkpt lat="43.12139" lon="-2.7698942">
        <ele>132.847</ele>
        <time>2021-04-01T09:16:54.474Z</time>
      </trkpt>
      <trkpt lat="43.1213928" lon="-2.7698964">
        <ele>132.894</ele>
        <time>2021-04-01T09:16:54.532Z</time>
      </trkpt>
      <trkpt lat="43.1213951" lon="-2.769899">
        <ele>132.907</ele>
        <time>2021-04-01T09:16:54.590Z</time>
      </trkpt>
      <trkpt lat="43.1213973" lon="-2.7699012">
        <ele>132.909</ele>
        <time>2021-04-01T09:16:54.648Z</time>
      </trkpt>
      <trkpt lat="43.1213998" lon="-2.7699032">
        <ele>132.905</ele>
        <time>2021-04-01T09:16:54.706Z</time>
      </trkpt>
      <trkpt lat="43.1214024" lon="-2.7699049">
        <ele>132.896</ele>
        <time>2021-04-01T09:16:54.764Z</time>
      </trkpt>
      <trkpt lat="43.1214051" lon="-2.7699071">
        <ele>132.936</ele>
        <time>2021-04-01T09:16:54.822Z</time>
      </trkpt>
      <trkpt lat="43.1214078" lon="-2.7699094">
        <ele>132.977</ele>
        <time>2021-04-01T09:16:54.880Z</time>
      </trkpt>
      <trkpt lat="43.1214105" lon="-2.7699113">
        <ele>132.979</ele>
        <time>2021-04-01T09:16:54.939Z</time>
      </trkpt>
      <trkpt lat="43.1214129" lon="-2.7699131">
        <ele>132.977</ele>
        <time>2021-04-01T09:16:54.994Z</time>
      </trkpt>
      <trkpt lat="43.1214157" lon="-2.7699145">
        <ele>132.953</ele>
        <time>2021-04-01T09:16:55.049Z</time>
      </trkpt>
      <trkpt lat="43.1214183" lon="-2.7699161">
        <ele>132.922</ele>
        <time>2021-04-01T09:16:55.104Z</time>
      </trkpt>
      <trkpt lat="43.1214211" lon="-2.7699179">
        <ele>132.943</ele>
        <time>2021-04-01T09:16:55.159Z</time>
      </trkpt>
      <trkpt lat="43.1214238" lon="-2.7699199">
        <ele>132.944</ele>
        <time>2021-04-01T09:16:55.214Z</time>
      </trkpt>
      <trkpt lat="43.1214265" lon="-2.7699218">
        <ele>132.959</ele>
        <time>2021-04-01T09:16:55.269Z</time>
      </trkpt>
      <trkpt lat="43.1214292" lon="-2.7699234">
        <ele>132.952</ele>
        <time>2021-04-01T09:16:55.324Z</time>
      </trkpt>
      <trkpt lat="43.1214316" lon="-2.7699256">
        <ele>132.959</ele>
        <time>2021-04-01T09:16:55.379Z</time>
      </trkpt>
      <trkpt lat="43.1214343" lon="-2.7699282">
        <ele>133.033</ele>
        <time>2021-04-01T09:16:55.434Z</time>
      </trkpt>
      <trkpt lat="43.1214369" lon="-2.76993">
        <ele>133.018</ele>
        <time>2021-04-01T09:16:55.489Z</time>
      </trkpt>
      <trkpt lat="43.1214397" lon="-2.7699317">
        <ele>133.027</ele>
        <time>2021-04-01T09:16:55.544Z</time>
      </trkpt>
      <trkpt lat="43.1214424" lon="-2.7699338">
        <ele>133.057</ele>
        <time>2021-04-01T09:16:55.599Z</time>
      </trkpt>
      <trkpt lat="43.1214449" lon="-2.7699358">
        <ele>133.049</ele>
        <time>2021-04-01T09:16:55.654Z</time>
      </trkpt>
      <trkpt lat="43.1214475" lon="-2.7699382">
        <ele>133.1</ele>
        <time>2021-04-01T09:16:55.709Z</time>
      </trkpt>
      <trkpt lat="43.1214499" lon="-2.7699406">
        <ele>133.141</ele>
        <time>2021-04-01T09:16:55.764Z</time>
      </trkpt>
      <trkpt lat="43.1214524" lon="-2.7699425">
        <ele>133.145</ele>
        <time>2021-04-01T09:16:55.819Z</time>
      </trkpt>
      <trkpt lat="43.121455" lon="-2.7699446">
        <ele>133.171</ele>
        <time>2021-04-01T09:16:55.874Z</time>
      </trkpt>
      <trkpt lat="43.1214575" lon="-2.7699464">
        <ele>133.128</ele>
        <time>2021-04-01T09:16:55.929Z</time>
      </trkpt>
      <trkpt lat="43.1214601" lon="-2.7699482">
        <ele>133.116</ele>
        <time>2021-04-01T09:16:55.984Z</time>
      </trkpt>
      <trkpt lat="43.1214626" lon="-2.7699504">
        <ele>133.151</ele>
        <time>2021-04-01T09:16:56.039Z</time>
      </trkpt>
      <trkpt lat="43.1214653" lon="-2.7699526">
        <ele>133.188</ele>
        <time>2021-04-01T09:16:56.094Z</time>
      </trkpt>
      <trkpt lat="43.1214679" lon="-2.7699547">
        <ele>133.22</ele>
        <time>2021-04-01T09:16:56.149Z</time>
      </trkpt>
      <trkpt lat="43.1214705" lon="-2.7699568">
        <ele>133.244</ele>
        <time>2021-04-01T09:16:56.204Z</time>
      </trkpt>
      <trkpt lat="43.121473" lon="-2.7699586">
        <ele>133.265</ele>
        <time>2021-04-01T09:16:56.259Z</time>
      </trkpt>
      <trkpt lat="43.1214757" lon="-2.7699604">
        <ele>133.286</ele>
        <time>2021-04-01T09:16:56.314Z</time>
      </trkpt>
      <trkpt lat="43.1214785" lon="-2.7699626">
        <ele>133.303</ele>
        <time>2021-04-01T09:16:56.369Z</time>
      </trkpt>
      <trkpt lat="43.1214814" lon="-2.7699644">
        <ele>133.326</ele>
        <time>2021-04-01T09:16:56.424Z</time>
      </trkpt>
      <trkpt lat="43.121484" lon="-2.7699663">
        <ele>133.353</ele>
        <time>2021-04-01T09:16:56.479Z</time>
      </trkpt>
      <trkpt lat="43.1214867" lon="-2.769968">
        <ele>133.378</ele>
        <time>2021-04-01T09:16:56.534Z</time>
      </trkpt>
      <trkpt lat="43.1214893" lon="-2.7699698">
        <ele>133.386</ele>
        <time>2021-04-01T09:16:56.589Z</time>
      </trkpt>
      <trkpt lat="43.1214919" lon="-2.7699718">
        <ele>133.413</ele>
        <time>2021-04-01T09:16:56.644Z</time>
      </trkpt>
      <trkpt lat="43.1214947" lon="-2.7699738">
        <ele>133.399</ele>
        <time>2021-04-01T09:16:56.699Z</time>
      </trkpt>
      <trkpt lat="43.1214974" lon="-2.7699758">
        <ele>133.433</ele>
        <time>2021-04-01T09:16:56.754Z</time>
      </trkpt>
      <trkpt lat="43.1215002" lon="-2.7699776">
        <ele>133.49</ele>
        <time>2021-04-01T09:16:56.809Z</time>
      </trkpt>
      <trkpt lat="43.1215028" lon="-2.7699794">
        <ele>133.528</ele>
        <time>2021-04-01T09:16:56.864Z</time>
      </trkpt>
      <trkpt lat="43.1215055" lon="-2.7699812">
        <ele>133.558</ele>
        <time>2021-04-01T09:16:56.919Z</time>
      </trkpt>
      <trkpt lat="43.1215082" lon="-2.7699833">
        <ele>133.549</ele>
        <time>2021-04-01T09:16:56.974Z</time>
      </trkpt>
      <trkpt lat="43.1215109" lon="-2.7699853">
        <ele>133.564</ele>
        <time>2021-04-01T09:16:57.029Z</time>
      </trkpt>
      <trkpt lat="43.1215135" lon="-2.7699874">
        <ele>133.582</ele>
        <time>2021-04-01T09:16:57.084Z</time>
      </trkpt>
      <trkpt lat="43.1215162" lon="-2.7699893">
        <ele>133.601</ele>
        <time>2021-04-01T09:16:57.139Z</time>
      </trkpt>
      <trkpt lat="43.1215189" lon="-2.7699912">
        <ele>133.629</ele>
        <time>2021-04-01T09:16:57.194Z</time>
      </trkpt>
      <trkpt lat="43.1215215" lon="-2.7699932">
        <ele>133.666</ele>
        <time>2021-04-01T09:16:57.249Z</time>
      </trkpt>
      <trkpt lat="43.121524" lon="-2.7699954">
        <ele>133.692</ele>
        <time>2021-04-01T09:16:57.304Z</time>
      </trkpt>
      <trkpt lat="43.1215259" lon="-2.7699977">
        <ele>133.703</ele>
        <time>2021-04-01T09:16:57.359Z</time>
      </trkpt>
      <trkpt lat="43.1215285" lon="-2.7699991">
        <ele>133.702</ele>
        <time>2021-04-01T09:16:57.414Z</time>
      </trkpt>
      <trkpt lat="43.1215311" lon="-2.7700008">
        <ele>133.722</ele>
        <time>2021-04-01T09:16:57.469Z</time>
      </trkpt>
      <trkpt lat="43.121533" lon="-2.770002">
        <ele>133.706</ele>
        <time>2021-04-01T09:16:57.524Z</time>
      </trkpt>
      <trkpt lat="43.1215347" lon="-2.7700028">
        <ele>133.692</ele>
        <time>2021-04-01T09:16:57.579Z</time>
      </trkpt>
      <trkpt lat="43.1215371" lon="-2.7700047">
        <ele>133.696</ele>
        <time>2021-04-01T09:16:57.634Z</time>
      </trkpt>
      <trkpt lat="43.1215395" lon="-2.7700074">
        <ele>133.688</ele>
        <time>2021-04-01T09:16:57.689Z</time>
      </trkpt>
      <trkpt lat="43.1215418" lon="-2.7700093">
        <ele>133.693</ele>
        <time>2021-04-01T09:16:57.744Z</time>
      </trkpt>
      <trkpt lat="43.1215443" lon="-2.7700114">
        <ele>133.706</ele>
        <time>2021-04-01T09:16:57.799Z</time>
      </trkpt>
      <trkpt lat="43.1215465" lon="-2.7700132">
        <ele>133.712</ele>
        <time>2021-04-01T09:16:57.854Z</time>
      </trkpt>
      <trkpt lat="43.1215491" lon="-2.7700153">
        <ele>133.711</ele>
        <time>2021-04-01T09:16:57.909Z</time>
      </trkpt>
      <trkpt lat="43.1215517" lon="-2.7700178">
        <ele>133.697</ele>
        <time>2021-04-01T09:16:57.964Z</time>
      </trkpt>
      <trkpt lat="43.121553" lon="-2.7700197">
        <ele>133.671</ele>
        <time>2021-04-01T09:16:58.019Z</time>
      </trkpt>
      <trkpt lat="43.1215558" lon="-2.7700212">
        <ele>133.666</ele>
        <time>2021-04-01T09:16:58.074Z</time>
      </trkpt>
      <trkpt lat="43.1215587" lon="-2.7700227">
        <ele>133.636</ele>
        <time>2021-04-01T09:16:58.129Z</time>
      </trkpt>
      <trkpt lat="43.1215611" lon="-2.7700247">
        <ele>133.618</ele>
        <time>2021-04-01T09:16:58.184Z</time>
      </trkpt>
      <trkpt lat="43.1215635" lon="-2.7700267">
        <ele>133.605</ele>
        <time>2021-04-01T09:16:58.239Z</time>
      </trkpt>
      <trkpt lat="43.121566" lon="-2.7700287">
        <ele>133.619</ele>
        <time>2021-04-01T09:16:58.294Z</time>
      </trkpt>
      <trkpt lat="43.1215686" lon="-2.7700308">
        <ele>133.637</ele>
        <time>2021-04-01T09:16:58.349Z</time>
      </trkpt>
      <trkpt lat="43.1215711" lon="-2.770033">
        <ele>133.663</ele>
        <time>2021-04-01T09:16:58.404Z</time>
      </trkpt>
      <trkpt lat="43.1215734" lon="-2.7700353">
        <ele>133.689</ele>
        <time>2021-04-01T09:16:58.459Z</time>
      </trkpt>
      <trkpt lat="43.1215754" lon="-2.7700376">
        <ele>133.706</ele>
        <time>2021-04-01T09:16:58.514Z</time>
      </trkpt>
      <trkpt lat="43.1215776" lon="-2.7700401">
        <ele>133.731</ele>
        <time>2021-04-01T09:16:58.569Z</time>
      </trkpt>
      <trkpt lat="43.1215799" lon="-2.7700428">
        <ele>133.742</ele>
        <time>2021-04-01T09:16:58.624Z</time>
      </trkpt>
      <trkpt lat="43.1215823" lon="-2.7700452">
        <ele>133.779</ele>
        <time>2021-04-01T09:16:58.679Z</time>
      </trkpt>
      <trkpt lat="43.1215847" lon="-2.7700474">
        <ele>133.811</ele>
        <time>2021-04-01T09:16:58.734Z</time>
      </trkpt>
      <trkpt lat="43.1215872" lon="-2.7700494">
        <ele>133.845</ele>
        <time>2021-04-01T09:16:58.789Z</time>
      </trkpt>
      <trkpt lat="43.1215896" lon="-2.7700517">
        <ele>133.87</ele>
        <time>2021-04-01T09:16:58.844Z</time>
      </trkpt>
      <trkpt lat="43.121592" lon="-2.7700541">
        <ele>133.902</ele>
        <time>2021-04-01T09:16:58.899Z</time>
      </trkpt>
      <trkpt lat="43.1215944" lon="-2.7700564">
        <ele>133.927</ele>
        <time>2021-04-01T09:16:58.954Z</time>
      </trkpt>
      <trkpt lat="43.121597" lon="-2.7700588">
        <ele>133.938</ele>
        <time>2021-04-01T09:16:59.009Z</time>
      </trkpt>
      <trkpt lat="43.1215995" lon="-2.7700608">
        <ele>133.944</ele>
        <time>2021-04-01T09:16:59.064Z</time>
      </trkpt>
      <trkpt lat="43.121602" lon="-2.7700625">
        <ele>133.91</ele>
        <time>2021-04-01T09:16:59.119Z</time>
      </trkpt>
      <trkpt lat="43.1216046" lon="-2.7700646">
        <ele>133.889</ele>
        <time>2021-04-01T09:16:59.174Z</time>
      </trkpt>
      <trkpt lat="43.1216074" lon="-2.7700665">
        <ele>133.897</ele>
        <time>2021-04-01T09:16:59.229Z</time>
      </trkpt>
      <trkpt lat="43.1216102" lon="-2.7700682">
        <ele>133.914</ele>
        <time>2021-04-01T09:16:59.284Z</time>
      </trkpt>
      <trkpt lat="43.1216129" lon="-2.7700698">
        <ele>133.94</ele>
        <time>2021-04-01T09:16:59.339Z</time>
      </trkpt>
      <trkpt lat="43.1216156" lon="-2.770071">
        <ele>133.933</ele>
        <time>2021-04-01T09:16:59.394Z</time>
      </trkpt>
      <trkpt lat="43.1216185" lon="-2.7700729">
        <ele>133.899</ele>
        <time>2021-04-01T09:16:59.449Z</time>
      </trkpt>
      <trkpt lat="43.121621" lon="-2.7700745">
        <ele>133.837</ele>
        <time>2021-04-01T09:16:59.504Z</time>
      </trkpt>
      <trkpt lat="43.1216238" lon="-2.7700761">
        <ele>133.774</ele>
        <time>2021-04-01T09:16:59.559Z</time>
      </trkpt>
      <trkpt lat="43.1216267" lon="-2.7700774">
        <ele>133.73</ele>
        <time>2021-04-01T09:16:59.614Z</time>
      </trkpt>
      <trkpt lat="43.1216295" lon="-2.7700793">
        <ele>133.731</ele>
        <time>2021-04-01T09:16:59.669Z</time>
      </trkpt>
      <trkpt lat="43.1216315" lon="-2.7700815">
        <ele>133.706</ele>
        <time>2021-04-01T09:16:59.724Z</time>
      </trkpt>
      <trkpt lat="43.1216337" lon="-2.7700837">
        <ele>133.671</ele>
        <time>2021-04-01T09:16:59.779Z</time>
      </trkpt>
      <trkpt lat="43.1216356" lon="-2.7700859">
        <ele>133.61</ele>
        <time>2021-04-01T09:16:59.834Z</time>
      </trkpt>
      <trkpt lat="43.1216378" lon="-2.7700885">
        <ele>133.618</ele>
        <time>2021-04-01T09:16:59.889Z</time>
      </trkpt>
      <trkpt lat="43.1216399" lon="-2.7700908">
        <ele>133.626</ele>
        <time>2021-04-01T09:16:59.944Z</time>
      </trkpt>
      <trkpt lat="43.1216422" lon="-2.770093">
        <ele>133.598</ele>
        <time>2021-04-01T09:16:59.999Z</time>
      </trkpt>
      <trkpt lat="43.1216446" lon="-2.770095">
        <ele>133.554</ele>
        <time>2021-04-01T09:17:00.054Z</time>
      </trkpt>
      <trkpt lat="43.1216472" lon="-2.7700972">
        <ele>133.489</ele>
        <time>2021-04-01T09:17:00.109Z</time>
      </trkpt>
      <trkpt lat="43.1216498" lon="-2.7700993">
        <ele>133.44</ele>
        <time>2021-04-01T09:17:00.164Z</time>
      </trkpt>
      <trkpt lat="43.1216526" lon="-2.7701014">
        <ele>133.492</ele>
        <time>2021-04-01T09:17:00.219Z</time>
      </trkpt>
      <trkpt lat="43.1216549" lon="-2.7701037">
        <ele>133.481</ele>
        <time>2021-04-01T09:17:00.274Z</time>
      </trkpt>
      <trkpt lat="43.1216574" lon="-2.7701061">
        <ele>133.466</ele>
        <time>2021-04-01T09:17:00.329Z</time>
      </trkpt>
      <trkpt lat="43.1216598" lon="-2.7701085">
        <ele>133.499</ele>
        <time>2021-04-01T09:17:00.384Z</time>
      </trkpt>
      <trkpt lat="43.1216626" lon="-2.7701108">
        <ele>133.525</ele>
        <time>2021-04-01T09:17:00.439Z</time>
      </trkpt>
      <trkpt lat="43.121665" lon="-2.770113">
        <ele>133.53</ele>
        <time>2021-04-01T09:17:00.494Z</time>
      </trkpt>
      <trkpt lat="43.1216676" lon="-2.7701154">
        <ele>133.537</ele>
        <time>2021-04-01T09:17:00.549Z</time>
      </trkpt>
      <trkpt lat="43.1216705" lon="-2.7701179">
        <ele>133.569</ele>
        <time>2021-04-01T09:17:00.604Z</time>
      </trkpt>
      <trkpt lat="43.1216734" lon="-2.7701201">
        <ele>133.612</ele>
        <time>2021-04-01T09:17:00.659Z</time>
      </trkpt>
      <trkpt lat="43.1216762" lon="-2.7701224">
        <ele>133.631</ele>
        <time>2021-04-01T09:17:00.714Z</time>
      </trkpt>
      <trkpt lat="43.1216787" lon="-2.7701247">
        <ele>133.645</ele>
        <time>2021-04-01T09:17:00.769Z</time>
      </trkpt>
      <trkpt lat="43.1216815" lon="-2.7701266">
        <ele>133.659</ele>
        <time>2021-04-01T09:17:00.824Z</time>
      </trkpt>
      <trkpt lat="43.1216837" lon="-2.7701295">
        <ele>133.721</ele>
        <time>2021-04-01T09:17:00.879Z</time>
      </trkpt>
      <trkpt lat="43.1216863" lon="-2.7701316">
        <ele>133.71</ele>
        <time>2021-04-01T09:17:00.934Z</time>
      </trkpt>
      <trkpt lat="43.1216887" lon="-2.7701339">
        <ele>133.692</ele>
        <time>2021-04-01T09:17:00.992Z</time>
      </trkpt>
      <trkpt lat="43.1216914" lon="-2.7701359">
        <ele>133.688</ele>
        <time>2021-04-01T09:17:01.050Z</time>
      </trkpt>
      <trkpt lat="43.1216941" lon="-2.7701381">
        <ele>133.732</ele>
        <time>2021-04-01T09:17:01.108Z</time>
      </trkpt>
      <trkpt lat="43.121697" lon="-2.7701404">
        <ele>133.764</ele>
        <time>2021-04-01T09:17:01.166Z</time>
      </trkpt>
      <trkpt lat="43.1216998" lon="-2.7701426">
        <ele>133.818</ele>
        <time>2021-04-01T09:17:01.224Z</time>
      </trkpt>
      <trkpt lat="43.1217025" lon="-2.7701448">
        <ele>133.841</ele>
        <time>2021-04-01T09:17:01.282Z</time>
      </trkpt>
      <trkpt lat="43.1217051" lon="-2.7701469">
        <ele>133.838</ele>
        <time>2021-04-01T09:17:01.340Z</time>
      </trkpt>
      <trkpt lat="43.1217073" lon="-2.7701491">
        <ele>133.787</ele>
        <time>2021-04-01T09:17:01.398Z</time>
      </trkpt>
      <trkpt lat="43.1217096" lon="-2.7701515">
        <ele>133.773</ele>
        <time>2021-04-01T09:17:01.456Z</time>
      </trkpt>
      <trkpt lat="43.1217118" lon="-2.7701539">
        <ele>133.752</ele>
        <time>2021-04-01T09:17:01.514Z</time>
      </trkpt>
      <trkpt lat="43.1217144" lon="-2.7701563">
        <ele>133.769</ele>
        <time>2021-04-01T09:17:01.572Z</time>
      </trkpt>
      <trkpt lat="43.1217174" lon="-2.7701586">
        <ele>133.87</ele>
        <time>2021-04-01T09:17:01.630Z</time>
      </trkpt>
      <trkpt lat="43.1217201" lon="-2.7701611">
        <ele>133.92</ele>
        <time>2021-04-01T09:17:01.688Z</time>
      </trkpt>
      <trkpt lat="43.121723" lon="-2.7701635">
        <ele>133.948</ele>
        <time>2021-04-01T09:17:01.746Z</time>
      </trkpt>
      <trkpt lat="43.1217256" lon="-2.7701657">
        <ele>133.942</ele>
        <time>2021-04-01T09:17:01.804Z</time>
      </trkpt>
      <trkpt lat="43.121728" lon="-2.7701678">
        <ele>133.933</ele>
        <time>2021-04-01T09:17:01.862Z</time>
      </trkpt>
      <trkpt lat="43.1217306" lon="-2.77017">
        <ele>133.974</ele>
        <time>2021-04-01T09:17:01.920Z</time>
      </trkpt>
      <trkpt lat="43.1217331" lon="-2.7701721">
        <ele>134.036</ele>
        <time>2021-04-01T09:17:01.979Z</time>
      </trkpt>
      <trkpt lat="43.121736" lon="-2.7701744">
        <ele>134.097</ele>
        <time>2021-04-01T09:17:02.028Z</time>
      </trkpt>
      <trkpt lat="43.121739" lon="-2.7701769">
        <ele>134.134</ele>
        <time>2021-04-01T09:17:02.077Z</time>
      </trkpt>
      <trkpt lat="43.1217417" lon="-2.7701791">
        <ele>134.143</ele>
        <time>2021-04-01T09:17:02.126Z</time>
      </trkpt>
      <trkpt lat="43.1217443" lon="-2.770181">
        <ele>134.125</ele>
        <time>2021-04-01T09:17:02.175Z</time>
      </trkpt>
      <trkpt lat="43.1217468" lon="-2.7701832">
        <ele>134.126</ele>
        <time>2021-04-01T09:17:02.225Z</time>
      </trkpt>
      <trkpt lat="43.121749" lon="-2.7701856">
        <ele>134.118</ele>
        <time>2021-04-01T09:17:02.274Z</time>
      </trkpt>
      <trkpt lat="43.1217515" lon="-2.7701878">
        <ele>134.125</ele>
        <time>2021-04-01T09:17:02.323Z</time>
      </trkpt>
      <trkpt lat="43.1217545" lon="-2.7701902">
        <ele>134.206</ele>
        <time>2021-04-01T09:17:02.372Z</time>
      </trkpt>
      <trkpt lat="43.1217572" lon="-2.7701923">
        <ele>134.239</ele>
        <time>2021-04-01T09:17:02.421Z</time>
      </trkpt>
      <trkpt lat="43.1217598" lon="-2.7701945">
        <ele>134.265</ele>
        <time>2021-04-01T09:17:02.471Z</time>
      </trkpt>
      <trkpt lat="43.1217625" lon="-2.7701968">
        <ele>134.319</ele>
        <time>2021-04-01T09:17:02.520Z</time>
      </trkpt>
      <trkpt lat="43.1217651" lon="-2.7701989">
        <ele>134.338</ele>
        <time>2021-04-01T09:17:02.569Z</time>
      </trkpt>
      <trkpt lat="43.1217678" lon="-2.7702011">
        <ele>134.38</ele>
        <time>2021-04-01T09:17:02.618Z</time>
      </trkpt>
      <trkpt lat="43.1217702" lon="-2.7702035">
        <ele>134.38</ele>
        <time>2021-04-01T09:17:02.667Z</time>
      </trkpt>
      <trkpt lat="43.1217728" lon="-2.7702057">
        <ele>134.386</ele>
        <time>2021-04-01T09:17:02.717Z</time>
      </trkpt>
      <trkpt lat="43.1217755" lon="-2.7702079">
        <ele>134.431</ele>
        <time>2021-04-01T09:17:02.766Z</time>
      </trkpt>
      <trkpt lat="43.1217779" lon="-2.7702106">
        <ele>134.471</ele>
        <time>2021-04-01T09:17:02.815Z</time>
      </trkpt>
      <trkpt lat="43.1217802" lon="-2.770213">
        <ele>134.485</ele>
        <time>2021-04-01T09:17:02.864Z</time>
      </trkpt>
      <trkpt lat="43.1217827" lon="-2.7702154">
        <ele>134.533</ele>
        <time>2021-04-01T09:17:02.914Z</time>
      </trkpt>
      <trkpt lat="43.1217854" lon="-2.7702174">
        <ele>134.566</ele>
        <time>2021-04-01T09:17:02.972Z</time>
      </trkpt>
      <trkpt lat="43.1217881" lon="-2.7702197">
        <ele>134.58</ele>
        <time>2021-04-01T09:17:03.030Z</time>
      </trkpt>
      <trkpt lat="43.1217909" lon="-2.770222">
        <ele>134.637</ele>
        <time>2021-04-01T09:17:03.088Z</time>
      </trkpt>
      <trkpt lat="43.1217932" lon="-2.7702242">
        <ele>134.65</ele>
        <time>2021-04-01T09:17:03.146Z</time>
      </trkpt>
      <trkpt lat="43.1217959" lon="-2.7702263">
        <ele>134.684</ele>
        <time>2021-04-01T09:17:03.204Z</time>
      </trkpt>
      <trkpt lat="43.1217985" lon="-2.7702284">
        <ele>134.661</ele>
        <time>2021-04-01T09:17:03.262Z</time>
      </trkpt>
      <trkpt lat="43.121801" lon="-2.7702303">
        <ele>134.624</ele>
        <time>2021-04-01T09:17:03.320Z</time>
      </trkpt>
      <trkpt lat="43.1218036" lon="-2.7702322">
        <ele>134.636</ele>
        <time>2021-04-01T09:17:03.378Z</time>
      </trkpt>
      <trkpt lat="43.1218064" lon="-2.7702341">
        <ele>134.682</ele>
        <time>2021-04-01T09:17:03.436Z</time>
      </trkpt>
      <trkpt lat="43.1218091" lon="-2.7702362">
        <ele>134.755</ele>
        <time>2021-04-01T09:17:03.494Z</time>
      </trkpt>
      <trkpt lat="43.1218115" lon="-2.7702385">
        <ele>134.773</ele>
        <time>2021-04-01T09:17:03.552Z</time>
      </trkpt>
      <trkpt lat="43.1218143" lon="-2.7702408">
        <ele>134.774</ele>
        <time>2021-04-01T09:17:03.610Z</time>
      </trkpt>
      <trkpt lat="43.1218169" lon="-2.7702433">
        <ele>134.759</ele>
        <time>2021-04-01T09:17:03.668Z</time>
      </trkpt>
      <trkpt lat="43.1218195" lon="-2.7702453">
        <ele>134.795</ele>
        <time>2021-04-01T09:17:03.726Z</time>
      </trkpt>
      <trkpt lat="43.1218222" lon="-2.7702474">
        <ele>134.82</ele>
        <time>2021-04-01T09:17:03.784Z</time>
      </trkpt>
      <trkpt lat="43.1218247" lon="-2.7702498">
        <ele>134.826</ele>
        <time>2021-04-01T09:17:03.842Z</time>
      </trkpt>
      <trkpt lat="43.1218273" lon="-2.770252">
        <ele>134.858</ele>
        <time>2021-04-01T09:17:03.900Z</time>
      </trkpt>
      <trkpt lat="43.1218299" lon="-2.7702546">
        <ele>134.904</ele>
        <time>2021-04-01T09:17:03.959Z</time>
      </trkpt>
      <trkpt lat="43.1218325" lon="-2.7702571">
        <ele>134.93</ele>
        <time>2021-04-01T09:17:04.014Z</time>
      </trkpt>
      <trkpt lat="43.1218351" lon="-2.7702597">
        <ele>134.969</ele>
        <time>2021-04-01T09:17:04.069Z</time>
      </trkpt>
      <trkpt lat="43.1218376" lon="-2.7702619">
        <ele>134.994</ele>
        <time>2021-04-01T09:17:04.124Z</time>
      </trkpt>
      <trkpt lat="43.1218402" lon="-2.7702639">
        <ele>135.002</ele>
        <time>2021-04-01T09:17:04.179Z</time>
      </trkpt>
      <trkpt lat="43.1218427" lon="-2.7702661">
        <ele>135.001</ele>
        <time>2021-04-01T09:17:04.234Z</time>
      </trkpt>
      <trkpt lat="43.1218451" lon="-2.7702686">
        <ele>135.015</ele>
        <time>2021-04-01T09:17:04.289Z</time>
      </trkpt>
      <trkpt lat="43.1218477" lon="-2.7702712">
        <ele>135.051</ele>
        <time>2021-04-01T09:17:04.344Z</time>
      </trkpt>
      <trkpt lat="43.1218504" lon="-2.7702735">
        <ele>135.081</ele>
        <time>2021-04-01T09:17:04.399Z</time>
      </trkpt>
      <trkpt lat="43.1218529" lon="-2.7702758">
        <ele>135.117</ele>
        <time>2021-04-01T09:17:04.454Z</time>
      </trkpt>
      <trkpt lat="43.1218555" lon="-2.770278">
        <ele>135.124</ele>
        <time>2021-04-01T09:17:04.509Z</time>
      </trkpt>
      <trkpt lat="43.1218581" lon="-2.7702804">
        <ele>135.113</ele>
        <time>2021-04-01T09:17:04.564Z</time>
      </trkpt>
      <trkpt lat="43.1218607" lon="-2.7702827">
        <ele>135.138</ele>
        <time>2021-04-01T09:17:04.619Z</time>
      </trkpt>
      <trkpt lat="43.1218633" lon="-2.7702848">
        <ele>135.163</ele>
        <time>2021-04-01T09:17:04.674Z</time>
      </trkpt>
      <trkpt lat="43.121866" lon="-2.7702873">
        <ele>135.166</ele>
        <time>2021-04-01T09:17:04.729Z</time>
      </trkpt>
      <trkpt lat="43.1218686" lon="-2.7702898">
        <ele>135.173</ele>
        <time>2021-04-01T09:17:04.784Z</time>
      </trkpt>
      <trkpt lat="43.1218713" lon="-2.7702919">
        <ele>135.207</ele>
        <time>2021-04-01T09:17:04.839Z</time>
      </trkpt>
      <trkpt lat="43.1218739" lon="-2.7702942">
        <ele>135.231</ele>
        <time>2021-04-01T09:17:04.894Z</time>
      </trkpt>
      <trkpt lat="43.1218764" lon="-2.7702968">
        <ele>135.24</ele>
        <time>2021-04-01T09:17:04.949Z</time>
      </trkpt>
      <trkpt lat="43.1218788" lon="-2.7702994">
        <ele>135.267</ele>
        <time>2021-04-01T09:17:05.004Z</time>
      </trkpt>
      <trkpt lat="43.1218814" lon="-2.7703018">
        <ele>135.286</ele>
        <time>2021-04-01T09:17:05.059Z</time>
      </trkpt>
      <trkpt lat="43.1218842" lon="-2.7703038">
        <ele>135.275</ele>
        <time>2021-04-01T09:17:05.114Z</time>
      </trkpt>
      <trkpt lat="43.1218868" lon="-2.7703059">
        <ele>135.277</ele>
        <time>2021-04-01T09:17:05.169Z</time>
      </trkpt>
      <trkpt lat="43.1218895" lon="-2.7703082">
        <ele>135.276</ele>
        <time>2021-04-01T09:17:05.224Z</time>
      </trkpt>
      <trkpt lat="43.1218921" lon="-2.7703106">
        <ele>135.285</ele>
        <time>2021-04-01T09:17:05.279Z</time>
      </trkpt>
      <trkpt lat="43.1218946" lon="-2.7703131">
        <ele>135.296</ele>
        <time>2021-04-01T09:17:05.334Z</time>
      </trkpt>
      <trkpt lat="43.1218974" lon="-2.7703155">
        <ele>135.292</ele>
        <time>2021-04-01T09:17:05.389Z</time>
      </trkpt>
      <trkpt lat="43.1218998" lon="-2.7703181">
        <ele>135.322</ele>
        <time>2021-04-01T09:17:05.444Z</time>
      </trkpt>
      <trkpt lat="43.1219024" lon="-2.7703205">
        <ele>135.341</ele>
        <time>2021-04-01T09:17:05.499Z</time>
      </trkpt>
      <trkpt lat="43.121905" lon="-2.7703229">
        <ele>135.334</ele>
        <time>2021-04-01T09:17:05.554Z</time>
      </trkpt>
      <trkpt lat="43.121908" lon="-2.7703251">
        <ele>135.282</ele>
        <time>2021-04-01T09:17:05.609Z</time>
      </trkpt>
      <trkpt lat="43.1219108" lon="-2.7703276">
        <ele>135.242</ele>
        <time>2021-04-01T09:17:05.664Z</time>
      </trkpt>
      <trkpt lat="43.1219136" lon="-2.7703299">
        <ele>135.227</ele>
        <time>2021-04-01T09:17:05.719Z</time>
      </trkpt>
      <trkpt lat="43.1219162" lon="-2.7703326">
        <ele>135.203</ele>
        <time>2021-04-01T09:17:05.774Z</time>
      </trkpt>
      <trkpt lat="43.121919" lon="-2.770335">
        <ele>135.164</ele>
        <time>2021-04-01T09:17:05.829Z</time>
      </trkpt>
      <trkpt lat="43.1219214" lon="-2.7703374">
        <ele>135.138</ele>
        <time>2021-04-01T09:17:05.884Z</time>
      </trkpt>
      <trkpt lat="43.1219243" lon="-2.7703395">
        <ele>135.098</ele>
        <time>2021-04-01T09:17:05.939Z</time>
      </trkpt>
      <trkpt lat="43.1219274" lon="-2.7703415">
        <ele>135.065</ele>
        <time>2021-04-01T09:17:05.994Z</time>
      </trkpt>
      <trkpt lat="43.1219302" lon="-2.7703439">
        <ele>135.047</ele>
        <time>2021-04-01T09:17:06.049Z</time>
      </trkpt>
      <trkpt lat="43.121933" lon="-2.770346">
        <ele>135.026</ele>
        <time>2021-04-01T09:17:06.104Z</time>
      </trkpt>
      <trkpt lat="43.1219357" lon="-2.7703481">
        <ele>134.991</ele>
        <time>2021-04-01T09:17:06.159Z</time>
      </trkpt>
      <trkpt lat="43.1219384" lon="-2.7703504">
        <ele>134.966</ele>
        <time>2021-04-01T09:17:06.214Z</time>
      </trkpt>
      <trkpt lat="43.1219415" lon="-2.7703523">
        <ele>134.927</ele>
        <time>2021-04-01T09:17:06.269Z</time>
      </trkpt>
      <trkpt lat="43.1219444" lon="-2.7703543">
        <ele>134.926</ele>
        <time>2021-04-01T09:17:06.324Z</time>
      </trkpt>
      <trkpt lat="43.1219471" lon="-2.7703563">
        <ele>134.925</ele>
        <time>2021-04-01T09:17:06.379Z</time>
      </trkpt>
      <trkpt lat="43.1219494" lon="-2.7703587">
        <ele>134.915</ele>
        <time>2021-04-01T09:17:06.434Z</time>
      </trkpt>
      <trkpt lat="43.1219518" lon="-2.7703609">
        <ele>134.889</ele>
        <time>2021-04-01T09:17:06.489Z</time>
      </trkpt>
      <trkpt lat="43.1219547" lon="-2.7703628">
        <ele>134.863</ele>
        <time>2021-04-01T09:17:06.544Z</time>
      </trkpt>
      <trkpt lat="43.1219573" lon="-2.7703646">
        <ele>134.819</ele>
        <time>2021-04-01T09:17:06.599Z</time>
      </trkpt>
      <trkpt lat="43.1219598" lon="-2.7703668">
        <ele>134.794</ele>
        <time>2021-04-01T09:17:06.654Z</time>
      </trkpt>
      <trkpt lat="43.1219624" lon="-2.7703686">
        <ele>134.786</ele>
        <time>2021-04-01T09:17:06.709Z</time>
      </trkpt>
      <trkpt lat="43.121965" lon="-2.7703705">
        <ele>134.755</ele>
        <time>2021-04-01T09:17:06.764Z</time>
      </trkpt>
      <trkpt lat="43.1219677" lon="-2.7703723">
        <ele>134.734</ele>
        <time>2021-04-01T09:17:06.819Z</time>
      </trkpt>
      <trkpt lat="43.1219706" lon="-2.7703741">
        <ele>134.736</ele>
        <time>2021-04-01T09:17:06.874Z</time>
      </trkpt>
      <trkpt lat="43.1219734" lon="-2.770376">
        <ele>134.72</ele>
        <time>2021-04-01T09:17:06.929Z</time>
      </trkpt>
      <trkpt lat="43.1219762" lon="-2.7703778">
        <ele>134.721</ele>
        <time>2021-04-01T09:17:06.984Z</time>
      </trkpt>
      <trkpt lat="43.121979" lon="-2.7703798">
        <ele>134.745</ele>
        <time>2021-04-01T09:17:07.039Z</time>
      </trkpt>
      <trkpt lat="43.1219818" lon="-2.7703819">
        <ele>134.754</ele>
        <time>2021-04-01T09:17:07.094Z</time>
      </trkpt>
      <trkpt lat="43.1219848" lon="-2.7703841">
        <ele>134.724</ele>
        <time>2021-04-01T09:17:07.149Z</time>
      </trkpt>
      <trkpt lat="43.1219877" lon="-2.7703861">
        <ele>134.698</ele>
        <time>2021-04-01T09:17:07.204Z</time>
      </trkpt>
      <trkpt lat="43.1219906" lon="-2.7703879">
        <ele>134.679</ele>
        <time>2021-04-01T09:17:07.259Z</time>
      </trkpt>
      <trkpt lat="43.1219933" lon="-2.7703899">
        <ele>134.675</ele>
        <time>2021-04-01T09:17:07.314Z</time>
      </trkpt>
      <trkpt lat="43.1219962" lon="-2.7703919">
        <ele>134.652</ele>
        <time>2021-04-01T09:17:07.369Z</time>
      </trkpt>
      <trkpt lat="43.1219987" lon="-2.7703942">
        <ele>134.664</ele>
        <time>2021-04-01T09:17:07.424Z</time>
      </trkpt>
      <trkpt lat="43.1220012" lon="-2.7703962">
        <ele>134.676</ele>
        <time>2021-04-01T09:17:07.479Z</time>
      </trkpt>
      <trkpt lat="43.1220035" lon="-2.7703984">
        <ele>134.679</ele>
        <time>2021-04-01T09:17:07.534Z</time>
      </trkpt>
      <trkpt lat="43.1220062" lon="-2.7704002">
        <ele>134.656</ele>
        <time>2021-04-01T09:17:07.589Z</time>
      </trkpt>
      <trkpt lat="43.1220091" lon="-2.7704017">
        <ele>134.657</ele>
        <time>2021-04-01T09:17:07.644Z</time>
      </trkpt>
      <trkpt lat="43.1220119" lon="-2.7704036">
        <ele>134.677</ele>
        <time>2021-04-01T09:17:07.699Z</time>
      </trkpt>
      <trkpt lat="43.1220143" lon="-2.7704056">
        <ele>134.666</ele>
        <time>2021-04-01T09:17:07.754Z</time>
      </trkpt>
      <trkpt lat="43.1220166" lon="-2.7704077">
        <ele>134.672</ele>
        <time>2021-04-01T09:17:07.809Z</time>
      </trkpt>
      <trkpt lat="43.1220188" lon="-2.77041">
        <ele>134.676</ele>
        <time>2021-04-01T09:17:07.864Z</time>
      </trkpt>
      <trkpt lat="43.1220213" lon="-2.7704118">
        <ele>134.684</ele>
        <time>2021-04-01T09:17:07.919Z</time>
      </trkpt>
      <trkpt lat="43.1220237" lon="-2.7704141">
        <ele>134.693</ele>
        <time>2021-04-01T09:17:07.974Z</time>
      </trkpt>
      <trkpt lat="43.1220261" lon="-2.7704165">
        <ele>134.712</ele>
        <time>2021-04-01T09:17:08.029Z</time>
      </trkpt>
      <trkpt lat="43.1220286" lon="-2.7704187">
        <ele>134.735</ele>
        <time>2021-04-01T09:17:08.084Z</time>
      </trkpt>
      <trkpt lat="43.1220311" lon="-2.7704208">
        <ele>134.74</ele>
        <time>2021-04-01T09:17:08.139Z</time>
      </trkpt>
      <trkpt lat="43.1220336" lon="-2.7704229">
        <ele>134.767</ele>
        <time>2021-04-01T09:17:08.194Z</time>
      </trkpt>
      <trkpt lat="43.1220358" lon="-2.7704251">
        <ele>134.766</ele>
        <time>2021-04-01T09:17:08.249Z</time>
      </trkpt>
      <trkpt lat="43.1220385" lon="-2.770427">
        <ele>134.778</ele>
        <time>2021-04-01T09:17:08.304Z</time>
      </trkpt>
      <trkpt lat="43.1220411" lon="-2.7704293">
        <ele>134.79</ele>
        <time>2021-04-01T09:17:08.359Z</time>
      </trkpt>
      <trkpt lat="43.1220435" lon="-2.7704314">
        <ele>134.836</ele>
        <time>2021-04-01T09:17:08.414Z</time>
      </trkpt>
      <trkpt lat="43.1220462" lon="-2.7704335">
        <ele>134.9</ele>
        <time>2021-04-01T09:17:08.469Z</time>
      </trkpt>
      <trkpt lat="43.1220489" lon="-2.7704356">
        <ele>134.954</ele>
        <time>2021-04-01T09:17:08.524Z</time>
      </trkpt>
      <trkpt lat="43.1220518" lon="-2.7704375">
        <ele>134.949</ele>
        <time>2021-04-01T09:17:08.579Z</time>
      </trkpt>
      <trkpt lat="43.1220543" lon="-2.7704395">
        <ele>134.921</ele>
        <time>2021-04-01T09:17:08.634Z</time>
      </trkpt>
      <trkpt lat="43.1220572" lon="-2.7704413">
        <ele>134.941</ele>
        <time>2021-04-01T09:17:08.689Z</time>
      </trkpt>
      <trkpt lat="43.1220603" lon="-2.7704428">
        <ele>134.963</ele>
        <time>2021-04-01T09:17:08.744Z</time>
      </trkpt>
      <trkpt lat="43.1220633" lon="-2.7704447">
        <ele>135.012</ele>
        <time>2021-04-01T09:17:08.799Z</time>
      </trkpt>
      <trkpt lat="43.1220659" lon="-2.7704464">
        <ele>134.998</ele>
        <time>2021-04-01T09:17:08.854Z</time>
      </trkpt>
      <trkpt lat="43.1220688" lon="-2.7704481">
        <ele>135.009</ele>
        <time>2021-04-01T09:17:08.909Z</time>
      </trkpt>
      <trkpt lat="43.1220714" lon="-2.7704501">
        <ele>135.024</ele>
        <time>2021-04-01T09:17:08.964Z</time>
      </trkpt>
      <trkpt lat="43.1220743" lon="-2.7704524">
        <ele>135.082</ele>
        <time>2021-04-01T09:17:09.019Z</time>
      </trkpt>
      <trkpt lat="43.1220766" lon="-2.7704545">
        <ele>135.096</ele>
        <time>2021-04-01T09:17:09.074Z</time>
      </trkpt>
      <trkpt lat="43.1220794" lon="-2.7704565">
        <ele>135.122</ele>
        <time>2021-04-01T09:17:09.129Z</time>
      </trkpt>
      <trkpt lat="43.122082" lon="-2.7704583">
        <ele>135.111</ele>
        <time>2021-04-01T09:17:09.184Z</time>
      </trkpt>
      <trkpt lat="43.1220846" lon="-2.7704601">
        <ele>135.093</ele>
        <time>2021-04-01T09:17:09.239Z</time>
      </trkpt>
      <trkpt lat="43.1220874" lon="-2.7704621">
        <ele>135.108</ele>
        <time>2021-04-01T09:17:09.294Z</time>
      </trkpt>
      <trkpt lat="43.1220907" lon="-2.7704641">
        <ele>135.178</ele>
        <time>2021-04-01T09:17:09.349Z</time>
      </trkpt>
      <trkpt lat="43.1220936" lon="-2.7704661">
        <ele>135.194</ele>
        <time>2021-04-01T09:17:09.404Z</time>
      </trkpt>
      <trkpt lat="43.1220963" lon="-2.7704678">
        <ele>135.165</ele>
        <time>2021-04-01T09:17:09.459Z</time>
      </trkpt>
      <trkpt lat="43.1220992" lon="-2.7704696">
        <ele>135.195</ele>
        <time>2021-04-01T09:17:09.514Z</time>
      </trkpt>
      <trkpt lat="43.1221018" lon="-2.7704713">
        <ele>135.163</ele>
        <time>2021-04-01T09:17:09.569Z</time>
      </trkpt>
      <trkpt lat="43.1221045" lon="-2.770473">
        <ele>135.154</ele>
        <time>2021-04-01T09:17:09.624Z</time>
      </trkpt>
      <trkpt lat="43.122107" lon="-2.7704753">
        <ele>135.176</ele>
        <time>2021-04-01T09:17:09.679Z</time>
      </trkpt>
      <trkpt lat="43.1221096" lon="-2.7704773">
        <ele>135.179</ele>
        <time>2021-04-01T09:17:09.734Z</time>
      </trkpt>
      <trkpt lat="43.1221123" lon="-2.7704796">
        <ele>135.21</ele>
        <time>2021-04-01T09:17:09.789Z</time>
      </trkpt>
      <trkpt lat="43.1221151" lon="-2.7704817">
        <ele>135.231</ele>
        <time>2021-04-01T09:17:09.844Z</time>
      </trkpt>
      <trkpt lat="43.1221177" lon="-2.7704838">
        <ele>135.267</ele>
        <time>2021-04-01T09:17:09.899Z</time>
      </trkpt>
      <trkpt lat="43.1221206" lon="-2.7704859">
        <ele>135.289</ele>
        <time>2021-04-01T09:17:09.954Z</time>
      </trkpt>
      <trkpt lat="43.1221234" lon="-2.7704877">
        <ele>135.271</ele>
        <time>2021-04-01T09:17:10.006Z</time>
      </trkpt>
      <trkpt lat="43.1221261" lon="-2.7704898">
        <ele>135.301</ele>
        <time>2021-04-01T09:17:10.058Z</time>
      </trkpt>
      <trkpt lat="43.122129" lon="-2.7704914">
        <ele>135.292</ele>
        <time>2021-04-01T09:17:10.110Z</time>
      </trkpt>
      <trkpt lat="43.1221318" lon="-2.7704931">
        <ele>135.29</ele>
        <time>2021-04-01T09:17:10.162Z</time>
      </trkpt>
      <trkpt lat="43.1221347" lon="-2.7704946">
        <ele>135.284</ele>
        <time>2021-04-01T09:17:10.214Z</time>
      </trkpt>
      <trkpt lat="43.1221374" lon="-2.7704964">
        <ele>135.264</ele>
        <time>2021-04-01T09:17:10.266Z</time>
      </trkpt>
      <trkpt lat="43.1221404" lon="-2.7704982">
        <ele>135.256</ele>
        <time>2021-04-01T09:17:10.318Z</time>
      </trkpt>
      <trkpt lat="43.122143" lon="-2.7705003">
        <ele>135.281</ele>
        <time>2021-04-01T09:17:10.370Z</time>
      </trkpt>
      <trkpt lat="43.1221456" lon="-2.7705024">
        <ele>135.305</ele>
        <time>2021-04-01T09:17:10.422Z</time>
      </trkpt>
      <trkpt lat="43.1221483" lon="-2.7705041">
        <ele>135.29</ele>
        <time>2021-04-01T09:17:10.475Z</time>
      </trkpt>
      <trkpt lat="43.122151" lon="-2.770506">
        <ele>135.265</ele>
        <time>2021-04-01T09:17:10.527Z</time>
      </trkpt>
      <trkpt lat="43.1221536" lon="-2.7705078">
        <ele>135.252</ele>
        <time>2021-04-01T09:17:10.579Z</time>
      </trkpt>
      <trkpt lat="43.122156" lon="-2.77051">
        <ele>135.266</ele>
        <time>2021-04-01T09:17:10.631Z</time>
      </trkpt>
      <trkpt lat="43.1221589" lon="-2.7705118">
        <ele>135.261</ele>
        <time>2021-04-01T09:17:10.683Z</time>
      </trkpt>
      <trkpt lat="43.1221616" lon="-2.770514">
        <ele>135.295</ele>
        <time>2021-04-01T09:17:10.735Z</time>
      </trkpt>
      <trkpt lat="43.1221643" lon="-2.7705163">
        <ele>135.33</ele>
        <time>2021-04-01T09:17:10.787Z</time>
      </trkpt>
      <trkpt lat="43.122167" lon="-2.7705182">
        <ele>135.323</ele>
        <time>2021-04-01T09:17:10.839Z</time>
      </trkpt>
      <trkpt lat="43.1221697" lon="-2.7705204">
        <ele>135.342</ele>
        <time>2021-04-01T09:17:10.891Z</time>
      </trkpt>
      <trkpt lat="43.1221724" lon="-2.7705228">
        <ele>135.378</ele>
        <time>2021-04-01T09:17:10.944Z</time>
      </trkpt>
      <trkpt lat="43.1221747" lon="-2.7705256">
        <ele>135.427</ele>
        <time>2021-04-01T09:17:11.002Z</time>
      </trkpt>
      <trkpt lat="43.1221771" lon="-2.7705281">
        <ele>135.468</ele>
        <time>2021-04-01T09:17:11.060Z</time>
      </trkpt>
      <trkpt lat="43.1221797" lon="-2.7705304">
        <ele>135.497</ele>
        <time>2021-04-01T09:17:11.118Z</time>
      </trkpt>
      <trkpt lat="43.1221823" lon="-2.7705326">
        <ele>135.53</ele>
        <time>2021-04-01T09:17:11.176Z</time>
      </trkpt>
      <trkpt lat="43.1221848" lon="-2.7705351">
        <ele>135.55</ele>
        <time>2021-04-01T09:17:11.235Z</time>
      </trkpt>
      <trkpt lat="43.1221877" lon="-2.770537">
        <ele>135.579</ele>
        <time>2021-04-01T09:17:11.293Z</time>
      </trkpt>
      <trkpt lat="43.1221904" lon="-2.7705386">
        <ele>135.566</ele>
        <time>2021-04-01T09:17:11.351Z</time>
      </trkpt>
      <trkpt lat="43.1221929" lon="-2.7705408">
        <ele>135.589</ele>
        <time>2021-04-01T09:17:11.409Z</time>
      </trkpt>
      <trkpt lat="43.1221957" lon="-2.7705426">
        <ele>135.578</ele>
        <time>2021-04-01T09:17:11.468Z</time>
      </trkpt>
      <trkpt lat="43.1221983" lon="-2.7705446">
        <ele>135.585</ele>
        <time>2021-04-01T09:17:11.526Z</time>
      </trkpt>
      <trkpt lat="43.122201" lon="-2.7705466">
        <ele>135.599</ele>
        <time>2021-04-01T09:17:11.584Z</time>
      </trkpt>
      <trkpt lat="43.1222035" lon="-2.7705485">
        <ele>135.597</ele>
        <time>2021-04-01T09:17:11.642Z</time>
      </trkpt>
      <trkpt lat="43.1222061" lon="-2.7705506">
        <ele>135.603</ele>
        <time>2021-04-01T09:17:11.701Z</time>
      </trkpt>
      <trkpt lat="43.1222088" lon="-2.770553">
        <ele>135.627</ele>
        <time>2021-04-01T09:17:11.759Z</time>
      </trkpt>
      <trkpt lat="43.1222115" lon="-2.7705552">
        <ele>135.652</ele>
        <time>2021-04-01T09:17:11.817Z</time>
      </trkpt>
      <trkpt lat="43.1222141" lon="-2.7705573">
        <ele>135.665</ele>
        <time>2021-04-01T09:17:11.875Z</time>
      </trkpt>
      <trkpt lat="43.1222167" lon="-2.7705595">
        <ele>135.686</ele>
        <time>2021-04-01T09:17:11.934Z</time>
      </trkpt>
      <trkpt lat="43.1222191" lon="-2.7705614">
        <ele>135.664</ele>
        <time>2021-04-01T09:17:11.989Z</time>
      </trkpt>
      <trkpt lat="43.1222217" lon="-2.7705635">
        <ele>135.676</ele>
        <time>2021-04-01T09:17:12.044Z</time>
      </trkpt>
      <trkpt lat="43.1222246" lon="-2.7705656">
        <ele>135.686</ele>
        <time>2021-04-01T09:17:12.099Z</time>
      </trkpt>
      <trkpt lat="43.1222274" lon="-2.7705673">
        <ele>135.664</ele>
        <time>2021-04-01T09:17:12.154Z</time>
      </trkpt>
      <trkpt lat="43.1222306" lon="-2.770569">
        <ele>135.667</ele>
        <time>2021-04-01T09:17:12.209Z</time>
      </trkpt>
      <trkpt lat="43.1222336" lon="-2.7705711">
        <ele>135.697</ele>
        <time>2021-04-01T09:17:12.264Z</time>
      </trkpt>
      <trkpt lat="43.1222367" lon="-2.7705727">
        <ele>135.708</ele>
        <time>2021-04-01T09:17:12.319Z</time>
      </trkpt>
      <trkpt lat="43.1222396" lon="-2.7705749">
        <ele>135.765</ele>
        <time>2021-04-01T09:17:12.374Z</time>
      </trkpt>
      <trkpt lat="43.1222423" lon="-2.7705769">
        <ele>135.791</ele>
        <time>2021-04-01T09:17:12.429Z</time>
      </trkpt>
      <trkpt lat="43.1222448" lon="-2.7705789">
        <ele>135.759</ele>
        <time>2021-04-01T09:17:12.484Z</time>
      </trkpt>
      <trkpt lat="43.1222475" lon="-2.7705808">
        <ele>135.757</ele>
        <time>2021-04-01T09:17:12.539Z</time>
      </trkpt>
      <trkpt lat="43.1222501" lon="-2.7705828">
        <ele>135.751</ele>
        <time>2021-04-01T09:17:12.594Z</time>
      </trkpt>
      <trkpt lat="43.1222527" lon="-2.7705854">
        <ele>135.786</ele>
        <time>2021-04-01T09:17:12.649Z</time>
      </trkpt>
      <trkpt lat="43.1222554" lon="-2.7705877">
        <ele>135.815</ele>
        <time>2021-04-01T09:17:12.704Z</time>
      </trkpt>
      <trkpt lat="43.122258" lon="-2.7705903">
        <ele>135.834</ele>
        <time>2021-04-01T09:17:12.759Z</time>
      </trkpt>
      <trkpt lat="43.1222603" lon="-2.7705931">
        <ele>135.869</ele>
        <time>2021-04-01T09:17:12.814Z</time>
      </trkpt>
      <trkpt lat="43.1222625" lon="-2.7705959">
        <ele>135.908</ele>
        <time>2021-04-01T09:17:12.869Z</time>
      </trkpt>
      <trkpt lat="43.1222648" lon="-2.7705986">
        <ele>135.928</ele>
        <time>2021-04-01T09:17:12.924Z</time>
      </trkpt>
      <trkpt lat="43.1222673" lon="-2.7706009">
        <ele>135.948</ele>
        <time>2021-04-01T09:17:12.976Z</time>
      </trkpt>
      <trkpt lat="43.1222695" lon="-2.7706036">
        <ele>135.963</ele>
        <time>2021-04-01T09:17:13.028Z</time>
      </trkpt>
      <trkpt lat="43.1222721" lon="-2.7706061">
        <ele>135.995</ele>
        <time>2021-04-01T09:17:13.080Z</time>
      </trkpt>
      <trkpt lat="43.1222748" lon="-2.7706085">
        <ele>136.023</ele>
        <time>2021-04-01T09:17:13.132Z</time>
      </trkpt>
      <trkpt lat="43.1222774" lon="-2.7706111">
        <ele>136.056</ele>
        <time>2021-04-01T09:17:13.184Z</time>
      </trkpt>
      <trkpt lat="43.1222796" lon="-2.770614">
        <ele>136.093</ele>
        <time>2021-04-01T09:17:13.236Z</time>
      </trkpt>
      <trkpt lat="43.122282" lon="-2.7706164">
        <ele>136.098</ele>
        <time>2021-04-01T09:17:13.288Z</time>
      </trkpt>
      <trkpt lat="43.1222846" lon="-2.7706185">
        <ele>136.098</ele>
        <time>2021-04-01T09:17:13.340Z</time>
      </trkpt>
      <trkpt lat="43.1222869" lon="-2.7706212">
        <ele>136.133</ele>
        <time>2021-04-01T09:17:13.392Z</time>
      </trkpt>
      <trkpt lat="43.1222894" lon="-2.7706237">
        <ele>136.159</ele>
        <time>2021-04-01T09:17:13.445Z</time>
      </trkpt>
      <trkpt lat="43.1222918" lon="-2.7706261">
        <ele>136.179</ele>
        <time>2021-04-01T09:17:13.497Z</time>
      </trkpt>
      <trkpt lat="43.1222941" lon="-2.7706295">
        <ele>136.239</ele>
        <time>2021-04-01T09:17:13.549Z</time>
      </trkpt>
      <trkpt lat="43.122296" lon="-2.7706333">
        <ele>136.314</ele>
        <time>2021-04-01T09:17:13.601Z</time>
      </trkpt>
      <trkpt lat="43.1222984" lon="-2.770636">
        <ele>136.325</ele>
        <time>2021-04-01T09:17:13.653Z</time>
      </trkpt>
      <trkpt lat="43.1223007" lon="-2.7706388">
        <ele>136.361</ele>
        <time>2021-04-01T09:17:13.705Z</time>
      </trkpt>
      <trkpt lat="43.122303" lon="-2.7706414">
        <ele>136.378</ele>
        <time>2021-04-01T09:17:13.757Z</time>
      </trkpt>
      <trkpt lat="43.1223054" lon="-2.7706441">
        <ele>136.402</ele>
        <time>2021-04-01T09:17:13.809Z</time>
      </trkpt>
      <trkpt lat="43.1223076" lon="-2.770647">
        <ele>136.405</ele>
        <time>2021-04-01T09:17:13.861Z</time>
      </trkpt>
      <trkpt lat="43.1223098" lon="-2.7706496">
        <ele>136.391</ele>
        <time>2021-04-01T09:17:13.914Z</time>
      </trkpt>
      <trkpt lat="43.1223121" lon="-2.7706522">
        <ele>136.401</ele>
        <time>2021-04-01T09:17:13.972Z</time>
      </trkpt>
      <trkpt lat="43.1223142" lon="-2.770655">
        <ele>136.365</ele>
        <time>2021-04-01T09:17:14.030Z</time>
      </trkpt>
      <trkpt lat="43.1223163" lon="-2.7706578">
        <ele>136.365</ele>
        <time>2021-04-01T09:17:14.088Z</time>
      </trkpt>
      <trkpt lat="43.1223183" lon="-2.7706606">
        <ele>136.381</ele>
        <time>2021-04-01T09:17:14.146Z</time>
      </trkpt>
      <trkpt lat="43.1223204" lon="-2.7706636">
        <ele>136.387</ele>
        <time>2021-04-01T09:17:14.204Z</time>
      </trkpt>
      <trkpt lat="43.1223223" lon="-2.7706664">
        <ele>136.359</ele>
        <time>2021-04-01T09:17:14.262Z</time>
      </trkpt>
      <trkpt lat="43.1223243" lon="-2.7706692">
        <ele>136.364</ele>
        <time>2021-04-01T09:17:14.320Z</time>
      </trkpt>
      <trkpt lat="43.1223264" lon="-2.7706721">
        <ele>136.372</ele>
        <time>2021-04-01T09:17:14.378Z</time>
      </trkpt>
      <trkpt lat="43.1223283" lon="-2.770675">
        <ele>136.378</ele>
        <time>2021-04-01T09:17:14.436Z</time>
      </trkpt>
      <trkpt lat="43.1223304" lon="-2.7706778">
        <ele>136.375</ele>
        <time>2021-04-01T09:17:14.494Z</time>
      </trkpt>
      <trkpt lat="43.1223325" lon="-2.7706808">
        <ele>136.375</ele>
        <time>2021-04-01T09:17:14.552Z</time>
      </trkpt>
      <trkpt lat="43.1223345" lon="-2.7706839">
        <ele>136.381</ele>
        <time>2021-04-01T09:17:14.610Z</time>
      </trkpt>
      <trkpt lat="43.1223365" lon="-2.7706868">
        <ele>136.396</ele>
        <time>2021-04-01T09:17:14.668Z</time>
      </trkpt>
      <trkpt lat="43.1223385" lon="-2.7706892">
        <ele>136.369</ele>
        <time>2021-04-01T09:17:14.726Z</time>
      </trkpt>
      <trkpt lat="43.1223405" lon="-2.7706916">
        <ele>136.328</ele>
        <time>2021-04-01T09:17:14.784Z</time>
      </trkpt>
      <trkpt lat="43.1223423" lon="-2.7706946">
        <ele>136.338</ele>
        <time>2021-04-01T09:17:14.842Z</time>
      </trkpt>
      <trkpt lat="43.1223441" lon="-2.7706973">
        <ele>136.315</ele>
        <time>2021-04-01T09:17:14.900Z</time>
      </trkpt>
      <trkpt lat="43.1223458" lon="-2.7707">
        <ele>136.282</ele>
        <time>2021-04-01T09:17:14.959Z</time>
      </trkpt>
      <trkpt lat="43.1223476" lon="-2.7707025">
        <ele>136.248</ele>
        <time>2021-04-01T09:17:15.014Z</time>
      </trkpt>
      <trkpt lat="43.1223494" lon="-2.7707055">
        <ele>136.229</ele>
        <time>2021-04-01T09:17:15.069Z</time>
      </trkpt>
      <trkpt lat="43.1223512" lon="-2.7707087">
        <ele>136.251</ele>
        <time>2021-04-01T09:17:15.124Z</time>
      </trkpt>
      <trkpt lat="43.1223532" lon="-2.7707113">
        <ele>136.239</ele>
        <time>2021-04-01T09:17:15.179Z</time>
      </trkpt>
      <trkpt lat="43.122355" lon="-2.770714">
        <ele>136.207</ele>
        <time>2021-04-01T09:17:15.234Z</time>
      </trkpt>
      <trkpt lat="43.1223568" lon="-2.7707167">
        <ele>136.185</ele>
        <time>2021-04-01T09:17:15.289Z</time>
      </trkpt>
      <trkpt lat="43.1223587" lon="-2.7707193">
        <ele>136.161</ele>
        <time>2021-04-01T09:17:15.344Z</time>
      </trkpt>
      <trkpt lat="43.1223607" lon="-2.7707217">
        <ele>136.131</ele>
        <time>2021-04-01T09:17:15.399Z</time>
      </trkpt>
      <trkpt lat="43.1223623" lon="-2.7707244">
        <ele>136.085</ele>
        <time>2021-04-01T09:17:15.454Z</time>
      </trkpt>
      <trkpt lat="43.1223638" lon="-2.7707275">
        <ele>136.091</ele>
        <time>2021-04-01T09:17:15.509Z</time>
      </trkpt>
      <trkpt lat="43.1223655" lon="-2.7707305">
        <ele>136.101</ele>
        <time>2021-04-01T09:17:15.564Z</time>
      </trkpt>
      <trkpt lat="43.1223672" lon="-2.7707336">
        <ele>136.106</ele>
        <time>2021-04-01T09:17:15.619Z</time>
      </trkpt>
      <trkpt lat="43.1223685" lon="-2.7707369">
        <ele>136.087</ele>
        <time>2021-04-01T09:17:15.674Z</time>
      </trkpt>
      <trkpt lat="43.12237" lon="-2.7707397">
        <ele>136.037</ele>
        <time>2021-04-01T09:17:15.729Z</time>
      </trkpt>
      <trkpt lat="43.1223716" lon="-2.7707427">
        <ele>136.024</ele>
        <time>2021-04-01T09:17:15.784Z</time>
      </trkpt>
      <trkpt lat="43.1223729" lon="-2.7707457">
        <ele>135.988</ele>
        <time>2021-04-01T09:17:15.839Z</time>
      </trkpt>
      <trkpt lat="43.1223745" lon="-2.7707485">
        <ele>135.971</ele>
        <time>2021-04-01T09:17:15.894Z</time>
      </trkpt>
      <trkpt lat="43.1223759" lon="-2.7707513">
        <ele>135.943</ele>
        <time>2021-04-01T09:17:15.949Z</time>
      </trkpt>
      <trkpt lat="43.1223774" lon="-2.7707542">
        <ele>135.906</ele>
        <time>2021-04-01T09:17:16.004Z</time>
      </trkpt>
      <trkpt lat="43.122379" lon="-2.7707574">
        <ele>135.913</ele>
        <time>2021-04-01T09:17:16.059Z</time>
      </trkpt>
      <trkpt lat="43.1223808" lon="-2.7707605">
        <ele>135.956</ele>
        <time>2021-04-01T09:17:16.114Z</time>
      </trkpt>
      <trkpt lat="43.1223823" lon="-2.7707636">
        <ele>135.966</ele>
        <time>2021-04-01T09:17:16.169Z</time>
      </trkpt>
      <trkpt lat="43.1223837" lon="-2.770767">
        <ele>135.965</ele>
        <time>2021-04-01T09:17:16.224Z</time>
      </trkpt>
      <trkpt lat="43.1223851" lon="-2.77077">
        <ele>135.93</ele>
        <time>2021-04-01T09:17:16.279Z</time>
      </trkpt>
      <trkpt lat="43.1223867" lon="-2.7707731">
        <ele>135.929</ele>
        <time>2021-04-01T09:17:16.334Z</time>
      </trkpt>
      <trkpt lat="43.1223884" lon="-2.7707766">
        <ele>135.98</ele>
        <time>2021-04-01T09:17:16.389Z</time>
      </trkpt>
      <trkpt lat="43.1223905" lon="-2.7707799">
        <ele>136.031</ele>
        <time>2021-04-01T09:17:16.444Z</time>
      </trkpt>
      <trkpt lat="43.1223921" lon="-2.7707832">
        <ele>136.067</ele>
        <time>2021-04-01T09:17:16.499Z</time>
      </trkpt>
      <trkpt lat="43.1223937" lon="-2.7707862">
        <ele>136.075</ele>
        <time>2021-04-01T09:17:16.554Z</time>
      </trkpt>
      <trkpt lat="43.1223954" lon="-2.7707894">
        <ele>136.087</ele>
        <time>2021-04-01T09:17:16.609Z</time>
      </trkpt>
      <trkpt lat="43.1223971" lon="-2.7707924">
        <ele>136.092</ele>
        <time>2021-04-01T09:17:16.664Z</time>
      </trkpt>
      <trkpt lat="43.1223989" lon="-2.7707954">
        <ele>136.113</ele>
        <time>2021-04-01T09:17:16.719Z</time>
      </trkpt>
      <trkpt lat="43.1224006" lon="-2.7707984">
        <ele>136.125</ele>
        <time>2021-04-01T09:17:16.774Z</time>
      </trkpt>
      <trkpt lat="43.122402" lon="-2.7708016">
        <ele>136.135</ele>
        <time>2021-04-01T09:17:16.829Z</time>
      </trkpt>
      <trkpt lat="43.1224038" lon="-2.7708045">
        <ele>136.16</ele>
        <time>2021-04-01T09:17:16.884Z</time>
      </trkpt>
      <trkpt lat="43.1224056" lon="-2.7708076">
        <ele>136.172</ele>
        <time>2021-04-01T09:17:16.939Z</time>
      </trkpt>
      <trkpt lat="43.1224071" lon="-2.7708106">
        <ele>136.18</ele>
        <time>2021-04-01T09:17:16.994Z</time>
      </trkpt>
      <trkpt lat="43.1224089" lon="-2.7708139">
        <ele>136.233</ele>
        <time>2021-04-01T09:17:17.049Z</time>
      </trkpt>
      <trkpt lat="43.1224108" lon="-2.7708172">
        <ele>136.303</ele>
        <time>2021-04-01T09:17:17.104Z</time>
      </trkpt>
      <trkpt lat="43.1224127" lon="-2.7708203">
        <ele>136.344</ele>
        <time>2021-04-01T09:17:17.159Z</time>
      </trkpt>
      <trkpt lat="43.1224146" lon="-2.7708236">
        <ele>136.401</ele>
        <time>2021-04-01T09:17:17.214Z</time>
      </trkpt>
      <trkpt lat="43.1224163" lon="-2.7708268">
        <ele>136.433</ele>
        <time>2021-04-01T09:17:17.269Z</time>
      </trkpt>
      <trkpt lat="43.1224177" lon="-2.7708297">
        <ele>136.419</ele>
        <time>2021-04-01T09:17:17.324Z</time>
      </trkpt>
      <trkpt lat="43.1224191" lon="-2.7708326">
        <ele>136.402</ele>
        <time>2021-04-01T09:17:17.379Z</time>
      </trkpt>
      <trkpt lat="43.1224203" lon="-2.7708358">
        <ele>136.388</ele>
        <time>2021-04-01T09:17:17.434Z</time>
      </trkpt>
      <trkpt lat="43.1224217" lon="-2.770839">
        <ele>136.387</ele>
        <time>2021-04-01T09:17:17.489Z</time>
      </trkpt>
      <trkpt lat="43.1224231" lon="-2.7708423">
        <ele>136.397</ele>
        <time>2021-04-01T09:17:17.544Z</time>
      </trkpt>
      <trkpt lat="43.1224244" lon="-2.7708455">
        <ele>136.401</ele>
        <time>2021-04-01T09:17:17.599Z</time>
      </trkpt>
      <trkpt lat="43.1224259" lon="-2.7708487">
        <ele>136.422</ele>
        <time>2021-04-01T09:17:17.654Z</time>
      </trkpt>
      <trkpt lat="43.1224273" lon="-2.7708521">
        <ele>136.452</ele>
        <time>2021-04-01T09:17:17.709Z</time>
      </trkpt>
      <trkpt lat="43.1224284" lon="-2.7708552">
        <ele>136.419</ele>
        <time>2021-04-01T09:17:17.764Z</time>
      </trkpt>
      <trkpt lat="43.1224299" lon="-2.7708581">
        <ele>136.407</ele>
        <time>2021-04-01T09:17:17.819Z</time>
      </trkpt>
      <trkpt lat="43.1224314" lon="-2.7708613">
        <ele>136.423</ele>
        <time>2021-04-01T09:17:17.874Z</time>
      </trkpt>
      <trkpt lat="43.1224328" lon="-2.7708646">
        <ele>136.442</ele>
        <time>2021-04-01T09:17:17.929Z</time>
      </trkpt>
      <trkpt lat="43.1224345" lon="-2.7708678">
        <ele>136.465</ele>
        <time>2021-04-01T09:17:17.981Z</time>
      </trkpt>
      <trkpt lat="43.1224357" lon="-2.7708711">
        <ele>136.452</ele>
        <time>2021-04-01T09:17:18.033Z</time>
      </trkpt>
      <trkpt lat="43.1224371" lon="-2.7708741">
        <ele>136.431</ele>
        <time>2021-04-01T09:17:18.085Z</time>
      </trkpt>
      <trkpt lat="43.1224389" lon="-2.7708776">
        <ele>136.507</ele>
        <time>2021-04-01T09:17:18.137Z</time>
      </trkpt>
      <trkpt lat="43.122441" lon="-2.7708812">
        <ele>136.636</ele>
        <time>2021-04-01T09:17:18.189Z</time>
      </trkpt>
      <trkpt lat="43.1224427" lon="-2.7708846">
        <ele>136.681</ele>
        <time>2021-04-01T09:17:18.241Z</time>
      </trkpt>
      <trkpt lat="43.1224442" lon="-2.7708879">
        <ele>136.704</ele>
        <time>2021-04-01T09:17:18.293Z</time>
      </trkpt>
      <trkpt lat="43.1224456" lon="-2.7708911">
        <ele>136.719</ele>
        <time>2021-04-01T09:17:18.345Z</time>
      </trkpt>
      <trkpt lat="43.1224469" lon="-2.7708942">
        <ele>136.692</ele>
        <time>2021-04-01T09:17:18.397Z</time>
      </trkpt>
      <trkpt lat="43.1224487" lon="-2.7708977">
        <ele>136.749</ele>
        <time>2021-04-01T09:17:18.450Z</time>
      </trkpt>
      <trkpt lat="43.1224504" lon="-2.7709014">
        <ele>136.809</ele>
        <time>2021-04-01T09:17:18.502Z</time>
      </trkpt>
      <trkpt lat="43.122452" lon="-2.770905">
        <ele>136.847</ele>
        <time>2021-04-01T09:17:18.554Z</time>
      </trkpt>
      <trkpt lat="43.1224535" lon="-2.7709084">
        <ele>136.884</ele>
        <time>2021-04-01T09:17:18.606Z</time>
      </trkpt>
      <trkpt lat="43.1224548" lon="-2.7709117">
        <ele>136.889</ele>
        <time>2021-04-01T09:17:18.658Z</time>
      </trkpt>
      <trkpt lat="43.1224558" lon="-2.7709152">
        <ele>136.877</ele>
        <time>2021-04-01T09:17:18.710Z</time>
      </trkpt>
      <trkpt lat="43.1224571" lon="-2.7709187">
        <ele>136.898</ele>
        <time>2021-04-01T09:17:18.762Z</time>
      </trkpt>
      <trkpt lat="43.1224586" lon="-2.770922">
        <ele>136.904</ele>
        <time>2021-04-01T09:17:18.814Z</time>
      </trkpt>
      <trkpt lat="43.1224599" lon="-2.7709256">
        <ele>136.917</ele>
        <time>2021-04-01T09:17:18.866Z</time>
      </trkpt>
      <trkpt lat="43.1224613" lon="-2.7709293">
        <ele>136.956</ele>
        <time>2021-04-01T09:17:18.919Z</time>
      </trkpt>
      <trkpt lat="43.1224629" lon="-2.7709328">
        <ele>137.009</ele>
        <time>2021-04-01T09:17:18.977Z</time>
      </trkpt>
      <trkpt lat="43.1224644" lon="-2.7709364">
        <ele>137.028</ele>
        <time>2021-04-01T09:17:19.035Z</time>
      </trkpt>
      <trkpt lat="43.1224657" lon="-2.7709398">
        <ele>137.033</ele>
        <time>2021-04-01T09:17:19.093Z</time>
      </trkpt>
      <trkpt lat="43.1224669" lon="-2.7709432">
        <ele>137.028</ele>
        <time>2021-04-01T09:17:19.151Z</time>
      </trkpt>
      <trkpt lat="43.1224684" lon="-2.7709468">
        <ele>137.086</ele>
        <time>2021-04-01T09:17:19.209Z</time>
      </trkpt>
      <trkpt lat="43.1224699" lon="-2.7709502">
        <ele>137.144</ele>
        <time>2021-04-01T09:17:19.267Z</time>
      </trkpt>
      <trkpt lat="43.1224713" lon="-2.7709536">
        <ele>137.196</ele>
        <time>2021-04-01T09:17:19.325Z</time>
      </trkpt>
      <trkpt lat="43.1224725" lon="-2.7709572">
        <ele>137.265</ele>
        <time>2021-04-01T09:17:19.383Z</time>
      </trkpt>
      <trkpt lat="43.1224741" lon="-2.7709606">
        <ele>137.308</ele>
        <time>2021-04-01T09:17:19.441Z</time>
      </trkpt>
      <trkpt lat="43.1224757" lon="-2.7709641">
        <ele>137.352</ele>
        <time>2021-04-01T09:17:19.499Z</time>
      </trkpt>
      <trkpt lat="43.1224772" lon="-2.7709675">
        <ele>137.373</ele>
        <time>2021-04-01T09:17:19.557Z</time>
      </trkpt>
      <trkpt lat="43.1224785" lon="-2.7709713">
        <ele>137.402</ele>
        <time>2021-04-01T09:17:19.615Z</time>
      </trkpt>
      <trkpt lat="43.1224798" lon="-2.7709746">
        <ele>137.404</ele>
        <time>2021-04-01T09:17:19.673Z</time>
      </trkpt>
      <trkpt lat="43.1224811" lon="-2.7709778">
        <ele>137.419</ele>
        <time>2021-04-01T09:17:19.731Z</time>
      </trkpt>
      <trkpt lat="43.1224826" lon="-2.770981">
        <ele>137.44</ele>
        <time>2021-04-01T09:17:19.789Z</time>
      </trkpt>
      <trkpt lat="43.1224841" lon="-2.7709843">
        <ele>137.45</ele>
        <time>2021-04-01T09:17:19.847Z</time>
      </trkpt>
      <trkpt lat="43.1224857" lon="-2.7709878">
        <ele>137.473</ele>
        <time>2021-04-01T09:17:19.905Z</time>
      </trkpt>
      <trkpt lat="43.1224871" lon="-2.7709913">
        <ele>137.476</ele>
        <time>2021-04-01T09:17:19.964Z</time>
      </trkpt>
      <trkpt lat="43.1224886" lon="-2.7709949">
        <ele>137.472</ele>
        <time>2021-04-01T09:17:20.019Z</time>
      </trkpt>
      <trkpt lat="43.1224898" lon="-2.7709982">
        <ele>137.479</ele>
        <time>2021-04-01T09:17:20.074Z</time>
      </trkpt>
      <trkpt lat="43.1224913" lon="-2.7710016">
        <ele>137.516</ele>
        <time>2021-04-01T09:17:20.129Z</time>
      </trkpt>
      <trkpt lat="43.1224927" lon="-2.7710051">
        <ele>137.539</ele>
        <time>2021-04-01T09:17:20.184Z</time>
      </trkpt>
      <trkpt lat="43.1224941" lon="-2.7710086">
        <ele>137.551</ele>
        <time>2021-04-01T09:17:20.239Z</time>
      </trkpt>
      <trkpt lat="43.1224954" lon="-2.7710121">
        <ele>137.563</ele>
        <time>2021-04-01T09:17:20.294Z</time>
      </trkpt>
      <trkpt lat="43.1224967" lon="-2.7710156">
        <ele>137.572</ele>
        <time>2021-04-01T09:17:20.349Z</time>
      </trkpt>
      <trkpt lat="43.1224981" lon="-2.7710189">
        <ele>137.586</ele>
        <time>2021-04-01T09:17:20.404Z</time>
      </trkpt>
      <trkpt lat="43.1224993" lon="-2.7710226">
        <ele>137.591</ele>
        <time>2021-04-01T09:17:20.459Z</time>
      </trkpt>
      <trkpt lat="43.1225006" lon="-2.7710265">
        <ele>137.614</ele>
        <time>2021-04-01T09:17:20.514Z</time>
      </trkpt>
      <trkpt lat="43.1225021" lon="-2.77103">
        <ele>137.613</ele>
        <time>2021-04-01T09:17:20.569Z</time>
      </trkpt>
      <trkpt lat="43.1225034" lon="-2.7710335">
        <ele>137.609</ele>
        <time>2021-04-01T09:17:20.624Z</time>
      </trkpt>
      <trkpt lat="43.1225045" lon="-2.7710368">
        <ele>137.629</ele>
        <time>2021-04-01T09:17:20.679Z</time>
      </trkpt>
      <trkpt lat="43.1225059" lon="-2.7710403">
        <ele>137.624</ele>
        <time>2021-04-01T09:17:20.734Z</time>
      </trkpt>
      <trkpt lat="43.1225068" lon="-2.7710438">
        <ele>137.6</ele>
        <time>2021-04-01T09:17:20.789Z</time>
      </trkpt>
      <trkpt lat="43.1225083" lon="-2.7710474">
        <ele>137.608</ele>
        <time>2021-04-01T09:17:20.844Z</time>
      </trkpt>
      <trkpt lat="43.1225099" lon="-2.7710509">
        <ele>137.654</ele>
        <time>2021-04-01T09:17:20.899Z</time>
      </trkpt>
      <trkpt lat="43.1225113" lon="-2.7710546">
        <ele>137.646</ele>
        <time>2021-04-01T09:17:20.954Z</time>
      </trkpt>
      <trkpt lat="43.1225127" lon="-2.771058">
        <ele>137.656</ele>
        <time>2021-04-01T09:17:21.012Z</time>
      </trkpt>
      <trkpt lat="43.122514" lon="-2.7710617">
        <ele>137.663</ele>
        <time>2021-04-01T09:17:21.070Z</time>
      </trkpt>
      <trkpt lat="43.1225154" lon="-2.7710653">
        <ele>137.695</ele>
        <time>2021-04-01T09:17:21.128Z</time>
      </trkpt>
      <trkpt lat="43.1225167" lon="-2.7710688">
        <ele>137.726</ele>
        <time>2021-04-01T09:17:21.186Z</time>
      </trkpt>
      <trkpt lat="43.1225179" lon="-2.7710722">
        <ele>137.716</ele>
        <time>2021-04-01T09:17:21.244Z</time>
      </trkpt>
      <trkpt lat="43.1225192" lon="-2.7710756">
        <ele>137.743</ele>
        <time>2021-04-01T09:17:21.302Z</time>
      </trkpt>
      <trkpt lat="43.1225206" lon="-2.7710792">
        <ele>137.772</ele>
        <time>2021-04-01T09:17:21.360Z</time>
      </trkpt>
      <trkpt lat="43.122522" lon="-2.7710827">
        <ele>137.807</ele>
        <time>2021-04-01T09:17:21.418Z</time>
      </trkpt>
      <trkpt lat="43.1225232" lon="-2.7710863">
        <ele>137.818</ele>
        <time>2021-04-01T09:17:21.476Z</time>
      </trkpt>
      <trkpt lat="43.1225248" lon="-2.7710901">
        <ele>137.833</ele>
        <time>2021-04-01T09:17:21.535Z</time>
      </trkpt>
      <trkpt lat="43.122526" lon="-2.7710939">
        <ele>137.823</ele>
        <time>2021-04-01T09:17:21.593Z</time>
      </trkpt>
      <trkpt lat="43.1225273" lon="-2.7710976">
        <ele>137.882</ele>
        <time>2021-04-01T09:17:21.651Z</time>
      </trkpt>
      <trkpt lat="43.1225286" lon="-2.7711009">
        <ele>137.908</ele>
        <time>2021-04-01T09:17:21.709Z</time>
      </trkpt>
      <trkpt lat="43.1225297" lon="-2.7711047">
        <ele>137.937</ele>
        <time>2021-04-01T09:17:21.767Z</time>
      </trkpt>
      <trkpt lat="43.122531" lon="-2.7711083">
        <ele>137.949</ele>
        <time>2021-04-01T09:17:21.825Z</time>
      </trkpt>
      <trkpt lat="43.1225323" lon="-2.771112">
        <ele>137.955</ele>
        <time>2021-04-01T09:17:21.883Z</time>
      </trkpt>
      <trkpt lat="43.1225337" lon="-2.7711153">
        <ele>137.948</ele>
        <time>2021-04-01T09:17:21.941Z</time>
      </trkpt>
      <trkpt lat="43.1225351" lon="-2.7711191">
        <ele>137.924</ele>
        <time>2021-04-01T09:17:22.000Z</time>
      </trkpt>
      <trkpt lat="43.1225365" lon="-2.7711226">
        <ele>137.94</ele>
        <time>2021-04-01T09:17:22.052Z</time>
      </trkpt>
      <trkpt lat="43.1225381" lon="-2.7711258">
        <ele>137.991</ele>
        <time>2021-04-01T09:17:22.104Z</time>
      </trkpt>
      <trkpt lat="43.1225396" lon="-2.7711291">
        <ele>138.011</ele>
        <time>2021-04-01T09:17:22.156Z</time>
      </trkpt>
      <trkpt lat="43.1225412" lon="-2.7711325">
        <ele>138.025</ele>
        <time>2021-04-01T09:17:22.208Z</time>
      </trkpt>
      <trkpt lat="43.1225427" lon="-2.7711358">
        <ele>138.051</ele>
        <time>2021-04-01T09:17:22.260Z</time>
      </trkpt>
      <trkpt lat="43.122544" lon="-2.7711392">
        <ele>138.085</ele>
        <time>2021-04-01T09:17:22.312Z</time>
      </trkpt>
      <trkpt lat="43.1225456" lon="-2.7711427">
        <ele>138.095</ele>
        <time>2021-04-01T09:17:22.364Z</time>
      </trkpt>
      <trkpt lat="43.1225471" lon="-2.7711461">
        <ele>138.122</ele>
        <time>2021-04-01T09:17:22.416Z</time>
      </trkpt>
      <trkpt lat="43.1225487" lon="-2.7711496">
        <ele>138.141</ele>
        <time>2021-04-01T09:17:22.468Z</time>
      </trkpt>
      <trkpt lat="43.1225503" lon="-2.7711532">
        <ele>138.15</ele>
        <time>2021-04-01T09:17:22.520Z</time>
      </trkpt>
      <trkpt lat="43.1225516" lon="-2.7711571">
        <ele>138.131</ele>
        <time>2021-04-01T09:17:22.572Z</time>
      </trkpt>
      <trkpt lat="43.1225528" lon="-2.7711603">
        <ele>138.139</ele>
        <time>2021-04-01T09:17:22.624Z</time>
      </trkpt>
      <trkpt lat="43.122554" lon="-2.7711638">
        <ele>138.125</ele>
        <time>2021-04-01T09:17:22.676Z</time>
      </trkpt>
      <trkpt lat="43.1225554" lon="-2.7711671">
        <ele>138.127</ele>
        <time>2021-04-01T09:17:22.728Z</time>
      </trkpt>
      <trkpt lat="43.1225563" lon="-2.7711703">
        <ele>138.086</ele>
        <time>2021-04-01T09:17:22.780Z</time>
      </trkpt>
      <trkpt lat="43.1225576" lon="-2.7711738">
        <ele>138.074</ele>
        <time>2021-04-01T09:17:22.832Z</time>
      </trkpt>
      <trkpt lat="43.1225588" lon="-2.7711772">
        <ele>138.075</ele>
        <time>2021-04-01T09:17:22.884Z</time>
      </trkpt>
      <trkpt lat="43.1225601" lon="-2.7711807">
        <ele>138.088</ele>
        <time>2021-04-01T09:17:22.936Z</time>
      </trkpt>
      <trkpt lat="43.1225612" lon="-2.7711842">
        <ele>138.122</ele>
        <time>2021-04-01T09:17:22.989Z</time>
      </trkpt>
      <trkpt lat="43.1225622" lon="-2.7711878">
        <ele>138.09</ele>
        <time>2021-04-01T09:17:23.047Z</time>
      </trkpt>
      <trkpt lat="43.1225637" lon="-2.7711914">
        <ele>138.115</ele>
        <time>2021-04-01T09:17:23.105Z</time>
      </trkpt>
      <trkpt lat="43.1225649" lon="-2.771195">
        <ele>138.128</ele>
        <time>2021-04-01T09:17:23.163Z</time>
      </trkpt>
      <trkpt lat="43.1225665" lon="-2.7711987">
        <ele>138.159</ele>
        <time>2021-04-01T09:17:23.221Z</time>
      </trkpt>
      <trkpt lat="43.1225679" lon="-2.7712022">
        <ele>138.182</ele>
        <time>2021-04-01T09:17:23.280Z</time>
      </trkpt>
      <trkpt lat="43.1225693" lon="-2.7712056">
        <ele>138.211</ele>
        <time>2021-04-01T09:17:23.338Z</time>
      </trkpt>
      <trkpt lat="43.1225706" lon="-2.7712087">
        <ele>138.222</ele>
        <time>2021-04-01T09:17:23.396Z</time>
      </trkpt>
      <trkpt lat="43.1225721" lon="-2.7712118">
        <ele>138.215</ele>
        <time>2021-04-01T09:17:23.454Z</time>
      </trkpt>
      <trkpt lat="43.1225734" lon="-2.7712149">
        <ele>138.207</ele>
        <time>2021-04-01T09:17:23.513Z</time>
      </trkpt>
      <trkpt lat="43.1225747" lon="-2.7712181">
        <ele>138.211</ele>
        <time>2021-04-01T09:17:23.571Z</time>
      </trkpt>
      <trkpt lat="43.1225762" lon="-2.7712214">
        <ele>138.239</ele>
        <time>2021-04-01T09:17:23.629Z</time>
      </trkpt>
      <trkpt lat="43.1225774" lon="-2.7712248">
        <ele>138.219</ele>
        <time>2021-04-01T09:17:23.687Z</time>
      </trkpt>
      <trkpt lat="43.1225788" lon="-2.7712283">
        <ele>138.233</ele>
        <time>2021-04-01T09:17:23.746Z</time>
      </trkpt>
      <trkpt lat="43.1225801" lon="-2.7712319">
        <ele>138.258</ele>
        <time>2021-04-01T09:17:23.804Z</time>
      </trkpt>
      <trkpt lat="43.1225816" lon="-2.7712356">
        <ele>138.295</ele>
        <time>2021-04-01T09:17:23.862Z</time>
      </trkpt>
      <trkpt lat="43.1225831" lon="-2.7712388">
        <ele>138.325</ele>
        <time>2021-04-01T09:17:23.920Z</time>
      </trkpt>
      <trkpt lat="43.1225843" lon="-2.7712421">
        <ele>138.32</ele>
        <time>2021-04-01T09:17:23.979Z</time>
      </trkpt>
      <trkpt lat="43.1225855" lon="-2.7712457">
        <ele>138.306</ele>
        <time>2021-04-01T09:17:24.037Z</time>
      </trkpt>
      <trkpt lat="43.1225869" lon="-2.7712491">
        <ele>138.322</ele>
        <time>2021-04-01T09:17:24.095Z</time>
      </trkpt>
      <trkpt lat="43.1225883" lon="-2.7712527">
        <ele>138.346</ele>
        <time>2021-04-01T09:17:24.153Z</time>
      </trkpt>
      <trkpt lat="43.1225896" lon="-2.7712564">
        <ele>138.355</ele>
        <time>2021-04-01T09:17:24.211Z</time>
      </trkpt>
      <trkpt lat="43.1225906" lon="-2.7712599">
        <ele>138.341</ele>
        <time>2021-04-01T09:17:24.269Z</time>
      </trkpt>
      <trkpt lat="43.1225923" lon="-2.7712632">
        <ele>138.352</ele>
        <time>2021-04-01T09:17:24.327Z</time>
      </trkpt>
      <trkpt lat="43.1225934" lon="-2.7712666">
        <ele>138.302</ele>
        <time>2021-04-01T09:17:24.385Z</time>
      </trkpt>
      <trkpt lat="43.1225942" lon="-2.7712698">
        <ele>138.228</ele>
        <time>2021-04-01T09:17:24.443Z</time>
      </trkpt>
      <trkpt lat="43.1225952" lon="-2.7712734">
        <ele>138.248</ele>
        <time>2021-04-01T09:17:24.501Z</time>
      </trkpt>
      <trkpt lat="43.1225963" lon="-2.771277">
        <ele>138.223</ele>
        <time>2021-04-01T09:17:24.559Z</time>
      </trkpt>
      <trkpt lat="43.1225975" lon="-2.7712807">
        <ele>138.252</ele>
        <time>2021-04-01T09:17:24.617Z</time>
      </trkpt>
      <trkpt lat="43.1225986" lon="-2.7712843">
        <ele>138.253</ele>
        <time>2021-04-01T09:17:24.675Z</time>
      </trkpt>
      <trkpt lat="43.1225998" lon="-2.7712878">
        <ele>138.245</ele>
        <time>2021-04-01T09:17:24.733Z</time>
      </trkpt>
      <trkpt lat="43.1226012" lon="-2.7712912">
        <ele>138.301</ele>
        <time>2021-04-01T09:17:24.791Z</time>
      </trkpt>
      <trkpt lat="43.1226026" lon="-2.7712949">
        <ele>138.337</ele>
        <time>2021-04-01T09:17:24.849Z</time>
      </trkpt>
      <trkpt lat="43.1226036" lon="-2.7712987">
        <ele>138.292</ele>
        <time>2021-04-01T09:17:24.907Z</time>
      </trkpt>
      <trkpt lat="43.1226047" lon="-2.7713023">
        <ele>138.292</ele>
        <time>2021-04-01T09:17:24.965Z</time>
      </trkpt>
      <trkpt lat="43.122606" lon="-2.7713057">
        <ele>138.309</ele>
        <time>2021-04-01T09:17:25.024Z</time>
      </trkpt>
      <trkpt lat="43.1226071" lon="-2.7713092">
        <ele>138.266</ele>
        <time>2021-04-01T09:17:25.073Z</time>
      </trkpt>
      <trkpt lat="43.1226083" lon="-2.7713129">
        <ele>138.273</ele>
        <time>2021-04-01T09:17:25.122Z</time>
      </trkpt>
      <trkpt lat="43.1226095" lon="-2.7713166">
        <ele>138.27</ele>
        <time>2021-04-01T09:17:25.171Z</time>
      </trkpt>
      <trkpt lat="43.1226106" lon="-2.7713199">
        <ele>138.264</ele>
        <time>2021-04-01T09:17:25.220Z</time>
      </trkpt>
      <trkpt lat="43.122612" lon="-2.7713235">
        <ele>138.285</ele>
        <time>2021-04-01T09:17:25.270Z</time>
      </trkpt>
      <trkpt lat="43.1226134" lon="-2.771327">
        <ele>138.298</ele>
        <time>2021-04-01T09:17:25.319Z</time>
      </trkpt>
      <trkpt lat="43.1226147" lon="-2.7713305">
        <ele>138.313</ele>
        <time>2021-04-01T09:17:25.368Z</time>
      </trkpt>
      <trkpt lat="43.122616" lon="-2.7713338">
        <ele>138.345</ele>
        <time>2021-04-01T09:17:25.417Z</time>
      </trkpt>
      <trkpt lat="43.1226172" lon="-2.7713373">
        <ele>138.334</ele>
        <time>2021-04-01T09:17:25.466Z</time>
      </trkpt>
      <trkpt lat="43.1226188" lon="-2.7713408">
        <ele>138.35</ele>
        <time>2021-04-01T09:17:25.516Z</time>
      </trkpt>
      <trkpt lat="43.1226201" lon="-2.7713446">
        <ele>138.379</ele>
        <time>2021-04-01T09:17:25.565Z</time>
      </trkpt>
      <trkpt lat="43.122621" lon="-2.7713482">
        <ele>138.385</ele>
        <time>2021-04-01T09:17:25.614Z</time>
      </trkpt>
      <trkpt lat="43.1226223" lon="-2.7713517">
        <ele>138.361</ele>
        <time>2021-04-01T09:17:25.663Z</time>
      </trkpt>
      <trkpt lat="43.1226237" lon="-2.7713555">
        <ele>138.353</ele>
        <time>2021-04-01T09:17:25.712Z</time>
      </trkpt>
      <trkpt lat="43.1226251" lon="-2.7713591">
        <ele>138.388</ele>
        <time>2021-04-01T09:17:25.762Z</time>
      </trkpt>
      <trkpt lat="43.1226263" lon="-2.7713626">
        <ele>138.382</ele>
        <time>2021-04-01T09:17:25.811Z</time>
      </trkpt>
      <trkpt lat="43.1226275" lon="-2.771366">
        <ele>138.37</ele>
        <time>2021-04-01T09:17:25.860Z</time>
      </trkpt>
      <trkpt lat="43.1226286" lon="-2.7713696">
        <ele>138.367</ele>
        <time>2021-04-01T09:17:25.909Z</time>
      </trkpt>
      <trkpt lat="43.1226295" lon="-2.7713733">
        <ele>138.372</ele>
        <time>2021-04-01T09:17:25.959Z</time>
      </trkpt>
      <trkpt lat="43.122631" lon="-2.7713766">
        <ele>138.409</ele>
        <time>2021-04-01T09:17:26.014Z</time>
      </trkpt>
      <trkpt lat="43.1226324" lon="-2.7713803">
        <ele>138.431</ele>
        <time>2021-04-01T09:17:26.069Z</time>
      </trkpt>
      <trkpt lat="43.1226343" lon="-2.7713834">
        <ele>138.483</ele>
        <time>2021-04-01T09:17:26.124Z</time>
      </trkpt>
      <trkpt lat="43.1226358" lon="-2.7713865">
        <ele>138.458</ele>
        <time>2021-04-01T09:17:26.179Z</time>
      </trkpt>
      <trkpt lat="43.1226369" lon="-2.7713897">
        <ele>138.421</ele>
        <time>2021-04-01T09:17:26.234Z</time>
      </trkpt>
      <trkpt lat="43.122638" lon="-2.7713932">
        <ele>138.414</ele>
        <time>2021-04-01T09:17:26.289Z</time>
      </trkpt>
      <trkpt lat="43.1226392" lon="-2.7713966">
        <ele>138.386</ele>
        <time>2021-04-01T09:17:26.344Z</time>
      </trkpt>
      <trkpt lat="43.1226405" lon="-2.7713999">
        <ele>138.374</ele>
        <time>2021-04-01T09:17:26.399Z</time>
      </trkpt>
      <trkpt lat="43.1226419" lon="-2.7714033">
        <ele>138.417</ele>
        <time>2021-04-01T09:17:26.454Z</time>
      </trkpt>
      <trkpt lat="43.1226435" lon="-2.7714067">
        <ele>138.455</ele>
        <time>2021-04-01T09:17:26.509Z</time>
      </trkpt>
      <trkpt lat="43.1226448" lon="-2.7714102">
        <ele>138.456</ele>
        <time>2021-04-01T09:17:26.564Z</time>
      </trkpt>
      <trkpt lat="43.1226463" lon="-2.7714134">
        <ele>138.465</ele>
        <time>2021-04-01T09:17:26.619Z</time>
      </trkpt>
      <trkpt lat="43.1226482" lon="-2.7714164">
        <ele>138.524</ele>
        <time>2021-04-01T09:17:26.674Z</time>
      </trkpt>
      <trkpt lat="43.1226496" lon="-2.7714197">
        <ele>138.529</ele>
        <time>2021-04-01T09:17:26.729Z</time>
      </trkpt>
      <trkpt lat="43.1226516" lon="-2.7714231">
        <ele>138.564</ele>
        <time>2021-04-01T09:17:26.784Z</time>
      </trkpt>
      <trkpt lat="43.1226531" lon="-2.7714264">
        <ele>138.582</ele>
        <time>2021-04-01T09:17:26.839Z</time>
      </trkpt>
      <trkpt lat="43.1226546" lon="-2.7714296">
        <ele>138.611</ele>
        <time>2021-04-01T09:17:26.894Z</time>
      </trkpt>
      <trkpt lat="43.1226559" lon="-2.7714328">
        <ele>138.604</ele>
        <time>2021-04-01T09:17:26.949Z</time>
      </trkpt>
      <trkpt lat="43.1226573" lon="-2.7714361">
        <ele>138.587</ele>
        <time>2021-04-01T09:17:27.004Z</time>
      </trkpt>
      <trkpt lat="43.122659" lon="-2.7714389">
        <ele>138.577</ele>
        <time>2021-04-01T09:17:27.059Z</time>
      </trkpt>
      <trkpt lat="43.1226606" lon="-2.7714419">
        <ele>138.584</ele>
        <time>2021-04-01T09:17:27.114Z</time>
      </trkpt>
      <trkpt lat="43.1226622" lon="-2.7714453">
        <ele>138.63</ele>
        <time>2021-04-01T09:17:27.169Z</time>
      </trkpt>
      <trkpt lat="43.1226638" lon="-2.7714485">
        <ele>138.626</ele>
        <time>2021-04-01T09:17:27.224Z</time>
      </trkpt>
      <trkpt lat="43.1226654" lon="-2.7714519">
        <ele>138.665</ele>
        <time>2021-04-01T09:17:27.279Z</time>
      </trkpt>
      <trkpt lat="43.1226667" lon="-2.7714551">
        <ele>138.679</ele>
        <time>2021-04-01T09:17:27.334Z</time>
      </trkpt>
      <trkpt lat="43.1226681" lon="-2.7714582">
        <ele>138.695</ele>
        <time>2021-04-01T09:17:27.389Z</time>
      </trkpt>
      <trkpt lat="43.1226693" lon="-2.7714615">
        <ele>138.737</ele>
        <time>2021-04-01T09:17:27.444Z</time>
      </trkpt>
      <trkpt lat="43.1226707" lon="-2.7714648">
        <ele>138.76</ele>
        <time>2021-04-01T09:17:27.499Z</time>
      </trkpt>
      <trkpt lat="43.1226721" lon="-2.7714681">
        <ele>138.784</ele>
        <time>2021-04-01T09:17:27.554Z</time>
      </trkpt>
      <trkpt lat="43.1226735" lon="-2.7714713">
        <ele>138.784</ele>
        <time>2021-04-01T09:17:27.609Z</time>
      </trkpt>
      <trkpt lat="43.122675" lon="-2.7714747">
        <ele>138.792</ele>
        <time>2021-04-01T09:17:27.664Z</time>
      </trkpt>
      <trkpt lat="43.1226764" lon="-2.7714781">
        <ele>138.778</ele>
        <time>2021-04-01T09:17:27.719Z</time>
      </trkpt>
      <trkpt lat="43.1226781" lon="-2.7714811">
        <ele>138.767</ele>
        <time>2021-04-01T09:17:27.774Z</time>
      </trkpt>
      <trkpt lat="43.1226796" lon="-2.7714844">
        <ele>138.778</ele>
        <time>2021-04-01T09:17:27.829Z</time>
      </trkpt>
      <trkpt lat="43.1226811" lon="-2.7714876">
        <ele>138.762</ele>
        <time>2021-04-01T09:17:27.884Z</time>
      </trkpt>
      <trkpt lat="43.1226823" lon="-2.771491">
        <ele>138.771</ele>
        <time>2021-04-01T09:17:27.939Z</time>
      </trkpt>
      <trkpt lat="43.1226838" lon="-2.7714944">
        <ele>138.783</ele>
        <time>2021-04-01T09:17:27.994Z</time>
      </trkpt>
      <trkpt lat="43.1226856" lon="-2.7714979">
        <ele>138.807</ele>
        <time>2021-04-01T09:17:28.049Z</time>
      </trkpt>
      <trkpt lat="43.122687" lon="-2.7715011">
        <ele>138.756</ele>
        <time>2021-04-01T09:17:28.104Z</time>
      </trkpt>
      <trkpt lat="43.1226883" lon="-2.7715047">
        <ele>138.746</ele>
        <time>2021-04-01T09:17:28.159Z</time>
      </trkpt>
      <trkpt lat="43.1226894" lon="-2.771508">
        <ele>138.687</ele>
        <time>2021-04-01T09:17:28.214Z</time>
      </trkpt>
      <trkpt lat="43.1226907" lon="-2.7715112">
        <ele>138.634</ele>
        <time>2021-04-01T09:17:28.269Z</time>
      </trkpt>
      <trkpt lat="43.1226923" lon="-2.7715145">
        <ele>138.637</ele>
        <time>2021-04-01T09:17:28.324Z</time>
      </trkpt>
      <trkpt lat="43.1226935" lon="-2.7715178">
        <ele>138.631</ele>
        <time>2021-04-01T09:17:28.379Z</time>
      </trkpt>
      <trkpt lat="43.122695" lon="-2.771521">
        <ele>138.565</ele>
        <time>2021-04-01T09:17:28.434Z</time>
      </trkpt>
      <trkpt lat="43.1226962" lon="-2.7715243">
        <ele>138.504</ele>
        <time>2021-04-01T09:17:28.489Z</time>
      </trkpt>
      <trkpt lat="43.1226975" lon="-2.7715276">
        <ele>138.494</ele>
        <time>2021-04-01T09:17:28.544Z</time>
      </trkpt>
      <trkpt lat="43.1226993" lon="-2.7715309">
        <ele>138.509</ele>
        <time>2021-04-01T09:17:28.599Z</time>
      </trkpt>
      <trkpt lat="43.1227007" lon="-2.7715345">
        <ele>138.483</ele>
        <time>2021-04-01T09:17:28.654Z</time>
      </trkpt>
      <trkpt lat="43.122702" lon="-2.7715378">
        <ele>138.406</ele>
        <time>2021-04-01T09:17:28.709Z</time>
      </trkpt>
      <trkpt lat="43.1227031" lon="-2.7715416">
        <ele>138.412</ele>
        <time>2021-04-01T09:17:28.764Z</time>
      </trkpt>
      <trkpt lat="43.1227043" lon="-2.7715449">
        <ele>138.418</ele>
        <time>2021-04-01T09:17:28.819Z</time>
      </trkpt>
      <trkpt lat="43.1227057" lon="-2.7715482">
        <ele>138.379</ele>
        <time>2021-04-01T09:17:28.874Z</time>
      </trkpt>
      <trkpt lat="43.1227071" lon="-2.7715515">
        <ele>138.324</ele>
        <time>2021-04-01T09:17:28.929Z</time>
      </trkpt>
      <trkpt lat="43.1227086" lon="-2.7715547">
        <ele>138.277</ele>
        <time>2021-04-01T09:17:28.984Z</time>
      </trkpt>
      <trkpt lat="43.1227101" lon="-2.7715581">
        <ele>138.26</ele>
        <time>2021-04-01T09:17:29.035Z</time>
      </trkpt>
      <trkpt lat="43.1227118" lon="-2.7715614">
        <ele>138.267</ele>
        <time>2021-04-01T09:17:29.087Z</time>
      </trkpt>
      <trkpt lat="43.1227131" lon="-2.7715647">
        <ele>138.272</ele>
        <time>2021-04-01T09:17:29.139Z</time>
      </trkpt>
      <trkpt lat="43.1227142" lon="-2.7715677">
        <ele>138.248</ele>
        <time>2021-04-01T09:17:29.191Z</time>
      </trkpt>
      <trkpt lat="43.1227156" lon="-2.7715708">
        <ele>138.227</ele>
        <time>2021-04-01T09:17:29.243Z</time>
      </trkpt>
      <trkpt lat="43.1227172" lon="-2.7715743">
        <ele>138.238</ele>
        <time>2021-04-01T09:17:29.295Z</time>
      </trkpt>
      <trkpt lat="43.1227188" lon="-2.7715776">
        <ele>138.238</ele>
        <time>2021-04-01T09:17:29.347Z</time>
      </trkpt>
      <trkpt lat="43.1227203" lon="-2.7715806">
        <ele>138.217</ele>
        <time>2021-04-01T09:17:29.399Z</time>
      </trkpt>
      <trkpt lat="43.1227217" lon="-2.7715835">
        <ele>138.2</ele>
        <time>2021-04-01T09:17:29.451Z</time>
      </trkpt>
      <trkpt lat="43.1227231" lon="-2.7715868">
        <ele>138.214</ele>
        <time>2021-04-01T09:17:29.503Z</time>
      </trkpt>
      <trkpt lat="43.1227248" lon="-2.7715905">
        <ele>138.212</ele>
        <time>2021-04-01T09:17:29.555Z</time>
      </trkpt>
      <trkpt lat="43.1227269" lon="-2.7715942">
        <ele>138.226</ele>
        <time>2021-04-01T09:17:29.607Z</time>
      </trkpt>
      <trkpt lat="43.1227278" lon="-2.7715972">
        <ele>138.217</ele>
        <time>2021-04-01T09:17:29.659Z</time>
      </trkpt>
      <trkpt lat="43.1227284" lon="-2.7715999">
        <ele>138.192</ele>
        <time>2021-04-01T09:17:29.711Z</time>
      </trkpt>
      <trkpt lat="43.1227297" lon="-2.7716032">
        <ele>138.132</ele>
        <time>2021-04-01T09:17:29.763Z</time>
      </trkpt>
      <trkpt lat="43.1227306" lon="-2.7716067">
        <ele>138.021</ele>
        <time>2021-04-01T09:17:29.815Z</time>
      </trkpt>
      <trkpt lat="43.1227318" lon="-2.7716099">
        <ele>138.017</ele>
        <time>2021-04-01T09:17:29.867Z</time>
      </trkpt>
      <trkpt lat="43.1227329" lon="-2.7716132">
        <ele>138.039</ele>
        <time>2021-04-01T09:17:29.919Z</time>
      </trkpt>
      <trkpt lat="43.1227341" lon="-2.7716168">
        <ele>138.05</ele>
        <time>2021-04-01T09:17:29.977Z</time>
      </trkpt>
      <trkpt lat="43.1227354" lon="-2.7716202">
        <ele>137.999</ele>
        <time>2021-04-01T09:17:30.035Z</time>
      </trkpt>
      <trkpt lat="43.1227365" lon="-2.7716236">
        <ele>137.949</ele>
        <time>2021-04-01T09:17:30.093Z</time>
      </trkpt>
      <trkpt lat="43.1227379" lon="-2.771627">
        <ele>137.912</ele>
        <time>2021-04-01T09:17:30.151Z</time>
      </trkpt>
      <trkpt lat="43.122739" lon="-2.77163">
        <ele>137.838</ele>
        <time>2021-04-01T09:17:30.209Z</time>
      </trkpt>
      <trkpt lat="43.1227403" lon="-2.7716334">
        <ele>137.813</ele>
        <time>2021-04-01T09:17:30.267Z</time>
      </trkpt>
      <trkpt lat="43.1227416" lon="-2.7716368">
        <ele>137.79</ele>
        <time>2021-04-01T09:17:30.325Z</time>
      </trkpt>
      <trkpt lat="43.122743" lon="-2.77164">
        <ele>137.738</ele>
        <time>2021-04-01T09:17:30.383Z</time>
      </trkpt>
      <trkpt lat="43.1227442" lon="-2.7716435">
        <ele>137.711</ele>
        <time>2021-04-01T09:17:30.441Z</time>
      </trkpt>
      <trkpt lat="43.1227455" lon="-2.771647">
        <ele>137.697</ele>
        <time>2021-04-01T09:17:30.499Z</time>
      </trkpt>
      <trkpt lat="43.1227469" lon="-2.7716504">
        <ele>137.687</ele>
        <time>2021-04-01T09:17:30.557Z</time>
      </trkpt>
      <trkpt lat="43.1227486" lon="-2.7716538">
        <ele>137.673</ele>
        <time>2021-04-01T09:17:30.615Z</time>
      </trkpt>
      <trkpt lat="43.1227502" lon="-2.7716572">
        <ele>137.659</ele>
        <time>2021-04-01T09:17:30.673Z</time>
      </trkpt>
      <trkpt lat="43.1227516" lon="-2.7716606">
        <ele>137.639</ele>
        <time>2021-04-01T09:17:30.731Z</time>
      </trkpt>
      <trkpt lat="43.1227528" lon="-2.7716643">
        <ele>137.625</ele>
        <time>2021-04-01T09:17:30.789Z</time>
      </trkpt>
      <trkpt lat="43.1227541" lon="-2.7716679">
        <ele>137.587</ele>
        <time>2021-04-01T09:17:30.847Z</time>
      </trkpt>
      <trkpt lat="43.1227555" lon="-2.7716714">
        <ele>137.565</ele>
        <time>2021-04-01T09:17:30.905Z</time>
      </trkpt>
      <trkpt lat="43.1227568" lon="-2.7716747">
        <ele>137.522</ele>
        <time>2021-04-01T09:17:30.964Z</time>
      </trkpt>
      <trkpt lat="43.1227581" lon="-2.7716782">
        <ele>137.493</ele>
        <time>2021-04-01T09:17:31.019Z</time>
      </trkpt>
      <trkpt lat="43.1227596" lon="-2.7716815">
        <ele>137.458</ele>
        <time>2021-04-01T09:17:31.074Z</time>
      </trkpt>
      <trkpt lat="43.122761" lon="-2.7716844">
        <ele>137.388</ele>
        <time>2021-04-01T09:17:31.129Z</time>
      </trkpt>
      <trkpt lat="43.1227623" lon="-2.7716878">
        <ele>137.369</ele>
        <time>2021-04-01T09:17:31.184Z</time>
      </trkpt>
      <trkpt lat="43.1227641" lon="-2.7716912">
        <ele>137.357</ele>
        <time>2021-04-01T09:17:31.239Z</time>
      </trkpt>
      <trkpt lat="43.1227655" lon="-2.7716948">
        <ele>137.344</ele>
        <time>2021-04-01T09:17:31.294Z</time>
      </trkpt>
      <trkpt lat="43.1227671" lon="-2.7716983">
        <ele>137.321</ele>
        <time>2021-04-01T09:17:31.349Z</time>
      </trkpt>
      <trkpt lat="43.1227687" lon="-2.7717014">
        <ele>137.293</ele>
        <time>2021-04-01T09:17:31.404Z</time>
      </trkpt>
      <trkpt lat="43.1227704" lon="-2.7717049">
        <ele>137.283</ele>
        <time>2021-04-01T09:17:31.459Z</time>
      </trkpt>
      <trkpt lat="43.1227721" lon="-2.7717084">
        <ele>137.27</ele>
        <time>2021-04-01T09:17:31.514Z</time>
      </trkpt>
      <trkpt lat="43.1227738" lon="-2.7717119">
        <ele>137.244</ele>
        <time>2021-04-01T09:17:31.569Z</time>
      </trkpt>
      <trkpt lat="43.1227753" lon="-2.7717154">
        <ele>137.204</ele>
        <time>2021-04-01T09:17:31.624Z</time>
      </trkpt>
      <trkpt lat="43.122777" lon="-2.7717191">
        <ele>137.185</ele>
        <time>2021-04-01T09:17:31.679Z</time>
      </trkpt>
      <trkpt lat="43.1227787" lon="-2.7717228">
        <ele>137.188</ele>
        <time>2021-04-01T09:17:31.734Z</time>
      </trkpt>
      <trkpt lat="43.1227803" lon="-2.7717262">
        <ele>137.163</ele>
        <time>2021-04-01T09:17:31.789Z</time>
      </trkpt>
      <trkpt lat="43.1227821" lon="-2.7717301">
        <ele>137.197</ele>
        <time>2021-04-01T09:17:31.844Z</time>
      </trkpt>
      <trkpt lat="43.1227835" lon="-2.7717337">
        <ele>137.16</ele>
        <time>2021-04-01T09:17:31.899Z</time>
      </trkpt>
      <trkpt lat="43.1227849" lon="-2.7717368">
        <ele>137.075</ele>
        <time>2021-04-01T09:17:31.954Z</time>
      </trkpt>
      <trkpt lat="43.1227865" lon="-2.7717403">
        <ele>137.026</ele>
        <time>2021-04-01T09:17:32.009Z</time>
      </trkpt>
      <trkpt lat="43.1227882" lon="-2.7717437">
        <ele>136.96</ele>
        <time>2021-04-01T09:17:32.064Z</time>
      </trkpt>
      <trkpt lat="43.1227897" lon="-2.7717478">
        <ele>136.979</ele>
        <time>2021-04-01T09:17:32.119Z</time>
      </trkpt>
      <trkpt lat="43.122791" lon="-2.7717519">
        <ele>136.997</ele>
        <time>2021-04-01T09:17:32.174Z</time>
      </trkpt>
      <trkpt lat="43.1227927" lon="-2.7717557">
        <ele>136.991</ele>
        <time>2021-04-01T09:17:32.229Z</time>
      </trkpt>
      <trkpt lat="43.1227944" lon="-2.7717598">
        <ele>137.013</ele>
        <time>2021-04-01T09:17:32.284Z</time>
      </trkpt>
      <trkpt lat="43.1227958" lon="-2.7717638">
        <ele>136.991</ele>
        <time>2021-04-01T09:17:32.339Z</time>
      </trkpt>
      <trkpt lat="43.1227972" lon="-2.7717675">
        <ele>136.976</ele>
        <time>2021-04-01T09:17:32.394Z</time>
      </trkpt>
      <trkpt lat="43.1227988" lon="-2.7717714">
        <ele>136.992</ele>
        <time>2021-04-01T09:17:32.449Z</time>
      </trkpt>
      <trkpt lat="43.1228006" lon="-2.7717755">
        <ele>137.007</ele>
        <time>2021-04-01T09:17:32.504Z</time>
      </trkpt>
      <trkpt lat="43.1228024" lon="-2.7717795">
        <ele>137.03</ele>
        <time>2021-04-01T09:17:32.559Z</time>
      </trkpt>
      <trkpt lat="43.122804" lon="-2.7717835">
        <ele>137.023</ele>
        <time>2021-04-01T09:17:32.614Z</time>
      </trkpt>
      <trkpt lat="43.1228056" lon="-2.7717871">
        <ele>136.974</ele>
        <time>2021-04-01T09:17:32.669Z</time>
      </trkpt>
      <trkpt lat="43.1228072" lon="-2.771791">
        <ele>136.972</ele>
        <time>2021-04-01T09:17:32.724Z</time>
      </trkpt>
      <trkpt lat="43.1228087" lon="-2.7717947">
        <ele>136.955</ele>
        <time>2021-04-01T09:17:32.779Z</time>
      </trkpt>
      <trkpt lat="43.1228104" lon="-2.7717987">
        <ele>137.005</ele>
        <time>2021-04-01T09:17:32.834Z</time>
      </trkpt>
      <trkpt lat="43.1228122" lon="-2.7718033">
        <ele>137.09</ele>
        <time>2021-04-01T09:17:32.889Z</time>
      </trkpt>
      <trkpt lat="43.1228138" lon="-2.7718065">
        <ele>136.968</ele>
        <time>2021-04-01T09:17:32.944Z</time>
      </trkpt>
      <trkpt lat="43.1228157" lon="-2.7718103">
        <ele>136.966</ele>
        <time>2021-04-01T09:17:33.002Z</time>
      </trkpt>
      <trkpt lat="43.1228175" lon="-2.7718142">
        <ele>137.02</ele>
        <time>2021-04-01T09:17:33.060Z</time>
      </trkpt>
      <trkpt lat="43.1228191" lon="-2.7718181">
        <ele>137.014</ele>
        <time>2021-04-01T09:17:33.118Z</time>
      </trkpt>
      <trkpt lat="43.1228206" lon="-2.771822">
        <ele>136.983</ele>
        <time>2021-04-01T09:17:33.176Z</time>
      </trkpt>
      <trkpt lat="43.1228223" lon="-2.7718258">
        <ele>136.955</ele>
        <time>2021-04-01T09:17:33.234Z</time>
      </trkpt>
      <trkpt lat="43.1228245" lon="-2.7718301">
        <ele>137.014</ele>
        <time>2021-04-01T09:17:33.292Z</time>
      </trkpt>
      <trkpt lat="43.1228264" lon="-2.7718349">
        <ele>137.111</ele>
        <time>2021-04-01T09:17:33.350Z</time>
      </trkpt>
      <trkpt lat="43.1228282" lon="-2.7718391">
        <ele>137.162</ele>
        <time>2021-04-01T09:17:33.408Z</time>
      </trkpt>
      <trkpt lat="43.12283" lon="-2.7718433">
        <ele>137.189</ele>
        <time>2021-04-01T09:17:33.466Z</time>
      </trkpt>
      <trkpt lat="43.1228317" lon="-2.7718474">
        <ele>137.184</ele>
        <time>2021-04-01T09:17:33.524Z</time>
      </trkpt>
      <trkpt lat="43.1228334" lon="-2.7718513">
        <ele>137.175</ele>
        <time>2021-04-01T09:17:33.582Z</time>
      </trkpt>
      <trkpt lat="43.122835" lon="-2.7718555">
        <ele>137.216</ele>
        <time>2021-04-01T09:17:33.640Z</time>
      </trkpt>
      <trkpt lat="43.1228367" lon="-2.7718596">
        <ele>137.244</ele>
        <time>2021-04-01T09:17:33.698Z</time>
      </trkpt>
      <trkpt lat="43.1228386" lon="-2.7718637">
        <ele>137.281</ele>
        <time>2021-04-01T09:17:33.756Z</time>
      </trkpt>
      <trkpt lat="43.1228403" lon="-2.7718682">
        <ele>137.322</ele>
        <time>2021-04-01T09:17:33.814Z</time>
      </trkpt>
      <trkpt lat="43.1228416" lon="-2.7718723">
        <ele>137.286</ele>
        <time>2021-04-01T09:17:33.872Z</time>
      </trkpt>
      <trkpt lat="43.1228434" lon="-2.7718767">
        <ele>137.346</ele>
        <time>2021-04-01T09:17:33.930Z</time>
      </trkpt>
      <trkpt lat="43.1228451" lon="-2.771881">
        <ele>137.38</ele>
        <time>2021-04-01T09:17:33.989Z</time>
      </trkpt>
      <trkpt lat="43.1228464" lon="-2.7718848">
        <ele>137.256</ele>
        <time>2021-04-01T09:17:34.041Z</time>
      </trkpt>
      <trkpt lat="43.1228482" lon="-2.7718888">
        <ele>137.224</ele>
        <time>2021-04-01T09:17:34.093Z</time>
      </trkpt>
      <trkpt lat="43.1228499" lon="-2.7718931">
        <ele>137.221</ele>
        <time>2021-04-01T09:17:34.145Z</time>
      </trkpt>
      <trkpt lat="43.1228519" lon="-2.7718975">
        <ele>137.261</ele>
        <time>2021-04-01T09:17:34.197Z</time>
      </trkpt>
      <trkpt lat="43.1228537" lon="-2.7719016">
        <ele>137.268</ele>
        <time>2021-04-01T09:17:34.249Z</time>
      </trkpt>
      <trkpt lat="43.1228556" lon="-2.771906">
        <ele>137.302</ele>
        <time>2021-04-01T09:17:34.301Z</time>
      </trkpt>
      <trkpt lat="43.1228572" lon="-2.7719103">
        <ele>137.285</ele>
        <time>2021-04-01T09:17:34.353Z</time>
      </trkpt>
      <trkpt lat="43.122859" lon="-2.7719144">
        <ele>137.28</ele>
        <time>2021-04-01T09:17:34.405Z</time>
      </trkpt>
      <trkpt lat="43.1228608" lon="-2.7719185">
        <ele>137.278</ele>
        <time>2021-04-01T09:17:34.457Z</time>
      </trkpt>
      <trkpt lat="43.1228624" lon="-2.7719228">
        <ele>137.272</ele>
        <time>2021-04-01T09:17:34.510Z</time>
      </trkpt>
      <trkpt lat="43.122864" lon="-2.7719272">
        <ele>137.251</ele>
        <time>2021-04-01T09:17:34.562Z</time>
      </trkpt>
      <trkpt lat="43.1228659" lon="-2.7719312">
        <ele>137.205</ele>
        <time>2021-04-01T09:17:34.614Z</time>
      </trkpt>
      <trkpt lat="43.1228678" lon="-2.7719351">
        <ele>137.184</ele>
        <time>2021-04-01T09:17:34.666Z</time>
      </trkpt>
      <trkpt lat="43.1228694" lon="-2.7719395">
        <ele>137.218</ele>
        <time>2021-04-01T09:17:34.718Z</time>
      </trkpt>
      <trkpt lat="43.1228712" lon="-2.7719437">
        <ele>137.216</ele>
        <time>2021-04-01T09:17:34.770Z</time>
      </trkpt>
      <trkpt lat="43.1228731" lon="-2.7719481">
        <ele>137.207</ele>
        <time>2021-04-01T09:17:34.822Z</time>
      </trkpt>
      <trkpt lat="43.1228749" lon="-2.7719526">
        <ele>137.233</ele>
        <time>2021-04-01T09:17:34.874Z</time>
      </trkpt>
      <trkpt lat="43.1228767" lon="-2.7719568">
        <ele>137.232</ele>
        <time>2021-04-01T09:17:34.926Z</time>
      </trkpt>
      <trkpt lat="43.1228784" lon="-2.7719611">
        <ele>137.221</ele>
        <time>2021-04-01T09:17:34.979Z</time>
      </trkpt>
      <trkpt lat="43.1228802" lon="-2.7719653">
        <ele>137.184</ele>
        <time>2021-04-01T09:17:35.034Z</time>
      </trkpt>
      <trkpt lat="43.122882" lon="-2.7719695">
        <ele>137.17</ele>
        <time>2021-04-01T09:17:35.089Z</time>
      </trkpt>
      <trkpt lat="43.122884" lon="-2.7719738">
        <ele>137.198</ele>
        <time>2021-04-01T09:17:35.144Z</time>
      </trkpt>
      <trkpt lat="43.1228858" lon="-2.7719782">
        <ele>137.165</ele>
        <time>2021-04-01T09:17:35.199Z</time>
      </trkpt>
      <trkpt lat="43.1228875" lon="-2.7719823">
        <ele>137.137</ele>
        <time>2021-04-01T09:17:35.254Z</time>
      </trkpt>
      <trkpt lat="43.1228892" lon="-2.7719868">
        <ele>137.165</ele>
        <time>2021-04-01T09:17:35.309Z</time>
      </trkpt>
      <trkpt lat="43.1228909" lon="-2.7719913">
        <ele>137.179</ele>
        <time>2021-04-01T09:17:35.364Z</time>
      </trkpt>
      <trkpt lat="43.1228926" lon="-2.7719956">
        <ele>137.138</ele>
        <time>2021-04-01T09:17:35.419Z</time>
      </trkpt>
      <trkpt lat="43.1228944" lon="-2.7719998">
        <ele>137.115</ele>
        <time>2021-04-01T09:17:35.474Z</time>
      </trkpt>
      <trkpt lat="43.1228961" lon="-2.7720041">
        <ele>137.092</ele>
        <time>2021-04-01T09:17:35.529Z</time>
      </trkpt>
      <trkpt lat="43.1228979" lon="-2.7720087">
        <ele>137.096</ele>
        <time>2021-04-01T09:17:35.584Z</time>
      </trkpt>
      <trkpt lat="43.1228998" lon="-2.7720131">
        <ele>137.073</ele>
        <time>2021-04-01T09:17:35.639Z</time>
      </trkpt>
      <trkpt lat="43.1229018" lon="-2.7720174">
        <ele>137.054</ele>
        <time>2021-04-01T09:17:35.694Z</time>
      </trkpt>
      <trkpt lat="43.1229036" lon="-2.7720217">
        <ele>137.046</ele>
        <time>2021-04-01T09:17:35.749Z</time>
      </trkpt>
      <trkpt lat="43.1229055" lon="-2.7720262">
        <ele>137.047</ele>
        <time>2021-04-01T09:17:35.804Z</time>
      </trkpt>
      <trkpt lat="43.1229075" lon="-2.7720307">
        <ele>137.025</ele>
        <time>2021-04-01T09:17:35.859Z</time>
      </trkpt>
      <trkpt lat="43.1229095" lon="-2.772035">
        <ele>137.018</ele>
        <time>2021-04-01T09:17:35.914Z</time>
      </trkpt>
      <trkpt lat="43.1229114" lon="-2.7720394">
        <ele>137.039</ele>
        <time>2021-04-01T09:17:35.969Z</time>
      </trkpt>
      <trkpt lat="43.1229133" lon="-2.7720439">
        <ele>137.027</ele>
        <time>2021-04-01T09:17:36.024Z</time>
      </trkpt>
      <trkpt lat="43.1229153" lon="-2.7720483">
        <ele>137.016</ele>
        <time>2021-04-01T09:17:36.079Z</time>
      </trkpt>
      <trkpt lat="43.1229175" lon="-2.7720528">
        <ele>137.045</ele>
        <time>2021-04-01T09:17:36.134Z</time>
      </trkpt>
      <trkpt lat="43.1229194" lon="-2.7720573">
        <ele>137.038</ele>
        <time>2021-04-01T09:17:36.189Z</time>
      </trkpt>
      <trkpt lat="43.1229213" lon="-2.7720618">
        <ele>137.026</ele>
        <time>2021-04-01T09:17:36.244Z</time>
      </trkpt>
      <trkpt lat="43.1229233" lon="-2.7720662">
        <ele>137.036</ele>
        <time>2021-04-01T09:17:36.299Z</time>
      </trkpt>
      <trkpt lat="43.1229254" lon="-2.7720707">
        <ele>137.048</ele>
        <time>2021-04-01T09:17:36.354Z</time>
      </trkpt>
      <trkpt lat="43.1229276" lon="-2.7720751">
        <ele>137.048</ele>
        <time>2021-04-01T09:17:36.409Z</time>
      </trkpt>
      <trkpt lat="43.1229296" lon="-2.7720795">
        <ele>137.024</ele>
        <time>2021-04-01T09:17:36.464Z</time>
      </trkpt>
      <trkpt lat="43.1229317" lon="-2.7720842">
        <ele>137.009</ele>
        <time>2021-04-01T09:17:36.519Z</time>
      </trkpt>
      <trkpt lat="43.1229337" lon="-2.7720888">
        <ele>137.005</ele>
        <time>2021-04-01T09:17:36.574Z</time>
      </trkpt>
      <trkpt lat="43.1229355" lon="-2.7720933">
        <ele>137.016</ele>
        <time>2021-04-01T09:17:36.629Z</time>
      </trkpt>
      <trkpt lat="43.1229374" lon="-2.7720978">
        <ele>137.015</ele>
        <time>2021-04-01T09:17:36.684Z</time>
      </trkpt>
      <trkpt lat="43.1229392" lon="-2.7721022">
        <ele>136.994</ele>
        <time>2021-04-01T09:17:36.739Z</time>
      </trkpt>
      <trkpt lat="43.1229412" lon="-2.7721068">
        <ele>136.988</ele>
        <time>2021-04-01T09:17:36.794Z</time>
      </trkpt>
      <trkpt lat="43.1229433" lon="-2.7721114">
        <ele>136.967</ele>
        <time>2021-04-01T09:17:36.849Z</time>
      </trkpt>
      <trkpt lat="43.1229452" lon="-2.772116">
        <ele>136.952</ele>
        <time>2021-04-01T09:17:36.904Z</time>
      </trkpt>
      <trkpt lat="43.1229472" lon="-2.7721203">
        <ele>136.934</ele>
        <time>2021-04-01T09:17:36.959Z</time>
      </trkpt>
      <trkpt lat="43.1229492" lon="-2.772125">
        <ele>136.941</ele>
        <time>2021-04-01T09:17:37.014Z</time>
      </trkpt>
      <trkpt lat="43.1229513" lon="-2.7721296">
        <ele>136.93</ele>
        <time>2021-04-01T09:17:37.069Z</time>
      </trkpt>
      <trkpt lat="43.1229531" lon="-2.7721346">
        <ele>136.937</ele>
        <time>2021-04-01T09:17:37.124Z</time>
      </trkpt>
      <trkpt lat="43.1229551" lon="-2.7721392">
        <ele>136.936</ele>
        <time>2021-04-01T09:17:37.179Z</time>
      </trkpt>
      <trkpt lat="43.122957" lon="-2.7721439">
        <ele>136.919</ele>
        <time>2021-04-01T09:17:37.234Z</time>
      </trkpt>
      <trkpt lat="43.1229589" lon="-2.7721484">
        <ele>136.905</ele>
        <time>2021-04-01T09:17:37.289Z</time>
      </trkpt>
      <trkpt lat="43.1229611" lon="-2.772153">
        <ele>136.886</ele>
        <time>2021-04-01T09:17:37.344Z</time>
      </trkpt>
      <trkpt lat="43.1229631" lon="-2.7721576">
        <ele>136.874</ele>
        <time>2021-04-01T09:17:37.399Z</time>
      </trkpt>
      <trkpt lat="43.1229649" lon="-2.772162">
        <ele>136.832</ele>
        <time>2021-04-01T09:17:37.454Z</time>
      </trkpt>
      <trkpt lat="43.122967" lon="-2.7721667">
        <ele>136.819</ele>
        <time>2021-04-01T09:17:37.509Z</time>
      </trkpt>
      <trkpt lat="43.1229691" lon="-2.7721715">
        <ele>136.802</ele>
        <time>2021-04-01T09:17:37.564Z</time>
      </trkpt>
      <trkpt lat="43.1229709" lon="-2.7721762">
        <ele>136.803</ele>
        <time>2021-04-01T09:17:37.619Z</time>
      </trkpt>
      <trkpt lat="43.1229729" lon="-2.7721809">
        <ele>136.797</ele>
        <time>2021-04-01T09:17:37.674Z</time>
      </trkpt>
      <trkpt lat="43.1229749" lon="-2.7721856">
        <ele>136.799</ele>
        <time>2021-04-01T09:17:37.729Z</time>
      </trkpt>
      <trkpt lat="43.1229771" lon="-2.7721903">
        <ele>136.802</ele>
        <time>2021-04-01T09:17:37.784Z</time>
      </trkpt>
      <trkpt lat="43.1229793" lon="-2.7721951">
        <ele>136.794</ele>
        <time>2021-04-01T09:17:37.839Z</time>
      </trkpt>
      <trkpt lat="43.1229813" lon="-2.7721998">
        <ele>136.782</ele>
        <time>2021-04-01T09:17:37.894Z</time>
      </trkpt>
      <trkpt lat="43.1229833" lon="-2.7722045">
        <ele>136.786</ele>
        <time>2021-04-01T09:17:37.949Z</time>
      </trkpt>
      <trkpt lat="43.1229852" lon="-2.7722093">
        <ele>136.776</ele>
        <time>2021-04-01T09:17:38.004Z</time>
      </trkpt>
      <trkpt lat="43.1229871" lon="-2.772214">
        <ele>136.744</ele>
        <time>2021-04-01T09:17:38.059Z</time>
      </trkpt>
      <trkpt lat="43.1229891" lon="-2.7722188">
        <ele>136.729</ele>
        <time>2021-04-01T09:17:38.114Z</time>
      </trkpt>
      <trkpt lat="43.122991" lon="-2.7722236">
        <ele>136.7</ele>
        <time>2021-04-01T09:17:38.169Z</time>
      </trkpt>
      <trkpt lat="43.1229932" lon="-2.7722284">
        <ele>136.703</ele>
        <time>2021-04-01T09:17:38.224Z</time>
      </trkpt>
      <trkpt lat="43.1229951" lon="-2.7722331">
        <ele>136.671</ele>
        <time>2021-04-01T09:17:38.279Z</time>
      </trkpt>
      <trkpt lat="43.1229972" lon="-2.7722379">
        <ele>136.674</ele>
        <time>2021-04-01T09:17:38.334Z</time>
      </trkpt>
      <trkpt lat="43.1229992" lon="-2.7722426">
        <ele>136.655</ele>
        <time>2021-04-01T09:17:38.389Z</time>
      </trkpt>
      <trkpt lat="43.1230014" lon="-2.7722471">
        <ele>136.655</ele>
        <time>2021-04-01T09:17:38.444Z</time>
      </trkpt>
      <trkpt lat="43.1230037" lon="-2.7722521">
        <ele>136.673</ele>
        <time>2021-04-01T09:17:38.499Z</time>
      </trkpt>
      <trkpt lat="43.1230057" lon="-2.7722571">
        <ele>136.684</ele>
        <time>2021-04-01T09:17:38.554Z</time>
      </trkpt>
      <trkpt lat="43.1230077" lon="-2.7722618">
        <ele>136.65</ele>
        <time>2021-04-01T09:17:38.609Z</time>
      </trkpt>
      <trkpt lat="43.1230097" lon="-2.7722666">
        <ele>136.639</ele>
        <time>2021-04-01T09:17:38.664Z</time>
      </trkpt>
      <trkpt lat="43.1230117" lon="-2.7722713">
        <ele>136.609</ele>
        <time>2021-04-01T09:17:38.719Z</time>
      </trkpt>
      <trkpt lat="43.1230138" lon="-2.7722761">
        <ele>136.598</ele>
        <time>2021-04-01T09:17:38.774Z</time>
      </trkpt>
      <trkpt lat="43.1230161" lon="-2.7722809">
        <ele>136.632</ele>
        <time>2021-04-01T09:17:38.829Z</time>
      </trkpt>
      <trkpt lat="43.1230181" lon="-2.7722858">
        <ele>136.614</ele>
        <time>2021-04-01T09:17:38.884Z</time>
      </trkpt>
      <trkpt lat="43.1230201" lon="-2.7722905">
        <ele>136.542</ele>
        <time>2021-04-01T09:17:38.939Z</time>
      </trkpt>
      <trkpt lat="43.123022" lon="-2.7722952">
        <ele>136.513</ele>
        <time>2021-04-01T09:17:38.994Z</time>
      </trkpt>
      <trkpt lat="43.1230243" lon="-2.7722999">
        <ele>136.534</ele>
        <time>2021-04-01T09:17:39.052Z</time>
      </trkpt>
      <trkpt lat="43.1230265" lon="-2.7723047">
        <ele>136.527</ele>
        <time>2021-04-01T09:17:39.110Z</time>
      </trkpt>
      <trkpt lat="43.1230285" lon="-2.7723095">
        <ele>136.517</ele>
        <time>2021-04-01T09:17:39.168Z</time>
      </trkpt>
      <trkpt lat="43.1230303" lon="-2.7723142">
        <ele>136.488</ele>
        <time>2021-04-01T09:17:39.226Z</time>
      </trkpt>
      <trkpt lat="43.1230325" lon="-2.7723188">
        <ele>136.436</ele>
        <time>2021-04-01T09:17:39.285Z</time>
      </trkpt>
      <trkpt lat="43.1230347" lon="-2.7723236">
        <ele>136.429</ele>
        <time>2021-04-01T09:17:39.343Z</time>
      </trkpt>
      <trkpt lat="43.1230367" lon="-2.7723286">
        <ele>136.448</ele>
        <time>2021-04-01T09:17:39.401Z</time>
      </trkpt>
      <trkpt lat="43.123039" lon="-2.7723338">
        <ele>136.462</ele>
        <time>2021-04-01T09:17:39.459Z</time>
      </trkpt>
      <trkpt lat="43.123041" lon="-2.7723388">
        <ele>136.436</ele>
        <time>2021-04-01T09:17:39.518Z</time>
      </trkpt>
      <trkpt lat="43.1230425" lon="-2.7723433">
        <ele>136.349</ele>
        <time>2021-04-01T09:17:39.576Z</time>
      </trkpt>
      <trkpt lat="43.1230444" lon="-2.772348">
        <ele>136.363</ele>
        <time>2021-04-01T09:17:39.634Z</time>
      </trkpt>
      <trkpt lat="43.1230458" lon="-2.7723529">
        <ele>136.3</ele>
        <time>2021-04-01T09:17:39.692Z</time>
      </trkpt>
      <trkpt lat="43.1230475" lon="-2.7723582">
        <ele>136.33</ele>
        <time>2021-04-01T09:17:39.751Z</time>
      </trkpt>
      <trkpt lat="43.1230494" lon="-2.7723634">
        <ele>136.369</ele>
        <time>2021-04-01T09:17:39.809Z</time>
      </trkpt>
      <trkpt lat="43.1230512" lon="-2.772368">
        <ele>136.361</ele>
        <time>2021-04-01T09:17:39.867Z</time>
      </trkpt>
      <trkpt lat="43.1230527" lon="-2.7723728">
        <ele>136.33</ele>
        <time>2021-04-01T09:17:39.925Z</time>
      </trkpt>
      <trkpt lat="43.1230546" lon="-2.7723778">
        <ele>136.351</ele>
        <time>2021-04-01T09:17:39.984Z</time>
      </trkpt>
      <trkpt lat="43.1230565" lon="-2.7723831">
        <ele>136.366</ele>
        <time>2021-04-01T09:17:40.036Z</time>
      </trkpt>
      <trkpt lat="43.1230581" lon="-2.7723883">
        <ele>136.376</ele>
        <time>2021-04-01T09:17:40.088Z</time>
      </trkpt>
      <trkpt lat="43.1230595" lon="-2.7723931">
        <ele>136.341</ele>
        <time>2021-04-01T09:17:40.140Z</time>
      </trkpt>
      <trkpt lat="43.1230616" lon="-2.7723979">
        <ele>136.352</ele>
        <time>2021-04-01T09:17:40.192Z</time>
      </trkpt>
      <trkpt lat="43.1230634" lon="-2.772403">
        <ele>136.311</ele>
        <time>2021-04-01T09:17:40.244Z</time>
      </trkpt>
      <trkpt lat="43.1230653" lon="-2.7724081">
        <ele>136.297</ele>
        <time>2021-04-01T09:17:40.296Z</time>
      </trkpt>
      <trkpt lat="43.123067" lon="-2.7724132">
        <ele>136.307</ele>
        <time>2021-04-01T09:17:40.348Z</time>
      </trkpt>
      <trkpt lat="43.1230692" lon="-2.7724182">
        <ele>136.37</ele>
        <time>2021-04-01T09:17:40.400Z</time>
      </trkpt>
      <trkpt lat="43.1230709" lon="-2.7724234">
        <ele>136.388</ele>
        <time>2021-04-01T09:17:40.452Z</time>
      </trkpt>
      <trkpt lat="43.1230724" lon="-2.7724284">
        <ele>136.332</ele>
        <time>2021-04-01T09:17:40.505Z</time>
      </trkpt>
      <trkpt lat="43.1230744" lon="-2.7724333">
        <ele>136.314</ele>
        <time>2021-04-01T09:17:40.557Z</time>
      </trkpt>
      <trkpt lat="43.1230763" lon="-2.7724381">
        <ele>136.297</ele>
        <time>2021-04-01T09:17:40.609Z</time>
      </trkpt>
      <trkpt lat="43.1230781" lon="-2.7724432">
        <ele>136.304</ele>
        <time>2021-04-01T09:17:40.661Z</time>
      </trkpt>
      <trkpt lat="43.1230797" lon="-2.7724484">
        <ele>136.253</ele>
        <time>2021-04-01T09:17:40.713Z</time>
      </trkpt>
      <trkpt lat="43.1230814" lon="-2.7724535">
        <ele>136.24</ele>
        <time>2021-04-01T09:17:40.765Z</time>
      </trkpt>
      <trkpt lat="43.123083" lon="-2.7724585">
        <ele>136.221</ele>
        <time>2021-04-01T09:17:40.817Z</time>
      </trkpt>
      <trkpt lat="43.1230847" lon="-2.7724635">
        <ele>136.197</ele>
        <time>2021-04-01T09:17:40.869Z</time>
      </trkpt>
      <trkpt lat="43.1230862" lon="-2.7724682">
        <ele>136.157</ele>
        <time>2021-04-01T09:17:40.921Z</time>
      </trkpt>
      <trkpt lat="43.1230879" lon="-2.7724731">
        <ele>136.115</ele>
        <time>2021-04-01T09:17:40.974Z</time>
      </trkpt>
      <trkpt lat="43.12309" lon="-2.7724782">
        <ele>136.104</ele>
        <time>2021-04-01T09:17:41.029Z</time>
      </trkpt>
      <trkpt lat="43.123092" lon="-2.7724832">
        <ele>136.103</ele>
        <time>2021-04-01T09:17:41.084Z</time>
      </trkpt>
      <trkpt lat="43.123094" lon="-2.7724882">
        <ele>136.116</ele>
        <time>2021-04-01T09:17:41.139Z</time>
      </trkpt>
      <trkpt lat="43.1230957" lon="-2.7724934">
        <ele>136.074</ele>
        <time>2021-04-01T09:17:41.194Z</time>
      </trkpt>
      <trkpt lat="43.1230975" lon="-2.7724983">
        <ele>136.049</ele>
        <time>2021-04-01T09:17:41.249Z</time>
      </trkpt>
      <trkpt lat="43.1230995" lon="-2.7725034">
        <ele>136.062</ele>
        <time>2021-04-01T09:17:41.304Z</time>
      </trkpt>
      <trkpt lat="43.1231018" lon="-2.7725084">
        <ele>136.099</ele>
        <time>2021-04-01T09:17:41.359Z</time>
      </trkpt>
      <trkpt lat="43.1231038" lon="-2.7725132">
        <ele>136.089</ele>
        <time>2021-04-01T09:17:41.414Z</time>
      </trkpt>
      <trkpt lat="43.1231055" lon="-2.7725179">
        <ele>136.064</ele>
        <time>2021-04-01T09:17:41.469Z</time>
      </trkpt>
      <trkpt lat="43.123107" lon="-2.7725227">
        <ele>136.033</ele>
        <time>2021-04-01T09:17:41.524Z</time>
      </trkpt>
      <trkpt lat="43.1231088" lon="-2.7725275">
        <ele>136.016</ele>
        <time>2021-04-01T09:17:41.579Z</time>
      </trkpt>
      <trkpt lat="43.1231107" lon="-2.772532">
        <ele>135.972</ele>
        <time>2021-04-01T09:17:41.634Z</time>
      </trkpt>
      <trkpt lat="43.1231125" lon="-2.7725362">
        <ele>135.892</ele>
        <time>2021-04-01T09:17:41.689Z</time>
      </trkpt>
      <trkpt lat="43.1231142" lon="-2.7725411">
        <ele>135.859</ele>
        <time>2021-04-01T09:17:41.744Z</time>
      </trkpt>
      <trkpt lat="43.1231161" lon="-2.7725458">
        <ele>135.848</ele>
        <time>2021-04-01T09:17:41.799Z</time>
      </trkpt>
      <trkpt lat="43.1231179" lon="-2.7725502">
        <ele>135.817</ele>
        <time>2021-04-01T09:17:41.854Z</time>
      </trkpt>
      <trkpt lat="43.1231198" lon="-2.7725546">
        <ele>135.746</ele>
        <time>2021-04-01T09:17:41.909Z</time>
      </trkpt>
      <trkpt lat="43.123122" lon="-2.7725593">
        <ele>135.698</ele>
        <time>2021-04-01T09:17:41.964Z</time>
      </trkpt>
      <trkpt lat="43.123124" lon="-2.7725639">
        <ele>135.658</ele>
        <time>2021-04-01T09:17:42.019Z</time>
      </trkpt>
      <trkpt lat="43.123126" lon="-2.7725681">
        <ele>135.564</ele>
        <time>2021-04-01T09:17:42.074Z</time>
      </trkpt>
      <trkpt lat="43.1231275" lon="-2.7725724">
        <ele>135.496</ele>
        <time>2021-04-01T09:17:42.129Z</time>
      </trkpt>
      <trkpt lat="43.1231293" lon="-2.7725768">
        <ele>135.443</ele>
        <time>2021-04-01T09:17:42.184Z</time>
      </trkpt>
      <trkpt lat="43.123131" lon="-2.7725813">
        <ele>135.371</ele>
        <time>2021-04-01T09:17:42.239Z</time>
      </trkpt>
      <trkpt lat="43.123133" lon="-2.772586">
        <ele>135.355</ele>
        <time>2021-04-01T09:17:42.294Z</time>
      </trkpt>
      <trkpt lat="43.1231352" lon="-2.7725907">
        <ele>135.322</ele>
        <time>2021-04-01T09:17:42.349Z</time>
      </trkpt>
      <trkpt lat="43.1231373" lon="-2.7725955">
        <ele>135.294</ele>
        <time>2021-04-01T09:17:42.404Z</time>
      </trkpt>
      <trkpt lat="43.1231396" lon="-2.7726002">
        <ele>135.279</ele>
        <time>2021-04-01T09:17:42.459Z</time>
      </trkpt>
      <trkpt lat="43.1231415" lon="-2.7726047">
        <ele>135.215</ele>
        <time>2021-04-01T09:17:42.514Z</time>
      </trkpt>
      <trkpt lat="43.1231435" lon="-2.7726093">
        <ele>135.17</ele>
        <time>2021-04-01T09:17:42.569Z</time>
      </trkpt>
      <trkpt lat="43.1231455" lon="-2.7726139">
        <ele>135.111</ele>
        <time>2021-04-01T09:17:42.624Z</time>
      </trkpt>
      <trkpt lat="43.1231476" lon="-2.7726187">
        <ele>135.065</ele>
        <time>2021-04-01T09:17:42.679Z</time>
      </trkpt>
      <trkpt lat="43.1231492" lon="-2.7726233">
        <ele>135.008</ele>
        <time>2021-04-01T09:17:42.734Z</time>
      </trkpt>
      <trkpt lat="43.1231512" lon="-2.7726281">
        <ele>135.012</ele>
        <time>2021-04-01T09:17:42.789Z</time>
      </trkpt>
      <trkpt lat="43.1231532" lon="-2.772633">
        <ele>134.99</ele>
        <time>2021-04-01T09:17:42.844Z</time>
      </trkpt>
      <trkpt lat="43.1231553" lon="-2.7726377">
        <ele>134.96</ele>
        <time>2021-04-01T09:17:42.899Z</time>
      </trkpt>
      <trkpt lat="43.1231573" lon="-2.7726427">
        <ele>134.921</ele>
        <time>2021-04-01T09:17:42.954Z</time>
      </trkpt>
      <trkpt lat="43.123159" lon="-2.7726477">
        <ele>134.877</ele>
        <time>2021-04-01T09:17:43.009Z</time>
      </trkpt>
      <trkpt lat="43.123161" lon="-2.7726526">
        <ele>134.867</ele>
        <time>2021-04-01T09:17:43.064Z</time>
      </trkpt>
      <trkpt lat="43.1231627" lon="-2.7726575">
        <ele>134.85</ele>
        <time>2021-04-01T09:17:43.119Z</time>
      </trkpt>
      <trkpt lat="43.1231647" lon="-2.7726623">
        <ele>134.839</ele>
        <time>2021-04-01T09:17:43.174Z</time>
      </trkpt>
      <trkpt lat="43.1231667" lon="-2.7726673">
        <ele>134.807</ele>
        <time>2021-04-01T09:17:43.229Z</time>
      </trkpt>
      <trkpt lat="43.1231686" lon="-2.7726725">
        <ele>134.772</ele>
        <time>2021-04-01T09:17:43.284Z</time>
      </trkpt>
      <trkpt lat="43.1231703" lon="-2.7726774">
        <ele>134.756</ele>
        <time>2021-04-01T09:17:43.339Z</time>
      </trkpt>
      <trkpt lat="43.1231721" lon="-2.7726824">
        <ele>134.753</ele>
        <time>2021-04-01T09:17:43.394Z</time>
      </trkpt>
      <trkpt lat="43.1231742" lon="-2.7726868">
        <ele>134.732</ele>
        <time>2021-04-01T09:17:43.449Z</time>
      </trkpt>
      <trkpt lat="43.1231769" lon="-2.7726919">
        <ele>134.794</ele>
        <time>2021-04-01T09:17:43.504Z</time>
      </trkpt>
      <trkpt lat="43.1231792" lon="-2.772697">
        <ele>134.795</ele>
        <time>2021-04-01T09:17:43.559Z</time>
      </trkpt>
      <trkpt lat="43.1231814" lon="-2.7727022">
        <ele>134.826</ele>
        <time>2021-04-01T09:17:43.614Z</time>
      </trkpt>
      <trkpt lat="43.1231834" lon="-2.7727072">
        <ele>134.823</ele>
        <time>2021-04-01T09:17:43.669Z</time>
      </trkpt>
      <trkpt lat="43.1231852" lon="-2.7727121">
        <ele>134.817</ele>
        <time>2021-04-01T09:17:43.724Z</time>
      </trkpt>
      <trkpt lat="43.1231873" lon="-2.7727171">
        <ele>134.808</ele>
        <time>2021-04-01T09:17:43.779Z</time>
      </trkpt>
      <trkpt lat="43.1231894" lon="-2.7727224">
        <ele>134.846</ele>
        <time>2021-04-01T09:17:43.834Z</time>
      </trkpt>
      <trkpt lat="43.1231913" lon="-2.7727276">
        <ele>134.829</ele>
        <time>2021-04-01T09:17:43.889Z</time>
      </trkpt>
      <trkpt lat="43.1231932" lon="-2.7727327">
        <ele>134.793</ele>
        <time>2021-04-01T09:17:43.944Z</time>
      </trkpt>
      <trkpt lat="43.1231953" lon="-2.7727375">
        <ele>134.735</ele>
        <time>2021-04-01T09:17:43.999Z</time>
      </trkpt>
      <trkpt lat="43.1231975" lon="-2.7727428">
        <ele>134.803</ele>
        <time>2021-04-01T09:17:44.054Z</time>
      </trkpt>
      <trkpt lat="43.1231995" lon="-2.772748">
        <ele>134.839</ele>
        <time>2021-04-01T09:17:44.109Z</time>
      </trkpt>
      <trkpt lat="43.1232016" lon="-2.7727529">
        <ele>134.798</ele>
        <time>2021-04-01T09:17:44.164Z</time>
      </trkpt>
      <trkpt lat="43.1232035" lon="-2.7727579">
        <ele>134.745</ele>
        <time>2021-04-01T09:17:44.219Z</time>
      </trkpt>
      <trkpt lat="43.1232055" lon="-2.7727629">
        <ele>134.741</ele>
        <time>2021-04-01T09:17:44.274Z</time>
      </trkpt>
      <trkpt lat="43.1232075" lon="-2.7727677">
        <ele>134.675</ele>
        <time>2021-04-01T09:17:44.329Z</time>
      </trkpt>
      <trkpt lat="43.1232096" lon="-2.7727724">
        <ele>134.656</ele>
        <time>2021-04-01T09:17:44.384Z</time>
      </trkpt>
      <trkpt lat="43.1232118" lon="-2.7727768">
        <ele>134.575</ele>
        <time>2021-04-01T09:17:44.439Z</time>
      </trkpt>
      <trkpt lat="43.1232139" lon="-2.7727819">
        <ele>134.56</ele>
        <time>2021-04-01T09:17:44.494Z</time>
      </trkpt>
      <trkpt lat="43.123216" lon="-2.7727866">
        <ele>134.507</ele>
        <time>2021-04-01T09:17:44.549Z</time>
      </trkpt>
      <trkpt lat="43.1232182" lon="-2.7727916">
        <ele>134.508</ele>
        <time>2021-04-01T09:17:44.604Z</time>
      </trkpt>
      <trkpt lat="43.1232203" lon="-2.7727964">
        <ele>134.453</ele>
        <time>2021-04-01T09:17:44.659Z</time>
      </trkpt>
      <trkpt lat="43.1232223" lon="-2.7728015">
        <ele>134.436</ele>
        <time>2021-04-01T09:17:44.714Z</time>
      </trkpt>
      <trkpt lat="43.1232245" lon="-2.7728067">
        <ele>134.446</ele>
        <time>2021-04-01T09:17:44.769Z</time>
      </trkpt>
      <trkpt lat="43.1232265" lon="-2.7728119">
        <ele>134.462</ele>
        <time>2021-04-01T09:17:44.824Z</time>
      </trkpt>
      <trkpt lat="43.1232285" lon="-2.772817">
        <ele>134.434</ele>
        <time>2021-04-01T09:17:44.879Z</time>
      </trkpt>
      <trkpt lat="43.1232306" lon="-2.7728217">
        <ele>134.366</ele>
        <time>2021-04-01T09:17:44.934Z</time>
      </trkpt>
      <trkpt lat="43.1232326" lon="-2.7728265">
        <ele>134.298</ele>
        <time>2021-04-01T09:17:44.989Z</time>
      </trkpt>
      <trkpt lat="43.1232348" lon="-2.7728312">
        <ele>134.251</ele>
        <time>2021-04-01T09:17:45.044Z</time>
      </trkpt>
      <trkpt lat="43.1232369" lon="-2.7728358">
        <ele>134.193</ele>
        <time>2021-04-01T09:17:45.099Z</time>
      </trkpt>
      <trkpt lat="43.1232388" lon="-2.7728406">
        <ele>134.13</ele>
        <time>2021-04-01T09:17:45.154Z</time>
      </trkpt>
      <trkpt lat="43.1232408" lon="-2.7728461">
        <ele>134.139</ele>
        <time>2021-04-01T09:17:45.209Z</time>
      </trkpt>
      <trkpt lat="43.123243" lon="-2.7728513">
        <ele>134.147</ele>
        <time>2021-04-01T09:17:45.264Z</time>
      </trkpt>
      <trkpt lat="43.1232451" lon="-2.7728565">
        <ele>134.13</ele>
        <time>2021-04-01T09:17:45.319Z</time>
      </trkpt>
      <trkpt lat="43.1232471" lon="-2.7728619">
        <ele>134.139</ele>
        <time>2021-04-01T09:17:45.374Z</time>
      </trkpt>
      <trkpt lat="43.1232493" lon="-2.7728671">
        <ele>134.172</ele>
        <time>2021-04-01T09:17:45.429Z</time>
      </trkpt>
      <trkpt lat="43.1232514" lon="-2.7728724">
        <ele>134.139</ele>
        <time>2021-04-01T09:17:45.484Z</time>
      </trkpt>
      <trkpt lat="43.1232536" lon="-2.7728778">
        <ele>134.15</ele>
        <time>2021-04-01T09:17:45.539Z</time>
      </trkpt>
      <trkpt lat="43.1232556" lon="-2.7728831">
        <ele>134.143</ele>
        <time>2021-04-01T09:17:45.594Z</time>
      </trkpt>
      <trkpt lat="43.1232575" lon="-2.7728882">
        <ele>134.125</ele>
        <time>2021-04-01T09:17:45.649Z</time>
      </trkpt>
      <trkpt lat="43.1232597" lon="-2.7728932">
        <ele>134.098</ele>
        <time>2021-04-01T09:17:45.704Z</time>
      </trkpt>
      <trkpt lat="43.123262" lon="-2.7728985">
        <ele>134.107</ele>
        <time>2021-04-01T09:17:45.759Z</time>
      </trkpt>
      <trkpt lat="43.123264" lon="-2.7729039">
        <ele>134.105</ele>
        <time>2021-04-01T09:17:45.814Z</time>
      </trkpt>
      <trkpt lat="43.1232659" lon="-2.7729091">
        <ele>134.109</ele>
        <time>2021-04-01T09:17:45.869Z</time>
      </trkpt>
      <trkpt lat="43.123268" lon="-2.7729141">
        <ele>134.056</ele>
        <time>2021-04-01T09:17:45.924Z</time>
      </trkpt>
      <trkpt lat="43.1232699" lon="-2.7729193">
        <ele>134.056</ele>
        <time>2021-04-01T09:17:45.979Z</time>
      </trkpt>
      <trkpt lat="43.1232719" lon="-2.7729246">
        <ele>134.063</ele>
        <time>2021-04-01T09:17:46.037Z</time>
      </trkpt>
      <trkpt lat="43.1232738" lon="-2.7729298">
        <ele>134.031</ele>
        <time>2021-04-01T09:17:46.095Z</time>
      </trkpt>
      <trkpt lat="43.1232756" lon="-2.7729352">
        <ele>133.989</ele>
        <time>2021-04-01T09:17:46.153Z</time>
      </trkpt>
      <trkpt lat="43.1232777" lon="-2.7729404">
        <ele>133.994</ele>
        <time>2021-04-01T09:17:46.211Z</time>
      </trkpt>
      <trkpt lat="43.1232797" lon="-2.7729455">
        <ele>133.955</ele>
        <time>2021-04-01T09:17:46.269Z</time>
      </trkpt>
      <trkpt lat="43.1232817" lon="-2.7729506">
        <ele>133.966</ele>
        <time>2021-04-01T09:17:46.327Z</time>
      </trkpt>
      <trkpt lat="43.1232838" lon="-2.7729554">
        <ele>133.907</ele>
        <time>2021-04-01T09:17:46.385Z</time>
      </trkpt>
      <trkpt lat="43.1232858" lon="-2.7729604">
        <ele>133.84</ele>
        <time>2021-04-01T09:17:46.443Z</time>
      </trkpt>
      <trkpt lat="43.123288" lon="-2.7729654">
        <ele>133.835</ele>
        <time>2021-04-01T09:17:46.501Z</time>
      </trkpt>
      <trkpt lat="43.1232902" lon="-2.7729706">
        <ele>133.852</ele>
        <time>2021-04-01T09:17:46.559Z</time>
      </trkpt>
      <trkpt lat="43.1232924" lon="-2.7729757">
        <ele>133.839</ele>
        <time>2021-04-01T09:17:46.617Z</time>
      </trkpt>
      <trkpt lat="43.1232945" lon="-2.7729808">
        <ele>133.825</ele>
        <time>2021-04-01T09:17:46.675Z</time>
      </trkpt>
      <trkpt lat="43.1232968" lon="-2.7729854">
        <ele>133.792</ele>
        <time>2021-04-01T09:17:46.733Z</time>
      </trkpt>
      <trkpt lat="43.1232989" lon="-2.7729905">
        <ele>133.797</ele>
        <time>2021-04-01T09:17:46.791Z</time>
      </trkpt>
      <trkpt lat="43.1233009" lon="-2.7729958">
        <ele>133.772</ele>
        <time>2021-04-01T09:17:46.849Z</time>
      </trkpt>
      <trkpt lat="43.123303" lon="-2.7730014">
        <ele>133.739</ele>
        <time>2021-04-01T09:17:46.907Z</time>
      </trkpt>
      <trkpt lat="43.1233048" lon="-2.7730068">
        <ele>133.761</ele>
        <time>2021-04-01T09:17:46.965Z</time>
      </trkpt>
      <trkpt lat="43.123307" lon="-2.7730123">
        <ele>133.785</ele>
        <time>2021-04-01T09:17:47.024Z</time>
      </trkpt>
      <trkpt lat="43.1233092" lon="-2.7730172">
        <ele>133.755</ele>
        <time>2021-04-01T09:17:47.079Z</time>
      </trkpt>
      <trkpt lat="43.1233114" lon="-2.7730222">
        <ele>133.721</ele>
        <time>2021-04-01T09:17:47.134Z</time>
      </trkpt>
      <trkpt lat="43.1233138" lon="-2.7730274">
        <ele>133.682</ele>
        <time>2021-04-01T09:17:47.189Z</time>
      </trkpt>
      <trkpt lat="43.123316" lon="-2.7730324">
        <ele>133.676</ele>
        <time>2021-04-01T09:17:47.244Z</time>
      </trkpt>
      <trkpt lat="43.1233185" lon="-2.7730373">
        <ele>133.647</ele>
        <time>2021-04-01T09:17:47.299Z</time>
      </trkpt>
      <trkpt lat="43.1233207" lon="-2.7730427">
        <ele>133.606</ele>
        <time>2021-04-01T09:17:47.354Z</time>
      </trkpt>
      <trkpt lat="43.1233229" lon="-2.773048">
        <ele>133.601</ele>
        <time>2021-04-01T09:17:47.409Z</time>
      </trkpt>
      <trkpt lat="43.1233252" lon="-2.7730532">
        <ele>133.572</ele>
        <time>2021-04-01T09:17:47.464Z</time>
      </trkpt>
      <trkpt lat="43.1233275" lon="-2.7730583">
        <ele>133.571</ele>
        <time>2021-04-01T09:17:47.519Z</time>
      </trkpt>
      <trkpt lat="43.1233298" lon="-2.7730635">
        <ele>133.556</ele>
        <time>2021-04-01T09:17:47.574Z</time>
      </trkpt>
      <trkpt lat="43.1233323" lon="-2.7730685">
        <ele>133.522</ele>
        <time>2021-04-01T09:17:47.629Z</time>
      </trkpt>
      <trkpt lat="43.1233345" lon="-2.7730738">
        <ele>133.507</ele>
        <time>2021-04-01T09:17:47.684Z</time>
      </trkpt>
      <trkpt lat="43.1233367" lon="-2.7730794">
        <ele>133.53</ele>
        <time>2021-04-01T09:17:47.739Z</time>
      </trkpt>
      <trkpt lat="43.1233392" lon="-2.7730843">
        <ele>133.486</ele>
        <time>2021-04-01T09:17:47.794Z</time>
      </trkpt>
      <trkpt lat="43.1233416" lon="-2.7730892">
        <ele>133.481</ele>
        <time>2021-04-01T09:17:47.849Z</time>
      </trkpt>
      <trkpt lat="43.1233439" lon="-2.7730944">
        <ele>133.449</ele>
        <time>2021-04-01T09:17:47.904Z</time>
      </trkpt>
      <trkpt lat="43.1233463" lon="-2.7730995">
        <ele>133.433</ele>
        <time>2021-04-01T09:17:47.959Z</time>
      </trkpt>
      <trkpt lat="43.1233484" lon="-2.7731048">
        <ele>133.422</ele>
        <time>2021-04-01T09:17:48.014Z</time>
      </trkpt>
      <trkpt lat="43.1233508" lon="-2.7731098">
        <ele>133.396</ele>
        <time>2021-04-01T09:17:48.065Z</time>
      </trkpt>
      <trkpt lat="43.1233531" lon="-2.7731146">
        <ele>133.324</ele>
        <time>2021-04-01T09:17:48.117Z</time>
      </trkpt>
      <trkpt lat="43.1233555" lon="-2.77312">
        <ele>133.341</ele>
        <time>2021-04-01T09:17:48.169Z</time>
      </trkpt>
      <trkpt lat="43.1233577" lon="-2.7731254">
        <ele>133.347</ele>
        <time>2021-04-01T09:17:48.221Z</time>
      </trkpt>
      <trkpt lat="43.1233604" lon="-2.7731307">
        <ele>133.372</ele>
        <time>2021-04-01T09:17:48.273Z</time>
      </trkpt>
      <trkpt lat="43.1233627" lon="-2.7731359">
        <ele>133.36</ele>
        <time>2021-04-01T09:17:48.325Z</time>
      </trkpt>
      <trkpt lat="43.1233649" lon="-2.773141">
        <ele>133.311</ele>
        <time>2021-04-01T09:17:48.377Z</time>
      </trkpt>
      <trkpt lat="43.1233669" lon="-2.7731463">
        <ele>133.296</ele>
        <time>2021-04-01T09:17:48.429Z</time>
      </trkpt>
      <trkpt lat="43.1233693" lon="-2.7731516">
        <ele>133.288</ele>
        <time>2021-04-01T09:17:48.481Z</time>
      </trkpt>
      <trkpt lat="43.1233717" lon="-2.7731569">
        <ele>133.297</ele>
        <time>2021-04-01T09:17:48.533Z</time>
      </trkpt>
      <trkpt lat="43.1233741" lon="-2.773162">
        <ele>133.267</ele>
        <time>2021-04-01T09:17:48.585Z</time>
      </trkpt>
      <trkpt lat="43.1233765" lon="-2.7731673">
        <ele>133.237</ele>
        <time>2021-04-01T09:17:48.637Z</time>
      </trkpt>
      <trkpt lat="43.1233788" lon="-2.7731727">
        <ele>133.255</ele>
        <time>2021-04-01T09:17:48.689Z</time>
      </trkpt>
      <trkpt lat="43.123381" lon="-2.773178">
        <ele>133.25</ele>
        <time>2021-04-01T09:17:48.741Z</time>
      </trkpt>
      <trkpt lat="43.1233833" lon="-2.7731832">
        <ele>133.207</ele>
        <time>2021-04-01T09:17:48.793Z</time>
      </trkpt>
      <trkpt lat="43.1233856" lon="-2.7731885">
        <ele>133.155</ele>
        <time>2021-04-01T09:17:48.845Z</time>
      </trkpt>
      <trkpt lat="43.1233881" lon="-2.7731939">
        <ele>133.167</ele>
        <time>2021-04-01T09:17:48.897Z</time>
      </trkpt>
      <trkpt lat="43.1233905" lon="-2.773199">
        <ele>133.111</ele>
        <time>2021-04-01T09:17:48.949Z</time>
      </trkpt>
      <trkpt lat="43.1233931" lon="-2.7732043">
        <ele>133.093</ele>
        <time>2021-04-01T09:17:49.001Z</time>
      </trkpt>
      <trkpt lat="43.1233955" lon="-2.7732096">
        <ele>133.072</ele>
        <time>2021-04-01T09:17:49.053Z</time>
      </trkpt>
      <trkpt lat="43.1233981" lon="-2.773215">
        <ele>133.057</ele>
        <time>2021-04-01T09:17:49.105Z</time>
      </trkpt>
      <trkpt lat="43.1234006" lon="-2.7732204">
        <ele>133.041</ele>
        <time>2021-04-01T09:17:49.157Z</time>
      </trkpt>
      <trkpt lat="43.1234031" lon="-2.7732257">
        <ele>133.04</ele>
        <time>2021-04-01T09:17:49.209Z</time>
      </trkpt>
      <trkpt lat="43.1234055" lon="-2.7732312">
        <ele>133.024</ele>
        <time>2021-04-01T09:17:49.261Z</time>
      </trkpt>
      <trkpt lat="43.1234078" lon="-2.7732368">
        <ele>132.99</ele>
        <time>2021-04-01T09:17:49.313Z</time>
      </trkpt>
      <trkpt lat="43.1234105" lon="-2.7732421">
        <ele>133.01</ele>
        <time>2021-04-01T09:17:49.365Z</time>
      </trkpt>
      <trkpt lat="43.1234129" lon="-2.7732476">
        <ele>132.996</ele>
        <time>2021-04-01T09:17:49.417Z</time>
      </trkpt>
      <trkpt lat="43.1234152" lon="-2.773253">
        <ele>132.953</ele>
        <time>2021-04-01T09:17:49.470Z</time>
      </trkpt>
      <trkpt lat="43.1234177" lon="-2.7732583">
        <ele>132.945</ele>
        <time>2021-04-01T09:17:49.522Z</time>
      </trkpt>
      <trkpt lat="43.1234201" lon="-2.7732635">
        <ele>132.906</ele>
        <time>2021-04-01T09:17:49.574Z</time>
      </trkpt>
      <trkpt lat="43.1234224" lon="-2.773269">
        <ele>132.892</ele>
        <time>2021-04-01T09:17:49.626Z</time>
      </trkpt>
      <trkpt lat="43.123425" lon="-2.7732743">
        <ele>132.88</ele>
        <time>2021-04-01T09:17:49.678Z</time>
      </trkpt>
      <trkpt lat="43.1234273" lon="-2.7732799">
        <ele>132.883</ele>
        <time>2021-04-01T09:17:49.730Z</time>
      </trkpt>
      <trkpt lat="43.1234298" lon="-2.7732852">
        <ele>132.837</ele>
        <time>2021-04-01T09:17:49.782Z</time>
      </trkpt>
      <trkpt lat="43.1234325" lon="-2.7732908">
        <ele>132.851</ele>
        <time>2021-04-01T09:17:49.834Z</time>
      </trkpt>
      <trkpt lat="43.1234351" lon="-2.7732963">
        <ele>132.864</ele>
        <time>2021-04-01T09:17:49.886Z</time>
      </trkpt>
      <trkpt lat="43.1234376" lon="-2.7733019">
        <ele>132.89</ele>
        <time>2021-04-01T09:17:49.939Z</time>
      </trkpt>
      <trkpt lat="43.1234399" lon="-2.7733076">
        <ele>132.885</ele>
        <time>2021-04-01T09:17:49.997Z</time>
      </trkpt>
      <trkpt lat="43.1234424" lon="-2.7733132">
        <ele>132.906</ele>
        <time>2021-04-01T09:17:50.055Z</time>
      </trkpt>
      <trkpt lat="43.1234447" lon="-2.7733189">
        <ele>132.89</ele>
        <time>2021-04-01T09:17:50.113Z</time>
      </trkpt>
      <trkpt lat="43.1234493" lon="-2.7733296">
        <ele>132.803</ele>
        <time>2021-04-01T09:17:50.171Z</time>
      </trkpt>
      <trkpt lat="43.1234493" lon="-2.7733296">
        <ele>132.803</ele>
        <time>2021-04-01T09:17:50.229Z</time>
      </trkpt>
      <trkpt lat="43.1234515" lon="-2.7733352">
        <ele>132.778</ele>
        <time>2021-04-01T09:17:50.287Z</time>
      </trkpt>
      <trkpt lat="43.1234539" lon="-2.7733408">
        <ele>132.754</ele>
        <time>2021-04-01T09:17:50.345Z</time>
      </trkpt>
      <trkpt lat="43.1234566" lon="-2.7733465">
        <ele>132.748</ele>
        <time>2021-04-01T09:17:50.403Z</time>
      </trkpt>
      <trkpt lat="43.1234589" lon="-2.773352">
        <ele>132.732</ele>
        <time>2021-04-01T09:17:50.461Z</time>
      </trkpt>
      <trkpt lat="43.1234612" lon="-2.7733575">
        <ele>132.708</ele>
        <time>2021-04-01T09:17:50.519Z</time>
      </trkpt>
      <trkpt lat="43.1234635" lon="-2.7733631">
        <ele>132.685</ele>
        <time>2021-04-01T09:17:50.577Z</time>
      </trkpt>
      <trkpt lat="43.1234658" lon="-2.7733687">
        <ele>132.666</ele>
        <time>2021-04-01T09:17:50.635Z</time>
      </trkpt>
      <trkpt lat="43.123468" lon="-2.7733741">
        <ele>132.627</ele>
        <time>2021-04-01T09:17:50.693Z</time>
      </trkpt>
      <trkpt lat="43.1234703" lon="-2.7733795">
        <ele>132.562</ele>
        <time>2021-04-01T09:17:50.751Z</time>
      </trkpt>
      <trkpt lat="43.1234723" lon="-2.7733851">
        <ele>132.514</ele>
        <time>2021-04-01T09:17:50.809Z</time>
      </trkpt>
      <trkpt lat="43.1234746" lon="-2.7733906">
        <ele>132.463</ele>
        <time>2021-04-01T09:17:50.867Z</time>
      </trkpt>
      <trkpt lat="43.1234771" lon="-2.7733961">
        <ele>132.423</ele>
        <time>2021-04-01T09:17:50.925Z</time>
      </trkpt>
      <trkpt lat="43.1234794" lon="-2.7734012">
        <ele>132.377</ele>
        <time>2021-04-01T09:17:50.984Z</time>
      </trkpt>
      <trkpt lat="43.1234818" lon="-2.7734066">
        <ele>132.331</ele>
        <time>2021-04-01T09:17:51.039Z</time>
      </trkpt>
      <trkpt lat="43.1234841" lon="-2.7734123">
        <ele>132.309</ele>
        <time>2021-04-01T09:17:51.094Z</time>
      </trkpt>
      <trkpt lat="43.1234864" lon="-2.7734177">
        <ele>132.265</ele>
        <time>2021-04-01T09:17:51.149Z</time>
      </trkpt>
      <trkpt lat="43.1234885" lon="-2.7734232">
        <ele>132.213</ele>
        <time>2021-04-01T09:17:51.204Z</time>
      </trkpt>
      <trkpt lat="43.1234907" lon="-2.7734284">
        <ele>132.159</ele>
        <time>2021-04-01T09:17:51.259Z</time>
      </trkpt>
      <trkpt lat="43.1234931" lon="-2.7734338">
        <ele>132.136</ele>
        <time>2021-04-01T09:17:51.314Z</time>
      </trkpt>
      <trkpt lat="43.1234953" lon="-2.7734392">
        <ele>132.102</ele>
        <time>2021-04-01T09:17:51.369Z</time>
      </trkpt>
      <trkpt lat="43.1234974" lon="-2.7734447">
        <ele>132.043</ele>
        <time>2021-04-01T09:17:51.424Z</time>
      </trkpt>
      <trkpt lat="43.1234995" lon="-2.7734501">
        <ele>132.007</ele>
        <time>2021-04-01T09:17:51.479Z</time>
      </trkpt>
      <trkpt lat="43.1235016" lon="-2.7734556">
        <ele>131.999</ele>
        <time>2021-04-01T09:17:51.534Z</time>
      </trkpt>
      <trkpt lat="43.1235038" lon="-2.7734612">
        <ele>131.982</ele>
        <time>2021-04-01T09:17:51.589Z</time>
      </trkpt>
      <trkpt lat="43.1235059" lon="-2.7734667">
        <ele>131.939</ele>
        <time>2021-04-01T09:17:51.644Z</time>
      </trkpt>
      <trkpt lat="43.1235081" lon="-2.7734722">
        <ele>131.897</ele>
        <time>2021-04-01T09:17:51.699Z</time>
      </trkpt>
      <trkpt lat="43.1235104" lon="-2.7734781">
        <ele>131.926</ele>
        <time>2021-04-01T09:17:51.754Z</time>
      </trkpt>
      <trkpt lat="43.1235125" lon="-2.773484">
        <ele>131.933</ele>
        <time>2021-04-01T09:17:51.809Z</time>
      </trkpt>
      <trkpt lat="43.1235145" lon="-2.7734896">
        <ele>131.926</ele>
        <time>2021-04-01T09:17:51.864Z</time>
      </trkpt>
      <trkpt lat="43.1235168" lon="-2.7734949">
        <ele>131.877</ele>
        <time>2021-04-01T09:17:51.919Z</time>
      </trkpt>
      <trkpt lat="43.1235193" lon="-2.7735005">
        <ele>131.914</ele>
        <time>2021-04-01T09:17:51.974Z</time>
      </trkpt>
      <trkpt lat="43.1235216" lon="-2.7735063">
        <ele>131.941</ele>
        <time>2021-04-01T09:17:52.029Z</time>
      </trkpt>
      <trkpt lat="43.1235237" lon="-2.7735121">
        <ele>131.952</ele>
        <time>2021-04-01T09:17:52.084Z</time>
      </trkpt>
      <trkpt lat="43.1235258" lon="-2.7735177">
        <ele>131.902</ele>
        <time>2021-04-01T09:17:52.139Z</time>
      </trkpt>
      <trkpt lat="43.1235279" lon="-2.7735231">
        <ele>131.851</ele>
        <time>2021-04-01T09:17:52.194Z</time>
      </trkpt>
      <trkpt lat="43.1235302" lon="-2.7735289">
        <ele>131.866</ele>
        <time>2021-04-01T09:17:52.249Z</time>
      </trkpt>
      <trkpt lat="43.1235326" lon="-2.7735343">
        <ele>131.81</ele>
        <time>2021-04-01T09:17:52.304Z</time>
      </trkpt>
      <trkpt lat="43.1235349" lon="-2.7735401">
        <ele>131.818</ele>
        <time>2021-04-01T09:17:52.359Z</time>
      </trkpt>
      <trkpt lat="43.1235372" lon="-2.7735458">
        <ele>131.805</ele>
        <time>2021-04-01T09:17:52.414Z</time>
      </trkpt>
      <trkpt lat="43.1235394" lon="-2.7735515">
        <ele>131.783</ele>
        <time>2021-04-01T09:17:52.469Z</time>
      </trkpt>
      <trkpt lat="43.1235415" lon="-2.7735573">
        <ele>131.786</ele>
        <time>2021-04-01T09:17:52.524Z</time>
      </trkpt>
      <trkpt lat="43.1235438" lon="-2.7735628">
        <ele>131.751</ele>
        <time>2021-04-01T09:17:52.579Z</time>
      </trkpt>
      <trkpt lat="43.1235462" lon="-2.7735686">
        <ele>131.726</ele>
        <time>2021-04-01T09:17:52.634Z</time>
      </trkpt>
      <trkpt lat="43.1235485" lon="-2.7735742">
        <ele>131.693</ele>
        <time>2021-04-01T09:17:52.689Z</time>
      </trkpt>
      <trkpt lat="43.1235508" lon="-2.77358">
        <ele>131.708</ele>
        <time>2021-04-01T09:17:52.744Z</time>
      </trkpt>
      <trkpt lat="43.123553" lon="-2.7735859">
        <ele>131.713</ele>
        <time>2021-04-01T09:17:52.799Z</time>
      </trkpt>
      <trkpt lat="43.1235555" lon="-2.7735917">
        <ele>131.749</ele>
        <time>2021-04-01T09:17:52.854Z</time>
      </trkpt>
      <trkpt lat="43.1235579" lon="-2.7735975">
        <ele>131.732</ele>
        <time>2021-04-01T09:17:52.909Z</time>
      </trkpt>
      <trkpt lat="43.1235602" lon="-2.773603">
        <ele>131.671</ele>
        <time>2021-04-01T09:17:52.964Z</time>
      </trkpt>
      <trkpt lat="43.1235626" lon="-2.7736087">
        <ele>131.661</ele>
        <time>2021-04-01T09:17:53.019Z</time>
      </trkpt>
      <trkpt lat="43.1235649" lon="-2.7736145">
        <ele>131.648</ele>
        <time>2021-04-01T09:17:53.074Z</time>
      </trkpt>
      <trkpt lat="43.1235672" lon="-2.7736204">
        <ele>131.637</ele>
        <time>2021-04-01T09:17:53.129Z</time>
      </trkpt>
      <trkpt lat="43.1235694" lon="-2.7736263">
        <ele>131.633</ele>
        <time>2021-04-01T09:17:53.184Z</time>
      </trkpt>
      <trkpt lat="43.1235717" lon="-2.7736324">
        <ele>131.65</ele>
        <time>2021-04-01T09:17:53.239Z</time>
      </trkpt>
      <trkpt lat="43.1235741" lon="-2.7736381">
        <ele>131.618</ele>
        <time>2021-04-01T09:17:53.294Z</time>
      </trkpt>
      <trkpt lat="43.1235765" lon="-2.7736439">
        <ele>131.612</ele>
        <time>2021-04-01T09:17:53.349Z</time>
      </trkpt>
      <trkpt lat="43.1235788" lon="-2.7736501">
        <ele>131.638</ele>
        <time>2021-04-01T09:17:53.404Z</time>
      </trkpt>
      <trkpt lat="43.1235811" lon="-2.7736557">
        <ele>131.588</ele>
        <time>2021-04-01T09:17:53.459Z</time>
      </trkpt>
      <trkpt lat="43.1235836" lon="-2.7736611">
        <ele>131.536</ele>
        <time>2021-04-01T09:17:53.514Z</time>
      </trkpt>
      <trkpt lat="43.1235859" lon="-2.7736669">
        <ele>131.521</ele>
        <time>2021-04-01T09:17:53.569Z</time>
      </trkpt>
      <trkpt lat="43.1235881" lon="-2.7736727">
        <ele>131.497</ele>
        <time>2021-04-01T09:17:53.624Z</time>
      </trkpt>
      <trkpt lat="43.1235903" lon="-2.7736786">
        <ele>131.492</ele>
        <time>2021-04-01T09:17:53.679Z</time>
      </trkpt>
      <trkpt lat="43.1235929" lon="-2.773684">
        <ele>131.439</ele>
        <time>2021-04-01T09:17:53.734Z</time>
      </trkpt>
      <trkpt lat="43.1235955" lon="-2.7736895">
        <ele>131.414</ele>
        <time>2021-04-01T09:17:53.789Z</time>
      </trkpt>
      <trkpt lat="43.123598" lon="-2.7736952">
        <ele>131.398</ele>
        <time>2021-04-01T09:17:53.844Z</time>
      </trkpt>
      <trkpt lat="43.1236006" lon="-2.7737005">
        <ele>131.351</ele>
        <time>2021-04-01T09:17:53.899Z</time>
      </trkpt>
      <trkpt lat="43.1236031" lon="-2.7737061">
        <ele>131.341</ele>
        <time>2021-04-01T09:17:53.954Z</time>
      </trkpt>
      <trkpt lat="43.1236055" lon="-2.7737118">
        <ele>131.321</ele>
        <time>2021-04-01T09:17:54.009Z</time>
      </trkpt>
      <trkpt lat="43.1236079" lon="-2.7737177">
        <ele>131.301</ele>
        <time>2021-04-01T09:17:54.064Z</time>
      </trkpt>
      <trkpt lat="43.1236103" lon="-2.7737231">
        <ele>131.256</ele>
        <time>2021-04-01T09:17:54.119Z</time>
      </trkpt>
      <trkpt lat="43.1236129" lon="-2.7737284">
        <ele>131.21</ele>
        <time>2021-04-01T09:17:54.174Z</time>
      </trkpt>
      <trkpt lat="43.1236154" lon="-2.7737341">
        <ele>131.189</ele>
        <time>2021-04-01T09:17:54.229Z</time>
      </trkpt>
      <trkpt lat="43.1236179" lon="-2.7737398">
        <ele>131.169</ele>
        <time>2021-04-01T09:17:54.284Z</time>
      </trkpt>
      <trkpt lat="43.1236205" lon="-2.7737451">
        <ele>131.125</ele>
        <time>2021-04-01T09:17:54.339Z</time>
      </trkpt>
      <trkpt lat="43.1236228" lon="-2.7737508">
        <ele>131.112</ele>
        <time>2021-04-01T09:17:54.394Z</time>
      </trkpt>
      <trkpt lat="43.1236252" lon="-2.7737565">
        <ele>131.094</ele>
        <time>2021-04-01T09:17:54.449Z</time>
      </trkpt>
      <trkpt lat="43.1236275" lon="-2.773762">
        <ele>131.08</ele>
        <time>2021-04-01T09:17:54.504Z</time>
      </trkpt>
      <trkpt lat="43.1236301" lon="-2.7737676">
        <ele>131.079</ele>
        <time>2021-04-01T09:17:54.559Z</time>
      </trkpt>
      <trkpt lat="43.1236328" lon="-2.7737732">
        <ele>131.043</ele>
        <time>2021-04-01T09:17:54.614Z</time>
      </trkpt>
      <trkpt lat="43.1236353" lon="-2.7737784">
        <ele>130.957</ele>
        <time>2021-04-01T09:17:54.669Z</time>
      </trkpt>
      <trkpt lat="43.1236378" lon="-2.7737838">
        <ele>130.915</ele>
        <time>2021-04-01T09:17:54.724Z</time>
      </trkpt>
      <trkpt lat="43.1236401" lon="-2.7737894">
        <ele>130.903</ele>
        <time>2021-04-01T09:17:54.779Z</time>
      </trkpt>
      <trkpt lat="43.1236428" lon="-2.7737951">
        <ele>130.928</ele>
        <time>2021-04-01T09:17:54.834Z</time>
      </trkpt>
      <trkpt lat="43.1236454" lon="-2.7738004">
        <ele>130.901</ele>
        <time>2021-04-01T09:17:54.889Z</time>
      </trkpt>
      <trkpt lat="43.1236481" lon="-2.7738059">
        <ele>130.875</ele>
        <time>2021-04-01T09:17:54.944Z</time>
      </trkpt>
      <trkpt lat="43.1236506" lon="-2.7738115">
        <ele>130.866</ele>
        <time>2021-04-01T09:17:55.000Z</time>
      </trkpt>
      <trkpt lat="43.1236531" lon="-2.773817">
        <ele>130.847</ele>
        <time>2021-04-01T09:17:55.058Z</time>
      </trkpt>
      <trkpt lat="43.1236556" lon="-2.7738228">
        <ele>130.862</ele>
        <time>2021-04-01T09:17:55.116Z</time>
      </trkpt>
      <trkpt lat="43.1236585" lon="-2.773828">
        <ele>130.84</ele>
        <time>2021-04-01T09:17:55.174Z</time>
      </trkpt>
      <trkpt lat="43.1236611" lon="-2.7738335">
        <ele>130.817</ele>
        <time>2021-04-01T09:17:55.232Z</time>
      </trkpt>
      <trkpt lat="43.1236633" lon="-2.773839">
        <ele>130.8</ele>
        <time>2021-04-01T09:17:55.290Z</time>
      </trkpt>
      <trkpt lat="43.1236654" lon="-2.773845">
        <ele>130.868</ele>
        <time>2021-04-01T09:17:55.349Z</time>
      </trkpt>
      <trkpt lat="43.1236677" lon="-2.7738502">
        <ele>130.767</ele>
        <time>2021-04-01T09:17:55.407Z</time>
      </trkpt>
      <trkpt lat="43.1236701" lon="-2.7738557">
        <ele>130.71</ele>
        <time>2021-04-01T09:17:55.465Z</time>
      </trkpt>
      <trkpt lat="43.1236725" lon="-2.7738617">
        <ele>130.734</ele>
        <time>2021-04-01T09:17:55.523Z</time>
      </trkpt>
      <trkpt lat="43.1236745" lon="-2.773868">
        <ele>130.792</ele>
        <time>2021-04-01T09:17:55.581Z</time>
      </trkpt>
      <trkpt lat="43.1236767" lon="-2.773874">
        <ele>130.808</ele>
        <time>2021-04-01T09:17:55.639Z</time>
      </trkpt>
      <trkpt lat="43.1236792" lon="-2.7738793">
        <ele>130.77</ele>
        <time>2021-04-01T09:17:55.698Z</time>
      </trkpt>
      <trkpt lat="43.1236814" lon="-2.7738847">
        <ele>130.724</ele>
        <time>2021-04-01T09:17:55.756Z</time>
      </trkpt>
      <trkpt lat="43.1236833" lon="-2.7738905">
        <ele>130.706</ele>
        <time>2021-04-01T09:17:55.814Z</time>
      </trkpt>
      <trkpt lat="43.1236853" lon="-2.7738968">
        <ele>130.759</ele>
        <time>2021-04-01T09:17:55.872Z</time>
      </trkpt>
      <trkpt lat="43.1236876" lon="-2.7739022">
        <ele>130.735</ele>
        <time>2021-04-01T09:17:55.930Z</time>
      </trkpt>
      <trkpt lat="43.1236895" lon="-2.773908">
        <ele>130.683</ele>
        <time>2021-04-01T09:17:55.989Z</time>
      </trkpt>
      <trkpt lat="43.1236915" lon="-2.7739139">
        <ele>130.677</ele>
        <time>2021-04-01T09:17:56.041Z</time>
      </trkpt>
      <trkpt lat="43.1236936" lon="-2.77392">
        <ele>130.699</ele>
        <time>2021-04-01T09:17:56.093Z</time>
      </trkpt>
      <trkpt lat="43.1236958" lon="-2.7739257">
        <ele>130.655</ele>
        <time>2021-04-01T09:17:56.145Z</time>
      </trkpt>
      <trkpt lat="43.1236978" lon="-2.7739319">
        <ele>130.698</ele>
        <time>2021-04-01T09:17:56.197Z</time>
      </trkpt>
      <trkpt lat="43.1236999" lon="-2.7739375">
        <ele>130.695</ele>
        <time>2021-04-01T09:17:56.249Z</time>
      </trkpt>
      <trkpt lat="43.123702" lon="-2.7739434">
        <ele>130.697</ele>
        <time>2021-04-01T09:17:56.301Z</time>
      </trkpt>
      <trkpt lat="43.1237042" lon="-2.7739492">
        <ele>130.679</ele>
        <time>2021-04-01T09:17:56.353Z</time>
      </trkpt>
      <trkpt lat="43.1237064" lon="-2.7739548">
        <ele>130.626</ele>
        <time>2021-04-01T09:17:56.405Z</time>
      </trkpt>
      <trkpt lat="43.1237086" lon="-2.7739604">
        <ele>130.595</ele>
        <time>2021-04-01T09:17:56.457Z</time>
      </trkpt>
      <trkpt lat="43.1237108" lon="-2.7739663">
        <ele>130.64</ele>
        <time>2021-04-01T09:17:56.510Z</time>
      </trkpt>
      <trkpt lat="43.1237131" lon="-2.7739722">
        <ele>130.661</ele>
        <time>2021-04-01T09:17:56.562Z</time>
      </trkpt>
      <trkpt lat="43.1237152" lon="-2.7739778">
        <ele>130.644</ele>
        <time>2021-04-01T09:17:56.614Z</time>
      </trkpt>
      <trkpt lat="43.1237173" lon="-2.7739834">
        <ele>130.62</ele>
        <time>2021-04-01T09:17:56.666Z</time>
      </trkpt>
      <trkpt lat="43.1237198" lon="-2.7739889">
        <ele>130.616</ele>
        <time>2021-04-01T09:17:56.718Z</time>
      </trkpt>
      <trkpt lat="43.1237222" lon="-2.7739944">
        <ele>130.624</ele>
        <time>2021-04-01T09:17:56.770Z</time>
      </trkpt>
      <trkpt lat="43.1237243" lon="-2.7739998">
        <ele>130.578</ele>
        <time>2021-04-01T09:17:56.822Z</time>
      </trkpt>
      <trkpt lat="43.1237266" lon="-2.7740053">
        <ele>130.532</ele>
        <time>2021-04-01T09:17:56.874Z</time>
      </trkpt>
      <trkpt lat="43.1237289" lon="-2.7740112">
        <ele>130.561</ele>
        <time>2021-04-01T09:17:56.926Z</time>
      </trkpt>
      <trkpt lat="43.1237311" lon="-2.7740167">
        <ele>130.527</ele>
        <time>2021-04-01T09:17:56.979Z</time>
      </trkpt>
      <trkpt lat="43.1237334" lon="-2.7740224">
        <ele>130.521</ele>
        <time>2021-04-01T09:17:57.034Z</time>
      </trkpt>
      <trkpt lat="43.1237355" lon="-2.7740281">
        <ele>130.485</ele>
        <time>2021-04-01T09:17:57.089Z</time>
      </trkpt>
      <trkpt lat="43.1237376" lon="-2.774034">
        <ele>130.506</ele>
        <time>2021-04-01T09:17:57.144Z</time>
      </trkpt>
      <trkpt lat="43.1237399" lon="-2.7740396">
        <ele>130.491</ele>
        <time>2021-04-01T09:17:57.199Z</time>
      </trkpt>
      <trkpt lat="43.1237422" lon="-2.7740453">
        <ele>130.475</ele>
        <time>2021-04-01T09:17:57.254Z</time>
      </trkpt>
      <trkpt lat="43.1237443" lon="-2.774051">
        <ele>130.473</ele>
        <time>2021-04-01T09:17:57.309Z</time>
      </trkpt>
      <trkpt lat="43.1237466" lon="-2.7740565">
        <ele>130.46</ele>
        <time>2021-04-01T09:17:57.364Z</time>
      </trkpt>
      <trkpt lat="43.1237489" lon="-2.7740621">
        <ele>130.447</ele>
        <time>2021-04-01T09:17:57.419Z</time>
      </trkpt>
      <trkpt lat="43.1237513" lon="-2.7740676">
        <ele>130.401</ele>
        <time>2021-04-01T09:17:57.474Z</time>
      </trkpt>
      <trkpt lat="43.1237536" lon="-2.7740732">
        <ele>130.4</ele>
        <time>2021-04-01T09:17:57.529Z</time>
      </trkpt>
      <trkpt lat="43.1237559" lon="-2.774079">
        <ele>130.421</ele>
        <time>2021-04-01T09:17:57.584Z</time>
      </trkpt>
      <trkpt lat="43.1237582" lon="-2.7740844">
        <ele>130.365</ele>
        <time>2021-04-01T09:17:57.639Z</time>
      </trkpt>
      <trkpt lat="43.1237606" lon="-2.7740898">
        <ele>130.347</ele>
        <time>2021-04-01T09:17:57.694Z</time>
      </trkpt>
      <trkpt lat="43.123763" lon="-2.7740954">
        <ele>130.336</ele>
        <time>2021-04-01T09:17:57.749Z</time>
      </trkpt>
      <trkpt lat="43.1237654" lon="-2.774101">
        <ele>130.325</ele>
        <time>2021-04-01T09:17:57.804Z</time>
      </trkpt>
      <trkpt lat="43.1237677" lon="-2.7741065">
        <ele>130.312</ele>
        <time>2021-04-01T09:17:57.859Z</time>
      </trkpt>
      <trkpt lat="43.12377" lon="-2.7741122">
        <ele>130.339</ele>
        <time>2021-04-01T09:17:57.914Z</time>
      </trkpt>
      <trkpt lat="43.1237724" lon="-2.7741176">
        <ele>130.308</ele>
        <time>2021-04-01T09:17:57.969Z</time>
      </trkpt>
      <trkpt lat="43.1237749" lon="-2.774123">
        <ele>130.278</ele>
        <time>2021-04-01T09:17:58.024Z</time>
      </trkpt>
      <trkpt lat="43.1237774" lon="-2.7741285">
        <ele>130.27</ele>
        <time>2021-04-01T09:17:58.079Z</time>
      </trkpt>
      <trkpt lat="43.1237799" lon="-2.7741339">
        <ele>130.246</ele>
        <time>2021-04-01T09:17:58.134Z</time>
      </trkpt>
      <trkpt lat="43.1237824" lon="-2.7741393">
        <ele>130.251</ele>
        <time>2021-04-01T09:17:58.189Z</time>
      </trkpt>
      <trkpt lat="43.1237848" lon="-2.7741448">
        <ele>130.24</ele>
        <time>2021-04-01T09:17:58.244Z</time>
      </trkpt>
      <trkpt lat="43.1237873" lon="-2.7741502">
        <ele>130.252</ele>
        <time>2021-04-01T09:17:58.299Z</time>
      </trkpt>
      <trkpt lat="43.1237898" lon="-2.7741554">
        <ele>130.226</ele>
        <time>2021-04-01T09:17:58.354Z</time>
      </trkpt>
      <trkpt lat="43.1237923" lon="-2.7741607">
        <ele>130.218</ele>
        <time>2021-04-01T09:17:58.409Z</time>
      </trkpt>
      <trkpt lat="43.123795" lon="-2.7741659">
        <ele>130.221</ele>
        <time>2021-04-01T09:17:58.464Z</time>
      </trkpt>
      <trkpt lat="43.1237974" lon="-2.7741713">
        <ele>130.231</ele>
        <time>2021-04-01T09:17:58.519Z</time>
      </trkpt>
      <trkpt lat="43.1237999" lon="-2.7741768">
        <ele>130.245</ele>
        <time>2021-04-01T09:17:58.574Z</time>
      </trkpt>
      <trkpt lat="43.1238024" lon="-2.7741821">
        <ele>130.247</ele>
        <time>2021-04-01T09:17:58.629Z</time>
      </trkpt>
      <trkpt lat="43.1238049" lon="-2.7741874">
        <ele>130.255</ele>
        <time>2021-04-01T09:17:58.684Z</time>
      </trkpt>
      <trkpt lat="43.1238074" lon="-2.7741925">
        <ele>130.22</ele>
        <time>2021-04-01T09:17:58.739Z</time>
      </trkpt>
      <trkpt lat="43.1238098" lon="-2.7741979">
        <ele>130.226</ele>
        <time>2021-04-01T09:17:58.794Z</time>
      </trkpt>
      <trkpt lat="43.1238125" lon="-2.7742032">
        <ele>130.269</ele>
        <time>2021-04-01T09:17:58.849Z</time>
      </trkpt>
      <trkpt lat="43.1238151" lon="-2.7742084">
        <ele>130.271</ele>
        <time>2021-04-01T09:17:58.904Z</time>
      </trkpt>
      <trkpt lat="43.1238176" lon="-2.7742138">
        <ele>130.277</ele>
        <time>2021-04-01T09:17:58.959Z</time>
      </trkpt>
      <trkpt lat="43.1238202" lon="-2.7742191">
        <ele>130.283</ele>
        <time>2021-04-01T09:17:59.014Z</time>
      </trkpt>
      <trkpt lat="43.1238227" lon="-2.7742245">
        <ele>130.303</ele>
        <time>2021-04-01T09:17:59.069Z</time>
      </trkpt>
      <trkpt lat="43.1238252" lon="-2.7742299">
        <ele>130.332</ele>
        <time>2021-04-01T09:17:59.124Z</time>
      </trkpt>
      <trkpt lat="43.1238277" lon="-2.7742355">
        <ele>130.352</ele>
        <time>2021-04-01T09:17:59.179Z</time>
      </trkpt>
      <trkpt lat="43.1238301" lon="-2.7742408">
        <ele>130.356</ele>
        <time>2021-04-01T09:17:59.234Z</time>
      </trkpt>
      <trkpt lat="43.1238326" lon="-2.7742461">
        <ele>130.335</ele>
        <time>2021-04-01T09:17:59.289Z</time>
      </trkpt>
      <trkpt lat="43.1238352" lon="-2.7742513">
        <ele>130.318</ele>
        <time>2021-04-01T09:17:59.344Z</time>
      </trkpt>
      <trkpt lat="43.1238377" lon="-2.7742566">
        <ele>130.309</ele>
        <time>2021-04-01T09:17:59.399Z</time>
      </trkpt>
      <trkpt lat="43.1238402" lon="-2.7742619">
        <ele>130.328</ele>
        <time>2021-04-01T09:17:59.454Z</time>
      </trkpt>
      <trkpt lat="43.1238426" lon="-2.7742672">
        <ele>130.273</ele>
        <time>2021-04-01T09:17:59.509Z</time>
      </trkpt>
      <trkpt lat="43.1238451" lon="-2.7742725">
        <ele>130.236</ele>
        <time>2021-04-01T09:17:59.564Z</time>
      </trkpt>
      <trkpt lat="43.1238476" lon="-2.7742779">
        <ele>130.216</ele>
        <time>2021-04-01T09:17:59.619Z</time>
      </trkpt>
      <trkpt lat="43.1238501" lon="-2.7742833">
        <ele>130.227</ele>
        <time>2021-04-01T09:17:59.674Z</time>
      </trkpt>
      <trkpt lat="43.1238524" lon="-2.7742887">
        <ele>130.223</ele>
        <time>2021-04-01T09:17:59.729Z</time>
      </trkpt>
      <trkpt lat="43.1238547" lon="-2.7742942">
        <ele>130.216</ele>
        <time>2021-04-01T09:17:59.784Z</time>
      </trkpt>
      <trkpt lat="43.1238569" lon="-2.7742998">
        <ele>130.274</ele>
        <time>2021-04-01T09:17:59.839Z</time>
      </trkpt>
      <trkpt lat="43.1238591" lon="-2.7743054">
        <ele>130.27</ele>
        <time>2021-04-01T09:17:59.894Z</time>
      </trkpt>
      <trkpt lat="43.1238614" lon="-2.7743111">
        <ele>130.279</ele>
        <time>2021-04-01T09:17:59.949Z</time>
      </trkpt>
      <trkpt lat="43.1238638" lon="-2.7743168">
        <ele>130.325</ele>
        <time>2021-04-01T09:18:00.004Z</time>
      </trkpt>
      <trkpt lat="43.1238662" lon="-2.7743225">
        <ele>130.342</ele>
        <time>2021-04-01T09:18:00.059Z</time>
      </trkpt>
      <trkpt lat="43.1238686" lon="-2.7743281">
        <ele>130.356</ele>
        <time>2021-04-01T09:18:00.114Z</time>
      </trkpt>
      <trkpt lat="43.123871" lon="-2.7743337">
        <ele>130.357</ele>
        <time>2021-04-01T09:18:00.169Z</time>
      </trkpt>
      <trkpt lat="43.1238732" lon="-2.7743394">
        <ele>130.334</ele>
        <time>2021-04-01T09:18:00.224Z</time>
      </trkpt>
      <trkpt lat="43.1238754" lon="-2.7743449">
        <ele>130.305</ele>
        <time>2021-04-01T09:18:00.279Z</time>
      </trkpt>
      <trkpt lat="43.1238778" lon="-2.7743502">
        <ele>130.29</ele>
        <time>2021-04-01T09:18:00.334Z</time>
      </trkpt>
      <trkpt lat="43.1238803" lon="-2.7743557">
        <ele>130.31</ele>
        <time>2021-04-01T09:18:00.389Z</time>
      </trkpt>
      <trkpt lat="43.123883" lon="-2.7743613">
        <ele>130.275</ele>
        <time>2021-04-01T09:18:00.444Z</time>
      </trkpt>
      <trkpt lat="43.1238854" lon="-2.7743667">
        <ele>130.231</ele>
        <time>2021-04-01T09:18:00.499Z</time>
      </trkpt>
      <trkpt lat="43.1238876" lon="-2.7743723">
        <ele>130.228</ele>
        <time>2021-04-01T09:18:00.554Z</time>
      </trkpt>
      <trkpt lat="43.1238899" lon="-2.774378">
        <ele>130.236</ele>
        <time>2021-04-01T09:18:00.609Z</time>
      </trkpt>
      <trkpt lat="43.1238922" lon="-2.7743836">
        <ele>130.25</ele>
        <time>2021-04-01T09:18:00.664Z</time>
      </trkpt>
      <trkpt lat="43.1238946" lon="-2.7743892">
        <ele>130.253</ele>
        <time>2021-04-01T09:18:00.719Z</time>
      </trkpt>
      <trkpt lat="43.1238967" lon="-2.774395">
        <ele>130.267</ele>
        <time>2021-04-01T09:18:00.774Z</time>
      </trkpt>
      <trkpt lat="43.1238988" lon="-2.7744005">
        <ele>130.241</ele>
        <time>2021-04-01T09:18:00.829Z</time>
      </trkpt>
      <trkpt lat="43.1239011" lon="-2.7744062">
        <ele>130.246</ele>
        <time>2021-04-01T09:18:00.884Z</time>
      </trkpt>
      <trkpt lat="43.1239033" lon="-2.7744118">
        <ele>130.224</ele>
        <time>2021-04-01T09:18:00.939Z</time>
      </trkpt>
      <trkpt lat="43.1239055" lon="-2.7744174">
        <ele>130.2</ele>
        <time>2021-04-01T09:18:00.994Z</time>
      </trkpt>
      <trkpt lat="43.1239078" lon="-2.7744227">
        <ele>130.131</ele>
        <time>2021-04-01T09:18:01.049Z</time>
      </trkpt>
      <trkpt lat="43.1239101" lon="-2.7744282">
        <ele>130.118</ele>
        <time>2021-04-01T09:18:01.104Z</time>
      </trkpt>
      <trkpt lat="43.1239123" lon="-2.7744337">
        <ele>130.124</ele>
        <time>2021-04-01T09:18:01.159Z</time>
      </trkpt>
      <trkpt lat="43.1239147" lon="-2.7744392">
        <ele>130.112</ele>
        <time>2021-04-01T09:18:01.214Z</time>
      </trkpt>
      <trkpt lat="43.1239173" lon="-2.7744442">
        <ele>130.038</ele>
        <time>2021-04-01T09:18:01.269Z</time>
      </trkpt>
      <trkpt lat="43.1239195" lon="-2.7744495">
        <ele>130.007</ele>
        <time>2021-04-01T09:18:01.324Z</time>
      </trkpt>
      <trkpt lat="43.1239217" lon="-2.774455">
        <ele>129.967</ele>
        <time>2021-04-01T09:18:01.379Z</time>
      </trkpt>
      <trkpt lat="43.123924" lon="-2.7744603">
        <ele>129.939</ele>
        <time>2021-04-01T09:18:01.434Z</time>
      </trkpt>
      <trkpt lat="43.1239264" lon="-2.7744654">
        <ele>129.922</ele>
        <time>2021-04-01T09:18:01.489Z</time>
      </trkpt>
      <trkpt lat="43.1239286" lon="-2.7744707">
        <ele>129.919</ele>
        <time>2021-04-01T09:18:01.544Z</time>
      </trkpt>
      <trkpt lat="43.1239306" lon="-2.7744764">
        <ele>129.912</ele>
        <time>2021-04-01T09:18:01.599Z</time>
      </trkpt>
      <trkpt lat="43.1239329" lon="-2.774482">
        <ele>129.902</ele>
        <time>2021-04-01T09:18:01.654Z</time>
      </trkpt>
      <trkpt lat="43.1239352" lon="-2.7744872">
        <ele>129.889</ele>
        <time>2021-04-01T09:18:01.709Z</time>
      </trkpt>
      <trkpt lat="43.1239375" lon="-2.7744921">
        <ele>129.838</ele>
        <time>2021-04-01T09:18:01.764Z</time>
      </trkpt>
      <trkpt lat="43.1239397" lon="-2.7744975">
        <ele>129.851</ele>
        <time>2021-04-01T09:18:01.819Z</time>
      </trkpt>
      <trkpt lat="43.123942" lon="-2.7745028">
        <ele>129.838</ele>
        <time>2021-04-01T09:18:01.874Z</time>
      </trkpt>
      <trkpt lat="43.1239447" lon="-2.774508">
        <ele>129.811</ele>
        <time>2021-04-01T09:18:01.929Z</time>
      </trkpt>
      <trkpt lat="43.1239466" lon="-2.7745135">
        <ele>129.771</ele>
        <time>2021-04-01T09:18:01.984Z</time>
      </trkpt>
      <trkpt lat="43.1239487" lon="-2.7745188">
        <ele>129.745</ele>
        <time>2021-04-01T09:18:02.039Z</time>
      </trkpt>
      <trkpt lat="43.123951" lon="-2.7745241">
        <ele>129.745</ele>
        <time>2021-04-01T09:18:02.094Z</time>
      </trkpt>
      <trkpt lat="43.1239533" lon="-2.7745294">
        <ele>129.709</ele>
        <time>2021-04-01T09:18:02.149Z</time>
      </trkpt>
      <trkpt lat="43.1239554" lon="-2.7745348">
        <ele>129.694</ele>
        <time>2021-04-01T09:18:02.204Z</time>
      </trkpt>
      <trkpt lat="43.1239576" lon="-2.7745403">
        <ele>129.693</ele>
        <time>2021-04-01T09:18:02.259Z</time>
      </trkpt>
      <trkpt lat="43.1239598" lon="-2.7745459">
        <ele>129.69</ele>
        <time>2021-04-01T09:18:02.314Z</time>
      </trkpt>
      <trkpt lat="43.1239621" lon="-2.7745513">
        <ele>129.667</ele>
        <time>2021-04-01T09:18:02.369Z</time>
      </trkpt>
      <trkpt lat="43.1239644" lon="-2.7745567">
        <ele>129.653</ele>
        <time>2021-04-01T09:18:02.424Z</time>
      </trkpt>
      <trkpt lat="43.1239665" lon="-2.774562">
        <ele>129.63</ele>
        <time>2021-04-01T09:18:02.479Z</time>
      </trkpt>
      <trkpt lat="43.1239687" lon="-2.7745673">
        <ele>129.61</ele>
        <time>2021-04-01T09:18:02.534Z</time>
      </trkpt>
      <trkpt lat="43.1239711" lon="-2.7745728">
        <ele>129.595</ele>
        <time>2021-04-01T09:18:02.589Z</time>
      </trkpt>
      <trkpt lat="43.1239736" lon="-2.7745782">
        <ele>129.554</ele>
        <time>2021-04-01T09:18:02.644Z</time>
      </trkpt>
      <trkpt lat="43.123976" lon="-2.7745835">
        <ele>129.542</ele>
        <time>2021-04-01T09:18:02.699Z</time>
      </trkpt>
      <trkpt lat="43.1239787" lon="-2.7745886">
        <ele>129.471</ele>
        <time>2021-04-01T09:18:02.754Z</time>
      </trkpt>
      <trkpt lat="43.123981" lon="-2.7745941">
        <ele>129.475</ele>
        <time>2021-04-01T09:18:02.809Z</time>
      </trkpt>
      <trkpt lat="43.1239835" lon="-2.7745993">
        <ele>129.437</ele>
        <time>2021-04-01T09:18:02.864Z</time>
      </trkpt>
      <trkpt lat="43.123986" lon="-2.7746045">
        <ele>129.47</ele>
        <time>2021-04-01T09:18:02.919Z</time>
      </trkpt>
      <trkpt lat="43.1239882" lon="-2.77461">
        <ele>129.504</ele>
        <time>2021-04-01T09:18:02.974Z</time>
      </trkpt>
      <trkpt lat="43.1239906" lon="-2.7746156">
        <ele>129.493</ele>
        <time>2021-04-01T09:18:03.029Z</time>
      </trkpt>
      <trkpt lat="43.1239932" lon="-2.7746207">
        <ele>129.495</ele>
        <time>2021-04-01T09:18:03.090Z</time>
      </trkpt>
      <trkpt lat="43.1239955" lon="-2.7746262">
        <ele>129.481</ele>
        <time>2021-04-01T09:18:03.151Z</time>
      </trkpt>
      <trkpt lat="43.123998" lon="-2.7746315">
        <ele>129.45</ele>
        <time>2021-04-01T09:18:03.213Z</time>
      </trkpt>
      <trkpt lat="43.1240003" lon="-2.7746367">
        <ele>129.398</ele>
        <time>2021-04-01T09:18:03.274Z</time>
      </trkpt>
      <trkpt lat="43.1240026" lon="-2.7746418">
        <ele>129.331</ele>
        <time>2021-04-01T09:18:03.336Z</time>
      </trkpt>
      <trkpt lat="43.1240052" lon="-2.7746467">
        <ele>129.318</ele>
        <time>2021-04-01T09:18:03.397Z</time>
      </trkpt>
      <trkpt lat="43.1240077" lon="-2.7746521">
        <ele>129.35</ele>
        <time>2021-04-01T09:18:03.459Z</time>
      </trkpt>
      <trkpt lat="43.1240102" lon="-2.7746574">
        <ele>129.313</ele>
        <time>2021-04-01T09:18:03.520Z</time>
      </trkpt>
      <trkpt lat="43.1240124" lon="-2.7746627">
        <ele>129.226</ele>
        <time>2021-04-01T09:18:03.582Z</time>
      </trkpt>
      <trkpt lat="43.1240148" lon="-2.7746679">
        <ele>129.156</ele>
        <time>2021-04-01T09:18:03.643Z</time>
      </trkpt>
      <trkpt lat="43.1240173" lon="-2.7746726">
        <ele>128.945</ele>
        <time>2021-04-01T09:18:03.705Z</time>
      </trkpt>
      <trkpt lat="43.1240199" lon="-2.7746779">
        <ele>128.877</ele>
        <time>2021-04-01T09:18:03.766Z</time>
      </trkpt>
      <trkpt lat="43.1240218" lon="-2.7746837">
        <ele>128.874</ele>
        <time>2021-04-01T09:18:03.828Z</time>
      </trkpt>
      <trkpt lat="43.1240239" lon="-2.7746894">
        <ele>128.892</ele>
        <time>2021-04-01T09:18:03.889Z</time>
      </trkpt>
      <trkpt lat="43.1240263" lon="-2.774695">
        <ele>128.877</ele>
        <time>2021-04-01T09:18:03.951Z</time>
      </trkpt>
      <trkpt lat="43.1240287" lon="-2.7747006">
        <ele>128.837</ele>
        <time>2021-04-01T09:18:04.012Z</time>
      </trkpt>
      <trkpt lat="43.1240312" lon="-2.7747061">
        <ele>128.811</ele>
        <time>2021-04-01T09:18:04.074Z</time>
      </trkpt>
      <trkpt lat="43.1240337" lon="-2.7747114">
        <ele>128.788</ele>
        <time>2021-04-01T09:18:04.123Z</time>
      </trkpt>
      <trkpt lat="43.1240361" lon="-2.7747167">
        <ele>128.76</ele>
        <time>2021-04-01T09:18:04.172Z</time>
      </trkpt>
      <trkpt lat="43.1240385" lon="-2.7747224">
        <ele>128.725</ele>
        <time>2021-04-01T09:18:04.221Z</time>
      </trkpt>
      <trkpt lat="43.124041" lon="-2.7747281">
        <ele>128.685</ele>
        <time>2021-04-01T09:18:04.270Z</time>
      </trkpt>
      <trkpt lat="43.1240435" lon="-2.7747338">
        <ele>128.666</ele>
        <time>2021-04-01T09:18:04.320Z</time>
      </trkpt>
      <trkpt lat="43.1240458" lon="-2.7747394">
        <ele>128.646</ele>
        <time>2021-04-01T09:18:04.369Z</time>
      </trkpt>
      <trkpt lat="43.1240482" lon="-2.7747452">
        <ele>128.647</ele>
        <time>2021-04-01T09:18:04.418Z</time>
      </trkpt>
      <trkpt lat="43.1240506" lon="-2.7747508">
        <ele>128.635</ele>
        <time>2021-04-01T09:18:04.467Z</time>
      </trkpt>
      <trkpt lat="43.1240531" lon="-2.7747563">
        <ele>128.616</ele>
        <time>2021-04-01T09:18:04.516Z</time>
      </trkpt>
      <trkpt lat="43.1240554" lon="-2.7747622">
        <ele>128.587</ele>
        <time>2021-04-01T09:18:04.566Z</time>
      </trkpt>
      <trkpt lat="43.1240577" lon="-2.774768">
        <ele>128.558</ele>
        <time>2021-04-01T09:18:04.615Z</time>
      </trkpt>
      <trkpt lat="43.1240602" lon="-2.7747736">
        <ele>128.544</ele>
        <time>2021-04-01T09:18:04.664Z</time>
      </trkpt>
      <trkpt lat="43.1240625" lon="-2.7747791">
        <ele>128.54</ele>
        <time>2021-04-01T09:18:04.713Z</time>
      </trkpt>
      <trkpt lat="43.1240649" lon="-2.7747843">
        <ele>128.456</ele>
        <time>2021-04-01T09:18:04.762Z</time>
      </trkpt>
      <trkpt lat="43.1240674" lon="-2.7747899">
        <ele>128.391</ele>
        <time>2021-04-01T09:18:04.812Z</time>
      </trkpt>
      <trkpt lat="43.1240701" lon="-2.7747955">
        <ele>128.411</ele>
        <time>2021-04-01T09:18:04.861Z</time>
      </trkpt>
      <trkpt lat="43.1240725" lon="-2.7748011">
        <ele>128.377</ele>
        <time>2021-04-01T09:18:04.910Z</time>
      </trkpt>
      <trkpt lat="43.124075" lon="-2.7748069">
        <ele>128.374</ele>
        <time>2021-04-01T09:18:04.959Z</time>
      </trkpt>
      <trkpt lat="43.1240775" lon="-2.7748126">
        <ele>128.338</ele>
        <time>2021-04-01T09:18:05.009Z</time>
      </trkpt>
      <trkpt lat="43.1240797" lon="-2.774818">
        <ele>128.315</ele>
        <time>2021-04-01T09:18:05.064Z</time>
      </trkpt>
      <trkpt lat="43.1240818" lon="-2.7748233">
        <ele>128.292</ele>
        <time>2021-04-01T09:18:05.119Z</time>
      </trkpt>
      <trkpt lat="43.1240841" lon="-2.7748287">
        <ele>128.287</ele>
        <time>2021-04-01T09:18:05.174Z</time>
      </trkpt>
      <trkpt lat="43.1240864" lon="-2.7748343">
        <ele>128.269</ele>
        <time>2021-04-01T09:18:05.229Z</time>
      </trkpt>
      <trkpt lat="43.1240885" lon="-2.7748398">
        <ele>128.248</ele>
        <time>2021-04-01T09:18:05.284Z</time>
      </trkpt>
      <trkpt lat="43.1240911" lon="-2.7748455">
        <ele>128.233</ele>
        <time>2021-04-01T09:18:05.339Z</time>
      </trkpt>
      <trkpt lat="43.1240935" lon="-2.7748511">
        <ele>128.215</ele>
        <time>2021-04-01T09:18:05.394Z</time>
      </trkpt>
      <trkpt lat="43.124096" lon="-2.7748563">
        <ele>128.189</ele>
        <time>2021-04-01T09:18:05.449Z</time>
      </trkpt>
      <trkpt lat="43.1240983" lon="-2.7748618">
        <ele>128.186</ele>
        <time>2021-04-01T09:18:05.504Z</time>
      </trkpt>
      <trkpt lat="43.1241006" lon="-2.7748674">
        <ele>128.144</ele>
        <time>2021-04-01T09:18:05.559Z</time>
      </trkpt>
      <trkpt lat="43.1241029" lon="-2.7748727">
        <ele>128.126</ele>
        <time>2021-04-01T09:18:05.614Z</time>
      </trkpt>
      <trkpt lat="43.1241054" lon="-2.7748781">
        <ele>128.107</ele>
        <time>2021-04-01T09:18:05.669Z</time>
      </trkpt>
      <trkpt lat="43.1241077" lon="-2.7748837">
        <ele>128.086</ele>
        <time>2021-04-01T09:18:05.724Z</time>
      </trkpt>
      <trkpt lat="43.12411" lon="-2.7748891">
        <ele>128.056</ele>
        <time>2021-04-01T09:18:05.779Z</time>
      </trkpt>
      <trkpt lat="43.1241125" lon="-2.7748945">
        <ele>128.03</ele>
        <time>2021-04-01T09:18:05.834Z</time>
      </trkpt>
      <trkpt lat="43.1241151" lon="-2.7749">
        <ele>127.999</ele>
        <time>2021-04-01T09:18:05.889Z</time>
      </trkpt>
      <trkpt lat="43.1241177" lon="-2.7749057">
        <ele>128.012</ele>
        <time>2021-04-01T09:18:05.944Z</time>
      </trkpt>
      <trkpt lat="43.1241202" lon="-2.7749113">
        <ele>128.021</ele>
        <time>2021-04-01T09:18:06.000Z</time>
      </trkpt>
      <trkpt lat="43.1241227" lon="-2.7749168">
        <ele>127.996</ele>
        <time>2021-04-01T09:18:06.054Z</time>
      </trkpt>
      <trkpt lat="43.1241251" lon="-2.7749224">
        <ele>127.982</ele>
        <time>2021-04-01T09:18:06.109Z</time>
      </trkpt>
      <trkpt lat="43.1241277" lon="-2.7749275">
        <ele>127.955</ele>
        <time>2021-04-01T09:18:06.164Z</time>
      </trkpt>
      <trkpt lat="43.1241299" lon="-2.7749331">
        <ele>127.908</ele>
        <time>2021-04-01T09:18:06.219Z</time>
      </trkpt>
      <trkpt lat="43.1241323" lon="-2.7749386">
        <ele>127.917</ele>
        <time>2021-04-01T09:18:06.274Z</time>
      </trkpt>
      <trkpt lat="43.1241348" lon="-2.7749443">
        <ele>127.93</ele>
        <time>2021-04-01T09:18:06.329Z</time>
      </trkpt>
      <trkpt lat="43.1241373" lon="-2.7749501">
        <ele>127.962</ele>
        <time>2021-04-01T09:18:06.384Z</time>
      </trkpt>
      <trkpt lat="43.1241396" lon="-2.7749558">
        <ele>127.93</ele>
        <time>2021-04-01T09:18:06.439Z</time>
      </trkpt>
      <trkpt lat="43.1241423" lon="-2.7749613">
        <ele>127.93</ele>
        <time>2021-04-01T09:18:06.494Z</time>
      </trkpt>
      <trkpt lat="43.1241446" lon="-2.7749672">
        <ele>127.953</ele>
        <time>2021-04-01T09:18:06.549Z</time>
      </trkpt>
      <trkpt lat="43.124147" lon="-2.7749728">
        <ele>127.928</ele>
        <time>2021-04-01T09:18:06.604Z</time>
      </trkpt>
      <trkpt lat="43.1241492" lon="-2.7749786">
        <ele>127.899</ele>
        <time>2021-04-01T09:18:06.659Z</time>
      </trkpt>
      <trkpt lat="43.1241515" lon="-2.7749842">
        <ele>127.893</ele>
        <time>2021-04-01T09:18:06.714Z</time>
      </trkpt>
      <trkpt lat="43.1241543" lon="-2.7749897">
        <ele>127.893</ele>
        <time>2021-04-01T09:18:06.769Z</time>
      </trkpt>
      <trkpt lat="43.1241569" lon="-2.7749954">
        <ele>127.873</ele>
        <time>2021-04-01T09:18:06.824Z</time>
      </trkpt>
      <trkpt lat="43.1241593" lon="-2.7750012">
        <ele>127.83</ele>
        <time>2021-04-01T09:18:06.879Z</time>
      </trkpt>
      <trkpt lat="43.1241616" lon="-2.7750068">
        <ele>127.806</ele>
        <time>2021-04-01T09:18:06.934Z</time>
      </trkpt>
      <trkpt lat="43.124164" lon="-2.7750124">
        <ele>127.799</ele>
        <time>2021-04-01T09:18:06.989Z</time>
      </trkpt>
      <trkpt lat="43.1241665" lon="-2.7750178">
        <ele>127.783</ele>
        <time>2021-04-01T09:18:07.044Z</time>
      </trkpt>
      <trkpt lat="43.1241689" lon="-2.7750236">
        <ele>127.744</ele>
        <time>2021-04-01T09:18:07.099Z</time>
      </trkpt>
      <trkpt lat="43.1241714" lon="-2.7750292">
        <ele>127.732</ele>
        <time>2021-04-01T09:18:07.154Z</time>
      </trkpt>
      <trkpt lat="43.1241739" lon="-2.775035">
        <ele>127.744</ele>
        <time>2021-04-01T09:18:07.209Z</time>
      </trkpt>
      <trkpt lat="43.1241764" lon="-2.7750408">
        <ele>127.744</ele>
        <time>2021-04-01T09:18:07.264Z</time>
      </trkpt>
      <trkpt lat="43.124179" lon="-2.7750469">
        <ele>127.754</ele>
        <time>2021-04-01T09:18:07.319Z</time>
      </trkpt>
      <trkpt lat="43.1241815" lon="-2.7750526">
        <ele>127.754</ele>
        <time>2021-04-01T09:18:07.374Z</time>
      </trkpt>
      <trkpt lat="43.124184" lon="-2.7750582">
        <ele>127.75</ele>
        <time>2021-04-01T09:18:07.429Z</time>
      </trkpt>
      <trkpt lat="43.1241867" lon="-2.7750638">
        <ele>127.721</ele>
        <time>2021-04-01T09:18:07.484Z</time>
      </trkpt>
      <trkpt lat="43.1241895" lon="-2.7750694">
        <ele>127.704</ele>
        <time>2021-04-01T09:18:07.539Z</time>
      </trkpt>
      <trkpt lat="43.1241921" lon="-2.7750749">
        <ele>127.673</ele>
        <time>2021-04-01T09:18:07.594Z</time>
      </trkpt>
      <trkpt lat="43.1241948" lon="-2.7750802">
        <ele>127.628</ele>
        <time>2021-04-01T09:18:07.649Z</time>
      </trkpt>
      <trkpt lat="43.1241975" lon="-2.7750858">
        <ele>127.621</ele>
        <time>2021-04-01T09:18:07.704Z</time>
      </trkpt>
      <trkpt lat="43.1242001" lon="-2.7750913">
        <ele>127.603</ele>
        <time>2021-04-01T09:18:07.759Z</time>
      </trkpt>
      <trkpt lat="43.1242029" lon="-2.775097">
        <ele>127.573</ele>
        <time>2021-04-01T09:18:07.814Z</time>
      </trkpt>
      <trkpt lat="43.1242055" lon="-2.7751026">
        <ele>127.533</ele>
        <time>2021-04-01T09:18:07.869Z</time>
      </trkpt>
      <trkpt lat="43.1242082" lon="-2.7751081">
        <ele>127.513</ele>
        <time>2021-04-01T09:18:07.924Z</time>
      </trkpt>
      <trkpt lat="43.1242111" lon="-2.7751133">
        <ele>127.475</ele>
        <time>2021-04-01T09:18:07.979Z</time>
      </trkpt>
      <trkpt lat="43.1242137" lon="-2.775119">
        <ele>127.452</ele>
        <time>2021-04-01T09:18:08.034Z</time>
      </trkpt>
      <trkpt lat="43.1242166" lon="-2.7751247">
        <ele>127.418</ele>
        <time>2021-04-01T09:18:08.089Z</time>
      </trkpt>
      <trkpt lat="43.1242192" lon="-2.77513">
        <ele>127.384</ele>
        <time>2021-04-01T09:18:08.144Z</time>
      </trkpt>
      <trkpt lat="43.1242219" lon="-2.7751354">
        <ele>127.39</ele>
        <time>2021-04-01T09:18:08.199Z</time>
      </trkpt>
      <trkpt lat="43.1242247" lon="-2.775141">
        <ele>127.386</ele>
        <time>2021-04-01T09:18:08.254Z</time>
      </trkpt>
      <trkpt lat="43.1242276" lon="-2.7751467">
        <ele>127.391</ele>
        <time>2021-04-01T09:18:08.309Z</time>
      </trkpt>
      <trkpt lat="43.1242303" lon="-2.7751523">
        <ele>127.38</ele>
        <time>2021-04-01T09:18:08.364Z</time>
      </trkpt>
      <trkpt lat="43.1242329" lon="-2.775158">
        <ele>127.379</ele>
        <time>2021-04-01T09:18:08.419Z</time>
      </trkpt>
      <trkpt lat="43.1242357" lon="-2.7751634">
        <ele>127.366</ele>
        <time>2021-04-01T09:18:08.474Z</time>
      </trkpt>
      <trkpt lat="43.1242385" lon="-2.7751685">
        <ele>127.306</ele>
        <time>2021-04-01T09:18:08.529Z</time>
      </trkpt>
      <trkpt lat="43.1242417" lon="-2.7751738">
        <ele>127.278</ele>
        <time>2021-04-01T09:18:08.584Z</time>
      </trkpt>
      <trkpt lat="43.1242445" lon="-2.775179">
        <ele>127.242</ele>
        <time>2021-04-01T09:18:08.639Z</time>
      </trkpt>
      <trkpt lat="43.1242474" lon="-2.7751846">
        <ele>127.23</ele>
        <time>2021-04-01T09:18:08.694Z</time>
      </trkpt>
      <trkpt lat="43.1242503" lon="-2.7751902">
        <ele>127.206</ele>
        <time>2021-04-01T09:18:08.749Z</time>
      </trkpt>
      <trkpt lat="43.1242533" lon="-2.7751954">
        <ele>127.201</ele>
        <time>2021-04-01T09:18:08.804Z</time>
      </trkpt>
      <trkpt lat="43.124256" lon="-2.7752009">
        <ele>127.186</ele>
        <time>2021-04-01T09:18:08.859Z</time>
      </trkpt>
      <trkpt lat="43.124259" lon="-2.7752062">
        <ele>127.151</ele>
        <time>2021-04-01T09:18:08.914Z</time>
      </trkpt>
      <trkpt lat="43.1242619" lon="-2.7752119">
        <ele>127.152</ele>
        <time>2021-04-01T09:18:08.969Z</time>
      </trkpt>
      <trkpt lat="43.1242649" lon="-2.7752172">
        <ele>127.141</ele>
        <time>2021-04-01T09:18:09.024Z</time>
      </trkpt>
      <trkpt lat="43.1242679" lon="-2.7752227">
        <ele>127.119</ele>
        <time>2021-04-01T09:18:09.079Z</time>
      </trkpt>
      <trkpt lat="43.1242709" lon="-2.7752281">
        <ele>127.108</ele>
        <time>2021-04-01T09:18:09.134Z</time>
      </trkpt>
      <trkpt lat="43.1242736" lon="-2.7752334">
        <ele>127.076</ele>
        <time>2021-04-01T09:18:09.189Z</time>
      </trkpt>
      <trkpt lat="43.1242768" lon="-2.7752386">
        <ele>127.049</ele>
        <time>2021-04-01T09:18:09.244Z</time>
      </trkpt>
      <trkpt lat="43.1242801" lon="-2.7752439">
        <ele>127.049</ele>
        <time>2021-04-01T09:18:09.299Z</time>
      </trkpt>
      <trkpt lat="43.1242831" lon="-2.7752494">
        <ele>127.029</ele>
        <time>2021-04-01T09:18:09.354Z</time>
      </trkpt>
      <trkpt lat="43.1242864" lon="-2.7752549">
        <ele>127.06</ele>
        <time>2021-04-01T09:18:09.409Z</time>
      </trkpt>
      <trkpt lat="43.1242896" lon="-2.7752601">
        <ele>127.059</ele>
        <time>2021-04-01T09:18:09.464Z</time>
      </trkpt>
      <trkpt lat="43.1242927" lon="-2.7752656">
        <ele>127.06</ele>
        <time>2021-04-01T09:18:09.519Z</time>
      </trkpt>
      <trkpt lat="43.1242959" lon="-2.775271">
        <ele>127.049</ele>
        <time>2021-04-01T09:18:09.574Z</time>
      </trkpt>
      <trkpt lat="43.1242991" lon="-2.7752764">
        <ele>127.057</ele>
        <time>2021-04-01T09:18:09.629Z</time>
      </trkpt>
      <trkpt lat="43.1243024" lon="-2.7752818">
        <ele>127.049</ele>
        <time>2021-04-01T09:18:09.684Z</time>
      </trkpt>
      <trkpt lat="43.1243055" lon="-2.7752866">
        <ele>127</ele>
        <time>2021-04-01T09:18:09.739Z</time>
      </trkpt>
      <trkpt lat="43.1243088" lon="-2.7752919">
        <ele>126.968</ele>
        <time>2021-04-01T09:18:09.794Z</time>
      </trkpt>
      <trkpt lat="43.1243119" lon="-2.7752974">
        <ele>126.987</ele>
        <time>2021-04-01T09:18:09.849Z</time>
      </trkpt>
      <trkpt lat="43.1243149" lon="-2.7753033">
        <ele>127</ele>
        <time>2021-04-01T09:18:09.904Z</time>
      </trkpt>
      <trkpt lat="43.1243184" lon="-2.7753084">
        <ele>127.008</ele>
        <time>2021-04-01T09:18:09.959Z</time>
      </trkpt>
      <trkpt lat="43.1243216" lon="-2.7753138">
        <ele>127.031</ele>
        <time>2021-04-01T09:18:10.014Z</time>
      </trkpt>
      <trkpt lat="43.124325" lon="-2.7753191">
        <ele>127.052</ele>
        <time>2021-04-01T09:18:10.069Z</time>
      </trkpt>
      <trkpt lat="43.124328" lon="-2.7753248">
        <ele>127.044</ele>
        <time>2021-04-01T09:18:10.124Z</time>
      </trkpt>
      <trkpt lat="43.1243313" lon="-2.7753301">
        <ele>127.063</ele>
        <time>2021-04-01T09:18:10.179Z</time>
      </trkpt>
      <trkpt lat="43.1243347" lon="-2.7753353">
        <ele>127.058</ele>
        <time>2021-04-01T09:18:10.234Z</time>
      </trkpt>
      <trkpt lat="43.1243382" lon="-2.7753407">
        <ele>127.07</ele>
        <time>2021-04-01T09:18:10.289Z</time>
      </trkpt>
      <trkpt lat="43.1243411" lon="-2.7753465">
        <ele>127.047</ele>
        <time>2021-04-01T09:18:10.344Z</time>
      </trkpt>
      <trkpt lat="43.1243445" lon="-2.7753515">
        <ele>127.01</ele>
        <time>2021-04-01T09:18:10.399Z</time>
      </trkpt>
      <trkpt lat="43.1243481" lon="-2.7753559">
        <ele>127.004</ele>
        <time>2021-04-01T09:18:10.454Z</time>
      </trkpt>
      <trkpt lat="43.1243516" lon="-2.7753605">
        <ele>126.959</ele>
        <time>2021-04-01T09:18:10.509Z</time>
      </trkpt>
      <trkpt lat="43.1243549" lon="-2.7753653">
        <ele>126.916</ele>
        <time>2021-04-01T09:18:10.564Z</time>
      </trkpt>
      <trkpt lat="43.1243582" lon="-2.7753705">
        <ele>126.916</ele>
        <time>2021-04-01T09:18:10.619Z</time>
      </trkpt>
      <trkpt lat="43.1243617" lon="-2.7753756">
        <ele>126.934</ele>
        <time>2021-04-01T09:18:10.674Z</time>
      </trkpt>
      <trkpt lat="43.1243653" lon="-2.7753808">
        <ele>126.965</ele>
        <time>2021-04-01T09:18:10.729Z</time>
      </trkpt>
      <trkpt lat="43.1243686" lon="-2.7753861">
        <ele>126.989</ele>
        <time>2021-04-01T09:18:10.784Z</time>
      </trkpt>
      <trkpt lat="43.124372" lon="-2.7753907">
        <ele>126.944</ele>
        <time>2021-04-01T09:18:10.839Z</time>
      </trkpt>
      <trkpt lat="43.1243756" lon="-2.7753952">
        <ele>126.889</ele>
        <time>2021-04-01T09:18:10.894Z</time>
      </trkpt>
      <trkpt lat="43.1243791" lon="-2.7753992">
        <ele>126.804</ele>
        <time>2021-04-01T09:18:10.949Z</time>
      </trkpt>
      <trkpt lat="43.1243826" lon="-2.7754038">
        <ele>126.786</ele>
        <time>2021-04-01T09:18:11.004Z</time>
      </trkpt>
      <trkpt lat="43.1243858" lon="-2.7754086">
        <ele>126.752</ele>
        <time>2021-04-01T09:18:11.059Z</time>
      </trkpt>
      <trkpt lat="43.1243894" lon="-2.7754133">
        <ele>126.744</ele>
        <time>2021-04-01T09:18:11.114Z</time>
      </trkpt>
      <trkpt lat="43.124393" lon="-2.775418">
        <ele>126.72</ele>
        <time>2021-04-01T09:18:11.169Z</time>
      </trkpt>
      <trkpt lat="43.1243965" lon="-2.7754233">
        <ele>126.749</ele>
        <time>2021-04-01T09:18:11.224Z</time>
      </trkpt>
      <trkpt lat="43.1243999" lon="-2.7754286">
        <ele>126.777</ele>
        <time>2021-04-01T09:18:11.279Z</time>
      </trkpt>
      <trkpt lat="43.1244036" lon="-2.7754333">
        <ele>126.791</ele>
        <time>2021-04-01T09:18:11.334Z</time>
      </trkpt>
      <trkpt lat="43.1244074" lon="-2.7754376">
        <ele>126.791</ele>
        <time>2021-04-01T09:18:11.389Z</time>
      </trkpt>
      <trkpt lat="43.1244111" lon="-2.7754422">
        <ele>126.795</ele>
        <time>2021-04-01T09:18:11.444Z</time>
      </trkpt>
      <trkpt lat="43.1244148" lon="-2.7754465">
        <ele>126.76</ele>
        <time>2021-04-01T09:18:11.499Z</time>
      </trkpt>
      <trkpt lat="43.1244184" lon="-2.7754509">
        <ele>126.73</ele>
        <time>2021-04-01T09:18:11.554Z</time>
      </trkpt>
      <trkpt lat="43.1244222" lon="-2.7754555">
        <ele>126.74</ele>
        <time>2021-04-01T09:18:11.609Z</time>
      </trkpt>
      <trkpt lat="43.1244259" lon="-2.7754599">
        <ele>126.744</ele>
        <time>2021-04-01T09:18:11.664Z</time>
      </trkpt>
      <trkpt lat="43.1244297" lon="-2.7754639">
        <ele>126.721</ele>
        <time>2021-04-01T09:18:11.719Z</time>
      </trkpt>
      <trkpt lat="43.1244334" lon="-2.7754679">
        <ele>126.661</ele>
        <time>2021-04-01T09:18:11.774Z</time>
      </trkpt>
      <trkpt lat="43.1244374" lon="-2.775472">
        <ele>126.658</ele>
        <time>2021-04-01T09:18:11.829Z</time>
      </trkpt>
      <trkpt lat="43.1244411" lon="-2.7754758">
        <ele>126.596</ele>
        <time>2021-04-01T09:18:11.884Z</time>
      </trkpt>
      <trkpt lat="43.1244452" lon="-2.7754796">
        <ele>126.555</ele>
        <time>2021-04-01T09:18:11.939Z</time>
      </trkpt>
      <trkpt lat="43.124449" lon="-2.775484">
        <ele>126.558</ele>
        <time>2021-04-01T09:18:11.994Z</time>
      </trkpt>
      <trkpt lat="43.1244529" lon="-2.7754881">
        <ele>126.541</ele>
        <time>2021-04-01T09:18:12.049Z</time>
      </trkpt>
      <trkpt lat="43.1244567" lon="-2.7754921">
        <ele>126.473</ele>
        <time>2021-04-01T09:18:12.104Z</time>
      </trkpt>
      <trkpt lat="43.1244606" lon="-2.7754963">
        <ele>126.448</ele>
        <time>2021-04-01T09:18:12.159Z</time>
      </trkpt>
      <trkpt lat="43.1244646" lon="-2.7755007">
        <ele>126.456</ele>
        <time>2021-04-01T09:18:12.214Z</time>
      </trkpt>
      <trkpt lat="43.1244684" lon="-2.7755051">
        <ele>126.441</ele>
        <time>2021-04-01T09:18:12.269Z</time>
      </trkpt>
      <trkpt lat="43.1244722" lon="-2.775509">
        <ele>126.381</ele>
        <time>2021-04-01T09:18:12.324Z</time>
      </trkpt>
      <trkpt lat="43.1244761" lon="-2.7755133">
        <ele>126.361</ele>
        <time>2021-04-01T09:18:12.379Z</time>
      </trkpt>
      <trkpt lat="43.1244799" lon="-2.7755175">
        <ele>126.353</ele>
        <time>2021-04-01T09:18:12.434Z</time>
      </trkpt>
      <trkpt lat="43.124484" lon="-2.7755216">
        <ele>126.332</ele>
        <time>2021-04-01T09:18:12.489Z</time>
      </trkpt>
      <trkpt lat="43.1244878" lon="-2.7755263">
        <ele>126.346</ele>
        <time>2021-04-01T09:18:12.544Z</time>
      </trkpt>
      <trkpt lat="43.1244915" lon="-2.7755308">
        <ele>126.316</ele>
        <time>2021-04-01T09:18:12.599Z</time>
      </trkpt>
      <trkpt lat="43.1244954" lon="-2.775535">
        <ele>126.284</ele>
        <time>2021-04-01T09:18:12.654Z</time>
      </trkpt>
      <trkpt lat="43.1244992" lon="-2.7755392">
        <ele>126.244</ele>
        <time>2021-04-01T09:18:12.709Z</time>
      </trkpt>
      <trkpt lat="43.1245031" lon="-2.7755434">
        <ele>126.244</ele>
        <time>2021-04-01T09:18:12.764Z</time>
      </trkpt>
      <trkpt lat="43.124507" lon="-2.7755479">
        <ele>126.24</ele>
        <time>2021-04-01T09:18:12.819Z</time>
      </trkpt>
      <trkpt lat="43.1245108" lon="-2.7755526">
        <ele>126.251</ele>
        <time>2021-04-01T09:18:12.874Z</time>
      </trkpt>
      <trkpt lat="43.1245145" lon="-2.7755571">
        <ele>126.244</ele>
        <time>2021-04-01T09:18:12.929Z</time>
      </trkpt>
      <trkpt lat="43.1245183" lon="-2.7755618">
        <ele>126.259</ele>
        <time>2021-04-01T09:18:12.984Z</time>
      </trkpt>
      <trkpt lat="43.1245224" lon="-2.7755665">
        <ele>126.297</ele>
        <time>2021-04-01T09:18:13.039Z</time>
      </trkpt>
      <trkpt lat="43.1245262" lon="-2.775571">
        <ele>126.267</ele>
        <time>2021-04-01T09:18:13.094Z</time>
      </trkpt>
      <trkpt lat="43.1245299" lon="-2.7755754">
        <ele>126.249</ele>
        <time>2021-04-01T09:18:13.149Z</time>
      </trkpt>
      <trkpt lat="43.1245339" lon="-2.7755795">
        <ele>126.24</ele>
        <time>2021-04-01T09:18:13.204Z</time>
      </trkpt>
      <trkpt lat="43.1245378" lon="-2.7755838">
        <ele>126.18</ele>
        <time>2021-04-01T09:18:13.259Z</time>
      </trkpt>
      <trkpt lat="43.124542" lon="-2.7755881">
        <ele>126.149</ele>
        <time>2021-04-01T09:18:13.314Z</time>
      </trkpt>
      <trkpt lat="43.124546" lon="-2.7755926">
        <ele>126.133</ele>
        <time>2021-04-01T09:18:13.369Z</time>
      </trkpt>
      <trkpt lat="43.1245499" lon="-2.7755968">
        <ele>126.106</ele>
        <time>2021-04-01T09:18:13.424Z</time>
      </trkpt>
      <trkpt lat="43.1245539" lon="-2.7756008">
        <ele>126.053</ele>
        <time>2021-04-01T09:18:13.479Z</time>
      </trkpt>
      <trkpt lat="43.1245579" lon="-2.7756051">
        <ele>126.034</ele>
        <time>2021-04-01T09:18:13.534Z</time>
      </trkpt>
      <trkpt lat="43.1245617" lon="-2.7756098">
        <ele>126.054</ele>
        <time>2021-04-01T09:18:13.589Z</time>
      </trkpt>
      <trkpt lat="43.1245656" lon="-2.7756142">
        <ele>126.049</ele>
        <time>2021-04-01T09:18:13.644Z</time>
      </trkpt>
      <trkpt lat="43.1245697" lon="-2.7756184">
        <ele>126.03</ele>
        <time>2021-04-01T09:18:13.699Z</time>
      </trkpt>
      <trkpt lat="43.1245736" lon="-2.7756227">
        <ele>126.013</ele>
        <time>2021-04-01T09:18:13.754Z</time>
      </trkpt>
      <trkpt lat="43.1245774" lon="-2.7756275">
        <ele>126.05</ele>
        <time>2021-04-01T09:18:13.809Z</time>
      </trkpt>
      <trkpt lat="43.1245813" lon="-2.7756318">
        <ele>126.05</ele>
        <time>2021-04-01T09:18:13.864Z</time>
      </trkpt>
      <trkpt lat="43.1245852" lon="-2.7756358">
        <ele>126.051</ele>
        <time>2021-04-01T09:18:13.919Z</time>
      </trkpt>
      <trkpt lat="43.1245893" lon="-2.7756401">
        <ele>126.046</ele>
        <time>2021-04-01T09:18:13.974Z</time>
      </trkpt>
      <trkpt lat="43.1245932" lon="-2.775644">
        <ele>126.013</ele>
        <time>2021-04-01T09:18:14.029Z</time>
      </trkpt>
      <trkpt lat="43.1245971" lon="-2.7756482">
        <ele>126.01</ele>
        <time>2021-04-01T09:18:14.084Z</time>
      </trkpt>
      <trkpt lat="43.124601" lon="-2.7756527">
        <ele>126.04</ele>
        <time>2021-04-01T09:18:14.139Z</time>
      </trkpt>
      <trkpt lat="43.1246049" lon="-2.775657">
        <ele>126.068</ele>
        <time>2021-04-01T09:18:14.194Z</time>
      </trkpt>
      <trkpt lat="43.1246088" lon="-2.7756611">
        <ele>126.059</ele>
        <time>2021-04-01T09:18:14.249Z</time>
      </trkpt>
      <trkpt lat="43.1246128" lon="-2.7756649">
        <ele>126.026</ele>
        <time>2021-04-01T09:18:14.304Z</time>
      </trkpt>
      <trkpt lat="43.124617" lon="-2.7756683">
        <ele>126.022</ele>
        <time>2021-04-01T09:18:14.359Z</time>
      </trkpt>
      <trkpt lat="43.1246209" lon="-2.7756722">
        <ele>126.001</ele>
        <time>2021-04-01T09:18:14.414Z</time>
      </trkpt>
      <trkpt lat="43.1246248" lon="-2.7756762">
        <ele>125.969</ele>
        <time>2021-04-01T09:18:14.469Z</time>
      </trkpt>
      <trkpt lat="43.1246287" lon="-2.7756801">
        <ele>125.929</ele>
        <time>2021-04-01T09:18:14.524Z</time>
      </trkpt>
      <trkpt lat="43.1246326" lon="-2.775684">
        <ele>125.903</ele>
        <time>2021-04-01T09:18:14.579Z</time>
      </trkpt>
      <trkpt lat="43.1246366" lon="-2.7756879">
        <ele>125.888</ele>
        <time>2021-04-01T09:18:14.634Z</time>
      </trkpt>
      <trkpt lat="43.1246404" lon="-2.7756918">
        <ele>125.884</ele>
        <time>2021-04-01T09:18:14.689Z</time>
      </trkpt>
      <trkpt lat="43.1246444" lon="-2.7756955">
        <ele>125.85</ele>
        <time>2021-04-01T09:18:14.744Z</time>
      </trkpt>
      <trkpt lat="43.1246484" lon="-2.7756994">
        <ele>125.833</ele>
        <time>2021-04-01T09:18:14.799Z</time>
      </trkpt>
      <trkpt lat="43.1246524" lon="-2.7757034">
        <ele>125.844</ele>
        <time>2021-04-01T09:18:14.854Z</time>
      </trkpt>
      <trkpt lat="43.1246565" lon="-2.7757073">
        <ele>125.853</ele>
        <time>2021-04-01T09:18:14.909Z</time>
      </trkpt>
      <trkpt lat="43.1246607" lon="-2.7757111">
        <ele>125.854</ele>
        <time>2021-04-01T09:18:14.964Z</time>
      </trkpt>
      <trkpt lat="43.1246648" lon="-2.7757151">
        <ele>125.848</ele>
        <time>2021-04-01T09:18:15.019Z</time>
      </trkpt>
      <trkpt lat="43.1246687" lon="-2.7757191">
        <ele>125.845</ele>
        <time>2021-04-01T09:18:15.074Z</time>
      </trkpt>
      <trkpt lat="43.1246725" lon="-2.7757233">
        <ele>125.856</ele>
        <time>2021-04-01T09:18:15.129Z</time>
      </trkpt>
      <trkpt lat="43.1246763" lon="-2.7757272">
        <ele>125.854</ele>
        <time>2021-04-01T09:18:15.184Z</time>
      </trkpt>
      <trkpt lat="43.1246801" lon="-2.7757309">
        <ele>125.831</ele>
        <time>2021-04-01T09:18:15.239Z</time>
      </trkpt>
      <trkpt lat="43.124684" lon="-2.7757346">
        <ele>125.799</ele>
        <time>2021-04-01T09:18:15.294Z</time>
      </trkpt>
      <trkpt lat="43.1246878" lon="-2.7757387">
        <ele>125.802</ele>
        <time>2021-04-01T09:18:15.349Z</time>
      </trkpt>
      <trkpt lat="43.1246917" lon="-2.7757426">
        <ele>125.795</ele>
        <time>2021-04-01T09:18:15.404Z</time>
      </trkpt>
      <trkpt lat="43.1246956" lon="-2.7757471">
        <ele>125.811</ele>
        <time>2021-04-01T09:18:15.459Z</time>
      </trkpt>
      <trkpt lat="43.1246995" lon="-2.7757514">
        <ele>125.82</ele>
        <time>2021-04-01T09:18:15.514Z</time>
      </trkpt>
      <trkpt lat="43.1247033" lon="-2.7757553">
        <ele>125.812</ele>
        <time>2021-04-01T09:18:15.569Z</time>
      </trkpt>
      <trkpt lat="43.1247072" lon="-2.7757597">
        <ele>125.856</ele>
        <time>2021-04-01T09:18:15.624Z</time>
      </trkpt>
      <trkpt lat="43.1247111" lon="-2.7757638">
        <ele>125.856</ele>
        <time>2021-04-01T09:18:15.679Z</time>
      </trkpt>
      <trkpt lat="43.124715" lon="-2.7757678">
        <ele>125.835</ele>
        <time>2021-04-01T09:18:15.734Z</time>
      </trkpt>
      <trkpt lat="43.1247188" lon="-2.7757718">
        <ele>125.824</ele>
        <time>2021-04-01T09:18:15.789Z</time>
      </trkpt>
      <trkpt lat="43.1247227" lon="-2.7757763">
        <ele>125.86</ele>
        <time>2021-04-01T09:18:15.844Z</time>
      </trkpt>
      <trkpt lat="43.1247265" lon="-2.7757802">
        <ele>125.85</ele>
        <time>2021-04-01T09:18:15.899Z</time>
      </trkpt>
      <trkpt lat="43.1247306" lon="-2.7757839">
        <ele>125.837</ele>
        <time>2021-04-01T09:18:15.954Z</time>
      </trkpt>
      <trkpt lat="43.1247343" lon="-2.7757879">
        <ele>125.824</ele>
        <time>2021-04-01T09:18:16.009Z</time>
      </trkpt>
      <trkpt lat="43.1247383" lon="-2.7757916">
        <ele>125.827</ele>
        <time>2021-04-01T09:18:16.064Z</time>
      </trkpt>
      <trkpt lat="43.1247421" lon="-2.7757952">
        <ele>125.771</ele>
        <time>2021-04-01T09:18:16.119Z</time>
      </trkpt>
      <trkpt lat="43.1247461" lon="-2.775799">
        <ele>125.753</ele>
        <time>2021-04-01T09:18:16.174Z</time>
      </trkpt>
      <trkpt lat="43.12475" lon="-2.7758031">
        <ele>125.752</ele>
        <time>2021-04-01T09:18:16.229Z</time>
      </trkpt>
      <trkpt lat="43.1247538" lon="-2.7758071">
        <ele>125.754</ele>
        <time>2021-04-01T09:18:16.284Z</time>
      </trkpt>
      <trkpt lat="43.1247575" lon="-2.7758114">
        <ele>125.735</ele>
        <time>2021-04-01T09:18:16.339Z</time>
      </trkpt>
      <trkpt lat="43.124761" lon="-2.7758157">
        <ele>125.71</ele>
        <time>2021-04-01T09:18:16.394Z</time>
      </trkpt>
      <trkpt lat="43.1247649" lon="-2.7758203">
        <ele>125.747</ele>
        <time>2021-04-01T09:18:16.449Z</time>
      </trkpt>
      <trkpt lat="43.1247688" lon="-2.7758242">
        <ele>125.733</ele>
        <time>2021-04-01T09:18:16.504Z</time>
      </trkpt>
      <trkpt lat="43.1247727" lon="-2.775828">
        <ele>125.687</ele>
        <time>2021-04-01T09:18:16.559Z</time>
      </trkpt>
      <trkpt lat="43.1247764" lon="-2.7758319">
        <ele>125.681</ele>
        <time>2021-04-01T09:18:16.614Z</time>
      </trkpt>
      <trkpt lat="43.1247799" lon="-2.7758362">
        <ele>125.675</ele>
        <time>2021-04-01T09:18:16.669Z</time>
      </trkpt>
      <trkpt lat="43.1247837" lon="-2.77584">
        <ele>125.66</ele>
        <time>2021-04-01T09:18:16.724Z</time>
      </trkpt>
      <trkpt lat="43.1247875" lon="-2.7758439">
        <ele>125.643</ele>
        <time>2021-04-01T09:18:16.779Z</time>
      </trkpt>
      <trkpt lat="43.1247914" lon="-2.7758479">
        <ele>125.633</ele>
        <time>2021-04-01T09:18:16.834Z</time>
      </trkpt>
      <trkpt lat="43.1247951" lon="-2.7758518">
        <ele>125.599</ele>
        <time>2021-04-01T09:18:16.889Z</time>
      </trkpt>
      <trkpt lat="43.1247989" lon="-2.7758555">
        <ele>125.564</ele>
        <time>2021-04-01T09:18:16.944Z</time>
      </trkpt>
      <trkpt lat="43.1248026" lon="-2.7758592">
        <ele>125.499</ele>
        <time>2021-04-01T09:18:17.000Z</time>
      </trkpt>
      <trkpt lat="43.1248061" lon="-2.7758634">
        <ele>125.508</ele>
        <time>2021-04-01T09:18:17.054Z</time>
      </trkpt>
      <trkpt lat="43.1248098" lon="-2.7758674">
        <ele>125.496</ele>
        <time>2021-04-01T09:18:17.109Z</time>
      </trkpt>
      <trkpt lat="43.1248134" lon="-2.7758716">
        <ele>125.497</ele>
        <time>2021-04-01T09:18:17.164Z</time>
      </trkpt>
      <trkpt lat="43.1248173" lon="-2.7758754">
        <ele>125.486</ele>
        <time>2021-04-01T09:18:17.219Z</time>
      </trkpt>
      <trkpt lat="43.1248212" lon="-2.775879">
        <ele>125.531</ele>
        <time>2021-04-01T09:18:17.274Z</time>
      </trkpt>
      <trkpt lat="43.1248247" lon="-2.7758839">
        <ele>125.623</ele>
        <time>2021-04-01T09:18:17.329Z</time>
      </trkpt>
      <trkpt lat="43.124828" lon="-2.7758888">
        <ele>125.653</ele>
        <time>2021-04-01T09:18:17.384Z</time>
      </trkpt>
      <trkpt lat="43.1248316" lon="-2.7758929">
        <ele>125.622</ele>
        <time>2021-04-01T09:18:17.439Z</time>
      </trkpt>
      <trkpt lat="43.1248352" lon="-2.775897">
        <ele>125.584</ele>
        <time>2021-04-01T09:18:17.494Z</time>
      </trkpt>
      <trkpt lat="43.1248387" lon="-2.7759012">
        <ele>125.567</ele>
        <time>2021-04-01T09:18:17.549Z</time>
      </trkpt>
      <trkpt lat="43.1248421" lon="-2.7759051">
        <ele>125.56</ele>
        <time>2021-04-01T09:18:17.604Z</time>
      </trkpt>
      <trkpt lat="43.1248453" lon="-2.7759089">
        <ele>125.558</ele>
        <time>2021-04-01T09:18:17.659Z</time>
      </trkpt>
      <trkpt lat="43.124849" lon="-2.7759125">
        <ele>125.505</ele>
        <time>2021-04-01T09:18:17.714Z</time>
      </trkpt>
      <trkpt lat="43.1248528" lon="-2.7759164">
        <ele>125.478</ele>
        <time>2021-04-01T09:18:17.769Z</time>
      </trkpt>
      <trkpt lat="43.1248563" lon="-2.7759198">
        <ele>125.449</ele>
        <time>2021-04-01T09:18:17.824Z</time>
      </trkpt>
      <trkpt lat="43.1248599" lon="-2.7759233">
        <ele>125.389</ele>
        <time>2021-04-01T09:18:17.879Z</time>
      </trkpt>
      <trkpt lat="43.1248638" lon="-2.7759268">
        <ele>125.331</ele>
        <time>2021-04-01T09:18:17.934Z</time>
      </trkpt>
      <trkpt lat="43.1248672" lon="-2.7759305">
        <ele>125.267</ele>
        <time>2021-04-01T09:18:17.989Z</time>
      </trkpt>
      <trkpt lat="43.1248706" lon="-2.7759341">
        <ele>125.213</ele>
        <time>2021-04-01T09:18:18.044Z</time>
      </trkpt>
      <trkpt lat="43.1248743" lon="-2.7759376">
        <ele>125.171</ele>
        <time>2021-04-01T09:18:18.098Z</time>
      </trkpt>
      <trkpt lat="43.1248778" lon="-2.7759411">
        <ele>125.142</ele>
        <time>2021-04-01T09:18:18.153Z</time>
      </trkpt>
      <trkpt lat="43.1248816" lon="-2.7759451">
        <ele>125.13</ele>
        <time>2021-04-01T09:18:18.208Z</time>
      </trkpt>
      <trkpt lat="43.124885" lon="-2.7759492">
        <ele>125.11</ele>
        <time>2021-04-01T09:18:18.263Z</time>
      </trkpt>
      <trkpt lat="43.1248885" lon="-2.7759531">
        <ele>125.092</ele>
        <time>2021-04-01T09:18:18.318Z</time>
      </trkpt>
      <trkpt lat="43.1248918" lon="-2.7759576">
        <ele>125.096</ele>
        <time>2021-04-01T09:18:18.373Z</time>
      </trkpt>
      <trkpt lat="43.124895" lon="-2.7759623">
        <ele>125.138</ele>
        <time>2021-04-01T09:18:18.428Z</time>
      </trkpt>
      <trkpt lat="43.1248986" lon="-2.7759664">
        <ele>125.133</ele>
        <time>2021-04-01T09:18:18.483Z</time>
      </trkpt>
      <trkpt lat="43.1249022" lon="-2.7759704">
        <ele>125.117</ele>
        <time>2021-04-01T09:18:18.538Z</time>
      </trkpt>
      <trkpt lat="43.1249056" lon="-2.7759745">
        <ele>125.125</ele>
        <time>2021-04-01T09:18:18.593Z</time>
      </trkpt>
      <trkpt lat="43.1249088" lon="-2.7759784">
        <ele>125.103</ele>
        <time>2021-04-01T09:18:18.648Z</time>
      </trkpt>
      <trkpt lat="43.1249122" lon="-2.7759822">
        <ele>125.071</ele>
        <time>2021-04-01T09:18:18.703Z</time>
      </trkpt>
      <trkpt lat="43.1249154" lon="-2.775986">
        <ele>125.008</ele>
        <time>2021-04-01T09:18:18.758Z</time>
      </trkpt>
      <trkpt lat="43.1249186" lon="-2.7759897">
        <ele>124.939</ele>
        <time>2021-04-01T09:18:18.813Z</time>
      </trkpt>
      <trkpt lat="43.124922" lon="-2.7759935">
        <ele>124.909</ele>
        <time>2021-04-01T09:18:18.868Z</time>
      </trkpt>
      <trkpt lat="43.1249257" lon="-2.7759972">
        <ele>124.895</ele>
        <time>2021-04-01T09:18:18.923Z</time>
      </trkpt>
      <trkpt lat="43.1249291" lon="-2.7760014">
        <ele>124.886</ele>
        <time>2021-04-01T09:18:18.979Z</time>
      </trkpt>
      <trkpt lat="43.1249324" lon="-2.7760059">
        <ele>124.896</ele>
        <time>2021-04-01T09:18:19.034Z</time>
      </trkpt>
      <trkpt lat="43.1249359" lon="-2.7760101">
        <ele>124.895</ele>
        <time>2021-04-01T09:18:19.089Z</time>
      </trkpt>
      <trkpt lat="43.1249393" lon="-2.7760139">
        <ele>124.866</ele>
        <time>2021-04-01T09:18:19.144Z</time>
      </trkpt>
      <trkpt lat="43.1249427" lon="-2.7760177">
        <ele>124.833</ele>
        <time>2021-04-01T09:18:19.199Z</time>
      </trkpt>
      <trkpt lat="43.1249464" lon="-2.7760215">
        <ele>124.807</ele>
        <time>2021-04-01T09:18:19.254Z</time>
      </trkpt>
      <trkpt lat="43.1249501" lon="-2.7760251">
        <ele>124.782</ele>
        <time>2021-04-01T09:18:19.309Z</time>
      </trkpt>
      <trkpt lat="43.1249537" lon="-2.7760288">
        <ele>124.753</ele>
        <time>2021-04-01T09:18:19.364Z</time>
      </trkpt>
      <trkpt lat="43.1249573" lon="-2.7760327">
        <ele>124.727</ele>
        <time>2021-04-01T09:18:19.419Z</time>
      </trkpt>
      <trkpt lat="43.124961" lon="-2.7760365">
        <ele>124.715</ele>
        <time>2021-04-01T09:18:19.474Z</time>
      </trkpt>
      <trkpt lat="43.1249646" lon="-2.77604">
        <ele>124.687</ele>
        <time>2021-04-01T09:18:19.529Z</time>
      </trkpt>
      <trkpt lat="43.1249681" lon="-2.7760436">
        <ele>124.652</ele>
        <time>2021-04-01T09:18:19.584Z</time>
      </trkpt>
      <trkpt lat="43.1249717" lon="-2.7760473">
        <ele>124.615</ele>
        <time>2021-04-01T09:18:19.639Z</time>
      </trkpt>
      <trkpt lat="43.1249756" lon="-2.7760511">
        <ele>124.615</ele>
        <time>2021-04-01T09:18:19.694Z</time>
      </trkpt>
      <trkpt lat="43.1249794" lon="-2.7760549">
        <ele>124.633</ele>
        <time>2021-04-01T09:18:19.749Z</time>
      </trkpt>
      <trkpt lat="43.1249832" lon="-2.7760585">
        <ele>124.622</ele>
        <time>2021-04-01T09:18:19.804Z</time>
      </trkpt>
      <trkpt lat="43.1249868" lon="-2.7760621">
        <ele>124.607</ele>
        <time>2021-04-01T09:18:19.859Z</time>
      </trkpt>
      <trkpt lat="43.1249904" lon="-2.7760655">
        <ele>124.569</ele>
        <time>2021-04-01T09:18:19.914Z</time>
      </trkpt>
      <trkpt lat="43.1249937" lon="-2.776069">
        <ele>124.492</ele>
        <time>2021-04-01T09:18:19.969Z</time>
      </trkpt>
      <trkpt lat="43.1249971" lon="-2.776073">
        <ele>124.482</ele>
        <time>2021-04-01T09:18:20.024Z</time>
      </trkpt>
      <trkpt lat="43.125001" lon="-2.7760767">
        <ele>124.483</ele>
        <time>2021-04-01T09:18:20.079Z</time>
      </trkpt>
      <trkpt lat="43.1250044" lon="-2.7760805">
        <ele>124.461</ele>
        <time>2021-04-01T09:18:20.134Z</time>
      </trkpt>
      <trkpt lat="43.1250078" lon="-2.7760846">
        <ele>124.444</ele>
        <time>2021-04-01T09:18:20.189Z</time>
      </trkpt>
      <trkpt lat="43.1250111" lon="-2.7760882">
        <ele>124.378</ele>
        <time>2021-04-01T09:18:20.244Z</time>
      </trkpt>
      <trkpt lat="43.1250148" lon="-2.7760918">
        <ele>124.353</ele>
        <time>2021-04-01T09:18:20.299Z</time>
      </trkpt>
      <trkpt lat="43.1250183" lon="-2.7760957">
        <ele>124.343</ele>
        <time>2021-04-01T09:18:20.354Z</time>
      </trkpt>
      <trkpt lat="43.1250218" lon="-2.7760999">
        <ele>124.339</ele>
        <time>2021-04-01T09:18:20.409Z</time>
      </trkpt>
      <trkpt lat="43.1250249" lon="-2.7761038">
        <ele>124.282</ele>
        <time>2021-04-01T09:18:20.464Z</time>
      </trkpt>
      <trkpt lat="43.1250282" lon="-2.7761081">
        <ele>124.285</ele>
        <time>2021-04-01T09:18:20.519Z</time>
      </trkpt>
      <trkpt lat="43.1250316" lon="-2.7761117">
        <ele>124.246</ele>
        <time>2021-04-01T09:18:20.574Z</time>
      </trkpt>
      <trkpt lat="43.1250351" lon="-2.7761154">
        <ele>124.233</ele>
        <time>2021-04-01T09:18:20.629Z</time>
      </trkpt>
      <trkpt lat="43.1250386" lon="-2.776119">
        <ele>124.177</ele>
        <time>2021-04-01T09:18:20.684Z</time>
      </trkpt>
      <trkpt lat="43.1250426" lon="-2.7761224">
        <ele>124.185</ele>
        <time>2021-04-01T09:18:20.739Z</time>
      </trkpt>
      <trkpt lat="43.1250464" lon="-2.776126">
        <ele>124.172</ele>
        <time>2021-04-01T09:18:20.794Z</time>
      </trkpt>
      <trkpt lat="43.1250499" lon="-2.7761296">
        <ele>124.132</ele>
        <time>2021-04-01T09:18:20.849Z</time>
      </trkpt>
      <trkpt lat="43.1250535" lon="-2.7761334">
        <ele>124.113</ele>
        <time>2021-04-01T09:18:20.904Z</time>
      </trkpt>
      <trkpt lat="43.1250574" lon="-2.7761371">
        <ele>124.11</ele>
        <time>2021-04-01T09:18:20.959Z</time>
      </trkpt>
      <trkpt lat="43.1250611" lon="-2.7761409">
        <ele>124.094</ele>
        <time>2021-04-01T09:18:21.014Z</time>
      </trkpt>
      <trkpt lat="43.1250648" lon="-2.7761445">
        <ele>124.083</ele>
        <time>2021-04-01T09:18:21.069Z</time>
      </trkpt>
      <trkpt lat="43.1250684" lon="-2.7761478">
        <ele>124.017</ele>
        <time>2021-04-01T09:18:21.124Z</time>
      </trkpt>
      <trkpt lat="43.1250719" lon="-2.7761515">
        <ele>123.976</ele>
        <time>2021-04-01T09:18:21.179Z</time>
      </trkpt>
      <trkpt lat="43.1250757" lon="-2.7761551">
        <ele>123.989</ele>
        <time>2021-04-01T09:18:21.234Z</time>
      </trkpt>
      <trkpt lat="43.1250793" lon="-2.776159">
        <ele>123.966</ele>
        <time>2021-04-01T09:18:21.289Z</time>
      </trkpt>
      <trkpt lat="43.1250829" lon="-2.7761632">
        <ele>123.956</ele>
        <time>2021-04-01T09:18:21.344Z</time>
      </trkpt>
      <trkpt lat="43.1250865" lon="-2.7761672">
        <ele>123.958</ele>
        <time>2021-04-01T09:18:21.399Z</time>
      </trkpt>
      <trkpt lat="43.1250904" lon="-2.7761709">
        <ele>123.947</ele>
        <time>2021-04-01T09:18:21.454Z</time>
      </trkpt>
      <trkpt lat="43.1250944" lon="-2.776174">
        <ele>123.919</ele>
        <time>2021-04-01T09:18:21.509Z</time>
      </trkpt>
      <trkpt lat="43.1250985" lon="-2.7761768">
        <ele>123.856</ele>
        <time>2021-04-01T09:18:21.564Z</time>
      </trkpt>
      <trkpt lat="43.1251021" lon="-2.7761803">
        <ele>123.826</ele>
        <time>2021-04-01T09:18:21.619Z</time>
      </trkpt>
      <trkpt lat="43.1251056" lon="-2.7761839">
        <ele>123.753</ele>
        <time>2021-04-01T09:18:21.674Z</time>
      </trkpt>
      <trkpt lat="43.1251094" lon="-2.7761872">
        <ele>123.695</ele>
        <time>2021-04-01T09:18:21.729Z</time>
      </trkpt>
      <trkpt lat="43.1251131" lon="-2.7761908">
        <ele>123.652</ele>
        <time>2021-04-01T09:18:21.784Z</time>
      </trkpt>
      <trkpt lat="43.125117" lon="-2.7761941">
        <ele>123.622</ele>
        <time>2021-04-01T09:18:21.839Z</time>
      </trkpt>
      <trkpt lat="43.1251209" lon="-2.7761976">
        <ele>123.618</ele>
        <time>2021-04-01T09:18:21.894Z</time>
      </trkpt>
      <trkpt lat="43.1251242" lon="-2.7762015">
        <ele>123.578</ele>
        <time>2021-04-01T09:18:21.949Z</time>
      </trkpt>
      <trkpt lat="43.1251281" lon="-2.7762053">
        <ele>123.559</ele>
        <time>2021-04-01T09:18:22.004Z</time>
      </trkpt>
      <trkpt lat="43.1251319" lon="-2.7762087">
        <ele>123.506</ele>
        <time>2021-04-01T09:18:22.059Z</time>
      </trkpt>
      <trkpt lat="43.1251353" lon="-2.7762128">
        <ele>123.478</ele>
        <time>2021-04-01T09:18:22.114Z</time>
      </trkpt>
      <trkpt lat="43.125139" lon="-2.7762166">
        <ele>123.47</ele>
        <time>2021-04-01T09:18:22.169Z</time>
      </trkpt>
      <trkpt lat="43.1251427" lon="-2.7762206">
        <ele>123.454</ele>
        <time>2021-04-01T09:18:22.224Z</time>
      </trkpt>
      <trkpt lat="43.1251468" lon="-2.7762247">
        <ele>123.472</ele>
        <time>2021-04-01T09:18:22.279Z</time>
      </trkpt>
      <trkpt lat="43.1251504" lon="-2.776229">
        <ele>123.485</ele>
        <time>2021-04-01T09:18:22.334Z</time>
      </trkpt>
      <trkpt lat="43.1251538" lon="-2.7762333">
        <ele>123.492</ele>
        <time>2021-04-01T09:18:22.389Z</time>
      </trkpt>
      <trkpt lat="43.1251571" lon="-2.7762381">
        <ele>123.49</ele>
        <time>2021-04-01T09:18:22.444Z</time>
      </trkpt>
      <trkpt lat="43.1251607" lon="-2.776243">
        <ele>123.529</ele>
        <time>2021-04-01T09:18:22.499Z</time>
      </trkpt>
      <trkpt lat="43.1251642" lon="-2.7762476">
        <ele>123.56</ele>
        <time>2021-04-01T09:18:22.554Z</time>
      </trkpt>
      <trkpt lat="43.1251678" lon="-2.7762518">
        <ele>123.562</ele>
        <time>2021-04-01T09:18:22.609Z</time>
      </trkpt>
      <trkpt lat="43.1251717" lon="-2.7762554">
        <ele>123.553</ele>
        <time>2021-04-01T09:18:22.664Z</time>
      </trkpt>
      <trkpt lat="43.1251752" lon="-2.7762601">
        <ele>123.598</ele>
        <time>2021-04-01T09:18:22.719Z</time>
      </trkpt>
      <trkpt lat="43.1251788" lon="-2.7762646">
        <ele>123.581</ele>
        <time>2021-04-01T09:18:22.774Z</time>
      </trkpt>
      <trkpt lat="43.1251825" lon="-2.776269">
        <ele>123.584</ele>
        <time>2021-04-01T09:18:22.829Z</time>
      </trkpt>
      <trkpt lat="43.1251861" lon="-2.7762731">
        <ele>123.6</ele>
        <time>2021-04-01T09:18:22.884Z</time>
      </trkpt>
      <trkpt lat="43.12519" lon="-2.7762766">
        <ele>123.58</ele>
        <time>2021-04-01T09:18:22.939Z</time>
      </trkpt>
      <trkpt lat="43.1251936" lon="-2.7762807">
        <ele>123.543</ele>
        <time>2021-04-01T09:18:22.994Z</time>
      </trkpt>
      <trkpt lat="43.1251971" lon="-2.776285">
        <ele>123.516</ele>
        <time>2021-04-01T09:18:23.049Z</time>
      </trkpt>
      <trkpt lat="43.1252008" lon="-2.7762886">
        <ele>123.491</ele>
        <time>2021-04-01T09:18:23.104Z</time>
      </trkpt>
      <trkpt lat="43.1252047" lon="-2.7762922">
        <ele>123.449</ele>
        <time>2021-04-01T09:18:23.159Z</time>
      </trkpt>
      <trkpt lat="43.1252086" lon="-2.7762959">
        <ele>123.437</ele>
        <time>2021-04-01T09:18:23.214Z</time>
      </trkpt>
      <trkpt lat="43.1252126" lon="-2.7762995">
        <ele>123.418</ele>
        <time>2021-04-01T09:18:23.269Z</time>
      </trkpt>
      <trkpt lat="43.1252163" lon="-2.7763036">
        <ele>123.408</ele>
        <time>2021-04-01T09:18:23.324Z</time>
      </trkpt>
      <trkpt lat="43.1252201" lon="-2.7763076">
        <ele>123.398</ele>
        <time>2021-04-01T09:18:23.379Z</time>
      </trkpt>
      <trkpt lat="43.1252239" lon="-2.7763114">
        <ele>123.365</ele>
        <time>2021-04-01T09:18:23.434Z</time>
      </trkpt>
      <trkpt lat="43.1252277" lon="-2.7763152">
        <ele>123.381</ele>
        <time>2021-04-01T09:18:23.489Z</time>
      </trkpt>
      <trkpt lat="43.1252316" lon="-2.7763192">
        <ele>123.354</ele>
        <time>2021-04-01T09:18:23.544Z</time>
      </trkpt>
      <trkpt lat="43.1252354" lon="-2.7763231">
        <ele>123.354</ele>
        <time>2021-04-01T09:18:23.599Z</time>
      </trkpt>
      <trkpt lat="43.1252396" lon="-2.7763266">
        <ele>123.327</ele>
        <time>2021-04-01T09:18:23.654Z</time>
      </trkpt>
      <trkpt lat="43.1252433" lon="-2.7763307">
        <ele>123.326</ele>
        <time>2021-04-01T09:18:23.709Z</time>
      </trkpt>
      <trkpt lat="43.125247" lon="-2.7763351">
        <ele>123.335</ele>
        <time>2021-04-01T09:18:23.764Z</time>
      </trkpt>
      <trkpt lat="43.1252509" lon="-2.7763392">
        <ele>123.334</ele>
        <time>2021-04-01T09:18:23.819Z</time>
      </trkpt>
      <trkpt lat="43.1252548" lon="-2.7763429">
        <ele>123.306</ele>
        <time>2021-04-01T09:18:23.874Z</time>
      </trkpt>
      <trkpt lat="43.1252587" lon="-2.7763468">
        <ele>123.34</ele>
        <time>2021-04-01T09:18:23.929Z</time>
      </trkpt>
      <trkpt lat="43.1252624" lon="-2.7763508">
        <ele>123.353</ele>
        <time>2021-04-01T09:18:23.984Z</time>
      </trkpt>
      <trkpt lat="43.1252663" lon="-2.7763543">
        <ele>123.301</ele>
        <time>2021-04-01T09:18:24.039Z</time>
      </trkpt>
      <trkpt lat="43.1252703" lon="-2.7763581">
        <ele>123.29</ele>
        <time>2021-04-01T09:18:24.094Z</time>
      </trkpt>
      <trkpt lat="43.1252742" lon="-2.7763621">
        <ele>123.288</ele>
        <time>2021-04-01T09:18:24.149Z</time>
      </trkpt>
      <trkpt lat="43.1252779" lon="-2.7763665">
        <ele>123.279</ele>
        <time>2021-04-01T09:18:24.204Z</time>
      </trkpt>
      <trkpt lat="43.1252817" lon="-2.7763703">
        <ele>123.283</ele>
        <time>2021-04-01T09:18:24.259Z</time>
      </trkpt>
      <trkpt lat="43.1252855" lon="-2.7763746">
        <ele>123.278</ele>
        <time>2021-04-01T09:18:24.314Z</time>
      </trkpt>
      <trkpt lat="43.1252894" lon="-2.7763783">
        <ele>123.249</ele>
        <time>2021-04-01T09:18:24.369Z</time>
      </trkpt>
      <trkpt lat="43.1252931" lon="-2.7763823">
        <ele>123.241</ele>
        <time>2021-04-01T09:18:24.424Z</time>
      </trkpt>
      <trkpt lat="43.1252971" lon="-2.7763863">
        <ele>123.246</ele>
        <time>2021-04-01T09:18:24.479Z</time>
      </trkpt>
      <trkpt lat="43.1253012" lon="-2.7763897">
        <ele>123.203</ele>
        <time>2021-04-01T09:18:24.534Z</time>
      </trkpt>
      <trkpt lat="43.1253051" lon="-2.7763938">
        <ele>123.191</ele>
        <time>2021-04-01T09:18:24.589Z</time>
      </trkpt>
      <trkpt lat="43.1253089" lon="-2.7763977">
        <ele>123.185</ele>
        <time>2021-04-01T09:18:24.644Z</time>
      </trkpt>
      <trkpt lat="43.1253129" lon="-2.7764015">
        <ele>123.166</ele>
        <time>2021-04-01T09:18:24.699Z</time>
      </trkpt>
      <trkpt lat="43.1253166" lon="-2.7764055">
        <ele>123.139</ele>
        <time>2021-04-01T09:18:24.754Z</time>
      </trkpt>
      <trkpt lat="43.1253203" lon="-2.7764096">
        <ele>123.136</ele>
        <time>2021-04-01T09:18:24.809Z</time>
      </trkpt>
      <trkpt lat="43.1253239" lon="-2.776414">
        <ele>123.162</ele>
        <time>2021-04-01T09:18:24.864Z</time>
      </trkpt>
      <trkpt lat="43.1253276" lon="-2.7764181">
        <ele>123.145</ele>
        <time>2021-04-01T09:18:24.919Z</time>
      </trkpt>
      <trkpt lat="43.1253315" lon="-2.7764221">
        <ele>123.148</ele>
        <time>2021-04-01T09:18:24.974Z</time>
      </trkpt>
      <trkpt lat="43.1253353" lon="-2.7764259">
        <ele>123.118</ele>
        <time>2021-04-01T09:18:25.029Z</time>
      </trkpt>
      <trkpt lat="43.1253392" lon="-2.7764298">
        <ele>123.064</ele>
        <time>2021-04-01T09:18:25.084Z</time>
      </trkpt>
      <trkpt lat="43.1253432" lon="-2.7764336">
        <ele>123.057</ele>
        <time>2021-04-01T09:18:25.139Z</time>
      </trkpt>
      <trkpt lat="43.1253467" lon="-2.7764378">
        <ele>123.068</ele>
        <time>2021-04-01T09:18:25.194Z</time>
      </trkpt>
      <trkpt lat="43.1253506" lon="-2.7764415">
        <ele>123.051</ele>
        <time>2021-04-01T09:18:25.249Z</time>
      </trkpt>
      <trkpt lat="43.1253546" lon="-2.7764454">
        <ele>123.05</ele>
        <time>2021-04-01T09:18:25.304Z</time>
      </trkpt>
      <trkpt lat="43.1253583" lon="-2.7764499">
        <ele>123.067</ele>
        <time>2021-04-01T09:18:25.359Z</time>
      </trkpt>
      <trkpt lat="43.1253622" lon="-2.7764537">
        <ele>123.03</ele>
        <time>2021-04-01T09:18:25.414Z</time>
      </trkpt>
      <trkpt lat="43.1253661" lon="-2.7764577">
        <ele>123.036</ele>
        <time>2021-04-01T09:18:25.469Z</time>
      </trkpt>
      <trkpt lat="43.1253699" lon="-2.7764618">
        <ele>123.065</ele>
        <time>2021-04-01T09:18:25.524Z</time>
      </trkpt>
      <trkpt lat="43.1253739" lon="-2.7764657">
        <ele>123.066</ele>
        <time>2021-04-01T09:18:25.579Z</time>
      </trkpt>
      <trkpt lat="43.1253777" lon="-2.7764698">
        <ele>123.06</ele>
        <time>2021-04-01T09:18:25.634Z</time>
      </trkpt>
      <trkpt lat="43.1253814" lon="-2.7764739">
        <ele>123.061</ele>
        <time>2021-04-01T09:18:25.689Z</time>
      </trkpt>
      <trkpt lat="43.1253852" lon="-2.776478">
        <ele>123.063</ele>
        <time>2021-04-01T09:18:25.744Z</time>
      </trkpt>
      <trkpt lat="43.125389" lon="-2.7764824">
        <ele>123.103</ele>
        <time>2021-04-01T09:18:25.799Z</time>
      </trkpt>
      <trkpt lat="43.1253929" lon="-2.7764863">
        <ele>123.093</ele>
        <time>2021-04-01T09:18:25.854Z</time>
      </trkpt>
      <trkpt lat="43.1253968" lon="-2.7764902">
        <ele>123.107</ele>
        <time>2021-04-01T09:18:25.909Z</time>
      </trkpt>
      <trkpt lat="43.1254006" lon="-2.776494">
        <ele>123.09</ele>
        <time>2021-04-01T09:18:25.964Z</time>
      </trkpt>
      <trkpt lat="43.1254043" lon="-2.7764978">
        <ele>123.036</ele>
        <time>2021-04-01T09:18:26.019Z</time>
      </trkpt>
      <trkpt lat="43.1254084" lon="-2.7765013">
        <ele>123.035</ele>
        <time>2021-04-01T09:18:26.074Z</time>
      </trkpt>
      <trkpt lat="43.1254123" lon="-2.7765056">
        <ele>123.071</ele>
        <time>2021-04-01T09:18:26.129Z</time>
      </trkpt>
      <trkpt lat="43.1254162" lon="-2.776509">
        <ele>123.025</ele>
        <time>2021-04-01T09:18:26.184Z</time>
      </trkpt>
      <trkpt lat="43.12542" lon="-2.7765123">
        <ele>122.966</ele>
        <time>2021-04-01T09:18:26.239Z</time>
      </trkpt>
      <trkpt lat="43.1254238" lon="-2.7765162">
        <ele>122.953</ele>
        <time>2021-04-01T09:18:26.294Z</time>
      </trkpt>
      <trkpt lat="43.1254276" lon="-2.7765203">
        <ele>122.959</ele>
        <time>2021-04-01T09:18:26.349Z</time>
      </trkpt>
      <trkpt lat="43.1254316" lon="-2.7765234">
        <ele>122.916</ele>
        <time>2021-04-01T09:18:26.404Z</time>
      </trkpt>
      <trkpt lat="43.1254356" lon="-2.776527">
        <ele>122.857</ele>
        <time>2021-04-01T09:18:26.459Z</time>
      </trkpt>
      <trkpt lat="43.1254393" lon="-2.7765305">
        <ele>122.818</ele>
        <time>2021-04-01T09:18:26.514Z</time>
      </trkpt>
      <trkpt lat="43.1254433" lon="-2.7765336">
        <ele>122.756</ele>
        <time>2021-04-01T09:18:26.569Z</time>
      </trkpt>
      <trkpt lat="43.1254471" lon="-2.7765367">
        <ele>122.678</ele>
        <time>2021-04-01T09:18:26.624Z</time>
      </trkpt>
      <trkpt lat="43.125451" lon="-2.7765404">
        <ele>122.658</ele>
        <time>2021-04-01T09:18:26.679Z</time>
      </trkpt>
      <trkpt lat="43.1254548" lon="-2.7765441">
        <ele>122.646</ele>
        <time>2021-04-01T09:18:26.734Z</time>
      </trkpt>
      <trkpt lat="43.1254587" lon="-2.7765477">
        <ele>122.617</ele>
        <time>2021-04-01T09:18:26.789Z</time>
      </trkpt>
      <trkpt lat="43.1254625" lon="-2.7765515">
        <ele>122.603</ele>
        <time>2021-04-01T09:18:26.844Z</time>
      </trkpt>
      <trkpt lat="43.1254663" lon="-2.7765553">
        <ele>122.563</ele>
        <time>2021-04-01T09:18:26.899Z</time>
      </trkpt>
      <trkpt lat="43.1254703" lon="-2.7765587">
        <ele>122.539</ele>
        <time>2021-04-01T09:18:26.954Z</time>
      </trkpt>
      <trkpt lat="43.1254744" lon="-2.7765624">
        <ele>122.558</ele>
        <time>2021-04-01T09:18:27.009Z</time>
      </trkpt>
      <trkpt lat="43.1254786" lon="-2.7765661">
        <ele>122.561</ele>
        <time>2021-04-01T09:18:27.067Z</time>
      </trkpt>
      <trkpt lat="43.1254824" lon="-2.7765693">
        <ele>122.492</ele>
        <time>2021-04-01T09:18:27.125Z</time>
      </trkpt>
      <trkpt lat="43.1254864" lon="-2.7765724">
        <ele>122.411</ele>
        <time>2021-04-01T09:18:27.183Z</time>
      </trkpt>
      <trkpt lat="43.1254903" lon="-2.7765763">
        <ele>122.404</ele>
        <time>2021-04-01T09:18:27.241Z</time>
      </trkpt>
      <trkpt lat="43.1254943" lon="-2.7765802">
        <ele>122.411</ele>
        <time>2021-04-01T09:18:27.299Z</time>
      </trkpt>
      <trkpt lat="43.1254983" lon="-2.7765839">
        <ele>122.431</ele>
        <time>2021-04-01T09:18:27.357Z</time>
      </trkpt>
      <trkpt lat="43.1255022" lon="-2.7765877">
        <ele>122.44</ele>
        <time>2021-04-01T09:18:27.415Z</time>
      </trkpt>
      <trkpt lat="43.125506" lon="-2.7765914">
        <ele>122.421</ele>
        <time>2021-04-01T09:18:27.473Z</time>
      </trkpt>
      <trkpt lat="43.12551" lon="-2.7765951">
        <ele>122.4</ele>
        <time>2021-04-01T09:18:27.531Z</time>
      </trkpt>
      <trkpt lat="43.1255142" lon="-2.7765986">
        <ele>122.416</ele>
        <time>2021-04-01T09:18:27.589Z</time>
      </trkpt>
      <trkpt lat="43.1255181" lon="-2.7766024">
        <ele>122.453</ele>
        <time>2021-04-01T09:18:27.647Z</time>
      </trkpt>
      <trkpt lat="43.125522" lon="-2.7766062">
        <ele>122.453</ele>
        <time>2021-04-01T09:18:27.705Z</time>
      </trkpt>
      <trkpt lat="43.125526" lon="-2.7766094">
        <ele>122.425</ele>
        <time>2021-04-01T09:18:27.763Z</time>
      </trkpt>
      <trkpt lat="43.1255299" lon="-2.7766128">
        <ele>122.397</ele>
        <time>2021-04-01T09:18:27.821Z</time>
      </trkpt>
      <trkpt lat="43.1255338" lon="-2.7766165">
        <ele>122.407</ele>
        <time>2021-04-01T09:18:27.879Z</time>
      </trkpt>
      <trkpt lat="43.1255377" lon="-2.77662">
        <ele>122.408</ele>
        <time>2021-04-01T09:18:27.937Z</time>
      </trkpt>
      <trkpt lat="43.1255417" lon="-2.7766234">
        <ele>122.395</ele>
        <time>2021-04-01T09:18:27.995Z</time>
      </trkpt>
      <trkpt lat="43.1255456" lon="-2.7766272">
        <ele>122.389</ele>
        <time>2021-04-01T09:18:28.054Z</time>
      </trkpt>
      <trkpt lat="43.1255497" lon="-2.7766308">
        <ele>122.404</ele>
        <time>2021-04-01T09:18:28.103Z</time>
      </trkpt>
      <trkpt lat="43.1255533" lon="-2.7766342">
        <ele>122.367</ele>
        <time>2021-04-01T09:18:28.152Z</time>
      </trkpt>
      <trkpt lat="43.1255575" lon="-2.7766374">
        <ele>122.366</ele>
        <time>2021-04-01T09:18:28.201Z</time>
      </trkpt>
      <trkpt lat="43.1255612" lon="-2.7766406">
        <ele>122.317</ele>
        <time>2021-04-01T09:18:28.250Z</time>
      </trkpt>
      <trkpt lat="43.1255651" lon="-2.776644">
        <ele>122.307</ele>
        <time>2021-04-01T09:18:28.300Z</time>
      </trkpt>
      <trkpt lat="43.1255691" lon="-2.7766472">
        <ele>122.273</ele>
        <time>2021-04-01T09:18:28.349Z</time>
      </trkpt>
      <trkpt lat="43.1255728" lon="-2.7766508">
        <ele>122.257</ele>
        <time>2021-04-01T09:18:28.398Z</time>
      </trkpt>
      <trkpt lat="43.1255764" lon="-2.7766543">
        <ele>122.238</ele>
        <time>2021-04-01T09:18:28.447Z</time>
      </trkpt>
      <trkpt lat="43.1255801" lon="-2.7766576">
        <ele>122.227</ele>
        <time>2021-04-01T09:18:28.496Z</time>
      </trkpt>
      <trkpt lat="43.1255842" lon="-2.7766611">
        <ele>122.228</ele>
        <time>2021-04-01T09:18:28.546Z</time>
      </trkpt>
      <trkpt lat="43.1255881" lon="-2.776664">
        <ele>122.188</ele>
        <time>2021-04-01T09:18:28.595Z</time>
      </trkpt>
      <trkpt lat="43.1255919" lon="-2.7766677">
        <ele>122.181</ele>
        <time>2021-04-01T09:18:28.644Z</time>
      </trkpt>
      <trkpt lat="43.125596" lon="-2.7766709">
        <ele>122.163</ele>
        <time>2021-04-01T09:18:28.693Z</time>
      </trkpt>
      <trkpt lat="43.1256" lon="-2.7766741">
        <ele>122.167</ele>
        <time>2021-04-01T09:18:28.742Z</time>
      </trkpt>
      <trkpt lat="43.1256039" lon="-2.7766775">
        <ele>122.173</ele>
        <time>2021-04-01T09:18:28.792Z</time>
      </trkpt>
      <trkpt lat="43.1256078" lon="-2.7766805">
        <ele>122.143</ele>
        <time>2021-04-01T09:18:28.841Z</time>
      </trkpt>
      <trkpt lat="43.1256118" lon="-2.7766837">
        <ele>122.129</ele>
        <time>2021-04-01T09:18:28.890Z</time>
      </trkpt>
      <trkpt lat="43.1256161" lon="-2.7766863">
        <ele>122.119</ele>
        <time>2021-04-01T09:18:28.939Z</time>
      </trkpt>
      <trkpt lat="43.12562" lon="-2.7766896">
        <ele>122.136</ele>
        <time>2021-04-01T09:18:28.989Z</time>
      </trkpt>
      <trkpt lat="43.1256241" lon="-2.776693">
        <ele>122.162</ele>
        <time>2021-04-01T09:18:29.047Z</time>
      </trkpt>
      <trkpt lat="43.1256281" lon="-2.7766964">
        <ele>122.167</ele>
        <time>2021-04-01T09:18:29.105Z</time>
      </trkpt>
      <trkpt lat="43.1256323" lon="-2.7766993">
        <ele>122.144</ele>
        <time>2021-04-01T09:18:29.163Z</time>
      </trkpt>
      <trkpt lat="43.1256361" lon="-2.776702">
        <ele>122.11</ele>
        <time>2021-04-01T09:18:29.221Z</time>
      </trkpt>
      <trkpt lat="43.1256398" lon="-2.776705">
        <ele>122.05</ele>
        <time>2021-04-01T09:18:29.279Z</time>
      </trkpt>
      <trkpt lat="43.1256433" lon="-2.7767081">
        <ele>121.991</ele>
        <time>2021-04-01T09:18:29.337Z</time>
      </trkpt>
      <trkpt lat="43.1256469" lon="-2.7767108">
        <ele>121.926</ele>
        <time>2021-04-01T09:18:29.395Z</time>
      </trkpt>
      <trkpt lat="43.1256507" lon="-2.7767132">
        <ele>121.867</ele>
        <time>2021-04-01T09:18:29.453Z</time>
      </trkpt>
      <trkpt lat="43.1256546" lon="-2.7767153">
        <ele>121.803</ele>
        <time>2021-04-01T09:18:29.511Z</time>
      </trkpt>
      <trkpt lat="43.1256585" lon="-2.7767177">
        <ele>121.739</ele>
        <time>2021-04-01T09:18:29.569Z</time>
      </trkpt>
      <trkpt lat="43.1256624" lon="-2.7767201">
        <ele>121.681</ele>
        <time>2021-04-01T09:18:29.627Z</time>
      </trkpt>
      <trkpt lat="43.1256663" lon="-2.7767231">
        <ele>121.65</ele>
        <time>2021-04-01T09:18:29.685Z</time>
      </trkpt>
      <trkpt lat="43.1256703" lon="-2.7767261">
        <ele>121.644</ele>
        <time>2021-04-01T09:18:29.743Z</time>
      </trkpt>
      <trkpt lat="43.1256742" lon="-2.7767288">
        <ele>121.623</ele>
        <time>2021-04-01T09:18:29.801Z</time>
      </trkpt>
      <trkpt lat="43.1256782" lon="-2.7767316">
        <ele>121.601</ele>
        <time>2021-04-01T09:18:29.859Z</time>
      </trkpt>
      <trkpt lat="43.1256821" lon="-2.7767343">
        <ele>121.594</ele>
        <time>2021-04-01T09:18:29.917Z</time>
      </trkpt>
      <trkpt lat="43.1256861" lon="-2.7767372">
        <ele>121.578</ele>
        <time>2021-04-01T09:18:29.975Z</time>
      </trkpt>
      <trkpt lat="43.1256901" lon="-2.7767399">
        <ele>121.561</ele>
        <time>2021-04-01T09:18:30.034Z</time>
      </trkpt>
      <trkpt lat="43.1256941" lon="-2.7767428">
        <ele>121.545</ele>
        <time>2021-04-01T09:18:30.089Z</time>
      </trkpt>
      <trkpt lat="43.1256982" lon="-2.7767457">
        <ele>121.528</ele>
        <time>2021-04-01T09:18:30.144Z</time>
      </trkpt>
      <trkpt lat="43.1257025" lon="-2.7767482">
        <ele>121.536</ele>
        <time>2021-04-01T09:18:30.199Z</time>
      </trkpt>
      <trkpt lat="43.1257066" lon="-2.7767509">
        <ele>121.545</ele>
        <time>2021-04-01T09:18:30.254Z</time>
      </trkpt>
      <trkpt lat="43.1257106" lon="-2.7767533">
        <ele>121.513</ele>
        <time>2021-04-01T09:18:30.309Z</time>
      </trkpt>
      <trkpt lat="43.1257148" lon="-2.7767561">
        <ele>121.506</ele>
        <time>2021-04-01T09:18:30.364Z</time>
      </trkpt>
      <trkpt lat="43.125719" lon="-2.776759">
        <ele>121.527</ele>
        <time>2021-04-01T09:18:30.419Z</time>
      </trkpt>
      <trkpt lat="43.1257233" lon="-2.7767616">
        <ele>121.556</ele>
        <time>2021-04-01T09:18:30.474Z</time>
      </trkpt>
      <trkpt lat="43.1257276" lon="-2.7767644">
        <ele>121.578</ele>
        <time>2021-04-01T09:18:30.529Z</time>
      </trkpt>
      <trkpt lat="43.1257316" lon="-2.7767673">
        <ele>121.555</ele>
        <time>2021-04-01T09:18:30.584Z</time>
      </trkpt>
      <trkpt lat="43.1257357" lon="-2.77677">
        <ele>121.562</ele>
        <time>2021-04-01T09:18:30.639Z</time>
      </trkpt>
      <trkpt lat="43.1257398" lon="-2.7767728">
        <ele>121.572</ele>
        <time>2021-04-01T09:18:30.694Z</time>
      </trkpt>
      <trkpt lat="43.1257439" lon="-2.7767755">
        <ele>121.541</ele>
        <time>2021-04-01T09:18:30.749Z</time>
      </trkpt>
      <trkpt lat="43.1257481" lon="-2.7767783">
        <ele>121.545</ele>
        <time>2021-04-01T09:18:30.804Z</time>
      </trkpt>
      <trkpt lat="43.1257522" lon="-2.7767811">
        <ele>121.526</ele>
        <time>2021-04-01T09:18:30.859Z</time>
      </trkpt>
      <trkpt lat="43.1257562" lon="-2.776784">
        <ele>121.526</ele>
        <time>2021-04-01T09:18:30.914Z</time>
      </trkpt>
      <trkpt lat="43.12576" lon="-2.7767869">
        <ele>121.496</ele>
        <time>2021-04-01T09:18:30.969Z</time>
      </trkpt>
      <trkpt lat="43.1257641" lon="-2.7767897">
        <ele>121.507</ele>
        <time>2021-04-01T09:18:31.024Z</time>
      </trkpt>
      <trkpt lat="43.1257683" lon="-2.7767926">
        <ele>121.496</ele>
        <time>2021-04-01T09:18:31.079Z</time>
      </trkpt>
      <trkpt lat="43.1257722" lon="-2.7767955">
        <ele>121.475</ele>
        <time>2021-04-01T09:18:31.134Z</time>
      </trkpt>
      <trkpt lat="43.1257764" lon="-2.776798">
        <ele>121.463</ele>
        <time>2021-04-01T09:18:31.189Z</time>
      </trkpt>
      <trkpt lat="43.1257805" lon="-2.7768008">
        <ele>121.469</ele>
        <time>2021-04-01T09:18:31.244Z</time>
      </trkpt>
      <trkpt lat="43.1257845" lon="-2.7768035">
        <ele>121.405</ele>
        <time>2021-04-01T09:18:31.299Z</time>
      </trkpt>
      <trkpt lat="43.1257886" lon="-2.7768062">
        <ele>121.389</ele>
        <time>2021-04-01T09:18:31.354Z</time>
      </trkpt>
      <trkpt lat="43.1257927" lon="-2.7768085">
        <ele>121.36</ele>
        <time>2021-04-01T09:18:31.409Z</time>
      </trkpt>
      <trkpt lat="43.1257969" lon="-2.7768109">
        <ele>121.349</ele>
        <time>2021-04-01T09:18:31.464Z</time>
      </trkpt>
      <trkpt lat="43.1258012" lon="-2.7768132">
        <ele>121.339</ele>
        <time>2021-04-01T09:18:31.519Z</time>
      </trkpt>
      <trkpt lat="43.1258052" lon="-2.7768156">
        <ele>121.271</ele>
        <time>2021-04-01T09:18:31.574Z</time>
      </trkpt>
      <trkpt lat="43.1258093" lon="-2.7768184">
        <ele>121.289</ele>
        <time>2021-04-01T09:18:31.629Z</time>
      </trkpt>
      <trkpt lat="43.1258134" lon="-2.7768208">
        <ele>121.283</ele>
        <time>2021-04-01T09:18:31.684Z</time>
      </trkpt>
      <trkpt lat="43.1258175" lon="-2.7768231">
        <ele>121.256</ele>
        <time>2021-04-01T09:18:31.739Z</time>
      </trkpt>
      <trkpt lat="43.1258215" lon="-2.7768258">
        <ele>121.267</ele>
        <time>2021-04-01T09:18:31.794Z</time>
      </trkpt>
      <trkpt lat="43.1258255" lon="-2.7768284">
        <ele>121.246</ele>
        <time>2021-04-01T09:18:31.849Z</time>
      </trkpt>
      <trkpt lat="43.1258296" lon="-2.7768307">
        <ele>121.209</ele>
        <time>2021-04-01T09:18:31.904Z</time>
      </trkpt>
      <trkpt lat="43.1258339" lon="-2.7768329">
        <ele>121.189</ele>
        <time>2021-04-01T09:18:31.959Z</time>
      </trkpt>
      <trkpt lat="43.1258382" lon="-2.7768351">
        <ele>121.192</ele>
        <time>2021-04-01T09:18:32.014Z</time>
      </trkpt>
      <trkpt lat="43.1258423" lon="-2.7768376">
        <ele>121.184</ele>
        <time>2021-04-01T09:18:32.072Z</time>
      </trkpt>
      <trkpt lat="43.1258465" lon="-2.7768399">
        <ele>121.164</ele>
        <time>2021-04-01T09:18:32.130Z</time>
      </trkpt>
      <trkpt lat="43.1258504" lon="-2.7768425">
        <ele>121.126</ele>
        <time>2021-04-01T09:18:32.188Z</time>
      </trkpt>
      <trkpt lat="43.1258545" lon="-2.7768452">
        <ele>121.111</ele>
        <time>2021-04-01T09:18:32.246Z</time>
      </trkpt>
      <trkpt lat="43.1258587" lon="-2.7768475">
        <ele>121.111</ele>
        <time>2021-04-01T09:18:32.304Z</time>
      </trkpt>
      <trkpt lat="43.125863" lon="-2.7768501">
        <ele>121.094</ele>
        <time>2021-04-01T09:18:32.362Z</time>
      </trkpt>
      <trkpt lat="43.1258674" lon="-2.7768521">
        <ele>121.08</ele>
        <time>2021-04-01T09:18:32.420Z</time>
      </trkpt>
      <trkpt lat="43.1258716" lon="-2.7768543">
        <ele>121.063</ele>
        <time>2021-04-01T09:18:32.478Z</time>
      </trkpt>
      <trkpt lat="43.1258759" lon="-2.7768566">
        <ele>121.045</ele>
        <time>2021-04-01T09:18:32.536Z</time>
      </trkpt>
      <trkpt lat="43.12588" lon="-2.7768591">
        <ele>121.032</ele>
        <time>2021-04-01T09:18:32.594Z</time>
      </trkpt>
      <trkpt lat="43.125884" lon="-2.7768618">
        <ele>121.012</ele>
        <time>2021-04-01T09:18:32.652Z</time>
      </trkpt>
      <trkpt lat="43.1258883" lon="-2.7768643">
        <ele>121.016</ele>
        <time>2021-04-01T09:18:32.710Z</time>
      </trkpt>
      <trkpt lat="43.1258925" lon="-2.7768667">
        <ele>120.978</ele>
        <time>2021-04-01T09:18:32.768Z</time>
      </trkpt>
      <trkpt lat="43.1258966" lon="-2.7768693">
        <ele>120.948</ele>
        <time>2021-04-01T09:18:32.826Z</time>
      </trkpt>
      <trkpt lat="43.1259007" lon="-2.776872">
        <ele>120.953</ele>
        <time>2021-04-01T09:18:32.884Z</time>
      </trkpt>
      <trkpt lat="43.1259047" lon="-2.7768745">
        <ele>120.922</ele>
        <time>2021-04-01T09:18:32.942Z</time>
      </trkpt>
      <trkpt lat="43.1259089" lon="-2.776877">
        <ele>120.924</ele>
        <time>2021-04-01T09:18:33.000Z</time>
      </trkpt>
      <trkpt lat="43.125913" lon="-2.7768796">
        <ele>120.904</ele>
        <time>2021-04-01T09:18:33.059Z</time>
      </trkpt>
      <trkpt lat="43.1259171" lon="-2.7768821">
        <ele>120.868</ele>
        <time>2021-04-01T09:18:33.114Z</time>
      </trkpt>
      <trkpt lat="43.1259213" lon="-2.7768846">
        <ele>120.833</ele>
        <time>2021-04-01T09:18:33.169Z</time>
      </trkpt>
      <trkpt lat="43.1259255" lon="-2.7768867">
        <ele>120.788</ele>
        <time>2021-04-01T09:18:33.224Z</time>
      </trkpt>
      <trkpt lat="43.1259297" lon="-2.7768889">
        <ele>120.75</ele>
        <time>2021-04-01T09:18:33.279Z</time>
      </trkpt>
      <trkpt lat="43.1259337" lon="-2.7768914">
        <ele>120.708</ele>
        <time>2021-04-01T09:18:33.334Z</time>
      </trkpt>
      <trkpt lat="43.1259378" lon="-2.7768941">
        <ele>120.675</ele>
        <time>2021-04-01T09:18:33.389Z</time>
      </trkpt>
      <trkpt lat="43.125942" lon="-2.7768964">
        <ele>120.641</ele>
        <time>2021-04-01T09:18:33.444Z</time>
      </trkpt>
      <trkpt lat="43.1259461" lon="-2.7768988">
        <ele>120.594</ele>
        <time>2021-04-01T09:18:33.499Z</time>
      </trkpt>
      <trkpt lat="43.1259502" lon="-2.7769012">
        <ele>120.55</ele>
        <time>2021-04-01T09:18:33.554Z</time>
      </trkpt>
      <trkpt lat="43.1259543" lon="-2.7769035">
        <ele>120.505</ele>
        <time>2021-04-01T09:18:33.609Z</time>
      </trkpt>
      <trkpt lat="43.1259585" lon="-2.7769057">
        <ele>120.448</ele>
        <time>2021-04-01T09:18:33.664Z</time>
      </trkpt>
      <trkpt lat="43.1259626" lon="-2.7769083">
        <ele>120.405</ele>
        <time>2021-04-01T09:18:33.719Z</time>
      </trkpt>
      <trkpt lat="43.1259667" lon="-2.7769109">
        <ele>120.388</ele>
        <time>2021-04-01T09:18:33.774Z</time>
      </trkpt>
      <trkpt lat="43.1259708" lon="-2.7769136">
        <ele>120.373</ele>
        <time>2021-04-01T09:18:33.829Z</time>
      </trkpt>
      <trkpt lat="43.125975" lon="-2.7769163">
        <ele>120.357</ele>
        <time>2021-04-01T09:18:33.884Z</time>
      </trkpt>
      <trkpt lat="43.1259792" lon="-2.7769189">
        <ele>120.33</ele>
        <time>2021-04-01T09:18:33.939Z</time>
      </trkpt>
      <trkpt lat="43.1259833" lon="-2.7769213">
        <ele>120.297</ele>
        <time>2021-04-01T09:18:33.994Z</time>
      </trkpt>
      <trkpt lat="43.1259875" lon="-2.7769239">
        <ele>120.289</ele>
        <time>2021-04-01T09:18:34.049Z</time>
      </trkpt>
      <trkpt lat="43.1259916" lon="-2.7769265">
        <ele>120.275</ele>
        <time>2021-04-01T09:18:34.098Z</time>
      </trkpt>
      <trkpt lat="43.1259958" lon="-2.7769291">
        <ele>120.245</ele>
        <time>2021-04-01T09:18:34.147Z</time>
      </trkpt>
      <trkpt lat="43.1260001" lon="-2.7769318">
        <ele>120.226</ele>
        <time>2021-04-01T09:18:34.196Z</time>
      </trkpt>
      <trkpt lat="43.1260043" lon="-2.7769347">
        <ele>120.218</ele>
        <time>2021-04-01T09:18:34.245Z</time>
      </trkpt>
      <trkpt lat="43.1260086" lon="-2.776937">
        <ele>120.182</ele>
        <time>2021-04-01T09:18:34.295Z</time>
      </trkpt>
      <trkpt lat="43.1260127" lon="-2.7769398">
        <ele>120.167</ele>
        <time>2021-04-01T09:18:34.344Z</time>
      </trkpt>
      <trkpt lat="43.126017" lon="-2.7769426">
        <ele>120.165</ele>
        <time>2021-04-01T09:18:34.393Z</time>
      </trkpt>
      <trkpt lat="43.126021" lon="-2.7769454">
        <ele>120.152</ele>
        <time>2021-04-01T09:18:34.442Z</time>
      </trkpt>
      <trkpt lat="43.1260252" lon="-2.7769481">
        <ele>120.148</ele>
        <time>2021-04-01T09:18:34.491Z</time>
      </trkpt>
      <trkpt lat="43.1260295" lon="-2.7769509">
        <ele>120.142</ele>
        <time>2021-04-01T09:18:34.541Z</time>
      </trkpt>
      <trkpt lat="43.1260337" lon="-2.7769536">
        <ele>120.133</ele>
        <time>2021-04-01T09:18:34.590Z</time>
      </trkpt>
      <trkpt lat="43.1260377" lon="-2.7769563">
        <ele>120.105</ele>
        <time>2021-04-01T09:18:34.639Z</time>
      </trkpt>
      <trkpt lat="43.1260418" lon="-2.7769588">
        <ele>120.069</ele>
        <time>2021-04-01T09:18:34.688Z</time>
      </trkpt>
      <trkpt lat="43.1260459" lon="-2.7769621">
        <ele>120.11</ele>
        <time>2021-04-01T09:18:34.737Z</time>
      </trkpt>
      <trkpt lat="43.1260502" lon="-2.7769652">
        <ele>120.128</ele>
        <time>2021-04-01T09:18:34.787Z</time>
      </trkpt>
      <trkpt lat="43.1260542" lon="-2.7769684">
        <ele>120.135</ele>
        <time>2021-04-01T09:18:34.836Z</time>
      </trkpt>
      <trkpt lat="43.1260583" lon="-2.7769712">
        <ele>120.132</ele>
        <time>2021-04-01T09:18:34.885Z</time>
      </trkpt>
      <trkpt lat="43.1260626" lon="-2.7769739">
        <ele>120.116</ele>
        <time>2021-04-01T09:18:34.934Z</time>
      </trkpt>
      <trkpt lat="43.1260668" lon="-2.7769766">
        <ele>120.111</ele>
        <time>2021-04-01T09:18:34.984Z</time>
      </trkpt>
      <trkpt lat="43.1260709" lon="-2.7769796">
        <ele>120.124</ele>
        <time>2021-04-01T09:18:35.042Z</time>
      </trkpt>
      <trkpt lat="43.126075" lon="-2.7769825">
        <ele>120.111</ele>
        <time>2021-04-01T09:18:35.100Z</time>
      </trkpt>
      <trkpt lat="43.1260792" lon="-2.7769851">
        <ele>120.09</ele>
        <time>2021-04-01T09:18:35.158Z</time>
      </trkpt>
      <trkpt lat="43.1260833" lon="-2.7769876">
        <ele>120.068</ele>
        <time>2021-04-01T09:18:35.216Z</time>
      </trkpt>
      <trkpt lat="43.1260875" lon="-2.7769902">
        <ele>120.052</ele>
        <time>2021-04-01T09:18:35.274Z</time>
      </trkpt>
      <trkpt lat="43.1260916" lon="-2.7769932">
        <ele>120.068</ele>
        <time>2021-04-01T09:18:35.332Z</time>
      </trkpt>
      <trkpt lat="43.1260957" lon="-2.7769959">
        <ele>120.057</ele>
        <time>2021-04-01T09:18:35.390Z</time>
      </trkpt>
      <trkpt lat="43.1261" lon="-2.7769984">
        <ele>120.051</ele>
        <time>2021-04-01T09:18:35.448Z</time>
      </trkpt>
      <trkpt lat="43.1261041" lon="-2.777001">
        <ele>120.041</ele>
        <time>2021-04-01T09:18:35.506Z</time>
      </trkpt>
      <trkpt lat="43.1261084" lon="-2.7770038">
        <ele>120.032</ele>
        <time>2021-04-01T09:18:35.564Z</time>
      </trkpt>
      <trkpt lat="43.1261127" lon="-2.7770062">
        <ele>120.013</ele>
        <time>2021-04-01T09:18:35.622Z</time>
      </trkpt>
      <trkpt lat="43.1261173" lon="-2.7770086">
        <ele>120.019</ele>
        <time>2021-04-01T09:18:35.680Z</time>
      </trkpt>
      <trkpt lat="43.1261217" lon="-2.7770109">
        <ele>119.998</ele>
        <time>2021-04-01T09:18:35.738Z</time>
      </trkpt>
      <trkpt lat="43.1261258" lon="-2.7770136">
        <ele>119.986</ele>
        <time>2021-04-01T09:18:35.796Z</time>
      </trkpt>
      <trkpt lat="43.12613" lon="-2.7770163">
        <ele>119.984</ele>
        <time>2021-04-01T09:18:35.854Z</time>
      </trkpt>
      <trkpt lat="43.1261342" lon="-2.777019">
        <ele>119.979</ele>
        <time>2021-04-01T09:18:35.912Z</time>
      </trkpt>
      <trkpt lat="43.1261383" lon="-2.7770217">
        <ele>119.971</ele>
        <time>2021-04-01T09:18:35.970Z</time>
      </trkpt>
      <trkpt lat="43.1261426" lon="-2.7770243">
        <ele>119.955</ele>
        <time>2021-04-01T09:18:36.029Z</time>
      </trkpt>
      <trkpt lat="43.1261469" lon="-2.7770268">
        <ele>119.952</ele>
        <time>2021-04-01T09:18:36.084Z</time>
      </trkpt>
      <trkpt lat="43.126151" lon="-2.77703">
        <ele>119.979</ele>
        <time>2021-04-01T09:18:36.139Z</time>
      </trkpt>
      <trkpt lat="43.1261551" lon="-2.7770331">
        <ele>119.996</ele>
        <time>2021-04-01T09:18:36.194Z</time>
      </trkpt>
      <trkpt lat="43.1261589" lon="-2.7770358">
        <ele>119.957</ele>
        <time>2021-04-01T09:18:36.249Z</time>
      </trkpt>
      <trkpt lat="43.126163" lon="-2.7770384">
        <ele>119.927</ele>
        <time>2021-04-01T09:18:36.304Z</time>
      </trkpt>
      <trkpt lat="43.126167" lon="-2.7770414">
        <ele>119.906</ele>
        <time>2021-04-01T09:18:36.359Z</time>
      </trkpt>
      <trkpt lat="43.1261711" lon="-2.7770447">
        <ele>119.933</ele>
        <time>2021-04-01T09:18:36.414Z</time>
      </trkpt>
      <trkpt lat="43.1261752" lon="-2.7770476">
        <ele>119.918</ele>
        <time>2021-04-01T09:18:36.469Z</time>
      </trkpt>
      <trkpt lat="43.1261793" lon="-2.7770506">
        <ele>119.912</ele>
        <time>2021-04-01T09:18:36.524Z</time>
      </trkpt>
      <trkpt lat="43.1261836" lon="-2.7770535">
        <ele>119.924</ele>
        <time>2021-04-01T09:18:36.579Z</time>
      </trkpt>
      <trkpt lat="43.1261878" lon="-2.7770564">
        <ele>119.934</ele>
        <time>2021-04-01T09:18:36.634Z</time>
      </trkpt>
      <trkpt lat="43.1261922" lon="-2.777059">
        <ele>119.926</ele>
        <time>2021-04-01T09:18:36.689Z</time>
      </trkpt>
      <trkpt lat="43.1261965" lon="-2.7770618">
        <ele>119.932</ele>
        <time>2021-04-01T09:18:36.744Z</time>
      </trkpt>
      <trkpt lat="43.1262006" lon="-2.7770644">
        <ele>119.925</ele>
        <time>2021-04-01T09:18:36.799Z</time>
      </trkpt>
      <trkpt lat="43.1262047" lon="-2.7770677">
        <ele>119.94</ele>
        <time>2021-04-01T09:18:36.854Z</time>
      </trkpt>
      <trkpt lat="43.1262089" lon="-2.7770713">
        <ele>119.986</ele>
        <time>2021-04-01T09:18:36.909Z</time>
      </trkpt>
      <trkpt lat="43.1262131" lon="-2.777074">
        <ele>119.989</ele>
        <time>2021-04-01T09:18:36.964Z</time>
      </trkpt>
      <trkpt lat="43.1262174" lon="-2.7770765">
        <ele>119.996</ele>
        <time>2021-04-01T09:18:37.019Z</time>
      </trkpt>
      <trkpt lat="43.1262216" lon="-2.7770795">
        <ele>119.999</ele>
        <time>2021-04-01T09:18:37.074Z</time>
      </trkpt>
      <trkpt lat="43.1262258" lon="-2.7770825">
        <ele>120.009</ele>
        <time>2021-04-01T09:18:37.129Z</time>
      </trkpt>
      <trkpt lat="43.12623" lon="-2.7770854">
        <ele>120.011</ele>
        <time>2021-04-01T09:18:37.184Z</time>
      </trkpt>
      <trkpt lat="43.1262342" lon="-2.7770881">
        <ele>120.005</ele>
        <time>2021-04-01T09:18:37.239Z</time>
      </trkpt>
      <trkpt lat="43.1262384" lon="-2.7770909">
        <ele>120.027</ele>
        <time>2021-04-01T09:18:37.294Z</time>
      </trkpt>
      <trkpt lat="43.1262426" lon="-2.7770935">
        <ele>120.022</ele>
        <time>2021-04-01T09:18:37.349Z</time>
      </trkpt>
      <trkpt lat="43.1262469" lon="-2.777096">
        <ele>119.995</ele>
        <time>2021-04-01T09:18:37.404Z</time>
      </trkpt>
      <trkpt lat="43.1262511" lon="-2.7770984">
        <ele>119.982</ele>
        <time>2021-04-01T09:18:37.459Z</time>
      </trkpt>
      <trkpt lat="43.1262554" lon="-2.7771009">
        <ele>119.974</ele>
        <time>2021-04-01T09:18:37.514Z</time>
      </trkpt>
      <trkpt lat="43.1262597" lon="-2.7771039">
        <ele>120.005</ele>
        <time>2021-04-01T09:18:37.569Z</time>
      </trkpt>
      <trkpt lat="43.126264" lon="-2.7771065">
        <ele>119.986</ele>
        <time>2021-04-01T09:18:37.624Z</time>
      </trkpt>
      <trkpt lat="43.1262682" lon="-2.7771091">
        <ele>119.994</ele>
        <time>2021-04-01T09:18:37.679Z</time>
      </trkpt>
      <trkpt lat="43.1262725" lon="-2.7771117">
        <ele>120.016</ele>
        <time>2021-04-01T09:18:37.734Z</time>
      </trkpt>
      <trkpt lat="43.1262767" lon="-2.7771144">
        <ele>119.993</ele>
        <time>2021-04-01T09:18:37.789Z</time>
      </trkpt>
      <trkpt lat="43.126281" lon="-2.7771174">
        <ele>120.008</ele>
        <time>2021-04-01T09:18:37.844Z</time>
      </trkpt>
      <trkpt lat="43.1262852" lon="-2.7771201">
        <ele>120.007</ele>
        <time>2021-04-01T09:18:37.899Z</time>
      </trkpt>
      <trkpt lat="43.1262896" lon="-2.7771227">
        <ele>119.999</ele>
        <time>2021-04-01T09:18:37.954Z</time>
      </trkpt>
      <trkpt lat="43.1262937" lon="-2.7771251">
        <ele>119.963</ele>
        <time>2021-04-01T09:18:38.009Z</time>
      </trkpt>
      <trkpt lat="43.1262977" lon="-2.7771278">
        <ele>119.94</ele>
        <time>2021-04-01T09:18:38.064Z</time>
      </trkpt>
      <trkpt lat="43.1263019" lon="-2.7771304">
        <ele>119.94</ele>
        <time>2021-04-01T09:18:38.119Z</time>
      </trkpt>
      <trkpt lat="43.1263062" lon="-2.7771332">
        <ele>119.967</ele>
        <time>2021-04-01T09:18:38.174Z</time>
      </trkpt>
      <trkpt lat="43.1263105" lon="-2.7771359">
        <ele>119.98</ele>
        <time>2021-04-01T09:18:38.229Z</time>
      </trkpt>
      <trkpt lat="43.1263147" lon="-2.7771388">
        <ele>119.996</ele>
        <time>2021-04-01T09:18:38.284Z</time>
      </trkpt>
      <trkpt lat="43.1263189" lon="-2.7771417">
        <ele>119.985</ele>
        <time>2021-04-01T09:18:38.339Z</time>
      </trkpt>
      <trkpt lat="43.1263231" lon="-2.7771444">
        <ele>119.995</ele>
        <time>2021-04-01T09:18:38.394Z</time>
      </trkpt>
      <trkpt lat="43.1263272" lon="-2.7771468">
        <ele>119.959</ele>
        <time>2021-04-01T09:18:38.449Z</time>
      </trkpt>
      <trkpt lat="43.1263313" lon="-2.7771493">
        <ele>119.925</ele>
        <time>2021-04-01T09:18:38.504Z</time>
      </trkpt>
      <trkpt lat="43.1263354" lon="-2.7771523">
        <ele>119.942</ele>
        <time>2021-04-01T09:18:38.559Z</time>
      </trkpt>
      <trkpt lat="43.1263397" lon="-2.7771549">
        <ele>119.944</ele>
        <time>2021-04-01T09:18:38.614Z</time>
      </trkpt>
      <trkpt lat="43.1263438" lon="-2.7771575">
        <ele>119.937</ele>
        <time>2021-04-01T09:18:38.669Z</time>
      </trkpt>
      <trkpt lat="43.1263481" lon="-2.7771603">
        <ele>119.941</ele>
        <time>2021-04-01T09:18:38.724Z</time>
      </trkpt>
      <trkpt lat="43.1263524" lon="-2.7771632">
        <ele>119.949</ele>
        <time>2021-04-01T09:18:38.779Z</time>
      </trkpt>
      <trkpt lat="43.1263565" lon="-2.7771661">
        <ele>119.958</ele>
        <time>2021-04-01T09:18:38.834Z</time>
      </trkpt>
      <trkpt lat="43.1263607" lon="-2.7771684">
        <ele>119.943</ele>
        <time>2021-04-01T09:18:38.889Z</time>
      </trkpt>
      <trkpt lat="43.1263648" lon="-2.7771712">
        <ele>119.96</ele>
        <time>2021-04-01T09:18:38.944Z</time>
      </trkpt>
      <trkpt lat="43.126369" lon="-2.7771742">
        <ele>119.972</ele>
        <time>2021-04-01T09:18:38.999Z</time>
      </trkpt>
      <trkpt lat="43.126373" lon="-2.7771771">
        <ele>119.97</ele>
        <time>2021-04-01T09:18:39.054Z</time>
      </trkpt>
      <trkpt lat="43.126377" lon="-2.7771798">
        <ele>119.979</ele>
        <time>2021-04-01T09:18:39.109Z</time>
      </trkpt>
      <trkpt lat="43.1263811" lon="-2.7771825">
        <ele>119.961</ele>
        <time>2021-04-01T09:18:39.164Z</time>
      </trkpt>
      <trkpt lat="43.1263851" lon="-2.7771852">
        <ele>119.944</ele>
        <time>2021-04-01T09:18:39.219Z</time>
      </trkpt>
      <trkpt lat="43.1263892" lon="-2.7771881">
        <ele>119.959</ele>
        <time>2021-04-01T09:18:39.274Z</time>
      </trkpt>
      <trkpt lat="43.1263933" lon="-2.777191">
        <ele>119.958</ele>
        <time>2021-04-01T09:18:39.329Z</time>
      </trkpt>
      <trkpt lat="43.1263975" lon="-2.7771939">
        <ele>119.964</ele>
        <time>2021-04-01T09:18:39.384Z</time>
      </trkpt>
      <trkpt lat="43.1264016" lon="-2.7771966">
        <ele>119.958</ele>
        <time>2021-04-01T09:18:39.439Z</time>
      </trkpt>
      <trkpt lat="43.1264057" lon="-2.7771995">
        <ele>119.967</ele>
        <time>2021-04-01T09:18:39.494Z</time>
      </trkpt>
      <trkpt lat="43.1264097" lon="-2.7772024">
        <ele>119.973</ele>
        <time>2021-04-01T09:18:39.549Z</time>
      </trkpt>
      <trkpt lat="43.1264138" lon="-2.777205">
        <ele>119.955</ele>
        <time>2021-04-01T09:18:39.604Z</time>
      </trkpt>
      <trkpt lat="43.126418" lon="-2.777208">
        <ele>119.964</ele>
        <time>2021-04-01T09:18:39.659Z</time>
      </trkpt>
      <trkpt lat="43.1264221" lon="-2.777211">
        <ele>119.984</ele>
        <time>2021-04-01T09:18:39.714Z</time>
      </trkpt>
      <trkpt lat="43.1264261" lon="-2.7772134">
        <ele>119.954</ele>
        <time>2021-04-01T09:18:39.769Z</time>
      </trkpt>
      <trkpt lat="43.1264301" lon="-2.7772162">
        <ele>119.958</ele>
        <time>2021-04-01T09:18:39.824Z</time>
      </trkpt>
      <trkpt lat="43.1264343" lon="-2.7772193">
        <ele>119.966</ele>
        <time>2021-04-01T09:18:39.879Z</time>
      </trkpt>
      <trkpt lat="43.1264382" lon="-2.7772223">
        <ele>119.965</ele>
        <time>2021-04-01T09:18:39.934Z</time>
      </trkpt>
      <trkpt lat="43.1264421" lon="-2.7772251">
        <ele>119.963</ele>
        <time>2021-04-01T09:18:39.989Z</time>
      </trkpt>
      <trkpt lat="43.1264461" lon="-2.7772278">
        <ele>119.953</ele>
        <time>2021-04-01T09:18:40.044Z</time>
      </trkpt>
      <trkpt lat="43.1264503" lon="-2.7772307">
        <ele>119.967</ele>
        <time>2021-04-01T09:18:40.099Z</time>
      </trkpt>
      <trkpt lat="43.1264543" lon="-2.7772336">
        <ele>119.958</ele>
        <time>2021-04-01T09:18:40.154Z</time>
      </trkpt>
      <trkpt lat="43.1264585" lon="-2.7772363">
        <ele>119.962</ele>
        <time>2021-04-01T09:18:40.209Z</time>
      </trkpt>
      <trkpt lat="43.1264626" lon="-2.7772391">
        <ele>119.957</ele>
        <time>2021-04-01T09:18:40.264Z</time>
      </trkpt>
      <trkpt lat="43.1264664" lon="-2.7772418">
        <ele>119.942</ele>
        <time>2021-04-01T09:18:40.319Z</time>
      </trkpt>
      <trkpt lat="43.1264702" lon="-2.7772448">
        <ele>119.927</ele>
        <time>2021-04-01T09:18:40.374Z</time>
      </trkpt>
      <trkpt lat="43.1264737" lon="-2.7772477">
        <ele>119.878</ele>
        <time>2021-04-01T09:18:40.429Z</time>
      </trkpt>
      <trkpt lat="43.1264778" lon="-2.7772506">
        <ele>119.879</ele>
        <time>2021-04-01T09:18:40.484Z</time>
      </trkpt>
      <trkpt lat="43.1264817" lon="-2.7772534">
        <ele>119.869</ele>
        <time>2021-04-01T09:18:40.539Z</time>
      </trkpt>
      <trkpt lat="43.1264858" lon="-2.7772561">
        <ele>119.872</ele>
        <time>2021-04-01T09:18:40.594Z</time>
      </trkpt>
      <trkpt lat="43.12649" lon="-2.777259">
        <ele>119.898</ele>
        <time>2021-04-01T09:18:40.649Z</time>
      </trkpt>
      <trkpt lat="43.1264943" lon="-2.7772618">
        <ele>119.922</ele>
        <time>2021-04-01T09:18:40.704Z</time>
      </trkpt>
      <trkpt lat="43.1264983" lon="-2.7772644">
        <ele>119.903</ele>
        <time>2021-04-01T09:18:40.759Z</time>
      </trkpt>
      <trkpt lat="43.1265023" lon="-2.7772671">
        <ele>119.888</ele>
        <time>2021-04-01T09:18:40.814Z</time>
      </trkpt>
      <trkpt lat="43.1265062" lon="-2.7772698">
        <ele>119.876</ele>
        <time>2021-04-01T09:18:40.869Z</time>
      </trkpt>
      <trkpt lat="43.1265102" lon="-2.7772727">
        <ele>119.895</ele>
        <time>2021-04-01T09:18:40.924Z</time>
      </trkpt>
      <trkpt lat="43.1265141" lon="-2.7772757">
        <ele>119.9</ele>
        <time>2021-04-01T09:18:40.979Z</time>
      </trkpt>
      <trkpt lat="43.126518" lon="-2.7772784">
        <ele>119.872</ele>
        <time>2021-04-01T09:18:41.034Z</time>
      </trkpt>
      <trkpt lat="43.126522" lon="-2.7772812">
        <ele>119.857</ele>
        <time>2021-04-01T09:18:41.089Z</time>
      </trkpt>
      <trkpt lat="43.1265261" lon="-2.7772839">
        <ele>119.877</ele>
        <time>2021-04-01T09:18:41.144Z</time>
      </trkpt>
      <trkpt lat="43.1265302" lon="-2.7772866">
        <ele>119.877</ele>
        <time>2021-04-01T09:18:41.199Z</time>
      </trkpt>
      <trkpt lat="43.1265343" lon="-2.7772893">
        <ele>119.878</ele>
        <time>2021-04-01T09:18:41.254Z</time>
      </trkpt>
      <trkpt lat="43.126538" lon="-2.7772921">
        <ele>119.846</ele>
        <time>2021-04-01T09:18:41.309Z</time>
      </trkpt>
      <trkpt lat="43.126542" lon="-2.7772949">
        <ele>119.864</ele>
        <time>2021-04-01T09:18:41.364Z</time>
      </trkpt>
      <trkpt lat="43.1265458" lon="-2.7772975">
        <ele>119.812</ele>
        <time>2021-04-01T09:18:41.419Z</time>
      </trkpt>
      <trkpt lat="43.1265498" lon="-2.7773001">
        <ele>119.808</ele>
        <time>2021-04-01T09:18:41.474Z</time>
      </trkpt>
      <trkpt lat="43.1265536" lon="-2.7773027">
        <ele>119.78</ele>
        <time>2021-04-01T09:18:41.529Z</time>
      </trkpt>
      <trkpt lat="43.1265573" lon="-2.7773051">
        <ele>119.709</ele>
        <time>2021-04-01T09:18:41.584Z</time>
      </trkpt>
      <trkpt lat="43.126561" lon="-2.7773077">
        <ele>119.662</ele>
        <time>2021-04-01T09:18:41.639Z</time>
      </trkpt>
      <trkpt lat="43.1265647" lon="-2.7773101">
        <ele>119.606</ele>
        <time>2021-04-01T09:18:41.694Z</time>
      </trkpt>
      <trkpt lat="43.1265685" lon="-2.7773127">
        <ele>119.579</ele>
        <time>2021-04-01T09:18:41.749Z</time>
      </trkpt>
      <trkpt lat="43.1265726" lon="-2.7773152">
        <ele>119.589</ele>
        <time>2021-04-01T09:18:41.804Z</time>
      </trkpt>
      <trkpt lat="43.1265769" lon="-2.7773181">
        <ele>119.634</ele>
        <time>2021-04-01T09:18:41.859Z</time>
      </trkpt>
      <trkpt lat="43.1265817" lon="-2.7773207">
        <ele>119.696</ele>
        <time>2021-04-01T09:18:41.914Z</time>
      </trkpt>
      <trkpt lat="43.1265864" lon="-2.7773233">
        <ele>119.754</ele>
        <time>2021-04-01T09:18:41.969Z</time>
      </trkpt>
      <trkpt lat="43.1265908" lon="-2.7773259">
        <ele>119.793</ele>
        <time>2021-04-01T09:18:42.024Z</time>
      </trkpt>
      <trkpt lat="43.1265954" lon="-2.7773285">
        <ele>119.837</ele>
        <time>2021-04-01T09:18:42.079Z</time>
      </trkpt>
      <trkpt lat="43.1265998" lon="-2.777331">
        <ele>119.852</ele>
        <time>2021-04-01T09:18:42.134Z</time>
      </trkpt>
      <trkpt lat="43.1266038" lon="-2.7773334">
        <ele>119.816</ele>
        <time>2021-04-01T09:18:42.189Z</time>
      </trkpt>
      <trkpt lat="43.1266077" lon="-2.7773355">
        <ele>119.778</ele>
        <time>2021-04-01T09:18:42.244Z</time>
      </trkpt>
      <trkpt lat="43.1266116" lon="-2.7773379">
        <ele>119.744</ele>
        <time>2021-04-01T09:18:42.299Z</time>
      </trkpt>
      <trkpt lat="43.1266156" lon="-2.7773401">
        <ele>119.715</ele>
        <time>2021-04-01T09:18:42.354Z</time>
      </trkpt>
      <trkpt lat="43.1266195" lon="-2.7773426">
        <ele>119.685</ele>
        <time>2021-04-01T09:18:42.409Z</time>
      </trkpt>
      <trkpt lat="43.1266236" lon="-2.777345">
        <ele>119.675</ele>
        <time>2021-04-01T09:18:42.464Z</time>
      </trkpt>
      <trkpt lat="43.1266278" lon="-2.7773474">
        <ele>119.671</ele>
        <time>2021-04-01T09:18:42.519Z</time>
      </trkpt>
      <trkpt lat="43.126632" lon="-2.7773501">
        <ele>119.672</ele>
        <time>2021-04-01T09:18:42.574Z</time>
      </trkpt>
      <trkpt lat="43.1266362" lon="-2.7773529">
        <ele>119.7</ele>
        <time>2021-04-01T09:18:42.629Z</time>
      </trkpt>
      <trkpt lat="43.1266406" lon="-2.7773556">
        <ele>119.756</ele>
        <time>2021-04-01T09:18:42.684Z</time>
      </trkpt>
      <trkpt lat="43.1266452" lon="-2.7773582">
        <ele>119.814</ele>
        <time>2021-04-01T09:18:42.739Z</time>
      </trkpt>
      <trkpt lat="43.1266498" lon="-2.7773613">
        <ele>119.898</ele>
        <time>2021-04-01T09:18:42.794Z</time>
      </trkpt>
      <trkpt lat="43.1266544" lon="-2.7773645">
        <ele>119.995</ele>
        <time>2021-04-01T09:18:42.849Z</time>
      </trkpt>
      <trkpt lat="43.1266586" lon="-2.7773673">
        <ele>120.004</ele>
        <time>2021-04-01T09:18:42.904Z</time>
      </trkpt>
      <trkpt lat="43.1266627" lon="-2.77737">
        <ele>120.005</ele>
        <time>2021-04-01T09:18:42.959Z</time>
      </trkpt>
      <trkpt lat="43.1266668" lon="-2.7773727">
        <ele>120.048</ele>
        <time>2021-04-01T09:18:43.014Z</time>
      </trkpt>
      <trkpt lat="43.126671" lon="-2.7773753">
        <ele>120.047</ele>
        <time>2021-04-01T09:18:43.069Z</time>
      </trkpt>
      <trkpt lat="43.126675" lon="-2.7773779">
        <ele>120.023</ele>
        <time>2021-04-01T09:18:43.124Z</time>
      </trkpt>
      <trkpt lat="43.1266792" lon="-2.7773804">
        <ele>120.03</ele>
        <time>2021-04-01T09:18:43.179Z</time>
      </trkpt>
      <trkpt lat="43.1266833" lon="-2.7773833">
        <ele>120.066</ele>
        <time>2021-04-01T09:18:43.234Z</time>
      </trkpt>
      <trkpt lat="43.1266873" lon="-2.777386">
        <ele>120.077</ele>
        <time>2021-04-01T09:18:43.289Z</time>
      </trkpt>
      <trkpt lat="43.1266912" lon="-2.7773888">
        <ele>120.08</ele>
        <time>2021-04-01T09:18:43.344Z</time>
      </trkpt>
      <trkpt lat="43.1266954" lon="-2.7773913">
        <ele>120.075</ele>
        <time>2021-04-01T09:18:43.399Z</time>
      </trkpt>
      <trkpt lat="43.1266994" lon="-2.7773941">
        <ele>120.078</ele>
        <time>2021-04-01T09:18:43.454Z</time>
      </trkpt>
      <trkpt lat="43.1267036" lon="-2.7773966">
        <ele>120.059</ele>
        <time>2021-04-01T09:18:43.509Z</time>
      </trkpt>
      <trkpt lat="43.1267077" lon="-2.777399">
        <ele>120.058</ele>
        <time>2021-04-01T09:18:43.564Z</time>
      </trkpt>
      <trkpt lat="43.1267118" lon="-2.7774015">
        <ele>120.051</ele>
        <time>2021-04-01T09:18:43.619Z</time>
      </trkpt>
      <trkpt lat="43.1267158" lon="-2.7774042">
        <ele>120.069</ele>
        <time>2021-04-01T09:18:43.674Z</time>
      </trkpt>
      <trkpt lat="43.1267199" lon="-2.777407">
        <ele>120.067</ele>
        <time>2021-04-01T09:18:43.729Z</time>
      </trkpt>
      <trkpt lat="43.126724" lon="-2.7774097">
        <ele>120.075</ele>
        <time>2021-04-01T09:18:43.784Z</time>
      </trkpt>
      <trkpt lat="43.1267281" lon="-2.7774124">
        <ele>120.088</ele>
        <time>2021-04-01T09:18:43.839Z</time>
      </trkpt>
      <trkpt lat="43.1267322" lon="-2.7774149">
        <ele>120.078</ele>
        <time>2021-04-01T09:18:43.894Z</time>
      </trkpt>
      <trkpt lat="43.1267364" lon="-2.7774177">
        <ele>120.09</ele>
        <time>2021-04-01T09:18:43.949Z</time>
      </trkpt>
      <trkpt lat="43.1267405" lon="-2.7774204">
        <ele>120.094</ele>
        <time>2021-04-01T09:18:44.004Z</time>
      </trkpt>
      <trkpt lat="43.1267446" lon="-2.777423">
        <ele>120.098</ele>
        <time>2021-04-01T09:18:44.059Z</time>
      </trkpt>
      <trkpt lat="43.1267489" lon="-2.7774252">
        <ele>120.094</ele>
        <time>2021-04-01T09:18:44.114Z</time>
      </trkpt>
      <trkpt lat="43.1267531" lon="-2.7774277">
        <ele>120.1</ele>
        <time>2021-04-01T09:18:44.169Z</time>
      </trkpt>
      <trkpt lat="43.1267568" lon="-2.7774306">
        <ele>120.086</ele>
        <time>2021-04-01T09:18:44.224Z</time>
      </trkpt>
      <trkpt lat="43.126761" lon="-2.7774333">
        <ele>120.095</ele>
        <time>2021-04-01T09:18:44.279Z</time>
      </trkpt>
      <trkpt lat="43.126765" lon="-2.7774359">
        <ele>120.091</ele>
        <time>2021-04-01T09:18:44.334Z</time>
      </trkpt>
      <trkpt lat="43.1267691" lon="-2.7774387">
        <ele>120.104</ele>
        <time>2021-04-01T09:18:44.389Z</time>
      </trkpt>
      <trkpt lat="43.1267733" lon="-2.7774412">
        <ele>120.092</ele>
        <time>2021-04-01T09:18:44.444Z</time>
      </trkpt>
      <trkpt lat="43.1267775" lon="-2.7774439">
        <ele>120.103</ele>
        <time>2021-04-01T09:18:44.499Z</time>
      </trkpt>
      <trkpt lat="43.1267816" lon="-2.7774465">
        <ele>120.104</ele>
        <time>2021-04-01T09:18:44.554Z</time>
      </trkpt>
      <trkpt lat="43.1267858" lon="-2.7774489">
        <ele>120.099</ele>
        <time>2021-04-01T09:18:44.609Z</time>
      </trkpt>
      <trkpt lat="43.1267899" lon="-2.7774517">
        <ele>120.116</ele>
        <time>2021-04-01T09:18:44.664Z</time>
      </trkpt>
      <trkpt lat="43.1267941" lon="-2.7774544">
        <ele>120.124</ele>
        <time>2021-04-01T09:18:44.719Z</time>
      </trkpt>
      <trkpt lat="43.1267981" lon="-2.777457">
        <ele>120.116</ele>
        <time>2021-04-01T09:18:44.774Z</time>
      </trkpt>
      <trkpt lat="43.1268021" lon="-2.7774595">
        <ele>120.113</ele>
        <time>2021-04-01T09:18:44.829Z</time>
      </trkpt>
      <trkpt lat="43.1268062" lon="-2.7774623">
        <ele>120.09</ele>
        <time>2021-04-01T09:18:44.884Z</time>
      </trkpt>
      <trkpt lat="43.1268101" lon="-2.7774652">
        <ele>120.086</ele>
        <time>2021-04-01T09:18:44.939Z</time>
      </trkpt>
      <trkpt lat="43.126814" lon="-2.777468">
        <ele>120.086</ele>
        <time>2021-04-01T09:18:44.994Z</time>
      </trkpt>
      <trkpt lat="43.1268181" lon="-2.7774703">
        <ele>120.067</ele>
        <time>2021-04-01T09:18:45.049Z</time>
      </trkpt>
      <trkpt lat="43.1268224" lon="-2.7774727">
        <ele>120.086</ele>
        <time>2021-04-01T09:18:45.100Z</time>
      </trkpt>
      <trkpt lat="43.1268266" lon="-2.7774754">
        <ele>120.094</ele>
        <time>2021-04-01T09:18:45.152Z</time>
      </trkpt>
      <trkpt lat="43.1268306" lon="-2.7774779">
        <ele>120.093</ele>
        <time>2021-04-01T09:18:45.204Z</time>
      </trkpt>
      <trkpt lat="43.1268348" lon="-2.7774806">
        <ele>120.115</ele>
        <time>2021-04-01T09:18:45.256Z</time>
      </trkpt>
      <trkpt lat="43.1268389" lon="-2.7774831">
        <ele>120.11</ele>
        <time>2021-04-01T09:18:45.308Z</time>
      </trkpt>
      <trkpt lat="43.1268431" lon="-2.7774857">
        <ele>120.105</ele>
        <time>2021-04-01T09:18:45.360Z</time>
      </trkpt>
      <trkpt lat="43.1268472" lon="-2.7774886">
        <ele>120.121</ele>
        <time>2021-04-01T09:18:45.412Z</time>
      </trkpt>
      <trkpt lat="43.1268514" lon="-2.7774914">
        <ele>120.145</ele>
        <time>2021-04-01T09:18:45.464Z</time>
      </trkpt>
      <trkpt lat="43.1268555" lon="-2.7774941">
        <ele>120.143</ele>
        <time>2021-04-01T09:18:45.516Z</time>
      </trkpt>
      <trkpt lat="43.1268594" lon="-2.7774968">
        <ele>120.134</ele>
        <time>2021-04-01T09:18:45.568Z</time>
      </trkpt>
      <trkpt lat="43.1268631" lon="-2.7774993">
        <ele>120.093</ele>
        <time>2021-04-01T09:18:45.620Z</time>
      </trkpt>
      <trkpt lat="43.1268671" lon="-2.7775018">
        <ele>120.079</ele>
        <time>2021-04-01T09:18:45.672Z</time>
      </trkpt>
      <trkpt lat="43.1268711" lon="-2.7775045">
        <ele>120.066</ele>
        <time>2021-04-01T09:18:45.724Z</time>
      </trkpt>
      <trkpt lat="43.1268751" lon="-2.7775071">
        <ele>120.042</ele>
        <time>2021-04-01T09:18:45.776Z</time>
      </trkpt>
      <trkpt lat="43.126879" lon="-2.7775096">
        <ele>120.031</ele>
        <time>2021-04-01T09:18:45.828Z</time>
      </trkpt>
      <trkpt lat="43.1268831" lon="-2.7775125">
        <ele>120.051</ele>
        <time>2021-04-01T09:18:45.880Z</time>
      </trkpt>
      <trkpt lat="43.1268872" lon="-2.7775154">
        <ele>120.08</ele>
        <time>2021-04-01T09:18:45.932Z</time>
      </trkpt>
      <trkpt lat="43.1268911" lon="-2.7775178">
        <ele>120.056</ele>
        <time>2021-04-01T09:18:45.984Z</time>
      </trkpt>
      <trkpt lat="43.1268952" lon="-2.7775205">
        <ele>120.048</ele>
        <time>2021-04-01T09:18:46.042Z</time>
      </trkpt>
      <trkpt lat="43.1268992" lon="-2.7775233">
        <ele>120.056</ele>
        <time>2021-04-01T09:18:46.100Z</time>
      </trkpt>
      <trkpt lat="43.1269035" lon="-2.777526">
        <ele>120.122</ele>
        <time>2021-04-01T09:18:46.158Z</time>
      </trkpt>
      <trkpt lat="43.1269077" lon="-2.7775288">
        <ele>120.151</ele>
        <time>2021-04-01T09:18:46.216Z</time>
      </trkpt>
      <trkpt lat="43.1269121" lon="-2.7775316">
        <ele>120.177</ele>
        <time>2021-04-01T09:18:46.274Z</time>
      </trkpt>
      <trkpt lat="43.1269163" lon="-2.7775343">
        <ele>120.212</ele>
        <time>2021-04-01T09:18:46.332Z</time>
      </trkpt>
      <trkpt lat="43.1269204" lon="-2.777537">
        <ele>120.229</ele>
        <time>2021-04-01T09:18:46.390Z</time>
      </trkpt>
      <trkpt lat="43.1269245" lon="-2.7775396">
        <ele>120.216</ele>
        <time>2021-04-01T09:18:46.448Z</time>
      </trkpt>
      <trkpt lat="43.1269286" lon="-2.7775423">
        <ele>120.224</ele>
        <time>2021-04-01T09:18:46.506Z</time>
      </trkpt>
      <trkpt lat="43.1269326" lon="-2.7775449">
        <ele>120.23</ele>
        <time>2021-04-01T09:18:46.564Z</time>
      </trkpt>
      <trkpt lat="43.1269368" lon="-2.7775477">
        <ele>120.262</ele>
        <time>2021-04-01T09:18:46.622Z</time>
      </trkpt>
      <trkpt lat="43.126941" lon="-2.7775505">
        <ele>120.287</ele>
        <time>2021-04-01T09:18:46.680Z</time>
      </trkpt>
      <trkpt lat="43.1269453" lon="-2.7775531">
        <ele>120.317</ele>
        <time>2021-04-01T09:18:46.738Z</time>
      </trkpt>
      <trkpt lat="43.1269495" lon="-2.7775555">
        <ele>120.322</ele>
        <time>2021-04-01T09:18:46.796Z</time>
      </trkpt>
      <trkpt lat="43.1269538" lon="-2.7775581">
        <ele>120.33</ele>
        <time>2021-04-01T09:18:46.854Z</time>
      </trkpt>
      <trkpt lat="43.1269578" lon="-2.7775609">
        <ele>120.337</ele>
        <time>2021-04-01T09:18:46.912Z</time>
      </trkpt>
      <trkpt lat="43.126962" lon="-2.7775634">
        <ele>120.37</ele>
        <time>2021-04-01T09:18:46.970Z</time>
      </trkpt>
      <trkpt lat="43.1269662" lon="-2.777566">
        <ele>120.381</ele>
        <time>2021-04-01T09:18:47.029Z</time>
      </trkpt>
      <trkpt lat="43.1269704" lon="-2.7775685">
        <ele>120.379</ele>
        <time>2021-04-01T09:18:47.087Z</time>
      </trkpt>
      <trkpt lat="43.1269746" lon="-2.7775711">
        <ele>120.397</ele>
        <time>2021-04-01T09:18:47.145Z</time>
      </trkpt>
      <trkpt lat="43.1269787" lon="-2.7775737">
        <ele>120.396</ele>
        <time>2021-04-01T09:18:47.203Z</time>
      </trkpt>
      <trkpt lat="43.1269828" lon="-2.7775761">
        <ele>120.387</ele>
        <time>2021-04-01T09:18:47.261Z</time>
      </trkpt>
      <trkpt lat="43.1269869" lon="-2.7775785">
        <ele>120.398</ele>
        <time>2021-04-01T09:18:47.319Z</time>
      </trkpt>
      <trkpt lat="43.1269911" lon="-2.7775811">
        <ele>120.436</ele>
        <time>2021-04-01T09:18:47.377Z</time>
      </trkpt>
      <trkpt lat="43.1269952" lon="-2.7775837">
        <ele>120.452</ele>
        <time>2021-04-01T09:18:47.435Z</time>
      </trkpt>
      <trkpt lat="43.1269993" lon="-2.7775859">
        <ele>120.444</ele>
        <time>2021-04-01T09:18:47.493Z</time>
      </trkpt>
      <trkpt lat="43.1270036" lon="-2.7775885">
        <ele>120.473</ele>
        <time>2021-04-01T09:18:47.551Z</time>
      </trkpt>
      <trkpt lat="43.1270078" lon="-2.7775914">
        <ele>120.513</ele>
        <time>2021-04-01T09:18:47.609Z</time>
      </trkpt>
      <trkpt lat="43.1270119" lon="-2.7775939">
        <ele>120.523</ele>
        <time>2021-04-01T09:18:47.667Z</time>
      </trkpt>
      <trkpt lat="43.1270162" lon="-2.7775963">
        <ele>120.553</ele>
        <time>2021-04-01T09:18:47.725Z</time>
      </trkpt>
      <trkpt lat="43.1270202" lon="-2.7775988">
        <ele>120.549</ele>
        <time>2021-04-01T09:18:47.783Z</time>
      </trkpt>
      <trkpt lat="43.1270244" lon="-2.7776014">
        <ele>120.562</ele>
        <time>2021-04-01T09:18:47.841Z</time>
      </trkpt>
      <trkpt lat="43.1270287" lon="-2.777604">
        <ele>120.602</ele>
        <time>2021-04-01T09:18:47.899Z</time>
      </trkpt>
      <trkpt lat="43.1270329" lon="-2.7776068">
        <ele>120.633</ele>
        <time>2021-04-01T09:18:47.957Z</time>
      </trkpt>
      <trkpt lat="43.1270368" lon="-2.7776093">
        <ele>120.621</ele>
        <time>2021-04-01T09:18:48.015Z</time>
      </trkpt>
      <trkpt lat="43.127041" lon="-2.7776116">
        <ele>120.635</ele>
        <time>2021-04-01T09:18:48.074Z</time>
      </trkpt>
      <trkpt lat="43.1270451" lon="-2.7776141">
        <ele>120.653</ele>
        <time>2021-04-01T09:18:48.123Z</time>
      </trkpt>
      <trkpt lat="43.1270493" lon="-2.7776167">
        <ele>120.688</ele>
        <time>2021-04-01T09:18:48.172Z</time>
      </trkpt>
      <trkpt lat="43.1270535" lon="-2.7776193">
        <ele>120.696</ele>
        <time>2021-04-01T09:18:48.221Z</time>
      </trkpt>
      <trkpt lat="43.1270578" lon="-2.7776217">
        <ele>120.719</ele>
        <time>2021-04-01T09:18:48.270Z</time>
      </trkpt>
      <trkpt lat="43.1270619" lon="-2.7776243">
        <ele>120.746</ele>
        <time>2021-04-01T09:18:48.320Z</time>
      </trkpt>
      <trkpt lat="43.127066" lon="-2.7776267">
        <ele>120.752</ele>
        <time>2021-04-01T09:18:48.369Z</time>
      </trkpt>
      <trkpt lat="43.1270701" lon="-2.7776294">
        <ele>120.757</ele>
        <time>2021-04-01T09:18:48.418Z</time>
      </trkpt>
      <trkpt lat="43.1270742" lon="-2.7776321">
        <ele>120.773</ele>
        <time>2021-04-01T09:18:48.467Z</time>
      </trkpt>
      <trkpt lat="43.1270783" lon="-2.7776346">
        <ele>120.782</ele>
        <time>2021-04-01T09:18:48.516Z</time>
      </trkpt>
      <trkpt lat="43.1270825" lon="-2.7776373">
        <ele>120.832</ele>
        <time>2021-04-01T09:18:48.566Z</time>
      </trkpt>
      <trkpt lat="43.1270865" lon="-2.7776401">
        <ele>120.865</ele>
        <time>2021-04-01T09:18:48.615Z</time>
      </trkpt>
      <trkpt lat="43.1270907" lon="-2.7776428">
        <ele>120.884</ele>
        <time>2021-04-01T09:18:48.664Z</time>
      </trkpt>
      <trkpt lat="43.1270947" lon="-2.7776452">
        <ele>120.881</ele>
        <time>2021-04-01T09:18:48.713Z</time>
      </trkpt>
      <trkpt lat="43.1270987" lon="-2.7776477">
        <ele>120.904</ele>
        <time>2021-04-01T09:18:48.762Z</time>
      </trkpt>
      <trkpt lat="43.1271027" lon="-2.7776503">
        <ele>120.899</ele>
        <time>2021-04-01T09:18:48.812Z</time>
      </trkpt>
      <trkpt lat="43.1271068" lon="-2.7776529">
        <ele>120.903</ele>
        <time>2021-04-01T09:18:48.861Z</time>
      </trkpt>
      <trkpt lat="43.1271109" lon="-2.7776554">
        <ele>120.928</ele>
        <time>2021-04-01T09:18:48.910Z</time>
      </trkpt>
      <trkpt lat="43.1271149" lon="-2.7776579">
        <ele>120.938</ele>
        <time>2021-04-01T09:18:48.959Z</time>
      </trkpt>
      <trkpt lat="43.1271189" lon="-2.7776606">
        <ele>120.96</ele>
        <time>2021-04-01T09:18:49.009Z</time>
      </trkpt>
      <trkpt lat="43.127123" lon="-2.7776631">
        <ele>120.983</ele>
        <time>2021-04-01T09:18:49.064Z</time>
      </trkpt>
      <trkpt lat="43.1271271" lon="-2.7776656">
        <ele>120.987</ele>
        <time>2021-04-01T09:18:49.119Z</time>
      </trkpt>
      <trkpt lat="43.1271311" lon="-2.7776681">
        <ele>120.994</ele>
        <time>2021-04-01T09:18:49.174Z</time>
      </trkpt>
      <trkpt lat="43.1271352" lon="-2.7776707">
        <ele>121.017</ele>
        <time>2021-04-01T09:18:49.229Z</time>
      </trkpt>
      <trkpt lat="43.1271393" lon="-2.7776732">
        <ele>121.017</ele>
        <time>2021-04-01T09:18:49.284Z</time>
      </trkpt>
      <trkpt lat="43.1271433" lon="-2.7776756">
        <ele>121.034</ele>
        <time>2021-04-01T09:18:49.339Z</time>
      </trkpt>
      <trkpt lat="43.1271472" lon="-2.7776782">
        <ele>121.047</ele>
        <time>2021-04-01T09:18:49.394Z</time>
      </trkpt>
      <trkpt lat="43.1271511" lon="-2.7776809">
        <ele>121.044</ele>
        <time>2021-04-01T09:18:49.449Z</time>
      </trkpt>
      <trkpt lat="43.1271552" lon="-2.7776835">
        <ele>121.055</ele>
        <time>2021-04-01T09:18:49.504Z</time>
      </trkpt>
      <trkpt lat="43.1271591" lon="-2.777686">
        <ele>121.026</ele>
        <time>2021-04-01T09:18:49.559Z</time>
      </trkpt>
      <trkpt lat="43.1271631" lon="-2.7776885">
        <ele>121.039</ele>
        <time>2021-04-01T09:18:49.614Z</time>
      </trkpt>
      <trkpt lat="43.1271672" lon="-2.7776909">
        <ele>121.045</ele>
        <time>2021-04-01T09:18:49.669Z</time>
      </trkpt>
      <trkpt lat="43.1271712" lon="-2.7776933">
        <ele>121.032</ele>
        <time>2021-04-01T09:18:49.724Z</time>
      </trkpt>
      <trkpt lat="43.1271752" lon="-2.777696">
        <ele>121.035</ele>
        <time>2021-04-01T09:18:49.779Z</time>
      </trkpt>
      <trkpt lat="43.1271793" lon="-2.7776985">
        <ele>121.032</ele>
        <time>2021-04-01T09:18:49.834Z</time>
      </trkpt>
      <trkpt lat="43.1271833" lon="-2.7777009">
        <ele>121.024</ele>
        <time>2021-04-01T09:18:49.889Z</time>
      </trkpt>
      <trkpt lat="43.1271873" lon="-2.7777034">
        <ele>121.028</ele>
        <time>2021-04-01T09:18:49.944Z</time>
      </trkpt>
      <trkpt lat="43.1271913" lon="-2.7777061">
        <ele>121.047</ele>
        <time>2021-04-01T09:18:50.000Z</time>
      </trkpt>
      <trkpt lat="43.1271953" lon="-2.7777088">
        <ele>121.069</ele>
        <time>2021-04-01T09:18:50.058Z</time>
      </trkpt>
      <trkpt lat="43.1271994" lon="-2.7777112">
        <ele>121.065</ele>
        <time>2021-04-01T09:18:50.116Z</time>
      </trkpt>
      <trkpt lat="43.1272033" lon="-2.7777139">
        <ele>121.074</ele>
        <time>2021-04-01T09:18:50.174Z</time>
      </trkpt>
      <trkpt lat="43.1272073" lon="-2.7777165">
        <ele>121.073</ele>
        <time>2021-04-01T09:18:50.232Z</time>
      </trkpt>
      <trkpt lat="43.1272113" lon="-2.777719">
        <ele>121.102</ele>
        <time>2021-04-01T09:18:50.290Z</time>
      </trkpt>
      <trkpt lat="43.1272154" lon="-2.7777214">
        <ele>121.124</ele>
        <time>2021-04-01T09:18:50.348Z</time>
      </trkpt>
      <trkpt lat="43.1272195" lon="-2.777724">
        <ele>121.13</ele>
        <time>2021-04-01T09:18:50.406Z</time>
      </trkpt>
      <trkpt lat="43.1272236" lon="-2.7777265">
        <ele>121.133</ele>
        <time>2021-04-01T09:18:50.464Z</time>
      </trkpt>
      <trkpt lat="43.1272276" lon="-2.7777288">
        <ele>121.131</ele>
        <time>2021-04-01T09:18:50.522Z</time>
      </trkpt>
      <trkpt lat="43.1272317" lon="-2.7777311">
        <ele>121.136</ele>
        <time>2021-04-01T09:18:50.580Z</time>
      </trkpt>
      <trkpt lat="43.1272357" lon="-2.7777337">
        <ele>121.179</ele>
        <time>2021-04-01T09:18:50.638Z</time>
      </trkpt>
      <trkpt lat="43.1272398" lon="-2.777736">
        <ele>121.178</ele>
        <time>2021-04-01T09:18:50.696Z</time>
      </trkpt>
      <trkpt lat="43.1272439" lon="-2.7777386">
        <ele>121.198</ele>
        <time>2021-04-01T09:18:50.754Z</time>
      </trkpt>
      <trkpt lat="43.1272479" lon="-2.7777411">
        <ele>121.214</ele>
        <time>2021-04-01T09:18:50.812Z</time>
      </trkpt>
      <trkpt lat="43.1272518" lon="-2.7777433">
        <ele>121.206</ele>
        <time>2021-04-01T09:18:50.870Z</time>
      </trkpt>
      <trkpt lat="43.1272559" lon="-2.7777457">
        <ele>121.211</ele>
        <time>2021-04-01T09:18:50.928Z</time>
      </trkpt>
      <trkpt lat="43.1272599" lon="-2.7777482">
        <ele>121.203</ele>
        <time>2021-04-01T09:18:50.986Z</time>
      </trkpt>
      <trkpt lat="43.1272639" lon="-2.7777504">
        <ele>121.205</ele>
        <time>2021-04-01T09:18:51.044Z</time>
      </trkpt>
      <trkpt lat="43.127268" lon="-2.7777529">
        <ele>121.221</ele>
        <time>2021-04-01T09:18:51.099Z</time>
      </trkpt>
      <trkpt lat="43.127272" lon="-2.7777553">
        <ele>121.234</ele>
        <time>2021-04-01T09:18:51.154Z</time>
      </trkpt>
      <trkpt lat="43.1272761" lon="-2.7777578">
        <ele>121.251</ele>
        <time>2021-04-01T09:18:51.209Z</time>
      </trkpt>
      <trkpt lat="43.1272801" lon="-2.7777604">
        <ele>121.253</ele>
        <time>2021-04-01T09:18:51.264Z</time>
      </trkpt>
      <trkpt lat="43.1272841" lon="-2.7777628">
        <ele>121.263</ele>
        <time>2021-04-01T09:18:51.319Z</time>
      </trkpt>
      <trkpt lat="43.1272882" lon="-2.7777651">
        <ele>121.273</ele>
        <time>2021-04-01T09:18:51.374Z</time>
      </trkpt>
      <trkpt lat="43.1272921" lon="-2.7777675">
        <ele>121.281</ele>
        <time>2021-04-01T09:18:51.429Z</time>
      </trkpt>
      <trkpt lat="43.1272961" lon="-2.7777702">
        <ele>121.293</ele>
        <time>2021-04-01T09:18:51.484Z</time>
      </trkpt>
      <trkpt lat="43.1273" lon="-2.7777728">
        <ele>121.299</ele>
        <time>2021-04-01T09:18:51.539Z</time>
      </trkpt>
      <trkpt lat="43.1273042" lon="-2.7777751">
        <ele>121.291</ele>
        <time>2021-04-01T09:18:51.594Z</time>
      </trkpt>
      <trkpt lat="43.1273082" lon="-2.7777775">
        <ele>121.302</ele>
        <time>2021-04-01T09:18:51.649Z</time>
      </trkpt>
      <trkpt lat="43.1273122" lon="-2.7777798">
        <ele>121.282</ele>
        <time>2021-04-01T09:18:51.704Z</time>
      </trkpt>
      <trkpt lat="43.1273161" lon="-2.7777824">
        <ele>121.276</ele>
        <time>2021-04-01T09:18:51.759Z</time>
      </trkpt>
      <trkpt lat="43.1273201" lon="-2.7777849">
        <ele>121.286</ele>
        <time>2021-04-01T09:18:51.814Z</time>
      </trkpt>
      <trkpt lat="43.1273242" lon="-2.7777874">
        <ele>121.295</ele>
        <time>2021-04-01T09:18:51.869Z</time>
      </trkpt>
      <trkpt lat="43.1273282" lon="-2.7777902">
        <ele>121.273</ele>
        <time>2021-04-01T09:18:51.924Z</time>
      </trkpt>
      <trkpt lat="43.1273321" lon="-2.7777928">
        <ele>121.264</ele>
        <time>2021-04-01T09:18:51.979Z</time>
      </trkpt>
      <trkpt lat="43.127336" lon="-2.7777953">
        <ele>121.257</ele>
        <time>2021-04-01T09:18:52.034Z</time>
      </trkpt>
      <trkpt lat="43.1273399" lon="-2.7777979">
        <ele>121.276</ele>
        <time>2021-04-01T09:18:52.089Z</time>
      </trkpt>
      <trkpt lat="43.1273439" lon="-2.7778003">
        <ele>121.29</ele>
        <time>2021-04-01T09:18:52.144Z</time>
      </trkpt>
      <trkpt lat="43.1273479" lon="-2.7778027">
        <ele>121.297</ele>
        <time>2021-04-01T09:18:52.199Z</time>
      </trkpt>
      <trkpt lat="43.1273519" lon="-2.7778054">
        <ele>121.325</ele>
        <time>2021-04-01T09:18:52.254Z</time>
      </trkpt>
      <trkpt lat="43.1273558" lon="-2.7778079">
        <ele>121.329</ele>
        <time>2021-04-01T09:18:52.309Z</time>
      </trkpt>
      <trkpt lat="43.12736" lon="-2.7778103">
        <ele>121.333</ele>
        <time>2021-04-01T09:18:52.364Z</time>
      </trkpt>
      <trkpt lat="43.127364" lon="-2.7778129">
        <ele>121.343</ele>
        <time>2021-04-01T09:18:52.419Z</time>
      </trkpt>
      <trkpt lat="43.1273679" lon="-2.7778154">
        <ele>121.343</ele>
        <time>2021-04-01T09:18:52.474Z</time>
      </trkpt>
      <trkpt lat="43.1273718" lon="-2.7778177">
        <ele>121.355</ele>
        <time>2021-04-01T09:18:52.529Z</time>
      </trkpt>
      <trkpt lat="43.1273759" lon="-2.7778202">
        <ele>121.375</ele>
        <time>2021-04-01T09:18:52.584Z</time>
      </trkpt>
      <trkpt lat="43.1273799" lon="-2.7778225">
        <ele>121.394</ele>
        <time>2021-04-01T09:18:52.639Z</time>
      </trkpt>
      <trkpt lat="43.1273839" lon="-2.7778251">
        <ele>121.388</ele>
        <time>2021-04-01T09:18:52.694Z</time>
      </trkpt>
      <trkpt lat="43.1273879" lon="-2.7778278">
        <ele>121.391</ele>
        <time>2021-04-01T09:18:52.749Z</time>
      </trkpt>
      <trkpt lat="43.1273917" lon="-2.7778304">
        <ele>121.366</ele>
        <time>2021-04-01T09:18:52.804Z</time>
      </trkpt>
      <trkpt lat="43.1273958" lon="-2.7778331">
        <ele>121.409</ele>
        <time>2021-04-01T09:18:52.859Z</time>
      </trkpt>
      <trkpt lat="43.1273998" lon="-2.7778354">
        <ele>121.416</ele>
        <time>2021-04-01T09:18:52.914Z</time>
      </trkpt>
      <trkpt lat="43.1274037" lon="-2.7778378">
        <ele>121.413</ele>
        <time>2021-04-01T09:18:52.969Z</time>
      </trkpt>
      <trkpt lat="43.1274077" lon="-2.7778404">
        <ele>121.416</ele>
        <time>2021-04-01T09:18:53.024Z</time>
      </trkpt>
      <trkpt lat="43.1274116" lon="-2.7778429">
        <ele>121.422</ele>
        <time>2021-04-01T09:18:53.079Z</time>
      </trkpt>
      <trkpt lat="43.1274156" lon="-2.7778453">
        <ele>121.438</ele>
        <time>2021-04-01T09:18:53.134Z</time>
      </trkpt>
      <trkpt lat="43.1274194" lon="-2.7778477">
        <ele>121.441</ele>
        <time>2021-04-01T09:18:53.189Z</time>
      </trkpt>
      <trkpt lat="43.1274233" lon="-2.7778502">
        <ele>121.436</ele>
        <time>2021-04-01T09:18:53.244Z</time>
      </trkpt>
      <trkpt lat="43.1274273" lon="-2.7778528">
        <ele>121.448</ele>
        <time>2021-04-01T09:18:53.299Z</time>
      </trkpt>
      <trkpt lat="43.1274313" lon="-2.7778551">
        <ele>121.455</ele>
        <time>2021-04-01T09:18:53.354Z</time>
      </trkpt>
      <trkpt lat="43.1274353" lon="-2.7778574">
        <ele>121.459</ele>
        <time>2021-04-01T09:18:53.409Z</time>
      </trkpt>
      <trkpt lat="43.1274393" lon="-2.7778598">
        <ele>121.466</ele>
        <time>2021-04-01T09:18:53.464Z</time>
      </trkpt>
      <trkpt lat="43.1274432" lon="-2.7778624">
        <ele>121.455</ele>
        <time>2021-04-01T09:18:53.519Z</time>
      </trkpt>
      <trkpt lat="43.1274471" lon="-2.777865">
        <ele>121.455</ele>
        <time>2021-04-01T09:18:53.574Z</time>
      </trkpt>
      <trkpt lat="43.1274512" lon="-2.7778674">
        <ele>121.469</ele>
        <time>2021-04-01T09:18:53.629Z</time>
      </trkpt>
      <trkpt lat="43.1274552" lon="-2.7778699">
        <ele>121.484</ele>
        <time>2021-04-01T09:18:53.684Z</time>
      </trkpt>
      <trkpt lat="43.1274591" lon="-2.7778724">
        <ele>121.483</ele>
        <time>2021-04-01T09:18:53.739Z</time>
      </trkpt>
      <trkpt lat="43.1274631" lon="-2.7778751">
        <ele>121.498</ele>
        <time>2021-04-01T09:18:53.794Z</time>
      </trkpt>
      <trkpt lat="43.1274671" lon="-2.7778777">
        <ele>121.492</ele>
        <time>2021-04-01T09:18:53.849Z</time>
      </trkpt>
      <trkpt lat="43.127471" lon="-2.7778802">
        <ele>121.472</ele>
        <time>2021-04-01T09:18:53.904Z</time>
      </trkpt>
      <trkpt lat="43.127475" lon="-2.7778827">
        <ele>121.472</ele>
        <time>2021-04-01T09:18:53.959Z</time>
      </trkpt>
      <trkpt lat="43.1274791" lon="-2.7778851">
        <ele>121.46</ele>
        <time>2021-04-01T09:18:54.014Z</time>
      </trkpt>
      <trkpt lat="43.1274831" lon="-2.7778875">
        <ele>121.458</ele>
        <time>2021-04-01T09:18:54.069Z</time>
      </trkpt>
      <trkpt lat="43.127487" lon="-2.7778898">
        <ele>121.451</ele>
        <time>2021-04-01T09:18:54.124Z</time>
      </trkpt>
      <trkpt lat="43.1274912" lon="-2.7778919">
        <ele>121.472</ele>
        <time>2021-04-01T09:18:54.179Z</time>
      </trkpt>
      <trkpt lat="43.1274952" lon="-2.7778943">
        <ele>121.459</ele>
        <time>2021-04-01T09:18:54.234Z</time>
      </trkpt>
      <trkpt lat="43.1274989" lon="-2.7778969">
        <ele>121.457</ele>
        <time>2021-04-01T09:18:54.289Z</time>
      </trkpt>
      <trkpt lat="43.1275027" lon="-2.7778993">
        <ele>121.464</ele>
        <time>2021-04-01T09:18:54.344Z</time>
      </trkpt>
      <trkpt lat="43.1275067" lon="-2.7779019">
        <ele>121.487</ele>
        <time>2021-04-01T09:18:54.399Z</time>
      </trkpt>
      <trkpt lat="43.1275107" lon="-2.7779044">
        <ele>121.5</ele>
        <time>2021-04-01T09:18:54.454Z</time>
      </trkpt>
      <trkpt lat="43.1275146" lon="-2.7779069">
        <ele>121.506</ele>
        <time>2021-04-01T09:18:54.509Z</time>
      </trkpt>
      <trkpt lat="43.1275185" lon="-2.7779095">
        <ele>121.498</ele>
        <time>2021-04-01T09:18:54.564Z</time>
      </trkpt>
      <trkpt lat="43.1275224" lon="-2.7779118">
        <ele>121.492</ele>
        <time>2021-04-01T09:18:54.619Z</time>
      </trkpt>
      <trkpt lat="43.1275264" lon="-2.7779142">
        <ele>121.506</ele>
        <time>2021-04-01T09:18:54.674Z</time>
      </trkpt>
      <trkpt lat="43.1275302" lon="-2.7779163">
        <ele>121.488</ele>
        <time>2021-04-01T09:18:54.729Z</time>
      </trkpt>
      <trkpt lat="43.1275341" lon="-2.7779192">
        <ele>121.51</ele>
        <time>2021-04-01T09:18:54.784Z</time>
      </trkpt>
      <trkpt lat="43.127538" lon="-2.7779218">
        <ele>121.514</ele>
        <time>2021-04-01T09:18:54.839Z</time>
      </trkpt>
      <trkpt lat="43.1275419" lon="-2.7779243">
        <ele>121.53</ele>
        <time>2021-04-01T09:18:54.894Z</time>
      </trkpt>
      <trkpt lat="43.1275457" lon="-2.7779268">
        <ele>121.515</ele>
        <time>2021-04-01T09:18:54.949Z</time>
      </trkpt>
      <trkpt lat="43.1275496" lon="-2.7779293">
        <ele>121.52</ele>
        <time>2021-04-01T09:18:55.004Z</time>
      </trkpt>
      <trkpt lat="43.1275534" lon="-2.7779317">
        <ele>121.509</ele>
        <time>2021-04-01T09:18:55.059Z</time>
      </trkpt>
      <trkpt lat="43.1275573" lon="-2.777934">
        <ele>121.509</ele>
        <time>2021-04-01T09:18:55.114Z</time>
      </trkpt>
      <trkpt lat="43.1275612" lon="-2.7779363">
        <ele>121.511</ele>
        <time>2021-04-01T09:18:55.169Z</time>
      </trkpt>
      <trkpt lat="43.1275652" lon="-2.7779387">
        <ele>121.517</ele>
        <time>2021-04-01T09:18:55.224Z</time>
      </trkpt>
      <trkpt lat="43.1275691" lon="-2.7779413">
        <ele>121.507</ele>
        <time>2021-04-01T09:18:55.279Z</time>
      </trkpt>
      <trkpt lat="43.1275729" lon="-2.7779437">
        <ele>121.52</ele>
        <time>2021-04-01T09:18:55.334Z</time>
      </trkpt>
      <trkpt lat="43.1275768" lon="-2.777946">
        <ele>121.517</ele>
        <time>2021-04-01T09:18:55.389Z</time>
      </trkpt>
      <trkpt lat="43.1275808" lon="-2.7779481">
        <ele>121.519</ele>
        <time>2021-04-01T09:18:55.444Z</time>
      </trkpt>
      <trkpt lat="43.1275849" lon="-2.7779501">
        <ele>121.504</ele>
        <time>2021-04-01T09:18:55.499Z</time>
      </trkpt>
      <trkpt lat="43.1275888" lon="-2.7779525">
        <ele>121.49</ele>
        <time>2021-04-01T09:18:55.554Z</time>
      </trkpt>
      <trkpt lat="43.1275927" lon="-2.7779547">
        <ele>121.49</ele>
        <time>2021-04-01T09:18:55.609Z</time>
      </trkpt>
      <trkpt lat="43.1275967" lon="-2.7779569">
        <ele>121.514</ele>
        <time>2021-04-01T09:18:55.664Z</time>
      </trkpt>
      <trkpt lat="43.1276007" lon="-2.7779593">
        <ele>121.522</ele>
        <time>2021-04-01T09:18:55.719Z</time>
      </trkpt>
      <trkpt lat="43.1276046" lon="-2.7779617">
        <ele>121.494</ele>
        <time>2021-04-01T09:18:55.774Z</time>
      </trkpt>
      <trkpt lat="43.1276086" lon="-2.7779641">
        <ele>121.475</ele>
        <time>2021-04-01T09:18:55.829Z</time>
      </trkpt>
      <trkpt lat="43.1276125" lon="-2.7779664">
        <ele>121.47</ele>
        <time>2021-04-01T09:18:55.884Z</time>
      </trkpt>
      <trkpt lat="43.1276165" lon="-2.7779688">
        <ele>121.482</ele>
        <time>2021-04-01T09:18:55.939Z</time>
      </trkpt>
      <trkpt lat="43.1276204" lon="-2.7779713">
        <ele>121.488</ele>
        <time>2021-04-01T09:18:55.994Z</time>
      </trkpt>
      <trkpt lat="43.1276242" lon="-2.777974">
        <ele>121.504</ele>
        <time>2021-04-01T09:18:56.049Z</time>
      </trkpt>
      <trkpt lat="43.1276281" lon="-2.7779761">
        <ele>121.51</ele>
        <time>2021-04-01T09:18:56.104Z</time>
      </trkpt>
      <trkpt lat="43.1276322" lon="-2.7779783">
        <ele>121.503</ele>
        <time>2021-04-01T09:18:56.159Z</time>
      </trkpt>
      <trkpt lat="43.1276361" lon="-2.7779805">
        <ele>121.482</ele>
        <time>2021-04-01T09:18:56.214Z</time>
      </trkpt>
      <trkpt lat="43.1276401" lon="-2.7779825">
        <ele>121.476</ele>
        <time>2021-04-01T09:18:56.269Z</time>
      </trkpt>
      <trkpt lat="43.1276439" lon="-2.7779848">
        <ele>121.486</ele>
        <time>2021-04-01T09:18:56.324Z</time>
      </trkpt>
      <trkpt lat="43.1276479" lon="-2.777987">
        <ele>121.508</ele>
        <time>2021-04-01T09:18:56.379Z</time>
      </trkpt>
      <trkpt lat="43.1276518" lon="-2.7779893">
        <ele>121.533</ele>
        <time>2021-04-01T09:18:56.434Z</time>
      </trkpt>
      <trkpt lat="43.1276556" lon="-2.7779918">
        <ele>121.544</ele>
        <time>2021-04-01T09:18:56.489Z</time>
      </trkpt>
      <trkpt lat="43.1276595" lon="-2.7779942">
        <ele>121.553</ele>
        <time>2021-04-01T09:18:56.544Z</time>
      </trkpt>
      <trkpt lat="43.1276635" lon="-2.7779965">
        <ele>121.572</ele>
        <time>2021-04-01T09:18:56.599Z</time>
      </trkpt>
      <trkpt lat="43.1276673" lon="-2.777999">
        <ele>121.568</ele>
        <time>2021-04-01T09:18:56.654Z</time>
      </trkpt>
      <trkpt lat="43.1276714" lon="-2.7780013">
        <ele>121.556</ele>
        <time>2021-04-01T09:18:56.709Z</time>
      </trkpt>
      <trkpt lat="43.1276753" lon="-2.7780037">
        <ele>121.56</ele>
        <time>2021-04-01T09:18:56.764Z</time>
      </trkpt>
      <trkpt lat="43.1276792" lon="-2.7780061">
        <ele>121.568</ele>
        <time>2021-04-01T09:18:56.819Z</time>
      </trkpt>
      <trkpt lat="43.1276831" lon="-2.7780085">
        <ele>121.568</ele>
        <time>2021-04-01T09:18:56.874Z</time>
      </trkpt>
      <trkpt lat="43.127687" lon="-2.7780107">
        <ele>121.58</ele>
        <time>2021-04-01T09:18:56.929Z</time>
      </trkpt>
      <trkpt lat="43.1276908" lon="-2.7780128">
        <ele>121.602</ele>
        <time>2021-04-01T09:18:56.984Z</time>
      </trkpt>
      <trkpt lat="43.1276948" lon="-2.7780152">
        <ele>121.584</ele>
        <time>2021-04-01T09:18:57.039Z</time>
      </trkpt>
      <trkpt lat="43.1276988" lon="-2.7780177">
        <ele>121.569</ele>
        <time>2021-04-01T09:18:57.091Z</time>
      </trkpt>
      <trkpt lat="43.1277028" lon="-2.7780199">
        <ele>121.565</ele>
        <time>2021-04-01T09:18:57.143Z</time>
      </trkpt>
      <trkpt lat="43.1277068" lon="-2.7780221">
        <ele>121.591</ele>
        <time>2021-04-01T09:18:57.195Z</time>
      </trkpt>
      <trkpt lat="43.1277108" lon="-2.7780245">
        <ele>121.572</ele>
        <time>2021-04-01T09:18:57.247Z</time>
      </trkpt>
      <trkpt lat="43.1277146" lon="-2.7780271">
        <ele>121.566</ele>
        <time>2021-04-01T09:18:57.299Z</time>
      </trkpt>
      <trkpt lat="43.1277184" lon="-2.7780296">
        <ele>121.572</ele>
        <time>2021-04-01T09:18:57.351Z</time>
      </trkpt>
      <trkpt lat="43.1277225" lon="-2.778032">
        <ele>121.549</ele>
        <time>2021-04-01T09:18:57.403Z</time>
      </trkpt>
      <trkpt lat="43.1277264" lon="-2.7780347">
        <ele>121.55</ele>
        <time>2021-04-01T09:18:57.455Z</time>
      </trkpt>
      <trkpt lat="43.1277302" lon="-2.7780373">
        <ele>121.565</ele>
        <time>2021-04-01T09:18:57.507Z</time>
      </trkpt>
      <trkpt lat="43.1277339" lon="-2.7780399">
        <ele>121.577</ele>
        <time>2021-04-01T09:18:57.560Z</time>
      </trkpt>
      <trkpt lat="43.1277378" lon="-2.7780424">
        <ele>121.61</ele>
        <time>2021-04-01T09:18:57.612Z</time>
      </trkpt>
      <trkpt lat="43.1277417" lon="-2.7780448">
        <ele>121.619</ele>
        <time>2021-04-01T09:18:57.664Z</time>
      </trkpt>
      <trkpt lat="43.1277455" lon="-2.7780475">
        <ele>121.615</ele>
        <time>2021-04-01T09:18:57.716Z</time>
      </trkpt>
      <trkpt lat="43.1277493" lon="-2.7780499">
        <ele>121.607</ele>
        <time>2021-04-01T09:18:57.768Z</time>
      </trkpt>
      <trkpt lat="43.1277533" lon="-2.778052">
        <ele>121.593</ele>
        <time>2021-04-01T09:18:57.820Z</time>
      </trkpt>
      <trkpt lat="43.1277573" lon="-2.7780545">
        <ele>121.601</ele>
        <time>2021-04-01T09:18:57.872Z</time>
      </trkpt>
      <trkpt lat="43.1277611" lon="-2.7780572">
        <ele>121.61</ele>
        <time>2021-04-01T09:18:57.924Z</time>
      </trkpt>
      <trkpt lat="43.1277649" lon="-2.7780597">
        <ele>121.602</ele>
        <time>2021-04-01T09:18:57.976Z</time>
      </trkpt>
      <trkpt lat="43.1277686" lon="-2.7780624">
        <ele>121.618</ele>
        <time>2021-04-01T09:18:58.029Z</time>
      </trkpt>
      <trkpt lat="43.1277725" lon="-2.778065">
        <ele>121.621</ele>
        <time>2021-04-01T09:18:58.090Z</time>
      </trkpt>
      <trkpt lat="43.1277763" lon="-2.7780675">
        <ele>121.608</ele>
        <time>2021-04-01T09:18:58.151Z</time>
      </trkpt>
      <trkpt lat="43.12778" lon="-2.7780702">
        <ele>121.602</ele>
        <time>2021-04-01T09:18:58.213Z</time>
      </trkpt>
      <trkpt lat="43.1277838" lon="-2.7780728">
        <ele>121.623</ele>
        <time>2021-04-01T09:18:58.274Z</time>
      </trkpt>
      <trkpt lat="43.1277876" lon="-2.7780752">
        <ele>121.628</ele>
        <time>2021-04-01T09:18:58.336Z</time>
      </trkpt>
      <trkpt lat="43.1277914" lon="-2.7780776">
        <ele>121.618</ele>
        <time>2021-04-01T09:18:58.397Z</time>
      </trkpt>
      <trkpt lat="43.1277954" lon="-2.7780801">
        <ele>121.608</ele>
        <time>2021-04-01T09:18:58.459Z</time>
      </trkpt>
      <trkpt lat="43.1277992" lon="-2.7780826">
        <ele>121.605</ele>
        <time>2021-04-01T09:18:58.520Z</time>
      </trkpt>
      <trkpt lat="43.127803" lon="-2.7780851">
        <ele>121.623</ele>
        <time>2021-04-01T09:18:58.582Z</time>
      </trkpt>
      <trkpt lat="43.1278068" lon="-2.7780876">
        <ele>121.622</ele>
        <time>2021-04-01T09:18:58.643Z</time>
      </trkpt>
      <trkpt lat="43.1278106" lon="-2.7780901">
        <ele>121.625</ele>
        <time>2021-04-01T09:18:58.705Z</time>
      </trkpt>
      <trkpt lat="43.1278144" lon="-2.7780926">
        <ele>121.624</ele>
        <time>2021-04-01T09:18:58.766Z</time>
      </trkpt>
      <trkpt lat="43.1278181" lon="-2.778095">
        <ele>121.616</ele>
        <time>2021-04-01T09:18:58.828Z</time>
      </trkpt>
      <trkpt lat="43.1278219" lon="-2.7780975">
        <ele>121.591</ele>
        <time>2021-04-01T09:18:58.889Z</time>
      </trkpt>
      <trkpt lat="43.1278256" lon="-2.7780999">
        <ele>121.571</ele>
        <time>2021-04-01T09:18:58.951Z</time>
      </trkpt>
      <trkpt lat="43.1278294" lon="-2.7781024">
        <ele>121.575</ele>
        <time>2021-04-01T09:18:59.012Z</time>
      </trkpt>
      <trkpt lat="43.1278333" lon="-2.778105">
        <ele>121.592</ele>
        <time>2021-04-01T09:18:59.074Z</time>
      </trkpt>
      <trkpt lat="43.1278369" lon="-2.7781075">
        <ele>121.644</ele>
        <time>2021-04-01T09:18:59.126Z</time>
      </trkpt>
      <trkpt lat="43.1278405" lon="-2.77811">
        <ele>121.701</ele>
        <time>2021-04-01T09:18:59.178Z</time>
      </trkpt>
      <trkpt lat="43.1278441" lon="-2.778113">
        <ele>121.703</ele>
        <time>2021-04-01T09:18:59.230Z</time>
      </trkpt>
      <trkpt lat="43.1278472" lon="-2.7781163">
        <ele>121.682</ele>
        <time>2021-04-01T09:18:59.282Z</time>
      </trkpt>
      <trkpt lat="43.1278502" lon="-2.7781193">
        <ele>121.619</ele>
        <time>2021-04-01T09:18:59.334Z</time>
      </trkpt>
      <trkpt lat="43.1278545" lon="-2.7781205">
        <ele>121.529</ele>
        <time>2021-04-01T09:18:59.386Z</time>
      </trkpt>
      <trkpt lat="43.1278582" lon="-2.7781227">
        <ele>121.543</ele>
        <time>2021-04-01T09:18:59.438Z</time>
      </trkpt>
      <trkpt lat="43.127862" lon="-2.7781249">
        <ele>121.562</ele>
        <time>2021-04-01T09:18:59.490Z</time>
      </trkpt>
      <trkpt lat="43.1278659" lon="-2.7781277">
        <ele>121.54</ele>
        <time>2021-04-01T09:18:59.542Z</time>
      </trkpt>
      <trkpt lat="43.1278697" lon="-2.7781305">
        <ele>121.511</ele>
        <time>2021-04-01T09:18:59.595Z</time>
      </trkpt>
      <trkpt lat="43.1278734" lon="-2.7781327">
        <ele>121.488</ele>
        <time>2021-04-01T09:18:59.647Z</time>
      </trkpt>
      <trkpt lat="43.1278771" lon="-2.7781353">
        <ele>121.465</ele>
        <time>2021-04-01T09:18:59.699Z</time>
      </trkpt>
      <trkpt lat="43.1278808" lon="-2.7781378">
        <ele>121.45</ele>
        <time>2021-04-01T09:18:59.751Z</time>
      </trkpt>
      <trkpt lat="43.1278843" lon="-2.7781404">
        <ele>121.443</ele>
        <time>2021-04-01T09:18:59.803Z</time>
      </trkpt>
      <trkpt lat="43.1278878" lon="-2.778143">
        <ele>121.448</ele>
        <time>2021-04-01T09:18:59.855Z</time>
      </trkpt>
      <trkpt lat="43.1278914" lon="-2.7781461">
        <ele>121.422</ele>
        <time>2021-04-01T09:18:59.907Z</time>
      </trkpt>
      <trkpt lat="43.1278948" lon="-2.778149">
        <ele>121.408</ele>
        <time>2021-04-01T09:18:59.959Z</time>
      </trkpt>
      <trkpt lat="43.1278981" lon="-2.7781523">
        <ele>121.411</ele>
        <time>2021-04-01T09:19:00.011Z</time>
      </trkpt>
      <trkpt lat="43.1279015" lon="-2.778155">
        <ele>121.408</ele>
        <time>2021-04-01T09:19:00.064Z</time>
      </trkpt>
      <trkpt lat="43.1279048" lon="-2.7781581">
        <ele>121.417</ele>
        <time>2021-04-01T09:19:00.119Z</time>
      </trkpt>
      <trkpt lat="43.1279083" lon="-2.7781611">
        <ele>121.421</ele>
        <time>2021-04-01T09:19:00.174Z</time>
      </trkpt>
      <trkpt lat="43.1279119" lon="-2.7781642">
        <ele>121.408</ele>
        <time>2021-04-01T09:19:00.229Z</time>
      </trkpt>
      <trkpt lat="43.1279154" lon="-2.7781671">
        <ele>121.381</ele>
        <time>2021-04-01T09:19:00.284Z</time>
      </trkpt>
      <trkpt lat="43.1279191" lon="-2.7781699">
        <ele>121.367</ele>
        <time>2021-04-01T09:19:00.339Z</time>
      </trkpt>
      <trkpt lat="43.1279228" lon="-2.7781728">
        <ele>121.366</ele>
        <time>2021-04-01T09:19:00.394Z</time>
      </trkpt>
      <trkpt lat="43.1279262" lon="-2.778176">
        <ele>121.34</ele>
        <time>2021-04-01T09:19:00.449Z</time>
      </trkpt>
      <trkpt lat="43.1279295" lon="-2.7781792">
        <ele>121.309</ele>
        <time>2021-04-01T09:19:00.504Z</time>
      </trkpt>
      <trkpt lat="43.1279329" lon="-2.7781824">
        <ele>121.288</ele>
        <time>2021-04-01T09:19:00.559Z</time>
      </trkpt>
      <trkpt lat="43.1279363" lon="-2.7781855">
        <ele>121.281</ele>
        <time>2021-04-01T09:19:00.614Z</time>
      </trkpt>
      <trkpt lat="43.1279397" lon="-2.7781887">
        <ele>121.273</ele>
        <time>2021-04-01T09:19:00.669Z</time>
      </trkpt>
      <trkpt lat="43.127943" lon="-2.7781919">
        <ele>121.244</ele>
        <time>2021-04-01T09:19:00.724Z</time>
      </trkpt>
      <trkpt lat="43.1279463" lon="-2.7781953">
        <ele>121.249</ele>
        <time>2021-04-01T09:19:00.779Z</time>
      </trkpt>
      <trkpt lat="43.1279496" lon="-2.7781985">
        <ele>121.255</ele>
        <time>2021-04-01T09:19:00.834Z</time>
      </trkpt>
      <trkpt lat="43.1279531" lon="-2.7782014">
        <ele>121.228</ele>
        <time>2021-04-01T09:19:00.889Z</time>
      </trkpt>
      <trkpt lat="43.1279564" lon="-2.7782047">
        <ele>121.224</ele>
        <time>2021-04-01T09:19:00.944Z</time>
      </trkpt>
      <trkpt lat="43.1279594" lon="-2.7782083">
        <ele>121.217</ele>
        <time>2021-04-01T09:19:00.999Z</time>
      </trkpt>
      <trkpt lat="43.1279626" lon="-2.7782113">
        <ele>121.218</ele>
        <time>2021-04-01T09:19:01.054Z</time>
      </trkpt>
      <trkpt lat="43.1279659" lon="-2.7782146">
        <ele>121.21</ele>
        <time>2021-04-01T09:19:01.109Z</time>
      </trkpt>
      <trkpt lat="43.1279693" lon="-2.7782176">
        <ele>121.194</ele>
        <time>2021-04-01T09:19:01.164Z</time>
      </trkpt>
      <trkpt lat="43.1279727" lon="-2.7782206">
        <ele>121.191</ele>
        <time>2021-04-01T09:19:01.219Z</time>
      </trkpt>
      <trkpt lat="43.1279759" lon="-2.778224">
        <ele>121.177</ele>
        <time>2021-04-01T09:19:01.274Z</time>
      </trkpt>
      <trkpt lat="43.1279792" lon="-2.7782271">
        <ele>121.156</ele>
        <time>2021-04-01T09:19:01.329Z</time>
      </trkpt>
      <trkpt lat="43.1279824" lon="-2.7782306">
        <ele>121.124</ele>
        <time>2021-04-01T09:19:01.384Z</time>
      </trkpt>
      <trkpt lat="43.1279859" lon="-2.7782333">
        <ele>121.089</ele>
        <time>2021-04-01T09:19:01.439Z</time>
      </trkpt>
      <trkpt lat="43.1279894" lon="-2.7782366">
        <ele>121.1</ele>
        <time>2021-04-01T09:19:01.494Z</time>
      </trkpt>
      <trkpt lat="43.1279927" lon="-2.7782399">
        <ele>121.1</ele>
        <time>2021-04-01T09:19:01.549Z</time>
      </trkpt>
      <trkpt lat="43.127996" lon="-2.7782433">
        <ele>121.083</ele>
        <time>2021-04-01T09:19:01.604Z</time>
      </trkpt>
      <trkpt lat="43.1279993" lon="-2.7782466">
        <ele>121.06</ele>
        <time>2021-04-01T09:19:01.659Z</time>
      </trkpt>
      <trkpt lat="43.1280027" lon="-2.7782496">
        <ele>121.07</ele>
        <time>2021-04-01T09:19:01.714Z</time>
      </trkpt>
      <trkpt lat="43.128006" lon="-2.778253">
        <ele>121.075</ele>
        <time>2021-04-01T09:19:01.769Z</time>
      </trkpt>
      <trkpt lat="43.1280093" lon="-2.7782564">
        <ele>121.091</ele>
        <time>2021-04-01T09:19:01.824Z</time>
      </trkpt>
      <trkpt lat="43.1280127" lon="-2.7782594">
        <ele>121.084</ele>
        <time>2021-04-01T09:19:01.879Z</time>
      </trkpt>
      <trkpt lat="43.1280162" lon="-2.7782625">
        <ele>121.069</ele>
        <time>2021-04-01T09:19:01.934Z</time>
      </trkpt>
      <trkpt lat="43.1280196" lon="-2.7782654">
        <ele>121.036</ele>
        <time>2021-04-01T09:19:01.989Z</time>
      </trkpt>
      <trkpt lat="43.128023" lon="-2.7782686">
        <ele>121.024</ele>
        <time>2021-04-01T09:19:02.044Z</time>
      </trkpt>
      <trkpt lat="43.1280265" lon="-2.7782717">
        <ele>121.022</ele>
        <time>2021-04-01T09:19:02.099Z</time>
      </trkpt>
      <trkpt lat="43.1280299" lon="-2.7782747">
        <ele>120.994</ele>
        <time>2021-04-01T09:19:02.154Z</time>
      </trkpt>
      <trkpt lat="43.1280333" lon="-2.7782776">
        <ele>120.96</ele>
        <time>2021-04-01T09:19:02.209Z</time>
      </trkpt>
      <trkpt lat="43.1280367" lon="-2.7782809">
        <ele>120.963</ele>
        <time>2021-04-01T09:19:02.264Z</time>
      </trkpt>
      <trkpt lat="43.1280401" lon="-2.7782841">
        <ele>120.96</ele>
        <time>2021-04-01T09:19:02.319Z</time>
      </trkpt>
      <trkpt lat="43.1280436" lon="-2.778287">
        <ele>120.955</ele>
        <time>2021-04-01T09:19:02.374Z</time>
      </trkpt>
      <trkpt lat="43.1280471" lon="-2.77829">
        <ele>120.919</ele>
        <time>2021-04-01T09:19:02.429Z</time>
      </trkpt>
      <trkpt lat="43.1280506" lon="-2.778293">
        <ele>120.876</ele>
        <time>2021-04-01T09:19:02.484Z</time>
      </trkpt>
      <trkpt lat="43.1280541" lon="-2.778296">
        <ele>120.849</ele>
        <time>2021-04-01T09:19:02.539Z</time>
      </trkpt>
      <trkpt lat="43.1280575" lon="-2.7782992">
        <ele>120.828</ele>
        <time>2021-04-01T09:19:02.594Z</time>
      </trkpt>
      <trkpt lat="43.1280609" lon="-2.7783025">
        <ele>120.831</ele>
        <time>2021-04-01T09:19:02.649Z</time>
      </trkpt>
      <trkpt lat="43.1280642" lon="-2.778306">
        <ele>120.816</ele>
        <time>2021-04-01T09:19:02.704Z</time>
      </trkpt>
      <trkpt lat="43.1280676" lon="-2.7783094">
        <ele>120.809</ele>
        <time>2021-04-01T09:19:02.759Z</time>
      </trkpt>
      <trkpt lat="43.1280711" lon="-2.7783126">
        <ele>120.799</ele>
        <time>2021-04-01T09:19:02.814Z</time>
      </trkpt>
      <trkpt lat="43.1280744" lon="-2.778316">
        <ele>120.817</ele>
        <time>2021-04-01T09:19:02.869Z</time>
      </trkpt>
      <trkpt lat="43.1280777" lon="-2.7783195">
        <ele>120.816</ele>
        <time>2021-04-01T09:19:02.924Z</time>
      </trkpt>
      <trkpt lat="43.128081" lon="-2.7783231">
        <ele>120.812</ele>
        <time>2021-04-01T09:19:02.979Z</time>
      </trkpt>
      <trkpt lat="43.1280846" lon="-2.7783263">
        <ele>120.805</ele>
        <time>2021-04-01T09:19:03.034Z</time>
      </trkpt>
      <trkpt lat="43.128088" lon="-2.7783295">
        <ele>120.788</ele>
        <time>2021-04-01T09:19:03.089Z</time>
      </trkpt>
      <trkpt lat="43.1280915" lon="-2.7783326">
        <ele>120.766</ele>
        <time>2021-04-01T09:19:03.144Z</time>
      </trkpt>
      <trkpt lat="43.128095" lon="-2.778336">
        <ele>120.743</ele>
        <time>2021-04-01T09:19:03.199Z</time>
      </trkpt>
      <trkpt lat="43.1280984" lon="-2.7783394">
        <ele>120.743</ele>
        <time>2021-04-01T09:19:03.254Z</time>
      </trkpt>
      <trkpt lat="43.1281019" lon="-2.7783425">
        <ele>120.715</ele>
        <time>2021-04-01T09:19:03.309Z</time>
      </trkpt>
      <trkpt lat="43.1281055" lon="-2.7783458">
        <ele>120.713</ele>
        <time>2021-04-01T09:19:03.364Z</time>
      </trkpt>
      <trkpt lat="43.1281089" lon="-2.7783489">
        <ele>120.672</ele>
        <time>2021-04-01T09:19:03.419Z</time>
      </trkpt>
      <trkpt lat="43.1281124" lon="-2.7783522">
        <ele>120.651</ele>
        <time>2021-04-01T09:19:03.474Z</time>
      </trkpt>
      <trkpt lat="43.1281157" lon="-2.7783554">
        <ele>120.619</ele>
        <time>2021-04-01T09:19:03.529Z</time>
      </trkpt>
      <trkpt lat="43.1281191" lon="-2.7783587">
        <ele>120.596</ele>
        <time>2021-04-01T09:19:03.584Z</time>
      </trkpt>
      <trkpt lat="43.1281224" lon="-2.7783623">
        <ele>120.597</ele>
        <time>2021-04-01T09:19:03.639Z</time>
      </trkpt>
      <trkpt lat="43.1281258" lon="-2.7783655">
        <ele>120.573</ele>
        <time>2021-04-01T09:19:03.694Z</time>
      </trkpt>
      <trkpt lat="43.1281292" lon="-2.778369">
        <ele>120.564</ele>
        <time>2021-04-01T09:19:03.749Z</time>
      </trkpt>
      <trkpt lat="43.1281326" lon="-2.7783726">
        <ele>120.568</ele>
        <time>2021-04-01T09:19:03.804Z</time>
      </trkpt>
      <trkpt lat="43.1281358" lon="-2.7783763">
        <ele>120.56</ele>
        <time>2021-04-01T09:19:03.859Z</time>
      </trkpt>
      <trkpt lat="43.128139" lon="-2.7783802">
        <ele>120.548</ele>
        <time>2021-04-01T09:19:03.914Z</time>
      </trkpt>
      <trkpt lat="43.1281423" lon="-2.7783839">
        <ele>120.527</ele>
        <time>2021-04-01T09:19:03.969Z</time>
      </trkpt>
      <trkpt lat="43.1281456" lon="-2.7783875">
        <ele>120.52</ele>
        <time>2021-04-01T09:19:04.024Z</time>
      </trkpt>
      <trkpt lat="43.1281492" lon="-2.7783907">
        <ele>120.498</ele>
        <time>2021-04-01T09:19:04.079Z</time>
      </trkpt>
      <trkpt lat="43.1281527" lon="-2.778394">
        <ele>120.487</ele>
        <time>2021-04-01T09:19:04.134Z</time>
      </trkpt>
      <trkpt lat="43.1281562" lon="-2.7783972">
        <ele>120.477</ele>
        <time>2021-04-01T09:19:04.189Z</time>
      </trkpt>
      <trkpt lat="43.1281595" lon="-2.7784008">
        <ele>120.468</ele>
        <time>2021-04-01T09:19:04.244Z</time>
      </trkpt>
      <trkpt lat="43.1281629" lon="-2.7784043">
        <ele>120.436</ele>
        <time>2021-04-01T09:19:04.299Z</time>
      </trkpt>
      <trkpt lat="43.1281664" lon="-2.7784076">
        <ele>120.423</ele>
        <time>2021-04-01T09:19:04.354Z</time>
      </trkpt>
      <trkpt lat="43.1281701" lon="-2.7784105">
        <ele>120.414</ele>
        <time>2021-04-01T09:19:04.409Z</time>
      </trkpt>
      <trkpt lat="43.1281734" lon="-2.7784141">
        <ele>120.4</ele>
        <time>2021-04-01T09:19:04.464Z</time>
      </trkpt>
      <trkpt lat="43.1281768" lon="-2.7784179">
        <ele>120.391</ele>
        <time>2021-04-01T09:19:04.519Z</time>
      </trkpt>
      <trkpt lat="43.12818" lon="-2.7784218">
        <ele>120.397</ele>
        <time>2021-04-01T09:19:04.574Z</time>
      </trkpt>
      <trkpt lat="43.1281835" lon="-2.7784255">
        <ele>120.413</ele>
        <time>2021-04-01T09:19:04.629Z</time>
      </trkpt>
      <trkpt lat="43.128187" lon="-2.7784289">
        <ele>120.408</ele>
        <time>2021-04-01T09:19:04.684Z</time>
      </trkpt>
      <trkpt lat="43.1281904" lon="-2.7784322">
        <ele>120.4</ele>
        <time>2021-04-01T09:19:04.739Z</time>
      </trkpt>
      <trkpt lat="43.1281938" lon="-2.7784355">
        <ele>120.386</ele>
        <time>2021-04-01T09:19:04.794Z</time>
      </trkpt>
      <trkpt lat="43.1281973" lon="-2.7784389">
        <ele>120.374</ele>
        <time>2021-04-01T09:19:04.849Z</time>
      </trkpt>
      <trkpt lat="43.1282007" lon="-2.7784423">
        <ele>120.354</ele>
        <time>2021-04-01T09:19:04.904Z</time>
      </trkpt>
      <trkpt lat="43.1282043" lon="-2.7784457">
        <ele>120.318</ele>
        <time>2021-04-01T09:19:04.959Z</time>
      </trkpt>
      <trkpt lat="43.128208" lon="-2.7784494">
        <ele>120.322</ele>
        <time>2021-04-01T09:19:05.014Z</time>
      </trkpt>
      <trkpt lat="43.1282117" lon="-2.7784532">
        <ele>120.444</ele>
        <time>2021-04-01T09:19:05.069Z</time>
      </trkpt>
      <trkpt lat="43.1282155" lon="-2.7784564">
        <ele>120.512</ele>
        <time>2021-04-01T09:19:05.124Z</time>
      </trkpt>
      <trkpt lat="43.1282185" lon="-2.77846">
        <ele>120.451</ele>
        <time>2021-04-01T09:19:05.179Z</time>
      </trkpt>
      <trkpt lat="43.1282217" lon="-2.7784635">
        <ele>120.382</ele>
        <time>2021-04-01T09:19:05.234Z</time>
      </trkpt>
      <trkpt lat="43.1282249" lon="-2.7784669">
        <ele>120.336</ele>
        <time>2021-04-01T09:19:05.289Z</time>
      </trkpt>
      <trkpt lat="43.128228" lon="-2.7784701">
        <ele>120.357</ele>
        <time>2021-04-01T09:19:05.344Z</time>
      </trkpt>
      <trkpt lat="43.1282315" lon="-2.778473">
        <ele>120.334</ele>
        <time>2021-04-01T09:19:05.399Z</time>
      </trkpt>
      <trkpt lat="43.1282349" lon="-2.7784766">
        <ele>120.313</ele>
        <time>2021-04-01T09:19:05.454Z</time>
      </trkpt>
      <trkpt lat="43.1282383" lon="-2.7784803">
        <ele>120.293</ele>
        <time>2021-04-01T09:19:05.509Z</time>
      </trkpt>
      <trkpt lat="43.1282416" lon="-2.7784841">
        <ele>120.267</ele>
        <time>2021-04-01T09:19:05.564Z</time>
      </trkpt>
      <trkpt lat="43.1282453" lon="-2.7784872">
        <ele>120.25</ele>
        <time>2021-04-01T09:19:05.619Z</time>
      </trkpt>
      <trkpt lat="43.1282487" lon="-2.7784907">
        <ele>120.246</ele>
        <time>2021-04-01T09:19:05.674Z</time>
      </trkpt>
      <trkpt lat="43.1282521" lon="-2.7784945">
        <ele>120.272</ele>
        <time>2021-04-01T09:19:05.729Z</time>
      </trkpt>
      <trkpt lat="43.1282554" lon="-2.7784982">
        <ele>120.271</ele>
        <time>2021-04-01T09:19:05.784Z</time>
      </trkpt>
      <trkpt lat="43.1282591" lon="-2.7785013">
        <ele>120.248</ele>
        <time>2021-04-01T09:19:05.839Z</time>
      </trkpt>
      <trkpt lat="43.1282629" lon="-2.7785045">
        <ele>120.226</ele>
        <time>2021-04-01T09:19:05.894Z</time>
      </trkpt>
      <trkpt lat="43.1282664" lon="-2.7785081">
        <ele>120.226</ele>
        <time>2021-04-01T09:19:05.949Z</time>
      </trkpt>
      <trkpt lat="43.1282697" lon="-2.7785119">
        <ele>120.232</ele>
        <time>2021-04-01T09:19:06.004Z</time>
      </trkpt>
      <trkpt lat="43.1282731" lon="-2.7785156">
        <ele>120.239</ele>
        <time>2021-04-01T09:19:06.059Z</time>
      </trkpt>
      <trkpt lat="43.1282765" lon="-2.7785192">
        <ele>120.232</ele>
        <time>2021-04-01T09:19:06.114Z</time>
      </trkpt>
      <trkpt lat="43.12828" lon="-2.7785226">
        <ele>120.218</ele>
        <time>2021-04-01T09:19:06.169Z</time>
      </trkpt>
      <trkpt lat="43.1282834" lon="-2.7785264">
        <ele>120.25</ele>
        <time>2021-04-01T09:19:06.224Z</time>
      </trkpt>
      <trkpt lat="43.1282867" lon="-2.7785304">
        <ele>120.308</ele>
        <time>2021-04-01T09:19:06.279Z</time>
      </trkpt>
      <trkpt lat="43.1282902" lon="-2.778534">
        <ele>120.31</ele>
        <time>2021-04-01T09:19:06.334Z</time>
      </trkpt>
      <trkpt lat="43.1282935" lon="-2.7785381">
        <ele>120.357</ele>
        <time>2021-04-01T09:19:06.389Z</time>
      </trkpt>
      <trkpt lat="43.128297" lon="-2.7785419">
        <ele>120.398</ele>
        <time>2021-04-01T09:19:06.444Z</time>
      </trkpt>
      <trkpt lat="43.1283001" lon="-2.7785465">
        <ele>120.471</ele>
        <time>2021-04-01T09:19:06.499Z</time>
      </trkpt>
      <trkpt lat="43.1283034" lon="-2.7785507">
        <ele>120.529</ele>
        <time>2021-04-01T09:19:06.554Z</time>
      </trkpt>
      <trkpt lat="43.1283069" lon="-2.7785541">
        <ele>120.523</ele>
        <time>2021-04-01T09:19:06.609Z</time>
      </trkpt>
      <trkpt lat="43.1283104" lon="-2.7785576">
        <ele>120.52</ele>
        <time>2021-04-01T09:19:06.664Z</time>
      </trkpt>
      <trkpt lat="43.1283141" lon="-2.778561">
        <ele>120.532</ele>
        <time>2021-04-01T09:19:06.719Z</time>
      </trkpt>
      <trkpt lat="43.1283176" lon="-2.7785643">
        <ele>120.523</ele>
        <time>2021-04-01T09:19:06.774Z</time>
      </trkpt>
      <trkpt lat="43.1283212" lon="-2.7785677">
        <ele>120.528</ele>
        <time>2021-04-01T09:19:06.829Z</time>
      </trkpt>
      <trkpt lat="43.1283248" lon="-2.7785711">
        <ele>120.517</ele>
        <time>2021-04-01T09:19:06.884Z</time>
      </trkpt>
      <trkpt lat="43.1283285" lon="-2.7785743">
        <ele>120.488</ele>
        <time>2021-04-01T09:19:06.939Z</time>
      </trkpt>
      <trkpt lat="43.128332" lon="-2.7785779">
        <ele>120.505</ele>
        <time>2021-04-01T09:19:06.994Z</time>
      </trkpt>
      <trkpt lat="43.1283356" lon="-2.7785813">
        <ele>120.502</ele>
        <time>2021-04-01T09:19:07.049Z</time>
      </trkpt>
      <trkpt lat="43.1283392" lon="-2.7785848">
        <ele>120.501</ele>
        <time>2021-04-01T09:19:07.104Z</time>
      </trkpt>
      <trkpt lat="43.1283427" lon="-2.7785883">
        <ele>120.507</ele>
        <time>2021-04-01T09:19:07.159Z</time>
      </trkpt>
      <trkpt lat="43.1283461" lon="-2.778592">
        <ele>120.553</ele>
        <time>2021-04-01T09:19:07.214Z</time>
      </trkpt>
      <trkpt lat="43.1283497" lon="-2.7785954">
        <ele>120.557</ele>
        <time>2021-04-01T09:19:07.269Z</time>
      </trkpt>
      <trkpt lat="43.1283532" lon="-2.7785987">
        <ele>120.558</ele>
        <time>2021-04-01T09:19:07.324Z</time>
      </trkpt>
      <trkpt lat="43.1283566" lon="-2.7786023">
        <ele>120.591</ele>
        <time>2021-04-01T09:19:07.379Z</time>
      </trkpt>
      <trkpt lat="43.1283602" lon="-2.7786057">
        <ele>120.593</ele>
        <time>2021-04-01T09:19:07.434Z</time>
      </trkpt>
      <trkpt lat="43.128364" lon="-2.7786091">
        <ele>120.598</ele>
        <time>2021-04-01T09:19:07.489Z</time>
      </trkpt>
      <trkpt lat="43.1283676" lon="-2.7786122">
        <ele>120.579</ele>
        <time>2021-04-01T09:19:07.544Z</time>
      </trkpt>
      <trkpt lat="43.1283713" lon="-2.7786154">
        <ele>120.577</ele>
        <time>2021-04-01T09:19:07.599Z</time>
      </trkpt>
      <trkpt lat="43.1283751" lon="-2.7786186">
        <ele>120.588</ele>
        <time>2021-04-01T09:19:07.654Z</time>
      </trkpt>
      <trkpt lat="43.1283788" lon="-2.7786218">
        <ele>120.597</ele>
        <time>2021-04-01T09:19:07.709Z</time>
      </trkpt>
      <trkpt lat="43.1283824" lon="-2.7786251">
        <ele>120.605</ele>
        <time>2021-04-01T09:19:07.764Z</time>
      </trkpt>
      <trkpt lat="43.128386" lon="-2.7786283">
        <ele>120.594</ele>
        <time>2021-04-01T09:19:07.819Z</time>
      </trkpt>
      <trkpt lat="43.1283897" lon="-2.7786315">
        <ele>120.584</ele>
        <time>2021-04-01T09:19:07.874Z</time>
      </trkpt>
      <trkpt lat="43.1283931" lon="-2.778635">
        <ele>120.603</ele>
        <time>2021-04-01T09:19:07.929Z</time>
      </trkpt>
      <trkpt lat="43.1283967" lon="-2.7786385">
        <ele>120.631</ele>
        <time>2021-04-01T09:19:07.984Z</time>
      </trkpt>
      <trkpt lat="43.1284004" lon="-2.778642">
        <ele>120.639</ele>
        <time>2021-04-01T09:19:08.039Z</time>
      </trkpt>
      <trkpt lat="43.128404" lon="-2.7786453">
        <ele>120.644</ele>
        <time>2021-04-01T09:19:08.094Z</time>
      </trkpt>
      <trkpt lat="43.1284076" lon="-2.7786486">
        <ele>120.636</ele>
        <time>2021-04-01T09:19:08.149Z</time>
      </trkpt>
      <trkpt lat="43.1284111" lon="-2.7786518">
        <ele>120.619</ele>
        <time>2021-04-01T09:19:08.204Z</time>
      </trkpt>
      <trkpt lat="43.1284147" lon="-2.7786552">
        <ele>120.621</ele>
        <time>2021-04-01T09:19:08.259Z</time>
      </trkpt>
      <trkpt lat="43.1284184" lon="-2.7786586">
        <ele>120.631</ele>
        <time>2021-04-01T09:19:08.314Z</time>
      </trkpt>
      <trkpt lat="43.128422" lon="-2.778662">
        <ele>120.625</ele>
        <time>2021-04-01T09:19:08.369Z</time>
      </trkpt>
      <trkpt lat="43.1284255" lon="-2.7786655">
        <ele>120.629</ele>
        <time>2021-04-01T09:19:08.424Z</time>
      </trkpt>
      <trkpt lat="43.128429" lon="-2.7786689">
        <ele>120.616</ele>
        <time>2021-04-01T09:19:08.479Z</time>
      </trkpt>
      <trkpt lat="43.1284327" lon="-2.7786722">
        <ele>120.61</ele>
        <time>2021-04-01T09:19:08.534Z</time>
      </trkpt>
      <trkpt lat="43.1284361" lon="-2.7786755">
        <ele>120.599</ele>
        <time>2021-04-01T09:19:08.589Z</time>
      </trkpt>
      <trkpt lat="43.1284398" lon="-2.7786788">
        <ele>120.594</ele>
        <time>2021-04-01T09:19:08.644Z</time>
      </trkpt>
      <trkpt lat="43.1284433" lon="-2.7786822">
        <ele>120.594</ele>
        <time>2021-04-01T09:19:08.699Z</time>
      </trkpt>
      <trkpt lat="43.1284467" lon="-2.7786855">
        <ele>120.581</ele>
        <time>2021-04-01T09:19:08.754Z</time>
      </trkpt>
      <trkpt lat="43.1284502" lon="-2.7786889">
        <ele>120.556</ele>
        <time>2021-04-01T09:19:08.809Z</time>
      </trkpt>
      <trkpt lat="43.1284535" lon="-2.7786922">
        <ele>120.541</ele>
        <time>2021-04-01T09:19:08.864Z</time>
      </trkpt>
      <trkpt lat="43.1284567" lon="-2.7786958">
        <ele>120.531</ele>
        <time>2021-04-01T09:19:08.919Z</time>
      </trkpt>
      <trkpt lat="43.12846" lon="-2.7786992">
        <ele>120.524</ele>
        <time>2021-04-01T09:19:08.974Z</time>
      </trkpt>
      <trkpt lat="43.1284636" lon="-2.7787024">
        <ele>120.521</ele>
        <time>2021-04-01T09:19:09.029Z</time>
      </trkpt>
      <trkpt lat="43.1284674" lon="-2.7787054">
        <ele>120.524</ele>
        <time>2021-04-01T09:19:09.084Z</time>
      </trkpt>
      <trkpt lat="43.1284711" lon="-2.7787087">
        <ele>120.504</ele>
        <time>2021-04-01T09:19:09.142Z</time>
      </trkpt>
      <trkpt lat="43.1284744" lon="-2.7787121">
        <ele>120.474</ele>
        <time>2021-04-01T09:19:09.200Z</time>
      </trkpt>
      <trkpt lat="43.128478" lon="-2.7787154">
        <ele>120.471</ele>
        <time>2021-04-01T09:19:09.258Z</time>
      </trkpt>
      <trkpt lat="43.1284817" lon="-2.7787189">
        <ele>120.47</ele>
        <time>2021-04-01T09:19:09.316Z</time>
      </trkpt>
      <trkpt lat="43.1284853" lon="-2.7787221">
        <ele>120.474</ele>
        <time>2021-04-01T09:19:09.375Z</time>
      </trkpt>
      <trkpt lat="43.1284889" lon="-2.7787253">
        <ele>120.477</ele>
        <time>2021-04-01T09:19:09.433Z</time>
      </trkpt>
      <trkpt lat="43.1284926" lon="-2.7787288">
        <ele>120.487</ele>
        <time>2021-04-01T09:19:09.491Z</time>
      </trkpt>
      <trkpt lat="43.1284961" lon="-2.7787323">
        <ele>120.5</ele>
        <time>2021-04-01T09:19:09.549Z</time>
      </trkpt>
      <trkpt lat="43.1284998" lon="-2.7787357">
        <ele>120.515</ele>
        <time>2021-04-01T09:19:09.608Z</time>
      </trkpt>
      <trkpt lat="43.1285037" lon="-2.778739">
        <ele>120.545</ele>
        <time>2021-04-01T09:19:09.666Z</time>
      </trkpt>
      <trkpt lat="43.1285075" lon="-2.7787424">
        <ele>120.564</ele>
        <time>2021-04-01T09:19:09.724Z</time>
      </trkpt>
      <trkpt lat="43.1285112" lon="-2.7787459">
        <ele>120.583</ele>
        <time>2021-04-01T09:19:09.782Z</time>
      </trkpt>
      <trkpt lat="43.1285146" lon="-2.7787496">
        <ele>120.577</ele>
        <time>2021-04-01T09:19:09.841Z</time>
      </trkpt>
      <trkpt lat="43.1285181" lon="-2.7787532">
        <ele>120.589</ele>
        <time>2021-04-01T09:19:09.899Z</time>
      </trkpt>
      <trkpt lat="43.1285218" lon="-2.7787566">
        <ele>120.591</ele>
        <time>2021-04-01T09:19:09.957Z</time>
      </trkpt>
      <trkpt lat="43.1285252" lon="-2.7787602">
        <ele>120.591</ele>
        <time>2021-04-01T09:19:10.015Z</time>
      </trkpt>
      <trkpt lat="43.1285286" lon="-2.7787637">
        <ele>120.595</ele>
        <time>2021-04-01T09:19:10.074Z</time>
      </trkpt>
      <trkpt lat="43.1285318" lon="-2.7787677">
        <ele>120.588</ele>
        <time>2021-04-01T09:19:10.126Z</time>
      </trkpt>
      <trkpt lat="43.1285355" lon="-2.778771">
        <ele>120.586</ele>
        <time>2021-04-01T09:19:10.178Z</time>
      </trkpt>
      <trkpt lat="43.1285391" lon="-2.7787741">
        <ele>120.559</ele>
        <time>2021-04-01T09:19:10.230Z</time>
      </trkpt>
      <trkpt lat="43.1285428" lon="-2.7787772">
        <ele>120.551</ele>
        <time>2021-04-01T09:19:10.282Z</time>
      </trkpt>
      <trkpt lat="43.1285462" lon="-2.7787806">
        <ele>120.544</ele>
        <time>2021-04-01T09:19:10.334Z</time>
      </trkpt>
      <trkpt lat="43.1285495" lon="-2.7787842">
        <ele>120.537</ele>
        <time>2021-04-01T09:19:10.386Z</time>
      </trkpt>
      <trkpt lat="43.1285531" lon="-2.7787875">
        <ele>120.526</ele>
        <time>2021-04-01T09:19:10.438Z</time>
      </trkpt>
      <trkpt lat="43.1285568" lon="-2.7787908">
        <ele>120.526</ele>
        <time>2021-04-01T09:19:10.490Z</time>
      </trkpt>
      <trkpt lat="43.1285603" lon="-2.7787944">
        <ele>120.521</ele>
        <time>2021-04-01T09:19:10.542Z</time>
      </trkpt>
      <trkpt lat="43.1285637" lon="-2.7787979">
        <ele>120.515</ele>
        <time>2021-04-01T09:19:10.595Z</time>
      </trkpt>
      <trkpt lat="43.1285673" lon="-2.7788013">
        <ele>120.497</ele>
        <time>2021-04-01T09:19:10.647Z</time>
      </trkpt>
      <trkpt lat="43.1285711" lon="-2.7788044">
        <ele>120.481</ele>
        <time>2021-04-01T09:19:10.699Z</time>
      </trkpt>
      <trkpt lat="43.1285748" lon="-2.7788076">
        <ele>120.476</ele>
        <time>2021-04-01T09:19:10.751Z</time>
      </trkpt>
      <trkpt lat="43.1285785" lon="-2.7788106">
        <ele>120.461</ele>
        <time>2021-04-01T09:19:10.803Z</time>
      </trkpt>
      <trkpt lat="43.1285821" lon="-2.7788137">
        <ele>120.455</ele>
        <time>2021-04-01T09:19:10.855Z</time>
      </trkpt>
      <trkpt lat="43.1285855" lon="-2.7788172">
        <ele>120.432</ele>
        <time>2021-04-01T09:19:10.907Z</time>
      </trkpt>
      <trkpt lat="43.128589" lon="-2.7788209">
        <ele>120.412</ele>
        <time>2021-04-01T09:19:10.959Z</time>
      </trkpt>
      <trkpt lat="43.1285926" lon="-2.7788242">
        <ele>120.416</ele>
        <time>2021-04-01T09:19:11.011Z</time>
      </trkpt>
      <trkpt lat="43.1285962" lon="-2.7788275">
        <ele>120.42</ele>
        <time>2021-04-01T09:19:11.064Z</time>
      </trkpt>
      <trkpt lat="43.1285998" lon="-2.7788307">
        <ele>120.39</ele>
        <time>2021-04-01T09:19:11.119Z</time>
      </trkpt>
      <trkpt lat="43.1286032" lon="-2.7788339">
        <ele>120.344</ele>
        <time>2021-04-01T09:19:11.174Z</time>
      </trkpt>
      <trkpt lat="43.1286066" lon="-2.7788372">
        <ele>120.327</ele>
        <time>2021-04-01T09:19:11.229Z</time>
      </trkpt>
      <trkpt lat="43.12861" lon="-2.7788409">
        <ele>120.324</ele>
        <time>2021-04-01T09:19:11.284Z</time>
      </trkpt>
      <trkpt lat="43.1286135" lon="-2.778844">
        <ele>120.278</ele>
        <time>2021-04-01T09:19:11.339Z</time>
      </trkpt>
      <trkpt lat="43.1286171" lon="-2.7788469">
        <ele>120.221</ele>
        <time>2021-04-01T09:19:11.394Z</time>
      </trkpt>
      <trkpt lat="43.1286204" lon="-2.7788503">
        <ele>120.19</ele>
        <time>2021-04-01T09:19:11.449Z</time>
      </trkpt>
      <trkpt lat="43.1286235" lon="-2.7788539">
        <ele>120.181</ele>
        <time>2021-04-01T09:19:11.504Z</time>
      </trkpt>
      <trkpt lat="43.1286268" lon="-2.778857">
        <ele>120.125</ele>
        <time>2021-04-01T09:19:11.559Z</time>
      </trkpt>
      <trkpt lat="43.1286305" lon="-2.7788605">
        <ele>120.143</ele>
        <time>2021-04-01T09:19:11.614Z</time>
      </trkpt>
      <trkpt lat="43.128634" lon="-2.778864">
        <ele>120.143</ele>
        <time>2021-04-01T09:19:11.669Z</time>
      </trkpt>
      <trkpt lat="43.1286376" lon="-2.7788674">
        <ele>120.146</ele>
        <time>2021-04-01T09:19:11.724Z</time>
      </trkpt>
      <trkpt lat="43.128641" lon="-2.7788709">
        <ele>120.117</ele>
        <time>2021-04-01T09:19:11.779Z</time>
      </trkpt>
      <trkpt lat="43.1286444" lon="-2.7788748">
        <ele>120.152</ele>
        <time>2021-04-01T09:19:11.834Z</time>
      </trkpt>
      <trkpt lat="43.128648" lon="-2.7788785">
        <ele>120.205</ele>
        <time>2021-04-01T09:19:11.889Z</time>
      </trkpt>
      <trkpt lat="43.1286517" lon="-2.7788822">
        <ele>120.227</ele>
        <time>2021-04-01T09:19:11.944Z</time>
      </trkpt>
      <trkpt lat="43.1286551" lon="-2.7788858">
        <ele>120.221</ele>
        <time>2021-04-01T09:19:11.999Z</time>
      </trkpt>
      <trkpt lat="43.1286586" lon="-2.7788895">
        <ele>120.236</ele>
        <time>2021-04-01T09:19:12.054Z</time>
      </trkpt>
      <trkpt lat="43.1286621" lon="-2.7788932">
        <ele>120.253</ele>
        <time>2021-04-01T09:19:12.109Z</time>
      </trkpt>
      <trkpt lat="43.1286653" lon="-2.7788967">
        <ele>120.218</ele>
        <time>2021-04-01T09:19:12.164Z</time>
      </trkpt>
      <trkpt lat="43.1286689" lon="-2.7789002">
        <ele>120.216</ele>
        <time>2021-04-01T09:19:12.219Z</time>
      </trkpt>
      <trkpt lat="43.1286725" lon="-2.7789036">
        <ele>120.206</ele>
        <time>2021-04-01T09:19:12.274Z</time>
      </trkpt>
      <trkpt lat="43.1286758" lon="-2.778907">
        <ele>120.172</ele>
        <time>2021-04-01T09:19:12.329Z</time>
      </trkpt>
      <trkpt lat="43.1286792" lon="-2.7789103">
        <ele>120.137</ele>
        <time>2021-04-01T09:19:12.384Z</time>
      </trkpt>
      <trkpt lat="43.1286826" lon="-2.7789137">
        <ele>120.121</ele>
        <time>2021-04-01T09:19:12.439Z</time>
      </trkpt>
      <trkpt lat="43.1286859" lon="-2.7789173">
        <ele>120.12</ele>
        <time>2021-04-01T09:19:12.494Z</time>
      </trkpt>
      <trkpt lat="43.1286892" lon="-2.7789207">
        <ele>120.104</ele>
        <time>2021-04-01T09:19:12.549Z</time>
      </trkpt>
      <trkpt lat="43.128693" lon="-2.7789242">
        <ele>120.104</ele>
        <time>2021-04-01T09:19:12.604Z</time>
      </trkpt>
      <trkpt lat="43.1286966" lon="-2.7789276">
        <ele>120.108</ele>
        <time>2021-04-01T09:19:12.659Z</time>
      </trkpt>
      <trkpt lat="43.1287002" lon="-2.778932">
        <ele>120.179</ele>
        <time>2021-04-01T09:19:12.714Z</time>
      </trkpt>
      <trkpt lat="43.1287035" lon="-2.7789351">
        <ele>120.125</ele>
        <time>2021-04-01T09:19:12.769Z</time>
      </trkpt>
      <trkpt lat="43.1287069" lon="-2.7789377">
        <ele>120.013</ele>
        <time>2021-04-01T09:19:12.824Z</time>
      </trkpt>
      <trkpt lat="43.1287104" lon="-2.7789406">
        <ele>119.95</ele>
        <time>2021-04-01T09:19:12.879Z</time>
      </trkpt>
      <trkpt lat="43.1287139" lon="-2.7789437">
        <ele>119.884</ele>
        <time>2021-04-01T09:19:12.934Z</time>
      </trkpt>
      <trkpt lat="43.1287175" lon="-2.7789463">
        <ele>119.8</ele>
        <time>2021-04-01T09:19:12.989Z</time>
      </trkpt>
      <trkpt lat="43.1287208" lon="-2.7789493">
        <ele>119.741</ele>
        <time>2021-04-01T09:19:13.044Z</time>
      </trkpt>
      <trkpt lat="43.1287241" lon="-2.7789523">
        <ele>119.692</ele>
        <time>2021-04-01T09:19:13.099Z</time>
      </trkpt>
      <trkpt lat="43.1287276" lon="-2.7789549">
        <ele>119.612</ele>
        <time>2021-04-01T09:19:13.154Z</time>
      </trkpt>
      <trkpt lat="43.1287312" lon="-2.7789577">
        <ele>119.545</ele>
        <time>2021-04-01T09:19:13.209Z</time>
      </trkpt>
      <trkpt lat="43.1287348" lon="-2.7789607">
        <ele>119.497</ele>
        <time>2021-04-01T09:19:13.264Z</time>
      </trkpt>
      <trkpt lat="43.1287382" lon="-2.7789635">
        <ele>119.416</ele>
        <time>2021-04-01T09:19:13.319Z</time>
      </trkpt>
      <trkpt lat="43.1287418" lon="-2.7789658">
        <ele>119.308</ele>
        <time>2021-04-01T09:19:13.374Z</time>
      </trkpt>
      <trkpt lat="43.1287456" lon="-2.7789688">
        <ele>119.275</ele>
        <time>2021-04-01T09:19:13.429Z</time>
      </trkpt>
      <trkpt lat="43.1287494" lon="-2.7789717">
        <ele>119.211</ele>
        <time>2021-04-01T09:19:13.484Z</time>
      </trkpt>
      <trkpt lat="43.1287533" lon="-2.7789743">
        <ele>119.149</ele>
        <time>2021-04-01T09:19:13.539Z</time>
      </trkpt>
      <trkpt lat="43.1287574" lon="-2.7789776">
        <ele>119.146</ele>
        <time>2021-04-01T09:19:13.594Z</time>
      </trkpt>
      <trkpt lat="43.1287611" lon="-2.7789807">
        <ele>119.109</ele>
        <time>2021-04-01T09:19:13.649Z</time>
      </trkpt>
      <trkpt lat="43.1287646" lon="-2.7789837">
        <ele>119.057</ele>
        <time>2021-04-01T09:19:13.704Z</time>
      </trkpt>
      <trkpt lat="43.1287681" lon="-2.7789869">
        <ele>119.059</ele>
        <time>2021-04-01T09:19:13.759Z</time>
      </trkpt>
      <trkpt lat="43.1287721" lon="-2.7789899">
        <ele>119.023</ele>
        <time>2021-04-01T09:19:13.814Z</time>
      </trkpt>
      <trkpt lat="43.1287759" lon="-2.7789931">
        <ele>118.994</ele>
        <time>2021-04-01T09:19:13.869Z</time>
      </trkpt>
      <trkpt lat="43.1287795" lon="-2.7789966">
        <ele>118.997</ele>
        <time>2021-04-01T09:19:13.924Z</time>
      </trkpt>
      <trkpt lat="43.1287831" lon="-2.7790001">
        <ele>118.983</ele>
        <time>2021-04-01T09:19:13.979Z</time>
      </trkpt>
      <trkpt lat="43.1287866" lon="-2.7790034">
        <ele>118.977</ele>
        <time>2021-04-01T09:19:14.034Z</time>
      </trkpt>
      <trkpt lat="43.12879" lon="-2.7790069">
        <ele>118.964</ele>
        <time>2021-04-01T09:19:14.089Z</time>
      </trkpt>
      <trkpt lat="43.1287938" lon="-2.7790103">
        <ele>118.976</ele>
        <time>2021-04-01T09:19:14.140Z</time>
      </trkpt>
      <trkpt lat="43.1287975" lon="-2.7790137">
        <ele>118.951</ele>
        <time>2021-04-01T09:19:14.192Z</time>
      </trkpt>
      <trkpt lat="43.1288014" lon="-2.7790165">
        <ele>118.931</ele>
        <time>2021-04-01T09:19:14.244Z</time>
      </trkpt>
      <trkpt lat="43.128805" lon="-2.7790197">
        <ele>118.896</ele>
        <time>2021-04-01T09:19:14.296Z</time>
      </trkpt>
      <trkpt lat="43.1288087" lon="-2.7790228">
        <ele>118.866</ele>
        <time>2021-04-01T09:19:14.348Z</time>
      </trkpt>
      <trkpt lat="43.1288122" lon="-2.7790262">
        <ele>118.846</ele>
        <time>2021-04-01T09:19:14.400Z</time>
      </trkpt>
      <trkpt lat="43.1288156" lon="-2.7790295">
        <ele>118.822</ele>
        <time>2021-04-01T09:19:14.452Z</time>
      </trkpt>
      <trkpt lat="43.128819" lon="-2.779033">
        <ele>118.795</ele>
        <time>2021-04-01T09:19:14.504Z</time>
      </trkpt>
      <trkpt lat="43.1288224" lon="-2.7790364">
        <ele>118.769</ele>
        <time>2021-04-01T09:19:14.556Z</time>
      </trkpt>
      <trkpt lat="43.1288257" lon="-2.7790397">
        <ele>118.727</ele>
        <time>2021-04-01T09:19:14.608Z</time>
      </trkpt>
      <trkpt lat="43.1288287" lon="-2.7790433">
        <ele>118.688</ele>
        <time>2021-04-01T09:19:14.660Z</time>
      </trkpt>
      <trkpt lat="43.1288316" lon="-2.7790469">
        <ele>118.621</ele>
        <time>2021-04-01T09:19:14.712Z</time>
      </trkpt>
      <trkpt lat="43.128835" lon="-2.7790494">
        <ele>118.568</ele>
        <time>2021-04-01T09:19:14.764Z</time>
      </trkpt>
      <trkpt lat="43.1288384" lon="-2.7790526">
        <ele>118.523</ele>
        <time>2021-04-01T09:19:14.816Z</time>
      </trkpt>
      <trkpt lat="43.1288415" lon="-2.7790561">
        <ele>118.444</ele>
        <time>2021-04-01T09:19:14.868Z</time>
      </trkpt>
      <trkpt lat="43.1288445" lon="-2.7790593">
        <ele>118.377</ele>
        <time>2021-04-01T09:19:14.920Z</time>
      </trkpt>
      <trkpt lat="43.1288478" lon="-2.7790623">
        <ele>118.311</ele>
        <time>2021-04-01T09:19:14.972Z</time>
      </trkpt>
      <trkpt lat="43.1288512" lon="-2.7790656">
        <ele>118.29</ele>
        <time>2021-04-01T09:19:15.024Z</time>
      </trkpt>
      <trkpt lat="43.1288547" lon="-2.7790692">
        <ele>118.286</ele>
        <time>2021-04-01T09:19:15.082Z</time>
      </trkpt>
      <trkpt lat="43.1288587" lon="-2.7790722">
        <ele>118.28</ele>
        <time>2021-04-01T09:19:15.140Z</time>
      </trkpt>
      <trkpt lat="43.1288623" lon="-2.7790754">
        <ele>118.253</ele>
        <time>2021-04-01T09:19:15.198Z</time>
      </trkpt>
      <trkpt lat="43.1288659" lon="-2.7790787">
        <ele>118.231</ele>
        <time>2021-04-01T09:19:15.256Z</time>
      </trkpt>
      <trkpt lat="43.1288693" lon="-2.7790821">
        <ele>118.215</ele>
        <time>2021-04-01T09:19:15.314Z</time>
      </trkpt>
      <trkpt lat="43.1288727" lon="-2.7790852">
        <ele>118.172</ele>
        <time>2021-04-01T09:19:15.372Z</time>
      </trkpt>
      <trkpt lat="43.1288761" lon="-2.779088">
        <ele>118.13</ele>
        <time>2021-04-01T09:19:15.430Z</time>
      </trkpt>
      <trkpt lat="43.1288797" lon="-2.779091">
        <ele>118.082</ele>
        <time>2021-04-01T09:19:15.488Z</time>
      </trkpt>
      <trkpt lat="43.1288833" lon="-2.7790945">
        <ele>118.069</ele>
        <time>2021-04-01T09:19:15.546Z</time>
      </trkpt>
      <trkpt lat="43.1288864" lon="-2.7790977">
        <ele>118.028</ele>
        <time>2021-04-01T09:19:15.604Z</time>
      </trkpt>
      <trkpt lat="43.1288895" lon="-2.7791011">
        <ele>117.975</ele>
        <time>2021-04-01T09:19:15.662Z</time>
      </trkpt>
      <trkpt lat="43.1288931" lon="-2.7791045">
        <ele>117.955</ele>
        <time>2021-04-01T09:19:15.720Z</time>
      </trkpt>
      <trkpt lat="43.1288971" lon="-2.7791079">
        <ele>117.984</ele>
        <time>2021-04-01T09:19:15.778Z</time>
      </trkpt>
      <trkpt lat="43.1289008" lon="-2.7791107">
        <ele>117.945</ele>
        <time>2021-04-01T09:19:15.836Z</time>
      </trkpt>
      <trkpt lat="43.1289046" lon="-2.7791144">
        <ele>117.975</ele>
        <time>2021-04-01T09:19:15.894Z</time>
      </trkpt>
      <trkpt lat="43.1289086" lon="-2.7791182">
        <ele>118.044</ele>
        <time>2021-04-01T09:19:15.952Z</time>
      </trkpt>
      <trkpt lat="43.1289118" lon="-2.7791216">
        <ele>117.999</ele>
        <time>2021-04-01T09:19:16.010Z</time>
      </trkpt>
      <trkpt lat="43.1289154" lon="-2.7791252">
        <ele>118.011</ele>
        <time>2021-04-01T09:19:16.069Z</time>
      </trkpt>
      <trkpt lat="43.1289191" lon="-2.7791283">
        <ele>117.994</ele>
        <time>2021-04-01T09:19:16.124Z</time>
      </trkpt>
      <trkpt lat="43.1289229" lon="-2.7791317">
        <ele>118.018</ele>
        <time>2021-04-01T09:19:16.179Z</time>
      </trkpt>
      <trkpt lat="43.1289263" lon="-2.7791348">
        <ele>117.976</ele>
        <time>2021-04-01T09:19:16.234Z</time>
      </trkpt>
      <trkpt lat="43.1289301" lon="-2.7791382">
        <ele>118.007</ele>
        <time>2021-04-01T09:19:16.289Z</time>
      </trkpt>
      <trkpt lat="43.1289338" lon="-2.7791418">
        <ele>118.025</ele>
        <time>2021-04-01T09:19:16.344Z</time>
      </trkpt>
      <trkpt lat="43.1289375" lon="-2.7791454">
        <ele>118.016</ele>
        <time>2021-04-01T09:19:16.399Z</time>
      </trkpt>
      <trkpt lat="43.1289409" lon="-2.7791489">
        <ele>118.007</ele>
        <time>2021-04-01T09:19:16.454Z</time>
      </trkpt>
      <trkpt lat="43.1289444" lon="-2.7791524">
        <ele>118.004</ele>
        <time>2021-04-01T09:19:16.509Z</time>
      </trkpt>
      <trkpt lat="43.1289478" lon="-2.7791557">
        <ele>117.971</ele>
        <time>2021-04-01T09:19:16.564Z</time>
      </trkpt>
      <trkpt lat="43.1289513" lon="-2.7791591">
        <ele>117.955</ele>
        <time>2021-04-01T09:19:16.619Z</time>
      </trkpt>
      <trkpt lat="43.1289549" lon="-2.7791632">
        <ele>118.024</ele>
        <time>2021-04-01T09:19:16.674Z</time>
      </trkpt>
      <trkpt lat="43.1289585" lon="-2.7791669">
        <ele>118.059</ele>
        <time>2021-04-01T09:19:16.729Z</time>
      </trkpt>
      <trkpt lat="43.1289619" lon="-2.7791707">
        <ele>118.061</ele>
        <time>2021-04-01T09:19:16.784Z</time>
      </trkpt>
      <trkpt lat="43.1289652" lon="-2.7791744">
        <ele>118.061</ele>
        <time>2021-04-01T09:19:16.839Z</time>
      </trkpt>
      <trkpt lat="43.1289688" lon="-2.7791778">
        <ele>118.074</ele>
        <time>2021-04-01T09:19:16.894Z</time>
      </trkpt>
      <trkpt lat="43.1289724" lon="-2.7791811">
        <ele>118.073</ele>
        <time>2021-04-01T09:19:16.949Z</time>
      </trkpt>
      <trkpt lat="43.1289759" lon="-2.7791845">
        <ele>118.024</ele>
        <time>2021-04-01T09:19:17.004Z</time>
      </trkpt>
      <trkpt lat="43.1289793" lon="-2.7791884">
        <ele>118.043</ele>
        <time>2021-04-01T09:19:17.059Z</time>
      </trkpt>
      <trkpt lat="43.1289828" lon="-2.779192">
        <ele>118.056</ele>
        <time>2021-04-01T09:19:17.111Z</time>
      </trkpt>
      <trkpt lat="43.1289863" lon="-2.7791956">
        <ele>118.05</ele>
        <time>2021-04-01T09:19:17.163Z</time>
      </trkpt>
      <trkpt lat="43.1289898" lon="-2.7791987">
        <ele>118.039</ele>
        <time>2021-04-01T09:19:17.215Z</time>
      </trkpt>
      <trkpt lat="43.1289934" lon="-2.7792023">
        <ele>118.05</ele>
        <time>2021-04-01T09:19:17.267Z</time>
      </trkpt>
      <trkpt lat="43.1289968" lon="-2.7792066">
        <ele>118.098</ele>
        <time>2021-04-01T09:19:17.319Z</time>
      </trkpt>
      <trkpt lat="43.1290001" lon="-2.7792108">
        <ele>118.15</ele>
        <time>2021-04-01T09:19:17.371Z</time>
      </trkpt>
      <trkpt lat="43.1290036" lon="-2.7792144">
        <ele>118.155</ele>
        <time>2021-04-01T09:19:17.423Z</time>
      </trkpt>
      <trkpt lat="43.1290072" lon="-2.7792179">
        <ele>118.14</ele>
        <time>2021-04-01T09:19:17.475Z</time>
      </trkpt>
      <trkpt lat="43.1290106" lon="-2.7792214">
        <ele>118.122</ele>
        <time>2021-04-01T09:19:17.527Z</time>
      </trkpt>
      <trkpt lat="43.129014" lon="-2.7792251">
        <ele>118.139</ele>
        <time>2021-04-01T09:19:17.580Z</time>
      </trkpt>
      <trkpt lat="43.1290177" lon="-2.7792281">
        <ele>118.107</ele>
        <time>2021-04-01T09:19:17.632Z</time>
      </trkpt>
      <trkpt lat="43.1290211" lon="-2.7792313">
        <ele>118.065</ele>
        <time>2021-04-01T09:19:17.684Z</time>
      </trkpt>
      <trkpt lat="43.1290245" lon="-2.7792349">
        <ele>118.048</ele>
        <time>2021-04-01T09:19:17.736Z</time>
      </trkpt>
      <trkpt lat="43.1290278" lon="-2.7792383">
        <ele>117.997</ele>
        <time>2021-04-01T09:19:17.788Z</time>
      </trkpt>
      <trkpt lat="43.1290314" lon="-2.7792418">
        <ele>118.01</ele>
        <time>2021-04-01T09:19:17.840Z</time>
      </trkpt>
      <trkpt lat="43.129035" lon="-2.7792451">
        <ele>118.007</ele>
        <time>2021-04-01T09:19:17.892Z</time>
      </trkpt>
      <trkpt lat="43.1290385" lon="-2.7792486">
        <ele>117.991</ele>
        <time>2021-04-01T09:19:17.944Z</time>
      </trkpt>
      <trkpt lat="43.1290419" lon="-2.7792519">
        <ele>117.958</ele>
        <time>2021-04-01T09:19:17.996Z</time>
      </trkpt>
      <trkpt lat="43.1290455" lon="-2.7792556">
        <ele>117.942</ele>
        <time>2021-04-01T09:19:18.049Z</time>
      </trkpt>
      <trkpt lat="43.129049" lon="-2.7792592">
        <ele>117.944</ele>
        <time>2021-04-01T09:19:18.107Z</time>
      </trkpt>
      <trkpt lat="43.1290525" lon="-2.7792626">
        <ele>117.92</ele>
        <time>2021-04-01T09:19:18.165Z</time>
      </trkpt>
      <trkpt lat="43.129056" lon="-2.7792662">
        <ele>117.904</ele>
        <time>2021-04-01T09:19:18.223Z</time>
      </trkpt>
      <trkpt lat="43.1290596" lon="-2.7792695">
        <ele>117.883</ele>
        <time>2021-04-01T09:19:18.281Z</time>
      </trkpt>
      <trkpt lat="43.1290631" lon="-2.779273">
        <ele>117.877</ele>
        <time>2021-04-01T09:19:18.340Z</time>
      </trkpt>
      <trkpt lat="43.1290666" lon="-2.779277">
        <ele>117.925</ele>
        <time>2021-04-01T09:19:18.398Z</time>
      </trkpt>
      <trkpt lat="43.1290702" lon="-2.7792806">
        <ele>117.945</ele>
        <time>2021-04-01T09:19:18.456Z</time>
      </trkpt>
      <trkpt lat="43.129074" lon="-2.7792837">
        <ele>117.919</ele>
        <time>2021-04-01T09:19:18.514Z</time>
      </trkpt>
      <trkpt lat="43.1290775" lon="-2.7792874">
        <ele>117.931</ele>
        <time>2021-04-01T09:19:18.573Z</time>
      </trkpt>
      <trkpt lat="43.129081" lon="-2.7792909">
        <ele>117.9</ele>
        <time>2021-04-01T09:19:18.631Z</time>
      </trkpt>
      <trkpt lat="43.1290846" lon="-2.7792945">
        <ele>117.869</ele>
        <time>2021-04-01T09:19:18.689Z</time>
      </trkpt>
      <trkpt lat="43.1290881" lon="-2.7792983">
        <ele>117.897</ele>
        <time>2021-04-01T09:19:18.747Z</time>
      </trkpt>
      <trkpt lat="43.1290918" lon="-2.7793015">
        <ele>117.877</ele>
        <time>2021-04-01T09:19:18.806Z</time>
      </trkpt>
      <trkpt lat="43.1290953" lon="-2.7793049">
        <ele>117.884</ele>
        <time>2021-04-01T09:19:18.864Z</time>
      </trkpt>
      <trkpt lat="43.1290988" lon="-2.7793086">
        <ele>117.852</ele>
        <time>2021-04-01T09:19:18.922Z</time>
      </trkpt>
      <trkpt lat="43.1291024" lon="-2.7793125">
        <ele>117.861</ele>
        <time>2021-04-01T09:19:18.980Z</time>
      </trkpt>
      <trkpt lat="43.1291061" lon="-2.7793162">
        <ele>117.874</ele>
        <time>2021-04-01T09:19:19.039Z</time>
      </trkpt>
      <trkpt lat="43.1291095" lon="-2.77932">
        <ele>117.892</ele>
        <time>2021-04-01T09:19:19.094Z</time>
      </trkpt>
      <trkpt lat="43.1291128" lon="-2.7793237">
        <ele>117.878</ele>
        <time>2021-04-01T09:19:19.149Z</time>
      </trkpt>
      <trkpt lat="43.1291166" lon="-2.7793273">
        <ele>117.873</ele>
        <time>2021-04-01T09:19:19.204Z</time>
      </trkpt>
      <trkpt lat="43.1291201" lon="-2.7793306">
        <ele>117.853</ele>
        <time>2021-04-01T09:19:19.259Z</time>
      </trkpt>
      <trkpt lat="43.1291237" lon="-2.779334">
        <ele>117.833</ele>
        <time>2021-04-01T09:19:19.314Z</time>
      </trkpt>
      <trkpt lat="43.1291273" lon="-2.7793377">
        <ele>117.823</ele>
        <time>2021-04-01T09:19:19.369Z</time>
      </trkpt>
      <trkpt lat="43.1291308" lon="-2.7793414">
        <ele>117.845</ele>
        <time>2021-04-01T09:19:19.424Z</time>
      </trkpt>
      <trkpt lat="43.1291344" lon="-2.779345">
        <ele>117.851</ele>
        <time>2021-04-01T09:19:19.479Z</time>
      </trkpt>
      <trkpt lat="43.1291378" lon="-2.7793486">
        <ele>117.85</ele>
        <time>2021-04-01T09:19:19.534Z</time>
      </trkpt>
      <trkpt lat="43.1291413" lon="-2.7793523">
        <ele>117.845</ele>
        <time>2021-04-01T09:19:19.589Z</time>
      </trkpt>
      <trkpt lat="43.129145" lon="-2.7793558">
        <ele>117.802</ele>
        <time>2021-04-01T09:19:19.644Z</time>
      </trkpt>
      <trkpt lat="43.1291485" lon="-2.7793596">
        <ele>117.819</ele>
        <time>2021-04-01T09:19:19.699Z</time>
      </trkpt>
      <trkpt lat="43.129152" lon="-2.7793635">
        <ele>117.831</ele>
        <time>2021-04-01T09:19:19.754Z</time>
      </trkpt>
      <trkpt lat="43.1291554" lon="-2.7793673">
        <ele>117.839</ele>
        <time>2021-04-01T09:19:19.809Z</time>
      </trkpt>
      <trkpt lat="43.1291588" lon="-2.7793707">
        <ele>117.808</ele>
        <time>2021-04-01T09:19:19.864Z</time>
      </trkpt>
      <trkpt lat="43.1291625" lon="-2.7793745">
        <ele>117.815</ele>
        <time>2021-04-01T09:19:19.919Z</time>
      </trkpt>
      <trkpt lat="43.1291661" lon="-2.7793781">
        <ele>117.793</ele>
        <time>2021-04-01T09:19:19.974Z</time>
      </trkpt>
      <trkpt lat="43.1291698" lon="-2.7793811">
        <ele>117.735</ele>
        <time>2021-04-01T09:19:20.029Z</time>
      </trkpt>
      <trkpt lat="43.1291733" lon="-2.7793846">
        <ele>117.729</ele>
        <time>2021-04-01T09:19:20.084Z</time>
      </trkpt>
      <trkpt lat="43.1291769" lon="-2.7793879">
        <ele>117.701</ele>
        <time>2021-04-01T09:19:20.142Z</time>
      </trkpt>
      <trkpt lat="43.1291807" lon="-2.7793915">
        <ele>117.717</ele>
        <time>2021-04-01T09:19:20.200Z</time>
      </trkpt>
      <trkpt lat="43.1291842" lon="-2.7793951">
        <ele>117.692</ele>
        <time>2021-04-01T09:19:20.258Z</time>
      </trkpt>
      <trkpt lat="43.1291876" lon="-2.7793987">
        <ele>117.677</ele>
        <time>2021-04-01T09:19:20.316Z</time>
      </trkpt>
      <trkpt lat="43.1291912" lon="-2.7794024">
        <ele>117.701</ele>
        <time>2021-04-01T09:19:20.375Z</time>
      </trkpt>
      <trkpt lat="43.1291948" lon="-2.7794063">
        <ele>117.683</ele>
        <time>2021-04-01T09:19:20.433Z</time>
      </trkpt>
      <trkpt lat="43.1291984" lon="-2.7794101">
        <ele>117.651</ele>
        <time>2021-04-01T09:19:20.491Z</time>
      </trkpt>
      <trkpt lat="43.1292019" lon="-2.7794139">
        <ele>117.654</ele>
        <time>2021-04-01T09:19:20.549Z</time>
      </trkpt>
      <trkpt lat="43.1292052" lon="-2.7794176">
        <ele>117.666</ele>
        <time>2021-04-01T09:19:20.608Z</time>
      </trkpt>
      <trkpt lat="43.1292086" lon="-2.7794217">
        <ele>117.672</ele>
        <time>2021-04-01T09:19:20.666Z</time>
      </trkpt>
      <trkpt lat="43.1292124" lon="-2.7794251">
        <ele>117.643</ele>
        <time>2021-04-01T09:19:20.724Z</time>
      </trkpt>
      <trkpt lat="43.1292161" lon="-2.7794287">
        <ele>117.672</ele>
        <time>2021-04-01T09:19:20.782Z</time>
      </trkpt>
      <trkpt lat="43.1292197" lon="-2.779432">
        <ele>117.648</ele>
        <time>2021-04-01T09:19:20.841Z</time>
      </trkpt>
      <trkpt lat="43.1292232" lon="-2.7794356">
        <ele>117.617</ele>
        <time>2021-04-01T09:19:20.899Z</time>
      </trkpt>
      <trkpt lat="43.1292269" lon="-2.7794389">
        <ele>117.603</ele>
        <time>2021-04-01T09:19:20.957Z</time>
      </trkpt>
      <trkpt lat="43.1292305" lon="-2.7794424">
        <ele>117.567</ele>
        <time>2021-04-01T09:19:21.015Z</time>
      </trkpt>
      <trkpt lat="43.129234" lon="-2.7794457">
        <ele>117.542</ele>
        <time>2021-04-01T09:19:21.074Z</time>
      </trkpt>
      <trkpt lat="43.1292376" lon="-2.7794488">
        <ele>117.495</ele>
        <time>2021-04-01T09:19:21.126Z</time>
      </trkpt>
      <trkpt lat="43.1292413" lon="-2.7794521">
        <ele>117.479</ele>
        <time>2021-04-01T09:19:21.178Z</time>
      </trkpt>
      <trkpt lat="43.1292451" lon="-2.7794553">
        <ele>117.458</ele>
        <time>2021-04-01T09:19:21.230Z</time>
      </trkpt>
      <trkpt lat="43.1292486" lon="-2.7794589">
        <ele>117.438</ele>
        <time>2021-04-01T09:19:21.282Z</time>
      </trkpt>
      <trkpt lat="43.1292521" lon="-2.7794624">
        <ele>117.417</ele>
        <time>2021-04-01T09:19:21.334Z</time>
      </trkpt>
      <trkpt lat="43.1292559" lon="-2.7794661">
        <ele>117.415</ele>
        <time>2021-04-01T09:19:21.386Z</time>
      </trkpt>
      <trkpt lat="43.1292595" lon="-2.7794698">
        <ele>117.438</ele>
        <time>2021-04-01T09:19:21.438Z</time>
      </trkpt>
      <trkpt lat="43.1292632" lon="-2.7794733">
        <ele>117.422</ele>
        <time>2021-04-01T09:19:21.490Z</time>
      </trkpt>
      <trkpt lat="43.1292665" lon="-2.7794773">
        <ele>117.378</ele>
        <time>2021-04-01T09:19:21.542Z</time>
      </trkpt>
      <trkpt lat="43.1292702" lon="-2.7794806">
        <ele>117.332</ele>
        <time>2021-04-01T09:19:21.595Z</time>
      </trkpt>
      <trkpt lat="43.129274" lon="-2.7794834">
        <ele>117.293</ele>
        <time>2021-04-01T09:19:21.647Z</time>
      </trkpt>
      <trkpt lat="43.1292777" lon="-2.7794869">
        <ele>117.274</ele>
        <time>2021-04-01T09:19:21.699Z</time>
      </trkpt>
      <trkpt lat="43.1292811" lon="-2.7794903">
        <ele>117.249</ele>
        <time>2021-04-01T09:19:21.751Z</time>
      </trkpt>
      <trkpt lat="43.129285" lon="-2.7794932">
        <ele>117.187</ele>
        <time>2021-04-01T09:19:21.803Z</time>
      </trkpt>
      <trkpt lat="43.1292887" lon="-2.7794965">
        <ele>117.17</ele>
        <time>2021-04-01T09:19:21.855Z</time>
      </trkpt>
      <trkpt lat="43.1292923" lon="-2.7795004">
        <ele>117.194</ele>
        <time>2021-04-01T09:19:21.907Z</time>
      </trkpt>
      <trkpt lat="43.1292958" lon="-2.7795045">
        <ele>117.208</ele>
        <time>2021-04-01T09:19:21.959Z</time>
      </trkpt>
      <trkpt lat="43.1292994" lon="-2.7795084">
        <ele>117.241</ele>
        <time>2021-04-01T09:19:22.011Z</time>
      </trkpt>
      <trkpt lat="43.1293031" lon="-2.7795119">
        <ele>117.207</ele>
        <time>2021-04-01T09:19:22.064Z</time>
      </trkpt>
      <trkpt lat="43.1293066" lon="-2.7795155">
        <ele>117.196</ele>
        <time>2021-04-01T09:19:22.119Z</time>
      </trkpt>
      <trkpt lat="43.1293102" lon="-2.7795196">
        <ele>117.188</ele>
        <time>2021-04-01T09:19:22.174Z</time>
      </trkpt>
      <trkpt lat="43.1293136" lon="-2.7795231">
        <ele>117.185</ele>
        <time>2021-04-01T09:19:22.229Z</time>
      </trkpt>
      <trkpt lat="43.1293173" lon="-2.7795267">
        <ele>117.192</ele>
        <time>2021-04-01T09:19:22.284Z</time>
      </trkpt>
      <trkpt lat="43.129321" lon="-2.7795302">
        <ele>117.173</ele>
        <time>2021-04-01T09:19:22.339Z</time>
      </trkpt>
      <trkpt lat="43.1293247" lon="-2.7795339">
        <ele>117.183</ele>
        <time>2021-04-01T09:19:22.394Z</time>
      </trkpt>
      <trkpt lat="43.1293282" lon="-2.7795378">
        <ele>117.174</ele>
        <time>2021-04-01T09:19:22.449Z</time>
      </trkpt>
      <trkpt lat="43.1293319" lon="-2.7795413">
        <ele>117.172</ele>
        <time>2021-04-01T09:19:22.504Z</time>
      </trkpt>
      <trkpt lat="43.1293355" lon="-2.7795451">
        <ele>117.185</ele>
        <time>2021-04-01T09:19:22.559Z</time>
      </trkpt>
      <trkpt lat="43.1293391" lon="-2.7795489">
        <ele>117.183</ele>
        <time>2021-04-01T09:19:22.614Z</time>
      </trkpt>
      <trkpt lat="43.1293428" lon="-2.7795528">
        <ele>117.212</ele>
        <time>2021-04-01T09:19:22.669Z</time>
      </trkpt>
      <trkpt lat="43.1293465" lon="-2.7795566">
        <ele>117.241</ele>
        <time>2021-04-01T09:19:22.724Z</time>
      </trkpt>
      <trkpt lat="43.1293498" lon="-2.7795609">
        <ele>117.241</ele>
        <time>2021-04-01T09:19:22.779Z</time>
      </trkpt>
      <trkpt lat="43.1293535" lon="-2.7795643">
        <ele>117.249</ele>
        <time>2021-04-01T09:19:22.834Z</time>
      </trkpt>
      <trkpt lat="43.1293573" lon="-2.7795678">
        <ele>117.232</ele>
        <time>2021-04-01T09:19:22.889Z</time>
      </trkpt>
      <trkpt lat="43.1293611" lon="-2.7795708">
        <ele>117.2</ele>
        <time>2021-04-01T09:19:22.944Z</time>
      </trkpt>
      <trkpt lat="43.1293648" lon="-2.7795744">
        <ele>117.189</ele>
        <time>2021-04-01T09:19:22.999Z</time>
      </trkpt>
      <trkpt lat="43.1293683" lon="-2.7795779">
        <ele>117.168</ele>
        <time>2021-04-01T09:19:23.054Z</time>
      </trkpt>
      <trkpt lat="43.129372" lon="-2.7795813">
        <ele>117.152</ele>
        <time>2021-04-01T09:19:23.106Z</time>
      </trkpt>
      <trkpt lat="43.1293758" lon="-2.7795848">
        <ele>117.153</ele>
        <time>2021-04-01T09:19:23.158Z</time>
      </trkpt>
      <trkpt lat="43.1293794" lon="-2.7795887">
        <ele>117.194</ele>
        <time>2021-04-01T09:19:23.210Z</time>
      </trkpt>
      <trkpt lat="43.1293829" lon="-2.7795924">
        <ele>117.188</ele>
        <time>2021-04-01T09:19:23.262Z</time>
      </trkpt>
      <trkpt lat="43.1293864" lon="-2.7795963">
        <ele>117.157</ele>
        <time>2021-04-01T09:19:23.314Z</time>
      </trkpt>
      <trkpt lat="43.1293901" lon="-2.7795999">
        <ele>117.157</ele>
        <time>2021-04-01T09:19:23.366Z</time>
      </trkpt>
      <trkpt lat="43.1293935" lon="-2.7796035">
        <ele>117.146</ele>
        <time>2021-04-01T09:19:23.418Z</time>
      </trkpt>
      <trkpt lat="43.1293971" lon="-2.7796072">
        <ele>117.153</ele>
        <time>2021-04-01T09:19:23.470Z</time>
      </trkpt>
      <trkpt lat="43.1294009" lon="-2.7796106">
        <ele>117.157</ele>
        <time>2021-04-01T09:19:23.522Z</time>
      </trkpt>
      <trkpt lat="43.1294047" lon="-2.779614">
        <ele>117.142</ele>
        <time>2021-04-01T09:19:23.575Z</time>
      </trkpt>
      <trkpt lat="43.1294082" lon="-2.7796177">
        <ele>117.119</ele>
        <time>2021-04-01T09:19:23.627Z</time>
      </trkpt>
      <trkpt lat="43.1294118" lon="-2.7796215">
        <ele>117.138</ele>
        <time>2021-04-01T09:19:23.679Z</time>
      </trkpt>
      <trkpt lat="43.1294155" lon="-2.7796254">
        <ele>117.153</ele>
        <time>2021-04-01T09:19:23.731Z</time>
      </trkpt>
      <trkpt lat="43.129419" lon="-2.7796292">
        <ele>117.116</ele>
        <time>2021-04-01T09:19:23.783Z</time>
      </trkpt>
      <trkpt lat="43.1294226" lon="-2.7796329">
        <ele>117.133</ele>
        <time>2021-04-01T09:19:23.835Z</time>
      </trkpt>
      <trkpt lat="43.1294262" lon="-2.7796366">
        <ele>117.114</ele>
        <time>2021-04-01T09:19:23.887Z</time>
      </trkpt>
      <trkpt lat="43.1294298" lon="-2.7796405">
        <ele>117.117</ele>
        <time>2021-04-01T09:19:23.939Z</time>
      </trkpt>
      <trkpt lat="43.1294334" lon="-2.7796441">
        <ele>117.101</ele>
        <time>2021-04-01T09:19:23.991Z</time>
      </trkpt>
      <trkpt lat="43.1294371" lon="-2.7796478">
        <ele>117.104</ele>
        <time>2021-04-01T09:19:24.044Z</time>
      </trkpt>
      <trkpt lat="43.1294407" lon="-2.7796516">
        <ele>117.101</ele>
        <time>2021-04-01T09:19:24.102Z</time>
      </trkpt>
      <trkpt lat="43.1294442" lon="-2.7796554">
        <ele>117.106</ele>
        <time>2021-04-01T09:19:24.160Z</time>
      </trkpt>
      <trkpt lat="43.1294478" lon="-2.779659">
        <ele>117.105</ele>
        <time>2021-04-01T09:19:24.218Z</time>
      </trkpt>
      <trkpt lat="43.1294515" lon="-2.7796623">
        <ele>117.081</ele>
        <time>2021-04-01T09:19:24.276Z</time>
      </trkpt>
      <trkpt lat="43.1294552" lon="-2.7796659">
        <ele>117.079</ele>
        <time>2021-04-01T09:19:24.335Z</time>
      </trkpt>
      <trkpt lat="43.1294588" lon="-2.7796696">
        <ele>117.069</ele>
        <time>2021-04-01T09:19:24.393Z</time>
      </trkpt>
      <trkpt lat="43.1294625" lon="-2.7796732">
        <ele>117.061</ele>
        <time>2021-04-01T09:19:24.451Z</time>
      </trkpt>
      <trkpt lat="43.1294662" lon="-2.7796768">
        <ele>117.069</ele>
        <time>2021-04-01T09:19:24.509Z</time>
      </trkpt>
      <trkpt lat="43.12947" lon="-2.7796802">
        <ele>117.083</ele>
        <time>2021-04-01T09:19:24.568Z</time>
      </trkpt>
      <trkpt lat="43.1294738" lon="-2.7796836">
        <ele>117.084</ele>
        <time>2021-04-01T09:19:24.626Z</time>
      </trkpt>
      <trkpt lat="43.1294776" lon="-2.7796874">
        <ele>117.096</ele>
        <time>2021-04-01T09:19:24.684Z</time>
      </trkpt>
      <trkpt lat="43.1294812" lon="-2.7796911">
        <ele>117.091</ele>
        <time>2021-04-01T09:19:24.742Z</time>
      </trkpt>
      <trkpt lat="43.129485" lon="-2.7796949">
        <ele>117.115</ele>
        <time>2021-04-01T09:19:24.801Z</time>
      </trkpt>
      <trkpt lat="43.1294884" lon="-2.7796985">
        <ele>117.113</ele>
        <time>2021-04-01T09:19:24.859Z</time>
      </trkpt>
      <trkpt lat="43.129492" lon="-2.779702">
        <ele>117.098</ele>
        <time>2021-04-01T09:19:24.917Z</time>
      </trkpt>
      <trkpt lat="43.1294958" lon="-2.7797057">
        <ele>117.109</ele>
        <time>2021-04-01T09:19:24.975Z</time>
      </trkpt>
      <trkpt lat="43.1294994" lon="-2.7797091">
        <ele>117.093</ele>
        <time>2021-04-01T09:19:25.034Z</time>
      </trkpt>
      <trkpt lat="43.1295032" lon="-2.7797125">
        <ele>117.079</ele>
        <time>2021-04-01T09:19:25.089Z</time>
      </trkpt>
      <trkpt lat="43.1295068" lon="-2.7797161">
        <ele>117.074</ele>
        <time>2021-04-01T09:19:25.144Z</time>
      </trkpt>
      <trkpt lat="43.1295104" lon="-2.7797194">
        <ele>117.05</ele>
        <time>2021-04-01T09:19:25.199Z</time>
      </trkpt>
      <trkpt lat="43.129514" lon="-2.7797226">
        <ele>117.015</ele>
        <time>2021-04-01T09:19:25.254Z</time>
      </trkpt>
      <trkpt lat="43.1295177" lon="-2.7797255">
        <ele>116.949</ele>
        <time>2021-04-01T09:19:25.309Z</time>
      </trkpt>
      <trkpt lat="43.1295213" lon="-2.7797289">
        <ele>116.93</ele>
        <time>2021-04-01T09:19:25.364Z</time>
      </trkpt>
      <trkpt lat="43.1295249" lon="-2.7797324">
        <ele>116.902</ele>
        <time>2021-04-01T09:19:25.419Z</time>
      </trkpt>
      <trkpt lat="43.1295285" lon="-2.7797361">
        <ele>116.892</ele>
        <time>2021-04-01T09:19:25.474Z</time>
      </trkpt>
      <trkpt lat="43.129532" lon="-2.7797397">
        <ele>116.883</ele>
        <time>2021-04-01T09:19:25.529Z</time>
      </trkpt>
      <trkpt lat="43.1295353" lon="-2.7797433">
        <ele>116.862</ele>
        <time>2021-04-01T09:19:25.584Z</time>
      </trkpt>
      <trkpt lat="43.1295389" lon="-2.779747">
        <ele>116.851</ele>
        <time>2021-04-01T09:19:25.639Z</time>
      </trkpt>
      <trkpt lat="43.1295425" lon="-2.7797506">
        <ele>116.857</ele>
        <time>2021-04-01T09:19:25.694Z</time>
      </trkpt>
      <trkpt lat="43.129546" lon="-2.7797542">
        <ele>116.848</ele>
        <time>2021-04-01T09:19:25.749Z</time>
      </trkpt>
      <trkpt lat="43.1295496" lon="-2.7797579">
        <ele>116.851</ele>
        <time>2021-04-01T09:19:25.804Z</time>
      </trkpt>
      <trkpt lat="43.129553" lon="-2.7797618">
        <ele>116.848</ele>
        <time>2021-04-01T09:19:25.859Z</time>
      </trkpt>
      <trkpt lat="43.1295566" lon="-2.7797657">
        <ele>116.85</ele>
        <time>2021-04-01T09:19:25.914Z</time>
      </trkpt>
      <trkpt lat="43.1295601" lon="-2.7797697">
        <ele>116.876</ele>
        <time>2021-04-01T09:19:25.969Z</time>
      </trkpt>
      <trkpt lat="43.1295637" lon="-2.7797736">
        <ele>116.903</ele>
        <time>2021-04-01T09:19:26.024Z</time>
      </trkpt>
      <trkpt lat="43.1295673" lon="-2.7797776">
        <ele>116.925</ele>
        <time>2021-04-01T09:19:26.079Z</time>
      </trkpt>
      <trkpt lat="43.129571" lon="-2.7797812">
        <ele>116.907</ele>
        <time>2021-04-01T09:19:26.134Z</time>
      </trkpt>
      <trkpt lat="43.1295747" lon="-2.7797849">
        <ele>116.905</ele>
        <time>2021-04-01T09:19:26.189Z</time>
      </trkpt>
      <trkpt lat="43.1295781" lon="-2.7797888">
        <ele>116.895</ele>
        <time>2021-04-01T09:19:26.244Z</time>
      </trkpt>
      <trkpt lat="43.1295816" lon="-2.7797929">
        <ele>116.903</ele>
        <time>2021-04-01T09:19:26.299Z</time>
      </trkpt>
      <trkpt lat="43.1295852" lon="-2.7797971">
        <ele>116.935</ele>
        <time>2021-04-01T09:19:26.354Z</time>
      </trkpt>
      <trkpt lat="43.1295886" lon="-2.7798003">
        <ele>116.855</ele>
        <time>2021-04-01T09:19:26.409Z</time>
      </trkpt>
      <trkpt lat="43.1295921" lon="-2.7798043">
        <ele>116.846</ele>
        <time>2021-04-01T09:19:26.464Z</time>
      </trkpt>
      <trkpt lat="43.1295956" lon="-2.7798083">
        <ele>116.856</ele>
        <time>2021-04-01T09:19:26.519Z</time>
      </trkpt>
      <trkpt lat="43.1295993" lon="-2.7798122">
        <ele>116.872</ele>
        <time>2021-04-01T09:19:26.574Z</time>
      </trkpt>
      <trkpt lat="43.1296026" lon="-2.7798161">
        <ele>116.893</ele>
        <time>2021-04-01T09:19:26.629Z</time>
      </trkpt>
      <trkpt lat="43.129606" lon="-2.7798197">
        <ele>116.881</ele>
        <time>2021-04-01T09:19:26.684Z</time>
      </trkpt>
      <trkpt lat="43.1296097" lon="-2.7798236">
        <ele>116.898</ele>
        <time>2021-04-01T09:19:26.739Z</time>
      </trkpt>
      <trkpt lat="43.1296134" lon="-2.7798274">
        <ele>116.909</ele>
        <time>2021-04-01T09:19:26.794Z</time>
      </trkpt>
      <trkpt lat="43.1296168" lon="-2.779831">
        <ele>116.887</ele>
        <time>2021-04-01T09:19:26.849Z</time>
      </trkpt>
      <trkpt lat="43.1296204" lon="-2.7798347">
        <ele>116.893</ele>
        <time>2021-04-01T09:19:26.904Z</time>
      </trkpt>
      <trkpt lat="43.1296238" lon="-2.7798385">
        <ele>116.886</ele>
        <time>2021-04-01T09:19:26.959Z</time>
      </trkpt>
      <trkpt lat="43.1296273" lon="-2.7798424">
        <ele>116.895</ele>
        <time>2021-04-01T09:19:27.014Z</time>
      </trkpt>
      <trkpt lat="43.1296309" lon="-2.7798463">
        <ele>116.889</ele>
        <time>2021-04-01T09:19:27.069Z</time>
      </trkpt>
      <trkpt lat="43.1296343" lon="-2.7798498">
        <ele>116.86</ele>
        <time>2021-04-01T09:19:27.121Z</time>
      </trkpt>
      <trkpt lat="43.1296378" lon="-2.7798534">
        <ele>116.846</ele>
        <time>2021-04-01T09:19:27.173Z</time>
      </trkpt>
      <trkpt lat="43.1296415" lon="-2.7798571">
        <ele>116.88</ele>
        <time>2021-04-01T09:19:27.225Z</time>
      </trkpt>
      <trkpt lat="43.1296452" lon="-2.7798611">
        <ele>116.908</ele>
        <time>2021-04-01T09:19:27.277Z</time>
      </trkpt>
      <trkpt lat="43.1296488" lon="-2.7798647">
        <ele>116.919</ele>
        <time>2021-04-01T09:19:27.329Z</time>
      </trkpt>
      <trkpt lat="43.1296523" lon="-2.7798682">
        <ele>116.906</ele>
        <time>2021-04-01T09:19:27.381Z</time>
      </trkpt>
      <trkpt lat="43.1296561" lon="-2.779872">
        <ele>116.943</ele>
        <time>2021-04-01T09:19:27.433Z</time>
      </trkpt>
      <trkpt lat="43.1296597" lon="-2.7798757">
        <ele>116.958</ele>
        <time>2021-04-01T09:19:27.485Z</time>
      </trkpt>
      <trkpt lat="43.1296633" lon="-2.7798796">
        <ele>116.985</ele>
        <time>2021-04-01T09:19:27.537Z</time>
      </trkpt>
      <trkpt lat="43.1296668" lon="-2.7798833">
        <ele>116.995</ele>
        <time>2021-04-01T09:19:27.590Z</time>
      </trkpt>
      <trkpt lat="43.1296705" lon="-2.779887">
        <ele>117.024</ele>
        <time>2021-04-01T09:19:27.642Z</time>
      </trkpt>
      <trkpt lat="43.129674" lon="-2.7798907">
        <ele>117.028</ele>
        <time>2021-04-01T09:19:27.694Z</time>
      </trkpt>
      <trkpt lat="43.1296777" lon="-2.7798943">
        <ele>117.06</ele>
        <time>2021-04-01T09:19:27.746Z</time>
      </trkpt>
      <trkpt lat="43.1296813" lon="-2.7798982">
        <ele>117.092</ele>
        <time>2021-04-01T09:19:27.798Z</time>
      </trkpt>
      <trkpt lat="43.1296847" lon="-2.7799021">
        <ele>117.109</ele>
        <time>2021-04-01T09:19:27.850Z</time>
      </trkpt>
      <trkpt lat="43.1296883" lon="-2.7799059">
        <ele>117.136</ele>
        <time>2021-04-01T09:19:27.902Z</time>
      </trkpt>
      <trkpt lat="43.1296918" lon="-2.7799094">
        <ele>117.132</ele>
        <time>2021-04-01T09:19:27.954Z</time>
      </trkpt>
      <trkpt lat="43.1296952" lon="-2.7799134">
        <ele>117.148</ele>
        <time>2021-04-01T09:19:28.006Z</time>
      </trkpt>
      <trkpt lat="43.1296987" lon="-2.7799172">
        <ele>117.147</ele>
        <time>2021-04-01T09:19:28.059Z</time>
      </trkpt>
      <trkpt lat="43.1297021" lon="-2.7799209">
        <ele>117.142</ele>
        <time>2021-04-01T09:19:28.114Z</time>
      </trkpt>
      <trkpt lat="43.1297055" lon="-2.7799248">
        <ele>117.168</ele>
        <time>2021-04-01T09:19:28.169Z</time>
      </trkpt>
      <trkpt lat="43.1297089" lon="-2.7799287">
        <ele>117.192</ele>
        <time>2021-04-01T09:19:28.224Z</time>
      </trkpt>
      <trkpt lat="43.1297123" lon="-2.7799325">
        <ele>117.211</ele>
        <time>2021-04-01T09:19:28.279Z</time>
      </trkpt>
      <trkpt lat="43.1297158" lon="-2.7799361">
        <ele>117.204</ele>
        <time>2021-04-01T09:19:28.334Z</time>
      </trkpt>
      <trkpt lat="43.1297193" lon="-2.7799398">
        <ele>117.202</ele>
        <time>2021-04-01T09:19:28.389Z</time>
      </trkpt>
      <trkpt lat="43.1297227" lon="-2.7799436">
        <ele>117.206</ele>
        <time>2021-04-01T09:19:28.444Z</time>
      </trkpt>
      <trkpt lat="43.1297261" lon="-2.7799472">
        <ele>117.193</ele>
        <time>2021-04-01T09:19:28.499Z</time>
      </trkpt>
      <trkpt lat="43.1297298" lon="-2.779951">
        <ele>117.223</ele>
        <time>2021-04-01T09:19:28.554Z</time>
      </trkpt>
      <trkpt lat="43.1297333" lon="-2.7799547">
        <ele>117.215</ele>
        <time>2021-04-01T09:19:28.609Z</time>
      </trkpt>
      <trkpt lat="43.1297367" lon="-2.7799583">
        <ele>117.202</ele>
        <time>2021-04-01T09:19:28.664Z</time>
      </trkpt>
      <trkpt lat="43.1297402" lon="-2.7799617">
        <ele>117.19</ele>
        <time>2021-04-01T09:19:28.719Z</time>
      </trkpt>
      <trkpt lat="43.1297435" lon="-2.7799656">
        <ele>117.191</ele>
        <time>2021-04-01T09:19:28.774Z</time>
      </trkpt>
      <trkpt lat="43.1297472" lon="-2.7799694">
        <ele>117.237</ele>
        <time>2021-04-01T09:19:28.829Z</time>
      </trkpt>
      <trkpt lat="43.1297507" lon="-2.779973">
        <ele>117.241</ele>
        <time>2021-04-01T09:19:28.884Z</time>
      </trkpt>
      <trkpt lat="43.1297543" lon="-2.7799766">
        <ele>117.258</ele>
        <time>2021-04-01T09:19:28.939Z</time>
      </trkpt>
      <trkpt lat="43.1297578" lon="-2.77998">
        <ele>117.259</ele>
        <time>2021-04-01T09:19:28.994Z</time>
      </trkpt>
      <trkpt lat="43.1297614" lon="-2.7799836">
        <ele>117.261</ele>
        <time>2021-04-01T09:19:29.049Z</time>
      </trkpt>
      <trkpt lat="43.1297649" lon="-2.779987">
        <ele>117.27</ele>
        <time>2021-04-01T09:19:29.110Z</time>
      </trkpt>
      <trkpt lat="43.1297686" lon="-2.7799908">
        <ele>117.328</ele>
        <time>2021-04-01T09:19:29.171Z</time>
      </trkpt>
      <trkpt lat="43.1297721" lon="-2.7799943">
        <ele>117.364</ele>
        <time>2021-04-01T09:19:29.233Z</time>
      </trkpt>
      <trkpt lat="43.1297757" lon="-2.7799981">
        <ele>117.376</ele>
        <time>2021-04-01T09:19:29.294Z</time>
      </trkpt>
      <trkpt lat="43.1297793" lon="-2.7800019">
        <ele>117.387</ele>
        <time>2021-04-01T09:19:29.356Z</time>
      </trkpt>
      <trkpt lat="43.1297828" lon="-2.7800055">
        <ele>117.397</ele>
        <time>2021-04-01T09:19:29.417Z</time>
      </trkpt>
      <trkpt lat="43.1297861" lon="-2.7800095">
        <ele>117.432</ele>
        <time>2021-04-01T09:19:29.479Z</time>
      </trkpt>
      <trkpt lat="43.1297895" lon="-2.7800135">
        <ele>117.462</ele>
        <time>2021-04-01T09:19:29.540Z</time>
      </trkpt>
      <trkpt lat="43.129793" lon="-2.7800175">
        <ele>117.505</ele>
        <time>2021-04-01T09:19:29.602Z</time>
      </trkpt>
      <trkpt lat="43.1297966" lon="-2.7800212">
        <ele>117.516</ele>
        <time>2021-04-01T09:19:29.663Z</time>
      </trkpt>
      <trkpt lat="43.1298001" lon="-2.7800251">
        <ele>117.548</ele>
        <time>2021-04-01T09:19:29.725Z</time>
      </trkpt>
      <trkpt lat="43.1298036" lon="-2.780029">
        <ele>117.59</ele>
        <time>2021-04-01T09:19:29.786Z</time>
      </trkpt>
      <trkpt lat="43.1298069" lon="-2.7800329">
        <ele>117.587</ele>
        <time>2021-04-01T09:19:29.848Z</time>
      </trkpt>
      <trkpt lat="43.1298105" lon="-2.7800364">
        <ele>117.589</ele>
        <time>2021-04-01T09:19:29.909Z</time>
      </trkpt>
      <trkpt lat="43.129814" lon="-2.7800403">
        <ele>117.613</ele>
        <time>2021-04-01T09:19:29.971Z</time>
      </trkpt>
      <trkpt lat="43.1298176" lon="-2.780044">
        <ele>117.637</ele>
        <time>2021-04-01T09:19:30.032Z</time>
      </trkpt>
      <trkpt lat="43.1298211" lon="-2.7800479">
        <ele>117.678</ele>
        <time>2021-04-01T09:19:30.094Z</time>
      </trkpt>
      <trkpt lat="43.1298247" lon="-2.7800517">
        <ele>117.735</ele>
        <time>2021-04-01T09:19:30.146Z</time>
      </trkpt>
      <trkpt lat="43.1298281" lon="-2.7800557">
        <ele>117.77</ele>
        <time>2021-04-01T09:19:30.198Z</time>
      </trkpt>
      <trkpt lat="43.1298315" lon="-2.7800596">
        <ele>117.784</ele>
        <time>2021-04-01T09:19:30.250Z</time>
      </trkpt>
      <trkpt lat="43.129835" lon="-2.7800634">
        <ele>117.787</ele>
        <time>2021-04-01T09:19:30.302Z</time>
      </trkpt>
      <trkpt lat="43.1298385" lon="-2.7800672">
        <ele>117.818</ele>
        <time>2021-04-01T09:19:30.354Z</time>
      </trkpt>
      <trkpt lat="43.1298421" lon="-2.7800707">
        <ele>117.837</ele>
        <time>2021-04-01T09:19:30.406Z</time>
      </trkpt>
      <trkpt lat="43.1298456" lon="-2.7800746">
        <ele>117.85</ele>
        <time>2021-04-01T09:19:30.458Z</time>
      </trkpt>
      <trkpt lat="43.1298491" lon="-2.7800785">
        <ele>117.889</ele>
        <time>2021-04-01T09:19:30.510Z</time>
      </trkpt>
      <trkpt lat="43.1298526" lon="-2.7800821">
        <ele>117.896</ele>
        <time>2021-04-01T09:19:30.562Z</time>
      </trkpt>
      <trkpt lat="43.1298561" lon="-2.7800859">
        <ele>117.907</ele>
        <time>2021-04-01T09:19:30.615Z</time>
      </trkpt>
      <trkpt lat="43.1298597" lon="-2.7800898">
        <ele>117.935</ele>
        <time>2021-04-01T09:19:30.667Z</time>
      </trkpt>
      <trkpt lat="43.1298631" lon="-2.7800937">
        <ele>117.982</ele>
        <time>2021-04-01T09:19:30.719Z</time>
      </trkpt>
      <trkpt lat="43.1298668" lon="-2.7800974">
        <ele>118.018</ele>
        <time>2021-04-01T09:19:30.771Z</time>
      </trkpt>
      <trkpt lat="43.1298704" lon="-2.7801011">
        <ele>118.021</ele>
        <time>2021-04-01T09:19:30.823Z</time>
      </trkpt>
      <trkpt lat="43.129874" lon="-2.7801045">
        <ele>118.019</ele>
        <time>2021-04-01T09:19:30.875Z</time>
      </trkpt>
      <trkpt lat="43.1298775" lon="-2.7801082">
        <ele>118.02</ele>
        <time>2021-04-01T09:19:30.927Z</time>
      </trkpt>
      <trkpt lat="43.129881" lon="-2.7801119">
        <ele>118.027</ele>
        <time>2021-04-01T09:19:30.979Z</time>
      </trkpt>
      <trkpt lat="43.1298846" lon="-2.7801154">
        <ele>118.04</ele>
        <time>2021-04-01T09:19:31.031Z</time>
      </trkpt>
      <trkpt lat="43.1298882" lon="-2.7801189">
        <ele>118.038</ele>
        <time>2021-04-01T09:19:31.084Z</time>
      </trkpt>
      <trkpt lat="43.1298916" lon="-2.7801226">
        <ele>118.028</ele>
        <time>2021-04-01T09:19:31.139Z</time>
      </trkpt>
      <trkpt lat="43.1298952" lon="-2.7801265">
        <ele>118.045</ele>
        <time>2021-04-01T09:19:31.194Z</time>
      </trkpt>
      <trkpt lat="43.1298988" lon="-2.7801303">
        <ele>118.081</ele>
        <time>2021-04-01T09:19:31.249Z</time>
      </trkpt>
      <trkpt lat="43.1299023" lon="-2.7801339">
        <ele>118.094</ele>
        <time>2021-04-01T09:19:31.304Z</time>
      </trkpt>
      <trkpt lat="43.1299057" lon="-2.7801375">
        <ele>118.098</ele>
        <time>2021-04-01T09:19:31.359Z</time>
      </trkpt>
      <trkpt lat="43.1299091" lon="-2.7801415">
        <ele>118.105</ele>
        <time>2021-04-01T09:19:31.414Z</time>
      </trkpt>
      <trkpt lat="43.1299126" lon="-2.7801453">
        <ele>118.116</ele>
        <time>2021-04-01T09:19:31.469Z</time>
      </trkpt>
      <trkpt lat="43.1299161" lon="-2.7801491">
        <ele>118.13</ele>
        <time>2021-04-01T09:19:31.524Z</time>
      </trkpt>
      <trkpt lat="43.1299196" lon="-2.7801526">
        <ele>118.148</ele>
        <time>2021-04-01T09:19:31.579Z</time>
      </trkpt>
      <trkpt lat="43.129923" lon="-2.7801563">
        <ele>118.154</ele>
        <time>2021-04-01T09:19:31.634Z</time>
      </trkpt>
      <trkpt lat="43.1299265" lon="-2.7801601">
        <ele>118.177</ele>
        <time>2021-04-01T09:19:31.689Z</time>
      </trkpt>
      <trkpt lat="43.12993" lon="-2.780164">
        <ele>118.202</ele>
        <time>2021-04-01T09:19:31.744Z</time>
      </trkpt>
      <trkpt lat="43.1299335" lon="-2.7801674">
        <ele>118.21</ele>
        <time>2021-04-01T09:19:31.799Z</time>
      </trkpt>
      <trkpt lat="43.1299371" lon="-2.7801711">
        <ele>118.238</ele>
        <time>2021-04-01T09:19:31.854Z</time>
      </trkpt>
      <trkpt lat="43.1299408" lon="-2.7801749">
        <ele>118.254</ele>
        <time>2021-04-01T09:19:31.909Z</time>
      </trkpt>
      <trkpt lat="43.1299442" lon="-2.7801786">
        <ele>118.282</ele>
        <time>2021-04-01T09:19:31.964Z</time>
      </trkpt>
      <trkpt lat="43.1299478" lon="-2.7801823">
        <ele>118.309</ele>
        <time>2021-04-01T09:19:32.019Z</time>
      </trkpt>
      <trkpt lat="43.1299512" lon="-2.7801857">
        <ele>118.302</ele>
        <time>2021-04-01T09:19:32.074Z</time>
      </trkpt>
      <trkpt lat="43.1299544" lon="-2.7801895">
        <ele>118.303</ele>
        <time>2021-04-01T09:19:32.126Z</time>
      </trkpt>
      <trkpt lat="43.1299577" lon="-2.7801935">
        <ele>118.317</ele>
        <time>2021-04-01T09:19:32.178Z</time>
      </trkpt>
      <trkpt lat="43.1299611" lon="-2.7801972">
        <ele>118.323</ele>
        <time>2021-04-01T09:19:32.230Z</time>
      </trkpt>
      <trkpt lat="43.1299647" lon="-2.7802008">
        <ele>118.332</ele>
        <time>2021-04-01T09:19:32.282Z</time>
      </trkpt>
      <trkpt lat="43.1299682" lon="-2.7802043">
        <ele>118.351</ele>
        <time>2021-04-01T09:19:32.334Z</time>
      </trkpt>
      <trkpt lat="43.1299717" lon="-2.7802078">
        <ele>118.349</ele>
        <time>2021-04-01T09:19:32.386Z</time>
      </trkpt>
      <trkpt lat="43.1299753" lon="-2.7802114">
        <ele>118.374</ele>
        <time>2021-04-01T09:19:32.438Z</time>
      </trkpt>
      <trkpt lat="43.1299789" lon="-2.7802149">
        <ele>118.392</ele>
        <time>2021-04-01T09:19:32.490Z</time>
      </trkpt>
      <trkpt lat="43.1299825" lon="-2.7802188">
        <ele>118.43</ele>
        <time>2021-04-01T09:19:32.542Z</time>
      </trkpt>
      <trkpt lat="43.1299859" lon="-2.7802224">
        <ele>118.431</ele>
        <time>2021-04-01T09:19:32.595Z</time>
      </trkpt>
      <trkpt lat="43.1299895" lon="-2.780226">
        <ele>118.438</ele>
        <time>2021-04-01T09:19:32.647Z</time>
      </trkpt>
      <trkpt lat="43.1299929" lon="-2.7802294">
        <ele>118.441</ele>
        <time>2021-04-01T09:19:32.699Z</time>
      </trkpt>
      <trkpt lat="43.1299963" lon="-2.780233">
        <ele>118.449</ele>
        <time>2021-04-01T09:19:32.751Z</time>
      </trkpt>
      <trkpt lat="43.1299999" lon="-2.7802367">
        <ele>118.475</ele>
        <time>2021-04-01T09:19:32.803Z</time>
      </trkpt>
      <trkpt lat="43.1300034" lon="-2.7802404">
        <ele>118.488</ele>
        <time>2021-04-01T09:19:32.855Z</time>
      </trkpt>
      <trkpt lat="43.1300068" lon="-2.7802439">
        <ele>118.482</ele>
        <time>2021-04-01T09:19:32.907Z</time>
      </trkpt>
      <trkpt lat="43.1300102" lon="-2.7802475">
        <ele>118.498</ele>
        <time>2021-04-01T09:19:32.959Z</time>
      </trkpt>
      <trkpt lat="43.1300137" lon="-2.7802509">
        <ele>118.508</ele>
        <time>2021-04-01T09:19:33.011Z</time>
      </trkpt>
      <trkpt lat="43.1300173" lon="-2.7802544">
        <ele>118.532</ele>
        <time>2021-04-01T09:19:33.064Z</time>
      </trkpt>
      <trkpt lat="43.1300207" lon="-2.7802584">
        <ele>118.566</ele>
        <time>2021-04-01T09:19:33.122Z</time>
      </trkpt>
      <trkpt lat="43.1300243" lon="-2.7802622">
        <ele>118.594</ele>
        <time>2021-04-01T09:19:33.180Z</time>
      </trkpt>
      <trkpt lat="43.1300276" lon="-2.7802659">
        <ele>118.612</ele>
        <time>2021-04-01T09:19:33.238Z</time>
      </trkpt>
      <trkpt lat="43.1300311" lon="-2.7802694">
        <ele>118.631</ele>
        <time>2021-04-01T09:19:33.296Z</time>
      </trkpt>
      <trkpt lat="43.1300345" lon="-2.7802732">
        <ele>118.642</ele>
        <time>2021-04-01T09:19:33.355Z</time>
      </trkpt>
      <trkpt lat="43.1300379" lon="-2.7802767">
        <ele>118.666</ele>
        <time>2021-04-01T09:19:33.413Z</time>
      </trkpt>
      <trkpt lat="43.1300413" lon="-2.7802804">
        <ele>118.706</ele>
        <time>2021-04-01T09:19:33.471Z</time>
      </trkpt>
      <trkpt lat="43.1300448" lon="-2.7802842">
        <ele>118.732</ele>
        <time>2021-04-01T09:19:33.529Z</time>
      </trkpt>
      <trkpt lat="43.1300482" lon="-2.7802878">
        <ele>118.739</ele>
        <time>2021-04-01T09:19:33.588Z</time>
      </trkpt>
      <trkpt lat="43.1300517" lon="-2.7802913">
        <ele>118.748</ele>
        <time>2021-04-01T09:19:33.646Z</time>
      </trkpt>
      <trkpt lat="43.1300551" lon="-2.7802948">
        <ele>118.754</ele>
        <time>2021-04-01T09:19:33.704Z</time>
      </trkpt>
      <trkpt lat="43.1300586" lon="-2.7802985">
        <ele>118.776</ele>
        <time>2021-04-01T09:19:33.762Z</time>
      </trkpt>
      <trkpt lat="43.1300622" lon="-2.780302">
        <ele>118.808</ele>
        <time>2021-04-01T09:19:33.821Z</time>
      </trkpt>
      <trkpt lat="43.1300657" lon="-2.7803058">
        <ele>118.833</ele>
        <time>2021-04-01T09:19:33.879Z</time>
      </trkpt>
      <trkpt lat="43.1300693" lon="-2.7803096">
        <ele>118.869</ele>
        <time>2021-04-01T09:19:33.937Z</time>
      </trkpt>
      <trkpt lat="43.1300728" lon="-2.7803131">
        <ele>118.889</ele>
        <time>2021-04-01T09:19:33.995Z</time>
      </trkpt>
      <trkpt lat="43.1300762" lon="-2.7803168">
        <ele>118.895</ele>
        <time>2021-04-01T09:19:34.054Z</time>
      </trkpt>
      <trkpt lat="43.1300797" lon="-2.7803202">
        <ele>118.901</ele>
        <time>2021-04-01T09:19:34.106Z</time>
      </trkpt>
      <trkpt lat="43.1300831" lon="-2.7803239">
        <ele>118.902</ele>
        <time>2021-04-01T09:19:34.158Z</time>
      </trkpt>
      <trkpt lat="43.1300867" lon="-2.7803273">
        <ele>118.919</ele>
        <time>2021-04-01T09:19:34.210Z</time>
      </trkpt>
      <trkpt lat="43.1300901" lon="-2.7803307">
        <ele>118.947</ele>
        <time>2021-04-01T09:19:34.262Z</time>
      </trkpt>
      <trkpt lat="43.1300936" lon="-2.7803343">
        <ele>118.945</ele>
        <time>2021-04-01T09:19:34.314Z</time>
      </trkpt>
      <trkpt lat="43.1300968" lon="-2.780338">
        <ele>118.932</ele>
        <time>2021-04-01T09:19:34.366Z</time>
      </trkpt>
      <trkpt lat="43.1301001" lon="-2.7803417">
        <ele>118.927</ele>
        <time>2021-04-01T09:19:34.418Z</time>
      </trkpt>
      <trkpt lat="43.1301036" lon="-2.780345">
        <ele>118.937</ele>
        <time>2021-04-01T09:19:34.470Z</time>
      </trkpt>
      <trkpt lat="43.130107" lon="-2.7803484">
        <ele>118.922</ele>
        <time>2021-04-01T09:19:34.522Z</time>
      </trkpt>
      <trkpt lat="43.1301105" lon="-2.7803519">
        <ele>118.935</ele>
        <time>2021-04-01T09:19:34.575Z</time>
      </trkpt>
      <trkpt lat="43.130114" lon="-2.7803555">
        <ele>118.945</ele>
        <time>2021-04-01T09:19:34.627Z</time>
      </trkpt>
      <trkpt lat="43.1301173" lon="-2.7803591">
        <ele>118.95</ele>
        <time>2021-04-01T09:19:34.679Z</time>
      </trkpt>
      <trkpt lat="43.1301208" lon="-2.7803626">
        <ele>118.954</ele>
        <time>2021-04-01T09:19:34.731Z</time>
      </trkpt>
      <trkpt lat="43.1301243" lon="-2.7803661">
        <ele>118.969</ele>
        <time>2021-04-01T09:19:34.783Z</time>
      </trkpt>
      <trkpt lat="43.1301277" lon="-2.7803697">
        <ele>118.997</ele>
        <time>2021-04-01T09:19:34.835Z</time>
      </trkpt>
      <trkpt lat="43.130131" lon="-2.7803734">
        <ele>118.991</ele>
        <time>2021-04-01T09:19:34.887Z</time>
      </trkpt>
      <trkpt lat="43.1301344" lon="-2.7803768">
        <ele>118.993</ele>
        <time>2021-04-01T09:19:34.939Z</time>
      </trkpt>
      <trkpt lat="43.1301377" lon="-2.7803804">
        <ele>119.024</ele>
        <time>2021-04-01T09:19:34.991Z</time>
      </trkpt>
      <trkpt lat="43.1301412" lon="-2.7803841">
        <ele>119.026</ele>
        <time>2021-04-01T09:19:35.044Z</time>
      </trkpt>
      <trkpt lat="43.1301446" lon="-2.7803875">
        <ele>119.019</ele>
        <time>2021-04-01T09:19:35.099Z</time>
      </trkpt>
      <trkpt lat="43.1301479" lon="-2.7803909">
        <ele>119.009</ele>
        <time>2021-04-01T09:19:35.154Z</time>
      </trkpt>
      <trkpt lat="43.1301511" lon="-2.7803946">
        <ele>119.004</ele>
        <time>2021-04-01T09:19:35.209Z</time>
      </trkpt>
      <trkpt lat="43.1301543" lon="-2.7803985">
        <ele>119.009</ele>
        <time>2021-04-01T09:19:35.264Z</time>
      </trkpt>
      <trkpt lat="43.1301576" lon="-2.7804019">
        <ele>119.01</ele>
        <time>2021-04-01T09:19:35.319Z</time>
      </trkpt>
      <trkpt lat="43.130161" lon="-2.7804053">
        <ele>119.009</ele>
        <time>2021-04-01T09:19:35.374Z</time>
      </trkpt>
      <trkpt lat="43.1301643" lon="-2.7804088">
        <ele>119.007</ele>
        <time>2021-04-01T09:19:35.429Z</time>
      </trkpt>
      <trkpt lat="43.1301676" lon="-2.7804122">
        <ele>118.989</ele>
        <time>2021-04-01T09:19:35.484Z</time>
      </trkpt>
      <trkpt lat="43.130171" lon="-2.7804158">
        <ele>118.986</ele>
        <time>2021-04-01T09:19:35.539Z</time>
      </trkpt>
      <trkpt lat="43.1301743" lon="-2.7804195">
        <ele>118.996</ele>
        <time>2021-04-01T09:19:35.594Z</time>
      </trkpt>
      <trkpt lat="43.1301777" lon="-2.7804231">
        <ele>119.018</ele>
        <time>2021-04-01T09:19:35.649Z</time>
      </trkpt>
      <trkpt lat="43.130181" lon="-2.7804266">
        <ele>119.036</ele>
        <time>2021-04-01T09:19:35.704Z</time>
      </trkpt>
      <trkpt lat="43.1301842" lon="-2.7804301">
        <ele>119.02</ele>
        <time>2021-04-01T09:19:35.759Z</time>
      </trkpt>
      <trkpt lat="43.1301876" lon="-2.7804337">
        <ele>119.005</ele>
        <time>2021-04-01T09:19:35.814Z</time>
      </trkpt>
      <trkpt lat="43.130191" lon="-2.7804374">
        <ele>119.032</ele>
        <time>2021-04-01T09:19:35.869Z</time>
      </trkpt>
      <trkpt lat="43.1301944" lon="-2.7804411">
        <ele>119.06</ele>
        <time>2021-04-01T09:19:35.924Z</time>
      </trkpt>
      <trkpt lat="43.1301977" lon="-2.7804449">
        <ele>119.066</ele>
        <time>2021-04-01T09:19:35.979Z</time>
      </trkpt>
      <trkpt lat="43.130201" lon="-2.7804486">
        <ele>119.084</ele>
        <time>2021-04-01T09:19:36.034Z</time>
      </trkpt>
      <trkpt lat="43.1302042" lon="-2.7804526">
        <ele>119.122</ele>
        <time>2021-04-01T09:19:36.092Z</time>
      </trkpt>
      <trkpt lat="43.1302075" lon="-2.7804561">
        <ele>119.124</ele>
        <time>2021-04-01T09:19:36.150Z</time>
      </trkpt>
      <trkpt lat="43.1302108" lon="-2.7804598">
        <ele>119.127</ele>
        <time>2021-04-01T09:19:36.208Z</time>
      </trkpt>
      <trkpt lat="43.130214" lon="-2.7804631">
        <ele>119.1</ele>
        <time>2021-04-01T09:19:36.266Z</time>
      </trkpt>
      <trkpt lat="43.1302173" lon="-2.7804664">
        <ele>119.086</ele>
        <time>2021-04-01T09:19:36.324Z</time>
      </trkpt>
      <trkpt lat="43.1302206" lon="-2.7804702">
        <ele>119.087</ele>
        <time>2021-04-01T09:19:36.382Z</time>
      </trkpt>
      <trkpt lat="43.1302239" lon="-2.7804739">
        <ele>119.106</ele>
        <time>2021-04-01T09:19:36.440Z</time>
      </trkpt>
      <trkpt lat="43.1302273" lon="-2.7804776">
        <ele>119.14</ele>
        <time>2021-04-01T09:19:36.498Z</time>
      </trkpt>
      <trkpt lat="43.1302307" lon="-2.7804812">
        <ele>119.16</ele>
        <time>2021-04-01T09:19:36.556Z</time>
      </trkpt>
      <trkpt lat="43.1302341" lon="-2.7804848">
        <ele>119.154</ele>
        <time>2021-04-01T09:19:36.614Z</time>
      </trkpt>
      <trkpt lat="43.1302373" lon="-2.7804886">
        <ele>119.178</ele>
        <time>2021-04-01T09:19:36.672Z</time>
      </trkpt>
      <trkpt lat="43.1302405" lon="-2.7804921">
        <ele>119.186</ele>
        <time>2021-04-01T09:19:36.730Z</time>
      </trkpt>
      <trkpt lat="43.130244" lon="-2.7804953">
        <ele>119.165</ele>
        <time>2021-04-01T09:19:36.788Z</time>
      </trkpt>
      <trkpt lat="43.1302476" lon="-2.7804987">
        <ele>119.175</ele>
        <time>2021-04-01T09:19:36.846Z</time>
      </trkpt>
      <trkpt lat="43.130251" lon="-2.7805021">
        <ele>119.18</ele>
        <time>2021-04-01T09:19:36.904Z</time>
      </trkpt>
      <trkpt lat="43.1302544" lon="-2.7805056">
        <ele>119.192</ele>
        <time>2021-04-01T09:19:36.962Z</time>
      </trkpt>
      <trkpt lat="43.1302576" lon="-2.7805096">
        <ele>119.232</ele>
        <time>2021-04-01T09:19:37.020Z</time>
      </trkpt>
      <trkpt lat="43.130261" lon="-2.7805135">
        <ele>119.287</ele>
        <time>2021-04-01T09:19:37.079Z</time>
      </trkpt>
      <trkpt lat="43.1302645" lon="-2.780517">
        <ele>119.298</ele>
        <time>2021-04-01T09:19:37.137Z</time>
      </trkpt>
      <trkpt lat="43.1302679" lon="-2.7805206">
        <ele>119.292</ele>
        <time>2021-04-01T09:19:37.195Z</time>
      </trkpt>
      <trkpt lat="43.1302713" lon="-2.7805242">
        <ele>119.315</ele>
        <time>2021-04-01T09:19:37.253Z</time>
      </trkpt>
      <trkpt lat="43.1302747" lon="-2.7805277">
        <ele>119.33</ele>
        <time>2021-04-01T09:19:37.311Z</time>
      </trkpt>
      <trkpt lat="43.1302779" lon="-2.780531">
        <ele>119.309</ele>
        <time>2021-04-01T09:19:37.369Z</time>
      </trkpt>
      <trkpt lat="43.1302813" lon="-2.7805345">
        <ele>119.324</ele>
        <time>2021-04-01T09:19:37.427Z</time>
      </trkpt>
      <trkpt lat="43.1302847" lon="-2.7805377">
        <ele>119.311</ele>
        <time>2021-04-01T09:19:37.485Z</time>
      </trkpt>
      <trkpt lat="43.1302882" lon="-2.7805411">
        <ele>119.322</ele>
        <time>2021-04-01T09:19:37.543Z</time>
      </trkpt>
      <trkpt lat="43.1302918" lon="-2.7805447">
        <ele>119.345</ele>
        <time>2021-04-01T09:19:37.601Z</time>
      </trkpt>
      <trkpt lat="43.1302953" lon="-2.7805481">
        <ele>119.356</ele>
        <time>2021-04-01T09:19:37.659Z</time>
      </trkpt>
      <trkpt lat="43.1302986" lon="-2.7805513">
        <ele>119.351</ele>
        <time>2021-04-01T09:19:37.717Z</time>
      </trkpt>
      <trkpt lat="43.1303019" lon="-2.7805549">
        <ele>119.361</ele>
        <time>2021-04-01T09:19:37.775Z</time>
      </trkpt>
      <trkpt lat="43.1303053" lon="-2.7805584">
        <ele>119.366</ele>
        <time>2021-04-01T09:19:37.833Z</time>
      </trkpt>
      <trkpt lat="43.1303089" lon="-2.7805617">
        <ele>119.355</ele>
        <time>2021-04-01T09:19:37.891Z</time>
      </trkpt>
      <trkpt lat="43.1303123" lon="-2.7805649">
        <ele>119.355</ele>
        <time>2021-04-01T09:19:37.949Z</time>
      </trkpt>
      <trkpt lat="43.1303157" lon="-2.7805684">
        <ele>119.362</ele>
        <time>2021-04-01T09:19:38.007Z</time>
      </trkpt>
      <trkpt lat="43.1303191" lon="-2.7805718">
        <ele>119.373</ele>
        <time>2021-04-01T09:19:38.065Z</time>
      </trkpt>
      <trkpt lat="43.1303226" lon="-2.780575">
        <ele>119.376</ele>
        <time>2021-04-01T09:19:38.124Z</time>
      </trkpt>
      <trkpt lat="43.1303261" lon="-2.7805783">
        <ele>119.382</ele>
        <time>2021-04-01T09:19:38.179Z</time>
      </trkpt>
      <trkpt lat="43.1303295" lon="-2.7805818">
        <ele>119.398</ele>
        <time>2021-04-01T09:19:38.234Z</time>
      </trkpt>
      <trkpt lat="43.1303329" lon="-2.7805853">
        <ele>119.412</ele>
        <time>2021-04-01T09:19:38.289Z</time>
      </trkpt>
      <trkpt lat="43.1303365" lon="-2.7805888">
        <ele>119.433</ele>
        <time>2021-04-01T09:19:38.344Z</time>
      </trkpt>
      <trkpt lat="43.1303399" lon="-2.7805922">
        <ele>119.432</ele>
        <time>2021-04-01T09:19:38.399Z</time>
      </trkpt>
      <trkpt lat="43.1303434" lon="-2.7805956">
        <ele>119.443</ele>
        <time>2021-04-01T09:19:38.454Z</time>
      </trkpt>
      <trkpt lat="43.1303468" lon="-2.7805993">
        <ele>119.475</ele>
        <time>2021-04-01T09:19:38.509Z</time>
      </trkpt>
      <trkpt lat="43.1303502" lon="-2.7806029">
        <ele>119.499</ele>
        <time>2021-04-01T09:19:38.564Z</time>
      </trkpt>
      <trkpt lat="43.1303536" lon="-2.7806062">
        <ele>119.509</ele>
        <time>2021-04-01T09:19:38.619Z</time>
      </trkpt>
      <trkpt lat="43.1303569" lon="-2.7806095">
        <ele>119.473</ele>
        <time>2021-04-01T09:19:38.674Z</time>
      </trkpt>
      <trkpt lat="43.1303603" lon="-2.7806131">
        <ele>119.484</ele>
        <time>2021-04-01T09:19:38.729Z</time>
      </trkpt>
      <trkpt lat="43.1303635" lon="-2.7806166">
        <ele>119.482</ele>
        <time>2021-04-01T09:19:38.784Z</time>
      </trkpt>
      <trkpt lat="43.130367" lon="-2.7806201">
        <ele>119.502</ele>
        <time>2021-04-01T09:19:38.839Z</time>
      </trkpt>
      <trkpt lat="43.1303705" lon="-2.7806234">
        <ele>119.525</ele>
        <time>2021-04-01T09:19:38.894Z</time>
      </trkpt>
      <trkpt lat="43.1303738" lon="-2.7806268">
        <ele>119.514</ele>
        <time>2021-04-01T09:19:38.949Z</time>
      </trkpt>
      <trkpt lat="43.1303771" lon="-2.7806303">
        <ele>119.503</ele>
        <time>2021-04-01T09:19:39.004Z</time>
      </trkpt>
      <trkpt lat="43.1303805" lon="-2.7806337">
        <ele>119.514</ele>
        <time>2021-04-01T09:19:39.059Z</time>
      </trkpt>
      <trkpt lat="43.1303838" lon="-2.7806371">
        <ele>119.492</ele>
        <time>2021-04-01T09:19:39.114Z</time>
      </trkpt>
      <trkpt lat="43.1303871" lon="-2.7806403">
        <ele>119.477</ele>
        <time>2021-04-01T09:19:39.166Z</time>
      </trkpt>
      <trkpt lat="43.1303904" lon="-2.7806437">
        <ele>119.47</ele>
        <time>2021-04-01T09:19:39.218Z</time>
      </trkpt>
      <trkpt lat="43.1303938" lon="-2.7806473">
        <ele>119.497</ele>
        <time>2021-04-01T09:19:39.270Z</time>
      </trkpt>
      <trkpt lat="43.1303973" lon="-2.7806512">
        <ele>119.548</ele>
        <time>2021-04-01T09:19:39.322Z</time>
      </trkpt>
      <trkpt lat="43.1304006" lon="-2.7806547">
        <ele>119.558</ele>
        <time>2021-04-01T09:19:39.374Z</time>
      </trkpt>
      <trkpt lat="43.130404" lon="-2.7806581">
        <ele>119.57</ele>
        <time>2021-04-01T09:19:39.426Z</time>
      </trkpt>
      <trkpt lat="43.1304072" lon="-2.7806615">
        <ele>119.567</ele>
        <time>2021-04-01T09:19:39.478Z</time>
      </trkpt>
      <trkpt lat="43.1304105" lon="-2.780665">
        <ele>119.582</ele>
        <time>2021-04-01T09:19:39.530Z</time>
      </trkpt>
      <trkpt lat="43.1304139" lon="-2.7806685">
        <ele>119.593</ele>
        <time>2021-04-01T09:19:39.582Z</time>
      </trkpt>
      <trkpt lat="43.1304173" lon="-2.7806719">
        <ele>119.597</ele>
        <time>2021-04-01T09:19:39.635Z</time>
      </trkpt>
      <trkpt lat="43.1304205" lon="-2.7806754">
        <ele>119.601</ele>
        <time>2021-04-01T09:19:39.687Z</time>
      </trkpt>
      <trkpt lat="43.1304237" lon="-2.7806789">
        <ele>119.598</ele>
        <time>2021-04-01T09:19:39.739Z</time>
      </trkpt>
      <trkpt lat="43.1304271" lon="-2.7806824">
        <ele>119.617</ele>
        <time>2021-04-01T09:19:39.791Z</time>
      </trkpt>
      <trkpt lat="43.1304304" lon="-2.7806859">
        <ele>119.619</ele>
        <time>2021-04-01T09:19:39.843Z</time>
      </trkpt>
      <trkpt lat="43.1304338" lon="-2.7806892">
        <ele>119.633</ele>
        <time>2021-04-01T09:19:39.895Z</time>
      </trkpt>
      <trkpt lat="43.1304372" lon="-2.7806924">
        <ele>119.631</ele>
        <time>2021-04-01T09:19:39.947Z</time>
      </trkpt>
      <trkpt lat="43.1304406" lon="-2.7806957">
        <ele>119.638</ele>
        <time>2021-04-01T09:19:39.999Z</time>
      </trkpt>
      <trkpt lat="43.1304439" lon="-2.7806991">
        <ele>119.643</ele>
        <time>2021-04-01T09:19:40.051Z</time>
      </trkpt>
      <trkpt lat="43.1304472" lon="-2.7807025">
        <ele>119.652</ele>
        <time>2021-04-01T09:19:40.104Z</time>
      </trkpt>
      <trkpt lat="43.1304506" lon="-2.7807058">
        <ele>119.661</ele>
        <time>2021-04-01T09:19:40.159Z</time>
      </trkpt>
      <trkpt lat="43.130454" lon="-2.780709">
        <ele>119.658</ele>
        <time>2021-04-01T09:19:40.214Z</time>
      </trkpt>
      <trkpt lat="43.1304573" lon="-2.7807125">
        <ele>119.681</ele>
        <time>2021-04-01T09:19:40.269Z</time>
      </trkpt>
      <trkpt lat="43.1304605" lon="-2.7807159">
        <ele>119.679</ele>
        <time>2021-04-01T09:19:40.324Z</time>
      </trkpt>
      <trkpt lat="43.130464" lon="-2.7807192">
        <ele>119.689</ele>
        <time>2021-04-01T09:19:40.379Z</time>
      </trkpt>
      <trkpt lat="43.1304674" lon="-2.7807225">
        <ele>119.699</ele>
        <time>2021-04-01T09:19:40.434Z</time>
      </trkpt>
      <trkpt lat="43.1304707" lon="-2.7807259">
        <ele>119.704</ele>
        <time>2021-04-01T09:19:40.489Z</time>
      </trkpt>
      <trkpt lat="43.1304741" lon="-2.7807291">
        <ele>119.712</ele>
        <time>2021-04-01T09:19:40.544Z</time>
      </trkpt>
      <trkpt lat="43.1304775" lon="-2.7807325">
        <ele>119.73</ele>
        <time>2021-04-01T09:19:40.599Z</time>
      </trkpt>
      <trkpt lat="43.1304808" lon="-2.7807357">
        <ele>119.717</ele>
        <time>2021-04-01T09:19:40.654Z</time>
      </trkpt>
      <trkpt lat="43.130484" lon="-2.7807392">
        <ele>119.73</ele>
        <time>2021-04-01T09:19:40.709Z</time>
      </trkpt>
      <trkpt lat="43.1304874" lon="-2.7807427">
        <ele>119.756</ele>
        <time>2021-04-01T09:19:40.764Z</time>
      </trkpt>
      <trkpt lat="43.1304907" lon="-2.780746">
        <ele>119.757</ele>
        <time>2021-04-01T09:19:40.819Z</time>
      </trkpt>
      <trkpt lat="43.130494" lon="-2.7807494">
        <ele>119.759</ele>
        <time>2021-04-01T09:19:40.874Z</time>
      </trkpt>
      <trkpt lat="43.1304972" lon="-2.7807529">
        <ele>119.775</ele>
        <time>2021-04-01T09:19:40.929Z</time>
      </trkpt>
      <trkpt lat="43.1305004" lon="-2.7807564">
        <ele>119.791</ele>
        <time>2021-04-01T09:19:40.984Z</time>
      </trkpt>
      <trkpt lat="43.1305038" lon="-2.7807599">
        <ele>119.827</ele>
        <time>2021-04-01T09:19:41.039Z</time>
      </trkpt>
      <trkpt lat="43.1305071" lon="-2.7807632">
        <ele>119.821</ele>
        <time>2021-04-01T09:19:41.094Z</time>
      </trkpt>
      <trkpt lat="43.1305104" lon="-2.7807667">
        <ele>119.829</ele>
        <time>2021-04-01T09:19:41.149Z</time>
      </trkpt>
      <trkpt lat="43.1305135" lon="-2.7807701">
        <ele>119.826</ele>
        <time>2021-04-01T09:19:41.204Z</time>
      </trkpt>
      <trkpt lat="43.1305167" lon="-2.7807734">
        <ele>119.851</ele>
        <time>2021-04-01T09:19:41.259Z</time>
      </trkpt>
      <trkpt lat="43.1305201" lon="-2.7807768">
        <ele>119.904</ele>
        <time>2021-04-01T09:19:41.314Z</time>
      </trkpt>
      <trkpt lat="43.1305234" lon="-2.7807802">
        <ele>119.884</ele>
        <time>2021-04-01T09:19:41.369Z</time>
      </trkpt>
      <trkpt lat="43.1305264" lon="-2.7807835">
        <ele>119.829</ele>
        <time>2021-04-01T09:19:41.424Z</time>
      </trkpt>
      <trkpt lat="43.1305295" lon="-2.780787">
        <ele>119.859</ele>
        <time>2021-04-01T09:19:41.479Z</time>
      </trkpt>
      <trkpt lat="43.1305327" lon="-2.7807902">
        <ele>119.859</ele>
        <time>2021-04-01T09:19:41.534Z</time>
      </trkpt>
      <trkpt lat="43.1305359" lon="-2.7807936">
        <ele>119.875</ele>
        <time>2021-04-01T09:19:41.589Z</time>
      </trkpt>
      <trkpt lat="43.1305392" lon="-2.780797">
        <ele>119.889</ele>
        <time>2021-04-01T09:19:41.644Z</time>
      </trkpt>
      <trkpt lat="43.1305425" lon="-2.7808006">
        <ele>119.907</ele>
        <time>2021-04-01T09:19:41.699Z</time>
      </trkpt>
      <trkpt lat="43.1305456" lon="-2.780804">
        <ele>119.926</ele>
        <time>2021-04-01T09:19:41.754Z</time>
      </trkpt>
      <trkpt lat="43.130549" lon="-2.7808073">
        <ele>119.942</ele>
        <time>2021-04-01T09:19:41.809Z</time>
      </trkpt>
      <trkpt lat="43.1305522" lon="-2.7808107">
        <ele>119.949</ele>
        <time>2021-04-01T09:19:41.864Z</time>
      </trkpt>
      <trkpt lat="43.1305553" lon="-2.7808143">
        <ele>119.955</ele>
        <time>2021-04-01T09:19:41.919Z</time>
      </trkpt>
      <trkpt lat="43.1305583" lon="-2.7808179">
        <ele>119.959</ele>
        <time>2021-04-01T09:19:41.974Z</time>
      </trkpt>
      <trkpt lat="43.1305613" lon="-2.7808214">
        <ele>119.974</ele>
        <time>2021-04-01T09:19:42.029Z</time>
      </trkpt>
      <trkpt lat="43.1305642" lon="-2.780825">
        <ele>119.959</ele>
        <time>2021-04-01T09:19:42.084Z</time>
      </trkpt>
      <trkpt lat="43.1305673" lon="-2.7808285">
        <ele>119.939</ele>
        <time>2021-04-01T09:19:42.139Z</time>
      </trkpt>
      <trkpt lat="43.1305704" lon="-2.780832">
        <ele>119.991</ele>
        <time>2021-04-01T09:19:42.194Z</time>
      </trkpt>
      <trkpt lat="43.1305737" lon="-2.7808352">
        <ele>120.02</ele>
        <time>2021-04-01T09:19:42.249Z</time>
      </trkpt>
      <trkpt lat="43.130577" lon="-2.7808386">
        <ele>120.003</ele>
        <time>2021-04-01T09:19:42.304Z</time>
      </trkpt>
      <trkpt lat="43.1305801" lon="-2.780842">
        <ele>119.978</ele>
        <time>2021-04-01T09:19:42.359Z</time>
      </trkpt>
      <trkpt lat="43.1305832" lon="-2.7808453">
        <ele>119.985</ele>
        <time>2021-04-01T09:19:42.414Z</time>
      </trkpt>
      <trkpt lat="43.1305863" lon="-2.7808484">
        <ele>119.976</ele>
        <time>2021-04-01T09:19:42.469Z</time>
      </trkpt>
      <trkpt lat="43.1305894" lon="-2.7808517">
        <ele>119.982</ele>
        <time>2021-04-01T09:19:42.524Z</time>
      </trkpt>
      <trkpt lat="43.1305926" lon="-2.7808551">
        <ele>119.977</ele>
        <time>2021-04-01T09:19:42.579Z</time>
      </trkpt>
      <trkpt lat="43.1305958" lon="-2.7808585">
        <ele>119.969</ele>
        <time>2021-04-01T09:19:42.634Z</time>
      </trkpt>
      <trkpt lat="43.1305988" lon="-2.7808618">
        <ele>119.975</ele>
        <time>2021-04-01T09:19:42.689Z</time>
      </trkpt>
      <trkpt lat="43.130602" lon="-2.780865">
        <ele>119.987</ele>
        <time>2021-04-01T09:19:42.744Z</time>
      </trkpt>
      <trkpt lat="43.1306052" lon="-2.7808682">
        <ele>119.999</ele>
        <time>2021-04-01T09:19:42.799Z</time>
      </trkpt>
      <trkpt lat="43.1306082" lon="-2.7808713">
        <ele>119.971</ele>
        <time>2021-04-01T09:19:42.854Z</time>
      </trkpt>
      <trkpt lat="43.1306113" lon="-2.7808746">
        <ele>119.95</ele>
        <time>2021-04-01T09:19:42.909Z</time>
      </trkpt>
      <trkpt lat="43.1306147" lon="-2.7808778">
        <ele>119.945</ele>
        <time>2021-04-01T09:19:42.964Z</time>
      </trkpt>
      <trkpt lat="43.130618" lon="-2.780881">
        <ele>119.944</ele>
        <time>2021-04-01T09:19:43.019Z</time>
      </trkpt>
      <trkpt lat="43.1306211" lon="-2.7808841">
        <ele>119.933</ele>
        <time>2021-04-01T09:19:43.074Z</time>
      </trkpt>
      <trkpt lat="43.1306242" lon="-2.7808875">
        <ele>119.945</ele>
        <time>2021-04-01T09:19:43.129Z</time>
      </trkpt>
      <trkpt lat="43.1306272" lon="-2.7808909">
        <ele>119.948</ele>
        <time>2021-04-01T09:19:43.184Z</time>
      </trkpt>
      <trkpt lat="43.1306305" lon="-2.7808943">
        <ele>119.96</ele>
        <time>2021-04-01T09:19:43.239Z</time>
      </trkpt>
      <trkpt lat="43.1306335" lon="-2.7808977">
        <ele>119.946</ele>
        <time>2021-04-01T09:19:43.294Z</time>
      </trkpt>
      <trkpt lat="43.1306366" lon="-2.7809011">
        <ele>119.963</ele>
        <time>2021-04-01T09:19:43.349Z</time>
      </trkpt>
      <trkpt lat="43.1306398" lon="-2.7809045">
        <ele>119.958</ele>
        <time>2021-04-01T09:19:43.404Z</time>
      </trkpt>
      <trkpt lat="43.1306429" lon="-2.7809079">
        <ele>119.955</ele>
        <time>2021-04-01T09:19:43.459Z</time>
      </trkpt>
      <trkpt lat="43.1306461" lon="-2.7809114">
        <ele>119.972</ele>
        <time>2021-04-01T09:19:43.514Z</time>
      </trkpt>
      <trkpt lat="43.1306492" lon="-2.7809151">
        <ele>119.986</ele>
        <time>2021-04-01T09:19:43.569Z</time>
      </trkpt>
      <trkpt lat="43.1306524" lon="-2.7809187">
        <ele>120.013</ele>
        <time>2021-04-01T09:19:43.624Z</time>
      </trkpt>
      <trkpt lat="43.1306555" lon="-2.7809219">
        <ele>119.995</ele>
        <time>2021-04-01T09:19:43.679Z</time>
      </trkpt>
      <trkpt lat="43.1306586" lon="-2.7809255">
        <ele>119.996</ele>
        <time>2021-04-01T09:19:43.734Z</time>
      </trkpt>
      <trkpt lat="43.1306618" lon="-2.7809289">
        <ele>120.004</ele>
        <time>2021-04-01T09:19:43.789Z</time>
      </trkpt>
      <trkpt lat="43.1306649" lon="-2.7809326">
        <ele>120.026</ele>
        <time>2021-04-01T09:19:43.844Z</time>
      </trkpt>
      <trkpt lat="43.1306681" lon="-2.780936">
        <ele>120.04</ele>
        <time>2021-04-01T09:19:43.899Z</time>
      </trkpt>
      <trkpt lat="43.1306714" lon="-2.7809397">
        <ele>120.075</ele>
        <time>2021-04-01T09:19:43.954Z</time>
      </trkpt>
      <trkpt lat="43.1306747" lon="-2.7809432">
        <ele>120.084</ele>
        <time>2021-04-01T09:19:44.009Z</time>
      </trkpt>
      <trkpt lat="43.130678" lon="-2.7809465">
        <ele>120.096</ele>
        <time>2021-04-01T09:19:44.064Z</time>
      </trkpt>
      <trkpt lat="43.1306812" lon="-2.7809498">
        <ele>120.091</ele>
        <time>2021-04-01T09:19:44.116Z</time>
      </trkpt>
      <trkpt lat="43.1306844" lon="-2.7809532">
        <ele>120.098</ele>
        <time>2021-04-01T09:19:44.168Z</time>
      </trkpt>
      <trkpt lat="43.1306876" lon="-2.7809567">
        <ele>120.102</ele>
        <time>2021-04-01T09:19:44.220Z</time>
      </trkpt>
      <trkpt lat="43.1306909" lon="-2.78096">
        <ele>120.102</ele>
        <time>2021-04-01T09:19:44.272Z</time>
      </trkpt>
      <trkpt lat="43.1306942" lon="-2.7809635">
        <ele>120.118</ele>
        <time>2021-04-01T09:19:44.324Z</time>
      </trkpt>
      <trkpt lat="43.1306976" lon="-2.7809669">
        <ele>120.125</ele>
        <time>2021-04-01T09:19:44.376Z</time>
      </trkpt>
      <trkpt lat="43.1307008" lon="-2.7809701">
        <ele>120.146</ele>
        <time>2021-04-01T09:19:44.428Z</time>
      </trkpt>
      <trkpt lat="43.130704" lon="-2.7809734">
        <ele>120.135</ele>
        <time>2021-04-01T09:19:44.480Z</time>
      </trkpt>
      <trkpt lat="43.1307073" lon="-2.7809767">
        <ele>120.121</ele>
        <time>2021-04-01T09:19:44.532Z</time>
      </trkpt>
      <trkpt lat="43.1307106" lon="-2.7809799">
        <ele>120.124</ele>
        <time>2021-04-01T09:19:44.585Z</time>
      </trkpt>
      <trkpt lat="43.1307138" lon="-2.780983">
        <ele>120.098</ele>
        <time>2021-04-01T09:19:44.637Z</time>
      </trkpt>
      <trkpt lat="43.1307172" lon="-2.7809864">
        <ele>120.124</ele>
        <time>2021-04-01T09:19:44.689Z</time>
      </trkpt>
      <trkpt lat="43.1307206" lon="-2.7809897">
        <ele>120.135</ele>
        <time>2021-04-01T09:19:44.741Z</time>
      </trkpt>
      <trkpt lat="43.130724" lon="-2.7809928">
        <ele>120.128</ele>
        <time>2021-04-01T09:19:44.793Z</time>
      </trkpt>
      <trkpt lat="43.1307273" lon="-2.780996">
        <ele>120.114</ele>
        <time>2021-04-01T09:19:44.845Z</time>
      </trkpt>
      <trkpt lat="43.1307307" lon="-2.7809991">
        <ele>120.129</ele>
        <time>2021-04-01T09:19:44.897Z</time>
      </trkpt>
      <trkpt lat="43.1307341" lon="-2.7810024">
        <ele>120.141</ele>
        <time>2021-04-01T09:19:44.949Z</time>
      </trkpt>
      <trkpt lat="43.1307374" lon="-2.7810055">
        <ele>120.129</ele>
        <time>2021-04-01T09:19:45.001Z</time>
      </trkpt>
      <trkpt lat="43.1307407" lon="-2.7810086">
        <ele>120.129</ele>
        <time>2021-04-01T09:19:45.054Z</time>
      </trkpt>
      <trkpt lat="43.130744" lon="-2.7810118">
        <ele>120.122</ele>
        <time>2021-04-01T09:19:45.112Z</time>
      </trkpt>
      <trkpt lat="43.1307473" lon="-2.7810151">
        <ele>120.14</ele>
        <time>2021-04-01T09:19:45.170Z</time>
      </trkpt>
      <trkpt lat="43.1307506" lon="-2.7810184">
        <ele>120.149</ele>
        <time>2021-04-01T09:19:45.228Z</time>
      </trkpt>
      <trkpt lat="43.1307539" lon="-2.7810218">
        <ele>120.166</ele>
        <time>2021-04-01T09:19:45.286Z</time>
      </trkpt>
      <trkpt lat="43.1307571" lon="-2.7810249">
        <ele>120.146</ele>
        <time>2021-04-01T09:19:45.344Z</time>
      </trkpt>
      <trkpt lat="43.1307605" lon="-2.7810282">
        <ele>120.164</ele>
        <time>2021-04-01T09:19:45.402Z</time>
      </trkpt>
      <trkpt lat="43.1307637" lon="-2.7810315">
        <ele>120.168</ele>
        <time>2021-04-01T09:19:45.460Z</time>
      </trkpt>
      <trkpt lat="43.130767" lon="-2.7810349">
        <ele>120.17</ele>
        <time>2021-04-01T09:19:45.518Z</time>
      </trkpt>
      <trkpt lat="43.1307702" lon="-2.781038">
        <ele>120.17</ele>
        <time>2021-04-01T09:19:45.576Z</time>
      </trkpt>
      <trkpt lat="43.1307734" lon="-2.7810412">
        <ele>120.169</ele>
        <time>2021-04-01T09:19:45.634Z</time>
      </trkpt>
      <trkpt lat="43.1307766" lon="-2.7810446">
        <ele>120.185</ele>
        <time>2021-04-01T09:19:45.692Z</time>
      </trkpt>
      <trkpt lat="43.1307799" lon="-2.7810479">
        <ele>120.187</ele>
        <time>2021-04-01T09:19:45.750Z</time>
      </trkpt>
      <trkpt lat="43.1307832" lon="-2.7810513">
        <ele>120.204</ele>
        <time>2021-04-01T09:19:45.808Z</time>
      </trkpt>
      <trkpt lat="43.1307864" lon="-2.7810546">
        <ele>120.213</ele>
        <time>2021-04-01T09:19:45.866Z</time>
      </trkpt>
      <trkpt lat="43.1307898" lon="-2.7810578">
        <ele>120.223</ele>
        <time>2021-04-01T09:19:45.924Z</time>
      </trkpt>
      <trkpt lat="43.1307931" lon="-2.7810611">
        <ele>120.308</ele>
        <time>2021-04-01T09:19:45.982Z</time>
      </trkpt>
      <trkpt lat="43.1307963" lon="-2.7810645">
        <ele>120.371</ele>
        <time>2021-04-01T09:19:46.040Z</time>
      </trkpt>
      <trkpt lat="43.1307995" lon="-2.7810678">
        <ele>120.371</ele>
        <time>2021-04-01T09:19:46.099Z</time>
      </trkpt>
      <trkpt lat="43.1308027" lon="-2.7810709">
        <ele>120.38</ele>
        <time>2021-04-01T09:19:46.154Z</time>
      </trkpt>
      <trkpt lat="43.1308058" lon="-2.781074">
        <ele>120.358</ele>
        <time>2021-04-01T09:19:46.209Z</time>
      </trkpt>
      <trkpt lat="43.1308089" lon="-2.781077">
        <ele>120.324</ele>
        <time>2021-04-01T09:19:46.264Z</time>
      </trkpt>
      <trkpt lat="43.1308119" lon="-2.78108">
        <ele>120.272</ele>
        <time>2021-04-01T09:19:46.319Z</time>
      </trkpt>
      <trkpt lat="43.1308151" lon="-2.7810835">
        <ele>120.327</ele>
        <time>2021-04-01T09:19:46.374Z</time>
      </trkpt>
      <trkpt lat="43.1308183" lon="-2.7810866">
        <ele>120.292</ele>
        <time>2021-04-01T09:19:46.429Z</time>
      </trkpt>
      <trkpt lat="43.1308214" lon="-2.7810895">
        <ele>120.234</ele>
        <time>2021-04-01T09:19:46.484Z</time>
      </trkpt>
      <trkpt lat="43.1308248" lon="-2.7810928">
        <ele>120.305</ele>
        <time>2021-04-01T09:19:46.539Z</time>
      </trkpt>
      <trkpt lat="43.130828" lon="-2.7810961">
        <ele>120.343</ele>
        <time>2021-04-01T09:19:46.594Z</time>
      </trkpt>
      <trkpt lat="43.1308312" lon="-2.7810993">
        <ele>120.352</ele>
        <time>2021-04-01T09:19:46.649Z</time>
      </trkpt>
      <trkpt lat="43.1308346" lon="-2.7811026">
        <ele>120.365</ele>
        <time>2021-04-01T09:19:46.704Z</time>
      </trkpt>
      <trkpt lat="43.1308376" lon="-2.7811058">
        <ele>120.359</ele>
        <time>2021-04-01T09:19:46.759Z</time>
      </trkpt>
      <trkpt lat="43.1308409" lon="-2.781109">
        <ele>120.379</ele>
        <time>2021-04-01T09:19:46.814Z</time>
      </trkpt>
      <trkpt lat="43.130844" lon="-2.7811122">
        <ele>120.388</ele>
        <time>2021-04-01T09:19:46.869Z</time>
      </trkpt>
      <trkpt lat="43.1308472" lon="-2.7811156">
        <ele>120.398</ele>
        <time>2021-04-01T09:19:46.924Z</time>
      </trkpt>
      <trkpt lat="43.1308504" lon="-2.781119">
        <ele>120.408</ele>
        <time>2021-04-01T09:19:46.979Z</time>
      </trkpt>
      <trkpt lat="43.1308536" lon="-2.7811222">
        <ele>120.41</ele>
        <time>2021-04-01T09:19:47.034Z</time>
      </trkpt>
      <trkpt lat="43.1308567" lon="-2.7811253">
        <ele>120.394</ele>
        <time>2021-04-01T09:19:47.089Z</time>
      </trkpt>
      <trkpt lat="43.1308598" lon="-2.7811284">
        <ele>120.393</ele>
        <time>2021-04-01T09:19:47.144Z</time>
      </trkpt>
      <trkpt lat="43.1308629" lon="-2.7811317">
        <ele>120.401</ele>
        <time>2021-04-01T09:19:47.199Z</time>
      </trkpt>
      <trkpt lat="43.1308661" lon="-2.7811351">
        <ele>120.399</ele>
        <time>2021-04-01T09:19:47.254Z</time>
      </trkpt>
      <trkpt lat="43.1308691" lon="-2.7811383">
        <ele>120.406</ele>
        <time>2021-04-01T09:19:47.309Z</time>
      </trkpt>
      <trkpt lat="43.1308723" lon="-2.7811415">
        <ele>120.422</ele>
        <time>2021-04-01T09:19:47.364Z</time>
      </trkpt>
      <trkpt lat="43.1308754" lon="-2.7811445">
        <ele>120.409</ele>
        <time>2021-04-01T09:19:47.419Z</time>
      </trkpt>
      <trkpt lat="43.1308785" lon="-2.7811478">
        <ele>120.398</ele>
        <time>2021-04-01T09:19:47.474Z</time>
      </trkpt>
      <trkpt lat="43.1308818" lon="-2.7811511">
        <ele>120.403</ele>
        <time>2021-04-01T09:19:47.529Z</time>
      </trkpt>
      <trkpt lat="43.130885" lon="-2.7811546">
        <ele>120.435</ele>
        <time>2021-04-01T09:19:47.584Z</time>
      </trkpt>
      <trkpt lat="43.130888" lon="-2.7811581">
        <ele>120.454</ele>
        <time>2021-04-01T09:19:47.639Z</time>
      </trkpt>
      <trkpt lat="43.1308911" lon="-2.7811614">
        <ele>120.451</ele>
        <time>2021-04-01T09:19:47.694Z</time>
      </trkpt>
      <trkpt lat="43.1308942" lon="-2.7811647">
        <ele>120.455</ele>
        <time>2021-04-01T09:19:47.749Z</time>
      </trkpt>
      <trkpt lat="43.1308973" lon="-2.781168">
        <ele>120.447</ele>
        <time>2021-04-01T09:19:47.804Z</time>
      </trkpt>
      <trkpt lat="43.1309004" lon="-2.7811713">
        <ele>120.452</ele>
        <time>2021-04-01T09:19:47.859Z</time>
      </trkpt>
      <trkpt lat="43.1309036" lon="-2.7811746">
        <ele>120.461</ele>
        <time>2021-04-01T09:19:47.914Z</time>
      </trkpt>
      <trkpt lat="43.1309069" lon="-2.7811779">
        <ele>120.486</ele>
        <time>2021-04-01T09:19:47.969Z</time>
      </trkpt>
      <trkpt lat="43.1309101" lon="-2.7811813">
        <ele>120.513</ele>
        <time>2021-04-01T09:19:48.024Z</time>
      </trkpt>
      <trkpt lat="43.1309133" lon="-2.7811849">
        <ele>120.537</ele>
        <time>2021-04-01T09:19:48.079Z</time>
      </trkpt>
      <trkpt lat="43.1309164" lon="-2.7811885">
        <ele>120.572</ele>
        <time>2021-04-01T09:19:48.131Z</time>
      </trkpt>
      <trkpt lat="43.1309194" lon="-2.7811916">
        <ele>120.554</ele>
        <time>2021-04-01T09:19:48.183Z</time>
      </trkpt>
      <trkpt lat="43.1309226" lon="-2.7811946">
        <ele>120.526</ele>
        <time>2021-04-01T09:19:48.235Z</time>
      </trkpt>
      <trkpt lat="43.1309257" lon="-2.7811975">
        <ele>120.497</ele>
        <time>2021-04-01T09:19:48.287Z</time>
      </trkpt>
      <trkpt lat="43.130929" lon="-2.7812004">
        <ele>120.475</ele>
        <time>2021-04-01T09:19:48.339Z</time>
      </trkpt>
      <trkpt lat="43.1309322" lon="-2.7812038">
        <ele>120.49</ele>
        <time>2021-04-01T09:19:48.391Z</time>
      </trkpt>
      <trkpt lat="43.1309354" lon="-2.7812073">
        <ele>120.494</ele>
        <time>2021-04-01T09:19:48.443Z</time>
      </trkpt>
      <trkpt lat="43.1309385" lon="-2.7812107">
        <ele>120.511</ele>
        <time>2021-04-01T09:19:48.495Z</time>
      </trkpt>
      <trkpt lat="43.1309416" lon="-2.7812141">
        <ele>120.525</ele>
        <time>2021-04-01T09:19:48.547Z</time>
      </trkpt>
      <trkpt lat="43.1309449" lon="-2.7812174">
        <ele>120.52</ele>
        <time>2021-04-01T09:19:48.600Z</time>
      </trkpt>
      <trkpt lat="43.1309481" lon="-2.7812206">
        <ele>120.523</ele>
        <time>2021-04-01T09:19:48.652Z</time>
      </trkpt>
      <trkpt lat="43.1309513" lon="-2.781224">
        <ele>120.535</ele>
        <time>2021-04-01T09:19:48.704Z</time>
      </trkpt>
      <trkpt lat="43.1309546" lon="-2.7812273">
        <ele>120.532</ele>
        <time>2021-04-01T09:19:48.756Z</time>
      </trkpt>
      <trkpt lat="43.1309578" lon="-2.7812308">
        <ele>120.546</ele>
        <time>2021-04-01T09:19:48.808Z</time>
      </trkpt>
      <trkpt lat="43.1309608" lon="-2.7812344">
        <ele>120.55</ele>
        <time>2021-04-01T09:19:48.860Z</time>
      </trkpt>
      <trkpt lat="43.1309638" lon="-2.7812381">
        <ele>120.565</ele>
        <time>2021-04-01T09:19:48.912Z</time>
      </trkpt>
      <trkpt lat="43.1309669" lon="-2.7812415">
        <ele>120.57</ele>
        <time>2021-04-01T09:19:48.964Z</time>
      </trkpt>
      <trkpt lat="43.13097" lon="-2.7812452">
        <ele>120.576</ele>
        <time>2021-04-01T09:19:49.016Z</time>
      </trkpt>
      <trkpt lat="43.130973" lon="-2.7812489">
        <ele>120.594</ele>
        <time>2021-04-01T09:19:49.069Z</time>
      </trkpt>
      <trkpt lat="43.1309763" lon="-2.7812525">
        <ele>120.589</ele>
        <time>2021-04-01T09:19:49.130Z</time>
      </trkpt>
      <trkpt lat="43.1309794" lon="-2.7812558">
        <ele>120.571</ele>
        <time>2021-04-01T09:19:49.191Z</time>
      </trkpt>
      <trkpt lat="43.1309827" lon="-2.7812593">
        <ele>120.577</ele>
        <time>2021-04-01T09:19:49.253Z</time>
      </trkpt>
      <trkpt lat="43.1309857" lon="-2.781263">
        <ele>120.591</ele>
        <time>2021-04-01T09:19:49.314Z</time>
      </trkpt>
      <trkpt lat="43.130989" lon="-2.7812664">
        <ele>120.607</ele>
        <time>2021-04-01T09:19:49.376Z</time>
      </trkpt>
      <trkpt lat="43.1309923" lon="-2.7812691">
        <ele>120.579</ele>
        <time>2021-04-01T09:19:49.437Z</time>
      </trkpt>
      <trkpt lat="43.1309955" lon="-2.7812724">
        <ele>120.577</ele>
        <time>2021-04-01T09:19:49.499Z</time>
      </trkpt>
      <trkpt lat="43.1309983" lon="-2.7812757">
        <ele>120.521</ele>
        <time>2021-04-01T09:19:49.560Z</time>
      </trkpt>
      <trkpt lat="43.1310017" lon="-2.7812789">
        <ele>120.507</ele>
        <time>2021-04-01T09:19:49.622Z</time>
      </trkpt>
      <trkpt lat="43.131005" lon="-2.7812819">
        <ele>120.491</ele>
        <time>2021-04-01T09:19:49.683Z</time>
      </trkpt>
      <trkpt lat="43.1310084" lon="-2.7812853">
        <ele>120.491</ele>
        <time>2021-04-01T09:19:49.745Z</time>
      </trkpt>
      <trkpt lat="43.1310117" lon="-2.7812888">
        <ele>120.511</ele>
        <time>2021-04-01T09:19:49.806Z</time>
      </trkpt>
      <trkpt lat="43.131015" lon="-2.7812921">
        <ele>120.518</ele>
        <time>2021-04-01T09:19:49.868Z</time>
      </trkpt>
      <trkpt lat="43.1310184" lon="-2.7812952">
        <ele>120.511</ele>
        <time>2021-04-01T09:19:49.929Z</time>
      </trkpt>
      <trkpt lat="43.1310217" lon="-2.7812985">
        <ele>120.505</ele>
        <time>2021-04-01T09:19:49.991Z</time>
      </trkpt>
      <trkpt lat="43.1310249" lon="-2.7813019">
        <ele>120.49</ele>
        <time>2021-04-01T09:19:50.052Z</time>
      </trkpt>
      <trkpt lat="43.131028" lon="-2.7813055">
        <ele>120.492</ele>
        <time>2021-04-01T09:19:50.114Z</time>
      </trkpt>
      <trkpt lat="43.1310312" lon="-2.7813089">
        <ele>120.506</ele>
        <time>2021-04-01T09:19:50.166Z</time>
      </trkpt>
      <trkpt lat="43.1310344" lon="-2.7813124">
        <ele>120.514</ele>
        <time>2021-04-01T09:19:50.218Z</time>
      </trkpt>
      <trkpt lat="43.1310375" lon="-2.7813156">
        <ele>120.489</ele>
        <time>2021-04-01T09:19:50.270Z</time>
      </trkpt>
      <trkpt lat="43.1310406" lon="-2.7813194">
        <ele>120.492</ele>
        <time>2021-04-01T09:19:50.322Z</time>
      </trkpt>
      <trkpt lat="43.131044" lon="-2.7813229">
        <ele>120.501</ele>
        <time>2021-04-01T09:19:50.374Z</time>
      </trkpt>
      <trkpt lat="43.1310474" lon="-2.7813261">
        <ele>120.495</ele>
        <time>2021-04-01T09:19:50.426Z</time>
      </trkpt>
      <trkpt lat="43.1310506" lon="-2.7813291">
        <ele>120.46</ele>
        <time>2021-04-01T09:19:50.478Z</time>
      </trkpt>
      <trkpt lat="43.1310537" lon="-2.7813329">
        <ele>120.466</ele>
        <time>2021-04-01T09:19:50.530Z</time>
      </trkpt>
      <trkpt lat="43.131057" lon="-2.7813363">
        <ele>120.477</ele>
        <time>2021-04-01T09:19:50.582Z</time>
      </trkpt>
      <trkpt lat="43.1310605" lon="-2.7813396">
        <ele>120.48</ele>
        <time>2021-04-01T09:19:50.635Z</time>
      </trkpt>
      <trkpt lat="43.1310635" lon="-2.7813428">
        <ele>120.443</ele>
        <time>2021-04-01T09:19:50.687Z</time>
      </trkpt>
      <trkpt lat="43.1310667" lon="-2.7813463">
        <ele>120.442</ele>
        <time>2021-04-01T09:19:50.739Z</time>
      </trkpt>
      <trkpt lat="43.1310699" lon="-2.7813498">
        <ele>120.441</ele>
        <time>2021-04-01T09:19:50.791Z</time>
      </trkpt>
      <trkpt lat="43.1310732" lon="-2.7813531">
        <ele>120.446</ele>
        <time>2021-04-01T09:19:50.843Z</time>
      </trkpt>
      <trkpt lat="43.1310765" lon="-2.7813564">
        <ele>120.45</ele>
        <time>2021-04-01T09:19:50.895Z</time>
      </trkpt>
      <trkpt lat="43.1310798" lon="-2.7813596">
        <ele>120.427</ele>
        <time>2021-04-01T09:19:50.947Z</time>
      </trkpt>
      <trkpt lat="43.131083" lon="-2.781363">
        <ele>120.418</ele>
        <time>2021-04-01T09:19:50.999Z</time>
      </trkpt>
      <trkpt lat="43.1310861" lon="-2.7813667">
        <ele>120.424</ele>
        <time>2021-04-01T09:19:51.051Z</time>
      </trkpt>
      <trkpt lat="43.1310895" lon="-2.7813702">
        <ele>120.436</ele>
        <time>2021-04-01T09:19:51.104Z</time>
      </trkpt>
      <trkpt lat="43.1310928" lon="-2.7813739">
        <ele>120.447</ele>
        <time>2021-04-01T09:19:51.159Z</time>
      </trkpt>
      <trkpt lat="43.1310959" lon="-2.7813775">
        <ele>120.445</ele>
        <time>2021-04-01T09:19:51.214Z</time>
      </trkpt>
      <trkpt lat="43.1310991" lon="-2.7813813">
        <ele>120.476</ele>
        <time>2021-04-01T09:19:51.269Z</time>
      </trkpt>
      <trkpt lat="43.1311024" lon="-2.7813848">
        <ele>120.505</ele>
        <time>2021-04-01T09:19:51.324Z</time>
      </trkpt>
      <trkpt lat="43.1311056" lon="-2.7813883">
        <ele>120.514</ele>
        <time>2021-04-01T09:19:51.379Z</time>
      </trkpt>
      <trkpt lat="43.1311088" lon="-2.7813914">
        <ele>120.476</ele>
        <time>2021-04-01T09:19:51.434Z</time>
      </trkpt>
      <trkpt lat="43.1311121" lon="-2.7813945">
        <ele>120.441</ele>
        <time>2021-04-01T09:19:51.489Z</time>
      </trkpt>
      <trkpt lat="43.1311154" lon="-2.781398">
        <ele>120.435</ele>
        <time>2021-04-01T09:19:51.544Z</time>
      </trkpt>
      <trkpt lat="43.1311187" lon="-2.7814014">
        <ele>120.441</ele>
        <time>2021-04-01T09:19:51.599Z</time>
      </trkpt>
      <trkpt lat="43.1311219" lon="-2.781405">
        <ele>120.459</ele>
        <time>2021-04-01T09:19:51.654Z</time>
      </trkpt>
      <trkpt lat="43.1311252" lon="-2.7814088">
        <ele>120.495</ele>
        <time>2021-04-01T09:19:51.709Z</time>
      </trkpt>
      <trkpt lat="43.1311283" lon="-2.7814124">
        <ele>120.514</ele>
        <time>2021-04-01T09:19:51.764Z</time>
      </trkpt>
      <trkpt lat="43.1311314" lon="-2.781416">
        <ele>120.506</ele>
        <time>2021-04-01T09:19:51.819Z</time>
      </trkpt>
      <trkpt lat="43.1311345" lon="-2.7814197">
        <ele>120.527</ele>
        <time>2021-04-01T09:19:51.874Z</time>
      </trkpt>
      <trkpt lat="43.1311377" lon="-2.7814232">
        <ele>120.52</ele>
        <time>2021-04-01T09:19:51.929Z</time>
      </trkpt>
      <trkpt lat="43.1311409" lon="-2.7814265">
        <ele>120.518</ele>
        <time>2021-04-01T09:19:51.984Z</time>
      </trkpt>
      <trkpt lat="43.1311443" lon="-2.78143">
        <ele>120.534</ele>
        <time>2021-04-01T09:19:52.039Z</time>
      </trkpt>
      <trkpt lat="43.1311476" lon="-2.7814332">
        <ele>120.534</ele>
        <time>2021-04-01T09:19:52.094Z</time>
      </trkpt>
      <trkpt lat="43.1311509" lon="-2.7814362">
        <ele>120.528</ele>
        <time>2021-04-01T09:19:52.152Z</time>
      </trkpt>
      <trkpt lat="43.1311542" lon="-2.7814393">
        <ele>120.505</ele>
        <time>2021-04-01T09:19:52.210Z</time>
      </trkpt>
      <trkpt lat="43.1311575" lon="-2.7814422">
        <ele>120.493</ele>
        <time>2021-04-01T09:19:52.268Z</time>
      </trkpt>
      <trkpt lat="43.1311609" lon="-2.7814448">
        <ele>120.448</ele>
        <time>2021-04-01T09:19:52.326Z</time>
      </trkpt>
      <trkpt lat="43.1311642" lon="-2.7814481">
        <ele>120.447</ele>
        <time>2021-04-01T09:19:52.384Z</time>
      </trkpt>
      <trkpt lat="43.1311676" lon="-2.7814511">
        <ele>120.427</ele>
        <time>2021-04-01T09:19:52.442Z</time>
      </trkpt>
      <trkpt lat="43.1311709" lon="-2.7814544">
        <ele>120.416</ele>
        <time>2021-04-01T09:19:52.500Z</time>
      </trkpt>
      <trkpt lat="43.1311739" lon="-2.7814583">
        <ele>120.437</ele>
        <time>2021-04-01T09:19:52.558Z</time>
      </trkpt>
      <trkpt lat="43.131177" lon="-2.7814618">
        <ele>120.433</ele>
        <time>2021-04-01T09:19:52.616Z</time>
      </trkpt>
      <trkpt lat="43.1311804" lon="-2.7814648">
        <ele>120.43</ele>
        <time>2021-04-01T09:19:52.674Z</time>
      </trkpt>
      <trkpt lat="43.1311837" lon="-2.7814682">
        <ele>120.429</ele>
        <time>2021-04-01T09:19:52.732Z</time>
      </trkpt>
      <trkpt lat="43.1311868" lon="-2.7814715">
        <ele>120.4</ele>
        <time>2021-04-01T09:19:52.790Z</time>
      </trkpt>
      <trkpt lat="43.1311902" lon="-2.7814748">
        <ele>120.393</ele>
        <time>2021-04-01T09:19:52.848Z</time>
      </trkpt>
      <trkpt lat="43.1311936" lon="-2.7814786">
        <ele>120.435</ele>
        <time>2021-04-01T09:19:52.906Z</time>
      </trkpt>
      <trkpt lat="43.1311968" lon="-2.7814819">
        <ele>120.438</ele>
        <time>2021-04-01T09:19:52.964Z</time>
      </trkpt>
      <trkpt lat="43.1312" lon="-2.7814851">
        <ele>120.411</ele>
        <time>2021-04-01T09:19:53.022Z</time>
      </trkpt>
      <trkpt lat="43.1312031" lon="-2.7814882">
        <ele>120.365</ele>
        <time>2021-04-01T09:19:53.080Z</time>
      </trkpt>
      <trkpt lat="43.1312066" lon="-2.7814914">
        <ele>120.359</ele>
        <time>2021-04-01T09:19:53.139Z</time>
      </trkpt>
      <trkpt lat="43.13121" lon="-2.7814949">
        <ele>120.383</ele>
        <time>2021-04-01T09:19:53.190Z</time>
      </trkpt>
      <trkpt lat="43.1312131" lon="-2.7814983">
        <ele>120.386</ele>
        <time>2021-04-01T09:19:53.242Z</time>
      </trkpt>
      <trkpt lat="43.1312164" lon="-2.7815016">
        <ele>120.4</ele>
        <time>2021-04-01T09:19:53.294Z</time>
      </trkpt>
      <trkpt lat="43.1312196" lon="-2.7815051">
        <ele>120.419</ele>
        <time>2021-04-01T09:19:53.346Z</time>
      </trkpt>
      <trkpt lat="43.1312228" lon="-2.7815085">
        <ele>120.403</ele>
        <time>2021-04-01T09:19:53.398Z</time>
      </trkpt>
      <trkpt lat="43.131226" lon="-2.7815119">
        <ele>120.406</ele>
        <time>2021-04-01T09:19:53.450Z</time>
      </trkpt>
      <trkpt lat="43.1312294" lon="-2.7815152">
        <ele>120.415</ele>
        <time>2021-04-01T09:19:53.502Z</time>
      </trkpt>
      <trkpt lat="43.1312326" lon="-2.7815189">
        <ele>120.421</ele>
        <time>2021-04-01T09:19:53.554Z</time>
      </trkpt>
      <trkpt lat="43.1312359" lon="-2.7815224">
        <ele>120.442</ele>
        <time>2021-04-01T09:19:53.606Z</time>
      </trkpt>
      <trkpt lat="43.131239" lon="-2.7815263">
        <ele>120.456</ele>
        <time>2021-04-01T09:19:53.658Z</time>
      </trkpt>
      <trkpt lat="43.1312424" lon="-2.7815293">
        <ele>120.437</ele>
        <time>2021-04-01T09:19:53.710Z</time>
      </trkpt>
      <trkpt lat="43.1312458" lon="-2.7815326">
        <ele>120.448</ele>
        <time>2021-04-01T09:19:53.762Z</time>
      </trkpt>
      <trkpt lat="43.131249" lon="-2.781536">
        <ele>120.456</ele>
        <time>2021-04-01T09:19:53.814Z</time>
      </trkpt>
      <trkpt lat="43.1312524" lon="-2.7815394">
        <ele>120.463</ele>
        <time>2021-04-01T09:19:53.866Z</time>
      </trkpt>
      <trkpt lat="43.1312557" lon="-2.7815428">
        <ele>120.471</ele>
        <time>2021-04-01T09:19:53.918Z</time>
      </trkpt>
      <trkpt lat="43.131259" lon="-2.7815459">
        <ele>120.451</ele>
        <time>2021-04-01T09:19:53.970Z</time>
      </trkpt>
      <trkpt lat="43.1312624" lon="-2.7815491">
        <ele>120.436</ele>
        <time>2021-04-01T09:19:54.022Z</time>
      </trkpt>
      <trkpt lat="43.1312659" lon="-2.7815522">
        <ele>120.446</ele>
        <time>2021-04-01T09:19:54.074Z</time>
      </trkpt>
      <trkpt lat="43.1312692" lon="-2.7815556">
        <ele>120.453</ele>
        <time>2021-04-01T09:19:54.126Z</time>
      </trkpt>
      <trkpt lat="43.1312724" lon="-2.781559">
        <ele>120.464</ele>
        <time>2021-04-01T09:19:54.178Z</time>
      </trkpt>
      <trkpt lat="43.1312756" lon="-2.7815624">
        <ele>120.486</ele>
        <time>2021-04-01T09:19:54.230Z</time>
      </trkpt>
      <trkpt lat="43.131279" lon="-2.7815657">
        <ele>120.466</ele>
        <time>2021-04-01T09:19:54.282Z</time>
      </trkpt>
      <trkpt lat="43.1312823" lon="-2.781569">
        <ele>120.449</ele>
        <time>2021-04-01T09:19:54.334Z</time>
      </trkpt>
      <trkpt lat="43.1312857" lon="-2.7815721">
        <ele>120.448</ele>
        <time>2021-04-01T09:19:54.386Z</time>
      </trkpt>
      <trkpt lat="43.1312891" lon="-2.7815753">
        <ele>120.464</ele>
        <time>2021-04-01T09:19:54.438Z</time>
      </trkpt>
      <trkpt lat="43.1312924" lon="-2.7815785">
        <ele>120.458</ele>
        <time>2021-04-01T09:19:54.490Z</time>
      </trkpt>
      <trkpt lat="43.1312956" lon="-2.7815818">
        <ele>120.467</ele>
        <time>2021-04-01T09:19:54.542Z</time>
      </trkpt>
      <trkpt lat="43.1312993" lon="-2.7815846">
        <ele>120.464</ele>
        <time>2021-04-01T09:19:54.595Z</time>
      </trkpt>
      <trkpt lat="43.1313029" lon="-2.7815876">
        <ele>120.465</ele>
        <time>2021-04-01T09:19:54.647Z</time>
      </trkpt>
      <trkpt lat="43.1313065" lon="-2.7815906">
        <ele>120.468</ele>
        <time>2021-04-01T09:19:54.699Z</time>
      </trkpt>
      <trkpt lat="43.1313099" lon="-2.7815934">
        <ele>120.462</ele>
        <time>2021-04-01T09:19:54.751Z</time>
      </trkpt>
      <trkpt lat="43.1313133" lon="-2.7815968">
        <ele>120.477</ele>
        <time>2021-04-01T09:19:54.803Z</time>
      </trkpt>
      <trkpt lat="43.1313165" lon="-2.7816005">
        <ele>120.498</ele>
        <time>2021-04-01T09:19:54.855Z</time>
      </trkpt>
      <trkpt lat="43.1313199" lon="-2.781604">
        <ele>120.532</ele>
        <time>2021-04-01T09:19:54.907Z</time>
      </trkpt>
      <trkpt lat="43.1313231" lon="-2.7816071">
        <ele>120.536</ele>
        <time>2021-04-01T09:19:54.959Z</time>
      </trkpt>
      <trkpt lat="43.1313267" lon="-2.7816103">
        <ele>120.542</ele>
        <time>2021-04-01T09:19:55.011Z</time>
      </trkpt>
      <trkpt lat="43.1313302" lon="-2.7816135">
        <ele>120.568</ele>
        <time>2021-04-01T09:19:55.064Z</time>
      </trkpt>
      <trkpt lat="43.1313338" lon="-2.7816168">
        <ele>120.606</ele>
        <time>2021-04-01T09:19:55.122Z</time>
      </trkpt>
      <trkpt lat="43.1313372" lon="-2.7816199">
        <ele>120.61</ele>
        <time>2021-04-01T09:19:55.180Z</time>
      </trkpt>
      <trkpt lat="43.1313404" lon="-2.7816231">
        <ele>120.6</ele>
        <time>2021-04-01T09:19:55.238Z</time>
      </trkpt>
      <trkpt lat="43.1313435" lon="-2.7816265">
        <ele>120.58</ele>
        <time>2021-04-01T09:19:55.296Z</time>
      </trkpt>
      <trkpt lat="43.1313467" lon="-2.7816294">
        <ele>120.517</ele>
        <time>2021-04-01T09:19:55.354Z</time>
      </trkpt>
      <trkpt lat="43.13135" lon="-2.7816326">
        <ele>120.509</ele>
        <time>2021-04-01T09:19:55.412Z</time>
      </trkpt>
      <trkpt lat="43.1313533" lon="-2.7816359">
        <ele>120.498</ele>
        <time>2021-04-01T09:19:55.470Z</time>
      </trkpt>
      <trkpt lat="43.1313566" lon="-2.7816394">
        <ele>120.511</ele>
        <time>2021-04-01T09:19:55.528Z</time>
      </trkpt>
      <trkpt lat="43.13136" lon="-2.7816427">
        <ele>120.512</ele>
        <time>2021-04-01T09:19:55.586Z</time>
      </trkpt>
      <trkpt lat="43.1313635" lon="-2.781646">
        <ele>120.538</ele>
        <time>2021-04-01T09:19:55.644Z</time>
      </trkpt>
      <trkpt lat="43.1313667" lon="-2.7816495">
        <ele>120.543</ele>
        <time>2021-04-01T09:19:55.702Z</time>
      </trkpt>
      <trkpt lat="43.13137" lon="-2.7816528">
        <ele>120.54</ele>
        <time>2021-04-01T09:19:55.760Z</time>
      </trkpt>
      <trkpt lat="43.1313734" lon="-2.7816561">
        <ele>120.534</ele>
        <time>2021-04-01T09:19:55.818Z</time>
      </trkpt>
      <trkpt lat="43.1313769" lon="-2.7816595">
        <ele>120.545</ele>
        <time>2021-04-01T09:19:55.876Z</time>
      </trkpt>
      <trkpt lat="43.1313802" lon="-2.7816629">
        <ele>120.564</ele>
        <time>2021-04-01T09:19:55.934Z</time>
      </trkpt>
      <trkpt lat="43.1313835" lon="-2.7816661">
        <ele>120.525</ele>
        <time>2021-04-01T09:19:55.992Z</time>
      </trkpt>
      <trkpt lat="43.131387" lon="-2.7816691">
        <ele>120.536</ele>
        <time>2021-04-01T09:19:56.050Z</time>
      </trkpt>
      <trkpt lat="43.1313903" lon="-2.7816723">
        <ele>120.521</ele>
        <time>2021-04-01T09:19:56.109Z</time>
      </trkpt>
      <trkpt lat="43.1313937" lon="-2.7816756">
        <ele>120.517</ele>
        <time>2021-04-01T09:19:56.164Z</time>
      </trkpt>
      <trkpt lat="43.131397" lon="-2.781679">
        <ele>120.515</ele>
        <time>2021-04-01T09:19:56.219Z</time>
      </trkpt>
      <trkpt lat="43.1314003" lon="-2.781682">
        <ele>120.485</ele>
        <time>2021-04-01T09:19:56.274Z</time>
      </trkpt>
      <trkpt lat="43.1314036" lon="-2.7816849">
        <ele>120.46</ele>
        <time>2021-04-01T09:19:56.329Z</time>
      </trkpt>
      <trkpt lat="43.1314071" lon="-2.7816882">
        <ele>120.463</ele>
        <time>2021-04-01T09:19:56.384Z</time>
      </trkpt>
      <trkpt lat="43.1314105" lon="-2.7816915">
        <ele>120.46</ele>
        <time>2021-04-01T09:19:56.439Z</time>
      </trkpt>
      <trkpt lat="43.1314139" lon="-2.7816949">
        <ele>120.46</ele>
        <time>2021-04-01T09:19:56.494Z</time>
      </trkpt>
      <trkpt lat="43.1314173" lon="-2.781698">
        <ele>120.453</ele>
        <time>2021-04-01T09:19:56.549Z</time>
      </trkpt>
      <trkpt lat="43.1314209" lon="-2.7817008">
        <ele>120.446</ele>
        <time>2021-04-01T09:19:56.604Z</time>
      </trkpt>
      <trkpt lat="43.1314243" lon="-2.781704">
        <ele>120.449</ele>
        <time>2021-04-01T09:19:56.659Z</time>
      </trkpt>
      <trkpt lat="43.1314276" lon="-2.7817073">
        <ele>120.425</ele>
        <time>2021-04-01T09:19:56.714Z</time>
      </trkpt>
      <trkpt lat="43.1314307" lon="-2.781711">
        <ele>120.42</ele>
        <time>2021-04-01T09:19:56.769Z</time>
      </trkpt>
      <trkpt lat="43.131434" lon="-2.7817143">
        <ele>120.426</ele>
        <time>2021-04-01T09:19:56.824Z</time>
      </trkpt>
      <trkpt lat="43.1314375" lon="-2.7817172">
        <ele>120.425</ele>
        <time>2021-04-01T09:19:56.879Z</time>
      </trkpt>
      <trkpt lat="43.1314409" lon="-2.7817204">
        <ele>120.414</ele>
        <time>2021-04-01T09:19:56.934Z</time>
      </trkpt>
      <trkpt lat="43.1314441" lon="-2.7817236">
        <ele>120.394</ele>
        <time>2021-04-01T09:19:56.989Z</time>
      </trkpt>
      <trkpt lat="43.1314473" lon="-2.7817269">
        <ele>120.384</ele>
        <time>2021-04-01T09:19:57.044Z</time>
      </trkpt>
      <trkpt lat="43.1314505" lon="-2.7817303">
        <ele>120.388</ele>
        <time>2021-04-01T09:19:57.099Z</time>
      </trkpt>
      <trkpt lat="43.1314539" lon="-2.7817335">
        <ele>120.388</ele>
        <time>2021-04-01T09:19:57.154Z</time>
      </trkpt>
      <trkpt lat="43.1314571" lon="-2.7817368">
        <ele>120.373</ele>
        <time>2021-04-01T09:19:57.209Z</time>
      </trkpt>
      <trkpt lat="43.1314604" lon="-2.7817405">
        <ele>120.403</ele>
        <time>2021-04-01T09:19:57.264Z</time>
      </trkpt>
      <trkpt lat="43.1314639" lon="-2.781744">
        <ele>120.418</ele>
        <time>2021-04-01T09:19:57.319Z</time>
      </trkpt>
      <trkpt lat="43.1314672" lon="-2.781747">
        <ele>120.395</ele>
        <time>2021-04-01T09:19:57.374Z</time>
      </trkpt>
      <trkpt lat="43.1314706" lon="-2.7817501">
        <ele>120.387</ele>
        <time>2021-04-01T09:19:57.429Z</time>
      </trkpt>
      <trkpt lat="43.1314739" lon="-2.7817533">
        <ele>120.374</ele>
        <time>2021-04-01T09:19:57.484Z</time>
      </trkpt>
      <trkpt lat="43.1314771" lon="-2.7817568">
        <ele>120.377</ele>
        <time>2021-04-01T09:19:57.539Z</time>
      </trkpt>
      <trkpt lat="43.1314804" lon="-2.78176">
        <ele>120.359</ele>
        <time>2021-04-01T09:19:57.594Z</time>
      </trkpt>
      <trkpt lat="43.1314837" lon="-2.7817635">
        <ele>120.386</ele>
        <time>2021-04-01T09:19:57.649Z</time>
      </trkpt>
      <trkpt lat="43.1314871" lon="-2.7817668">
        <ele>120.402</ele>
        <time>2021-04-01T09:19:57.704Z</time>
      </trkpt>
      <trkpt lat="43.1314904" lon="-2.7817699">
        <ele>120.387</ele>
        <time>2021-04-01T09:19:57.759Z</time>
      </trkpt>
      <trkpt lat="43.1314937" lon="-2.7817734">
        <ele>120.401</ele>
        <time>2021-04-01T09:19:57.814Z</time>
      </trkpt>
      <trkpt lat="43.1314971" lon="-2.7817766">
        <ele>120.424</ele>
        <time>2021-04-01T09:19:57.869Z</time>
      </trkpt>
      <trkpt lat="43.1315005" lon="-2.7817797">
        <ele>120.49</ele>
        <time>2021-04-01T09:19:57.924Z</time>
      </trkpt>
      <trkpt lat="43.1315039" lon="-2.7817831">
        <ele>120.507</ele>
        <time>2021-04-01T09:19:57.979Z</time>
      </trkpt>
      <trkpt lat="43.1315071" lon="-2.7817866">
        <ele>120.487</ele>
        <time>2021-04-01T09:19:58.034Z</time>
      </trkpt>
      <trkpt lat="43.13151" lon="-2.78179">
        <ele>120.455</ele>
        <time>2021-04-01T09:19:58.089Z</time>
      </trkpt>
      <trkpt lat="43.1315129" lon="-2.7817927">
        <ele>120.392</ele>
        <time>2021-04-01T09:19:58.144Z</time>
      </trkpt>
      <trkpt lat="43.131516" lon="-2.7817956">
        <ele>120.351</ele>
        <time>2021-04-01T09:19:58.199Z</time>
      </trkpt>
      <trkpt lat="43.1315191" lon="-2.7817987">
        <ele>120.312</ele>
        <time>2021-04-01T09:19:58.254Z</time>
      </trkpt>
      <trkpt lat="43.1315223" lon="-2.7818019">
        <ele>120.289</ele>
        <time>2021-04-01T09:19:58.309Z</time>
      </trkpt>
      <trkpt lat="43.1315254" lon="-2.7818052">
        <ele>120.227</ele>
        <time>2021-04-01T09:19:58.364Z</time>
      </trkpt>
      <trkpt lat="43.1315287" lon="-2.7818085">
        <ele>120.274</ele>
        <time>2021-04-01T09:19:58.419Z</time>
      </trkpt>
      <trkpt lat="43.1315322" lon="-2.7818119">
        <ele>120.331</ele>
        <time>2021-04-01T09:19:58.474Z</time>
      </trkpt>
      <trkpt lat="43.1315355" lon="-2.7818157">
        <ele>120.332</ele>
        <time>2021-04-01T09:19:58.529Z</time>
      </trkpt>
      <trkpt lat="43.1315388" lon="-2.7818196">
        <ele>120.354</ele>
        <time>2021-04-01T09:19:58.584Z</time>
      </trkpt>
      <trkpt lat="43.1315421" lon="-2.7818227">
        <ele>120.344</ele>
        <time>2021-04-01T09:19:58.639Z</time>
      </trkpt>
      <trkpt lat="43.1315453" lon="-2.7818257">
        <ele>120.351</ele>
        <time>2021-04-01T09:19:58.694Z</time>
      </trkpt>
      <trkpt lat="43.1315484" lon="-2.7818292">
        <ele>120.353</ele>
        <time>2021-04-01T09:19:58.749Z</time>
      </trkpt>
      <trkpt lat="43.1315513" lon="-2.7818327">
        <ele>120.324</ele>
        <time>2021-04-01T09:19:58.804Z</time>
      </trkpt>
      <trkpt lat="43.1315543" lon="-2.7818361">
        <ele>120.319</ele>
        <time>2021-04-01T09:19:58.859Z</time>
      </trkpt>
      <trkpt lat="43.1315575" lon="-2.7818392">
        <ele>120.296</ele>
        <time>2021-04-01T09:19:58.914Z</time>
      </trkpt>
      <trkpt lat="43.1315605" lon="-2.7818426">
        <ele>120.295</ele>
        <time>2021-04-01T09:19:58.969Z</time>
      </trkpt>
      <trkpt lat="43.1315639" lon="-2.7818459">
        <ele>120.299</ele>
        <time>2021-04-01T09:19:59.024Z</time>
      </trkpt>
      <trkpt lat="43.1315673" lon="-2.781849">
        <ele>120.285</ele>
        <time>2021-04-01T09:19:59.079Z</time>
      </trkpt>
      <trkpt lat="43.1315705" lon="-2.7818525">
        <ele>120.287</ele>
        <time>2021-04-01T09:19:59.134Z</time>
      </trkpt>
      <trkpt lat="43.1315737" lon="-2.7818558">
        <ele>120.258</ele>
        <time>2021-04-01T09:19:59.192Z</time>
      </trkpt>
      <trkpt lat="43.1315771" lon="-2.781859">
        <ele>120.251</ele>
        <time>2021-04-01T09:19:59.250Z</time>
      </trkpt>
      <trkpt lat="43.1315803" lon="-2.7818624">
        <ele>120.248</ele>
        <time>2021-04-01T09:19:59.308Z</time>
      </trkpt>
      <trkpt lat="43.1315834" lon="-2.7818659">
        <ele>120.253</ele>
        <time>2021-04-01T09:19:59.366Z</time>
      </trkpt>
      <trkpt lat="43.1315865" lon="-2.7818693">
        <ele>120.248</ele>
        <time>2021-04-01T09:19:59.425Z</time>
      </trkpt>
      <trkpt lat="43.1315898" lon="-2.7818725">
        <ele>120.232</ele>
        <time>2021-04-01T09:19:59.483Z</time>
      </trkpt>
      <trkpt lat="43.1315931" lon="-2.7818758">
        <ele>120.253</ele>
        <time>2021-04-01T09:19:59.541Z</time>
      </trkpt>
      <trkpt lat="43.1315961" lon="-2.7818799">
        <ele>120.282</ele>
        <time>2021-04-01T09:19:59.599Z</time>
      </trkpt>
      <trkpt lat="43.1315991" lon="-2.7818837">
        <ele>120.273</ele>
        <time>2021-04-01T09:19:59.658Z</time>
      </trkpt>
      <trkpt lat="43.1316025" lon="-2.7818868">
        <ele>120.248</ele>
        <time>2021-04-01T09:19:59.716Z</time>
      </trkpt>
      <trkpt lat="43.1316057" lon="-2.78189">
        <ele>120.219</ele>
        <time>2021-04-01T09:19:59.774Z</time>
      </trkpt>
      <trkpt lat="43.1316089" lon="-2.7818935">
        <ele>120.225</ele>
        <time>2021-04-01T09:19:59.832Z</time>
      </trkpt>
      <trkpt lat="43.1316122" lon="-2.7818969">
        <ele>120.232</ele>
        <time>2021-04-01T09:19:59.891Z</time>
      </trkpt>
      <trkpt lat="43.1316155" lon="-2.7819003">
        <ele>120.242</ele>
        <time>2021-04-01T09:19:59.949Z</time>
      </trkpt>
      <trkpt lat="43.1316188" lon="-2.7819036">
        <ele>120.213</ele>
        <time>2021-04-01T09:20:00.007Z</time>
      </trkpt>
      <trkpt lat="43.1316221" lon="-2.7819068">
        <ele>120.2</ele>
        <time>2021-04-01T09:20:00.065Z</time>
      </trkpt>
      <trkpt lat="43.1316255" lon="-2.7819099">
        <ele>120.181</ele>
        <time>2021-04-01T09:20:00.124Z</time>
      </trkpt>
      <trkpt lat="43.1316288" lon="-2.7819135">
        <ele>120.214</ele>
        <time>2021-04-01T09:20:00.173Z</time>
      </trkpt>
      <trkpt lat="43.1316321" lon="-2.7819168">
        <ele>120.22</ele>
        <time>2021-04-01T09:20:00.222Z</time>
      </trkpt>
      <trkpt lat="43.1316354" lon="-2.78192">
        <ele>120.224</ele>
        <time>2021-04-01T09:20:00.271Z</time>
      </trkpt>
      <trkpt lat="43.1316384" lon="-2.7819232">
        <ele>120.177</ele>
        <time>2021-04-01T09:20:00.320Z</time>
      </trkpt>
      <trkpt lat="43.1316419" lon="-2.7819266">
        <ele>120.173</ele>
        <time>2021-04-01T09:20:00.370Z</time>
      </trkpt>
      <trkpt lat="43.1316451" lon="-2.7819302">
        <ele>120.193</ele>
        <time>2021-04-01T09:20:00.419Z</time>
      </trkpt>
      <trkpt lat="43.1316482" lon="-2.7819337">
        <ele>120.225</ele>
        <time>2021-04-01T09:20:00.468Z</time>
      </trkpt>
      <trkpt lat="43.1316515" lon="-2.7819369">
        <ele>120.207</ele>
        <time>2021-04-01T09:20:00.517Z</time>
      </trkpt>
      <trkpt lat="43.1316548" lon="-2.7819401">
        <ele>120.186</ele>
        <time>2021-04-01T09:20:00.566Z</time>
      </trkpt>
      <trkpt lat="43.1316582" lon="-2.7819437">
        <ele>120.217</ele>
        <time>2021-04-01T09:20:00.616Z</time>
      </trkpt>
      <trkpt lat="43.1316615" lon="-2.7819474">
        <ele>120.262</ele>
        <time>2021-04-01T09:20:00.665Z</time>
      </trkpt>
      <trkpt lat="43.1316648" lon="-2.7819509">
        <ele>120.292</ele>
        <time>2021-04-01T09:20:00.714Z</time>
      </trkpt>
      <trkpt lat="43.131668" lon="-2.7819541">
        <ele>120.272</ele>
        <time>2021-04-01T09:20:00.763Z</time>
      </trkpt>
      <trkpt lat="43.1316711" lon="-2.7819577">
        <ele>120.276</ele>
        <time>2021-04-01T09:20:00.812Z</time>
      </trkpt>
      <trkpt lat="43.1316743" lon="-2.781961">
        <ele>120.262</ele>
        <time>2021-04-01T09:20:00.862Z</time>
      </trkpt>
      <trkpt lat="43.1316776" lon="-2.7819641">
        <ele>120.253</ele>
        <time>2021-04-01T09:20:00.911Z</time>
      </trkpt>
      <trkpt lat="43.1316809" lon="-2.781967">
        <ele>120.229</ele>
        <time>2021-04-01T09:20:00.960Z</time>
      </trkpt>
      <trkpt lat="43.1316842" lon="-2.7819704">
        <ele>120.231</ele>
        <time>2021-04-01T09:20:01.009Z</time>
      </trkpt>
      <trkpt lat="43.1316874" lon="-2.7819737">
        <ele>120.215</ele>
        <time>2021-04-01T09:20:01.059Z</time>
      </trkpt>
      <trkpt lat="43.1316906" lon="-2.781977">
        <ele>120.199</ele>
        <time>2021-04-01T09:20:01.117Z</time>
      </trkpt>
      <trkpt lat="43.1316939" lon="-2.78198">
        <ele>120.183</ele>
        <time>2021-04-01T09:20:01.175Z</time>
      </trkpt>
      <trkpt lat="43.1316971" lon="-2.781983">
        <ele>120.169</ele>
        <time>2021-04-01T09:20:01.233Z</time>
      </trkpt>
      <trkpt lat="43.1317004" lon="-2.7819862">
        <ele>120.137</ele>
        <time>2021-04-01T09:20:01.291Z</time>
      </trkpt>
      <trkpt lat="43.1317035" lon="-2.7819897">
        <ele>120.141</ele>
        <time>2021-04-01T09:20:01.349Z</time>
      </trkpt>
      <trkpt lat="43.1317066" lon="-2.7819929">
        <ele>120.134</ele>
        <time>2021-04-01T09:20:01.407Z</time>
      </trkpt>
      <trkpt lat="43.13171" lon="-2.7819964">
        <ele>120.153</ele>
        <time>2021-04-01T09:20:01.465Z</time>
      </trkpt>
      <trkpt lat="43.1317134" lon="-2.7819998">
        <ele>120.144</ele>
        <time>2021-04-01T09:20:01.523Z</time>
      </trkpt>
      <trkpt lat="43.1317166" lon="-2.7820031">
        <ele>120.157</ele>
        <time>2021-04-01T09:20:01.581Z</time>
      </trkpt>
      <trkpt lat="43.1317199" lon="-2.782006">
        <ele>120.132</ele>
        <time>2021-04-01T09:20:01.639Z</time>
      </trkpt>
      <trkpt lat="43.1317231" lon="-2.7820092">
        <ele>120.125</ele>
        <time>2021-04-01T09:20:01.697Z</time>
      </trkpt>
      <trkpt lat="43.1317264" lon="-2.7820124">
        <ele>120.098</ele>
        <time>2021-04-01T09:20:01.755Z</time>
      </trkpt>
      <trkpt lat="43.1317297" lon="-2.7820156">
        <ele>120.066</ele>
        <time>2021-04-01T09:20:01.813Z</time>
      </trkpt>
      <trkpt lat="43.131733" lon="-2.7820188">
        <ele>120.059</ele>
        <time>2021-04-01T09:20:01.871Z</time>
      </trkpt>
      <trkpt lat="43.1317361" lon="-2.7820224">
        <ele>120.068</ele>
        <time>2021-04-01T09:20:01.929Z</time>
      </trkpt>
      <trkpt lat="43.1317393" lon="-2.782026">
        <ele>120.091</ele>
        <time>2021-04-01T09:20:01.987Z</time>
      </trkpt>
      <trkpt lat="43.1317427" lon="-2.7820293">
        <ele>120.112</ele>
        <time>2021-04-01T09:20:02.045Z</time>
      </trkpt>
      <trkpt lat="43.1317461" lon="-2.7820327">
        <ele>120.109</ele>
        <time>2021-04-01T09:20:02.104Z</time>
      </trkpt>
      <trkpt lat="43.1317494" lon="-2.7820359">
        <ele>120.099</ele>
        <time>2021-04-01T09:20:02.159Z</time>
      </trkpt>
      <trkpt lat="43.1317527" lon="-2.7820389">
        <ele>120.077</ele>
        <time>2021-04-01T09:20:02.214Z</time>
      </trkpt>
      <trkpt lat="43.1317558" lon="-2.7820422">
        <ele>120.059</ele>
        <time>2021-04-01T09:20:02.269Z</time>
      </trkpt>
      <trkpt lat="43.1317591" lon="-2.7820453">
        <ele>120.032</ele>
        <time>2021-04-01T09:20:02.324Z</time>
      </trkpt>
      <trkpt lat="43.1317625" lon="-2.7820484">
        <ele>120.031</ele>
        <time>2021-04-01T09:20:02.379Z</time>
      </trkpt>
      <trkpt lat="43.1317656" lon="-2.7820513">
        <ele>120.001</ele>
        <time>2021-04-01T09:20:02.434Z</time>
      </trkpt>
      <trkpt lat="43.1317691" lon="-2.7820543">
        <ele>120.003</ele>
        <time>2021-04-01T09:20:02.489Z</time>
      </trkpt>
      <trkpt lat="43.1317723" lon="-2.7820578">
        <ele>119.992</ele>
        <time>2021-04-01T09:20:02.544Z</time>
      </trkpt>
      <trkpt lat="43.1317758" lon="-2.782061">
        <ele>119.999</ele>
        <time>2021-04-01T09:20:02.599Z</time>
      </trkpt>
      <trkpt lat="43.1317791" lon="-2.7820644">
        <ele>120.013</ele>
        <time>2021-04-01T09:20:02.654Z</time>
      </trkpt>
      <trkpt lat="43.1317824" lon="-2.7820678">
        <ele>120.027</ele>
        <time>2021-04-01T09:20:02.709Z</time>
      </trkpt>
      <trkpt lat="43.1317858" lon="-2.7820712">
        <ele>120.031</ele>
        <time>2021-04-01T09:20:02.764Z</time>
      </trkpt>
      <trkpt lat="43.1317893" lon="-2.7820743">
        <ele>120.045</ele>
        <time>2021-04-01T09:20:02.819Z</time>
      </trkpt>
      <trkpt lat="43.1317924" lon="-2.7820774">
        <ele>120.03</ele>
        <time>2021-04-01T09:20:02.874Z</time>
      </trkpt>
      <trkpt lat="43.1317958" lon="-2.7820804">
        <ele>120.003</ele>
        <time>2021-04-01T09:20:02.929Z</time>
      </trkpt>
      <trkpt lat="43.1317991" lon="-2.7820832">
        <ele>119.977</ele>
        <time>2021-04-01T09:20:02.984Z</time>
      </trkpt>
      <trkpt lat="43.1318024" lon="-2.7820864">
        <ele>119.964</ele>
        <time>2021-04-01T09:20:03.039Z</time>
      </trkpt>
      <trkpt lat="43.1318056" lon="-2.7820898">
        <ele>119.958</ele>
        <time>2021-04-01T09:20:03.094Z</time>
      </trkpt>
      <trkpt lat="43.1318091" lon="-2.7820933">
        <ele>119.998</ele>
        <time>2021-04-01T09:20:03.146Z</time>
      </trkpt>
      <trkpt lat="43.1318123" lon="-2.7820966">
        <ele>120.019</ele>
        <time>2021-04-01T09:20:03.198Z</time>
      </trkpt>
      <trkpt lat="43.1318157" lon="-2.7820997">
        <ele>120.002</ele>
        <time>2021-04-01T09:20:03.250Z</time>
      </trkpt>
      <trkpt lat="43.1318191" lon="-2.7821026">
        <ele>120.009</ele>
        <time>2021-04-01T09:20:03.302Z</time>
      </trkpt>
      <trkpt lat="43.1318226" lon="-2.7821056">
        <ele>120.023</ele>
        <time>2021-04-01T09:20:03.354Z</time>
      </trkpt>
      <trkpt lat="43.1318261" lon="-2.7821083">
        <ele>120.017</ele>
        <time>2021-04-01T09:20:03.406Z</time>
      </trkpt>
      <trkpt lat="43.1318294" lon="-2.7821115">
        <ele>120.031</ele>
        <time>2021-04-01T09:20:03.458Z</time>
      </trkpt>
      <trkpt lat="43.1318326" lon="-2.7821146">
        <ele>120.022</ele>
        <time>2021-04-01T09:20:03.510Z</time>
      </trkpt>
      <trkpt lat="43.1318359" lon="-2.7821178">
        <ele>120.036</ele>
        <time>2021-04-01T09:20:03.562Z</time>
      </trkpt>
      <trkpt lat="43.1318393" lon="-2.7821208">
        <ele>120.025</ele>
        <time>2021-04-01T09:20:03.615Z</time>
      </trkpt>
      <trkpt lat="43.1318427" lon="-2.7821239">
        <ele>120.019</ele>
        <time>2021-04-01T09:20:03.667Z</time>
      </trkpt>
      <trkpt lat="43.1318461" lon="-2.7821268">
        <ele>119.997</ele>
        <time>2021-04-01T09:20:03.719Z</time>
      </trkpt>
      <trkpt lat="43.1318493" lon="-2.7821299">
        <ele>120.016</ele>
        <time>2021-04-01T09:20:03.771Z</time>
      </trkpt>
      <trkpt lat="43.1318527" lon="-2.7821329">
        <ele>120.025</ele>
        <time>2021-04-01T09:20:03.823Z</time>
      </trkpt>
      <trkpt lat="43.1318562" lon="-2.782136">
        <ele>120.034</ele>
        <time>2021-04-01T09:20:03.875Z</time>
      </trkpt>
      <trkpt lat="43.1318594" lon="-2.7821394">
        <ele>120.042</ele>
        <time>2021-04-01T09:20:03.927Z</time>
      </trkpt>
      <trkpt lat="43.1318627" lon="-2.7821428">
        <ele>120.051</ele>
        <time>2021-04-01T09:20:03.979Z</time>
      </trkpt>
      <trkpt lat="43.1318659" lon="-2.7821463">
        <ele>120.049</ele>
        <time>2021-04-01T09:20:04.031Z</time>
      </trkpt>
      <trkpt lat="43.1318692" lon="-2.7821496">
        <ele>120.079</ele>
        <time>2021-04-01T09:20:04.084Z</time>
      </trkpt>
      <trkpt lat="43.1318725" lon="-2.7821529">
        <ele>120.063</ele>
        <time>2021-04-01T09:20:04.142Z</time>
      </trkpt>
      <trkpt lat="43.1318756" lon="-2.7821563">
        <ele>120.059</ele>
        <time>2021-04-01T09:20:04.200Z</time>
      </trkpt>
      <trkpt lat="43.131879" lon="-2.7821597">
        <ele>120.082</ele>
        <time>2021-04-01T09:20:04.258Z</time>
      </trkpt>
      <trkpt lat="43.1318823" lon="-2.782163">
        <ele>120.068</ele>
        <time>2021-04-01T09:20:04.316Z</time>
      </trkpt>
      <trkpt lat="43.1318856" lon="-2.7821662">
        <ele>120.099</ele>
        <time>2021-04-01T09:20:04.374Z</time>
      </trkpt>
      <trkpt lat="43.1318887" lon="-2.7821696">
        <ele>120.105</ele>
        <time>2021-04-01T09:20:04.432Z</time>
      </trkpt>
      <trkpt lat="43.1318917" lon="-2.7821732">
        <ele>120.092</ele>
        <time>2021-04-01T09:20:04.490Z</time>
      </trkpt>
      <trkpt lat="43.1318951" lon="-2.7821767">
        <ele>120.12</ele>
        <time>2021-04-01T09:20:04.548Z</time>
      </trkpt>
      <trkpt lat="43.1318983" lon="-2.78218">
        <ele>120.142</ele>
        <time>2021-04-01T09:20:04.606Z</time>
      </trkpt>
      <trkpt lat="43.1319017" lon="-2.7821834">
        <ele>120.153</ele>
        <time>2021-04-01T09:20:04.664Z</time>
      </trkpt>
      <trkpt lat="43.1319049" lon="-2.7821867">
        <ele>120.15</ele>
        <time>2021-04-01T09:20:04.722Z</time>
      </trkpt>
      <trkpt lat="43.1319082" lon="-2.7821899">
        <ele>120.158</ele>
        <time>2021-04-01T09:20:04.780Z</time>
      </trkpt>
      <trkpt lat="43.1319114" lon="-2.7821929">
        <ele>120.146</ele>
        <time>2021-04-01T09:20:04.838Z</time>
      </trkpt>
      <trkpt lat="43.1319148" lon="-2.7821963">
        <ele>120.177</ele>
        <time>2021-04-01T09:20:04.896Z</time>
      </trkpt>
      <trkpt lat="43.131918" lon="-2.7821996">
        <ele>120.168</ele>
        <time>2021-04-01T09:20:04.954Z</time>
      </trkpt>
      <trkpt lat="43.1319213" lon="-2.7822029">
        <ele>120.162</ele>
        <time>2021-04-01T09:20:05.012Z</time>
      </trkpt>
      <trkpt lat="43.1319245" lon="-2.782206">
        <ele>120.182</ele>
        <time>2021-04-01T09:20:05.070Z</time>
      </trkpt>
      <trkpt lat="43.1319276" lon="-2.7822096">
        <ele>120.197</ele>
        <time>2021-04-01T09:20:05.129Z</time>
      </trkpt>
      <trkpt lat="43.1319309" lon="-2.7822131">
        <ele>120.212</ele>
        <time>2021-04-01T09:20:05.180Z</time>
      </trkpt>
      <trkpt lat="43.1319341" lon="-2.7822164">
        <ele>120.223</ele>
        <time>2021-04-01T09:20:05.232Z</time>
      </trkpt>
      <trkpt lat="43.1319373" lon="-2.7822197">
        <ele>120.24</ele>
        <time>2021-04-01T09:20:05.284Z</time>
      </trkpt>
      <trkpt lat="43.1319404" lon="-2.7822231">
        <ele>120.24</ele>
        <time>2021-04-01T09:20:05.336Z</time>
      </trkpt>
      <trkpt lat="43.1319437" lon="-2.7822264">
        <ele>120.231</ele>
        <time>2021-04-01T09:20:05.388Z</time>
      </trkpt>
      <trkpt lat="43.131947" lon="-2.7822295">
        <ele>120.225</ele>
        <time>2021-04-01T09:20:05.440Z</time>
      </trkpt>
      <trkpt lat="43.1319502" lon="-2.7822329">
        <ele>120.249</ele>
        <time>2021-04-01T09:20:05.492Z</time>
      </trkpt>
      <trkpt lat="43.1319534" lon="-2.7822364">
        <ele>120.273</ele>
        <time>2021-04-01T09:20:05.544Z</time>
      </trkpt>
      <trkpt lat="43.1319566" lon="-2.7822398">
        <ele>120.301</ele>
        <time>2021-04-01T09:20:05.596Z</time>
      </trkpt>
      <trkpt lat="43.1319597" lon="-2.7822434">
        <ele>120.329</ele>
        <time>2021-04-01T09:20:05.648Z</time>
      </trkpt>
      <trkpt lat="43.1319629" lon="-2.7822468">
        <ele>120.332</ele>
        <time>2021-04-01T09:20:05.700Z</time>
      </trkpt>
      <trkpt lat="43.1319661" lon="-2.7822502">
        <ele>120.348</ele>
        <time>2021-04-01T09:20:05.752Z</time>
      </trkpt>
      <trkpt lat="43.1319693" lon="-2.7822539">
        <ele>120.384</ele>
        <time>2021-04-01T09:20:05.804Z</time>
      </trkpt>
      <trkpt lat="43.1319724" lon="-2.7822572">
        <ele>120.39</ele>
        <time>2021-04-01T09:20:05.856Z</time>
      </trkpt>
      <trkpt lat="43.1319755" lon="-2.7822607">
        <ele>120.389</ele>
        <time>2021-04-01T09:20:05.908Z</time>
      </trkpt>
      <trkpt lat="43.1319787" lon="-2.782264">
        <ele>120.397</ele>
        <time>2021-04-01T09:20:05.960Z</time>
      </trkpt>
      <trkpt lat="43.1319819" lon="-2.7822675">
        <ele>120.424</ele>
        <time>2021-04-01T09:20:06.012Z</time>
      </trkpt>
      <trkpt lat="43.131985" lon="-2.7822707">
        <ele>120.401</ele>
        <time>2021-04-01T09:20:06.064Z</time>
      </trkpt>
      <trkpt lat="43.1319882" lon="-2.782274">
        <ele>120.404</ele>
        <time>2021-04-01T09:20:06.122Z</time>
      </trkpt>
      <trkpt lat="43.1319912" lon="-2.782277">
        <ele>120.365</ele>
        <time>2021-04-01T09:20:06.180Z</time>
      </trkpt>
      <trkpt lat="43.1319944" lon="-2.7822803">
        <ele>120.368</ele>
        <time>2021-04-01T09:20:06.238Z</time>
      </trkpt>
      <trkpt lat="43.1319976" lon="-2.7822841">
        <ele>120.42</ele>
        <time>2021-04-01T09:20:06.296Z</time>
      </trkpt>
      <trkpt lat="43.1320007" lon="-2.7822876">
        <ele>120.438</ele>
        <time>2021-04-01T09:20:06.354Z</time>
      </trkpt>
      <trkpt lat="43.1320036" lon="-2.7822913">
        <ele>120.45</ele>
        <time>2021-04-01T09:20:06.412Z</time>
      </trkpt>
      <trkpt lat="43.1320067" lon="-2.7822945">
        <ele>120.434</ele>
        <time>2021-04-01T09:20:06.470Z</time>
      </trkpt>
      <trkpt lat="43.1320098" lon="-2.7822976">
        <ele>120.399</ele>
        <time>2021-04-01T09:20:06.528Z</time>
      </trkpt>
      <trkpt lat="43.132013" lon="-2.7823008">
        <ele>120.402</ele>
        <time>2021-04-01T09:20:06.586Z</time>
      </trkpt>
      <trkpt lat="43.1320161" lon="-2.7823044">
        <ele>120.413</ele>
        <time>2021-04-01T09:20:06.644Z</time>
      </trkpt>
      <trkpt lat="43.1320192" lon="-2.7823077">
        <ele>120.428</ele>
        <time>2021-04-01T09:20:06.702Z</time>
      </trkpt>
      <trkpt lat="43.1320223" lon="-2.7823111">
        <ele>120.435</ele>
        <time>2021-04-01T09:20:06.760Z</time>
      </trkpt>
      <trkpt lat="43.1320254" lon="-2.7823146">
        <ele>120.464</ele>
        <time>2021-04-01T09:20:06.818Z</time>
      </trkpt>
      <trkpt lat="43.1320283" lon="-2.7823177">
        <ele>120.423</ele>
        <time>2021-04-01T09:20:06.876Z</time>
      </trkpt>
      <trkpt lat="43.1320315" lon="-2.7823208">
        <ele>120.403</ele>
        <time>2021-04-01T09:20:06.934Z</time>
      </trkpt>
      <trkpt lat="43.1320348" lon="-2.782324">
        <ele>120.416</ele>
        <time>2021-04-01T09:20:06.992Z</time>
      </trkpt>
      <trkpt lat="43.1320378" lon="-2.7823274">
        <ele>120.439</ele>
        <time>2021-04-01T09:20:07.050Z</time>
      </trkpt>
      <trkpt lat="43.1320408" lon="-2.7823309">
        <ele>120.441</ele>
        <time>2021-04-01T09:20:07.109Z</time>
      </trkpt>
      <trkpt lat="43.1320438" lon="-2.7823343">
        <ele>120.447</ele>
        <time>2021-04-01T09:20:07.167Z</time>
      </trkpt>
      <trkpt lat="43.1320471" lon="-2.7823376">
        <ele>120.478</ele>
        <time>2021-04-01T09:20:07.225Z</time>
      </trkpt>
      <trkpt lat="43.1320501" lon="-2.7823409">
        <ele>120.473</ele>
        <time>2021-04-01T09:20:07.283Z</time>
      </trkpt>
      <trkpt lat="43.1320531" lon="-2.7823441">
        <ele>120.46</ele>
        <time>2021-04-01T09:20:07.341Z</time>
      </trkpt>
      <trkpt lat="43.1320563" lon="-2.7823475">
        <ele>120.479</ele>
        <time>2021-04-01T09:20:07.399Z</time>
      </trkpt>
      <trkpt lat="43.1320594" lon="-2.7823508">
        <ele>120.486</ele>
        <time>2021-04-01T09:20:07.457Z</time>
      </trkpt>
      <trkpt lat="43.1320625" lon="-2.7823537">
        <ele>120.479</ele>
        <time>2021-04-01T09:20:07.515Z</time>
      </trkpt>
      <trkpt lat="43.1320655" lon="-2.7823568">
        <ele>120.45</ele>
        <time>2021-04-01T09:20:07.573Z</time>
      </trkpt>
      <trkpt lat="43.1320685" lon="-2.7823599">
        <ele>120.439</ele>
        <time>2021-04-01T09:20:07.631Z</time>
      </trkpt>
      <trkpt lat="43.1320715" lon="-2.7823631">
        <ele>120.451</ele>
        <time>2021-04-01T09:20:07.689Z</time>
      </trkpt>
      <trkpt lat="43.1320743" lon="-2.7823665">
        <ele>120.454</ele>
        <time>2021-04-01T09:20:07.747Z</time>
      </trkpt>
      <trkpt lat="43.1320775" lon="-2.7823697">
        <ele>120.456</ele>
        <time>2021-04-01T09:20:07.805Z</time>
      </trkpt>
      <trkpt lat="43.1320806" lon="-2.7823727">
        <ele>120.449</ele>
        <time>2021-04-01T09:20:07.863Z</time>
      </trkpt>
      <trkpt lat="43.1320838" lon="-2.782376">
        <ele>120.462</ele>
        <time>2021-04-01T09:20:07.921Z</time>
      </trkpt>
      <trkpt lat="43.1320869" lon="-2.7823792">
        <ele>120.455</ele>
        <time>2021-04-01T09:20:07.979Z</time>
      </trkpt>
      <trkpt lat="43.1320899" lon="-2.7823827">
        <ele>120.486</ele>
        <time>2021-04-01T09:20:08.037Z</time>
      </trkpt>
      <trkpt lat="43.1320928" lon="-2.782386">
        <ele>120.515</ele>
        <time>2021-04-01T09:20:08.095Z</time>
      </trkpt>
      <trkpt lat="43.1320958" lon="-2.7823892">
        <ele>120.5</ele>
        <time>2021-04-01T09:20:08.154Z</time>
      </trkpt>
      <trkpt lat="43.132099" lon="-2.7823924">
        <ele>120.505</ele>
        <time>2021-04-01T09:20:08.205Z</time>
      </trkpt>
      <trkpt lat="43.132102" lon="-2.7823956">
        <ele>120.503</ele>
        <time>2021-04-01T09:20:08.257Z</time>
      </trkpt>
      <trkpt lat="43.132105" lon="-2.7823989">
        <ele>120.505</ele>
        <time>2021-04-01T09:20:08.309Z</time>
      </trkpt>
      <trkpt lat="43.132108" lon="-2.7824022">
        <ele>120.513</ele>
        <time>2021-04-01T09:20:08.361Z</time>
      </trkpt>
      <trkpt lat="43.1321111" lon="-2.7824048">
        <ele>120.474</ele>
        <time>2021-04-01T09:20:08.413Z</time>
      </trkpt>
      <trkpt lat="43.1321141" lon="-2.7824078">
        <ele>120.464</ele>
        <time>2021-04-01T09:20:08.465Z</time>
      </trkpt>
      <trkpt lat="43.1321172" lon="-2.7824109">
        <ele>120.476</ele>
        <time>2021-04-01T09:20:08.517Z</time>
      </trkpt>
      <trkpt lat="43.1321203" lon="-2.7824142">
        <ele>120.471</ele>
        <time>2021-04-01T09:20:08.569Z</time>
      </trkpt>
      <trkpt lat="43.1321233" lon="-2.7824171">
        <ele>120.441</ele>
        <time>2021-04-01T09:20:08.621Z</time>
      </trkpt>
      <trkpt lat="43.1321262" lon="-2.7824202">
        <ele>120.437</ele>
        <time>2021-04-01T09:20:08.673Z</time>
      </trkpt>
      <trkpt lat="43.1321292" lon="-2.7824233">
        <ele>120.447</ele>
        <time>2021-04-01T09:20:08.725Z</time>
      </trkpt>
      <trkpt lat="43.1321323" lon="-2.7824264">
        <ele>120.434</ele>
        <time>2021-04-01T09:20:08.777Z</time>
      </trkpt>
      <trkpt lat="43.1321353" lon="-2.7824295">
        <ele>120.438</ele>
        <time>2021-04-01T09:20:08.829Z</time>
      </trkpt>
      <trkpt lat="43.1321383" lon="-2.7824327">
        <ele>120.453</ele>
        <time>2021-04-01T09:20:08.881Z</time>
      </trkpt>
      <trkpt lat="43.1321412" lon="-2.7824356">
        <ele>120.423</ele>
        <time>2021-04-01T09:20:08.933Z</time>
      </trkpt>
      <trkpt lat="43.1321442" lon="-2.7824387">
        <ele>120.428</ele>
        <time>2021-04-01T09:20:08.985Z</time>
      </trkpt>
      <trkpt lat="43.1321472" lon="-2.7824419">
        <ele>120.446</ele>
        <time>2021-04-01T09:20:09.037Z</time>
      </trkpt>
      <trkpt lat="43.1321503" lon="-2.7824451">
        <ele>120.468</ele>
        <time>2021-04-01T09:20:09.089Z</time>
      </trkpt>
      <trkpt lat="43.1321535" lon="-2.7824481">
        <ele>120.47</ele>
        <time>2021-04-01T09:20:09.141Z</time>
      </trkpt>
      <trkpt lat="43.1321564" lon="-2.7824509">
        <ele>120.44</ele>
        <time>2021-04-01T09:20:09.193Z</time>
      </trkpt>
      <trkpt lat="43.1321595" lon="-2.7824537">
        <ele>120.447</ele>
        <time>2021-04-01T09:20:09.245Z</time>
      </trkpt>
      <trkpt lat="43.1321625" lon="-2.7824563">
        <ele>120.476</ele>
        <time>2021-04-01T09:20:09.297Z</time>
      </trkpt>
      <trkpt lat="43.1321654" lon="-2.7824594">
        <ele>120.502</ele>
        <time>2021-04-01T09:20:09.349Z</time>
      </trkpt>
      <trkpt lat="43.1321681" lon="-2.7824628">
        <ele>120.506</ele>
        <time>2021-04-01T09:20:09.401Z</time>
      </trkpt>
      <trkpt lat="43.1321708" lon="-2.7824662">
        <ele>120.537</ele>
        <time>2021-04-01T09:20:09.453Z</time>
      </trkpt>
      <trkpt lat="43.1321734" lon="-2.7824695">
        <ele>120.592</ele>
        <time>2021-04-01T09:20:09.505Z</time>
      </trkpt>
      <trkpt lat="43.132176" lon="-2.7824726">
        <ele>120.577</ele>
        <time>2021-04-01T09:20:09.557Z</time>
      </trkpt>
      <trkpt lat="43.1321787" lon="-2.7824758">
        <ele>120.552</ele>
        <time>2021-04-01T09:20:09.610Z</time>
      </trkpt>
      <trkpt lat="43.1321813" lon="-2.7824788">
        <ele>120.518</ele>
        <time>2021-04-01T09:20:09.662Z</time>
      </trkpt>
      <trkpt lat="43.1321837" lon="-2.7824817">
        <ele>120.461</ele>
        <time>2021-04-01T09:20:09.714Z</time>
      </trkpt>
      <trkpt lat="43.1321864" lon="-2.7824844">
        <ele>120.438</ele>
        <time>2021-04-01T09:20:09.766Z</time>
      </trkpt>
      <trkpt lat="43.1321892" lon="-2.7824874">
        <ele>120.438</ele>
        <time>2021-04-01T09:20:09.818Z</time>
      </trkpt>
      <trkpt lat="43.1321923" lon="-2.7824902">
        <ele>120.448</ele>
        <time>2021-04-01T09:20:09.870Z</time>
      </trkpt>
      <trkpt lat="43.1321955" lon="-2.7824937">
        <ele>120.501</ele>
        <time>2021-04-01T09:20:09.922Z</time>
      </trkpt>
      <trkpt lat="43.1321986" lon="-2.7824965">
        <ele>120.5</ele>
        <time>2021-04-01T09:20:09.974Z</time>
      </trkpt>
      <trkpt lat="43.1322016" lon="-2.7824993">
        <ele>120.484</ele>
        <time>2021-04-01T09:20:10.026Z</time>
      </trkpt>
      <trkpt lat="43.1322044" lon="-2.7825021">
        <ele>120.427</ele>
        <time>2021-04-01T09:20:10.079Z</time>
      </trkpt>
      <trkpt lat="43.1322071" lon="-2.7825047">
        <ele>120.395</ele>
        <time>2021-04-01T09:20:10.137Z</time>
      </trkpt>
      <trkpt lat="43.1322101" lon="-2.7825077">
        <ele>120.381</ele>
        <time>2021-04-01T09:20:10.195Z</time>
      </trkpt>
      <trkpt lat="43.1322131" lon="-2.782511">
        <ele>120.421</ele>
        <time>2021-04-01T09:20:10.253Z</time>
      </trkpt>
      <trkpt lat="43.1322162" lon="-2.7825145">
        <ele>120.437</ele>
        <time>2021-04-01T09:20:10.311Z</time>
      </trkpt>
      <trkpt lat="43.132219" lon="-2.7825176">
        <ele>120.42</ele>
        <time>2021-04-01T09:20:10.369Z</time>
      </trkpt>
      <trkpt lat="43.1322219" lon="-2.7825206">
        <ele>120.416</ele>
        <time>2021-04-01T09:20:10.427Z</time>
      </trkpt>
      <trkpt lat="43.1322248" lon="-2.7825236">
        <ele>120.407</ele>
        <time>2021-04-01T09:20:10.485Z</time>
      </trkpt>
      <trkpt lat="43.1322278" lon="-2.7825266">
        <ele>120.425</ele>
        <time>2021-04-01T09:20:10.543Z</time>
      </trkpt>
      <trkpt lat="43.1322308" lon="-2.7825296">
        <ele>120.423</ele>
        <time>2021-04-01T09:20:10.601Z</time>
      </trkpt>
      <trkpt lat="43.1322337" lon="-2.7825325">
        <ele>120.418</ele>
        <time>2021-04-01T09:20:10.659Z</time>
      </trkpt>
      <trkpt lat="43.1322366" lon="-2.7825356">
        <ele>120.44</ele>
        <time>2021-04-01T09:20:10.717Z</time>
      </trkpt>
      <trkpt lat="43.1322394" lon="-2.7825388">
        <ele>120.439</ele>
        <time>2021-04-01T09:20:10.775Z</time>
      </trkpt>
      <trkpt lat="43.1322426" lon="-2.7825418">
        <ele>120.45</ele>
        <time>2021-04-01T09:20:10.833Z</time>
      </trkpt>
      <trkpt lat="43.1322455" lon="-2.7825449">
        <ele>120.449</ele>
        <time>2021-04-01T09:20:10.891Z</time>
      </trkpt>
      <trkpt lat="43.1322484" lon="-2.7825481">
        <ele>120.467</ele>
        <time>2021-04-01T09:20:10.949Z</time>
      </trkpt>
      <trkpt lat="43.1322513" lon="-2.7825511">
        <ele>120.465</ele>
        <time>2021-04-01T09:20:11.007Z</time>
      </trkpt>
      <trkpt lat="43.1322543" lon="-2.7825537">
        <ele>120.436</ele>
        <time>2021-04-01T09:20:11.065Z</time>
      </trkpt>
      <trkpt lat="43.1322573" lon="-2.7825569">
        <ele>120.477</ele>
        <time>2021-04-01T09:20:11.124Z</time>
      </trkpt>
      <trkpt lat="43.1322601" lon="-2.7825598">
        <ele>120.445</ele>
        <time>2021-04-01T09:20:11.179Z</time>
      </trkpt>
      <trkpt lat="43.132263" lon="-2.7825633">
        <ele>120.47</ele>
        <time>2021-04-01T09:20:11.234Z</time>
      </trkpt>
      <trkpt lat="43.1322661" lon="-2.7825665">
        <ele>120.524</ele>
        <time>2021-04-01T09:20:11.289Z</time>
      </trkpt>
      <trkpt lat="43.1322691" lon="-2.7825695">
        <ele>120.552</ele>
        <time>2021-04-01T09:20:11.344Z</time>
      </trkpt>
      <trkpt lat="43.132272" lon="-2.7825724">
        <ele>120.522</ele>
        <time>2021-04-01T09:20:11.399Z</time>
      </trkpt>
      <trkpt lat="43.132275" lon="-2.7825755">
        <ele>120.557</ele>
        <time>2021-04-01T09:20:11.454Z</time>
      </trkpt>
      <trkpt lat="43.1322777" lon="-2.7825785">
        <ele>120.553</ele>
        <time>2021-04-01T09:20:11.509Z</time>
      </trkpt>
      <trkpt lat="43.1322805" lon="-2.7825816">
        <ele>120.547</ele>
        <time>2021-04-01T09:20:11.564Z</time>
      </trkpt>
      <trkpt lat="43.1322834" lon="-2.7825845">
        <ele>120.539</ele>
        <time>2021-04-01T09:20:11.619Z</time>
      </trkpt>
      <trkpt lat="43.1322863" lon="-2.7825876">
        <ele>120.535</ele>
        <time>2021-04-01T09:20:11.674Z</time>
      </trkpt>
      <trkpt lat="43.132289" lon="-2.7825907">
        <ele>120.542</ele>
        <time>2021-04-01T09:20:11.729Z</time>
      </trkpt>
      <trkpt lat="43.1322919" lon="-2.7825942">
        <ele>120.568</ele>
        <time>2021-04-01T09:20:11.784Z</time>
      </trkpt>
      <trkpt lat="43.1322947" lon="-2.7825975">
        <ele>120.593</ele>
        <time>2021-04-01T09:20:11.839Z</time>
      </trkpt>
      <trkpt lat="43.1322975" lon="-2.7826008">
        <ele>120.619</ele>
        <time>2021-04-01T09:20:11.894Z</time>
      </trkpt>
      <trkpt lat="43.1323001" lon="-2.7826042">
        <ele>120.624</ele>
        <time>2021-04-01T09:20:11.949Z</time>
      </trkpt>
      <trkpt lat="43.1323029" lon="-2.7826078">
        <ele>120.662</ele>
        <time>2021-04-01T09:20:12.004Z</time>
      </trkpt>
      <trkpt lat="43.1323057" lon="-2.7826111">
        <ele>120.688</ele>
        <time>2021-04-01T09:20:12.059Z</time>
      </trkpt>
      <trkpt lat="43.1323086" lon="-2.7826143">
        <ele>120.705</ele>
        <time>2021-04-01T09:20:12.114Z</time>
      </trkpt>
      <trkpt lat="43.1323115" lon="-2.7826174">
        <ele>120.72</ele>
        <time>2021-04-01T09:20:12.172Z</time>
      </trkpt>
      <trkpt lat="43.1323144" lon="-2.7826207">
        <ele>120.769</ele>
        <time>2021-04-01T09:20:12.230Z</time>
      </trkpt>
      <trkpt lat="43.1323172" lon="-2.7826241">
        <ele>120.809</ele>
        <time>2021-04-01T09:20:12.288Z</time>
      </trkpt>
      <trkpt lat="43.1323202" lon="-2.7826273">
        <ele>120.85</ele>
        <time>2021-04-01T09:20:12.346Z</time>
      </trkpt>
      <trkpt lat="43.132323" lon="-2.7826305">
        <ele>120.873</ele>
        <time>2021-04-01T09:20:12.404Z</time>
      </trkpt>
      <trkpt lat="43.1323259" lon="-2.7826338">
        <ele>120.906</ele>
        <time>2021-04-01T09:20:12.462Z</time>
      </trkpt>
      <trkpt lat="43.1323286" lon="-2.7826367">
        <ele>120.904</ele>
        <time>2021-04-01T09:20:12.520Z</time>
      </trkpt>
      <trkpt lat="43.1323317" lon="-2.7826396">
        <ele>120.903</ele>
        <time>2021-04-01T09:20:12.578Z</time>
      </trkpt>
      <trkpt lat="43.1323345" lon="-2.7826429">
        <ele>120.927</ele>
        <time>2021-04-01T09:20:12.636Z</time>
      </trkpt>
      <trkpt lat="43.1323373" lon="-2.782646">
        <ele>120.951</ele>
        <time>2021-04-01T09:20:12.694Z</time>
      </trkpt>
      <trkpt lat="43.13234" lon="-2.7826492">
        <ele>120.979</ele>
        <time>2021-04-01T09:20:12.752Z</time>
      </trkpt>
      <trkpt lat="43.1323429" lon="-2.7826526">
        <ele>121.013</ele>
        <time>2021-04-01T09:20:12.810Z</time>
      </trkpt>
      <trkpt lat="43.1323457" lon="-2.782656">
        <ele>121.022</ele>
        <time>2021-04-01T09:20:12.868Z</time>
      </trkpt>
      <trkpt lat="43.1323484" lon="-2.7826591">
        <ele>121.03</ele>
        <time>2021-04-01T09:20:12.926Z</time>
      </trkpt>
      <trkpt lat="43.1323513" lon="-2.7826622">
        <ele>121.059</ele>
        <time>2021-04-01T09:20:12.984Z</time>
      </trkpt>
      <trkpt lat="43.1323541" lon="-2.7826655">
        <ele>121.098</ele>
        <time>2021-04-01T09:20:13.042Z</time>
      </trkpt>
      <trkpt lat="43.1323569" lon="-2.7826688">
        <ele>121.138</ele>
        <time>2021-04-01T09:20:13.100Z</time>
      </trkpt>
      <trkpt lat="43.1323598" lon="-2.7826718">
        <ele>121.152</ele>
        <time>2021-04-01T09:20:13.159Z</time>
      </trkpt>
      <trkpt lat="43.1323624" lon="-2.7826751">
        <ele>121.162</ele>
        <time>2021-04-01T09:20:13.211Z</time>
      </trkpt>
      <trkpt lat="43.1323652" lon="-2.7826783">
        <ele>121.172</ele>
        <time>2021-04-01T09:20:13.263Z</time>
      </trkpt>
      <trkpt lat="43.132368" lon="-2.7826814">
        <ele>121.2</ele>
        <time>2021-04-01T09:20:13.315Z</time>
      </trkpt>
      <trkpt lat="43.1323707" lon="-2.7826846">
        <ele>121.23</ele>
        <time>2021-04-01T09:20:13.367Z</time>
      </trkpt>
      <trkpt lat="43.1323735" lon="-2.7826877">
        <ele>121.244</ele>
        <time>2021-04-01T09:20:13.419Z</time>
      </trkpt>
      <trkpt lat="43.1323764" lon="-2.7826906">
        <ele>121.251</ele>
        <time>2021-04-01T09:20:13.471Z</time>
      </trkpt>
      <trkpt lat="43.1323791" lon="-2.7826936">
        <ele>121.257</ele>
        <time>2021-04-01T09:20:13.523Z</time>
      </trkpt>
      <trkpt lat="43.1323819" lon="-2.7826968">
        <ele>121.287</ele>
        <time>2021-04-01T09:20:13.575Z</time>
      </trkpt>
      <trkpt lat="43.1323847" lon="-2.7826999">
        <ele>121.305</ele>
        <time>2021-04-01T09:20:13.627Z</time>
      </trkpt>
      <trkpt lat="43.1323875" lon="-2.7827029">
        <ele>121.312</ele>
        <time>2021-04-01T09:20:13.680Z</time>
      </trkpt>
      <trkpt lat="43.1323902" lon="-2.7827058">
        <ele>121.316</ele>
        <time>2021-04-01T09:20:13.732Z</time>
      </trkpt>
      <trkpt lat="43.1323931" lon="-2.782709">
        <ele>121.347</ele>
        <time>2021-04-01T09:20:13.784Z</time>
      </trkpt>
      <trkpt lat="43.1323959" lon="-2.7827121">
        <ele>121.364</ele>
        <time>2021-04-01T09:20:13.836Z</time>
      </trkpt>
      <trkpt lat="43.1323987" lon="-2.7827151">
        <ele>121.39</ele>
        <time>2021-04-01T09:20:13.888Z</time>
      </trkpt>
      <trkpt lat="43.1324014" lon="-2.7827182">
        <ele>121.396</ele>
        <time>2021-04-01T09:20:13.940Z</time>
      </trkpt>
      <trkpt lat="43.1324042" lon="-2.782721">
        <ele>121.394</ele>
        <time>2021-04-01T09:20:13.992Z</time>
      </trkpt>
      <trkpt lat="43.132407" lon="-2.782724">
        <ele>121.411</ele>
        <time>2021-04-01T09:20:14.044Z</time>
      </trkpt>
      <trkpt lat="43.1324097" lon="-2.782727">
        <ele>121.423</ele>
        <time>2021-04-01T09:20:14.096Z</time>
      </trkpt>
      <trkpt lat="43.1324125" lon="-2.78273">
        <ele>121.424</ele>
        <time>2021-04-01T09:20:14.149Z</time>
      </trkpt>
      <trkpt lat="43.1324152" lon="-2.7827333">
        <ele>121.429</ele>
        <time>2021-04-01T09:20:14.207Z</time>
      </trkpt>
      <trkpt lat="43.1324181" lon="-2.7827363">
        <ele>121.468</ele>
        <time>2021-04-01T09:20:14.265Z</time>
      </trkpt>
      <trkpt lat="43.1324208" lon="-2.7827394">
        <ele>121.468</ele>
        <time>2021-04-01T09:20:14.323Z</time>
      </trkpt>
      <trkpt lat="43.1324234" lon="-2.7827425">
        <ele>121.474</ele>
        <time>2021-04-01T09:20:14.381Z</time>
      </trkpt>
      <trkpt lat="43.1324263" lon="-2.7827455">
        <ele>121.489</ele>
        <time>2021-04-01T09:20:14.440Z</time>
      </trkpt>
      <trkpt lat="43.1324292" lon="-2.7827485">
        <ele>121.518</ele>
        <time>2021-04-01T09:20:14.498Z</time>
      </trkpt>
      <trkpt lat="43.1324319" lon="-2.7827515">
        <ele>121.536</ele>
        <time>2021-04-01T09:20:14.556Z</time>
      </trkpt>
      <trkpt lat="43.1324345" lon="-2.7827546">
        <ele>121.53</ele>
        <time>2021-04-01T09:20:14.614Z</time>
      </trkpt>
      <trkpt lat="43.1324374" lon="-2.7827576">
        <ele>121.56</ele>
        <time>2021-04-01T09:20:14.673Z</time>
      </trkpt>
      <trkpt lat="43.1324403" lon="-2.7827605">
        <ele>121.581</ele>
        <time>2021-04-01T09:20:14.731Z</time>
      </trkpt>
      <trkpt lat="43.1324431" lon="-2.7827633">
        <ele>121.587</ele>
        <time>2021-04-01T09:20:14.789Z</time>
      </trkpt>
      <trkpt lat="43.132446" lon="-2.782766">
        <ele>121.57</ele>
        <time>2021-04-01T09:20:14.847Z</time>
      </trkpt>
      <trkpt lat="43.1324487" lon="-2.7827689">
        <ele>121.561</ele>
        <time>2021-04-01T09:20:14.906Z</time>
      </trkpt>
      <trkpt lat="43.1324514" lon="-2.7827716">
        <ele>121.536</ele>
        <time>2021-04-01T09:20:14.964Z</time>
      </trkpt>
      <trkpt lat="43.1324543" lon="-2.7827747">
        <ele>121.561</ele>
        <time>2021-04-01T09:20:15.022Z</time>
      </trkpt>
      <trkpt lat="43.1324571" lon="-2.7827775">
        <ele>121.574</ele>
        <time>2021-04-01T09:20:15.080Z</time>
      </trkpt>
      <trkpt lat="43.13246" lon="-2.7827803">
        <ele>121.581</ele>
        <time>2021-04-01T09:20:15.139Z</time>
      </trkpt>
      <trkpt lat="43.1324628" lon="-2.7827832">
        <ele>121.603</ele>
        <time>2021-04-01T09:20:15.188Z</time>
      </trkpt>
      <trkpt lat="43.1324656" lon="-2.7827863">
        <ele>121.629</ele>
        <time>2021-04-01T09:20:15.237Z</time>
      </trkpt>
      <trkpt lat="43.1324685" lon="-2.7827893">
        <ele>121.637</ele>
        <time>2021-04-01T09:20:15.286Z</time>
      </trkpt>
      <trkpt lat="43.1324714" lon="-2.7827924">
        <ele>121.649</ele>
        <time>2021-04-01T09:20:15.335Z</time>
      </trkpt>
      <trkpt lat="43.1324742" lon="-2.7827953">
        <ele>121.685</ele>
        <time>2021-04-01T09:20:15.385Z</time>
      </trkpt>
      <trkpt lat="43.1324771" lon="-2.7827983">
        <ele>121.718</ele>
        <time>2021-04-01T09:20:15.434Z</time>
      </trkpt>
      <trkpt lat="43.1324797" lon="-2.7828014">
        <ele>121.717</ele>
        <time>2021-04-01T09:20:15.483Z</time>
      </trkpt>
      <trkpt lat="43.1324826" lon="-2.7828045">
        <ele>121.739</ele>
        <time>2021-04-01T09:20:15.532Z</time>
      </trkpt>
      <trkpt lat="43.1324852" lon="-2.7828077">
        <ele>121.748</ele>
        <time>2021-04-01T09:20:15.581Z</time>
      </trkpt>
      <trkpt lat="43.132488" lon="-2.7828105">
        <ele>121.743</ele>
        <time>2021-04-01T09:20:15.631Z</time>
      </trkpt>
      <trkpt lat="43.1324907" lon="-2.7828135">
        <ele>121.744</ele>
        <time>2021-04-01T09:20:15.680Z</time>
      </trkpt>
      <trkpt lat="43.1324933" lon="-2.7828166">
        <ele>121.754</ele>
        <time>2021-04-01T09:20:15.729Z</time>
      </trkpt>
      <trkpt lat="43.1324962" lon="-2.7828194">
        <ele>121.741</ele>
        <time>2021-04-01T09:20:15.778Z</time>
      </trkpt>
      <trkpt lat="43.1324991" lon="-2.7828221">
        <ele>121.73</ele>
        <time>2021-04-01T09:20:15.827Z</time>
      </trkpt>
      <trkpt lat="43.1325019" lon="-2.7828248">
        <ele>121.73</ele>
        <time>2021-04-01T09:20:15.877Z</time>
      </trkpt>
      <trkpt lat="43.1325045" lon="-2.7828278">
        <ele>121.727</ele>
        <time>2021-04-01T09:20:15.926Z</time>
      </trkpt>
      <trkpt lat="43.1325073" lon="-2.7828308">
        <ele>121.743</ele>
        <time>2021-04-01T09:20:15.975Z</time>
      </trkpt>
      <trkpt lat="43.1325104" lon="-2.7828336">
        <ele>121.775</ele>
        <time>2021-04-01T09:20:16.024Z</time>
      </trkpt>
      <trkpt lat="43.1325134" lon="-2.7828365">
        <ele>121.801</ele>
        <time>2021-04-01T09:20:16.074Z</time>
      </trkpt>
      <trkpt lat="43.1325164" lon="-2.7828393">
        <ele>121.81</ele>
        <time>2021-04-01T09:20:16.132Z</time>
      </trkpt>
      <trkpt lat="43.1325191" lon="-2.7828423">
        <ele>121.81</ele>
        <time>2021-04-01T09:20:16.190Z</time>
      </trkpt>
      <trkpt lat="43.132522" lon="-2.7828453">
        <ele>121.864</ele>
        <time>2021-04-01T09:20:16.248Z</time>
      </trkpt>
      <trkpt lat="43.1325249" lon="-2.7828483">
        <ele>121.902</ele>
        <time>2021-04-01T09:20:16.306Z</time>
      </trkpt>
      <trkpt lat="43.1325277" lon="-2.7828513">
        <ele>121.911</ele>
        <time>2021-04-01T09:20:16.364Z</time>
      </trkpt>
      <trkpt lat="43.1325306" lon="-2.7828543">
        <ele>121.927</ele>
        <time>2021-04-01T09:20:16.422Z</time>
      </trkpt>
      <trkpt lat="43.1325334" lon="-2.7828572">
        <ele>121.942</ele>
        <time>2021-04-01T09:20:16.480Z</time>
      </trkpt>
      <trkpt lat="43.1325363" lon="-2.7828601">
        <ele>121.962</ele>
        <time>2021-04-01T09:20:16.538Z</time>
      </trkpt>
      <trkpt lat="43.132539" lon="-2.7828632">
        <ele>121.974</ele>
        <time>2021-04-01T09:20:16.596Z</time>
      </trkpt>
      <trkpt lat="43.1325419" lon="-2.7828661">
        <ele>122.005</ele>
        <time>2021-04-01T09:20:16.654Z</time>
      </trkpt>
      <trkpt lat="43.1325447" lon="-2.782869">
        <ele>122.017</ele>
        <time>2021-04-01T09:20:16.712Z</time>
      </trkpt>
      <trkpt lat="43.1325473" lon="-2.7828723">
        <ele>122.028</ele>
        <time>2021-04-01T09:20:16.770Z</time>
      </trkpt>
      <trkpt lat="43.1325501" lon="-2.7828752">
        <ele>122.04</ele>
        <time>2021-04-01T09:20:16.828Z</time>
      </trkpt>
      <trkpt lat="43.1325529" lon="-2.7828781">
        <ele>122.057</ele>
        <time>2021-04-01T09:20:16.886Z</time>
      </trkpt>
      <trkpt lat="43.1325559" lon="-2.782881">
        <ele>122.087</ele>
        <time>2021-04-01T09:20:16.944Z</time>
      </trkpt>
      <trkpt lat="43.1325588" lon="-2.7828839">
        <ele>122.092</ele>
        <time>2021-04-01T09:20:17.002Z</time>
      </trkpt>
      <trkpt lat="43.1325615" lon="-2.7828866">
        <ele>122.073</ele>
        <time>2021-04-01T09:20:17.060Z</time>
      </trkpt>
      <trkpt lat="43.1325643" lon="-2.7828895">
        <ele>122.099</ele>
        <time>2021-04-01T09:20:17.119Z</time>
      </trkpt>
      <trkpt lat="43.1325671" lon="-2.7828925">
        <ele>122.114</ele>
        <time>2021-04-01T09:20:17.174Z</time>
      </trkpt>
      <trkpt lat="43.1325702" lon="-2.7828951">
        <ele>122.123</ele>
        <time>2021-04-01T09:20:17.229Z</time>
      </trkpt>
      <trkpt lat="43.132573" lon="-2.7828981">
        <ele>122.13</ele>
        <time>2021-04-01T09:20:17.284Z</time>
      </trkpt>
      <trkpt lat="43.1325757" lon="-2.7829009">
        <ele>122.129</ele>
        <time>2021-04-01T09:20:17.339Z</time>
      </trkpt>
      <trkpt lat="43.1325783" lon="-2.7829041">
        <ele>122.147</ele>
        <time>2021-04-01T09:20:17.394Z</time>
      </trkpt>
      <trkpt lat="43.1325812" lon="-2.782907">
        <ele>122.172</ele>
        <time>2021-04-01T09:20:17.449Z</time>
      </trkpt>
      <trkpt lat="43.1325841" lon="-2.7829101">
        <ele>122.193</ele>
        <time>2021-04-01T09:20:17.504Z</time>
      </trkpt>
      <trkpt lat="43.1325868" lon="-2.7829131">
        <ele>122.22</ele>
        <time>2021-04-01T09:20:17.559Z</time>
      </trkpt>
      <trkpt lat="43.1325895" lon="-2.782916">
        <ele>122.21</ele>
        <time>2021-04-01T09:20:17.614Z</time>
      </trkpt>
      <trkpt lat="43.1325923" lon="-2.7829188">
        <ele>122.202</ele>
        <time>2021-04-01T09:20:17.669Z</time>
      </trkpt>
      <trkpt lat="43.1325952" lon="-2.7829217">
        <ele>122.228</ele>
        <time>2021-04-01T09:20:17.724Z</time>
      </trkpt>
      <trkpt lat="43.1325981" lon="-2.7829249">
        <ele>122.262</ele>
        <time>2021-04-01T09:20:17.779Z</time>
      </trkpt>
      <trkpt lat="43.1326009" lon="-2.7829281">
        <ele>122.286</ele>
        <time>2021-04-01T09:20:17.834Z</time>
      </trkpt>
      <trkpt lat="43.1326035" lon="-2.7829311">
        <ele>122.3</ele>
        <time>2021-04-01T09:20:17.889Z</time>
      </trkpt>
      <trkpt lat="43.1326062" lon="-2.782934">
        <ele>122.299</ele>
        <time>2021-04-01T09:20:17.944Z</time>
      </trkpt>
      <trkpt lat="43.1326092" lon="-2.7829372">
        <ele>122.338</ele>
        <time>2021-04-01T09:20:17.999Z</time>
      </trkpt>
      <trkpt lat="43.132612" lon="-2.78294">
        <ele>122.33</ele>
        <time>2021-04-01T09:20:18.054Z</time>
      </trkpt>
      <trkpt lat="43.1326147" lon="-2.782943">
        <ele>122.339</ele>
        <time>2021-04-01T09:20:18.109Z</time>
      </trkpt>
      <trkpt lat="43.1326175" lon="-2.7829459">
        <ele>122.353</ele>
        <time>2021-04-01T09:20:18.161Z</time>
      </trkpt>
      <trkpt lat="43.1326203" lon="-2.7829487">
        <ele>122.351</ele>
        <time>2021-04-01T09:20:18.213Z</time>
      </trkpt>
      <trkpt lat="43.1326233" lon="-2.7829518">
        <ele>122.388</ele>
        <time>2021-04-01T09:20:18.265Z</time>
      </trkpt>
      <trkpt lat="43.132626" lon="-2.7829545">
        <ele>122.363</ele>
        <time>2021-04-01T09:20:18.317Z</time>
      </trkpt>
      <trkpt lat="43.1326288" lon="-2.7829573">
        <ele>122.356</ele>
        <time>2021-04-01T09:20:18.369Z</time>
      </trkpt>
      <trkpt lat="43.1326316" lon="-2.7829603">
        <ele>122.373</ele>
        <time>2021-04-01T09:20:18.421Z</time>
      </trkpt>
      <trkpt lat="43.1326344" lon="-2.782963">
        <ele>122.365</ele>
        <time>2021-04-01T09:20:18.473Z</time>
      </trkpt>
      <trkpt lat="43.1326372" lon="-2.7829658">
        <ele>122.36</ele>
        <time>2021-04-01T09:20:18.525Z</time>
      </trkpt>
      <trkpt lat="43.13264" lon="-2.7829687">
        <ele>122.365</ele>
        <time>2021-04-01T09:20:18.577Z</time>
      </trkpt>
      <trkpt lat="43.1326429" lon="-2.7829715">
        <ele>122.375</ele>
        <time>2021-04-01T09:20:18.630Z</time>
      </trkpt>
      <trkpt lat="43.1326458" lon="-2.7829742">
        <ele>122.388</ele>
        <time>2021-04-01T09:20:18.682Z</time>
      </trkpt>
      <trkpt lat="43.1326485" lon="-2.7829768">
        <ele>122.385</ele>
        <time>2021-04-01T09:20:18.734Z</time>
      </trkpt>
      <trkpt lat="43.1326514" lon="-2.7829797">
        <ele>122.392</ele>
        <time>2021-04-01T09:20:18.786Z</time>
      </trkpt>
      <trkpt lat="43.1326542" lon="-2.7829826">
        <ele>122.392</ele>
        <time>2021-04-01T09:20:18.838Z</time>
      </trkpt>
      <trkpt lat="43.132657" lon="-2.7829852">
        <ele>122.385</ele>
        <time>2021-04-01T09:20:18.890Z</time>
      </trkpt>
      <trkpt lat="43.1326596" lon="-2.7829881">
        <ele>122.371</ele>
        <time>2021-04-01T09:20:18.942Z</time>
      </trkpt>
      <trkpt lat="43.1326626" lon="-2.7829912">
        <ele>122.409</ele>
        <time>2021-04-01T09:20:18.994Z</time>
      </trkpt>
      <trkpt lat="43.1326653" lon="-2.782994">
        <ele>122.414</ele>
        <time>2021-04-01T09:20:19.046Z</time>
      </trkpt>
      <trkpt lat="43.1326681" lon="-2.7829966">
        <ele>122.412</ele>
        <time>2021-04-01T09:20:19.099Z</time>
      </trkpt>
      <trkpt lat="43.1326709" lon="-2.7829995">
        <ele>122.423</ele>
        <time>2021-04-01T09:20:19.157Z</time>
      </trkpt>
      <trkpt lat="43.1326738" lon="-2.7830023">
        <ele>122.443</ele>
        <time>2021-04-01T09:20:19.215Z</time>
      </trkpt>
      <trkpt lat="43.1326768" lon="-2.7830052">
        <ele>122.445</ele>
        <time>2021-04-01T09:20:19.273Z</time>
      </trkpt>
      <trkpt lat="43.1326795" lon="-2.7830079">
        <ele>122.426</ele>
        <time>2021-04-01T09:20:19.331Z</time>
      </trkpt>
      <trkpt lat="43.1326824" lon="-2.783011">
        <ele>122.468</ele>
        <time>2021-04-01T09:20:19.390Z</time>
      </trkpt>
      <trkpt lat="43.1326852" lon="-2.7830139">
        <ele>122.484</ele>
        <time>2021-04-01T09:20:19.448Z</time>
      </trkpt>
      <trkpt lat="43.1326879" lon="-2.7830167">
        <ele>122.488</ele>
        <time>2021-04-01T09:20:19.506Z</time>
      </trkpt>
      <trkpt lat="43.1326907" lon="-2.7830197">
        <ele>122.496</ele>
        <time>2021-04-01T09:20:19.564Z</time>
      </trkpt>
      <trkpt lat="43.1326933" lon="-2.7830226">
        <ele>122.469</ele>
        <time>2021-04-01T09:20:19.623Z</time>
      </trkpt>
      <trkpt lat="43.132696" lon="-2.7830255">
        <ele>122.471</ele>
        <time>2021-04-01T09:20:19.681Z</time>
      </trkpt>
      <trkpt lat="43.1326989" lon="-2.7830285">
        <ele>122.499</ele>
        <time>2021-04-01T09:20:19.739Z</time>
      </trkpt>
      <trkpt lat="43.1327016" lon="-2.7830315">
        <ele>122.509</ele>
        <time>2021-04-01T09:20:19.797Z</time>
      </trkpt>
      <trkpt lat="43.1327043" lon="-2.7830346">
        <ele>122.523</ele>
        <time>2021-04-01T09:20:19.856Z</time>
      </trkpt>
      <trkpt lat="43.1327071" lon="-2.7830377">
        <ele>122.56</ele>
        <time>2021-04-01T09:20:19.914Z</time>
      </trkpt>
      <trkpt lat="43.13271" lon="-2.7830408">
        <ele>122.581</ele>
        <time>2021-04-01T09:20:19.972Z</time>
      </trkpt>
      <trkpt lat="43.1327127" lon="-2.7830438">
        <ele>122.583</ele>
        <time>2021-04-01T09:20:20.030Z</time>
      </trkpt>
      <trkpt lat="43.1327154" lon="-2.7830465">
        <ele>122.58</ele>
        <time>2021-04-01T09:20:20.089Z</time>
      </trkpt>
      <trkpt lat="43.1327182" lon="-2.7830494">
        <ele>122.582</ele>
        <time>2021-04-01T09:20:20.144Z</time>
      </trkpt>
      <trkpt lat="43.132721" lon="-2.7830524">
        <ele>122.596</ele>
        <time>2021-04-01T09:20:20.199Z</time>
      </trkpt>
      <trkpt lat="43.1327236" lon="-2.7830556">
        <ele>122.579</ele>
        <time>2021-04-01T09:20:20.254Z</time>
      </trkpt>
      <trkpt lat="43.1327264" lon="-2.7830587">
        <ele>122.601</ele>
        <time>2021-04-01T09:20:20.309Z</time>
      </trkpt>
      <trkpt lat="43.1327292" lon="-2.7830618">
        <ele>122.668</ele>
        <time>2021-04-01T09:20:20.364Z</time>
      </trkpt>
      <trkpt lat="43.132732" lon="-2.7830648">
        <ele>122.699</ele>
        <time>2021-04-01T09:20:20.419Z</time>
      </trkpt>
      <trkpt lat="43.1327349" lon="-2.783068">
        <ele>122.783</ele>
        <time>2021-04-01T09:20:20.474Z</time>
      </trkpt>
      <trkpt lat="43.1327377" lon="-2.7830709">
        <ele>122.812</ele>
        <time>2021-04-01T09:20:20.529Z</time>
      </trkpt>
      <trkpt lat="43.1327405" lon="-2.783074">
        <ele>122.843</ele>
        <time>2021-04-01T09:20:20.584Z</time>
      </trkpt>
      <trkpt lat="43.1327429" lon="-2.7830767">
        <ele>122.793</ele>
        <time>2021-04-01T09:20:20.639Z</time>
      </trkpt>
      <trkpt lat="43.1327454" lon="-2.7830793">
        <ele>122.795</ele>
        <time>2021-04-01T09:20:20.694Z</time>
      </trkpt>
      <trkpt lat="43.132748" lon="-2.783082">
        <ele>122.804</ele>
        <time>2021-04-01T09:20:20.749Z</time>
      </trkpt>
      <trkpt lat="43.1327508" lon="-2.7830851">
        <ele>122.802</ele>
        <time>2021-04-01T09:20:20.804Z</time>
      </trkpt>
      <trkpt lat="43.1327536" lon="-2.783088">
        <ele>122.814</ele>
        <time>2021-04-01T09:20:20.859Z</time>
      </trkpt>
      <trkpt lat="43.1327563" lon="-2.7830912">
        <ele>122.837</ele>
        <time>2021-04-01T09:20:20.914Z</time>
      </trkpt>
      <trkpt lat="43.1327587" lon="-2.7830941">
        <ele>122.825</ele>
        <time>2021-04-01T09:20:20.969Z</time>
      </trkpt>
      <trkpt lat="43.1327612" lon="-2.7830969">
        <ele>122.816</ele>
        <time>2021-04-01T09:20:21.024Z</time>
      </trkpt>
      <trkpt lat="43.1327634" lon="-2.7830998">
        <ele>122.775</ele>
        <time>2021-04-01T09:20:21.079Z</time>
      </trkpt>
      <trkpt lat="43.1327659" lon="-2.7831027">
        <ele>122.734</ele>
        <time>2021-04-01T09:20:21.134Z</time>
      </trkpt>
      <trkpt lat="43.1327685" lon="-2.7831053">
        <ele>122.66</ele>
        <time>2021-04-01T09:20:21.189Z</time>
      </trkpt>
      <trkpt lat="43.1327709" lon="-2.7831081">
        <ele>122.619</ele>
        <time>2021-04-01T09:20:21.244Z</time>
      </trkpt>
      <trkpt lat="43.1327734" lon="-2.7831111">
        <ele>122.617</ele>
        <time>2021-04-01T09:20:21.299Z</time>
      </trkpt>
      <trkpt lat="43.1327762" lon="-2.7831139">
        <ele>122.616</ele>
        <time>2021-04-01T09:20:21.354Z</time>
      </trkpt>
      <trkpt lat="43.1327791" lon="-2.7831167">
        <ele>122.602</ele>
        <time>2021-04-01T09:20:21.409Z</time>
      </trkpt>
      <trkpt lat="43.1327818" lon="-2.7831199">
        <ele>122.598</ele>
        <time>2021-04-01T09:20:21.464Z</time>
      </trkpt>
      <trkpt lat="43.1327849" lon="-2.7831227">
        <ele>122.633</ele>
        <time>2021-04-01T09:20:21.519Z</time>
      </trkpt>
      <trkpt lat="43.1327883" lon="-2.7831255">
        <ele>122.66</ele>
        <time>2021-04-01T09:20:21.574Z</time>
      </trkpt>
      <trkpt lat="43.1327914" lon="-2.7831286">
        <ele>122.677</ele>
        <time>2021-04-01T09:20:21.629Z</time>
      </trkpt>
      <trkpt lat="43.1327942" lon="-2.7831315">
        <ele>122.683</ele>
        <time>2021-04-01T09:20:21.684Z</time>
      </trkpt>
      <trkpt lat="43.1327971" lon="-2.7831344">
        <ele>122.694</ele>
        <time>2021-04-01T09:20:21.739Z</time>
      </trkpt>
      <trkpt lat="43.1328002" lon="-2.7831371">
        <ele>122.689</ele>
        <time>2021-04-01T09:20:21.794Z</time>
      </trkpt>
      <trkpt lat="43.1328032" lon="-2.7831396">
        <ele>122.698</ele>
        <time>2021-04-01T09:20:21.849Z</time>
      </trkpt>
      <trkpt lat="43.132806" lon="-2.7831423">
        <ele>122.71</ele>
        <time>2021-04-01T09:20:21.904Z</time>
      </trkpt>
      <trkpt lat="43.132809" lon="-2.7831448">
        <ele>122.705</ele>
        <time>2021-04-01T09:20:21.959Z</time>
      </trkpt>
      <trkpt lat="43.1328117" lon="-2.783147">
        <ele>122.681</ele>
        <time>2021-04-01T09:20:22.014Z</time>
      </trkpt>
      <trkpt lat="43.1328146" lon="-2.7831496">
        <ele>122.681</ele>
        <time>2021-04-01T09:20:22.069Z</time>
      </trkpt>
      <trkpt lat="43.1328171" lon="-2.7831523">
        <ele>122.664</ele>
        <time>2021-04-01T09:20:22.124Z</time>
      </trkpt>
      <trkpt lat="43.1328197" lon="-2.7831551">
        <ele>122.646</ele>
        <time>2021-04-01T09:20:22.179Z</time>
      </trkpt>
      <trkpt lat="43.1328224" lon="-2.7831578">
        <ele>122.648</ele>
        <time>2021-04-01T09:20:22.234Z</time>
      </trkpt>
      <trkpt lat="43.132825" lon="-2.7831607">
        <ele>122.649</ele>
        <time>2021-04-01T09:20:22.289Z</time>
      </trkpt>
      <trkpt lat="43.1328276" lon="-2.7831634">
        <ele>122.632</ele>
        <time>2021-04-01T09:20:22.344Z</time>
      </trkpt>
      <trkpt lat="43.1328302" lon="-2.7831664">
        <ele>122.634</ele>
        <time>2021-04-01T09:20:22.399Z</time>
      </trkpt>
      <trkpt lat="43.1328329" lon="-2.7831695">
        <ele>122.639</ele>
        <time>2021-04-01T09:20:22.454Z</time>
      </trkpt>
      <trkpt lat="43.1328357" lon="-2.7831725">
        <ele>122.684</ele>
        <time>2021-04-01T09:20:22.509Z</time>
      </trkpt>
      <trkpt lat="43.1328384" lon="-2.7831755">
        <ele>122.701</ele>
        <time>2021-04-01T09:20:22.564Z</time>
      </trkpt>
      <trkpt lat="43.1328411" lon="-2.7831783">
        <ele>122.696</ele>
        <time>2021-04-01T09:20:22.619Z</time>
      </trkpt>
      <trkpt lat="43.1328439" lon="-2.7831811">
        <ele>122.701</ele>
        <time>2021-04-01T09:20:22.674Z</time>
      </trkpt>
      <trkpt lat="43.1328466" lon="-2.7831839">
        <ele>122.707</ele>
        <time>2021-04-01T09:20:22.729Z</time>
      </trkpt>
      <trkpt lat="43.1328492" lon="-2.7831868">
        <ele>122.708</ele>
        <time>2021-04-01T09:20:22.784Z</time>
      </trkpt>
      <trkpt lat="43.1328519" lon="-2.7831895">
        <ele>122.71</ele>
        <time>2021-04-01T09:20:22.839Z</time>
      </trkpt>
      <trkpt lat="43.1328545" lon="-2.7831925">
        <ele>122.696</ele>
        <time>2021-04-01T09:20:22.894Z</time>
      </trkpt>
      <trkpt lat="43.1328573" lon="-2.7831955">
        <ele>122.703</ele>
        <time>2021-04-01T09:20:22.949Z</time>
      </trkpt>
      <trkpt lat="43.1328599" lon="-2.7831986">
        <ele>122.736</ele>
        <time>2021-04-01T09:20:23.004Z</time>
      </trkpt>
      <trkpt lat="43.1328626" lon="-2.7832015">
        <ele>122.766</ele>
        <time>2021-04-01T09:20:23.059Z</time>
      </trkpt>
      <trkpt lat="43.1328654" lon="-2.7832042">
        <ele>122.765</ele>
        <time>2021-04-01T09:20:23.114Z</time>
      </trkpt>
      <trkpt lat="43.1328683" lon="-2.7832073">
        <ele>122.773</ele>
        <time>2021-04-01T09:20:23.166Z</time>
      </trkpt>
      <trkpt lat="43.1328711" lon="-2.7832103">
        <ele>122.79</ele>
        <time>2021-04-01T09:20:23.218Z</time>
      </trkpt>
      <trkpt lat="43.1328738" lon="-2.7832131">
        <ele>122.816</ele>
        <time>2021-04-01T09:20:23.270Z</time>
      </trkpt>
      <trkpt lat="43.1328767" lon="-2.7832162">
        <ele>122.847</ele>
        <time>2021-04-01T09:20:23.322Z</time>
      </trkpt>
      <trkpt lat="43.1328792" lon="-2.783219">
        <ele>122.831</ele>
        <time>2021-04-01T09:20:23.374Z</time>
      </trkpt>
      <trkpt lat="43.1328822" lon="-2.783222">
        <ele>122.842</ele>
        <time>2021-04-01T09:20:23.426Z</time>
      </trkpt>
      <trkpt lat="43.1328852" lon="-2.7832248">
        <ele>122.869</ele>
        <time>2021-04-01T09:20:23.478Z</time>
      </trkpt>
      <trkpt lat="43.1328881" lon="-2.783228">
        <ele>122.914</ele>
        <time>2021-04-01T09:20:23.530Z</time>
      </trkpt>
      <trkpt lat="43.1328909" lon="-2.7832307">
        <ele>122.919</ele>
        <time>2021-04-01T09:20:23.582Z</time>
      </trkpt>
      <trkpt lat="43.1328938" lon="-2.7832336">
        <ele>122.948</ele>
        <time>2021-04-01T09:20:23.635Z</time>
      </trkpt>
      <trkpt lat="43.1328964" lon="-2.7832367">
        <ele>122.958</ele>
        <time>2021-04-01T09:20:23.687Z</time>
      </trkpt>
      <trkpt lat="43.1328991" lon="-2.7832397">
        <ele>122.948</ele>
        <time>2021-04-01T09:20:23.739Z</time>
      </trkpt>
      <trkpt lat="43.1329019" lon="-2.7832422">
        <ele>122.926</ele>
        <time>2021-04-01T09:20:23.791Z</time>
      </trkpt>
      <trkpt lat="43.1329047" lon="-2.7832448">
        <ele>122.927</ele>
        <time>2021-04-01T09:20:23.843Z</time>
      </trkpt>
      <trkpt lat="43.1329077" lon="-2.783248">
        <ele>122.963</ele>
        <time>2021-04-01T09:20:23.895Z</time>
      </trkpt>
      <trkpt lat="43.1329106" lon="-2.7832511">
        <ele>122.989</ele>
        <time>2021-04-01T09:20:23.947Z</time>
      </trkpt>
      <trkpt lat="43.1329134" lon="-2.7832538">
        <ele>122.996</ele>
        <time>2021-04-01T09:20:23.999Z</time>
      </trkpt>
      <trkpt lat="43.1329161" lon="-2.7832567">
        <ele>123</ele>
        <time>2021-04-01T09:20:24.051Z</time>
      </trkpt>
      <trkpt lat="43.132919" lon="-2.7832594">
        <ele>122.996</ele>
        <time>2021-04-01T09:20:24.104Z</time>
      </trkpt>
      <trkpt lat="43.132922" lon="-2.7832625">
        <ele>123.024</ele>
        <time>2021-04-01T09:20:24.165Z</time>
      </trkpt>
      <trkpt lat="43.1329249" lon="-2.7832656">
        <ele>123.054</ele>
        <time>2021-04-01T09:20:24.226Z</time>
      </trkpt>
      <trkpt lat="43.1329276" lon="-2.783269">
        <ele>123.089</ele>
        <time>2021-04-01T09:20:24.288Z</time>
      </trkpt>
      <trkpt lat="43.1329302" lon="-2.7832718">
        <ele>123.048</ele>
        <time>2021-04-01T09:20:24.349Z</time>
      </trkpt>
      <trkpt lat="43.1329333" lon="-2.7832746">
        <ele>123.092</ele>
        <time>2021-04-01T09:20:24.411Z</time>
      </trkpt>
      <trkpt lat="43.1329361" lon="-2.7832778">
        <ele>123.112</ele>
        <time>2021-04-01T09:20:24.472Z</time>
      </trkpt>
      <trkpt lat="43.1329387" lon="-2.7832814">
        <ele>123.135</ele>
        <time>2021-04-01T09:20:24.534Z</time>
      </trkpt>
      <trkpt lat="43.1329415" lon="-2.7832841">
        <ele>123.138</ele>
        <time>2021-04-01T09:20:24.595Z</time>
      </trkpt>
      <trkpt lat="43.1329442" lon="-2.7832872">
        <ele>123.133</ele>
        <time>2021-04-01T09:20:24.657Z</time>
      </trkpt>
      <trkpt lat="43.1329468" lon="-2.7832901">
        <ele>123.107</ele>
        <time>2021-04-01T09:20:24.718Z</time>
      </trkpt>
      <trkpt lat="43.1329495" lon="-2.7832929">
        <ele>123.076</ele>
        <time>2021-04-01T09:20:24.780Z</time>
      </trkpt>
      <trkpt lat="43.1329523" lon="-2.7832958">
        <ele>123.085</ele>
        <time>2021-04-01T09:20:24.841Z</time>
      </trkpt>
      <trkpt lat="43.1329551" lon="-2.7832987">
        <ele>123.105</ele>
        <time>2021-04-01T09:20:24.903Z</time>
      </trkpt>
      <trkpt lat="43.1329578" lon="-2.7833016">
        <ele>123.088</ele>
        <time>2021-04-01T09:20:24.964Z</time>
      </trkpt>
      <trkpt lat="43.1329607" lon="-2.7833043">
        <ele>123.11</ele>
        <time>2021-04-01T09:20:25.026Z</time>
      </trkpt>
      <trkpt lat="43.1329635" lon="-2.7833074">
        <ele>123.097</ele>
        <time>2021-04-01T09:20:25.087Z</time>
      </trkpt>
      <trkpt lat="43.1329665" lon="-2.7833101">
        <ele>123.082</ele>
        <time>2021-04-01T09:20:25.149Z</time>
      </trkpt>
      <trkpt lat="43.1329694" lon="-2.7833127">
        <ele>123.07</ele>
        <time>2021-04-01T09:20:25.201Z</time>
      </trkpt>
      <trkpt lat="43.1329723" lon="-2.7833154">
        <ele>123.075</ele>
        <time>2021-04-01T09:20:25.253Z</time>
      </trkpt>
      <trkpt lat="43.1329751" lon="-2.783318">
        <ele>123.083</ele>
        <time>2021-04-01T09:20:25.305Z</time>
      </trkpt>
      <trkpt lat="43.1329777" lon="-2.7833208">
        <ele>123.056</ele>
        <time>2021-04-01T09:20:25.357Z</time>
      </trkpt>
      <trkpt lat="43.1329806" lon="-2.7833238">
        <ele>123.058</ele>
        <time>2021-04-01T09:20:25.409Z</time>
      </trkpt>
      <trkpt lat="43.1329836" lon="-2.7833269">
        <ele>123.096</ele>
        <time>2021-04-01T09:20:25.461Z</time>
      </trkpt>
      <trkpt lat="43.1329865" lon="-2.7833294">
        <ele>123.077</ele>
        <time>2021-04-01T09:20:25.513Z</time>
      </trkpt>
      <trkpt lat="43.1329892" lon="-2.783332">
        <ele>123.058</ele>
        <time>2021-04-01T09:20:25.565Z</time>
      </trkpt>
      <trkpt lat="43.132992" lon="-2.7833353">
        <ele>123.087</ele>
        <time>2021-04-01T09:20:25.617Z</time>
      </trkpt>
      <trkpt lat="43.132995" lon="-2.7833379">
        <ele>123.121</ele>
        <time>2021-04-01T09:20:25.670Z</time>
      </trkpt>
      <trkpt lat="43.1329977" lon="-2.7833411">
        <ele>123.136</ele>
        <time>2021-04-01T09:20:25.722Z</time>
      </trkpt>
      <trkpt lat="43.1330003" lon="-2.7833441">
        <ele>123.115</ele>
        <time>2021-04-01T09:20:25.774Z</time>
      </trkpt>
      <trkpt lat="43.1330032" lon="-2.7833468">
        <ele>123.1</ele>
        <time>2021-04-01T09:20:25.826Z</time>
      </trkpt>
      <trkpt lat="43.1330061" lon="-2.7833492">
        <ele>123.094</ele>
        <time>2021-04-01T09:20:25.878Z</time>
      </trkpt>
      <trkpt lat="43.1330092" lon="-2.783352">
        <ele>123.137</ele>
        <time>2021-04-01T09:20:25.930Z</time>
      </trkpt>
      <trkpt lat="43.1330121" lon="-2.7833548">
        <ele>123.121</ele>
        <time>2021-04-01T09:20:25.982Z</time>
      </trkpt>
      <trkpt lat="43.133015" lon="-2.7833573">
        <ele>123.116</ele>
        <time>2021-04-01T09:20:26.034Z</time>
      </trkpt>
      <trkpt lat="43.1330178" lon="-2.7833601">
        <ele>123.146</ele>
        <time>2021-04-01T09:20:26.086Z</time>
      </trkpt>
      <trkpt lat="43.1330207" lon="-2.7833627">
        <ele>123.154</ele>
        <time>2021-04-01T09:20:26.139Z</time>
      </trkpt>
      <trkpt lat="43.1330234" lon="-2.7833655">
        <ele>123.122</ele>
        <time>2021-04-01T09:20:26.194Z</time>
      </trkpt>
      <trkpt lat="43.1330265" lon="-2.7833683">
        <ele>123.125</ele>
        <time>2021-04-01T09:20:26.249Z</time>
      </trkpt>
      <trkpt lat="43.1330294" lon="-2.783371">
        <ele>123.136</ele>
        <time>2021-04-01T09:20:26.304Z</time>
      </trkpt>
      <trkpt lat="43.1330325" lon="-2.783374">
        <ele>123.168</ele>
        <time>2021-04-01T09:20:26.359Z</time>
      </trkpt>
      <trkpt lat="43.1330354" lon="-2.7833766">
        <ele>123.179</ele>
        <time>2021-04-01T09:20:26.414Z</time>
      </trkpt>
      <trkpt lat="43.1330384" lon="-2.7833792">
        <ele>123.196</ele>
        <time>2021-04-01T09:20:26.469Z</time>
      </trkpt>
      <trkpt lat="43.1330411" lon="-2.7833819">
        <ele>123.189</ele>
        <time>2021-04-01T09:20:26.524Z</time>
      </trkpt>
      <trkpt lat="43.1330444" lon="-2.7833846">
        <ele>123.225</ele>
        <time>2021-04-01T09:20:26.579Z</time>
      </trkpt>
      <trkpt lat="43.1330475" lon="-2.7833872">
        <ele>123.226</ele>
        <time>2021-04-01T09:20:26.634Z</time>
      </trkpt>
      <trkpt lat="43.1330504" lon="-2.7833898">
        <ele>123.213</ele>
        <time>2021-04-01T09:20:26.689Z</time>
      </trkpt>
      <trkpt lat="43.1330532" lon="-2.7833921">
        <ele>123.182</ele>
        <time>2021-04-01T09:20:26.744Z</time>
      </trkpt>
      <trkpt lat="43.133056" lon="-2.7833945">
        <ele>123.141</ele>
        <time>2021-04-01T09:20:26.799Z</time>
      </trkpt>
      <trkpt lat="43.133059" lon="-2.7833968">
        <ele>123.115</ele>
        <time>2021-04-01T09:20:26.854Z</time>
      </trkpt>
      <trkpt lat="43.1330621" lon="-2.7833993">
        <ele>123.129</ele>
        <time>2021-04-01T09:20:26.909Z</time>
      </trkpt>
      <trkpt lat="43.1330652" lon="-2.7834017">
        <ele>123.129</ele>
        <time>2021-04-01T09:20:26.964Z</time>
      </trkpt>
      <trkpt lat="43.1330684" lon="-2.783404">
        <ele>123.141</ele>
        <time>2021-04-01T09:20:27.019Z</time>
      </trkpt>
      <trkpt lat="43.1330714" lon="-2.7834066">
        <ele>123.15</ele>
        <time>2021-04-01T09:20:27.074Z</time>
      </trkpt>
      <trkpt lat="43.1330742" lon="-2.7834092">
        <ele>123.138</ele>
        <time>2021-04-01T09:20:27.129Z</time>
      </trkpt>
      <trkpt lat="43.133077" lon="-2.7834121">
        <ele>123.162</ele>
        <time>2021-04-01T09:20:27.184Z</time>
      </trkpt>
      <trkpt lat="43.1330801" lon="-2.783415">
        <ele>123.197</ele>
        <time>2021-04-01T09:20:27.239Z</time>
      </trkpt>
      <trkpt lat="43.1330832" lon="-2.7834177">
        <ele>123.233</ele>
        <time>2021-04-01T09:20:27.294Z</time>
      </trkpt>
      <trkpt lat="43.133086" lon="-2.7834207">
        <ele>123.237</ele>
        <time>2021-04-01T09:20:27.349Z</time>
      </trkpt>
      <trkpt lat="43.1330888" lon="-2.7834237">
        <ele>123.278</ele>
        <time>2021-04-01T09:20:27.404Z</time>
      </trkpt>
      <trkpt lat="43.1330915" lon="-2.7834268">
        <ele>123.293</ele>
        <time>2021-04-01T09:20:27.459Z</time>
      </trkpt>
      <trkpt lat="43.1330942" lon="-2.78343">
        <ele>123.322</ele>
        <time>2021-04-01T09:20:27.514Z</time>
      </trkpt>
      <trkpt lat="43.1330966" lon="-2.7834337">
        <ele>123.376</ele>
        <time>2021-04-01T09:20:27.569Z</time>
      </trkpt>
      <trkpt lat="43.1330992" lon="-2.7834369">
        <ele>123.389</ele>
        <time>2021-04-01T09:20:27.624Z</time>
      </trkpt>
      <trkpt lat="43.1331018" lon="-2.7834402">
        <ele>123.44</ele>
        <time>2021-04-01T09:20:27.679Z</time>
      </trkpt>
      <trkpt lat="43.1331046" lon="-2.7834431">
        <ele>123.46</ele>
        <time>2021-04-01T09:20:27.734Z</time>
      </trkpt>
      <trkpt lat="43.1331072" lon="-2.7834459">
        <ele>123.452</ele>
        <time>2021-04-01T09:20:27.789Z</time>
      </trkpt>
      <trkpt lat="43.1331098" lon="-2.7834494">
        <ele>123.487</ele>
        <time>2021-04-01T09:20:27.844Z</time>
      </trkpt>
      <trkpt lat="43.1331124" lon="-2.7834528">
        <ele>123.51</ele>
        <time>2021-04-01T09:20:27.899Z</time>
      </trkpt>
      <trkpt lat="43.1331148" lon="-2.7834559">
        <ele>123.5</ele>
        <time>2021-04-01T09:20:27.954Z</time>
      </trkpt>
      <trkpt lat="43.1331177" lon="-2.7834586">
        <ele>123.484</ele>
        <time>2021-04-01T09:20:28.009Z</time>
      </trkpt>
      <trkpt lat="43.1331206" lon="-2.7834609">
        <ele>123.466</ele>
        <time>2021-04-01T09:20:28.064Z</time>
      </trkpt>
      <trkpt lat="43.1331232" lon="-2.783464">
        <ele>123.463</ele>
        <time>2021-04-01T09:20:28.119Z</time>
      </trkpt>
      <trkpt lat="43.1331258" lon="-2.7834674">
        <ele>123.497</ele>
        <time>2021-04-01T09:20:28.171Z</time>
      </trkpt>
      <trkpt lat="43.1331285" lon="-2.7834709">
        <ele>123.556</ele>
        <time>2021-04-01T09:20:28.223Z</time>
      </trkpt>
      <trkpt lat="43.1331308" lon="-2.7834738">
        <ele>123.521</ele>
        <time>2021-04-01T09:20:28.275Z</time>
      </trkpt>
      <trkpt lat="43.1331333" lon="-2.7834771">
        <ele>123.522</ele>
        <time>2021-04-01T09:20:28.327Z</time>
      </trkpt>
      <trkpt lat="43.1331362" lon="-2.7834801">
        <ele>123.544</ele>
        <time>2021-04-01T09:20:28.379Z</time>
      </trkpt>
      <trkpt lat="43.1331391" lon="-2.7834827">
        <ele>123.544</ele>
        <time>2021-04-01T09:20:28.431Z</time>
      </trkpt>
      <trkpt lat="43.1331419" lon="-2.7834856">
        <ele>123.578</ele>
        <time>2021-04-01T09:20:28.483Z</time>
      </trkpt>
      <trkpt lat="43.1331445" lon="-2.7834886">
        <ele>123.587</ele>
        <time>2021-04-01T09:20:28.535Z</time>
      </trkpt>
      <trkpt lat="43.1331471" lon="-2.7834913">
        <ele>123.573</ele>
        <time>2021-04-01T09:20:28.587Z</time>
      </trkpt>
      <trkpt lat="43.1331496" lon="-2.7834942">
        <ele>123.553</ele>
        <time>2021-04-01T09:20:28.640Z</time>
      </trkpt>
      <trkpt lat="43.1331524" lon="-2.7834968">
        <ele>123.548</ele>
        <time>2021-04-01T09:20:28.692Z</time>
      </trkpt>
      <trkpt lat="43.133155" lon="-2.7834998">
        <ele>123.56</ele>
        <time>2021-04-01T09:20:28.744Z</time>
      </trkpt>
      <trkpt lat="43.1331576" lon="-2.7835027">
        <ele>123.585</ele>
        <time>2021-04-01T09:20:28.796Z</time>
      </trkpt>
      <trkpt lat="43.1331603" lon="-2.7835054">
        <ele>123.601</ele>
        <time>2021-04-01T09:20:28.848Z</time>
      </trkpt>
      <trkpt lat="43.133163" lon="-2.7835084">
        <ele>123.633</ele>
        <time>2021-04-01T09:20:28.900Z</time>
      </trkpt>
      <trkpt lat="43.1331655" lon="-2.7835115">
        <ele>123.626</ele>
        <time>2021-04-01T09:20:28.952Z</time>
      </trkpt>
      <trkpt lat="43.1331681" lon="-2.7835144">
        <ele>123.648</ele>
        <time>2021-04-01T09:20:29.004Z</time>
      </trkpt>
      <trkpt lat="43.1331707" lon="-2.7835173">
        <ele>123.656</ele>
        <time>2021-04-01T09:20:29.056Z</time>
      </trkpt>
      <trkpt lat="43.1331736" lon="-2.78352">
        <ele>123.687</ele>
        <time>2021-04-01T09:20:29.109Z</time>
      </trkpt>
      <trkpt lat="43.1331763" lon="-2.7835228">
        <ele>123.73</ele>
        <time>2021-04-01T09:20:29.164Z</time>
      </trkpt>
      <trkpt lat="43.1331789" lon="-2.783526">
        <ele>123.807</ele>
        <time>2021-04-01T09:20:29.219Z</time>
      </trkpt>
      <trkpt lat="43.1331818" lon="-2.7835288">
        <ele>123.888</ele>
        <time>2021-04-01T09:20:29.274Z</time>
      </trkpt>
      <trkpt lat="43.1331845" lon="-2.7835315">
        <ele>123.917</ele>
        <time>2021-04-01T09:20:29.329Z</time>
      </trkpt>
      <trkpt lat="43.1331874" lon="-2.7835337">
        <ele>123.904</ele>
        <time>2021-04-01T09:20:29.384Z</time>
      </trkpt>
      <trkpt lat="43.1331899" lon="-2.7835363">
        <ele>123.881</ele>
        <time>2021-04-01T09:20:29.439Z</time>
      </trkpt>
      <trkpt lat="43.1331925" lon="-2.7835383">
        <ele>123.855</ele>
        <time>2021-04-01T09:20:29.494Z</time>
      </trkpt>
      <trkpt lat="43.133195" lon="-2.7835404">
        <ele>123.82</ele>
        <time>2021-04-01T09:20:29.549Z</time>
      </trkpt>
      <trkpt lat="43.1331976" lon="-2.7835423">
        <ele>123.745</ele>
        <time>2021-04-01T09:20:29.604Z</time>
      </trkpt>
      <trkpt lat="43.1332004" lon="-2.7835447">
        <ele>123.725</ele>
        <time>2021-04-01T09:20:29.659Z</time>
      </trkpt>
      <trkpt lat="43.1332025" lon="-2.7835469">
        <ele>123.658</ele>
        <time>2021-04-01T09:20:29.714Z</time>
      </trkpt>
      <trkpt lat="43.1332049" lon="-2.7835491">
        <ele>123.638</ele>
        <time>2021-04-01T09:20:29.769Z</time>
      </trkpt>
      <trkpt lat="43.1332072" lon="-2.7835512">
        <ele>123.591</ele>
        <time>2021-04-01T09:20:29.824Z</time>
      </trkpt>
      <trkpt lat="43.1332096" lon="-2.7835539">
        <ele>123.568</ele>
        <time>2021-04-01T09:20:29.879Z</time>
      </trkpt>
      <trkpt lat="43.1332117" lon="-2.7835568">
        <ele>123.56</ele>
        <time>2021-04-01T09:20:29.934Z</time>
      </trkpt>
      <trkpt lat="43.133214" lon="-2.7835595">
        <ele>123.554</ele>
        <time>2021-04-01T09:20:29.989Z</time>
      </trkpt>
      <trkpt lat="43.1332162" lon="-2.7835618">
        <ele>123.525</ele>
        <time>2021-04-01T09:20:30.044Z</time>
      </trkpt>
      <trkpt lat="43.1332187" lon="-2.7835643">
        <ele>123.517</ele>
        <time>2021-04-01T09:20:30.099Z</time>
      </trkpt>
      <trkpt lat="43.1332211" lon="-2.7835671">
        <ele>123.537</ele>
        <time>2021-04-01T09:20:30.160Z</time>
      </trkpt>
      <trkpt lat="43.1332236" lon="-2.7835697">
        <ele>123.559</ele>
        <time>2021-04-01T09:20:30.221Z</time>
      </trkpt>
      <trkpt lat="43.1332259" lon="-2.7835723">
        <ele>123.554</ele>
        <time>2021-04-01T09:20:30.283Z</time>
      </trkpt>
      <trkpt lat="43.1332282" lon="-2.7835754">
        <ele>123.595</ele>
        <time>2021-04-01T09:20:30.344Z</time>
      </trkpt>
      <trkpt lat="43.1332306" lon="-2.783578">
        <ele>123.616</ele>
        <time>2021-04-01T09:20:30.406Z</time>
      </trkpt>
      <trkpt lat="43.1332328" lon="-2.7835807">
        <ele>123.605</ele>
        <time>2021-04-01T09:20:30.467Z</time>
      </trkpt>
      <trkpt lat="43.133235" lon="-2.7835833">
        <ele>123.599</ele>
        <time>2021-04-01T09:20:30.529Z</time>
      </trkpt>
      <trkpt lat="43.1332374" lon="-2.7835856">
        <ele>123.592</ele>
        <time>2021-04-01T09:20:30.590Z</time>
      </trkpt>
      <trkpt lat="43.1332396" lon="-2.783588">
        <ele>123.578</ele>
        <time>2021-04-01T09:20:30.652Z</time>
      </trkpt>
      <trkpt lat="43.1332419" lon="-2.7835911">
        <ele>123.638</ele>
        <time>2021-04-01T09:20:30.713Z</time>
      </trkpt>
      <trkpt lat="43.133244" lon="-2.7835941">
        <ele>123.663</ele>
        <time>2021-04-01T09:20:30.775Z</time>
      </trkpt>
      <trkpt lat="43.1332464" lon="-2.7835967">
        <ele>123.687</ele>
        <time>2021-04-01T09:20:30.836Z</time>
      </trkpt>
      <trkpt lat="43.1332488" lon="-2.7835994">
        <ele>123.712</ele>
        <time>2021-04-01T09:20:30.898Z</time>
      </trkpt>
      <trkpt lat="43.133251" lon="-2.783602">
        <ele>123.727</ele>
        <time>2021-04-01T09:20:30.959Z</time>
      </trkpt>
      <trkpt lat="43.1332533" lon="-2.7836049">
        <ele>123.769</ele>
        <time>2021-04-01T09:20:31.021Z</time>
      </trkpt>
      <trkpt lat="43.1332554" lon="-2.7836077">
        <ele>123.802</ele>
        <time>2021-04-01T09:20:31.082Z</time>
      </trkpt>
      <trkpt lat="43.1332576" lon="-2.7836107">
        <ele>123.854</ele>
        <time>2021-04-01T09:20:31.144Z</time>
      </trkpt>
      <trkpt lat="43.13326" lon="-2.7836134">
        <ele>123.868</ele>
        <time>2021-04-01T09:20:31.196Z</time>
      </trkpt>
      <trkpt lat="43.1332623" lon="-2.7836158">
        <ele>123.87</ele>
        <time>2021-04-01T09:20:31.248Z</time>
      </trkpt>
      <trkpt lat="43.1332646" lon="-2.7836182">
        <ele>123.886</ele>
        <time>2021-04-01T09:20:31.300Z</time>
      </trkpt>
      <trkpt lat="43.1332669" lon="-2.7836209">
        <ele>123.919</ele>
        <time>2021-04-01T09:20:31.352Z</time>
      </trkpt>
      <trkpt lat="43.1332692" lon="-2.7836234">
        <ele>123.927</ele>
        <time>2021-04-01T09:20:31.404Z</time>
      </trkpt>
      <trkpt lat="43.1332713" lon="-2.7836258">
        <ele>123.901</ele>
        <time>2021-04-01T09:20:31.456Z</time>
      </trkpt>
      <trkpt lat="43.1332733" lon="-2.7836284">
        <ele>123.891</ele>
        <time>2021-04-01T09:20:31.508Z</time>
      </trkpt>
      <trkpt lat="43.1332754" lon="-2.7836316">
        <ele>123.949</ele>
        <time>2021-04-01T09:20:31.560Z</time>
      </trkpt>
      <trkpt lat="43.1332777" lon="-2.7836343">
        <ele>123.962</ele>
        <time>2021-04-01T09:20:31.612Z</time>
      </trkpt>
      <trkpt lat="43.1332798" lon="-2.7836368">
        <ele>123.946</ele>
        <time>2021-04-01T09:20:31.665Z</time>
      </trkpt>
      <trkpt lat="43.1332818" lon="-2.7836394">
        <ele>123.931</ele>
        <time>2021-04-01T09:20:31.717Z</time>
      </trkpt>
      <trkpt lat="43.133284" lon="-2.7836418">
        <ele>123.934</ele>
        <time>2021-04-01T09:20:31.769Z</time>
      </trkpt>
      <trkpt lat="43.1332862" lon="-2.7836443">
        <ele>123.937</ele>
        <time>2021-04-01T09:20:31.821Z</time>
      </trkpt>
      <trkpt lat="43.1332883" lon="-2.7836468">
        <ele>123.908</ele>
        <time>2021-04-01T09:20:31.873Z</time>
      </trkpt>
      <trkpt lat="43.1332905" lon="-2.7836492">
        <ele>123.91</ele>
        <time>2021-04-01T09:20:31.925Z</time>
      </trkpt>
      <trkpt lat="43.1332927" lon="-2.7836518">
        <ele>123.924</ele>
        <time>2021-04-01T09:20:31.977Z</time>
      </trkpt>
      <trkpt lat="43.1332951" lon="-2.7836547">
        <ele>123.969</ele>
        <time>2021-04-01T09:20:32.029Z</time>
      </trkpt>
      <trkpt lat="43.1332972" lon="-2.7836575">
        <ele>123.985</ele>
        <time>2021-04-01T09:20:32.081Z</time>
      </trkpt>
      <trkpt lat="43.1332993" lon="-2.7836601">
        <ele>123.982</ele>
        <time>2021-04-01T09:20:32.134Z</time>
      </trkpt>
      <trkpt lat="43.1333013" lon="-2.7836626">
        <ele>123.992</ele>
        <time>2021-04-01T09:20:32.189Z</time>
      </trkpt>
      <trkpt lat="43.1333034" lon="-2.7836648">
        <ele>123.966</ele>
        <time>2021-04-01T09:20:32.244Z</time>
      </trkpt>
      <trkpt lat="43.1333057" lon="-2.7836673">
        <ele>123.971</ele>
        <time>2021-04-01T09:20:32.299Z</time>
      </trkpt>
      <trkpt lat="43.133308" lon="-2.7836694">
        <ele>123.949</ele>
        <time>2021-04-01T09:20:32.354Z</time>
      </trkpt>
      <trkpt lat="43.1333101" lon="-2.783671">
        <ele>123.856</ele>
        <time>2021-04-01T09:20:32.409Z</time>
      </trkpt>
      <trkpt lat="43.1333125" lon="-2.7836733">
        <ele>123.863</ele>
        <time>2021-04-01T09:20:32.464Z</time>
      </trkpt>
      <trkpt lat="43.1333147" lon="-2.7836761">
        <ele>123.888</ele>
        <time>2021-04-01T09:20:32.519Z</time>
      </trkpt>
      <trkpt lat="43.1333167" lon="-2.7836787">
        <ele>123.898</ele>
        <time>2021-04-01T09:20:32.574Z</time>
      </trkpt>
      <trkpt lat="43.1333186" lon="-2.7836808">
        <ele>123.857</ele>
        <time>2021-04-01T09:20:32.629Z</time>
      </trkpt>
      <trkpt lat="43.1333208" lon="-2.7836832">
        <ele>123.871</ele>
        <time>2021-04-01T09:20:32.684Z</time>
      </trkpt>
      <trkpt lat="43.1333232" lon="-2.7836858">
        <ele>123.879</ele>
        <time>2021-04-01T09:20:32.739Z</time>
      </trkpt>
      <trkpt lat="43.1333252" lon="-2.7836883">
        <ele>123.868</ele>
        <time>2021-04-01T09:20:32.794Z</time>
      </trkpt>
      <trkpt lat="43.1333272" lon="-2.7836908">
        <ele>123.867</ele>
        <time>2021-04-01T09:20:32.849Z</time>
      </trkpt>
      <trkpt lat="43.1333292" lon="-2.783693">
        <ele>123.855</ele>
        <time>2021-04-01T09:20:32.904Z</time>
      </trkpt>
      <trkpt lat="43.1333315" lon="-2.7836949">
        <ele>123.797</ele>
        <time>2021-04-01T09:20:32.959Z</time>
      </trkpt>
      <trkpt lat="43.1333334" lon="-2.7836972">
        <ele>123.753</ele>
        <time>2021-04-01T09:20:33.014Z</time>
      </trkpt>
      <trkpt lat="43.1333355" lon="-2.7836997">
        <ele>123.752</ele>
        <time>2021-04-01T09:20:33.069Z</time>
      </trkpt>
      <trkpt lat="43.1333377" lon="-2.7837019">
        <ele>123.738</ele>
        <time>2021-04-01T09:20:33.124Z</time>
      </trkpt>
      <trkpt lat="43.1333393" lon="-2.7837041">
        <ele>123.698</ele>
        <time>2021-04-01T09:20:33.182Z</time>
      </trkpt>
      <trkpt lat="43.1333413" lon="-2.7837066">
        <ele>123.7</ele>
        <time>2021-04-01T09:20:33.240Z</time>
      </trkpt>
      <trkpt lat="43.1333435" lon="-2.7837086">
        <ele>123.685</ele>
        <time>2021-04-01T09:20:33.298Z</time>
      </trkpt>
      <trkpt lat="43.1333458" lon="-2.7837108">
        <ele>123.666</ele>
        <time>2021-04-01T09:20:33.356Z</time>
      </trkpt>
      <trkpt lat="43.1333479" lon="-2.7837131">
        <ele>123.64</ele>
        <time>2021-04-01T09:20:33.414Z</time>
      </trkpt>
      <trkpt lat="43.13335" lon="-2.7837153">
        <ele>123.645</ele>
        <time>2021-04-01T09:20:33.472Z</time>
      </trkpt>
      <trkpt lat="43.1333525" lon="-2.7837175">
        <ele>123.657</ele>
        <time>2021-04-01T09:20:33.530Z</time>
      </trkpt>
      <trkpt lat="43.1333549" lon="-2.7837194">
        <ele>123.668</ele>
        <time>2021-04-01T09:20:33.588Z</time>
      </trkpt>
      <trkpt lat="43.1333573" lon="-2.7837214">
        <ele>123.687</ele>
        <time>2021-04-01T09:20:33.646Z</time>
      </trkpt>
      <trkpt lat="43.1333594" lon="-2.7837233">
        <ele>123.658</ele>
        <time>2021-04-01T09:20:33.704Z</time>
      </trkpt>
      <trkpt lat="43.1333617" lon="-2.7837255">
        <ele>123.664</ele>
        <time>2021-04-01T09:20:33.762Z</time>
      </trkpt>
      <trkpt lat="43.133364" lon="-2.7837278">
        <ele>123.676</ele>
        <time>2021-04-01T09:20:33.820Z</time>
      </trkpt>
      <trkpt lat="43.1333666" lon="-2.7837294">
        <ele>123.686</ele>
        <time>2021-04-01T09:20:33.878Z</time>
      </trkpt>
      <trkpt lat="43.1333689" lon="-2.783732">
        <ele>123.724</ele>
        <time>2021-04-01T09:20:33.936Z</time>
      </trkpt>
      <trkpt lat="43.1333709" lon="-2.7837332">
        <ele>123.695</ele>
        <time>2021-04-01T09:20:33.994Z</time>
      </trkpt>
      <trkpt lat="43.1333736" lon="-2.7837343">
        <ele>123.712</ele>
        <time>2021-04-01T09:20:34.052Z</time>
      </trkpt>
      <trkpt lat="43.1333769" lon="-2.7837354">
        <ele>123.78</ele>
        <time>2021-04-01T09:20:34.110Z</time>
      </trkpt>
      <trkpt lat="43.1333796" lon="-2.7837366">
        <ele>123.865</ele>
        <time>2021-04-01T09:20:34.169Z</time>
      </trkpt>
      <trkpt lat="43.1333825" lon="-2.7837377">
        <ele>123.961</ele>
        <time>2021-04-01T09:20:34.221Z</time>
      </trkpt>
      <trkpt lat="43.1333852" lon="-2.7837388">
        <ele>123.973</ele>
        <time>2021-04-01T09:20:34.273Z</time>
      </trkpt>
      <trkpt lat="43.1333879" lon="-2.7837397">
        <ele>123.97</ele>
        <time>2021-04-01T09:20:34.325Z</time>
      </trkpt>
      <trkpt lat="43.1333905" lon="-2.7837405">
        <ele>123.968</ele>
        <time>2021-04-01T09:20:34.377Z</time>
      </trkpt>
      <trkpt lat="43.1333934" lon="-2.783741">
        <ele>123.955</ele>
        <time>2021-04-01T09:20:34.429Z</time>
      </trkpt>
      <trkpt lat="43.1333965" lon="-2.7837415">
        <ele>123.985</ele>
        <time>2021-04-01T09:20:34.481Z</time>
      </trkpt>
      <trkpt lat="43.1333998" lon="-2.783742">
        <ele>123.999</ele>
        <time>2021-04-01T09:20:34.533Z</time>
      </trkpt>
      <trkpt lat="43.1334033" lon="-2.7837423">
        <ele>124.021</ele>
        <time>2021-04-01T09:20:34.585Z</time>
      </trkpt>
      <trkpt lat="43.1334064" lon="-2.7837426">
        <ele>124.029</ele>
        <time>2021-04-01T09:20:34.637Z</time>
      </trkpt>
      <trkpt lat="43.1334094" lon="-2.783743">
        <ele>124.031</ele>
        <time>2021-04-01T09:20:34.690Z</time>
      </trkpt>
      <trkpt lat="43.1334125" lon="-2.7837434">
        <ele>124.041</ele>
        <time>2021-04-01T09:20:34.742Z</time>
      </trkpt>
      <trkpt lat="43.1334155" lon="-2.7837443">
        <ele>124.076</ele>
        <time>2021-04-01T09:20:34.794Z</time>
      </trkpt>
      <trkpt lat="43.1334184" lon="-2.7837449">
        <ele>124.159</ele>
        <time>2021-04-01T09:20:34.846Z</time>
      </trkpt>
      <trkpt lat="43.1334212" lon="-2.7837457">
        <ele>124.167</ele>
        <time>2021-04-01T09:20:34.898Z</time>
      </trkpt>
      <trkpt lat="43.133424" lon="-2.7837465">
        <ele>124.191</ele>
        <time>2021-04-01T09:20:34.950Z</time>
      </trkpt>
      <trkpt lat="43.1334267" lon="-2.7837473">
        <ele>124.223</ele>
        <time>2021-04-01T09:20:35.002Z</time>
      </trkpt>
      <trkpt lat="43.1334295" lon="-2.783748">
        <ele>124.237</ele>
        <time>2021-04-01T09:20:35.054Z</time>
      </trkpt>
      <trkpt lat="43.133432" lon="-2.7837493">
        <ele>124.233</ele>
        <time>2021-04-01T09:20:35.106Z</time>
      </trkpt>
      <trkpt lat="43.1334345" lon="-2.7837505">
        <ele>124.302</ele>
        <time>2021-04-01T09:20:35.159Z</time>
      </trkpt>
      <trkpt lat="43.1334375" lon="-2.7837513">
        <ele>124.33</ele>
        <time>2021-04-01T09:20:35.210Z</time>
      </trkpt>
      <trkpt lat="43.1334402" lon="-2.7837523">
        <ele>124.381</ele>
        <time>2021-04-01T09:20:35.262Z</time>
      </trkpt>
      <trkpt lat="43.1334427" lon="-2.7837532">
        <ele>124.413</ele>
        <time>2021-04-01T09:20:35.314Z</time>
      </trkpt>
      <trkpt lat="43.1334453" lon="-2.7837546">
        <ele>124.4</ele>
        <time>2021-04-01T09:20:35.366Z</time>
      </trkpt>
      <trkpt lat="43.1334477" lon="-2.7837554">
        <ele>124.431</ele>
        <time>2021-04-01T09:20:35.418Z</time>
      </trkpt>
      <trkpt lat="43.1334504" lon="-2.7837562">
        <ele>124.459</ele>
        <time>2021-04-01T09:20:35.470Z</time>
      </trkpt>
      <trkpt lat="43.1334529" lon="-2.7837569">
        <ele>124.501</ele>
        <time>2021-04-01T09:20:35.522Z</time>
      </trkpt>
      <trkpt lat="43.1334553" lon="-2.7837578">
        <ele>124.511</ele>
        <time>2021-04-01T09:20:35.574Z</time>
      </trkpt>
      <trkpt lat="43.133458" lon="-2.7837586">
        <ele>124.517</ele>
        <time>2021-04-01T09:20:35.626Z</time>
      </trkpt>
      <trkpt lat="43.1334607" lon="-2.7837596">
        <ele>124.496</ele>
        <time>2021-04-01T09:20:35.678Z</time>
      </trkpt>
      <trkpt lat="43.1334631" lon="-2.7837606">
        <ele>124.48</ele>
        <time>2021-04-01T09:20:35.730Z</time>
      </trkpt>
      <trkpt lat="43.1334655" lon="-2.7837613">
        <ele>124.479</ele>
        <time>2021-04-01T09:20:35.782Z</time>
      </trkpt>
      <trkpt lat="43.1334678" lon="-2.7837622">
        <ele>124.45</ele>
        <time>2021-04-01T09:20:35.834Z</time>
      </trkpt>
      <trkpt lat="43.13347" lon="-2.7837627">
        <ele>124.426</ele>
        <time>2021-04-01T09:20:35.886Z</time>
      </trkpt>
      <trkpt lat="43.1334721" lon="-2.7837635">
        <ele>124.412</ele>
        <time>2021-04-01T09:20:35.938Z</time>
      </trkpt>
      <trkpt lat="43.1334745" lon="-2.7837642">
        <ele>124.413</ele>
        <time>2021-04-01T09:20:35.990Z</time>
      </trkpt>
      <trkpt lat="43.1334771" lon="-2.7837647">
        <ele>124.414</ele>
        <time>2021-04-01T09:20:36.042Z</time>
      </trkpt>
      <trkpt lat="43.1334797" lon="-2.7837651">
        <ele>124.418</ele>
        <time>2021-04-01T09:20:36.094Z</time>
      </trkpt>
      <trkpt lat="43.1334816" lon="-2.7837658">
        <ele>124.396</ele>
        <time>2021-04-01T09:20:36.152Z</time>
      </trkpt>
      <trkpt lat="43.1334841" lon="-2.7837665">
        <ele>124.406</ele>
        <time>2021-04-01T09:20:36.210Z</time>
      </trkpt>
      <trkpt lat="43.1334867" lon="-2.7837672">
        <ele>124.416</ele>
        <time>2021-04-01T09:20:36.268Z</time>
      </trkpt>
      <trkpt lat="43.1334893" lon="-2.7837677">
        <ele>124.417</ele>
        <time>2021-04-01T09:20:36.326Z</time>
      </trkpt>
      <trkpt lat="43.1334919" lon="-2.7837683">
        <ele>124.405</ele>
        <time>2021-04-01T09:20:36.384Z</time>
      </trkpt>
      <trkpt lat="43.1334948" lon="-2.7837691">
        <ele>124.405</ele>
        <time>2021-04-01T09:20:36.442Z</time>
      </trkpt>
      <trkpt lat="43.1334971" lon="-2.7837693">
        <ele>124.388</ele>
        <time>2021-04-01T09:20:36.500Z</time>
      </trkpt>
      <trkpt lat="43.1334994" lon="-2.7837699">
        <ele>124.383</ele>
        <time>2021-04-01T09:20:36.558Z</time>
      </trkpt>
      <trkpt lat="43.133502" lon="-2.7837706">
        <ele>124.398</ele>
        <time>2021-04-01T09:20:36.616Z</time>
      </trkpt>
      <trkpt lat="43.1335047" lon="-2.7837711">
        <ele>124.424</ele>
        <time>2021-04-01T09:20:36.674Z</time>
      </trkpt>
      <trkpt lat="43.1335072" lon="-2.7837717">
        <ele>124.455</ele>
        <time>2021-04-01T09:20:36.732Z</time>
      </trkpt>
      <trkpt lat="43.1335101" lon="-2.7837724">
        <ele>124.47</ele>
        <time>2021-04-01T09:20:36.790Z</time>
      </trkpt>
      <trkpt lat="43.1335129" lon="-2.783773">
        <ele>124.489</ele>
        <time>2021-04-01T09:20:36.848Z</time>
      </trkpt>
      <trkpt lat="43.1335156" lon="-2.7837737">
        <ele>124.527</ele>
        <time>2021-04-01T09:20:36.906Z</time>
      </trkpt>
      <trkpt lat="43.1335179" lon="-2.783774">
        <ele>124.548</ele>
        <time>2021-04-01T09:20:36.964Z</time>
      </trkpt>
      <trkpt lat="43.1335202" lon="-2.7837745">
        <ele>124.537</ele>
        <time>2021-04-01T09:20:37.022Z</time>
      </trkpt>
      <trkpt lat="43.1335229" lon="-2.7837748">
        <ele>124.514</ele>
        <time>2021-04-01T09:20:37.080Z</time>
      </trkpt>
      <trkpt lat="43.1335253" lon="-2.7837748">
        <ele>124.48</ele>
        <time>2021-04-01T09:20:37.139Z</time>
      </trkpt>
      <trkpt lat="43.1335277" lon="-2.7837751">
        <ele>124.457</ele>
        <time>2021-04-01T09:20:37.197Z</time>
      </trkpt>
      <trkpt lat="43.1335297" lon="-2.7837752">
        <ele>124.411</ele>
        <time>2021-04-01T09:20:37.255Z</time>
      </trkpt>
      <trkpt lat="43.1335313" lon="-2.783775">
        <ele>124.376</ele>
        <time>2021-04-01T09:20:37.313Z</time>
      </trkpt>
      <trkpt lat="43.1335333" lon="-2.783775">
        <ele>124.379</ele>
        <time>2021-04-01T09:20:37.371Z</time>
      </trkpt>
      <trkpt lat="43.1335357" lon="-2.7837752">
        <ele>124.382</ele>
        <time>2021-04-01T09:20:37.429Z</time>
      </trkpt>
      <trkpt lat="43.1335384" lon="-2.7837756">
        <ele>124.357</ele>
        <time>2021-04-01T09:20:37.487Z</time>
      </trkpt>
      <trkpt lat="43.1335408" lon="-2.7837759">
        <ele>124.342</ele>
        <time>2021-04-01T09:20:37.545Z</time>
      </trkpt>
      <trkpt lat="43.1335434" lon="-2.783776">
        <ele>124.345</ele>
        <time>2021-04-01T09:20:37.603Z</time>
      </trkpt>
      <trkpt lat="43.133546" lon="-2.7837762">
        <ele>124.384</ele>
        <time>2021-04-01T09:20:37.661Z</time>
      </trkpt>
      <trkpt lat="43.1335482" lon="-2.7837765">
        <ele>124.399</ele>
        <time>2021-04-01T09:20:37.719Z</time>
      </trkpt>
      <trkpt lat="43.1335505" lon="-2.7837766">
        <ele>124.393</ele>
        <time>2021-04-01T09:20:37.777Z</time>
      </trkpt>
      <trkpt lat="43.1335527" lon="-2.7837766">
        <ele>124.365</ele>
        <time>2021-04-01T09:20:37.835Z</time>
      </trkpt>
      <trkpt lat="43.133555" lon="-2.7837768">
        <ele>124.333</ele>
        <time>2021-04-01T09:20:37.893Z</time>
      </trkpt>
      <trkpt lat="43.133557" lon="-2.7837768">
        <ele>124.296</ele>
        <time>2021-04-01T09:20:37.951Z</time>
      </trkpt>
      <trkpt lat="43.1335593" lon="-2.7837772">
        <ele>124.298</ele>
        <time>2021-04-01T09:20:38.009Z</time>
      </trkpt>
      <trkpt lat="43.1335614" lon="-2.7837773">
        <ele>124.249</ele>
        <time>2021-04-01T09:20:38.067Z</time>
      </trkpt>
      <trkpt lat="43.1335631" lon="-2.7837771">
        <ele>124.216</ele>
        <time>2021-04-01T09:20:38.125Z</time>
      </trkpt>
      <trkpt lat="43.1335651" lon="-2.7837773">
        <ele>124.192</ele>
        <time>2021-04-01T09:20:38.184Z</time>
      </trkpt>
      <trkpt lat="43.1335674" lon="-2.7837775">
        <ele>124.119</ele>
        <time>2021-04-01T09:20:38.235Z</time>
      </trkpt>
      <trkpt lat="43.1335698" lon="-2.7837775">
        <ele>124.061</ele>
        <time>2021-04-01T09:20:38.287Z</time>
      </trkpt>
      <trkpt lat="43.1335721" lon="-2.783778">
        <ele>124.067</ele>
        <time>2021-04-01T09:20:38.339Z</time>
      </trkpt>
      <trkpt lat="43.1335742" lon="-2.7837785">
        <ele>124.042</ele>
        <time>2021-04-01T09:20:38.391Z</time>
      </trkpt>
      <trkpt lat="43.1335762" lon="-2.7837788">
        <ele>123.978</ele>
        <time>2021-04-01T09:20:38.443Z</time>
      </trkpt>
      <trkpt lat="43.1335786" lon="-2.7837792">
        <ele>123.944</ele>
        <time>2021-04-01T09:20:38.495Z</time>
      </trkpt>
      <trkpt lat="43.1335808" lon="-2.7837799">
        <ele>123.937</ele>
        <time>2021-04-01T09:20:38.547Z</time>
      </trkpt>
      <trkpt lat="43.133583" lon="-2.7837805">
        <ele>123.921</ele>
        <time>2021-04-01T09:20:38.599Z</time>
      </trkpt>
      <trkpt lat="43.1335844" lon="-2.7837809">
        <ele>123.797</ele>
        <time>2021-04-01T09:20:38.651Z</time>
      </trkpt>
      <trkpt lat="43.1335861" lon="-2.783781">
        <ele>123.686</ele>
        <time>2021-04-01T09:20:38.703Z</time>
      </trkpt>
      <trkpt lat="43.133588" lon="-2.7837816">
        <ele>123.612</ele>
        <time>2021-04-01T09:20:38.755Z</time>
      </trkpt>
      <trkpt lat="43.1335896" lon="-2.7837823">
        <ele>123.582</ele>
        <time>2021-04-01T09:20:38.807Z</time>
      </trkpt>
      <trkpt lat="43.1335916" lon="-2.7837828">
        <ele>123.509</ele>
        <time>2021-04-01T09:20:38.859Z</time>
      </trkpt>
      <trkpt lat="43.1335942" lon="-2.7837832">
        <ele>123.513</ele>
        <time>2021-04-01T09:20:38.911Z</time>
      </trkpt>
      <trkpt lat="43.1335965" lon="-2.7837837">
        <ele>123.485</ele>
        <time>2021-04-01T09:20:38.963Z</time>
      </trkpt>
      <trkpt lat="43.1335984" lon="-2.7837843">
        <ele>123.448</ele>
        <time>2021-04-01T09:20:39.015Z</time>
      </trkpt>
      <trkpt lat="43.1336002" lon="-2.7837853">
        <ele>123.447</ele>
        <time>2021-04-01T09:20:39.067Z</time>
      </trkpt>
      <trkpt lat="43.1336024" lon="-2.7837862">
        <ele>123.457</ele>
        <time>2021-04-01T09:20:39.119Z</time>
      </trkpt>
      <trkpt lat="43.1336048" lon="-2.783787">
        <ele>123.449</ele>
        <time>2021-04-01T09:20:39.174Z</time>
      </trkpt>
      <trkpt lat="43.1336069" lon="-2.7837879">
        <ele>123.439</ele>
        <time>2021-04-01T09:20:39.229Z</time>
      </trkpt>
      <trkpt lat="43.1336091" lon="-2.7837888">
        <ele>123.471</ele>
        <time>2021-04-01T09:20:39.284Z</time>
      </trkpt>
      <trkpt lat="43.1336113" lon="-2.7837898">
        <ele>123.494</ele>
        <time>2021-04-01T09:20:39.339Z</time>
      </trkpt>
      <trkpt lat="43.1336135" lon="-2.7837912">
        <ele>123.55</ele>
        <time>2021-04-01T09:20:39.394Z</time>
      </trkpt>
      <trkpt lat="43.133616" lon="-2.7837925">
        <ele>123.59</ele>
        <time>2021-04-01T09:20:39.449Z</time>
      </trkpt>
      <trkpt lat="43.1336181" lon="-2.7837928">
        <ele>123.54</ele>
        <time>2021-04-01T09:20:39.504Z</time>
      </trkpt>
      <trkpt lat="43.1336202" lon="-2.7837936">
        <ele>123.52</ele>
        <time>2021-04-01T09:20:39.559Z</time>
      </trkpt>
      <trkpt lat="43.1336226" lon="-2.7837947">
        <ele>123.536</ele>
        <time>2021-04-01T09:20:39.614Z</time>
      </trkpt>
      <trkpt lat="43.1336248" lon="-2.7837958">
        <ele>123.553</ele>
        <time>2021-04-01T09:20:39.669Z</time>
      </trkpt>
      <trkpt lat="43.1336269" lon="-2.7837969">
        <ele>123.546</ele>
        <time>2021-04-01T09:20:39.724Z</time>
      </trkpt>
      <trkpt lat="43.1336289" lon="-2.7837979">
        <ele>123.563</ele>
        <time>2021-04-01T09:20:39.779Z</time>
      </trkpt>
      <trkpt lat="43.1336311" lon="-2.783799">
        <ele>123.577</ele>
        <time>2021-04-01T09:20:39.834Z</time>
      </trkpt>
      <trkpt lat="43.1336333" lon="-2.7838004">
        <ele>123.599</ele>
        <time>2021-04-01T09:20:39.889Z</time>
      </trkpt>
      <trkpt lat="43.1336355" lon="-2.7838015">
        <ele>123.607</ele>
        <time>2021-04-01T09:20:39.944Z</time>
      </trkpt>
      <trkpt lat="43.1336376" lon="-2.7838029">
        <ele>123.608</ele>
        <time>2021-04-01T09:20:39.999Z</time>
      </trkpt>
      <trkpt lat="43.1336397" lon="-2.7838046">
        <ele>123.636</ele>
        <time>2021-04-01T09:20:40.054Z</time>
      </trkpt>
      <trkpt lat="43.1336418" lon="-2.7838066">
        <ele>123.677</ele>
        <time>2021-04-01T09:20:40.109Z</time>
      </trkpt>
      <trkpt lat="43.1336439" lon="-2.7838075">
        <ele>123.643</ele>
        <time>2021-04-01T09:20:40.164Z</time>
      </trkpt>
      <trkpt lat="43.133646" lon="-2.783809">
        <ele>123.701</ele>
        <time>2021-04-01T09:20:40.219Z</time>
      </trkpt>
      <trkpt lat="43.1336483" lon="-2.783811">
        <ele>123.737</ele>
        <time>2021-04-01T09:20:40.274Z</time>
      </trkpt>
      <trkpt lat="43.1336503" lon="-2.7838128">
        <ele>123.756</ele>
        <time>2021-04-01T09:20:40.329Z</time>
      </trkpt>
      <trkpt lat="43.133652" lon="-2.783814">
        <ele>123.732</ele>
        <time>2021-04-01T09:20:40.384Z</time>
      </trkpt>
      <trkpt lat="43.1336541" lon="-2.783816">
        <ele>123.803</ele>
        <time>2021-04-01T09:20:40.439Z</time>
      </trkpt>
      <trkpt lat="43.1336563" lon="-2.7838181">
        <ele>123.889</ele>
        <time>2021-04-01T09:20:40.494Z</time>
      </trkpt>
      <trkpt lat="43.1336581" lon="-2.7838204">
        <ele>123.975</ele>
        <time>2021-04-01T09:20:40.549Z</time>
      </trkpt>
      <trkpt lat="43.1336599" lon="-2.7838227">
        <ele>124.056</ele>
        <time>2021-04-01T09:20:40.604Z</time>
      </trkpt>
      <trkpt lat="43.1336618" lon="-2.7838245">
        <ele>124.114</ele>
        <time>2021-04-01T09:20:40.659Z</time>
      </trkpt>
      <trkpt lat="43.133664" lon="-2.7838261">
        <ele>124.165</ele>
        <time>2021-04-01T09:20:40.714Z</time>
      </trkpt>
      <trkpt lat="43.1336661" lon="-2.7838279">
        <ele>124.245</ele>
        <time>2021-04-01T09:20:40.769Z</time>
      </trkpt>
      <trkpt lat="43.1336682" lon="-2.7838298">
        <ele>124.322</ele>
        <time>2021-04-01T09:20:40.824Z</time>
      </trkpt>
      <trkpt lat="43.1336702" lon="-2.7838315">
        <ele>124.373</ele>
        <time>2021-04-01T09:20:40.879Z</time>
      </trkpt>
      <trkpt lat="43.1336731" lon="-2.7838316">
        <ele>124.445</ele>
        <time>2021-04-01T09:20:40.934Z</time>
      </trkpt>
      <trkpt lat="43.1336758" lon="-2.7838321">
        <ele>124.5</ele>
        <time>2021-04-01T09:20:40.989Z</time>
      </trkpt>
      <trkpt lat="43.1336785" lon="-2.7838326">
        <ele>124.533</ele>
        <time>2021-04-01T09:20:41.044Z</time>
      </trkpt>
      <trkpt lat="43.1336815" lon="-2.7838331">
        <ele>124.607</ele>
        <time>2021-04-01T09:20:41.099Z</time>
      </trkpt>
      <trkpt lat="43.1336843" lon="-2.7838335">
        <ele>124.647</ele>
        <time>2021-04-01T09:20:41.154Z</time>
      </trkpt>
      <trkpt lat="43.133687" lon="-2.783834">
        <ele>124.7</ele>
        <time>2021-04-01T09:20:41.209Z</time>
      </trkpt>
      <trkpt lat="43.1336889" lon="-2.7838359">
        <ele>124.758</ele>
        <time>2021-04-01T09:20:41.264Z</time>
      </trkpt>
      <trkpt lat="43.1336907" lon="-2.7838379">
        <ele>124.752</ele>
        <time>2021-04-01T09:20:41.319Z</time>
      </trkpt>
      <trkpt lat="43.1336925" lon="-2.7838401">
        <ele>124.746</ele>
        <time>2021-04-01T09:20:41.374Z</time>
      </trkpt>
      <trkpt lat="43.1336942" lon="-2.7838429">
        <ele>124.794</ele>
        <time>2021-04-01T09:20:41.429Z</time>
      </trkpt>
      <trkpt lat="43.1336959" lon="-2.7838452">
        <ele>124.792</ele>
        <time>2021-04-01T09:20:41.484Z</time>
      </trkpt>
      <trkpt lat="43.1336977" lon="-2.7838475">
        <ele>124.751</ele>
        <time>2021-04-01T09:20:41.539Z</time>
      </trkpt>
      <trkpt lat="43.1336993" lon="-2.78385">
        <ele>124.729</ele>
        <time>2021-04-01T09:20:41.594Z</time>
      </trkpt>
      <trkpt lat="43.1337008" lon="-2.783853">
        <ele>124.752</ele>
        <time>2021-04-01T09:20:41.649Z</time>
      </trkpt>
      <trkpt lat="43.1337022" lon="-2.7838565">
        <ele>124.841</ele>
        <time>2021-04-01T09:20:41.704Z</time>
      </trkpt>
      <trkpt lat="43.1337037" lon="-2.7838597">
        <ele>124.902</ele>
        <time>2021-04-01T09:20:41.759Z</time>
      </trkpt>
      <trkpt lat="43.133705" lon="-2.7838624">
        <ele>125.02</ele>
        <time>2021-04-01T09:20:41.814Z</time>
      </trkpt>
      <trkpt lat="43.1337065" lon="-2.7838655">
        <ele>125.011</ele>
        <time>2021-04-01T09:20:41.869Z</time>
      </trkpt>
      <trkpt lat="43.1337079" lon="-2.7838686">
        <ele>125.048</ele>
        <time>2021-04-01T09:20:41.924Z</time>
      </trkpt>
      <trkpt lat="43.1337094" lon="-2.7838711">
        <ele>125.054</ele>
        <time>2021-04-01T09:20:41.979Z</time>
      </trkpt>
      <trkpt lat="43.1337105" lon="-2.7838744">
        <ele>125.066</ele>
        <time>2021-04-01T09:20:42.034Z</time>
      </trkpt>
      <trkpt lat="43.1337115" lon="-2.7838774">
        <ele>125.159</ele>
        <time>2021-04-01T09:20:42.089Z</time>
      </trkpt>
      <trkpt lat="43.1337127" lon="-2.7838811">
        <ele>125.275</ele>
        <time>2021-04-01T09:20:42.144Z</time>
      </trkpt>
      <trkpt lat="43.133714" lon="-2.7838842">
        <ele>125.377</ele>
        <time>2021-04-01T09:20:42.196Z</time>
      </trkpt>
      <trkpt lat="43.1337151" lon="-2.7838875">
        <ele>125.449</ele>
        <time>2021-04-01T09:20:42.248Z</time>
      </trkpt>
      <trkpt lat="43.1337163" lon="-2.7838907">
        <ele>125.531</ele>
        <time>2021-04-01T09:20:42.300Z</time>
      </trkpt>
      <trkpt lat="43.1337174" lon="-2.7838941">
        <ele>125.615</ele>
        <time>2021-04-01T09:20:42.352Z</time>
      </trkpt>
      <trkpt lat="43.1337185" lon="-2.7838973">
        <ele>125.723</ele>
        <time>2021-04-01T09:20:42.404Z</time>
      </trkpt>
      <trkpt lat="43.1337195" lon="-2.7839005">
        <ele>125.775</ele>
        <time>2021-04-01T09:20:42.456Z</time>
      </trkpt>
      <trkpt lat="43.1337206" lon="-2.7839038">
        <ele>125.841</ele>
        <time>2021-04-01T09:20:42.508Z</time>
      </trkpt>
      <trkpt lat="43.1337217" lon="-2.7839074">
        <ele>125.918</ele>
        <time>2021-04-01T09:20:42.560Z</time>
      </trkpt>
      <trkpt lat="43.1337228" lon="-2.7839108">
        <ele>126.015</ele>
        <time>2021-04-01T09:20:42.612Z</time>
      </trkpt>
      <trkpt lat="43.1337239" lon="-2.7839143">
        <ele>126.131</ele>
        <time>2021-04-01T09:20:42.665Z</time>
      </trkpt>
      <trkpt lat="43.1337251" lon="-2.7839179">
        <ele>126.24</ele>
        <time>2021-04-01T09:20:42.717Z</time>
      </trkpt>
      <trkpt lat="43.1337264" lon="-2.7839219">
        <ele>126.331</ele>
        <time>2021-04-01T09:20:42.769Z</time>
      </trkpt>
      <trkpt lat="43.1337278" lon="-2.7839255">
        <ele>126.381</ele>
        <time>2021-04-01T09:20:42.821Z</time>
      </trkpt>
      <trkpt lat="43.1337287" lon="-2.7839289">
        <ele>126.444</ele>
        <time>2021-04-01T09:20:42.873Z</time>
      </trkpt>
      <trkpt lat="43.13373" lon="-2.7839326">
        <ele>126.461</ele>
        <time>2021-04-01T09:20:42.925Z</time>
      </trkpt>
      <trkpt lat="43.1337313" lon="-2.7839365">
        <ele>126.512</ele>
        <time>2021-04-01T09:20:42.977Z</time>
      </trkpt>
      <trkpt lat="43.133733" lon="-2.7839403">
        <ele>126.525</ele>
        <time>2021-04-01T09:20:43.029Z</time>
      </trkpt>
      <trkpt lat="43.1337342" lon="-2.783944">
        <ele>126.653</ele>
        <time>2021-04-01T09:20:43.081Z</time>
      </trkpt>
      <trkpt lat="43.1337358" lon="-2.7839482">
        <ele>126.665</ele>
        <time>2021-04-01T09:20:43.134Z</time>
      </trkpt>
      <trkpt lat="43.1337373" lon="-2.7839521">
        <ele>126.642</ele>
        <time>2021-04-01T09:20:43.192Z</time>
      </trkpt>
      <trkpt lat="43.1337384" lon="-2.7839566">
        <ele>126.66</ele>
        <time>2021-04-01T09:20:43.250Z</time>
      </trkpt>
      <trkpt lat="43.1337394" lon="-2.7839607">
        <ele>126.69</ele>
        <time>2021-04-01T09:20:43.308Z</time>
      </trkpt>
      <trkpt lat="43.1337404" lon="-2.7839644">
        <ele>126.715</ele>
        <time>2021-04-01T09:20:43.366Z</time>
      </trkpt>
      <trkpt lat="43.1337414" lon="-2.7839681">
        <ele>126.743</ele>
        <time>2021-04-01T09:20:43.425Z</time>
      </trkpt>
      <trkpt lat="43.1337426" lon="-2.7839717">
        <ele>126.772</ele>
        <time>2021-04-01T09:20:43.483Z</time>
      </trkpt>
      <trkpt lat="43.1337438" lon="-2.7839756">
        <ele>126.762</ele>
        <time>2021-04-01T09:20:43.541Z</time>
      </trkpt>
      <trkpt lat="43.1337448" lon="-2.7839797">
        <ele>126.766</ele>
        <time>2021-04-01T09:20:43.599Z</time>
      </trkpt>
      <trkpt lat="43.1337458" lon="-2.7839835">
        <ele>126.734</ele>
        <time>2021-04-01T09:20:43.658Z</time>
      </trkpt>
      <trkpt lat="43.133747" lon="-2.7839868">
        <ele>126.723</ele>
        <time>2021-04-01T09:20:43.716Z</time>
      </trkpt>
      <trkpt lat="43.1337481" lon="-2.7839906">
        <ele>126.731</ele>
        <time>2021-04-01T09:20:43.774Z</time>
      </trkpt>
      <trkpt lat="43.1337492" lon="-2.7839942">
        <ele>126.735</ele>
        <time>2021-04-01T09:20:43.832Z</time>
      </trkpt>
      <trkpt lat="43.1337503" lon="-2.7839979">
        <ele>126.735</ele>
        <time>2021-04-01T09:20:43.891Z</time>
      </trkpt>
      <trkpt lat="43.1337516" lon="-2.7840018">
        <ele>126.698</ele>
        <time>2021-04-01T09:20:43.949Z</time>
      </trkpt>
      <trkpt lat="43.1337533" lon="-2.7840058">
        <ele>126.666</ele>
        <time>2021-04-01T09:20:44.007Z</time>
      </trkpt>
      <trkpt lat="43.1337549" lon="-2.7840096">
        <ele>126.673</ele>
        <time>2021-04-01T09:20:44.065Z</time>
      </trkpt>
      <trkpt lat="43.1337563" lon="-2.7840135">
        <ele>126.672</ele>
        <time>2021-04-01T09:20:44.124Z</time>
      </trkpt>
      <trkpt lat="43.1337576" lon="-2.784017">
        <ele>126.683</ele>
        <time>2021-04-01T09:20:44.179Z</time>
      </trkpt>
      <trkpt lat="43.1337589" lon="-2.7840208">
        <ele>126.7</ele>
        <time>2021-04-01T09:20:44.234Z</time>
      </trkpt>
      <trkpt lat="43.1337606" lon="-2.7840247">
        <ele>126.707</ele>
        <time>2021-04-01T09:20:44.289Z</time>
      </trkpt>
      <trkpt lat="43.1337623" lon="-2.7840278">
        <ele>126.667</ele>
        <time>2021-04-01T09:20:44.344Z</time>
      </trkpt>
      <trkpt lat="43.133764" lon="-2.7840306">
        <ele>126.576</ele>
        <time>2021-04-01T09:20:44.399Z</time>
      </trkpt>
      <trkpt lat="43.1337659" lon="-2.7840339">
        <ele>126.546</ele>
        <time>2021-04-01T09:20:44.454Z</time>
      </trkpt>
      <trkpt lat="43.1337677" lon="-2.7840366">
        <ele>126.488</ele>
        <time>2021-04-01T09:20:44.509Z</time>
      </trkpt>
      <trkpt lat="43.1337693" lon="-2.7840401">
        <ele>126.482</ele>
        <time>2021-04-01T09:20:44.564Z</time>
      </trkpt>
      <trkpt lat="43.1337708" lon="-2.7840435">
        <ele>126.462</ele>
        <time>2021-04-01T09:20:44.619Z</time>
      </trkpt>
      <trkpt lat="43.1337727" lon="-2.7840464">
        <ele>126.397</ele>
        <time>2021-04-01T09:20:44.674Z</time>
      </trkpt>
      <trkpt lat="43.1337743" lon="-2.7840495">
        <ele>126.279</ele>
        <time>2021-04-01T09:20:44.729Z</time>
      </trkpt>
      <trkpt lat="43.1337759" lon="-2.7840523">
        <ele>126.128</ele>
        <time>2021-04-01T09:20:44.784Z</time>
      </trkpt>
      <trkpt lat="43.1337777" lon="-2.7840555">
        <ele>126.039</ele>
        <time>2021-04-01T09:20:44.839Z</time>
      </trkpt>
      <trkpt lat="43.1337793" lon="-2.7840589">
        <ele>125.982</ele>
        <time>2021-04-01T09:20:44.894Z</time>
      </trkpt>
      <trkpt lat="43.1337809" lon="-2.784062">
        <ele>125.869</ele>
        <time>2021-04-01T09:20:44.949Z</time>
      </trkpt>
      <trkpt lat="43.1337825" lon="-2.784065">
        <ele>125.72</ele>
        <time>2021-04-01T09:20:45.004Z</time>
      </trkpt>
      <trkpt lat="43.133784" lon="-2.7840677">
        <ele>125.56</ele>
        <time>2021-04-01T09:20:45.059Z</time>
      </trkpt>
      <trkpt lat="43.1337857" lon="-2.7840705">
        <ele>125.455</ele>
        <time>2021-04-01T09:20:45.114Z</time>
      </trkpt>
      <trkpt lat="43.1337874" lon="-2.7840736">
        <ele>125.373</ele>
        <time>2021-04-01T09:20:45.169Z</time>
      </trkpt>
      <trkpt lat="43.1337889" lon="-2.7840774">
        <ele>125.285</ele>
        <time>2021-04-01T09:20:45.227Z</time>
      </trkpt>
      <trkpt lat="43.1337906" lon="-2.7840809">
        <ele>125.214</ele>
        <time>2021-04-01T09:20:45.285Z</time>
      </trkpt>
      <trkpt lat="43.1337924" lon="-2.7840842">
        <ele>125.15</ele>
        <time>2021-04-01T09:20:45.343Z</time>
      </trkpt>
      <trkpt lat="43.133794" lon="-2.7840874">
        <ele>125.097</ele>
        <time>2021-04-01T09:20:45.401Z</time>
      </trkpt>
      <trkpt lat="43.1337954" lon="-2.7840907">
        <ele>125.066</ele>
        <time>2021-04-01T09:20:45.460Z</time>
      </trkpt>
      <trkpt lat="43.1337971" lon="-2.7840941">
        <ele>125.027</ele>
        <time>2021-04-01T09:20:45.518Z</time>
      </trkpt>
      <trkpt lat="43.1337988" lon="-2.7840978">
        <ele>124.98</ele>
        <time>2021-04-01T09:20:45.576Z</time>
      </trkpt>
      <trkpt lat="43.1338005" lon="-2.784101">
        <ele>124.926</ele>
        <time>2021-04-01T09:20:45.634Z</time>
      </trkpt>
      <trkpt lat="43.1338023" lon="-2.7841043">
        <ele>124.915</ele>
        <time>2021-04-01T09:20:45.693Z</time>
      </trkpt>
      <trkpt lat="43.1338039" lon="-2.7841076">
        <ele>124.905</ele>
        <time>2021-04-01T09:20:45.751Z</time>
      </trkpt>
      <trkpt lat="43.1338057" lon="-2.7841112">
        <ele>124.9</ele>
        <time>2021-04-01T09:20:45.809Z</time>
      </trkpt>
      <trkpt lat="43.1338073" lon="-2.7841147">
        <ele>124.872</ele>
        <time>2021-04-01T09:20:45.867Z</time>
      </trkpt>
      <trkpt lat="43.133809" lon="-2.7841181">
        <ele>124.847</ele>
        <time>2021-04-01T09:20:45.926Z</time>
      </trkpt>
      <trkpt lat="43.1338108" lon="-2.7841215">
        <ele>124.828</ele>
        <time>2021-04-01T09:20:45.984Z</time>
      </trkpt>
      <trkpt lat="43.1338125" lon="-2.7841248">
        <ele>124.818</ele>
        <time>2021-04-01T09:20:46.042Z</time>
      </trkpt>
      <trkpt lat="43.1338138" lon="-2.7841283">
        <ele>124.809</ele>
        <time>2021-04-01T09:20:46.100Z</time>
      </trkpt>
      <trkpt lat="43.1338153" lon="-2.7841319">
        <ele>124.797</ele>
        <time>2021-04-01T09:20:46.159Z</time>
      </trkpt>
      <trkpt lat="43.1338169" lon="-2.7841353">
        <ele>124.737</ele>
        <time>2021-04-01T09:20:46.211Z</time>
      </trkpt>
      <trkpt lat="43.1338183" lon="-2.7841382">
        <ele>124.65</ele>
        <time>2021-04-01T09:20:46.263Z</time>
      </trkpt>
      <trkpt lat="43.1338199" lon="-2.7841412">
        <ele>124.612</ele>
        <time>2021-04-01T09:20:46.315Z</time>
      </trkpt>
      <trkpt lat="43.1338216" lon="-2.7841445">
        <ele>124.592</ele>
        <time>2021-04-01T09:20:46.367Z</time>
      </trkpt>
      <trkpt lat="43.1338231" lon="-2.7841473">
        <ele>124.516</ele>
        <time>2021-04-01T09:20:46.419Z</time>
      </trkpt>
      <trkpt lat="43.1338244" lon="-2.7841504">
        <ele>124.45</ele>
        <time>2021-04-01T09:20:46.471Z</time>
      </trkpt>
      <trkpt lat="43.1338261" lon="-2.7841533">
        <ele>124.368</ele>
        <time>2021-04-01T09:20:46.523Z</time>
      </trkpt>
      <trkpt lat="43.1338277" lon="-2.7841564">
        <ele>124.282</ele>
        <time>2021-04-01T09:20:46.575Z</time>
      </trkpt>
      <trkpt lat="43.1338292" lon="-2.7841592">
        <ele>124.214</ele>
        <time>2021-04-01T09:20:46.627Z</time>
      </trkpt>
      <trkpt lat="43.1338306" lon="-2.7841619">
        <ele>124.091</ele>
        <time>2021-04-01T09:20:46.680Z</time>
      </trkpt>
      <trkpt lat="43.1338322" lon="-2.7841652">
        <ele>124.041</ele>
        <time>2021-04-01T09:20:46.732Z</time>
      </trkpt>
      <trkpt lat="43.1338336" lon="-2.7841685">
        <ele>123.988</ele>
        <time>2021-04-01T09:20:46.784Z</time>
      </trkpt>
      <trkpt lat="43.1338347" lon="-2.7841716">
        <ele>123.922</ele>
        <time>2021-04-01T09:20:46.836Z</time>
      </trkpt>
      <trkpt lat="43.133836" lon="-2.7841749">
        <ele>123.911</ele>
        <time>2021-04-01T09:20:46.888Z</time>
      </trkpt>
      <trkpt lat="43.1338377" lon="-2.7841777">
        <ele>123.855</ele>
        <time>2021-04-01T09:20:46.940Z</time>
      </trkpt>
      <trkpt lat="43.1338395" lon="-2.7841811">
        <ele>123.85</ele>
        <time>2021-04-01T09:20:46.992Z</time>
      </trkpt>
      <trkpt lat="43.1338411" lon="-2.7841846">
        <ele>123.827</ele>
        <time>2021-04-01T09:20:47.044Z</time>
      </trkpt>
      <trkpt lat="43.1338427" lon="-2.7841879">
        <ele>123.848</ele>
        <time>2021-04-01T09:20:47.096Z</time>
      </trkpt>
      <trkpt lat="43.1338443" lon="-2.7841912">
        <ele>123.833</ele>
        <time>2021-04-01T09:20:47.149Z</time>
      </trkpt>
      <trkpt lat="43.1338461" lon="-2.7841942">
        <ele>123.801</ele>
        <time>2021-04-01T09:20:47.207Z</time>
      </trkpt>
      <trkpt lat="43.1338478" lon="-2.7841973">
        <ele>123.747</ele>
        <time>2021-04-01T09:20:47.265Z</time>
      </trkpt>
      <trkpt lat="43.1338491" lon="-2.7842003">
        <ele>123.659</ele>
        <time>2021-04-01T09:20:47.323Z</time>
      </trkpt>
      <trkpt lat="43.1338513" lon="-2.7842032">
        <ele>123.665</ele>
        <time>2021-04-01T09:20:47.381Z</time>
      </trkpt>
      <trkpt lat="43.1338533" lon="-2.7842064">
        <ele>123.683</ele>
        <time>2021-04-01T09:20:47.439Z</time>
      </trkpt>
      <trkpt lat="43.1338554" lon="-2.7842095">
        <ele>123.719</ele>
        <time>2021-04-01T09:20:47.497Z</time>
      </trkpt>
      <trkpt lat="43.1338571" lon="-2.784213">
        <ele>123.706</ele>
        <time>2021-04-01T09:20:47.555Z</time>
      </trkpt>
      <trkpt lat="43.1338589" lon="-2.784216">
        <ele>123.667</ele>
        <time>2021-04-01T09:20:47.613Z</time>
      </trkpt>
      <trkpt lat="43.1338608" lon="-2.7842194">
        <ele>123.672</ele>
        <time>2021-04-01T09:20:47.671Z</time>
      </trkpt>
      <trkpt lat="43.1338626" lon="-2.784223">
        <ele>123.719</ele>
        <time>2021-04-01T09:20:47.729Z</time>
      </trkpt>
      <trkpt lat="43.1338643" lon="-2.7842268">
        <ele>123.733</ele>
        <time>2021-04-01T09:20:47.787Z</time>
      </trkpt>
      <trkpt lat="43.1338661" lon="-2.7842304">
        <ele>123.793</ele>
        <time>2021-04-01T09:20:47.845Z</time>
      </trkpt>
      <trkpt lat="43.1338679" lon="-2.7842332">
        <ele>123.761</ele>
        <time>2021-04-01T09:20:47.903Z</time>
      </trkpt>
      <trkpt lat="43.1338692" lon="-2.7842362">
        <ele>123.708</ele>
        <time>2021-04-01T09:20:47.961Z</time>
      </trkpt>
      <trkpt lat="43.133871" lon="-2.7842394">
        <ele>123.671</ele>
        <time>2021-04-01T09:20:48.019Z</time>
      </trkpt>
      <trkpt lat="43.1338722" lon="-2.7842424">
        <ele>123.602</ele>
        <time>2021-04-01T09:20:48.077Z</time>
      </trkpt>
      <trkpt lat="43.1338736" lon="-2.7842454">
        <ele>123.554</ele>
        <time>2021-04-01T09:20:48.135Z</time>
      </trkpt>
      <trkpt lat="43.1338755" lon="-2.7842486">
        <ele>123.552</ele>
        <time>2021-04-01T09:20:48.194Z</time>
      </trkpt>
      <trkpt lat="43.1338769" lon="-2.7842513">
        <ele>123.476</ele>
        <time>2021-04-01T09:20:48.245Z</time>
      </trkpt>
      <trkpt lat="43.1338784" lon="-2.7842542">
        <ele>123.429</ele>
        <time>2021-04-01T09:20:48.297Z</time>
      </trkpt>
      <trkpt lat="43.1338795" lon="-2.7842572">
        <ele>123.361</ele>
        <time>2021-04-01T09:20:48.349Z</time>
      </trkpt>
      <trkpt lat="43.1338809" lon="-2.7842602">
        <ele>123.298</ele>
        <time>2021-04-01T09:20:48.401Z</time>
      </trkpt>
      <trkpt lat="43.1338824" lon="-2.7842633">
        <ele>123.262</ele>
        <time>2021-04-01T09:20:48.453Z</time>
      </trkpt>
      <trkpt lat="43.1338842" lon="-2.7842666">
        <ele>123.267</ele>
        <time>2021-04-01T09:20:48.505Z</time>
      </trkpt>
      <trkpt lat="43.1338858" lon="-2.7842697">
        <ele>123.258</ele>
        <time>2021-04-01T09:20:48.557Z</time>
      </trkpt>
      <trkpt lat="43.133887" lon="-2.7842729">
        <ele>123.159</ele>
        <time>2021-04-01T09:20:48.609Z</time>
      </trkpt>
      <trkpt lat="43.1338883" lon="-2.784276">
        <ele>123.091</ele>
        <time>2021-04-01T09:20:48.661Z</time>
      </trkpt>
      <trkpt lat="43.1338897" lon="-2.7842792">
        <ele>123.06</ele>
        <time>2021-04-01T09:20:48.713Z</time>
      </trkpt>
      <trkpt lat="43.133891" lon="-2.7842818">
        <ele>122.964</ele>
        <time>2021-04-01T09:20:48.765Z</time>
      </trkpt>
      <trkpt lat="43.1338923" lon="-2.7842844">
        <ele>122.859</ele>
        <time>2021-04-01T09:20:48.817Z</time>
      </trkpt>
      <trkpt lat="43.1338938" lon="-2.7842871">
        <ele>122.765</ele>
        <time>2021-04-01T09:20:48.869Z</time>
      </trkpt>
      <trkpt lat="43.1338953" lon="-2.7842897">
        <ele>122.679</ele>
        <time>2021-04-01T09:20:48.921Z</time>
      </trkpt>
      <trkpt lat="43.1338965" lon="-2.7842924">
        <ele>122.56</ele>
        <time>2021-04-01T09:20:48.973Z</time>
      </trkpt>
      <trkpt lat="43.1338976" lon="-2.7842951">
        <ele>122.454</ele>
        <time>2021-04-01T09:20:49.025Z</time>
      </trkpt>
      <trkpt lat="43.133899" lon="-2.7842976">
        <ele>122.355</ele>
        <time>2021-04-01T09:20:49.077Z</time>
      </trkpt>
      <trkpt lat="43.1339004" lon="-2.7843002">
        <ele>122.255</ele>
        <time>2021-04-01T09:20:49.129Z</time>
      </trkpt>
      <trkpt lat="43.1339019" lon="-2.7843028">
        <ele>122.165</ele>
        <time>2021-04-01T09:20:49.184Z</time>
      </trkpt>
      <trkpt lat="43.1339038" lon="-2.7843059">
        <ele>122.162</ele>
        <time>2021-04-01T09:20:49.239Z</time>
      </trkpt>
      <trkpt lat="43.1339052" lon="-2.7843087">
        <ele>122.097</ele>
        <time>2021-04-01T09:20:49.294Z</time>
      </trkpt>
      <trkpt lat="43.1339065" lon="-2.7843116">
        <ele>122.037</ele>
        <time>2021-04-01T09:20:49.349Z</time>
      </trkpt>
      <trkpt lat="43.1339075" lon="-2.7843142">
        <ele>121.932</ele>
        <time>2021-04-01T09:20:49.404Z</time>
      </trkpt>
      <trkpt lat="43.1339087" lon="-2.7843169">
        <ele>121.826</ele>
        <time>2021-04-01T09:20:49.459Z</time>
      </trkpt>
      <trkpt lat="43.1339103" lon="-2.7843198">
        <ele>121.793</ele>
        <time>2021-04-01T09:20:49.514Z</time>
      </trkpt>
      <trkpt lat="43.1339119" lon="-2.7843228">
        <ele>121.749</ele>
        <time>2021-04-01T09:20:49.569Z</time>
      </trkpt>
      <trkpt lat="43.133913" lon="-2.7843256">
        <ele>121.641</ele>
        <time>2021-04-01T09:20:49.624Z</time>
      </trkpt>
      <trkpt lat="43.1339145" lon="-2.7843286">
        <ele>121.606</ele>
        <time>2021-04-01T09:20:49.679Z</time>
      </trkpt>
      <trkpt lat="43.1339162" lon="-2.784332">
        <ele>121.665</ele>
        <time>2021-04-01T09:20:49.734Z</time>
      </trkpt>
      <trkpt lat="43.1339178" lon="-2.7843351">
        <ele>121.677</ele>
        <time>2021-04-01T09:20:49.789Z</time>
      </trkpt>
      <trkpt lat="43.1339191" lon="-2.784338">
        <ele>121.634</ele>
        <time>2021-04-01T09:20:49.844Z</time>
      </trkpt>
      <trkpt lat="43.1339204" lon="-2.7843408">
        <ele>121.56</ele>
        <time>2021-04-01T09:20:49.899Z</time>
      </trkpt>
      <trkpt lat="43.1339212" lon="-2.7843436">
        <ele>121.439</ele>
        <time>2021-04-01T09:20:49.954Z</time>
      </trkpt>
      <trkpt lat="43.1339225" lon="-2.7843468">
        <ele>121.385</ele>
        <time>2021-04-01T09:20:50.009Z</time>
      </trkpt>
      <trkpt lat="43.1339241" lon="-2.7843496">
        <ele>121.339</ele>
        <time>2021-04-01T09:20:50.064Z</time>
      </trkpt>
      <trkpt lat="43.1339257" lon="-2.7843524">
        <ele>121.283</ele>
        <time>2021-04-01T09:20:50.119Z</time>
      </trkpt>
      <trkpt lat="43.1339276" lon="-2.7843555">
        <ele>121.337</ele>
        <time>2021-04-01T09:20:50.174Z</time>
      </trkpt>
      <trkpt lat="43.1339294" lon="-2.7843587">
        <ele>121.428</ele>
        <time>2021-04-01T09:20:50.232Z</time>
      </trkpt>
      <trkpt lat="43.1339307" lon="-2.7843616">
        <ele>121.37</ele>
        <time>2021-04-01T09:20:50.290Z</time>
      </trkpt>
      <trkpt lat="43.1339321" lon="-2.7843647">
        <ele>121.282</ele>
        <time>2021-04-01T09:20:50.348Z</time>
      </trkpt>
      <trkpt lat="43.1339334" lon="-2.7843676">
        <ele>121.212</ele>
        <time>2021-04-01T09:20:50.406Z</time>
      </trkpt>
      <trkpt lat="43.1339346" lon="-2.7843701">
        <ele>121.155</ele>
        <time>2021-04-01T09:20:50.465Z</time>
      </trkpt>
      <trkpt lat="43.133936" lon="-2.7843729">
        <ele>121.106</ele>
        <time>2021-04-01T09:20:50.523Z</time>
      </trkpt>
      <trkpt lat="43.1339372" lon="-2.7843754">
        <ele>120.959</ele>
        <time>2021-04-01T09:20:50.581Z</time>
      </trkpt>
      <trkpt lat="43.1339387" lon="-2.7843782">
        <ele>120.87</ele>
        <time>2021-04-01T09:20:50.639Z</time>
      </trkpt>
      <trkpt lat="43.1339401" lon="-2.7843813">
        <ele>120.838</ele>
        <time>2021-04-01T09:20:50.698Z</time>
      </trkpt>
      <trkpt lat="43.1339415" lon="-2.7843849">
        <ele>120.858</ele>
        <time>2021-04-01T09:20:50.756Z</time>
      </trkpt>
      <trkpt lat="43.1339433" lon="-2.7843886">
        <ele>120.908</ele>
        <time>2021-04-01T09:20:50.814Z</time>
      </trkpt>
      <trkpt lat="43.1339449" lon="-2.7843918">
        <ele>120.833</ele>
        <time>2021-04-01T09:20:50.872Z</time>
      </trkpt>
      <trkpt lat="43.1339462" lon="-2.7843949">
        <ele>120.781</ele>
        <time>2021-04-01T09:20:50.931Z</time>
      </trkpt>
      <trkpt lat="43.1339482" lon="-2.7843988">
        <ele>120.899</ele>
        <time>2021-04-01T09:20:50.989Z</time>
      </trkpt>
      <trkpt lat="43.13395" lon="-2.7844024">
        <ele>120.97</ele>
        <time>2021-04-01T09:20:51.047Z</time>
      </trkpt>
      <trkpt lat="43.1339514" lon="-2.7844059">
        <ele>120.933</ele>
        <time>2021-04-01T09:20:51.105Z</time>
      </trkpt>
      <trkpt lat="43.133953" lon="-2.7844093">
        <ele>120.908</ele>
        <time>2021-04-01T09:20:51.164Z</time>
      </trkpt>
      <trkpt lat="43.1339546" lon="-2.7844123">
        <ele>120.854</ele>
        <time>2021-04-01T09:20:51.216Z</time>
      </trkpt>
      <trkpt lat="43.1339562" lon="-2.7844155">
        <ele>120.868</ele>
        <time>2021-04-01T09:20:51.268Z</time>
      </trkpt>
      <trkpt lat="43.1339576" lon="-2.7844187">
        <ele>120.847</ele>
        <time>2021-04-01T09:20:51.320Z</time>
      </trkpt>
      <trkpt lat="43.1339591" lon="-2.784422">
        <ele>120.811</ele>
        <time>2021-04-01T09:20:51.372Z</time>
      </trkpt>
      <trkpt lat="43.1339607" lon="-2.7844254">
        <ele>120.81</ele>
        <time>2021-04-01T09:20:51.424Z</time>
      </trkpt>
      <trkpt lat="43.133962" lon="-2.7844287">
        <ele>120.791</ele>
        <time>2021-04-01T09:20:51.476Z</time>
      </trkpt>
      <trkpt lat="43.1339637" lon="-2.7844321">
        <ele>120.826</ele>
        <time>2021-04-01T09:20:51.528Z</time>
      </trkpt>
      <trkpt lat="43.1339651" lon="-2.7844354">
        <ele>120.782</ele>
        <time>2021-04-01T09:20:51.580Z</time>
      </trkpt>
      <trkpt lat="43.1339667" lon="-2.7844391">
        <ele>120.79</ele>
        <time>2021-04-01T09:20:51.632Z</time>
      </trkpt>
      <trkpt lat="43.1339685" lon="-2.7844426">
        <ele>120.829</ele>
        <time>2021-04-01T09:20:51.685Z</time>
      </trkpt>
      <trkpt lat="43.13397" lon="-2.7844463">
        <ele>120.836</ele>
        <time>2021-04-01T09:20:51.737Z</time>
      </trkpt>
      <trkpt lat="43.133972" lon="-2.7844501">
        <ele>120.913</ele>
        <time>2021-04-01T09:20:51.789Z</time>
      </trkpt>
      <trkpt lat="43.1339733" lon="-2.7844532">
        <ele>120.856</ele>
        <time>2021-04-01T09:20:51.841Z</time>
      </trkpt>
      <trkpt lat="43.1339749" lon="-2.7844568">
        <ele>120.853</ele>
        <time>2021-04-01T09:20:51.893Z</time>
      </trkpt>
      <trkpt lat="43.1339766" lon="-2.7844608">
        <ele>120.901</ele>
        <time>2021-04-01T09:20:51.945Z</time>
      </trkpt>
      <trkpt lat="43.1339782" lon="-2.7844643">
        <ele>120.941</ele>
        <time>2021-04-01T09:20:51.997Z</time>
      </trkpt>
      <trkpt lat="43.1339798" lon="-2.7844679">
        <ele>120.954</ele>
        <time>2021-04-01T09:20:52.049Z</time>
      </trkpt>
      <trkpt lat="43.1339813" lon="-2.7844714">
        <ele>120.93</ele>
        <time>2021-04-01T09:20:52.101Z</time>
      </trkpt>
      <trkpt lat="43.1339828" lon="-2.7844747">
        <ele>120.928</ele>
        <time>2021-04-01T09:20:52.154Z</time>
      </trkpt>
      <trkpt lat="43.1339847" lon="-2.7844781">
        <ele>120.972</ele>
        <time>2021-04-01T09:20:52.209Z</time>
      </trkpt>
      <trkpt lat="43.1339862" lon="-2.7844814">
        <ele>120.958</ele>
        <time>2021-04-01T09:20:52.264Z</time>
      </trkpt>
      <trkpt lat="43.1339878" lon="-2.7844847">
        <ele>120.928</ele>
        <time>2021-04-01T09:20:52.319Z</time>
      </trkpt>
      <trkpt lat="43.1339892" lon="-2.7844883">
        <ele>120.917</ele>
        <time>2021-04-01T09:20:52.374Z</time>
      </trkpt>
      <trkpt lat="43.133991" lon="-2.7844924">
        <ele>120.972</ele>
        <time>2021-04-01T09:20:52.429Z</time>
      </trkpt>
      <trkpt lat="43.1339925" lon="-2.7844961">
        <ele>120.971</ele>
        <time>2021-04-01T09:20:52.484Z</time>
      </trkpt>
      <trkpt lat="43.133994" lon="-2.7845">
        <ele>120.991</ele>
        <time>2021-04-01T09:20:52.539Z</time>
      </trkpt>
      <trkpt lat="43.1339953" lon="-2.784504">
        <ele>120.986</ele>
        <time>2021-04-01T09:20:52.594Z</time>
      </trkpt>
      <trkpt lat="43.1339968" lon="-2.7845078">
        <ele>120.988</ele>
        <time>2021-04-01T09:20:52.649Z</time>
      </trkpt>
      <trkpt lat="43.1339985" lon="-2.7845114">
        <ele>120.98</ele>
        <time>2021-04-01T09:20:52.704Z</time>
      </trkpt>
      <trkpt lat="43.134" lon="-2.784515">
        <ele>120.942</ele>
        <time>2021-04-01T09:20:52.759Z</time>
      </trkpt>
      <trkpt lat="43.1340014" lon="-2.7845187">
        <ele>120.929</ele>
        <time>2021-04-01T09:20:52.814Z</time>
      </trkpt>
      <trkpt lat="43.1340029" lon="-2.7845222">
        <ele>120.923</ele>
        <time>2021-04-01T09:20:52.869Z</time>
      </trkpt>
      <trkpt lat="43.1340044" lon="-2.7845263">
        <ele>120.944</ele>
        <time>2021-04-01T09:20:52.924Z</time>
      </trkpt>
      <trkpt lat="43.134006" lon="-2.7845304">
        <ele>120.963</ele>
        <time>2021-04-01T09:20:52.979Z</time>
      </trkpt>
      <trkpt lat="43.1340075" lon="-2.7845342">
        <ele>120.995</ele>
        <time>2021-04-01T09:20:53.034Z</time>
      </trkpt>
      <trkpt lat="43.1340089" lon="-2.784538">
        <ele>121.003</ele>
        <time>2021-04-01T09:20:53.089Z</time>
      </trkpt>
      <trkpt lat="43.1340106" lon="-2.7845418">
        <ele>121.022</ele>
        <time>2021-04-01T09:20:53.144Z</time>
      </trkpt>
      <trkpt lat="43.1340122" lon="-2.7845457">
        <ele>121.032</ele>
        <time>2021-04-01T09:20:53.199Z</time>
      </trkpt>
      <trkpt lat="43.1340139" lon="-2.7845494">
        <ele>121.037</ele>
        <time>2021-04-01T09:20:53.254Z</time>
      </trkpt>
      <trkpt lat="43.1340157" lon="-2.7845529">
        <ele>121.034</ele>
        <time>2021-04-01T09:20:53.309Z</time>
      </trkpt>
      <trkpt lat="43.1340176" lon="-2.7845564">
        <ele>121.033</ele>
        <time>2021-04-01T09:20:53.364Z</time>
      </trkpt>
      <trkpt lat="43.1340191" lon="-2.7845596">
        <ele>121.008</ele>
        <time>2021-04-01T09:20:53.419Z</time>
      </trkpt>
      <trkpt lat="43.1340208" lon="-2.7845629">
        <ele>120.989</ele>
        <time>2021-04-01T09:20:53.474Z</time>
      </trkpt>
      <trkpt lat="43.1340228" lon="-2.7845662">
        <ele>120.943</ele>
        <time>2021-04-01T09:20:53.529Z</time>
      </trkpt>
      <trkpt lat="43.1340249" lon="-2.7845695">
        <ele>120.939</ele>
        <time>2021-04-01T09:20:53.584Z</time>
      </trkpt>
      <trkpt lat="43.1340268" lon="-2.7845723">
        <ele>120.876</ele>
        <time>2021-04-01T09:20:53.639Z</time>
      </trkpt>
      <trkpt lat="43.1340285" lon="-2.7845762">
        <ele>120.911</ele>
        <time>2021-04-01T09:20:53.694Z</time>
      </trkpt>
      <trkpt lat="43.1340303" lon="-2.7845802">
        <ele>120.999</ele>
        <time>2021-04-01T09:20:53.749Z</time>
      </trkpt>
      <trkpt lat="43.1340315" lon="-2.7845836">
        <ele>120.917</ele>
        <time>2021-04-01T09:20:53.804Z</time>
      </trkpt>
      <trkpt lat="43.1340329" lon="-2.7845871">
        <ele>120.859</ele>
        <time>2021-04-01T09:20:53.859Z</time>
      </trkpt>
      <trkpt lat="43.1340344" lon="-2.7845909">
        <ele>120.878</ele>
        <time>2021-04-01T09:20:53.914Z</time>
      </trkpt>
      <trkpt lat="43.1340361" lon="-2.7845945">
        <ele>120.867</ele>
        <time>2021-04-01T09:20:53.969Z</time>
      </trkpt>
      <trkpt lat="43.1340377" lon="-2.7845984">
        <ele>120.887</ele>
        <time>2021-04-01T09:20:54.024Z</time>
      </trkpt>
      <trkpt lat="43.1340392" lon="-2.7846021">
        <ele>120.862</ele>
        <time>2021-04-01T09:20:54.079Z</time>
      </trkpt>
      <trkpt lat="43.1340406" lon="-2.7846062">
        <ele>120.895</ele>
        <time>2021-04-01T09:20:54.134Z</time>
      </trkpt>
      <trkpt lat="43.1340421" lon="-2.7846102">
        <ele>120.938</ele>
        <time>2021-04-01T09:20:54.189Z</time>
      </trkpt>
      <trkpt lat="43.134044" lon="-2.7846138">
        <ele>120.959</ele>
        <time>2021-04-01T09:20:54.244Z</time>
      </trkpt>
      <trkpt lat="43.1340455" lon="-2.7846177">
        <ele>120.981</ele>
        <time>2021-04-01T09:20:54.299Z</time>
      </trkpt>
      <trkpt lat="43.1340469" lon="-2.7846216">
        <ele>120.973</ele>
        <time>2021-04-01T09:20:54.354Z</time>
      </trkpt>
      <trkpt lat="43.1340484" lon="-2.7846256">
        <ele>120.997</ele>
        <time>2021-04-01T09:20:54.409Z</time>
      </trkpt>
      <trkpt lat="43.1340501" lon="-2.7846297">
        <ele>121.028</ele>
        <time>2021-04-01T09:20:54.464Z</time>
      </trkpt>
      <trkpt lat="43.1340518" lon="-2.7846332">
        <ele>121.019</ele>
        <time>2021-04-01T09:20:54.519Z</time>
      </trkpt>
      <trkpt lat="43.1340533" lon="-2.7846372">
        <ele>121.036</ele>
        <time>2021-04-01T09:20:54.574Z</time>
      </trkpt>
      <trkpt lat="43.1340547" lon="-2.7846415">
        <ele>121.048</ele>
        <time>2021-04-01T09:20:54.629Z</time>
      </trkpt>
      <trkpt lat="43.1340561" lon="-2.7846454">
        <ele>121.042</ele>
        <time>2021-04-01T09:20:54.684Z</time>
      </trkpt>
      <trkpt lat="43.1340573" lon="-2.7846495">
        <ele>121.075</ele>
        <time>2021-04-01T09:20:54.739Z</time>
      </trkpt>
      <trkpt lat="43.1340588" lon="-2.7846533">
        <ele>121.075</ele>
        <time>2021-04-01T09:20:54.794Z</time>
      </trkpt>
      <trkpt lat="43.1340599" lon="-2.7846568">
        <ele>121.02</ele>
        <time>2021-04-01T09:20:54.849Z</time>
      </trkpt>
      <trkpt lat="43.1340612" lon="-2.7846611">
        <ele>121.052</ele>
        <time>2021-04-01T09:20:54.904Z</time>
      </trkpt>
      <trkpt lat="43.1340628" lon="-2.7846654">
        <ele>121.096</ele>
        <time>2021-04-01T09:20:54.959Z</time>
      </trkpt>
      <trkpt lat="43.1340642" lon="-2.7846694">
        <ele>121.144</ele>
        <time>2021-04-01T09:20:55.014Z</time>
      </trkpt>
      <trkpt lat="43.1340654" lon="-2.7846737">
        <ele>121.146</ele>
        <time>2021-04-01T09:20:55.069Z</time>
      </trkpt>
      <trkpt lat="43.1340666" lon="-2.784678">
        <ele>121.142</ele>
        <time>2021-04-01T09:20:55.124Z</time>
      </trkpt>
      <trkpt lat="43.134068" lon="-2.7846821">
        <ele>121.164</ele>
        <time>2021-04-01T09:20:55.176Z</time>
      </trkpt>
      <trkpt lat="43.1340695" lon="-2.7846863">
        <ele>121.199</ele>
        <time>2021-04-01T09:20:55.228Z</time>
      </trkpt>
      <trkpt lat="43.1340712" lon="-2.7846905">
        <ele>121.226</ele>
        <time>2021-04-01T09:20:55.280Z</time>
      </trkpt>
      <trkpt lat="43.1340728" lon="-2.7846949">
        <ele>121.263</ele>
        <time>2021-04-01T09:20:55.332Z</time>
      </trkpt>
      <trkpt lat="43.1340743" lon="-2.7846991">
        <ele>121.285</ele>
        <time>2021-04-01T09:20:55.384Z</time>
      </trkpt>
      <trkpt lat="43.1340757" lon="-2.7847036">
        <ele>121.297</ele>
        <time>2021-04-01T09:20:55.436Z</time>
      </trkpt>
      <trkpt lat="43.1340771" lon="-2.7847079">
        <ele>121.303</ele>
        <time>2021-04-01T09:20:55.488Z</time>
      </trkpt>
      <trkpt lat="43.1340784" lon="-2.7847123">
        <ele>121.308</ele>
        <time>2021-04-01T09:20:55.540Z</time>
      </trkpt>
      <trkpt lat="43.1340797" lon="-2.7847166">
        <ele>121.305</ele>
        <time>2021-04-01T09:20:55.592Z</time>
      </trkpt>
      <trkpt lat="43.134081" lon="-2.7847207">
        <ele>121.276</ele>
        <time>2021-04-01T09:20:55.645Z</time>
      </trkpt>
      <trkpt lat="43.1340823" lon="-2.7847249">
        <ele>121.251</ele>
        <time>2021-04-01T09:20:55.697Z</time>
      </trkpt>
      <trkpt lat="43.1340838" lon="-2.7847294">
        <ele>121.238</ele>
        <time>2021-04-01T09:20:55.749Z</time>
      </trkpt>
      <trkpt lat="43.1340852" lon="-2.7847337">
        <ele>121.226</ele>
        <time>2021-04-01T09:20:55.801Z</time>
      </trkpt>
      <trkpt lat="43.1340867" lon="-2.7847382">
        <ele>121.245</ele>
        <time>2021-04-01T09:20:55.853Z</time>
      </trkpt>
      <trkpt lat="43.1340881" lon="-2.7847427">
        <ele>121.259</ele>
        <time>2021-04-01T09:20:55.905Z</time>
      </trkpt>
      <trkpt lat="43.1340895" lon="-2.7847471">
        <ele>121.26</ele>
        <time>2021-04-01T09:20:55.957Z</time>
      </trkpt>
      <trkpt lat="43.1340909" lon="-2.7847515">
        <ele>121.273</ele>
        <time>2021-04-01T09:20:56.009Z</time>
      </trkpt>
      <trkpt lat="43.1340923" lon="-2.7847557">
        <ele>121.255</ele>
        <time>2021-04-01T09:20:56.061Z</time>
      </trkpt>
      <trkpt lat="43.1340939" lon="-2.7847601">
        <ele>121.234</ele>
        <time>2021-04-01T09:20:56.114Z</time>
      </trkpt>
      <trkpt lat="43.1340955" lon="-2.7847646">
        <ele>121.247</ele>
        <time>2021-04-01T09:20:56.172Z</time>
      </trkpt>
      <trkpt lat="43.1340968" lon="-2.7847694">
        <ele>121.25</ele>
        <time>2021-04-01T09:20:56.230Z</time>
      </trkpt>
      <trkpt lat="43.134098" lon="-2.7847739">
        <ele>121.253</ele>
        <time>2021-04-01T09:20:56.288Z</time>
      </trkpt>
      <trkpt lat="43.1340996" lon="-2.7847785">
        <ele>121.253</ele>
        <time>2021-04-01T09:20:56.346Z</time>
      </trkpt>
      <trkpt lat="43.1341009" lon="-2.7847831">
        <ele>121.256</ele>
        <time>2021-04-01T09:20:56.404Z</time>
      </trkpt>
      <trkpt lat="43.1341024" lon="-2.7847875">
        <ele>121.264</ele>
        <time>2021-04-01T09:20:56.462Z</time>
      </trkpt>
      <trkpt lat="43.134104" lon="-2.7847924">
        <ele>121.313</ele>
        <time>2021-04-01T09:20:56.520Z</time>
      </trkpt>
      <trkpt lat="43.1341052" lon="-2.7847969">
        <ele>121.296</ele>
        <time>2021-04-01T09:20:56.578Z</time>
      </trkpt>
      <trkpt lat="43.1341064" lon="-2.7848008">
        <ele>121.224</ele>
        <time>2021-04-01T09:20:56.636Z</time>
      </trkpt>
      <trkpt lat="43.1341077" lon="-2.784805">
        <ele>121.201</ele>
        <time>2021-04-01T09:20:56.694Z</time>
      </trkpt>
      <trkpt lat="43.1341091" lon="-2.7848092">
        <ele>121.174</ele>
        <time>2021-04-01T09:20:56.752Z</time>
      </trkpt>
      <trkpt lat="43.1341102" lon="-2.7848135">
        <ele>121.174</ele>
        <time>2021-04-01T09:20:56.810Z</time>
      </trkpt>
      <trkpt lat="43.1341114" lon="-2.7848178">
        <ele>121.153</ele>
        <time>2021-04-01T09:20:56.868Z</time>
      </trkpt>
      <trkpt lat="43.1341125" lon="-2.784822">
        <ele>121.124</ele>
        <time>2021-04-01T09:20:56.926Z</time>
      </trkpt>
      <trkpt lat="43.1341138" lon="-2.7848266">
        <ele>121.118</ele>
        <time>2021-04-01T09:20:56.984Z</time>
      </trkpt>
      <trkpt lat="43.1341148" lon="-2.7848311">
        <ele>121.087</ele>
        <time>2021-04-01T09:20:57.042Z</time>
      </trkpt>
      <trkpt lat="43.1341159" lon="-2.7848353">
        <ele>121.027</ele>
        <time>2021-04-01T09:20:57.100Z</time>
      </trkpt>
      <trkpt lat="43.1341172" lon="-2.7848397">
        <ele>121.033</ele>
        <time>2021-04-01T09:20:57.159Z</time>
      </trkpt>
      <trkpt lat="43.1341183" lon="-2.7848442">
        <ele>121.02</ele>
        <time>2021-04-01T09:20:57.214Z</time>
      </trkpt>
      <trkpt lat="43.1341193" lon="-2.7848489">
        <ele>121.022</ele>
        <time>2021-04-01T09:20:57.269Z</time>
      </trkpt>
      <trkpt lat="43.1341206" lon="-2.7848535">
        <ele>121.036</ele>
        <time>2021-04-01T09:20:57.324Z</time>
      </trkpt>
      <trkpt lat="43.1341215" lon="-2.7848582">
        <ele>121.05</ele>
        <time>2021-04-01T09:20:57.379Z</time>
      </trkpt>
      <trkpt lat="43.1341227" lon="-2.7848628">
        <ele>121.036</ele>
        <time>2021-04-01T09:20:57.434Z</time>
      </trkpt>
      <trkpt lat="43.1341237" lon="-2.7848677">
        <ele>121.069</ele>
        <time>2021-04-01T09:20:57.489Z</time>
      </trkpt>
      <trkpt lat="43.1341249" lon="-2.784873">
        <ele>121.134</ele>
        <time>2021-04-01T09:20:57.544Z</time>
      </trkpt>
      <trkpt lat="43.1341258" lon="-2.7848776">
        <ele>121.085</ele>
        <time>2021-04-01T09:20:57.599Z</time>
      </trkpt>
      <trkpt lat="43.1341268" lon="-2.7848821">
        <ele>121.054</ele>
        <time>2021-04-01T09:20:57.654Z</time>
      </trkpt>
      <trkpt lat="43.1341278" lon="-2.7848868">
        <ele>121.056</ele>
        <time>2021-04-01T09:20:57.709Z</time>
      </trkpt>
      <trkpt lat="43.1341287" lon="-2.7848911">
        <ele>120.987</ele>
        <time>2021-04-01T09:20:57.764Z</time>
      </trkpt>
      <trkpt lat="43.1341296" lon="-2.7848961">
        <ele>121.017</ele>
        <time>2021-04-01T09:20:57.819Z</time>
      </trkpt>
      <trkpt lat="43.1341306" lon="-2.784901">
        <ele>121.044</ele>
        <time>2021-04-01T09:20:57.874Z</time>
      </trkpt>
      <trkpt lat="43.1341315" lon="-2.7849055">
        <ele>120.984</ele>
        <time>2021-04-01T09:20:57.929Z</time>
      </trkpt>
      <trkpt lat="43.1341324" lon="-2.7849102">
        <ele>120.937</ele>
        <time>2021-04-01T09:20:57.984Z</time>
      </trkpt>
      <trkpt lat="43.1341334" lon="-2.7849155">
        <ele>121.024</ele>
        <time>2021-04-01T09:20:58.039Z</time>
      </trkpt>
      <trkpt lat="43.1341344" lon="-2.7849205">
        <ele>121.089</ele>
        <time>2021-04-01T09:20:58.094Z</time>
      </trkpt>
      <trkpt lat="43.1341352" lon="-2.7849251">
        <ele>121.066</ele>
        <time>2021-04-01T09:20:58.149Z</time>
      </trkpt>
      <trkpt lat="43.1341362" lon="-2.7849299">
        <ele>121.028</ele>
        <time>2021-04-01T09:20:58.207Z</time>
      </trkpt>
      <trkpt lat="43.1341372" lon="-2.7849346">
        <ele>121.008</ele>
        <time>2021-04-01T09:20:58.265Z</time>
      </trkpt>
      <trkpt lat="43.1341382" lon="-2.7849395">
        <ele>121.053</ele>
        <time>2021-04-01T09:20:58.323Z</time>
      </trkpt>
      <trkpt lat="43.1341391" lon="-2.7849443">
        <ele>121.066</ele>
        <time>2021-04-01T09:20:58.381Z</time>
      </trkpt>
      <trkpt lat="43.1341402" lon="-2.7849493">
        <ele>121.087</ele>
        <time>2021-04-01T09:20:58.439Z</time>
      </trkpt>
      <trkpt lat="43.1341413" lon="-2.7849543">
        <ele>121.08</ele>
        <time>2021-04-01T09:20:58.497Z</time>
      </trkpt>
      <trkpt lat="43.1341424" lon="-2.784959">
        <ele>121.049</ele>
        <time>2021-04-01T09:20:58.555Z</time>
      </trkpt>
      <trkpt lat="43.1341434" lon="-2.7849638">
        <ele>121.066</ele>
        <time>2021-04-01T09:20:58.613Z</time>
      </trkpt>
      <trkpt lat="43.1341444" lon="-2.7849685">
        <ele>121.023</ele>
        <time>2021-04-01T09:20:58.671Z</time>
      </trkpt>
      <trkpt lat="43.1341455" lon="-2.7849732">
        <ele>121.013</ele>
        <time>2021-04-01T09:20:58.729Z</time>
      </trkpt>
      <trkpt lat="43.1341468" lon="-2.7849778">
        <ele>120.938</ele>
        <time>2021-04-01T09:20:58.787Z</time>
      </trkpt>
      <trkpt lat="43.1341481" lon="-2.7849826">
        <ele>120.938</ele>
        <time>2021-04-01T09:20:58.845Z</time>
      </trkpt>
      <trkpt lat="43.1341492" lon="-2.7849872">
        <ele>120.955</ele>
        <time>2021-04-01T09:20:58.903Z</time>
      </trkpt>
      <trkpt lat="43.1341505" lon="-2.7849918">
        <ele>120.941</ele>
        <time>2021-04-01T09:20:58.961Z</time>
      </trkpt>
      <trkpt lat="43.1341514" lon="-2.7849967">
        <ele>120.924</ele>
        <time>2021-04-01T09:20:59.019Z</time>
      </trkpt>
      <trkpt lat="43.1341523" lon="-2.7850014">
        <ele>120.898</ele>
        <time>2021-04-01T09:20:59.077Z</time>
      </trkpt>
      <trkpt lat="43.1341535" lon="-2.7850061">
        <ele>120.888</ele>
        <time>2021-04-01T09:20:59.135Z</time>
      </trkpt>
      <trkpt lat="43.1341552" lon="-2.7850105">
        <ele>120.859</ele>
        <time>2021-04-01T09:20:59.194Z</time>
      </trkpt>
      <trkpt lat="43.1341564" lon="-2.7850152">
        <ele>120.831</ele>
        <time>2021-04-01T09:20:59.245Z</time>
      </trkpt>
      <trkpt lat="43.1341574" lon="-2.78502">
        <ele>120.825</ele>
        <time>2021-04-01T09:20:59.297Z</time>
      </trkpt>
      <trkpt lat="43.1341583" lon="-2.7850248">
        <ele>120.791</ele>
        <time>2021-04-01T09:20:59.349Z</time>
      </trkpt>
      <trkpt lat="43.1341593" lon="-2.7850297">
        <ele>120.798</ele>
        <time>2021-04-01T09:20:59.401Z</time>
      </trkpt>
      <trkpt lat="43.1341604" lon="-2.7850345">
        <ele>120.792</ele>
        <time>2021-04-01T09:20:59.453Z</time>
      </trkpt>
      <trkpt lat="43.1341615" lon="-2.7850392">
        <ele>120.766</ele>
        <time>2021-04-01T09:20:59.505Z</time>
      </trkpt>
      <trkpt lat="43.1341627" lon="-2.7850438">
        <ele>120.74</ele>
        <time>2021-04-01T09:20:59.557Z</time>
      </trkpt>
      <trkpt lat="43.134164" lon="-2.7850484">
        <ele>120.74</ele>
        <time>2021-04-01T09:20:59.609Z</time>
      </trkpt>
      <trkpt lat="43.1341651" lon="-2.7850531">
        <ele>120.71</ele>
        <time>2021-04-01T09:20:59.661Z</time>
      </trkpt>
      <trkpt lat="43.134166" lon="-2.7850575">
        <ele>120.695</ele>
        <time>2021-04-01T09:20:59.713Z</time>
      </trkpt>
      <trkpt lat="43.134167" lon="-2.785062">
        <ele>120.681</ele>
        <time>2021-04-01T09:20:59.765Z</time>
      </trkpt>
      <trkpt lat="43.134168" lon="-2.7850671">
        <ele>120.661</ele>
        <time>2021-04-01T09:20:59.817Z</time>
      </trkpt>
      <trkpt lat="43.1341692" lon="-2.7850718">
        <ele>120.666</ele>
        <time>2021-04-01T09:20:59.869Z</time>
      </trkpt>
      <trkpt lat="43.1341703" lon="-2.7850761">
        <ele>120.661</ele>
        <time>2021-04-01T09:20:59.921Z</time>
      </trkpt>
      <trkpt lat="43.1341717" lon="-2.7850806">
        <ele>120.637</ele>
        <time>2021-04-01T09:20:59.973Z</time>
      </trkpt>
      <trkpt lat="43.134173" lon="-2.7850853">
        <ele>120.552</ele>
        <time>2021-04-01T09:21:00.025Z</time>
      </trkpt>
      <trkpt lat="43.1341739" lon="-2.7850907">
        <ele>120.521</ele>
        <time>2021-04-01T09:21:00.077Z</time>
      </trkpt>
      <trkpt lat="43.1341748" lon="-2.7850956">
        <ele>120.492</ele>
        <time>2021-04-01T09:21:00.129Z</time>
      </trkpt>
      <trkpt lat="43.1341759" lon="-2.7851">
        <ele>120.427</ele>
        <time>2021-04-01T09:21:00.184Z</time>
      </trkpt>
      <trkpt lat="43.1341775" lon="-2.7851051">
        <ele>120.491</ele>
        <time>2021-04-01T09:21:00.239Z</time>
      </trkpt>
      <trkpt lat="43.1341789" lon="-2.78511">
        <ele>120.507</ele>
        <time>2021-04-01T09:21:00.294Z</time>
      </trkpt>
      <trkpt lat="43.1341797" lon="-2.7851155">
        <ele>120.505</ele>
        <time>2021-04-01T09:21:00.349Z</time>
      </trkpt>
      <trkpt lat="43.1341811" lon="-2.7851204">
        <ele>120.459</ele>
        <time>2021-04-01T09:21:00.404Z</time>
      </trkpt>
      <trkpt lat="43.1341824" lon="-2.7851249">
        <ele>120.414</ele>
        <time>2021-04-01T09:21:00.459Z</time>
      </trkpt>
      <trkpt lat="43.1341836" lon="-2.7851297">
        <ele>120.399</ele>
        <time>2021-04-01T09:21:00.514Z</time>
      </trkpt>
      <trkpt lat="43.1341852" lon="-2.7851338">
        <ele>120.371</ele>
        <time>2021-04-01T09:21:00.569Z</time>
      </trkpt>
      <trkpt lat="43.1341863" lon="-2.7851393">
        <ele>120.368</ele>
        <time>2021-04-01T09:21:00.624Z</time>
      </trkpt>
      <trkpt lat="43.1341876" lon="-2.7851446">
        <ele>120.366</ele>
        <time>2021-04-01T09:21:00.679Z</time>
      </trkpt>
      <trkpt lat="43.1341891" lon="-2.7851494">
        <ele>120.335</ele>
        <time>2021-04-01T09:21:00.734Z</time>
      </trkpt>
      <trkpt lat="43.1341905" lon="-2.7851544">
        <ele>120.311</ele>
        <time>2021-04-01T09:21:00.789Z</time>
      </trkpt>
      <trkpt lat="43.1341917" lon="-2.7851592">
        <ele>120.289</ele>
        <time>2021-04-01T09:21:00.844Z</time>
      </trkpt>
      <trkpt lat="43.1341929" lon="-2.7851641">
        <ele>120.272</ele>
        <time>2021-04-01T09:21:00.899Z</time>
      </trkpt>
      <trkpt lat="43.134194" lon="-2.7851691">
        <ele>120.228</ele>
        <time>2021-04-01T09:21:00.954Z</time>
      </trkpt>
      <trkpt lat="43.1341952" lon="-2.7851741">
        <ele>120.196</ele>
        <time>2021-04-01T09:21:01.009Z</time>
      </trkpt>
      <trkpt lat="43.1341965" lon="-2.7851792">
        <ele>120.159</ele>
        <time>2021-04-01T09:21:01.064Z</time>
      </trkpt>
      <trkpt lat="43.1341976" lon="-2.7851846">
        <ele>120.176</ele>
        <time>2021-04-01T09:21:01.119Z</time>
      </trkpt>
      <trkpt lat="43.1341987" lon="-2.7851894">
        <ele>120.136</ele>
        <time>2021-04-01T09:21:01.174Z</time>
      </trkpt>
      <trkpt lat="43.1341999" lon="-2.7851945">
        <ele>120.112</ele>
        <time>2021-04-01T09:21:01.232Z</time>
      </trkpt>
      <trkpt lat="43.1342011" lon="-2.7851996">
        <ele>120.093</ele>
        <time>2021-04-01T09:21:01.290Z</time>
      </trkpt>
      <trkpt lat="43.1342024" lon="-2.7852048">
        <ele>120.07</ele>
        <time>2021-04-01T09:21:01.348Z</time>
      </trkpt>
      <trkpt lat="43.1342034" lon="-2.78521">
        <ele>120.039</ele>
        <time>2021-04-01T09:21:01.406Z</time>
      </trkpt>
      <trkpt lat="43.1342045" lon="-2.7852152">
        <ele>120.022</ele>
        <time>2021-04-01T09:21:01.464Z</time>
      </trkpt>
      <trkpt lat="43.1342057" lon="-2.7852206">
        <ele>120.033</ele>
        <time>2021-04-01T09:21:01.522Z</time>
      </trkpt>
      <trkpt lat="43.1342068" lon="-2.7852257">
        <ele>119.999</ele>
        <time>2021-04-01T09:21:01.580Z</time>
      </trkpt>
      <trkpt lat="43.134208" lon="-2.7852308">
        <ele>119.97</ele>
        <time>2021-04-01T09:21:01.638Z</time>
      </trkpt>
      <trkpt lat="43.1342088" lon="-2.7852361">
        <ele>119.934</ele>
        <time>2021-04-01T09:21:01.696Z</time>
      </trkpt>
      <trkpt lat="43.1342097" lon="-2.7852413">
        <ele>119.893</ele>
        <time>2021-04-01T09:21:01.754Z</time>
      </trkpt>
      <trkpt lat="43.1342109" lon="-2.7852466">
        <ele>119.905</ele>
        <time>2021-04-01T09:21:01.812Z</time>
      </trkpt>
      <trkpt lat="43.1342119" lon="-2.7852519">
        <ele>119.887</ele>
        <time>2021-04-01T09:21:01.870Z</time>
      </trkpt>
      <trkpt lat="43.1342129" lon="-2.7852572">
        <ele>119.832</ele>
        <time>2021-04-01T09:21:01.928Z</time>
      </trkpt>
      <trkpt lat="43.1342141" lon="-2.7852625">
        <ele>119.797</ele>
        <time>2021-04-01T09:21:01.986Z</time>
      </trkpt>
      <trkpt lat="43.1342151" lon="-2.7852678">
        <ele>119.788</ele>
        <time>2021-04-01T09:21:02.044Z</time>
      </trkpt>
      <trkpt lat="43.1342163" lon="-2.7852735">
        <ele>119.814</ele>
        <time>2021-04-01T09:21:02.102Z</time>
      </trkpt>
      <trkpt lat="43.1342176" lon="-2.7852789">
        <ele>119.799</ele>
        <time>2021-04-01T09:21:02.160Z</time>
      </trkpt>
      <trkpt lat="43.1342188" lon="-2.7852842">
        <ele>119.764</ele>
        <time>2021-04-01T09:21:02.219Z</time>
      </trkpt>
      <trkpt lat="43.1342197" lon="-2.7852897">
        <ele>119.787</ele>
        <time>2021-04-01T09:21:02.270Z</time>
      </trkpt>
      <trkpt lat="43.1342209" lon="-2.7852952">
        <ele>119.778</ele>
        <time>2021-04-01T09:21:02.322Z</time>
      </trkpt>
      <trkpt lat="43.1342222" lon="-2.7853006">
        <ele>119.773</ele>
        <time>2021-04-01T09:21:02.374Z</time>
      </trkpt>
      <trkpt lat="43.1342235" lon="-2.7853064">
        <ele>119.827</ele>
        <time>2021-04-01T09:21:02.426Z</time>
      </trkpt>
      <trkpt lat="43.1342247" lon="-2.7853119">
        <ele>119.813</ele>
        <time>2021-04-01T09:21:02.478Z</time>
      </trkpt>
      <trkpt lat="43.1342258" lon="-2.7853171">
        <ele>119.77</ele>
        <time>2021-04-01T09:21:02.530Z</time>
      </trkpt>
      <trkpt lat="43.134227" lon="-2.7853225">
        <ele>119.772</ele>
        <time>2021-04-01T09:21:02.582Z</time>
      </trkpt>
      <trkpt lat="43.1342283" lon="-2.7853281">
        <ele>119.758</ele>
        <time>2021-04-01T09:21:02.634Z</time>
      </trkpt>
      <trkpt lat="43.1342295" lon="-2.7853337">
        <ele>119.771</ele>
        <time>2021-04-01T09:21:02.686Z</time>
      </trkpt>
      <trkpt lat="43.1342307" lon="-2.7853394">
        <ele>119.786</ele>
        <time>2021-04-01T09:21:02.738Z</time>
      </trkpt>
      <trkpt lat="43.1342317" lon="-2.7853447">
        <ele>119.741</ele>
        <time>2021-04-01T09:21:02.790Z</time>
      </trkpt>
      <trkpt lat="43.1342329" lon="-2.7853501">
        <ele>119.719</ele>
        <time>2021-04-01T09:21:02.842Z</time>
      </trkpt>
      <trkpt lat="43.134234" lon="-2.7853559">
        <ele>119.709</ele>
        <time>2021-04-01T09:21:02.894Z</time>
      </trkpt>
      <trkpt lat="43.1342352" lon="-2.7853616">
        <ele>119.721</ele>
        <time>2021-04-01T09:21:02.946Z</time>
      </trkpt>
      <trkpt lat="43.1342364" lon="-2.7853671">
        <ele>119.727</ele>
        <time>2021-04-01T09:21:02.998Z</time>
      </trkpt>
      <trkpt lat="43.1342377" lon="-2.7853727">
        <ele>119.744</ele>
        <time>2021-04-01T09:21:03.050Z</time>
      </trkpt>
      <trkpt lat="43.1342389" lon="-2.7853783">
        <ele>119.745</ele>
        <time>2021-04-01T09:21:03.102Z</time>
      </trkpt>
      <trkpt lat="43.13424" lon="-2.7853838">
        <ele>119.717</ele>
        <time>2021-04-01T09:21:03.154Z</time>
      </trkpt>
      <trkpt lat="43.1342415" lon="-2.7853897">
        <ele>119.777</ele>
        <time>2021-04-01T09:21:03.206Z</time>
      </trkpt>
      <trkpt lat="43.1342427" lon="-2.7853953">
        <ele>119.786</ele>
        <time>2021-04-01T09:21:03.258Z</time>
      </trkpt>
      <trkpt lat="43.134244" lon="-2.7854011">
        <ele>119.834</ele>
        <time>2021-04-01T09:21:03.310Z</time>
      </trkpt>
      <trkpt lat="43.1342453" lon="-2.7854068">
        <ele>119.857</ele>
        <time>2021-04-01T09:21:03.362Z</time>
      </trkpt>
      <trkpt lat="43.1342466" lon="-2.7854124">
        <ele>119.88</ele>
        <time>2021-04-01T09:21:03.414Z</time>
      </trkpt>
      <trkpt lat="43.1342478" lon="-2.7854179">
        <ele>119.87</ele>
        <time>2021-04-01T09:21:03.466Z</time>
      </trkpt>
      <trkpt lat="43.1342491" lon="-2.7854234">
        <ele>119.864</ele>
        <time>2021-04-01T09:21:03.518Z</time>
      </trkpt>
      <trkpt lat="43.1342505" lon="-2.7854291">
        <ele>119.877</ele>
        <time>2021-04-01T09:21:03.570Z</time>
      </trkpt>
      <trkpt lat="43.1342518" lon="-2.7854348">
        <ele>119.874</ele>
        <time>2021-04-01T09:21:03.622Z</time>
      </trkpt>
      <trkpt lat="43.1342532" lon="-2.7854403">
        <ele>119.878</ele>
        <time>2021-04-01T09:21:03.675Z</time>
      </trkpt>
      <trkpt lat="43.1342547" lon="-2.7854458">
        <ele>119.884</ele>
        <time>2021-04-01T09:21:03.727Z</time>
      </trkpt>
      <trkpt lat="43.1342561" lon="-2.7854512">
        <ele>119.912</ele>
        <time>2021-04-01T09:21:03.779Z</time>
      </trkpt>
      <trkpt lat="43.1342573" lon="-2.7854567">
        <ele>119.895</ele>
        <time>2021-04-01T09:21:03.831Z</time>
      </trkpt>
      <trkpt lat="43.1342586" lon="-2.7854624">
        <ele>119.912</ele>
        <time>2021-04-01T09:21:03.883Z</time>
      </trkpt>
      <trkpt lat="43.13426" lon="-2.7854682">
        <ele>119.935</ele>
        <time>2021-04-01T09:21:03.935Z</time>
      </trkpt>
      <trkpt lat="43.1342613" lon="-2.7854735">
        <ele>119.959</ele>
        <time>2021-04-01T09:21:03.987Z</time>
      </trkpt>
      <trkpt lat="43.1342625" lon="-2.7854789">
        <ele>119.942</ele>
        <time>2021-04-01T09:21:04.039Z</time>
      </trkpt>
      <trkpt lat="43.1342637" lon="-2.7854847">
        <ele>119.961</ele>
        <time>2021-04-01T09:21:04.091Z</time>
      </trkpt>
      <trkpt lat="43.134265" lon="-2.7854904">
        <ele>119.987</ele>
        <time>2021-04-01T09:21:04.144Z</time>
      </trkpt>
      <trkpt lat="43.1342665" lon="-2.7854961">
        <ele>120.034</ele>
        <time>2021-04-01T09:21:04.205Z</time>
      </trkpt>
      <trkpt lat="43.1342676" lon="-2.7855016">
        <ele>120.037</ele>
        <time>2021-04-01T09:21:04.266Z</time>
      </trkpt>
      <trkpt lat="43.1342687" lon="-2.7855071">
        <ele>119.96</ele>
        <time>2021-04-01T09:21:04.328Z</time>
      </trkpt>
      <trkpt lat="43.13427" lon="-2.7855129">
        <ele>119.984</ele>
        <time>2021-04-01T09:21:04.389Z</time>
      </trkpt>
      <trkpt lat="43.1342712" lon="-2.7855183">
        <ele>119.968</ele>
        <time>2021-04-01T09:21:04.451Z</time>
      </trkpt>
      <trkpt lat="43.1342722" lon="-2.7855236">
        <ele>119.891</ele>
        <time>2021-04-01T09:21:04.512Z</time>
      </trkpt>
      <trkpt lat="43.1342738" lon="-2.7855289">
        <ele>119.888</ele>
        <time>2021-04-01T09:21:04.574Z</time>
      </trkpt>
      <trkpt lat="43.1342749" lon="-2.7855342">
        <ele>119.865</ele>
        <time>2021-04-01T09:21:04.635Z</time>
      </trkpt>
      <trkpt lat="43.1342764" lon="-2.7855399">
        <ele>119.88</ele>
        <time>2021-04-01T09:21:04.697Z</time>
      </trkpt>
      <trkpt lat="43.1342778" lon="-2.7855458">
        <ele>119.922</ele>
        <time>2021-04-01T09:21:04.758Z</time>
      </trkpt>
      <trkpt lat="43.134279" lon="-2.7855515">
        <ele>119.932</ele>
        <time>2021-04-01T09:21:04.820Z</time>
      </trkpt>
      <trkpt lat="43.13428" lon="-2.7855571">
        <ele>119.912</ele>
        <time>2021-04-01T09:21:04.881Z</time>
      </trkpt>
      <trkpt lat="43.1342813" lon="-2.7855624">
        <ele>119.912</ele>
        <time>2021-04-01T09:21:04.943Z</time>
      </trkpt>
      <trkpt lat="43.1342824" lon="-2.7855679">
        <ele>119.935</ele>
        <time>2021-04-01T09:21:05.004Z</time>
      </trkpt>
      <trkpt lat="43.1342838" lon="-2.7855733">
        <ele>119.904</ele>
        <time>2021-04-01T09:21:05.066Z</time>
      </trkpt>
      <trkpt lat="43.134285" lon="-2.7855786">
        <ele>119.895</ele>
        <time>2021-04-01T09:21:05.127Z</time>
      </trkpt>
      <trkpt lat="43.1342863" lon="-2.7855838">
        <ele>119.873</ele>
        <time>2021-04-01T09:21:05.189Z</time>
      </trkpt>
      <trkpt lat="43.1342875" lon="-2.7855891">
        <ele>119.874</ele>
        <time>2021-04-01T09:21:05.241Z</time>
      </trkpt>
      <trkpt lat="43.1342887" lon="-2.7855945">
        <ele>119.878</ele>
        <time>2021-04-01T09:21:05.293Z</time>
      </trkpt>
      <trkpt lat="43.1342903" lon="-2.7856">
        <ele>119.913</ele>
        <time>2021-04-01T09:21:05.345Z</time>
      </trkpt>
      <trkpt lat="43.1342918" lon="-2.7856057">
        <ele>119.908</ele>
        <time>2021-04-01T09:21:05.397Z</time>
      </trkpt>
      <trkpt lat="43.1342932" lon="-2.7856114">
        <ele>119.927</ele>
        <time>2021-04-01T09:21:05.449Z</time>
      </trkpt>
      <trkpt lat="43.1342943" lon="-2.785617">
        <ele>119.938</ele>
        <time>2021-04-01T09:21:05.501Z</time>
      </trkpt>
      <trkpt lat="43.1342955" lon="-2.7856224">
        <ele>119.967</ele>
        <time>2021-04-01T09:21:05.553Z</time>
      </trkpt>
      <trkpt lat="43.1342967" lon="-2.7856279">
        <ele>119.994</ele>
        <time>2021-04-01T09:21:05.605Z</time>
      </trkpt>
      <trkpt lat="43.1342979" lon="-2.7856335">
        <ele>119.991</ele>
        <time>2021-04-01T09:21:05.657Z</time>
      </trkpt>
      <trkpt lat="43.1342994" lon="-2.7856393">
        <ele>120.008</ele>
        <time>2021-04-01T09:21:05.710Z</time>
      </trkpt>
      <trkpt lat="43.1343009" lon="-2.7856448">
        <ele>120.037</ele>
        <time>2021-04-01T09:21:05.762Z</time>
      </trkpt>
      <trkpt lat="43.1343021" lon="-2.7856502">
        <ele>120.039</ele>
        <time>2021-04-01T09:21:05.814Z</time>
      </trkpt>
      <trkpt lat="43.1343034" lon="-2.785656">
        <ele>120.032</ele>
        <time>2021-04-01T09:21:05.866Z</time>
      </trkpt>
      <trkpt lat="43.1343047" lon="-2.7856619">
        <ele>120.077</ele>
        <time>2021-04-01T09:21:05.918Z</time>
      </trkpt>
      <trkpt lat="43.1343061" lon="-2.7856677">
        <ele>120.129</ele>
        <time>2021-04-01T09:21:05.970Z</time>
      </trkpt>
      <trkpt lat="43.1343072" lon="-2.7856731">
        <ele>120.096</ele>
        <time>2021-04-01T09:21:06.022Z</time>
      </trkpt>
      <trkpt lat="43.1343082" lon="-2.785679">
        <ele>120.107</ele>
        <time>2021-04-01T09:21:06.074Z</time>
      </trkpt>
      <trkpt lat="43.1343095" lon="-2.785685">
        <ele>120.158</ele>
        <time>2021-04-01T09:21:06.126Z</time>
      </trkpt>
      <trkpt lat="43.1343109" lon="-2.7856908">
        <ele>120.227</ele>
        <time>2021-04-01T09:21:06.179Z</time>
      </trkpt>
      <trkpt lat="43.1343114" lon="-2.7856961">
        <ele>120.237</ele>
        <time>2021-04-01T09:21:06.234Z</time>
      </trkpt>
      <trkpt lat="43.1343122" lon="-2.7857014">
        <ele>120.261</ele>
        <time>2021-04-01T09:21:06.289Z</time>
      </trkpt>
      <trkpt lat="43.134313" lon="-2.7857068">
        <ele>120.252</ele>
        <time>2021-04-01T09:21:06.344Z</time>
      </trkpt>
      <trkpt lat="43.1343138" lon="-2.7857125">
        <ele>120.283</ele>
        <time>2021-04-01T09:21:06.399Z</time>
      </trkpt>
      <trkpt lat="43.1343146" lon="-2.7857181">
        <ele>120.325</ele>
        <time>2021-04-01T09:21:06.454Z</time>
      </trkpt>
      <trkpt lat="43.1343154" lon="-2.7857234">
        <ele>120.39</ele>
        <time>2021-04-01T09:21:06.509Z</time>
      </trkpt>
      <trkpt lat="43.1343165" lon="-2.7857288">
        <ele>120.398</ele>
        <time>2021-04-01T09:21:06.564Z</time>
      </trkpt>
      <trkpt lat="43.1343183" lon="-2.7857347">
        <ele>120.464</ele>
        <time>2021-04-01T09:21:06.619Z</time>
      </trkpt>
      <trkpt lat="43.1343195" lon="-2.7857403">
        <ele>120.522</ele>
        <time>2021-04-01T09:21:06.674Z</time>
      </trkpt>
      <trkpt lat="43.1343206" lon="-2.785746">
        <ele>120.584</ele>
        <time>2021-04-01T09:21:06.729Z</time>
      </trkpt>
      <trkpt lat="43.1343216" lon="-2.7857518">
        <ele>120.621</ele>
        <time>2021-04-01T09:21:06.784Z</time>
      </trkpt>
      <trkpt lat="43.1343226" lon="-2.7857574">
        <ele>120.669</ele>
        <time>2021-04-01T09:21:06.839Z</time>
      </trkpt>
      <trkpt lat="43.1343236" lon="-2.785763">
        <ele>120.722</ele>
        <time>2021-04-01T09:21:06.894Z</time>
      </trkpt>
      <trkpt lat="43.1343248" lon="-2.7857687">
        <ele>120.776</ele>
        <time>2021-04-01T09:21:06.949Z</time>
      </trkpt>
      <trkpt lat="43.1343261" lon="-2.7857742">
        <ele>120.836</ele>
        <time>2021-04-01T09:21:07.004Z</time>
      </trkpt>
      <trkpt lat="43.1343271" lon="-2.7857797">
        <ele>120.877</ele>
        <time>2021-04-01T09:21:07.059Z</time>
      </trkpt>
      <trkpt lat="43.134328" lon="-2.7857852">
        <ele>120.885</ele>
        <time>2021-04-01T09:21:07.114Z</time>
      </trkpt>
      <trkpt lat="43.1343288" lon="-2.7857911">
        <ele>120.915</ele>
        <time>2021-04-01T09:21:07.169Z</time>
      </trkpt>
      <trkpt lat="43.1343294" lon="-2.785797">
        <ele>120.914</ele>
        <time>2021-04-01T09:21:07.224Z</time>
      </trkpt>
      <trkpt lat="43.13433" lon="-2.7858025">
        <ele>120.941</ele>
        <time>2021-04-01T09:21:07.279Z</time>
      </trkpt>
      <trkpt lat="43.1343305" lon="-2.785808">
        <ele>120.929</ele>
        <time>2021-04-01T09:21:07.334Z</time>
      </trkpt>
      <trkpt lat="43.1343311" lon="-2.7858134">
        <ele>120.898</ele>
        <time>2021-04-01T09:21:07.389Z</time>
      </trkpt>
      <trkpt lat="43.1343321" lon="-2.7858191">
        <ele>120.917</ele>
        <time>2021-04-01T09:21:07.444Z</time>
      </trkpt>
      <trkpt lat="43.1343331" lon="-2.785825">
        <ele>120.948</ele>
        <time>2021-04-01T09:21:07.499Z</time>
      </trkpt>
      <trkpt lat="43.134334" lon="-2.7858308">
        <ele>120.977</ele>
        <time>2021-04-01T09:21:07.554Z</time>
      </trkpt>
      <trkpt lat="43.1343344" lon="-2.7858365">
        <ele>120.958</ele>
        <time>2021-04-01T09:21:07.609Z</time>
      </trkpt>
      <trkpt lat="43.134335" lon="-2.785842">
        <ele>120.984</ele>
        <time>2021-04-01T09:21:07.664Z</time>
      </trkpt>
      <trkpt lat="43.1343355" lon="-2.7858475">
        <ele>120.993</ele>
        <time>2021-04-01T09:21:07.719Z</time>
      </trkpt>
      <trkpt lat="43.1343358" lon="-2.7858527">
        <ele>120.974</ele>
        <time>2021-04-01T09:21:07.774Z</time>
      </trkpt>
      <trkpt lat="43.1343364" lon="-2.7858581">
        <ele>120.97</ele>
        <time>2021-04-01T09:21:07.829Z</time>
      </trkpt>
      <trkpt lat="43.1343367" lon="-2.7858633">
        <ele>120.97</ele>
        <time>2021-04-01T09:21:07.884Z</time>
      </trkpt>
      <trkpt lat="43.1343372" lon="-2.7858686">
        <ele>120.96</ele>
        <time>2021-04-01T09:21:07.939Z</time>
      </trkpt>
      <trkpt lat="43.1343376" lon="-2.785874">
        <ele>120.958</ele>
        <time>2021-04-01T09:21:07.994Z</time>
      </trkpt>
      <trkpt lat="43.1343381" lon="-2.7858793">
        <ele>120.943</ele>
        <time>2021-04-01T09:21:08.049Z</time>
      </trkpt>
      <trkpt lat="43.1343387" lon="-2.7858848">
        <ele>120.985</ele>
        <time>2021-04-01T09:21:08.104Z</time>
      </trkpt>
      <trkpt lat="43.1343395" lon="-2.7858905">
        <ele>121.038</ele>
        <time>2021-04-01T09:21:08.159Z</time>
      </trkpt>
      <trkpt lat="43.1343399" lon="-2.7858955">
        <ele>120.995</ele>
        <time>2021-04-01T09:21:08.214Z</time>
      </trkpt>
      <trkpt lat="43.1343401" lon="-2.7859005">
        <ele>120.931</ele>
        <time>2021-04-01T09:21:08.269Z</time>
      </trkpt>
      <trkpt lat="43.1343406" lon="-2.785905">
        <ele>120.855</ele>
        <time>2021-04-01T09:21:08.324Z</time>
      </trkpt>
      <trkpt lat="43.1343409" lon="-2.7859098">
        <ele>120.815</ele>
        <time>2021-04-01T09:21:08.379Z</time>
      </trkpt>
      <trkpt lat="43.1343411" lon="-2.7859144">
        <ele>120.748</ele>
        <time>2021-04-01T09:21:08.434Z</time>
      </trkpt>
      <trkpt lat="43.1343414" lon="-2.7859192">
        <ele>120.715</ele>
        <time>2021-04-01T09:21:08.489Z</time>
      </trkpt>
      <trkpt lat="43.1343417" lon="-2.785924">
        <ele>120.644</ele>
        <time>2021-04-01T09:21:08.544Z</time>
      </trkpt>
      <trkpt lat="43.1343423" lon="-2.7859293">
        <ele>120.627</ele>
        <time>2021-04-01T09:21:08.599Z</time>
      </trkpt>
      <trkpt lat="43.1343428" lon="-2.7859345">
        <ele>120.656</ele>
        <time>2021-04-01T09:21:08.654Z</time>
      </trkpt>
      <trkpt lat="43.1343431" lon="-2.7859395">
        <ele>120.667</ele>
        <time>2021-04-01T09:21:08.709Z</time>
      </trkpt>
      <trkpt lat="43.1343434" lon="-2.7859439">
        <ele>120.722</ele>
        <time>2021-04-01T09:21:08.764Z</time>
      </trkpt>
      <trkpt lat="43.1343439" lon="-2.7859484">
        <ele>120.79</ele>
        <time>2021-04-01T09:21:08.819Z</time>
      </trkpt>
      <trkpt lat="43.1343437" lon="-2.7859533">
        <ele>120.805</ele>
        <time>2021-04-01T09:21:08.874Z</time>
      </trkpt>
      <trkpt lat="43.1343439" lon="-2.7859584">
        <ele>120.78</ele>
        <time>2021-04-01T09:21:08.929Z</time>
      </trkpt>
      <trkpt lat="43.1343444" lon="-2.7859636">
        <ele>120.755</ele>
        <time>2021-04-01T09:21:08.984Z</time>
      </trkpt>
      <trkpt lat="43.1343451" lon="-2.7859687">
        <ele>120.775</ele>
        <time>2021-04-01T09:21:09.039Z</time>
      </trkpt>
      <trkpt lat="43.1343456" lon="-2.7859738">
        <ele>120.796</ele>
        <time>2021-04-01T09:21:09.094Z</time>
      </trkpt>
      <trkpt lat="43.1343463" lon="-2.7859791">
        <ele>120.82</ele>
        <time>2021-04-01T09:21:09.149Z</time>
      </trkpt>
      <trkpt lat="43.1343471" lon="-2.7859844">
        <ele>120.842</ele>
        <time>2021-04-01T09:21:09.204Z</time>
      </trkpt>
      <trkpt lat="43.1343477" lon="-2.7859895">
        <ele>120.858</ele>
        <time>2021-04-01T09:21:09.259Z</time>
      </trkpt>
      <trkpt lat="43.1343484" lon="-2.7859945">
        <ele>120.818</ele>
        <time>2021-04-01T09:21:09.314Z</time>
      </trkpt>
      <trkpt lat="43.1343494" lon="-2.7859997">
        <ele>120.805</ele>
        <time>2021-04-01T09:21:09.369Z</time>
      </trkpt>
      <trkpt lat="43.1343496" lon="-2.7860038">
        <ele>120.72</ele>
        <time>2021-04-01T09:21:09.424Z</time>
      </trkpt>
      <trkpt lat="43.1343501" lon="-2.7860084">
        <ele>120.615</ele>
        <time>2021-04-01T09:21:09.479Z</time>
      </trkpt>
      <trkpt lat="43.1343506" lon="-2.7860136">
        <ele>120.588</ele>
        <time>2021-04-01T09:21:09.534Z</time>
      </trkpt>
      <trkpt lat="43.1343515" lon="-2.7860179">
        <ele>120.473</ele>
        <time>2021-04-01T09:21:09.589Z</time>
      </trkpt>
      <trkpt lat="43.1343521" lon="-2.7860224">
        <ele>120.389</ele>
        <time>2021-04-01T09:21:09.644Z</time>
      </trkpt>
      <trkpt lat="43.1343524" lon="-2.786027">
        <ele>120.288</ele>
        <time>2021-04-01T09:21:09.699Z</time>
      </trkpt>
      <trkpt lat="43.1343529" lon="-2.7860315">
        <ele>120.24</ele>
        <time>2021-04-01T09:21:09.754Z</time>
      </trkpt>
      <trkpt lat="43.1343533" lon="-2.786036">
        <ele>120.199</ele>
        <time>2021-04-01T09:21:09.809Z</time>
      </trkpt>
      <trkpt lat="43.1343525" lon="-2.7860397">
        <ele>120.141</ele>
        <time>2021-04-01T09:21:09.864Z</time>
      </trkpt>
      <trkpt lat="43.1343521" lon="-2.7860438">
        <ele>120.117</ele>
        <time>2021-04-01T09:21:09.919Z</time>
      </trkpt>
      <trkpt lat="43.1343514" lon="-2.7860479">
        <ele>120.077</ele>
        <time>2021-04-01T09:21:09.974Z</time>
      </trkpt>
      <trkpt lat="43.1343506" lon="-2.786052">
        <ele>120.029</ele>
        <time>2021-04-01T09:21:10.029Z</time>
      </trkpt>
      <trkpt lat="43.1343494" lon="-2.7860557">
        <ele>119.983</ele>
        <time>2021-04-01T09:21:10.084Z</time>
      </trkpt>
      <trkpt lat="43.1343481" lon="-2.7860592">
        <ele>119.948</ele>
        <time>2021-04-01T09:21:10.139Z</time>
      </trkpt>
      <trkpt lat="43.1343479" lon="-2.7860638">
        <ele>119.934</ele>
        <time>2021-04-01T09:21:10.194Z</time>
      </trkpt>
      <trkpt lat="43.134348" lon="-2.7860689">
        <ele>119.93</ele>
        <time>2021-04-01T09:21:10.249Z</time>
      </trkpt>
      <trkpt lat="43.1343486" lon="-2.786074">
        <ele>119.915</ele>
        <time>2021-04-01T09:21:10.304Z</time>
      </trkpt>
      <trkpt lat="43.1343488" lon="-2.7860789">
        <ele>119.913</ele>
        <time>2021-04-01T09:21:10.359Z</time>
      </trkpt>
      <trkpt lat="43.1343489" lon="-2.7860838">
        <ele>119.915</ele>
        <time>2021-04-01T09:21:10.414Z</time>
      </trkpt>
      <trkpt lat="43.1343493" lon="-2.7860891">
        <ele>119.922</ele>
        <time>2021-04-01T09:21:10.469Z</time>
      </trkpt>
      <trkpt lat="43.1343496" lon="-2.7860944">
        <ele>119.978</ele>
        <time>2021-04-01T09:21:10.524Z</time>
      </trkpt>
      <trkpt lat="43.1343498" lon="-2.7860995">
        <ele>120.02</ele>
        <time>2021-04-01T09:21:10.579Z</time>
      </trkpt>
      <trkpt lat="43.1343498" lon="-2.7861045">
        <ele>120.051</ele>
        <time>2021-04-01T09:21:10.634Z</time>
      </trkpt>
      <trkpt lat="43.1343496" lon="-2.7861093">
        <ele>120.077</ele>
        <time>2021-04-01T09:21:10.689Z</time>
      </trkpt>
      <trkpt lat="43.1343493" lon="-2.7861143">
        <ele>120.115</ele>
        <time>2021-04-01T09:21:10.744Z</time>
      </trkpt>
      <trkpt lat="43.1343497" lon="-2.7861194">
        <ele>120.109</ele>
        <time>2021-04-01T09:21:10.799Z</time>
      </trkpt>
      <trkpt lat="43.13435" lon="-2.7861242">
        <ele>120.123</ele>
        <time>2021-04-01T09:21:10.854Z</time>
      </trkpt>
      <trkpt lat="43.1343502" lon="-2.7861287">
        <ele>120.136</ele>
        <time>2021-04-01T09:21:10.909Z</time>
      </trkpt>
      <trkpt lat="43.1343506" lon="-2.7861336">
        <ele>120.167</ele>
        <time>2021-04-01T09:21:10.964Z</time>
      </trkpt>
      <trkpt lat="43.1343508" lon="-2.7861383">
        <ele>120.158</ele>
        <time>2021-04-01T09:21:11.019Z</time>
      </trkpt>
      <trkpt lat="43.1343507" lon="-2.786143">
        <ele>120.188</ele>
        <time>2021-04-01T09:21:11.074Z</time>
      </trkpt>
      <trkpt lat="43.1343505" lon="-2.7861475">
        <ele>120.172</ele>
        <time>2021-04-01T09:21:11.129Z</time>
      </trkpt>
      <trkpt lat="43.1343507" lon="-2.7861522">
        <ele>120.195</ele>
        <time>2021-04-01T09:21:11.184Z</time>
      </trkpt>
      <trkpt lat="43.134351" lon="-2.7861569">
        <ele>120.238</ele>
        <time>2021-04-01T09:21:11.239Z</time>
      </trkpt>
      <trkpt lat="43.1343514" lon="-2.7861619">
        <ele>120.282</ele>
        <time>2021-04-01T09:21:11.294Z</time>
      </trkpt>
      <trkpt lat="43.1343513" lon="-2.7861668">
        <ele>120.275</ele>
        <time>2021-04-01T09:21:11.349Z</time>
      </trkpt>
      <trkpt lat="43.1343513" lon="-2.7861715">
        <ele>120.304</ele>
        <time>2021-04-01T09:21:11.404Z</time>
      </trkpt>
      <trkpt lat="43.1343515" lon="-2.7861763">
        <ele>120.317</ele>
        <time>2021-04-01T09:21:11.459Z</time>
      </trkpt>
      <trkpt lat="43.1343515" lon="-2.7861809">
        <ele>120.36</ele>
        <time>2021-04-01T09:21:11.514Z</time>
      </trkpt>
      <trkpt lat="43.1343517" lon="-2.7861857">
        <ele>120.37</ele>
        <time>2021-04-01T09:21:11.569Z</time>
      </trkpt>
      <trkpt lat="43.1343518" lon="-2.7861904">
        <ele>120.395</ele>
        <time>2021-04-01T09:21:11.624Z</time>
      </trkpt>
      <trkpt lat="43.1343519" lon="-2.7861951">
        <ele>120.417</ele>
        <time>2021-04-01T09:21:11.679Z</time>
      </trkpt>
      <trkpt lat="43.1343518" lon="-2.7861999">
        <ele>120.41</ele>
        <time>2021-04-01T09:21:11.734Z</time>
      </trkpt>
      <trkpt lat="43.1343517" lon="-2.7862044">
        <ele>120.408</ele>
        <time>2021-04-01T09:21:11.789Z</time>
      </trkpt>
      <trkpt lat="43.1343517" lon="-2.7862088">
        <ele>120.439</ele>
        <time>2021-04-01T09:21:11.844Z</time>
      </trkpt>
      <trkpt lat="43.1343516" lon="-2.7862133">
        <ele>120.459</ele>
        <time>2021-04-01T09:21:11.899Z</time>
      </trkpt>
      <trkpt lat="43.1343517" lon="-2.786218">
        <ele>120.469</ele>
        <time>2021-04-01T09:21:11.954Z</time>
      </trkpt>
      <trkpt lat="43.1343519" lon="-2.7862229">
        <ele>120.478</ele>
        <time>2021-04-01T09:21:12.009Z</time>
      </trkpt>
      <trkpt lat="43.1343521" lon="-2.7862276">
        <ele>120.49</ele>
        <time>2021-04-01T09:21:12.064Z</time>
      </trkpt>
      <trkpt lat="43.1343523" lon="-2.7862321">
        <ele>120.515</ele>
        <time>2021-04-01T09:21:12.119Z</time>
      </trkpt>
      <trkpt lat="43.1343523" lon="-2.7862368">
        <ele>120.538</ele>
        <time>2021-04-01T09:21:12.174Z</time>
      </trkpt>
      <trkpt lat="43.1343523" lon="-2.7862417">
        <ele>120.582</ele>
        <time>2021-04-01T09:21:12.229Z</time>
      </trkpt>
      <trkpt lat="43.1343524" lon="-2.7862466">
        <ele>120.637</ele>
        <time>2021-04-01T09:21:12.284Z</time>
      </trkpt>
      <trkpt lat="43.1343525" lon="-2.7862518">
        <ele>120.683</ele>
        <time>2021-04-01T09:21:12.339Z</time>
      </trkpt>
      <trkpt lat="43.1343524" lon="-2.7862568">
        <ele>120.726</ele>
        <time>2021-04-01T09:21:12.394Z</time>
      </trkpt>
      <trkpt lat="43.1343525" lon="-2.7862615">
        <ele>120.769</ele>
        <time>2021-04-01T09:21:12.449Z</time>
      </trkpt>
      <trkpt lat="43.1343526" lon="-2.7862663">
        <ele>120.783</ele>
        <time>2021-04-01T09:21:12.504Z</time>
      </trkpt>
      <trkpt lat="43.1343526" lon="-2.786271">
        <ele>120.81</ele>
        <time>2021-04-01T09:21:12.559Z</time>
      </trkpt>
      <trkpt lat="43.1343525" lon="-2.7862756">
        <ele>120.83</ele>
        <time>2021-04-01T09:21:12.614Z</time>
      </trkpt>
      <trkpt lat="43.1343526" lon="-2.7862805">
        <ele>120.834</ele>
        <time>2021-04-01T09:21:12.669Z</time>
      </trkpt>
      <trkpt lat="43.1343526" lon="-2.7862852">
        <ele>120.862</ele>
        <time>2021-04-01T09:21:12.724Z</time>
      </trkpt>
      <trkpt lat="43.1343526" lon="-2.78629">
        <ele>120.899</ele>
        <time>2021-04-01T09:21:12.779Z</time>
      </trkpt>
      <trkpt lat="43.1343526" lon="-2.7862949">
        <ele>120.922</ele>
        <time>2021-04-01T09:21:12.834Z</time>
      </trkpt>
      <trkpt lat="43.1343524" lon="-2.7862996">
        <ele>120.933</ele>
        <time>2021-04-01T09:21:12.889Z</time>
      </trkpt>
      <trkpt lat="43.1343524" lon="-2.7863042">
        <ele>120.941</ele>
        <time>2021-04-01T09:21:12.944Z</time>
      </trkpt>
      <trkpt lat="43.1343523" lon="-2.7863088">
        <ele>120.99</ele>
        <time>2021-04-01T09:21:12.999Z</time>
      </trkpt>
      <trkpt lat="43.1343521" lon="-2.7863133">
        <ele>120.999</ele>
        <time>2021-04-01T09:21:13.054Z</time>
      </trkpt>
      <trkpt lat="43.1343523" lon="-2.7863183">
        <ele>121.012</ele>
        <time>2021-04-01T09:21:13.109Z</time>
      </trkpt>
      <trkpt lat="43.1343525" lon="-2.7863232">
        <ele>121.026</ele>
        <time>2021-04-01T09:21:13.164Z</time>
      </trkpt>
      <trkpt lat="43.1343527" lon="-2.7863282">
        <ele>121.044</ele>
        <time>2021-04-01T09:21:13.222Z</time>
      </trkpt>
      <trkpt lat="43.1343528" lon="-2.7863331">
        <ele>121.091</ele>
        <time>2021-04-01T09:21:13.280Z</time>
      </trkpt>
      <trkpt lat="43.134353" lon="-2.7863378">
        <ele>121.123</ele>
        <time>2021-04-01T09:21:13.338Z</time>
      </trkpt>
      <trkpt lat="43.1343534" lon="-2.7863423">
        <ele>121.15</ele>
        <time>2021-04-01T09:21:13.396Z</time>
      </trkpt>
      <trkpt lat="43.1343531" lon="-2.786347">
        <ele>121.168</ele>
        <time>2021-04-01T09:21:13.454Z</time>
      </trkpt>
      <trkpt lat="43.1343529" lon="-2.7863517">
        <ele>121.189</ele>
        <time>2021-04-01T09:21:13.512Z</time>
      </trkpt>
      <trkpt lat="43.1343528" lon="-2.7863563">
        <ele>121.199</ele>
        <time>2021-04-01T09:21:13.570Z</time>
      </trkpt>
      <trkpt lat="43.1343529" lon="-2.786361">
        <ele>121.218</ele>
        <time>2021-04-01T09:21:13.628Z</time>
      </trkpt>
      <trkpt lat="43.1343532" lon="-2.786366">
        <ele>121.272</ele>
        <time>2021-04-01T09:21:13.686Z</time>
      </trkpt>
      <trkpt lat="43.1343531" lon="-2.786371">
        <ele>121.31</ele>
        <time>2021-04-01T09:21:13.744Z</time>
      </trkpt>
      <trkpt lat="43.1343532" lon="-2.7863757">
        <ele>121.32</ele>
        <time>2021-04-01T09:21:13.802Z</time>
      </trkpt>
      <trkpt lat="43.1343533" lon="-2.7863803">
        <ele>121.336</ele>
        <time>2021-04-01T09:21:13.860Z</time>
      </trkpt>
      <trkpt lat="43.1343534" lon="-2.7863849">
        <ele>121.338</ele>
        <time>2021-04-01T09:21:13.918Z</time>
      </trkpt>
      <trkpt lat="43.1343537" lon="-2.7863896">
        <ele>121.346</ele>
        <time>2021-04-01T09:21:13.976Z</time>
      </trkpt>
      <trkpt lat="43.1343535" lon="-2.7863943">
        <ele>121.347</ele>
        <time>2021-04-01T09:21:14.034Z</time>
      </trkpt>
      <trkpt lat="43.1343537" lon="-2.7863985">
        <ele>121.328</ele>
        <time>2021-04-01T09:21:14.092Z</time>
      </trkpt>
      <trkpt lat="43.1343535" lon="-2.7864026">
        <ele>121.295</ele>
        <time>2021-04-01T09:21:14.150Z</time>
      </trkpt>
      <trkpt lat="43.134353" lon="-2.7864068">
        <ele>121.287</ele>
        <time>2021-04-01T09:21:14.209Z</time>
      </trkpt>
      <trkpt lat="43.1343529" lon="-2.7864113">
        <ele>121.227</ele>
        <time>2021-04-01T09:21:14.261Z</time>
      </trkpt>
      <trkpt lat="43.1343532" lon="-2.7864155">
        <ele>121.183</ele>
        <time>2021-04-01T09:21:14.313Z</time>
      </trkpt>
      <trkpt lat="43.134353" lon="-2.7864195">
        <ele>121.147</ele>
        <time>2021-04-01T09:21:14.365Z</time>
      </trkpt>
      <trkpt lat="43.1343531" lon="-2.7864234">
        <ele>121.062</ele>
        <time>2021-04-01T09:21:14.417Z</time>
      </trkpt>
      <trkpt lat="43.1343529" lon="-2.786428">
        <ele>121.057</ele>
        <time>2021-04-01T09:21:14.469Z</time>
      </trkpt>
      <trkpt lat="43.1343527" lon="-2.7864323">
        <ele>121.037</ele>
        <time>2021-04-01T09:21:14.521Z</time>
      </trkpt>
      <trkpt lat="43.1343526" lon="-2.7864367">
        <ele>121.039</ele>
        <time>2021-04-01T09:21:14.573Z</time>
      </trkpt>
      <trkpt lat="43.1343526" lon="-2.786441">
        <ele>121.027</ele>
        <time>2021-04-01T09:21:14.625Z</time>
      </trkpt>
      <trkpt lat="43.1343525" lon="-2.7864453">
        <ele>121.004</ele>
        <time>2021-04-01T09:21:14.677Z</time>
      </trkpt>
      <trkpt lat="43.1343525" lon="-2.7864492">
        <ele>120.943</ele>
        <time>2021-04-01T09:21:14.730Z</time>
      </trkpt>
      <trkpt lat="43.1343523" lon="-2.786454">
        <ele>120.953</ele>
        <time>2021-04-01T09:21:14.782Z</time>
      </trkpt>
      <trkpt lat="43.1343521" lon="-2.7864586">
        <ele>120.949</ele>
        <time>2021-04-01T09:21:14.834Z</time>
      </trkpt>
      <trkpt lat="43.1343519" lon="-2.7864627">
        <ele>120.938</ele>
        <time>2021-04-01T09:21:14.886Z</time>
      </trkpt>
      <trkpt lat="43.1343518" lon="-2.786467">
        <ele>120.948</ele>
        <time>2021-04-01T09:21:14.938Z</time>
      </trkpt>
      <trkpt lat="43.1343516" lon="-2.7864712">
        <ele>120.928</ele>
        <time>2021-04-01T09:21:14.990Z</time>
      </trkpt>
      <trkpt lat="43.1343515" lon="-2.7864755">
        <ele>120.934</ele>
        <time>2021-04-01T09:21:15.042Z</time>
      </trkpt>
      <trkpt lat="43.1343515" lon="-2.7864798">
        <ele>120.925</ele>
        <time>2021-04-01T09:21:15.094Z</time>
      </trkpt>
      <trkpt lat="43.1343514" lon="-2.7864838">
        <ele>120.887</ele>
        <time>2021-04-01T09:21:15.146Z</time>
      </trkpt>
      <trkpt lat="43.1343513" lon="-2.7864882">
        <ele>120.885</ele>
        <time>2021-04-01T09:21:15.199Z</time>
      </trkpt>
      <trkpt lat="43.1343513" lon="-2.7864926">
        <ele>120.909</ele>
        <time>2021-04-01T09:21:15.254Z</time>
      </trkpt>
      <trkpt lat="43.1343512" lon="-2.786497">
        <ele>120.952</ele>
        <time>2021-04-01T09:21:15.309Z</time>
      </trkpt>
      <trkpt lat="43.1343508" lon="-2.7865008">
        <ele>120.917</ele>
        <time>2021-04-01T09:21:15.364Z</time>
      </trkpt>
      <trkpt lat="43.1343506" lon="-2.7865047">
        <ele>120.874</ele>
        <time>2021-04-01T09:21:15.419Z</time>
      </trkpt>
      <trkpt lat="43.1343504" lon="-2.7865086">
        <ele>120.836</ele>
        <time>2021-04-01T09:21:15.474Z</time>
      </trkpt>
      <trkpt lat="43.1343502" lon="-2.7865128">
        <ele>120.802</ele>
        <time>2021-04-01T09:21:15.529Z</time>
      </trkpt>
      <trkpt lat="43.13435" lon="-2.786517">
        <ele>120.755</ele>
        <time>2021-04-01T09:21:15.584Z</time>
      </trkpt>
      <trkpt lat="43.1343497" lon="-2.7865212">
        <ele>120.75</ele>
        <time>2021-04-01T09:21:15.639Z</time>
      </trkpt>
      <trkpt lat="43.1343497" lon="-2.7865251">
        <ele>120.707</ele>
        <time>2021-04-01T09:21:15.694Z</time>
      </trkpt>
      <trkpt lat="43.1343495" lon="-2.7865287">
        <ele>120.686</ele>
        <time>2021-04-01T09:21:15.749Z</time>
      </trkpt>
      <trkpt lat="43.1343495" lon="-2.7865322">
        <ele>120.648</ele>
        <time>2021-04-01T09:21:15.804Z</time>
      </trkpt>
      <trkpt lat="43.1343491" lon="-2.7865358">
        <ele>120.625</ele>
        <time>2021-04-01T09:21:15.859Z</time>
      </trkpt>
      <trkpt lat="43.1343491" lon="-2.7865394">
        <ele>120.585</ele>
        <time>2021-04-01T09:21:15.914Z</time>
      </trkpt>
      <trkpt lat="43.1343487" lon="-2.7865434">
        <ele>120.581</ele>
        <time>2021-04-01T09:21:15.969Z</time>
      </trkpt>
      <trkpt lat="43.1343488" lon="-2.7865477">
        <ele>120.627</ele>
        <time>2021-04-01T09:21:16.024Z</time>
      </trkpt>
      <trkpt lat="43.1343489" lon="-2.7865518">
        <ele>120.613</ele>
        <time>2021-04-01T09:21:16.079Z</time>
      </trkpt>
      <trkpt lat="43.1343488" lon="-2.7865557">
        <ele>120.562</ele>
        <time>2021-04-01T09:21:16.134Z</time>
      </trkpt>
      <trkpt lat="43.1343487" lon="-2.7865598">
        <ele>120.541</ele>
        <time>2021-04-01T09:21:16.189Z</time>
      </trkpt>
      <trkpt lat="43.1343485" lon="-2.786564">
        <ele>120.591</ele>
        <time>2021-04-01T09:21:16.250Z</time>
      </trkpt>
      <trkpt lat="43.1343481" lon="-2.7865718">
        <ele>120.535</ele>
        <time>2021-04-01T09:21:16.312Z</time>
      </trkpt>
      <trkpt lat="43.134348" lon="-2.7865752">
        <ele>120.462</ele>
        <time>2021-04-01T09:21:16.374Z</time>
      </trkpt>
      <trkpt lat="43.1343475" lon="-2.7865786">
        <ele>120.445</ele>
        <time>2021-04-01T09:21:16.436Z</time>
      </trkpt>
      <trkpt lat="43.1343475" lon="-2.7865825">
        <ele>120.454</ele>
        <time>2021-04-01T09:21:16.498Z</time>
      </trkpt>
      <trkpt lat="43.1343473" lon="-2.7865865">
        <ele>120.449</ele>
        <time>2021-04-01T09:21:16.560Z</time>
      </trkpt>
      <trkpt lat="43.1343468" lon="-2.7865905">
        <ele>120.41</ele>
        <time>2021-04-01T09:21:16.622Z</time>
      </trkpt>
      <trkpt lat="43.1343464" lon="-2.7865947">
        <ele>120.446</ele>
        <time>2021-04-01T09:21:16.684Z</time>
      </trkpt>
      <trkpt lat="43.1343462" lon="-2.7865993">
        <ele>120.513</ele>
        <time>2021-04-01T09:21:16.745Z</time>
      </trkpt>
      <trkpt lat="43.1343457" lon="-2.7866032">
        <ele>120.527</ele>
        <time>2021-04-01T09:21:16.807Z</time>
      </trkpt>
      <trkpt lat="43.1343452" lon="-2.7866073">
        <ele>120.53</ele>
        <time>2021-04-01T09:21:16.869Z</time>
      </trkpt>
      <trkpt lat="43.1343447" lon="-2.7866113">
        <ele>120.553</ele>
        <time>2021-04-01T09:21:16.931Z</time>
      </trkpt>
      <trkpt lat="43.1343442" lon="-2.7866151">
        <ele>120.536</ele>
        <time>2021-04-01T09:21:16.993Z</time>
      </trkpt>
      <trkpt lat="43.1343437" lon="-2.786619">
        <ele>120.534</ele>
        <time>2021-04-01T09:21:17.055Z</time>
      </trkpt>
      <trkpt lat="43.1343431" lon="-2.7866231">
        <ele>120.571</ele>
        <time>2021-04-01T09:21:17.117Z</time>
      </trkpt>
      <trkpt lat="43.1343425" lon="-2.786627">
        <ele>120.587</ele>
        <time>2021-04-01T09:21:17.179Z</time>
      </trkpt>
      <trkpt lat="43.1343417" lon="-2.7866308">
        <ele>120.589</ele>
        <time>2021-04-01T09:21:17.231Z</time>
      </trkpt>
      <trkpt lat="43.1343417" lon="-2.7866355">
        <ele>120.589</ele>
        <time>2021-04-01T09:21:17.283Z</time>
      </trkpt>
      <trkpt lat="43.1343411" lon="-2.7866391">
        <ele>120.548</ele>
        <time>2021-04-01T09:21:17.335Z</time>
      </trkpt>
      <trkpt lat="43.1343401" lon="-2.7866425">
        <ele>120.554</ele>
        <time>2021-04-01T09:21:17.387Z</time>
      </trkpt>
      <trkpt lat="43.1343397" lon="-2.7866466">
        <ele>120.566</ele>
        <time>2021-04-01T09:21:17.439Z</time>
      </trkpt>
      <trkpt lat="43.1343389" lon="-2.7866507">
        <ele>120.597</ele>
        <time>2021-04-01T09:21:17.491Z</time>
      </trkpt>
      <trkpt lat="43.1343385" lon="-2.786655">
        <ele>120.639</ele>
        <time>2021-04-01T09:21:17.543Z</time>
      </trkpt>
      <trkpt lat="43.134338" lon="-2.7866591">
        <ele>120.685</ele>
        <time>2021-04-01T09:21:17.595Z</time>
      </trkpt>
      <trkpt lat="43.134338" lon="-2.7866639">
        <ele>120.773</ele>
        <time>2021-04-01T09:21:17.647Z</time>
      </trkpt>
      <trkpt lat="43.1343378" lon="-2.7866685">
        <ele>120.828</ele>
        <time>2021-04-01T09:21:17.700Z</time>
      </trkpt>
      <trkpt lat="43.1343376" lon="-2.7866732">
        <ele>120.878</ele>
        <time>2021-04-01T09:21:17.752Z</time>
      </trkpt>
      <trkpt lat="43.1343375" lon="-2.7866774">
        <ele>120.889</ele>
        <time>2021-04-01T09:21:17.804Z</time>
      </trkpt>
      <trkpt lat="43.1343372" lon="-2.7866816">
        <ele>120.9</ele>
        <time>2021-04-01T09:21:17.856Z</time>
      </trkpt>
      <trkpt lat="43.1343368" lon="-2.786686">
        <ele>120.897</ele>
        <time>2021-04-01T09:21:17.908Z</time>
      </trkpt>
      <trkpt lat="43.1343363" lon="-2.7866903">
        <ele>120.897</ele>
        <time>2021-04-01T09:21:17.960Z</time>
      </trkpt>
      <trkpt lat="43.1343361" lon="-2.7866946">
        <ele>120.915</ele>
        <time>2021-04-01T09:21:18.012Z</time>
      </trkpt>
      <trkpt lat="43.134336" lon="-2.7866991">
        <ele>120.914</ele>
        <time>2021-04-01T09:21:18.064Z</time>
      </trkpt>
      <trkpt lat="43.1343356" lon="-2.7867032">
        <ele>120.917</ele>
        <time>2021-04-01T09:21:18.116Z</time>
      </trkpt>
      <trkpt lat="43.134335" lon="-2.7867073">
        <ele>120.903</ele>
        <time>2021-04-01T09:21:18.169Z</time>
      </trkpt>
      <trkpt lat="43.1343347" lon="-2.7867115">
        <ele>120.93</ele>
        <time>2021-04-01T09:21:18.224Z</time>
      </trkpt>
      <trkpt lat="43.1343342" lon="-2.7867158">
        <ele>120.972</ele>
        <time>2021-04-01T09:21:18.279Z</time>
      </trkpt>
      <trkpt lat="43.1343339" lon="-2.7867202">
        <ele>121.034</ele>
        <time>2021-04-01T09:21:18.334Z</time>
      </trkpt>
      <trkpt lat="43.1343338" lon="-2.7867248">
        <ele>121.101</ele>
        <time>2021-04-01T09:21:18.389Z</time>
      </trkpt>
      <trkpt lat="43.1343334" lon="-2.7867287">
        <ele>121.061</ele>
        <time>2021-04-01T09:21:18.444Z</time>
      </trkpt>
      <trkpt lat="43.1343331" lon="-2.7867329">
        <ele>121.09</ele>
        <time>2021-04-01T09:21:18.499Z</time>
      </trkpt>
      <trkpt lat="43.1343326" lon="-2.7867373">
        <ele>121.139</ele>
        <time>2021-04-01T09:21:18.554Z</time>
      </trkpt>
      <trkpt lat="43.1343324" lon="-2.7867414">
        <ele>121.106</ele>
        <time>2021-04-01T09:21:18.609Z</time>
      </trkpt>
      <trkpt lat="43.1343324" lon="-2.7867459">
        <ele>121.114</ele>
        <time>2021-04-01T09:21:18.664Z</time>
      </trkpt>
      <trkpt lat="43.1343324" lon="-2.7867505">
        <ele>121.153</ele>
        <time>2021-04-01T09:21:18.719Z</time>
      </trkpt>
      <trkpt lat="43.1343324" lon="-2.7867548">
        <ele>121.162</ele>
        <time>2021-04-01T09:21:18.774Z</time>
      </trkpt>
      <trkpt lat="43.1343323" lon="-2.7867595">
        <ele>121.205</ele>
        <time>2021-04-01T09:21:18.829Z</time>
      </trkpt>
      <trkpt lat="43.1343321" lon="-2.7867642">
        <ele>121.245</ele>
        <time>2021-04-01T09:21:18.884Z</time>
      </trkpt>
      <trkpt lat="43.1343317" lon="-2.7867683">
        <ele>121.26</ele>
        <time>2021-04-01T09:21:18.939Z</time>
      </trkpt>
      <trkpt lat="43.1343311" lon="-2.7867722">
        <ele>121.232</ele>
        <time>2021-04-01T09:21:18.994Z</time>
      </trkpt>
      <trkpt lat="43.1343307" lon="-2.7867765">
        <ele>121.265</ele>
        <time>2021-04-01T09:21:19.049Z</time>
      </trkpt>
      <trkpt lat="43.1343307" lon="-2.786781">
        <ele>121.369</ele>
        <time>2021-04-01T09:21:19.104Z</time>
      </trkpt>
      <trkpt lat="43.1343304" lon="-2.7867853">
        <ele>121.495</ele>
        <time>2021-04-01T09:21:19.159Z</time>
      </trkpt>
      <trkpt lat="43.1343298" lon="-2.7867895">
        <ele>121.605</ele>
        <time>2021-04-01T09:21:19.217Z</time>
      </trkpt>
      <trkpt lat="43.1343296" lon="-2.786794">
        <ele>121.661</ele>
        <time>2021-04-01T09:21:19.275Z</time>
      </trkpt>
      <trkpt lat="43.1343293" lon="-2.7867981">
        <ele>121.703</ele>
        <time>2021-04-01T09:21:19.333Z</time>
      </trkpt>
      <trkpt lat="43.1343291" lon="-2.786802">
        <ele>121.71</ele>
        <time>2021-04-01T09:21:19.391Z</time>
      </trkpt>
      <trkpt lat="43.1343286" lon="-2.7868058">
        <ele>121.72</ele>
        <time>2021-04-01T09:21:19.449Z</time>
      </trkpt>
      <trkpt lat="43.1343282" lon="-2.7868098">
        <ele>121.731</ele>
        <time>2021-04-01T09:21:19.507Z</time>
      </trkpt>
      <trkpt lat="43.1343278" lon="-2.7868138">
        <ele>121.747</ele>
        <time>2021-04-01T09:21:19.565Z</time>
      </trkpt>
      <trkpt lat="43.1343274" lon="-2.786818">
        <ele>121.757</ele>
        <time>2021-04-01T09:21:19.623Z</time>
      </trkpt>
      <trkpt lat="43.1343272" lon="-2.7868225">
        <ele>121.791</ele>
        <time>2021-04-01T09:21:19.681Z</time>
      </trkpt>
      <trkpt lat="43.134327" lon="-2.7868267">
        <ele>121.846</ele>
        <time>2021-04-01T09:21:19.739Z</time>
      </trkpt>
      <trkpt lat="43.1343265" lon="-2.7868308">
        <ele>121.87</ele>
        <time>2021-04-01T09:21:19.797Z</time>
      </trkpt>
      <trkpt lat="43.1343262" lon="-2.7868348">
        <ele>121.882</ele>
        <time>2021-04-01T09:21:19.855Z</time>
      </trkpt>
      <trkpt lat="43.1343257" lon="-2.7868387">
        <ele>121.894</ele>
        <time>2021-04-01T09:21:19.913Z</time>
      </trkpt>
      <trkpt lat="43.1343252" lon="-2.7868423">
        <ele>121.885</ele>
        <time>2021-04-01T09:21:19.971Z</time>
      </trkpt>
      <trkpt lat="43.1343247" lon="-2.7868459">
        <ele>121.902</ele>
        <time>2021-04-01T09:21:20.029Z</time>
      </trkpt>
      <trkpt lat="43.1343236" lon="-2.7868493">
        <ele>121.884</ele>
        <time>2021-04-01T09:21:20.087Z</time>
      </trkpt>
      <trkpt lat="43.1343228" lon="-2.7868528">
        <ele>121.835</ele>
        <time>2021-04-01T09:21:20.145Z</time>
      </trkpt>
      <trkpt lat="43.1343223" lon="-2.7868565">
        <ele>121.853</ele>
        <time>2021-04-01T09:21:20.204Z</time>
      </trkpt>
      <trkpt lat="43.1343219" lon="-2.7868605">
        <ele>121.858</ele>
        <time>2021-04-01T09:21:20.259Z</time>
      </trkpt>
      <trkpt lat="43.1343214" lon="-2.7868647">
        <ele>121.861</ele>
        <time>2021-04-01T09:21:20.314Z</time>
      </trkpt>
      <trkpt lat="43.134321" lon="-2.7868691">
        <ele>121.844</ele>
        <time>2021-04-01T09:21:20.369Z</time>
      </trkpt>
      <trkpt lat="43.1343208" lon="-2.7868734">
        <ele>121.887</ele>
        <time>2021-04-01T09:21:20.424Z</time>
      </trkpt>
      <trkpt lat="43.1343202" lon="-2.7868773">
        <ele>121.913</ele>
        <time>2021-04-01T09:21:20.479Z</time>
      </trkpt>
      <trkpt lat="43.1343196" lon="-2.7868812">
        <ele>121.91</ele>
        <time>2021-04-01T09:21:20.534Z</time>
      </trkpt>
      <trkpt lat="43.1343193" lon="-2.7868854">
        <ele>121.899</ele>
        <time>2021-04-01T09:21:20.589Z</time>
      </trkpt>
      <trkpt lat="43.1343186" lon="-2.7868891">
        <ele>121.882</ele>
        <time>2021-04-01T09:21:20.644Z</time>
      </trkpt>
      <trkpt lat="43.134318" lon="-2.7868928">
        <ele>121.886</ele>
        <time>2021-04-01T09:21:20.699Z</time>
      </trkpt>
      <trkpt lat="43.1343177" lon="-2.786897">
        <ele>121.889</ele>
        <time>2021-04-01T09:21:20.754Z</time>
      </trkpt>
      <trkpt lat="43.1343175" lon="-2.7869013">
        <ele>121.901</ele>
        <time>2021-04-01T09:21:20.809Z</time>
      </trkpt>
      <trkpt lat="43.134317" lon="-2.7869051">
        <ele>121.908</ele>
        <time>2021-04-01T09:21:20.864Z</time>
      </trkpt>
      <trkpt lat="43.1343163" lon="-2.7869088">
        <ele>121.932</ele>
        <time>2021-04-01T09:21:20.919Z</time>
      </trkpt>
      <trkpt lat="43.1343157" lon="-2.7869125">
        <ele>121.932</ele>
        <time>2021-04-01T09:21:20.974Z</time>
      </trkpt>
      <trkpt lat="43.1343153" lon="-2.7869164">
        <ele>121.939</ele>
        <time>2021-04-01T09:21:21.029Z</time>
      </trkpt>
      <trkpt lat="43.134315" lon="-2.7869205">
        <ele>121.939</ele>
        <time>2021-04-01T09:21:21.084Z</time>
      </trkpt>
      <trkpt lat="43.1343151" lon="-2.7869247">
        <ele>121.945</ele>
        <time>2021-04-01T09:21:21.139Z</time>
      </trkpt>
      <trkpt lat="43.1343148" lon="-2.7869286">
        <ele>121.943</ele>
        <time>2021-04-01T09:21:21.194Z</time>
      </trkpt>
      <trkpt lat="43.1343144" lon="-2.7869328">
        <ele>121.962</ele>
        <time>2021-04-01T09:21:21.246Z</time>
      </trkpt>
      <trkpt lat="43.134314" lon="-2.7869369">
        <ele>121.991</ele>
        <time>2021-04-01T09:21:21.298Z</time>
      </trkpt>
      <trkpt lat="43.1343138" lon="-2.7869411">
        <ele>122.021</ele>
        <time>2021-04-01T09:21:21.350Z</time>
      </trkpt>
      <trkpt lat="43.1343134" lon="-2.7869451">
        <ele>122.008</ele>
        <time>2021-04-01T09:21:21.402Z</time>
      </trkpt>
      <trkpt lat="43.134313" lon="-2.786949">
        <ele>122.025</ele>
        <time>2021-04-01T09:21:21.454Z</time>
      </trkpt>
      <trkpt lat="43.1343127" lon="-2.7869528">
        <ele>122.039</ele>
        <time>2021-04-01T09:21:21.506Z</time>
      </trkpt>
      <trkpt lat="43.1343122" lon="-2.7869566">
        <ele>122.045</ele>
        <time>2021-04-01T09:21:21.558Z</time>
      </trkpt>
      <trkpt lat="43.1343119" lon="-2.7869606">
        <ele>122.018</ele>
        <time>2021-04-01T09:21:21.610Z</time>
      </trkpt>
      <trkpt lat="43.1343114" lon="-2.7869645">
        <ele>122.007</ele>
        <time>2021-04-01T09:21:21.662Z</time>
      </trkpt>
      <trkpt lat="43.1343114" lon="-2.7869683">
        <ele>122.023</ele>
        <time>2021-04-01T09:21:21.715Z</time>
      </trkpt>
      <trkpt lat="43.1343114" lon="-2.7869721">
        <ele>122.036</ele>
        <time>2021-04-01T09:21:21.767Z</time>
      </trkpt>
      <trkpt lat="43.134311" lon="-2.7869758">
        <ele>122.028</ele>
        <time>2021-04-01T09:21:21.819Z</time>
      </trkpt>
      <trkpt lat="43.1343108" lon="-2.7869794">
        <ele>121.984</ele>
        <time>2021-04-01T09:21:21.871Z</time>
      </trkpt>
      <trkpt lat="43.1343106" lon="-2.7869836">
        <ele>122.034</ele>
        <time>2021-04-01T09:21:21.923Z</time>
      </trkpt>
      <trkpt lat="43.1343103" lon="-2.7869877">
        <ele>122.086</ele>
        <time>2021-04-01T09:21:21.975Z</time>
      </trkpt>
      <trkpt lat="43.1343101" lon="-2.7869914">
        <ele>122.083</ele>
        <time>2021-04-01T09:21:22.027Z</time>
      </trkpt>
      <trkpt lat="43.1343096" lon="-2.7869951">
        <ele>122.076</ele>
        <time>2021-04-01T09:21:22.079Z</time>
      </trkpt>
      <trkpt lat="43.1343095" lon="-2.7869991">
        <ele>122.092</ele>
        <time>2021-04-01T09:21:22.131Z</time>
      </trkpt>
      <trkpt lat="43.1343093" lon="-2.7870031">
        <ele>122.119</ele>
        <time>2021-04-01T09:21:22.184Z</time>
      </trkpt>
      <trkpt lat="43.134309" lon="-2.787007">
        <ele>122.145</ele>
        <time>2021-04-01T09:21:22.239Z</time>
      </trkpt>
      <trkpt lat="43.1343087" lon="-2.7870108">
        <ele>122.148</ele>
        <time>2021-04-01T09:21:22.294Z</time>
      </trkpt>
      <trkpt lat="43.1343083" lon="-2.7870146">
        <ele>122.154</ele>
        <time>2021-04-01T09:21:22.349Z</time>
      </trkpt>
      <trkpt lat="43.134308" lon="-2.7870184">
        <ele>122.162</ele>
        <time>2021-04-01T09:21:22.404Z</time>
      </trkpt>
      <trkpt lat="43.1343075" lon="-2.787022">
        <ele>122.162</ele>
        <time>2021-04-01T09:21:22.459Z</time>
      </trkpt>
      <trkpt lat="43.1343071" lon="-2.7870257">
        <ele>122.185</ele>
        <time>2021-04-01T09:21:22.514Z</time>
      </trkpt>
      <trkpt lat="43.1343066" lon="-2.7870296">
        <ele>122.193</ele>
        <time>2021-04-01T09:21:22.569Z</time>
      </trkpt>
      <trkpt lat="43.1343063" lon="-2.7870335">
        <ele>122.199</ele>
        <time>2021-04-01T09:21:22.624Z</time>
      </trkpt>
      <trkpt lat="43.134306" lon="-2.7870369">
        <ele>122.198</ele>
        <time>2021-04-01T09:21:22.679Z</time>
      </trkpt>
      <trkpt lat="43.1343056" lon="-2.7870404">
        <ele>122.188</ele>
        <time>2021-04-01T09:21:22.734Z</time>
      </trkpt>
      <trkpt lat="43.1343054" lon="-2.7870443">
        <ele>122.185</ele>
        <time>2021-04-01T09:21:22.789Z</time>
      </trkpt>
      <trkpt lat="43.1343051" lon="-2.7870481">
        <ele>122.218</ele>
        <time>2021-04-01T09:21:22.844Z</time>
      </trkpt>
      <trkpt lat="43.1343048" lon="-2.787052">
        <ele>122.256</ele>
        <time>2021-04-01T09:21:22.899Z</time>
      </trkpt>
      <trkpt lat="43.1343045" lon="-2.7870558">
        <ele>122.28</ele>
        <time>2021-04-01T09:21:22.954Z</time>
      </trkpt>
      <trkpt lat="43.1343046" lon="-2.7870597">
        <ele>122.279</ele>
        <time>2021-04-01T09:21:23.009Z</time>
      </trkpt>
      <trkpt lat="43.1343042" lon="-2.7870631">
        <ele>122.253</ele>
        <time>2021-04-01T09:21:23.064Z</time>
      </trkpt>
      <trkpt lat="43.1343038" lon="-2.7870667">
        <ele>122.216</ele>
        <time>2021-04-01T09:21:23.119Z</time>
      </trkpt>
      <trkpt lat="43.1343033" lon="-2.7870703">
        <ele>122.225</ele>
        <time>2021-04-01T09:21:23.174Z</time>
      </trkpt>
      <trkpt lat="43.1343029" lon="-2.7870741">
        <ele>122.256</ele>
        <time>2021-04-01T09:21:23.229Z</time>
      </trkpt>
      <trkpt lat="43.1343025" lon="-2.7870774">
        <ele>122.24</ele>
        <time>2021-04-01T09:21:23.284Z</time>
      </trkpt>
      <trkpt lat="43.1343024" lon="-2.7870811">
        <ele>122.223</ele>
        <time>2021-04-01T09:21:23.339Z</time>
      </trkpt>
      <trkpt lat="43.1343022" lon="-2.7870848">
        <ele>122.223</ele>
        <time>2021-04-01T09:21:23.394Z</time>
      </trkpt>
      <trkpt lat="43.1343021" lon="-2.7870887">
        <ele>122.233</ele>
        <time>2021-04-01T09:21:23.449Z</time>
      </trkpt>
      <trkpt lat="43.1343019" lon="-2.7870924">
        <ele>122.24</ele>
        <time>2021-04-01T09:21:23.504Z</time>
      </trkpt>
      <trkpt lat="43.1343015" lon="-2.7870957">
        <ele>122.218</ele>
        <time>2021-04-01T09:21:23.559Z</time>
      </trkpt>
      <trkpt lat="43.1343013" lon="-2.787099">
        <ele>122.214</ele>
        <time>2021-04-01T09:21:23.614Z</time>
      </trkpt>
      <trkpt lat="43.134301" lon="-2.7871026">
        <ele>122.209</ele>
        <time>2021-04-01T09:21:23.669Z</time>
      </trkpt>
      <trkpt lat="43.1343007" lon="-2.7871064">
        <ele>122.247</ele>
        <time>2021-04-01T09:21:23.724Z</time>
      </trkpt>
      <trkpt lat="43.1343005" lon="-2.7871102">
        <ele>122.275</ele>
        <time>2021-04-01T09:21:23.779Z</time>
      </trkpt>
      <trkpt lat="43.1343" lon="-2.7871138">
        <ele>122.333</ele>
        <time>2021-04-01T09:21:23.834Z</time>
      </trkpt>
      <trkpt lat="43.1342995" lon="-2.7871171">
        <ele>122.32</ele>
        <time>2021-04-01T09:21:23.889Z</time>
      </trkpt>
      <trkpt lat="43.1342991" lon="-2.787121">
        <ele>122.347</ele>
        <time>2021-04-01T09:21:23.944Z</time>
      </trkpt>
      <trkpt lat="43.1342988" lon="-2.787125">
        <ele>122.401</ele>
        <time>2021-04-01T09:21:23.999Z</time>
      </trkpt>
      <trkpt lat="43.1342984" lon="-2.7871286">
        <ele>122.407</ele>
        <time>2021-04-01T09:21:24.054Z</time>
      </trkpt>
      <trkpt lat="43.134298" lon="-2.7871322">
        <ele>122.411</ele>
        <time>2021-04-01T09:21:24.109Z</time>
      </trkpt>
      <trkpt lat="43.1342975" lon="-2.7871358">
        <ele>122.441</ele>
        <time>2021-04-01T09:21:24.164Z</time>
      </trkpt>
      <trkpt lat="43.1342971" lon="-2.7871396">
        <ele>122.47</ele>
        <time>2021-04-01T09:21:24.219Z</time>
      </trkpt>
      <trkpt lat="43.1342967" lon="-2.7871432">
        <ele>122.511</ele>
        <time>2021-04-01T09:21:24.274Z</time>
      </trkpt>
      <trkpt lat="43.134296" lon="-2.7871466">
        <ele>122.517</ele>
        <time>2021-04-01T09:21:24.329Z</time>
      </trkpt>
      <trkpt lat="43.1342957" lon="-2.7871501">
        <ele>122.496</ele>
        <time>2021-04-01T09:21:24.384Z</time>
      </trkpt>
      <trkpt lat="43.1342954" lon="-2.7871539">
        <ele>122.539</ele>
        <time>2021-04-01T09:21:24.439Z</time>
      </trkpt>
      <trkpt lat="43.1342953" lon="-2.7871575">
        <ele>122.527</ele>
        <time>2021-04-01T09:21:24.494Z</time>
      </trkpt>
      <trkpt lat="43.1342949" lon="-2.7871612">
        <ele>122.55</ele>
        <time>2021-04-01T09:21:24.549Z</time>
      </trkpt>
      <trkpt lat="43.1342946" lon="-2.7871649">
        <ele>122.581</ele>
        <time>2021-04-01T09:21:24.604Z</time>
      </trkpt>
      <trkpt lat="43.1342946" lon="-2.7871686">
        <ele>122.572</ele>
        <time>2021-04-01T09:21:24.659Z</time>
      </trkpt>
      <trkpt lat="43.1342942" lon="-2.7871722">
        <ele>122.589</ele>
        <time>2021-04-01T09:21:24.714Z</time>
      </trkpt>
      <trkpt lat="43.1342938" lon="-2.7871758">
        <ele>122.635</ele>
        <time>2021-04-01T09:21:24.769Z</time>
      </trkpt>
      <trkpt lat="43.1342935" lon="-2.7871795">
        <ele>122.645</ele>
        <time>2021-04-01T09:21:24.824Z</time>
      </trkpt>
      <trkpt lat="43.1342933" lon="-2.7871832">
        <ele>122.649</ele>
        <time>2021-04-01T09:21:24.879Z</time>
      </trkpt>
      <trkpt lat="43.134293" lon="-2.7871868">
        <ele>122.655</ele>
        <time>2021-04-01T09:21:24.934Z</time>
      </trkpt>
      <trkpt lat="43.1342926" lon="-2.7871903">
        <ele>122.688</ele>
        <time>2021-04-01T09:21:24.989Z</time>
      </trkpt>
      <trkpt lat="43.1342924" lon="-2.7871937">
        <ele>122.698</ele>
        <time>2021-04-01T09:21:25.044Z</time>
      </trkpt>
      <trkpt lat="43.1342921" lon="-2.7871973">
        <ele>122.708</ele>
        <time>2021-04-01T09:21:25.099Z</time>
      </trkpt>
      <trkpt lat="43.1342918" lon="-2.7872007">
        <ele>122.708</ele>
        <time>2021-04-01T09:21:25.154Z</time>
      </trkpt>
      <trkpt lat="43.1342915" lon="-2.7872041">
        <ele>122.688</ele>
        <time>2021-04-01T09:21:25.209Z</time>
      </trkpt>
      <trkpt lat="43.1342911" lon="-2.7872077">
        <ele>122.694</ele>
        <time>2021-04-01T09:21:25.267Z</time>
      </trkpt>
      <trkpt lat="43.134291" lon="-2.7872112">
        <ele>122.691</ele>
        <time>2021-04-01T09:21:25.325Z</time>
      </trkpt>
      <trkpt lat="43.1342907" lon="-2.7872147">
        <ele>122.687</ele>
        <time>2021-04-01T09:21:25.383Z</time>
      </trkpt>
      <trkpt lat="43.1342905" lon="-2.7872184">
        <ele>122.691</ele>
        <time>2021-04-01T09:21:25.441Z</time>
      </trkpt>
      <trkpt lat="43.1342903" lon="-2.7872221">
        <ele>122.708</ele>
        <time>2021-04-01T09:21:25.500Z</time>
      </trkpt>
      <trkpt lat="43.1342901" lon="-2.7872258">
        <ele>122.714</ele>
        <time>2021-04-01T09:21:25.558Z</time>
      </trkpt>
      <trkpt lat="43.1342897" lon="-2.7872293">
        <ele>122.717</ele>
        <time>2021-04-01T09:21:25.616Z</time>
      </trkpt>
      <trkpt lat="43.1342895" lon="-2.7872328">
        <ele>122.729</ele>
        <time>2021-04-01T09:21:25.674Z</time>
      </trkpt>
      <trkpt lat="43.1342893" lon="-2.7872363">
        <ele>122.733</ele>
        <time>2021-04-01T09:21:25.733Z</time>
      </trkpt>
      <trkpt lat="43.1342891" lon="-2.7872399">
        <ele>122.753</ele>
        <time>2021-04-01T09:21:25.791Z</time>
      </trkpt>
      <trkpt lat="43.1342892" lon="-2.7872434">
        <ele>122.742</ele>
        <time>2021-04-01T09:21:25.849Z</time>
      </trkpt>
      <trkpt lat="43.134289" lon="-2.7872469">
        <ele>122.753</ele>
        <time>2021-04-01T09:21:25.907Z</time>
      </trkpt>
      <trkpt lat="43.1342888" lon="-2.7872504">
        <ele>122.764</ele>
        <time>2021-04-01T09:21:25.966Z</time>
      </trkpt>
      <trkpt lat="43.1342886" lon="-2.7872537">
        <ele>122.781</ele>
        <time>2021-04-01T09:21:26.024Z</time>
      </trkpt>
      <trkpt lat="43.1342882" lon="-2.7872571">
        <ele>122.794</ele>
        <time>2021-04-01T09:21:26.082Z</time>
      </trkpt>
      <trkpt lat="43.1342879" lon="-2.7872608">
        <ele>122.789</ele>
        <time>2021-04-01T09:21:26.140Z</time>
      </trkpt>
      <trkpt lat="43.1342877" lon="-2.7872644">
        <ele>122.798</ele>
        <time>2021-04-01T09:21:26.199Z</time>
      </trkpt>
      <trkpt lat="43.1342875" lon="-2.7872679">
        <ele>122.834</ele>
        <time>2021-04-01T09:21:26.251Z</time>
      </trkpt>
      <trkpt lat="43.1342873" lon="-2.7872713">
        <ele>122.845</ele>
        <time>2021-04-01T09:21:26.303Z</time>
      </trkpt>
      <trkpt lat="43.1342872" lon="-2.7872748">
        <ele>122.857</ele>
        <time>2021-04-01T09:21:26.355Z</time>
      </trkpt>
      <trkpt lat="43.1342869" lon="-2.7872782">
        <ele>122.87</ele>
        <time>2021-04-01T09:21:26.407Z</time>
      </trkpt>
      <trkpt lat="43.1342868" lon="-2.7872819">
        <ele>122.889</ele>
        <time>2021-04-01T09:21:26.459Z</time>
      </trkpt>
      <trkpt lat="43.1342868" lon="-2.7872854">
        <ele>122.903</ele>
        <time>2021-04-01T09:21:26.511Z</time>
      </trkpt>
      <trkpt lat="43.1342866" lon="-2.7872889">
        <ele>122.926</ele>
        <time>2021-04-01T09:21:26.563Z</time>
      </trkpt>
      <trkpt lat="43.1342864" lon="-2.7872923">
        <ele>122.938</ele>
        <time>2021-04-01T09:21:26.615Z</time>
      </trkpt>
      <trkpt lat="43.134286" lon="-2.7872955">
        <ele>122.94</ele>
        <time>2021-04-01T09:21:26.667Z</time>
      </trkpt>
      <trkpt lat="43.1342858" lon="-2.787299">
        <ele>122.969</ele>
        <time>2021-04-01T09:21:26.720Z</time>
      </trkpt>
      <trkpt lat="43.1342856" lon="-2.7873023">
        <ele>122.967</ele>
        <time>2021-04-01T09:21:26.772Z</time>
      </trkpt>
      <trkpt lat="43.1342854" lon="-2.7873056">
        <ele>122.967</ele>
        <time>2021-04-01T09:21:26.824Z</time>
      </trkpt>
      <trkpt lat="43.1342852" lon="-2.7873087">
        <ele>122.981</ele>
        <time>2021-04-01T09:21:26.876Z</time>
      </trkpt>
      <trkpt lat="43.134285" lon="-2.787312">
        <ele>122.986</ele>
        <time>2021-04-01T09:21:26.928Z</time>
      </trkpt>
      <trkpt lat="43.1342847" lon="-2.7873153">
        <ele>122.977</ele>
        <time>2021-04-01T09:21:26.980Z</time>
      </trkpt>
      <trkpt lat="43.1342845" lon="-2.7873185">
        <ele>122.981</ele>
        <time>2021-04-01T09:21:27.032Z</time>
      </trkpt>
      <trkpt lat="43.1342842" lon="-2.7873216">
        <ele>122.988</ele>
        <time>2021-04-01T09:21:27.084Z</time>
      </trkpt>
      <trkpt lat="43.1342839" lon="-2.7873249">
        <ele>122.998</ele>
        <time>2021-04-01T09:21:27.136Z</time>
      </trkpt>
      <trkpt lat="43.1342838" lon="-2.7873281">
        <ele>123.009</ele>
        <time>2021-04-01T09:21:27.189Z</time>
      </trkpt>
      <trkpt lat="43.1342837" lon="-2.7873313">
        <ele>123.023</ele>
        <time>2021-04-01T09:21:27.244Z</time>
      </trkpt>
      <trkpt lat="43.1342835" lon="-2.7873345">
        <ele>123.038</ele>
        <time>2021-04-01T09:21:27.299Z</time>
      </trkpt>
      <trkpt lat="43.1342833" lon="-2.7873379">
        <ele>123.05</ele>
        <time>2021-04-01T09:21:27.354Z</time>
      </trkpt>
      <trkpt lat="43.1342831" lon="-2.7873412">
        <ele>123.07</ele>
        <time>2021-04-01T09:21:27.409Z</time>
      </trkpt>
      <trkpt lat="43.1342828" lon="-2.7873444">
        <ele>123.072</ele>
        <time>2021-04-01T09:21:27.464Z</time>
      </trkpt>
      <trkpt lat="43.1342824" lon="-2.7873474">
        <ele>123.073</ele>
        <time>2021-04-01T09:21:27.519Z</time>
      </trkpt>
      <trkpt lat="43.1342822" lon="-2.7873507">
        <ele>123.099</ele>
        <time>2021-04-01T09:21:27.574Z</time>
      </trkpt>
      <trkpt lat="43.1342822" lon="-2.7873541">
        <ele>123.137</ele>
        <time>2021-04-01T09:21:27.629Z</time>
      </trkpt>
      <trkpt lat="43.134282" lon="-2.7873575">
        <ele>123.162</ele>
        <time>2021-04-01T09:21:27.684Z</time>
      </trkpt>
      <trkpt lat="43.1342819" lon="-2.7873608">
        <ele>123.19</ele>
        <time>2021-04-01T09:21:27.739Z</time>
      </trkpt>
      <trkpt lat="43.1342819" lon="-2.7873639">
        <ele>123.199</ele>
        <time>2021-04-01T09:21:27.794Z</time>
      </trkpt>
      <trkpt lat="43.1342816" lon="-2.7873669">
        <ele>123.185</ele>
        <time>2021-04-01T09:21:27.849Z</time>
      </trkpt>
      <trkpt lat="43.1342814" lon="-2.7873699">
        <ele>123.194</ele>
        <time>2021-04-01T09:21:27.904Z</time>
      </trkpt>
      <trkpt lat="43.1342813" lon="-2.7873732">
        <ele>123.226</ele>
        <time>2021-04-01T09:21:27.959Z</time>
      </trkpt>
      <trkpt lat="43.1342813" lon="-2.7873766">
        <ele>123.258</ele>
        <time>2021-04-01T09:21:28.014Z</time>
      </trkpt>
      <trkpt lat="43.1342812" lon="-2.7873799">
        <ele>123.269</ele>
        <time>2021-04-01T09:21:28.069Z</time>
      </trkpt>
      <trkpt lat="43.1342813" lon="-2.7873834">
        <ele>123.283</ele>
        <time>2021-04-01T09:21:28.124Z</time>
      </trkpt>
      <trkpt lat="43.1342808" lon="-2.7873865">
        <ele>123.306</ele>
        <time>2021-04-01T09:21:28.179Z</time>
      </trkpt>
      <trkpt lat="43.1342806" lon="-2.7873896">
        <ele>123.294</ele>
        <time>2021-04-01T09:21:28.234Z</time>
      </trkpt>
      <trkpt lat="43.1342802" lon="-2.7873928">
        <ele>123.325</ele>
        <time>2021-04-01T09:21:28.289Z</time>
      </trkpt>
      <trkpt lat="43.1342799" lon="-2.7873962">
        <ele>123.368</ele>
        <time>2021-04-01T09:21:28.344Z</time>
      </trkpt>
      <trkpt lat="43.1342797" lon="-2.7873995">
        <ele>123.392</ele>
        <time>2021-04-01T09:21:28.399Z</time>
      </trkpt>
      <trkpt lat="43.1342796" lon="-2.7874031">
        <ele>123.453</ele>
        <time>2021-04-01T09:21:28.454Z</time>
      </trkpt>
      <trkpt lat="43.1342793" lon="-2.7874062">
        <ele>123.435</ele>
        <time>2021-04-01T09:21:28.509Z</time>
      </trkpt>
      <trkpt lat="43.134279" lon="-2.7874093">
        <ele>123.452</ele>
        <time>2021-04-01T09:21:28.564Z</time>
      </trkpt>
      <trkpt lat="43.1342784" lon="-2.7874121">
        <ele>123.444</ele>
        <time>2021-04-01T09:21:28.619Z</time>
      </trkpt>
      <trkpt lat="43.1342782" lon="-2.7874152">
        <ele>123.447</ele>
        <time>2021-04-01T09:21:28.674Z</time>
      </trkpt>
      <trkpt lat="43.134278" lon="-2.7874186">
        <ele>123.466</ele>
        <time>2021-04-01T09:21:28.729Z</time>
      </trkpt>
      <trkpt lat="43.1342777" lon="-2.7874217">
        <ele>123.479</ele>
        <time>2021-04-01T09:21:28.784Z</time>
      </trkpt>
      <trkpt lat="43.1342774" lon="-2.7874249">
        <ele>123.502</ele>
        <time>2021-04-01T09:21:28.839Z</time>
      </trkpt>
      <trkpt lat="43.1342772" lon="-2.7874282">
        <ele>123.527</ele>
        <time>2021-04-01T09:21:28.894Z</time>
      </trkpt>
      <trkpt lat="43.134277" lon="-2.7874313">
        <ele>123.542</ele>
        <time>2021-04-01T09:21:28.949Z</time>
      </trkpt>
      <trkpt lat="43.1342768" lon="-2.7874343">
        <ele>123.542</ele>
        <time>2021-04-01T09:21:29.004Z</time>
      </trkpt>
      <trkpt lat="43.1342764" lon="-2.7874373">
        <ele>123.53</ele>
        <time>2021-04-01T09:21:29.059Z</time>
      </trkpt>
      <trkpt lat="43.1342762" lon="-2.7874407">
        <ele>123.57</ele>
        <time>2021-04-01T09:21:29.114Z</time>
      </trkpt>
      <trkpt lat="43.1342759" lon="-2.7874439">
        <ele>123.618</ele>
        <time>2021-04-01T09:21:29.169Z</time>
      </trkpt>
      <trkpt lat="43.1342757" lon="-2.7874471">
        <ele>123.641</ele>
        <time>2021-04-01T09:21:29.227Z</time>
      </trkpt>
      <trkpt lat="43.1342753" lon="-2.7874498">
        <ele>123.615</ele>
        <time>2021-04-01T09:21:29.285Z</time>
      </trkpt>
      <trkpt lat="43.134275" lon="-2.7874529">
        <ele>123.635</ele>
        <time>2021-04-01T09:21:29.343Z</time>
      </trkpt>
      <trkpt lat="43.1342748" lon="-2.787456">
        <ele>123.7</ele>
        <time>2021-04-01T09:21:29.401Z</time>
      </trkpt>
      <trkpt lat="43.1342748" lon="-2.7874593">
        <ele>123.745</ele>
        <time>2021-04-01T09:21:29.459Z</time>
      </trkpt>
      <trkpt lat="43.1342747" lon="-2.7874626">
        <ele>123.756</ele>
        <time>2021-04-01T09:21:29.517Z</time>
      </trkpt>
      <trkpt lat="43.1342741" lon="-2.7874654">
        <ele>123.706</ele>
        <time>2021-04-01T09:21:29.575Z</time>
      </trkpt>
      <trkpt lat="43.1342738" lon="-2.7874685">
        <ele>123.735</ele>
        <time>2021-04-01T09:21:29.633Z</time>
      </trkpt>
      <trkpt lat="43.1342736" lon="-2.7874715">
        <ele>123.754</ele>
        <time>2021-04-01T09:21:29.691Z</time>
      </trkpt>
      <trkpt lat="43.1342735" lon="-2.7874745">
        <ele>123.766</ele>
        <time>2021-04-01T09:21:29.749Z</time>
      </trkpt>
      <trkpt lat="43.1342729" lon="-2.7874771">
        <ele>123.753</ele>
        <time>2021-04-01T09:21:29.807Z</time>
      </trkpt>
      <trkpt lat="43.1342724" lon="-2.7874799">
        <ele>123.759</ele>
        <time>2021-04-01T09:21:29.865Z</time>
      </trkpt>
      <trkpt lat="43.134272" lon="-2.7874829">
        <ele>123.779</ele>
        <time>2021-04-01T09:21:29.923Z</time>
      </trkpt>
      <trkpt lat="43.1342718" lon="-2.7874862">
        <ele>123.791</ele>
        <time>2021-04-01T09:21:29.981Z</time>
      </trkpt>
      <trkpt lat="43.1342718" lon="-2.7874894">
        <ele>123.832</ele>
        <time>2021-04-01T09:21:30.039Z</time>
      </trkpt>
      <trkpt lat="43.1342712" lon="-2.787492">
        <ele>123.829</ele>
        <time>2021-04-01T09:21:30.097Z</time>
      </trkpt>
      <trkpt lat="43.1342709" lon="-2.7874949">
        <ele>123.837</ele>
        <time>2021-04-01T09:21:30.155Z</time>
      </trkpt>
      <trkpt lat="43.1342704" lon="-2.7874978">
        <ele>123.872</ele>
        <time>2021-04-01T09:21:30.214Z</time>
      </trkpt>
      <trkpt lat="43.1342701" lon="-2.7875007">
        <ele>123.905</ele>
        <time>2021-04-01T09:21:30.265Z</time>
      </trkpt>
      <trkpt lat="43.13427" lon="-2.7875037">
        <ele>123.897</ele>
        <time>2021-04-01T09:21:30.317Z</time>
      </trkpt>
      <trkpt lat="43.1342698" lon="-2.7875067">
        <ele>123.933</ele>
        <time>2021-04-01T09:21:30.369Z</time>
      </trkpt>
      <trkpt lat="43.1342697" lon="-2.7875094">
        <ele>123.905</ele>
        <time>2021-04-01T09:21:30.421Z</time>
      </trkpt>
      <trkpt lat="43.1342694" lon="-2.7875121">
        <ele>123.891</ele>
        <time>2021-04-01T09:21:30.473Z</time>
      </trkpt>
      <trkpt lat="43.1342692" lon="-2.7875149">
        <ele>123.883</ele>
        <time>2021-04-01T09:21:30.525Z</time>
      </trkpt>
      <trkpt lat="43.1342687" lon="-2.7875177">
        <ele>123.874</ele>
        <time>2021-04-01T09:21:30.577Z</time>
      </trkpt>
      <trkpt lat="43.1342682" lon="-2.7875202">
        <ele>123.874</ele>
        <time>2021-04-01T09:21:30.629Z</time>
      </trkpt>
      <trkpt lat="43.1342677" lon="-2.7875232">
        <ele>123.882</ele>
        <time>2021-04-01T09:21:30.681Z</time>
      </trkpt>
      <trkpt lat="43.1342673" lon="-2.7875262">
        <ele>123.9</ele>
        <time>2021-04-01T09:21:30.733Z</time>
      </trkpt>
      <trkpt lat="43.134267" lon="-2.7875293">
        <ele>123.94</ele>
        <time>2021-04-01T09:21:30.785Z</time>
      </trkpt>
      <trkpt lat="43.1342666" lon="-2.7875322">
        <ele>123.961</ele>
        <time>2021-04-01T09:21:30.837Z</time>
      </trkpt>
      <trkpt lat="43.1342661" lon="-2.7875348">
        <ele>123.94</ele>
        <time>2021-04-01T09:21:30.889Z</time>
      </trkpt>
      <trkpt lat="43.1342658" lon="-2.7875376">
        <ele>123.959</ele>
        <time>2021-04-01T09:21:30.941Z</time>
      </trkpt>
      <trkpt lat="43.1342656" lon="-2.7875404">
        <ele>123.96</ele>
        <time>2021-04-01T09:21:30.993Z</time>
      </trkpt>
      <trkpt lat="43.1342654" lon="-2.7875434">
        <ele>123.973</ele>
        <time>2021-04-01T09:21:31.045Z</time>
      </trkpt>
      <trkpt lat="43.1342647" lon="-2.7875461">
        <ele>123.994</ele>
        <time>2021-04-01T09:21:31.097Z</time>
      </trkpt>
      <trkpt lat="43.1342639" lon="-2.7875488">
        <ele>124.028</ele>
        <time>2021-04-01T09:21:31.149Z</time>
      </trkpt>
      <trkpt lat="43.1342634" lon="-2.7875517">
        <ele>124.065</ele>
        <time>2021-04-01T09:21:31.204Z</time>
      </trkpt>
      <trkpt lat="43.1342631" lon="-2.7875546">
        <ele>124.067</ele>
        <time>2021-04-01T09:21:31.259Z</time>
      </trkpt>
      <trkpt lat="43.1342627" lon="-2.7875574">
        <ele>124.053</ele>
        <time>2021-04-01T09:21:31.314Z</time>
      </trkpt>
      <trkpt lat="43.1342621" lon="-2.7875601">
        <ele>124.047</ele>
        <time>2021-04-01T09:21:31.369Z</time>
      </trkpt>
      <trkpt lat="43.1342617" lon="-2.787563">
        <ele>124.091</ele>
        <time>2021-04-01T09:21:31.424Z</time>
      </trkpt>
      <trkpt lat="43.1342614" lon="-2.7875661">
        <ele>124.128</ele>
        <time>2021-04-01T09:21:31.479Z</time>
      </trkpt>
      <trkpt lat="43.1342614" lon="-2.7875693">
        <ele>124.158</ele>
        <time>2021-04-01T09:21:31.534Z</time>
      </trkpt>
      <trkpt lat="43.1342613" lon="-2.7875722">
        <ele>124.183</ele>
        <time>2021-04-01T09:21:31.589Z</time>
      </trkpt>
      <trkpt lat="43.1342611" lon="-2.7875753">
        <ele>124.201</ele>
        <time>2021-04-01T09:21:31.644Z</time>
      </trkpt>
      <trkpt lat="43.13426" lon="-2.7875776">
        <ele>124.224</ele>
        <time>2021-04-01T09:21:31.699Z</time>
      </trkpt>
      <trkpt lat="43.1342595" lon="-2.7875804">
        <ele>124.236</ele>
        <time>2021-04-01T09:21:31.754Z</time>
      </trkpt>
      <trkpt lat="43.1342592" lon="-2.7875831">
        <ele>124.254</ele>
        <time>2021-04-01T09:21:31.809Z</time>
      </trkpt>
      <trkpt lat="43.1342584" lon="-2.7875859">
        <ele>124.246</ele>
        <time>2021-04-01T09:21:31.864Z</time>
      </trkpt>
      <trkpt lat="43.1342581" lon="-2.7875889">
        <ele>124.282</ele>
        <time>2021-04-01T09:21:31.919Z</time>
      </trkpt>
      <trkpt lat="43.1342576" lon="-2.7875919">
        <ele>124.324</ele>
        <time>2021-04-01T09:21:31.974Z</time>
      </trkpt>
      <trkpt lat="43.1342575" lon="-2.787595">
        <ele>124.353</ele>
        <time>2021-04-01T09:21:32.029Z</time>
      </trkpt>
      <trkpt lat="43.1342572" lon="-2.7875978">
        <ele>124.38</ele>
        <time>2021-04-01T09:21:32.084Z</time>
      </trkpt>
      <trkpt lat="43.1342564" lon="-2.7876003">
        <ele>124.395</ele>
        <time>2021-04-01T09:21:32.139Z</time>
      </trkpt>
      <trkpt lat="43.1342557" lon="-2.787603">
        <ele>124.402</ele>
        <time>2021-04-01T09:21:32.194Z</time>
      </trkpt>
      <trkpt lat="43.1342549" lon="-2.7876056">
        <ele>124.431</ele>
        <time>2021-04-01T09:21:32.249Z</time>
      </trkpt>
      <trkpt lat="43.1342543" lon="-2.7876083">
        <ele>124.457</ele>
        <time>2021-04-01T09:21:32.304Z</time>
      </trkpt>
      <trkpt lat="43.1342539" lon="-2.7876111">
        <ele>124.463</ele>
        <time>2021-04-01T09:21:32.359Z</time>
      </trkpt>
      <trkpt lat="43.1342535" lon="-2.7876143">
        <ele>124.509</ele>
        <time>2021-04-01T09:21:32.414Z</time>
      </trkpt>
      <trkpt lat="43.1342532" lon="-2.7876173">
        <ele>124.539</ele>
        <time>2021-04-01T09:21:32.469Z</time>
      </trkpt>
      <trkpt lat="43.1342523" lon="-2.7876198">
        <ele>124.569</ele>
        <time>2021-04-01T09:21:32.524Z</time>
      </trkpt>
      <trkpt lat="43.1342517" lon="-2.7876222">
        <ele>124.569</ele>
        <time>2021-04-01T09:21:32.579Z</time>
      </trkpt>
      <trkpt lat="43.1342514" lon="-2.787625">
        <ele>124.589</ele>
        <time>2021-04-01T09:21:32.634Z</time>
      </trkpt>
      <trkpt lat="43.1342505" lon="-2.7876275">
        <ele>124.6</ele>
        <time>2021-04-01T09:21:32.689Z</time>
      </trkpt>
      <trkpt lat="43.1342498" lon="-2.7876299">
        <ele>124.61</ele>
        <time>2021-04-01T09:21:32.744Z</time>
      </trkpt>
      <trkpt lat="43.1342492" lon="-2.7876324">
        <ele>124.618</ele>
        <time>2021-04-01T09:21:32.799Z</time>
      </trkpt>
      <trkpt lat="43.1342487" lon="-2.787635">
        <ele>124.63</ele>
        <time>2021-04-01T09:21:32.854Z</time>
      </trkpt>
      <trkpt lat="43.1342481" lon="-2.7876377">
        <ele>124.654</ele>
        <time>2021-04-01T09:21:32.909Z</time>
      </trkpt>
      <trkpt lat="43.1342475" lon="-2.7876403">
        <ele>124.654</ele>
        <time>2021-04-01T09:21:32.964Z</time>
      </trkpt>
      <trkpt lat="43.1342466" lon="-2.7876424">
        <ele>124.633</ele>
        <time>2021-04-01T09:21:33.019Z</time>
      </trkpt>
      <trkpt lat="43.1342458" lon="-2.7876447">
        <ele>124.624</ele>
        <time>2021-04-01T09:21:33.074Z</time>
      </trkpt>
      <trkpt lat="43.1342446" lon="-2.7876465">
        <ele>124.617</ele>
        <time>2021-04-01T09:21:33.129Z</time>
      </trkpt>
      <trkpt lat="43.1342441" lon="-2.787649">
        <ele>124.595</ele>
        <time>2021-04-01T09:21:33.184Z</time>
      </trkpt>
      <trkpt lat="43.1342436" lon="-2.7876517">
        <ele>124.627</ele>
        <time>2021-04-01T09:21:33.239Z</time>
      </trkpt>
      <trkpt lat="43.1342432" lon="-2.7876541">
        <ele>124.629</ele>
        <time>2021-04-01T09:21:33.294Z</time>
      </trkpt>
      <trkpt lat="43.134243" lon="-2.7876566">
        <ele>124.626</ele>
        <time>2021-04-01T09:21:33.349Z</time>
      </trkpt>
      <trkpt lat="43.1342426" lon="-2.7876592">
        <ele>124.629</ele>
        <time>2021-04-01T09:21:33.404Z</time>
      </trkpt>
      <trkpt lat="43.1342421" lon="-2.7876617">
        <ele>124.614</ele>
        <time>2021-04-01T09:21:33.459Z</time>
      </trkpt>
      <trkpt lat="43.1342414" lon="-2.7876642">
        <ele>124.626</ele>
        <time>2021-04-01T09:21:33.514Z</time>
      </trkpt>
      <trkpt lat="43.1342408" lon="-2.7876667">
        <ele>124.616</ele>
        <time>2021-04-01T09:21:33.569Z</time>
      </trkpt>
      <trkpt lat="43.1342405" lon="-2.7876693">
        <ele>124.616</ele>
        <time>2021-04-01T09:21:33.624Z</time>
      </trkpt>
      <trkpt lat="43.13424" lon="-2.7876719">
        <ele>124.625</ele>
        <time>2021-04-01T09:21:33.679Z</time>
      </trkpt>
      <trkpt lat="43.1342395" lon="-2.7876741">
        <ele>124.635</ele>
        <time>2021-04-01T09:21:33.734Z</time>
      </trkpt>
      <trkpt lat="43.1342388" lon="-2.7876764">
        <ele>124.63</ele>
        <time>2021-04-01T09:21:33.789Z</time>
      </trkpt>
      <trkpt lat="43.1342384" lon="-2.7876789">
        <ele>124.606</ele>
        <time>2021-04-01T09:21:33.844Z</time>
      </trkpt>
      <trkpt lat="43.134238" lon="-2.7876813">
        <ele>124.605</ele>
        <time>2021-04-01T09:21:33.899Z</time>
      </trkpt>
      <trkpt lat="43.1342372" lon="-2.7876838">
        <ele>124.634</ele>
        <time>2021-04-01T09:21:33.954Z</time>
      </trkpt>
      <trkpt lat="43.1342364" lon="-2.7876862">
        <ele>124.646</ele>
        <time>2021-04-01T09:21:34.009Z</time>
      </trkpt>
      <trkpt lat="43.1342357" lon="-2.7876887">
        <ele>124.687</ele>
        <time>2021-04-01T09:21:34.064Z</time>
      </trkpt>
      <trkpt lat="43.1342351" lon="-2.7876914">
        <ele>124.758</ele>
        <time>2021-04-01T09:21:34.119Z</time>
      </trkpt>
      <trkpt lat="43.134235" lon="-2.7876946">
        <ele>124.868</ele>
        <time>2021-04-01T09:21:34.174Z</time>
      </trkpt>
      <trkpt lat="43.1342344" lon="-2.7876971">
        <ele>124.899</ele>
        <time>2021-04-01T09:21:34.232Z</time>
      </trkpt>
      <trkpt lat="43.134234" lon="-2.7876995">
        <ele>124.91</ele>
        <time>2021-04-01T09:21:34.290Z</time>
      </trkpt>
      <trkpt lat="43.1342335" lon="-2.7877021">
        <ele>124.958</ele>
        <time>2021-04-01T09:21:34.348Z</time>
      </trkpt>
      <trkpt lat="43.134233" lon="-2.7877049">
        <ele>124.982</ele>
        <time>2021-04-01T09:21:34.406Z</time>
      </trkpt>
      <trkpt lat="43.1342324" lon="-2.7877074">
        <ele>124.987</ele>
        <time>2021-04-01T09:21:34.464Z</time>
      </trkpt>
      <trkpt lat="43.1342317" lon="-2.7877099">
        <ele>125.015</ele>
        <time>2021-04-01T09:21:34.522Z</time>
      </trkpt>
      <trkpt lat="43.1342312" lon="-2.7877122">
        <ele>125.018</ele>
        <time>2021-04-01T09:21:34.580Z</time>
      </trkpt>
      <trkpt lat="43.1342306" lon="-2.7877147">
        <ele>125.023</ele>
        <time>2021-04-01T09:21:34.638Z</time>
      </trkpt>
      <trkpt lat="43.1342299" lon="-2.7877175">
        <ele>125.074</ele>
        <time>2021-04-01T09:21:34.696Z</time>
      </trkpt>
      <trkpt lat="43.1342294" lon="-2.78772">
        <ele>125.083</ele>
        <time>2021-04-01T09:21:34.754Z</time>
      </trkpt>
      <trkpt lat="43.1342289" lon="-2.7877223">
        <ele>125.048</ele>
        <time>2021-04-01T09:21:34.812Z</time>
      </trkpt>
      <trkpt lat="43.1342283" lon="-2.7877248">
        <ele>125.055</ele>
        <time>2021-04-01T09:21:34.870Z</time>
      </trkpt>
      <trkpt lat="43.1342275" lon="-2.7877269">
        <ele>125.028</ele>
        <time>2021-04-01T09:21:34.928Z</time>
      </trkpt>
      <trkpt lat="43.134227" lon="-2.7877293">
        <ele>125.03</ele>
        <time>2021-04-01T09:21:34.986Z</time>
      </trkpt>
      <trkpt lat="43.1342264" lon="-2.7877317">
        <ele>125.026</ele>
        <time>2021-04-01T09:21:35.044Z</time>
      </trkpt>
      <trkpt lat="43.1342258" lon="-2.7877341">
        <ele>124.988</ele>
        <time>2021-04-01T09:21:35.102Z</time>
      </trkpt>
      <trkpt lat="43.1342254" lon="-2.7877369">
        <ele>125.011</ele>
        <time>2021-04-01T09:21:35.160Z</time>
      </trkpt>
      <trkpt lat="43.1342248" lon="-2.7877394">
        <ele>125.064</ele>
        <time>2021-04-01T09:21:35.219Z</time>
      </trkpt>
      <trkpt lat="43.134224" lon="-2.7877419">
        <ele>125.092</ele>
        <time>2021-04-01T09:21:35.271Z</time>
      </trkpt>
      <trkpt lat="43.1342234" lon="-2.7877442">
        <ele>125.103</ele>
        <time>2021-04-01T09:21:35.323Z</time>
      </trkpt>
      <trkpt lat="43.1342227" lon="-2.7877468">
        <ele>125.102</ele>
        <time>2021-04-01T09:21:35.375Z</time>
      </trkpt>
      <trkpt lat="43.134222" lon="-2.7877493">
        <ele>125.127</ele>
        <time>2021-04-01T09:21:35.427Z</time>
      </trkpt>
      <trkpt lat="43.1342214" lon="-2.787752">
        <ele>125.136</ele>
        <time>2021-04-01T09:21:35.479Z</time>
      </trkpt>
      <trkpt lat="43.1342206" lon="-2.7877545">
        <ele>125.162</ele>
        <time>2021-04-01T09:21:35.531Z</time>
      </trkpt>
      <trkpt lat="43.1342201" lon="-2.7877572">
        <ele>125.198</ele>
        <time>2021-04-01T09:21:35.583Z</time>
      </trkpt>
      <trkpt lat="43.1342192" lon="-2.7877595">
        <ele>125.174</ele>
        <time>2021-04-01T09:21:35.635Z</time>
      </trkpt>
      <trkpt lat="43.1342185" lon="-2.7877621">
        <ele>125.188</ele>
        <time>2021-04-01T09:21:35.687Z</time>
      </trkpt>
      <trkpt lat="43.1342178" lon="-2.7877647">
        <ele>125.175</ele>
        <time>2021-04-01T09:21:35.740Z</time>
      </trkpt>
      <trkpt lat="43.1342169" lon="-2.787767">
        <ele>125.199</ele>
        <time>2021-04-01T09:21:35.792Z</time>
      </trkpt>
      <trkpt lat="43.1342163" lon="-2.7877695">
        <ele>125.2</ele>
        <time>2021-04-01T09:21:35.844Z</time>
      </trkpt>
      <trkpt lat="43.1342158" lon="-2.787772">
        <ele>125.19</ele>
        <time>2021-04-01T09:21:35.896Z</time>
      </trkpt>
      <trkpt lat="43.134215" lon="-2.7877746">
        <ele>125.226</ele>
        <time>2021-04-01T09:21:35.948Z</time>
      </trkpt>
      <trkpt lat="43.1342143" lon="-2.7877771">
        <ele>125.233</ele>
        <time>2021-04-01T09:21:36.000Z</time>
      </trkpt>
      <trkpt lat="43.1342137" lon="-2.7877796">
        <ele>125.257</ele>
        <time>2021-04-01T09:21:36.052Z</time>
      </trkpt>
      <trkpt lat="43.1342127" lon="-2.787782">
        <ele>125.287</ele>
        <time>2021-04-01T09:21:36.104Z</time>
      </trkpt>
      <trkpt lat="43.1342121" lon="-2.7877845">
        <ele>125.279</ele>
        <time>2021-04-01T09:21:36.156Z</time>
      </trkpt>
      <trkpt lat="43.1342115" lon="-2.7877873">
        <ele>125.299</ele>
        <time>2021-04-01T09:21:36.209Z</time>
      </trkpt>
      <trkpt lat="43.1342107" lon="-2.7877897">
        <ele>125.325</ele>
        <time>2021-04-01T09:21:36.264Z</time>
      </trkpt>
      <trkpt lat="43.1342099" lon="-2.787792">
        <ele>125.35</ele>
        <time>2021-04-01T09:21:36.319Z</time>
      </trkpt>
      <trkpt lat="43.134209" lon="-2.7877943">
        <ele>125.371</ele>
        <time>2021-04-01T09:21:36.374Z</time>
      </trkpt>
      <trkpt lat="43.1342079" lon="-2.7877966">
        <ele>125.381</ele>
        <time>2021-04-01T09:21:36.429Z</time>
      </trkpt>
      <trkpt lat="43.1342069" lon="-2.787799">
        <ele>125.402</ele>
        <time>2021-04-01T09:21:36.484Z</time>
      </trkpt>
      <trkpt lat="43.1342059" lon="-2.7878014">
        <ele>125.416</ele>
        <time>2021-04-01T09:21:36.539Z</time>
      </trkpt>
      <trkpt lat="43.134205" lon="-2.7878037">
        <ele>125.424</ele>
        <time>2021-04-01T09:21:36.594Z</time>
      </trkpt>
      <trkpt lat="43.1342044" lon="-2.7878062">
        <ele>125.421</ele>
        <time>2021-04-01T09:21:36.649Z</time>
      </trkpt>
      <trkpt lat="43.1342035" lon="-2.7878087">
        <ele>125.438</ele>
        <time>2021-04-01T09:21:36.704Z</time>
      </trkpt>
      <trkpt lat="43.1342027" lon="-2.7878111">
        <ele>125.471</ele>
        <time>2021-04-01T09:21:36.759Z</time>
      </trkpt>
      <trkpt lat="43.1342017" lon="-2.7878134">
        <ele>125.473</ele>
        <time>2021-04-01T09:21:36.814Z</time>
      </trkpt>
      <trkpt lat="43.1342007" lon="-2.7878159">
        <ele>125.469</ele>
        <time>2021-04-01T09:21:36.869Z</time>
      </trkpt>
      <trkpt lat="43.1341998" lon="-2.7878184">
        <ele>125.477</ele>
        <time>2021-04-01T09:21:36.924Z</time>
      </trkpt>
      <trkpt lat="43.1341991" lon="-2.787821">
        <ele>125.501</ele>
        <time>2021-04-01T09:21:36.979Z</time>
      </trkpt>
      <trkpt lat="43.1341984" lon="-2.7878237">
        <ele>125.548</ele>
        <time>2021-04-01T09:21:37.034Z</time>
      </trkpt>
      <trkpt lat="43.1341974" lon="-2.7878263">
        <ele>125.602</ele>
        <time>2021-04-01T09:21:37.089Z</time>
      </trkpt>
      <trkpt lat="43.1341968" lon="-2.7878286">
        <ele>125.618</ele>
        <time>2021-04-01T09:21:37.144Z</time>
      </trkpt>
      <trkpt lat="43.1341959" lon="-2.7878309">
        <ele>125.552</ele>
        <time>2021-04-01T09:21:37.199Z</time>
      </trkpt>
      <trkpt lat="43.134195" lon="-2.7878334">
        <ele>125.55</ele>
        <time>2021-04-01T09:21:37.254Z</time>
      </trkpt>
      <trkpt lat="43.1341942" lon="-2.7878358">
        <ele>125.546</ele>
        <time>2021-04-01T09:21:37.309Z</time>
      </trkpt>
      <trkpt lat="43.1341934" lon="-2.7878382">
        <ele>125.53</ele>
        <time>2021-04-01T09:21:37.364Z</time>
      </trkpt>
      <trkpt lat="43.1341927" lon="-2.7878406">
        <ele>125.522</ele>
        <time>2021-04-01T09:21:37.419Z</time>
      </trkpt>
      <trkpt lat="43.1341923" lon="-2.7878428">
        <ele>125.526</ele>
        <time>2021-04-01T09:21:37.474Z</time>
      </trkpt>
      <trkpt lat="43.1341916" lon="-2.7878456">
        <ele>125.546</ele>
        <time>2021-04-01T09:21:37.529Z</time>
      </trkpt>
      <trkpt lat="43.1341907" lon="-2.7878482">
        <ele>125.53</ele>
        <time>2021-04-01T09:21:37.584Z</time>
      </trkpt>
      <trkpt lat="43.1341898" lon="-2.7878508">
        <ele>125.536</ele>
        <time>2021-04-01T09:21:37.639Z</time>
      </trkpt>
      <trkpt lat="43.134189" lon="-2.7878532">
        <ele>125.526</ele>
        <time>2021-04-01T09:21:37.694Z</time>
      </trkpt>
      <trkpt lat="43.1341883" lon="-2.7878558">
        <ele>125.563</ele>
        <time>2021-04-01T09:21:37.749Z</time>
      </trkpt>
      <trkpt lat="43.1341876" lon="-2.7878583">
        <ele>125.562</ele>
        <time>2021-04-01T09:21:37.804Z</time>
      </trkpt>
      <trkpt lat="43.1341868" lon="-2.7878607">
        <ele>125.547</ele>
        <time>2021-04-01T09:21:37.859Z</time>
      </trkpt>
      <trkpt lat="43.1341859" lon="-2.7878631">
        <ele>125.521</ele>
        <time>2021-04-01T09:21:37.914Z</time>
      </trkpt>
      <trkpt lat="43.134185" lon="-2.7878656">
        <ele>125.518</ele>
        <time>2021-04-01T09:21:37.969Z</time>
      </trkpt>
      <trkpt lat="43.1341841" lon="-2.787868">
        <ele>125.523</ele>
        <time>2021-04-01T09:21:38.024Z</time>
      </trkpt>
      <trkpt lat="43.1341833" lon="-2.7878703">
        <ele>125.555</ele>
        <time>2021-04-01T09:21:38.079Z</time>
      </trkpt>
      <trkpt lat="43.1341825" lon="-2.7878727">
        <ele>125.569</ele>
        <time>2021-04-01T09:21:38.134Z</time>
      </trkpt>
      <trkpt lat="43.1341817" lon="-2.787875">
        <ele>125.583</ele>
        <time>2021-04-01T09:21:38.189Z</time>
      </trkpt>
      <trkpt lat="43.134181" lon="-2.7878777">
        <ele>125.612</ele>
        <time>2021-04-01T09:21:38.241Z</time>
      </trkpt>
      <trkpt lat="43.1341803" lon="-2.7878804">
        <ele>125.652</ele>
        <time>2021-04-01T09:21:38.293Z</time>
      </trkpt>
      <trkpt lat="43.1341799" lon="-2.7878834">
        <ele>125.678</ele>
        <time>2021-04-01T09:21:38.345Z</time>
      </trkpt>
      <trkpt lat="43.1341797" lon="-2.7878862">
        <ele>125.693</ele>
        <time>2021-04-01T09:21:38.397Z</time>
      </trkpt>
      <trkpt lat="43.1341791" lon="-2.7878887">
        <ele>125.722</ele>
        <time>2021-04-01T09:21:38.449Z</time>
      </trkpt>
      <trkpt lat="43.1341786" lon="-2.7878913">
        <ele>125.747</ele>
        <time>2021-04-01T09:21:38.501Z</time>
      </trkpt>
      <trkpt lat="43.1341779" lon="-2.7878939">
        <ele>125.787</ele>
        <time>2021-04-01T09:21:38.553Z</time>
      </trkpt>
      <trkpt lat="43.1341769" lon="-2.7878963">
        <ele>125.812</ele>
        <time>2021-04-01T09:21:38.605Z</time>
      </trkpt>
      <trkpt lat="43.1341762" lon="-2.7878987">
        <ele>125.831</ele>
        <time>2021-04-01T09:21:38.657Z</time>
      </trkpt>
      <trkpt lat="43.1341752" lon="-2.7879011">
        <ele>125.825</ele>
        <time>2021-04-01T09:21:38.710Z</time>
      </trkpt>
      <trkpt lat="43.1341745" lon="-2.7879036">
        <ele>125.827</ele>
        <time>2021-04-01T09:21:38.762Z</time>
      </trkpt>
      <trkpt lat="43.1341736" lon="-2.787906">
        <ele>125.856</ele>
        <time>2021-04-01T09:21:38.814Z</time>
      </trkpt>
      <trkpt lat="43.1341726" lon="-2.7879084">
        <ele>125.882</ele>
        <time>2021-04-01T09:21:38.866Z</time>
      </trkpt>
      <trkpt lat="43.1341717" lon="-2.7879108">
        <ele>125.904</ele>
        <time>2021-04-01T09:21:38.918Z</time>
      </trkpt>
      <trkpt lat="43.1341712" lon="-2.7879132">
        <ele>125.932</ele>
        <time>2021-04-01T09:21:38.970Z</time>
      </trkpt>
      <trkpt lat="43.1341702" lon="-2.7879155">
        <ele>125.93</ele>
        <time>2021-04-01T09:21:39.022Z</time>
      </trkpt>
      <trkpt lat="43.1341694" lon="-2.7879177">
        <ele>125.922</ele>
        <time>2021-04-01T09:21:39.074Z</time>
      </trkpt>
      <trkpt lat="43.1341686" lon="-2.78792">
        <ele>125.937</ele>
        <time>2021-04-01T09:21:39.126Z</time>
      </trkpt>
      <trkpt lat="43.1341676" lon="-2.787922">
        <ele>125.934</ele>
        <time>2021-04-01T09:21:39.179Z</time>
      </trkpt>
      <trkpt lat="43.1341672" lon="-2.7879243">
        <ele>125.942</ele>
        <time>2021-04-01T09:21:39.237Z</time>
      </trkpt>
      <trkpt lat="43.1341658" lon="-2.7879259">
        <ele>125.875</ele>
        <time>2021-04-01T09:21:39.295Z</time>
      </trkpt>
      <trkpt lat="43.1341648" lon="-2.7879271">
        <ele>125.787</ele>
        <time>2021-04-01T09:21:39.353Z</time>
      </trkpt>
      <trkpt lat="43.134164" lon="-2.7879286">
        <ele>125.725</ele>
        <time>2021-04-01T09:21:39.411Z</time>
      </trkpt>
      <trkpt lat="43.1341627" lon="-2.7879304">
        <ele>125.713</ele>
        <time>2021-04-01T09:21:39.469Z</time>
      </trkpt>
      <trkpt lat="43.1341615" lon="-2.7879328">
        <ele>125.724</ele>
        <time>2021-04-01T09:21:39.527Z</time>
      </trkpt>
      <trkpt lat="43.1341604" lon="-2.787935">
        <ele>125.717</ele>
        <time>2021-04-01T09:21:39.585Z</time>
      </trkpt>
      <trkpt lat="43.1341594" lon="-2.7879369">
        <ele>125.688</ele>
        <time>2021-04-01T09:21:39.643Z</time>
      </trkpt>
      <trkpt lat="43.1341585" lon="-2.7879387">
        <ele>125.652</ele>
        <time>2021-04-01T09:21:39.701Z</time>
      </trkpt>
      <trkpt lat="43.1341575" lon="-2.7879405">
        <ele>125.634</ele>
        <time>2021-04-01T09:21:39.759Z</time>
      </trkpt>
      <trkpt lat="43.1341564" lon="-2.7879425">
        <ele>125.62</ele>
        <time>2021-04-01T09:21:39.817Z</time>
      </trkpt>
      <trkpt lat="43.1341552" lon="-2.7879443">
        <ele>125.593</ele>
        <time>2021-04-01T09:21:39.875Z</time>
      </trkpt>
      <trkpt lat="43.1341539" lon="-2.7879463">
        <ele>125.565</ele>
        <time>2021-04-01T09:21:39.933Z</time>
      </trkpt>
      <trkpt lat="43.1341524" lon="-2.7879482">
        <ele>125.534</ele>
        <time>2021-04-01T09:21:39.991Z</time>
      </trkpt>
      <trkpt lat="43.1341513" lon="-2.7879503">
        <ele>125.506</ele>
        <time>2021-04-01T09:21:40.049Z</time>
      </trkpt>
      <trkpt lat="43.1341503" lon="-2.7879521">
        <ele>125.496</ele>
        <time>2021-04-01T09:21:40.107Z</time>
      </trkpt>
      <trkpt lat="43.1341491" lon="-2.7879543">
        <ele>125.503</ele>
        <time>2021-04-01T09:21:40.165Z</time>
      </trkpt>
      <trkpt lat="43.1341477" lon="-2.7879565">
        <ele>125.48</ele>
        <time>2021-04-01T09:21:40.224Z</time>
      </trkpt>
      <trkpt lat="43.1341464" lon="-2.7879587">
        <ele>125.457</ele>
        <time>2021-04-01T09:21:40.282Z</time>
      </trkpt>
      <trkpt lat="43.1341457" lon="-2.7879607">
        <ele>125.414</ele>
        <time>2021-04-01T09:21:40.340Z</time>
      </trkpt>
      <trkpt lat="43.1341446" lon="-2.7879628">
        <ele>125.41</ele>
        <time>2021-04-01T09:21:40.398Z</time>
      </trkpt>
      <trkpt lat="43.1341442" lon="-2.7879653">
        <ele>125.348</ele>
        <time>2021-04-01T09:21:40.456Z</time>
      </trkpt>
      <trkpt lat="43.1341432" lon="-2.787968">
        <ele>125.361</ele>
        <time>2021-04-01T09:21:40.515Z</time>
      </trkpt>
      <trkpt lat="43.1341425" lon="-2.7879708">
        <ele>125.325</ele>
        <time>2021-04-01T09:21:40.573Z</time>
      </trkpt>
      <trkpt lat="43.1341418" lon="-2.7879737">
        <ele>125.354</ele>
        <time>2021-04-01T09:21:40.631Z</time>
      </trkpt>
      <trkpt lat="43.1341411" lon="-2.7879762">
        <ele>125.407</ele>
        <time>2021-04-01T09:21:40.689Z</time>
      </trkpt>
      <trkpt lat="43.1341408" lon="-2.7879789">
        <ele>125.413</ele>
        <time>2021-04-01T09:21:40.748Z</time>
      </trkpt>
      <trkpt lat="43.13414" lon="-2.7879815">
        <ele>125.444</ele>
        <time>2021-04-01T09:21:40.806Z</time>
      </trkpt>
      <trkpt lat="43.1341388" lon="-2.7879843">
        <ele>125.508</ele>
        <time>2021-04-01T09:21:40.864Z</time>
      </trkpt>
      <trkpt lat="43.134138" lon="-2.7879871">
        <ele>125.521</ele>
        <time>2021-04-01T09:21:40.922Z</time>
      </trkpt>
      <trkpt lat="43.1341373" lon="-2.7879899">
        <ele>125.562</ele>
        <time>2021-04-01T09:21:40.981Z</time>
      </trkpt>
      <trkpt lat="43.1341358" lon="-2.7879918">
        <ele>125.572</ele>
        <time>2021-04-01T09:21:41.039Z</time>
      </trkpt>
      <trkpt lat="43.1341346" lon="-2.7879941">
        <ele>125.613</ele>
        <time>2021-04-01T09:21:41.097Z</time>
      </trkpt>
      <trkpt lat="43.1341334" lon="-2.7879961">
        <ele>125.602</ele>
        <time>2021-04-01T09:21:41.155Z</time>
      </trkpt>
      <trkpt lat="43.1341327" lon="-2.7879982">
        <ele>125.52</ele>
        <time>2021-04-01T09:21:41.214Z</time>
      </trkpt>
      <trkpt lat="43.1341322" lon="-2.7880006">
        <ele>125.475</ele>
        <time>2021-04-01T09:21:41.266Z</time>
      </trkpt>
      <trkpt lat="43.1341311" lon="-2.7880028">
        <ele>125.535</ele>
        <time>2021-04-01T09:21:41.318Z</time>
      </trkpt>
      <trkpt lat="43.1341298" lon="-2.7880052">
        <ele>125.614</ele>
        <time>2021-04-01T09:21:41.370Z</time>
      </trkpt>
      <trkpt lat="43.1341286" lon="-2.7880076">
        <ele>125.629</ele>
        <time>2021-04-01T09:21:41.422Z</time>
      </trkpt>
      <trkpt lat="43.1341274" lon="-2.7880099">
        <ele>125.571</ele>
        <time>2021-04-01T09:21:41.474Z</time>
      </trkpt>
      <trkpt lat="43.1341263" lon="-2.7880121">
        <ele>125.597</ele>
        <time>2021-04-01T09:21:41.526Z</time>
      </trkpt>
      <trkpt lat="43.1341254" lon="-2.7880144">
        <ele>125.637</ele>
        <time>2021-04-01T09:21:41.578Z</time>
      </trkpt>
      <trkpt lat="43.1341243" lon="-2.7880167">
        <ele>125.688</ele>
        <time>2021-04-01T09:21:41.630Z</time>
      </trkpt>
      <trkpt lat="43.134123" lon="-2.7880189">
        <ele>125.706</ele>
        <time>2021-04-01T09:21:41.682Z</time>
      </trkpt>
      <trkpt lat="43.1341218" lon="-2.788021">
        <ele>125.686</ele>
        <time>2021-04-01T09:21:41.735Z</time>
      </trkpt>
      <trkpt lat="43.1341205" lon="-2.7880231">
        <ele>125.756</ele>
        <time>2021-04-01T09:21:41.787Z</time>
      </trkpt>
      <trkpt lat="43.1341195" lon="-2.7880256">
        <ele>125.708</ele>
        <time>2021-04-01T09:21:41.839Z</time>
      </trkpt>
      <trkpt lat="43.1341185" lon="-2.7880282">
        <ele>125.741</ele>
        <time>2021-04-01T09:21:41.891Z</time>
      </trkpt>
      <trkpt lat="43.1341179" lon="-2.7880311">
        <ele>125.74</ele>
        <time>2021-04-01T09:21:41.943Z</time>
      </trkpt>
      <trkpt lat="43.1341166" lon="-2.7880333">
        <ele>125.746</ele>
        <time>2021-04-01T09:21:41.995Z</time>
      </trkpt>
      <trkpt lat="43.1341166" lon="-2.788036">
        <ele>125.801</ele>
        <time>2021-04-01T09:21:42.047Z</time>
      </trkpt>
      <trkpt lat="43.1341163" lon="-2.7880385">
        <ele>125.875</ele>
        <time>2021-04-01T09:21:42.099Z</time>
      </trkpt>
      <trkpt lat="43.134115" lon="-2.7880409">
        <ele>125.882</ele>
        <time>2021-04-01T09:21:42.151Z</time>
      </trkpt>
      <trkpt lat="43.1341135" lon="-2.7880431">
        <ele>125.892</ele>
        <time>2021-04-01T09:21:42.204Z</time>
      </trkpt>
      <trkpt lat="43.1341125" lon="-2.7880451">
        <ele>125.966</ele>
        <time>2021-04-01T09:21:42.259Z</time>
      </trkpt>
      <trkpt lat="43.1341112" lon="-2.788047">
        <ele>125.983</ele>
        <time>2021-04-01T09:21:42.314Z</time>
      </trkpt>
      <trkpt lat="43.1341102" lon="-2.7880492">
        <ele>126.01</ele>
        <time>2021-04-01T09:21:42.369Z</time>
      </trkpt>
      <trkpt lat="43.1341094" lon="-2.7880515">
        <ele>126.033</ele>
        <time>2021-04-01T09:21:42.424Z</time>
      </trkpt>
      <trkpt lat="43.1341085" lon="-2.7880537">
        <ele>126.026</ele>
        <time>2021-04-01T09:21:42.479Z</time>
      </trkpt>
      <trkpt lat="43.1341072" lon="-2.7880557">
        <ele>126.015</ele>
        <time>2021-04-01T09:21:42.534Z</time>
      </trkpt>
      <trkpt lat="43.1341059" lon="-2.7880582">
        <ele>126.052</ele>
        <time>2021-04-01T09:21:42.589Z</time>
      </trkpt>
      <trkpt lat="43.1341055" lon="-2.7880608">
        <ele>126.126</ele>
        <time>2021-04-01T09:21:42.644Z</time>
      </trkpt>
      <trkpt lat="43.1341044" lon="-2.7880627">
        <ele>126.126</ele>
        <time>2021-04-01T09:21:42.699Z</time>
      </trkpt>
      <trkpt lat="43.1341034" lon="-2.7880648">
        <ele>126.102</ele>
        <time>2021-04-01T09:21:42.754Z</time>
      </trkpt>
      <trkpt lat="43.1341022" lon="-2.7880669">
        <ele>126.114</ele>
        <time>2021-04-01T09:21:42.809Z</time>
      </trkpt>
      <trkpt lat="43.1341013" lon="-2.7880691">
        <ele>126.118</ele>
        <time>2021-04-01T09:21:42.864Z</time>
      </trkpt>
      <trkpt lat="43.1341005" lon="-2.7880715">
        <ele>126.087</ele>
        <time>2021-04-01T09:21:42.919Z</time>
      </trkpt>
      <trkpt lat="43.1340998" lon="-2.7880738">
        <ele>126.108</ele>
        <time>2021-04-01T09:21:42.974Z</time>
      </trkpt>
      <trkpt lat="43.1340992" lon="-2.7880761">
        <ele>126.127</ele>
        <time>2021-04-01T09:21:43.029Z</time>
      </trkpt>
      <trkpt lat="43.1340985" lon="-2.7880786">
        <ele>126.129</ele>
        <time>2021-04-01T09:21:43.084Z</time>
      </trkpt>
      <trkpt lat="43.1340979" lon="-2.7880812">
        <ele>126.197</ele>
        <time>2021-04-01T09:21:43.139Z</time>
      </trkpt>
      <trkpt lat="43.1340974" lon="-2.7880839">
        <ele>126.191</ele>
        <time>2021-04-01T09:21:43.194Z</time>
      </trkpt>
      <trkpt lat="43.1340965" lon="-2.788086">
        <ele>126.147</ele>
        <time>2021-04-01T09:21:43.246Z</time>
      </trkpt>
      <trkpt lat="43.1340954" lon="-2.7880881">
        <ele>126.139</ele>
        <time>2021-04-01T09:21:43.298Z</time>
      </trkpt>
      <trkpt lat="43.1340944" lon="-2.7880903">
        <ele>126.144</ele>
        <time>2021-04-01T09:21:43.350Z</time>
      </trkpt>
      <trkpt lat="43.1340936" lon="-2.7880926">
        <ele>126.159</ele>
        <time>2021-04-01T09:21:43.402Z</time>
      </trkpt>
      <trkpt lat="43.1340927" lon="-2.7880948">
        <ele>126.155</ele>
        <time>2021-04-01T09:21:43.454Z</time>
      </trkpt>
      <trkpt lat="43.1340919" lon="-2.7880972">
        <ele>126.165</ele>
        <time>2021-04-01T09:21:43.506Z</time>
      </trkpt>
      <trkpt lat="43.134091" lon="-2.7880991">
        <ele>126.194</ele>
        <time>2021-04-01T09:21:43.558Z</time>
      </trkpt>
      <trkpt lat="43.1340896" lon="-2.788101">
        <ele>126.233</ele>
        <time>2021-04-01T09:21:43.610Z</time>
      </trkpt>
      <trkpt lat="43.1340887" lon="-2.7881034">
        <ele>126.247</ele>
        <time>2021-04-01T09:21:43.662Z</time>
      </trkpt>
      <trkpt lat="43.1340878" lon="-2.788106">
        <ele>126.24</ele>
        <time>2021-04-01T09:21:43.715Z</time>
      </trkpt>
      <trkpt lat="43.1340868" lon="-2.788108">
        <ele>126.23</ele>
        <time>2021-04-01T09:21:43.767Z</time>
      </trkpt>
      <trkpt lat="43.1340858" lon="-2.7881101">
        <ele>126.237</ele>
        <time>2021-04-01T09:21:43.819Z</time>
      </trkpt>
      <trkpt lat="43.1340851" lon="-2.7881124">
        <ele>126.24</ele>
        <time>2021-04-01T09:21:43.871Z</time>
      </trkpt>
      <trkpt lat="43.1340843" lon="-2.7881144">
        <ele>126.238</ele>
        <time>2021-04-01T09:21:43.923Z</time>
      </trkpt>
      <trkpt lat="43.1340838" lon="-2.7881164">
        <ele>126.221</ele>
        <time>2021-04-01T09:21:43.975Z</time>
      </trkpt>
      <trkpt lat="43.1340834" lon="-2.7881188">
        <ele>126.228</ele>
        <time>2021-04-01T09:21:44.027Z</time>
      </trkpt>
      <trkpt lat="43.1340827" lon="-2.7881211">
        <ele>126.255</ele>
        <time>2021-04-01T09:21:44.079Z</time>
      </trkpt>
      <trkpt lat="43.1340817" lon="-2.7881232">
        <ele>126.219</ele>
        <time>2021-04-01T09:21:44.131Z</time>
      </trkpt>
      <trkpt lat="43.1340808" lon="-2.7881251">
        <ele>126.146</ele>
        <time>2021-04-01T09:21:44.184Z</time>
      </trkpt>
      <trkpt lat="43.1340801" lon="-2.7881272">
        <ele>126.056</ele>
        <time>2021-04-01T09:21:44.242Z</time>
      </trkpt>
      <trkpt lat="43.1340798" lon="-2.7881292">
        <ele>126</ele>
        <time>2021-04-01T09:21:44.300Z</time>
      </trkpt>
      <trkpt lat="43.1340791" lon="-2.7881309">
        <ele>125.98</ele>
        <time>2021-04-01T09:21:44.358Z</time>
      </trkpt>
      <trkpt lat="43.1340778" lon="-2.788132">
        <ele>125.952</ele>
        <time>2021-04-01T09:21:44.416Z</time>
      </trkpt>
      <trkpt lat="43.1340764" lon="-2.7881336">
        <ele>125.905</ele>
        <time>2021-04-01T09:21:44.475Z</time>
      </trkpt>
      <trkpt lat="43.1340754" lon="-2.788136">
        <ele>125.909</ele>
        <time>2021-04-01T09:21:44.533Z</time>
      </trkpt>
      <trkpt lat="43.134075" lon="-2.7881378">
        <ele>125.941</ele>
        <time>2021-04-01T09:21:44.591Z</time>
      </trkpt>
      <trkpt lat="43.1340739" lon="-2.7881395">
        <ele>125.951</ele>
        <time>2021-04-01T09:21:44.649Z</time>
      </trkpt>
      <trkpt lat="43.1340724" lon="-2.788141">
        <ele>125.942</ele>
        <time>2021-04-01T09:21:44.708Z</time>
      </trkpt>
      <trkpt lat="43.1340718" lon="-2.788143">
        <ele>125.955</ele>
        <time>2021-04-01T09:21:44.766Z</time>
      </trkpt>
      <trkpt lat="43.1340713" lon="-2.7881449">
        <ele>125.901</ele>
        <time>2021-04-01T09:21:44.824Z</time>
      </trkpt>
      <trkpt lat="43.1340703" lon="-2.7881466">
        <ele>125.878</ele>
        <time>2021-04-01T09:21:44.882Z</time>
      </trkpt>
      <trkpt lat="43.1340692" lon="-2.7881481">
        <ele>125.881</ele>
        <time>2021-04-01T09:21:44.941Z</time>
      </trkpt>
      <trkpt lat="43.1340681" lon="-2.78815">
        <ele>125.883</ele>
        <time>2021-04-01T09:21:44.999Z</time>
      </trkpt>
      <trkpt lat="43.1340669" lon="-2.7881521">
        <ele>125.854</ele>
        <time>2021-04-01T09:21:45.057Z</time>
      </trkpt>
      <trkpt lat="43.1340661" lon="-2.7881547">
        <ele>125.917</ele>
        <time>2021-04-01T09:21:45.115Z</time>
      </trkpt>
      <trkpt lat="43.1340654" lon="-2.7881569">
        <ele>125.976</ele>
        <time>2021-04-01T09:21:45.174Z</time>
      </trkpt>
      <trkpt lat="43.1340645" lon="-2.7881594">
        <ele>126.072</ele>
        <time>2021-04-01T09:21:45.229Z</time>
      </trkpt>
      <trkpt lat="43.1340634" lon="-2.7881613">
        <ele>126.053</ele>
        <time>2021-04-01T09:21:45.284Z</time>
      </trkpt>
      <trkpt lat="43.1340626" lon="-2.7881631">
        <ele>126.067</ele>
        <time>2021-04-01T09:21:45.339Z</time>
      </trkpt>
      <trkpt lat="43.1340618" lon="-2.7881647">
        <ele>126.04</ele>
        <time>2021-04-01T09:21:45.394Z</time>
      </trkpt>
      <trkpt lat="43.1340609" lon="-2.7881666">
        <ele>126.077</ele>
        <time>2021-04-01T09:21:45.449Z</time>
      </trkpt>
      <trkpt lat="43.1340598" lon="-2.7881687">
        <ele>126.109</ele>
        <time>2021-04-01T09:21:45.504Z</time>
      </trkpt>
      <trkpt lat="43.1340588" lon="-2.7881708">
        <ele>126.124</ele>
        <time>2021-04-01T09:21:45.559Z</time>
      </trkpt>
      <trkpt lat="43.1340576" lon="-2.788173">
        <ele>126.123</ele>
        <time>2021-04-01T09:21:45.614Z</time>
      </trkpt>
      <trkpt lat="43.1340562" lon="-2.7881746">
        <ele>126.099</ele>
        <time>2021-04-01T09:21:45.669Z</time>
      </trkpt>
      <trkpt lat="43.1340547" lon="-2.7881764">
        <ele>126.058</ele>
        <time>2021-04-01T09:21:45.724Z</time>
      </trkpt>
      <trkpt lat="43.1340532" lon="-2.7881781">
        <ele>126.054</ele>
        <time>2021-04-01T09:21:45.779Z</time>
      </trkpt>
      <trkpt lat="43.1340515" lon="-2.7881798">
        <ele>126.064</ele>
        <time>2021-04-01T09:21:45.834Z</time>
      </trkpt>
      <trkpt lat="43.1340507" lon="-2.7881814">
        <ele>126.114</ele>
        <time>2021-04-01T09:21:45.889Z</time>
      </trkpt>
      <trkpt lat="43.1340497" lon="-2.7881835">
        <ele>126.084</ele>
        <time>2021-04-01T09:21:45.944Z</time>
      </trkpt>
      <trkpt lat="43.1340487" lon="-2.788186">
        <ele>126.114</ele>
        <time>2021-04-01T09:21:45.999Z</time>
      </trkpt>
      <trkpt lat="43.1340476" lon="-2.7881882">
        <ele>126.218</ele>
        <time>2021-04-01T09:21:46.054Z</time>
      </trkpt>
      <trkpt lat="43.1340465" lon="-2.7881898">
        <ele>126.138</ele>
        <time>2021-04-01T09:21:46.109Z</time>
      </trkpt>
      <trkpt lat="43.1340452" lon="-2.7881917">
        <ele>126.129</ele>
        <time>2021-04-01T09:21:46.164Z</time>
      </trkpt>
      <trkpt lat="43.1340438" lon="-2.7881935">
        <ele>126.111</ele>
        <time>2021-04-01T09:21:46.219Z</time>
      </trkpt>
      <trkpt lat="43.1340426" lon="-2.7881951">
        <ele>126.128</ele>
        <time>2021-04-01T09:21:46.274Z</time>
      </trkpt>
      <trkpt lat="43.1340414" lon="-2.7881971">
        <ele>126.073</ele>
        <time>2021-04-01T09:21:46.329Z</time>
      </trkpt>
      <trkpt lat="43.1340405" lon="-2.7881994">
        <ele>126.047</ele>
        <time>2021-04-01T09:21:46.384Z</time>
      </trkpt>
      <trkpt lat="43.1340395" lon="-2.7882014">
        <ele>126.094</ele>
        <time>2021-04-01T09:21:46.439Z</time>
      </trkpt>
      <trkpt lat="43.1340385" lon="-2.7882038">
        <ele>126.07</ele>
        <time>2021-04-01T09:21:46.494Z</time>
      </trkpt>
      <trkpt lat="43.1340379" lon="-2.7882065">
        <ele>126.127</ele>
        <time>2021-04-01T09:21:46.549Z</time>
      </trkpt>
      <trkpt lat="43.1340374" lon="-2.788209">
        <ele>126.187</ele>
        <time>2021-04-01T09:21:46.604Z</time>
      </trkpt>
      <trkpt lat="43.1340372" lon="-2.7882116">
        <ele>126.195</ele>
        <time>2021-04-01T09:21:46.659Z</time>
      </trkpt>
      <trkpt lat="43.1340363" lon="-2.788214">
        <ele>126.174</ele>
        <time>2021-04-01T09:21:46.714Z</time>
      </trkpt>
      <trkpt lat="43.1340356" lon="-2.7882163">
        <ele>126.158</ele>
        <time>2021-04-01T09:21:46.769Z</time>
      </trkpt>
      <trkpt lat="43.134035" lon="-2.7882186">
        <ele>126.152</ele>
        <time>2021-04-01T09:21:46.824Z</time>
      </trkpt>
      <trkpt lat="43.1340344" lon="-2.788221">
        <ele>126.155</ele>
        <time>2021-04-01T09:21:46.879Z</time>
      </trkpt>
      <trkpt lat="43.1340337" lon="-2.7882232">
        <ele>126.163</ele>
        <time>2021-04-01T09:21:46.934Z</time>
      </trkpt>
      <trkpt lat="43.1340331" lon="-2.7882258">
        <ele>126.183</ele>
        <time>2021-04-01T09:21:46.989Z</time>
      </trkpt>
      <trkpt lat="43.134033" lon="-2.7882284">
        <ele>126.195</ele>
        <time>2021-04-01T09:21:47.044Z</time>
      </trkpt>
      <trkpt lat="43.134032" lon="-2.7882306">
        <ele>126.147</ele>
        <time>2021-04-01T09:21:47.099Z</time>
      </trkpt>
      <trkpt lat="43.1340311" lon="-2.7882328">
        <ele>126.094</ele>
        <time>2021-04-01T09:21:47.154Z</time>
      </trkpt>
      <trkpt lat="43.1340298" lon="-2.7882348">
        <ele>126.086</ele>
        <time>2021-04-01T09:21:47.209Z</time>
      </trkpt>
      <trkpt lat="43.1340294" lon="-2.788237">
        <ele>126.047</ele>
        <time>2021-04-01T09:21:47.264Z</time>
      </trkpt>
      <trkpt lat="43.1340286" lon="-2.7882389">
        <ele>126.009</ele>
        <time>2021-04-01T09:21:47.319Z</time>
      </trkpt>
      <trkpt lat="43.1340276" lon="-2.7882408">
        <ele>125.98</ele>
        <time>2021-04-01T09:21:47.374Z</time>
      </trkpt>
      <trkpt lat="43.1340263" lon="-2.7882422">
        <ele>126.012</ele>
        <time>2021-04-01T09:21:47.429Z</time>
      </trkpt>
      <trkpt lat="43.1340252" lon="-2.7882438">
        <ele>126.031</ele>
        <time>2021-04-01T09:21:47.484Z</time>
      </trkpt>
      <trkpt lat="43.1340246" lon="-2.7882459">
        <ele>126.082</ele>
        <time>2021-04-01T09:21:47.539Z</time>
      </trkpt>
      <trkpt lat="43.1340238" lon="-2.7882481">
        <ele>126.072</ele>
        <time>2021-04-01T09:21:47.594Z</time>
      </trkpt>
      <trkpt lat="43.1340237" lon="-2.7882507">
        <ele>126.075</ele>
        <time>2021-04-01T09:21:47.649Z</time>
      </trkpt>
      <trkpt lat="43.1340229" lon="-2.7882532">
        <ele>126.061</ele>
        <time>2021-04-01T09:21:47.704Z</time>
      </trkpt>
      <trkpt lat="43.1340216" lon="-2.7882555">
        <ele>126.085</ele>
        <time>2021-04-01T09:21:47.759Z</time>
      </trkpt>
      <trkpt lat="43.1340204" lon="-2.7882578">
        <ele>126.145</ele>
        <time>2021-04-01T09:21:47.814Z</time>
      </trkpt>
      <trkpt lat="43.1340192" lon="-2.7882598">
        <ele>126.114</ele>
        <time>2021-04-01T09:21:47.869Z</time>
      </trkpt>
      <trkpt lat="43.1340186" lon="-2.7882617">
        <ele>126.05</ele>
        <time>2021-04-01T09:21:47.924Z</time>
      </trkpt>
      <trkpt lat="43.1340171" lon="-2.7882639">
        <ele>126.066</ele>
        <time>2021-04-01T09:21:47.979Z</time>
      </trkpt>
      <trkpt lat="43.1340161" lon="-2.788266">
        <ele>126.058</ele>
        <time>2021-04-01T09:21:48.034Z</time>
      </trkpt>
      <trkpt lat="43.1340153" lon="-2.7882683">
        <ele>126.074</ele>
        <time>2021-04-01T09:21:48.089Z</time>
      </trkpt>
      <trkpt lat="43.134014" lon="-2.7882703">
        <ele>126.047</ele>
        <time>2021-04-01T09:21:48.144Z</time>
      </trkpt>
      <trkpt lat="43.1340134" lon="-2.7882726">
        <ele>126.037</ele>
        <time>2021-04-01T09:21:48.199Z</time>
      </trkpt>
      <trkpt lat="43.134012" lon="-2.7882743">
        <ele>126.021</ele>
        <time>2021-04-01T09:21:48.254Z</time>
      </trkpt>
      <trkpt lat="43.1340108" lon="-2.788277">
        <ele>126.18</ele>
        <time>2021-04-01T09:21:48.309Z</time>
      </trkpt>
      <trkpt lat="43.1340103" lon="-2.7882797">
        <ele>126.288</ele>
        <time>2021-04-01T09:21:48.364Z</time>
      </trkpt>
      <trkpt lat="43.1340093" lon="-2.788282">
        <ele>126.244</ele>
        <time>2021-04-01T09:21:48.419Z</time>
      </trkpt>
      <trkpt lat="43.1340086" lon="-2.7882841">
        <ele>126.199</ele>
        <time>2021-04-01T09:21:48.474Z</time>
      </trkpt>
      <trkpt lat="43.1340074" lon="-2.7882858">
        <ele>126.214</ele>
        <time>2021-04-01T09:21:48.529Z</time>
      </trkpt>
      <trkpt lat="43.1340063" lon="-2.7882878">
        <ele>126.251</ele>
        <time>2021-04-01T09:21:48.584Z</time>
      </trkpt>
      <trkpt lat="43.1340051" lon="-2.7882897">
        <ele>126.329</ele>
        <time>2021-04-01T09:21:48.639Z</time>
      </trkpt>
      <trkpt lat="43.1340039" lon="-2.7882917">
        <ele>126.337</ele>
        <time>2021-04-01T09:21:48.694Z</time>
      </trkpt>
      <trkpt lat="43.134003" lon="-2.7882939">
        <ele>126.318</ele>
        <time>2021-04-01T09:21:48.749Z</time>
      </trkpt>
      <trkpt lat="43.134002" lon="-2.7882957">
        <ele>126.314</ele>
        <time>2021-04-01T09:21:48.804Z</time>
      </trkpt>
      <trkpt lat="43.1340013" lon="-2.7882975">
        <ele>126.289</ele>
        <time>2021-04-01T09:21:48.859Z</time>
      </trkpt>
      <trkpt lat="43.1340006" lon="-2.7882997">
        <ele>126.265</ele>
        <time>2021-04-01T09:21:48.914Z</time>
      </trkpt>
      <trkpt lat="43.134" lon="-2.7883015">
        <ele>126.275</ele>
        <time>2021-04-01T09:21:48.969Z</time>
      </trkpt>
      <trkpt lat="43.1339996" lon="-2.7883034">
        <ele>126.214</ele>
        <time>2021-04-01T09:21:49.024Z</time>
      </trkpt>
      <trkpt lat="43.1339994" lon="-2.7883053">
        <ele>126.167</ele>
        <time>2021-04-01T09:21:49.079Z</time>
      </trkpt>
      <trkpt lat="43.1339989" lon="-2.7883069">
        <ele>126.128</ele>
        <time>2021-04-01T09:21:49.134Z</time>
      </trkpt>
      <trkpt lat="43.1339984" lon="-2.7883087">
        <ele>126.133</ele>
        <time>2021-04-01T09:21:49.189Z</time>
      </trkpt>
      <trkpt lat="43.1339978" lon="-2.7883104">
        <ele>126.109</ele>
        <time>2021-04-01T09:21:49.244Z</time>
      </trkpt>
      <trkpt lat="43.133997" lon="-2.7883126">
        <ele>126.13</ele>
        <time>2021-04-01T09:21:49.302Z</time>
      </trkpt>
      <trkpt lat="43.1339962" lon="-2.7883149">
        <ele>126.253</ele>
        <time>2021-04-01T09:21:49.360Z</time>
      </trkpt>
      <trkpt lat="43.1339951" lon="-2.7883171">
        <ele>126.31</ele>
        <time>2021-04-01T09:21:49.418Z</time>
      </trkpt>
      <trkpt lat="43.1339941" lon="-2.7883194">
        <ele>126.363</ele>
        <time>2021-04-01T09:21:49.476Z</time>
      </trkpt>
      <trkpt lat="43.133993" lon="-2.7883214">
        <ele>126.466</ele>
        <time>2021-04-01T09:21:49.535Z</time>
      </trkpt>
      <trkpt lat="43.1339921" lon="-2.7883237">
        <ele>126.504</ele>
        <time>2021-04-01T09:21:49.593Z</time>
      </trkpt>
      <trkpt lat="43.1339912" lon="-2.7883258">
        <ele>126.551</ele>
        <time>2021-04-01T09:21:49.651Z</time>
      </trkpt>
      <trkpt lat="43.1339902" lon="-2.7883277">
        <ele>126.61</ele>
        <time>2021-04-01T09:21:49.709Z</time>
      </trkpt>
      <trkpt lat="43.1339894" lon="-2.7883298">
        <ele>126.623</ele>
        <time>2021-04-01T09:21:49.768Z</time>
      </trkpt>
      <trkpt lat="43.1339882" lon="-2.7883317">
        <ele>126.667</ele>
        <time>2021-04-01T09:21:49.826Z</time>
      </trkpt>
      <trkpt lat="43.1339871" lon="-2.7883336">
        <ele>126.648</ele>
        <time>2021-04-01T09:21:49.884Z</time>
      </trkpt>
      <trkpt lat="43.1339859" lon="-2.7883357">
        <ele>126.665</ele>
        <time>2021-04-01T09:21:49.942Z</time>
      </trkpt>
      <trkpt lat="43.1339853" lon="-2.7883378">
        <ele>126.637</ele>
        <time>2021-04-01T09:21:50.001Z</time>
      </trkpt>
      <trkpt lat="43.1339845" lon="-2.7883396">
        <ele>126.629</ele>
        <time>2021-04-01T09:21:50.059Z</time>
      </trkpt>
      <trkpt lat="43.133983" lon="-2.7883416">
        <ele>126.637</ele>
        <time>2021-04-01T09:21:50.117Z</time>
      </trkpt>
      <trkpt lat="43.1339822" lon="-2.7883438">
        <ele>126.636</ele>
        <time>2021-04-01T09:21:50.175Z</time>
      </trkpt>
      <trkpt lat="43.1339813" lon="-2.7883459">
        <ele>126.657</ele>
        <time>2021-04-01T09:21:50.234Z</time>
      </trkpt>
      <trkpt lat="43.1339811" lon="-2.788348">
        <ele>126.709</ele>
        <time>2021-04-01T09:21:50.285Z</time>
      </trkpt>
      <trkpt lat="43.1339802" lon="-2.78835">
        <ele>126.664</ele>
        <time>2021-04-01T09:21:50.337Z</time>
      </trkpt>
      <trkpt lat="43.1339795" lon="-2.7883522">
        <ele>126.574</ele>
        <time>2021-04-01T09:21:50.389Z</time>
      </trkpt>
      <trkpt lat="43.1339788" lon="-2.7883542">
        <ele>126.631</ele>
        <time>2021-04-01T09:21:50.441Z</time>
      </trkpt>
      <trkpt lat="43.1339779" lon="-2.7883563">
        <ele>126.714</ele>
        <time>2021-04-01T09:21:50.493Z</time>
      </trkpt>
      <trkpt lat="43.1339771" lon="-2.7883585">
        <ele>126.76</ele>
        <time>2021-04-01T09:21:50.545Z</time>
      </trkpt>
      <trkpt lat="43.1339767" lon="-2.7883607">
        <ele>126.763</ele>
        <time>2021-04-01T09:21:50.597Z</time>
      </trkpt>
      <trkpt lat="43.133976" lon="-2.7883626">
        <ele>126.774</ele>
        <time>2021-04-01T09:21:50.649Z</time>
      </trkpt>
      <trkpt lat="43.1339754" lon="-2.7883648">
        <ele>126.767</ele>
        <time>2021-04-01T09:21:50.701Z</time>
      </trkpt>
      <trkpt lat="43.1339747" lon="-2.788367">
        <ele>126.819</ele>
        <time>2021-04-01T09:21:50.753Z</time>
      </trkpt>
      <trkpt lat="43.1339739" lon="-2.7883692">
        <ele>126.896</ele>
        <time>2021-04-01T09:21:50.805Z</time>
      </trkpt>
      <trkpt lat="43.1339731" lon="-2.7883712">
        <ele>126.893</ele>
        <time>2021-04-01T09:21:50.857Z</time>
      </trkpt>
      <trkpt lat="43.1339723" lon="-2.7883732">
        <ele>126.943</ele>
        <time>2021-04-01T09:21:50.909Z</time>
      </trkpt>
      <trkpt lat="43.1339712" lon="-2.7883753">
        <ele>127.027</ele>
        <time>2021-04-01T09:21:50.961Z</time>
      </trkpt>
      <trkpt lat="43.1339703" lon="-2.7883776">
        <ele>126.978</ele>
        <time>2021-04-01T09:21:51.013Z</time>
      </trkpt>
      <trkpt lat="43.1339694" lon="-2.7883796">
        <ele>127.044</ele>
        <time>2021-04-01T09:21:51.065Z</time>
      </trkpt>
      <trkpt lat="43.1339685" lon="-2.7883818">
        <ele>127.11</ele>
        <time>2021-04-01T09:21:51.117Z</time>
      </trkpt>
      <trkpt lat="43.1339678" lon="-2.7883839">
        <ele>127.095</ele>
        <time>2021-04-01T09:21:51.169Z</time>
      </trkpt>
      <trkpt lat="43.1339669" lon="-2.7883861">
        <ele>127.152</ele>
        <time>2021-04-01T09:21:51.224Z</time>
      </trkpt>
      <trkpt lat="43.133966" lon="-2.7883885">
        <ele>127.211</ele>
        <time>2021-04-01T09:21:51.279Z</time>
      </trkpt>
      <trkpt lat="43.1339653" lon="-2.7883907">
        <ele>127.288</ele>
        <time>2021-04-01T09:21:51.334Z</time>
      </trkpt>
      <trkpt lat="43.1339644" lon="-2.7883925">
        <ele>127.319</ele>
        <time>2021-04-01T09:21:51.389Z</time>
      </trkpt>
      <trkpt lat="43.1339631" lon="-2.7883945">
        <ele>127.373</ele>
        <time>2021-04-01T09:21:51.444Z</time>
      </trkpt>
      <trkpt lat="43.1339619" lon="-2.7883968">
        <ele>127.4</ele>
        <time>2021-04-01T09:21:51.499Z</time>
      </trkpt>
      <trkpt lat="43.1339611" lon="-2.7883991">
        <ele>127.378</ele>
        <time>2021-04-01T09:21:51.554Z</time>
      </trkpt>
      <trkpt lat="43.1339604" lon="-2.7884015">
        <ele>127.403</ele>
        <time>2021-04-01T09:21:51.609Z</time>
      </trkpt>
      <trkpt lat="43.1339596" lon="-2.7884039">
        <ele>127.423</ele>
        <time>2021-04-01T09:21:51.664Z</time>
      </trkpt>
      <trkpt lat="43.1339591" lon="-2.7884062">
        <ele>127.448</ele>
        <time>2021-04-01T09:21:51.719Z</time>
      </trkpt>
      <trkpt lat="43.1339592" lon="-2.7884089">
        <ele>127.444</ele>
        <time>2021-04-01T09:21:51.774Z</time>
      </trkpt>
      <trkpt lat="43.1339584" lon="-2.788411">
        <ele>127.461</ele>
        <time>2021-04-01T09:21:51.829Z</time>
      </trkpt>
      <trkpt lat="43.1339577" lon="-2.788413">
        <ele>127.469</ele>
        <time>2021-04-01T09:21:51.884Z</time>
      </trkpt>
      <trkpt lat="43.133957" lon="-2.7884152">
        <ele>127.459</ele>
        <time>2021-04-01T09:21:51.939Z</time>
      </trkpt>
      <trkpt lat="43.1339563" lon="-2.7884171">
        <ele>127.44</ele>
        <time>2021-04-01T09:21:51.994Z</time>
      </trkpt>
      <trkpt lat="43.1339561" lon="-2.7884191">
        <ele>127.442</ele>
        <time>2021-04-01T09:21:52.049Z</time>
      </trkpt>
      <trkpt lat="43.1339556" lon="-2.7884217">
        <ele>127.469</ele>
        <time>2021-04-01T09:21:52.104Z</time>
      </trkpt>
      <trkpt lat="43.1339553" lon="-2.7884237">
        <ele>127.535</ele>
        <time>2021-04-01T09:21:52.159Z</time>
      </trkpt>
      <trkpt lat="43.133955" lon="-2.7884258">
        <ele>127.526</ele>
        <time>2021-04-01T09:21:52.214Z</time>
      </trkpt>
      <trkpt lat="43.133954" lon="-2.7884274">
        <ele>127.541</ele>
        <time>2021-04-01T09:21:52.269Z</time>
      </trkpt>
      <trkpt lat="43.1339532" lon="-2.7884293">
        <ele>127.521</ele>
        <time>2021-04-01T09:21:52.324Z</time>
      </trkpt>
      <trkpt lat="43.1339523" lon="-2.7884311">
        <ele>127.488</ele>
        <time>2021-04-01T09:21:52.379Z</time>
      </trkpt>
      <trkpt lat="43.1339513" lon="-2.7884327">
        <ele>127.456</ele>
        <time>2021-04-01T09:21:52.434Z</time>
      </trkpt>
      <trkpt lat="43.1339506" lon="-2.7884343">
        <ele>127.447</ele>
        <time>2021-04-01T09:21:52.489Z</time>
      </trkpt>
      <trkpt lat="43.1339496" lon="-2.7884357">
        <ele>127.428</ele>
        <time>2021-04-01T09:21:52.544Z</time>
      </trkpt>
      <trkpt lat="43.1339494" lon="-2.7884374">
        <ele>127.391</ele>
        <time>2021-04-01T09:21:52.599Z</time>
      </trkpt>
      <trkpt lat="43.133949" lon="-2.7884395">
        <ele>127.347</ele>
        <time>2021-04-01T09:21:52.654Z</time>
      </trkpt>
      <trkpt lat="43.1339485" lon="-2.7884411">
        <ele>127.309</ele>
        <time>2021-04-01T09:21:52.709Z</time>
      </trkpt>
      <trkpt lat="43.1339482" lon="-2.7884425">
        <ele>127.24</ele>
        <time>2021-04-01T09:21:52.764Z</time>
      </trkpt>
      <trkpt lat="43.1339475" lon="-2.7884442">
        <ele>127.215</ele>
        <time>2021-04-01T09:21:52.819Z</time>
      </trkpt>
      <trkpt lat="43.1339472" lon="-2.788446">
        <ele>127.212</ele>
        <time>2021-04-01T09:21:52.874Z</time>
      </trkpt>
      <trkpt lat="43.1339467" lon="-2.7884478">
        <ele>127.198</ele>
        <time>2021-04-01T09:21:52.929Z</time>
      </trkpt>
      <trkpt lat="43.1339461" lon="-2.7884498">
        <ele>127.188</ele>
        <time>2021-04-01T09:21:52.984Z</time>
      </trkpt>
      <trkpt lat="43.1339456" lon="-2.7884523">
        <ele>127.214</ele>
        <time>2021-04-01T09:21:53.039Z</time>
      </trkpt>
      <trkpt lat="43.1339452" lon="-2.7884546">
        <ele>127.223</ele>
        <time>2021-04-01T09:21:53.094Z</time>
      </trkpt>
      <trkpt lat="43.1339444" lon="-2.7884564">
        <ele>127.246</ele>
        <time>2021-04-01T09:21:53.149Z</time>
      </trkpt>
      <trkpt lat="43.1339436" lon="-2.7884583">
        <ele>127.276</ele>
        <time>2021-04-01T09:21:53.204Z</time>
      </trkpt>
      <trkpt lat="43.1339429" lon="-2.7884603">
        <ele>127.303</ele>
        <time>2021-04-01T09:21:53.259Z</time>
      </trkpt>
      <trkpt lat="43.1339425" lon="-2.7884623">
        <ele>127.292</ele>
        <time>2021-04-01T09:21:53.314Z</time>
      </trkpt>
      <trkpt lat="43.1339418" lon="-2.7884636">
        <ele>127.251</ele>
        <time>2021-04-01T09:21:53.369Z</time>
      </trkpt>
      <trkpt lat="43.133941" lon="-2.7884647">
        <ele>127.236</ele>
        <time>2021-04-01T09:21:53.424Z</time>
      </trkpt>
      <trkpt lat="43.1339403" lon="-2.7884662">
        <ele>127.184</ele>
        <time>2021-04-01T09:21:53.479Z</time>
      </trkpt>
      <trkpt lat="43.1339393" lon="-2.7884677">
        <ele>127.181</ele>
        <time>2021-04-01T09:21:53.534Z</time>
      </trkpt>
      <trkpt lat="43.1339381" lon="-2.7884689">
        <ele>127.206</ele>
        <time>2021-04-01T09:21:53.589Z</time>
      </trkpt>
      <trkpt lat="43.1339372" lon="-2.7884707">
        <ele>127.24</ele>
        <time>2021-04-01T09:21:53.644Z</time>
      </trkpt>
      <trkpt lat="43.1339364" lon="-2.7884725">
        <ele>127.254</ele>
        <time>2021-04-01T09:21:53.699Z</time>
      </trkpt>
      <trkpt lat="43.1339357" lon="-2.7884741">
        <ele>127.267</ele>
        <time>2021-04-01T09:21:53.754Z</time>
      </trkpt>
      <trkpt lat="43.1339349" lon="-2.788476">
        <ele>127.263</ele>
        <time>2021-04-01T09:21:53.809Z</time>
      </trkpt>
      <trkpt lat="43.1339342" lon="-2.7884782">
        <ele>127.247</ele>
        <time>2021-04-01T09:21:53.864Z</time>
      </trkpt>
      <trkpt lat="43.1339335" lon="-2.7884802">
        <ele>127.221</ele>
        <time>2021-04-01T09:21:53.919Z</time>
      </trkpt>
      <trkpt lat="43.1339332" lon="-2.7884825">
        <ele>127.225</ele>
        <time>2021-04-01T09:21:53.974Z</time>
      </trkpt>
      <trkpt lat="43.1339328" lon="-2.7884846">
        <ele>127.243</ele>
        <time>2021-04-01T09:21:54.029Z</time>
      </trkpt>
      <trkpt lat="43.1339325" lon="-2.7884867">
        <ele>127.214</ele>
        <time>2021-04-01T09:21:54.084Z</time>
      </trkpt>
      <trkpt lat="43.1339323" lon="-2.7884886">
        <ele>127.201</ele>
        <time>2021-04-01T09:21:54.139Z</time>
      </trkpt>
      <trkpt lat="43.1339319" lon="-2.788491">
        <ele>127.231</ele>
        <time>2021-04-01T09:21:54.194Z</time>
      </trkpt>
      <trkpt lat="43.1339314" lon="-2.7884931">
        <ele>127.222</ele>
        <time>2021-04-01T09:21:54.249Z</time>
      </trkpt>
      <trkpt lat="43.133931" lon="-2.7884953">
        <ele>127.206</ele>
        <time>2021-04-01T09:21:54.304Z</time>
      </trkpt>
      <trkpt lat="43.1339301" lon="-2.7884974">
        <ele>127.259</ele>
        <time>2021-04-01T09:21:54.359Z</time>
      </trkpt>
      <trkpt lat="43.1339297" lon="-2.7884993">
        <ele>127.238</ele>
        <time>2021-04-01T09:21:54.414Z</time>
      </trkpt>
      <trkpt lat="43.1339298" lon="-2.7885016">
        <ele>127.145</ele>
        <time>2021-04-01T09:21:54.469Z</time>
      </trkpt>
      <trkpt lat="43.1339295" lon="-2.788504">
        <ele>127.172</ele>
        <time>2021-04-01T09:21:54.524Z</time>
      </trkpt>
      <trkpt lat="43.1339289" lon="-2.788506">
        <ele>127.185</ele>
        <time>2021-04-01T09:21:54.579Z</time>
      </trkpt>
      <trkpt lat="43.1339287" lon="-2.788508">
        <ele>127.155</ele>
        <time>2021-04-01T09:21:54.634Z</time>
      </trkpt>
      <trkpt lat="43.1339282" lon="-2.7885099">
        <ele>127.121</ele>
        <time>2021-04-01T09:21:54.689Z</time>
      </trkpt>
      <trkpt lat="43.1339273" lon="-2.7885116">
        <ele>127.152</ele>
        <time>2021-04-01T09:21:54.744Z</time>
      </trkpt>
      <trkpt lat="43.1339267" lon="-2.7885135">
        <ele>127.123</ele>
        <time>2021-04-01T09:21:54.799Z</time>
      </trkpt>
      <trkpt lat="43.1339263" lon="-2.7885152">
        <ele>127.064</ele>
        <time>2021-04-01T09:21:54.854Z</time>
      </trkpt>
      <trkpt lat="43.1339259" lon="-2.7885175">
        <ele>127.064</ele>
        <time>2021-04-01T09:21:54.909Z</time>
      </trkpt>
      <trkpt lat="43.1339253" lon="-2.7885193">
        <ele>127.045</ele>
        <time>2021-04-01T09:21:54.964Z</time>
      </trkpt>
      <trkpt lat="43.1339249" lon="-2.7885214">
        <ele>127.049</ele>
        <time>2021-04-01T09:21:55.019Z</time>
      </trkpt>
      <trkpt lat="43.1339247" lon="-2.7885232">
        <ele>127.019</ele>
        <time>2021-04-01T09:21:55.074Z</time>
      </trkpt>
      <trkpt lat="43.1339242" lon="-2.7885255">
        <ele>127.018</ele>
        <time>2021-04-01T09:21:55.129Z</time>
      </trkpt>
      <trkpt lat="43.1339237" lon="-2.7885274">
        <ele>127.013</ele>
        <time>2021-04-01T09:21:55.184Z</time>
      </trkpt>
      <trkpt lat="43.1339234" lon="-2.7885296">
        <ele>127.045</ele>
        <time>2021-04-01T09:21:55.239Z</time>
      </trkpt>
      <trkpt lat="43.1339225" lon="-2.7885314">
        <ele>127.062</ele>
        <time>2021-04-01T09:21:55.297Z</time>
      </trkpt>
      <trkpt lat="43.1339215" lon="-2.7885334">
        <ele>127.067</ele>
        <time>2021-04-01T09:21:55.355Z</time>
      </trkpt>
      <trkpt lat="43.1339206" lon="-2.7885349">
        <ele>127.047</ele>
        <time>2021-04-01T09:21:55.413Z</time>
      </trkpt>
      <trkpt lat="43.133921" lon="-2.788537">
        <ele>127.017</ele>
        <time>2021-04-01T09:21:55.471Z</time>
      </trkpt>
      <trkpt lat="43.1339214" lon="-2.7885392">
        <ele>126.969</ele>
        <time>2021-04-01T09:21:55.530Z</time>
      </trkpt>
      <trkpt lat="43.1339208" lon="-2.7885411">
        <ele>126.937</ele>
        <time>2021-04-01T09:21:55.588Z</time>
      </trkpt>
      <trkpt lat="43.1339198" lon="-2.7885431">
        <ele>126.945</ele>
        <time>2021-04-01T09:21:55.646Z</time>
      </trkpt>
      <trkpt lat="43.1339188" lon="-2.7885447">
        <ele>126.926</ele>
        <time>2021-04-01T09:21:55.704Z</time>
      </trkpt>
      <trkpt lat="43.1339181" lon="-2.7885461">
        <ele>126.865</ele>
        <time>2021-04-01T09:21:55.763Z</time>
      </trkpt>
      <trkpt lat="43.1339175" lon="-2.788548">
        <ele>126.848</ele>
        <time>2021-04-01T09:21:55.821Z</time>
      </trkpt>
      <trkpt lat="43.133917" lon="-2.78855">
        <ele>126.855</ele>
        <time>2021-04-01T09:21:55.879Z</time>
      </trkpt>
      <trkpt lat="43.1339168" lon="-2.7885523">
        <ele>126.861</ele>
        <time>2021-04-01T09:21:55.937Z</time>
      </trkpt>
      <trkpt lat="43.1339164" lon="-2.7885544">
        <ele>126.876</ele>
        <time>2021-04-01T09:21:55.996Z</time>
      </trkpt>
      <trkpt lat="43.133916" lon="-2.7885567">
        <ele>126.864</ele>
        <time>2021-04-01T09:21:56.054Z</time>
      </trkpt>
      <trkpt lat="43.1339156" lon="-2.7885585">
        <ele>126.813</ele>
        <time>2021-04-01T09:21:56.112Z</time>
      </trkpt>
      <trkpt lat="43.133915" lon="-2.7885605">
        <ele>126.816</ele>
        <time>2021-04-01T09:21:56.170Z</time>
      </trkpt>
      <trkpt lat="43.1339145" lon="-2.7885625">
        <ele>126.79</ele>
        <time>2021-04-01T09:21:56.229Z</time>
      </trkpt>
      <trkpt lat="43.1339139" lon="-2.7885644">
        <ele>126.734</ele>
        <time>2021-04-01T09:21:56.281Z</time>
      </trkpt>
      <trkpt lat="43.1339134" lon="-2.7885664">
        <ele>126.789</ele>
        <time>2021-04-01T09:21:56.333Z</time>
      </trkpt>
      <trkpt lat="43.133913" lon="-2.7885686">
        <ele>126.776</ele>
        <time>2021-04-01T09:21:56.385Z</time>
      </trkpt>
      <trkpt lat="43.1339128" lon="-2.7885705">
        <ele>126.751</ele>
        <time>2021-04-01T09:21:56.437Z</time>
      </trkpt>
      <trkpt lat="43.1339125" lon="-2.7885728">
        <ele>126.711</ele>
        <time>2021-04-01T09:21:56.489Z</time>
      </trkpt>
      <trkpt lat="43.133912" lon="-2.7885748">
        <ele>126.742</ele>
        <time>2021-04-01T09:21:56.541Z</time>
      </trkpt>
      <trkpt lat="43.1339116" lon="-2.7885768">
        <ele>126.738</ele>
        <time>2021-04-01T09:21:56.593Z</time>
      </trkpt>
      <trkpt lat="43.1339112" lon="-2.7885788">
        <ele>126.761</ele>
        <time>2021-04-01T09:21:56.645Z</time>
      </trkpt>
      <trkpt lat="43.133911" lon="-2.7885806">
        <ele>126.73</ele>
        <time>2021-04-01T09:21:56.697Z</time>
      </trkpt>
      <trkpt lat="43.1339102" lon="-2.7885821">
        <ele>126.662</ele>
        <time>2021-04-01T09:21:56.750Z</time>
      </trkpt>
      <trkpt lat="43.1339087" lon="-2.788583">
        <ele>126.641</ele>
        <time>2021-04-01T09:21:56.802Z</time>
      </trkpt>
      <trkpt lat="43.1339078" lon="-2.788584">
        <ele>126.606</ele>
        <time>2021-04-01T09:21:56.854Z</time>
      </trkpt>
      <trkpt lat="43.1339073" lon="-2.7885859">
        <ele>126.601</ele>
        <time>2021-04-01T09:21:56.906Z</time>
      </trkpt>
      <trkpt lat="43.1339065" lon="-2.7885878">
        <ele>126.586</ele>
        <time>2021-04-01T09:21:56.958Z</time>
      </trkpt>
      <trkpt lat="43.1339058" lon="-2.7885901">
        <ele>126.591</ele>
        <time>2021-04-01T09:21:57.010Z</time>
      </trkpt>
      <trkpt lat="43.1339055" lon="-2.7885924">
        <ele>126.586</ele>
        <time>2021-04-01T09:21:57.062Z</time>
      </trkpt>
      <trkpt lat="43.1339052" lon="-2.7885946">
        <ele>126.615</ele>
        <time>2021-04-01T09:21:57.114Z</time>
      </trkpt>
      <trkpt lat="43.1339047" lon="-2.7885969">
        <ele>126.604</ele>
        <time>2021-04-01T09:21:57.166Z</time>
      </trkpt>
      <trkpt lat="43.1339045" lon="-2.7885991">
        <ele>126.604</ele>
        <time>2021-04-01T09:21:57.219Z</time>
      </trkpt>
      <trkpt lat="43.1339041" lon="-2.7886014">
        <ele>126.619</ele>
        <time>2021-04-01T09:21:57.274Z</time>
      </trkpt>
      <trkpt lat="43.1339033" lon="-2.7886038">
        <ele>126.656</ele>
        <time>2021-04-01T09:21:57.329Z</time>
      </trkpt>
      <trkpt lat="43.1339026" lon="-2.7886063">
        <ele>126.681</ele>
        <time>2021-04-01T09:21:57.384Z</time>
      </trkpt>
      <trkpt lat="43.1339016" lon="-2.788608">
        <ele>126.669</ele>
        <time>2021-04-01T09:21:57.439Z</time>
      </trkpt>
      <trkpt lat="43.1339004" lon="-2.7886101">
        <ele>126.747</ele>
        <time>2021-04-01T09:21:57.494Z</time>
      </trkpt>
      <trkpt lat="43.1339" lon="-2.7886125">
        <ele>126.738</ele>
        <time>2021-04-01T09:21:57.549Z</time>
      </trkpt>
      <trkpt lat="43.1338996" lon="-2.7886154">
        <ele>126.754</ele>
        <time>2021-04-01T09:21:57.604Z</time>
      </trkpt>
      <trkpt lat="43.1338991" lon="-2.7886172">
        <ele>126.699</ele>
        <time>2021-04-01T09:21:57.659Z</time>
      </trkpt>
      <trkpt lat="43.1338986" lon="-2.7886192">
        <ele>126.694</ele>
        <time>2021-04-01T09:21:57.714Z</time>
      </trkpt>
      <trkpt lat="43.1338982" lon="-2.7886214">
        <ele>126.691</ele>
        <time>2021-04-01T09:21:57.769Z</time>
      </trkpt>
      <trkpt lat="43.1338983" lon="-2.7886237">
        <ele>126.62</ele>
        <time>2021-04-01T09:21:57.824Z</time>
      </trkpt>
      <trkpt lat="43.1338977" lon="-2.7886257">
        <ele>126.578</ele>
        <time>2021-04-01T09:21:57.879Z</time>
      </trkpt>
      <trkpt lat="43.1338974" lon="-2.7886279">
        <ele>126.55</ele>
        <time>2021-04-01T09:21:57.934Z</time>
      </trkpt>
      <trkpt lat="43.1338968" lon="-2.7886298">
        <ele>126.513</ele>
        <time>2021-04-01T09:21:57.989Z</time>
      </trkpt>
      <trkpt lat="43.1338961" lon="-2.7886316">
        <ele>126.454</ele>
        <time>2021-04-01T09:21:58.044Z</time>
      </trkpt>
      <trkpt lat="43.1338958" lon="-2.7886336">
        <ele>126.441</ele>
        <time>2021-04-01T09:21:58.099Z</time>
      </trkpt>
      <trkpt lat="43.133895" lon="-2.7886358">
        <ele>126.427</ele>
        <time>2021-04-01T09:21:58.154Z</time>
      </trkpt>
      <trkpt lat="43.1338946" lon="-2.7886383">
        <ele>126.423</ele>
        <time>2021-04-01T09:21:58.209Z</time>
      </trkpt>
      <trkpt lat="43.1338941" lon="-2.7886407">
        <ele>126.435</ele>
        <time>2021-04-01T09:21:58.261Z</time>
      </trkpt>
      <trkpt lat="43.1338934" lon="-2.7886428">
        <ele>126.411</ele>
        <time>2021-04-01T09:21:58.313Z</time>
      </trkpt>
      <trkpt lat="43.1338928" lon="-2.7886452">
        <ele>126.416</ele>
        <time>2021-04-01T09:21:58.365Z</time>
      </trkpt>
      <trkpt lat="43.1338924" lon="-2.7886477">
        <ele>126.407</ele>
        <time>2021-04-01T09:21:58.417Z</time>
      </trkpt>
      <trkpt lat="43.1338917" lon="-2.7886502">
        <ele>126.405</ele>
        <time>2021-04-01T09:21:58.469Z</time>
      </trkpt>
      <trkpt lat="43.1338912" lon="-2.7886524">
        <ele>126.386</ele>
        <time>2021-04-01T09:21:58.521Z</time>
      </trkpt>
      <trkpt lat="43.1338905" lon="-2.7886543">
        <ele>126.357</ele>
        <time>2021-04-01T09:21:58.573Z</time>
      </trkpt>
      <trkpt lat="43.1338896" lon="-2.7886565">
        <ele>126.337</ele>
        <time>2021-04-01T09:21:58.625Z</time>
      </trkpt>
      <trkpt lat="43.1338888" lon="-2.7886589">
        <ele>126.343</ele>
        <time>2021-04-01T09:21:58.677Z</time>
      </trkpt>
      <trkpt lat="43.1338881" lon="-2.7886612">
        <ele>126.366</ele>
        <time>2021-04-01T09:21:58.730Z</time>
      </trkpt>
      <trkpt lat="43.1338876" lon="-2.7886634">
        <ele>126.339</ele>
        <time>2021-04-01T09:21:58.782Z</time>
      </trkpt>
      <trkpt lat="43.1338868" lon="-2.7886656">
        <ele>126.34</ele>
        <time>2021-04-01T09:21:58.834Z</time>
      </trkpt>
      <trkpt lat="43.133886" lon="-2.7886681">
        <ele>126.351</ele>
        <time>2021-04-01T09:21:58.886Z</time>
      </trkpt>
      <trkpt lat="43.1338851" lon="-2.78867">
        <ele>126.341</ele>
        <time>2021-04-01T09:21:58.938Z</time>
      </trkpt>
      <trkpt lat="43.1338843" lon="-2.7886722">
        <ele>126.348</ele>
        <time>2021-04-01T09:21:58.990Z</time>
      </trkpt>
      <trkpt lat="43.1338836" lon="-2.7886745">
        <ele>126.339</ele>
        <time>2021-04-01T09:21:59.042Z</time>
      </trkpt>
      <trkpt lat="43.1338829" lon="-2.7886768">
        <ele>126.315</ele>
        <time>2021-04-01T09:21:59.094Z</time>
      </trkpt>
      <trkpt lat="43.1338823" lon="-2.7886793">
        <ele>126.333</ele>
        <time>2021-04-01T09:21:59.146Z</time>
      </trkpt>
      <trkpt lat="43.1338817" lon="-2.7886818">
        <ele>126.326</ele>
        <time>2021-04-01T09:21:59.199Z</time>
      </trkpt>
      <trkpt lat="43.1338811" lon="-2.788684">
        <ele>126.277</ele>
        <time>2021-04-01T09:21:59.257Z</time>
      </trkpt>
      <trkpt lat="43.1338805" lon="-2.7886863">
        <ele>126.226</ele>
        <time>2021-04-01T09:21:59.315Z</time>
      </trkpt>
      <trkpt lat="43.13388" lon="-2.7886887">
        <ele>126.226</ele>
        <time>2021-04-01T09:21:59.373Z</time>
      </trkpt>
      <trkpt lat="43.1338792" lon="-2.7886908">
        <ele>126.2</ele>
        <time>2021-04-01T09:21:59.431Z</time>
      </trkpt>
      <trkpt lat="43.1338783" lon="-2.7886933">
        <ele>126.18</ele>
        <time>2021-04-01T09:21:59.490Z</time>
      </trkpt>
      <trkpt lat="43.1338778" lon="-2.7886958">
        <ele>126.183</ele>
        <time>2021-04-01T09:21:59.548Z</time>
      </trkpt>
      <trkpt lat="43.1338773" lon="-2.7886984">
        <ele>126.223</ele>
        <time>2021-04-01T09:21:59.606Z</time>
      </trkpt>
      <trkpt lat="43.1338766" lon="-2.7887006">
        <ele>126.194</ele>
        <time>2021-04-01T09:21:59.664Z</time>
      </trkpt>
      <trkpt lat="43.1338761" lon="-2.7887034">
        <ele>126.227</ele>
        <time>2021-04-01T09:21:59.723Z</time>
      </trkpt>
      <trkpt lat="43.1338755" lon="-2.7887057">
        <ele>126.238</ele>
        <time>2021-04-01T09:21:59.781Z</time>
      </trkpt>
      <trkpt lat="43.1338753" lon="-2.7887084">
        <ele>126.246</ele>
        <time>2021-04-01T09:21:59.839Z</time>
      </trkpt>
      <trkpt lat="43.1338755" lon="-2.7887114">
        <ele>126.3</ele>
        <time>2021-04-01T09:21:59.897Z</time>
      </trkpt>
      <trkpt lat="43.1338752" lon="-2.7887142">
        <ele>126.304</ele>
        <time>2021-04-01T09:21:59.956Z</time>
      </trkpt>
      <trkpt lat="43.1338749" lon="-2.788717">
        <ele>126.308</ele>
        <time>2021-04-01T09:22:00.014Z</time>
      </trkpt>
      <trkpt lat="43.1338745" lon="-2.7887197">
        <ele>126.291</ele>
        <time>2021-04-01T09:22:00.072Z</time>
      </trkpt>
      <trkpt lat="43.1338742" lon="-2.7887223">
        <ele>126.298</ele>
        <time>2021-04-01T09:22:00.130Z</time>
      </trkpt>
      <trkpt lat="43.133874" lon="-2.7887251">
        <ele>126.325</ele>
        <time>2021-04-01T09:22:00.189Z</time>
      </trkpt>
      <trkpt lat="43.1338737" lon="-2.7887276">
        <ele>126.277</ele>
        <time>2021-04-01T09:22:00.241Z</time>
      </trkpt>
      <trkpt lat="43.133873" lon="-2.7887301">
        <ele>126.242</ele>
        <time>2021-04-01T09:22:00.293Z</time>
      </trkpt>
      <trkpt lat="43.1338726" lon="-2.7887327">
        <ele>126.265</ele>
        <time>2021-04-01T09:22:00.345Z</time>
      </trkpt>
      <trkpt lat="43.1338722" lon="-2.7887355">
        <ele>126.352</ele>
        <time>2021-04-01T09:22:00.397Z</time>
      </trkpt>
      <trkpt lat="43.1338718" lon="-2.7887382">
        <ele>126.381</ele>
        <time>2021-04-01T09:22:00.449Z</time>
      </trkpt>
      <trkpt lat="43.1338713" lon="-2.7887407">
        <ele>126.388</ele>
        <time>2021-04-01T09:22:00.501Z</time>
      </trkpt>
      <trkpt lat="43.1338705" lon="-2.7887426">
        <ele>126.334</ele>
        <time>2021-04-01T09:22:00.553Z</time>
      </trkpt>
      <trkpt lat="43.13387" lon="-2.7887447">
        <ele>126.301</ele>
        <time>2021-04-01T09:22:00.605Z</time>
      </trkpt>
      <trkpt lat="43.1338695" lon="-2.7887471">
        <ele>126.31</ele>
        <time>2021-04-01T09:22:00.657Z</time>
      </trkpt>
      <trkpt lat="43.1338689" lon="-2.7887496">
        <ele>126.322</ele>
        <time>2021-04-01T09:22:00.710Z</time>
      </trkpt>
      <trkpt lat="43.1338679" lon="-2.7887513">
        <ele>126.247</ele>
        <time>2021-04-01T09:22:00.762Z</time>
      </trkpt>
      <trkpt lat="43.1338671" lon="-2.7887534">
        <ele>126.229</ele>
        <time>2021-04-01T09:22:00.814Z</time>
      </trkpt>
      <trkpt lat="43.1338663" lon="-2.7887557">
        <ele>126.239</ele>
        <time>2021-04-01T09:22:00.866Z</time>
      </trkpt>
      <trkpt lat="43.1338656" lon="-2.7887584">
        <ele>126.287</ele>
        <time>2021-04-01T09:22:00.918Z</time>
      </trkpt>
      <trkpt lat="43.1338648" lon="-2.7887608">
        <ele>126.321</ele>
        <time>2021-04-01T09:22:00.970Z</time>
      </trkpt>
      <trkpt lat="43.133864" lon="-2.7887629">
        <ele>126.298</ele>
        <time>2021-04-01T09:22:01.022Z</time>
      </trkpt>
      <trkpt lat="43.1338633" lon="-2.7887651">
        <ele>126.294</ele>
        <time>2021-04-01T09:22:01.074Z</time>
      </trkpt>
      <trkpt lat="43.1338628" lon="-2.7887676">
        <ele>126.259</ele>
        <time>2021-04-01T09:22:01.126Z</time>
      </trkpt>
      <trkpt lat="43.1338621" lon="-2.78877">
        <ele>126.268</ele>
        <time>2021-04-01T09:22:01.179Z</time>
      </trkpt>
      <trkpt lat="43.1338613" lon="-2.7887723">
        <ele>126.292</ele>
        <time>2021-04-01T09:22:01.237Z</time>
      </trkpt>
      <trkpt lat="43.1338608" lon="-2.7887748">
        <ele>126.325</ele>
        <time>2021-04-01T09:22:01.295Z</time>
      </trkpt>
      <trkpt lat="43.1338602" lon="-2.7887774">
        <ele>126.319</ele>
        <time>2021-04-01T09:22:01.353Z</time>
      </trkpt>
      <trkpt lat="43.13386" lon="-2.78878">
        <ele>126.319</ele>
        <time>2021-04-01T09:22:01.411Z</time>
      </trkpt>
      <trkpt lat="43.1338598" lon="-2.7887828">
        <ele>126.366</ele>
        <time>2021-04-01T09:22:01.469Z</time>
      </trkpt>
      <trkpt lat="43.1338592" lon="-2.7887854">
        <ele>126.386</ele>
        <time>2021-04-01T09:22:01.527Z</time>
      </trkpt>
      <trkpt lat="43.1338589" lon="-2.7887884">
        <ele>126.409</ele>
        <time>2021-04-01T09:22:01.585Z</time>
      </trkpt>
      <trkpt lat="43.1338585" lon="-2.788791">
        <ele>126.427</ele>
        <time>2021-04-01T09:22:01.643Z</time>
      </trkpt>
      <trkpt lat="43.1338583" lon="-2.7887939">
        <ele>126.459</ele>
        <time>2021-04-01T09:22:01.701Z</time>
      </trkpt>
      <trkpt lat="43.1338582" lon="-2.7887966">
        <ele>126.471</ele>
        <time>2021-04-01T09:22:01.759Z</time>
      </trkpt>
      <trkpt lat="43.1338579" lon="-2.7887992">
        <ele>126.454</ele>
        <time>2021-04-01T09:22:01.817Z</time>
      </trkpt>
      <trkpt lat="43.1338577" lon="-2.7888019">
        <ele>126.432</ele>
        <time>2021-04-01T09:22:01.875Z</time>
      </trkpt>
      <trkpt lat="43.1338574" lon="-2.7888045">
        <ele>126.437</ele>
        <time>2021-04-01T09:22:01.933Z</time>
      </trkpt>
      <trkpt lat="43.133857" lon="-2.7888071">
        <ele>126.431</ele>
        <time>2021-04-01T09:22:01.991Z</time>
      </trkpt>
      <trkpt lat="43.1338568" lon="-2.7888096">
        <ele>126.408</ele>
        <time>2021-04-01T09:22:02.049Z</time>
      </trkpt>
      <trkpt lat="43.1338564" lon="-2.7888117">
        <ele>126.383</ele>
        <time>2021-04-01T09:22:02.107Z</time>
      </trkpt>
      <trkpt lat="43.1338559" lon="-2.7888139">
        <ele>126.353</ele>
        <time>2021-04-01T09:22:02.165Z</time>
      </trkpt>
      <trkpt lat="43.1338554" lon="-2.7888168">
        <ele>126.376</ele>
        <time>2021-04-01T09:22:02.224Z</time>
      </trkpt>
      <trkpt lat="43.1338553" lon="-2.7888202">
        <ele>126.469</ele>
        <time>2021-04-01T09:22:02.276Z</time>
      </trkpt>
      <trkpt lat="43.133855" lon="-2.788823">
        <ele>126.487</ele>
        <time>2021-04-01T09:22:02.328Z</time>
      </trkpt>
      <trkpt lat="43.1338546" lon="-2.7888256">
        <ele>126.491</ele>
        <time>2021-04-01T09:22:02.380Z</time>
      </trkpt>
      <trkpt lat="43.1338547" lon="-2.7888283">
        <ele>126.445</ele>
        <time>2021-04-01T09:22:02.432Z</time>
      </trkpt>
      <trkpt lat="43.1338547" lon="-2.7888312">
        <ele>126.452</ele>
        <time>2021-04-01T09:22:02.484Z</time>
      </trkpt>
      <trkpt lat="43.1338546" lon="-2.7888342">
        <ele>126.47</ele>
        <time>2021-04-01T09:22:02.536Z</time>
      </trkpt>
      <trkpt lat="43.1338545" lon="-2.7888375">
        <ele>126.507</ele>
        <time>2021-04-01T09:22:02.588Z</time>
      </trkpt>
      <trkpt lat="43.1338544" lon="-2.7888406">
        <ele>126.552</ele>
        <time>2021-04-01T09:22:02.640Z</time>
      </trkpt>
      <trkpt lat="43.1338543" lon="-2.7888437">
        <ele>126.581</ele>
        <time>2021-04-01T09:22:02.692Z</time>
      </trkpt>
      <trkpt lat="43.1338538" lon="-2.7888462">
        <ele>126.596</ele>
        <time>2021-04-01T09:22:02.745Z</time>
      </trkpt>
      <trkpt lat="43.1338533" lon="-2.7888487">
        <ele>126.615</ele>
        <time>2021-04-01T09:22:02.797Z</time>
      </trkpt>
      <trkpt lat="43.1338527" lon="-2.7888512">
        <ele>126.63</ele>
        <time>2021-04-01T09:22:02.849Z</time>
      </trkpt>
      <trkpt lat="43.1338522" lon="-2.7888538">
        <ele>126.621</ele>
        <time>2021-04-01T09:22:02.901Z</time>
      </trkpt>
      <trkpt lat="43.133852" lon="-2.788857">
        <ele>126.684</ele>
        <time>2021-04-01T09:22:02.953Z</time>
      </trkpt>
      <trkpt lat="43.1338515" lon="-2.7888597">
        <ele>126.682</ele>
        <time>2021-04-01T09:22:03.005Z</time>
      </trkpt>
      <trkpt lat="43.133851" lon="-2.7888624">
        <ele>126.717</ele>
        <time>2021-04-01T09:22:03.057Z</time>
      </trkpt>
      <trkpt lat="43.1338506" lon="-2.7888654">
        <ele>126.765</ele>
        <time>2021-04-01T09:22:03.109Z</time>
      </trkpt>
      <trkpt lat="43.13385" lon="-2.7888681">
        <ele>126.787</ele>
        <time>2021-04-01T09:22:03.161Z</time>
      </trkpt>
      <trkpt lat="43.1338494" lon="-2.7888705">
        <ele>126.778</ele>
        <time>2021-04-01T09:22:03.214Z</time>
      </trkpt>
      <trkpt lat="43.1338488" lon="-2.788873">
        <ele>126.784</ele>
        <time>2021-04-01T09:22:03.272Z</time>
      </trkpt>
      <trkpt lat="43.1338484" lon="-2.7888758">
        <ele>126.808</ele>
        <time>2021-04-01T09:22:03.330Z</time>
      </trkpt>
      <trkpt lat="43.1338478" lon="-2.7888784">
        <ele>126.825</ele>
        <time>2021-04-01T09:22:03.388Z</time>
      </trkpt>
      <trkpt lat="43.1338473" lon="-2.7888811">
        <ele>126.841</ele>
        <time>2021-04-01T09:22:03.446Z</time>
      </trkpt>
      <trkpt lat="43.1338467" lon="-2.7888836">
        <ele>126.85</ele>
        <time>2021-04-01T09:22:03.505Z</time>
      </trkpt>
      <trkpt lat="43.1338462" lon="-2.7888865">
        <ele>126.881</ele>
        <time>2021-04-01T09:22:03.563Z</time>
      </trkpt>
      <trkpt lat="43.1338456" lon="-2.7888888">
        <ele>126.861</ele>
        <time>2021-04-01T09:22:03.621Z</time>
      </trkpt>
      <trkpt lat="43.1338451" lon="-2.7888913">
        <ele>126.87</ele>
        <time>2021-04-01T09:22:03.679Z</time>
      </trkpt>
      <trkpt lat="43.1338445" lon="-2.7888939">
        <ele>126.884</ele>
        <time>2021-04-01T09:22:03.738Z</time>
      </trkpt>
      <trkpt lat="43.133844" lon="-2.7888967">
        <ele>126.912</ele>
        <time>2021-04-01T09:22:03.796Z</time>
      </trkpt>
      <trkpt lat="43.1338436" lon="-2.7888988">
        <ele>126.846</ele>
        <time>2021-04-01T09:22:03.854Z</time>
      </trkpt>
      <trkpt lat="43.133843" lon="-2.7889009">
        <ele>126.813</ele>
        <time>2021-04-01T09:22:03.912Z</time>
      </trkpt>
      <trkpt lat="43.1338424" lon="-2.7889033">
        <ele>126.808</ele>
        <time>2021-04-01T09:22:03.971Z</time>
      </trkpt>
      <trkpt lat="43.1338419" lon="-2.7889057">
        <ele>126.789</ele>
        <time>2021-04-01T09:22:04.029Z</time>
      </trkpt>
      <trkpt lat="43.1338414" lon="-2.7889083">
        <ele>126.785</ele>
        <time>2021-04-01T09:22:04.087Z</time>
      </trkpt>
      <trkpt lat="43.1338412" lon="-2.7889111">
        <ele>126.79</ele>
        <time>2021-04-01T09:22:04.145Z</time>
      </trkpt>
      <trkpt lat="43.1338408" lon="-2.7889138">
        <ele>126.796</ele>
        <time>2021-04-01T09:22:04.204Z</time>
      </trkpt>
      <trkpt lat="43.1338403" lon="-2.788916">
        <ele>126.79</ele>
        <time>2021-04-01T09:22:04.259Z</time>
      </trkpt>
      <trkpt lat="43.1338399" lon="-2.7889186">
        <ele>126.796</ele>
        <time>2021-04-01T09:22:04.314Z</time>
      </trkpt>
      <trkpt lat="43.1338394" lon="-2.7889212">
        <ele>126.807</ele>
        <time>2021-04-01T09:22:04.369Z</time>
      </trkpt>
      <trkpt lat="43.133839" lon="-2.788924">
        <ele>126.821</ele>
        <time>2021-04-01T09:22:04.424Z</time>
      </trkpt>
      <trkpt lat="43.1338388" lon="-2.7889268">
        <ele>126.82</ele>
        <time>2021-04-01T09:22:04.479Z</time>
      </trkpt>
      <trkpt lat="43.1338385" lon="-2.7889296">
        <ele>126.833</ele>
        <time>2021-04-01T09:22:04.534Z</time>
      </trkpt>
      <trkpt lat="43.1338384" lon="-2.7889324">
        <ele>126.829</ele>
        <time>2021-04-01T09:22:04.589Z</time>
      </trkpt>
      <trkpt lat="43.1338381" lon="-2.7889353">
        <ele>126.87</ele>
        <time>2021-04-01T09:22:04.644Z</time>
      </trkpt>
      <trkpt lat="43.1338379" lon="-2.788938">
        <ele>126.912</ele>
        <time>2021-04-01T09:22:04.699Z</time>
      </trkpt>
      <trkpt lat="43.1338375" lon="-2.7889407">
        <ele>126.956</ele>
        <time>2021-04-01T09:22:04.754Z</time>
      </trkpt>
      <trkpt lat="43.1338371" lon="-2.7889435">
        <ele>126.989</ele>
        <time>2021-04-01T09:22:04.809Z</time>
      </trkpt>
      <trkpt lat="43.1338367" lon="-2.7889461">
        <ele>126.996</ele>
        <time>2021-04-01T09:22:04.864Z</time>
      </trkpt>
      <trkpt lat="43.1338367" lon="-2.7889492">
        <ele>127.058</ele>
        <time>2021-04-01T09:22:04.919Z</time>
      </trkpt>
      <trkpt lat="43.1338362" lon="-2.7889519">
        <ele>127.07</ele>
        <time>2021-04-01T09:22:04.974Z</time>
      </trkpt>
      <trkpt lat="43.1338357" lon="-2.7889544">
        <ele>127.081</ele>
        <time>2021-04-01T09:22:05.029Z</time>
      </trkpt>
      <trkpt lat="43.1338351" lon="-2.7889569">
        <ele>127.084</ele>
        <time>2021-04-01T09:22:05.084Z</time>
      </trkpt>
      <trkpt lat="43.1338347" lon="-2.7889597">
        <ele>127.116</ele>
        <time>2021-04-01T09:22:05.139Z</time>
      </trkpt>
      <trkpt lat="43.1338343" lon="-2.7889624">
        <ele>127.142</ele>
        <time>2021-04-01T09:22:05.194Z</time>
      </trkpt>
      <trkpt lat="43.1338338" lon="-2.788965">
        <ele>127.163</ele>
        <time>2021-04-01T09:22:05.249Z</time>
      </trkpt>
      <trkpt lat="43.1338334" lon="-2.7889679">
        <ele>127.203</ele>
        <time>2021-04-01T09:22:05.304Z</time>
      </trkpt>
      <trkpt lat="43.1338327" lon="-2.7889704">
        <ele>127.179</ele>
        <time>2021-04-01T09:22:05.359Z</time>
      </trkpt>
      <trkpt lat="43.1338322" lon="-2.7889728">
        <ele>127.183</ele>
        <time>2021-04-01T09:22:05.414Z</time>
      </trkpt>
      <trkpt lat="43.1338315" lon="-2.7889751">
        <ele>127.2</ele>
        <time>2021-04-01T09:22:05.469Z</time>
      </trkpt>
      <trkpt lat="43.133831" lon="-2.7889775">
        <ele>127.236</ele>
        <time>2021-04-01T09:22:05.524Z</time>
      </trkpt>
      <trkpt lat="43.1338306" lon="-2.7889803">
        <ele>127.296</ele>
        <time>2021-04-01T09:22:05.579Z</time>
      </trkpt>
      <trkpt lat="43.1338302" lon="-2.7889832">
        <ele>127.327</ele>
        <time>2021-04-01T09:22:05.634Z</time>
      </trkpt>
      <trkpt lat="43.1338297" lon="-2.788986">
        <ele>127.365</ele>
        <time>2021-04-01T09:22:05.689Z</time>
      </trkpt>
      <trkpt lat="43.133829" lon="-2.7889883">
        <ele>127.384</ele>
        <time>2021-04-01T09:22:05.744Z</time>
      </trkpt>
      <trkpt lat="43.1338283" lon="-2.7889907">
        <ele>127.404</ele>
        <time>2021-04-01T09:22:05.799Z</time>
      </trkpt>
      <trkpt lat="43.1338274" lon="-2.7889931">
        <ele>127.418</ele>
        <time>2021-04-01T09:22:05.854Z</time>
      </trkpt>
      <trkpt lat="43.133827" lon="-2.7889959">
        <ele>127.468</ele>
        <time>2021-04-01T09:22:05.909Z</time>
      </trkpt>
      <trkpt lat="43.1338266" lon="-2.7889989">
        <ele>127.551</ele>
        <time>2021-04-01T09:22:05.964Z</time>
      </trkpt>
      <trkpt lat="43.1338261" lon="-2.7890015">
        <ele>127.566</ele>
        <time>2021-04-01T09:22:06.019Z</time>
      </trkpt>
      <trkpt lat="43.1338254" lon="-2.789004">
        <ele>127.586</ele>
        <time>2021-04-01T09:22:06.074Z</time>
      </trkpt>
      <trkpt lat="43.1338249" lon="-2.7890066">
        <ele>127.644</ele>
        <time>2021-04-01T09:22:06.129Z</time>
      </trkpt>
      <trkpt lat="43.1338244" lon="-2.7890091">
        <ele>127.669</ele>
        <time>2021-04-01T09:22:06.184Z</time>
      </trkpt>
      <trkpt lat="43.1338236" lon="-2.7890114">
        <ele>127.691</ele>
        <time>2021-04-01T09:22:06.239Z</time>
      </trkpt>
      <trkpt lat="43.1338229" lon="-2.7890139">
        <ele>127.737</ele>
        <time>2021-04-01T09:22:06.294Z</time>
      </trkpt>
      <trkpt lat="43.1338223" lon="-2.7890167">
        <ele>127.777</ele>
        <time>2021-04-01T09:22:06.349Z</time>
      </trkpt>
      <trkpt lat="43.1338219" lon="-2.7890194">
        <ele>127.829</ele>
        <time>2021-04-01T09:22:06.404Z</time>
      </trkpt>
      <trkpt lat="43.133821" lon="-2.7890219">
        <ele>127.873</ele>
        <time>2021-04-01T09:22:06.459Z</time>
      </trkpt>
      <trkpt lat="43.1338204" lon="-2.7890241">
        <ele>127.897</ele>
        <time>2021-04-01T09:22:06.514Z</time>
      </trkpt>
      <trkpt lat="43.1338198" lon="-2.7890265">
        <ele>127.913</ele>
        <time>2021-04-01T09:22:06.569Z</time>
      </trkpt>
      <trkpt lat="43.1338189" lon="-2.7890291">
        <ele>127.952</ele>
        <time>2021-04-01T09:22:06.624Z</time>
      </trkpt>
      <trkpt lat="43.1338183" lon="-2.7890316">
        <ele>127.981</ele>
        <time>2021-04-01T09:22:06.679Z</time>
      </trkpt>
      <trkpt lat="43.1338176" lon="-2.789034">
        <ele>128.013</ele>
        <time>2021-04-01T09:22:06.734Z</time>
      </trkpt>
      <trkpt lat="43.1338171" lon="-2.7890364">
        <ele>128.022</ele>
        <time>2021-04-01T09:22:06.789Z</time>
      </trkpt>
      <trkpt lat="43.1338165" lon="-2.7890388">
        <ele>128.033</ele>
        <time>2021-04-01T09:22:06.844Z</time>
      </trkpt>
      <trkpt lat="43.1338159" lon="-2.7890412">
        <ele>128.071</ele>
        <time>2021-04-01T09:22:06.899Z</time>
      </trkpt>
      <trkpt lat="43.1338153" lon="-2.7890436">
        <ele>128.097</ele>
        <time>2021-04-01T09:22:06.954Z</time>
      </trkpt>
      <trkpt lat="43.1338147" lon="-2.789046">
        <ele>128.115</ele>
        <time>2021-04-01T09:22:07.009Z</time>
      </trkpt>
      <trkpt lat="43.1338142" lon="-2.7890485">
        <ele>128.136</ele>
        <time>2021-04-01T09:22:07.064Z</time>
      </trkpt>
      <trkpt lat="43.1338139" lon="-2.7890514">
        <ele>128.196</ele>
        <time>2021-04-01T09:22:07.119Z</time>
      </trkpt>
      <trkpt lat="43.1338135" lon="-2.7890539">
        <ele>128.25</ele>
        <time>2021-04-01T09:22:07.174Z</time>
      </trkpt>
      <trkpt lat="43.1338128" lon="-2.7890562">
        <ele>128.256</ele>
        <time>2021-04-01T09:22:07.229Z</time>
      </trkpt>
      <trkpt lat="43.1338122" lon="-2.7890586">
        <ele>128.274</ele>
        <time>2021-04-01T09:22:07.284Z</time>
      </trkpt>
      <trkpt lat="43.1338116" lon="-2.7890608">
        <ele>128.295</ele>
        <time>2021-04-01T09:22:07.339Z</time>
      </trkpt>
      <trkpt lat="43.1338109" lon="-2.7890632">
        <ele>128.325</ele>
        <time>2021-04-01T09:22:07.394Z</time>
      </trkpt>
      <trkpt lat="43.1338103" lon="-2.7890656">
        <ele>128.355</ele>
        <time>2021-04-01T09:22:07.449Z</time>
      </trkpt>
      <trkpt lat="43.1338097" lon="-2.7890678">
        <ele>128.361</ele>
        <time>2021-04-01T09:22:07.504Z</time>
      </trkpt>
      <trkpt lat="43.1338089" lon="-2.78907">
        <ele>128.394</ele>
        <time>2021-04-01T09:22:07.559Z</time>
      </trkpt>
      <trkpt lat="43.1338082" lon="-2.7890723">
        <ele>128.399</ele>
        <time>2021-04-01T09:22:07.614Z</time>
      </trkpt>
      <trkpt lat="43.1338074" lon="-2.7890743">
        <ele>128.393</ele>
        <time>2021-04-01T09:22:07.669Z</time>
      </trkpt>
      <trkpt lat="43.1338068" lon="-2.7890766">
        <ele>128.431</ele>
        <time>2021-04-01T09:22:07.724Z</time>
      </trkpt>
      <trkpt lat="43.1338062" lon="-2.789079">
        <ele>128.468</ele>
        <time>2021-04-01T09:22:07.779Z</time>
      </trkpt>
      <trkpt lat="43.1338056" lon="-2.7890813">
        <ele>128.516</ele>
        <time>2021-04-01T09:22:07.834Z</time>
      </trkpt>
      <trkpt lat="43.1338053" lon="-2.789084">
        <ele>128.559</ele>
        <time>2021-04-01T09:22:07.889Z</time>
      </trkpt>
      <trkpt lat="43.1338049" lon="-2.7890867">
        <ele>128.63</ele>
        <time>2021-04-01T09:22:07.944Z</time>
      </trkpt>
      <trkpt lat="43.1338043" lon="-2.7890892">
        <ele>128.665</ele>
        <time>2021-04-01T09:22:07.999Z</time>
      </trkpt>
      <trkpt lat="43.1338038" lon="-2.7890916">
        <ele>128.704</ele>
        <time>2021-04-01T09:22:08.054Z</time>
      </trkpt>
      <trkpt lat="43.1338031" lon="-2.7890937">
        <ele>128.736</ele>
        <time>2021-04-01T09:22:08.109Z</time>
      </trkpt>
      <trkpt lat="43.1338024" lon="-2.7890958">
        <ele>128.74</ele>
        <time>2021-04-01T09:22:08.164Z</time>
      </trkpt>
      <trkpt lat="43.1338016" lon="-2.789098">
        <ele>128.763</ele>
        <time>2021-04-01T09:22:08.219Z</time>
      </trkpt>
      <trkpt lat="43.1338009" lon="-2.7891001">
        <ele>128.767</ele>
        <time>2021-04-01T09:22:08.274Z</time>
      </trkpt>
      <trkpt lat="43.1338001" lon="-2.7891023">
        <ele>128.779</ele>
        <time>2021-04-01T09:22:08.329Z</time>
      </trkpt>
      <trkpt lat="43.1337996" lon="-2.7891047">
        <ele>128.81</ele>
        <time>2021-04-01T09:22:08.384Z</time>
      </trkpt>
      <trkpt lat="43.133799" lon="-2.7891071">
        <ele>128.84</ele>
        <time>2021-04-01T09:22:08.439Z</time>
      </trkpt>
      <trkpt lat="43.1337986" lon="-2.7891094">
        <ele>128.885</ele>
        <time>2021-04-01T09:22:08.494Z</time>
      </trkpt>
      <trkpt lat="43.1337979" lon="-2.7891116">
        <ele>128.906</ele>
        <time>2021-04-01T09:22:08.549Z</time>
      </trkpt>
      <trkpt lat="43.133797" lon="-2.7891137">
        <ele>128.928</ele>
        <time>2021-04-01T09:22:08.604Z</time>
      </trkpt>
      <trkpt lat="43.1337964" lon="-2.789116">
        <ele>128.964</ele>
        <time>2021-04-01T09:22:08.659Z</time>
      </trkpt>
      <trkpt lat="43.1337957" lon="-2.7891183">
        <ele>128.981</ele>
        <time>2021-04-01T09:22:08.714Z</time>
      </trkpt>
      <trkpt lat="43.1337951" lon="-2.7891207">
        <ele>129.003</ele>
        <time>2021-04-01T09:22:08.769Z</time>
      </trkpt>
      <trkpt lat="43.1337945" lon="-2.7891231">
        <ele>129.05</ele>
        <time>2021-04-01T09:22:08.824Z</time>
      </trkpt>
      <trkpt lat="43.133794" lon="-2.7891256">
        <ele>129.097</ele>
        <time>2021-04-01T09:22:08.879Z</time>
      </trkpt>
      <trkpt lat="43.1337934" lon="-2.7891277">
        <ele>129.122</ele>
        <time>2021-04-01T09:22:08.934Z</time>
      </trkpt>
      <trkpt lat="43.1337927" lon="-2.78913">
        <ele>129.141</ele>
        <time>2021-04-01T09:22:08.989Z</time>
      </trkpt>
      <trkpt lat="43.1337921" lon="-2.7891322">
        <ele>129.141</ele>
        <time>2021-04-01T09:22:09.044Z</time>
      </trkpt>
      <trkpt lat="43.1337914" lon="-2.7891345">
        <ele>129.17</ele>
        <time>2021-04-01T09:22:09.099Z</time>
      </trkpt>
      <trkpt lat="43.1337905" lon="-2.7891368">
        <ele>129.224</ele>
        <time>2021-04-01T09:22:09.154Z</time>
      </trkpt>
      <trkpt lat="43.1337897" lon="-2.7891391">
        <ele>129.236</ele>
        <time>2021-04-01T09:22:09.209Z</time>
      </trkpt>
      <trkpt lat="43.1337891" lon="-2.7891416">
        <ele>129.283</ele>
        <time>2021-04-01T09:22:09.264Z</time>
      </trkpt>
      <trkpt lat="43.1337889" lon="-2.7891439">
        <ele>129.328</ele>
        <time>2021-04-01T09:22:09.319Z</time>
      </trkpt>
      <trkpt lat="43.1337883" lon="-2.7891461">
        <ele>129.345</ele>
        <time>2021-04-01T09:22:09.374Z</time>
      </trkpt>
      <trkpt lat="43.1337878" lon="-2.7891486">
        <ele>129.379</ele>
        <time>2021-04-01T09:22:09.429Z</time>
      </trkpt>
      <trkpt lat="43.1337875" lon="-2.7891511">
        <ele>129.424</ele>
        <time>2021-04-01T09:22:09.484Z</time>
      </trkpt>
      <trkpt lat="43.1337871" lon="-2.7891537">
        <ele>129.46</ele>
        <time>2021-04-01T09:22:09.539Z</time>
      </trkpt>
      <trkpt lat="43.1337868" lon="-2.7891563">
        <ele>129.515</ele>
        <time>2021-04-01T09:22:09.594Z</time>
      </trkpt>
      <trkpt lat="43.1337864" lon="-2.7891588">
        <ele>129.546</ele>
        <time>2021-04-01T09:22:09.649Z</time>
      </trkpt>
      <trkpt lat="43.1337863" lon="-2.7891612">
        <ele>129.61</ele>
        <time>2021-04-01T09:22:09.704Z</time>
      </trkpt>
      <trkpt lat="43.1337857" lon="-2.7891636">
        <ele>129.645</ele>
        <time>2021-04-01T09:22:09.759Z</time>
      </trkpt>
      <trkpt lat="43.1337851" lon="-2.7891662">
        <ele>129.675</ele>
        <time>2021-04-01T09:22:09.814Z</time>
      </trkpt>
      <trkpt lat="43.1337851" lon="-2.7891694">
        <ele>129.785</ele>
        <time>2021-04-01T09:22:09.869Z</time>
      </trkpt>
      <trkpt lat="43.1337847" lon="-2.7891716">
        <ele>129.799</ele>
        <time>2021-04-01T09:22:09.924Z</time>
      </trkpt>
      <trkpt lat="43.1337841" lon="-2.789174">
        <ele>129.825</ele>
        <time>2021-04-01T09:22:09.979Z</time>
      </trkpt>
      <trkpt lat="43.1337836" lon="-2.7891766">
        <ele>129.888</ele>
        <time>2021-04-01T09:22:10.034Z</time>
      </trkpt>
      <trkpt lat="43.1337833" lon="-2.7891794">
        <ele>129.96</ele>
        <time>2021-04-01T09:22:10.089Z</time>
      </trkpt>
      <trkpt lat="43.1337829" lon="-2.7891815">
        <ele>129.971</ele>
        <time>2021-04-01T09:22:10.144Z</time>
      </trkpt>
      <trkpt lat="43.1337823" lon="-2.7891837">
        <ele>129.989</ele>
        <time>2021-04-01T09:22:10.199Z</time>
      </trkpt>
      <trkpt lat="43.133782" lon="-2.789186">
        <ele>130.02</ele>
        <time>2021-04-01T09:22:10.254Z</time>
      </trkpt>
      <trkpt lat="43.1337814" lon="-2.7891884">
        <ele>130.038</ele>
        <time>2021-04-01T09:22:10.309Z</time>
      </trkpt>
      <trkpt lat="43.133781" lon="-2.7891909">
        <ele>130.082</ele>
        <time>2021-04-01T09:22:10.364Z</time>
      </trkpt>
      <trkpt lat="43.1337806" lon="-2.7891933">
        <ele>130.103</ele>
        <time>2021-04-01T09:22:10.419Z</time>
      </trkpt>
      <trkpt lat="43.1337804" lon="-2.7891958">
        <ele>130.134</ele>
        <time>2021-04-01T09:22:10.474Z</time>
      </trkpt>
      <trkpt lat="43.13378" lon="-2.7891982">
        <ele>130.188</ele>
        <time>2021-04-01T09:22:10.529Z</time>
      </trkpt>
      <trkpt lat="43.1337793" lon="-2.7892002">
        <ele>130.197</ele>
        <time>2021-04-01T09:22:10.584Z</time>
      </trkpt>
      <trkpt lat="43.1337786" lon="-2.7892027">
        <ele>130.221</ele>
        <time>2021-04-01T09:22:10.639Z</time>
      </trkpt>
      <trkpt lat="43.1337783" lon="-2.7892053">
        <ele>130.277</ele>
        <time>2021-04-01T09:22:10.694Z</time>
      </trkpt>
      <trkpt lat="43.1337778" lon="-2.7892077">
        <ele>130.314</ele>
        <time>2021-04-01T09:22:10.749Z</time>
      </trkpt>
      <trkpt lat="43.1337772" lon="-2.7892101">
        <ele>130.342</ele>
        <time>2021-04-01T09:22:10.804Z</time>
      </trkpt>
      <trkpt lat="43.1337767" lon="-2.7892125">
        <ele>130.366</ele>
        <time>2021-04-01T09:22:10.859Z</time>
      </trkpt>
      <trkpt lat="43.1337763" lon="-2.789215">
        <ele>130.431</ele>
        <time>2021-04-01T09:22:10.914Z</time>
      </trkpt>
      <trkpt lat="43.133776" lon="-2.7892173">
        <ele>130.466</ele>
        <time>2021-04-01T09:22:10.969Z</time>
      </trkpt>
      <trkpt lat="43.1337753" lon="-2.7892197">
        <ele>130.501</ele>
        <time>2021-04-01T09:22:11.024Z</time>
      </trkpt>
      <trkpt lat="43.1337747" lon="-2.789222">
        <ele>130.531</ele>
        <time>2021-04-01T09:22:11.079Z</time>
      </trkpt>
      <trkpt lat="43.1337739" lon="-2.7892244">
        <ele>130.561</ele>
        <time>2021-04-01T09:22:11.134Z</time>
      </trkpt>
      <trkpt lat="43.1337735" lon="-2.7892268">
        <ele>130.617</ele>
        <time>2021-04-01T09:22:11.189Z</time>
      </trkpt>
      <trkpt lat="43.1337731" lon="-2.7892292">
        <ele>130.643</ele>
        <time>2021-04-01T09:22:11.244Z</time>
      </trkpt>
      <trkpt lat="43.1337726" lon="-2.7892315">
        <ele>130.694</ele>
        <time>2021-04-01T09:22:11.299Z</time>
      </trkpt>
      <trkpt lat="43.1337722" lon="-2.7892339">
        <ele>130.733</ele>
        <time>2021-04-01T09:22:11.354Z</time>
      </trkpt>
      <trkpt lat="43.1337716" lon="-2.7892361">
        <ele>130.755</ele>
        <time>2021-04-01T09:22:11.409Z</time>
      </trkpt>
      <trkpt lat="43.1337709" lon="-2.7892385">
        <ele>130.765</ele>
        <time>2021-04-01T09:22:11.464Z</time>
      </trkpt>
      <trkpt lat="43.1337704" lon="-2.7892408">
        <ele>130.811</ele>
        <time>2021-04-01T09:22:11.519Z</time>
      </trkpt>
      <trkpt lat="43.1337698" lon="-2.789243">
        <ele>130.826</ele>
        <time>2021-04-01T09:22:11.574Z</time>
      </trkpt>
      <trkpt lat="43.1337692" lon="-2.7892453">
        <ele>130.844</ele>
        <time>2021-04-01T09:22:11.629Z</time>
      </trkpt>
      <trkpt lat="43.1337686" lon="-2.7892476">
        <ele>130.849</ele>
        <time>2021-04-01T09:22:11.684Z</time>
      </trkpt>
      <trkpt lat="43.1337678" lon="-2.7892496">
        <ele>130.863</ele>
        <time>2021-04-01T09:22:11.739Z</time>
      </trkpt>
      <trkpt lat="43.133767" lon="-2.7892516">
        <ele>130.857</ele>
        <time>2021-04-01T09:22:11.794Z</time>
      </trkpt>
      <trkpt lat="43.1337666" lon="-2.7892538">
        <ele>130.877</ele>
        <time>2021-04-01T09:22:11.849Z</time>
      </trkpt>
      <trkpt lat="43.1337662" lon="-2.7892559">
        <ele>130.933</ele>
        <time>2021-04-01T09:22:11.904Z</time>
      </trkpt>
      <trkpt lat="43.1337657" lon="-2.789258">
        <ele>130.984</ele>
        <time>2021-04-01T09:22:11.959Z</time>
      </trkpt>
      <trkpt lat="43.133765" lon="-2.78926">
        <ele>131.022</ele>
        <time>2021-04-01T09:22:12.014Z</time>
      </trkpt>
      <trkpt lat="43.1337647" lon="-2.7892625">
        <ele>131.057</ele>
        <time>2021-04-01T09:22:12.069Z</time>
      </trkpt>
      <trkpt lat="43.1337643" lon="-2.7892647">
        <ele>131.101</ele>
        <time>2021-04-01T09:22:12.124Z</time>
      </trkpt>
      <trkpt lat="43.133764" lon="-2.7892669">
        <ele>131.133</ele>
        <time>2021-04-01T09:22:12.179Z</time>
      </trkpt>
      <trkpt lat="43.1337635" lon="-2.7892693">
        <ele>131.175</ele>
        <time>2021-04-01T09:22:12.234Z</time>
      </trkpt>
      <trkpt lat="43.133763" lon="-2.7892713">
        <ele>131.192</ele>
        <time>2021-04-01T09:22:12.286Z</time>
      </trkpt>
      <trkpt lat="43.1337628" lon="-2.7892739">
        <ele>131.271</ele>
        <time>2021-04-01T09:22:12.338Z</time>
      </trkpt>
      <trkpt lat="43.1337625" lon="-2.7892764">
        <ele>131.312</ele>
        <time>2021-04-01T09:22:12.390Z</time>
      </trkpt>
      <trkpt lat="43.133762" lon="-2.7892787">
        <ele>131.313</ele>
        <time>2021-04-01T09:22:12.442Z</time>
      </trkpt>
      <trkpt lat="43.1337616" lon="-2.7892809">
        <ele>131.322</ele>
        <time>2021-04-01T09:22:12.494Z</time>
      </trkpt>
      <trkpt lat="43.1337613" lon="-2.789283">
        <ele>131.339</ele>
        <time>2021-04-01T09:22:12.546Z</time>
      </trkpt>
      <trkpt lat="43.1337609" lon="-2.7892852">
        <ele>131.405</ele>
        <time>2021-04-01T09:22:12.598Z</time>
      </trkpt>
      <trkpt lat="43.1337604" lon="-2.7892875">
        <ele>131.432</ele>
        <time>2021-04-01T09:22:12.650Z</time>
      </trkpt>
      <trkpt lat="43.1337601" lon="-2.78929">
        <ele>131.466</ele>
        <time>2021-04-01T09:22:12.702Z</time>
      </trkpt>
      <trkpt lat="43.1337597" lon="-2.7892923">
        <ele>131.506</ele>
        <time>2021-04-01T09:22:12.755Z</time>
      </trkpt>
      <trkpt lat="43.1337592" lon="-2.7892946">
        <ele>131.524</ele>
        <time>2021-04-01T09:22:12.807Z</time>
      </trkpt>
      <trkpt lat="43.1337588" lon="-2.789297">
        <ele>131.565</ele>
        <time>2021-04-01T09:22:12.859Z</time>
      </trkpt>
      <trkpt lat="43.1337585" lon="-2.7892992">
        <ele>131.595</ele>
        <time>2021-04-01T09:22:12.911Z</time>
      </trkpt>
      <trkpt lat="43.1337583" lon="-2.7893016">
        <ele>131.641</ele>
        <time>2021-04-01T09:22:12.963Z</time>
      </trkpt>
      <trkpt lat="43.1337579" lon="-2.7893037">
        <ele>131.661</ele>
        <time>2021-04-01T09:22:13.015Z</time>
      </trkpt>
      <trkpt lat="43.1337576" lon="-2.7893062">
        <ele>131.676</ele>
        <time>2021-04-01T09:22:13.067Z</time>
      </trkpt>
      <trkpt lat="43.1337573" lon="-2.7893086">
        <ele>131.717</ele>
        <time>2021-04-01T09:22:13.119Z</time>
      </trkpt>
      <trkpt lat="43.1337567" lon="-2.7893107">
        <ele>131.761</ele>
        <time>2021-04-01T09:22:13.171Z</time>
      </trkpt>
      <trkpt lat="43.1337563" lon="-2.789313">
        <ele>131.786</ele>
        <time>2021-04-01T09:22:13.224Z</time>
      </trkpt>
      <trkpt lat="43.1337559" lon="-2.7893151">
        <ele>131.793</ele>
        <time>2021-04-01T09:22:13.285Z</time>
      </trkpt>
      <trkpt lat="43.1337554" lon="-2.7893173">
        <ele>131.804</ele>
        <time>2021-04-01T09:22:13.346Z</time>
      </trkpt>
      <trkpt lat="43.1337543" lon="-2.789319">
        <ele>131.799</ele>
        <time>2021-04-01T09:22:13.408Z</time>
      </trkpt>
      <trkpt lat="43.1337538" lon="-2.789321">
        <ele>131.846</ele>
        <time>2021-04-01T09:22:13.469Z</time>
      </trkpt>
      <trkpt lat="43.1337535" lon="-2.789323">
        <ele>131.864</ele>
        <time>2021-04-01T09:22:13.531Z</time>
      </trkpt>
      <trkpt lat="43.133753" lon="-2.789325">
        <ele>131.867</ele>
        <time>2021-04-01T09:22:13.592Z</time>
      </trkpt>
      <trkpt lat="43.1337523" lon="-2.789327">
        <ele>131.865</ele>
        <time>2021-04-01T09:22:13.654Z</time>
      </trkpt>
      <trkpt lat="43.1337518" lon="-2.7893294">
        <ele>131.908</ele>
        <time>2021-04-01T09:22:13.715Z</time>
      </trkpt>
      <trkpt lat="43.1337512" lon="-2.7893313">
        <ele>131.929</ele>
        <time>2021-04-01T09:22:13.777Z</time>
      </trkpt>
      <trkpt lat="43.1337504" lon="-2.7893332">
        <ele>131.92</ele>
        <time>2021-04-01T09:22:13.838Z</time>
      </trkpt>
      <trkpt lat="43.1337498" lon="-2.7893352">
        <ele>131.942</ele>
        <time>2021-04-01T09:22:13.900Z</time>
      </trkpt>
      <trkpt lat="43.1337492" lon="-2.7893372">
        <ele>131.96</ele>
        <time>2021-04-01T09:22:13.961Z</time>
      </trkpt>
      <trkpt lat="43.1337488" lon="-2.7893395">
        <ele>131.984</ele>
        <time>2021-04-01T09:22:14.023Z</time>
      </trkpt>
      <trkpt lat="43.1337484" lon="-2.7893418">
        <ele>131.975</ele>
        <time>2021-04-01T09:22:14.084Z</time>
      </trkpt>
      <trkpt lat="43.133748" lon="-2.7893441">
        <ele>132.025</ele>
        <time>2021-04-01T09:22:14.146Z</time>
      </trkpt>
      <trkpt lat="43.1337475" lon="-2.7893462">
        <ele>132.055</ele>
        <time>2021-04-01T09:22:14.207Z</time>
      </trkpt>
      <trkpt lat="43.1337467" lon="-2.789348">
        <ele>132.058</ele>
        <time>2021-04-01T09:22:14.269Z</time>
      </trkpt>
      <trkpt lat="43.133746" lon="-2.7893501">
        <ele>132.071</ele>
        <time>2021-04-01T09:22:14.327Z</time>
      </trkpt>
      <trkpt lat="43.1337459" lon="-2.7893525">
        <ele>132.135</ele>
        <time>2021-04-01T09:22:14.385Z</time>
      </trkpt>
      <trkpt lat="43.1337454" lon="-2.7893546">
        <ele>132.167</ele>
        <time>2021-04-01T09:22:14.443Z</time>
      </trkpt>
      <trkpt lat="43.1337448" lon="-2.7893564">
        <ele>132.146</ele>
        <time>2021-04-01T09:22:14.501Z</time>
      </trkpt>
      <trkpt lat="43.1337446" lon="-2.7893586">
        <ele>132.189</ele>
        <time>2021-04-01T09:22:14.559Z</time>
      </trkpt>
      <trkpt lat="43.1337441" lon="-2.7893607">
        <ele>132.208</ele>
        <time>2021-04-01T09:22:14.617Z</time>
      </trkpt>
      <trkpt lat="43.1337434" lon="-2.7893626">
        <ele>132.202</ele>
        <time>2021-04-01T09:22:14.675Z</time>
      </trkpt>
      <trkpt lat="43.1337428" lon="-2.7893647">
        <ele>132.223</ele>
        <time>2021-04-01T09:22:14.733Z</time>
      </trkpt>
      <trkpt lat="43.1337419" lon="-2.7893666">
        <ele>132.232</ele>
        <time>2021-04-01T09:22:14.791Z</time>
      </trkpt>
      <trkpt lat="43.1337415" lon="-2.7893687">
        <ele>132.234</ele>
        <time>2021-04-01T09:22:14.849Z</time>
      </trkpt>
      <trkpt lat="43.1337414" lon="-2.789371">
        <ele>132.251</ele>
        <time>2021-04-01T09:22:14.907Z</time>
      </trkpt>
      <trkpt lat="43.1337411" lon="-2.7893734">
        <ele>132.264</ele>
        <time>2021-04-01T09:22:14.965Z</time>
      </trkpt>
      <trkpt lat="43.1337407" lon="-2.7893754">
        <ele>132.278</ele>
        <time>2021-04-01T09:22:15.023Z</time>
      </trkpt>
      <trkpt lat="43.1337403" lon="-2.7893775">
        <ele>132.311</ele>
        <time>2021-04-01T09:22:15.081Z</time>
      </trkpt>
      <trkpt lat="43.1337398" lon="-2.7893797">
        <ele>132.31</ele>
        <time>2021-04-01T09:22:15.139Z</time>
      </trkpt>
      <trkpt lat="43.1337392" lon="-2.7893817">
        <ele>132.331</ele>
        <time>2021-04-01T09:22:15.197Z</time>
      </trkpt>
      <trkpt lat="43.1337388" lon="-2.7893838">
        <ele>132.366</ele>
        <time>2021-04-01T09:22:15.255Z</time>
      </trkpt>
      <trkpt lat="43.1337384" lon="-2.789386">
        <ele>132.406</ele>
        <time>2021-04-01T09:22:15.314Z</time>
      </trkpt>
      <trkpt lat="43.1337381" lon="-2.7893881">
        <ele>132.419</ele>
        <time>2021-04-01T09:22:15.363Z</time>
      </trkpt>
      <trkpt lat="43.1337376" lon="-2.7893904">
        <ele>132.439</ele>
        <time>2021-04-01T09:22:15.412Z</time>
      </trkpt>
      <trkpt lat="43.1337372" lon="-2.7893925">
        <ele>132.454</ele>
        <time>2021-04-01T09:22:15.461Z</time>
      </trkpt>
      <trkpt lat="43.1337366" lon="-2.7893944">
        <ele>132.448</ele>
        <time>2021-04-01T09:22:15.510Z</time>
      </trkpt>
      <trkpt lat="43.1337362" lon="-2.7893967">
        <ele>132.459</ele>
        <time>2021-04-01T09:22:15.560Z</time>
      </trkpt>
      <trkpt lat="43.1337356" lon="-2.7893986">
        <ele>132.478</ele>
        <time>2021-04-01T09:22:15.609Z</time>
      </trkpt>
      <trkpt lat="43.1337352" lon="-2.789401">
        <ele>132.514</ele>
        <time>2021-04-01T09:22:15.658Z</time>
      </trkpt>
      <trkpt lat="43.1337348" lon="-2.7894032">
        <ele>132.543</ele>
        <time>2021-04-01T09:22:15.707Z</time>
      </trkpt>
      <trkpt lat="43.1337344" lon="-2.7894053">
        <ele>132.574</ele>
        <time>2021-04-01T09:22:15.756Z</time>
      </trkpt>
      <trkpt lat="43.1337338" lon="-2.7894073">
        <ele>132.563</ele>
        <time>2021-04-01T09:22:15.806Z</time>
      </trkpt>
      <trkpt lat="43.1337334" lon="-2.7894095">
        <ele>132.571</ele>
        <time>2021-04-01T09:22:15.855Z</time>
      </trkpt>
      <trkpt lat="43.1337329" lon="-2.7894116">
        <ele>132.58</ele>
        <time>2021-04-01T09:22:15.904Z</time>
      </trkpt>
      <trkpt lat="43.1337324" lon="-2.7894137">
        <ele>132.591</ele>
        <time>2021-04-01T09:22:15.953Z</time>
      </trkpt>
      <trkpt lat="43.1337322" lon="-2.7894158">
        <ele>132.6</ele>
        <time>2021-04-01T09:22:16.002Z</time>
      </trkpt>
      <trkpt lat="43.1337316" lon="-2.7894176">
        <ele>132.593</ele>
        <time>2021-04-01T09:22:16.052Z</time>
      </trkpt>
      <trkpt lat="43.1337311" lon="-2.7894193">
        <ele>132.585</ele>
        <time>2021-04-01T09:22:16.101Z</time>
      </trkpt>
      <trkpt lat="43.1337304" lon="-2.7894208">
        <ele>132.551</ele>
        <time>2021-04-01T09:22:16.150Z</time>
      </trkpt>
      <trkpt lat="43.1337297" lon="-2.7894226">
        <ele>132.519</ele>
        <time>2021-04-01T09:22:16.199Z</time>
      </trkpt>
      <trkpt lat="43.1337292" lon="-2.7894245">
        <ele>132.499</ele>
        <time>2021-04-01T09:22:16.249Z</time>
      </trkpt>
      <trkpt lat="43.1337287" lon="-2.7894261">
        <ele>132.452</ele>
        <time>2021-04-01T09:22:16.307Z</time>
      </trkpt>
      <trkpt lat="43.1337282" lon="-2.7894279">
        <ele>132.447</ele>
        <time>2021-04-01T09:22:16.365Z</time>
      </trkpt>
      <trkpt lat="43.1337277" lon="-2.7894298">
        <ele>132.444</ele>
        <time>2021-04-01T09:22:16.423Z</time>
      </trkpt>
      <trkpt lat="43.1337271" lon="-2.7894318">
        <ele>132.453</ele>
        <time>2021-04-01T09:22:16.481Z</time>
      </trkpt>
      <trkpt lat="43.1337268" lon="-2.789434">
        <ele>132.478</ele>
        <time>2021-04-01T09:22:16.539Z</time>
      </trkpt>
      <trkpt lat="43.1337265" lon="-2.7894363">
        <ele>132.522</ele>
        <time>2021-04-01T09:22:16.597Z</time>
      </trkpt>
      <trkpt lat="43.133726" lon="-2.7894387">
        <ele>132.56</ele>
        <time>2021-04-01T09:22:16.655Z</time>
      </trkpt>
      <trkpt lat="43.1337257" lon="-2.7894413">
        <ele>132.605</ele>
        <time>2021-04-01T09:22:16.713Z</time>
      </trkpt>
      <trkpt lat="43.1337255" lon="-2.7894435">
        <ele>132.598</ele>
        <time>2021-04-01T09:22:16.771Z</time>
      </trkpt>
      <trkpt lat="43.1337252" lon="-2.7894454">
        <ele>132.591</ele>
        <time>2021-04-01T09:22:16.829Z</time>
      </trkpt>
      <trkpt lat="43.1337246" lon="-2.7894473">
        <ele>132.573</ele>
        <time>2021-04-01T09:22:16.887Z</time>
      </trkpt>
      <trkpt lat="43.1337239" lon="-2.7894493">
        <ele>132.581</ele>
        <time>2021-04-01T09:22:16.945Z</time>
      </trkpt>
      <trkpt lat="43.1337236" lon="-2.7894512">
        <ele>132.562</ele>
        <time>2021-04-01T09:22:17.003Z</time>
      </trkpt>
      <trkpt lat="43.1337233" lon="-2.789453">
        <ele>132.532</ele>
        <time>2021-04-01T09:22:17.061Z</time>
      </trkpt>
      <trkpt lat="43.1337229" lon="-2.7894551">
        <ele>132.537</ele>
        <time>2021-04-01T09:22:17.119Z</time>
      </trkpt>
      <trkpt lat="43.1337226" lon="-2.7894571">
        <ele>132.552</ele>
        <time>2021-04-01T09:22:17.177Z</time>
      </trkpt>
      <trkpt lat="43.1337221" lon="-2.7894588">
        <ele>132.536</ele>
        <time>2021-04-01T09:22:17.235Z</time>
      </trkpt>
      <trkpt lat="43.1337217" lon="-2.7894608">
        <ele>132.544</ele>
        <time>2021-04-01T09:22:17.294Z</time>
      </trkpt>
      <trkpt lat="43.1337213" lon="-2.7894627">
        <ele>132.556</ele>
        <time>2021-04-01T09:22:17.349Z</time>
      </trkpt>
      <trkpt lat="43.1337204" lon="-2.7894644">
        <ele>132.542</ele>
        <time>2021-04-01T09:22:17.404Z</time>
      </trkpt>
      <trkpt lat="43.1337199" lon="-2.7894662">
        <ele>132.522</ele>
        <time>2021-04-01T09:22:17.459Z</time>
      </trkpt>
      <trkpt lat="43.1337194" lon="-2.7894682">
        <ele>132.529</ele>
        <time>2021-04-01T09:22:17.514Z</time>
      </trkpt>
      <trkpt lat="43.1337191" lon="-2.7894703">
        <ele>132.543</ele>
        <time>2021-04-01T09:22:17.569Z</time>
      </trkpt>
      <trkpt lat="43.1337185" lon="-2.7894725">
        <ele>132.554</ele>
        <time>2021-04-01T09:22:17.624Z</time>
      </trkpt>
      <trkpt lat="43.1337179" lon="-2.7894745">
        <ele>132.588</ele>
        <time>2021-04-01T09:22:17.679Z</time>
      </trkpt>
      <trkpt lat="43.1337173" lon="-2.7894767">
        <ele>132.627</ele>
        <time>2021-04-01T09:22:17.734Z</time>
      </trkpt>
      <trkpt lat="43.1337169" lon="-2.7894795">
        <ele>132.729</ele>
        <time>2021-04-01T09:22:17.789Z</time>
      </trkpt>
      <trkpt lat="43.1337166" lon="-2.7894819">
        <ele>132.81</ele>
        <time>2021-04-01T09:22:17.844Z</time>
      </trkpt>
      <trkpt lat="43.1337163" lon="-2.7894843">
        <ele>132.828</ele>
        <time>2021-04-01T09:22:17.899Z</time>
      </trkpt>
      <trkpt lat="43.1337157" lon="-2.7894862">
        <ele>132.837</ele>
        <time>2021-04-01T09:22:17.954Z</time>
      </trkpt>
      <trkpt lat="43.133715" lon="-2.7894878">
        <ele>132.841</ele>
        <time>2021-04-01T09:22:18.009Z</time>
      </trkpt>
      <trkpt lat="43.1337143" lon="-2.7894896">
        <ele>132.833</ele>
        <time>2021-04-01T09:22:18.064Z</time>
      </trkpt>
      <trkpt lat="43.1337133" lon="-2.7894913">
        <ele>132.824</ele>
        <time>2021-04-01T09:22:18.119Z</time>
      </trkpt>
      <trkpt lat="43.1337126" lon="-2.7894931">
        <ele>132.845</ele>
        <time>2021-04-01T09:22:18.174Z</time>
      </trkpt>
      <trkpt lat="43.1337124" lon="-2.7894954">
        <ele>132.86</ele>
        <time>2021-04-01T09:22:18.229Z</time>
      </trkpt>
      <trkpt lat="43.1337118" lon="-2.7894972">
        <ele>132.846</ele>
        <time>2021-04-01T09:22:18.284Z</time>
      </trkpt>
      <trkpt lat="43.1337108" lon="-2.7894987">
        <ele>132.837</ele>
        <time>2021-04-01T09:22:18.339Z</time>
      </trkpt>
      <trkpt lat="43.1337099" lon="-2.7895005">
        <ele>132.843</ele>
        <time>2021-04-01T09:22:18.394Z</time>
      </trkpt>
      <trkpt lat="43.1337096" lon="-2.7895023">
        <ele>132.848</ele>
        <time>2021-04-01T09:22:18.449Z</time>
      </trkpt>
      <trkpt lat="43.1337091" lon="-2.7895042">
        <ele>132.825</ele>
        <time>2021-04-01T09:22:18.504Z</time>
      </trkpt>
      <trkpt lat="43.1337084" lon="-2.789506">
        <ele>132.832</ele>
        <time>2021-04-01T09:22:18.559Z</time>
      </trkpt>
      <trkpt lat="43.1337078" lon="-2.7895081">
        <ele>132.839</ele>
        <time>2021-04-01T09:22:18.614Z</time>
      </trkpt>
      <trkpt lat="43.1337072" lon="-2.7895102">
        <ele>132.864</ele>
        <time>2021-04-01T09:22:18.669Z</time>
      </trkpt>
      <trkpt lat="43.1337067" lon="-2.7895118">
        <ele>132.849</ele>
        <time>2021-04-01T09:22:18.724Z</time>
      </trkpt>
      <trkpt lat="43.1337061" lon="-2.7895137">
        <ele>132.854</ele>
        <time>2021-04-01T09:22:18.779Z</time>
      </trkpt>
      <trkpt lat="43.1337057" lon="-2.7895157">
        <ele>132.879</ele>
        <time>2021-04-01T09:22:18.834Z</time>
      </trkpt>
      <trkpt lat="43.1337052" lon="-2.7895179">
        <ele>132.901</ele>
        <time>2021-04-01T09:22:18.889Z</time>
      </trkpt>
      <trkpt lat="43.1337047" lon="-2.7895199">
        <ele>132.897</ele>
        <time>2021-04-01T09:22:18.944Z</time>
      </trkpt>
      <trkpt lat="43.1337045" lon="-2.7895221">
        <ele>132.872</ele>
        <time>2021-04-01T09:22:18.999Z</time>
      </trkpt>
      <trkpt lat="43.1337045" lon="-2.789524">
        <ele>132.858</ele>
        <time>2021-04-01T09:22:19.054Z</time>
      </trkpt>
      <trkpt lat="43.1337046" lon="-2.7895261">
        <ele>132.849</ele>
        <time>2021-04-01T09:22:19.109Z</time>
      </trkpt>
      <trkpt lat="43.1337038" lon="-2.7895275">
        <ele>132.832</ele>
        <time>2021-04-01T09:22:19.164Z</time>
      </trkpt>
      <trkpt lat="43.1337036" lon="-2.7895295">
        <ele>132.826</ele>
        <time>2021-04-01T09:22:19.219Z</time>
      </trkpt>
      <trkpt lat="43.1337036" lon="-2.7895315">
        <ele>132.842</ele>
        <time>2021-04-01T09:22:19.274Z</time>
      </trkpt>
      <trkpt lat="43.1337036" lon="-2.7895338">
        <ele>132.834</ele>
        <time>2021-04-01T09:22:19.329Z</time>
      </trkpt>
      <trkpt lat="43.1337036" lon="-2.789536">
        <ele>132.827</ele>
        <time>2021-04-01T09:22:19.384Z</time>
      </trkpt>
      <trkpt lat="43.1337034" lon="-2.7895378">
        <ele>132.741</ele>
        <time>2021-04-01T09:22:19.439Z</time>
      </trkpt>
      <trkpt lat="43.133703" lon="-2.7895394">
        <ele>132.703</ele>
        <time>2021-04-01T09:22:19.494Z</time>
      </trkpt>
      <trkpt lat="43.1337027" lon="-2.7895413">
        <ele>132.681</ele>
        <time>2021-04-01T09:22:19.549Z</time>
      </trkpt>
      <trkpt lat="43.1337027" lon="-2.7895433">
        <ele>132.689</ele>
        <time>2021-04-01T09:22:19.604Z</time>
      </trkpt>
      <trkpt lat="43.1337025" lon="-2.7895451">
        <ele>132.667</ele>
        <time>2021-04-01T09:22:19.659Z</time>
      </trkpt>
      <trkpt lat="43.1337023" lon="-2.789547">
        <ele>132.679</ele>
        <time>2021-04-01T09:22:19.714Z</time>
      </trkpt>
      <trkpt lat="43.1337021" lon="-2.7895489">
        <ele>132.665</ele>
        <time>2021-04-01T09:22:19.769Z</time>
      </trkpt>
      <trkpt lat="43.1337017" lon="-2.7895508">
        <ele>132.656</ele>
        <time>2021-04-01T09:22:19.824Z</time>
      </trkpt>
      <trkpt lat="43.1337013" lon="-2.7895526">
        <ele>132.635</ele>
        <time>2021-04-01T09:22:19.879Z</time>
      </trkpt>
      <trkpt lat="43.1337009" lon="-2.7895544">
        <ele>132.616</ele>
        <time>2021-04-01T09:22:19.934Z</time>
      </trkpt>
      <trkpt lat="43.1337004" lon="-2.789556">
        <ele>132.587</ele>
        <time>2021-04-01T09:22:19.989Z</time>
      </trkpt>
      <trkpt lat="43.1337001" lon="-2.7895581">
        <ele>132.609</ele>
        <time>2021-04-01T09:22:20.044Z</time>
      </trkpt>
      <trkpt lat="43.1336995" lon="-2.7895601">
        <ele>132.619</ele>
        <time>2021-04-01T09:22:20.099Z</time>
      </trkpt>
      <trkpt lat="43.133699" lon="-2.7895624">
        <ele>132.643</ele>
        <time>2021-04-01T09:22:20.154Z</time>
      </trkpt>
      <trkpt lat="43.1336989" lon="-2.7895648">
        <ele>132.671</ele>
        <time>2021-04-01T09:22:20.209Z</time>
      </trkpt>
      <trkpt lat="43.1336988" lon="-2.7895671">
        <ele>132.713</ele>
        <time>2021-04-01T09:22:20.264Z</time>
      </trkpt>
      <trkpt lat="43.1336981" lon="-2.7895692">
        <ele>132.743</ele>
        <time>2021-04-01T09:22:20.319Z</time>
      </trkpt>
      <trkpt lat="43.1336977" lon="-2.7895714">
        <ele>132.76</ele>
        <time>2021-04-01T09:22:20.374Z</time>
      </trkpt>
      <trkpt lat="43.1336971" lon="-2.7895733">
        <ele>132.774</ele>
        <time>2021-04-01T09:22:20.429Z</time>
      </trkpt>
      <trkpt lat="43.1336968" lon="-2.7895751">
        <ele>132.787</ele>
        <time>2021-04-01T09:22:20.484Z</time>
      </trkpt>
      <trkpt lat="43.1336964" lon="-2.7895768">
        <ele>132.748</ele>
        <time>2021-04-01T09:22:20.539Z</time>
      </trkpt>
      <trkpt lat="43.1336961" lon="-2.789579">
        <ele>132.761</ele>
        <time>2021-04-01T09:22:20.594Z</time>
      </trkpt>
      <trkpt lat="43.1336957" lon="-2.7895813">
        <ele>132.788</ele>
        <time>2021-04-01T09:22:20.649Z</time>
      </trkpt>
      <trkpt lat="43.1336954" lon="-2.7895833">
        <ele>132.82</ele>
        <time>2021-04-01T09:22:20.704Z</time>
      </trkpt>
      <trkpt lat="43.133695" lon="-2.7895854">
        <ele>132.826</ele>
        <time>2021-04-01T09:22:20.759Z</time>
      </trkpt>
      <trkpt lat="43.1336946" lon="-2.7895873">
        <ele>132.805</ele>
        <time>2021-04-01T09:22:20.814Z</time>
      </trkpt>
      <trkpt lat="43.1336944" lon="-2.7895893">
        <ele>132.832</ele>
        <time>2021-04-01T09:22:20.869Z</time>
      </trkpt>
      <trkpt lat="43.1336941" lon="-2.789591">
        <ele>132.815</ele>
        <time>2021-04-01T09:22:20.924Z</time>
      </trkpt>
      <trkpt lat="43.1336937" lon="-2.7895931">
        <ele>132.827</ele>
        <time>2021-04-01T09:22:20.979Z</time>
      </trkpt>
      <trkpt lat="43.1336931" lon="-2.7895951">
        <ele>132.823</ele>
        <time>2021-04-01T09:22:21.034Z</time>
      </trkpt>
      <trkpt lat="43.1336927" lon="-2.789597">
        <ele>132.85</ele>
        <time>2021-04-01T09:22:21.089Z</time>
      </trkpt>
      <trkpt lat="43.1336925" lon="-2.789599">
        <ele>132.873</ele>
        <time>2021-04-01T09:22:21.144Z</time>
      </trkpt>
      <trkpt lat="43.1336921" lon="-2.7896013">
        <ele>132.917</ele>
        <time>2021-04-01T09:22:21.199Z</time>
      </trkpt>
      <trkpt lat="43.1336918" lon="-2.789604">
        <ele>132.943</ele>
        <time>2021-04-01T09:22:21.254Z</time>
      </trkpt>
      <trkpt lat="43.133691" lon="-2.7896057">
        <ele>132.981</ele>
        <time>2021-04-01T09:22:21.309Z</time>
      </trkpt>
      <trkpt lat="43.1336909" lon="-2.7896078">
        <ele>132.996</ele>
        <time>2021-04-01T09:22:21.360Z</time>
      </trkpt>
      <trkpt lat="43.1336909" lon="-2.7896098">
        <ele>132.994</ele>
        <time>2021-04-01T09:22:21.412Z</time>
      </trkpt>
      <trkpt lat="43.1336909" lon="-2.7896119">
        <ele>133.009</ele>
        <time>2021-04-01T09:22:21.464Z</time>
      </trkpt>
      <trkpt lat="43.1336907" lon="-2.7896142">
        <ele>133.052</ele>
        <time>2021-04-01T09:22:21.516Z</time>
      </trkpt>
      <trkpt lat="43.13369" lon="-2.7896167">
        <ele>133.117</ele>
        <time>2021-04-01T09:22:21.568Z</time>
      </trkpt>
      <trkpt lat="43.1336895" lon="-2.7896188">
        <ele>133.114</ele>
        <time>2021-04-01T09:22:21.620Z</time>
      </trkpt>
      <trkpt lat="43.1336892" lon="-2.7896211">
        <ele>133.135</ele>
        <time>2021-04-01T09:22:21.672Z</time>
      </trkpt>
      <trkpt lat="43.1336892" lon="-2.7896232">
        <ele>133.145</ele>
        <time>2021-04-01T09:22:21.724Z</time>
      </trkpt>
      <trkpt lat="43.1336888" lon="-2.7896254">
        <ele>133.202</ele>
        <time>2021-04-01T09:22:21.776Z</time>
      </trkpt>
      <trkpt lat="43.1336884" lon="-2.7896274">
        <ele>133.225</ele>
        <time>2021-04-01T09:22:21.828Z</time>
      </trkpt>
      <trkpt lat="43.1336877" lon="-2.7896293">
        <ele>133.214</ele>
        <time>2021-04-01T09:22:21.880Z</time>
      </trkpt>
      <trkpt lat="43.1336872" lon="-2.7896314">
        <ele>133.244</ele>
        <time>2021-04-01T09:22:21.932Z</time>
      </trkpt>
      <trkpt lat="43.1336864" lon="-2.7896332">
        <ele>133.259</ele>
        <time>2021-04-01T09:22:21.984Z</time>
      </trkpt>
      <trkpt lat="43.133686" lon="-2.7896356">
        <ele>133.287</ele>
        <time>2021-04-01T09:22:22.036Z</time>
      </trkpt>
      <trkpt lat="43.1336857" lon="-2.7896377">
        <ele>133.308</ele>
        <time>2021-04-01T09:22:22.088Z</time>
      </trkpt>
      <trkpt lat="43.1336852" lon="-2.7896396">
        <ele>133.298</ele>
        <time>2021-04-01T09:22:22.140Z</time>
      </trkpt>
      <trkpt lat="43.1336851" lon="-2.7896418">
        <ele>133.311</ele>
        <time>2021-04-01T09:22:22.192Z</time>
      </trkpt>
      <trkpt lat="43.1336852" lon="-2.789644">
        <ele>133.324</ele>
        <time>2021-04-01T09:22:22.244Z</time>
      </trkpt>
      <trkpt lat="43.1336848" lon="-2.7896462">
        <ele>133.368</ele>
        <time>2021-04-01T09:22:22.296Z</time>
      </trkpt>
      <trkpt lat="43.1336846" lon="-2.7896485">
        <ele>133.426</ele>
        <time>2021-04-01T09:22:22.348Z</time>
      </trkpt>
      <trkpt lat="43.1336843" lon="-2.7896505">
        <ele>133.446</ele>
        <time>2021-04-01T09:22:22.400Z</time>
      </trkpt>
      <trkpt lat="43.1336837" lon="-2.7896525">
        <ele>133.435</ele>
        <time>2021-04-01T09:22:22.452Z</time>
      </trkpt>
      <trkpt lat="43.1336834" lon="-2.7896546">
        <ele>133.453</ele>
        <time>2021-04-01T09:22:22.504Z</time>
      </trkpt>
      <trkpt lat="43.1336832" lon="-2.7896564">
        <ele>133.46</ele>
        <time>2021-04-01T09:22:22.556Z</time>
      </trkpt>
      <trkpt lat="43.1336832" lon="-2.7896583">
        <ele>133.505</ele>
        <time>2021-04-01T09:22:22.608Z</time>
      </trkpt>
      <trkpt lat="43.133683" lon="-2.7896607">
        <ele>133.528</ele>
        <time>2021-04-01T09:22:22.660Z</time>
      </trkpt>
      <trkpt lat="43.1336824" lon="-2.7896625">
        <ele>133.503</ele>
        <time>2021-04-01T09:22:22.712Z</time>
      </trkpt>
      <trkpt lat="43.1336822" lon="-2.7896645">
        <ele>133.54</ele>
        <time>2021-04-01T09:22:22.765Z</time>
      </trkpt>
      <trkpt lat="43.1336819" lon="-2.7896665">
        <ele>133.56</ele>
        <time>2021-04-01T09:22:22.817Z</time>
      </trkpt>
      <trkpt lat="43.1336817" lon="-2.7896691">
        <ele>133.56</ele>
        <time>2021-04-01T09:22:22.869Z</time>
      </trkpt>
      <trkpt lat="43.1336812" lon="-2.789671">
        <ele>133.575</ele>
        <time>2021-04-01T09:22:22.921Z</time>
      </trkpt>
      <trkpt lat="43.133681" lon="-2.7896729">
        <ele>133.587</ele>
        <time>2021-04-01T09:22:22.973Z</time>
      </trkpt>
      <trkpt lat="43.1336807" lon="-2.789675">
        <ele>133.577</ele>
        <time>2021-04-01T09:22:23.025Z</time>
      </trkpt>
      <trkpt lat="43.1336804" lon="-2.7896765">
        <ele>133.563</ele>
        <time>2021-04-01T09:22:23.077Z</time>
      </trkpt>
      <trkpt lat="43.13368" lon="-2.7896786">
        <ele>133.55</ele>
        <time>2021-04-01T09:22:23.129Z</time>
      </trkpt>
      <trkpt lat="43.1336799" lon="-2.7896808">
        <ele>133.599</ele>
        <time>2021-04-01T09:22:23.181Z</time>
      </trkpt>
      <trkpt lat="43.1336795" lon="-2.7896831">
        <ele>133.631</ele>
        <time>2021-04-01T09:22:23.234Z</time>
      </trkpt>
      <trkpt lat="43.1336792" lon="-2.7896857">
        <ele>133.696</ele>
        <time>2021-04-01T09:22:23.292Z</time>
      </trkpt>
      <trkpt lat="43.1336789" lon="-2.7896883">
        <ele>133.767</ele>
        <time>2021-04-01T09:22:23.350Z</time>
      </trkpt>
      <trkpt lat="43.1336789" lon="-2.7896908">
        <ele>133.81</ele>
        <time>2021-04-01T09:22:23.408Z</time>
      </trkpt>
      <trkpt lat="43.1336787" lon="-2.789693">
        <ele>133.858</ele>
        <time>2021-04-01T09:22:23.466Z</time>
      </trkpt>
      <trkpt lat="43.1336783" lon="-2.7896952">
        <ele>133.898</ele>
        <time>2021-04-01T09:22:23.525Z</time>
      </trkpt>
      <trkpt lat="43.1336783" lon="-2.7896977">
        <ele>133.937</ele>
        <time>2021-04-01T09:22:23.583Z</time>
      </trkpt>
      <trkpt lat="43.1336782" lon="-2.7896999">
        <ele>133.946</ele>
        <time>2021-04-01T09:22:23.641Z</time>
      </trkpt>
      <trkpt lat="43.133678" lon="-2.7897021">
        <ele>133.968</ele>
        <time>2021-04-01T09:22:23.699Z</time>
      </trkpt>
      <trkpt lat="43.1336779" lon="-2.7897043">
        <ele>133.967</ele>
        <time>2021-04-01T09:22:23.758Z</time>
      </trkpt>
      <trkpt lat="43.1336776" lon="-2.7897065">
        <ele>133.972</ele>
        <time>2021-04-01T09:22:23.816Z</time>
      </trkpt>
      <trkpt lat="43.1336775" lon="-2.7897092">
        <ele>134.032</ele>
        <time>2021-04-01T09:22:23.874Z</time>
      </trkpt>
      <trkpt lat="43.133677" lon="-2.7897107">
        <ele>134.001</ele>
        <time>2021-04-01T09:22:23.932Z</time>
      </trkpt>
      <trkpt lat="43.133677" lon="-2.789713">
        <ele>134.057</ele>
        <time>2021-04-01T09:22:23.991Z</time>
      </trkpt>
      <trkpt lat="43.1336767" lon="-2.7897155">
        <ele>134.12</ele>
        <time>2021-04-01T09:22:24.049Z</time>
      </trkpt>
      <trkpt lat="43.1336764" lon="-2.789718">
        <ele>134.176</ele>
        <time>2021-04-01T09:22:24.107Z</time>
      </trkpt>
      <trkpt lat="43.133676" lon="-2.7897204">
        <ele>134.205</ele>
        <time>2021-04-01T09:22:24.165Z</time>
      </trkpt>
      <trkpt lat="43.1336758" lon="-2.7897227">
        <ele>134.233</ele>
        <time>2021-04-01T09:22:24.224Z</time>
      </trkpt>
      <trkpt lat="43.1336757" lon="-2.7897251">
        <ele>134.274</ele>
        <time>2021-04-01T09:22:24.279Z</time>
      </trkpt>
      <trkpt lat="43.1336755" lon="-2.7897275">
        <ele>134.279</ele>
        <time>2021-04-01T09:22:24.334Z</time>
      </trkpt>
      <trkpt lat="43.1336751" lon="-2.7897297">
        <ele>134.309</ele>
        <time>2021-04-01T09:22:24.389Z</time>
      </trkpt>
      <trkpt lat="43.1336749" lon="-2.7897318">
        <ele>134.353</ele>
        <time>2021-04-01T09:22:24.444Z</time>
      </trkpt>
      <trkpt lat="43.1336749" lon="-2.7897343">
        <ele>134.393</ele>
        <time>2021-04-01T09:22:24.499Z</time>
      </trkpt>
      <trkpt lat="43.1336747" lon="-2.7897364">
        <ele>134.396</ele>
        <time>2021-04-01T09:22:24.554Z</time>
      </trkpt>
      <trkpt lat="43.1336744" lon="-2.789739">
        <ele>134.466</ele>
        <time>2021-04-01T09:22:24.609Z</time>
      </trkpt>
      <trkpt lat="43.1336741" lon="-2.7897415">
        <ele>134.536</ele>
        <time>2021-04-01T09:22:24.664Z</time>
      </trkpt>
      <trkpt lat="43.1336737" lon="-2.789744">
        <ele>134.584</ele>
        <time>2021-04-01T09:22:24.719Z</time>
      </trkpt>
      <trkpt lat="43.1336731" lon="-2.7897469">
        <ele>134.669</ele>
        <time>2021-04-01T09:22:24.774Z</time>
      </trkpt>
      <trkpt lat="43.1336731" lon="-2.7897492">
        <ele>134.695</ele>
        <time>2021-04-01T09:22:24.829Z</time>
      </trkpt>
      <trkpt lat="43.1336732" lon="-2.7897515">
        <ele>134.719</ele>
        <time>2021-04-01T09:22:24.884Z</time>
      </trkpt>
      <trkpt lat="43.133673" lon="-2.7897537">
        <ele>134.738</ele>
        <time>2021-04-01T09:22:24.939Z</time>
      </trkpt>
      <trkpt lat="43.1336729" lon="-2.789756">
        <ele>134.772</ele>
        <time>2021-04-01T09:22:24.994Z</time>
      </trkpt>
      <trkpt lat="43.1336724" lon="-2.789758">
        <ele>134.764</ele>
        <time>2021-04-01T09:22:25.049Z</time>
      </trkpt>
      <trkpt lat="43.133672" lon="-2.7897601">
        <ele>134.731</ele>
        <time>2021-04-01T09:22:25.104Z</time>
      </trkpt>
      <trkpt lat="43.1336718" lon="-2.7897622">
        <ele>134.744</ele>
        <time>2021-04-01T09:22:25.159Z</time>
      </trkpt>
      <trkpt lat="43.1336714" lon="-2.7897641">
        <ele>134.717</ele>
        <time>2021-04-01T09:22:25.214Z</time>
      </trkpt>
      <trkpt lat="43.1336711" lon="-2.789766">
        <ele>134.708</ele>
        <time>2021-04-01T09:22:25.269Z</time>
      </trkpt>
      <trkpt lat="43.1336707" lon="-2.7897672">
        <ele>134.639</ele>
        <time>2021-04-01T09:22:25.324Z</time>
      </trkpt>
      <trkpt lat="43.1336702" lon="-2.789769">
        <ele>134.625</ele>
        <time>2021-04-01T09:22:25.379Z</time>
      </trkpt>
      <trkpt lat="43.1336699" lon="-2.789771">
        <ele>134.59</ele>
        <time>2021-04-01T09:22:25.434Z</time>
      </trkpt>
      <trkpt lat="43.1336697" lon="-2.7897732">
        <ele>134.62</ele>
        <time>2021-04-01T09:22:25.489Z</time>
      </trkpt>
      <trkpt lat="43.1336695" lon="-2.7897751">
        <ele>134.624</ele>
        <time>2021-04-01T09:22:25.544Z</time>
      </trkpt>
      <trkpt lat="43.1336691" lon="-2.7897769">
        <ele>134.62</ele>
        <time>2021-04-01T09:22:25.599Z</time>
      </trkpt>
      <trkpt lat="43.1336686" lon="-2.7897791">
        <ele>134.621</ele>
        <time>2021-04-01T09:22:25.654Z</time>
      </trkpt>
      <trkpt lat="43.1336683" lon="-2.789781">
        <ele>134.612</ele>
        <time>2021-04-01T09:22:25.709Z</time>
      </trkpt>
      <trkpt lat="43.1336681" lon="-2.7897833">
        <ele>134.649</ele>
        <time>2021-04-01T09:22:25.764Z</time>
      </trkpt>
      <trkpt lat="43.1336679" lon="-2.7897853">
        <ele>134.66</ele>
        <time>2021-04-01T09:22:25.819Z</time>
      </trkpt>
      <trkpt lat="43.1336675" lon="-2.7897875">
        <ele>134.683</ele>
        <time>2021-04-01T09:22:25.874Z</time>
      </trkpt>
      <trkpt lat="43.133667" lon="-2.7897897">
        <ele>134.681</ele>
        <time>2021-04-01T09:22:25.929Z</time>
      </trkpt>
      <trkpt lat="43.133667" lon="-2.7897923">
        <ele>134.747</ele>
        <time>2021-04-01T09:22:25.984Z</time>
      </trkpt>
      <trkpt lat="43.1336669" lon="-2.7897951">
        <ele>134.797</ele>
        <time>2021-04-01T09:22:26.039Z</time>
      </trkpt>
      <trkpt lat="43.1336667" lon="-2.7897972">
        <ele>134.817</ele>
        <time>2021-04-01T09:22:26.094Z</time>
      </trkpt>
      <trkpt lat="43.1336666" lon="-2.7897996">
        <ele>134.859</ele>
        <time>2021-04-01T09:22:26.149Z</time>
      </trkpt>
      <trkpt lat="43.1336666" lon="-2.789802">
        <ele>134.916</ele>
        <time>2021-04-01T09:22:26.204Z</time>
      </trkpt>
      <trkpt lat="43.1336664" lon="-2.7898044">
        <ele>134.952</ele>
        <time>2021-04-01T09:22:26.259Z</time>
      </trkpt>
      <trkpt lat="43.1336664" lon="-2.7898067">
        <ele>134.947</ele>
        <time>2021-04-01T09:22:26.314Z</time>
      </trkpt>
      <trkpt lat="43.1336661" lon="-2.7898092">
        <ele>134.975</ele>
        <time>2021-04-01T09:22:26.369Z</time>
      </trkpt>
      <trkpt lat="43.1336661" lon="-2.7898114">
        <ele>134.982</ele>
        <time>2021-04-01T09:22:26.424Z</time>
      </trkpt>
      <trkpt lat="43.133666" lon="-2.7898136">
        <ele>134.999</ele>
        <time>2021-04-01T09:22:26.479Z</time>
      </trkpt>
      <trkpt lat="43.1336659" lon="-2.789816">
        <ele>135.029</ele>
        <time>2021-04-01T09:22:26.534Z</time>
      </trkpt>
      <trkpt lat="43.1336656" lon="-2.7898181">
        <ele>135.035</ele>
        <time>2021-04-01T09:22:26.589Z</time>
      </trkpt>
      <trkpt lat="43.1336653" lon="-2.7898204">
        <ele>135.074</ele>
        <time>2021-04-01T09:22:26.644Z</time>
      </trkpt>
      <trkpt lat="43.1336649" lon="-2.7898227">
        <ele>135.105</ele>
        <time>2021-04-01T09:22:26.699Z</time>
      </trkpt>
      <trkpt lat="43.1336648" lon="-2.7898249">
        <ele>135.114</ele>
        <time>2021-04-01T09:22:26.754Z</time>
      </trkpt>
      <trkpt lat="43.1336645" lon="-2.7898271">
        <ele>135.105</ele>
        <time>2021-04-01T09:22:26.809Z</time>
      </trkpt>
      <trkpt lat="43.1336644" lon="-2.7898292">
        <ele>135.104</ele>
        <time>2021-04-01T09:22:26.864Z</time>
      </trkpt>
      <trkpt lat="43.1336641" lon="-2.7898316">
        <ele>135.12</ele>
        <time>2021-04-01T09:22:26.919Z</time>
      </trkpt>
      <trkpt lat="43.1336638" lon="-2.7898337">
        <ele>135.119</ele>
        <time>2021-04-01T09:22:26.974Z</time>
      </trkpt>
      <trkpt lat="43.1336637" lon="-2.7898361">
        <ele>135.135</ele>
        <time>2021-04-01T09:22:27.029Z</time>
      </trkpt>
      <trkpt lat="43.1336637" lon="-2.7898384">
        <ele>135.154</ele>
        <time>2021-04-01T09:22:27.084Z</time>
      </trkpt>
      <trkpt lat="43.1336636" lon="-2.7898401">
        <ele>135.092</ele>
        <time>2021-04-01T09:22:27.139Z</time>
      </trkpt>
      <trkpt lat="43.1336634" lon="-2.7898419">
        <ele>135.051</ele>
        <time>2021-04-01T09:22:27.194Z</time>
      </trkpt>
      <trkpt lat="43.1336632" lon="-2.7898445">
        <ele>135.082</ele>
        <time>2021-04-01T09:22:27.249Z</time>
      </trkpt>
      <trkpt lat="43.1336629" lon="-2.7898462">
        <ele>135.031</ele>
        <time>2021-04-01T09:22:27.304Z</time>
      </trkpt>
      <trkpt lat="43.1336628" lon="-2.7898481">
        <ele>134.997</ele>
        <time>2021-04-01T09:22:27.359Z</time>
      </trkpt>
      <trkpt lat="43.1336625" lon="-2.7898496">
        <ele>134.87</ele>
        <time>2021-04-01T09:22:27.414Z</time>
      </trkpt>
      <trkpt lat="43.1336624" lon="-2.7898518">
        <ele>134.902</ele>
        <time>2021-04-01T09:22:27.469Z</time>
      </trkpt>
      <trkpt lat="43.133662" lon="-2.7898531">
        <ele>134.827</ele>
        <time>2021-04-01T09:22:27.524Z</time>
      </trkpt>
      <trkpt lat="43.1336618" lon="-2.789855">
        <ele>134.79</ele>
        <time>2021-04-01T09:22:27.579Z</time>
      </trkpt>
      <trkpt lat="43.1336615" lon="-2.7898572">
        <ele>134.777</ele>
        <time>2021-04-01T09:22:27.634Z</time>
      </trkpt>
      <trkpt lat="43.1336613" lon="-2.7898595">
        <ele>134.802</ele>
        <time>2021-04-01T09:22:27.689Z</time>
      </trkpt>
      <trkpt lat="43.1336611" lon="-2.7898621">
        <ele>134.839</ele>
        <time>2021-04-01T09:22:27.744Z</time>
      </trkpt>
      <trkpt lat="43.133661" lon="-2.7898649">
        <ele>134.898</ele>
        <time>2021-04-01T09:22:27.799Z</time>
      </trkpt>
      <trkpt lat="43.1336613" lon="-2.7898675">
        <ele>134.952</ele>
        <time>2021-04-01T09:22:27.854Z</time>
      </trkpt>
      <trkpt lat="43.1336617" lon="-2.7898697">
        <ele>134.996</ele>
        <time>2021-04-01T09:22:27.909Z</time>
      </trkpt>
      <trkpt lat="43.1336615" lon="-2.789872">
        <ele>135.001</ele>
        <time>2021-04-01T09:22:27.964Z</time>
      </trkpt>
      <trkpt lat="43.1336613" lon="-2.7898746">
        <ele>135.034</ele>
        <time>2021-04-01T09:22:28.019Z</time>
      </trkpt>
      <trkpt lat="43.1336614" lon="-2.789877">
        <ele>135.032</ele>
        <time>2021-04-01T09:22:28.074Z</time>
      </trkpt>
      <trkpt lat="43.1336615" lon="-2.7898794">
        <ele>135.072</ele>
        <time>2021-04-01T09:22:28.129Z</time>
      </trkpt>
      <trkpt lat="43.1336615" lon="-2.7898817">
        <ele>135.088</ele>
        <time>2021-04-01T09:22:28.184Z</time>
      </trkpt>
      <trkpt lat="43.1336615" lon="-2.7898839">
        <ele>135.083</ele>
        <time>2021-04-01T09:22:28.239Z</time>
      </trkpt>
      <trkpt lat="43.1336615" lon="-2.7898862">
        <ele>135.087</ele>
        <time>2021-04-01T09:22:28.294Z</time>
      </trkpt>
      <trkpt lat="43.1336614" lon="-2.7898882">
        <ele>135.092</ele>
        <time>2021-04-01T09:22:28.349Z</time>
      </trkpt>
      <trkpt lat="43.1336613" lon="-2.7898905">
        <ele>135.115</ele>
        <time>2021-04-01T09:22:28.404Z</time>
      </trkpt>
      <trkpt lat="43.1336614" lon="-2.7898928">
        <ele>135.141</ele>
        <time>2021-04-01T09:22:28.459Z</time>
      </trkpt>
      <trkpt lat="43.1336614" lon="-2.7898949">
        <ele>135.129</ele>
        <time>2021-04-01T09:22:28.514Z</time>
      </trkpt>
      <trkpt lat="43.1336616" lon="-2.789897">
        <ele>135.12</ele>
        <time>2021-04-01T09:22:28.569Z</time>
      </trkpt>
      <trkpt lat="43.1336617" lon="-2.7898992">
        <ele>135.129</ele>
        <time>2021-04-01T09:22:28.624Z</time>
      </trkpt>
      <trkpt lat="43.1336615" lon="-2.7899016">
        <ele>135.148</ele>
        <time>2021-04-01T09:22:28.679Z</time>
      </trkpt>
      <trkpt lat="43.1336618" lon="-2.7899041">
        <ele>135.187</ele>
        <time>2021-04-01T09:22:28.734Z</time>
      </trkpt>
      <trkpt lat="43.1336619" lon="-2.7899063">
        <ele>135.206</ele>
        <time>2021-04-01T09:22:28.789Z</time>
      </trkpt>
      <trkpt lat="43.1336619" lon="-2.7899086">
        <ele>135.238</ele>
        <time>2021-04-01T09:22:28.844Z</time>
      </trkpt>
      <trkpt lat="43.1336621" lon="-2.789911">
        <ele>135.262</ele>
        <time>2021-04-01T09:22:28.899Z</time>
      </trkpt>
      <trkpt lat="43.1336625" lon="-2.7899135">
        <ele>135.289</ele>
        <time>2021-04-01T09:22:28.954Z</time>
      </trkpt>
      <trkpt lat="43.1336628" lon="-2.789916">
        <ele>135.337</ele>
        <time>2021-04-01T09:22:29.009Z</time>
      </trkpt>
      <trkpt lat="43.1336627" lon="-2.7899184">
        <ele>135.345</ele>
        <time>2021-04-01T09:22:29.064Z</time>
      </trkpt>
      <trkpt lat="43.1336627" lon="-2.789921">
        <ele>135.352</ele>
        <time>2021-04-01T09:22:29.119Z</time>
      </trkpt>
      <trkpt lat="43.1336628" lon="-2.7899236">
        <ele>135.409</ele>
        <time>2021-04-01T09:22:29.174Z</time>
      </trkpt>
      <trkpt lat="43.1336632" lon="-2.7899261">
        <ele>135.465</ele>
        <time>2021-04-01T09:22:29.229Z</time>
      </trkpt>
      <trkpt lat="43.1336633" lon="-2.7899284">
        <ele>135.476</ele>
        <time>2021-04-01T09:22:29.281Z</time>
      </trkpt>
      <trkpt lat="43.1336635" lon="-2.7899309">
        <ele>135.504</ele>
        <time>2021-04-01T09:22:29.333Z</time>
      </trkpt>
      <trkpt lat="43.1336634" lon="-2.7899332">
        <ele>135.525</ele>
        <time>2021-04-01T09:22:29.385Z</time>
      </trkpt>
      <trkpt lat="43.1336635" lon="-2.7899354">
        <ele>135.547</ele>
        <time>2021-04-01T09:22:29.437Z</time>
      </trkpt>
      <trkpt lat="43.1336638" lon="-2.789938">
        <ele>135.578</ele>
        <time>2021-04-01T09:22:29.489Z</time>
      </trkpt>
      <trkpt lat="43.133664" lon="-2.7899404">
        <ele>135.601</ele>
        <time>2021-04-01T09:22:29.541Z</time>
      </trkpt>
      <trkpt lat="43.1336642" lon="-2.7899428">
        <ele>135.634</ele>
        <time>2021-04-01T09:22:29.593Z</time>
      </trkpt>
      <trkpt lat="43.1336644" lon="-2.7899453">
        <ele>135.685</ele>
        <time>2021-04-01T09:22:29.645Z</time>
      </trkpt>
      <trkpt lat="43.1336646" lon="-2.7899478">
        <ele>135.731</ele>
        <time>2021-04-01T09:22:29.697Z</time>
      </trkpt>
      <trkpt lat="43.1336646" lon="-2.7899501">
        <ele>135.759</ele>
        <time>2021-04-01T09:22:29.750Z</time>
      </trkpt>
      <trkpt lat="43.1336646" lon="-2.7899522">
        <ele>135.75</ele>
        <time>2021-04-01T09:22:29.802Z</time>
      </trkpt>
      <trkpt lat="43.1336648" lon="-2.7899546">
        <ele>135.786</ele>
        <time>2021-04-01T09:22:29.854Z</time>
      </trkpt>
      <trkpt lat="43.1336648" lon="-2.7899569">
        <ele>135.774</ele>
        <time>2021-04-01T09:22:29.906Z</time>
      </trkpt>
      <trkpt lat="43.1336648" lon="-2.7899593">
        <ele>135.778</ele>
        <time>2021-04-01T09:22:29.958Z</time>
      </trkpt>
      <trkpt lat="43.1336649" lon="-2.7899614">
        <ele>135.799</ele>
        <time>2021-04-01T09:22:30.010Z</time>
      </trkpt>
      <trkpt lat="43.1336651" lon="-2.7899636">
        <ele>135.839</ele>
        <time>2021-04-01T09:22:30.062Z</time>
      </trkpt>
      <trkpt lat="43.1336651" lon="-2.7899659">
        <ele>135.866</ele>
        <time>2021-04-01T09:22:30.114Z</time>
      </trkpt>
      <trkpt lat="43.1336651" lon="-2.7899684">
        <ele>135.91</ele>
        <time>2021-04-01T09:22:30.166Z</time>
      </trkpt>
      <trkpt lat="43.1336651" lon="-2.789971">
        <ele>135.951</ele>
        <time>2021-04-01T09:22:30.219Z</time>
      </trkpt>
      <trkpt lat="43.1336654" lon="-2.7899734">
        <ele>135.987</ele>
        <time>2021-04-01T09:22:30.280Z</time>
      </trkpt>
      <trkpt lat="43.1336655" lon="-2.7899755">
        <ele>135.976</ele>
        <time>2021-04-01T09:22:30.341Z</time>
      </trkpt>
      <trkpt lat="43.1336655" lon="-2.7899779">
        <ele>136.006</ele>
        <time>2021-04-01T09:22:30.403Z</time>
      </trkpt>
      <trkpt lat="43.1336657" lon="-2.7899806">
        <ele>136.069</ele>
        <time>2021-04-01T09:22:30.464Z</time>
      </trkpt>
      <trkpt lat="43.133666" lon="-2.7899829">
        <ele>136.123</ele>
        <time>2021-04-01T09:22:30.526Z</time>
      </trkpt>
      <trkpt lat="43.133666" lon="-2.7899849">
        <ele>136.127</ele>
        <time>2021-04-01T09:22:30.587Z</time>
      </trkpt>
      <trkpt lat="43.133666" lon="-2.7899871">
        <ele>136.109</ele>
        <time>2021-04-01T09:22:30.649Z</time>
      </trkpt>
      <trkpt lat="43.133666" lon="-2.7899895">
        <ele>136.115</ele>
        <time>2021-04-01T09:22:30.710Z</time>
      </trkpt>
      <trkpt lat="43.133666" lon="-2.7899919">
        <ele>136.135</ele>
        <time>2021-04-01T09:22:30.772Z</time>
      </trkpt>
      <trkpt lat="43.1336662" lon="-2.7899943">
        <ele>136.169</ele>
        <time>2021-04-01T09:22:30.833Z</time>
      </trkpt>
      <trkpt lat="43.1336664" lon="-2.7899967">
        <ele>136.189</ele>
        <time>2021-04-01T09:22:30.895Z</time>
      </trkpt>
      <trkpt lat="43.1336664" lon="-2.7899987">
        <ele>136.187</ele>
        <time>2021-04-01T09:22:30.956Z</time>
      </trkpt>
      <trkpt lat="43.1336665" lon="-2.790001">
        <ele>136.222</ele>
        <time>2021-04-01T09:22:31.018Z</time>
      </trkpt>
      <trkpt lat="43.1336666" lon="-2.7900034">
        <ele>136.247</ele>
        <time>2021-04-01T09:22:31.079Z</time>
      </trkpt>
      <trkpt lat="43.1336667" lon="-2.7900056">
        <ele>136.275</ele>
        <time>2021-04-01T09:22:31.141Z</time>
      </trkpt>
      <trkpt lat="43.1336669" lon="-2.7900079">
        <ele>136.314</ele>
        <time>2021-04-01T09:22:31.202Z</time>
      </trkpt>
      <trkpt lat="43.133667" lon="-2.7900104">
        <ele>136.326</ele>
        <time>2021-04-01T09:22:31.264Z</time>
      </trkpt>
      <trkpt lat="43.1336671" lon="-2.7900126">
        <ele>136.329</ele>
        <time>2021-04-01T09:22:31.316Z</time>
      </trkpt>
      <trkpt lat="43.1336672" lon="-2.790015">
        <ele>136.349</ele>
        <time>2021-04-01T09:22:31.368Z</time>
      </trkpt>
      <trkpt lat="43.1336673" lon="-2.7900173">
        <ele>136.393</ele>
        <time>2021-04-01T09:22:31.420Z</time>
      </trkpt>
      <trkpt lat="43.1336674" lon="-2.7900196">
        <ele>136.428</ele>
        <time>2021-04-01T09:22:31.472Z</time>
      </trkpt>
      <trkpt lat="43.1336674" lon="-2.7900218">
        <ele>136.438</ele>
        <time>2021-04-01T09:22:31.524Z</time>
      </trkpt>
      <trkpt lat="43.1336675" lon="-2.7900241">
        <ele>136.461</ele>
        <time>2021-04-01T09:22:31.576Z</time>
      </trkpt>
      <trkpt lat="43.1336676" lon="-2.7900265">
        <ele>136.49</ele>
        <time>2021-04-01T09:22:31.628Z</time>
      </trkpt>
      <trkpt lat="43.1336677" lon="-2.7900288">
        <ele>136.501</ele>
        <time>2021-04-01T09:22:31.680Z</time>
      </trkpt>
      <trkpt lat="43.1336678" lon="-2.7900313">
        <ele>136.545</ele>
        <time>2021-04-01T09:22:31.732Z</time>
      </trkpt>
      <trkpt lat="43.133668" lon="-2.7900337">
        <ele>136.578</ele>
        <time>2021-04-01T09:22:31.785Z</time>
      </trkpt>
      <trkpt lat="43.133668" lon="-2.7900359">
        <ele>136.605</ele>
        <time>2021-04-01T09:22:31.837Z</time>
      </trkpt>
      <trkpt lat="43.133668" lon="-2.7900379">
        <ele>136.609</ele>
        <time>2021-04-01T09:22:31.889Z</time>
      </trkpt>
      <trkpt lat="43.133668" lon="-2.7900403">
        <ele>136.609</ele>
        <time>2021-04-01T09:22:31.941Z</time>
      </trkpt>
      <trkpt lat="43.1336682" lon="-2.7900426">
        <ele>136.62</ele>
        <time>2021-04-01T09:22:31.993Z</time>
      </trkpt>
      <trkpt lat="43.1336684" lon="-2.7900446">
        <ele>136.634</ele>
        <time>2021-04-01T09:22:32.045Z</time>
      </trkpt>
      <trkpt lat="43.1336685" lon="-2.790047">
        <ele>136.645</ele>
        <time>2021-04-01T09:22:32.097Z</time>
      </trkpt>
      <trkpt lat="43.1336688" lon="-2.7900493">
        <ele>136.651</ele>
        <time>2021-04-01T09:22:32.149Z</time>
      </trkpt>
      <trkpt lat="43.133669" lon="-2.7900517">
        <ele>136.678</ele>
        <time>2021-04-01T09:22:32.201Z</time>
      </trkpt>
      <trkpt lat="43.1336693" lon="-2.7900538">
        <ele>136.676</ele>
        <time>2021-04-01T09:22:32.254Z</time>
      </trkpt>
      <trkpt lat="43.1336695" lon="-2.7900558">
        <ele>136.67</ele>
        <time>2021-04-01T09:22:32.306Z</time>
      </trkpt>
      <trkpt lat="43.1336697" lon="-2.790058">
        <ele>136.681</ele>
        <time>2021-04-01T09:22:32.358Z</time>
      </trkpt>
      <trkpt lat="43.1336701" lon="-2.7900602">
        <ele>136.686</ele>
        <time>2021-04-01T09:22:32.410Z</time>
      </trkpt>
      <trkpt lat="43.1336703" lon="-2.7900626">
        <ele>136.713</ele>
        <time>2021-04-01T09:22:32.462Z</time>
      </trkpt>
      <trkpt lat="43.1336703" lon="-2.7900648">
        <ele>136.709</ele>
        <time>2021-04-01T09:22:32.514Z</time>
      </trkpt>
      <trkpt lat="43.1336707" lon="-2.7900671">
        <ele>136.719</ele>
        <time>2021-04-01T09:22:32.566Z</time>
      </trkpt>
      <trkpt lat="43.1336709" lon="-2.7900692">
        <ele>136.722</ele>
        <time>2021-04-01T09:22:32.618Z</time>
      </trkpt>
      <trkpt lat="43.133671" lon="-2.7900714">
        <ele>136.737</ele>
        <time>2021-04-01T09:22:32.670Z</time>
      </trkpt>
      <trkpt lat="43.1336712" lon="-2.7900737">
        <ele>136.735</ele>
        <time>2021-04-01T09:22:32.722Z</time>
      </trkpt>
      <trkpt lat="43.1336715" lon="-2.7900757">
        <ele>136.741</ele>
        <time>2021-04-01T09:22:32.775Z</time>
      </trkpt>
      <trkpt lat="43.1336717" lon="-2.7900779">
        <ele>136.755</ele>
        <time>2021-04-01T09:22:32.827Z</time>
      </trkpt>
      <trkpt lat="43.1336718" lon="-2.7900803">
        <ele>136.77</ele>
        <time>2021-04-01T09:22:32.879Z</time>
      </trkpt>
      <trkpt lat="43.133672" lon="-2.7900826">
        <ele>136.77</ele>
        <time>2021-04-01T09:22:32.931Z</time>
      </trkpt>
      <trkpt lat="43.1336722" lon="-2.7900849">
        <ele>136.772</ele>
        <time>2021-04-01T09:22:32.983Z</time>
      </trkpt>
      <trkpt lat="43.1336724" lon="-2.7900872">
        <ele>136.81</ele>
        <time>2021-04-01T09:22:33.035Z</time>
      </trkpt>
      <trkpt lat="43.1336725" lon="-2.7900895">
        <ele>136.824</ele>
        <time>2021-04-01T09:22:33.087Z</time>
      </trkpt>
      <trkpt lat="43.1336728" lon="-2.7900918">
        <ele>136.848</ele>
        <time>2021-04-01T09:22:33.139Z</time>
      </trkpt>
      <trkpt lat="43.133673" lon="-2.7900938">
        <ele>136.852</ele>
        <time>2021-04-01T09:22:33.191Z</time>
      </trkpt>
      <trkpt lat="43.1336733" lon="-2.7900959">
        <ele>136.875</ele>
        <time>2021-04-01T09:22:33.244Z</time>
      </trkpt>
      <trkpt lat="43.1336734" lon="-2.7900983">
        <ele>136.873</ele>
        <time>2021-04-01T09:22:33.302Z</time>
      </trkpt>
      <trkpt lat="43.1336734" lon="-2.790101">
        <ele>136.91</ele>
        <time>2021-04-01T09:22:33.360Z</time>
      </trkpt>
      <trkpt lat="43.1336735" lon="-2.7901034">
        <ele>136.936</ele>
        <time>2021-04-01T09:22:33.418Z</time>
      </trkpt>
      <trkpt lat="43.1336736" lon="-2.7901054">
        <ele>136.947</ele>
        <time>2021-04-01T09:22:33.476Z</time>
      </trkpt>
      <trkpt lat="43.1336736" lon="-2.7901075">
        <ele>136.951</ele>
        <time>2021-04-01T09:22:33.535Z</time>
      </trkpt>
      <trkpt lat="43.1336737" lon="-2.7901097">
        <ele>136.968</ele>
        <time>2021-04-01T09:22:33.593Z</time>
      </trkpt>
      <trkpt lat="43.1336737" lon="-2.7901121">
        <ele>137.011</ele>
        <time>2021-04-01T09:22:33.651Z</time>
      </trkpt>
      <trkpt lat="43.1336738" lon="-2.7901146">
        <ele>137.067</ele>
        <time>2021-04-01T09:22:33.709Z</time>
      </trkpt>
      <trkpt lat="43.1336738" lon="-2.7901171">
        <ele>137.097</ele>
        <time>2021-04-01T09:22:33.768Z</time>
      </trkpt>
      <trkpt lat="43.1336739" lon="-2.7901193">
        <ele>137.119</ele>
        <time>2021-04-01T09:22:33.826Z</time>
      </trkpt>
      <trkpt lat="43.1336742" lon="-2.7901216">
        <ele>137.131</ele>
        <time>2021-04-01T09:22:33.884Z</time>
      </trkpt>
      <trkpt lat="43.1336742" lon="-2.7901237">
        <ele>137.142</ele>
        <time>2021-04-01T09:22:33.942Z</time>
      </trkpt>
      <trkpt lat="43.1336743" lon="-2.7901257">
        <ele>137.145</ele>
        <time>2021-04-01T09:22:34.001Z</time>
      </trkpt>
      <trkpt lat="43.1336746" lon="-2.7901278">
        <ele>137.135</ele>
        <time>2021-04-01T09:22:34.059Z</time>
      </trkpt>
      <trkpt lat="43.1336748" lon="-2.79013">
        <ele>137.155</ele>
        <time>2021-04-01T09:22:34.117Z</time>
      </trkpt>
      <trkpt lat="43.133675" lon="-2.7901324">
        <ele>137.156</ele>
        <time>2021-04-01T09:22:34.175Z</time>
      </trkpt>
      <trkpt lat="43.1336751" lon="-2.7901347">
        <ele>137.155</ele>
        <time>2021-04-01T09:22:34.234Z</time>
      </trkpt>
      <trkpt lat="43.1336753" lon="-2.7901369">
        <ele>137.157</ele>
        <time>2021-04-01T09:22:34.286Z</time>
      </trkpt>
      <trkpt lat="43.1336754" lon="-2.790139">
        <ele>137.157</ele>
        <time>2021-04-01T09:22:34.338Z</time>
      </trkpt>
      <trkpt lat="43.1336756" lon="-2.7901412">
        <ele>137.124</ele>
        <time>2021-04-01T09:22:34.390Z</time>
      </trkpt>
      <trkpt lat="43.1336761" lon="-2.7901432">
        <ele>137.141</ele>
        <time>2021-04-01T09:22:34.442Z</time>
      </trkpt>
      <trkpt lat="43.1336765" lon="-2.7901453">
        <ele>137.156</ele>
        <time>2021-04-01T09:22:34.494Z</time>
      </trkpt>
      <trkpt lat="43.1336769" lon="-2.7901475">
        <ele>137.148</ele>
        <time>2021-04-01T09:22:34.546Z</time>
      </trkpt>
      <trkpt lat="43.1336773" lon="-2.7901496">
        <ele>137.126</ele>
        <time>2021-04-01T09:22:34.598Z</time>
      </trkpt>
      <trkpt lat="43.1336778" lon="-2.7901516">
        <ele>137.106</ele>
        <time>2021-04-01T09:22:34.650Z</time>
      </trkpt>
      <trkpt lat="43.1336784" lon="-2.7901538">
        <ele>137.11</ele>
        <time>2021-04-01T09:22:34.702Z</time>
      </trkpt>
      <trkpt lat="43.1336791" lon="-2.7901559">
        <ele>137.119</ele>
        <time>2021-04-01T09:22:34.755Z</time>
      </trkpt>
      <trkpt lat="43.1336795" lon="-2.790158">
        <ele>137.129</ele>
        <time>2021-04-01T09:22:34.807Z</time>
      </trkpt>
      <trkpt lat="43.1336799" lon="-2.7901601">
        <ele>137.147</ele>
        <time>2021-04-01T09:22:34.859Z</time>
      </trkpt>
      <trkpt lat="43.1336805" lon="-2.7901624">
        <ele>137.168</ele>
        <time>2021-04-01T09:22:34.911Z</time>
      </trkpt>
      <trkpt lat="43.1336811" lon="-2.7901647">
        <ele>137.187</ele>
        <time>2021-04-01T09:22:34.963Z</time>
      </trkpt>
      <trkpt lat="43.1336815" lon="-2.7901669">
        <ele>137.198</ele>
        <time>2021-04-01T09:22:35.015Z</time>
      </trkpt>
      <trkpt lat="43.133682" lon="-2.790169">
        <ele>137.192</ele>
        <time>2021-04-01T09:22:35.067Z</time>
      </trkpt>
      <trkpt lat="43.1336823" lon="-2.7901715">
        <ele>137.196</ele>
        <time>2021-04-01T09:22:35.119Z</time>
      </trkpt>
      <trkpt lat="43.1336828" lon="-2.7901741">
        <ele>137.24</ele>
        <time>2021-04-01T09:22:35.171Z</time>
      </trkpt>
      <trkpt lat="43.1336835" lon="-2.7901764">
        <ele>137.262</ele>
        <time>2021-04-01T09:22:35.224Z</time>
      </trkpt>
      <trkpt lat="43.133684" lon="-2.7901785">
        <ele>137.259</ele>
        <time>2021-04-01T09:22:35.282Z</time>
      </trkpt>
      <trkpt lat="43.1336844" lon="-2.7901808">
        <ele>137.261</ele>
        <time>2021-04-01T09:22:35.340Z</time>
      </trkpt>
      <trkpt lat="43.1336848" lon="-2.7901833">
        <ele>137.295</ele>
        <time>2021-04-01T09:22:35.398Z</time>
      </trkpt>
      <trkpt lat="43.1336854" lon="-2.7901859">
        <ele>137.316</ele>
        <time>2021-04-01T09:22:35.456Z</time>
      </trkpt>
      <trkpt lat="43.1336861" lon="-2.7901883">
        <ele>137.36</ele>
        <time>2021-04-01T09:22:35.514Z</time>
      </trkpt>
      <trkpt lat="43.1336866" lon="-2.7901906">
        <ele>137.375</ele>
        <time>2021-04-01T09:22:35.572Z</time>
      </trkpt>
      <trkpt lat="43.1336873" lon="-2.7901924">
        <ele>137.351</ele>
        <time>2021-04-01T09:22:35.630Z</time>
      </trkpt>
      <trkpt lat="43.1336878" lon="-2.7901944">
        <ele>137.333</ele>
        <time>2021-04-01T09:22:35.688Z</time>
      </trkpt>
      <trkpt lat="43.1336884" lon="-2.7901966">
        <ele>137.314</ele>
        <time>2021-04-01T09:22:35.746Z</time>
      </trkpt>
      <trkpt lat="43.1336889" lon="-2.7901989">
        <ele>137.333</ele>
        <time>2021-04-01T09:22:35.804Z</time>
      </trkpt>
      <trkpt lat="43.1336895" lon="-2.7902012">
        <ele>137.349</ele>
        <time>2021-04-01T09:22:35.862Z</time>
      </trkpt>
      <trkpt lat="43.1336901" lon="-2.7902035">
        <ele>137.362</ele>
        <time>2021-04-01T09:22:35.920Z</time>
      </trkpt>
      <trkpt lat="43.1336906" lon="-2.7902058">
        <ele>137.371</ele>
        <time>2021-04-01T09:22:35.978Z</time>
      </trkpt>
      <trkpt lat="43.1336912" lon="-2.7902083">
        <ele>137.426</ele>
        <time>2021-04-01T09:22:36.036Z</time>
      </trkpt>
      <trkpt lat="43.1336918" lon="-2.7902106">
        <ele>137.453</ele>
        <time>2021-04-01T09:22:36.094Z</time>
      </trkpt>
      <trkpt lat="43.1336923" lon="-2.7902132">
        <ele>137.495</ele>
        <time>2021-04-01T09:22:36.152Z</time>
      </trkpt>
      <trkpt lat="43.1336928" lon="-2.7902159">
        <ele>137.532</ele>
        <time>2021-04-01T09:22:36.210Z</time>
      </trkpt>
      <trkpt lat="43.1336934" lon="-2.7902183">
        <ele>137.586</ele>
        <time>2021-04-01T09:22:36.269Z</time>
      </trkpt>
      <trkpt lat="43.1336939" lon="-2.7902207">
        <ele>137.649</ele>
        <time>2021-04-01T09:22:36.320Z</time>
      </trkpt>
      <trkpt lat="43.1336944" lon="-2.7902234">
        <ele>137.702</ele>
        <time>2021-04-01T09:22:36.372Z</time>
      </trkpt>
      <trkpt lat="43.133695" lon="-2.7902258">
        <ele>137.726</ele>
        <time>2021-04-01T09:22:36.424Z</time>
      </trkpt>
      <trkpt lat="43.1336957" lon="-2.790228">
        <ele>137.732</ele>
        <time>2021-04-01T09:22:36.476Z</time>
      </trkpt>
      <trkpt lat="43.1336961" lon="-2.7902304">
        <ele>137.779</ele>
        <time>2021-04-01T09:22:36.528Z</time>
      </trkpt>
      <trkpt lat="43.1336966" lon="-2.7902327">
        <ele>137.804</ele>
        <time>2021-04-01T09:22:36.580Z</time>
      </trkpt>
      <trkpt lat="43.1336971" lon="-2.790235">
        <ele>137.799</ele>
        <time>2021-04-01T09:22:36.632Z</time>
      </trkpt>
      <trkpt lat="43.1336977" lon="-2.7902373">
        <ele>137.789</ele>
        <time>2021-04-01T09:22:36.684Z</time>
      </trkpt>
      <trkpt lat="43.1336984" lon="-2.7902399">
        <ele>137.842</ele>
        <time>2021-04-01T09:22:36.736Z</time>
      </trkpt>
      <trkpt lat="43.1336988" lon="-2.7902423">
        <ele>137.894</ele>
        <time>2021-04-01T09:22:36.788Z</time>
      </trkpt>
      <trkpt lat="43.1336993" lon="-2.7902446">
        <ele>137.924</ele>
        <time>2021-04-01T09:22:36.840Z</time>
      </trkpt>
      <trkpt lat="43.1336998" lon="-2.7902469">
        <ele>137.924</ele>
        <time>2021-04-01T09:22:36.892Z</time>
      </trkpt>
      <trkpt lat="43.1337002" lon="-2.7902494">
        <ele>137.953</ele>
        <time>2021-04-01T09:22:36.944Z</time>
      </trkpt>
      <trkpt lat="43.1337006" lon="-2.7902518">
        <ele>137.987</ele>
        <time>2021-04-01T09:22:36.996Z</time>
      </trkpt>
      <trkpt lat="43.1337013" lon="-2.7902542">
        <ele>138.014</ele>
        <time>2021-04-01T09:22:37.048Z</time>
      </trkpt>
      <trkpt lat="43.133702" lon="-2.7902567">
        <ele>138.05</ele>
        <time>2021-04-01T09:22:37.100Z</time>
      </trkpt>
      <trkpt lat="43.1337025" lon="-2.7902591">
        <ele>138.096</ele>
        <time>2021-04-01T09:22:37.152Z</time>
      </trkpt>
      <trkpt lat="43.1337028" lon="-2.7902613">
        <ele>138.103</ele>
        <time>2021-04-01T09:22:37.204Z</time>
      </trkpt>
      <trkpt lat="43.1337035" lon="-2.7902637">
        <ele>138.131</ele>
        <time>2021-04-01T09:22:37.262Z</time>
      </trkpt>
      <trkpt lat="43.1337042" lon="-2.7902662">
        <ele>138.189</ele>
        <time>2021-04-01T09:22:37.320Z</time>
      </trkpt>
      <trkpt lat="43.1337047" lon="-2.7902684">
        <ele>138.187</ele>
        <time>2021-04-01T09:22:37.378Z</time>
      </trkpt>
      <trkpt lat="43.1337052" lon="-2.7902708">
        <ele>138.206</ele>
        <time>2021-04-01T09:22:37.436Z</time>
      </trkpt>
      <trkpt lat="43.1337057" lon="-2.7902733">
        <ele>138.257</ele>
        <time>2021-04-01T09:22:37.494Z</time>
      </trkpt>
      <trkpt lat="43.1337063" lon="-2.7902757">
        <ele>138.259</ele>
        <time>2021-04-01T09:22:37.552Z</time>
      </trkpt>
      <trkpt lat="43.1337067" lon="-2.7902779">
        <ele>138.262</ele>
        <time>2021-04-01T09:22:37.610Z</time>
      </trkpt>
      <trkpt lat="43.1337072" lon="-2.79028">
        <ele>138.283</ele>
        <time>2021-04-01T09:22:37.668Z</time>
      </trkpt>
      <trkpt lat="43.1337077" lon="-2.7902824">
        <ele>138.316</ele>
        <time>2021-04-01T09:22:37.726Z</time>
      </trkpt>
      <trkpt lat="43.1337083" lon="-2.7902848">
        <ele>138.339</ele>
        <time>2021-04-01T09:22:37.784Z</time>
      </trkpt>
      <trkpt lat="43.1337088" lon="-2.7902871">
        <ele>138.361</ele>
        <time>2021-04-01T09:22:37.842Z</time>
      </trkpt>
      <trkpt lat="43.1337094" lon="-2.7902896">
        <ele>138.397</ele>
        <time>2021-04-01T09:22:37.900Z</time>
      </trkpt>
      <trkpt lat="43.13371" lon="-2.7902918">
        <ele>138.417</ele>
        <time>2021-04-01T09:22:37.958Z</time>
      </trkpt>
      <trkpt lat="43.1337104" lon="-2.7902942">
        <ele>138.45</ele>
        <time>2021-04-01T09:22:38.016Z</time>
      </trkpt>
      <trkpt lat="43.1337109" lon="-2.7902964">
        <ele>138.464</ele>
        <time>2021-04-01T09:22:38.074Z</time>
      </trkpt>
      <trkpt lat="43.1337116" lon="-2.7902987">
        <ele>138.476</ele>
        <time>2021-04-01T09:22:38.132Z</time>
      </trkpt>
      <trkpt lat="43.1337122" lon="-2.7903009">
        <ele>138.492</ele>
        <time>2021-04-01T09:22:38.190Z</time>
      </trkpt>
      <trkpt lat="43.1337127" lon="-2.7903032">
        <ele>138.538</ele>
        <time>2021-04-01T09:22:38.249Z</time>
      </trkpt>
      <trkpt lat="43.1337133" lon="-2.7903056">
        <ele>138.566</ele>
        <time>2021-04-01T09:22:38.304Z</time>
      </trkpt>
      <trkpt lat="43.1337139" lon="-2.790308">
        <ele>138.563</ele>
        <time>2021-04-01T09:22:38.359Z</time>
      </trkpt>
      <trkpt lat="43.1337144" lon="-2.7903103">
        <ele>138.58</ele>
        <time>2021-04-01T09:22:38.414Z</time>
      </trkpt>
      <trkpt lat="43.133715" lon="-2.7903125">
        <ele>138.619</ele>
        <time>2021-04-01T09:22:38.469Z</time>
      </trkpt>
      <trkpt lat="43.1337156" lon="-2.7903149">
        <ele>138.666</ele>
        <time>2021-04-01T09:22:38.524Z</time>
      </trkpt>
      <trkpt lat="43.1337161" lon="-2.7903171">
        <ele>138.674</ele>
        <time>2021-04-01T09:22:38.579Z</time>
      </trkpt>
      <trkpt lat="43.1337166" lon="-2.7903193">
        <ele>138.654</ele>
        <time>2021-04-01T09:22:38.634Z</time>
      </trkpt>
      <trkpt lat="43.1337171" lon="-2.7903215">
        <ele>138.67</ele>
        <time>2021-04-01T09:22:38.689Z</time>
      </trkpt>
      <trkpt lat="43.1337176" lon="-2.790324">
        <ele>138.682</ele>
        <time>2021-04-01T09:22:38.744Z</time>
      </trkpt>
      <trkpt lat="43.1337182" lon="-2.7903264">
        <ele>138.701</ele>
        <time>2021-04-01T09:22:38.799Z</time>
      </trkpt>
      <trkpt lat="43.1337189" lon="-2.7903286">
        <ele>138.708</ele>
        <time>2021-04-01T09:22:38.854Z</time>
      </trkpt>
      <trkpt lat="43.1337196" lon="-2.7903307">
        <ele>138.717</ele>
        <time>2021-04-01T09:22:38.909Z</time>
      </trkpt>
      <trkpt lat="43.1337199" lon="-2.7903329">
        <ele>138.741</ele>
        <time>2021-04-01T09:22:38.964Z</time>
      </trkpt>
      <trkpt lat="43.1337203" lon="-2.7903355">
        <ele>138.794</ele>
        <time>2021-04-01T09:22:39.019Z</time>
      </trkpt>
      <trkpt lat="43.1337207" lon="-2.7903381">
        <ele>138.83</ele>
        <time>2021-04-01T09:22:39.074Z</time>
      </trkpt>
      <trkpt lat="43.1337214" lon="-2.7903404">
        <ele>138.843</ele>
        <time>2021-04-01T09:22:39.129Z</time>
      </trkpt>
      <trkpt lat="43.1337221" lon="-2.7903428">
        <ele>138.876</ele>
        <time>2021-04-01T09:22:39.184Z</time>
      </trkpt>
      <trkpt lat="43.1337227" lon="-2.7903453">
        <ele>138.91</ele>
        <time>2021-04-01T09:22:39.239Z</time>
      </trkpt>
      <trkpt lat="43.1337237" lon="-2.7903498">
        <ele>138.943</ele>
        <time>2021-04-01T09:22:39.297Z</time>
      </trkpt>
      <trkpt lat="43.1337242" lon="-2.7903521">
        <ele>138.962</ele>
        <time>2021-04-01T09:22:39.355Z</time>
      </trkpt>
      <trkpt lat="43.1337245" lon="-2.7903546">
        <ele>138.979</ele>
        <time>2021-04-01T09:22:39.413Z</time>
      </trkpt>
      <trkpt lat="43.1337251" lon="-2.790357">
        <ele>139.009</ele>
        <time>2021-04-01T09:22:39.471Z</time>
      </trkpt>
      <trkpt lat="43.1337257" lon="-2.7903592">
        <ele>138.991</ele>
        <time>2021-04-01T09:22:39.530Z</time>
      </trkpt>
      <trkpt lat="43.1337263" lon="-2.7903616">
        <ele>139.018</ele>
        <time>2021-04-01T09:22:39.588Z</time>
      </trkpt>
      <trkpt lat="43.1337267" lon="-2.790364">
        <ele>139.081</ele>
        <time>2021-04-01T09:22:39.646Z</time>
      </trkpt>
      <trkpt lat="43.1337271" lon="-2.7903662">
        <ele>139.088</ele>
        <time>2021-04-01T09:22:39.704Z</time>
      </trkpt>
      <trkpt lat="43.1337276" lon="-2.7903681">
        <ele>139.034</ele>
        <time>2021-04-01T09:22:39.763Z</time>
      </trkpt>
      <trkpt lat="43.133728" lon="-2.7903703">
        <ele>139.042</ele>
        <time>2021-04-01T09:22:39.821Z</time>
      </trkpt>
      <trkpt lat="43.1337285" lon="-2.7903725">
        <ele>139.047</ele>
        <time>2021-04-01T09:22:39.879Z</time>
      </trkpt>
      <trkpt lat="43.133729" lon="-2.7903746">
        <ele>138.998</ele>
        <time>2021-04-01T09:22:39.937Z</time>
      </trkpt>
      <trkpt lat="43.1337293" lon="-2.7903767">
        <ele>138.958</ele>
        <time>2021-04-01T09:22:39.996Z</time>
      </trkpt>
      <trkpt lat="43.1337297" lon="-2.7903789">
        <ele>138.948</ele>
        <time>2021-04-01T09:22:40.054Z</time>
      </trkpt>
      <trkpt lat="43.1337302" lon="-2.7903809">
        <ele>138.943</ele>
        <time>2021-04-01T09:22:40.112Z</time>
      </trkpt>
      <trkpt lat="43.1337308" lon="-2.7903829">
        <ele>138.943</ele>
        <time>2021-04-01T09:22:40.170Z</time>
      </trkpt>
      <trkpt lat="43.133731" lon="-2.7903848">
        <ele>138.919</ele>
        <time>2021-04-01T09:22:40.229Z</time>
      </trkpt>
      <trkpt lat="43.1337313" lon="-2.7903872">
        <ele>138.928</ele>
        <time>2021-04-01T09:22:40.284Z</time>
      </trkpt>
      <trkpt lat="43.1337317" lon="-2.7903895">
        <ele>138.955</ele>
        <time>2021-04-01T09:22:40.339Z</time>
      </trkpt>
      <trkpt lat="43.1337321" lon="-2.790392">
        <ele>138.962</ele>
        <time>2021-04-01T09:22:40.394Z</time>
      </trkpt>
      <trkpt lat="43.1337323" lon="-2.7903942">
        <ele>138.961</ele>
        <time>2021-04-01T09:22:40.449Z</time>
      </trkpt>
      <trkpt lat="43.1337326" lon="-2.7903963">
        <ele>138.938</ele>
        <time>2021-04-01T09:22:40.504Z</time>
      </trkpt>
      <trkpt lat="43.1337329" lon="-2.7903983">
        <ele>138.95</ele>
        <time>2021-04-01T09:22:40.559Z</time>
      </trkpt>
      <trkpt lat="43.1337333" lon="-2.7904005">
        <ele>138.941</ele>
        <time>2021-04-01T09:22:40.614Z</time>
      </trkpt>
      <trkpt lat="43.1337336" lon="-2.7904027">
        <ele>138.947</ele>
        <time>2021-04-01T09:22:40.669Z</time>
      </trkpt>
      <trkpt lat="43.133734" lon="-2.7904048">
        <ele>138.969</ele>
        <time>2021-04-01T09:22:40.724Z</time>
      </trkpt>
      <trkpt lat="43.1337345" lon="-2.7904072">
        <ele>139.001</ele>
        <time>2021-04-01T09:22:40.779Z</time>
      </trkpt>
      <trkpt lat="43.133735" lon="-2.7904096">
        <ele>139.018</ele>
        <time>2021-04-01T09:22:40.834Z</time>
      </trkpt>
      <trkpt lat="43.1337356" lon="-2.790412">
        <ele>139.027</ele>
        <time>2021-04-01T09:22:40.889Z</time>
      </trkpt>
      <trkpt lat="43.1337361" lon="-2.7904144">
        <ele>139.062</ele>
        <time>2021-04-01T09:22:40.944Z</time>
      </trkpt>
      <trkpt lat="43.1337366" lon="-2.7904166">
        <ele>139.094</ele>
        <time>2021-04-01T09:22:40.999Z</time>
      </trkpt>
      <trkpt lat="43.1337371" lon="-2.7904188">
        <ele>139.095</ele>
        <time>2021-04-01T09:22:41.054Z</time>
      </trkpt>
      <trkpt lat="43.1337374" lon="-2.7904211">
        <ele>139.081</ele>
        <time>2021-04-01T09:22:41.109Z</time>
      </trkpt>
      <trkpt lat="43.1337377" lon="-2.7904231">
        <ele>139.077</ele>
        <time>2021-04-01T09:22:41.164Z</time>
      </trkpt>
      <trkpt lat="43.1337382" lon="-2.7904255">
        <ele>139.089</ele>
        <time>2021-04-01T09:22:41.219Z</time>
      </trkpt>
      <trkpt lat="43.1337388" lon="-2.7904278">
        <ele>139.089</ele>
        <time>2021-04-01T09:22:41.274Z</time>
      </trkpt>
      <trkpt lat="43.1337391" lon="-2.7904301">
        <ele>139.096</ele>
        <time>2021-04-01T09:22:41.325Z</time>
      </trkpt>
      <trkpt lat="43.1337396" lon="-2.7904323">
        <ele>139.101</ele>
        <time>2021-04-01T09:22:41.377Z</time>
      </trkpt>
      <trkpt lat="43.13374" lon="-2.7904346">
        <ele>139.125</ele>
        <time>2021-04-01T09:22:41.429Z</time>
      </trkpt>
      <trkpt lat="43.1337404" lon="-2.7904367">
        <ele>139.111</ele>
        <time>2021-04-01T09:22:41.481Z</time>
      </trkpt>
      <trkpt lat="43.1337407" lon="-2.7904388">
        <ele>139.109</ele>
        <time>2021-04-01T09:22:41.533Z</time>
      </trkpt>
      <trkpt lat="43.1337411" lon="-2.7904411">
        <ele>139.136</ele>
        <time>2021-04-01T09:22:41.585Z</time>
      </trkpt>
      <trkpt lat="43.1337417" lon="-2.7904435">
        <ele>139.133</ele>
        <time>2021-04-01T09:22:41.637Z</time>
      </trkpt>
      <trkpt lat="43.1337421" lon="-2.7904459">
        <ele>139.116</ele>
        <time>2021-04-01T09:22:41.689Z</time>
      </trkpt>
      <trkpt lat="43.1337425" lon="-2.7904482">
        <ele>139.135</ele>
        <time>2021-04-01T09:22:41.741Z</time>
      </trkpt>
      <trkpt lat="43.1337428" lon="-2.7904503">
        <ele>139.14</ele>
        <time>2021-04-01T09:22:41.793Z</time>
      </trkpt>
      <trkpt lat="43.1337432" lon="-2.7904526">
        <ele>139.141</ele>
        <time>2021-04-01T09:22:41.845Z</time>
      </trkpt>
      <trkpt lat="43.1337433" lon="-2.790455">
        <ele>139.142</ele>
        <time>2021-04-01T09:22:41.897Z</time>
      </trkpt>
      <trkpt lat="43.1337436" lon="-2.7904573">
        <ele>139.159</ele>
        <time>2021-04-01T09:22:41.949Z</time>
      </trkpt>
      <trkpt lat="43.1337436" lon="-2.7904595">
        <ele>139.152</ele>
        <time>2021-04-01T09:22:42.001Z</time>
      </trkpt>
      <trkpt lat="43.133744" lon="-2.7904616">
        <ele>139.157</ele>
        <time>2021-04-01T09:22:42.053Z</time>
      </trkpt>
      <trkpt lat="43.1337444" lon="-2.790464">
        <ele>139.164</ele>
        <time>2021-04-01T09:22:42.105Z</time>
      </trkpt>
      <trkpt lat="43.133745" lon="-2.7904663">
        <ele>139.167</ele>
        <time>2021-04-01T09:22:42.157Z</time>
      </trkpt>
      <trkpt lat="43.1337455" lon="-2.7904687">
        <ele>139.176</ele>
        <time>2021-04-01T09:22:42.209Z</time>
      </trkpt>
      <trkpt lat="43.1337459" lon="-2.790471">
        <ele>139.191</ele>
        <time>2021-04-01T09:22:42.267Z</time>
      </trkpt>
      <trkpt lat="43.1337465" lon="-2.7904735">
        <ele>139.229</ele>
        <time>2021-04-01T09:22:42.325Z</time>
      </trkpt>
      <trkpt lat="43.1337472" lon="-2.7904761">
        <ele>139.227</ele>
        <time>2021-04-01T09:22:42.383Z</time>
      </trkpt>
      <trkpt lat="43.1337479" lon="-2.7904787">
        <ele>139.24</ele>
        <time>2021-04-01T09:22:42.441Z</time>
      </trkpt>
      <trkpt lat="43.1337483" lon="-2.790481">
        <ele>139.261</ele>
        <time>2021-04-01T09:22:42.499Z</time>
      </trkpt>
      <trkpt lat="43.133749" lon="-2.7904833">
        <ele>139.336</ele>
        <time>2021-04-01T09:22:42.557Z</time>
      </trkpt>
      <trkpt lat="43.1337497" lon="-2.7904857">
        <ele>139.358</ele>
        <time>2021-04-01T09:22:42.615Z</time>
      </trkpt>
      <trkpt lat="43.1337502" lon="-2.7904881">
        <ele>139.331</ele>
        <time>2021-04-01T09:22:42.673Z</time>
      </trkpt>
      <trkpt lat="43.1337505" lon="-2.7904904">
        <ele>139.334</ele>
        <time>2021-04-01T09:22:42.731Z</time>
      </trkpt>
      <trkpt lat="43.133751" lon="-2.7904927">
        <ele>139.357</ele>
        <time>2021-04-01T09:22:42.789Z</time>
      </trkpt>
      <trkpt lat="43.1337516" lon="-2.7904952">
        <ele>139.402</ele>
        <time>2021-04-01T09:22:42.847Z</time>
      </trkpt>
      <trkpt lat="43.1337522" lon="-2.7904976">
        <ele>139.437</ele>
        <time>2021-04-01T09:22:42.905Z</time>
      </trkpt>
      <trkpt lat="43.1337529" lon="-2.7905">
        <ele>139.442</ele>
        <time>2021-04-01T09:22:42.963Z</time>
      </trkpt>
      <trkpt lat="43.1337534" lon="-2.7905023">
        <ele>139.451</ele>
        <time>2021-04-01T09:22:43.021Z</time>
      </trkpt>
      <trkpt lat="43.1337537" lon="-2.7905045">
        <ele>139.45</ele>
        <time>2021-04-01T09:22:43.079Z</time>
      </trkpt>
      <trkpt lat="43.1337541" lon="-2.7905068">
        <ele>139.421</ele>
        <time>2021-04-01T09:22:43.137Z</time>
      </trkpt>
      <trkpt lat="43.1337547" lon="-2.7905091">
        <ele>139.434</ele>
        <time>2021-04-01T09:22:43.195Z</time>
      </trkpt>
      <trkpt lat="43.1337551" lon="-2.7905113">
        <ele>139.433</ele>
        <time>2021-04-01T09:22:43.254Z</time>
      </trkpt>
      <trkpt lat="43.1337552" lon="-2.7905136">
        <ele>139.414</ele>
        <time>2021-04-01T09:22:43.309Z</time>
      </trkpt>
      <trkpt lat="43.1337557" lon="-2.7905161">
        <ele>139.452</ele>
        <time>2021-04-01T09:22:43.364Z</time>
      </trkpt>
      <trkpt lat="43.1337561" lon="-2.7905187">
        <ele>139.482</ele>
        <time>2021-04-01T09:22:43.419Z</time>
      </trkpt>
      <trkpt lat="43.1337566" lon="-2.7905213">
        <ele>139.493</ele>
        <time>2021-04-01T09:22:43.474Z</time>
      </trkpt>
      <trkpt lat="43.1337571" lon="-2.7905238">
        <ele>139.492</ele>
        <time>2021-04-01T09:22:43.529Z</time>
      </trkpt>
      <trkpt lat="43.1337576" lon="-2.7905264">
        <ele>139.523</ele>
        <time>2021-04-01T09:22:43.584Z</time>
      </trkpt>
      <trkpt lat="43.1337579" lon="-2.7905288">
        <ele>139.546</ele>
        <time>2021-04-01T09:22:43.639Z</time>
      </trkpt>
      <trkpt lat="43.1337586" lon="-2.7905312">
        <ele>139.552</ele>
        <time>2021-04-01T09:22:43.694Z</time>
      </trkpt>
      <trkpt lat="43.133759" lon="-2.7905339">
        <ele>139.587</ele>
        <time>2021-04-01T09:22:43.749Z</time>
      </trkpt>
      <trkpt lat="43.1337598" lon="-2.7905364">
        <ele>139.609</ele>
        <time>2021-04-01T09:22:43.804Z</time>
      </trkpt>
      <trkpt lat="43.1337605" lon="-2.7905389">
        <ele>139.641</ele>
        <time>2021-04-01T09:22:43.859Z</time>
      </trkpt>
      <trkpt lat="43.1337609" lon="-2.7905411">
        <ele>139.652</ele>
        <time>2021-04-01T09:22:43.914Z</time>
      </trkpt>
      <trkpt lat="43.1337615" lon="-2.7905432">
        <ele>139.664</ele>
        <time>2021-04-01T09:22:43.969Z</time>
      </trkpt>
      <trkpt lat="43.1337621" lon="-2.7905455">
        <ele>139.666</ele>
        <time>2021-04-01T09:22:44.024Z</time>
      </trkpt>
      <trkpt lat="43.1337628" lon="-2.7905481">
        <ele>139.662</ele>
        <time>2021-04-01T09:22:44.079Z</time>
      </trkpt>
      <trkpt lat="43.1337633" lon="-2.7905504">
        <ele>139.667</ele>
        <time>2021-04-01T09:22:44.134Z</time>
      </trkpt>
      <trkpt lat="43.1337638" lon="-2.7905526">
        <ele>139.694</ele>
        <time>2021-04-01T09:22:44.189Z</time>
      </trkpt>
      <trkpt lat="43.1337641" lon="-2.7905547">
        <ele>139.675</ele>
        <time>2021-04-01T09:22:44.244Z</time>
      </trkpt>
      <trkpt lat="43.1337645" lon="-2.7905569">
        <ele>139.643</ele>
        <time>2021-04-01T09:22:44.299Z</time>
      </trkpt>
      <trkpt lat="43.133765" lon="-2.7905592">
        <ele>139.679</ele>
        <time>2021-04-01T09:22:44.354Z</time>
      </trkpt>
      <trkpt lat="43.1337654" lon="-2.7905615">
        <ele>139.691</ele>
        <time>2021-04-01T09:22:44.409Z</time>
      </trkpt>
      <trkpt lat="43.1337662" lon="-2.7905639">
        <ele>139.744</ele>
        <time>2021-04-01T09:22:44.464Z</time>
      </trkpt>
      <trkpt lat="43.1337669" lon="-2.7905662">
        <ele>139.778</ele>
        <time>2021-04-01T09:22:44.519Z</time>
      </trkpt>
      <trkpt lat="43.1337676" lon="-2.7905683">
        <ele>139.79</ele>
        <time>2021-04-01T09:22:44.574Z</time>
      </trkpt>
      <trkpt lat="43.133768" lon="-2.7905705">
        <ele>139.78</ele>
        <time>2021-04-01T09:22:44.629Z</time>
      </trkpt>
      <trkpt lat="43.1337685" lon="-2.7905726">
        <ele>139.747</ele>
        <time>2021-04-01T09:22:44.684Z</time>
      </trkpt>
      <trkpt lat="43.1337688" lon="-2.7905748">
        <ele>139.742</ele>
        <time>2021-04-01T09:22:44.739Z</time>
      </trkpt>
      <trkpt lat="43.1337693" lon="-2.7905772">
        <ele>139.766</ele>
        <time>2021-04-01T09:22:44.794Z</time>
      </trkpt>
      <trkpt lat="43.1337698" lon="-2.7905796">
        <ele>139.783</ele>
        <time>2021-04-01T09:22:44.849Z</time>
      </trkpt>
      <trkpt lat="43.1337702" lon="-2.7905821">
        <ele>139.771</ele>
        <time>2021-04-01T09:22:44.904Z</time>
      </trkpt>
      <trkpt lat="43.1337706" lon="-2.7905841">
        <ele>139.821</ele>
        <time>2021-04-01T09:22:44.959Z</time>
      </trkpt>
      <trkpt lat="43.1337712" lon="-2.7905865">
        <ele>139.893</ele>
        <time>2021-04-01T09:22:45.014Z</time>
      </trkpt>
      <trkpt lat="43.133772" lon="-2.790589">
        <ele>139.931</ele>
        <time>2021-04-01T09:22:45.069Z</time>
      </trkpt>
      <trkpt lat="43.1337725" lon="-2.7905916">
        <ele>139.948</ele>
        <time>2021-04-01T09:22:45.124Z</time>
      </trkpt>
      <trkpt lat="43.1337731" lon="-2.790594">
        <ele>139.985</ele>
        <time>2021-04-01T09:22:45.179Z</time>
      </trkpt>
      <trkpt lat="43.1337737" lon="-2.7905966">
        <ele>140.039</ele>
        <time>2021-04-01T09:22:45.234Z</time>
      </trkpt>
      <trkpt lat="43.1337744" lon="-2.7905989">
        <ele>140.047</ele>
        <time>2021-04-01T09:22:45.286Z</time>
      </trkpt>
      <trkpt lat="43.1337748" lon="-2.7906013">
        <ele>140.043</ele>
        <time>2021-04-01T09:22:45.338Z</time>
      </trkpt>
      <trkpt lat="43.1337753" lon="-2.7906034">
        <ele>140.036</ele>
        <time>2021-04-01T09:22:45.390Z</time>
      </trkpt>
      <trkpt lat="43.1337758" lon="-2.7906056">
        <ele>140.037</ele>
        <time>2021-04-01T09:22:45.442Z</time>
      </trkpt>
      <trkpt lat="43.1337765" lon="-2.7906077">
        <ele>140.029</ele>
        <time>2021-04-01T09:22:45.494Z</time>
      </trkpt>
      <trkpt lat="43.1337771" lon="-2.79061">
        <ele>140.029</ele>
        <time>2021-04-01T09:22:45.546Z</time>
      </trkpt>
      <trkpt lat="43.1337773" lon="-2.7906125">
        <ele>140.049</ele>
        <time>2021-04-01T09:22:45.598Z</time>
      </trkpt>
      <trkpt lat="43.1337776" lon="-2.7906149">
        <ele>140.053</ele>
        <time>2021-04-01T09:22:45.650Z</time>
      </trkpt>
      <trkpt lat="43.1337785" lon="-2.790617">
        <ele>140.044</ele>
        <time>2021-04-01T09:22:45.702Z</time>
      </trkpt>
      <trkpt lat="43.1337792" lon="-2.7906191">
        <ele>140.043</ele>
        <time>2021-04-01T09:22:45.755Z</time>
      </trkpt>
      <trkpt lat="43.1337797" lon="-2.7906213">
        <ele>140.047</ele>
        <time>2021-04-01T09:22:45.807Z</time>
      </trkpt>
      <trkpt lat="43.1337799" lon="-2.7906234">
        <ele>140.014</ele>
        <time>2021-04-01T09:22:45.859Z</time>
      </trkpt>
      <trkpt lat="43.1337803" lon="-2.7906254">
        <ele>139.998</ele>
        <time>2021-04-01T09:22:45.911Z</time>
      </trkpt>
      <trkpt lat="43.1337808" lon="-2.7906273">
        <ele>139.989</ele>
        <time>2021-04-01T09:22:45.963Z</time>
      </trkpt>
      <trkpt lat="43.1337814" lon="-2.7906295">
        <ele>139.961</ele>
        <time>2021-04-01T09:22:46.015Z</time>
      </trkpt>
      <trkpt lat="43.1337817" lon="-2.7906315">
        <ele>139.936</ele>
        <time>2021-04-01T09:22:46.067Z</time>
      </trkpt>
      <trkpt lat="43.1337822" lon="-2.790633">
        <ele>139.93</ele>
        <time>2021-04-01T09:22:46.119Z</time>
      </trkpt>
      <trkpt lat="43.1337829" lon="-2.7906345">
        <ele>139.861</ele>
        <time>2021-04-01T09:22:46.171Z</time>
      </trkpt>
      <trkpt lat="43.1337834" lon="-2.7906363">
        <ele>139.812</ele>
        <time>2021-04-01T09:22:46.224Z</time>
      </trkpt>
      <trkpt lat="43.1337837" lon="-2.7906379">
        <ele>139.773</ele>
        <time>2021-04-01T09:22:46.285Z</time>
      </trkpt>
      <trkpt lat="43.1337843" lon="-2.7906398">
        <ele>139.756</ele>
        <time>2021-04-01T09:22:46.346Z</time>
      </trkpt>
      <trkpt lat="43.1337848" lon="-2.790642">
        <ele>139.753</ele>
        <time>2021-04-01T09:22:46.408Z</time>
      </trkpt>
      <trkpt lat="43.1337852" lon="-2.7906438">
        <ele>139.71</ele>
        <time>2021-04-01T09:22:46.469Z</time>
      </trkpt>
      <trkpt lat="43.1337857" lon="-2.7906458">
        <ele>139.724</ele>
        <time>2021-04-01T09:22:46.531Z</time>
      </trkpt>
      <trkpt lat="43.1337859" lon="-2.7906479">
        <ele>139.713</ele>
        <time>2021-04-01T09:22:46.592Z</time>
      </trkpt>
      <trkpt lat="43.1337863" lon="-2.7906496">
        <ele>139.681</ele>
        <time>2021-04-01T09:22:46.654Z</time>
      </trkpt>
      <trkpt lat="43.1337868" lon="-2.7906517">
        <ele>139.692</ele>
        <time>2021-04-01T09:22:46.715Z</time>
      </trkpt>
      <trkpt lat="43.1337874" lon="-2.7906536">
        <ele>139.714</ele>
        <time>2021-04-01T09:22:46.777Z</time>
      </trkpt>
      <trkpt lat="43.1337881" lon="-2.7906556">
        <ele>139.705</ele>
        <time>2021-04-01T09:22:46.838Z</time>
      </trkpt>
      <trkpt lat="43.1337885" lon="-2.7906576">
        <ele>139.711</ele>
        <time>2021-04-01T09:22:46.900Z</time>
      </trkpt>
      <trkpt lat="43.1337891" lon="-2.7906595">
        <ele>139.733</ele>
        <time>2021-04-01T09:22:46.961Z</time>
      </trkpt>
      <trkpt lat="43.1337898" lon="-2.7906616">
        <ele>139.756</ele>
        <time>2021-04-01T09:22:47.023Z</time>
      </trkpt>
      <trkpt lat="43.1337905" lon="-2.7906632">
        <ele>139.813</ele>
        <time>2021-04-01T09:22:47.084Z</time>
      </trkpt>
      <trkpt lat="43.1337908" lon="-2.7906653">
        <ele>139.824</ele>
        <time>2021-04-01T09:22:47.146Z</time>
      </trkpt>
      <trkpt lat="43.1337913" lon="-2.7906674">
        <ele>139.829</ele>
        <time>2021-04-01T09:22:47.207Z</time>
      </trkpt>
      <trkpt lat="43.1337919" lon="-2.7906696">
        <ele>139.844</ele>
        <time>2021-04-01T09:22:47.269Z</time>
      </trkpt>
      <trkpt lat="43.1337924" lon="-2.7906718">
        <ele>139.873</ele>
        <time>2021-04-01T09:22:47.321Z</time>
      </trkpt>
      <trkpt lat="43.1337927" lon="-2.7906744">
        <ele>139.91</ele>
        <time>2021-04-01T09:22:47.373Z</time>
      </trkpt>
      <trkpt lat="43.133793" lon="-2.7906768">
        <ele>139.946</ele>
        <time>2021-04-01T09:22:47.425Z</time>
      </trkpt>
      <trkpt lat="43.1337935" lon="-2.7906789">
        <ele>139.954</ele>
        <time>2021-04-01T09:22:47.477Z</time>
      </trkpt>
      <trkpt lat="43.133794" lon="-2.7906811">
        <ele>139.952</ele>
        <time>2021-04-01T09:22:47.529Z</time>
      </trkpt>
      <trkpt lat="43.1337945" lon="-2.7906833">
        <ele>139.961</ele>
        <time>2021-04-01T09:22:47.581Z</time>
      </trkpt>
      <trkpt lat="43.1337951" lon="-2.7906859">
        <ele>140.005</ele>
        <time>2021-04-01T09:22:47.633Z</time>
      </trkpt>
      <trkpt lat="43.1337957" lon="-2.7906881">
        <ele>140.035</ele>
        <time>2021-04-01T09:22:47.685Z</time>
      </trkpt>
      <trkpt lat="43.1337964" lon="-2.7906908">
        <ele>140.089</ele>
        <time>2021-04-01T09:22:47.737Z</time>
      </trkpt>
      <trkpt lat="43.1337969" lon="-2.7906932">
        <ele>140.108</ele>
        <time>2021-04-01T09:22:47.790Z</time>
      </trkpt>
      <trkpt lat="43.1337975" lon="-2.7906953">
        <ele>140.136</ele>
        <time>2021-04-01T09:22:47.842Z</time>
      </trkpt>
      <trkpt lat="43.1337979" lon="-2.7906976">
        <ele>140.15</ele>
        <time>2021-04-01T09:22:47.894Z</time>
      </trkpt>
      <trkpt lat="43.1337984" lon="-2.7906999">
        <ele>140.165</ele>
        <time>2021-04-01T09:22:47.946Z</time>
      </trkpt>
      <trkpt lat="43.1337989" lon="-2.7907023">
        <ele>140.208</ele>
        <time>2021-04-01T09:22:47.998Z</time>
      </trkpt>
      <trkpt lat="43.1337994" lon="-2.7907043">
        <ele>140.234</ele>
        <time>2021-04-01T09:22:48.050Z</time>
      </trkpt>
      <trkpt lat="43.1337999" lon="-2.7907064">
        <ele>140.241</ele>
        <time>2021-04-01T09:22:48.102Z</time>
      </trkpt>
      <trkpt lat="43.1338003" lon="-2.7907087">
        <ele>140.26</ele>
        <time>2021-04-01T09:22:48.154Z</time>
      </trkpt>
      <trkpt lat="43.1338007" lon="-2.7907109">
        <ele>140.271</ele>
        <time>2021-04-01T09:22:48.206Z</time>
      </trkpt>
      <trkpt lat="43.1338011" lon="-2.7907131">
        <ele>140.295</ele>
        <time>2021-04-01T09:22:48.259Z</time>
      </trkpt>
      <trkpt lat="43.1338015" lon="-2.7907152">
        <ele>140.297</ele>
        <time>2021-04-01T09:22:48.314Z</time>
      </trkpt>
      <trkpt lat="43.1338018" lon="-2.7907175">
        <ele>140.3</ele>
        <time>2021-04-01T09:22:48.369Z</time>
      </trkpt>
      <trkpt lat="43.1338021" lon="-2.7907196">
        <ele>140.322</ele>
        <time>2021-04-01T09:22:48.424Z</time>
      </trkpt>
      <trkpt lat="43.1338027" lon="-2.7907218">
        <ele>140.334</ele>
        <time>2021-04-01T09:22:48.479Z</time>
      </trkpt>
      <trkpt lat="43.133803" lon="-2.790724">
        <ele>140.352</ele>
        <time>2021-04-01T09:22:48.534Z</time>
      </trkpt>
      <trkpt lat="43.1338034" lon="-2.7907261">
        <ele>140.343</ele>
        <time>2021-04-01T09:22:48.589Z</time>
      </trkpt>
      <trkpt lat="43.1338038" lon="-2.7907282">
        <ele>140.35</ele>
        <time>2021-04-01T09:22:48.644Z</time>
      </trkpt>
      <trkpt lat="43.133804" lon="-2.7907304">
        <ele>140.382</ele>
        <time>2021-04-01T09:22:48.699Z</time>
      </trkpt>
      <trkpt lat="43.1338043" lon="-2.7907326">
        <ele>140.411</ele>
        <time>2021-04-01T09:22:48.754Z</time>
      </trkpt>
      <trkpt lat="43.1338047" lon="-2.7907346">
        <ele>140.418</ele>
        <time>2021-04-01T09:22:48.809Z</time>
      </trkpt>
      <trkpt lat="43.133805" lon="-2.7907366">
        <ele>140.43</ele>
        <time>2021-04-01T09:22:48.864Z</time>
      </trkpt>
      <trkpt lat="43.1338054" lon="-2.7907388">
        <ele>140.433</ele>
        <time>2021-04-01T09:22:48.919Z</time>
      </trkpt>
      <trkpt lat="43.1338058" lon="-2.790741">
        <ele>140.426</ele>
        <time>2021-04-01T09:22:48.974Z</time>
      </trkpt>
      <trkpt lat="43.1338061" lon="-2.790743">
        <ele>140.414</ele>
        <time>2021-04-01T09:22:49.029Z</time>
      </trkpt>
      <trkpt lat="43.1338064" lon="-2.7907449">
        <ele>140.418</ele>
        <time>2021-04-01T09:22:49.084Z</time>
      </trkpt>
      <trkpt lat="43.1338067" lon="-2.790747">
        <ele>140.431</ele>
        <time>2021-04-01T09:22:49.139Z</time>
      </trkpt>
      <trkpt lat="43.1338071" lon="-2.7907491">
        <ele>140.445</ele>
        <time>2021-04-01T09:22:49.194Z</time>
      </trkpt>
      <trkpt lat="43.1338073" lon="-2.7907514">
        <ele>140.468</ele>
        <time>2021-04-01T09:22:49.249Z</time>
      </trkpt>
      <trkpt lat="43.1338074" lon="-2.7907536">
        <ele>140.479</ele>
        <time>2021-04-01T09:22:49.301Z</time>
      </trkpt>
      <trkpt lat="43.1338076" lon="-2.7907556">
        <ele>140.485</ele>
        <time>2021-04-01T09:22:49.353Z</time>
      </trkpt>
      <trkpt lat="43.133808" lon="-2.7907577">
        <ele>140.494</ele>
        <time>2021-04-01T09:22:49.405Z</time>
      </trkpt>
      <trkpt lat="43.1338088" lon="-2.7907604">
        <ele>140.585</ele>
        <time>2021-04-01T09:22:49.457Z</time>
      </trkpt>
      <trkpt lat="43.1338095" lon="-2.7907629">
        <ele>140.641</ele>
        <time>2021-04-01T09:22:49.509Z</time>
      </trkpt>
      <trkpt lat="43.13381" lon="-2.7907653">
        <ele>140.671</ele>
        <time>2021-04-01T09:22:49.561Z</time>
      </trkpt>
      <trkpt lat="43.1338105" lon="-2.7907673">
        <ele>140.71</ele>
        <time>2021-04-01T09:22:49.613Z</time>
      </trkpt>
      <trkpt lat="43.1338112" lon="-2.7907696">
        <ele>140.755</ele>
        <time>2021-04-01T09:22:49.665Z</time>
      </trkpt>
      <trkpt lat="43.1338117" lon="-2.790772">
        <ele>140.8</ele>
        <time>2021-04-01T09:22:49.717Z</time>
      </trkpt>
      <trkpt lat="43.1338123" lon="-2.7907742">
        <ele>140.833</ele>
        <time>2021-04-01T09:22:49.770Z</time>
      </trkpt>
      <trkpt lat="43.1338128" lon="-2.7907764">
        <ele>140.876</ele>
        <time>2021-04-01T09:22:49.822Z</time>
      </trkpt>
      <trkpt lat="43.1338132" lon="-2.7907786">
        <ele>140.899</ele>
        <time>2021-04-01T09:22:49.874Z</time>
      </trkpt>
      <trkpt lat="43.1338137" lon="-2.7907808">
        <ele>140.908</ele>
        <time>2021-04-01T09:22:49.926Z</time>
      </trkpt>
      <trkpt lat="43.1338141" lon="-2.7907828">
        <ele>140.916</ele>
        <time>2021-04-01T09:22:49.978Z</time>
      </trkpt>
      <trkpt lat="43.1338146" lon="-2.790785">
        <ele>140.906</ele>
        <time>2021-04-01T09:22:50.030Z</time>
      </trkpt>
      <trkpt lat="43.133815" lon="-2.790787">
        <ele>140.931</ele>
        <time>2021-04-01T09:22:50.082Z</time>
      </trkpt>
      <trkpt lat="43.1338153" lon="-2.790789">
        <ele>140.926</ele>
        <time>2021-04-01T09:22:50.134Z</time>
      </trkpt>
      <trkpt lat="43.133816" lon="-2.7907912">
        <ele>140.926</ele>
        <time>2021-04-01T09:22:50.186Z</time>
      </trkpt>
      <trkpt lat="43.1338166" lon="-2.7907932">
        <ele>140.922</ele>
        <time>2021-04-01T09:22:50.239Z</time>
      </trkpt>
      <trkpt lat="43.1338172" lon="-2.7907951">
        <ele>140.917</ele>
        <time>2021-04-01T09:22:50.297Z</time>
      </trkpt>
      <trkpt lat="43.1338176" lon="-2.7907972">
        <ele>140.928</ele>
        <time>2021-04-01T09:22:50.355Z</time>
      </trkpt>
      <trkpt lat="43.1338181" lon="-2.7907993">
        <ele>140.949</ele>
        <time>2021-04-01T09:22:50.413Z</time>
      </trkpt>
      <trkpt lat="43.1338188" lon="-2.7908014">
        <ele>140.959</ele>
        <time>2021-04-01T09:22:50.471Z</time>
      </trkpt>
      <trkpt lat="43.1338194" lon="-2.7908036">
        <ele>140.956</ele>
        <time>2021-04-01T09:22:50.529Z</time>
      </trkpt>
      <trkpt lat="43.1338198" lon="-2.7908059">
        <ele>140.951</ele>
        <time>2021-04-01T09:22:50.587Z</time>
      </trkpt>
      <trkpt lat="43.1338203" lon="-2.7908079">
        <ele>140.96</ele>
        <time>2021-04-01T09:22:50.645Z</time>
      </trkpt>
      <trkpt lat="43.1338209" lon="-2.7908099">
        <ele>140.956</ele>
        <time>2021-04-01T09:22:50.703Z</time>
      </trkpt>
      <trkpt lat="43.1338213" lon="-2.790812">
        <ele>140.983</ele>
        <time>2021-04-01T09:22:50.761Z</time>
      </trkpt>
      <trkpt lat="43.1338219" lon="-2.790814">
        <ele>141.01</ele>
        <time>2021-04-01T09:22:50.819Z</time>
      </trkpt>
      <trkpt lat="43.1338225" lon="-2.790816">
        <ele>141.01</ele>
        <time>2021-04-01T09:22:50.877Z</time>
      </trkpt>
      <trkpt lat="43.1338231" lon="-2.7908183">
        <ele>141.005</ele>
        <time>2021-04-01T09:22:50.935Z</time>
      </trkpt>
      <trkpt lat="43.1338238" lon="-2.7908209">
        <ele>141.08</ele>
        <time>2021-04-01T09:22:50.993Z</time>
      </trkpt>
      <trkpt lat="43.1338245" lon="-2.790823">
        <ele>141.109</ele>
        <time>2021-04-01T09:22:51.051Z</time>
      </trkpt>
      <trkpt lat="43.1338252" lon="-2.790825">
        <ele>141.097</ele>
        <time>2021-04-01T09:22:51.109Z</time>
      </trkpt>
      <trkpt lat="43.1338258" lon="-2.790827">
        <ele>141.095</ele>
        <time>2021-04-01T09:22:51.167Z</time>
      </trkpt>
      <trkpt lat="43.1338262" lon="-2.7908291">
        <ele>141.117</ele>
        <time>2021-04-01T09:22:51.225Z</time>
      </trkpt>
      <trkpt lat="43.1338266" lon="-2.7908315">
        <ele>141.163</ele>
        <time>2021-04-01T09:22:51.284Z</time>
      </trkpt>
      <trkpt lat="43.1338269" lon="-2.790834">
        <ele>141.226</ele>
        <time>2021-04-01T09:22:51.335Z</time>
      </trkpt>
      <trkpt lat="43.1338272" lon="-2.7908362">
        <ele>141.223</ele>
        <time>2021-04-01T09:22:51.387Z</time>
      </trkpt>
      <trkpt lat="43.1338278" lon="-2.7908385">
        <ele>141.236</ele>
        <time>2021-04-01T09:22:51.439Z</time>
      </trkpt>
      <trkpt lat="43.1338282" lon="-2.7908408">
        <ele>141.254</ele>
        <time>2021-04-01T09:22:51.491Z</time>
      </trkpt>
      <trkpt lat="43.1338287" lon="-2.7908431">
        <ele>141.264</ele>
        <time>2021-04-01T09:22:51.543Z</time>
      </trkpt>
      <trkpt lat="43.1338292" lon="-2.7908453">
        <ele>141.274</ele>
        <time>2021-04-01T09:22:51.595Z</time>
      </trkpt>
      <trkpt lat="43.1338297" lon="-2.7908474">
        <ele>141.302</ele>
        <time>2021-04-01T09:22:51.647Z</time>
      </trkpt>
      <trkpt lat="43.1338302" lon="-2.7908495">
        <ele>141.308</ele>
        <time>2021-04-01T09:22:51.699Z</time>
      </trkpt>
      <trkpt lat="43.1338305" lon="-2.7908517">
        <ele>141.29</ele>
        <time>2021-04-01T09:22:51.751Z</time>
      </trkpt>
      <trkpt lat="43.1338308" lon="-2.7908538">
        <ele>141.28</ele>
        <time>2021-04-01T09:22:51.803Z</time>
      </trkpt>
      <trkpt lat="43.1338312" lon="-2.7908557">
        <ele>141.281</ele>
        <time>2021-04-01T09:22:51.855Z</time>
      </trkpt>
      <trkpt lat="43.1338316" lon="-2.7908579">
        <ele>141.254</ele>
        <time>2021-04-01T09:22:51.907Z</time>
      </trkpt>
      <trkpt lat="43.1338323" lon="-2.7908601">
        <ele>141.252</ele>
        <time>2021-04-01T09:22:51.959Z</time>
      </trkpt>
      <trkpt lat="43.1338327" lon="-2.7908624">
        <ele>141.257</ele>
        <time>2021-04-01T09:22:52.011Z</time>
      </trkpt>
      <trkpt lat="43.1338331" lon="-2.7908646">
        <ele>141.289</ele>
        <time>2021-04-01T09:22:52.063Z</time>
      </trkpt>
      <trkpt lat="43.1338336" lon="-2.7908668">
        <ele>141.302</ele>
        <time>2021-04-01T09:22:52.115Z</time>
      </trkpt>
      <trkpt lat="43.1338341" lon="-2.7908688">
        <ele>141.286</ele>
        <time>2021-04-01T09:22:52.167Z</time>
      </trkpt>
      <trkpt lat="43.1338345" lon="-2.7908711">
        <ele>141.311</ele>
        <time>2021-04-01T09:22:52.219Z</time>
      </trkpt>
      <trkpt lat="43.1338351" lon="-2.7908733">
        <ele>141.312</ele>
        <time>2021-04-01T09:22:52.277Z</time>
      </trkpt>
      <trkpt lat="43.1338356" lon="-2.7908754">
        <ele>141.309</ele>
        <time>2021-04-01T09:22:52.335Z</time>
      </trkpt>
      <trkpt lat="43.1338361" lon="-2.7908774">
        <ele>141.306</ele>
        <time>2021-04-01T09:22:52.393Z</time>
      </trkpt>
      <trkpt lat="43.1338364" lon="-2.7908796">
        <ele>141.336</ele>
        <time>2021-04-01T09:22:52.451Z</time>
      </trkpt>
      <trkpt lat="43.1338366" lon="-2.7908818">
        <ele>141.36</ele>
        <time>2021-04-01T09:22:52.509Z</time>
      </trkpt>
      <trkpt lat="43.1338369" lon="-2.7908838">
        <ele>141.368</ele>
        <time>2021-04-01T09:22:52.567Z</time>
      </trkpt>
      <trkpt lat="43.1338372" lon="-2.790886">
        <ele>141.371</ele>
        <time>2021-04-01T09:22:52.625Z</time>
      </trkpt>
      <trkpt lat="43.1338378" lon="-2.790888">
        <ele>141.346</ele>
        <time>2021-04-01T09:22:52.683Z</time>
      </trkpt>
      <trkpt lat="43.1338383" lon="-2.7908901">
        <ele>141.334</ele>
        <time>2021-04-01T09:22:52.741Z</time>
      </trkpt>
      <trkpt lat="43.1338387" lon="-2.7908923">
        <ele>141.338</ele>
        <time>2021-04-01T09:22:52.799Z</time>
      </trkpt>
      <trkpt lat="43.1338392" lon="-2.7908944">
        <ele>141.328</ele>
        <time>2021-04-01T09:22:52.857Z</time>
      </trkpt>
      <trkpt lat="43.1338398" lon="-2.7908964">
        <ele>141.329</ele>
        <time>2021-04-01T09:22:52.915Z</time>
      </trkpt>
      <trkpt lat="43.1338405" lon="-2.7908984">
        <ele>141.334</ele>
        <time>2021-04-01T09:22:52.973Z</time>
      </trkpt>
      <trkpt lat="43.1338409" lon="-2.7909007">
        <ele>141.353</ele>
        <time>2021-04-01T09:22:53.031Z</time>
      </trkpt>
      <trkpt lat="43.1338414" lon="-2.7909028">
        <ele>141.355</ele>
        <time>2021-04-01T09:22:53.089Z</time>
      </trkpt>
      <trkpt lat="43.1338419" lon="-2.7909048">
        <ele>141.342</ele>
        <time>2021-04-01T09:22:53.147Z</time>
      </trkpt>
      <trkpt lat="43.1338427" lon="-2.7909067">
        <ele>141.347</ele>
        <time>2021-04-01T09:22:53.205Z</time>
      </trkpt>
      <trkpt lat="43.133843" lon="-2.790909">
        <ele>141.367</ele>
        <time>2021-04-01T09:22:53.264Z</time>
      </trkpt>
      <trkpt lat="43.1338436" lon="-2.7909111">
        <ele>141.35</ele>
        <time>2021-04-01T09:22:53.319Z</time>
      </trkpt>
      <trkpt lat="43.133844" lon="-2.7909133">
        <ele>141.351</ele>
        <time>2021-04-01T09:22:53.374Z</time>
      </trkpt>
      <trkpt lat="43.1338447" lon="-2.7909151">
        <ele>141.355</ele>
        <time>2021-04-01T09:22:53.429Z</time>
      </trkpt>
      <trkpt lat="43.1338451" lon="-2.7909173">
        <ele>141.374</ele>
        <time>2021-04-01T09:22:53.484Z</time>
      </trkpt>
      <trkpt lat="43.1338454" lon="-2.7909195">
        <ele>141.374</ele>
        <time>2021-04-01T09:22:53.539Z</time>
      </trkpt>
      <trkpt lat="43.1338459" lon="-2.7909215">
        <ele>141.373</ele>
        <time>2021-04-01T09:22:53.594Z</time>
      </trkpt>
      <trkpt lat="43.1338463" lon="-2.7909237">
        <ele>141.393</ele>
        <time>2021-04-01T09:22:53.649Z</time>
      </trkpt>
      <trkpt lat="43.133847" lon="-2.7909258">
        <ele>141.383</ele>
        <time>2021-04-01T09:22:53.704Z</time>
      </trkpt>
      <trkpt lat="43.1338475" lon="-2.7909278">
        <ele>141.369</ele>
        <time>2021-04-01T09:22:53.759Z</time>
      </trkpt>
      <trkpt lat="43.1338481" lon="-2.7909299">
        <ele>141.371</ele>
        <time>2021-04-01T09:22:53.814Z</time>
      </trkpt>
      <trkpt lat="43.1338485" lon="-2.7909321">
        <ele>141.384</ele>
        <time>2021-04-01T09:22:53.869Z</time>
      </trkpt>
      <trkpt lat="43.1338489" lon="-2.7909342">
        <ele>141.407</ele>
        <time>2021-04-01T09:22:53.924Z</time>
      </trkpt>
      <trkpt lat="43.1338495" lon="-2.7909363">
        <ele>141.419</ele>
        <time>2021-04-01T09:22:53.979Z</time>
      </trkpt>
      <trkpt lat="43.1338497" lon="-2.7909386">
        <ele>141.443</ele>
        <time>2021-04-01T09:22:54.034Z</time>
      </trkpt>
      <trkpt lat="43.1338501" lon="-2.7909408">
        <ele>141.438</ele>
        <time>2021-04-01T09:22:54.089Z</time>
      </trkpt>
      <trkpt lat="43.1338508" lon="-2.7909433">
        <ele>141.436</ele>
        <time>2021-04-01T09:22:54.144Z</time>
      </trkpt>
      <trkpt lat="43.1338513" lon="-2.7909453">
        <ele>141.444</ele>
        <time>2021-04-01T09:22:54.199Z</time>
      </trkpt>
      <trkpt lat="43.1338517" lon="-2.7909475">
        <ele>141.439</ele>
        <time>2021-04-01T09:22:54.254Z</time>
      </trkpt>
      <trkpt lat="43.1338525" lon="-2.7909494">
        <ele>141.414</ele>
        <time>2021-04-01T09:22:54.309Z</time>
      </trkpt>
      <trkpt lat="43.1338528" lon="-2.7909516">
        <ele>141.41</ele>
        <time>2021-04-01T09:22:54.364Z</time>
      </trkpt>
      <trkpt lat="43.1338531" lon="-2.7909538">
        <ele>141.408</ele>
        <time>2021-04-01T09:22:54.419Z</time>
      </trkpt>
      <trkpt lat="43.1338537" lon="-2.790956">
        <ele>141.429</ele>
        <time>2021-04-01T09:22:54.474Z</time>
      </trkpt>
      <trkpt lat="43.1338542" lon="-2.7909584">
        <ele>141.435</ele>
        <time>2021-04-01T09:22:54.529Z</time>
      </trkpt>
      <trkpt lat="43.1338547" lon="-2.7909604">
        <ele>141.422</ele>
        <time>2021-04-01T09:22:54.584Z</time>
      </trkpt>
      <trkpt lat="43.1338552" lon="-2.7909625">
        <ele>141.423</ele>
        <time>2021-04-01T09:22:54.639Z</time>
      </trkpt>
      <trkpt lat="43.1338555" lon="-2.7909647">
        <ele>141.441</ele>
        <time>2021-04-01T09:22:54.694Z</time>
      </trkpt>
      <trkpt lat="43.1338561" lon="-2.7909667">
        <ele>141.449</ele>
        <time>2021-04-01T09:22:54.749Z</time>
      </trkpt>
      <trkpt lat="43.1338566" lon="-2.7909687">
        <ele>141.429</ele>
        <time>2021-04-01T09:22:54.804Z</time>
      </trkpt>
      <trkpt lat="43.133857" lon="-2.7909711">
        <ele>141.431</ele>
        <time>2021-04-01T09:22:54.859Z</time>
      </trkpt>
      <trkpt lat="43.1338576" lon="-2.7909731">
        <ele>141.438</ele>
        <time>2021-04-01T09:22:54.914Z</time>
      </trkpt>
      <trkpt lat="43.1338581" lon="-2.7909752">
        <ele>141.454</ele>
        <time>2021-04-01T09:22:54.969Z</time>
      </trkpt>
      <trkpt lat="43.1338585" lon="-2.7909766">
        <ele>141.399</ele>
        <time>2021-04-01T09:22:55.024Z</time>
      </trkpt>
      <trkpt lat="43.1338589" lon="-2.7909785">
        <ele>141.385</ele>
        <time>2021-04-01T09:22:55.079Z</time>
      </trkpt>
      <trkpt lat="43.1338593" lon="-2.7909803">
        <ele>141.38</ele>
        <time>2021-04-01T09:22:55.134Z</time>
      </trkpt>
      <trkpt lat="43.1338599" lon="-2.7909822">
        <ele>141.406</ele>
        <time>2021-04-01T09:22:55.189Z</time>
      </trkpt>
      <trkpt lat="43.1338604" lon="-2.7909843">
        <ele>141.398</ele>
        <time>2021-04-01T09:22:55.244Z</time>
      </trkpt>
      <trkpt lat="43.1338609" lon="-2.7909862">
        <ele>141.358</ele>
        <time>2021-04-01T09:22:55.299Z</time>
      </trkpt>
      <trkpt lat="43.1338612" lon="-2.7909878">
        <ele>141.3</ele>
        <time>2021-04-01T09:22:55.354Z</time>
      </trkpt>
      <trkpt lat="43.1338618" lon="-2.7909896">
        <ele>141.299</ele>
        <time>2021-04-01T09:22:55.409Z</time>
      </trkpt>
      <trkpt lat="43.1338629" lon="-2.7909912">
        <ele>141.26</ele>
        <time>2021-04-01T09:22:55.464Z</time>
      </trkpt>
      <trkpt lat="43.1338637" lon="-2.7909928">
        <ele>141.24</ele>
        <time>2021-04-01T09:22:55.519Z</time>
      </trkpt>
      <trkpt lat="43.1338638" lon="-2.7909949">
        <ele>141.253</ele>
        <time>2021-04-01T09:22:55.574Z</time>
      </trkpt>
      <trkpt lat="43.1338641" lon="-2.7909973">
        <ele>141.279</ele>
        <time>2021-04-01T09:22:55.629Z</time>
      </trkpt>
      <trkpt lat="43.1338647" lon="-2.7909992">
        <ele>141.263</ele>
        <time>2021-04-01T09:22:55.684Z</time>
      </trkpt>
      <trkpt lat="43.1338652" lon="-2.7910014">
        <ele>141.26</ele>
        <time>2021-04-01T09:22:55.739Z</time>
      </trkpt>
      <trkpt lat="43.1338656" lon="-2.7910031">
        <ele>141.247</ele>
        <time>2021-04-01T09:22:55.794Z</time>
      </trkpt>
      <trkpt lat="43.133866" lon="-2.791005">
        <ele>141.228</ele>
        <time>2021-04-01T09:22:55.849Z</time>
      </trkpt>
      <trkpt lat="43.1338663" lon="-2.7910075">
        <ele>141.243</ele>
        <time>2021-04-01T09:22:55.904Z</time>
      </trkpt>
      <trkpt lat="43.1338665" lon="-2.7910092">
        <ele>141.199</ele>
        <time>2021-04-01T09:22:55.959Z</time>
      </trkpt>
      <trkpt lat="43.1338672" lon="-2.7910111">
        <ele>141.183</ele>
        <time>2021-04-01T09:22:56.014Z</time>
      </trkpt>
      <trkpt lat="43.133868" lon="-2.791013">
        <ele>141.177</ele>
        <time>2021-04-01T09:22:56.069Z</time>
      </trkpt>
      <trkpt lat="43.1338685" lon="-2.7910154">
        <ele>141.187</ele>
        <time>2021-04-01T09:22:56.124Z</time>
      </trkpt>
      <trkpt lat="43.1338686" lon="-2.791018">
        <ele>141.214</ele>
        <time>2021-04-01T09:22:56.179Z</time>
      </trkpt>
      <trkpt lat="43.1338693" lon="-2.7910202">
        <ele>141.195</ele>
        <time>2021-04-01T09:22:56.234Z</time>
      </trkpt>
      <trkpt lat="43.13387" lon="-2.7910222">
        <ele>141.18</ele>
        <time>2021-04-01T09:22:56.289Z</time>
      </trkpt>
      <trkpt lat="43.1338704" lon="-2.7910246">
        <ele>141.238</ele>
        <time>2021-04-01T09:22:56.347Z</time>
      </trkpt>
      <trkpt lat="43.1338707" lon="-2.7910268">
        <ele>141.242</ele>
        <time>2021-04-01T09:22:56.405Z</time>
      </trkpt>
      <trkpt lat="43.133871" lon="-2.7910288">
        <ele>141.213</ele>
        <time>2021-04-01T09:22:56.463Z</time>
      </trkpt>
      <trkpt lat="43.1338717" lon="-2.7910305">
        <ele>141.175</ele>
        <time>2021-04-01T09:22:56.521Z</time>
      </trkpt>
      <trkpt lat="43.1338724" lon="-2.7910322">
        <ele>141.133</ele>
        <time>2021-04-01T09:22:56.580Z</time>
      </trkpt>
      <trkpt lat="43.1338727" lon="-2.791034">
        <ele>141.067</ele>
        <time>2021-04-01T09:22:56.638Z</time>
      </trkpt>
      <trkpt lat="43.1338732" lon="-2.7910358">
        <ele>141.017</ele>
        <time>2021-04-01T09:22:56.696Z</time>
      </trkpt>
      <trkpt lat="43.1338738" lon="-2.7910376">
        <ele>141.031</ele>
        <time>2021-04-01T09:22:56.754Z</time>
      </trkpt>
      <trkpt lat="43.133874" lon="-2.7910394">
        <ele>140.987</ele>
        <time>2021-04-01T09:22:56.813Z</time>
      </trkpt>
      <trkpt lat="43.1338743" lon="-2.7910409">
        <ele>140.911</ele>
        <time>2021-04-01T09:22:56.871Z</time>
      </trkpt>
      <trkpt lat="43.1338746" lon="-2.7910424">
        <ele>140.816</ele>
        <time>2021-04-01T09:22:56.929Z</time>
      </trkpt>
      <trkpt lat="43.133875" lon="-2.7910438">
        <ele>140.727</ele>
        <time>2021-04-01T09:22:56.987Z</time>
      </trkpt>
      <trkpt lat="43.1338755" lon="-2.7910449">
        <ele>140.622</ele>
        <time>2021-04-01T09:22:57.046Z</time>
      </trkpt>
      <trkpt lat="43.1338759" lon="-2.7910473">
        <ele>140.598</ele>
        <time>2021-04-01T09:22:57.104Z</time>
      </trkpt>
      <trkpt lat="43.1338763" lon="-2.7910491">
        <ele>140.548</ele>
        <time>2021-04-01T09:22:57.162Z</time>
      </trkpt>
      <trkpt lat="43.1338774" lon="-2.7910506">
        <ele>140.49</ele>
        <time>2021-04-01T09:22:57.220Z</time>
      </trkpt>
      <trkpt lat="43.1338779" lon="-2.7910529">
        <ele>140.489</ele>
        <time>2021-04-01T09:22:57.279Z</time>
      </trkpt>
      <trkpt lat="43.1338785" lon="-2.791055">
        <ele>140.465</ele>
        <time>2021-04-01T09:22:57.331Z</time>
      </trkpt>
      <trkpt lat="43.1338792" lon="-2.7910573">
        <ele>140.458</ele>
        <time>2021-04-01T09:22:57.383Z</time>
      </trkpt>
      <trkpt lat="43.1338799" lon="-2.7910594">
        <ele>140.489</ele>
        <time>2021-04-01T09:22:57.435Z</time>
      </trkpt>
      <trkpt lat="43.1338805" lon="-2.7910613">
        <ele>140.474</ele>
        <time>2021-04-01T09:22:57.487Z</time>
      </trkpt>
      <trkpt lat="43.133881" lon="-2.7910635">
        <ele>140.454</ele>
        <time>2021-04-01T09:22:57.539Z</time>
      </trkpt>
      <trkpt lat="43.1338815" lon="-2.7910656">
        <ele>140.478</ele>
        <time>2021-04-01T09:22:57.591Z</time>
      </trkpt>
      <trkpt lat="43.133882" lon="-2.7910675">
        <ele>140.467</ele>
        <time>2021-04-01T09:22:57.643Z</time>
      </trkpt>
      <trkpt lat="43.1338826" lon="-2.7910694">
        <ele>140.435</ele>
        <time>2021-04-01T09:22:57.695Z</time>
      </trkpt>
      <trkpt lat="43.1338831" lon="-2.7910716">
        <ele>140.413</ele>
        <time>2021-04-01T09:22:57.747Z</time>
      </trkpt>
      <trkpt lat="43.1338835" lon="-2.7910734">
        <ele>140.358</ele>
        <time>2021-04-01T09:22:57.800Z</time>
      </trkpt>
      <trkpt lat="43.1338838" lon="-2.7910754">
        <ele>140.355</ele>
        <time>2021-04-01T09:22:57.852Z</time>
      </trkpt>
      <trkpt lat="43.1338843" lon="-2.7910774">
        <ele>140.356</ele>
        <time>2021-04-01T09:22:57.904Z</time>
      </trkpt>
      <trkpt lat="43.133885" lon="-2.7910785">
        <ele>140.321</ele>
        <time>2021-04-01T09:22:57.956Z</time>
      </trkpt>
      <trkpt lat="43.1338856" lon="-2.7910804">
        <ele>140.285</ele>
        <time>2021-04-01T09:22:58.008Z</time>
      </trkpt>
      <trkpt lat="43.1338862" lon="-2.7910819">
        <ele>140.245</ele>
        <time>2021-04-01T09:22:58.060Z</time>
      </trkpt>
      <trkpt lat="43.1338865" lon="-2.7910835">
        <ele>140.162</ele>
        <time>2021-04-01T09:22:58.112Z</time>
      </trkpt>
      <trkpt lat="43.1338872" lon="-2.7910854">
        <ele>140.142</ele>
        <time>2021-04-01T09:22:58.164Z</time>
      </trkpt>
      <trkpt lat="43.133888" lon="-2.7910869">
        <ele>140.096</ele>
        <time>2021-04-01T09:22:58.216Z</time>
      </trkpt>
      <trkpt lat="43.1338885" lon="-2.7910888">
        <ele>140.059</ele>
        <time>2021-04-01T09:22:58.269Z</time>
      </trkpt>
      <trkpt lat="43.1338889" lon="-2.791091">
        <ele>140.057</ele>
        <time>2021-04-01T09:22:58.324Z</time>
      </trkpt>
      <trkpt lat="43.1338895" lon="-2.7910926">
        <ele>140.048</ele>
        <time>2021-04-01T09:22:58.379Z</time>
      </trkpt>
      <trkpt lat="43.1338899" lon="-2.7910941">
        <ele>140.008</ele>
        <time>2021-04-01T09:22:58.434Z</time>
      </trkpt>
      <trkpt lat="43.1338903" lon="-2.7910955">
        <ele>139.893</ele>
        <time>2021-04-01T09:22:58.489Z</time>
      </trkpt>
      <trkpt lat="43.1338913" lon="-2.7910975">
        <ele>139.843</ele>
        <time>2021-04-01T09:22:58.544Z</time>
      </trkpt>
      <trkpt lat="43.1338921" lon="-2.7910997">
        <ele>139.884</ele>
        <time>2021-04-01T09:22:58.599Z</time>
      </trkpt>
      <trkpt lat="43.1338929" lon="-2.7911021">
        <ele>139.942</ele>
        <time>2021-04-01T09:22:58.654Z</time>
      </trkpt>
      <trkpt lat="43.1338933" lon="-2.791104">
        <ele>139.951</ele>
        <time>2021-04-01T09:22:58.709Z</time>
      </trkpt>
      <trkpt lat="43.1338937" lon="-2.7911058">
        <ele>139.902</ele>
        <time>2021-04-01T09:22:58.764Z</time>
      </trkpt>
      <trkpt lat="43.1338944" lon="-2.7911078">
        <ele>139.87</ele>
        <time>2021-04-01T09:22:58.819Z</time>
      </trkpt>
      <trkpt lat="43.1338948" lon="-2.7911101">
        <ele>139.892</ele>
        <time>2021-04-01T09:22:58.874Z</time>
      </trkpt>
      <trkpt lat="43.1338951" lon="-2.7911121">
        <ele>139.853</ele>
        <time>2021-04-01T09:22:58.929Z</time>
      </trkpt>
      <trkpt lat="43.1338954" lon="-2.791114">
        <ele>139.833</ele>
        <time>2021-04-01T09:22:58.984Z</time>
      </trkpt>
      <trkpt lat="43.133896" lon="-2.7911159">
        <ele>139.8</ele>
        <time>2021-04-01T09:22:59.039Z</time>
      </trkpt>
      <trkpt lat="43.1338965" lon="-2.7911177">
        <ele>139.779</ele>
        <time>2021-04-01T09:22:59.094Z</time>
      </trkpt>
      <trkpt lat="43.1338968" lon="-2.7911197">
        <ele>139.73</ele>
        <time>2021-04-01T09:22:59.149Z</time>
      </trkpt>
      <trkpt lat="43.1338969" lon="-2.791122">
        <ele>139.673</ele>
        <time>2021-04-01T09:22:59.204Z</time>
      </trkpt>
      <trkpt lat="43.1338975" lon="-2.7911243">
        <ele>139.62</ele>
        <time>2021-04-01T09:22:59.259Z</time>
      </trkpt>
      <trkpt lat="43.1338982" lon="-2.7911265">
        <ele>139.655</ele>
        <time>2021-04-01T09:22:59.311Z</time>
      </trkpt>
      <trkpt lat="43.1338986" lon="-2.7911282">
        <ele>139.621</ele>
        <time>2021-04-01T09:22:59.363Z</time>
      </trkpt>
      <trkpt lat="43.133899" lon="-2.7911301">
        <ele>139.601</ele>
        <time>2021-04-01T09:22:59.415Z</time>
      </trkpt>
      <trkpt lat="43.1338994" lon="-2.7911321">
        <ele>139.569</ele>
        <time>2021-04-01T09:22:59.467Z</time>
      </trkpt>
      <trkpt lat="43.1339" lon="-2.7911339">
        <ele>139.551</ele>
        <time>2021-04-01T09:22:59.519Z</time>
      </trkpt>
      <trkpt lat="43.1339001" lon="-2.7911357">
        <ele>139.523</ele>
        <time>2021-04-01T09:22:59.571Z</time>
      </trkpt>
      <trkpt lat="43.1339004" lon="-2.791138">
        <ele>139.536</ele>
        <time>2021-04-01T09:22:59.623Z</time>
      </trkpt>
      <trkpt lat="43.1339007" lon="-2.7911403">
        <ele>139.51</ele>
        <time>2021-04-01T09:22:59.675Z</time>
      </trkpt>
      <trkpt lat="43.133901" lon="-2.7911426">
        <ele>139.505</ele>
        <time>2021-04-01T09:22:59.727Z</time>
      </trkpt>
      <trkpt lat="43.1339015" lon="-2.7911445">
        <ele>139.508</ele>
        <time>2021-04-01T09:22:59.780Z</time>
      </trkpt>
      <trkpt lat="43.1339017" lon="-2.7911466">
        <ele>139.452</ele>
        <time>2021-04-01T09:22:59.832Z</time>
      </trkpt>
      <trkpt lat="43.1339024" lon="-2.7911487">
        <ele>139.438</ele>
        <time>2021-04-01T09:22:59.884Z</time>
      </trkpt>
      <trkpt lat="43.1339031" lon="-2.791151">
        <ele>139.464</ele>
        <time>2021-04-01T09:22:59.936Z</time>
      </trkpt>
      <trkpt lat="43.1339038" lon="-2.791153">
        <ele>139.442</ele>
        <time>2021-04-01T09:22:59.988Z</time>
      </trkpt>
      <trkpt lat="43.1339044" lon="-2.7911552">
        <ele>139.443</ele>
        <time>2021-04-01T09:23:00.040Z</time>
      </trkpt>
      <trkpt lat="43.1339048" lon="-2.7911576">
        <ele>139.444</ele>
        <time>2021-04-01T09:23:00.092Z</time>
      </trkpt>
      <trkpt lat="43.1339053" lon="-2.7911599">
        <ele>139.436</ele>
        <time>2021-04-01T09:23:00.144Z</time>
      </trkpt>
      <trkpt lat="43.1339057" lon="-2.7911624">
        <ele>139.456</ele>
        <time>2021-04-01T09:23:00.196Z</time>
      </trkpt>
      <trkpt lat="43.1339064" lon="-2.7911648">
        <ele>139.468</ele>
        <time>2021-04-01T09:23:00.249Z</time>
      </trkpt>
      <trkpt lat="43.1339072" lon="-2.791167">
        <ele>139.485</ele>
        <time>2021-04-01T09:23:00.304Z</time>
      </trkpt>
      <trkpt lat="43.1339078" lon="-2.7911697">
        <ele>139.562</ele>
        <time>2021-04-01T09:23:00.359Z</time>
      </trkpt>
      <trkpt lat="43.1339083" lon="-2.7911723">
        <ele>139.572</ele>
        <time>2021-04-01T09:23:00.414Z</time>
      </trkpt>
      <trkpt lat="43.1339089" lon="-2.7911745">
        <ele>139.589</ele>
        <time>2021-04-01T09:23:00.469Z</time>
      </trkpt>
      <trkpt lat="43.1339094" lon="-2.7911767">
        <ele>139.584</ele>
        <time>2021-04-01T09:23:00.524Z</time>
      </trkpt>
      <trkpt lat="43.1339097" lon="-2.7911792">
        <ele>139.593</ele>
        <time>2021-04-01T09:23:00.579Z</time>
      </trkpt>
      <trkpt lat="43.13391" lon="-2.7911816">
        <ele>139.585</ele>
        <time>2021-04-01T09:23:00.634Z</time>
      </trkpt>
      <trkpt lat="43.1339107" lon="-2.7911837">
        <ele>139.619</ele>
        <time>2021-04-01T09:23:00.689Z</time>
      </trkpt>
      <trkpt lat="43.1339112" lon="-2.7911858">
        <ele>139.614</ele>
        <time>2021-04-01T09:23:00.744Z</time>
      </trkpt>
      <trkpt lat="43.1339116" lon="-2.7911882">
        <ele>139.658</ele>
        <time>2021-04-01T09:23:00.799Z</time>
      </trkpt>
      <trkpt lat="43.133912" lon="-2.7911903">
        <ele>139.655</ele>
        <time>2021-04-01T09:23:00.854Z</time>
      </trkpt>
      <trkpt lat="43.1339125" lon="-2.7911922">
        <ele>139.629</ele>
        <time>2021-04-01T09:23:00.909Z</time>
      </trkpt>
      <trkpt lat="43.1339129" lon="-2.7911945">
        <ele>139.593</ele>
        <time>2021-04-01T09:23:00.964Z</time>
      </trkpt>
      <trkpt lat="43.1339134" lon="-2.791197">
        <ele>139.654</ele>
        <time>2021-04-01T09:23:01.019Z</time>
      </trkpt>
      <trkpt lat="43.133914" lon="-2.7911994">
        <ele>139.721</ele>
        <time>2021-04-01T09:23:01.074Z</time>
      </trkpt>
      <trkpt lat="43.1339146" lon="-2.791202">
        <ele>139.733</ele>
        <time>2021-04-01T09:23:01.129Z</time>
      </trkpt>
      <trkpt lat="43.1339153" lon="-2.7912041">
        <ele>139.731</ele>
        <time>2021-04-01T09:23:01.184Z</time>
      </trkpt>
      <trkpt lat="43.133916" lon="-2.7912062">
        <ele>139.704</ele>
        <time>2021-04-01T09:23:01.239Z</time>
      </trkpt>
      <trkpt lat="43.1339167" lon="-2.7912086">
        <ele>139.73</ele>
        <time>2021-04-01T09:23:01.297Z</time>
      </trkpt>
      <trkpt lat="43.1339171" lon="-2.7912112">
        <ele>139.71</ele>
        <time>2021-04-01T09:23:01.355Z</time>
      </trkpt>
      <trkpt lat="43.1339176" lon="-2.7912135">
        <ele>139.726</ele>
        <time>2021-04-01T09:23:01.413Z</time>
      </trkpt>
      <trkpt lat="43.1339181" lon="-2.7912159">
        <ele>139.751</ele>
        <time>2021-04-01T09:23:01.471Z</time>
      </trkpt>
      <trkpt lat="43.1339186" lon="-2.7912183">
        <ele>139.763</ele>
        <time>2021-04-01T09:23:01.529Z</time>
      </trkpt>
      <trkpt lat="43.1339191" lon="-2.7912209">
        <ele>139.81</ele>
        <time>2021-04-01T09:23:01.587Z</time>
      </trkpt>
      <trkpt lat="43.1339199" lon="-2.7912231">
        <ele>139.816</ele>
        <time>2021-04-01T09:23:01.645Z</time>
      </trkpt>
      <trkpt lat="43.1339202" lon="-2.7912254">
        <ele>139.795</ele>
        <time>2021-04-01T09:23:01.703Z</time>
      </trkpt>
      <trkpt lat="43.1339208" lon="-2.7912277">
        <ele>139.81</ele>
        <time>2021-04-01T09:23:01.761Z</time>
      </trkpt>
      <trkpt lat="43.1339211" lon="-2.79123">
        <ele>139.848</ele>
        <time>2021-04-01T09:23:01.819Z</time>
      </trkpt>
      <trkpt lat="43.1339213" lon="-2.7912323">
        <ele>139.923</ele>
        <time>2021-04-01T09:23:01.877Z</time>
      </trkpt>
      <trkpt lat="43.1339216" lon="-2.7912347">
        <ele>139.918</ele>
        <time>2021-04-01T09:23:01.935Z</time>
      </trkpt>
      <trkpt lat="43.1339218" lon="-2.7912371">
        <ele>139.946</ele>
        <time>2021-04-01T09:23:01.993Z</time>
      </trkpt>
      <trkpt lat="43.1339221" lon="-2.7912393">
        <ele>139.948</ele>
        <time>2021-04-01T09:23:02.051Z</time>
      </trkpt>
      <trkpt lat="43.1339225" lon="-2.7912413">
        <ele>139.933</ele>
        <time>2021-04-01T09:23:02.109Z</time>
      </trkpt>
      <trkpt lat="43.133923" lon="-2.7912433">
        <ele>139.93</ele>
        <time>2021-04-01T09:23:02.167Z</time>
      </trkpt>
      <trkpt lat="43.1339232" lon="-2.7912455">
        <ele>139.923</ele>
        <time>2021-04-01T09:23:02.225Z</time>
      </trkpt>
      <trkpt lat="43.1339235" lon="-2.7912475">
        <ele>139.906</ele>
        <time>2021-04-01T09:23:02.284Z</time>
      </trkpt>
      <trkpt lat="43.1339238" lon="-2.7912496">
        <ele>139.931</ele>
        <time>2021-04-01T09:23:02.339Z</time>
      </trkpt>
      <trkpt lat="43.1339238" lon="-2.7912517">
        <ele>139.927</ele>
        <time>2021-04-01T09:23:02.394Z</time>
      </trkpt>
      <trkpt lat="43.1339242" lon="-2.791254">
        <ele>139.907</ele>
        <time>2021-04-01T09:23:02.449Z</time>
      </trkpt>
      <trkpt lat="43.1339248" lon="-2.7912561">
        <ele>139.906</ele>
        <time>2021-04-01T09:23:02.504Z</time>
      </trkpt>
      <trkpt lat="43.1339253" lon="-2.7912581">
        <ele>139.904</ele>
        <time>2021-04-01T09:23:02.559Z</time>
      </trkpt>
      <trkpt lat="43.1339257" lon="-2.7912602">
        <ele>139.884</ele>
        <time>2021-04-01T09:23:02.614Z</time>
      </trkpt>
      <trkpt lat="43.1339263" lon="-2.7912619">
        <ele>139.838</ele>
        <time>2021-04-01T09:23:02.669Z</time>
      </trkpt>
      <trkpt lat="43.1339267" lon="-2.7912638">
        <ele>139.857</ele>
        <time>2021-04-01T09:23:02.724Z</time>
      </trkpt>
      <trkpt lat="43.1339267" lon="-2.7912658">
        <ele>139.862</ele>
        <time>2021-04-01T09:23:02.779Z</time>
      </trkpt>
      <trkpt lat="43.133927" lon="-2.7912679">
        <ele>139.859</ele>
        <time>2021-04-01T09:23:02.834Z</time>
      </trkpt>
      <trkpt lat="43.1339276" lon="-2.79127">
        <ele>139.864</ele>
        <time>2021-04-01T09:23:02.889Z</time>
      </trkpt>
      <trkpt lat="43.1339282" lon="-2.7912719">
        <ele>139.839</ele>
        <time>2021-04-01T09:23:02.944Z</time>
      </trkpt>
      <trkpt lat="43.1339286" lon="-2.7912737">
        <ele>139.801</ele>
        <time>2021-04-01T09:23:02.999Z</time>
      </trkpt>
      <trkpt lat="43.133929" lon="-2.7912758">
        <ele>139.762</ele>
        <time>2021-04-01T09:23:03.054Z</time>
      </trkpt>
      <trkpt lat="43.1339294" lon="-2.7912779">
        <ele>139.78</ele>
        <time>2021-04-01T09:23:03.109Z</time>
      </trkpt>
      <trkpt lat="43.1339299" lon="-2.7912797">
        <ele>139.746</ele>
        <time>2021-04-01T09:23:03.164Z</time>
      </trkpt>
      <trkpt lat="43.1339302" lon="-2.7912823">
        <ele>139.783</ele>
        <time>2021-04-01T09:23:03.219Z</time>
      </trkpt>
      <trkpt lat="43.1339304" lon="-2.7912844">
        <ele>139.761</ele>
        <time>2021-04-01T09:23:03.274Z</time>
      </trkpt>
      <trkpt lat="43.1339312" lon="-2.7912868">
        <ele>139.775</ele>
        <time>2021-04-01T09:23:03.329Z</time>
      </trkpt>
      <trkpt lat="43.1339318" lon="-2.791289">
        <ele>139.752</ele>
        <time>2021-04-01T09:23:03.384Z</time>
      </trkpt>
      <trkpt lat="43.1339325" lon="-2.7912911">
        <ele>139.761</ele>
        <time>2021-04-01T09:23:03.439Z</time>
      </trkpt>
      <trkpt lat="43.1339329" lon="-2.7912929">
        <ele>139.716</ele>
        <time>2021-04-01T09:23:03.494Z</time>
      </trkpt>
      <trkpt lat="43.1339332" lon="-2.7912949">
        <ele>139.693</ele>
        <time>2021-04-01T09:23:03.549Z</time>
      </trkpt>
      <trkpt lat="43.1339337" lon="-2.7912969">
        <ele>139.661</ele>
        <time>2021-04-01T09:23:03.604Z</time>
      </trkpt>
      <trkpt lat="43.1339344" lon="-2.7912992">
        <ele>139.688</ele>
        <time>2021-04-01T09:23:03.659Z</time>
      </trkpt>
      <trkpt lat="43.133935" lon="-2.7913016">
        <ele>139.684</ele>
        <time>2021-04-01T09:23:03.714Z</time>
      </trkpt>
      <trkpt lat="43.1339355" lon="-2.7913041">
        <ele>139.698</ele>
        <time>2021-04-01T09:23:03.769Z</time>
      </trkpt>
      <trkpt lat="43.1339358" lon="-2.7913064">
        <ele>139.718</ele>
        <time>2021-04-01T09:23:03.824Z</time>
      </trkpt>
      <trkpt lat="43.1339362" lon="-2.7913086">
        <ele>139.743</ele>
        <time>2021-04-01T09:23:03.879Z</time>
      </trkpt>
      <trkpt lat="43.1339369" lon="-2.7913105">
        <ele>139.758</ele>
        <time>2021-04-01T09:23:03.934Z</time>
      </trkpt>
      <trkpt lat="43.1339378" lon="-2.7913129">
        <ele>139.794</ele>
        <time>2021-04-01T09:23:03.989Z</time>
      </trkpt>
      <trkpt lat="43.1339382" lon="-2.7913151">
        <ele>139.777</ele>
        <time>2021-04-01T09:23:04.044Z</time>
      </trkpt>
      <trkpt lat="43.1339386" lon="-2.7913173">
        <ele>139.788</ele>
        <time>2021-04-01T09:23:04.099Z</time>
      </trkpt>
      <trkpt lat="43.1339392" lon="-2.7913197">
        <ele>139.86</ele>
        <time>2021-04-01T09:23:04.154Z</time>
      </trkpt>
      <trkpt lat="43.1339398" lon="-2.7913219">
        <ele>139.854</ele>
        <time>2021-04-01T09:23:04.209Z</time>
      </trkpt>
      <trkpt lat="43.1339403" lon="-2.791324">
        <ele>139.844</ele>
        <time>2021-04-01T09:23:04.264Z</time>
      </trkpt>
      <trkpt lat="43.1339408" lon="-2.791326">
        <ele>139.829</ele>
        <time>2021-04-01T09:23:04.319Z</time>
      </trkpt>
      <trkpt lat="43.1339413" lon="-2.791328">
        <ele>139.831</ele>
        <time>2021-04-01T09:23:04.374Z</time>
      </trkpt>
      <trkpt lat="43.133942" lon="-2.79133">
        <ele>139.816</ele>
        <time>2021-04-01T09:23:04.429Z</time>
      </trkpt>
      <trkpt lat="43.1339423" lon="-2.7913323">
        <ele>139.787</ele>
        <time>2021-04-01T09:23:04.484Z</time>
      </trkpt>
      <trkpt lat="43.133943" lon="-2.7913343">
        <ele>139.765</ele>
        <time>2021-04-01T09:23:04.539Z</time>
      </trkpt>
      <trkpt lat="43.1339437" lon="-2.7913364">
        <ele>139.741</ele>
        <time>2021-04-01T09:23:04.594Z</time>
      </trkpt>
      <trkpt lat="43.1339444" lon="-2.7913384">
        <ele>139.707</ele>
        <time>2021-04-01T09:23:04.649Z</time>
      </trkpt>
      <trkpt lat="43.1339449" lon="-2.7913404">
        <ele>139.712</ele>
        <time>2021-04-01T09:23:04.704Z</time>
      </trkpt>
      <trkpt lat="43.1339455" lon="-2.7913424">
        <ele>139.701</ele>
        <time>2021-04-01T09:23:04.759Z</time>
      </trkpt>
      <trkpt lat="43.1339465" lon="-2.7913449">
        <ele>139.735</ele>
        <time>2021-04-01T09:23:04.814Z</time>
      </trkpt>
      <trkpt lat="43.1339471" lon="-2.7913474">
        <ele>139.762</ele>
        <time>2021-04-01T09:23:04.869Z</time>
      </trkpt>
      <trkpt lat="43.1339476" lon="-2.7913498">
        <ele>139.792</ele>
        <time>2021-04-01T09:23:04.924Z</time>
      </trkpt>
      <trkpt lat="43.1339483" lon="-2.7913525">
        <ele>139.83</ele>
        <time>2021-04-01T09:23:04.979Z</time>
      </trkpt>
      <trkpt lat="43.133949" lon="-2.791355">
        <ele>139.887</ele>
        <time>2021-04-01T09:23:05.034Z</time>
      </trkpt>
      <trkpt lat="43.1339495" lon="-2.7913575">
        <ele>139.931</ele>
        <time>2021-04-01T09:23:05.089Z</time>
      </trkpt>
      <trkpt lat="43.1339502" lon="-2.7913599">
        <ele>139.984</ele>
        <time>2021-04-01T09:23:05.144Z</time>
      </trkpt>
      <trkpt lat="43.1339507" lon="-2.7913623">
        <ele>140.002</ele>
        <time>2021-04-01T09:23:05.199Z</time>
      </trkpt>
      <trkpt lat="43.1339512" lon="-2.7913647">
        <ele>140.016</ele>
        <time>2021-04-01T09:23:05.254Z</time>
      </trkpt>
      <trkpt lat="43.1339518" lon="-2.791367">
        <ele>140.023</ele>
        <time>2021-04-01T09:23:05.312Z</time>
      </trkpt>
      <trkpt lat="43.1339523" lon="-2.7913695">
        <ele>140.041</ele>
        <time>2021-04-01T09:23:05.370Z</time>
      </trkpt>
      <trkpt lat="43.1339527" lon="-2.7913722">
        <ele>140.069</ele>
        <time>2021-04-01T09:23:05.428Z</time>
      </trkpt>
      <trkpt lat="43.1339532" lon="-2.7913751">
        <ele>140.164</ele>
        <time>2021-04-01T09:23:05.486Z</time>
      </trkpt>
      <trkpt lat="43.1339538" lon="-2.7913775">
        <ele>140.221</ele>
        <time>2021-04-01T09:23:05.544Z</time>
      </trkpt>
      <trkpt lat="43.1339542" lon="-2.7913797">
        <ele>140.238</ele>
        <time>2021-04-01T09:23:05.602Z</time>
      </trkpt>
      <trkpt lat="43.1339545" lon="-2.7913821">
        <ele>140.223</ele>
        <time>2021-04-01T09:23:05.660Z</time>
      </trkpt>
      <trkpt lat="43.133955" lon="-2.7913849">
        <ele>140.268</ele>
        <time>2021-04-01T09:23:05.718Z</time>
      </trkpt>
      <trkpt lat="43.1339553" lon="-2.7913873">
        <ele>140.288</ele>
        <time>2021-04-01T09:23:05.776Z</time>
      </trkpt>
      <trkpt lat="43.1339556" lon="-2.7913902">
        <ele>140.352</ele>
        <time>2021-04-01T09:23:05.834Z</time>
      </trkpt>
      <trkpt lat="43.133956" lon="-2.7913926">
        <ele>140.354</ele>
        <time>2021-04-01T09:23:05.892Z</time>
      </trkpt>
      <trkpt lat="43.1339566" lon="-2.7913948">
        <ele>140.372</ele>
        <time>2021-04-01T09:23:05.950Z</time>
      </trkpt>
      <trkpt lat="43.1339571" lon="-2.7913971">
        <ele>140.389</ele>
        <time>2021-04-01T09:23:06.008Z</time>
      </trkpt>
      <trkpt lat="43.1339576" lon="-2.7913992">
        <ele>140.397</ele>
        <time>2021-04-01T09:23:06.066Z</time>
      </trkpt>
      <trkpt lat="43.1339581" lon="-2.7914014">
        <ele>140.399</ele>
        <time>2021-04-01T09:23:06.124Z</time>
      </trkpt>
      <trkpt lat="43.1339587" lon="-2.7914035">
        <ele>140.372</ele>
        <time>2021-04-01T09:23:06.182Z</time>
      </trkpt>
      <trkpt lat="43.133959" lon="-2.7914058">
        <ele>140.377</ele>
        <time>2021-04-01T09:23:06.240Z</time>
      </trkpt>
      <trkpt lat="43.1339597" lon="-2.7914083">
        <ele>140.404</ele>
        <time>2021-04-01T09:23:06.299Z</time>
      </trkpt>
      <trkpt lat="43.1339602" lon="-2.7914104">
        <ele>140.421</ele>
        <time>2021-04-01T09:23:06.351Z</time>
      </trkpt>
      <trkpt lat="43.1339609" lon="-2.7914127">
        <ele>140.42</ele>
        <time>2021-04-01T09:23:06.403Z</time>
      </trkpt>
      <trkpt lat="43.1339615" lon="-2.791415">
        <ele>140.431</ele>
        <time>2021-04-01T09:23:06.455Z</time>
      </trkpt>
      <trkpt lat="43.1339622" lon="-2.7914171">
        <ele>140.428</ele>
        <time>2021-04-01T09:23:06.507Z</time>
      </trkpt>
      <trkpt lat="43.1339631" lon="-2.7914196">
        <ele>140.48</ele>
        <time>2021-04-01T09:23:06.559Z</time>
      </trkpt>
      <trkpt lat="43.1339637" lon="-2.7914221">
        <ele>140.501</ele>
        <time>2021-04-01T09:23:06.611Z</time>
      </trkpt>
      <trkpt lat="43.1339643" lon="-2.7914243">
        <ele>140.494</ele>
        <time>2021-04-01T09:23:06.663Z</time>
      </trkpt>
      <trkpt lat="43.1339647" lon="-2.7914265">
        <ele>140.509</ele>
        <time>2021-04-01T09:23:06.715Z</time>
      </trkpt>
      <trkpt lat="43.1339654" lon="-2.7914288">
        <ele>140.523</ele>
        <time>2021-04-01T09:23:06.767Z</time>
      </trkpt>
      <trkpt lat="43.1339659" lon="-2.791431">
        <ele>140.535</ele>
        <time>2021-04-01T09:23:06.820Z</time>
      </trkpt>
      <trkpt lat="43.1339663" lon="-2.7914332">
        <ele>140.54</ele>
        <time>2021-04-01T09:23:06.872Z</time>
      </trkpt>
      <trkpt lat="43.1339668" lon="-2.7914353">
        <ele>140.519</ele>
        <time>2021-04-01T09:23:06.924Z</time>
      </trkpt>
      <trkpt lat="43.1339673" lon="-2.7914377">
        <ele>140.543</ele>
        <time>2021-04-01T09:23:06.976Z</time>
      </trkpt>
      <trkpt lat="43.1339678" lon="-2.7914403">
        <ele>140.575</ele>
        <time>2021-04-01T09:23:07.028Z</time>
      </trkpt>
      <trkpt lat="43.1339681" lon="-2.7914428">
        <ele>140.588</ele>
        <time>2021-04-01T09:23:07.080Z</time>
      </trkpt>
      <trkpt lat="43.1339688" lon="-2.7914449">
        <ele>140.584</ele>
        <time>2021-04-01T09:23:07.132Z</time>
      </trkpt>
      <trkpt lat="43.1339693" lon="-2.7914472">
        <ele>140.612</ele>
        <time>2021-04-01T09:23:07.184Z</time>
      </trkpt>
      <trkpt lat="43.1339697" lon="-2.7914495">
        <ele>140.613</ele>
        <time>2021-04-01T09:23:07.236Z</time>
      </trkpt>
      <trkpt lat="43.1339702" lon="-2.7914518">
        <ele>140.603</ele>
        <time>2021-04-01T09:23:07.289Z</time>
      </trkpt>
      <trkpt lat="43.1339706" lon="-2.7914542">
        <ele>140.613</ele>
        <time>2021-04-01T09:23:07.344Z</time>
      </trkpt>
      <trkpt lat="43.1339712" lon="-2.7914567">
        <ele>140.657</ele>
        <time>2021-04-01T09:23:07.399Z</time>
      </trkpt>
      <trkpt lat="43.133972" lon="-2.7914592">
        <ele>140.671</ele>
        <time>2021-04-01T09:23:07.454Z</time>
      </trkpt>
      <trkpt lat="43.1339726" lon="-2.7914615">
        <ele>140.689</ele>
        <time>2021-04-01T09:23:07.509Z</time>
      </trkpt>
      <trkpt lat="43.133973" lon="-2.7914641">
        <ele>140.732</ele>
        <time>2021-04-01T09:23:07.564Z</time>
      </trkpt>
      <trkpt lat="43.1339735" lon="-2.7914663">
        <ele>140.745</ele>
        <time>2021-04-01T09:23:07.619Z</time>
      </trkpt>
      <trkpt lat="43.1339741" lon="-2.7914684">
        <ele>140.739</ele>
        <time>2021-04-01T09:23:07.674Z</time>
      </trkpt>
      <trkpt lat="43.1339745" lon="-2.7914707">
        <ele>140.728</ele>
        <time>2021-04-01T09:23:07.729Z</time>
      </trkpt>
      <trkpt lat="43.133975" lon="-2.7914733">
        <ele>140.733</ele>
        <time>2021-04-01T09:23:07.784Z</time>
      </trkpt>
      <trkpt lat="43.1339755" lon="-2.7914756">
        <ele>140.714</ele>
        <time>2021-04-01T09:23:07.839Z</time>
      </trkpt>
      <trkpt lat="43.1339758" lon="-2.7914779">
        <ele>140.715</ele>
        <time>2021-04-01T09:23:07.894Z</time>
      </trkpt>
      <trkpt lat="43.1339764" lon="-2.79148">
        <ele>140.726</ele>
        <time>2021-04-01T09:23:07.949Z</time>
      </trkpt>
      <trkpt lat="43.1339769" lon="-2.7914822">
        <ele>140.746</ele>
        <time>2021-04-01T09:23:08.004Z</time>
      </trkpt>
      <trkpt lat="43.1339773" lon="-2.7914846">
        <ele>140.753</ele>
        <time>2021-04-01T09:23:08.059Z</time>
      </trkpt>
      <trkpt lat="43.1339779" lon="-2.7914868">
        <ele>140.765</ele>
        <time>2021-04-01T09:23:08.114Z</time>
      </trkpt>
      <trkpt lat="43.1339785" lon="-2.7914891">
        <ele>140.765</ele>
        <time>2021-04-01T09:23:08.169Z</time>
      </trkpt>
      <trkpt lat="43.133979" lon="-2.7914914">
        <ele>140.787</ele>
        <time>2021-04-01T09:23:08.224Z</time>
      </trkpt>
      <trkpt lat="43.1339796" lon="-2.7914938">
        <ele>140.809</ele>
        <time>2021-04-01T09:23:08.279Z</time>
      </trkpt>
      <trkpt lat="43.1339803" lon="-2.7914962">
        <ele>140.851</ele>
        <time>2021-04-01T09:23:08.334Z</time>
      </trkpt>
      <trkpt lat="43.1339807" lon="-2.7914983">
        <ele>140.833</ele>
        <time>2021-04-01T09:23:08.389Z</time>
      </trkpt>
      <trkpt lat="43.1339811" lon="-2.7915007">
        <ele>140.852</ele>
        <time>2021-04-01T09:23:08.444Z</time>
      </trkpt>
      <trkpt lat="43.1339815" lon="-2.7915028">
        <ele>140.821</ele>
        <time>2021-04-01T09:23:08.499Z</time>
      </trkpt>
      <trkpt lat="43.1339822" lon="-2.791505">
        <ele>140.79</ele>
        <time>2021-04-01T09:23:08.554Z</time>
      </trkpt>
      <trkpt lat="43.1339826" lon="-2.7915073">
        <ele>140.815</ele>
        <time>2021-04-01T09:23:08.609Z</time>
      </trkpt>
      <trkpt lat="43.133983" lon="-2.7915098">
        <ele>140.856</ele>
        <time>2021-04-01T09:23:08.664Z</time>
      </trkpt>
      <trkpt lat="43.1339834" lon="-2.7915119">
        <ele>140.851</ele>
        <time>2021-04-01T09:23:08.719Z</time>
      </trkpt>
      <trkpt lat="43.1339841" lon="-2.791514">
        <ele>140.861</ele>
        <time>2021-04-01T09:23:08.774Z</time>
      </trkpt>
      <trkpt lat="43.1339845" lon="-2.7915165">
        <ele>140.863</ele>
        <time>2021-04-01T09:23:08.829Z</time>
      </trkpt>
      <trkpt lat="43.133985" lon="-2.7915186">
        <ele>140.832</ele>
        <time>2021-04-01T09:23:08.884Z</time>
      </trkpt>
      <trkpt lat="43.1339855" lon="-2.7915207">
        <ele>140.825</ele>
        <time>2021-04-01T09:23:08.939Z</time>
      </trkpt>
      <trkpt lat="43.1339863" lon="-2.7915227">
        <ele>140.817</ele>
        <time>2021-04-01T09:23:08.994Z</time>
      </trkpt>
      <trkpt lat="43.1339868" lon="-2.7915251">
        <ele>140.833</ele>
        <time>2021-04-01T09:23:09.049Z</time>
      </trkpt>
      <trkpt lat="43.1339872" lon="-2.7915276">
        <ele>140.845</ele>
        <time>2021-04-01T09:23:09.104Z</time>
      </trkpt>
      <trkpt lat="43.1339878" lon="-2.7915302">
        <ele>140.857</ele>
        <time>2021-04-01T09:23:09.159Z</time>
      </trkpt>
      <trkpt lat="43.1339882" lon="-2.7915326">
        <ele>140.873</ele>
        <time>2021-04-01T09:23:09.214Z</time>
      </trkpt>
      <trkpt lat="43.1339885" lon="-2.791535">
        <ele>140.886</ele>
        <time>2021-04-01T09:23:09.269Z</time>
      </trkpt>
      <trkpt lat="43.1339892" lon="-2.7915372">
        <ele>140.881</ele>
        <time>2021-04-01T09:23:09.324Z</time>
      </trkpt>
      <trkpt lat="43.1339898" lon="-2.7915394">
        <ele>140.852</ele>
        <time>2021-04-01T09:23:09.379Z</time>
      </trkpt>
      <trkpt lat="43.1339904" lon="-2.7915415">
        <ele>140.844</ele>
        <time>2021-04-01T09:23:09.434Z</time>
      </trkpt>
      <trkpt lat="43.1339909" lon="-2.7915438">
        <ele>140.874</ele>
        <time>2021-04-01T09:23:09.489Z</time>
      </trkpt>
      <trkpt lat="43.1339914" lon="-2.7915461">
        <ele>140.889</ele>
        <time>2021-04-01T09:23:09.544Z</time>
      </trkpt>
      <trkpt lat="43.1339921" lon="-2.7915482">
        <ele>140.872</ele>
        <time>2021-04-01T09:23:09.599Z</time>
      </trkpt>
      <trkpt lat="43.1339926" lon="-2.7915506">
        <ele>140.845</ele>
        <time>2021-04-01T09:23:09.654Z</time>
      </trkpt>
      <trkpt lat="43.1339931" lon="-2.7915529">
        <ele>140.841</ele>
        <time>2021-04-01T09:23:09.709Z</time>
      </trkpt>
      <trkpt lat="43.1339936" lon="-2.7915549">
        <ele>140.861</ele>
        <time>2021-04-01T09:23:09.764Z</time>
      </trkpt>
      <trkpt lat="43.1339943" lon="-2.7915571">
        <ele>140.888</ele>
        <time>2021-04-01T09:23:09.819Z</time>
      </trkpt>
      <trkpt lat="43.133995" lon="-2.7915593">
        <ele>140.878</ele>
        <time>2021-04-01T09:23:09.874Z</time>
      </trkpt>
      <trkpt lat="43.1339954" lon="-2.7915616">
        <ele>140.876</ele>
        <time>2021-04-01T09:23:09.929Z</time>
      </trkpt>
      <trkpt lat="43.1339959" lon="-2.7915639">
        <ele>140.892</ele>
        <time>2021-04-01T09:23:09.984Z</time>
      </trkpt>
      <trkpt lat="43.1339968" lon="-2.7915661">
        <ele>140.906</ele>
        <time>2021-04-01T09:23:10.039Z</time>
      </trkpt>
      <trkpt lat="43.1339975" lon="-2.7915681">
        <ele>140.88</ele>
        <time>2021-04-01T09:23:10.094Z</time>
      </trkpt>
      <trkpt lat="43.1339982" lon="-2.7915705">
        <ele>140.887</ele>
        <time>2021-04-01T09:23:10.149Z</time>
      </trkpt>
      <trkpt lat="43.133999" lon="-2.791573">
        <ele>140.913</ele>
        <time>2021-04-01T09:23:10.204Z</time>
      </trkpt>
      <trkpt lat="43.1339996" lon="-2.7915755">
        <ele>140.939</ele>
        <time>2021-04-01T09:23:10.259Z</time>
      </trkpt>
      <trkpt lat="43.1340002" lon="-2.791578">
        <ele>140.983</ele>
        <time>2021-04-01T09:23:10.311Z</time>
      </trkpt>
      <trkpt lat="43.1340009" lon="-2.7915802">
        <ele>140.994</ele>
        <time>2021-04-01T09:23:10.363Z</time>
      </trkpt>
      <trkpt lat="43.1340016" lon="-2.7915826">
        <ele>141.02</ele>
        <time>2021-04-01T09:23:10.415Z</time>
      </trkpt>
      <trkpt lat="43.1340021" lon="-2.7915849">
        <ele>141.002</ele>
        <time>2021-04-01T09:23:10.467Z</time>
      </trkpt>
      <trkpt lat="43.1340028" lon="-2.7915871">
        <ele>141.007</ele>
        <time>2021-04-01T09:23:10.519Z</time>
      </trkpt>
      <trkpt lat="43.1340034" lon="-2.7915894">
        <ele>140.995</ele>
        <time>2021-04-01T09:23:10.571Z</time>
      </trkpt>
      <trkpt lat="43.134004" lon="-2.7915917">
        <ele>140.974</ele>
        <time>2021-04-01T09:23:10.623Z</time>
      </trkpt>
      <trkpt lat="43.1340046" lon="-2.791594">
        <ele>140.977</ele>
        <time>2021-04-01T09:23:10.675Z</time>
      </trkpt>
      <trkpt lat="43.1340051" lon="-2.7915958">
        <ele>140.935</ele>
        <time>2021-04-01T09:23:10.727Z</time>
      </trkpt>
      <trkpt lat="43.1340055" lon="-2.7915979">
        <ele>140.915</ele>
        <time>2021-04-01T09:23:10.780Z</time>
      </trkpt>
      <trkpt lat="43.1340061" lon="-2.7915999">
        <ele>140.904</ele>
        <time>2021-04-01T09:23:10.832Z</time>
      </trkpt>
      <trkpt lat="43.1340068" lon="-2.791602">
        <ele>140.88</ele>
        <time>2021-04-01T09:23:10.884Z</time>
      </trkpt>
      <trkpt lat="43.1340071" lon="-2.7916043">
        <ele>140.866</ele>
        <time>2021-04-01T09:23:10.936Z</time>
      </trkpt>
      <trkpt lat="43.1340075" lon="-2.7916068">
        <ele>140.871</ele>
        <time>2021-04-01T09:23:10.988Z</time>
      </trkpt>
      <trkpt lat="43.134008" lon="-2.7916092">
        <ele>140.907</ele>
        <time>2021-04-01T09:23:11.040Z</time>
      </trkpt>
      <trkpt lat="43.1340087" lon="-2.7916116">
        <ele>140.982</ele>
        <time>2021-04-01T09:23:11.092Z</time>
      </trkpt>
      <trkpt lat="43.1340094" lon="-2.7916141">
        <ele>141.019</ele>
        <time>2021-04-01T09:23:11.144Z</time>
      </trkpt>
      <trkpt lat="43.1340102" lon="-2.7916164">
        <ele>141.015</ele>
        <time>2021-04-01T09:23:11.196Z</time>
      </trkpt>
      <trkpt lat="43.1340108" lon="-2.7916187">
        <ele>141.013</ele>
        <time>2021-04-01T09:23:11.249Z</time>
      </trkpt>
      <trkpt lat="43.1340113" lon="-2.7916214">
        <ele>141.079</ele>
        <time>2021-04-01T09:23:11.304Z</time>
      </trkpt>
      <trkpt lat="43.1340119" lon="-2.7916236">
        <ele>141.088</ele>
        <time>2021-04-01T09:23:11.359Z</time>
      </trkpt>
      <trkpt lat="43.1340126" lon="-2.7916261">
        <ele>141.12</ele>
        <time>2021-04-01T09:23:11.414Z</time>
      </trkpt>
      <trkpt lat="43.1340133" lon="-2.7916282">
        <ele>141.123</ele>
        <time>2021-04-01T09:23:11.469Z</time>
      </trkpt>
      <trkpt lat="43.1340139" lon="-2.7916302">
        <ele>141.118</ele>
        <time>2021-04-01T09:23:11.524Z</time>
      </trkpt>
      <trkpt lat="43.1340145" lon="-2.7916326">
        <ele>141.142</ele>
        <time>2021-04-01T09:23:11.579Z</time>
      </trkpt>
      <trkpt lat="43.1340151" lon="-2.7916348">
        <ele>141.148</ele>
        <time>2021-04-01T09:23:11.634Z</time>
      </trkpt>
      <trkpt lat="43.1340159" lon="-2.791637">
        <ele>141.16</ele>
        <time>2021-04-01T09:23:11.689Z</time>
      </trkpt>
      <trkpt lat="43.1340165" lon="-2.7916396">
        <ele>141.204</ele>
        <time>2021-04-01T09:23:11.744Z</time>
      </trkpt>
      <trkpt lat="43.1340171" lon="-2.7916423">
        <ele>141.223</ele>
        <time>2021-04-01T09:23:11.799Z</time>
      </trkpt>
      <trkpt lat="43.1340178" lon="-2.7916447">
        <ele>141.262</ele>
        <time>2021-04-01T09:23:11.854Z</time>
      </trkpt>
      <trkpt lat="43.1340186" lon="-2.791647">
        <ele>141.325</ele>
        <time>2021-04-01T09:23:11.909Z</time>
      </trkpt>
      <trkpt lat="43.1340193" lon="-2.7916494">
        <ele>141.346</ele>
        <time>2021-04-01T09:23:11.964Z</time>
      </trkpt>
      <trkpt lat="43.13402" lon="-2.791652">
        <ele>141.378</ele>
        <time>2021-04-01T09:23:12.019Z</time>
      </trkpt>
      <trkpt lat="43.1340205" lon="-2.7916547">
        <ele>141.437</ele>
        <time>2021-04-01T09:23:12.074Z</time>
      </trkpt>
      <trkpt lat="43.134021" lon="-2.7916574">
        <ele>141.521</ele>
        <time>2021-04-01T09:23:12.129Z</time>
      </trkpt>
      <trkpt lat="43.1340215" lon="-2.7916598">
        <ele>141.543</ele>
        <time>2021-04-01T09:23:12.184Z</time>
      </trkpt>
      <trkpt lat="43.1340219" lon="-2.7916621">
        <ele>141.549</ele>
        <time>2021-04-01T09:23:12.239Z</time>
      </trkpt>
      <trkpt lat="43.1340225" lon="-2.7916645">
        <ele>141.582</ele>
        <time>2021-04-01T09:23:12.297Z</time>
      </trkpt>
      <trkpt lat="43.1340232" lon="-2.791667">
        <ele>141.598</ele>
        <time>2021-04-01T09:23:12.355Z</time>
      </trkpt>
      <trkpt lat="43.1340238" lon="-2.7916691">
        <ele>141.594</ele>
        <time>2021-04-01T09:23:12.413Z</time>
      </trkpt>
      <trkpt lat="43.1340245" lon="-2.7916714">
        <ele>141.601</ele>
        <time>2021-04-01T09:23:12.471Z</time>
      </trkpt>
      <trkpt lat="43.1340252" lon="-2.7916738">
        <ele>141.607</ele>
        <time>2021-04-01T09:23:12.529Z</time>
      </trkpt>
      <trkpt lat="43.1340257" lon="-2.7916761">
        <ele>141.597</ele>
        <time>2021-04-01T09:23:12.587Z</time>
      </trkpt>
      <trkpt lat="43.1340262" lon="-2.7916787">
        <ele>141.605</ele>
        <time>2021-04-01T09:23:12.645Z</time>
      </trkpt>
      <trkpt lat="43.1340268" lon="-2.7916809">
        <ele>141.611</ele>
        <time>2021-04-01T09:23:12.703Z</time>
      </trkpt>
      <trkpt lat="43.1340276" lon="-2.791683">
        <ele>141.614</ele>
        <time>2021-04-01T09:23:12.761Z</time>
      </trkpt>
      <trkpt lat="43.1340283" lon="-2.7916852">
        <ele>141.613</ele>
        <time>2021-04-01T09:23:12.819Z</time>
      </trkpt>
      <trkpt lat="43.1340289" lon="-2.7916878">
        <ele>141.618</ele>
        <time>2021-04-01T09:23:12.877Z</time>
      </trkpt>
      <trkpt lat="43.1340295" lon="-2.7916903">
        <ele>141.641</ele>
        <time>2021-04-01T09:23:12.935Z</time>
      </trkpt>
      <trkpt lat="43.1340301" lon="-2.7916926">
        <ele>141.64</ele>
        <time>2021-04-01T09:23:12.993Z</time>
      </trkpt>
      <trkpt lat="43.1340307" lon="-2.7916949">
        <ele>141.658</ele>
        <time>2021-04-01T09:23:13.051Z</time>
      </trkpt>
      <trkpt lat="43.1340312" lon="-2.7916972">
        <ele>141.665</ele>
        <time>2021-04-01T09:23:13.109Z</time>
      </trkpt>
      <trkpt lat="43.1340319" lon="-2.7916995">
        <ele>141.692</ele>
        <time>2021-04-01T09:23:13.167Z</time>
      </trkpt>
      <trkpt lat="43.1340324" lon="-2.7917019">
        <ele>141.702</ele>
        <time>2021-04-01T09:23:13.225Z</time>
      </trkpt>
      <trkpt lat="43.134033" lon="-2.7917039">
        <ele>141.701</ele>
        <time>2021-04-01T09:23:13.284Z</time>
      </trkpt>
      <trkpt lat="43.1340336" lon="-2.7917059">
        <ele>141.664</ele>
        <time>2021-04-01T09:23:13.339Z</time>
      </trkpt>
      <trkpt lat="43.1340344" lon="-2.7917084">
        <ele>141.69</ele>
        <time>2021-04-01T09:23:13.394Z</time>
      </trkpt>
      <trkpt lat="43.1340352" lon="-2.7917107">
        <ele>141.672</ele>
        <time>2021-04-01T09:23:13.449Z</time>
      </trkpt>
      <trkpt lat="43.1340357" lon="-2.7917131">
        <ele>141.698</ele>
        <time>2021-04-01T09:23:13.504Z</time>
      </trkpt>
      <trkpt lat="43.1340364" lon="-2.7917151">
        <ele>141.701</ele>
        <time>2021-04-01T09:23:13.559Z</time>
      </trkpt>
      <trkpt lat="43.134037" lon="-2.7917171">
        <ele>141.678</ele>
        <time>2021-04-01T09:23:13.614Z</time>
      </trkpt>
      <trkpt lat="43.1340378" lon="-2.7917193">
        <ele>141.685</ele>
        <time>2021-04-01T09:23:13.669Z</time>
      </trkpt>
      <trkpt lat="43.1340385" lon="-2.7917217">
        <ele>141.696</ele>
        <time>2021-04-01T09:23:13.724Z</time>
      </trkpt>
      <trkpt lat="43.134039" lon="-2.791724">
        <ele>141.702</ele>
        <time>2021-04-01T09:23:13.779Z</time>
      </trkpt>
      <trkpt lat="43.1340398" lon="-2.7917262">
        <ele>141.715</ele>
        <time>2021-04-01T09:23:13.834Z</time>
      </trkpt>
      <trkpt lat="43.1340403" lon="-2.7917281">
        <ele>141.698</ele>
        <time>2021-04-01T09:23:13.889Z</time>
      </trkpt>
      <trkpt lat="43.1340411" lon="-2.7917299">
        <ele>141.68</ele>
        <time>2021-04-01T09:23:13.944Z</time>
      </trkpt>
      <trkpt lat="43.1340417" lon="-2.7917318">
        <ele>141.658</ele>
        <time>2021-04-01T09:23:13.999Z</time>
      </trkpt>
      <trkpt lat="43.1340425" lon="-2.791734">
        <ele>141.673</ele>
        <time>2021-04-01T09:23:14.054Z</time>
      </trkpt>
      <trkpt lat="43.1340432" lon="-2.7917364">
        <ele>141.698</ele>
        <time>2021-04-01T09:23:14.109Z</time>
      </trkpt>
      <trkpt lat="43.134044" lon="-2.791739">
        <ele>141.742</ele>
        <time>2021-04-01T09:23:14.164Z</time>
      </trkpt>
      <trkpt lat="43.1340448" lon="-2.7917412">
        <ele>141.76</ele>
        <time>2021-04-01T09:23:14.219Z</time>
      </trkpt>
      <trkpt lat="43.1340453" lon="-2.7917434">
        <ele>141.725</ele>
        <time>2021-04-01T09:23:14.274Z</time>
      </trkpt>
      <trkpt lat="43.1340458" lon="-2.7917456">
        <ele>141.752</ele>
        <time>2021-04-01T09:23:14.326Z</time>
      </trkpt>
      <trkpt lat="43.1340464" lon="-2.791748">
        <ele>141.796</ele>
        <time>2021-04-01T09:23:14.378Z</time>
      </trkpt>
      <trkpt lat="43.1340469" lon="-2.7917504">
        <ele>141.809</ele>
        <time>2021-04-01T09:23:14.430Z</time>
      </trkpt>
      <trkpt lat="43.1340477" lon="-2.7917527">
        <ele>141.809</ele>
        <time>2021-04-01T09:23:14.482Z</time>
      </trkpt>
      <trkpt lat="43.1340485" lon="-2.791755">
        <ele>141.816</ele>
        <time>2021-04-01T09:23:14.534Z</time>
      </trkpt>
      <trkpt lat="43.1340492" lon="-2.7917572">
        <ele>141.819</ele>
        <time>2021-04-01T09:23:14.586Z</time>
      </trkpt>
      <trkpt lat="43.1340501" lon="-2.7917594">
        <ele>141.82</ele>
        <time>2021-04-01T09:23:14.638Z</time>
      </trkpt>
      <trkpt lat="43.1340507" lon="-2.7917617">
        <ele>141.831</ele>
        <time>2021-04-01T09:23:14.690Z</time>
      </trkpt>
      <trkpt lat="43.1340515" lon="-2.791764">
        <ele>141.849</ele>
        <time>2021-04-01T09:23:14.742Z</time>
      </trkpt>
      <trkpt lat="43.1340521" lon="-2.7917663">
        <ele>141.867</ele>
        <time>2021-04-01T09:23:14.795Z</time>
      </trkpt>
      <trkpt lat="43.1340528" lon="-2.7917684">
        <ele>141.858</ele>
        <time>2021-04-01T09:23:14.847Z</time>
      </trkpt>
      <trkpt lat="43.1340535" lon="-2.7917706">
        <ele>141.859</ele>
        <time>2021-04-01T09:23:14.899Z</time>
      </trkpt>
      <trkpt lat="43.1340543" lon="-2.7917734">
        <ele>141.906</ele>
        <time>2021-04-01T09:23:14.951Z</time>
      </trkpt>
      <trkpt lat="43.1340551" lon="-2.7917763">
        <ele>141.986</ele>
        <time>2021-04-01T09:23:15.003Z</time>
      </trkpt>
      <trkpt lat="43.1340559" lon="-2.7917793">
        <ele>142.113</ele>
        <time>2021-04-01T09:23:15.055Z</time>
      </trkpt>
      <trkpt lat="43.1340566" lon="-2.7917814">
        <ele>142.095</ele>
        <time>2021-04-01T09:23:15.107Z</time>
      </trkpt>
      <trkpt lat="43.1340573" lon="-2.7917834">
        <ele>142.077</ele>
        <time>2021-04-01T09:23:15.159Z</time>
      </trkpt>
      <trkpt lat="43.1340579" lon="-2.7917858">
        <ele>142.105</ele>
        <time>2021-04-01T09:23:15.211Z</time>
      </trkpt>
      <trkpt lat="43.1340586" lon="-2.7917883">
        <ele>142.13</ele>
        <time>2021-04-01T09:23:15.264Z</time>
      </trkpt>
      <trkpt lat="43.1340593" lon="-2.7917907">
        <ele>142.15</ele>
        <time>2021-04-01T09:23:15.319Z</time>
      </trkpt>
      <trkpt lat="43.1340601" lon="-2.7917931">
        <ele>142.188</ele>
        <time>2021-04-01T09:23:15.374Z</time>
      </trkpt>
      <trkpt lat="43.1340608" lon="-2.7917953">
        <ele>142.182</ele>
        <time>2021-04-01T09:23:15.429Z</time>
      </trkpt>
      <trkpt lat="43.1340613" lon="-2.7917978">
        <ele>142.203</ele>
        <time>2021-04-01T09:23:15.484Z</time>
      </trkpt>
      <trkpt lat="43.134062" lon="-2.7918">
        <ele>142.219</ele>
        <time>2021-04-01T09:23:15.539Z</time>
      </trkpt>
      <trkpt lat="43.1340627" lon="-2.7918023">
        <ele>142.221</ele>
        <time>2021-04-01T09:23:15.594Z</time>
      </trkpt>
      <trkpt lat="43.1340634" lon="-2.7918048">
        <ele>142.234</ele>
        <time>2021-04-01T09:23:15.649Z</time>
      </trkpt>
      <trkpt lat="43.1340641" lon="-2.7918072">
        <ele>142.245</ele>
        <time>2021-04-01T09:23:15.704Z</time>
      </trkpt>
      <trkpt lat="43.1340647" lon="-2.7918095">
        <ele>142.266</ele>
        <time>2021-04-01T09:23:15.759Z</time>
      </trkpt>
      <trkpt lat="43.1340656" lon="-2.7918121">
        <ele>142.308</ele>
        <time>2021-04-01T09:23:15.814Z</time>
      </trkpt>
      <trkpt lat="43.1340663" lon="-2.7918148">
        <ele>142.393</ele>
        <time>2021-04-01T09:23:15.869Z</time>
      </trkpt>
      <trkpt lat="43.1340672" lon="-2.7918174">
        <ele>142.475</ele>
        <time>2021-04-01T09:23:15.924Z</time>
      </trkpt>
      <trkpt lat="43.1340679" lon="-2.7918202">
        <ele>142.509</ele>
        <time>2021-04-01T09:23:15.979Z</time>
      </trkpt>
      <trkpt lat="43.1340687" lon="-2.7918228">
        <ele>142.554</ele>
        <time>2021-04-01T09:23:16.034Z</time>
      </trkpt>
      <trkpt lat="43.1340694" lon="-2.7918253">
        <ele>142.59</ele>
        <time>2021-04-01T09:23:16.089Z</time>
      </trkpt>
      <trkpt lat="43.13407" lon="-2.7918277">
        <ele>142.612</ele>
        <time>2021-04-01T09:23:16.144Z</time>
      </trkpt>
      <trkpt lat="43.1340706" lon="-2.79183">
        <ele>142.624</ele>
        <time>2021-04-01T09:23:16.199Z</time>
      </trkpt>
      <trkpt lat="43.1340713" lon="-2.7918322">
        <ele>142.637</ele>
        <time>2021-04-01T09:23:16.254Z</time>
      </trkpt>
      <trkpt lat="43.134072" lon="-2.7918345">
        <ele>142.66</ele>
        <time>2021-04-01T09:23:16.312Z</time>
      </trkpt>
      <trkpt lat="43.1340727" lon="-2.7918368">
        <ele>142.674</ele>
        <time>2021-04-01T09:23:16.370Z</time>
      </trkpt>
      <trkpt lat="43.1340733" lon="-2.7918391">
        <ele>142.674</ele>
        <time>2021-04-01T09:23:16.428Z</time>
      </trkpt>
      <trkpt lat="43.134074" lon="-2.7918413">
        <ele>142.679</ele>
        <time>2021-04-01T09:23:16.486Z</time>
      </trkpt>
      <trkpt lat="43.1340747" lon="-2.7918436">
        <ele>142.684</ele>
        <time>2021-04-01T09:23:16.544Z</time>
      </trkpt>
      <trkpt lat="43.1340754" lon="-2.791846">
        <ele>142.695</ele>
        <time>2021-04-01T09:23:16.602Z</time>
      </trkpt>
      <trkpt lat="43.1340759" lon="-2.7918484">
        <ele>142.717</ele>
        <time>2021-04-01T09:23:16.660Z</time>
      </trkpt>
      <trkpt lat="43.1340766" lon="-2.7918506">
        <ele>142.763</ele>
        <time>2021-04-01T09:23:16.718Z</time>
      </trkpt>
      <trkpt lat="43.1340772" lon="-2.7918526">
        <ele>142.744</ele>
        <time>2021-04-01T09:23:16.776Z</time>
      </trkpt>
      <trkpt lat="43.1340778" lon="-2.791855">
        <ele>142.717</ele>
        <time>2021-04-01T09:23:16.834Z</time>
      </trkpt>
      <trkpt lat="43.1340786" lon="-2.7918574">
        <ele>142.726</ele>
        <time>2021-04-01T09:23:16.892Z</time>
      </trkpt>
      <trkpt lat="43.1340792" lon="-2.7918598">
        <ele>142.756</ele>
        <time>2021-04-01T09:23:16.950Z</time>
      </trkpt>
      <trkpt lat="43.1340799" lon="-2.7918624">
        <ele>142.797</ele>
        <time>2021-04-01T09:23:17.008Z</time>
      </trkpt>
      <trkpt lat="43.1340806" lon="-2.7918648">
        <ele>142.804</ele>
        <time>2021-04-01T09:23:17.066Z</time>
      </trkpt>
      <trkpt lat="43.1340811" lon="-2.7918672">
        <ele>142.845</ele>
        <time>2021-04-01T09:23:17.124Z</time>
      </trkpt>
      <trkpt lat="43.1340818" lon="-2.7918694">
        <ele>142.845</ele>
        <time>2021-04-01T09:23:17.182Z</time>
      </trkpt>
      <trkpt lat="43.1340825" lon="-2.7918717">
        <ele>142.868</ele>
        <time>2021-04-01T09:23:17.240Z</time>
      </trkpt>
      <trkpt lat="43.1340833" lon="-2.791874">
        <ele>142.879</ele>
        <time>2021-04-01T09:23:17.299Z</time>
      </trkpt>
      <trkpt lat="43.1340838" lon="-2.7918764">
        <ele>142.874</ele>
        <time>2021-04-01T09:23:17.357Z</time>
      </trkpt>
      <trkpt lat="43.1340844" lon="-2.7918788">
        <ele>142.88</ele>
        <time>2021-04-01T09:23:17.415Z</time>
      </trkpt>
      <trkpt lat="43.134085" lon="-2.7918811">
        <ele>142.878</ele>
        <time>2021-04-01T09:23:17.473Z</time>
      </trkpt>
      <trkpt lat="43.1340858" lon="-2.7918835">
        <ele>142.902</ele>
        <time>2021-04-01T09:23:17.531Z</time>
      </trkpt>
      <trkpt lat="43.1340863" lon="-2.7918857">
        <ele>142.921</ele>
        <time>2021-04-01T09:23:17.590Z</time>
      </trkpt>
      <trkpt lat="43.134087" lon="-2.7918879">
        <ele>142.923</ele>
        <time>2021-04-01T09:23:17.648Z</time>
      </trkpt>
      <trkpt lat="43.1340876" lon="-2.7918902">
        <ele>142.92</ele>
        <time>2021-04-01T09:23:17.706Z</time>
      </trkpt>
      <trkpt lat="43.1340882" lon="-2.7918927">
        <ele>142.963</ele>
        <time>2021-04-01T09:23:17.764Z</time>
      </trkpt>
      <trkpt lat="43.1340889" lon="-2.791895">
        <ele>142.971</ele>
        <time>2021-04-01T09:23:17.823Z</time>
      </trkpt>
      <trkpt lat="43.1340896" lon="-2.7918973">
        <ele>142.968</ele>
        <time>2021-04-01T09:23:17.881Z</time>
      </trkpt>
      <trkpt lat="43.1340901" lon="-2.7918995">
        <ele>142.986</ele>
        <time>2021-04-01T09:23:17.939Z</time>
      </trkpt>
      <trkpt lat="43.1340906" lon="-2.7919018">
        <ele>143.009</ele>
        <time>2021-04-01T09:23:17.997Z</time>
      </trkpt>
      <trkpt lat="43.1340913" lon="-2.7919042">
        <ele>143.026</ele>
        <time>2021-04-01T09:23:18.056Z</time>
      </trkpt>
      <trkpt lat="43.1340921" lon="-2.7919063">
        <ele>143.024</ele>
        <time>2021-04-01T09:23:18.114Z</time>
      </trkpt>
      <trkpt lat="43.1340928" lon="-2.7919085">
        <ele>143.033</ele>
        <time>2021-04-01T09:23:18.172Z</time>
      </trkpt>
      <trkpt lat="43.1340937" lon="-2.7919109">
        <ele>143.038</ele>
        <time>2021-04-01T09:23:18.230Z</time>
      </trkpt>
      <trkpt lat="43.1340944" lon="-2.7919131">
        <ele>143.033</ele>
        <time>2021-04-01T09:23:18.289Z</time>
      </trkpt>
      <trkpt lat="43.1340951" lon="-2.7919152">
        <ele>143.019</ele>
        <time>2021-04-01T09:23:18.344Z</time>
      </trkpt>
      <trkpt lat="43.1340958" lon="-2.7919174">
        <ele>143.079</ele>
        <time>2021-04-01T09:23:18.399Z</time>
      </trkpt>
      <trkpt lat="43.1340964" lon="-2.7919197">
        <ele>143.093</ele>
        <time>2021-04-01T09:23:18.454Z</time>
      </trkpt>
      <trkpt lat="43.1340972" lon="-2.7919221">
        <ele>143.093</ele>
        <time>2021-04-01T09:23:18.509Z</time>
      </trkpt>
      <trkpt lat="43.134098" lon="-2.7919243">
        <ele>143.092</ele>
        <time>2021-04-01T09:23:18.564Z</time>
      </trkpt>
      <trkpt lat="43.1340988" lon="-2.7919265">
        <ele>143.107</ele>
        <time>2021-04-01T09:23:18.619Z</time>
      </trkpt>
      <trkpt lat="43.1340997" lon="-2.7919288">
        <ele>143.125</ele>
        <time>2021-04-01T09:23:18.674Z</time>
      </trkpt>
      <trkpt lat="43.1341004" lon="-2.7919312">
        <ele>143.141</ele>
        <time>2021-04-01T09:23:18.729Z</time>
      </trkpt>
      <trkpt lat="43.1341011" lon="-2.7919333">
        <ele>143.146</ele>
        <time>2021-04-01T09:23:18.784Z</time>
      </trkpt>
      <trkpt lat="43.134102" lon="-2.7919354">
        <ele>143.146</ele>
        <time>2021-04-01T09:23:18.839Z</time>
      </trkpt>
      <trkpt lat="43.1341028" lon="-2.7919375">
        <ele>143.167</ele>
        <time>2021-04-01T09:23:18.894Z</time>
      </trkpt>
      <trkpt lat="43.1341039" lon="-2.7919395">
        <ele>143.179</ele>
        <time>2021-04-01T09:23:18.949Z</time>
      </trkpt>
      <trkpt lat="43.134105" lon="-2.7919418">
        <ele>143.186</ele>
        <time>2021-04-01T09:23:19.004Z</time>
      </trkpt>
      <trkpt lat="43.1341059" lon="-2.7919441">
        <ele>143.213</ele>
        <time>2021-04-01T09:23:19.059Z</time>
      </trkpt>
      <trkpt lat="43.1341068" lon="-2.7919463">
        <ele>143.233</ele>
        <time>2021-04-01T09:23:19.114Z</time>
      </trkpt>
      <trkpt lat="43.1341076" lon="-2.7919485">
        <ele>143.234</ele>
        <time>2021-04-01T09:23:19.169Z</time>
      </trkpt>
      <trkpt lat="43.1341084" lon="-2.7919505">
        <ele>143.251</ele>
        <time>2021-04-01T09:23:19.224Z</time>
      </trkpt>
      <trkpt lat="43.1341092" lon="-2.7919528">
        <ele>143.264</ele>
        <time>2021-04-01T09:23:19.279Z</time>
      </trkpt>
      <trkpt lat="43.1341099" lon="-2.791955">
        <ele>143.269</ele>
        <time>2021-04-01T09:23:19.334Z</time>
      </trkpt>
      <trkpt lat="43.1341109" lon="-2.7919575">
        <ele>143.297</ele>
        <time>2021-04-01T09:23:19.385Z</time>
      </trkpt>
      <trkpt lat="43.1341116" lon="-2.7919596">
        <ele>143.293</ele>
        <time>2021-04-01T09:23:19.437Z</time>
      </trkpt>
      <trkpt lat="43.1341123" lon="-2.791962">
        <ele>143.314</ele>
        <time>2021-04-01T09:23:19.489Z</time>
      </trkpt>
      <trkpt lat="43.1341132" lon="-2.7919645">
        <ele>143.344</ele>
        <time>2021-04-01T09:23:19.541Z</time>
      </trkpt>
      <trkpt lat="43.1341139" lon="-2.791967">
        <ele>143.372</ele>
        <time>2021-04-01T09:23:19.593Z</time>
      </trkpt>
      <trkpt lat="43.1341147" lon="-2.7919695">
        <ele>143.402</ele>
        <time>2021-04-01T09:23:19.645Z</time>
      </trkpt>
      <trkpt lat="43.1341155" lon="-2.7919717">
        <ele>143.394</ele>
        <time>2021-04-01T09:23:19.697Z</time>
      </trkpt>
      <trkpt lat="43.1341164" lon="-2.791974">
        <ele>143.404</ele>
        <time>2021-04-01T09:23:19.749Z</time>
      </trkpt>
      <trkpt lat="43.134117" lon="-2.7919762">
        <ele>143.395</ele>
        <time>2021-04-01T09:23:19.801Z</time>
      </trkpt>
      <trkpt lat="43.1341179" lon="-2.7919783">
        <ele>143.389</ele>
        <time>2021-04-01T09:23:19.853Z</time>
      </trkpt>
      <trkpt lat="43.1341188" lon="-2.7919805">
        <ele>143.399</ele>
        <time>2021-04-01T09:23:19.905Z</time>
      </trkpt>
      <trkpt lat="43.1341198" lon="-2.7919828">
        <ele>143.421</ele>
        <time>2021-04-01T09:23:19.957Z</time>
      </trkpt>
      <trkpt lat="43.1341206" lon="-2.7919851">
        <ele>143.429</ele>
        <time>2021-04-01T09:23:20.009Z</time>
      </trkpt>
      <trkpt lat="43.1341213" lon="-2.7919876">
        <ele>143.448</ele>
        <time>2021-04-01T09:23:20.061Z</time>
      </trkpt>
      <trkpt lat="43.1341221" lon="-2.7919899">
        <ele>143.462</ele>
        <time>2021-04-01T09:23:20.113Z</time>
      </trkpt>
      <trkpt lat="43.1341228" lon="-2.7919924">
        <ele>143.486</ele>
        <time>2021-04-01T09:23:20.165Z</time>
      </trkpt>
      <trkpt lat="43.1341239" lon="-2.7919946">
        <ele>143.489</ele>
        <time>2021-04-01T09:23:20.217Z</time>
      </trkpt>
      <trkpt lat="43.1341247" lon="-2.7919969">
        <ele>143.485</ele>
        <time>2021-04-01T09:23:20.269Z</time>
      </trkpt>
      <trkpt lat="43.1341253" lon="-2.791999">
        <ele>143.48</ele>
        <time>2021-04-01T09:23:20.324Z</time>
      </trkpt>
      <trkpt lat="43.1341261" lon="-2.7920011">
        <ele>143.492</ele>
        <time>2021-04-01T09:23:20.379Z</time>
      </trkpt>
      <trkpt lat="43.134127" lon="-2.7920034">
        <ele>143.531</ele>
        <time>2021-04-01T09:23:20.434Z</time>
      </trkpt>
      <trkpt lat="43.134128" lon="-2.7920056">
        <ele>143.534</ele>
        <time>2021-04-01T09:23:20.489Z</time>
      </trkpt>
      <trkpt lat="43.1341288" lon="-2.7920079">
        <ele>143.53</ele>
        <time>2021-04-01T09:23:20.544Z</time>
      </trkpt>
      <trkpt lat="43.1341298" lon="-2.7920102">
        <ele>143.558</ele>
        <time>2021-04-01T09:23:20.599Z</time>
      </trkpt>
      <trkpt lat="43.1341308" lon="-2.7920126">
        <ele>143.586</ele>
        <time>2021-04-01T09:23:20.654Z</time>
      </trkpt>
      <trkpt lat="43.134132" lon="-2.7920147">
        <ele>143.629</ele>
        <time>2021-04-01T09:23:20.709Z</time>
      </trkpt>
      <trkpt lat="43.134133" lon="-2.7920167">
        <ele>143.631</ele>
        <time>2021-04-01T09:23:20.764Z</time>
      </trkpt>
      <trkpt lat="43.134134" lon="-2.7920189">
        <ele>143.633</ele>
        <time>2021-04-01T09:23:20.819Z</time>
      </trkpt>
      <trkpt lat="43.1341349" lon="-2.792021">
        <ele>143.644</ele>
        <time>2021-04-01T09:23:20.874Z</time>
      </trkpt>
      <trkpt lat="43.134136" lon="-2.7920231">
        <ele>143.653</ele>
        <time>2021-04-01T09:23:20.929Z</time>
      </trkpt>
      <trkpt lat="43.1341369" lon="-2.7920252">
        <ele>143.645</ele>
        <time>2021-04-01T09:23:20.984Z</time>
      </trkpt>
      <trkpt lat="43.1341378" lon="-2.7920272">
        <ele>143.648</ele>
        <time>2021-04-01T09:23:21.039Z</time>
      </trkpt>
      <trkpt lat="43.1341388" lon="-2.7920291">
        <ele>143.662</ele>
        <time>2021-04-01T09:23:21.094Z</time>
      </trkpt>
      <trkpt lat="43.1341399" lon="-2.792031">
        <ele>143.68</ele>
        <time>2021-04-01T09:23:21.149Z</time>
      </trkpt>
      <trkpt lat="43.1341409" lon="-2.7920333">
        <ele>143.705</ele>
        <time>2021-04-01T09:23:21.204Z</time>
      </trkpt>
      <trkpt lat="43.1341417" lon="-2.7920357">
        <ele>143.713</ele>
        <time>2021-04-01T09:23:21.259Z</time>
      </trkpt>
      <trkpt lat="43.1341427" lon="-2.7920378">
        <ele>143.723</ele>
        <time>2021-04-01T09:23:21.314Z</time>
      </trkpt>
      <trkpt lat="43.1341438" lon="-2.7920399">
        <ele>143.727</ele>
        <time>2021-04-01T09:23:21.372Z</time>
      </trkpt>
      <trkpt lat="43.1341447" lon="-2.7920423">
        <ele>143.74</ele>
        <time>2021-04-01T09:23:21.430Z</time>
      </trkpt>
      <trkpt lat="43.1341456" lon="-2.7920444">
        <ele>143.753</ele>
        <time>2021-04-01T09:23:21.488Z</time>
      </trkpt>
      <trkpt lat="43.1341465" lon="-2.7920466">
        <ele>143.736</ele>
        <time>2021-04-01T09:23:21.546Z</time>
      </trkpt>
      <trkpt lat="43.1341472" lon="-2.7920488">
        <ele>143.739</ele>
        <time>2021-04-01T09:23:21.605Z</time>
      </trkpt>
      <trkpt lat="43.1341481" lon="-2.7920511">
        <ele>143.747</ele>
        <time>2021-04-01T09:23:21.663Z</time>
      </trkpt>
      <trkpt lat="43.1341489" lon="-2.7920534">
        <ele>143.739</ele>
        <time>2021-04-01T09:23:21.721Z</time>
      </trkpt>
      <trkpt lat="43.1341497" lon="-2.7920557">
        <ele>143.756</ele>
        <time>2021-04-01T09:23:21.779Z</time>
      </trkpt>
      <trkpt lat="43.1341507" lon="-2.7920582">
        <ele>143.789</ele>
        <time>2021-04-01T09:23:21.838Z</time>
      </trkpt>
      <trkpt lat="43.1341514" lon="-2.7920606">
        <ele>143.809</ele>
        <time>2021-04-01T09:23:21.896Z</time>
      </trkpt>
      <trkpt lat="43.1341522" lon="-2.7920628">
        <ele>143.827</ele>
        <time>2021-04-01T09:23:21.954Z</time>
      </trkpt>
      <trkpt lat="43.1341529" lon="-2.7920651">
        <ele>143.829</ele>
        <time>2021-04-01T09:23:22.012Z</time>
      </trkpt>
      <trkpt lat="43.1341536" lon="-2.792067">
        <ele>143.805</ele>
        <time>2021-04-01T09:23:22.071Z</time>
      </trkpt>
      <trkpt lat="43.1341543" lon="-2.7920692">
        <ele>143.801</ele>
        <time>2021-04-01T09:23:22.129Z</time>
      </trkpt>
      <trkpt lat="43.134155" lon="-2.7920716">
        <ele>143.784</ele>
        <time>2021-04-01T09:23:22.187Z</time>
      </trkpt>
      <trkpt lat="43.1341558" lon="-2.7920741">
        <ele>143.77</ele>
        <time>2021-04-01T09:23:22.245Z</time>
      </trkpt>
      <trkpt lat="43.1341566" lon="-2.7920765">
        <ele>143.815</ele>
        <time>2021-04-01T09:23:22.304Z</time>
      </trkpt>
      <trkpt lat="43.1341573" lon="-2.7920788">
        <ele>143.815</ele>
        <time>2021-04-01T09:23:22.356Z</time>
      </trkpt>
      <trkpt lat="43.1341581" lon="-2.792081">
        <ele>143.801</ele>
        <time>2021-04-01T09:23:22.408Z</time>
      </trkpt>
      <trkpt lat="43.1341589" lon="-2.7920832">
        <ele>143.807</ele>
        <time>2021-04-01T09:23:22.460Z</time>
      </trkpt>
      <trkpt lat="43.1341598" lon="-2.7920855">
        <ele>143.818</ele>
        <time>2021-04-01T09:23:22.512Z</time>
      </trkpt>
      <trkpt lat="43.1341608" lon="-2.7920878">
        <ele>143.811</ele>
        <time>2021-04-01T09:23:22.564Z</time>
      </trkpt>
      <trkpt lat="43.1341616" lon="-2.7920903">
        <ele>143.83</ele>
        <time>2021-04-01T09:23:22.616Z</time>
      </trkpt>
      <trkpt lat="43.1341624" lon="-2.7920926">
        <ele>143.868</ele>
        <time>2021-04-01T09:23:22.668Z</time>
      </trkpt>
      <trkpt lat="43.134163" lon="-2.7920949">
        <ele>143.854</ele>
        <time>2021-04-01T09:23:22.720Z</time>
      </trkpt>
      <trkpt lat="43.1341637" lon="-2.7920972">
        <ele>143.862</ele>
        <time>2021-04-01T09:23:22.772Z</time>
      </trkpt>
      <trkpt lat="43.1341645" lon="-2.7920996">
        <ele>143.886</ele>
        <time>2021-04-01T09:23:22.825Z</time>
      </trkpt>
      <trkpt lat="43.1341654" lon="-2.7921021">
        <ele>143.908</ele>
        <time>2021-04-01T09:23:22.877Z</time>
      </trkpt>
      <trkpt lat="43.1341661" lon="-2.7921045">
        <ele>143.919</ele>
        <time>2021-04-01T09:23:22.929Z</time>
      </trkpt>
      <trkpt lat="43.134167" lon="-2.792107">
        <ele>143.932</ele>
        <time>2021-04-01T09:23:22.981Z</time>
      </trkpt>
      <trkpt lat="43.1341677" lon="-2.7921094">
        <ele>143.971</ele>
        <time>2021-04-01T09:23:23.033Z</time>
      </trkpt>
      <trkpt lat="43.1341685" lon="-2.7921117">
        <ele>143.993</ele>
        <time>2021-04-01T09:23:23.085Z</time>
      </trkpt>
      <trkpt lat="43.1341691" lon="-2.7921141">
        <ele>143.995</ele>
        <time>2021-04-01T09:23:23.137Z</time>
      </trkpt>
      <trkpt lat="43.13417" lon="-2.7921166">
        <ele>143.995</ele>
        <time>2021-04-01T09:23:23.189Z</time>
      </trkpt>
      <trkpt lat="43.1341707" lon="-2.7921192">
        <ele>144.029</ele>
        <time>2021-04-01T09:23:23.241Z</time>
      </trkpt>
      <trkpt lat="43.1341715" lon="-2.7921215">
        <ele>144.048</ele>
        <time>2021-04-01T09:23:23.294Z</time>
      </trkpt>
      <trkpt lat="43.1341723" lon="-2.7921238">
        <ele>144.049</ele>
        <time>2021-04-01T09:23:23.349Z</time>
      </trkpt>
      <trkpt lat="43.1341729" lon="-2.7921263">
        <ele>144.057</ele>
        <time>2021-04-01T09:23:23.404Z</time>
      </trkpt>
      <trkpt lat="43.1341736" lon="-2.7921286">
        <ele>144.067</ele>
        <time>2021-04-01T09:23:23.459Z</time>
      </trkpt>
      <trkpt lat="43.1341745" lon="-2.7921308">
        <ele>144.087</ele>
        <time>2021-04-01T09:23:23.514Z</time>
      </trkpt>
      <trkpt lat="43.1341753" lon="-2.7921332">
        <ele>144.091</ele>
        <time>2021-04-01T09:23:23.569Z</time>
      </trkpt>
      <trkpt lat="43.1341761" lon="-2.7921357">
        <ele>144.095</ele>
        <time>2021-04-01T09:23:23.624Z</time>
      </trkpt>
      <trkpt lat="43.1341768" lon="-2.7921379">
        <ele>144.095</ele>
        <time>2021-04-01T09:23:23.679Z</time>
      </trkpt>
      <trkpt lat="43.1341777" lon="-2.7921403">
        <ele>144.109</ele>
        <time>2021-04-01T09:23:23.734Z</time>
      </trkpt>
      <trkpt lat="43.1341785" lon="-2.7921426">
        <ele>144.129</ele>
        <time>2021-04-01T09:23:23.789Z</time>
      </trkpt>
      <trkpt lat="43.1341789" lon="-2.7921449">
        <ele>144.135</ele>
        <time>2021-04-01T09:23:23.844Z</time>
      </trkpt>
      <trkpt lat="43.1341796" lon="-2.7921473">
        <ele>144.122</ele>
        <time>2021-04-01T09:23:23.899Z</time>
      </trkpt>
      <trkpt lat="43.1341805" lon="-2.7921498">
        <ele>144.116</ele>
        <time>2021-04-01T09:23:23.954Z</time>
      </trkpt>
      <trkpt lat="43.1341811" lon="-2.7921522">
        <ele>144.143</ele>
        <time>2021-04-01T09:23:24.009Z</time>
      </trkpt>
      <trkpt lat="43.1341817" lon="-2.7921546">
        <ele>144.151</ele>
        <time>2021-04-01T09:23:24.064Z</time>
      </trkpt>
      <trkpt lat="43.1341826" lon="-2.7921572">
        <ele>144.162</ele>
        <time>2021-04-01T09:23:24.119Z</time>
      </trkpt>
      <trkpt lat="43.1341834" lon="-2.7921596">
        <ele>144.176</ele>
        <time>2021-04-01T09:23:24.174Z</time>
      </trkpt>
      <trkpt lat="43.1341841" lon="-2.7921619">
        <ele>144.164</ele>
        <time>2021-04-01T09:23:24.229Z</time>
      </trkpt>
      <trkpt lat="43.1341848" lon="-2.7921642">
        <ele>144.178</ele>
        <time>2021-04-01T09:23:24.284Z</time>
      </trkpt>
      <trkpt lat="43.1341857" lon="-2.7921666">
        <ele>144.173</ele>
        <time>2021-04-01T09:23:24.339Z</time>
      </trkpt>
      <trkpt lat="43.1341866" lon="-2.7921689">
        <ele>144.174</ele>
        <time>2021-04-01T09:23:24.394Z</time>
      </trkpt>
      <trkpt lat="43.1341875" lon="-2.7921713">
        <ele>144.177</ele>
        <time>2021-04-01T09:23:24.449Z</time>
      </trkpt>
      <trkpt lat="43.1341885" lon="-2.7921737">
        <ele>144.188</ele>
        <time>2021-04-01T09:23:24.504Z</time>
      </trkpt>
      <trkpt lat="43.1341892" lon="-2.7921761">
        <ele>144.204</ele>
        <time>2021-04-01T09:23:24.559Z</time>
      </trkpt>
      <trkpt lat="43.1341899" lon="-2.7921784">
        <ele>144.201</ele>
        <time>2021-04-01T09:23:24.614Z</time>
      </trkpt>
      <trkpt lat="43.1341906" lon="-2.7921809">
        <ele>144.209</ele>
        <time>2021-04-01T09:23:24.669Z</time>
      </trkpt>
      <trkpt lat="43.1341913" lon="-2.7921835">
        <ele>144.233</ele>
        <time>2021-04-01T09:23:24.724Z</time>
      </trkpt>
      <trkpt lat="43.1341922" lon="-2.792186">
        <ele>144.238</ele>
        <time>2021-04-01T09:23:24.779Z</time>
      </trkpt>
      <trkpt lat="43.134193" lon="-2.7921883">
        <ele>144.226</ele>
        <time>2021-04-01T09:23:24.834Z</time>
      </trkpt>
      <trkpt lat="43.1341937" lon="-2.7921907">
        <ele>144.224</ele>
        <time>2021-04-01T09:23:24.889Z</time>
      </trkpt>
      <trkpt lat="43.1341946" lon="-2.7921931">
        <ele>144.219</ele>
        <time>2021-04-01T09:23:24.944Z</time>
      </trkpt>
      <trkpt lat="43.1341954" lon="-2.7921954">
        <ele>144.237</ele>
        <time>2021-04-01T09:23:24.999Z</time>
      </trkpt>
      <trkpt lat="43.1341962" lon="-2.7921978">
        <ele>144.234</ele>
        <time>2021-04-01T09:23:25.054Z</time>
      </trkpt>
      <trkpt lat="43.134197" lon="-2.7922003">
        <ele>144.236</ele>
        <time>2021-04-01T09:23:25.109Z</time>
      </trkpt>
      <trkpt lat="43.1341979" lon="-2.7922026">
        <ele>144.225</ele>
        <time>2021-04-01T09:23:25.164Z</time>
      </trkpt>
      <trkpt lat="43.1341988" lon="-2.7922051">
        <ele>144.22</ele>
        <time>2021-04-01T09:23:25.219Z</time>
      </trkpt>
      <trkpt lat="43.1341998" lon="-2.7922074">
        <ele>144.234</ele>
        <time>2021-04-01T09:23:25.274Z</time>
      </trkpt>
      <trkpt lat="43.1342007" lon="-2.7922097">
        <ele>144.246</ele>
        <time>2021-04-01T09:23:25.329Z</time>
      </trkpt>
      <trkpt lat="43.1342013" lon="-2.7922122">
        <ele>144.257</ele>
        <time>2021-04-01T09:23:25.384Z</time>
      </trkpt>
      <trkpt lat="43.1342023" lon="-2.7922146">
        <ele>144.261</ele>
        <time>2021-04-01T09:23:25.439Z</time>
      </trkpt>
      <trkpt lat="43.1342031" lon="-2.7922171">
        <ele>144.261</ele>
        <time>2021-04-01T09:23:25.494Z</time>
      </trkpt>
      <trkpt lat="43.1342038" lon="-2.7922196">
        <ele>144.274</ele>
        <time>2021-04-01T09:23:25.549Z</time>
      </trkpt>
      <trkpt lat="43.1342046" lon="-2.7922221">
        <ele>144.286</ele>
        <time>2021-04-01T09:23:25.604Z</time>
      </trkpt>
      <trkpt lat="43.1342056" lon="-2.7922245">
        <ele>144.29</ele>
        <time>2021-04-01T09:23:25.659Z</time>
      </trkpt>
      <trkpt lat="43.1342063" lon="-2.7922271">
        <ele>144.301</ele>
        <time>2021-04-01T09:23:25.714Z</time>
      </trkpt>
      <trkpt lat="43.134207" lon="-2.7922293">
        <ele>144.302</ele>
        <time>2021-04-01T09:23:25.769Z</time>
      </trkpt>
      <trkpt lat="43.1342079" lon="-2.7922318">
        <ele>144.342</ele>
        <time>2021-04-01T09:23:25.824Z</time>
      </trkpt>
      <trkpt lat="43.1342086" lon="-2.7922343">
        <ele>144.347</ele>
        <time>2021-04-01T09:23:25.879Z</time>
      </trkpt>
      <trkpt lat="43.1342095" lon="-2.7922369">
        <ele>144.353</ele>
        <time>2021-04-01T09:23:25.934Z</time>
      </trkpt>
      <trkpt lat="43.1342104" lon="-2.7922393">
        <ele>144.369</ele>
        <time>2021-04-01T09:23:25.989Z</time>
      </trkpt>
      <trkpt lat="43.1342113" lon="-2.7922417">
        <ele>144.396</ele>
        <time>2021-04-01T09:23:26.044Z</time>
      </trkpt>
      <trkpt lat="43.134212" lon="-2.7922439">
        <ele>144.411</ele>
        <time>2021-04-01T09:23:26.099Z</time>
      </trkpt>
      <trkpt lat="43.1342127" lon="-2.7922462">
        <ele>144.41</ele>
        <time>2021-04-01T09:23:26.154Z</time>
      </trkpt>
      <trkpt lat="43.1342136" lon="-2.7922487">
        <ele>144.425</ele>
        <time>2021-04-01T09:23:26.209Z</time>
      </trkpt>
      <trkpt lat="43.1342145" lon="-2.7922513">
        <ele>144.457</ele>
        <time>2021-04-01T09:23:26.264Z</time>
      </trkpt>
      <trkpt lat="43.1342154" lon="-2.7922536">
        <ele>144.466</ele>
        <time>2021-04-01T09:23:26.319Z</time>
      </trkpt>
      <trkpt lat="43.134216" lon="-2.7922559">
        <ele>144.492</ele>
        <time>2021-04-01T09:23:26.377Z</time>
      </trkpt>
      <trkpt lat="43.1342168" lon="-2.7922583">
        <ele>144.493</ele>
        <time>2021-04-01T09:23:26.435Z</time>
      </trkpt>
      <trkpt lat="43.1342177" lon="-2.7922605">
        <ele>144.487</ele>
        <time>2021-04-01T09:23:26.493Z</time>
      </trkpt>
      <trkpt lat="43.1342186" lon="-2.7922628">
        <ele>144.487</ele>
        <time>2021-04-01T09:23:26.551Z</time>
      </trkpt>
      <trkpt lat="43.1342196" lon="-2.7922651">
        <ele>144.511</ele>
        <time>2021-04-01T09:23:26.610Z</time>
      </trkpt>
      <trkpt lat="43.1342204" lon="-2.7922675">
        <ele>144.505</ele>
        <time>2021-04-01T09:23:26.668Z</time>
      </trkpt>
      <trkpt lat="43.1342212" lon="-2.7922697">
        <ele>144.496</ele>
        <time>2021-04-01T09:23:26.726Z</time>
      </trkpt>
      <trkpt lat="43.1342223" lon="-2.7922721">
        <ele>144.522</ele>
        <time>2021-04-01T09:23:26.784Z</time>
      </trkpt>
      <trkpt lat="43.134223" lon="-2.7922743">
        <ele>144.537</ele>
        <time>2021-04-01T09:23:26.843Z</time>
      </trkpt>
      <trkpt lat="43.1342236" lon="-2.7922766">
        <ele>144.549</ele>
        <time>2021-04-01T09:23:26.901Z</time>
      </trkpt>
      <trkpt lat="43.1342243" lon="-2.7922789">
        <ele>144.56</ele>
        <time>2021-04-01T09:23:26.959Z</time>
      </trkpt>
      <trkpt lat="43.134225" lon="-2.7922813">
        <ele>144.562</ele>
        <time>2021-04-01T09:23:27.017Z</time>
      </trkpt>
      <trkpt lat="43.1342257" lon="-2.7922838">
        <ele>144.569</ele>
        <time>2021-04-01T09:23:27.076Z</time>
      </trkpt>
      <trkpt lat="43.1342266" lon="-2.7922861">
        <ele>144.563</ele>
        <time>2021-04-01T09:23:27.134Z</time>
      </trkpt>
      <trkpt lat="43.1342275" lon="-2.7922882">
        <ele>144.57</ele>
        <time>2021-04-01T09:23:27.192Z</time>
      </trkpt>
      <trkpt lat="43.1342284" lon="-2.7922904">
        <ele>144.58</ele>
        <time>2021-04-01T09:23:27.250Z</time>
      </trkpt>
      <trkpt lat="43.1342292" lon="-2.7922925">
        <ele>144.591</ele>
        <time>2021-04-01T09:23:27.309Z</time>
      </trkpt>
      <trkpt lat="43.13423" lon="-2.7922949">
        <ele>144.611</ele>
        <time>2021-04-01T09:23:27.361Z</time>
      </trkpt>
      <trkpt lat="43.1342306" lon="-2.792297">
        <ele>144.608</ele>
        <time>2021-04-01T09:23:27.413Z</time>
      </trkpt>
      <trkpt lat="43.1342312" lon="-2.7922992">
        <ele>144.582</ele>
        <time>2021-04-01T09:23:27.465Z</time>
      </trkpt>
      <trkpt lat="43.134232" lon="-2.7923018">
        <ele>144.607</ele>
        <time>2021-04-01T09:23:27.517Z</time>
      </trkpt>
      <trkpt lat="43.1342329" lon="-2.7923042">
        <ele>144.619</ele>
        <time>2021-04-01T09:23:27.569Z</time>
      </trkpt>
      <trkpt lat="43.1342336" lon="-2.7923064">
        <ele>144.637</ele>
        <time>2021-04-01T09:23:27.621Z</time>
      </trkpt>
      <trkpt lat="43.1342342" lon="-2.7923087">
        <ele>144.648</ele>
        <time>2021-04-01T09:23:27.673Z</time>
      </trkpt>
      <trkpt lat="43.134235" lon="-2.7923109">
        <ele>144.642</ele>
        <time>2021-04-01T09:23:27.725Z</time>
      </trkpt>
      <trkpt lat="43.1342357" lon="-2.7923133">
        <ele>144.657</ele>
        <time>2021-04-01T09:23:27.777Z</time>
      </trkpt>
      <trkpt lat="43.1342365" lon="-2.7923157">
        <ele>144.671</ele>
        <time>2021-04-01T09:23:27.830Z</time>
      </trkpt>
      <trkpt lat="43.1342373" lon="-2.7923179">
        <ele>144.671</ele>
        <time>2021-04-01T09:23:27.882Z</time>
      </trkpt>
      <trkpt lat="43.1342383" lon="-2.7923202">
        <ele>144.689</ele>
        <time>2021-04-01T09:23:27.934Z</time>
      </trkpt>
      <trkpt lat="43.1342393" lon="-2.7923224">
        <ele>144.688</ele>
        <time>2021-04-01T09:23:27.986Z</time>
      </trkpt>
      <trkpt lat="43.1342402" lon="-2.7923246">
        <ele>144.691</ele>
        <time>2021-04-01T09:23:28.038Z</time>
      </trkpt>
      <trkpt lat="43.1342408" lon="-2.7923269">
        <ele>144.703</ele>
        <time>2021-04-01T09:23:28.090Z</time>
      </trkpt>
      <trkpt lat="43.1342416" lon="-2.792329">
        <ele>144.73</ele>
        <time>2021-04-01T09:23:28.142Z</time>
      </trkpt>
      <trkpt lat="43.1342425" lon="-2.7923314">
        <ele>144.771</ele>
        <time>2021-04-01T09:23:28.194Z</time>
      </trkpt>
      <trkpt lat="43.1342435" lon="-2.7923338">
        <ele>144.777</ele>
        <time>2021-04-01T09:23:28.246Z</time>
      </trkpt>
      <trkpt lat="43.1342441" lon="-2.792336">
        <ele>144.801</ele>
        <time>2021-04-01T09:23:28.299Z</time>
      </trkpt>
      <trkpt lat="43.1342451" lon="-2.7923382">
        <ele>144.82</ele>
        <time>2021-04-01T09:23:28.354Z</time>
      </trkpt>
      <trkpt lat="43.1342458" lon="-2.7923404">
        <ele>144.815</ele>
        <time>2021-04-01T09:23:28.409Z</time>
      </trkpt>
      <trkpt lat="43.1342466" lon="-2.7923427">
        <ele>144.824</ele>
        <time>2021-04-01T09:23:28.464Z</time>
      </trkpt>
      <trkpt lat="43.1342475" lon="-2.7923452">
        <ele>144.829</ele>
        <time>2021-04-01T09:23:28.519Z</time>
      </trkpt>
      <trkpt lat="43.1342485" lon="-2.7923476">
        <ele>144.87</ele>
        <time>2021-04-01T09:23:28.574Z</time>
      </trkpt>
      <trkpt lat="43.1342494" lon="-2.7923498">
        <ele>144.864</ele>
        <time>2021-04-01T09:23:28.629Z</time>
      </trkpt>
      <trkpt lat="43.1342502" lon="-2.7923522">
        <ele>144.872</ele>
        <time>2021-04-01T09:23:28.684Z</time>
      </trkpt>
      <trkpt lat="43.1342512" lon="-2.7923546">
        <ele>144.904</ele>
        <time>2021-04-01T09:23:28.739Z</time>
      </trkpt>
      <trkpt lat="43.134252" lon="-2.7923569">
        <ele>144.915</ele>
        <time>2021-04-01T09:23:28.794Z</time>
      </trkpt>
      <trkpt lat="43.1342529" lon="-2.7923592">
        <ele>144.917</ele>
        <time>2021-04-01T09:23:28.849Z</time>
      </trkpt>
      <trkpt lat="43.1342536" lon="-2.7923616">
        <ele>144.926</ele>
        <time>2021-04-01T09:23:28.904Z</time>
      </trkpt>
      <trkpt lat="43.1342543" lon="-2.792364">
        <ele>144.939</ele>
        <time>2021-04-01T09:23:28.959Z</time>
      </trkpt>
      <trkpt lat="43.134255" lon="-2.7923663">
        <ele>144.944</ele>
        <time>2021-04-01T09:23:29.014Z</time>
      </trkpt>
      <trkpt lat="43.1342556" lon="-2.7923683">
        <ele>144.955</ele>
        <time>2021-04-01T09:23:29.069Z</time>
      </trkpt>
      <trkpt lat="43.1342564" lon="-2.7923703">
        <ele>144.934</ele>
        <time>2021-04-01T09:23:29.124Z</time>
      </trkpt>
      <trkpt lat="43.1342571" lon="-2.7923727">
        <ele>144.936</ele>
        <time>2021-04-01T09:23:29.179Z</time>
      </trkpt>
      <trkpt lat="43.1342576" lon="-2.792375">
        <ele>144.918</ele>
        <time>2021-04-01T09:23:29.234Z</time>
      </trkpt>
      <trkpt lat="43.1342582" lon="-2.7923773">
        <ele>144.94</ele>
        <time>2021-04-01T09:23:29.289Z</time>
      </trkpt>
      <trkpt lat="43.134259" lon="-2.7923797">
        <ele>144.959</ele>
        <time>2021-04-01T09:23:29.341Z</time>
      </trkpt>
      <trkpt lat="43.1342596" lon="-2.792382">
        <ele>144.963</ele>
        <time>2021-04-01T09:23:29.393Z</time>
      </trkpt>
      <trkpt lat="43.1342604" lon="-2.7923843">
        <ele>144.983</ele>
        <time>2021-04-01T09:23:29.445Z</time>
      </trkpt>
      <trkpt lat="43.1342612" lon="-2.7923864">
        <ele>144.99</ele>
        <time>2021-04-01T09:23:29.497Z</time>
      </trkpt>
      <trkpt lat="43.1342622" lon="-2.7923888">
        <ele>145.002</ele>
        <time>2021-04-01T09:23:29.549Z</time>
      </trkpt>
      <trkpt lat="43.1342631" lon="-2.792391">
        <ele>145.003</ele>
        <time>2021-04-01T09:23:29.601Z</time>
      </trkpt>
      <trkpt lat="43.1342637" lon="-2.7923932">
        <ele>144.982</ele>
        <time>2021-04-01T09:23:29.653Z</time>
      </trkpt>
      <trkpt lat="43.1342648" lon="-2.7923955">
        <ele>145.001</ele>
        <time>2021-04-01T09:23:29.705Z</time>
      </trkpt>
      <trkpt lat="43.1342661" lon="-2.7923979">
        <ele>145.012</ele>
        <time>2021-04-01T09:23:29.757Z</time>
      </trkpt>
      <trkpt lat="43.134267" lon="-2.7924002">
        <ele>145.026</ele>
        <time>2021-04-01T09:23:29.810Z</time>
      </trkpt>
      <trkpt lat="43.1342678" lon="-2.7924025">
        <ele>145.031</ele>
        <time>2021-04-01T09:23:29.862Z</time>
      </trkpt>
      <trkpt lat="43.1342685" lon="-2.7924046">
        <ele>145.043</ele>
        <time>2021-04-01T09:23:29.914Z</time>
      </trkpt>
      <trkpt lat="43.1342693" lon="-2.7924069">
        <ele>145.041</ele>
        <time>2021-04-01T09:23:29.966Z</time>
      </trkpt>
      <trkpt lat="43.1342703" lon="-2.7924092">
        <ele>145.057</ele>
        <time>2021-04-01T09:23:30.018Z</time>
      </trkpt>
      <trkpt lat="43.1342715" lon="-2.7924115">
        <ele>145.06</ele>
        <time>2021-04-01T09:23:30.070Z</time>
      </trkpt>
      <trkpt lat="43.1342725" lon="-2.7924135">
        <ele>145.071</ele>
        <time>2021-04-01T09:23:30.122Z</time>
      </trkpt>
      <trkpt lat="43.1342734" lon="-2.7924156">
        <ele>145.068</ele>
        <time>2021-04-01T09:23:30.174Z</time>
      </trkpt>
      <trkpt lat="43.1342744" lon="-2.7924178">
        <ele>145.078</ele>
        <time>2021-04-01T09:23:30.226Z</time>
      </trkpt>
      <trkpt lat="43.1342754" lon="-2.7924199">
        <ele>145.08</ele>
        <time>2021-04-01T09:23:30.279Z</time>
      </trkpt>
      <trkpt lat="43.1342763" lon="-2.7924222">
        <ele>145.106</ele>
        <time>2021-04-01T09:23:30.337Z</time>
      </trkpt>
      <trkpt lat="43.1342772" lon="-2.7924244">
        <ele>145.109</ele>
        <time>2021-04-01T09:23:30.395Z</time>
      </trkpt>
      <trkpt lat="43.1342783" lon="-2.7924269">
        <ele>145.073</ele>
        <time>2021-04-01T09:23:30.453Z</time>
      </trkpt>
      <trkpt lat="43.1342792" lon="-2.7924291">
        <ele>145.108</ele>
        <time>2021-04-01T09:23:30.511Z</time>
      </trkpt>
      <trkpt lat="43.1342801" lon="-2.7924313">
        <ele>145.114</ele>
        <time>2021-04-01T09:23:30.570Z</time>
      </trkpt>
      <trkpt lat="43.1342809" lon="-2.7924334">
        <ele>145.086</ele>
        <time>2021-04-01T09:23:30.628Z</time>
      </trkpt>
      <trkpt lat="43.1342816" lon="-2.7924358">
        <ele>145.11</ele>
        <time>2021-04-01T09:23:30.686Z</time>
      </trkpt>
      <trkpt lat="43.1342824" lon="-2.7924381">
        <ele>145.138</ele>
        <time>2021-04-01T09:23:30.744Z</time>
      </trkpt>
      <trkpt lat="43.1342834" lon="-2.7924405">
        <ele>145.184</ele>
        <time>2021-04-01T09:23:30.803Z</time>
      </trkpt>
      <trkpt lat="43.1342842" lon="-2.7924429">
        <ele>145.165</ele>
        <time>2021-04-01T09:23:30.861Z</time>
      </trkpt>
      <trkpt lat="43.1342851" lon="-2.7924452">
        <ele>145.183</ele>
        <time>2021-04-01T09:23:30.919Z</time>
      </trkpt>
      <trkpt lat="43.1342859" lon="-2.7924475">
        <ele>145.212</ele>
        <time>2021-04-01T09:23:30.977Z</time>
      </trkpt>
      <trkpt lat="43.1342869" lon="-2.7924498">
        <ele>145.205</ele>
        <time>2021-04-01T09:23:31.036Z</time>
      </trkpt>
      <trkpt lat="43.134288" lon="-2.7924519">
        <ele>145.197</ele>
        <time>2021-04-01T09:23:31.094Z</time>
      </trkpt>
      <trkpt lat="43.1342889" lon="-2.7924541">
        <ele>145.237</ele>
        <time>2021-04-01T09:23:31.152Z</time>
      </trkpt>
      <trkpt lat="43.1342898" lon="-2.7924563">
        <ele>145.224</ele>
        <time>2021-04-01T09:23:31.210Z</time>
      </trkpt>
      <trkpt lat="43.1342907" lon="-2.7924586">
        <ele>145.22</ele>
        <time>2021-04-01T09:23:31.269Z</time>
      </trkpt>
      <trkpt lat="43.1342919" lon="-2.792461">
        <ele>145.243</ele>
        <time>2021-04-01T09:23:31.324Z</time>
      </trkpt>
      <trkpt lat="43.1342927" lon="-2.7924631">
        <ele>145.275</ele>
        <time>2021-04-01T09:23:31.379Z</time>
      </trkpt>
      <trkpt lat="43.1342935" lon="-2.7924654">
        <ele>145.283</ele>
        <time>2021-04-01T09:23:31.434Z</time>
      </trkpt>
      <trkpt lat="43.1342942" lon="-2.7924677">
        <ele>145.288</ele>
        <time>2021-04-01T09:23:31.489Z</time>
      </trkpt>
      <trkpt lat="43.1342951" lon="-2.7924701">
        <ele>145.295</ele>
        <time>2021-04-01T09:23:31.544Z</time>
      </trkpt>
      <trkpt lat="43.1342962" lon="-2.7924725">
        <ele>145.294</ele>
        <time>2021-04-01T09:23:31.599Z</time>
      </trkpt>
      <trkpt lat="43.1342969" lon="-2.7924747">
        <ele>145.341</ele>
        <time>2021-04-01T09:23:31.654Z</time>
      </trkpt>
      <trkpt lat="43.1342977" lon="-2.7924771">
        <ele>145.34</ele>
        <time>2021-04-01T09:23:31.709Z</time>
      </trkpt>
      <trkpt lat="43.1342987" lon="-2.7924793">
        <ele>145.344</ele>
        <time>2021-04-01T09:23:31.764Z</time>
      </trkpt>
      <trkpt lat="43.1342997" lon="-2.7924815">
        <ele>145.346</ele>
        <time>2021-04-01T09:23:31.819Z</time>
      </trkpt>
      <trkpt lat="43.1343004" lon="-2.7924837">
        <ele>145.365</ele>
        <time>2021-04-01T09:23:31.874Z</time>
      </trkpt>
      <trkpt lat="43.1343012" lon="-2.7924861">
        <ele>145.394</ele>
        <time>2021-04-01T09:23:31.929Z</time>
      </trkpt>
      <trkpt lat="43.1343023" lon="-2.7924884">
        <ele>145.379</ele>
        <time>2021-04-01T09:23:31.984Z</time>
      </trkpt>
      <trkpt lat="43.134303" lon="-2.7924908">
        <ele>145.404</ele>
        <time>2021-04-01T09:23:32.039Z</time>
      </trkpt>
      <trkpt lat="43.1343037" lon="-2.7924933">
        <ele>145.428</ele>
        <time>2021-04-01T09:23:32.094Z</time>
      </trkpt>
      <trkpt lat="43.1343044" lon="-2.7924957">
        <ele>145.425</ele>
        <time>2021-04-01T09:23:32.149Z</time>
      </trkpt>
      <trkpt lat="43.1343052" lon="-2.7924978">
        <ele>145.411</ele>
        <time>2021-04-01T09:23:32.204Z</time>
      </trkpt>
      <trkpt lat="43.1343059" lon="-2.7925001">
        <ele>145.426</ele>
        <time>2021-04-01T09:23:32.259Z</time>
      </trkpt>
      <trkpt lat="43.1343067" lon="-2.7925024">
        <ele>145.441</ele>
        <time>2021-04-01T09:23:32.314Z</time>
      </trkpt>
      <trkpt lat="43.1343075" lon="-2.7925049">
        <ele>145.455</ele>
        <time>2021-04-01T09:23:32.369Z</time>
      </trkpt>
      <trkpt lat="43.1343084" lon="-2.7925072">
        <ele>145.481</ele>
        <time>2021-04-01T09:23:32.424Z</time>
      </trkpt>
      <trkpt lat="43.1343091" lon="-2.7925096">
        <ele>145.485</ele>
        <time>2021-04-01T09:23:32.479Z</time>
      </trkpt>
      <trkpt lat="43.1343101" lon="-2.7925119">
        <ele>145.499</ele>
        <time>2021-04-01T09:23:32.534Z</time>
      </trkpt>
      <trkpt lat="43.1343111" lon="-2.7925142">
        <ele>145.525</ele>
        <time>2021-04-01T09:23:32.589Z</time>
      </trkpt>
      <trkpt lat="43.1343115" lon="-2.7925168">
        <ele>145.552</ele>
        <time>2021-04-01T09:23:32.644Z</time>
      </trkpt>
      <trkpt lat="43.134312" lon="-2.7925194">
        <ele>145.543</ele>
        <time>2021-04-01T09:23:32.699Z</time>
      </trkpt>
      <trkpt lat="43.1343128" lon="-2.792522">
        <ele>145.563</ele>
        <time>2021-04-01T09:23:32.754Z</time>
      </trkpt>
      <trkpt lat="43.1343134" lon="-2.7925243">
        <ele>145.594</ele>
        <time>2021-04-01T09:23:32.809Z</time>
      </trkpt>
      <trkpt lat="43.1343142" lon="-2.7925264">
        <ele>145.626</ele>
        <time>2021-04-01T09:23:32.864Z</time>
      </trkpt>
      <trkpt lat="43.1343151" lon="-2.7925287">
        <ele>145.653</ele>
        <time>2021-04-01T09:23:32.919Z</time>
      </trkpt>
      <trkpt lat="43.1343162" lon="-2.7925311">
        <ele>145.639</ele>
        <time>2021-04-01T09:23:32.974Z</time>
      </trkpt>
      <trkpt lat="43.1343168" lon="-2.7925335">
        <ele>145.649</ele>
        <time>2021-04-01T09:23:33.029Z</time>
      </trkpt>
      <trkpt lat="43.1343179" lon="-2.7925357">
        <ele>145.643</ele>
        <time>2021-04-01T09:23:33.084Z</time>
      </trkpt>
      <trkpt lat="43.1343186" lon="-2.7925383">
        <ele>145.674</ele>
        <time>2021-04-01T09:23:33.139Z</time>
      </trkpt>
      <trkpt lat="43.1343193" lon="-2.7925403">
        <ele>145.683</ele>
        <time>2021-04-01T09:23:33.194Z</time>
      </trkpt>
      <trkpt lat="43.1343201" lon="-2.7925427">
        <ele>145.661</ele>
        <time>2021-04-01T09:23:33.249Z</time>
      </trkpt>
      <trkpt lat="43.134321" lon="-2.7925447">
        <ele>145.693</ele>
        <time>2021-04-01T09:23:33.304Z</time>
      </trkpt>
      <trkpt lat="43.1343219" lon="-2.792547">
        <ele>145.689</ele>
        <time>2021-04-01T09:23:33.359Z</time>
      </trkpt>
      <trkpt lat="43.1343226" lon="-2.7925492">
        <ele>145.702</ele>
        <time>2021-04-01T09:23:33.414Z</time>
      </trkpt>
      <trkpt lat="43.1343233" lon="-2.7925517">
        <ele>145.703</ele>
        <time>2021-04-01T09:23:33.469Z</time>
      </trkpt>
      <trkpt lat="43.1343241" lon="-2.792554">
        <ele>145.692</ele>
        <time>2021-04-01T09:23:33.524Z</time>
      </trkpt>
      <trkpt lat="43.1343252" lon="-2.7925559">
        <ele>145.703</ele>
        <time>2021-04-01T09:23:33.579Z</time>
      </trkpt>
      <trkpt lat="43.1343262" lon="-2.7925579">
        <ele>145.731</ele>
        <time>2021-04-01T09:23:33.634Z</time>
      </trkpt>
      <trkpt lat="43.1343271" lon="-2.7925602">
        <ele>145.708</ele>
        <time>2021-04-01T09:23:33.689Z</time>
      </trkpt>
      <trkpt lat="43.1343279" lon="-2.7925625">
        <ele>145.687</ele>
        <time>2021-04-01T09:23:33.744Z</time>
      </trkpt>
      <trkpt lat="43.1343287" lon="-2.7925647">
        <ele>145.719</ele>
        <time>2021-04-01T09:23:33.799Z</time>
      </trkpt>
      <trkpt lat="43.1343293" lon="-2.7925671">
        <ele>145.728</ele>
        <time>2021-04-01T09:23:33.854Z</time>
      </trkpt>
      <trkpt lat="43.1343305" lon="-2.7925691">
        <ele>145.727</ele>
        <time>2021-04-01T09:23:33.909Z</time>
      </trkpt>
      <trkpt lat="43.1343317" lon="-2.7925713">
        <ele>145.72</ele>
        <time>2021-04-01T09:23:33.964Z</time>
      </trkpt>
      <trkpt lat="43.1343329" lon="-2.7925734">
        <ele>145.724</ele>
        <time>2021-04-01T09:23:34.019Z</time>
      </trkpt>
      <trkpt lat="43.134334" lon="-2.7925755">
        <ele>145.728</ele>
        <time>2021-04-01T09:23:34.074Z</time>
      </trkpt>
      <trkpt lat="43.134335" lon="-2.7925777">
        <ele>145.766</ele>
        <time>2021-04-01T09:23:34.129Z</time>
      </trkpt>
      <trkpt lat="43.134336" lon="-2.7925799">
        <ele>145.767</ele>
        <time>2021-04-01T09:23:34.184Z</time>
      </trkpt>
      <trkpt lat="43.1343371" lon="-2.792582">
        <ele>145.762</ele>
        <time>2021-04-01T09:23:34.239Z</time>
      </trkpt>
      <trkpt lat="43.1343383" lon="-2.7925842">
        <ele>145.797</ele>
        <time>2021-04-01T09:23:34.294Z</time>
      </trkpt>
      <trkpt lat="43.134339" lon="-2.7925863">
        <ele>145.796</ele>
        <time>2021-04-01T09:23:34.349Z</time>
      </trkpt>
      <trkpt lat="43.1343397" lon="-2.7925886">
        <ele>145.826</ele>
        <time>2021-04-01T09:23:34.404Z</time>
      </trkpt>
      <trkpt lat="43.1343405" lon="-2.792591">
        <ele>145.813</ele>
        <time>2021-04-01T09:23:34.459Z</time>
      </trkpt>
      <trkpt lat="43.1343415" lon="-2.7925933">
        <ele>145.793</ele>
        <time>2021-04-01T09:23:34.514Z</time>
      </trkpt>
      <trkpt lat="43.1343422" lon="-2.7925956">
        <ele>145.859</ele>
        <time>2021-04-01T09:23:34.569Z</time>
      </trkpt>
      <trkpt lat="43.1343431" lon="-2.7925981">
        <ele>145.889</ele>
        <time>2021-04-01T09:23:34.624Z</time>
      </trkpt>
      <trkpt lat="43.1343438" lon="-2.7926003">
        <ele>145.919</ele>
        <time>2021-04-01T09:23:34.679Z</time>
      </trkpt>
      <trkpt lat="43.1343448" lon="-2.7926025">
        <ele>145.917</ele>
        <time>2021-04-01T09:23:34.734Z</time>
      </trkpt>
      <trkpt lat="43.1343455" lon="-2.7926049">
        <ele>145.949</ele>
        <time>2021-04-01T09:23:34.789Z</time>
      </trkpt>
      <trkpt lat="43.1343463" lon="-2.7926073">
        <ele>145.946</ele>
        <time>2021-04-01T09:23:34.844Z</time>
      </trkpt>
      <trkpt lat="43.1343469" lon="-2.7926099">
        <ele>145.96</ele>
        <time>2021-04-01T09:23:34.899Z</time>
      </trkpt>
      <trkpt lat="43.1343476" lon="-2.7926123">
        <ele>145.991</ele>
        <time>2021-04-01T09:23:34.954Z</time>
      </trkpt>
      <trkpt lat="43.1343484" lon="-2.7926146">
        <ele>146.009</ele>
        <time>2021-04-01T09:23:35.009Z</time>
      </trkpt>
      <trkpt lat="43.1343492" lon="-2.7926169">
        <ele>146.05</ele>
        <time>2021-04-01T09:23:35.064Z</time>
      </trkpt>
      <trkpt lat="43.1343499" lon="-2.7926191">
        <ele>146.098</ele>
        <time>2021-04-01T09:23:35.119Z</time>
      </trkpt>
      <trkpt lat="43.1343506" lon="-2.7926214">
        <ele>146.106</ele>
        <time>2021-04-01T09:23:35.174Z</time>
      </trkpt>
      <trkpt lat="43.1343514" lon="-2.7926239">
        <ele>146.095</ele>
        <time>2021-04-01T09:23:35.229Z</time>
      </trkpt>
      <trkpt lat="43.1343523" lon="-2.7926263">
        <ele>146.123</ele>
        <time>2021-04-01T09:23:35.284Z</time>
      </trkpt>
      <trkpt lat="43.1343532" lon="-2.7926285">
        <ele>146.145</ele>
        <time>2021-04-01T09:23:35.339Z</time>
      </trkpt>
      <trkpt lat="43.1343538" lon="-2.792631">
        <ele>146.151</ele>
        <time>2021-04-01T09:23:35.394Z</time>
      </trkpt>
      <trkpt lat="43.1343546" lon="-2.7926333">
        <ele>146.175</ele>
        <time>2021-04-01T09:23:35.449Z</time>
      </trkpt>
      <trkpt lat="43.1343555" lon="-2.7926354">
        <ele>146.199</ele>
        <time>2021-04-01T09:23:35.504Z</time>
      </trkpt>
      <trkpt lat="43.1343564" lon="-2.7926378">
        <ele>146.219</ele>
        <time>2021-04-01T09:23:35.559Z</time>
      </trkpt>
      <trkpt lat="43.1343574" lon="-2.79264">
        <ele>146.207</ele>
        <time>2021-04-01T09:23:35.614Z</time>
      </trkpt>
      <trkpt lat="43.1343582" lon="-2.7926426">
        <ele>146.223</ele>
        <time>2021-04-01T09:23:35.669Z</time>
      </trkpt>
      <trkpt lat="43.134359" lon="-2.7926448">
        <ele>146.229</ele>
        <time>2021-04-01T09:23:35.724Z</time>
      </trkpt>
      <trkpt lat="43.1343598" lon="-2.7926471">
        <ele>146.238</ele>
        <time>2021-04-01T09:23:35.779Z</time>
      </trkpt>
      <trkpt lat="43.1343606" lon="-2.7926493">
        <ele>146.267</ele>
        <time>2021-04-01T09:23:35.834Z</time>
      </trkpt>
      <trkpt lat="43.1343614" lon="-2.7926518">
        <ele>146.304</ele>
        <time>2021-04-01T09:23:35.889Z</time>
      </trkpt>
      <trkpt lat="43.1343622" lon="-2.7926541">
        <ele>146.303</ele>
        <time>2021-04-01T09:23:35.944Z</time>
      </trkpt>
      <trkpt lat="43.134363" lon="-2.7926565">
        <ele>146.313</ele>
        <time>2021-04-01T09:23:35.999Z</time>
      </trkpt>
      <trkpt lat="43.1343637" lon="-2.7926588">
        <ele>146.332</ele>
        <time>2021-04-01T09:23:36.054Z</time>
      </trkpt>
      <trkpt lat="43.1343646" lon="-2.7926611">
        <ele>146.369</ele>
        <time>2021-04-01T09:23:36.109Z</time>
      </trkpt>
      <trkpt lat="43.1343655" lon="-2.7926636">
        <ele>146.364</ele>
        <time>2021-04-01T09:23:36.164Z</time>
      </trkpt>
      <trkpt lat="43.1343663" lon="-2.7926658">
        <ele>146.374</ele>
        <time>2021-04-01T09:23:36.219Z</time>
      </trkpt>
      <trkpt lat="43.1343671" lon="-2.7926681">
        <ele>146.366</ele>
        <time>2021-04-01T09:23:36.274Z</time>
      </trkpt>
      <trkpt lat="43.134368" lon="-2.7926704">
        <ele>146.372</ele>
        <time>2021-04-01T09:23:36.329Z</time>
      </trkpt>
      <trkpt lat="43.1343689" lon="-2.7926726">
        <ele>146.386</ele>
        <time>2021-04-01T09:23:36.384Z</time>
      </trkpt>
      <trkpt lat="43.1343697" lon="-2.792675">
        <ele>146.404</ele>
        <time>2021-04-01T09:23:36.439Z</time>
      </trkpt>
      <trkpt lat="43.1343705" lon="-2.7926771">
        <ele>146.434</ele>
        <time>2021-04-01T09:23:36.494Z</time>
      </trkpt>
      <trkpt lat="43.1343714" lon="-2.7926798">
        <ele>146.467</ele>
        <time>2021-04-01T09:23:36.549Z</time>
      </trkpt>
      <trkpt lat="43.1343722" lon="-2.7926822">
        <ele>146.484</ele>
        <time>2021-04-01T09:23:36.604Z</time>
      </trkpt>
      <trkpt lat="43.1343731" lon="-2.7926844">
        <ele>146.498</ele>
        <time>2021-04-01T09:23:36.659Z</time>
      </trkpt>
      <trkpt lat="43.1343741" lon="-2.7926864">
        <ele>146.492</ele>
        <time>2021-04-01T09:23:36.714Z</time>
      </trkpt>
      <trkpt lat="43.1343749" lon="-2.7926888">
        <ele>146.5</ele>
        <time>2021-04-01T09:23:36.769Z</time>
      </trkpt>
      <trkpt lat="43.1343758" lon="-2.792691">
        <ele>146.521</ele>
        <time>2021-04-01T09:23:36.824Z</time>
      </trkpt>
      <trkpt lat="43.1343763" lon="-2.7926935">
        <ele>146.56</ele>
        <time>2021-04-01T09:23:36.879Z</time>
      </trkpt>
      <trkpt lat="43.1343773" lon="-2.792696">
        <ele>146.575</ele>
        <time>2021-04-01T09:23:36.934Z</time>
      </trkpt>
      <trkpt lat="43.1343783" lon="-2.7926981">
        <ele>146.571</ele>
        <time>2021-04-01T09:23:36.989Z</time>
      </trkpt>
      <trkpt lat="43.1343792" lon="-2.7927001">
        <ele>146.577</ele>
        <time>2021-04-01T09:23:37.044Z</time>
      </trkpt>
      <trkpt lat="43.13438" lon="-2.7927023">
        <ele>146.61</ele>
        <time>2021-04-01T09:23:37.099Z</time>
      </trkpt>
      <trkpt lat="43.134381" lon="-2.7927047">
        <ele>146.682</ele>
        <time>2021-04-01T09:23:37.154Z</time>
      </trkpt>
      <trkpt lat="43.1343818" lon="-2.7927071">
        <ele>146.72</ele>
        <time>2021-04-01T09:23:37.209Z</time>
      </trkpt>
      <trkpt lat="43.1343828" lon="-2.7927097">
        <ele>146.742</ele>
        <time>2021-04-01T09:23:37.264Z</time>
      </trkpt>
      <trkpt lat="43.1343835" lon="-2.7927121">
        <ele>146.782</ele>
        <time>2021-04-01T09:23:37.319Z</time>
      </trkpt>
      <trkpt lat="43.1343845" lon="-2.7927141">
        <ele>146.801</ele>
        <time>2021-04-01T09:23:37.374Z</time>
      </trkpt>
      <trkpt lat="43.1343853" lon="-2.7927163">
        <ele>146.828</ele>
        <time>2021-04-01T09:23:37.429Z</time>
      </trkpt>
      <trkpt lat="43.134386" lon="-2.7927186">
        <ele>146.832</ele>
        <time>2021-04-01T09:23:37.484Z</time>
      </trkpt>
      <trkpt lat="43.1343869" lon="-2.7927209">
        <ele>146.832</ele>
        <time>2021-04-01T09:23:37.539Z</time>
      </trkpt>
      <trkpt lat="43.1343877" lon="-2.7927235">
        <ele>146.851</ele>
        <time>2021-04-01T09:23:37.594Z</time>
      </trkpt>
      <trkpt lat="43.1343886" lon="-2.7927258">
        <ele>146.87</ele>
        <time>2021-04-01T09:23:37.649Z</time>
      </trkpt>
      <trkpt lat="43.1343895" lon="-2.792728">
        <ele>146.889</ele>
        <time>2021-04-01T09:23:37.704Z</time>
      </trkpt>
      <trkpt lat="43.1343901" lon="-2.7927305">
        <ele>146.889</ele>
        <time>2021-04-01T09:23:37.759Z</time>
      </trkpt>
      <trkpt lat="43.1343907" lon="-2.7927328">
        <ele>146.893</ele>
        <time>2021-04-01T09:23:37.814Z</time>
      </trkpt>
      <trkpt lat="43.1343913" lon="-2.792735">
        <ele>146.886</ele>
        <time>2021-04-01T09:23:37.869Z</time>
      </trkpt>
      <trkpt lat="43.1343921" lon="-2.792737">
        <ele>146.866</ele>
        <time>2021-04-01T09:23:37.924Z</time>
      </trkpt>
      <trkpt lat="43.1343927" lon="-2.7927394">
        <ele>146.877</ele>
        <time>2021-04-01T09:23:37.979Z</time>
      </trkpt>
      <trkpt lat="43.1343934" lon="-2.7927419">
        <ele>146.904</ele>
        <time>2021-04-01T09:23:38.034Z</time>
      </trkpt>
      <trkpt lat="43.134394" lon="-2.7927445">
        <ele>146.963</ele>
        <time>2021-04-01T09:23:38.089Z</time>
      </trkpt>
      <trkpt lat="43.1343948" lon="-2.7927469">
        <ele>146.998</ele>
        <time>2021-04-01T09:23:38.144Z</time>
      </trkpt>
      <trkpt lat="43.1343955" lon="-2.7927492">
        <ele>146.999</ele>
        <time>2021-04-01T09:23:38.199Z</time>
      </trkpt>
      <trkpt lat="43.1343961" lon="-2.7927514">
        <ele>146.977</ele>
        <time>2021-04-01T09:23:38.254Z</time>
      </trkpt>
      <trkpt lat="43.134397" lon="-2.7927539">
        <ele>146.993</ele>
        <time>2021-04-01T09:23:38.309Z</time>
      </trkpt>
      <trkpt lat="43.1343979" lon="-2.7927564">
        <ele>147.041</ele>
        <time>2021-04-01T09:23:38.364Z</time>
      </trkpt>
      <trkpt lat="43.1343987" lon="-2.7927587">
        <ele>147.066</ele>
        <time>2021-04-01T09:23:38.419Z</time>
      </trkpt>
      <trkpt lat="43.1343993" lon="-2.7927609">
        <ele>147.094</ele>
        <time>2021-04-01T09:23:38.474Z</time>
      </trkpt>
      <trkpt lat="43.1343999" lon="-2.7927632">
        <ele>147.089</ele>
        <time>2021-04-01T09:23:38.529Z</time>
      </trkpt>
      <trkpt lat="43.1344006" lon="-2.7927658">
        <ele>147.119</ele>
        <time>2021-04-01T09:23:38.584Z</time>
      </trkpt>
      <trkpt lat="43.1344015" lon="-2.7927683">
        <ele>147.151</ele>
        <time>2021-04-01T09:23:38.639Z</time>
      </trkpt>
      <trkpt lat="43.1344021" lon="-2.7927705">
        <ele>147.134</ele>
        <time>2021-04-01T09:23:38.694Z</time>
      </trkpt>
      <trkpt lat="43.1344029" lon="-2.7927729">
        <ele>147.158</ele>
        <time>2021-04-01T09:23:38.749Z</time>
      </trkpt>
      <trkpt lat="43.1344038" lon="-2.7927755">
        <ele>147.198</ele>
        <time>2021-04-01T09:23:38.804Z</time>
      </trkpt>
      <trkpt lat="43.1344045" lon="-2.792778">
        <ele>147.215</ele>
        <time>2021-04-01T09:23:38.859Z</time>
      </trkpt>
      <trkpt lat="43.1344053" lon="-2.7927804">
        <ele>147.219</ele>
        <time>2021-04-01T09:23:38.914Z</time>
      </trkpt>
      <trkpt lat="43.1344062" lon="-2.7927828">
        <ele>147.236</ele>
        <time>2021-04-01T09:23:38.969Z</time>
      </trkpt>
      <trkpt lat="43.134407" lon="-2.7927851">
        <ele>147.22</ele>
        <time>2021-04-01T09:23:39.024Z</time>
      </trkpt>
      <trkpt lat="43.1344076" lon="-2.7927875">
        <ele>147.214</ele>
        <time>2021-04-01T09:23:39.079Z</time>
      </trkpt>
      <trkpt lat="43.1344085" lon="-2.7927897">
        <ele>147.197</ele>
        <time>2021-04-01T09:23:39.134Z</time>
      </trkpt>
      <trkpt lat="43.1344094" lon="-2.7927921">
        <ele>147.201</ele>
        <time>2021-04-01T09:23:39.189Z</time>
      </trkpt>
      <trkpt lat="43.1344102" lon="-2.7927946">
        <ele>147.25</ele>
        <time>2021-04-01T09:23:39.244Z</time>
      </trkpt>
      <trkpt lat="43.1344111" lon="-2.7927968">
        <ele>147.245</ele>
        <time>2021-04-01T09:23:39.299Z</time>
      </trkpt>
      <trkpt lat="43.1344119" lon="-2.792799">
        <ele>147.242</ele>
        <time>2021-04-01T09:23:39.354Z</time>
      </trkpt>
      <trkpt lat="43.1344126" lon="-2.7928013">
        <ele>147.235</ele>
        <time>2021-04-01T09:23:39.409Z</time>
      </trkpt>
      <trkpt lat="43.1344134" lon="-2.7928037">
        <ele>147.241</ele>
        <time>2021-04-01T09:23:39.464Z</time>
      </trkpt>
      <trkpt lat="43.1344145" lon="-2.7928062">
        <ele>147.264</ele>
        <time>2021-04-01T09:23:39.519Z</time>
      </trkpt>
      <trkpt lat="43.1344157" lon="-2.7928085">
        <ele>147.247</ele>
        <time>2021-04-01T09:23:39.574Z</time>
      </trkpt>
      <trkpt lat="43.1344169" lon="-2.7928107">
        <ele>147.225</ele>
        <time>2021-04-01T09:23:39.629Z</time>
      </trkpt>
      <trkpt lat="43.1344178" lon="-2.792813">
        <ele>147.204</ele>
        <time>2021-04-01T09:23:39.684Z</time>
      </trkpt>
      <trkpt lat="43.1344185" lon="-2.7928154">
        <ele>147.214</ele>
        <time>2021-04-01T09:23:39.739Z</time>
      </trkpt>
      <trkpt lat="43.1344195" lon="-2.7928176">
        <ele>147.228</ele>
        <time>2021-04-01T09:23:39.794Z</time>
      </trkpt>
      <trkpt lat="43.1344204" lon="-2.7928199">
        <ele>147.208</ele>
        <time>2021-04-01T09:23:39.849Z</time>
      </trkpt>
      <trkpt lat="43.1344211" lon="-2.7928224">
        <ele>147.223</ele>
        <time>2021-04-01T09:23:39.904Z</time>
      </trkpt>
      <trkpt lat="43.134422" lon="-2.7928248">
        <ele>147.243</ele>
        <time>2021-04-01T09:23:39.959Z</time>
      </trkpt>
      <trkpt lat="43.1344226" lon="-2.7928271">
        <ele>147.252</ele>
        <time>2021-04-01T09:23:40.014Z</time>
      </trkpt>
      <trkpt lat="43.1344235" lon="-2.7928292">
        <ele>147.247</ele>
        <time>2021-04-01T09:23:40.069Z</time>
      </trkpt>
      <trkpt lat="43.1344241" lon="-2.7928313">
        <ele>147.235</ele>
        <time>2021-04-01T09:23:40.124Z</time>
      </trkpt>
      <trkpt lat="43.1344246" lon="-2.7928336">
        <ele>147.2</ele>
        <time>2021-04-01T09:23:40.179Z</time>
      </trkpt>
      <trkpt lat="43.1344254" lon="-2.7928355">
        <ele>147.174</ele>
        <time>2021-04-01T09:23:40.234Z</time>
      </trkpt>
      <trkpt lat="43.1344262" lon="-2.7928378">
        <ele>147.152</ele>
        <time>2021-04-01T09:23:40.289Z</time>
      </trkpt>
      <trkpt lat="43.134427" lon="-2.7928403">
        <ele>147.149</ele>
        <time>2021-04-01T09:23:40.341Z</time>
      </trkpt>
      <trkpt lat="43.134428" lon="-2.7928424">
        <ele>147.159</ele>
        <time>2021-04-01T09:23:40.393Z</time>
      </trkpt>
      <trkpt lat="43.134429" lon="-2.7928448">
        <ele>147.148</ele>
        <time>2021-04-01T09:23:40.445Z</time>
      </trkpt>
      <trkpt lat="43.13443" lon="-2.7928472">
        <ele>147.144</ele>
        <time>2021-04-01T09:23:40.497Z</time>
      </trkpt>
      <trkpt lat="43.1344306" lon="-2.7928496">
        <ele>147.167</ele>
        <time>2021-04-01T09:23:40.549Z</time>
      </trkpt>
      <trkpt lat="43.1344315" lon="-2.792852">
        <ele>147.18</ele>
        <time>2021-04-01T09:23:40.601Z</time>
      </trkpt>
      <trkpt lat="43.1344326" lon="-2.7928541">
        <ele>147.175</ele>
        <time>2021-04-01T09:23:40.653Z</time>
      </trkpt>
      <trkpt lat="43.1344332" lon="-2.7928564">
        <ele>147.158</ele>
        <time>2021-04-01T09:23:40.705Z</time>
      </trkpt>
      <trkpt lat="43.1344339" lon="-2.7928589">
        <ele>147.198</ele>
        <time>2021-04-01T09:23:40.757Z</time>
      </trkpt>
      <trkpt lat="43.1344348" lon="-2.792861">
        <ele>147.2</ele>
        <time>2021-04-01T09:23:40.810Z</time>
      </trkpt>
      <trkpt lat="43.1344358" lon="-2.7928632">
        <ele>147.199</ele>
        <time>2021-04-01T09:23:40.862Z</time>
      </trkpt>
      <trkpt lat="43.1344367" lon="-2.7928656">
        <ele>147.194</ele>
        <time>2021-04-01T09:23:40.914Z</time>
      </trkpt>
      <trkpt lat="43.1344377" lon="-2.7928679">
        <ele>147.196</ele>
        <time>2021-04-01T09:23:40.966Z</time>
      </trkpt>
      <trkpt lat="43.1344389" lon="-2.7928702">
        <ele>147.23</ele>
        <time>2021-04-01T09:23:41.018Z</time>
      </trkpt>
      <trkpt lat="43.1344397" lon="-2.7928726">
        <ele>147.255</ele>
        <time>2021-04-01T09:23:41.070Z</time>
      </trkpt>
      <trkpt lat="43.1344405" lon="-2.7928748">
        <ele>147.271</ele>
        <time>2021-04-01T09:23:41.122Z</time>
      </trkpt>
      <trkpt lat="43.1344416" lon="-2.7928769">
        <ele>147.24</ele>
        <time>2021-04-01T09:23:41.174Z</time>
      </trkpt>
      <trkpt lat="43.1344428" lon="-2.7928789">
        <ele>147.229</ele>
        <time>2021-04-01T09:23:41.226Z</time>
      </trkpt>
      <trkpt lat="43.1344436" lon="-2.7928813">
        <ele>147.255</ele>
        <time>2021-04-01T09:23:41.279Z</time>
      </trkpt>
      <trkpt lat="43.1344443" lon="-2.7928837">
        <ele>147.286</ele>
        <time>2021-04-01T09:23:41.337Z</time>
      </trkpt>
      <trkpt lat="43.1344452" lon="-2.792886">
        <ele>147.298</ele>
        <time>2021-04-01T09:23:41.395Z</time>
      </trkpt>
      <trkpt lat="43.1344461" lon="-2.7928882">
        <ele>147.304</ele>
        <time>2021-04-01T09:23:41.453Z</time>
      </trkpt>
      <trkpt lat="43.1344467" lon="-2.7928905">
        <ele>147.334</ele>
        <time>2021-04-01T09:23:41.511Z</time>
      </trkpt>
      <trkpt lat="43.1344475" lon="-2.7928928">
        <ele>147.353</ele>
        <time>2021-04-01T09:23:41.569Z</time>
      </trkpt>
      <trkpt lat="43.1344485" lon="-2.7928951">
        <ele>147.406</ele>
        <time>2021-04-01T09:23:41.627Z</time>
      </trkpt>
      <trkpt lat="43.1344492" lon="-2.7928973">
        <ele>147.381</ele>
        <time>2021-04-01T09:23:41.685Z</time>
      </trkpt>
      <trkpt lat="43.13445" lon="-2.7928996">
        <ele>147.385</ele>
        <time>2021-04-01T09:23:41.743Z</time>
      </trkpt>
      <trkpt lat="43.134451" lon="-2.7929017">
        <ele>147.38</ele>
        <time>2021-04-01T09:23:41.801Z</time>
      </trkpt>
      <trkpt lat="43.1344517" lon="-2.7929039">
        <ele>147.397</ele>
        <time>2021-04-01T09:23:41.859Z</time>
      </trkpt>
      <trkpt lat="43.1344524" lon="-2.792906">
        <ele>147.394</ele>
        <time>2021-04-01T09:23:41.917Z</time>
      </trkpt>
      <trkpt lat="43.1344533" lon="-2.7929086">
        <ele>147.411</ele>
        <time>2021-04-01T09:23:41.975Z</time>
      </trkpt>
      <trkpt lat="43.1344544" lon="-2.7929108">
        <ele>147.43</ele>
        <time>2021-04-01T09:23:42.033Z</time>
      </trkpt>
      <trkpt lat="43.1344552" lon="-2.7929131">
        <ele>147.443</ele>
        <time>2021-04-01T09:23:42.091Z</time>
      </trkpt>
      <trkpt lat="43.1344559" lon="-2.7929156">
        <ele>147.447</ele>
        <time>2021-04-01T09:23:42.149Z</time>
      </trkpt>
      <trkpt lat="43.1344567" lon="-2.7929178">
        <ele>147.433</ele>
        <time>2021-04-01T09:23:42.207Z</time>
      </trkpt>
      <trkpt lat="43.1344577" lon="-2.79292">
        <ele>147.45</ele>
        <time>2021-04-01T09:23:42.265Z</time>
      </trkpt>
      <trkpt lat="43.1344585" lon="-2.7929223">
        <ele>147.457</ele>
        <time>2021-04-01T09:23:42.324Z</time>
      </trkpt>
      <trkpt lat="43.1344593" lon="-2.7929249">
        <ele>147.483</ele>
        <time>2021-04-01T09:23:42.379Z</time>
      </trkpt>
      <trkpt lat="43.1344604" lon="-2.7929272">
        <ele>147.509</ele>
        <time>2021-04-01T09:23:42.434Z</time>
      </trkpt>
      <trkpt lat="43.1344613" lon="-2.7929295">
        <ele>147.491</ele>
        <time>2021-04-01T09:23:42.489Z</time>
      </trkpt>
      <trkpt lat="43.1344622" lon="-2.7929317">
        <ele>147.493</ele>
        <time>2021-04-01T09:23:42.544Z</time>
      </trkpt>
      <trkpt lat="43.1344629" lon="-2.7929339">
        <ele>147.514</ele>
        <time>2021-04-01T09:23:42.599Z</time>
      </trkpt>
      <trkpt lat="43.1344636" lon="-2.792936">
        <ele>147.547</ele>
        <time>2021-04-01T09:23:42.654Z</time>
      </trkpt>
      <trkpt lat="43.1344643" lon="-2.7929383">
        <ele>147.558</ele>
        <time>2021-04-01T09:23:42.709Z</time>
      </trkpt>
      <trkpt lat="43.1344651" lon="-2.7929406">
        <ele>147.55</ele>
        <time>2021-04-01T09:23:42.764Z</time>
      </trkpt>
      <trkpt lat="43.1344659" lon="-2.7929428">
        <ele>147.556</ele>
        <time>2021-04-01T09:23:42.819Z</time>
      </trkpt>
      <trkpt lat="43.1344667" lon="-2.7929452">
        <ele>147.59</ele>
        <time>2021-04-01T09:23:42.874Z</time>
      </trkpt>
      <trkpt lat="43.1344678" lon="-2.7929477">
        <ele>147.61</ele>
        <time>2021-04-01T09:23:42.929Z</time>
      </trkpt>
      <trkpt lat="43.1344688" lon="-2.7929499">
        <ele>147.604</ele>
        <time>2021-04-01T09:23:42.984Z</time>
      </trkpt>
      <trkpt lat="43.1344694" lon="-2.7929522">
        <ele>147.642</ele>
        <time>2021-04-01T09:23:43.039Z</time>
      </trkpt>
      <trkpt lat="43.1344703" lon="-2.7929542">
        <ele>147.609</ele>
        <time>2021-04-01T09:23:43.094Z</time>
      </trkpt>
      <trkpt lat="43.1344711" lon="-2.7929565">
        <ele>147.639</ele>
        <time>2021-04-01T09:23:43.149Z</time>
      </trkpt>
      <trkpt lat="43.134472" lon="-2.7929588">
        <ele>147.664</ele>
        <time>2021-04-01T09:23:43.204Z</time>
      </trkpt>
      <trkpt lat="43.1344727" lon="-2.7929611">
        <ele>147.698</ele>
        <time>2021-04-01T09:23:43.259Z</time>
      </trkpt>
      <trkpt lat="43.1344737" lon="-2.7929634">
        <ele>147.688</ele>
        <time>2021-04-01T09:23:43.314Z</time>
      </trkpt>
      <trkpt lat="43.1344749" lon="-2.7929654">
        <ele>147.667</ele>
        <time>2021-04-01T09:23:43.366Z</time>
      </trkpt>
      <trkpt lat="43.1344757" lon="-2.7929676">
        <ele>147.675</ele>
        <time>2021-04-01T09:23:43.418Z</time>
      </trkpt>
      <trkpt lat="43.1344764" lon="-2.7929697">
        <ele>147.696</ele>
        <time>2021-04-01T09:23:43.470Z</time>
      </trkpt>
      <trkpt lat="43.1344771" lon="-2.7929721">
        <ele>147.73</ele>
        <time>2021-04-01T09:23:43.522Z</time>
      </trkpt>
      <trkpt lat="43.134478" lon="-2.7929743">
        <ele>147.697</ele>
        <time>2021-04-01T09:23:43.574Z</time>
      </trkpt>
      <trkpt lat="43.1344792" lon="-2.7929764">
        <ele>147.669</ele>
        <time>2021-04-01T09:23:43.626Z</time>
      </trkpt>
      <trkpt lat="43.1344804" lon="-2.7929786">
        <ele>147.684</ele>
        <time>2021-04-01T09:23:43.678Z</time>
      </trkpt>
      <trkpt lat="43.1344811" lon="-2.7929811">
        <ele>147.729</ele>
        <time>2021-04-01T09:23:43.730Z</time>
      </trkpt>
      <trkpt lat="43.134482" lon="-2.7929833">
        <ele>147.762</ele>
        <time>2021-04-01T09:23:43.782Z</time>
      </trkpt>
      <trkpt lat="43.1344828" lon="-2.7929856">
        <ele>147.763</ele>
        <time>2021-04-01T09:23:43.835Z</time>
      </trkpt>
      <trkpt lat="43.1344837" lon="-2.7929878">
        <ele>147.78</ele>
        <time>2021-04-01T09:23:43.887Z</time>
      </trkpt>
      <trkpt lat="43.1344848" lon="-2.79299">
        <ele>147.767</ele>
        <time>2021-04-01T09:23:43.939Z</time>
      </trkpt>
      <trkpt lat="43.1344855" lon="-2.7929924">
        <ele>147.798</ele>
        <time>2021-04-01T09:23:43.991Z</time>
      </trkpt>
      <trkpt lat="43.1344863" lon="-2.7929946">
        <ele>147.809</ele>
        <time>2021-04-01T09:23:44.043Z</time>
      </trkpt>
      <trkpt lat="43.1344872" lon="-2.7929968">
        <ele>147.807</ele>
        <time>2021-04-01T09:23:44.095Z</time>
      </trkpt>
      <trkpt lat="43.1344879" lon="-2.7929993">
        <ele>147.853</ele>
        <time>2021-04-01T09:23:44.147Z</time>
      </trkpt>
      <trkpt lat="43.1344887" lon="-2.7930016">
        <ele>147.89</ele>
        <time>2021-04-01T09:23:44.199Z</time>
      </trkpt>
      <trkpt lat="43.1344897" lon="-2.7930037">
        <ele>147.917</ele>
        <time>2021-04-01T09:23:44.251Z</time>
      </trkpt>
      <trkpt lat="43.1344906" lon="-2.7930058">
        <ele>147.916</ele>
        <time>2021-04-01T09:23:44.304Z</time>
      </trkpt>
      <trkpt lat="43.1344914" lon="-2.7930082">
        <ele>147.924</ele>
        <time>2021-04-01T09:23:44.365Z</time>
      </trkpt>
      <trkpt lat="43.1344924" lon="-2.7930103">
        <ele>147.926</ele>
        <time>2021-04-01T09:23:44.426Z</time>
      </trkpt>
      <trkpt lat="43.1344932" lon="-2.7930128">
        <ele>147.919</ele>
        <time>2021-04-01T09:23:44.488Z</time>
      </trkpt>
      <trkpt lat="43.134494" lon="-2.7930151">
        <ele>147.955</ele>
        <time>2021-04-01T09:23:44.549Z</time>
      </trkpt>
      <trkpt lat="43.1344948" lon="-2.7930172">
        <ele>147.97</ele>
        <time>2021-04-01T09:23:44.611Z</time>
      </trkpt>
      <trkpt lat="43.1344957" lon="-2.7930195">
        <ele>148.023</ele>
        <time>2021-04-01T09:23:44.672Z</time>
      </trkpt>
      <trkpt lat="43.1344965" lon="-2.793022">
        <ele>148.036</ele>
        <time>2021-04-01T09:23:44.734Z</time>
      </trkpt>
      <trkpt lat="43.1344976" lon="-2.7930242">
        <ele>148.045</ele>
        <time>2021-04-01T09:23:44.795Z</time>
      </trkpt>
      <trkpt lat="43.1344985" lon="-2.7930264">
        <ele>148.027</ele>
        <time>2021-04-01T09:23:44.857Z</time>
      </trkpt>
      <trkpt lat="43.1344992" lon="-2.7930289">
        <ele>148.038</ele>
        <time>2021-04-01T09:23:44.918Z</time>
      </trkpt>
      <trkpt lat="43.1345001" lon="-2.7930311">
        <ele>148.065</ele>
        <time>2021-04-01T09:23:44.980Z</time>
      </trkpt>
      <trkpt lat="43.1345009" lon="-2.7930332">
        <ele>148.091</ele>
        <time>2021-04-01T09:23:45.041Z</time>
      </trkpt>
      <trkpt lat="43.1345017" lon="-2.7930352">
        <ele>148.081</ele>
        <time>2021-04-01T09:23:45.103Z</time>
      </trkpt>
      <trkpt lat="43.1345027" lon="-2.7930373">
        <ele>148.093</ele>
        <time>2021-04-01T09:23:45.164Z</time>
      </trkpt>
      <trkpt lat="43.1345036" lon="-2.7930395">
        <ele>148.087</ele>
        <time>2021-04-01T09:23:45.226Z</time>
      </trkpt>
      <trkpt lat="43.1345046" lon="-2.7930416">
        <ele>148.107</ele>
        <time>2021-04-01T09:23:45.287Z</time>
      </trkpt>
      <trkpt lat="43.1345058" lon="-2.7930437">
        <ele>148.123</ele>
        <time>2021-04-01T09:23:45.349Z</time>
      </trkpt>
      <trkpt lat="43.1345068" lon="-2.7930458">
        <ele>148.111</ele>
        <time>2021-04-01T09:23:45.398Z</time>
      </trkpt>
      <trkpt lat="43.1345076" lon="-2.793048">
        <ele>148.141</ele>
        <time>2021-04-01T09:23:45.447Z</time>
      </trkpt>
      <trkpt lat="43.1345086" lon="-2.79305">
        <ele>148.151</ele>
        <time>2021-04-01T09:23:45.496Z</time>
      </trkpt>
      <trkpt lat="43.1345096" lon="-2.7930522">
        <ele>148.147</ele>
        <time>2021-04-01T09:23:45.545Z</time>
      </trkpt>
      <trkpt lat="43.1345105" lon="-2.7930545">
        <ele>148.158</ele>
        <time>2021-04-01T09:23:45.595Z</time>
      </trkpt>
      <trkpt lat="43.1345114" lon="-2.7930566">
        <ele>148.139</ele>
        <time>2021-04-01T09:23:45.644Z</time>
      </trkpt>
      <trkpt lat="43.1345123" lon="-2.7930589">
        <ele>148.172</ele>
        <time>2021-04-01T09:23:45.693Z</time>
      </trkpt>
      <trkpt lat="43.1345134" lon="-2.793061">
        <ele>148.208</ele>
        <time>2021-04-01T09:23:45.742Z</time>
      </trkpt>
      <trkpt lat="43.1345145" lon="-2.7930629">
        <ele>148.217</ele>
        <time>2021-04-01T09:23:45.791Z</time>
      </trkpt>
      <trkpt lat="43.1345154" lon="-2.793065">
        <ele>148.238</ele>
        <time>2021-04-01T09:23:45.841Z</time>
      </trkpt>
      <trkpt lat="43.1345164" lon="-2.7930672">
        <ele>148.246</ele>
        <time>2021-04-01T09:23:45.890Z</time>
      </trkpt>
      <trkpt lat="43.1345173" lon="-2.7930695">
        <ele>148.25</ele>
        <time>2021-04-01T09:23:45.939Z</time>
      </trkpt>
      <trkpt lat="43.1345184" lon="-2.7930716">
        <ele>148.277</ele>
        <time>2021-04-01T09:23:45.988Z</time>
      </trkpt>
      <trkpt lat="43.1345194" lon="-2.7930738">
        <ele>148.28</ele>
        <time>2021-04-01T09:23:46.037Z</time>
      </trkpt>
      <trkpt lat="43.1345205" lon="-2.7930755">
        <ele>148.285</ele>
        <time>2021-04-01T09:23:46.087Z</time>
      </trkpt>
      <trkpt lat="43.1345211" lon="-2.7930777">
        <ele>148.315</ele>
        <time>2021-04-01T09:23:46.136Z</time>
      </trkpt>
      <trkpt lat="43.1345221" lon="-2.7930797">
        <ele>148.321</ele>
        <time>2021-04-01T09:23:46.185Z</time>
      </trkpt>
      <trkpt lat="43.1345229" lon="-2.7930816">
        <ele>148.319</ele>
        <time>2021-04-01T09:23:46.234Z</time>
      </trkpt>
      <trkpt lat="43.1345241" lon="-2.7930837">
        <ele>148.305</ele>
        <time>2021-04-01T09:23:46.284Z</time>
      </trkpt>
      <trkpt lat="43.1345249" lon="-2.7930859">
        <ele>148.329</ele>
        <time>2021-04-01T09:23:46.342Z</time>
      </trkpt>
      <trkpt lat="43.1345258" lon="-2.7930881">
        <ele>148.366</ele>
        <time>2021-04-01T09:23:46.400Z</time>
      </trkpt>
      <trkpt lat="43.1345271" lon="-2.7930902">
        <ele>148.377</ele>
        <time>2021-04-01T09:23:46.458Z</time>
      </trkpt>
      <trkpt lat="43.1345283" lon="-2.7930922">
        <ele>148.383</ele>
        <time>2021-04-01T09:23:46.516Z</time>
      </trkpt>
      <trkpt lat="43.1345293" lon="-2.7930942">
        <ele>148.387</ele>
        <time>2021-04-01T09:23:46.574Z</time>
      </trkpt>
      <trkpt lat="43.1345306" lon="-2.7930961">
        <ele>148.372</ele>
        <time>2021-04-01T09:23:46.632Z</time>
      </trkpt>
      <trkpt lat="43.1345319" lon="-2.793098">
        <ele>148.358</ele>
        <time>2021-04-01T09:23:46.690Z</time>
      </trkpt>
      <trkpt lat="43.1345331" lon="-2.7931">
        <ele>148.357</ele>
        <time>2021-04-01T09:23:46.748Z</time>
      </trkpt>
      <trkpt lat="43.134534" lon="-2.7931021">
        <ele>148.36</ele>
        <time>2021-04-01T09:23:46.806Z</time>
      </trkpt>
      <trkpt lat="43.134535" lon="-2.7931042">
        <ele>148.365</ele>
        <time>2021-04-01T09:23:46.864Z</time>
      </trkpt>
      <trkpt lat="43.1345359" lon="-2.7931062">
        <ele>148.378</ele>
        <time>2021-04-01T09:23:46.922Z</time>
      </trkpt>
      <trkpt lat="43.1345371" lon="-2.7931082">
        <ele>148.399</ele>
        <time>2021-04-01T09:23:46.980Z</time>
      </trkpt>
      <trkpt lat="43.1345383" lon="-2.7931106">
        <ele>148.423</ele>
        <time>2021-04-01T09:23:47.038Z</time>
      </trkpt>
      <trkpt lat="43.1345391" lon="-2.7931128">
        <ele>148.425</ele>
        <time>2021-04-01T09:23:47.096Z</time>
      </trkpt>
      <trkpt lat="43.1345398" lon="-2.7931147">
        <ele>148.398</ele>
        <time>2021-04-01T09:23:47.154Z</time>
      </trkpt>
      <trkpt lat="43.134541" lon="-2.793117">
        <ele>148.426</ele>
        <time>2021-04-01T09:23:47.212Z</time>
      </trkpt>
      <trkpt lat="43.134542" lon="-2.7931193">
        <ele>148.435</ele>
        <time>2021-04-01T09:23:47.270Z</time>
      </trkpt>
      <trkpt lat="43.1345428" lon="-2.7931217">
        <ele>148.451</ele>
        <time>2021-04-01T09:23:47.329Z</time>
      </trkpt>
      <trkpt lat="43.1345436" lon="-2.7931239">
        <ele>148.454</ele>
        <time>2021-04-01T09:23:47.384Z</time>
      </trkpt>
      <trkpt lat="43.1345446" lon="-2.793126">
        <ele>148.456</ele>
        <time>2021-04-01T09:23:47.439Z</time>
      </trkpt>
      <trkpt lat="43.1345455" lon="-2.7931283">
        <ele>148.482</ele>
        <time>2021-04-01T09:23:47.494Z</time>
      </trkpt>
      <trkpt lat="43.1345463" lon="-2.7931304">
        <ele>148.493</ele>
        <time>2021-04-01T09:23:47.549Z</time>
      </trkpt>
      <trkpt lat="43.1345473" lon="-2.7931327">
        <ele>148.482</ele>
        <time>2021-04-01T09:23:47.604Z</time>
      </trkpt>
      <trkpt lat="43.1345482" lon="-2.793135">
        <ele>148.51</ele>
        <time>2021-04-01T09:23:47.659Z</time>
      </trkpt>
      <trkpt lat="43.1345491" lon="-2.7931373">
        <ele>148.517</ele>
        <time>2021-04-01T09:23:47.714Z</time>
      </trkpt>
      <trkpt lat="43.1345501" lon="-2.7931398">
        <ele>148.537</ele>
        <time>2021-04-01T09:23:47.769Z</time>
      </trkpt>
      <trkpt lat="43.134551" lon="-2.7931422">
        <ele>148.595</ele>
        <time>2021-04-01T09:23:47.824Z</time>
      </trkpt>
      <trkpt lat="43.1345522" lon="-2.7931442">
        <ele>148.625</ele>
        <time>2021-04-01T09:23:47.879Z</time>
      </trkpt>
      <trkpt lat="43.1345532" lon="-2.7931462">
        <ele>148.639</ele>
        <time>2021-04-01T09:23:47.934Z</time>
      </trkpt>
      <trkpt lat="43.1345545" lon="-2.793148">
        <ele>148.598</ele>
        <time>2021-04-01T09:23:47.989Z</time>
      </trkpt>
      <trkpt lat="43.1345554" lon="-2.7931503">
        <ele>148.626</ele>
        <time>2021-04-01T09:23:48.044Z</time>
      </trkpt>
      <trkpt lat="43.1345563" lon="-2.7931526">
        <ele>148.66</ele>
        <time>2021-04-01T09:23:48.099Z</time>
      </trkpt>
      <trkpt lat="43.1345575" lon="-2.7931546">
        <ele>148.653</ele>
        <time>2021-04-01T09:23:48.154Z</time>
      </trkpt>
      <trkpt lat="43.1345588" lon="-2.7931565">
        <ele>148.663</ele>
        <time>2021-04-01T09:23:48.209Z</time>
      </trkpt>
      <trkpt lat="43.13456" lon="-2.7931586">
        <ele>148.688</ele>
        <time>2021-04-01T09:23:48.264Z</time>
      </trkpt>
      <trkpt lat="43.1345609" lon="-2.7931611">
        <ele>148.717</ele>
        <time>2021-04-01T09:23:48.319Z</time>
      </trkpt>
      <trkpt lat="43.1345619" lon="-2.7931634">
        <ele>148.716</ele>
        <time>2021-04-01T09:23:48.377Z</time>
      </trkpt>
      <trkpt lat="43.1345629" lon="-2.7931655">
        <ele>148.723</ele>
        <time>2021-04-01T09:23:48.435Z</time>
      </trkpt>
      <trkpt lat="43.134564" lon="-2.7931676">
        <ele>148.761</ele>
        <time>2021-04-01T09:23:48.493Z</time>
      </trkpt>
      <trkpt lat="43.1345648" lon="-2.7931696">
        <ele>148.767</ele>
        <time>2021-04-01T09:23:48.551Z</time>
      </trkpt>
      <trkpt lat="43.1345659" lon="-2.7931717">
        <ele>148.767</ele>
        <time>2021-04-01T09:23:48.609Z</time>
      </trkpt>
      <trkpt lat="43.1345669" lon="-2.7931739">
        <ele>148.757</ele>
        <time>2021-04-01T09:23:48.667Z</time>
      </trkpt>
      <trkpt lat="43.1345679" lon="-2.793176">
        <ele>148.743</ele>
        <time>2021-04-01T09:23:48.725Z</time>
      </trkpt>
      <trkpt lat="43.1345689" lon="-2.7931781">
        <ele>148.753</ele>
        <time>2021-04-01T09:23:48.783Z</time>
      </trkpt>
      <trkpt lat="43.1345698" lon="-2.7931802">
        <ele>148.757</ele>
        <time>2021-04-01T09:23:48.841Z</time>
      </trkpt>
      <trkpt lat="43.1345708" lon="-2.7931823">
        <ele>148.766</ele>
        <time>2021-04-01T09:23:48.899Z</time>
      </trkpt>
      <trkpt lat="43.1345718" lon="-2.7931844">
        <ele>148.761</ele>
        <time>2021-04-01T09:23:48.957Z</time>
      </trkpt>
      <trkpt lat="43.134573" lon="-2.7931865">
        <ele>148.75</ele>
        <time>2021-04-01T09:23:49.015Z</time>
      </trkpt>
      <trkpt lat="43.134574" lon="-2.7931887">
        <ele>148.752</ele>
        <time>2021-04-01T09:23:49.073Z</time>
      </trkpt>
      <trkpt lat="43.1345749" lon="-2.7931909">
        <ele>148.78</ele>
        <time>2021-04-01T09:23:49.131Z</time>
      </trkpt>
      <trkpt lat="43.1345759" lon="-2.7931931">
        <ele>148.793</ele>
        <time>2021-04-01T09:23:49.189Z</time>
      </trkpt>
      <trkpt lat="43.134577" lon="-2.7931951">
        <ele>148.78</ele>
        <time>2021-04-01T09:23:49.247Z</time>
      </trkpt>
      <trkpt lat="43.134578" lon="-2.7931972">
        <ele>148.782</ele>
        <time>2021-04-01T09:23:49.305Z</time>
      </trkpt>
      <trkpt lat="43.1345788" lon="-2.7931994">
        <ele>148.812</ele>
        <time>2021-04-01T09:23:49.364Z</time>
      </trkpt>
      <trkpt lat="43.1345797" lon="-2.7932017">
        <ele>148.831</ele>
        <time>2021-04-01T09:23:49.415Z</time>
      </trkpt>
      <trkpt lat="43.1345806" lon="-2.7932039">
        <ele>148.843</ele>
        <time>2021-04-01T09:23:49.467Z</time>
      </trkpt>
      <trkpt lat="43.1345817" lon="-2.7932062">
        <ele>148.838</ele>
        <time>2021-04-01T09:23:49.519Z</time>
      </trkpt>
      <trkpt lat="43.1345828" lon="-2.7932083">
        <ele>148.853</ele>
        <time>2021-04-01T09:23:49.571Z</time>
      </trkpt>
      <trkpt lat="43.1345838" lon="-2.7932104">
        <ele>148.842</ele>
        <time>2021-04-01T09:23:49.623Z</time>
      </trkpt>
      <trkpt lat="43.1345847" lon="-2.7932125">
        <ele>148.87</ele>
        <time>2021-04-01T09:23:49.675Z</time>
      </trkpt>
      <trkpt lat="43.1345856" lon="-2.793215">
        <ele>148.9</ele>
        <time>2021-04-01T09:23:49.727Z</time>
      </trkpt>
      <trkpt lat="43.1345866" lon="-2.7932172">
        <ele>148.889</ele>
        <time>2021-04-01T09:23:49.779Z</time>
      </trkpt>
      <trkpt lat="43.1345876" lon="-2.7932195">
        <ele>148.905</ele>
        <time>2021-04-01T09:23:49.831Z</time>
      </trkpt>
      <trkpt lat="43.1345887" lon="-2.7932217">
        <ele>148.922</ele>
        <time>2021-04-01T09:23:49.883Z</time>
      </trkpt>
      <trkpt lat="43.1345895" lon="-2.7932241">
        <ele>148.936</ele>
        <time>2021-04-01T09:23:49.935Z</time>
      </trkpt>
      <trkpt lat="43.1345903" lon="-2.7932262">
        <ele>148.937</ele>
        <time>2021-04-01T09:23:49.987Z</time>
      </trkpt>
      <trkpt lat="43.1345914" lon="-2.7932283">
        <ele>148.951</ele>
        <time>2021-04-01T09:23:50.039Z</time>
      </trkpt>
      <trkpt lat="43.1345922" lon="-2.7932308">
        <ele>148.991</ele>
        <time>2021-04-01T09:23:50.091Z</time>
      </trkpt>
      <trkpt lat="43.1345932" lon="-2.793233">
        <ele>149.007</ele>
        <time>2021-04-01T09:23:50.143Z</time>
      </trkpt>
      <trkpt lat="43.134594" lon="-2.7932351">
        <ele>148.995</ele>
        <time>2021-04-01T09:23:50.195Z</time>
      </trkpt>
      <trkpt lat="43.1345955" lon="-2.7932371">
        <ele>148.932</ele>
        <time>2021-04-01T09:23:50.247Z</time>
      </trkpt>
      <trkpt lat="43.1345963" lon="-2.7932396">
        <ele>148.974</ele>
        <time>2021-04-01T09:23:50.299Z</time>
      </trkpt>
      <trkpt lat="43.1345969" lon="-2.7932417">
        <ele>149.026</ele>
        <time>2021-04-01T09:23:50.351Z</time>
      </trkpt>
      <trkpt lat="43.1345976" lon="-2.7932438">
        <ele>149.042</ele>
        <time>2021-04-01T09:23:50.403Z</time>
      </trkpt>
      <trkpt lat="43.1345985" lon="-2.7932461">
        <ele>149.059</ele>
        <time>2021-04-01T09:23:50.455Z</time>
      </trkpt>
      <trkpt lat="43.1345995" lon="-2.7932485">
        <ele>149.079</ele>
        <time>2021-04-01T09:23:50.507Z</time>
      </trkpt>
      <trkpt lat="43.1346004" lon="-2.7932508">
        <ele>149.103</ele>
        <time>2021-04-01T09:23:50.559Z</time>
      </trkpt>
      <trkpt lat="43.1346015" lon="-2.793253">
        <ele>149.117</ele>
        <time>2021-04-01T09:23:50.611Z</time>
      </trkpt>
      <trkpt lat="43.1346023" lon="-2.7932551">
        <ele>149.137</ele>
        <time>2021-04-01T09:23:50.663Z</time>
      </trkpt>
      <trkpt lat="43.1346032" lon="-2.7932571">
        <ele>149.141</ele>
        <time>2021-04-01T09:23:50.715Z</time>
      </trkpt>
      <trkpt lat="43.134604" lon="-2.7932591">
        <ele>149.151</ele>
        <time>2021-04-01T09:23:50.767Z</time>
      </trkpt>
      <trkpt lat="43.1346049" lon="-2.7932614">
        <ele>149.181</ele>
        <time>2021-04-01T09:23:50.820Z</time>
      </trkpt>
      <trkpt lat="43.1346058" lon="-2.7932637">
        <ele>149.222</ele>
        <time>2021-04-01T09:23:50.872Z</time>
      </trkpt>
      <trkpt lat="43.1346068" lon="-2.7932657">
        <ele>149.239</ele>
        <time>2021-04-01T09:23:50.924Z</time>
      </trkpt>
      <trkpt lat="43.1346079" lon="-2.7932677">
        <ele>149.233</ele>
        <time>2021-04-01T09:23:50.976Z</time>
      </trkpt>
      <trkpt lat="43.1346089" lon="-2.7932698">
        <ele>149.232</ele>
        <time>2021-04-01T09:23:51.028Z</time>
      </trkpt>
      <trkpt lat="43.1346095" lon="-2.793272">
        <ele>149.262</ele>
        <time>2021-04-01T09:23:51.080Z</time>
      </trkpt>
      <trkpt lat="43.1346106" lon="-2.7932739">
        <ele>149.286</ele>
        <time>2021-04-01T09:23:51.132Z</time>
      </trkpt>
      <trkpt lat="43.1346115" lon="-2.7932761">
        <ele>149.306</ele>
        <time>2021-04-01T09:23:51.184Z</time>
      </trkpt>
      <trkpt lat="43.1346126" lon="-2.7932781">
        <ele>149.287</ele>
        <time>2021-04-01T09:23:51.236Z</time>
      </trkpt>
      <trkpt lat="43.1346133" lon="-2.7932803">
        <ele>149.313</ele>
        <time>2021-04-01T09:23:51.289Z</time>
      </trkpt>
      <trkpt lat="43.1346143" lon="-2.7932824">
        <ele>149.303</ele>
        <time>2021-04-01T09:23:51.347Z</time>
      </trkpt>
      <trkpt lat="43.1346152" lon="-2.7932846">
        <ele>149.311</ele>
        <time>2021-04-01T09:23:51.405Z</time>
      </trkpt>
      <trkpt lat="43.1346158" lon="-2.7932869">
        <ele>149.352</ele>
        <time>2021-04-01T09:23:51.463Z</time>
      </trkpt>
      <trkpt lat="43.1346168" lon="-2.7932887">
        <ele>149.375</ele>
        <time>2021-04-01T09:23:51.521Z</time>
      </trkpt>
      <trkpt lat="43.134618" lon="-2.7932907">
        <ele>149.369</ele>
        <time>2021-04-01T09:23:51.579Z</time>
      </trkpt>
      <trkpt lat="43.1346188" lon="-2.7932928">
        <ele>149.394</ele>
        <time>2021-04-01T09:23:51.637Z</time>
      </trkpt>
      <trkpt lat="43.1346195" lon="-2.7932949">
        <ele>149.411</ele>
        <time>2021-04-01T09:23:51.695Z</time>
      </trkpt>
      <trkpt lat="43.1346201" lon="-2.7932973">
        <ele>149.426</ele>
        <time>2021-04-01T09:23:51.753Z</time>
      </trkpt>
      <trkpt lat="43.134621" lon="-2.7932993">
        <ele>149.423</ele>
        <time>2021-04-01T09:23:51.811Z</time>
      </trkpt>
      <trkpt lat="43.1346217" lon="-2.7933014">
        <ele>149.461</ele>
        <time>2021-04-01T09:23:51.869Z</time>
      </trkpt>
      <trkpt lat="43.1346224" lon="-2.7933033">
        <ele>149.494</ele>
        <time>2021-04-01T09:23:51.927Z</time>
      </trkpt>
      <trkpt lat="43.1346231" lon="-2.7933054">
        <ele>149.497</ele>
        <time>2021-04-01T09:23:51.985Z</time>
      </trkpt>
      <trkpt lat="43.1346239" lon="-2.7933073">
        <ele>149.472</ele>
        <time>2021-04-01T09:23:52.043Z</time>
      </trkpt>
      <trkpt lat="43.1346247" lon="-2.7933089">
        <ele>149.459</ele>
        <time>2021-04-01T09:23:52.101Z</time>
      </trkpt>
      <trkpt lat="43.1346254" lon="-2.793311">
        <ele>149.468</ele>
        <time>2021-04-01T09:23:52.159Z</time>
      </trkpt>
      <trkpt lat="43.1346264" lon="-2.7933129">
        <ele>149.478</ele>
        <time>2021-04-01T09:23:52.217Z</time>
      </trkpt>
      <trkpt lat="43.1346271" lon="-2.7933148">
        <ele>149.489</ele>
        <time>2021-04-01T09:23:52.275Z</time>
      </trkpt>
      <trkpt lat="43.1346279" lon="-2.7933165">
        <ele>149.526</ele>
        <time>2021-04-01T09:23:52.334Z</time>
      </trkpt>
      <trkpt lat="43.1346286" lon="-2.7933187">
        <ele>149.526</ele>
        <time>2021-04-01T09:23:52.389Z</time>
      </trkpt>
      <trkpt lat="43.1346296" lon="-2.7933207">
        <ele>149.53</ele>
        <time>2021-04-01T09:23:52.444Z</time>
      </trkpt>
      <trkpt lat="43.1346307" lon="-2.7933228">
        <ele>149.551</ele>
        <time>2021-04-01T09:23:52.499Z</time>
      </trkpt>
      <trkpt lat="43.1346314" lon="-2.7933249">
        <ele>149.585</ele>
        <time>2021-04-01T09:23:52.554Z</time>
      </trkpt>
      <trkpt lat="43.1346322" lon="-2.793327">
        <ele>149.577</ele>
        <time>2021-04-01T09:23:52.609Z</time>
      </trkpt>
      <trkpt lat="43.1346332" lon="-2.7933291">
        <ele>149.591</ele>
        <time>2021-04-01T09:23:52.664Z</time>
      </trkpt>
      <trkpt lat="43.1346342" lon="-2.7933311">
        <ele>149.61</ele>
        <time>2021-04-01T09:23:52.719Z</time>
      </trkpt>
      <trkpt lat="43.1346352" lon="-2.793333">
        <ele>149.625</ele>
        <time>2021-04-01T09:23:52.774Z</time>
      </trkpt>
      <trkpt lat="43.1346361" lon="-2.7933348">
        <ele>149.636</ele>
        <time>2021-04-01T09:23:52.829Z</time>
      </trkpt>
      <trkpt lat="43.134637" lon="-2.7933369">
        <ele>149.62</ele>
        <time>2021-04-01T09:23:52.884Z</time>
      </trkpt>
      <trkpt lat="43.1346382" lon="-2.7933389">
        <ele>149.603</ele>
        <time>2021-04-01T09:23:52.939Z</time>
      </trkpt>
      <trkpt lat="43.134639" lon="-2.7933409">
        <ele>149.63</ele>
        <time>2021-04-01T09:23:52.994Z</time>
      </trkpt>
      <trkpt lat="43.13464" lon="-2.7933429">
        <ele>149.643</ele>
        <time>2021-04-01T09:23:53.049Z</time>
      </trkpt>
      <trkpt lat="43.1346409" lon="-2.7933448">
        <ele>149.664</ele>
        <time>2021-04-01T09:23:53.104Z</time>
      </trkpt>
      <trkpt lat="43.1346417" lon="-2.7933469">
        <ele>149.687</ele>
        <time>2021-04-01T09:23:53.159Z</time>
      </trkpt>
      <trkpt lat="43.1346428" lon="-2.7933488">
        <ele>149.689</ele>
        <time>2021-04-01T09:23:53.214Z</time>
      </trkpt>
      <trkpt lat="43.1346437" lon="-2.7933509">
        <ele>149.692</ele>
        <time>2021-04-01T09:23:53.269Z</time>
      </trkpt>
      <trkpt lat="43.1346445" lon="-2.7933528">
        <ele>149.696</ele>
        <time>2021-04-01T09:23:53.324Z</time>
      </trkpt>
      <trkpt lat="43.1346454" lon="-2.7933548">
        <ele>149.69</ele>
        <time>2021-04-01T09:23:53.379Z</time>
      </trkpt>
      <trkpt lat="43.1346463" lon="-2.7933567">
        <ele>149.694</ele>
        <time>2021-04-01T09:23:53.434Z</time>
      </trkpt>
      <trkpt lat="43.1346472" lon="-2.7933588">
        <ele>149.689</ele>
        <time>2021-04-01T09:23:53.489Z</time>
      </trkpt>
      <trkpt lat="43.1346481" lon="-2.7933609">
        <ele>149.703</ele>
        <time>2021-04-01T09:23:53.544Z</time>
      </trkpt>
      <trkpt lat="43.1346489" lon="-2.7933628">
        <ele>149.706</ele>
        <time>2021-04-01T09:23:53.599Z</time>
      </trkpt>
      <trkpt lat="43.1346497" lon="-2.793365">
        <ele>149.715</ele>
        <time>2021-04-01T09:23:53.654Z</time>
      </trkpt>
      <trkpt lat="43.1346504" lon="-2.7933671">
        <ele>149.726</ele>
        <time>2021-04-01T09:23:53.709Z</time>
      </trkpt>
      <trkpt lat="43.1346514" lon="-2.7933692">
        <ele>149.751</ele>
        <time>2021-04-01T09:23:53.764Z</time>
      </trkpt>
      <trkpt lat="43.1346527" lon="-2.793371">
        <ele>149.748</ele>
        <time>2021-04-01T09:23:53.819Z</time>
      </trkpt>
      <trkpt lat="43.1346537" lon="-2.7933731">
        <ele>149.743</ele>
        <time>2021-04-01T09:23:53.874Z</time>
      </trkpt>
      <trkpt lat="43.1346543" lon="-2.793375">
        <ele>149.774</ele>
        <time>2021-04-01T09:23:53.929Z</time>
      </trkpt>
      <trkpt lat="43.1346551" lon="-2.793377">
        <ele>149.801</ele>
        <time>2021-04-01T09:23:53.984Z</time>
      </trkpt>
      <trkpt lat="43.134656" lon="-2.7933792">
        <ele>149.832</ele>
        <time>2021-04-01T09:23:54.039Z</time>
      </trkpt>
      <trkpt lat="43.1346567" lon="-2.7933811">
        <ele>149.843</ele>
        <time>2021-04-01T09:23:54.094Z</time>
      </trkpt>
      <trkpt lat="43.1346577" lon="-2.7933832">
        <ele>149.887</ele>
        <time>2021-04-01T09:23:54.149Z</time>
      </trkpt>
      <trkpt lat="43.1346587" lon="-2.7933854">
        <ele>149.889</ele>
        <time>2021-04-01T09:23:54.204Z</time>
      </trkpt>
      <trkpt lat="43.1346596" lon="-2.7933874">
        <ele>149.878</ele>
        <time>2021-04-01T09:23:54.259Z</time>
      </trkpt>
      <trkpt lat="43.1346609" lon="-2.7933892">
        <ele>149.842</ele>
        <time>2021-04-01T09:23:54.314Z</time>
      </trkpt>
      <trkpt lat="43.1346619" lon="-2.7933912">
        <ele>149.893</ele>
        <time>2021-04-01T09:23:54.369Z</time>
      </trkpt>
      <trkpt lat="43.1346629" lon="-2.7933933">
        <ele>149.906</ele>
        <time>2021-04-01T09:23:54.424Z</time>
      </trkpt>
      <trkpt lat="43.1346639" lon="-2.7933952">
        <ele>149.907</ele>
        <time>2021-04-01T09:23:54.479Z</time>
      </trkpt>
      <trkpt lat="43.134665" lon="-2.7933971">
        <ele>149.9</ele>
        <time>2021-04-01T09:23:54.534Z</time>
      </trkpt>
      <trkpt lat="43.1346661" lon="-2.7933993">
        <ele>149.924</ele>
        <time>2021-04-01T09:23:54.589Z</time>
      </trkpt>
      <trkpt lat="43.1346672" lon="-2.7934013">
        <ele>149.922</ele>
        <time>2021-04-01T09:23:54.644Z</time>
      </trkpt>
      <trkpt lat="43.1346683" lon="-2.7934032">
        <ele>149.931</ele>
        <time>2021-04-01T09:23:54.699Z</time>
      </trkpt>
      <trkpt lat="43.1346692" lon="-2.7934051">
        <ele>149.94</ele>
        <time>2021-04-01T09:23:54.754Z</time>
      </trkpt>
      <trkpt lat="43.1346703" lon="-2.7934071">
        <ele>149.963</ele>
        <time>2021-04-01T09:23:54.809Z</time>
      </trkpt>
      <trkpt lat="43.1346714" lon="-2.7934095">
        <ele>149.987</ele>
        <time>2021-04-01T09:23:54.864Z</time>
      </trkpt>
      <trkpt lat="43.1346725" lon="-2.7934115">
        <ele>149.998</ele>
        <time>2021-04-01T09:23:54.919Z</time>
      </trkpt>
      <trkpt lat="43.1346733" lon="-2.7934134">
        <ele>149.985</ele>
        <time>2021-04-01T09:23:54.974Z</time>
      </trkpt>
      <trkpt lat="43.1346743" lon="-2.7934151">
        <ele>149.971</ele>
        <time>2021-04-01T09:23:55.029Z</time>
      </trkpt>
      <trkpt lat="43.1346754" lon="-2.7934169">
        <ele>149.975</ele>
        <time>2021-04-01T09:23:55.084Z</time>
      </trkpt>
      <trkpt lat="43.1346761" lon="-2.7934192">
        <ele>150.035</ele>
        <time>2021-04-01T09:23:55.139Z</time>
      </trkpt>
      <trkpt lat="43.1346772" lon="-2.7934211">
        <ele>150.027</ele>
        <time>2021-04-01T09:23:55.194Z</time>
      </trkpt>
      <trkpt lat="43.1346777" lon="-2.7934233">
        <ele>150.046</ele>
        <time>2021-04-01T09:23:55.249Z</time>
      </trkpt>
      <trkpt lat="43.1346789" lon="-2.7934251">
        <ele>150.025</ele>
        <time>2021-04-01T09:23:55.304Z</time>
      </trkpt>
      <trkpt lat="43.1346794" lon="-2.793427">
        <ele>150.035</ele>
        <time>2021-04-01T09:23:55.359Z</time>
      </trkpt>
      <trkpt lat="43.1346803" lon="-2.7934289">
        <ele>150.038</ele>
        <time>2021-04-01T09:23:55.417Z</time>
      </trkpt>
      <trkpt lat="43.1346813" lon="-2.7934312">
        <ele>150.069</ele>
        <time>2021-04-01T09:23:55.475Z</time>
      </trkpt>
      <trkpt lat="43.134682" lon="-2.7934334">
        <ele>150.102</ele>
        <time>2021-04-01T09:23:55.533Z</time>
      </trkpt>
      <trkpt lat="43.1346831" lon="-2.793435">
        <ele>150.095</ele>
        <time>2021-04-01T09:23:55.591Z</time>
      </trkpt>
      <trkpt lat="43.1346838" lon="-2.7934371">
        <ele>150.134</ele>
        <time>2021-04-01T09:23:55.650Z</time>
      </trkpt>
      <trkpt lat="43.1346847" lon="-2.7934393">
        <ele>150.164</ele>
        <time>2021-04-01T09:23:55.708Z</time>
      </trkpt>
      <trkpt lat="43.1346855" lon="-2.7934413">
        <ele>150.169</ele>
        <time>2021-04-01T09:23:55.766Z</time>
      </trkpt>
      <trkpt lat="43.1346862" lon="-2.7934434">
        <ele>150.183</ele>
        <time>2021-04-01T09:23:55.824Z</time>
      </trkpt>
      <trkpt lat="43.134687" lon="-2.7934455">
        <ele>150.183</ele>
        <time>2021-04-01T09:23:55.883Z</time>
      </trkpt>
      <trkpt lat="43.1346878" lon="-2.7934475">
        <ele>150.195</ele>
        <time>2021-04-01T09:23:55.941Z</time>
      </trkpt>
      <trkpt lat="43.1346885" lon="-2.7934493">
        <ele>150.196</ele>
        <time>2021-04-01T09:23:55.999Z</time>
      </trkpt>
      <trkpt lat="43.1346895" lon="-2.7934509">
        <ele>150.179</ele>
        <time>2021-04-01T09:23:56.057Z</time>
      </trkpt>
      <trkpt lat="43.1346905" lon="-2.7934527">
        <ele>150.177</ele>
        <time>2021-04-01T09:23:56.116Z</time>
      </trkpt>
      <trkpt lat="43.1346916" lon="-2.7934547">
        <ele>150.177</ele>
        <time>2021-04-01T09:23:56.174Z</time>
      </trkpt>
      <trkpt lat="43.1346924" lon="-2.7934567">
        <ele>150.199</ele>
        <time>2021-04-01T09:23:56.232Z</time>
      </trkpt>
      <trkpt lat="43.1346931" lon="-2.7934589">
        <ele>150.225</ele>
        <time>2021-04-01T09:23:56.290Z</time>
      </trkpt>
      <trkpt lat="43.1346938" lon="-2.7934607">
        <ele>150.243</ele>
        <time>2021-04-01T09:23:56.349Z</time>
      </trkpt>
      <trkpt lat="43.1346948" lon="-2.7934628">
        <ele>150.272</ele>
        <time>2021-04-01T09:23:56.401Z</time>
      </trkpt>
      <trkpt lat="43.1346955" lon="-2.7934645">
        <ele>150.269</ele>
        <time>2021-04-01T09:23:56.453Z</time>
      </trkpt>
      <trkpt lat="43.134696" lon="-2.7934666">
        <ele>150.27</ele>
        <time>2021-04-01T09:23:56.505Z</time>
      </trkpt>
      <trkpt lat="43.134697" lon="-2.7934683">
        <ele>150.281</ele>
        <time>2021-04-01T09:23:56.557Z</time>
      </trkpt>
      <trkpt lat="43.1346983" lon="-2.7934699">
        <ele>150.286</ele>
        <time>2021-04-01T09:23:56.609Z</time>
      </trkpt>
      <trkpt lat="43.1346993" lon="-2.7934721">
        <ele>150.358</ele>
        <time>2021-04-01T09:23:56.661Z</time>
      </trkpt>
      <trkpt lat="43.1347001" lon="-2.7934738">
        <ele>150.338</ele>
        <time>2021-04-01T09:23:56.713Z</time>
      </trkpt>
      <trkpt lat="43.1347008" lon="-2.7934759">
        <ele>150.358</ele>
        <time>2021-04-01T09:23:56.765Z</time>
      </trkpt>
      <trkpt lat="43.1347019" lon="-2.7934781">
        <ele>150.409</ele>
        <time>2021-04-01T09:23:56.817Z</time>
      </trkpt>
      <trkpt lat="43.1347026" lon="-2.7934801">
        <ele>150.443</ele>
        <time>2021-04-01T09:23:56.870Z</time>
      </trkpt>
      <trkpt lat="43.1347034" lon="-2.7934816">
        <ele>150.439</ele>
        <time>2021-04-01T09:23:56.922Z</time>
      </trkpt>
      <trkpt lat="43.1347041" lon="-2.7934836">
        <ele>150.44</ele>
        <time>2021-04-01T09:23:56.974Z</time>
      </trkpt>
      <trkpt lat="43.1347052" lon="-2.7934854">
        <ele>150.46</ele>
        <time>2021-04-01T09:23:57.026Z</time>
      </trkpt>
      <trkpt lat="43.1347062" lon="-2.7934874">
        <ele>150.471</ele>
        <time>2021-04-01T09:23:57.078Z</time>
      </trkpt>
      <trkpt lat="43.1347072" lon="-2.7934894">
        <ele>150.49</ele>
        <time>2021-04-01T09:23:57.130Z</time>
      </trkpt>
      <trkpt lat="43.1347078" lon="-2.7934914">
        <ele>150.494</ele>
        <time>2021-04-01T09:23:57.182Z</time>
      </trkpt>
      <trkpt lat="43.1347085" lon="-2.7934934">
        <ele>150.507</ele>
        <time>2021-04-01T09:23:57.234Z</time>
      </trkpt>
      <trkpt lat="43.1347096" lon="-2.793495">
        <ele>150.504</ele>
        <time>2021-04-01T09:23:57.286Z</time>
      </trkpt>
      <trkpt lat="43.1347102" lon="-2.7934967">
        <ele>150.502</ele>
        <time>2021-04-01T09:23:57.339Z</time>
      </trkpt>
      <trkpt lat="43.1347111" lon="-2.7934986">
        <ele>150.502</ele>
        <time>2021-04-01T09:23:57.394Z</time>
      </trkpt>
      <trkpt lat="43.1347119" lon="-2.7935002">
        <ele>150.503</ele>
        <time>2021-04-01T09:23:57.449Z</time>
      </trkpt>
      <trkpt lat="43.1347128" lon="-2.793502">
        <ele>150.503</ele>
        <time>2021-04-01T09:23:57.504Z</time>
      </trkpt>
      <trkpt lat="43.1347139" lon="-2.793504">
        <ele>150.527</ele>
        <time>2021-04-01T09:23:57.559Z</time>
      </trkpt>
      <trkpt lat="43.1347149" lon="-2.7935061">
        <ele>150.537</ele>
        <time>2021-04-01T09:23:57.614Z</time>
      </trkpt>
      <trkpt lat="43.1347153" lon="-2.793508">
        <ele>150.565</ele>
        <time>2021-04-01T09:23:57.669Z</time>
      </trkpt>
      <trkpt lat="43.1347159" lon="-2.7935099">
        <ele>150.565</ele>
        <time>2021-04-01T09:23:57.724Z</time>
      </trkpt>
      <trkpt lat="43.1347167" lon="-2.793512">
        <ele>150.562</ele>
        <time>2021-04-01T09:23:57.779Z</time>
      </trkpt>
      <trkpt lat="43.1347178" lon="-2.7935137">
        <ele>150.579</ele>
        <time>2021-04-01T09:23:57.834Z</time>
      </trkpt>
      <trkpt lat="43.1347189" lon="-2.7935155">
        <ele>150.615</ele>
        <time>2021-04-01T09:23:57.889Z</time>
      </trkpt>
      <trkpt lat="43.1347201" lon="-2.7935171">
        <ele>150.65</ele>
        <time>2021-04-01T09:23:57.944Z</time>
      </trkpt>
      <trkpt lat="43.1347212" lon="-2.793519">
        <ele>150.664</ele>
        <time>2021-04-01T09:23:57.999Z</time>
      </trkpt>
      <trkpt lat="43.1347221" lon="-2.7935208">
        <ele>150.685</ele>
        <time>2021-04-01T09:23:58.054Z</time>
      </trkpt>
      <trkpt lat="43.1347232" lon="-2.7935225">
        <ele>150.725</ele>
        <time>2021-04-01T09:23:58.109Z</time>
      </trkpt>
      <trkpt lat="43.1347244" lon="-2.7935243">
        <ele>150.789</ele>
        <time>2021-04-01T09:23:58.164Z</time>
      </trkpt>
      <trkpt lat="43.1347258" lon="-2.793526">
        <ele>150.832</ele>
        <time>2021-04-01T09:23:58.219Z</time>
      </trkpt>
      <trkpt lat="43.1347268" lon="-2.793528">
        <ele>150.855</ele>
        <time>2021-04-01T09:23:58.274Z</time>
      </trkpt>
      <trkpt lat="43.1347279" lon="-2.7935296">
        <ele>150.9</ele>
        <time>2021-04-01T09:23:58.329Z</time>
      </trkpt>
      <trkpt lat="43.134729" lon="-2.7935315">
        <ele>150.927</ele>
        <time>2021-04-01T09:23:58.384Z</time>
      </trkpt>
      <trkpt lat="43.1347302" lon="-2.7935334">
        <ele>150.928</ele>
        <time>2021-04-01T09:23:58.439Z</time>
      </trkpt>
      <trkpt lat="43.134731" lon="-2.7935351">
        <ele>150.941</ele>
        <time>2021-04-01T09:23:58.494Z</time>
      </trkpt>
      <trkpt lat="43.1347316" lon="-2.793537">
        <ele>150.948</ele>
        <time>2021-04-01T09:23:58.549Z</time>
      </trkpt>
      <trkpt lat="43.1347327" lon="-2.7935384">
        <ele>150.902</ele>
        <time>2021-04-01T09:23:58.604Z</time>
      </trkpt>
      <trkpt lat="43.1347331" lon="-2.7935406">
        <ele>150.924</ele>
        <time>2021-04-01T09:23:58.659Z</time>
      </trkpt>
      <trkpt lat="43.1347336" lon="-2.7935422">
        <ele>150.919</ele>
        <time>2021-04-01T09:23:58.714Z</time>
      </trkpt>
      <trkpt lat="43.1347343" lon="-2.7935439">
        <ele>150.903</ele>
        <time>2021-04-01T09:23:58.769Z</time>
      </trkpt>
      <trkpt lat="43.1347351" lon="-2.7935454">
        <ele>150.87</ele>
        <time>2021-04-01T09:23:58.824Z</time>
      </trkpt>
      <trkpt lat="43.1347358" lon="-2.7935474">
        <ele>150.899</ele>
        <time>2021-04-01T09:23:58.879Z</time>
      </trkpt>
      <trkpt lat="43.1347364" lon="-2.7935493">
        <ele>150.902</ele>
        <time>2021-04-01T09:23:58.934Z</time>
      </trkpt>
      <trkpt lat="43.1347374" lon="-2.7935511">
        <ele>150.917</ele>
        <time>2021-04-01T09:23:58.989Z</time>
      </trkpt>
      <trkpt lat="43.1347381" lon="-2.7935531">
        <ele>150.933</ele>
        <time>2021-04-01T09:23:59.044Z</time>
      </trkpt>
      <trkpt lat="43.1347388" lon="-2.793555">
        <ele>150.937</ele>
        <time>2021-04-01T09:23:59.099Z</time>
      </trkpt>
      <trkpt lat="43.1347399" lon="-2.7935569">
        <ele>150.928</ele>
        <time>2021-04-01T09:23:59.154Z</time>
      </trkpt>
      <trkpt lat="43.1347408" lon="-2.7935588">
        <ele>150.938</ele>
        <time>2021-04-01T09:23:59.209Z</time>
      </trkpt>
      <trkpt lat="43.1347414" lon="-2.7935609">
        <ele>150.95</ele>
        <time>2021-04-01T09:23:59.264Z</time>
      </trkpt>
      <trkpt lat="43.134742" lon="-2.7935626">
        <ele>150.948</ele>
        <time>2021-04-01T09:23:59.319Z</time>
      </trkpt>
      <trkpt lat="43.1347424" lon="-2.7935645">
        <ele>150.948</ele>
        <time>2021-04-01T09:23:59.371Z</time>
      </trkpt>
      <trkpt lat="43.1347429" lon="-2.7935664">
        <ele>150.927</ele>
        <time>2021-04-01T09:23:59.423Z</time>
      </trkpt>
      <trkpt lat="43.1347438" lon="-2.7935682">
        <ele>150.918</ele>
        <time>2021-04-01T09:23:59.475Z</time>
      </trkpt>
      <trkpt lat="43.1347446" lon="-2.79357">
        <ele>150.92</ele>
        <time>2021-04-01T09:23:59.527Z</time>
      </trkpt>
      <trkpt lat="43.1347456" lon="-2.7935723">
        <ele>150.96</ele>
        <time>2021-04-01T09:23:59.579Z</time>
      </trkpt>
      <trkpt lat="43.1347469" lon="-2.7935742">
        <ele>150.954</ele>
        <time>2021-04-01T09:23:59.631Z</time>
      </trkpt>
      <trkpt lat="43.1347472" lon="-2.7935766">
        <ele>151.023</ele>
        <time>2021-04-01T09:23:59.683Z</time>
      </trkpt>
      <trkpt lat="43.1347485" lon="-2.7935781">
        <ele>150.976</ele>
        <time>2021-04-01T09:23:59.735Z</time>
      </trkpt>
      <trkpt lat="43.1347496" lon="-2.79358">
        <ele>150.953</ele>
        <time>2021-04-01T09:23:59.787Z</time>
      </trkpt>
      <trkpt lat="43.1347499" lon="-2.7935825">
        <ele>151.026</ele>
        <time>2021-04-01T09:23:59.840Z</time>
      </trkpt>
      <trkpt lat="43.1347506" lon="-2.7935844">
        <ele>151.029</ele>
        <time>2021-04-01T09:23:59.892Z</time>
      </trkpt>
      <trkpt lat="43.1347512" lon="-2.7935865">
        <ele>151.059</ele>
        <time>2021-04-01T09:23:59.944Z</time>
      </trkpt>
      <trkpt lat="43.1347526" lon="-2.7935883">
        <ele>151.053</ele>
        <time>2021-04-01T09:23:59.996Z</time>
      </trkpt>
      <trkpt lat="43.1347534" lon="-2.7935903">
        <ele>151.052</ele>
        <time>2021-04-01T09:24:00.048Z</time>
      </trkpt>
      <trkpt lat="43.1347542" lon="-2.7935921">
        <ele>151.053</ele>
        <time>2021-04-01T09:24:00.100Z</time>
      </trkpt>
      <trkpt lat="43.1347548" lon="-2.7935941">
        <ele>151.1</ele>
        <time>2021-04-01T09:24:00.152Z</time>
      </trkpt>
      <trkpt lat="43.1347553" lon="-2.7935963">
        <ele>151.113</ele>
        <time>2021-04-01T09:24:00.204Z</time>
      </trkpt>
      <trkpt lat="43.1347563" lon="-2.7935979">
        <ele>151.082</ele>
        <time>2021-04-01T09:24:00.256Z</time>
      </trkpt>
      <trkpt lat="43.1347575" lon="-2.7935998">
        <ele>151.087</ele>
        <time>2021-04-01T09:24:00.309Z</time>
      </trkpt>
      <trkpt lat="43.1347582" lon="-2.7936017">
        <ele>151.07</ele>
        <time>2021-04-01T09:24:00.370Z</time>
      </trkpt>
      <trkpt lat="43.1347592" lon="-2.7936035">
        <ele>151.099</ele>
        <time>2021-04-01T09:24:00.431Z</time>
      </trkpt>
      <trkpt lat="43.1347601" lon="-2.7936051">
        <ele>151.079</ele>
        <time>2021-04-01T09:24:00.493Z</time>
      </trkpt>
      <trkpt lat="43.1347608" lon="-2.7936073">
        <ele>151.104</ele>
        <time>2021-04-01T09:24:00.554Z</time>
      </trkpt>
      <trkpt lat="43.1347616" lon="-2.7936093">
        <ele>151.122</ele>
        <time>2021-04-01T09:24:00.616Z</time>
      </trkpt>
      <trkpt lat="43.1347625" lon="-2.7936115">
        <ele>151.157</ele>
        <time>2021-04-01T09:24:00.677Z</time>
      </trkpt>
      <trkpt lat="43.1347636" lon="-2.7936134">
        <ele>151.151</ele>
        <time>2021-04-01T09:24:00.739Z</time>
      </trkpt>
      <trkpt lat="43.1347646" lon="-2.7936154">
        <ele>151.16</ele>
        <time>2021-04-01T09:24:00.800Z</time>
      </trkpt>
      <trkpt lat="43.1347657" lon="-2.7936173">
        <ele>151.202</ele>
        <time>2021-04-01T09:24:00.862Z</time>
      </trkpt>
      <trkpt lat="43.134767" lon="-2.7936189">
        <ele>151.176</ele>
        <time>2021-04-01T09:24:00.923Z</time>
      </trkpt>
      <trkpt lat="43.1347683" lon="-2.7936204">
        <ele>151.127</ele>
        <time>2021-04-01T09:24:00.985Z</time>
      </trkpt>
      <trkpt lat="43.1347693" lon="-2.793622">
        <ele>151.134</ele>
        <time>2021-04-01T09:24:01.046Z</time>
      </trkpt>
      <trkpt lat="43.13477" lon="-2.793624">
        <ele>151.179</ele>
        <time>2021-04-01T09:24:01.108Z</time>
      </trkpt>
      <trkpt lat="43.1347709" lon="-2.7936259">
        <ele>151.179</ele>
        <time>2021-04-01T09:24:01.169Z</time>
      </trkpt>
      <trkpt lat="43.134772" lon="-2.7936278">
        <ele>151.151</ele>
        <time>2021-04-01T09:24:01.231Z</time>
      </trkpt>
      <trkpt lat="43.1347732" lon="-2.7936296">
        <ele>151.131</ele>
        <time>2021-04-01T09:24:01.292Z</time>
      </trkpt>
      <trkpt lat="43.1347742" lon="-2.7936312">
        <ele>151.085</ele>
        <time>2021-04-01T09:24:01.354Z</time>
      </trkpt>
      <trkpt lat="43.1347752" lon="-2.7936331">
        <ele>151.135</ele>
        <time>2021-04-01T09:24:01.406Z</time>
      </trkpt>
      <trkpt lat="43.1347763" lon="-2.7936348">
        <ele>151.133</ele>
        <time>2021-04-01T09:24:01.458Z</time>
      </trkpt>
      <trkpt lat="43.1347773" lon="-2.7936366">
        <ele>151.108</ele>
        <time>2021-04-01T09:24:01.510Z</time>
      </trkpt>
      <trkpt lat="43.1347781" lon="-2.7936386">
        <ele>151.103</ele>
        <time>2021-04-01T09:24:01.562Z</time>
      </trkpt>
      <trkpt lat="43.1347791" lon="-2.7936405">
        <ele>151.125</ele>
        <time>2021-04-01T09:24:01.614Z</time>
      </trkpt>
      <trkpt lat="43.1347801" lon="-2.7936422">
        <ele>151.12</ele>
        <time>2021-04-01T09:24:01.666Z</time>
      </trkpt>
      <trkpt lat="43.1347809" lon="-2.7936442">
        <ele>151.091</ele>
        <time>2021-04-01T09:24:01.718Z</time>
      </trkpt>
      <trkpt lat="43.1347816" lon="-2.7936459">
        <ele>151.034</ele>
        <time>2021-04-01T09:24:01.770Z</time>
      </trkpt>
      <trkpt lat="43.1347827" lon="-2.7936473">
        <ele>150.98</ele>
        <time>2021-04-01T09:24:01.822Z</time>
      </trkpt>
      <trkpt lat="43.1347833" lon="-2.7936486">
        <ele>150.928</ele>
        <time>2021-04-01T09:24:01.875Z</time>
      </trkpt>
      <trkpt lat="43.1347838" lon="-2.793651">
        <ele>150.953</ele>
        <time>2021-04-01T09:24:01.927Z</time>
      </trkpt>
      <trkpt lat="43.134785" lon="-2.7936527">
        <ele>150.943</ele>
        <time>2021-04-01T09:24:01.979Z</time>
      </trkpt>
      <trkpt lat="43.1347859" lon="-2.7936549">
        <ele>150.964</ele>
        <time>2021-04-01T09:24:02.031Z</time>
      </trkpt>
      <trkpt lat="43.1347869" lon="-2.7936572">
        <ele>150.989</ele>
        <time>2021-04-01T09:24:02.083Z</time>
      </trkpt>
      <trkpt lat="43.1347883" lon="-2.7936591">
        <ele>151.03</ele>
        <time>2021-04-01T09:24:02.135Z</time>
      </trkpt>
      <trkpt lat="43.1347894" lon="-2.7936608">
        <ele>151.063</ele>
        <time>2021-04-01T09:24:02.187Z</time>
      </trkpt>
      <trkpt lat="43.1347901" lon="-2.7936624">
        <ele>151.029</ele>
        <time>2021-04-01T09:24:02.239Z</time>
      </trkpt>
      <trkpt lat="43.1347909" lon="-2.7936643">
        <ele>151.026</ele>
        <time>2021-04-01T09:24:02.291Z</time>
      </trkpt>
      <trkpt lat="43.1347918" lon="-2.7936663">
        <ele>151.038</ele>
        <time>2021-04-01T09:24:02.344Z</time>
      </trkpt>
      <trkpt lat="43.1347927" lon="-2.7936684">
        <ele>151.045</ele>
        <time>2021-04-01T09:24:02.399Z</time>
      </trkpt>
      <trkpt lat="43.1347936" lon="-2.7936705">
        <ele>151.061</ele>
        <time>2021-04-01T09:24:02.454Z</time>
      </trkpt>
      <trkpt lat="43.1347946" lon="-2.7936724">
        <ele>151.096</ele>
        <time>2021-04-01T09:24:02.509Z</time>
      </trkpt>
      <trkpt lat="43.1347959" lon="-2.793674">
        <ele>151.095</ele>
        <time>2021-04-01T09:24:02.564Z</time>
      </trkpt>
      <trkpt lat="43.1347971" lon="-2.7936749">
        <ele>151.085</ele>
        <time>2021-04-01T09:24:02.619Z</time>
      </trkpt>
      <trkpt lat="43.1347978" lon="-2.7936758">
        <ele>151.067</ele>
        <time>2021-04-01T09:24:02.674Z</time>
      </trkpt>
      <trkpt lat="43.1347985" lon="-2.7936774">
        <ele>151.07</ele>
        <time>2021-04-01T09:24:02.729Z</time>
      </trkpt>
      <trkpt lat="43.1347993" lon="-2.793679">
        <ele>151.061</ele>
        <time>2021-04-01T09:24:02.784Z</time>
      </trkpt>
      <trkpt lat="43.1348002" lon="-2.7936806">
        <ele>151.027</ele>
        <time>2021-04-01T09:24:02.839Z</time>
      </trkpt>
      <trkpt lat="43.134801" lon="-2.7936822">
        <ele>151.036</ele>
        <time>2021-04-01T09:24:02.894Z</time>
      </trkpt>
      <trkpt lat="43.1348016" lon="-2.7936841">
        <ele>151.053</ele>
        <time>2021-04-01T09:24:02.949Z</time>
      </trkpt>
      <trkpt lat="43.1348027" lon="-2.7936858">
        <ele>151.028</ele>
        <time>2021-04-01T09:24:03.004Z</time>
      </trkpt>
      <trkpt lat="43.1348035" lon="-2.7936876">
        <ele>151.043</ele>
        <time>2021-04-01T09:24:03.059Z</time>
      </trkpt>
      <trkpt lat="43.1348044" lon="-2.7936894">
        <ele>151.042</ele>
        <time>2021-04-01T09:24:03.114Z</time>
      </trkpt>
      <trkpt lat="43.1348053" lon="-2.7936912">
        <ele>151.048</ele>
        <time>2021-04-01T09:24:03.169Z</time>
      </trkpt>
      <trkpt lat="43.1348059" lon="-2.7936931">
        <ele>151.051</ele>
        <time>2021-04-01T09:24:03.224Z</time>
      </trkpt>
      <trkpt lat="43.1348067" lon="-2.7936949">
        <ele>151.058</ele>
        <time>2021-04-01T09:24:03.279Z</time>
      </trkpt>
      <trkpt lat="43.1348075" lon="-2.7936966">
        <ele>151.036</ele>
        <time>2021-04-01T09:24:03.334Z</time>
      </trkpt>
      <trkpt lat="43.1348083" lon="-2.7936982">
        <ele>151.058</ele>
        <time>2021-04-01T09:24:03.386Z</time>
      </trkpt>
      <trkpt lat="43.1348091" lon="-2.7936999">
        <ele>151.017</ele>
        <time>2021-04-01T09:24:03.438Z</time>
      </trkpt>
      <trkpt lat="43.1348099" lon="-2.7937018">
        <ele>151.003</ele>
        <time>2021-04-01T09:24:03.490Z</time>
      </trkpt>
      <trkpt lat="43.1348108" lon="-2.7937035">
        <ele>151.024</ele>
        <time>2021-04-01T09:24:03.542Z</time>
      </trkpt>
      <trkpt lat="43.1348118" lon="-2.7937057">
        <ele>151.066</ele>
        <time>2021-04-01T09:24:03.594Z</time>
      </trkpt>
      <trkpt lat="43.1348129" lon="-2.7937076">
        <ele>151.058</ele>
        <time>2021-04-01T09:24:03.646Z</time>
      </trkpt>
      <trkpt lat="43.1348137" lon="-2.7937098">
        <ele>151.061</ele>
        <time>2021-04-01T09:24:03.698Z</time>
      </trkpt>
      <trkpt lat="43.1348149" lon="-2.7937116">
        <ele>151.064</ele>
        <time>2021-04-01T09:24:03.750Z</time>
      </trkpt>
      <trkpt lat="43.1348158" lon="-2.7937129">
        <ele>151.056</ele>
        <time>2021-04-01T09:24:03.802Z</time>
      </trkpt>
      <trkpt lat="43.1348167" lon="-2.7937144">
        <ele>151.031</ele>
        <time>2021-04-01T09:24:03.855Z</time>
      </trkpt>
      <trkpt lat="43.1348175" lon="-2.7937159">
        <ele>151.015</ele>
        <time>2021-04-01T09:24:03.907Z</time>
      </trkpt>
      <trkpt lat="43.1348186" lon="-2.793717">
        <ele>150.96</ele>
        <time>2021-04-01T09:24:03.959Z</time>
      </trkpt>
      <trkpt lat="43.1348195" lon="-2.7937189">
        <ele>150.948</ele>
        <time>2021-04-01T09:24:04.011Z</time>
      </trkpt>
      <trkpt lat="43.1348205" lon="-2.7937205">
        <ele>150.93</ele>
        <time>2021-04-01T09:24:04.063Z</time>
      </trkpt>
      <trkpt lat="43.1348212" lon="-2.7937221">
        <ele>150.893</ele>
        <time>2021-04-01T09:24:04.115Z</time>
      </trkpt>
      <trkpt lat="43.1348222" lon="-2.7937236">
        <ele>150.857</ele>
        <time>2021-04-01T09:24:04.167Z</time>
      </trkpt>
      <trkpt lat="43.1348232" lon="-2.7937255">
        <ele>150.848</ele>
        <time>2021-04-01T09:24:04.219Z</time>
      </trkpt>
      <trkpt lat="43.134824" lon="-2.793727">
        <ele>150.809</ele>
        <time>2021-04-01T09:24:04.271Z</time>
      </trkpt>
      <trkpt lat="43.1348249" lon="-2.7937292">
        <ele>150.837</ele>
        <time>2021-04-01T09:24:04.324Z</time>
      </trkpt>
      <trkpt lat="43.1348259" lon="-2.7937308">
        <ele>150.831</ele>
        <time>2021-04-01T09:24:04.382Z</time>
      </trkpt>
      <trkpt lat="43.1348268" lon="-2.7937326">
        <ele>150.81</ele>
        <time>2021-04-01T09:24:04.440Z</time>
      </trkpt>
      <trkpt lat="43.1348277" lon="-2.7937343">
        <ele>150.763</ele>
        <time>2021-04-01T09:24:04.498Z</time>
      </trkpt>
      <trkpt lat="43.1348288" lon="-2.793736">
        <ele>150.767</ele>
        <time>2021-04-01T09:24:04.556Z</time>
      </trkpt>
      <trkpt lat="43.1348296" lon="-2.7937382">
        <ele>150.817</ele>
        <time>2021-04-01T09:24:04.615Z</time>
      </trkpt>
      <trkpt lat="43.1348306" lon="-2.7937401">
        <ele>150.852</ele>
        <time>2021-04-01T09:24:04.673Z</time>
      </trkpt>
      <trkpt lat="43.1348315" lon="-2.793742">
        <ele>150.836</ele>
        <time>2021-04-01T09:24:04.731Z</time>
      </trkpt>
      <trkpt lat="43.1348322" lon="-2.7937445">
        <ele>150.91</ele>
        <time>2021-04-01T09:24:04.789Z</time>
      </trkpt>
      <trkpt lat="43.1348328" lon="-2.7937466">
        <ele>150.949</ele>
        <time>2021-04-01T09:24:04.848Z</time>
      </trkpt>
      <trkpt lat="43.1348337" lon="-2.7937489">
        <ele>151</ele>
        <time>2021-04-01T09:24:04.906Z</time>
      </trkpt>
      <trkpt lat="43.134835" lon="-2.7937508">
        <ele>151.029</ele>
        <time>2021-04-01T09:24:04.964Z</time>
      </trkpt>
      <trkpt lat="43.1348361" lon="-2.7937528">
        <ele>151.054</ele>
        <time>2021-04-01T09:24:05.022Z</time>
      </trkpt>
      <trkpt lat="43.1348368" lon="-2.7937548">
        <ele>151.042</ele>
        <time>2021-04-01T09:24:05.081Z</time>
      </trkpt>
      <trkpt lat="43.134838" lon="-2.7937563">
        <ele>151.007</ele>
        <time>2021-04-01T09:24:05.139Z</time>
      </trkpt>
      <trkpt lat="43.1348388" lon="-2.7937581">
        <ele>151.003</ele>
        <time>2021-04-01T09:24:05.197Z</time>
      </trkpt>
      <trkpt lat="43.1348398" lon="-2.7937598">
        <ele>151.033</ele>
        <time>2021-04-01T09:24:05.255Z</time>
      </trkpt>
      <trkpt lat="43.1348407" lon="-2.793762">
        <ele>151.071</ele>
        <time>2021-04-01T09:24:05.314Z</time>
      </trkpt>
      <trkpt lat="43.1348415" lon="-2.7937643">
        <ele>151.082</ele>
        <time>2021-04-01T09:24:05.369Z</time>
      </trkpt>
      <trkpt lat="43.1348423" lon="-2.7937662">
        <ele>151.069</ele>
        <time>2021-04-01T09:24:05.424Z</time>
      </trkpt>
      <trkpt lat="43.1348435" lon="-2.7937681">
        <ele>151.103</ele>
        <time>2021-04-01T09:24:05.479Z</time>
      </trkpt>
      <trkpt lat="43.1348443" lon="-2.7937703">
        <ele>151.132</ele>
        <time>2021-04-01T09:24:05.534Z</time>
      </trkpt>
      <trkpt lat="43.1348452" lon="-2.7937721">
        <ele>151.134</ele>
        <time>2021-04-01T09:24:05.589Z</time>
      </trkpt>
      <trkpt lat="43.1348459" lon="-2.7937741">
        <ele>151.142</ele>
        <time>2021-04-01T09:24:05.644Z</time>
      </trkpt>
      <trkpt lat="43.1348468" lon="-2.7937762">
        <ele>151.193</ele>
        <time>2021-04-01T09:24:05.699Z</time>
      </trkpt>
      <trkpt lat="43.134848" lon="-2.7937784">
        <ele>151.224</ele>
        <time>2021-04-01T09:24:05.754Z</time>
      </trkpt>
      <trkpt lat="43.1348491" lon="-2.7937805">
        <ele>151.27</ele>
        <time>2021-04-01T09:24:05.809Z</time>
      </trkpt>
      <trkpt lat="43.1348499" lon="-2.7937828">
        <ele>151.345</ele>
        <time>2021-04-01T09:24:05.864Z</time>
      </trkpt>
      <trkpt lat="43.1348511" lon="-2.7937846">
        <ele>151.374</ele>
        <time>2021-04-01T09:24:05.919Z</time>
      </trkpt>
      <trkpt lat="43.1348521" lon="-2.7937866">
        <ele>151.373</ele>
        <time>2021-04-01T09:24:05.974Z</time>
      </trkpt>
      <trkpt lat="43.1348528" lon="-2.7937886">
        <ele>151.406</ele>
        <time>2021-04-01T09:24:06.029Z</time>
      </trkpt>
      <trkpt lat="43.1348535" lon="-2.7937906">
        <ele>151.47</ele>
        <time>2021-04-01T09:24:06.084Z</time>
      </trkpt>
      <trkpt lat="43.1348545" lon="-2.7937925">
        <ele>151.47</ele>
        <time>2021-04-01T09:24:06.139Z</time>
      </trkpt>
      <trkpt lat="43.1348557" lon="-2.7937945">
        <ele>151.495</ele>
        <time>2021-04-01T09:24:06.194Z</time>
      </trkpt>
      <trkpt lat="43.1348567" lon="-2.7937964">
        <ele>151.492</ele>
        <time>2021-04-01T09:24:06.249Z</time>
      </trkpt>
      <trkpt lat="43.1348578" lon="-2.7937985">
        <ele>151.517</ele>
        <time>2021-04-01T09:24:06.304Z</time>
      </trkpt>
      <trkpt lat="43.1348588" lon="-2.7938005">
        <ele>151.552</ele>
        <time>2021-04-01T09:24:06.359Z</time>
      </trkpt>
      <trkpt lat="43.1348599" lon="-2.7938021">
        <ele>151.521</ele>
        <time>2021-04-01T09:24:06.410Z</time>
      </trkpt>
      <trkpt lat="43.1348607" lon="-2.7938042">
        <ele>151.534</ele>
        <time>2021-04-01T09:24:06.462Z</time>
      </trkpt>
      <trkpt lat="43.1348616" lon="-2.7938063">
        <ele>151.587</ele>
        <time>2021-04-01T09:24:06.514Z</time>
      </trkpt>
      <trkpt lat="43.1348626" lon="-2.7938084">
        <ele>151.602</ele>
        <time>2021-04-01T09:24:06.566Z</time>
      </trkpt>
      <trkpt lat="43.1348638" lon="-2.7938102">
        <ele>151.609</ele>
        <time>2021-04-01T09:24:06.618Z</time>
      </trkpt>
      <trkpt lat="43.1348647" lon="-2.7938123">
        <ele>151.629</ele>
        <time>2021-04-01T09:24:06.670Z</time>
      </trkpt>
      <trkpt lat="43.1348658" lon="-2.793814">
        <ele>151.637</ele>
        <time>2021-04-01T09:24:06.722Z</time>
      </trkpt>
      <trkpt lat="43.1348668" lon="-2.7938157">
        <ele>151.627</ele>
        <time>2021-04-01T09:24:06.774Z</time>
      </trkpt>
      <trkpt lat="43.134868" lon="-2.7938172">
        <ele>151.614</ele>
        <time>2021-04-01T09:24:06.826Z</time>
      </trkpt>
      <trkpt lat="43.1348689" lon="-2.7938192">
        <ele>151.643</ele>
        <time>2021-04-01T09:24:06.878Z</time>
      </trkpt>
      <trkpt lat="43.1348698" lon="-2.793821">
        <ele>151.672</ele>
        <time>2021-04-01T09:24:06.930Z</time>
      </trkpt>
      <trkpt lat="43.134871" lon="-2.7938226">
        <ele>151.676</ele>
        <time>2021-04-01T09:24:06.982Z</time>
      </trkpt>
      <trkpt lat="43.134872" lon="-2.7938245">
        <ele>151.673</ele>
        <time>2021-04-01T09:24:07.034Z</time>
      </trkpt>
      <trkpt lat="43.1348731" lon="-2.7938263">
        <ele>151.653</ele>
        <time>2021-04-01T09:24:07.086Z</time>
      </trkpt>
      <trkpt lat="43.1348745" lon="-2.793828">
        <ele>151.662</ele>
        <time>2021-04-01T09:24:07.138Z</time>
      </trkpt>
      <trkpt lat="43.1348755" lon="-2.7938296">
        <ele>151.607</ele>
        <time>2021-04-01T09:24:07.190Z</time>
      </trkpt>
      <trkpt lat="43.1348762" lon="-2.7938314">
        <ele>151.604</ele>
        <time>2021-04-01T09:24:07.242Z</time>
      </trkpt>
      <trkpt lat="43.1348771" lon="-2.7938329">
        <ele>151.593</ele>
        <time>2021-04-01T09:24:07.294Z</time>
      </trkpt>
      <trkpt lat="43.1348781" lon="-2.7938347">
        <ele>151.581</ele>
        <time>2021-04-01T09:24:07.352Z</time>
      </trkpt>
      <trkpt lat="43.1348792" lon="-2.7938359">
        <ele>151.522</ele>
        <time>2021-04-01T09:24:07.410Z</time>
      </trkpt>
      <trkpt lat="43.1348804" lon="-2.7938375">
        <ele>151.498</ele>
        <time>2021-04-01T09:24:07.468Z</time>
      </trkpt>
      <trkpt lat="43.1348813" lon="-2.7938395">
        <ele>151.511</ele>
        <time>2021-04-01T09:24:07.526Z</time>
      </trkpt>
      <trkpt lat="43.134882" lon="-2.7938416">
        <ele>151.5</ele>
        <time>2021-04-01T09:24:07.584Z</time>
      </trkpt>
      <trkpt lat="43.134883" lon="-2.7938434">
        <ele>151.506</ele>
        <time>2021-04-01T09:24:07.642Z</time>
      </trkpt>
      <trkpt lat="43.1348841" lon="-2.7938449">
        <ele>151.503</ele>
        <time>2021-04-01T09:24:07.700Z</time>
      </trkpt>
      <trkpt lat="43.1348849" lon="-2.7938469">
        <ele>151.511</ele>
        <time>2021-04-01T09:24:07.758Z</time>
      </trkpt>
      <trkpt lat="43.1348858" lon="-2.7938488">
        <ele>151.496</ele>
        <time>2021-04-01T09:24:07.816Z</time>
      </trkpt>
      <trkpt lat="43.1348867" lon="-2.7938507">
        <ele>151.51</ele>
        <time>2021-04-01T09:24:07.874Z</time>
      </trkpt>
      <trkpt lat="43.1348876" lon="-2.7938526">
        <ele>151.523</ele>
        <time>2021-04-01T09:24:07.932Z</time>
      </trkpt>
      <trkpt lat="43.1348884" lon="-2.7938546">
        <ele>151.512</ele>
        <time>2021-04-01T09:24:07.990Z</time>
      </trkpt>
      <trkpt lat="43.1348892" lon="-2.7938564">
        <ele>151.498</ele>
        <time>2021-04-01T09:24:08.048Z</time>
      </trkpt>
      <trkpt lat="43.1348901" lon="-2.7938582">
        <ele>151.497</ele>
        <time>2021-04-01T09:24:08.106Z</time>
      </trkpt>
      <trkpt lat="43.1348912" lon="-2.7938599">
        <ele>151.494</ele>
        <time>2021-04-01T09:24:08.164Z</time>
      </trkpt>
      <trkpt lat="43.134892" lon="-2.7938616">
        <ele>151.488</ele>
        <time>2021-04-01T09:24:08.222Z</time>
      </trkpt>
      <trkpt lat="43.1348928" lon="-2.7938635">
        <ele>151.46</ele>
        <time>2021-04-01T09:24:08.280Z</time>
      </trkpt>
      <trkpt lat="43.1348937" lon="-2.7938654">
        <ele>151.449</ele>
        <time>2021-04-01T09:24:08.339Z</time>
      </trkpt>
      <trkpt lat="43.1348948" lon="-2.7938676">
        <ele>151.511</ele>
        <time>2021-04-01T09:24:08.394Z</time>
      </trkpt>
      <trkpt lat="43.1348959" lon="-2.7938694">
        <ele>151.51</ele>
        <time>2021-04-01T09:24:08.449Z</time>
      </trkpt>
      <trkpt lat="43.1348966" lon="-2.7938717">
        <ele>151.509</ele>
        <time>2021-04-01T09:24:08.504Z</time>
      </trkpt>
      <trkpt lat="43.1348974" lon="-2.7938736">
        <ele>151.479</ele>
        <time>2021-04-01T09:24:08.559Z</time>
      </trkpt>
      <trkpt lat="43.1348981" lon="-2.7938756">
        <ele>151.526</ele>
        <time>2021-04-01T09:24:08.614Z</time>
      </trkpt>
      <trkpt lat="43.1348991" lon="-2.7938775">
        <ele>151.544</ele>
        <time>2021-04-01T09:24:08.669Z</time>
      </trkpt>
      <trkpt lat="43.1348999" lon="-2.7938793">
        <ele>151.522</ele>
        <time>2021-04-01T09:24:08.724Z</time>
      </trkpt>
      <trkpt lat="43.134901" lon="-2.7938816">
        <ele>151.556</ele>
        <time>2021-04-01T09:24:08.779Z</time>
      </trkpt>
      <trkpt lat="43.1349019" lon="-2.7938836">
        <ele>151.557</ele>
        <time>2021-04-01T09:24:08.834Z</time>
      </trkpt>
      <trkpt lat="43.134903" lon="-2.7938855">
        <ele>151.565</ele>
        <time>2021-04-01T09:24:08.889Z</time>
      </trkpt>
      <trkpt lat="43.1349038" lon="-2.7938876">
        <ele>151.589</ele>
        <time>2021-04-01T09:24:08.944Z</time>
      </trkpt>
      <trkpt lat="43.1349045" lon="-2.7938894">
        <ele>151.591</ele>
        <time>2021-04-01T09:24:08.999Z</time>
      </trkpt>
      <trkpt lat="43.1349054" lon="-2.7938913">
        <ele>151.603</ele>
        <time>2021-04-01T09:24:09.054Z</time>
      </trkpt>
      <trkpt lat="43.1349066" lon="-2.7938932">
        <ele>151.59</ele>
        <time>2021-04-01T09:24:09.109Z</time>
      </trkpt>
      <trkpt lat="43.1349076" lon="-2.7938953">
        <ele>151.603</ele>
        <time>2021-04-01T09:24:09.164Z</time>
      </trkpt>
      <trkpt lat="43.1349086" lon="-2.7938972">
        <ele>151.635</ele>
        <time>2021-04-01T09:24:09.219Z</time>
      </trkpt>
      <trkpt lat="43.1349095" lon="-2.7938993">
        <ele>151.663</ele>
        <time>2021-04-01T09:24:09.274Z</time>
      </trkpt>
      <trkpt lat="43.1349105" lon="-2.7939015">
        <ele>151.678</ele>
        <time>2021-04-01T09:24:09.329Z</time>
      </trkpt>
      <trkpt lat="43.1349114" lon="-2.7939036">
        <ele>151.728</ele>
        <time>2021-04-01T09:24:09.384Z</time>
      </trkpt>
      <trkpt lat="43.1349122" lon="-2.7939055">
        <ele>151.74</ele>
        <time>2021-04-01T09:24:09.439Z</time>
      </trkpt>
      <trkpt lat="43.1349131" lon="-2.7939077">
        <ele>151.759</ele>
        <time>2021-04-01T09:24:09.494Z</time>
      </trkpt>
      <trkpt lat="43.134914" lon="-2.7939096">
        <ele>151.748</ele>
        <time>2021-04-01T09:24:09.549Z</time>
      </trkpt>
      <trkpt lat="43.1349147" lon="-2.7939116">
        <ele>151.764</ele>
        <time>2021-04-01T09:24:09.604Z</time>
      </trkpt>
      <trkpt lat="43.1349154" lon="-2.7939138">
        <ele>151.797</ele>
        <time>2021-04-01T09:24:09.659Z</time>
      </trkpt>
      <trkpt lat="43.1349164" lon="-2.7939157">
        <ele>151.772</ele>
        <time>2021-04-01T09:24:09.714Z</time>
      </trkpt>
      <trkpt lat="43.1349171" lon="-2.7939177">
        <ele>151.769</ele>
        <time>2021-04-01T09:24:09.769Z</time>
      </trkpt>
      <trkpt lat="43.1349178" lon="-2.7939198">
        <ele>151.824</ele>
        <time>2021-04-01T09:24:09.824Z</time>
      </trkpt>
      <trkpt lat="43.1349188" lon="-2.7939216">
        <ele>151.809</ele>
        <time>2021-04-01T09:24:09.879Z</time>
      </trkpt>
      <trkpt lat="43.1349198" lon="-2.7939236">
        <ele>151.818</ele>
        <time>2021-04-01T09:24:09.934Z</time>
      </trkpt>
      <trkpt lat="43.1349206" lon="-2.7939256">
        <ele>151.809</ele>
        <time>2021-04-01T09:24:09.989Z</time>
      </trkpt>
      <trkpt lat="43.1349212" lon="-2.7939276">
        <ele>151.832</ele>
        <time>2021-04-01T09:24:10.044Z</time>
      </trkpt>
      <trkpt lat="43.1349219" lon="-2.7939292">
        <ele>151.782</ele>
        <time>2021-04-01T09:24:10.099Z</time>
      </trkpt>
      <trkpt lat="43.1349227" lon="-2.7939309">
        <ele>151.729</ele>
        <time>2021-04-01T09:24:10.154Z</time>
      </trkpt>
      <trkpt lat="43.1349235" lon="-2.7939325">
        <ele>151.703</ele>
        <time>2021-04-01T09:24:10.209Z</time>
      </trkpt>
      <trkpt lat="43.1349239" lon="-2.7939345">
        <ele>151.735</ele>
        <time>2021-04-01T09:24:10.264Z</time>
      </trkpt>
      <trkpt lat="43.1349246" lon="-2.7939364">
        <ele>151.74</ele>
        <time>2021-04-01T09:24:10.319Z</time>
      </trkpt>
      <trkpt lat="43.1349255" lon="-2.7939384">
        <ele>151.729</ele>
        <time>2021-04-01T09:24:10.374Z</time>
      </trkpt>
      <trkpt lat="43.1349264" lon="-2.7939405">
        <ele>151.747</ele>
        <time>2021-04-01T09:24:10.429Z</time>
      </trkpt>
      <trkpt lat="43.1349274" lon="-2.7939423">
        <ele>151.741</ele>
        <time>2021-04-01T09:24:10.484Z</time>
      </trkpt>
      <trkpt lat="43.1349285" lon="-2.7939442">
        <ele>151.737</ele>
        <time>2021-04-01T09:24:10.539Z</time>
      </trkpt>
      <trkpt lat="43.1349295" lon="-2.7939462">
        <ele>151.742</ele>
        <time>2021-04-01T09:24:10.594Z</time>
      </trkpt>
      <trkpt lat="43.1349304" lon="-2.793948">
        <ele>151.72</ele>
        <time>2021-04-01T09:24:10.649Z</time>
      </trkpt>
      <trkpt lat="43.1349314" lon="-2.7939496">
        <ele>151.721</ele>
        <time>2021-04-01T09:24:10.704Z</time>
      </trkpt>
      <trkpt lat="43.1349321" lon="-2.7939515">
        <ele>151.752</ele>
        <time>2021-04-01T09:24:10.759Z</time>
      </trkpt>
      <trkpt lat="43.1349331" lon="-2.7939534">
        <ele>151.749</ele>
        <time>2021-04-01T09:24:10.814Z</time>
      </trkpt>
      <trkpt lat="43.1349341" lon="-2.7939553">
        <ele>151.753</ele>
        <time>2021-04-01T09:24:10.869Z</time>
      </trkpt>
      <trkpt lat="43.1349351" lon="-2.7939573">
        <ele>151.763</ele>
        <time>2021-04-01T09:24:10.924Z</time>
      </trkpt>
      <trkpt lat="43.1349364" lon="-2.7939591">
        <ele>151.783</ele>
        <time>2021-04-01T09:24:10.979Z</time>
      </trkpt>
      <trkpt lat="43.1349374" lon="-2.7939611">
        <ele>151.801</ele>
        <time>2021-04-01T09:24:11.034Z</time>
      </trkpt>
      <trkpt lat="43.1349384" lon="-2.7939629">
        <ele>151.827</ele>
        <time>2021-04-01T09:24:11.089Z</time>
      </trkpt>
      <trkpt lat="43.1349393" lon="-2.7939649">
        <ele>151.857</ele>
        <time>2021-04-01T09:24:11.144Z</time>
      </trkpt>
      <trkpt lat="43.13494" lon="-2.7939668">
        <ele>151.858</ele>
        <time>2021-04-01T09:24:11.199Z</time>
      </trkpt>
      <trkpt lat="43.1349411" lon="-2.7939685">
        <ele>151.83</ele>
        <time>2021-04-01T09:24:11.254Z</time>
      </trkpt>
      <trkpt lat="43.1349418" lon="-2.7939702">
        <ele>151.803</ele>
        <time>2021-04-01T09:24:11.309Z</time>
      </trkpt>
      <trkpt lat="43.1349427" lon="-2.7939719">
        <ele>151.793</ele>
        <time>2021-04-01T09:24:11.364Z</time>
      </trkpt>
      <trkpt lat="43.1349434" lon="-2.7939737">
        <ele>151.771</ele>
        <time>2021-04-01T09:24:11.422Z</time>
      </trkpt>
      <trkpt lat="43.1349443" lon="-2.7939753">
        <ele>151.779</ele>
        <time>2021-04-01T09:24:11.480Z</time>
      </trkpt>
      <trkpt lat="43.1349449" lon="-2.7939769">
        <ele>151.734</ele>
        <time>2021-04-01T09:24:11.538Z</time>
      </trkpt>
      <trkpt lat="43.1349454" lon="-2.7939781">
        <ele>151.678</ele>
        <time>2021-04-01T09:24:11.596Z</time>
      </trkpt>
      <trkpt lat="43.134946" lon="-2.79398">
        <ele>151.693</ele>
        <time>2021-04-01T09:24:11.655Z</time>
      </trkpt>
      <trkpt lat="43.1349468" lon="-2.7939817">
        <ele>151.68</ele>
        <time>2021-04-01T09:24:11.713Z</time>
      </trkpt>
      <trkpt lat="43.1349475" lon="-2.7939836">
        <ele>151.684</ele>
        <time>2021-04-01T09:24:11.771Z</time>
      </trkpt>
      <trkpt lat="43.1349483" lon="-2.7939855">
        <ele>151.687</ele>
        <time>2021-04-01T09:24:11.829Z</time>
      </trkpt>
      <trkpt lat="43.1349492" lon="-2.7939874">
        <ele>151.683</ele>
        <time>2021-04-01T09:24:11.888Z</time>
      </trkpt>
      <trkpt lat="43.13495" lon="-2.7939888">
        <ele>151.658</ele>
        <time>2021-04-01T09:24:11.946Z</time>
      </trkpt>
      <trkpt lat="43.1349507" lon="-2.7939903">
        <ele>151.638</ele>
        <time>2021-04-01T09:24:12.004Z</time>
      </trkpt>
      <trkpt lat="43.1349514" lon="-2.7939919">
        <ele>151.637</ele>
        <time>2021-04-01T09:24:12.062Z</time>
      </trkpt>
      <trkpt lat="43.1349522" lon="-2.7939938">
        <ele>151.619</ele>
        <time>2021-04-01T09:24:12.121Z</time>
      </trkpt>
      <trkpt lat="43.134953" lon="-2.7939952">
        <ele>151.593</ele>
        <time>2021-04-01T09:24:12.179Z</time>
      </trkpt>
      <trkpt lat="43.1349539" lon="-2.7939969">
        <ele>151.58</ele>
        <time>2021-04-01T09:24:12.237Z</time>
      </trkpt>
      <trkpt lat="43.1349547" lon="-2.7939987">
        <ele>151.596</ele>
        <time>2021-04-01T09:24:12.295Z</time>
      </trkpt>
      <trkpt lat="43.1349559" lon="-2.7940006">
        <ele>151.577</ele>
        <time>2021-04-01T09:24:12.354Z</time>
      </trkpt>
      <trkpt lat="43.1349566" lon="-2.7940026">
        <ele>151.598</ele>
        <time>2021-04-01T09:24:12.406Z</time>
      </trkpt>
      <trkpt lat="43.1349572" lon="-2.7940041">
        <ele>151.577</ele>
        <time>2021-04-01T09:24:12.458Z</time>
      </trkpt>
      <trkpt lat="43.1349583" lon="-2.7940057">
        <ele>151.563</ele>
        <time>2021-04-01T09:24:12.510Z</time>
      </trkpt>
      <trkpt lat="43.1349594" lon="-2.7940077">
        <ele>151.583</ele>
        <time>2021-04-01T09:24:12.562Z</time>
      </trkpt>
      <trkpt lat="43.1349605" lon="-2.7940095">
        <ele>151.578</ele>
        <time>2021-04-01T09:24:12.614Z</time>
      </trkpt>
      <trkpt lat="43.1349615" lon="-2.7940111">
        <ele>151.582</ele>
        <time>2021-04-01T09:24:12.666Z</time>
      </trkpt>
      <trkpt lat="43.1349628" lon="-2.7940128">
        <ele>151.58</ele>
        <time>2021-04-01T09:24:12.718Z</time>
      </trkpt>
      <trkpt lat="43.1349638" lon="-2.7940145">
        <ele>151.57</ele>
        <time>2021-04-01T09:24:12.770Z</time>
      </trkpt>
      <trkpt lat="43.1349649" lon="-2.7940161">
        <ele>151.56</ele>
        <time>2021-04-01T09:24:12.822Z</time>
      </trkpt>
      <trkpt lat="43.134966" lon="-2.7940177">
        <ele>151.577</ele>
        <time>2021-04-01T09:24:12.875Z</time>
      </trkpt>
      <trkpt lat="43.1349669" lon="-2.7940193">
        <ele>151.585</ele>
        <time>2021-04-01T09:24:12.927Z</time>
      </trkpt>
      <trkpt lat="43.1349675" lon="-2.794021">
        <ele>151.612</ele>
        <time>2021-04-01T09:24:12.979Z</time>
      </trkpt>
      <trkpt lat="43.1349685" lon="-2.7940226">
        <ele>151.602</ele>
        <time>2021-04-01T09:24:13.031Z</time>
      </trkpt>
      <trkpt lat="43.1349694" lon="-2.7940241">
        <ele>151.602</ele>
        <time>2021-04-01T09:24:13.083Z</time>
      </trkpt>
      <trkpt lat="43.1349702" lon="-2.7940262">
        <ele>151.597</ele>
        <time>2021-04-01T09:24:13.135Z</time>
      </trkpt>
      <trkpt lat="43.1349715" lon="-2.7940277">
        <ele>151.593</ele>
        <time>2021-04-01T09:24:13.187Z</time>
      </trkpt>
      <trkpt lat="43.1349722" lon="-2.7940299">
        <ele>151.624</ele>
        <time>2021-04-01T09:24:13.239Z</time>
      </trkpt>
      <trkpt lat="43.1349732" lon="-2.7940315">
        <ele>151.641</ele>
        <time>2021-04-01T09:24:13.291Z</time>
      </trkpt>
      <trkpt lat="43.1349743" lon="-2.7940333">
        <ele>151.64</ele>
        <time>2021-04-01T09:24:13.344Z</time>
      </trkpt>
      <trkpt lat="43.1349751" lon="-2.7940353">
        <ele>151.667</ele>
        <time>2021-04-01T09:24:13.399Z</time>
      </trkpt>
      <trkpt lat="43.1349761" lon="-2.7940369">
        <ele>151.664</ele>
        <time>2021-04-01T09:24:13.454Z</time>
      </trkpt>
      <trkpt lat="43.1349772" lon="-2.7940381">
        <ele>151.626</ele>
        <time>2021-04-01T09:24:13.509Z</time>
      </trkpt>
      <trkpt lat="43.1349778" lon="-2.7940394">
        <ele>151.581</ele>
        <time>2021-04-01T09:24:13.564Z</time>
      </trkpt>
      <trkpt lat="43.1349789" lon="-2.7940409">
        <ele>151.54</ele>
        <time>2021-04-01T09:24:13.619Z</time>
      </trkpt>
      <trkpt lat="43.1349797" lon="-2.7940426">
        <ele>151.535</ele>
        <time>2021-04-01T09:24:13.674Z</time>
      </trkpt>
      <trkpt lat="43.1349804" lon="-2.7940438">
        <ele>151.451</ele>
        <time>2021-04-01T09:24:13.729Z</time>
      </trkpt>
      <trkpt lat="43.1349814" lon="-2.7940455">
        <ele>151.46</ele>
        <time>2021-04-01T09:24:13.784Z</time>
      </trkpt>
      <trkpt lat="43.1349824" lon="-2.7940475">
        <ele>151.486</ele>
        <time>2021-04-01T09:24:13.839Z</time>
      </trkpt>
      <trkpt lat="43.1349834" lon="-2.794049">
        <ele>151.499</ele>
        <time>2021-04-01T09:24:13.894Z</time>
      </trkpt>
      <trkpt lat="43.1349841" lon="-2.7940508">
        <ele>151.498</ele>
        <time>2021-04-01T09:24:13.949Z</time>
      </trkpt>
      <trkpt lat="43.134985" lon="-2.7940525">
        <ele>151.479</ele>
        <time>2021-04-01T09:24:14.004Z</time>
      </trkpt>
      <trkpt lat="43.1349863" lon="-2.7940543">
        <ele>151.485</ele>
        <time>2021-04-01T09:24:14.059Z</time>
      </trkpt>
      <trkpt lat="43.1349872" lon="-2.7940561">
        <ele>151.5</ele>
        <time>2021-04-01T09:24:14.114Z</time>
      </trkpt>
      <trkpt lat="43.1349877" lon="-2.7940579">
        <ele>151.495</ele>
        <time>2021-04-01T09:24:14.169Z</time>
      </trkpt>
      <trkpt lat="43.1349884" lon="-2.7940598">
        <ele>151.48</ele>
        <time>2021-04-01T09:24:14.224Z</time>
      </trkpt>
      <trkpt lat="43.1349896" lon="-2.7940613">
        <ele>151.466</ele>
        <time>2021-04-01T09:24:14.279Z</time>
      </trkpt>
      <trkpt lat="43.1349905" lon="-2.794063">
        <ele>151.46</ele>
        <time>2021-04-01T09:24:14.334Z</time>
      </trkpt>
      <trkpt lat="43.1349916" lon="-2.7940647">
        <ele>151.476</ele>
        <time>2021-04-01T09:24:14.386Z</time>
      </trkpt>
      <trkpt lat="43.1349924" lon="-2.7940667">
        <ele>151.506</ele>
        <time>2021-04-01T09:24:14.438Z</time>
      </trkpt>
      <trkpt lat="43.1349936" lon="-2.7940687">
        <ele>151.533</ele>
        <time>2021-04-01T09:24:14.490Z</time>
      </trkpt>
      <trkpt lat="43.1349947" lon="-2.7940708">
        <ele>151.569</ele>
        <time>2021-04-01T09:24:14.542Z</time>
      </trkpt>
      <trkpt lat="43.1349955" lon="-2.7940726">
        <ele>151.546</ele>
        <time>2021-04-01T09:24:14.594Z</time>
      </trkpt>
      <trkpt lat="43.1349963" lon="-2.7940747">
        <ele>151.578</ele>
        <time>2021-04-01T09:24:14.646Z</time>
      </trkpt>
      <trkpt lat="43.1349972" lon="-2.794077">
        <ele>151.606</ele>
        <time>2021-04-01T09:24:14.698Z</time>
      </trkpt>
      <trkpt lat="43.1349981" lon="-2.7940791">
        <ele>151.643</ele>
        <time>2021-04-01T09:24:14.750Z</time>
      </trkpt>
      <trkpt lat="43.134999" lon="-2.7940814">
        <ele>151.707</ele>
        <time>2021-04-01T09:24:14.802Z</time>
      </trkpt>
      <trkpt lat="43.1349995" lon="-2.7940835">
        <ele>151.744</ele>
        <time>2021-04-01T09:24:14.855Z</time>
      </trkpt>
      <trkpt lat="43.1350001" lon="-2.7940855">
        <ele>151.721</ele>
        <time>2021-04-01T09:24:14.907Z</time>
      </trkpt>
      <trkpt lat="43.1350009" lon="-2.7940876">
        <ele>151.728</ele>
        <time>2021-04-01T09:24:14.959Z</time>
      </trkpt>
      <trkpt lat="43.1350021" lon="-2.7940896">
        <ele>151.769</ele>
        <time>2021-04-01T09:24:15.011Z</time>
      </trkpt>
      <trkpt lat="43.1350029" lon="-2.7940922">
        <ele>151.867</ele>
        <time>2021-04-01T09:24:15.063Z</time>
      </trkpt>
      <trkpt lat="43.1350035" lon="-2.7940946">
        <ele>151.956</ele>
        <time>2021-04-01T09:24:15.115Z</time>
      </trkpt>
      <trkpt lat="43.1350043" lon="-2.7940961">
        <ele>151.916</ele>
        <time>2021-04-01T09:24:15.167Z</time>
      </trkpt>
      <trkpt lat="43.1350049" lon="-2.7940977">
        <ele>151.908</ele>
        <time>2021-04-01T09:24:15.219Z</time>
      </trkpt>
      <trkpt lat="43.1350048" lon="-2.7940996">
        <ele>151.904</ele>
        <time>2021-04-01T09:24:15.271Z</time>
      </trkpt>
      <trkpt lat="43.1350052" lon="-2.7941007">
        <ele>151.812</ele>
        <time>2021-04-01T09:24:15.324Z</time>
      </trkpt>
      <trkpt lat="43.1350061" lon="-2.7941022">
        <ele>151.784</ele>
        <time>2021-04-01T09:24:15.385Z</time>
      </trkpt>
      <trkpt lat="43.1350065" lon="-2.794104">
        <ele>151.792</ele>
        <time>2021-04-01T09:24:15.446Z</time>
      </trkpt>
      <trkpt lat="43.1350072" lon="-2.7941057">
        <ele>151.783</ele>
        <time>2021-04-01T09:24:15.508Z</time>
      </trkpt>
      <trkpt lat="43.135008" lon="-2.7941074">
        <ele>151.772</ele>
        <time>2021-04-01T09:24:15.569Z</time>
      </trkpt>
      <trkpt lat="43.1350088" lon="-2.7941087">
        <ele>151.742</ele>
        <time>2021-04-01T09:24:15.631Z</time>
      </trkpt>
      <trkpt lat="43.1350095" lon="-2.7941102">
        <ele>151.742</ele>
        <time>2021-04-01T09:24:15.692Z</time>
      </trkpt>
      <trkpt lat="43.1350102" lon="-2.7941126">
        <ele>151.817</ele>
        <time>2021-04-01T09:24:15.754Z</time>
      </trkpt>
      <trkpt lat="43.1350111" lon="-2.7941145">
        <ele>151.841</ele>
        <time>2021-04-01T09:24:15.815Z</time>
      </trkpt>
      <trkpt lat="43.135012" lon="-2.7941163">
        <ele>151.866</ele>
        <time>2021-04-01T09:24:15.877Z</time>
      </trkpt>
      <trkpt lat="43.1350129" lon="-2.794118">
        <ele>151.858</ele>
        <time>2021-04-01T09:24:15.938Z</time>
      </trkpt>
      <trkpt lat="43.1350138" lon="-2.7941199">
        <ele>151.875</ele>
        <time>2021-04-01T09:24:16.000Z</time>
      </trkpt>
      <trkpt lat="43.1350146" lon="-2.7941219">
        <ele>151.905</ele>
        <time>2021-04-01T09:24:16.061Z</time>
      </trkpt>
      <trkpt lat="43.1350155" lon="-2.7941239">
        <ele>151.925</ele>
        <time>2021-04-01T09:24:16.123Z</time>
      </trkpt>
      <trkpt lat="43.1350163" lon="-2.7941259">
        <ele>151.986</ele>
        <time>2021-04-01T09:24:16.184Z</time>
      </trkpt>
      <trkpt lat="43.1350172" lon="-2.7941279">
        <ele>151.993</ele>
        <time>2021-04-01T09:24:16.246Z</time>
      </trkpt>
      <trkpt lat="43.1350181" lon="-2.7941299">
        <ele>152.015</ele>
        <time>2021-04-01T09:24:16.307Z</time>
      </trkpt>
      <trkpt lat="43.1350192" lon="-2.7941317">
        <ele>152.011</ele>
        <time>2021-04-01T09:24:16.369Z</time>
      </trkpt>
      <trkpt lat="43.1350198" lon="-2.7941338">
        <ele>152.061</ele>
        <time>2021-04-01T09:24:16.420Z</time>
      </trkpt>
      <trkpt lat="43.1350209" lon="-2.7941354">
        <ele>152.048</ele>
        <time>2021-04-01T09:24:16.472Z</time>
      </trkpt>
      <trkpt lat="43.1350215" lon="-2.7941375">
        <ele>152.075</ele>
        <time>2021-04-01T09:24:16.524Z</time>
      </trkpt>
      <trkpt lat="43.1350225" lon="-2.7941393">
        <ele>152.084</ele>
        <time>2021-04-01T09:24:16.576Z</time>
      </trkpt>
      <trkpt lat="43.1350235" lon="-2.7941411">
        <ele>152.095</ele>
        <time>2021-04-01T09:24:16.628Z</time>
      </trkpt>
      <trkpt lat="43.1350242" lon="-2.7941432">
        <ele>152.093</ele>
        <time>2021-04-01T09:24:16.680Z</time>
      </trkpt>
      <trkpt lat="43.1350253" lon="-2.7941451">
        <ele>152.1</ele>
        <time>2021-04-01T09:24:16.732Z</time>
      </trkpt>
      <trkpt lat="43.1350264" lon="-2.7941471">
        <ele>152.132</ele>
        <time>2021-04-01T09:24:16.784Z</time>
      </trkpt>
      <trkpt lat="43.1350272" lon="-2.7941491">
        <ele>152.146</ele>
        <time>2021-04-01T09:24:16.836Z</time>
      </trkpt>
      <trkpt lat="43.1350283" lon="-2.7941509">
        <ele>152.152</ele>
        <time>2021-04-01T09:24:16.888Z</time>
      </trkpt>
      <trkpt lat="43.1350294" lon="-2.7941525">
        <ele>152.14</ele>
        <time>2021-04-01T09:24:16.940Z</time>
      </trkpt>
      <trkpt lat="43.1350303" lon="-2.7941544">
        <ele>152.144</ele>
        <time>2021-04-01T09:24:16.992Z</time>
      </trkpt>
      <trkpt lat="43.135031" lon="-2.7941565">
        <ele>152.174</ele>
        <time>2021-04-01T09:24:17.044Z</time>
      </trkpt>
      <trkpt lat="43.1350321" lon="-2.7941584">
        <ele>152.201</ele>
        <time>2021-04-01T09:24:17.096Z</time>
      </trkpt>
      <trkpt lat="43.1350333" lon="-2.7941602">
        <ele>152.191</ele>
        <time>2021-04-01T09:24:17.148Z</time>
      </trkpt>
      <trkpt lat="43.1350345" lon="-2.7941622">
        <ele>152.191</ele>
        <time>2021-04-01T09:24:17.200Z</time>
      </trkpt>
      <trkpt lat="43.1350354" lon="-2.7941642">
        <ele>152.211</ele>
        <time>2021-04-01T09:24:17.252Z</time>
      </trkpt>
      <trkpt lat="43.1350358" lon="-2.7941662">
        <ele>152.249</ele>
        <time>2021-04-01T09:24:17.304Z</time>
      </trkpt>
      <trkpt lat="43.1350367" lon="-2.7941679">
        <ele>152.236</ele>
        <time>2021-04-01T09:24:17.359Z</time>
      </trkpt>
      <trkpt lat="43.1350376" lon="-2.7941699">
        <ele>152.224</ele>
        <time>2021-04-01T09:24:17.414Z</time>
      </trkpt>
      <trkpt lat="43.1350386" lon="-2.7941718">
        <ele>152.244</ele>
        <time>2021-04-01T09:24:17.469Z</time>
      </trkpt>
      <trkpt lat="43.1350395" lon="-2.7941736">
        <ele>152.253</ele>
        <time>2021-04-01T09:24:17.524Z</time>
      </trkpt>
      <trkpt lat="43.1350404" lon="-2.7941756">
        <ele>152.253</ele>
        <time>2021-04-01T09:24:17.579Z</time>
      </trkpt>
      <trkpt lat="43.1350414" lon="-2.7941775">
        <ele>152.282</ele>
        <time>2021-04-01T09:24:17.634Z</time>
      </trkpt>
      <trkpt lat="43.1350422" lon="-2.7941793">
        <ele>152.295</ele>
        <time>2021-04-01T09:24:17.689Z</time>
      </trkpt>
      <trkpt lat="43.135043" lon="-2.7941815">
        <ele>152.307</ele>
        <time>2021-04-01T09:24:17.744Z</time>
      </trkpt>
      <trkpt lat="43.1350439" lon="-2.7941833">
        <ele>152.322</ele>
        <time>2021-04-01T09:24:17.799Z</time>
      </trkpt>
      <trkpt lat="43.1350449" lon="-2.794185">
        <ele>152.342</ele>
        <time>2021-04-01T09:24:17.854Z</time>
      </trkpt>
      <trkpt lat="43.1350456" lon="-2.794187">
        <ele>152.339</ele>
        <time>2021-04-01T09:24:17.909Z</time>
      </trkpt>
      <trkpt lat="43.1350466" lon="-2.7941889">
        <ele>152.364</ele>
        <time>2021-04-01T09:24:17.964Z</time>
      </trkpt>
      <trkpt lat="43.1350477" lon="-2.7941909">
        <ele>152.367</ele>
        <time>2021-04-01T09:24:18.019Z</time>
      </trkpt>
      <trkpt lat="43.1350489" lon="-2.7941928">
        <ele>152.383</ele>
        <time>2021-04-01T09:24:18.074Z</time>
      </trkpt>
      <trkpt lat="43.1350497" lon="-2.7941947">
        <ele>152.404</ele>
        <time>2021-04-01T09:24:18.129Z</time>
      </trkpt>
      <trkpt lat="43.1350505" lon="-2.7941966">
        <ele>152.439</ele>
        <time>2021-04-01T09:24:18.184Z</time>
      </trkpt>
      <trkpt lat="43.1350513" lon="-2.7941985">
        <ele>152.446</ele>
        <time>2021-04-01T09:24:18.239Z</time>
      </trkpt>
      <trkpt lat="43.1350522" lon="-2.7942003">
        <ele>152.421</ele>
        <time>2021-04-01T09:24:18.294Z</time>
      </trkpt>
      <trkpt lat="43.1350533" lon="-2.7942023">
        <ele>152.433</ele>
        <time>2021-04-01T09:24:18.349Z</time>
      </trkpt>
      <trkpt lat="43.1350541" lon="-2.7942042">
        <ele>152.444</ele>
        <time>2021-04-01T09:24:18.404Z</time>
      </trkpt>
      <trkpt lat="43.1350548" lon="-2.7942063">
        <ele>152.497</ele>
        <time>2021-04-01T09:24:18.459Z</time>
      </trkpt>
      <trkpt lat="43.1350557" lon="-2.7942081">
        <ele>152.513</ele>
        <time>2021-04-01T09:24:18.514Z</time>
      </trkpt>
      <trkpt lat="43.1350566" lon="-2.7942097">
        <ele>152.478</ele>
        <time>2021-04-01T09:24:18.569Z</time>
      </trkpt>
      <trkpt lat="43.1350577" lon="-2.7942116">
        <ele>152.483</ele>
        <time>2021-04-01T09:24:18.624Z</time>
      </trkpt>
      <trkpt lat="43.1350585" lon="-2.7942135">
        <ele>152.505</ele>
        <time>2021-04-01T09:24:18.679Z</time>
      </trkpt>
      <trkpt lat="43.1350593" lon="-2.7942158">
        <ele>152.569</ele>
        <time>2021-04-01T09:24:18.734Z</time>
      </trkpt>
      <trkpt lat="43.1350602" lon="-2.7942177">
        <ele>152.592</ele>
        <time>2021-04-01T09:24:18.789Z</time>
      </trkpt>
      <trkpt lat="43.1350613" lon="-2.7942194">
        <ele>152.608</ele>
        <time>2021-04-01T09:24:18.844Z</time>
      </trkpt>
      <trkpt lat="43.135062" lon="-2.7942216">
        <ele>152.628</ele>
        <time>2021-04-01T09:24:18.899Z</time>
      </trkpt>
      <trkpt lat="43.1350627" lon="-2.7942238">
        <ele>152.669</ele>
        <time>2021-04-01T09:24:18.954Z</time>
      </trkpt>
      <trkpt lat="43.1350633" lon="-2.7942259">
        <ele>152.711</ele>
        <time>2021-04-01T09:24:19.009Z</time>
      </trkpt>
      <trkpt lat="43.135064" lon="-2.7942278">
        <ele>152.705</ele>
        <time>2021-04-01T09:24:19.064Z</time>
      </trkpt>
      <trkpt lat="43.1350647" lon="-2.7942296">
        <ele>152.695</ele>
        <time>2021-04-01T09:24:19.119Z</time>
      </trkpt>
      <trkpt lat="43.1350654" lon="-2.7942316">
        <ele>152.735</ele>
        <time>2021-04-01T09:24:19.174Z</time>
      </trkpt>
      <trkpt lat="43.1350662" lon="-2.7942335">
        <ele>152.743</ele>
        <time>2021-04-01T09:24:19.229Z</time>
      </trkpt>
      <trkpt lat="43.1350672" lon="-2.7942354">
        <ele>152.751</ele>
        <time>2021-04-01T09:24:19.284Z</time>
      </trkpt>
      <trkpt lat="43.1350678" lon="-2.7942376">
        <ele>152.789</ele>
        <time>2021-04-01T09:24:19.339Z</time>
      </trkpt>
      <trkpt lat="43.1350689" lon="-2.7942392">
        <ele>152.85</ele>
        <time>2021-04-01T09:24:19.394Z</time>
      </trkpt>
      <trkpt lat="43.1350699" lon="-2.7942412">
        <ele>152.866</ele>
        <time>2021-04-01T09:24:19.449Z</time>
      </trkpt>
      <trkpt lat="43.135071" lon="-2.7942432">
        <ele>152.886</ele>
        <time>2021-04-01T09:24:19.504Z</time>
      </trkpt>
      <trkpt lat="43.1350725" lon="-2.7942444">
        <ele>152.905</ele>
        <time>2021-04-01T09:24:19.559Z</time>
      </trkpt>
      <trkpt lat="43.1350737" lon="-2.7942462">
        <ele>152.94</ele>
        <time>2021-04-01T09:24:19.614Z</time>
      </trkpt>
      <trkpt lat="43.1350747" lon="-2.794248">
        <ele>153.011</ele>
        <time>2021-04-01T09:24:19.669Z</time>
      </trkpt>
      <trkpt lat="43.1350757" lon="-2.7942497">
        <ele>152.981</ele>
        <time>2021-04-01T09:24:19.724Z</time>
      </trkpt>
      <trkpt lat="43.1350768" lon="-2.7942514">
        <ele>152.969</ele>
        <time>2021-04-01T09:24:19.779Z</time>
      </trkpt>
      <trkpt lat="43.1350776" lon="-2.7942533">
        <ele>152.988</ele>
        <time>2021-04-01T09:24:19.834Z</time>
      </trkpt>
      <trkpt lat="43.1350782" lon="-2.7942548">
        <ele>153.003</ele>
        <time>2021-04-01T09:24:19.889Z</time>
      </trkpt>
      <trkpt lat="43.1350791" lon="-2.7942566">
        <ele>152.996</ele>
        <time>2021-04-01T09:24:19.944Z</time>
      </trkpt>
      <trkpt lat="43.1350803" lon="-2.7942582">
        <ele>153.008</ele>
        <time>2021-04-01T09:24:19.999Z</time>
      </trkpt>
      <trkpt lat="43.1350812" lon="-2.79426">
        <ele>153.026</ele>
        <time>2021-04-01T09:24:20.054Z</time>
      </trkpt>
      <trkpt lat="43.1350819" lon="-2.7942622">
        <ele>153.069</ele>
        <time>2021-04-01T09:24:20.109Z</time>
      </trkpt>
      <trkpt lat="43.1350832" lon="-2.794264">
        <ele>153.095</ele>
        <time>2021-04-01T09:24:20.164Z</time>
      </trkpt>
      <trkpt lat="43.1350841" lon="-2.7942657">
        <ele>153.096</ele>
        <time>2021-04-01T09:24:20.219Z</time>
      </trkpt>
      <trkpt lat="43.1350846" lon="-2.7942673">
        <ele>153.09</ele>
        <time>2021-04-01T09:24:20.274Z</time>
      </trkpt>
      <trkpt lat="43.1350854" lon="-2.794269">
        <ele>153.114</ele>
        <time>2021-04-01T09:24:20.329Z</time>
      </trkpt>
      <trkpt lat="43.1350865" lon="-2.7942708">
        <ele>153.156</ele>
        <time>2021-04-01T09:24:20.384Z</time>
      </trkpt>
      <trkpt lat="43.1350876" lon="-2.7942724">
        <ele>153.16</ele>
        <time>2021-04-01T09:24:20.439Z</time>
      </trkpt>
      <trkpt lat="43.1350885" lon="-2.7942742">
        <ele>153.18</ele>
        <time>2021-04-01T09:24:20.494Z</time>
      </trkpt>
      <trkpt lat="43.1350892" lon="-2.7942761">
        <ele>153.218</ele>
        <time>2021-04-01T09:24:20.549Z</time>
      </trkpt>
      <trkpt lat="43.1350896" lon="-2.794278">
        <ele>153.255</ele>
        <time>2021-04-01T09:24:20.604Z</time>
      </trkpt>
      <trkpt lat="43.1350905" lon="-2.7942798">
        <ele>153.259</ele>
        <time>2021-04-01T09:24:20.659Z</time>
      </trkpt>
      <trkpt lat="43.1350916" lon="-2.7942814">
        <ele>153.244</ele>
        <time>2021-04-01T09:24:20.714Z</time>
      </trkpt>
      <trkpt lat="43.1350922" lon="-2.7942832">
        <ele>153.301</ele>
        <time>2021-04-01T09:24:20.769Z</time>
      </trkpt>
      <trkpt lat="43.1350927" lon="-2.7942849">
        <ele>153.332</ele>
        <time>2021-04-01T09:24:20.824Z</time>
      </trkpt>
      <trkpt lat="43.1350939" lon="-2.7942862">
        <ele>153.306</ele>
        <time>2021-04-01T09:24:20.879Z</time>
      </trkpt>
      <trkpt lat="43.1350949" lon="-2.7942878">
        <ele>153.299</ele>
        <time>2021-04-01T09:24:20.934Z</time>
      </trkpt>
      <trkpt lat="43.1350956" lon="-2.794289">
        <ele>153.299</ele>
        <time>2021-04-01T09:24:20.989Z</time>
      </trkpt>
      <trkpt lat="43.1350969" lon="-2.79429">
        <ele>153.275</ele>
        <time>2021-04-01T09:24:21.044Z</time>
      </trkpt>
      <trkpt lat="43.135098" lon="-2.794291">
        <ele>153.234</ele>
        <time>2021-04-01T09:24:21.099Z</time>
      </trkpt>
      <trkpt lat="43.1350991" lon="-2.7942922">
        <ele>153.197</ele>
        <time>2021-04-01T09:24:21.154Z</time>
      </trkpt>
      <trkpt lat="43.1350998" lon="-2.7942937">
        <ele>153.168</ele>
        <time>2021-04-01T09:24:21.209Z</time>
      </trkpt>
      <trkpt lat="43.1351007" lon="-2.7942952">
        <ele>153.158</ele>
        <time>2021-04-01T09:24:21.264Z</time>
      </trkpt>
      <trkpt lat="43.1351016" lon="-2.7942966">
        <ele>153.124</ele>
        <time>2021-04-01T09:24:21.319Z</time>
      </trkpt>
      <trkpt lat="43.1351025" lon="-2.7942981">
        <ele>153.096</ele>
        <time>2021-04-01T09:24:21.374Z</time>
      </trkpt>
      <trkpt lat="43.1351037" lon="-2.7942994">
        <ele>153.09</ele>
        <time>2021-04-01T09:24:21.429Z</time>
      </trkpt>
      <trkpt lat="43.1351046" lon="-2.7943009">
        <ele>153.075</ele>
        <time>2021-04-01T09:24:21.484Z</time>
      </trkpt>
      <trkpt lat="43.1351055" lon="-2.7943024">
        <ele>153.056</ele>
        <time>2021-04-01T09:24:21.539Z</time>
      </trkpt>
      <trkpt lat="43.1351065" lon="-2.7943038">
        <ele>153.035</ele>
        <time>2021-04-01T09:24:21.594Z</time>
      </trkpt>
      <trkpt lat="43.1351076" lon="-2.7943053">
        <ele>153.024</ele>
        <time>2021-04-01T09:24:21.649Z</time>
      </trkpt>
      <trkpt lat="43.1351086" lon="-2.7943068">
        <ele>153.01</ele>
        <time>2021-04-01T09:24:21.704Z</time>
      </trkpt>
      <trkpt lat="43.1351094" lon="-2.794308">
        <ele>152.996</ele>
        <time>2021-04-01T09:24:21.759Z</time>
      </trkpt>
      <trkpt lat="43.1351103" lon="-2.7943094">
        <ele>152.94</ele>
        <time>2021-04-01T09:24:21.814Z</time>
      </trkpt>
      <trkpt lat="43.1351115" lon="-2.7943108">
        <ele>152.925</ele>
        <time>2021-04-01T09:24:21.869Z</time>
      </trkpt>
      <trkpt lat="43.1351125" lon="-2.7943124">
        <ele>152.938</ele>
        <time>2021-04-01T09:24:21.924Z</time>
      </trkpt>
      <trkpt lat="43.1351132" lon="-2.7943145">
        <ele>152.962</ele>
        <time>2021-04-01T09:24:21.979Z</time>
      </trkpt>
      <trkpt lat="43.1351137" lon="-2.7943169">
        <ele>152.949</ele>
        <time>2021-04-01T09:24:22.034Z</time>
      </trkpt>
      <trkpt lat="43.1351145" lon="-2.7943185">
        <ele>152.947</ele>
        <time>2021-04-01T09:24:22.089Z</time>
      </trkpt>
      <trkpt lat="43.1351153" lon="-2.7943204">
        <ele>152.983</ele>
        <time>2021-04-01T09:24:22.144Z</time>
      </trkpt>
      <trkpt lat="43.1351163" lon="-2.7943225">
        <ele>153.037</ele>
        <time>2021-04-01T09:24:22.199Z</time>
      </trkpt>
      <trkpt lat="43.1351175" lon="-2.794324">
        <ele>153.034</ele>
        <time>2021-04-01T09:24:22.254Z</time>
      </trkpt>
      <trkpt lat="43.135119" lon="-2.7943254">
        <ele>153.038</ele>
        <time>2021-04-01T09:24:22.309Z</time>
      </trkpt>
      <trkpt lat="43.1351198" lon="-2.7943274">
        <ele>153.069</ele>
        <time>2021-04-01T09:24:22.364Z</time>
      </trkpt>
      <trkpt lat="43.1351203" lon="-2.7943296">
        <ele>153.078</ele>
        <time>2021-04-01T09:24:22.419Z</time>
      </trkpt>
      <trkpt lat="43.1351214" lon="-2.7943315">
        <ele>153.108</ele>
        <time>2021-04-01T09:24:22.474Z</time>
      </trkpt>
      <trkpt lat="43.1351221" lon="-2.7943335">
        <ele>153.16</ele>
        <time>2021-04-01T09:24:22.529Z</time>
      </trkpt>
      <trkpt lat="43.1351229" lon="-2.7943356">
        <ele>153.215</ele>
        <time>2021-04-01T09:24:22.584Z</time>
      </trkpt>
      <trkpt lat="43.1351238" lon="-2.7943375">
        <ele>153.23</ele>
        <time>2021-04-01T09:24:22.639Z</time>
      </trkpt>
      <trkpt lat="43.1351248" lon="-2.7943394">
        <ele>153.231</ele>
        <time>2021-04-01T09:24:22.694Z</time>
      </trkpt>
      <trkpt lat="43.1351256" lon="-2.7943412">
        <ele>153.221</ele>
        <time>2021-04-01T09:24:22.749Z</time>
      </trkpt>
      <trkpt lat="43.1351264" lon="-2.7943433">
        <ele>153.27</ele>
        <time>2021-04-01T09:24:22.804Z</time>
      </trkpt>
      <trkpt lat="43.1351273" lon="-2.7943453">
        <ele>153.3</ele>
        <time>2021-04-01T09:24:22.859Z</time>
      </trkpt>
      <trkpt lat="43.1351284" lon="-2.7943471">
        <ele>153.311</ele>
        <time>2021-04-01T09:24:22.914Z</time>
      </trkpt>
      <trkpt lat="43.1351294" lon="-2.7943491">
        <ele>153.362</ele>
        <time>2021-04-01T09:24:22.969Z</time>
      </trkpt>
      <trkpt lat="43.1351302" lon="-2.7943511">
        <ele>153.382</ele>
        <time>2021-04-01T09:24:23.024Z</time>
      </trkpt>
      <trkpt lat="43.1351311" lon="-2.7943531">
        <ele>153.412</ele>
        <time>2021-04-01T09:24:23.079Z</time>
      </trkpt>
      <trkpt lat="43.1351318" lon="-2.7943552">
        <ele>153.478</ele>
        <time>2021-04-01T09:24:23.134Z</time>
      </trkpt>
      <trkpt lat="43.135133" lon="-2.7943568">
        <ele>153.495</ele>
        <time>2021-04-01T09:24:23.189Z</time>
      </trkpt>
      <trkpt lat="43.1351336" lon="-2.7943586">
        <ele>153.484</ele>
        <time>2021-04-01T09:24:23.244Z</time>
      </trkpt>
      <trkpt lat="43.1351345" lon="-2.7943605">
        <ele>153.487</ele>
        <time>2021-04-01T09:24:23.299Z</time>
      </trkpt>
      <trkpt lat="43.1351355" lon="-2.7943622">
        <ele>153.511</ele>
        <time>2021-04-01T09:24:23.354Z</time>
      </trkpt>
      <trkpt lat="43.1351366" lon="-2.794364">
        <ele>153.543</ele>
        <time>2021-04-01T09:24:23.409Z</time>
      </trkpt>
      <trkpt lat="43.1351376" lon="-2.7943657">
        <ele>153.592</ele>
        <time>2021-04-01T09:24:23.464Z</time>
      </trkpt>
      <trkpt lat="43.1351383" lon="-2.7943676">
        <ele>153.655</ele>
        <time>2021-04-01T09:24:23.519Z</time>
      </trkpt>
      <trkpt lat="43.135139" lon="-2.7943694">
        <ele>153.62</ele>
        <time>2021-04-01T09:24:23.574Z</time>
      </trkpt>
      <trkpt lat="43.1351399" lon="-2.7943711">
        <ele>153.609</ele>
        <time>2021-04-01T09:24:23.629Z</time>
      </trkpt>
      <trkpt lat="43.1351409" lon="-2.7943727">
        <ele>153.604</ele>
        <time>2021-04-01T09:24:23.684Z</time>
      </trkpt>
      <trkpt lat="43.1351415" lon="-2.7943746">
        <ele>153.652</ele>
        <time>2021-04-01T09:24:23.739Z</time>
      </trkpt>
      <trkpt lat="43.1351425" lon="-2.7943762">
        <ele>153.674</ele>
        <time>2021-04-01T09:24:23.794Z</time>
      </trkpt>
      <trkpt lat="43.1351438" lon="-2.7943777">
        <ele>153.69</ele>
        <time>2021-04-01T09:24:23.849Z</time>
      </trkpt>
      <trkpt lat="43.1351447" lon="-2.7943795">
        <ele>153.728</ele>
        <time>2021-04-01T09:24:23.904Z</time>
      </trkpt>
      <trkpt lat="43.1351453" lon="-2.7943814">
        <ele>153.735</ele>
        <time>2021-04-01T09:24:23.959Z</time>
      </trkpt>
      <trkpt lat="43.135146" lon="-2.7943834">
        <ele>153.797</ele>
        <time>2021-04-01T09:24:24.014Z</time>
      </trkpt>
      <trkpt lat="43.1351467" lon="-2.7943853">
        <ele>153.832</ele>
        <time>2021-04-01T09:24:24.069Z</time>
      </trkpt>
      <trkpt lat="43.1351475" lon="-2.7943872">
        <ele>153.833</ele>
        <time>2021-04-01T09:24:24.124Z</time>
      </trkpt>
      <trkpt lat="43.1351483" lon="-2.7943891">
        <ele>153.854</ele>
        <time>2021-04-01T09:24:24.179Z</time>
      </trkpt>
      <trkpt lat="43.1351492" lon="-2.7943908">
        <ele>153.896</ele>
        <time>2021-04-01T09:24:24.234Z</time>
      </trkpt>
      <trkpt lat="43.1351498" lon="-2.7943932">
        <ele>153.945</ele>
        <time>2021-04-01T09:24:24.289Z</time>
      </trkpt>
      <trkpt lat="43.1351504" lon="-2.7943953">
        <ele>153.987</ele>
        <time>2021-04-01T09:24:24.344Z</time>
      </trkpt>
      <trkpt lat="43.1351506" lon="-2.7943975">
        <ele>153.984</ele>
        <time>2021-04-01T09:24:24.402Z</time>
      </trkpt>
      <trkpt lat="43.1351513" lon="-2.7943994">
        <ele>153.978</ele>
        <time>2021-04-01T09:24:24.460Z</time>
      </trkpt>
      <trkpt lat="43.1351518" lon="-2.7944015">
        <ele>154.001</ele>
        <time>2021-04-01T09:24:24.518Z</time>
      </trkpt>
      <trkpt lat="43.1351526" lon="-2.7944034">
        <ele>154.003</ele>
        <time>2021-04-01T09:24:24.576Z</time>
      </trkpt>
      <trkpt lat="43.1351534" lon="-2.7944054">
        <ele>154.004</ele>
        <time>2021-04-01T09:24:24.634Z</time>
      </trkpt>
      <trkpt lat="43.1351541" lon="-2.7944073">
        <ele>154.003</ele>
        <time>2021-04-01T09:24:24.692Z</time>
      </trkpt>
      <trkpt lat="43.1351548" lon="-2.7944091">
        <ele>154.022</ele>
        <time>2021-04-01T09:24:24.750Z</time>
      </trkpt>
      <trkpt lat="43.1351559" lon="-2.7944107">
        <ele>154.029</ele>
        <time>2021-04-01T09:24:24.808Z</time>
      </trkpt>
      <trkpt lat="43.1351569" lon="-2.7944125">
        <ele>154.043</ele>
        <time>2021-04-01T09:24:24.866Z</time>
      </trkpt>
      <trkpt lat="43.1351575" lon="-2.7944145">
        <ele>154.055</ele>
        <time>2021-04-01T09:24:24.924Z</time>
      </trkpt>
      <trkpt lat="43.1351586" lon="-2.7944163">
        <ele>154.1</ele>
        <time>2021-04-01T09:24:24.982Z</time>
      </trkpt>
      <trkpt lat="43.1351596" lon="-2.7944178">
        <ele>154.101</ele>
        <time>2021-04-01T09:24:25.040Z</time>
      </trkpt>
      <trkpt lat="43.1351608" lon="-2.7944196">
        <ele>154.123</ele>
        <time>2021-04-01T09:24:25.098Z</time>
      </trkpt>
      <trkpt lat="43.1351615" lon="-2.7944218">
        <ele>154.161</ele>
        <time>2021-04-01T09:24:25.156Z</time>
      </trkpt>
      <trkpt lat="43.1351623" lon="-2.7944237">
        <ele>154.173</ele>
        <time>2021-04-01T09:24:25.214Z</time>
      </trkpt>
      <trkpt lat="43.1351636" lon="-2.7944254">
        <ele>154.194</ele>
        <time>2021-04-01T09:24:25.272Z</time>
      </trkpt>
      <trkpt lat="43.1351646" lon="-2.7944271">
        <ele>154.221</ele>
        <time>2021-04-01T09:24:25.330Z</time>
      </trkpt>
      <trkpt lat="43.1351656" lon="-2.794429">
        <ele>154.207</ele>
        <time>2021-04-01T09:24:25.389Z</time>
      </trkpt>
      <trkpt lat="43.1351665" lon="-2.794431">
        <ele>154.201</ele>
        <time>2021-04-01T09:24:25.440Z</time>
      </trkpt>
      <trkpt lat="43.1351677" lon="-2.7944327">
        <ele>154.222</ele>
        <time>2021-04-01T09:24:25.492Z</time>
      </trkpt>
      <trkpt lat="43.1351685" lon="-2.7944344">
        <ele>154.217</ele>
        <time>2021-04-01T09:24:25.544Z</time>
      </trkpt>
      <trkpt lat="43.1351694" lon="-2.7944363">
        <ele>154.209</ele>
        <time>2021-04-01T09:24:25.596Z</time>
      </trkpt>
      <trkpt lat="43.13517" lon="-2.7944383">
        <ele>154.247</ele>
        <time>2021-04-01T09:24:25.648Z</time>
      </trkpt>
      <trkpt lat="43.1351708" lon="-2.7944404">
        <ele>154.245</ele>
        <time>2021-04-01T09:24:25.700Z</time>
      </trkpt>
      <trkpt lat="43.1351717" lon="-2.7944425">
        <ele>154.264</ele>
        <time>2021-04-01T09:24:25.752Z</time>
      </trkpt>
      <trkpt lat="43.1351722" lon="-2.7944446">
        <ele>154.302</ele>
        <time>2021-04-01T09:24:25.804Z</time>
      </trkpt>
      <trkpt lat="43.1351731" lon="-2.7944465">
        <ele>154.312</ele>
        <time>2021-04-01T09:24:25.856Z</time>
      </trkpt>
      <trkpt lat="43.1351736" lon="-2.7944487">
        <ele>154.304</ele>
        <time>2021-04-01T09:24:25.908Z</time>
      </trkpt>
      <trkpt lat="43.1351746" lon="-2.7944507">
        <ele>154.291</ele>
        <time>2021-04-01T09:24:25.960Z</time>
      </trkpt>
      <trkpt lat="43.135176" lon="-2.7944522">
        <ele>154.307</ele>
        <time>2021-04-01T09:24:26.012Z</time>
      </trkpt>
      <trkpt lat="43.1351775" lon="-2.7944533">
        <ele>154.343</ele>
        <time>2021-04-01T09:24:26.064Z</time>
      </trkpt>
      <trkpt lat="43.1351781" lon="-2.7944553">
        <ele>154.356</ele>
        <time>2021-04-01T09:24:26.116Z</time>
      </trkpt>
      <trkpt lat="43.1351785" lon="-2.7944576">
        <ele>154.372</ele>
        <time>2021-04-01T09:24:26.168Z</time>
      </trkpt>
      <trkpt lat="43.1351793" lon="-2.7944593">
        <ele>154.346</ele>
        <time>2021-04-01T09:24:26.220Z</time>
      </trkpt>
      <trkpt lat="43.1351799" lon="-2.794461">
        <ele>154.341</ele>
        <time>2021-04-01T09:24:26.272Z</time>
      </trkpt>
      <trkpt lat="43.135181" lon="-2.7944634">
        <ele>154.379</ele>
        <time>2021-04-01T09:24:26.324Z</time>
      </trkpt>
      <trkpt lat="43.1351821" lon="-2.7944655">
        <ele>154.43</ele>
        <time>2021-04-01T09:24:26.379Z</time>
      </trkpt>
      <trkpt lat="43.1351828" lon="-2.7944675">
        <ele>154.482</ele>
        <time>2021-04-01T09:24:26.434Z</time>
      </trkpt>
      <trkpt lat="43.1351833" lon="-2.7944695">
        <ele>154.484</ele>
        <time>2021-04-01T09:24:26.489Z</time>
      </trkpt>
      <trkpt lat="43.1351841" lon="-2.7944717">
        <ele>154.496</ele>
        <time>2021-04-01T09:24:26.544Z</time>
      </trkpt>
      <trkpt lat="43.135185" lon="-2.7944738">
        <ele>154.543</ele>
        <time>2021-04-01T09:24:26.599Z</time>
      </trkpt>
      <trkpt lat="43.1351862" lon="-2.7944754">
        <ele>154.574</ele>
        <time>2021-04-01T09:24:26.654Z</time>
      </trkpt>
      <trkpt lat="43.1351874" lon="-2.7944772">
        <ele>154.6</ele>
        <time>2021-04-01T09:24:26.709Z</time>
      </trkpt>
      <trkpt lat="43.1351887" lon="-2.7944788">
        <ele>154.604</ele>
        <time>2021-04-01T09:24:26.764Z</time>
      </trkpt>
      <trkpt lat="43.1351899" lon="-2.7944805">
        <ele>154.625</ele>
        <time>2021-04-01T09:24:26.819Z</time>
      </trkpt>
      <trkpt lat="43.1351908" lon="-2.7944821">
        <ele>154.62</ele>
        <time>2021-04-01T09:24:26.874Z</time>
      </trkpt>
      <trkpt lat="43.135192" lon="-2.7944836">
        <ele>154.639</ele>
        <time>2021-04-01T09:24:26.929Z</time>
      </trkpt>
      <trkpt lat="43.1351929" lon="-2.7944857">
        <ele>154.681</ele>
        <time>2021-04-01T09:24:26.984Z</time>
      </trkpt>
      <trkpt lat="43.1351939" lon="-2.7944874">
        <ele>154.666</ele>
        <time>2021-04-01T09:24:27.039Z</time>
      </trkpt>
      <trkpt lat="43.135195" lon="-2.794489">
        <ele>154.644</ele>
        <time>2021-04-01T09:24:27.094Z</time>
      </trkpt>
      <trkpt lat="43.1351963" lon="-2.7944907">
        <ele>154.633</ele>
        <time>2021-04-01T09:24:27.149Z</time>
      </trkpt>
      <trkpt lat="43.1351972" lon="-2.7944923">
        <ele>154.642</ele>
        <time>2021-04-01T09:24:27.204Z</time>
      </trkpt>
      <trkpt lat="43.1351978" lon="-2.7944942">
        <ele>154.628</ele>
        <time>2021-04-01T09:24:27.259Z</time>
      </trkpt>
      <trkpt lat="43.1351985" lon="-2.7944956">
        <ele>154.603</ele>
        <time>2021-04-01T09:24:27.314Z</time>
      </trkpt>
      <trkpt lat="43.1351991" lon="-2.7944973">
        <ele>154.573</ele>
        <time>2021-04-01T09:24:27.369Z</time>
      </trkpt>
      <trkpt lat="43.1351999" lon="-2.7944985">
        <ele>154.52</ele>
        <time>2021-04-01T09:24:27.424Z</time>
      </trkpt>
      <trkpt lat="43.1352008" lon="-2.7944997">
        <ele>154.454</ele>
        <time>2021-04-01T09:24:27.479Z</time>
      </trkpt>
      <trkpt lat="43.1352014" lon="-2.794501">
        <ele>154.42</ele>
        <time>2021-04-01T09:24:27.534Z</time>
      </trkpt>
      <trkpt lat="43.1352027" lon="-2.7945025">
        <ele>154.4</ele>
        <time>2021-04-01T09:24:27.589Z</time>
      </trkpt>
      <trkpt lat="43.1352042" lon="-2.7945038">
        <ele>154.402</ele>
        <time>2021-04-01T09:24:27.644Z</time>
      </trkpt>
      <trkpt lat="43.1352054" lon="-2.7945055">
        <ele>154.396</ele>
        <time>2021-04-01T09:24:27.699Z</time>
      </trkpt>
      <trkpt lat="43.1352064" lon="-2.7945069">
        <ele>154.358</ele>
        <time>2021-04-01T09:24:27.754Z</time>
      </trkpt>
      <trkpt lat="43.1352073" lon="-2.7945085">
        <ele>154.335</ele>
        <time>2021-04-01T09:24:27.809Z</time>
      </trkpt>
      <trkpt lat="43.1352083" lon="-2.7945101">
        <ele>154.298</ele>
        <time>2021-04-01T09:24:27.864Z</time>
      </trkpt>
      <trkpt lat="43.1352088" lon="-2.7945121">
        <ele>154.245</ele>
        <time>2021-04-01T09:24:27.919Z</time>
      </trkpt>
      <trkpt lat="43.1352092" lon="-2.7945138">
        <ele>154.196</ele>
        <time>2021-04-01T09:24:27.974Z</time>
      </trkpt>
      <trkpt lat="43.1352101" lon="-2.7945152">
        <ele>154.138</ele>
        <time>2021-04-01T09:24:28.029Z</time>
      </trkpt>
      <trkpt lat="43.1352109" lon="-2.7945166">
        <ele>154.099</ele>
        <time>2021-04-01T09:24:28.084Z</time>
      </trkpt>
      <trkpt lat="43.1352114" lon="-2.7945181">
        <ele>154.047</ele>
        <time>2021-04-01T09:24:28.139Z</time>
      </trkpt>
      <trkpt lat="43.1352121" lon="-2.7945195">
        <ele>154</ele>
        <time>2021-04-01T09:24:28.194Z</time>
      </trkpt>
      <trkpt lat="43.1352131" lon="-2.794521">
        <ele>153.951</ele>
        <time>2021-04-01T09:24:28.249Z</time>
      </trkpt>
      <trkpt lat="43.1352135" lon="-2.7945223">
        <ele>153.905</ele>
        <time>2021-04-01T09:24:28.304Z</time>
      </trkpt>
      <trkpt lat="43.1352137" lon="-2.7945238">
        <ele>153.82</ele>
        <time>2021-04-01T09:24:28.359Z</time>
      </trkpt>
      <trkpt lat="43.1352148" lon="-2.7945253">
        <ele>153.78</ele>
        <time>2021-04-01T09:24:28.414Z</time>
      </trkpt>
      <trkpt lat="43.1352155" lon="-2.7945272">
        <ele>153.759</ele>
        <time>2021-04-01T09:24:28.469Z</time>
      </trkpt>
      <trkpt lat="43.1352165" lon="-2.7945288">
        <ele>153.715</ele>
        <time>2021-04-01T09:24:28.524Z</time>
      </trkpt>
      <trkpt lat="43.1352169" lon="-2.7945305">
        <ele>153.701</ele>
        <time>2021-04-01T09:24:28.579Z</time>
      </trkpt>
      <trkpt lat="43.1352177" lon="-2.7945323">
        <ele>153.71</ele>
        <time>2021-04-01T09:24:28.634Z</time>
      </trkpt>
      <trkpt lat="43.1352179" lon="-2.794535">
        <ele>153.749</ele>
        <time>2021-04-01T09:24:28.689Z</time>
      </trkpt>
      <trkpt lat="43.1352192" lon="-2.7945371">
        <ele>153.741</ele>
        <time>2021-04-01T09:24:28.744Z</time>
      </trkpt>
      <trkpt lat="43.1352201" lon="-2.7945389">
        <ele>153.75</ele>
        <time>2021-04-01T09:24:28.799Z</time>
      </trkpt>
      <trkpt lat="43.1352209" lon="-2.7945411">
        <ele>153.773</ele>
        <time>2021-04-01T09:24:28.854Z</time>
      </trkpt>
      <trkpt lat="43.1352217" lon="-2.7945434">
        <ele>153.822</ele>
        <time>2021-04-01T09:24:28.909Z</time>
      </trkpt>
      <trkpt lat="43.1352227" lon="-2.7945451">
        <ele>153.821</ele>
        <time>2021-04-01T09:24:28.964Z</time>
      </trkpt>
      <trkpt lat="43.1352234" lon="-2.7945471">
        <ele>153.829</ele>
        <time>2021-04-01T09:24:29.019Z</time>
      </trkpt>
      <trkpt lat="43.1352248" lon="-2.7945492">
        <ele>153.89</ele>
        <time>2021-04-01T09:24:29.074Z</time>
      </trkpt>
      <trkpt lat="43.1352259" lon="-2.7945514">
        <ele>153.962</ele>
        <time>2021-04-01T09:24:29.129Z</time>
      </trkpt>
      <trkpt lat="43.1352268" lon="-2.7945534">
        <ele>153.979</ele>
        <time>2021-04-01T09:24:29.184Z</time>
      </trkpt>
      <trkpt lat="43.1352279" lon="-2.7945557">
        <ele>154.045</ele>
        <time>2021-04-01T09:24:29.239Z</time>
      </trkpt>
      <trkpt lat="43.1352292" lon="-2.7945575">
        <ele>154.072</ele>
        <time>2021-04-01T09:24:29.294Z</time>
      </trkpt>
      <trkpt lat="43.135231" lon="-2.7945593">
        <ele>154.083</ele>
        <time>2021-04-01T09:24:29.349Z</time>
      </trkpt>
      <trkpt lat="43.135232" lon="-2.7945613">
        <ele>154.103</ele>
        <time>2021-04-01T09:24:29.401Z</time>
      </trkpt>
      <trkpt lat="43.135233" lon="-2.7945629">
        <ele>154.134</ele>
        <time>2021-04-01T09:24:29.453Z</time>
      </trkpt>
      <trkpt lat="43.1352344" lon="-2.7945645">
        <ele>154.158</ele>
        <time>2021-04-01T09:24:29.505Z</time>
      </trkpt>
      <trkpt lat="43.1352356" lon="-2.794566">
        <ele>154.125</ele>
        <time>2021-04-01T09:24:29.557Z</time>
      </trkpt>
      <trkpt lat="43.1352367" lon="-2.7945679">
        <ele>154.158</ele>
        <time>2021-04-01T09:24:29.609Z</time>
      </trkpt>
      <trkpt lat="43.1352379" lon="-2.7945701">
        <ele>154.2</ele>
        <time>2021-04-01T09:24:29.661Z</time>
      </trkpt>
      <trkpt lat="43.1352391" lon="-2.7945722">
        <ele>154.262</ele>
        <time>2021-04-01T09:24:29.713Z</time>
      </trkpt>
      <trkpt lat="43.1352404" lon="-2.7945737">
        <ele>154.24</ele>
        <time>2021-04-01T09:24:29.765Z</time>
      </trkpt>
      <trkpt lat="43.1352414" lon="-2.7945756">
        <ele>154.21</ele>
        <time>2021-04-01T09:24:29.817Z</time>
      </trkpt>
      <trkpt lat="43.1352424" lon="-2.7945775">
        <ele>154.21</ele>
        <time>2021-04-01T09:24:29.870Z</time>
      </trkpt>
      <trkpt lat="43.1352434" lon="-2.7945796">
        <ele>154.275</ele>
        <time>2021-04-01T09:24:29.922Z</time>
      </trkpt>
      <trkpt lat="43.1352448" lon="-2.7945813">
        <ele>154.279</ele>
        <time>2021-04-01T09:24:29.974Z</time>
      </trkpt>
      <trkpt lat="43.1352458" lon="-2.7945831">
        <ele>154.321</ele>
        <time>2021-04-01T09:24:30.026Z</time>
      </trkpt>
      <trkpt lat="43.1352467" lon="-2.794585">
        <ele>154.339</ele>
        <time>2021-04-01T09:24:30.078Z</time>
      </trkpt>
      <trkpt lat="43.1352477" lon="-2.794587">
        <ele>154.36</ele>
        <time>2021-04-01T09:24:30.130Z</time>
      </trkpt>
      <trkpt lat="43.1352489" lon="-2.794589">
        <ele>154.351</ele>
        <time>2021-04-01T09:24:30.182Z</time>
      </trkpt>
      <trkpt lat="43.13525" lon="-2.7945908">
        <ele>154.382</ele>
        <time>2021-04-01T09:24:30.234Z</time>
      </trkpt>
      <trkpt lat="43.135251" lon="-2.7945927">
        <ele>154.396</ele>
        <time>2021-04-01T09:24:30.286Z</time>
      </trkpt>
      <trkpt lat="43.1352516" lon="-2.794595">
        <ele>154.39</ele>
        <time>2021-04-01T09:24:30.339Z</time>
      </trkpt>
      <trkpt lat="43.1352527" lon="-2.7945968">
        <ele>154.368</ele>
        <time>2021-04-01T09:24:30.400Z</time>
      </trkpt>
      <trkpt lat="43.1352536" lon="-2.7945985">
        <ele>154.372</ele>
        <time>2021-04-01T09:24:30.461Z</time>
      </trkpt>
      <trkpt lat="43.1352549" lon="-2.7946001">
        <ele>154.41</ele>
        <time>2021-04-01T09:24:30.523Z</time>
      </trkpt>
      <trkpt lat="43.1352557" lon="-2.7946026">
        <ele>154.413</ele>
        <time>2021-04-01T09:24:30.584Z</time>
      </trkpt>
      <trkpt lat="43.1352566" lon="-2.7946044">
        <ele>154.46</ele>
        <time>2021-04-01T09:24:30.646Z</time>
      </trkpt>
      <trkpt lat="43.1352577" lon="-2.7946062">
        <ele>154.453</ele>
        <time>2021-04-01T09:24:30.707Z</time>
      </trkpt>
      <trkpt lat="43.1352589" lon="-2.7946079">
        <ele>154.454</ele>
        <time>2021-04-01T09:24:30.769Z</time>
      </trkpt>
      <trkpt lat="43.1352593" lon="-2.7946101">
        <ele>154.491</ele>
        <time>2021-04-01T09:24:30.830Z</time>
      </trkpt>
      <trkpt lat="43.1352602" lon="-2.7946116">
        <ele>154.478</ele>
        <time>2021-04-01T09:24:30.892Z</time>
      </trkpt>
      <trkpt lat="43.1352613" lon="-2.7946138">
        <ele>154.474</ele>
        <time>2021-04-01T09:24:30.953Z</time>
      </trkpt>
      <trkpt lat="43.1352621" lon="-2.7946157">
        <ele>154.487</ele>
        <time>2021-04-01T09:24:31.015Z</time>
      </trkpt>
      <trkpt lat="43.1352635" lon="-2.7946175">
        <ele>154.498</ele>
        <time>2021-04-01T09:24:31.076Z</time>
      </trkpt>
      <trkpt lat="43.1352643" lon="-2.7946196">
        <ele>154.51</ele>
        <time>2021-04-01T09:24:31.138Z</time>
      </trkpt>
      <trkpt lat="43.1352651" lon="-2.7946214">
        <ele>154.523</ele>
        <time>2021-04-01T09:24:31.199Z</time>
      </trkpt>
      <trkpt lat="43.1352658" lon="-2.794623">
        <ele>154.51</ele>
        <time>2021-04-01T09:24:31.261Z</time>
      </trkpt>
      <trkpt lat="43.1352669" lon="-2.7946247">
        <ele>154.474</ele>
        <time>2021-04-01T09:24:31.322Z</time>
      </trkpt>
      <trkpt lat="43.1352678" lon="-2.7946265">
        <ele>154.483</ele>
        <time>2021-04-01T09:24:31.384Z</time>
      </trkpt>
      <trkpt lat="43.1352687" lon="-2.7946285">
        <ele>154.499</ele>
        <time>2021-04-01T09:24:31.433Z</time>
      </trkpt>
      <trkpt lat="43.1352699" lon="-2.7946302">
        <ele>154.518</ele>
        <time>2021-04-01T09:24:31.482Z</time>
      </trkpt>
      <trkpt lat="43.1352709" lon="-2.794632">
        <ele>154.531</ele>
        <time>2021-04-01T09:24:31.531Z</time>
      </trkpt>
      <trkpt lat="43.1352716" lon="-2.7946339">
        <ele>154.591</ele>
        <time>2021-04-01T09:24:31.580Z</time>
      </trkpt>
      <trkpt lat="43.1352728" lon="-2.7946355">
        <ele>154.598</ele>
        <time>2021-04-01T09:24:31.630Z</time>
      </trkpt>
      <trkpt lat="43.1352735" lon="-2.7946372">
        <ele>154.597</ele>
        <time>2021-04-01T09:24:31.679Z</time>
      </trkpt>
      <trkpt lat="43.1352742" lon="-2.7946394">
        <ele>154.583</ele>
        <time>2021-04-01T09:24:31.728Z</time>
      </trkpt>
      <trkpt lat="43.1352753" lon="-2.7946406">
        <ele>154.537</ele>
        <time>2021-04-01T09:24:31.777Z</time>
      </trkpt>
      <trkpt lat="43.1352763" lon="-2.7946426">
        <ele>154.574</ele>
        <time>2021-04-01T09:24:31.826Z</time>
      </trkpt>
      <trkpt lat="43.1352773" lon="-2.7946445">
        <ele>154.584</ele>
        <time>2021-04-01T09:24:31.876Z</time>
      </trkpt>
      <trkpt lat="43.1352784" lon="-2.7946466">
        <ele>154.624</ele>
        <time>2021-04-01T09:24:31.925Z</time>
      </trkpt>
      <trkpt lat="43.1352792" lon="-2.7946489">
        <ele>154.649</ele>
        <time>2021-04-01T09:24:31.974Z</time>
      </trkpt>
      <trkpt lat="43.1352802" lon="-2.7946504">
        <ele>154.624</ele>
        <time>2021-04-01T09:24:32.023Z</time>
      </trkpt>
      <trkpt lat="43.1352812" lon="-2.7946521">
        <ele>154.604</ele>
        <time>2021-04-01T09:24:32.072Z</time>
      </trkpt>
      <trkpt lat="43.1352822" lon="-2.7946537">
        <ele>154.646</ele>
        <time>2021-04-01T09:24:32.122Z</time>
      </trkpt>
      <trkpt lat="43.135283" lon="-2.7946557">
        <ele>154.638</ele>
        <time>2021-04-01T09:24:32.171Z</time>
      </trkpt>
      <trkpt lat="43.135284" lon="-2.7946578">
        <ele>154.646</ele>
        <time>2021-04-01T09:24:32.220Z</time>
      </trkpt>
      <trkpt lat="43.1352847" lon="-2.79466">
        <ele>154.677</ele>
        <time>2021-04-01T09:24:32.269Z</time>
      </trkpt>
      <trkpt lat="43.1352855" lon="-2.7946621">
        <ele>154.715</ele>
        <time>2021-04-01T09:24:32.319Z</time>
      </trkpt>
      <trkpt lat="43.1352865" lon="-2.7946642">
        <ele>154.755</ele>
        <time>2021-04-01T09:24:32.377Z</time>
      </trkpt>
      <trkpt lat="43.1352875" lon="-2.7946664">
        <ele>154.809</ele>
        <time>2021-04-01T09:24:32.435Z</time>
      </trkpt>
      <trkpt lat="43.1352882" lon="-2.7946684">
        <ele>154.831</ele>
        <time>2021-04-01T09:24:32.493Z</time>
      </trkpt>
      <trkpt lat="43.1352891" lon="-2.7946699">
        <ele>154.844</ele>
        <time>2021-04-01T09:24:32.551Z</time>
      </trkpt>
      <trkpt lat="43.1352896" lon="-2.7946719">
        <ele>154.855</ele>
        <time>2021-04-01T09:24:32.609Z</time>
      </trkpt>
      <trkpt lat="43.1352904" lon="-2.7946737">
        <ele>154.838</ele>
        <time>2021-04-01T09:24:32.667Z</time>
      </trkpt>
      <trkpt lat="43.1352911" lon="-2.7946752">
        <ele>154.864</ele>
        <time>2021-04-01T09:24:32.725Z</time>
      </trkpt>
      <trkpt lat="43.1352917" lon="-2.7946767">
        <ele>154.837</ele>
        <time>2021-04-01T09:24:32.783Z</time>
      </trkpt>
      <trkpt lat="43.1352925" lon="-2.7946778">
        <ele>154.821</ele>
        <time>2021-04-01T09:24:32.841Z</time>
      </trkpt>
      <trkpt lat="43.1352936" lon="-2.7946795">
        <ele>154.851</ele>
        <time>2021-04-01T09:24:32.899Z</time>
      </trkpt>
      <trkpt lat="43.135295" lon="-2.7946812">
        <ele>154.893</ele>
        <time>2021-04-01T09:24:32.957Z</time>
      </trkpt>
      <trkpt lat="43.1352961" lon="-2.7946827">
        <ele>154.887</ele>
        <time>2021-04-01T09:24:33.015Z</time>
      </trkpt>
      <trkpt lat="43.1352969" lon="-2.7946847">
        <ele>154.93</ele>
        <time>2021-04-01T09:24:33.073Z</time>
      </trkpt>
      <trkpt lat="43.135298" lon="-2.7946862">
        <ele>154.946</ele>
        <time>2021-04-01T09:24:33.131Z</time>
      </trkpt>
      <trkpt lat="43.135299" lon="-2.7946875">
        <ele>154.961</ele>
        <time>2021-04-01T09:24:33.189Z</time>
      </trkpt>
      <trkpt lat="43.1353" lon="-2.7946892">
        <ele>154.964</ele>
        <time>2021-04-01T09:24:33.247Z</time>
      </trkpt>
      <trkpt lat="43.1353009" lon="-2.794691">
        <ele>154.973</ele>
        <time>2021-04-01T09:24:33.305Z</time>
      </trkpt>
      <trkpt lat="43.1353015" lon="-2.7946927">
        <ele>155.005</ele>
        <time>2021-04-01T09:24:33.364Z</time>
      </trkpt>
      <trkpt lat="43.1353024" lon="-2.7946946">
        <ele>155.038</ele>
        <time>2021-04-01T09:24:33.419Z</time>
      </trkpt>
      <trkpt lat="43.1353034" lon="-2.7946963">
        <ele>155.035</ele>
        <time>2021-04-01T09:24:33.474Z</time>
      </trkpt>
      <trkpt lat="43.1353043" lon="-2.7946977">
        <ele>155.034</ele>
        <time>2021-04-01T09:24:33.529Z</time>
      </trkpt>
      <trkpt lat="43.1353053" lon="-2.794699">
        <ele>155.029</ele>
        <time>2021-04-01T09:24:33.584Z</time>
      </trkpt>
      <trkpt lat="43.1353062" lon="-2.7947002">
        <ele>154.978</ele>
        <time>2021-04-01T09:24:33.639Z</time>
      </trkpt>
      <trkpt lat="43.1353069" lon="-2.7947015">
        <ele>154.958</ele>
        <time>2021-04-01T09:24:33.694Z</time>
      </trkpt>
      <trkpt lat="43.1353076" lon="-2.794703">
        <ele>154.945</ele>
        <time>2021-04-01T09:24:33.749Z</time>
      </trkpt>
      <trkpt lat="43.1353083" lon="-2.7947047">
        <ele>154.927</ele>
        <time>2021-04-01T09:24:33.804Z</time>
      </trkpt>
      <trkpt lat="43.1353093" lon="-2.7947062">
        <ele>154.907</ele>
        <time>2021-04-01T09:24:33.859Z</time>
      </trkpt>
      <trkpt lat="43.1353098" lon="-2.7947079">
        <ele>154.93</ele>
        <time>2021-04-01T09:24:33.914Z</time>
      </trkpt>
      <trkpt lat="43.1353106" lon="-2.79471">
        <ele>154.945</ele>
        <time>2021-04-01T09:24:33.969Z</time>
      </trkpt>
      <trkpt lat="43.1353117" lon="-2.7947114">
        <ele>154.923</ele>
        <time>2021-04-01T09:24:34.024Z</time>
      </trkpt>
      <trkpt lat="43.1353126" lon="-2.7947133">
        <ele>154.914</ele>
        <time>2021-04-01T09:24:34.079Z</time>
      </trkpt>
      <trkpt lat="43.1353136" lon="-2.7947152">
        <ele>154.91</ele>
        <time>2021-04-01T09:24:34.134Z</time>
      </trkpt>
      <trkpt lat="43.1353145" lon="-2.794717">
        <ele>154.912</ele>
        <time>2021-04-01T09:24:34.189Z</time>
      </trkpt>
      <trkpt lat="43.1353154" lon="-2.7947187">
        <ele>154.936</ele>
        <time>2021-04-01T09:24:34.244Z</time>
      </trkpt>
      <trkpt lat="43.1353167" lon="-2.7947201">
        <ele>154.934</ele>
        <time>2021-04-01T09:24:34.299Z</time>
      </trkpt>
      <trkpt lat="43.1353177" lon="-2.7947218">
        <ele>154.941</ele>
        <time>2021-04-01T09:24:34.354Z</time>
      </trkpt>
      <trkpt lat="43.1353189" lon="-2.7947233">
        <ele>154.937</ele>
        <time>2021-04-01T09:24:34.409Z</time>
      </trkpt>
      <trkpt lat="43.1353201" lon="-2.7947251">
        <ele>154.99</ele>
        <time>2021-04-01T09:24:34.464Z</time>
      </trkpt>
      <trkpt lat="43.1353216" lon="-2.7947267">
        <ele>155.006</ele>
        <time>2021-04-01T09:24:34.519Z</time>
      </trkpt>
      <trkpt lat="43.1353226" lon="-2.7947283">
        <ele>154.975</ele>
        <time>2021-04-01T09:24:34.574Z</time>
      </trkpt>
      <trkpt lat="43.1353231" lon="-2.7947305">
        <ele>155.029</ele>
        <time>2021-04-01T09:24:34.629Z</time>
      </trkpt>
      <trkpt lat="43.135324" lon="-2.7947325">
        <ele>155.083</ele>
        <time>2021-04-01T09:24:34.684Z</time>
      </trkpt>
      <trkpt lat="43.1353251" lon="-2.7947343">
        <ele>155.087</ele>
        <time>2021-04-01T09:24:34.739Z</time>
      </trkpt>
      <trkpt lat="43.1353262" lon="-2.7947359">
        <ele>155.058</ele>
        <time>2021-04-01T09:24:34.794Z</time>
      </trkpt>
      <trkpt lat="43.1353271" lon="-2.7947378">
        <ele>155.107</ele>
        <time>2021-04-01T09:24:34.849Z</time>
      </trkpt>
      <trkpt lat="43.135328" lon="-2.7947395">
        <ele>155.124</ele>
        <time>2021-04-01T09:24:34.904Z</time>
      </trkpt>
      <trkpt lat="43.1353289" lon="-2.7947414">
        <ele>155.13</ele>
        <time>2021-04-01T09:24:34.959Z</time>
      </trkpt>
      <trkpt lat="43.13533" lon="-2.7947431">
        <ele>155.105</ele>
        <time>2021-04-01T09:24:35.014Z</time>
      </trkpt>
      <trkpt lat="43.135331" lon="-2.7947448">
        <ele>155.104</ele>
        <time>2021-04-01T09:24:35.069Z</time>
      </trkpt>
      <trkpt lat="43.135332" lon="-2.7947464">
        <ele>155.106</ele>
        <time>2021-04-01T09:24:35.124Z</time>
      </trkpt>
      <trkpt lat="43.1353326" lon="-2.7947485">
        <ele>155.159</ele>
        <time>2021-04-01T09:24:35.179Z</time>
      </trkpt>
      <trkpt lat="43.1353334" lon="-2.7947503">
        <ele>155.155</ele>
        <time>2021-04-01T09:24:35.234Z</time>
      </trkpt>
      <trkpt lat="43.1353347" lon="-2.7947517">
        <ele>155.188</ele>
        <time>2021-04-01T09:24:35.289Z</time>
      </trkpt>
      <trkpt lat="43.1353356" lon="-2.7947534">
        <ele>155.192</ele>
        <time>2021-04-01T09:24:35.344Z</time>
      </trkpt>
      <trkpt lat="43.1353367" lon="-2.794755">
        <ele>155.192</ele>
        <time>2021-04-01T09:24:35.399Z</time>
      </trkpt>
      <trkpt lat="43.1353375" lon="-2.7947569">
        <ele>155.221</ele>
        <time>2021-04-01T09:24:35.454Z</time>
      </trkpt>
      <trkpt lat="43.1353384" lon="-2.7947587">
        <ele>155.246</ele>
        <time>2021-04-01T09:24:35.509Z</time>
      </trkpt>
      <trkpt lat="43.1353395" lon="-2.7947605">
        <ele>155.258</ele>
        <time>2021-04-01T09:24:35.564Z</time>
      </trkpt>
      <trkpt lat="43.1353404" lon="-2.7947623">
        <ele>155.301</ele>
        <time>2021-04-01T09:24:35.619Z</time>
      </trkpt>
      <trkpt lat="43.1353413" lon="-2.794764">
        <ele>155.323</ele>
        <time>2021-04-01T09:24:35.674Z</time>
      </trkpt>
      <trkpt lat="43.1353423" lon="-2.7947663">
        <ele>155.445</ele>
        <time>2021-04-01T09:24:35.729Z</time>
      </trkpt>
      <trkpt lat="43.1353433" lon="-2.7947683">
        <ele>155.493</ele>
        <time>2021-04-01T09:24:35.784Z</time>
      </trkpt>
      <trkpt lat="43.1353444" lon="-2.7947701">
        <ele>155.496</ele>
        <time>2021-04-01T09:24:35.839Z</time>
      </trkpt>
      <trkpt lat="43.1353454" lon="-2.7947727">
        <ele>155.644</ele>
        <time>2021-04-01T09:24:35.894Z</time>
      </trkpt>
      <trkpt lat="43.1353464" lon="-2.794774">
        <ele>155.696</ele>
        <time>2021-04-01T09:24:35.949Z</time>
      </trkpt>
      <trkpt lat="43.1353474" lon="-2.7947768">
        <ele>155.796</ele>
        <time>2021-04-01T09:24:36.004Z</time>
      </trkpt>
      <trkpt lat="43.1353482" lon="-2.7947789">
        <ele>155.862</ele>
        <time>2021-04-01T09:24:36.059Z</time>
      </trkpt>
      <trkpt lat="43.1353492" lon="-2.7947808">
        <ele>155.913</ele>
        <time>2021-04-01T09:24:36.114Z</time>
      </trkpt>
      <trkpt lat="43.1353502" lon="-2.7947829">
        <ele>155.963</ele>
        <time>2021-04-01T09:24:36.169Z</time>
      </trkpt>
      <trkpt lat="43.1353508" lon="-2.7947855">
        <ele>155.981</ele>
        <time>2021-04-01T09:24:36.224Z</time>
      </trkpt>
      <trkpt lat="43.1353515" lon="-2.7947874">
        <ele>155.995</ele>
        <time>2021-04-01T09:24:36.279Z</time>
      </trkpt>
      <trkpt lat="43.1353522" lon="-2.7947887">
        <ele>155.974</ele>
        <time>2021-04-01T09:24:36.334Z</time>
      </trkpt>
      <trkpt lat="43.1353531" lon="-2.7947905">
        <ele>155.927</ele>
        <time>2021-04-01T09:24:36.389Z</time>
      </trkpt>
      <trkpt lat="43.1353541" lon="-2.7947921">
        <ele>155.899</ele>
        <time>2021-04-01T09:24:36.444Z</time>
      </trkpt>
      <trkpt lat="43.1353551" lon="-2.7947936">
        <ele>155.903</ele>
        <time>2021-04-01T09:24:36.499Z</time>
      </trkpt>
      <trkpt lat="43.1353563" lon="-2.7947951">
        <ele>155.903</ele>
        <time>2021-04-01T09:24:36.554Z</time>
      </trkpt>
      <trkpt lat="43.1353571" lon="-2.794797">
        <ele>155.883</ele>
        <time>2021-04-01T09:24:36.609Z</time>
      </trkpt>
      <trkpt lat="43.135358" lon="-2.794799">
        <ele>155.933</ele>
        <time>2021-04-01T09:24:36.664Z</time>
      </trkpt>
      <trkpt lat="43.135359" lon="-2.7948003">
        <ele>155.903</ele>
        <time>2021-04-01T09:24:36.719Z</time>
      </trkpt>
      <trkpt lat="43.1353601" lon="-2.7948015">
        <ele>155.885</ele>
        <time>2021-04-01T09:24:36.774Z</time>
      </trkpt>
      <trkpt lat="43.1353609" lon="-2.7948034">
        <ele>155.883</ele>
        <time>2021-04-01T09:24:36.829Z</time>
      </trkpt>
      <trkpt lat="43.1353619" lon="-2.7948057">
        <ele>155.932</ele>
        <time>2021-04-01T09:24:36.884Z</time>
      </trkpt>
      <trkpt lat="43.1353634" lon="-2.7948075">
        <ele>155.984</ele>
        <time>2021-04-01T09:24:36.939Z</time>
      </trkpt>
      <trkpt lat="43.1353648" lon="-2.7948087">
        <ele>155.982</ele>
        <time>2021-04-01T09:24:36.994Z</time>
      </trkpt>
      <trkpt lat="43.1353661" lon="-2.7948102">
        <ele>156.008</ele>
        <time>2021-04-01T09:24:37.049Z</time>
      </trkpt>
      <trkpt lat="43.1353674" lon="-2.7948117">
        <ele>155.999</ele>
        <time>2021-04-01T09:24:37.104Z</time>
      </trkpt>
      <trkpt lat="43.1353679" lon="-2.7948139">
        <ele>156.094</ele>
        <time>2021-04-01T09:24:37.159Z</time>
      </trkpt>
      <trkpt lat="43.135369" lon="-2.7948152">
        <ele>156.114</ele>
        <time>2021-04-01T09:24:37.214Z</time>
      </trkpt>
      <trkpt lat="43.1353702" lon="-2.7948168">
        <ele>156.148</ele>
        <time>2021-04-01T09:24:37.269Z</time>
      </trkpt>
      <trkpt lat="43.1353715" lon="-2.7948183">
        <ele>156.178</ele>
        <time>2021-04-01T09:24:37.324Z</time>
      </trkpt>
      <trkpt lat="43.1353728" lon="-2.7948198">
        <ele>156.221</ele>
        <time>2021-04-01T09:24:37.379Z</time>
      </trkpt>
      <trkpt lat="43.1353736" lon="-2.7948217">
        <ele>156.26</ele>
        <time>2021-04-01T09:24:37.434Z</time>
      </trkpt>
      <trkpt lat="43.1353747" lon="-2.7948234">
        <ele>156.28</ele>
        <time>2021-04-01T09:24:37.489Z</time>
      </trkpt>
      <trkpt lat="43.1353755" lon="-2.7948256">
        <ele>156.288</ele>
        <time>2021-04-01T09:24:37.544Z</time>
      </trkpt>
      <trkpt lat="43.1353762" lon="-2.7948274">
        <ele>156.334</ele>
        <time>2021-04-01T09:24:37.599Z</time>
      </trkpt>
      <trkpt lat="43.1353769" lon="-2.7948293">
        <ele>156.377</ele>
        <time>2021-04-01T09:24:37.654Z</time>
      </trkpt>
      <trkpt lat="43.1353775" lon="-2.7948314">
        <ele>156.438</ele>
        <time>2021-04-01T09:24:37.709Z</time>
      </trkpt>
      <trkpt lat="43.1353783" lon="-2.7948334">
        <ele>156.52</ele>
        <time>2021-04-01T09:24:37.764Z</time>
      </trkpt>
      <trkpt lat="43.1353792" lon="-2.7948351">
        <ele>156.471</ele>
        <time>2021-04-01T09:24:37.819Z</time>
      </trkpt>
      <trkpt lat="43.1353801" lon="-2.7948369">
        <ele>156.471</ele>
        <time>2021-04-01T09:24:37.874Z</time>
      </trkpt>
      <trkpt lat="43.1353809" lon="-2.7948386">
        <ele>156.482</ele>
        <time>2021-04-01T09:24:37.929Z</time>
      </trkpt>
      <trkpt lat="43.1353816" lon="-2.79484">
        <ele>156.52</ele>
        <time>2021-04-01T09:24:37.984Z</time>
      </trkpt>
      <trkpt lat="43.1353825" lon="-2.7948413">
        <ele>156.534</ele>
        <time>2021-04-01T09:24:38.039Z</time>
      </trkpt>
      <trkpt lat="43.1353832" lon="-2.794843">
        <ele>156.557</ele>
        <time>2021-04-01T09:24:38.094Z</time>
      </trkpt>
      <trkpt lat="43.1353844" lon="-2.7948444">
        <ele>156.554</ele>
        <time>2021-04-01T09:24:38.149Z</time>
      </trkpt>
      <trkpt lat="43.1353855" lon="-2.7948459">
        <ele>156.536</ele>
        <time>2021-04-01T09:24:38.204Z</time>
      </trkpt>
      <trkpt lat="43.1353862" lon="-2.7948475">
        <ele>156.504</ele>
        <time>2021-04-01T09:24:38.259Z</time>
      </trkpt>
      <trkpt lat="43.135387" lon="-2.7948491">
        <ele>156.46</ele>
        <time>2021-04-01T09:24:38.314Z</time>
      </trkpt>
      <trkpt lat="43.1353879" lon="-2.7948511">
        <ele>156.399</ele>
        <time>2021-04-01T09:24:38.369Z</time>
      </trkpt>
      <trkpt lat="43.1353888" lon="-2.7948525">
        <ele>156.376</ele>
        <time>2021-04-01T09:24:38.424Z</time>
      </trkpt>
      <trkpt lat="43.1353898" lon="-2.794854">
        <ele>156.335</ele>
        <time>2021-04-01T09:24:38.479Z</time>
      </trkpt>
      <trkpt lat="43.1353905" lon="-2.7948556">
        <ele>156.298</ele>
        <time>2021-04-01T09:24:38.534Z</time>
      </trkpt>
      <trkpt lat="43.1353912" lon="-2.7948574">
        <ele>156.27</ele>
        <time>2021-04-01T09:24:38.589Z</time>
      </trkpt>
      <trkpt lat="43.1353925" lon="-2.7948589">
        <ele>156.26</ele>
        <time>2021-04-01T09:24:38.644Z</time>
      </trkpt>
      <trkpt lat="43.1353935" lon="-2.7948603">
        <ele>156.207</ele>
        <time>2021-04-01T09:24:38.699Z</time>
      </trkpt>
      <trkpt lat="43.1353947" lon="-2.7948621">
        <ele>156.23</ele>
        <time>2021-04-01T09:24:38.754Z</time>
      </trkpt>
      <trkpt lat="43.1353958" lon="-2.7948638">
        <ele>156.248</ele>
        <time>2021-04-01T09:24:38.809Z</time>
      </trkpt>
      <trkpt lat="43.1353968" lon="-2.794866">
        <ele>156.267</ele>
        <time>2021-04-01T09:24:38.864Z</time>
      </trkpt>
      <trkpt lat="43.1353978" lon="-2.7948677">
        <ele>156.265</ele>
        <time>2021-04-01T09:24:38.919Z</time>
      </trkpt>
      <trkpt lat="43.1353989" lon="-2.794869">
        <ele>156.242</ele>
        <time>2021-04-01T09:24:38.974Z</time>
      </trkpt>
      <trkpt lat="43.1353997" lon="-2.794871">
        <ele>156.265</ele>
        <time>2021-04-01T09:24:39.029Z</time>
      </trkpt>
      <trkpt lat="43.1354005" lon="-2.7948731">
        <ele>156.261</ele>
        <time>2021-04-01T09:24:39.084Z</time>
      </trkpt>
      <trkpt lat="43.1354019" lon="-2.7948745">
        <ele>156.226</ele>
        <time>2021-04-01T09:24:39.139Z</time>
      </trkpt>
      <trkpt lat="43.1354028" lon="-2.7948763">
        <ele>156.223</ele>
        <time>2021-04-01T09:24:39.194Z</time>
      </trkpt>
      <trkpt lat="43.1354038" lon="-2.7948782">
        <ele>156.223</ele>
        <time>2021-04-01T09:24:39.249Z</time>
      </trkpt>
      <trkpt lat="43.135405" lon="-2.7948794">
        <ele>156.223</ele>
        <time>2021-04-01T09:24:39.304Z</time>
      </trkpt>
      <trkpt lat="43.1354061" lon="-2.7948807">
        <ele>156.251</ele>
        <time>2021-04-01T09:24:39.359Z</time>
      </trkpt>
      <trkpt lat="43.1354072" lon="-2.7948825">
        <ele>156.245</ele>
        <time>2021-04-01T09:24:39.414Z</time>
      </trkpt>
      <trkpt lat="43.135408" lon="-2.7948846">
        <ele>156.217</ele>
        <time>2021-04-01T09:24:39.469Z</time>
      </trkpt>
      <trkpt lat="43.1354088" lon="-2.7948861">
        <ele>156.218</ele>
        <time>2021-04-01T09:24:39.524Z</time>
      </trkpt>
      <trkpt lat="43.1354098" lon="-2.7948874">
        <ele>156.201</ele>
        <time>2021-04-01T09:24:39.579Z</time>
      </trkpt>
      <trkpt lat="43.1354108" lon="-2.794889">
        <ele>156.182</ele>
        <time>2021-04-01T09:24:39.634Z</time>
      </trkpt>
      <trkpt lat="43.1354118" lon="-2.794891">
        <ele>156.21</ele>
        <time>2021-04-01T09:24:39.689Z</time>
      </trkpt>
      <trkpt lat="43.1354127" lon="-2.7948927">
        <ele>156.243</ele>
        <time>2021-04-01T09:24:39.744Z</time>
      </trkpt>
      <trkpt lat="43.1354133" lon="-2.7948945">
        <ele>156.2</ele>
        <time>2021-04-01T09:24:39.799Z</time>
      </trkpt>
      <trkpt lat="43.1354144" lon="-2.7948962">
        <ele>156.197</ele>
        <time>2021-04-01T09:24:39.854Z</time>
      </trkpt>
      <trkpt lat="43.1354155" lon="-2.7948982">
        <ele>156.239</ele>
        <time>2021-04-01T09:24:39.909Z</time>
      </trkpt>
      <trkpt lat="43.1354165" lon="-2.7949003">
        <ele>156.273</ele>
        <time>2021-04-01T09:24:39.964Z</time>
      </trkpt>
      <trkpt lat="43.1354177" lon="-2.794902">
        <ele>156.305</ele>
        <time>2021-04-01T09:24:40.019Z</time>
      </trkpt>
      <trkpt lat="43.1354188" lon="-2.794904">
        <ele>156.338</ele>
        <time>2021-04-01T09:24:40.074Z</time>
      </trkpt>
      <trkpt lat="43.1354198" lon="-2.7949055">
        <ele>156.34</ele>
        <time>2021-04-01T09:24:40.129Z</time>
      </trkpt>
      <trkpt lat="43.1354208" lon="-2.794907">
        <ele>156.36</ele>
        <time>2021-04-01T09:24:40.184Z</time>
      </trkpt>
      <trkpt lat="43.1354222" lon="-2.7949078">
        <ele>156.363</ele>
        <time>2021-04-01T09:24:40.239Z</time>
      </trkpt>
      <trkpt lat="43.1354232" lon="-2.7949092">
        <ele>156.345</ele>
        <time>2021-04-01T09:24:40.294Z</time>
      </trkpt>
      <trkpt lat="43.1354242" lon="-2.7949106">
        <ele>156.368</ele>
        <time>2021-04-01T09:24:40.349Z</time>
      </trkpt>
      <trkpt lat="43.1354253" lon="-2.7949121">
        <ele>156.42</ele>
        <time>2021-04-01T09:24:40.404Z</time>
      </trkpt>
      <trkpt lat="43.1354263" lon="-2.7949133">
        <ele>156.389</ele>
        <time>2021-04-01T09:24:40.459Z</time>
      </trkpt>
      <trkpt lat="43.1354272" lon="-2.7949146">
        <ele>156.376</ele>
        <time>2021-04-01T09:24:40.514Z</time>
      </trkpt>
      <trkpt lat="43.135428" lon="-2.7949162">
        <ele>156.382</ele>
        <time>2021-04-01T09:24:40.569Z</time>
      </trkpt>
      <trkpt lat="43.1354288" lon="-2.7949183">
        <ele>156.392</ele>
        <time>2021-04-01T09:24:40.624Z</time>
      </trkpt>
      <trkpt lat="43.1354298" lon="-2.7949206">
        <ele>156.467</ele>
        <time>2021-04-01T09:24:40.679Z</time>
      </trkpt>
      <trkpt lat="43.1354307" lon="-2.7949225">
        <ele>156.527</ele>
        <time>2021-04-01T09:24:40.734Z</time>
      </trkpt>
      <trkpt lat="43.1354316" lon="-2.7949247">
        <ele>156.54</ele>
        <time>2021-04-01T09:24:40.789Z</time>
      </trkpt>
      <trkpt lat="43.1354323" lon="-2.794927">
        <ele>156.535</ele>
        <time>2021-04-01T09:24:40.844Z</time>
      </trkpt>
      <trkpt lat="43.1354332" lon="-2.7949289">
        <ele>156.531</ele>
        <time>2021-04-01T09:24:40.899Z</time>
      </trkpt>
      <trkpt lat="43.1354342" lon="-2.7949308">
        <ele>156.575</ele>
        <time>2021-04-01T09:24:40.954Z</time>
      </trkpt>
      <trkpt lat="43.1354351" lon="-2.7949326">
        <ele>156.598</ele>
        <time>2021-04-01T09:24:41.009Z</time>
      </trkpt>
      <trkpt lat="43.1354359" lon="-2.7949342">
        <ele>156.585</ele>
        <time>2021-04-01T09:24:41.064Z</time>
      </trkpt>
      <trkpt lat="43.1354369" lon="-2.7949361">
        <ele>156.585</ele>
        <time>2021-04-01T09:24:41.119Z</time>
      </trkpt>
      <trkpt lat="43.1354379" lon="-2.7949382">
        <ele>156.611</ele>
        <time>2021-04-01T09:24:41.174Z</time>
      </trkpt>
      <trkpt lat="43.1354391" lon="-2.79494">
        <ele>156.627</ele>
        <time>2021-04-01T09:24:41.229Z</time>
      </trkpt>
      <trkpt lat="43.1354405" lon="-2.7949413">
        <ele>156.633</ele>
        <time>2021-04-01T09:24:41.284Z</time>
      </trkpt>
      <trkpt lat="43.1354419" lon="-2.7949429">
        <ele>156.64</ele>
        <time>2021-04-01T09:24:41.339Z</time>
      </trkpt>
      <trkpt lat="43.135443" lon="-2.7949451">
        <ele>156.708</ele>
        <time>2021-04-01T09:24:41.394Z</time>
      </trkpt>
      <trkpt lat="43.1354442" lon="-2.7949468">
        <ele>156.738</ele>
        <time>2021-04-01T09:24:41.449Z</time>
      </trkpt>
      <trkpt lat="43.1354454" lon="-2.7949484">
        <ele>156.703</ele>
        <time>2021-04-01T09:24:41.504Z</time>
      </trkpt>
      <trkpt lat="43.1354465" lon="-2.7949502">
        <ele>156.701</ele>
        <time>2021-04-01T09:24:41.559Z</time>
      </trkpt>
      <trkpt lat="43.1354475" lon="-2.7949521">
        <ele>156.733</ele>
        <time>2021-04-01T09:24:41.614Z</time>
      </trkpt>
      <trkpt lat="43.1354488" lon="-2.7949539">
        <ele>156.745</ele>
        <time>2021-04-01T09:24:41.669Z</time>
      </trkpt>
      <trkpt lat="43.1354503" lon="-2.7949554">
        <ele>156.745</ele>
        <time>2021-04-01T09:24:41.724Z</time>
      </trkpt>
      <trkpt lat="43.1354516" lon="-2.7949567">
        <ele>156.744</ele>
        <time>2021-04-01T09:24:41.779Z</time>
      </trkpt>
      <trkpt lat="43.1354527" lon="-2.7949583">
        <ele>156.732</ele>
        <time>2021-04-01T09:24:41.834Z</time>
      </trkpt>
      <trkpt lat="43.1354534" lon="-2.7949601">
        <ele>156.735</ele>
        <time>2021-04-01T09:24:41.889Z</time>
      </trkpt>
      <trkpt lat="43.1354545" lon="-2.7949614">
        <ele>156.695</ele>
        <time>2021-04-01T09:24:41.944Z</time>
      </trkpt>
      <trkpt lat="43.1354555" lon="-2.7949628">
        <ele>156.688</ele>
        <time>2021-04-01T09:24:41.999Z</time>
      </trkpt>
      <trkpt lat="43.1354566" lon="-2.7949641">
        <ele>156.704</ele>
        <time>2021-04-01T09:24:42.054Z</time>
      </trkpt>
      <trkpt lat="43.1354577" lon="-2.7949658">
        <ele>156.701</ele>
        <time>2021-04-01T09:24:42.109Z</time>
      </trkpt>
      <trkpt lat="43.1354589" lon="-2.7949682">
        <ele>156.681</ele>
        <time>2021-04-01T09:24:42.164Z</time>
      </trkpt>
      <trkpt lat="43.1354603" lon="-2.7949701">
        <ele>156.686</ele>
        <time>2021-04-01T09:24:42.219Z</time>
      </trkpt>
      <trkpt lat="43.1354615" lon="-2.7949719">
        <ele>156.683</ele>
        <time>2021-04-01T09:24:42.274Z</time>
      </trkpt>
      <trkpt lat="43.1354626" lon="-2.7949735">
        <ele>156.738</ele>
        <time>2021-04-01T09:24:42.329Z</time>
      </trkpt>
      <trkpt lat="43.1354639" lon="-2.7949747">
        <ele>156.789</ele>
        <time>2021-04-01T09:24:42.384Z</time>
      </trkpt>
      <trkpt lat="43.1354653" lon="-2.7949764">
        <ele>156.769</ele>
        <time>2021-04-01T09:24:42.439Z</time>
      </trkpt>
      <trkpt lat="43.1354665" lon="-2.794978">
        <ele>156.775</ele>
        <time>2021-04-01T09:24:42.494Z</time>
      </trkpt>
      <trkpt lat="43.1354677" lon="-2.7949798">
        <ele>156.826</ele>
        <time>2021-04-01T09:24:42.549Z</time>
      </trkpt>
      <trkpt lat="43.1354692" lon="-2.794981">
        <ele>156.828</ele>
        <time>2021-04-01T09:24:42.604Z</time>
      </trkpt>
      <trkpt lat="43.1354708" lon="-2.7949822">
        <ele>156.803</ele>
        <time>2021-04-01T09:24:42.659Z</time>
      </trkpt>
      <trkpt lat="43.135472" lon="-2.7949835">
        <ele>156.832</ele>
        <time>2021-04-01T09:24:42.714Z</time>
      </trkpt>
      <trkpt lat="43.1354731" lon="-2.7949852">
        <ele>156.861</ele>
        <time>2021-04-01T09:24:42.769Z</time>
      </trkpt>
      <trkpt lat="43.1354743" lon="-2.7949869">
        <ele>156.827</ele>
        <time>2021-04-01T09:24:42.824Z</time>
      </trkpt>
      <trkpt lat="43.1354755" lon="-2.7949883">
        <ele>156.831</ele>
        <time>2021-04-01T09:24:42.879Z</time>
      </trkpt>
      <trkpt lat="43.1354766" lon="-2.79499">
        <ele>156.831</ele>
        <time>2021-04-01T09:24:42.934Z</time>
      </trkpt>
      <trkpt lat="43.1354779" lon="-2.7949917">
        <ele>156.805</ele>
        <time>2021-04-01T09:24:42.989Z</time>
      </trkpt>
      <trkpt lat="43.1354791" lon="-2.7949929">
        <ele>156.817</ele>
        <time>2021-04-01T09:24:43.044Z</time>
      </trkpt>
      <trkpt lat="43.1354804" lon="-2.7949947">
        <ele>156.804</ele>
        <time>2021-04-01T09:24:43.099Z</time>
      </trkpt>
      <trkpt lat="43.1354816" lon="-2.7949963">
        <ele>156.803</ele>
        <time>2021-04-01T09:24:43.154Z</time>
      </trkpt>
      <trkpt lat="43.1354826" lon="-2.7949977">
        <ele>156.814</ele>
        <time>2021-04-01T09:24:43.209Z</time>
      </trkpt>
      <trkpt lat="43.135484" lon="-2.7949994">
        <ele>156.814</ele>
        <time>2021-04-01T09:24:43.264Z</time>
      </trkpt>
      <trkpt lat="43.1354853" lon="-2.7950009">
        <ele>156.851</ele>
        <time>2021-04-01T09:24:43.319Z</time>
      </trkpt>
      <trkpt lat="43.1354868" lon="-2.7950024">
        <ele>156.857</ele>
        <time>2021-04-01T09:24:43.374Z</time>
      </trkpt>
      <trkpt lat="43.1354879" lon="-2.7950039">
        <ele>156.859</ele>
        <time>2021-04-01T09:24:43.435Z</time>
      </trkpt>
      <trkpt lat="43.1354891" lon="-2.7950055">
        <ele>156.874</ele>
        <time>2021-04-01T09:24:43.497Z</time>
      </trkpt>
      <trkpt lat="43.1354904" lon="-2.7950069">
        <ele>156.874</ele>
        <time>2021-04-01T09:24:43.559Z</time>
      </trkpt>
      <trkpt lat="43.1354916" lon="-2.7950085">
        <ele>156.881</ele>
        <time>2021-04-01T09:24:43.621Z</time>
      </trkpt>
      <trkpt lat="43.1354937" lon="-2.7950117">
        <ele>156.813</ele>
        <time>2021-04-01T09:24:43.683Z</time>
      </trkpt>
      <trkpt lat="43.135495" lon="-2.7950135">
        <ele>156.839</ele>
        <time>2021-04-01T09:24:43.745Z</time>
      </trkpt>
      <trkpt lat="43.1354961" lon="-2.7950155">
        <ele>156.832</ele>
        <time>2021-04-01T09:24:43.807Z</time>
      </trkpt>
      <trkpt lat="43.1354972" lon="-2.7950174">
        <ele>156.847</ele>
        <time>2021-04-01T09:24:43.869Z</time>
      </trkpt>
      <trkpt lat="43.1354983" lon="-2.7950193">
        <ele>156.848</ele>
        <time>2021-04-01T09:24:43.930Z</time>
      </trkpt>
      <trkpt lat="43.1354993" lon="-2.7950213">
        <ele>156.858</ele>
        <time>2021-04-01T09:24:43.992Z</time>
      </trkpt>
      <trkpt lat="43.1355002" lon="-2.7950231">
        <ele>156.865</ele>
        <time>2021-04-01T09:24:44.054Z</time>
      </trkpt>
      <trkpt lat="43.135501" lon="-2.7950252">
        <ele>156.911</ele>
        <time>2021-04-01T09:24:44.116Z</time>
      </trkpt>
      <trkpt lat="43.1355022" lon="-2.795027">
        <ele>156.907</ele>
        <time>2021-04-01T09:24:44.178Z</time>
      </trkpt>
      <trkpt lat="43.1355032" lon="-2.7950288">
        <ele>156.918</ele>
        <time>2021-04-01T09:24:44.240Z</time>
      </trkpt>
      <trkpt lat="43.1355044" lon="-2.7950308">
        <ele>156.966</ele>
        <time>2021-04-01T09:24:44.302Z</time>
      </trkpt>
      <trkpt lat="43.1355054" lon="-2.7950324">
        <ele>156.977</ele>
        <time>2021-04-01T09:24:44.364Z</time>
      </trkpt>
      <trkpt lat="43.1355066" lon="-2.7950338">
        <ele>157.008</ele>
        <time>2021-04-01T09:24:44.416Z</time>
      </trkpt>
      <trkpt lat="43.1355074" lon="-2.7950354">
        <ele>157.024</ele>
        <time>2021-04-01T09:24:44.468Z</time>
      </trkpt>
      <trkpt lat="43.1355084" lon="-2.7950372">
        <ele>157.017</ele>
        <time>2021-04-01T09:24:44.520Z</time>
      </trkpt>
      <trkpt lat="43.1355095" lon="-2.7950392">
        <ele>157.003</ele>
        <time>2021-04-01T09:24:44.572Z</time>
      </trkpt>
      <trkpt lat="43.1355106" lon="-2.795041">
        <ele>157.019</ele>
        <time>2021-04-01T09:24:44.624Z</time>
      </trkpt>
      <trkpt lat="43.1355111" lon="-2.7950428">
        <ele>157.038</ele>
        <time>2021-04-01T09:24:44.676Z</time>
      </trkpt>
      <trkpt lat="43.1355118" lon="-2.7950445">
        <ele>157.029</ele>
        <time>2021-04-01T09:24:44.728Z</time>
      </trkpt>
      <trkpt lat="43.1355125" lon="-2.7950462">
        <ele>156.995</ele>
        <time>2021-04-01T09:24:44.780Z</time>
      </trkpt>
      <trkpt lat="43.1355135" lon="-2.7950478">
        <ele>156.987</ele>
        <time>2021-04-01T09:24:44.832Z</time>
      </trkpt>
      <trkpt lat="43.1355144" lon="-2.7950499">
        <ele>157.064</ele>
        <time>2021-04-01T09:24:44.885Z</time>
      </trkpt>
      <trkpt lat="43.1355153" lon="-2.7950518">
        <ele>157.096</ele>
        <time>2021-04-01T09:24:44.937Z</time>
      </trkpt>
      <trkpt lat="43.1355161" lon="-2.7950539">
        <ele>157.13</ele>
        <time>2021-04-01T09:24:44.989Z</time>
      </trkpt>
      <trkpt lat="43.1355168" lon="-2.7950557">
        <ele>157.17</ele>
        <time>2021-04-01T09:24:45.041Z</time>
      </trkpt>
      <trkpt lat="43.1355176" lon="-2.7950573">
        <ele>157.214</ele>
        <time>2021-04-01T09:24:45.093Z</time>
      </trkpt>
      <trkpt lat="43.1355183" lon="-2.7950598">
        <ele>157.257</ele>
        <time>2021-04-01T09:24:45.145Z</time>
      </trkpt>
      <trkpt lat="43.135519" lon="-2.7950616">
        <ele>157.266</ele>
        <time>2021-04-01T09:24:45.197Z</time>
      </trkpt>
      <trkpt lat="43.1355198" lon="-2.795063">
        <ele>157.235</ele>
        <time>2021-04-01T09:24:45.249Z</time>
      </trkpt>
      <trkpt lat="43.1355206" lon="-2.7950647">
        <ele>157.205</ele>
        <time>2021-04-01T09:24:45.301Z</time>
      </trkpt>
      <trkpt lat="43.1355216" lon="-2.7950667">
        <ele>157.215</ele>
        <time>2021-04-01T09:24:45.354Z</time>
      </trkpt>
      <trkpt lat="43.1355226" lon="-2.7950687">
        <ele>157.306</ele>
        <time>2021-04-01T09:24:45.409Z</time>
      </trkpt>
      <trkpt lat="43.1355237" lon="-2.7950705">
        <ele>157.385</ele>
        <time>2021-04-01T09:24:45.464Z</time>
      </trkpt>
      <trkpt lat="43.1355244" lon="-2.7950731">
        <ele>157.496</ele>
        <time>2021-04-01T09:24:45.519Z</time>
      </trkpt>
      <trkpt lat="43.1355253" lon="-2.7950753">
        <ele>157.55</ele>
        <time>2021-04-01T09:24:45.574Z</time>
      </trkpt>
      <trkpt lat="43.1355262" lon="-2.7950775">
        <ele>157.578</ele>
        <time>2021-04-01T09:24:45.629Z</time>
      </trkpt>
      <trkpt lat="43.1355273" lon="-2.7950797">
        <ele>157.631</ele>
        <time>2021-04-01T09:24:45.684Z</time>
      </trkpt>
      <trkpt lat="43.1355286" lon="-2.795082">
        <ele>157.727</ele>
        <time>2021-04-01T09:24:45.739Z</time>
      </trkpt>
      <trkpt lat="43.1355297" lon="-2.7950844">
        <ele>157.781</ele>
        <time>2021-04-01T09:24:45.794Z</time>
      </trkpt>
      <trkpt lat="43.1355307" lon="-2.7950867">
        <ele>157.87</ele>
        <time>2021-04-01T09:24:45.849Z</time>
      </trkpt>
      <trkpt lat="43.1355318" lon="-2.7950882">
        <ele>157.892</ele>
        <time>2021-04-01T09:24:45.904Z</time>
      </trkpt>
      <trkpt lat="43.135533" lon="-2.7950901">
        <ele>157.925</ele>
        <time>2021-04-01T09:24:45.959Z</time>
      </trkpt>
      <trkpt lat="43.1355342" lon="-2.7950922">
        <ele>157.965</ele>
        <time>2021-04-01T09:24:46.014Z</time>
      </trkpt>
      <trkpt lat="43.1355355" lon="-2.7950942">
        <ele>158.006</ele>
        <time>2021-04-01T09:24:46.069Z</time>
      </trkpt>
      <trkpt lat="43.1355366" lon="-2.7950958">
        <ele>158.022</ele>
        <time>2021-04-01T09:24:46.124Z</time>
      </trkpt>
      <trkpt lat="43.135538" lon="-2.7950977">
        <ele>158.063</ele>
        <time>2021-04-01T09:24:46.179Z</time>
      </trkpt>
      <trkpt lat="43.1355391" lon="-2.7950997">
        <ele>158.124</ele>
        <time>2021-04-01T09:24:46.234Z</time>
      </trkpt>
      <trkpt lat="43.1355399" lon="-2.7951017">
        <ele>158.111</ele>
        <time>2021-04-01T09:24:46.289Z</time>
      </trkpt>
      <trkpt lat="43.1355408" lon="-2.7951041">
        <ele>158.145</ele>
        <time>2021-04-01T09:24:46.344Z</time>
      </trkpt>
      <trkpt lat="43.1355419" lon="-2.7951059">
        <ele>158.148</ele>
        <time>2021-04-01T09:24:46.399Z</time>
      </trkpt>
      <trkpt lat="43.1355431" lon="-2.7951081">
        <ele>158.18</ele>
        <time>2021-04-01T09:24:46.454Z</time>
      </trkpt>
      <trkpt lat="43.1355443" lon="-2.7951103">
        <ele>158.217</ele>
        <time>2021-04-01T09:24:46.509Z</time>
      </trkpt>
      <trkpt lat="43.1355453" lon="-2.7951127">
        <ele>158.24</ele>
        <time>2021-04-01T09:24:46.564Z</time>
      </trkpt>
      <trkpt lat="43.1355462" lon="-2.7951145">
        <ele>158.236</ele>
        <time>2021-04-01T09:24:46.619Z</time>
      </trkpt>
      <trkpt lat="43.1355474" lon="-2.7951167">
        <ele>158.279</ele>
        <time>2021-04-01T09:24:46.674Z</time>
      </trkpt>
      <trkpt lat="43.1355484" lon="-2.7951189">
        <ele>158.299</ele>
        <time>2021-04-01T09:24:46.729Z</time>
      </trkpt>
      <trkpt lat="43.1355496" lon="-2.795121">
        <ele>158.32</ele>
        <time>2021-04-01T09:24:46.784Z</time>
      </trkpt>
      <trkpt lat="43.1355508" lon="-2.7951232">
        <ele>158.383</ele>
        <time>2021-04-01T09:24:46.839Z</time>
      </trkpt>
      <trkpt lat="43.135552" lon="-2.7951251">
        <ele>158.384</ele>
        <time>2021-04-01T09:24:46.894Z</time>
      </trkpt>
      <trkpt lat="43.1355533" lon="-2.795127">
        <ele>158.39</ele>
        <time>2021-04-01T09:24:46.949Z</time>
      </trkpt>
      <trkpt lat="43.1355543" lon="-2.7951293">
        <ele>158.428</ele>
        <time>2021-04-01T09:24:47.004Z</time>
      </trkpt>
      <trkpt lat="43.1355555" lon="-2.7951312">
        <ele>158.457</ele>
        <time>2021-04-01T09:24:47.059Z</time>
      </trkpt>
      <trkpt lat="43.1355567" lon="-2.7951332">
        <ele>158.479</ele>
        <time>2021-04-01T09:24:47.114Z</time>
      </trkpt>
      <trkpt lat="43.1355578" lon="-2.7951353">
        <ele>158.502</ele>
        <time>2021-04-01T09:24:47.169Z</time>
      </trkpt>
      <trkpt lat="43.1355588" lon="-2.7951368">
        <ele>158.441</ele>
        <time>2021-04-01T09:24:47.224Z</time>
      </trkpt>
      <trkpt lat="43.1355601" lon="-2.795139">
        <ele>158.452</ele>
        <time>2021-04-01T09:24:47.279Z</time>
      </trkpt>
      <trkpt lat="43.1355611" lon="-2.7951414">
        <ele>158.471</ele>
        <time>2021-04-01T09:24:47.334Z</time>
      </trkpt>
      <trkpt lat="43.1355621" lon="-2.7951435">
        <ele>158.54</ele>
        <time>2021-04-01T09:24:47.389Z</time>
      </trkpt>
      <trkpt lat="43.1355631" lon="-2.7951455">
        <ele>158.58</ele>
        <time>2021-04-01T09:24:47.444Z</time>
      </trkpt>
      <trkpt lat="43.1355642" lon="-2.7951477">
        <ele>158.601</ele>
        <time>2021-04-01T09:24:47.499Z</time>
      </trkpt>
      <trkpt lat="43.1355654" lon="-2.7951496">
        <ele>158.603</ele>
        <time>2021-04-01T09:24:47.554Z</time>
      </trkpt>
      <trkpt lat="43.1355665" lon="-2.7951516">
        <ele>158.595</ele>
        <time>2021-04-01T09:24:47.609Z</time>
      </trkpt>
      <trkpt lat="43.1355674" lon="-2.7951535">
        <ele>158.593</ele>
        <time>2021-04-01T09:24:47.664Z</time>
      </trkpt>
      <trkpt lat="43.1355685" lon="-2.7951555">
        <ele>158.624</ele>
        <time>2021-04-01T09:24:47.719Z</time>
      </trkpt>
      <trkpt lat="43.1355697" lon="-2.7951576">
        <ele>158.656</ele>
        <time>2021-04-01T09:24:47.774Z</time>
      </trkpt>
      <trkpt lat="43.1355706" lon="-2.7951595">
        <ele>158.702</ele>
        <time>2021-04-01T09:24:47.829Z</time>
      </trkpt>
      <trkpt lat="43.1355713" lon="-2.7951612">
        <ele>158.711</ele>
        <time>2021-04-01T09:24:47.884Z</time>
      </trkpt>
      <trkpt lat="43.1355725" lon="-2.7951631">
        <ele>158.743</ele>
        <time>2021-04-01T09:24:47.939Z</time>
      </trkpt>
      <trkpt lat="43.1355738" lon="-2.7951653">
        <ele>158.782</ele>
        <time>2021-04-01T09:24:47.994Z</time>
      </trkpt>
      <trkpt lat="43.135575" lon="-2.7951676">
        <ele>158.805</ele>
        <time>2021-04-01T09:24:48.049Z</time>
      </trkpt>
      <trkpt lat="43.135576" lon="-2.7951694">
        <ele>158.787</ele>
        <time>2021-04-01T09:24:48.104Z</time>
      </trkpt>
      <trkpt lat="43.1355771" lon="-2.7951714">
        <ele>158.844</ele>
        <time>2021-04-01T09:24:48.159Z</time>
      </trkpt>
      <trkpt lat="43.1355782" lon="-2.7951732">
        <ele>158.882</ele>
        <time>2021-04-01T09:24:48.214Z</time>
      </trkpt>
      <trkpt lat="43.1355795" lon="-2.7951747">
        <ele>158.886</ele>
        <time>2021-04-01T09:24:48.269Z</time>
      </trkpt>
      <trkpt lat="43.1355804" lon="-2.7951766">
        <ele>158.914</ele>
        <time>2021-04-01T09:24:48.324Z</time>
      </trkpt>
      <trkpt lat="43.1355814" lon="-2.7951784">
        <ele>158.931</ele>
        <time>2021-04-01T09:24:48.379Z</time>
      </trkpt>
      <trkpt lat="43.1355825" lon="-2.79518">
        <ele>158.928</ele>
        <time>2021-04-01T09:24:48.434Z</time>
      </trkpt>
      <trkpt lat="43.1355838" lon="-2.7951818">
        <ele>158.913</ele>
        <time>2021-04-01T09:24:48.489Z</time>
      </trkpt>
      <trkpt lat="43.135585" lon="-2.7951838">
        <ele>158.935</ele>
        <time>2021-04-01T09:24:48.544Z</time>
      </trkpt>
      <trkpt lat="43.1355862" lon="-2.7951854">
        <ele>158.943</ele>
        <time>2021-04-01T09:24:48.599Z</time>
      </trkpt>
      <trkpt lat="43.1355873" lon="-2.7951872">
        <ele>158.958</ele>
        <time>2021-04-01T09:24:48.654Z</time>
      </trkpt>
      <trkpt lat="43.1355885" lon="-2.7951893">
        <ele>158.981</ele>
        <time>2021-04-01T09:24:48.709Z</time>
      </trkpt>
      <trkpt lat="43.1355897" lon="-2.7951914">
        <ele>159.007</ele>
        <time>2021-04-01T09:24:48.764Z</time>
      </trkpt>
      <trkpt lat="43.1355907" lon="-2.7951933">
        <ele>159.043</ele>
        <time>2021-04-01T09:24:48.819Z</time>
      </trkpt>
      <trkpt lat="43.1355919" lon="-2.795196">
        <ele>159.102</ele>
        <time>2021-04-01T09:24:48.874Z</time>
      </trkpt>
      <trkpt lat="43.1355931" lon="-2.7951984">
        <ele>159.149</ele>
        <time>2021-04-01T09:24:48.929Z</time>
      </trkpt>
      <trkpt lat="43.1355943" lon="-2.7952004">
        <ele>159.199</ele>
        <time>2021-04-01T09:24:48.984Z</time>
      </trkpt>
      <trkpt lat="43.1355956" lon="-2.7952026">
        <ele>159.229</ele>
        <time>2021-04-01T09:24:49.039Z</time>
      </trkpt>
      <trkpt lat="43.1355966" lon="-2.7952048">
        <ele>159.282</ele>
        <time>2021-04-01T09:24:49.094Z</time>
      </trkpt>
      <trkpt lat="43.1355979" lon="-2.7952064">
        <ele>159.288</ele>
        <time>2021-04-01T09:24:49.149Z</time>
      </trkpt>
      <trkpt lat="43.1355991" lon="-2.795208">
        <ele>159.26</ele>
        <time>2021-04-01T09:24:49.204Z</time>
      </trkpt>
      <trkpt lat="43.1356003" lon="-2.7952096">
        <ele>159.25</ele>
        <time>2021-04-01T09:24:49.259Z</time>
      </trkpt>
      <trkpt lat="43.1356017" lon="-2.7952116">
        <ele>159.256</ele>
        <time>2021-04-01T09:24:49.314Z</time>
      </trkpt>
      <trkpt lat="43.1356029" lon="-2.7952139">
        <ele>159.297</ele>
        <time>2021-04-01T09:24:49.369Z</time>
      </trkpt>
      <trkpt lat="43.1356039" lon="-2.7952159">
        <ele>159.34</ele>
        <time>2021-04-01T09:24:49.427Z</time>
      </trkpt>
      <trkpt lat="43.1356054" lon="-2.7952175">
        <ele>159.364</ele>
        <time>2021-04-01T09:24:49.485Z</time>
      </trkpt>
      <trkpt lat="43.1356066" lon="-2.7952193">
        <ele>159.374</ele>
        <time>2021-04-01T09:24:49.543Z</time>
      </trkpt>
      <trkpt lat="43.1356079" lon="-2.7952209">
        <ele>159.348</ele>
        <time>2021-04-01T09:24:49.601Z</time>
      </trkpt>
      <trkpt lat="43.1356094" lon="-2.7952227">
        <ele>159.368</ele>
        <time>2021-04-01T09:24:49.659Z</time>
      </trkpt>
      <trkpt lat="43.1356109" lon="-2.7952244">
        <ele>159.39</ele>
        <time>2021-04-01T09:24:49.717Z</time>
      </trkpt>
      <trkpt lat="43.1356121" lon="-2.7952262">
        <ele>159.441</ele>
        <time>2021-04-01T09:24:49.775Z</time>
      </trkpt>
      <trkpt lat="43.1356135" lon="-2.7952276">
        <ele>159.44</ele>
        <time>2021-04-01T09:24:49.833Z</time>
      </trkpt>
      <trkpt lat="43.1356149" lon="-2.7952289">
        <ele>159.425</ele>
        <time>2021-04-01T09:24:49.891Z</time>
      </trkpt>
      <trkpt lat="43.135616" lon="-2.7952304">
        <ele>159.437</ele>
        <time>2021-04-01T09:24:49.949Z</time>
      </trkpt>
      <trkpt lat="43.1356173" lon="-2.7952319">
        <ele>159.452</ele>
        <time>2021-04-01T09:24:50.007Z</time>
      </trkpt>
      <trkpt lat="43.1356186" lon="-2.7952338">
        <ele>159.453</ele>
        <time>2021-04-01T09:24:50.065Z</time>
      </trkpt>
      <trkpt lat="43.1356199" lon="-2.795236">
        <ele>159.483</ele>
        <time>2021-04-01T09:24:50.123Z</time>
      </trkpt>
      <trkpt lat="43.135621" lon="-2.7952378">
        <ele>159.49</ele>
        <time>2021-04-01T09:24:50.181Z</time>
      </trkpt>
      <trkpt lat="43.1356221" lon="-2.7952396">
        <ele>159.52</ele>
        <time>2021-04-01T09:24:50.239Z</time>
      </trkpt>
      <trkpt lat="43.1356232" lon="-2.7952417">
        <ele>159.557</ele>
        <time>2021-04-01T09:24:50.297Z</time>
      </trkpt>
      <trkpt lat="43.1356243" lon="-2.7952437">
        <ele>159.567</ele>
        <time>2021-04-01T09:24:50.355Z</time>
      </trkpt>
      <trkpt lat="43.1356254" lon="-2.7952459">
        <ele>159.571</ele>
        <time>2021-04-01T09:24:50.414Z</time>
      </trkpt>
      <trkpt lat="43.1356266" lon="-2.7952479">
        <ele>159.591</ele>
        <time>2021-04-01T09:24:50.463Z</time>
      </trkpt>
      <trkpt lat="43.1356278" lon="-2.7952498">
        <ele>159.599</ele>
        <time>2021-04-01T09:24:50.512Z</time>
      </trkpt>
      <trkpt lat="43.1356289" lon="-2.7952518">
        <ele>159.65</ele>
        <time>2021-04-01T09:24:50.561Z</time>
      </trkpt>
      <trkpt lat="43.1356301" lon="-2.7952534">
        <ele>159.649</ele>
        <time>2021-04-01T09:24:50.610Z</time>
      </trkpt>
      <trkpt lat="43.1356312" lon="-2.7952551">
        <ele>159.656</ele>
        <time>2021-04-01T09:24:50.660Z</time>
      </trkpt>
      <trkpt lat="43.1356325" lon="-2.7952569">
        <ele>159.667</ele>
        <time>2021-04-01T09:24:50.709Z</time>
      </trkpt>
      <trkpt lat="43.1356337" lon="-2.7952587">
        <ele>159.644</ele>
        <time>2021-04-01T09:24:50.758Z</time>
      </trkpt>
      <trkpt lat="43.135635" lon="-2.7952604">
        <ele>159.654</ele>
        <time>2021-04-01T09:24:50.807Z</time>
      </trkpt>
      <trkpt lat="43.135636" lon="-2.795262">
        <ele>159.626</ele>
        <time>2021-04-01T09:24:50.856Z</time>
      </trkpt>
      <trkpt lat="43.1356373" lon="-2.7952643">
        <ele>159.661</ele>
        <time>2021-04-01T09:24:50.906Z</time>
      </trkpt>
      <trkpt lat="43.1356383" lon="-2.7952664">
        <ele>159.689</ele>
        <time>2021-04-01T09:24:50.955Z</time>
      </trkpt>
      <trkpt lat="43.1356396" lon="-2.7952683">
        <ele>159.734</ele>
        <time>2021-04-01T09:24:51.004Z</time>
      </trkpt>
      <trkpt lat="43.1356408" lon="-2.7952703">
        <ele>159.747</ele>
        <time>2021-04-01T09:24:51.053Z</time>
      </trkpt>
      <trkpt lat="43.1356422" lon="-2.7952722">
        <ele>159.765</ele>
        <time>2021-04-01T09:24:51.102Z</time>
      </trkpt>
      <trkpt lat="43.1356434" lon="-2.7952742">
        <ele>159.787</ele>
        <time>2021-04-01T09:24:51.152Z</time>
      </trkpt>
      <trkpt lat="43.1356445" lon="-2.7952763">
        <ele>159.821</ele>
        <time>2021-04-01T09:24:51.201Z</time>
      </trkpt>
      <trkpt lat="43.1356457" lon="-2.7952784">
        <ele>159.863</ele>
        <time>2021-04-01T09:24:51.250Z</time>
      </trkpt>
      <trkpt lat="43.1356469" lon="-2.7952804">
        <ele>159.903</ele>
        <time>2021-04-01T09:24:51.299Z</time>
      </trkpt>
      <trkpt lat="43.1356482" lon="-2.7952819">
        <ele>159.92</ele>
        <time>2021-04-01T09:24:51.349Z</time>
      </trkpt>
      <trkpt lat="43.1356495" lon="-2.7952837">
        <ele>159.939</ele>
        <time>2021-04-01T09:24:51.404Z</time>
      </trkpt>
      <trkpt lat="43.135651" lon="-2.7952851">
        <ele>159.934</ele>
        <time>2021-04-01T09:24:51.459Z</time>
      </trkpt>
      <trkpt lat="43.1356526" lon="-2.7952863">
        <ele>159.944</ele>
        <time>2021-04-01T09:24:51.514Z</time>
      </trkpt>
      <trkpt lat="43.135654" lon="-2.7952877">
        <ele>159.944</ele>
        <time>2021-04-01T09:24:51.569Z</time>
      </trkpt>
      <trkpt lat="43.1356552" lon="-2.7952895">
        <ele>159.963</ele>
        <time>2021-04-01T09:24:51.624Z</time>
      </trkpt>
      <trkpt lat="43.1356563" lon="-2.7952916">
        <ele>159.959</ele>
        <time>2021-04-01T09:24:51.679Z</time>
      </trkpt>
      <trkpt lat="43.1356574" lon="-2.7952938">
        <ele>159.977</ele>
        <time>2021-04-01T09:24:51.734Z</time>
      </trkpt>
      <trkpt lat="43.1356585" lon="-2.7952958">
        <ele>160.018</ele>
        <time>2021-04-01T09:24:51.789Z</time>
      </trkpt>
      <trkpt lat="43.1356599" lon="-2.7952971">
        <ele>160.004</ele>
        <time>2021-04-01T09:24:51.844Z</time>
      </trkpt>
      <trkpt lat="43.1356613" lon="-2.7952989">
        <ele>160.017</ele>
        <time>2021-04-01T09:24:51.899Z</time>
      </trkpt>
      <trkpt lat="43.1356625" lon="-2.7953008">
        <ele>160.023</ele>
        <time>2021-04-01T09:24:51.954Z</time>
      </trkpt>
      <trkpt lat="43.1356638" lon="-2.7953024">
        <ele>160.035</ele>
        <time>2021-04-01T09:24:52.009Z</time>
      </trkpt>
      <trkpt lat="43.1356651" lon="-2.7953039">
        <ele>160.028</ele>
        <time>2021-04-01T09:24:52.064Z</time>
      </trkpt>
      <trkpt lat="43.1356665" lon="-2.7953052">
        <ele>160.011</ele>
        <time>2021-04-01T09:24:52.119Z</time>
      </trkpt>
      <trkpt lat="43.1356678" lon="-2.7953067">
        <ele>159.972</ele>
        <time>2021-04-01T09:24:52.174Z</time>
      </trkpt>
      <trkpt lat="43.1356689" lon="-2.7953083">
        <ele>159.95</ele>
        <time>2021-04-01T09:24:52.229Z</time>
      </trkpt>
      <trkpt lat="43.1356702" lon="-2.7953097">
        <ele>159.926</ele>
        <time>2021-04-01T09:24:52.284Z</time>
      </trkpt>
      <trkpt lat="43.1356715" lon="-2.7953114">
        <ele>159.937</ele>
        <time>2021-04-01T09:24:52.339Z</time>
      </trkpt>
      <trkpt lat="43.1356731" lon="-2.7953129">
        <ele>159.935</ele>
        <time>2021-04-01T09:24:52.397Z</time>
      </trkpt>
      <trkpt lat="43.1356743" lon="-2.795315">
        <ele>159.987</ele>
        <time>2021-04-01T09:24:52.455Z</time>
      </trkpt>
      <trkpt lat="43.1356759" lon="-2.7953162">
        <ele>159.996</ele>
        <time>2021-04-01T09:24:52.513Z</time>
      </trkpt>
      <trkpt lat="43.1356773" lon="-2.7953177">
        <ele>160.006</ele>
        <time>2021-04-01T09:24:52.571Z</time>
      </trkpt>
      <trkpt lat="43.1356784" lon="-2.7953195">
        <ele>160.023</ele>
        <time>2021-04-01T09:24:52.629Z</time>
      </trkpt>
      <trkpt lat="43.1356799" lon="-2.7953207">
        <ele>159.995</ele>
        <time>2021-04-01T09:24:52.687Z</time>
      </trkpt>
      <trkpt lat="43.1356812" lon="-2.7953227">
        <ele>160.027</ele>
        <time>2021-04-01T09:24:52.745Z</time>
      </trkpt>
      <trkpt lat="43.1356825" lon="-2.7953245">
        <ele>160.036</ele>
        <time>2021-04-01T09:24:52.803Z</time>
      </trkpt>
      <trkpt lat="43.1356839" lon="-2.7953263">
        <ele>160.061</ele>
        <time>2021-04-01T09:24:52.861Z</time>
      </trkpt>
      <trkpt lat="43.1356851" lon="-2.7953283">
        <ele>160.102</ele>
        <time>2021-04-01T09:24:52.919Z</time>
      </trkpt>
      <trkpt lat="43.1356867" lon="-2.7953294">
        <ele>160.074</ele>
        <time>2021-04-01T09:24:52.977Z</time>
      </trkpt>
      <trkpt lat="43.135688" lon="-2.7953311">
        <ele>160.11</ele>
        <time>2021-04-01T09:24:53.035Z</time>
      </trkpt>
      <trkpt lat="43.1356892" lon="-2.795333">
        <ele>160.109</ele>
        <time>2021-04-01T09:24:53.093Z</time>
      </trkpt>
      <trkpt lat="43.1356908" lon="-2.7953345">
        <ele>160.132</ele>
        <time>2021-04-01T09:24:53.151Z</time>
      </trkpt>
      <trkpt lat="43.1356923" lon="-2.7953363">
        <ele>160.134</ele>
        <time>2021-04-01T09:24:53.209Z</time>
      </trkpt>
      <trkpt lat="43.1356935" lon="-2.7953382">
        <ele>160.137</ele>
        <time>2021-04-01T09:24:53.267Z</time>
      </trkpt>
      <trkpt lat="43.1356947" lon="-2.7953403">
        <ele>160.146</ele>
        <time>2021-04-01T09:24:53.325Z</time>
      </trkpt>
      <trkpt lat="43.1356962" lon="-2.7953419">
        <ele>160.187</ele>
        <time>2021-04-01T09:24:53.384Z</time>
      </trkpt>
      <trkpt lat="43.1356975" lon="-2.7953434">
        <ele>160.213</ele>
        <time>2021-04-01T09:24:53.436Z</time>
      </trkpt>
      <trkpt lat="43.1356987" lon="-2.7953453">
        <ele>160.242</ele>
        <time>2021-04-01T09:24:53.488Z</time>
      </trkpt>
      <trkpt lat="43.1357003" lon="-2.7953467">
        <ele>160.225</ele>
        <time>2021-04-01T09:24:53.540Z</time>
      </trkpt>
      <trkpt lat="43.1357017" lon="-2.7953485">
        <ele>160.258</ele>
        <time>2021-04-01T09:24:53.592Z</time>
      </trkpt>
      <trkpt lat="43.1357027" lon="-2.7953506">
        <ele>160.309</ele>
        <time>2021-04-01T09:24:53.644Z</time>
      </trkpt>
      <trkpt lat="43.1357039" lon="-2.7953523">
        <ele>160.341</ele>
        <time>2021-04-01T09:24:53.696Z</time>
      </trkpt>
      <trkpt lat="43.135705" lon="-2.7953537">
        <ele>160.307</ele>
        <time>2021-04-01T09:24:53.748Z</time>
      </trkpt>
      <trkpt lat="43.1357062" lon="-2.7953553">
        <ele>160.28</ele>
        <time>2021-04-01T09:24:53.800Z</time>
      </trkpt>
      <trkpt lat="43.1357075" lon="-2.795357">
        <ele>160.307</ele>
        <time>2021-04-01T09:24:53.852Z</time>
      </trkpt>
      <trkpt lat="43.1357086" lon="-2.7953588">
        <ele>160.328</ele>
        <time>2021-04-01T09:24:53.905Z</time>
      </trkpt>
      <trkpt lat="43.13571" lon="-2.7953605">
        <ele>160.346</ele>
        <time>2021-04-01T09:24:53.957Z</time>
      </trkpt>
      <trkpt lat="43.1357112" lon="-2.7953624">
        <ele>160.362</ele>
        <time>2021-04-01T09:24:54.009Z</time>
      </trkpt>
      <trkpt lat="43.1357124" lon="-2.7953644">
        <ele>160.384</ele>
        <time>2021-04-01T09:24:54.061Z</time>
      </trkpt>
      <trkpt lat="43.1357136" lon="-2.7953663">
        <ele>160.415</ele>
        <time>2021-04-01T09:24:54.113Z</time>
      </trkpt>
      <trkpt lat="43.1357147" lon="-2.7953682">
        <ele>160.468</ele>
        <time>2021-04-01T09:24:54.165Z</time>
      </trkpt>
      <trkpt lat="43.1357158" lon="-2.79537">
        <ele>160.469</ele>
        <time>2021-04-01T09:24:54.217Z</time>
      </trkpt>
      <trkpt lat="43.1357172" lon="-2.795372">
        <ele>160.476</ele>
        <time>2021-04-01T09:24:54.269Z</time>
      </trkpt>
      <trkpt lat="43.1357183" lon="-2.795374">
        <ele>160.474</ele>
        <time>2021-04-01T09:24:54.321Z</time>
      </trkpt>
      <trkpt lat="43.1357194" lon="-2.7953759">
        <ele>160.471</ele>
        <time>2021-04-01T09:24:54.374Z</time>
      </trkpt>
      <trkpt lat="43.1357203" lon="-2.7953776">
        <ele>160.478</ele>
        <time>2021-04-01T09:24:54.432Z</time>
      </trkpt>
      <trkpt lat="43.1357212" lon="-2.7953787">
        <ele>160.435</ele>
        <time>2021-04-01T09:24:54.490Z</time>
      </trkpt>
      <trkpt lat="43.1357224" lon="-2.7953801">
        <ele>160.422</ele>
        <time>2021-04-01T09:24:54.548Z</time>
      </trkpt>
      <trkpt lat="43.1357235" lon="-2.795382">
        <ele>160.43</ele>
        <time>2021-04-01T09:24:54.606Z</time>
      </trkpt>
      <trkpt lat="43.1357248" lon="-2.795384">
        <ele>160.444</ele>
        <time>2021-04-01T09:24:54.665Z</time>
      </trkpt>
      <trkpt lat="43.1357259" lon="-2.795386">
        <ele>160.456</ele>
        <time>2021-04-01T09:24:54.723Z</time>
      </trkpt>
      <trkpt lat="43.1357272" lon="-2.7953879">
        <ele>160.478</ele>
        <time>2021-04-01T09:24:54.781Z</time>
      </trkpt>
      <trkpt lat="43.1357286" lon="-2.7953896">
        <ele>160.493</ele>
        <time>2021-04-01T09:24:54.839Z</time>
      </trkpt>
      <trkpt lat="43.1357298" lon="-2.7953915">
        <ele>160.515</ele>
        <time>2021-04-01T09:24:54.898Z</time>
      </trkpt>
      <trkpt lat="43.1357309" lon="-2.7953934">
        <ele>160.516</ele>
        <time>2021-04-01T09:24:54.956Z</time>
      </trkpt>
      <trkpt lat="43.1357321" lon="-2.795395">
        <ele>160.526</ele>
        <time>2021-04-01T09:24:55.014Z</time>
      </trkpt>
      <trkpt lat="43.135733" lon="-2.7953971">
        <ele>160.579</ele>
        <time>2021-04-01T09:24:55.072Z</time>
      </trkpt>
      <trkpt lat="43.1357342" lon="-2.795399">
        <ele>160.604</ele>
        <time>2021-04-01T09:24:55.131Z</time>
      </trkpt>
      <trkpt lat="43.1357354" lon="-2.7954008">
        <ele>160.61</ele>
        <time>2021-04-01T09:24:55.189Z</time>
      </trkpt>
      <trkpt lat="43.1357365" lon="-2.7954024">
        <ele>160.582</ele>
        <time>2021-04-01T09:24:55.247Z</time>
      </trkpt>
      <trkpt lat="43.1357374" lon="-2.7954041">
        <ele>160.583</ele>
        <time>2021-04-01T09:24:55.305Z</time>
      </trkpt>
      <trkpt lat="43.1357383" lon="-2.7954061">
        <ele>160.592</ele>
        <time>2021-04-01T09:24:55.364Z</time>
      </trkpt>
      <trkpt lat="43.1357396" lon="-2.7954081">
        <ele>160.618</ele>
        <time>2021-04-01T09:24:55.419Z</time>
      </trkpt>
      <trkpt lat="43.135741" lon="-2.7954097">
        <ele>160.628</ele>
        <time>2021-04-01T09:24:55.474Z</time>
      </trkpt>
      <trkpt lat="43.1357425" lon="-2.7954114">
        <ele>160.637</ele>
        <time>2021-04-01T09:24:55.529Z</time>
      </trkpt>
      <trkpt lat="43.1357439" lon="-2.7954129">
        <ele>160.637</ele>
        <time>2021-04-01T09:24:55.584Z</time>
      </trkpt>
      <trkpt lat="43.1357453" lon="-2.7954147">
        <ele>160.64</ele>
        <time>2021-04-01T09:24:55.639Z</time>
      </trkpt>
      <trkpt lat="43.1357465" lon="-2.7954159">
        <ele>160.65</ele>
        <time>2021-04-01T09:24:55.694Z</time>
      </trkpt>
      <trkpt lat="43.1357475" lon="-2.7954176">
        <ele>160.646</ele>
        <time>2021-04-01T09:24:55.749Z</time>
      </trkpt>
      <trkpt lat="43.1357485" lon="-2.7954199">
        <ele>160.637</ele>
        <time>2021-04-01T09:24:55.804Z</time>
      </trkpt>
      <trkpt lat="43.1357499" lon="-2.7954216">
        <ele>160.64</ele>
        <time>2021-04-01T09:24:55.859Z</time>
      </trkpt>
      <trkpt lat="43.1357516" lon="-2.7954231">
        <ele>160.655</ele>
        <time>2021-04-01T09:24:55.914Z</time>
      </trkpt>
      <trkpt lat="43.1357529" lon="-2.7954248">
        <ele>160.672</ele>
        <time>2021-04-01T09:24:55.969Z</time>
      </trkpt>
      <trkpt lat="43.1357544" lon="-2.7954266">
        <ele>160.709</ele>
        <time>2021-04-01T09:24:56.024Z</time>
      </trkpt>
      <trkpt lat="43.1357559" lon="-2.7954282">
        <ele>160.739</ele>
        <time>2021-04-01T09:24:56.079Z</time>
      </trkpt>
      <trkpt lat="43.135757" lon="-2.7954298">
        <ele>160.743</ele>
        <time>2021-04-01T09:24:56.134Z</time>
      </trkpt>
      <trkpt lat="43.1357583" lon="-2.7954314">
        <ele>160.771</ele>
        <time>2021-04-01T09:24:56.189Z</time>
      </trkpt>
      <trkpt lat="43.1357595" lon="-2.795433">
        <ele>160.774</ele>
        <time>2021-04-01T09:24:56.244Z</time>
      </trkpt>
      <trkpt lat="43.1357609" lon="-2.7954344">
        <ele>160.784</ele>
        <time>2021-04-01T09:24:56.299Z</time>
      </trkpt>
      <trkpt lat="43.1357622" lon="-2.7954362">
        <ele>160.797</ele>
        <time>2021-04-01T09:24:56.354Z</time>
      </trkpt>
      <trkpt lat="43.1357633" lon="-2.7954379">
        <ele>160.808</ele>
        <time>2021-04-01T09:24:56.409Z</time>
      </trkpt>
      <trkpt lat="43.1357646" lon="-2.7954393">
        <ele>160.783</ele>
        <time>2021-04-01T09:24:56.464Z</time>
      </trkpt>
      <trkpt lat="43.1357658" lon="-2.795441">
        <ele>160.809</ele>
        <time>2021-04-01T09:24:56.519Z</time>
      </trkpt>
      <trkpt lat="43.135767" lon="-2.7954431">
        <ele>160.819</ele>
        <time>2021-04-01T09:24:56.574Z</time>
      </trkpt>
      <trkpt lat="43.1357681" lon="-2.7954438">
        <ele>160.746</ele>
        <time>2021-04-01T09:24:56.629Z</time>
      </trkpt>
      <trkpt lat="43.13577" lon="-2.795446">
        <ele>160.769</ele>
        <time>2021-04-01T09:24:56.684Z</time>
      </trkpt>
      <trkpt lat="43.1357713" lon="-2.7954479">
        <ele>160.771</ele>
        <time>2021-04-01T09:24:56.739Z</time>
      </trkpt>
      <trkpt lat="43.1357725" lon="-2.7954495">
        <ele>160.771</ele>
        <time>2021-04-01T09:24:56.794Z</time>
      </trkpt>
      <trkpt lat="43.1357738" lon="-2.7954514">
        <ele>160.787</ele>
        <time>2021-04-01T09:24:56.849Z</time>
      </trkpt>
      <trkpt lat="43.1357751" lon="-2.7954536">
        <ele>160.797</ele>
        <time>2021-04-01T09:24:56.904Z</time>
      </trkpt>
      <trkpt lat="43.1357765" lon="-2.7954551">
        <ele>160.802</ele>
        <time>2021-04-01T09:24:56.959Z</time>
      </trkpt>
      <trkpt lat="43.1357779" lon="-2.7954567">
        <ele>160.792</ele>
        <time>2021-04-01T09:24:57.014Z</time>
      </trkpt>
      <trkpt lat="43.1357791" lon="-2.7954586">
        <ele>160.781</ele>
        <time>2021-04-01T09:24:57.069Z</time>
      </trkpt>
      <trkpt lat="43.1357807" lon="-2.7954603">
        <ele>160.815</ele>
        <time>2021-04-01T09:24:57.124Z</time>
      </trkpt>
      <trkpt lat="43.1357821" lon="-2.7954617">
        <ele>160.777</ele>
        <time>2021-04-01T09:24:57.179Z</time>
      </trkpt>
      <trkpt lat="43.1357833" lon="-2.7954636">
        <ele>160.814</ele>
        <time>2021-04-01T09:24:57.234Z</time>
      </trkpt>
      <trkpt lat="43.1357844" lon="-2.795466">
        <ele>160.849</ele>
        <time>2021-04-01T09:24:57.289Z</time>
      </trkpt>
      <trkpt lat="43.1357855" lon="-2.7954675">
        <ele>160.896</ele>
        <time>2021-04-01T09:24:57.344Z</time>
      </trkpt>
      <trkpt lat="43.1357868" lon="-2.7954694">
        <ele>160.896</ele>
        <time>2021-04-01T09:24:57.399Z</time>
      </trkpt>
      <trkpt lat="43.1357882" lon="-2.7954715">
        <ele>160.868</ele>
        <time>2021-04-01T09:24:57.457Z</time>
      </trkpt>
      <trkpt lat="43.1357898" lon="-2.7954726">
        <ele>160.819</ele>
        <time>2021-04-01T09:24:57.515Z</time>
      </trkpt>
      <trkpt lat="43.1357912" lon="-2.7954741">
        <ele>160.759</ele>
        <time>2021-04-01T09:24:57.573Z</time>
      </trkpt>
      <trkpt lat="43.1357922" lon="-2.7954763">
        <ele>160.794</ele>
        <time>2021-04-01T09:24:57.631Z</time>
      </trkpt>
      <trkpt lat="43.1357934" lon="-2.7954778">
        <ele>160.767</ele>
        <time>2021-04-01T09:24:57.690Z</time>
      </trkpt>
      <trkpt lat="43.1357945" lon="-2.7954795">
        <ele>160.736</ele>
        <time>2021-04-01T09:24:57.748Z</time>
      </trkpt>
      <trkpt lat="43.135796" lon="-2.7954808">
        <ele>160.685</ele>
        <time>2021-04-01T09:24:57.806Z</time>
      </trkpt>
      <trkpt lat="43.1357974" lon="-2.7954821">
        <ele>160.629</ele>
        <time>2021-04-01T09:24:57.864Z</time>
      </trkpt>
      <trkpt lat="43.1357986" lon="-2.7954843">
        <ele>160.658</ele>
        <time>2021-04-01T09:24:57.923Z</time>
      </trkpt>
      <trkpt lat="43.1357999" lon="-2.7954862">
        <ele>160.689</ele>
        <time>2021-04-01T09:24:57.981Z</time>
      </trkpt>
      <trkpt lat="43.1358014" lon="-2.7954879">
        <ele>160.652</ele>
        <time>2021-04-01T09:24:58.039Z</time>
      </trkpt>
      <trkpt lat="43.1358025" lon="-2.7954899">
        <ele>160.671</ele>
        <time>2021-04-01T09:24:58.097Z</time>
      </trkpt>
      <trkpt lat="43.1358037" lon="-2.7954916">
        <ele>160.662</ele>
        <time>2021-04-01T09:24:58.156Z</time>
      </trkpt>
      <trkpt lat="43.135805" lon="-2.7954936">
        <ele>160.668</ele>
        <time>2021-04-01T09:24:58.214Z</time>
      </trkpt>
      <trkpt lat="43.1358063" lon="-2.7954954">
        <ele>160.631</ele>
        <time>2021-04-01T09:24:58.272Z</time>
      </trkpt>
      <trkpt lat="43.1358078" lon="-2.7954974">
        <ele>160.667</ele>
        <time>2021-04-01T09:24:58.330Z</time>
      </trkpt>
      <trkpt lat="43.1358093" lon="-2.7954994">
        <ele>160.735</ele>
        <time>2021-04-01T09:24:58.389Z</time>
      </trkpt>
      <trkpt lat="43.1358108" lon="-2.7955009">
        <ele>160.735</ele>
        <time>2021-04-01T09:24:58.441Z</time>
      </trkpt>
      <trkpt lat="43.1358121" lon="-2.7955024">
        <ele>160.743</ele>
        <time>2021-04-01T09:24:58.493Z</time>
      </trkpt>
      <trkpt lat="43.1358132" lon="-2.7955042">
        <ele>160.73</ele>
        <time>2021-04-01T09:24:58.545Z</time>
      </trkpt>
      <trkpt lat="43.1358144" lon="-2.795506">
        <ele>160.745</ele>
        <time>2021-04-01T09:24:58.597Z</time>
      </trkpt>
      <trkpt lat="43.1358159" lon="-2.7955073">
        <ele>160.739</ele>
        <time>2021-04-01T09:24:58.649Z</time>
      </trkpt>
      <trkpt lat="43.1358171" lon="-2.7955094">
        <ele>160.786</ele>
        <time>2021-04-01T09:24:58.701Z</time>
      </trkpt>
      <trkpt lat="43.1358185" lon="-2.7955111">
        <ele>160.792</ele>
        <time>2021-04-01T09:24:58.753Z</time>
      </trkpt>
      <trkpt lat="43.13582" lon="-2.7955128">
        <ele>160.773</ele>
        <time>2021-04-01T09:24:58.805Z</time>
      </trkpt>
      <trkpt lat="43.1358214" lon="-2.7955143">
        <ele>160.768</ele>
        <time>2021-04-01T09:24:58.857Z</time>
      </trkpt>
      <trkpt lat="43.1358227" lon="-2.7955159">
        <ele>160.782</ele>
        <time>2021-04-01T09:24:58.910Z</time>
      </trkpt>
      <trkpt lat="43.1358244" lon="-2.7955171">
        <ele>160.755</ele>
        <time>2021-04-01T09:24:58.962Z</time>
      </trkpt>
      <trkpt lat="43.1358258" lon="-2.7955189">
        <ele>160.735</ele>
        <time>2021-04-01T09:24:59.014Z</time>
      </trkpt>
      <trkpt lat="43.135827" lon="-2.7955209">
        <ele>160.765</ele>
        <time>2021-04-01T09:24:59.066Z</time>
      </trkpt>
      <trkpt lat="43.1358285" lon="-2.7955225">
        <ele>160.766</ele>
        <time>2021-04-01T09:24:59.118Z</time>
      </trkpt>
      <trkpt lat="43.13583" lon="-2.7955239">
        <ele>160.848</ele>
        <time>2021-04-01T09:24:59.170Z</time>
      </trkpt>
      <trkpt lat="43.1358311" lon="-2.795525">
        <ele>160.8</ele>
        <time>2021-04-01T09:24:59.222Z</time>
      </trkpt>
      <trkpt lat="43.1358318" lon="-2.7955268">
        <ele>160.726</ele>
        <time>2021-04-01T09:24:59.274Z</time>
      </trkpt>
      <trkpt lat="43.1358324" lon="-2.7955281">
        <ele>160.66</ele>
        <time>2021-04-01T09:24:59.326Z</time>
      </trkpt>
      <trkpt lat="43.1358329" lon="-2.7955286">
        <ele>160.532</ele>
        <time>2021-04-01T09:24:59.379Z</time>
      </trkpt>
      <trkpt lat="43.1358338" lon="-2.7955297">
        <ele>160.488</ele>
        <time>2021-04-01T09:24:59.431Z</time>
      </trkpt>
      <trkpt lat="43.1358347" lon="-2.7955308">
        <ele>160.454</ele>
        <time>2021-04-01T09:24:59.483Z</time>
      </trkpt>
      <trkpt lat="43.1358355" lon="-2.7955317">
        <ele>160.399</ele>
        <time>2021-04-01T09:24:59.535Z</time>
      </trkpt>
      <trkpt lat="43.135836" lon="-2.7955334">
        <ele>160.373</ele>
        <time>2021-04-01T09:24:59.587Z</time>
      </trkpt>
      <trkpt lat="43.1358373" lon="-2.7955351">
        <ele>160.337</ele>
        <time>2021-04-01T09:24:59.639Z</time>
      </trkpt>
      <trkpt lat="43.1358382" lon="-2.7955373">
        <ele>160.339</ele>
        <time>2021-04-01T09:24:59.691Z</time>
      </trkpt>
      <trkpt lat="43.1358394" lon="-2.7955387">
        <ele>160.306</ele>
        <time>2021-04-01T09:24:59.743Z</time>
      </trkpt>
      <trkpt lat="43.1358411" lon="-2.7955397">
        <ele>160.261</ele>
        <time>2021-04-01T09:24:59.795Z</time>
      </trkpt>
      <trkpt lat="43.1358425" lon="-2.7955416">
        <ele>160.231</ele>
        <time>2021-04-01T09:24:59.847Z</time>
      </trkpt>
      <trkpt lat="43.1358436" lon="-2.7955437">
        <ele>160.246</ele>
        <time>2021-04-01T09:24:59.900Z</time>
      </trkpt>
      <trkpt lat="43.1358444" lon="-2.7955456">
        <ele>160.279</ele>
        <time>2021-04-01T09:24:59.952Z</time>
      </trkpt>
      <trkpt lat="43.1358457" lon="-2.7955475">
        <ele>160.255</ele>
        <time>2021-04-01T09:25:00.004Z</time>
      </trkpt>
      <trkpt lat="43.1358468" lon="-2.7955493">
        <ele>160.285</ele>
        <time>2021-04-01T09:25:00.056Z</time>
      </trkpt>
      <trkpt lat="43.1358481" lon="-2.795551">
        <ele>160.26</ele>
        <time>2021-04-01T09:25:00.108Z</time>
      </trkpt>
      <trkpt lat="43.1358491" lon="-2.7955526">
        <ele>160.206</ele>
        <time>2021-04-01T09:25:00.160Z</time>
      </trkpt>
      <trkpt lat="43.1358506" lon="-2.7955544">
        <ele>160.164</ele>
        <time>2021-04-01T09:25:00.212Z</time>
      </trkpt>
      <trkpt lat="43.1358517" lon="-2.7955562">
        <ele>160.184</ele>
        <time>2021-04-01T09:25:00.264Z</time>
      </trkpt>
      <trkpt lat="43.1358532" lon="-2.7955579">
        <ele>160.204</ele>
        <time>2021-04-01T09:25:00.316Z</time>
      </trkpt>
      <trkpt lat="43.1358546" lon="-2.7955599">
        <ele>160.264</ele>
        <time>2021-04-01T09:25:00.369Z</time>
      </trkpt>
      <trkpt lat="43.1358558" lon="-2.7955619">
        <ele>160.303</ele>
        <time>2021-04-01T09:25:00.430Z</time>
      </trkpt>
      <trkpt lat="43.1358571" lon="-2.7955636">
        <ele>160.273</ele>
        <time>2021-04-01T09:25:00.491Z</time>
      </trkpt>
      <trkpt lat="43.1358586" lon="-2.7955649">
        <ele>160.256</ele>
        <time>2021-04-01T09:25:00.553Z</time>
      </trkpt>
      <trkpt lat="43.13586" lon="-2.7955664">
        <ele>160.226</ele>
        <time>2021-04-01T09:25:00.614Z</time>
      </trkpt>
      <trkpt lat="43.1358614" lon="-2.7955679">
        <ele>160.215</ele>
        <time>2021-04-01T09:25:00.676Z</time>
      </trkpt>
      <trkpt lat="43.1358625" lon="-2.7955696">
        <ele>160.2</ele>
        <time>2021-04-01T09:25:00.737Z</time>
      </trkpt>
      <trkpt lat="43.1358636" lon="-2.7955718">
        <ele>160.242</ele>
        <time>2021-04-01T09:25:00.799Z</time>
      </trkpt>
      <trkpt lat="43.1358649" lon="-2.7955729">
        <ele>160.252</ele>
        <time>2021-04-01T09:25:00.860Z</time>
      </trkpt>
      <trkpt lat="43.1358663" lon="-2.7955745">
        <ele>160.27</ele>
        <time>2021-04-01T09:25:00.922Z</time>
      </trkpt>
      <trkpt lat="43.1358675" lon="-2.7955764">
        <ele>160.268</ele>
        <time>2021-04-01T09:25:00.983Z</time>
      </trkpt>
      <trkpt lat="43.135869" lon="-2.7955782">
        <ele>160.224</ele>
        <time>2021-04-01T09:25:01.045Z</time>
      </trkpt>
      <trkpt lat="43.1358702" lon="-2.7955796">
        <ele>160.184</ele>
        <time>2021-04-01T09:25:01.106Z</time>
      </trkpt>
      <trkpt lat="43.1358713" lon="-2.7955815">
        <ele>160.216</ele>
        <time>2021-04-01T09:25:01.168Z</time>
      </trkpt>
      <trkpt lat="43.1358727" lon="-2.7955826">
        <ele>160.154</ele>
        <time>2021-04-01T09:25:01.229Z</time>
      </trkpt>
      <trkpt lat="43.1358739" lon="-2.7955842">
        <ele>160.133</ele>
        <time>2021-04-01T09:25:01.291Z</time>
      </trkpt>
      <trkpt lat="43.1358749" lon="-2.795586">
        <ele>160.124</ele>
        <time>2021-04-01T09:25:01.352Z</time>
      </trkpt>
      <trkpt lat="43.135876" lon="-2.7955877">
        <ele>160.11</ele>
        <time>2021-04-01T09:25:01.414Z</time>
      </trkpt>
      <trkpt lat="43.1358774" lon="-2.7955892">
        <ele>160.067</ele>
        <time>2021-04-01T09:25:01.466Z</time>
      </trkpt>
      <trkpt lat="43.1358787" lon="-2.7955906">
        <ele>159.991</ele>
        <time>2021-04-01T09:25:01.518Z</time>
      </trkpt>
      <trkpt lat="43.1358799" lon="-2.7955922">
        <ele>159.962</ele>
        <time>2021-04-01T09:25:01.570Z</time>
      </trkpt>
      <trkpt lat="43.135881" lon="-2.7955938">
        <ele>159.96</ele>
        <time>2021-04-01T09:25:01.622Z</time>
      </trkpt>
      <trkpt lat="43.135882" lon="-2.7955954">
        <ele>159.954</ele>
        <time>2021-04-01T09:25:01.674Z</time>
      </trkpt>
      <trkpt lat="43.1358834" lon="-2.7955969">
        <ele>159.918</ele>
        <time>2021-04-01T09:25:01.726Z</time>
      </trkpt>
      <trkpt lat="43.1358845" lon="-2.7955987">
        <ele>159.889</ele>
        <time>2021-04-01T09:25:01.778Z</time>
      </trkpt>
      <trkpt lat="43.1358855" lon="-2.7956003">
        <ele>159.846</ele>
        <time>2021-04-01T09:25:01.830Z</time>
      </trkpt>
      <trkpt lat="43.1358868" lon="-2.7956017">
        <ele>159.791</ele>
        <time>2021-04-01T09:25:01.882Z</time>
      </trkpt>
      <trkpt lat="43.1358878" lon="-2.7956033">
        <ele>159.766</ele>
        <time>2021-04-01T09:25:01.935Z</time>
      </trkpt>
      <trkpt lat="43.1358891" lon="-2.7956045">
        <ele>159.74</ele>
        <time>2021-04-01T09:25:01.987Z</time>
      </trkpt>
      <trkpt lat="43.1358902" lon="-2.7956063">
        <ele>159.696</ele>
        <time>2021-04-01T09:25:02.039Z</time>
      </trkpt>
      <trkpt lat="43.1358917" lon="-2.7956077">
        <ele>159.629</ele>
        <time>2021-04-01T09:25:02.091Z</time>
      </trkpt>
      <trkpt lat="43.1358928" lon="-2.7956093">
        <ele>159.605</ele>
        <time>2021-04-01T09:25:02.143Z</time>
      </trkpt>
      <trkpt lat="43.1358938" lon="-2.7956108">
        <ele>159.554</ele>
        <time>2021-04-01T09:25:02.195Z</time>
      </trkpt>
      <trkpt lat="43.1358949" lon="-2.7956124">
        <ele>159.575</ele>
        <time>2021-04-01T09:25:02.247Z</time>
      </trkpt>
      <trkpt lat="43.1358964" lon="-2.7956144">
        <ele>159.589</ele>
        <time>2021-04-01T09:25:02.299Z</time>
      </trkpt>
      <trkpt lat="43.1358974" lon="-2.7956169">
        <ele>159.604</ele>
        <time>2021-04-01T09:25:02.351Z</time>
      </trkpt>
      <trkpt lat="43.1358987" lon="-2.7956187">
        <ele>159.633</ele>
        <time>2021-04-01T09:25:02.404Z</time>
      </trkpt>
      <trkpt lat="43.1358997" lon="-2.7956205">
        <ele>159.626</ele>
        <time>2021-04-01T09:25:02.459Z</time>
      </trkpt>
      <trkpt lat="43.135901" lon="-2.7956226">
        <ele>159.647</ele>
        <time>2021-04-01T09:25:02.514Z</time>
      </trkpt>
      <trkpt lat="43.1359021" lon="-2.7956245">
        <ele>159.653</ele>
        <time>2021-04-01T09:25:02.569Z</time>
      </trkpt>
      <trkpt lat="43.1359031" lon="-2.7956266">
        <ele>159.681</ele>
        <time>2021-04-01T09:25:02.624Z</time>
      </trkpt>
      <trkpt lat="43.1359041" lon="-2.7956286">
        <ele>159.712</ele>
        <time>2021-04-01T09:25:02.679Z</time>
      </trkpt>
      <trkpt lat="43.1359051" lon="-2.7956304">
        <ele>159.678</ele>
        <time>2021-04-01T09:25:02.734Z</time>
      </trkpt>
      <trkpt lat="43.1359064" lon="-2.7956323">
        <ele>159.684</ele>
        <time>2021-04-01T09:25:02.789Z</time>
      </trkpt>
      <trkpt lat="43.1359077" lon="-2.795634">
        <ele>159.67</ele>
        <time>2021-04-01T09:25:02.844Z</time>
      </trkpt>
      <trkpt lat="43.1359088" lon="-2.7956356">
        <ele>159.65</ele>
        <time>2021-04-01T09:25:02.899Z</time>
      </trkpt>
      <trkpt lat="43.1359101" lon="-2.795637">
        <ele>159.615</ele>
        <time>2021-04-01T09:25:02.954Z</time>
      </trkpt>
      <trkpt lat="43.1359112" lon="-2.7956387">
        <ele>159.589</ele>
        <time>2021-04-01T09:25:03.009Z</time>
      </trkpt>
      <trkpt lat="43.1359121" lon="-2.79564">
        <ele>159.52</ele>
        <time>2021-04-01T09:25:03.064Z</time>
      </trkpt>
      <trkpt lat="43.135913" lon="-2.795641">
        <ele>159.44</ele>
        <time>2021-04-01T09:25:03.119Z</time>
      </trkpt>
      <trkpt lat="43.135914" lon="-2.7956425">
        <ele>159.375</ele>
        <time>2021-04-01T09:25:03.174Z</time>
      </trkpt>
      <trkpt lat="43.1359149" lon="-2.795644">
        <ele>159.305</ele>
        <time>2021-04-01T09:25:03.229Z</time>
      </trkpt>
      <trkpt lat="43.1359159" lon="-2.7956454">
        <ele>159.253</ele>
        <time>2021-04-01T09:25:03.284Z</time>
      </trkpt>
      <trkpt lat="43.1359167" lon="-2.7956473">
        <ele>159.256</ele>
        <time>2021-04-01T09:25:03.339Z</time>
      </trkpt>
      <trkpt lat="43.1359178" lon="-2.7956492">
        <ele>159.23</ele>
        <time>2021-04-01T09:25:03.394Z</time>
      </trkpt>
      <trkpt lat="43.135919" lon="-2.7956515">
        <ele>159.269</ele>
        <time>2021-04-01T09:25:03.449Z</time>
      </trkpt>
      <trkpt lat="43.13592" lon="-2.7956536">
        <ele>159.323</ele>
        <time>2021-04-01T09:25:03.504Z</time>
      </trkpt>
      <trkpt lat="43.1359208" lon="-2.795656">
        <ele>159.386</ele>
        <time>2021-04-01T09:25:03.559Z</time>
      </trkpt>
      <trkpt lat="43.1359217" lon="-2.7956579">
        <ele>159.339</ele>
        <time>2021-04-01T09:25:03.614Z</time>
      </trkpt>
      <trkpt lat="43.1359228" lon="-2.7956591">
        <ele>159.255</ele>
        <time>2021-04-01T09:25:03.669Z</time>
      </trkpt>
      <trkpt lat="43.1359237" lon="-2.7956608">
        <ele>159.217</ele>
        <time>2021-04-01T09:25:03.724Z</time>
      </trkpt>
      <trkpt lat="43.1359246" lon="-2.7956626">
        <ele>159.195</ele>
        <time>2021-04-01T09:25:03.779Z</time>
      </trkpt>
      <trkpt lat="43.1359257" lon="-2.7956643">
        <ele>159.196</ele>
        <time>2021-04-01T09:25:03.834Z</time>
      </trkpt>
      <trkpt lat="43.1359266" lon="-2.7956655">
        <ele>159.094</ele>
        <time>2021-04-01T09:25:03.889Z</time>
      </trkpt>
      <trkpt lat="43.1359275" lon="-2.7956675">
        <ele>159.1</ele>
        <time>2021-04-01T09:25:03.944Z</time>
      </trkpt>
      <trkpt lat="43.1359284" lon="-2.7956693">
        <ele>159.049</ele>
        <time>2021-04-01T09:25:03.999Z</time>
      </trkpt>
      <trkpt lat="43.1359292" lon="-2.7956712">
        <ele>158.998</ele>
        <time>2021-04-01T09:25:04.054Z</time>
      </trkpt>
      <trkpt lat="43.1359301" lon="-2.7956731">
        <ele>158.958</ele>
        <time>2021-04-01T09:25:04.109Z</time>
      </trkpt>
      <trkpt lat="43.1359312" lon="-2.7956752">
        <ele>158.918</ele>
        <time>2021-04-01T09:25:04.164Z</time>
      </trkpt>
      <trkpt lat="43.1359321" lon="-2.795677">
        <ele>158.898</ele>
        <time>2021-04-01T09:25:04.219Z</time>
      </trkpt>
      <trkpt lat="43.1359329" lon="-2.7956789">
        <ele>158.885</ele>
        <time>2021-04-01T09:25:04.274Z</time>
      </trkpt>
      <trkpt lat="43.1359338" lon="-2.7956808">
        <ele>158.832</ele>
        <time>2021-04-01T09:25:04.329Z</time>
      </trkpt>
      <trkpt lat="43.1359349" lon="-2.7956827">
        <ele>158.808</ele>
        <time>2021-04-01T09:25:04.384Z</time>
      </trkpt>
      <trkpt lat="43.1359358" lon="-2.7956851">
        <ele>158.824</ele>
        <time>2021-04-01T09:25:04.442Z</time>
      </trkpt>
      <trkpt lat="43.1359366" lon="-2.7956872">
        <ele>158.803</ele>
        <time>2021-04-01T09:25:04.500Z</time>
      </trkpt>
      <trkpt lat="43.1359375" lon="-2.7956894">
        <ele>158.777</ele>
        <time>2021-04-01T09:25:04.558Z</time>
      </trkpt>
      <trkpt lat="43.1359384" lon="-2.7956912">
        <ele>158.745</ele>
        <time>2021-04-01T09:25:04.616Z</time>
      </trkpt>
      <trkpt lat="43.1359394" lon="-2.7956928">
        <ele>158.719</ele>
        <time>2021-04-01T09:25:04.674Z</time>
      </trkpt>
      <trkpt lat="43.1359405" lon="-2.7956947">
        <ele>158.694</ele>
        <time>2021-04-01T09:25:04.732Z</time>
      </trkpt>
      <trkpt lat="43.1359411" lon="-2.7956966">
        <ele>158.676</ele>
        <time>2021-04-01T09:25:04.790Z</time>
      </trkpt>
      <trkpt lat="43.1359419" lon="-2.7956982">
        <ele>158.621</ele>
        <time>2021-04-01T09:25:04.848Z</time>
      </trkpt>
      <trkpt lat="43.1359428" lon="-2.7956999">
        <ele>158.576</ele>
        <time>2021-04-01T09:25:04.906Z</time>
      </trkpt>
      <trkpt lat="43.1359436" lon="-2.7957012">
        <ele>158.509</ele>
        <time>2021-04-01T09:25:04.964Z</time>
      </trkpt>
      <trkpt lat="43.1359445" lon="-2.7957032">
        <ele>158.501</ele>
        <time>2021-04-01T09:25:05.022Z</time>
      </trkpt>
      <trkpt lat="43.1359455" lon="-2.7957053">
        <ele>158.54</ele>
        <time>2021-04-01T09:25:05.080Z</time>
      </trkpt>
      <trkpt lat="43.1359464" lon="-2.795707">
        <ele>158.563</ele>
        <time>2021-04-01T09:25:05.138Z</time>
      </trkpt>
      <trkpt lat="43.1359473" lon="-2.795709">
        <ele>158.541</ele>
        <time>2021-04-01T09:25:05.196Z</time>
      </trkpt>
      <trkpt lat="43.1359483" lon="-2.7957109">
        <ele>158.514</ele>
        <time>2021-04-01T09:25:05.254Z</time>
      </trkpt>
      <trkpt lat="43.1359492" lon="-2.7957127">
        <ele>158.54</ele>
        <time>2021-04-01T09:25:05.312Z</time>
      </trkpt>
      <trkpt lat="43.1359501" lon="-2.7957145">
        <ele>158.51</ele>
        <time>2021-04-01T09:25:05.370Z</time>
      </trkpt>
      <trkpt lat="43.1359509" lon="-2.7957163">
        <ele>158.467</ele>
        <time>2021-04-01T09:25:05.429Z</time>
      </trkpt>
      <trkpt lat="43.1359518" lon="-2.7957185">
        <ele>158.486</ele>
        <time>2021-04-01T09:25:05.478Z</time>
      </trkpt>
      <trkpt lat="43.1359526" lon="-2.7957203">
        <ele>158.465</ele>
        <time>2021-04-01T09:25:05.527Z</time>
      </trkpt>
      <trkpt lat="43.1359534" lon="-2.7957222">
        <ele>158.455</ele>
        <time>2021-04-01T09:25:05.576Z</time>
      </trkpt>
      <trkpt lat="43.1359546" lon="-2.795724">
        <ele>158.434</ele>
        <time>2021-04-01T09:25:05.625Z</time>
      </trkpt>
      <trkpt lat="43.1359558" lon="-2.7957257">
        <ele>158.429</ele>
        <time>2021-04-01T09:25:05.675Z</time>
      </trkpt>
      <trkpt lat="43.1359565" lon="-2.7957279">
        <ele>158.436</ele>
        <time>2021-04-01T09:25:05.724Z</time>
      </trkpt>
      <trkpt lat="43.1359576" lon="-2.7957297">
        <ele>158.427</ele>
        <time>2021-04-01T09:25:05.773Z</time>
      </trkpt>
      <trkpt lat="43.1359587" lon="-2.7957314">
        <ele>158.422</ele>
        <time>2021-04-01T09:25:05.822Z</time>
      </trkpt>
      <trkpt lat="43.1359595" lon="-2.7957331">
        <ele>158.398</ele>
        <time>2021-04-01T09:25:05.871Z</time>
      </trkpt>
      <trkpt lat="43.1359605" lon="-2.7957349">
        <ele>158.413</ele>
        <time>2021-04-01T09:25:05.921Z</time>
      </trkpt>
      <trkpt lat="43.1359613" lon="-2.7957369">
        <ele>158.453</ele>
        <time>2021-04-01T09:25:05.970Z</time>
      </trkpt>
      <trkpt lat="43.1359622" lon="-2.7957392">
        <ele>158.504</ele>
        <time>2021-04-01T09:25:06.019Z</time>
      </trkpt>
      <trkpt lat="43.1359632" lon="-2.7957413">
        <ele>158.556</ele>
        <time>2021-04-01T09:25:06.068Z</time>
      </trkpt>
      <trkpt lat="43.135964" lon="-2.7957433">
        <ele>158.546</ele>
        <time>2021-04-01T09:25:06.117Z</time>
      </trkpt>
      <trkpt lat="43.135965" lon="-2.7957452">
        <ele>158.544</ele>
        <time>2021-04-01T09:25:06.167Z</time>
      </trkpt>
      <trkpt lat="43.1359658" lon="-2.795747">
        <ele>158.552</ele>
        <time>2021-04-01T09:25:06.216Z</time>
      </trkpt>
      <trkpt lat="43.1359665" lon="-2.7957484">
        <ele>158.482</ele>
        <time>2021-04-01T09:25:06.265Z</time>
      </trkpt>
      <trkpt lat="43.1359671" lon="-2.7957504">
        <ele>158.456</ele>
        <time>2021-04-01T09:25:06.314Z</time>
      </trkpt>
      <trkpt lat="43.1359679" lon="-2.7957526">
        <ele>158.459</ele>
        <time>2021-04-01T09:25:06.364Z</time>
      </trkpt>
      <trkpt lat="43.1359688" lon="-2.7957548">
        <ele>158.475</ele>
        <time>2021-04-01T09:25:06.422Z</time>
      </trkpt>
      <trkpt lat="43.1359696" lon="-2.7957572">
        <ele>158.489</ele>
        <time>2021-04-01T09:25:06.480Z</time>
      </trkpt>
      <trkpt lat="43.1359704" lon="-2.7957592">
        <ele>158.471</ele>
        <time>2021-04-01T09:25:06.538Z</time>
      </trkpt>
      <trkpt lat="43.1359713" lon="-2.7957609">
        <ele>158.461</ele>
        <time>2021-04-01T09:25:06.596Z</time>
      </trkpt>
      <trkpt lat="43.135972" lon="-2.7957632">
        <ele>158.499</ele>
        <time>2021-04-01T09:25:06.654Z</time>
      </trkpt>
      <trkpt lat="43.1359727" lon="-2.7957656">
        <ele>158.548</ele>
        <time>2021-04-01T09:25:06.712Z</time>
      </trkpt>
      <trkpt lat="43.1359735" lon="-2.7957679">
        <ele>158.544</ele>
        <time>2021-04-01T09:25:06.770Z</time>
      </trkpt>
      <trkpt lat="43.1359744" lon="-2.79577">
        <ele>158.552</ele>
        <time>2021-04-01T09:25:06.828Z</time>
      </trkpt>
      <trkpt lat="43.1359752" lon="-2.7957724">
        <ele>158.6</ele>
        <time>2021-04-01T09:25:06.886Z</time>
      </trkpt>
      <trkpt lat="43.1359761" lon="-2.7957743">
        <ele>158.58</ele>
        <time>2021-04-01T09:25:06.944Z</time>
      </trkpt>
      <trkpt lat="43.135977" lon="-2.7957764">
        <ele>158.629</ele>
        <time>2021-04-01T09:25:07.002Z</time>
      </trkpt>
      <trkpt lat="43.1359779" lon="-2.7957784">
        <ele>158.635</ele>
        <time>2021-04-01T09:25:07.060Z</time>
      </trkpt>
      <trkpt lat="43.1359786" lon="-2.7957804">
        <ele>158.655</ele>
        <time>2021-04-01T09:25:07.118Z</time>
      </trkpt>
      <trkpt lat="43.1359795" lon="-2.7957825">
        <ele>158.717</ele>
        <time>2021-04-01T09:25:07.176Z</time>
      </trkpt>
      <trkpt lat="43.1359804" lon="-2.7957849">
        <ele>158.736</ele>
        <time>2021-04-01T09:25:07.234Z</time>
      </trkpt>
      <trkpt lat="43.1359813" lon="-2.7957874">
        <ele>158.791</ele>
        <time>2021-04-01T09:25:07.292Z</time>
      </trkpt>
      <trkpt lat="43.135982" lon="-2.7957899">
        <ele>158.83</ele>
        <time>2021-04-01T09:25:07.350Z</time>
      </trkpt>
      <trkpt lat="43.1359828" lon="-2.7957922">
        <ele>158.852</ele>
        <time>2021-04-01T09:25:07.409Z</time>
      </trkpt>
      <trkpt lat="43.1359839" lon="-2.7957946">
        <ele>158.922</ele>
        <time>2021-04-01T09:25:07.460Z</time>
      </trkpt>
      <trkpt lat="43.1359847" lon="-2.7957969">
        <ele>159</ele>
        <time>2021-04-01T09:25:07.512Z</time>
      </trkpt>
      <trkpt lat="43.1359854" lon="-2.7957993">
        <ele>159.024</ele>
        <time>2021-04-01T09:25:07.564Z</time>
      </trkpt>
      <trkpt lat="43.1359862" lon="-2.7958015">
        <ele>159.025</ele>
        <time>2021-04-01T09:25:07.616Z</time>
      </trkpt>
      <trkpt lat="43.135987" lon="-2.7958037">
        <ele>159.074</ele>
        <time>2021-04-01T09:25:07.668Z</time>
      </trkpt>
      <trkpt lat="43.135988" lon="-2.7958057">
        <ele>159.099</ele>
        <time>2021-04-01T09:25:07.720Z</time>
      </trkpt>
      <trkpt lat="43.1359887" lon="-2.7958077">
        <ele>159.095</ele>
        <time>2021-04-01T09:25:07.772Z</time>
      </trkpt>
      <trkpt lat="43.1359893" lon="-2.7958101">
        <ele>159.142</ele>
        <time>2021-04-01T09:25:07.824Z</time>
      </trkpt>
      <trkpt lat="43.1359899" lon="-2.7958122">
        <ele>159.158</ele>
        <time>2021-04-01T09:25:07.876Z</time>
      </trkpt>
      <trkpt lat="43.1359906" lon="-2.7958141">
        <ele>159.16</ele>
        <time>2021-04-01T09:25:07.928Z</time>
      </trkpt>
      <trkpt lat="43.1359913" lon="-2.7958159">
        <ele>159.164</ele>
        <time>2021-04-01T09:25:07.980Z</time>
      </trkpt>
      <trkpt lat="43.135992" lon="-2.7958178">
        <ele>159.157</ele>
        <time>2021-04-01T09:25:08.032Z</time>
      </trkpt>
      <trkpt lat="43.1359927" lon="-2.7958201">
        <ele>159.186</ele>
        <time>2021-04-01T09:25:08.084Z</time>
      </trkpt>
      <trkpt lat="43.1359933" lon="-2.7958222">
        <ele>159.205</ele>
        <time>2021-04-01T09:25:08.136Z</time>
      </trkpt>
      <trkpt lat="43.1359937" lon="-2.7958243">
        <ele>159.192</ele>
        <time>2021-04-01T09:25:08.188Z</time>
      </trkpt>
      <trkpt lat="43.1359944" lon="-2.7958264">
        <ele>159.234</ele>
        <time>2021-04-01T09:25:08.240Z</time>
      </trkpt>
      <trkpt lat="43.1359951" lon="-2.7958284">
        <ele>159.27</ele>
        <time>2021-04-01T09:25:08.292Z</time>
      </trkpt>
      <trkpt lat="43.1359958" lon="-2.7958307">
        <ele>159.298</ele>
        <time>2021-04-01T09:25:08.344Z</time>
      </trkpt>
      <trkpt lat="43.1359965" lon="-2.7958329">
        <ele>159.312</ele>
        <time>2021-04-01T09:25:08.402Z</time>
      </trkpt>
      <trkpt lat="43.1359971" lon="-2.7958352">
        <ele>159.356</ele>
        <time>2021-04-01T09:25:08.460Z</time>
      </trkpt>
      <trkpt lat="43.1359979" lon="-2.7958376">
        <ele>159.379</ele>
        <time>2021-04-01T09:25:08.518Z</time>
      </trkpt>
      <trkpt lat="43.1359984" lon="-2.7958398">
        <ele>159.388</ele>
        <time>2021-04-01T09:25:08.576Z</time>
      </trkpt>
      <trkpt lat="43.1359991" lon="-2.7958416">
        <ele>159.384</ele>
        <time>2021-04-01T09:25:08.634Z</time>
      </trkpt>
      <trkpt lat="43.1359997" lon="-2.7958436">
        <ele>159.377</ele>
        <time>2021-04-01T09:25:08.692Z</time>
      </trkpt>
      <trkpt lat="43.1360004" lon="-2.7958456">
        <ele>159.401</ele>
        <time>2021-04-01T09:25:08.750Z</time>
      </trkpt>
      <trkpt lat="43.1360011" lon="-2.7958473">
        <ele>159.366</ele>
        <time>2021-04-01T09:25:08.808Z</time>
      </trkpt>
      <trkpt lat="43.1360018" lon="-2.7958492">
        <ele>159.344</ele>
        <time>2021-04-01T09:25:08.866Z</time>
      </trkpt>
      <trkpt lat="43.1360025" lon="-2.7958509">
        <ele>159.31</ele>
        <time>2021-04-01T09:25:08.924Z</time>
      </trkpt>
      <trkpt lat="43.1360031" lon="-2.7958525">
        <ele>159.263</ele>
        <time>2021-04-01T09:25:08.982Z</time>
      </trkpt>
      <trkpt lat="43.1360035" lon="-2.7958544">
        <ele>159.234</ele>
        <time>2021-04-01T09:25:09.040Z</time>
      </trkpt>
      <trkpt lat="43.1360039" lon="-2.7958562">
        <ele>159.213</ele>
        <time>2021-04-01T09:25:09.098Z</time>
      </trkpt>
      <trkpt lat="43.1360045" lon="-2.7958578">
        <ele>159.194</ele>
        <time>2021-04-01T09:25:09.156Z</time>
      </trkpt>
      <trkpt lat="43.1360052" lon="-2.7958599">
        <ele>159.197</ele>
        <time>2021-04-01T09:25:09.214Z</time>
      </trkpt>
      <trkpt lat="43.1360058" lon="-2.7958616">
        <ele>159.163</ele>
        <time>2021-04-01T09:25:09.272Z</time>
      </trkpt>
      <trkpt lat="43.1360062" lon="-2.7958633">
        <ele>159.127</ele>
        <time>2021-04-01T09:25:09.330Z</time>
      </trkpt>
      <trkpt lat="43.1360067" lon="-2.7958653">
        <ele>159.137</ele>
        <time>2021-04-01T09:25:09.389Z</time>
      </trkpt>
      <trkpt lat="43.1360075" lon="-2.7958674">
        <ele>159.128</ele>
        <time>2021-04-01T09:25:09.444Z</time>
      </trkpt>
      <trkpt lat="43.1360084" lon="-2.7958692">
        <ele>159.098</ele>
        <time>2021-04-01T09:25:09.499Z</time>
      </trkpt>
      <trkpt lat="43.1360091" lon="-2.7958708">
        <ele>159.116</ele>
        <time>2021-04-01T09:25:09.554Z</time>
      </trkpt>
      <trkpt lat="43.1360095" lon="-2.7958726">
        <ele>159.08</ele>
        <time>2021-04-01T09:25:09.609Z</time>
      </trkpt>
      <trkpt lat="43.1360097" lon="-2.7958746">
        <ele>159.041</ele>
        <time>2021-04-01T09:25:09.664Z</time>
      </trkpt>
      <trkpt lat="43.1360102" lon="-2.7958763">
        <ele>159.001</ele>
        <time>2021-04-01T09:25:09.719Z</time>
      </trkpt>
      <trkpt lat="43.1360106" lon="-2.795878">
        <ele>158.97</ele>
        <time>2021-04-01T09:25:09.774Z</time>
      </trkpt>
      <trkpt lat="43.136011" lon="-2.7958793">
        <ele>158.877</ele>
        <time>2021-04-01T09:25:09.829Z</time>
      </trkpt>
      <trkpt lat="43.1360113" lon="-2.7958808">
        <ele>158.773</ele>
        <time>2021-04-01T09:25:09.884Z</time>
      </trkpt>
      <trkpt lat="43.1360115" lon="-2.7958822">
        <ele>158.684</ele>
        <time>2021-04-01T09:25:09.939Z</time>
      </trkpt>
      <trkpt lat="43.1360119" lon="-2.7958841">
        <ele>158.689</ele>
        <time>2021-04-01T09:25:09.994Z</time>
      </trkpt>
      <trkpt lat="43.1360125" lon="-2.795886">
        <ele>158.685</ele>
        <time>2021-04-01T09:25:10.049Z</time>
      </trkpt>
      <trkpt lat="43.1360129" lon="-2.7958875">
        <ele>158.622</ele>
        <time>2021-04-01T09:25:10.104Z</time>
      </trkpt>
      <trkpt lat="43.1360133" lon="-2.7958897">
        <ele>158.626</ele>
        <time>2021-04-01T09:25:10.159Z</time>
      </trkpt>
      <trkpt lat="43.1360137" lon="-2.7958919">
        <ele>158.614</ele>
        <time>2021-04-01T09:25:10.214Z</time>
      </trkpt>
      <trkpt lat="43.1360144" lon="-2.7958941">
        <ele>158.622</ele>
        <time>2021-04-01T09:25:10.269Z</time>
      </trkpt>
      <trkpt lat="43.1360148" lon="-2.7958959">
        <ele>158.612</ele>
        <time>2021-04-01T09:25:10.324Z</time>
      </trkpt>
      <trkpt lat="43.1360153" lon="-2.795898">
        <ele>158.637</ele>
        <time>2021-04-01T09:25:10.379Z</time>
      </trkpt>
      <trkpt lat="43.1360158" lon="-2.7959002">
        <ele>158.644</ele>
        <time>2021-04-01T09:25:10.434Z</time>
      </trkpt>
      <trkpt lat="43.1360166" lon="-2.7959025">
        <ele>158.693</ele>
        <time>2021-04-01T09:25:10.489Z</time>
      </trkpt>
      <trkpt lat="43.1360173" lon="-2.7959043">
        <ele>158.686</ele>
        <time>2021-04-01T09:25:10.544Z</time>
      </trkpt>
      <trkpt lat="43.1360178" lon="-2.7959067">
        <ele>158.73</ele>
        <time>2021-04-01T09:25:10.599Z</time>
      </trkpt>
      <trkpt lat="43.1360183" lon="-2.7959088">
        <ele>158.715</ele>
        <time>2021-04-01T09:25:10.654Z</time>
      </trkpt>
      <trkpt lat="43.1360188" lon="-2.7959108">
        <ele>158.695</ele>
        <time>2021-04-01T09:25:10.709Z</time>
      </trkpt>
      <trkpt lat="43.1360191" lon="-2.7959126">
        <ele>158.652</ele>
        <time>2021-04-01T09:25:10.764Z</time>
      </trkpt>
      <trkpt lat="43.1360197" lon="-2.7959149">
        <ele>158.703</ele>
        <time>2021-04-01T09:25:10.819Z</time>
      </trkpt>
      <trkpt lat="43.1360201" lon="-2.795917">
        <ele>158.733</ele>
        <time>2021-04-01T09:25:10.874Z</time>
      </trkpt>
      <trkpt lat="43.1360208" lon="-2.7959194">
        <ele>158.779</ele>
        <time>2021-04-01T09:25:10.929Z</time>
      </trkpt>
      <trkpt lat="43.1360212" lon="-2.7959215">
        <ele>158.783</ele>
        <time>2021-04-01T09:25:10.984Z</time>
      </trkpt>
      <trkpt lat="43.1360216" lon="-2.7959239">
        <ele>158.839</ele>
        <time>2021-04-01T09:25:11.039Z</time>
      </trkpt>
      <trkpt lat="43.136022" lon="-2.7959266">
        <ele>158.925</ele>
        <time>2021-04-01T09:25:11.094Z</time>
      </trkpt>
      <trkpt lat="43.1360224" lon="-2.7959286">
        <ele>158.899</ele>
        <time>2021-04-01T09:25:11.149Z</time>
      </trkpt>
      <trkpt lat="43.136023" lon="-2.7959303">
        <ele>158.862</ele>
        <time>2021-04-01T09:25:11.204Z</time>
      </trkpt>
      <trkpt lat="43.1360236" lon="-2.7959324">
        <ele>158.893</ele>
        <time>2021-04-01T09:25:11.259Z</time>
      </trkpt>
      <trkpt lat="43.1360242" lon="-2.7959347">
        <ele>158.95</ele>
        <time>2021-04-01T09:25:11.314Z</time>
      </trkpt>
      <trkpt lat="43.1360247" lon="-2.7959367">
        <ele>158.984</ele>
        <time>2021-04-01T09:25:11.369Z</time>
      </trkpt>
      <trkpt lat="43.136025" lon="-2.7959386">
        <ele>158.969</ele>
        <time>2021-04-01T09:25:11.421Z</time>
      </trkpt>
      <trkpt lat="43.1360257" lon="-2.7959406">
        <ele>158.966</ele>
        <time>2021-04-01T09:25:11.473Z</time>
      </trkpt>
      <trkpt lat="43.1360262" lon="-2.7959429">
        <ele>159.017</ele>
        <time>2021-04-01T09:25:11.525Z</time>
      </trkpt>
      <trkpt lat="43.1360265" lon="-2.7959451">
        <ele>159.05</ele>
        <time>2021-04-01T09:25:11.577Z</time>
      </trkpt>
      <trkpt lat="43.1360272" lon="-2.7959476">
        <ele>159.113</ele>
        <time>2021-04-01T09:25:11.629Z</time>
      </trkpt>
      <trkpt lat="43.1360278" lon="-2.7959503">
        <ele>159.215</ele>
        <time>2021-04-01T09:25:11.681Z</time>
      </trkpt>
      <trkpt lat="43.1360284" lon="-2.7959527">
        <ele>159.3</ele>
        <time>2021-04-01T09:25:11.733Z</time>
      </trkpt>
      <trkpt lat="43.1360288" lon="-2.7959553">
        <ele>159.359</ele>
        <time>2021-04-01T09:25:11.785Z</time>
      </trkpt>
      <trkpt lat="43.136029" lon="-2.7959577">
        <ele>159.4</ele>
        <time>2021-04-01T09:25:11.837Z</time>
      </trkpt>
      <trkpt lat="43.1360294" lon="-2.7959601">
        <ele>159.442</ele>
        <time>2021-04-01T09:25:11.890Z</time>
      </trkpt>
      <trkpt lat="43.1360297" lon="-2.7959625">
        <ele>159.486</ele>
        <time>2021-04-01T09:25:11.942Z</time>
      </trkpt>
      <trkpt lat="43.1360302" lon="-2.7959649">
        <ele>159.521</ele>
        <time>2021-04-01T09:25:11.994Z</time>
      </trkpt>
      <trkpt lat="43.1360306" lon="-2.7959671">
        <ele>159.53</ele>
        <time>2021-04-01T09:25:12.046Z</time>
      </trkpt>
      <trkpt lat="43.1360311" lon="-2.7959695">
        <ele>159.581</ele>
        <time>2021-04-01T09:25:12.098Z</time>
      </trkpt>
      <trkpt lat="43.1360316" lon="-2.795972">
        <ele>159.661</ele>
        <time>2021-04-01T09:25:12.150Z</time>
      </trkpt>
      <trkpt lat="43.1360321" lon="-2.7959744">
        <ele>159.702</ele>
        <time>2021-04-01T09:25:12.202Z</time>
      </trkpt>
      <trkpt lat="43.1360327" lon="-2.7959766">
        <ele>159.742</ele>
        <time>2021-04-01T09:25:12.254Z</time>
      </trkpt>
      <trkpt lat="43.1360331" lon="-2.7959788">
        <ele>159.772</ele>
        <time>2021-04-01T09:25:12.306Z</time>
      </trkpt>
      <trkpt lat="43.1360334" lon="-2.7959811">
        <ele>159.786</ele>
        <time>2021-04-01T09:25:12.359Z</time>
      </trkpt>
      <trkpt lat="43.1360338" lon="-2.7959833">
        <ele>159.8</ele>
        <time>2021-04-01T09:25:12.417Z</time>
      </trkpt>
      <trkpt lat="43.1360346" lon="-2.7959849">
        <ele>159.799</ele>
        <time>2021-04-01T09:25:12.475Z</time>
      </trkpt>
      <trkpt lat="43.136035" lon="-2.7959869">
        <ele>159.833</ele>
        <time>2021-04-01T09:25:12.533Z</time>
      </trkpt>
      <trkpt lat="43.1360357" lon="-2.7959888">
        <ele>159.838</ele>
        <time>2021-04-01T09:25:12.591Z</time>
      </trkpt>
      <trkpt lat="43.1360363" lon="-2.7959907">
        <ele>159.847</ele>
        <time>2021-04-01T09:25:12.649Z</time>
      </trkpt>
      <trkpt lat="43.1360365" lon="-2.7959928">
        <ele>159.848</ele>
        <time>2021-04-01T09:25:12.707Z</time>
      </trkpt>
      <trkpt lat="43.1360369" lon="-2.7959948">
        <ele>159.851</ele>
        <time>2021-04-01T09:25:12.765Z</time>
      </trkpt>
      <trkpt lat="43.1360377" lon="-2.7959968">
        <ele>159.885</ele>
        <time>2021-04-01T09:25:12.823Z</time>
      </trkpt>
      <trkpt lat="43.1360383" lon="-2.795999">
        <ele>159.89</ele>
        <time>2021-04-01T09:25:12.881Z</time>
      </trkpt>
      <trkpt lat="43.1360387" lon="-2.796001">
        <ele>159.879</ele>
        <time>2021-04-01T09:25:12.939Z</time>
      </trkpt>
      <trkpt lat="43.1360393" lon="-2.7960029">
        <ele>159.878</ele>
        <time>2021-04-01T09:25:12.997Z</time>
      </trkpt>
      <trkpt lat="43.1360399" lon="-2.7960046">
        <ele>159.893</ele>
        <time>2021-04-01T09:25:13.055Z</time>
      </trkpt>
      <trkpt lat="43.1360404" lon="-2.7960062">
        <ele>159.886</ele>
        <time>2021-04-01T09:25:13.113Z</time>
      </trkpt>
      <trkpt lat="43.136041" lon="-2.7960081">
        <ele>159.888</ele>
        <time>2021-04-01T09:25:13.171Z</time>
      </trkpt>
      <trkpt lat="43.1360414" lon="-2.7960102">
        <ele>159.894</ele>
        <time>2021-04-01T09:25:13.229Z</time>
      </trkpt>
      <trkpt lat="43.1360418" lon="-2.7960122">
        <ele>159.911</ele>
        <time>2021-04-01T09:25:13.287Z</time>
      </trkpt>
      <trkpt lat="43.1360422" lon="-2.7960142">
        <ele>159.93</ele>
        <time>2021-04-01T09:25:13.345Z</time>
      </trkpt>
      <trkpt lat="43.1360428" lon="-2.7960167">
        <ele>159.994</ele>
        <time>2021-04-01T09:25:13.404Z</time>
      </trkpt>
      <trkpt lat="43.136043" lon="-2.7960189">
        <ele>160.02</ele>
        <time>2021-04-01T09:25:13.459Z</time>
      </trkpt>
      <trkpt lat="43.1360437" lon="-2.7960208">
        <ele>160.022</ele>
        <time>2021-04-01T09:25:13.514Z</time>
      </trkpt>
      <trkpt lat="43.1360444" lon="-2.7960232">
        <ele>160.113</ele>
        <time>2021-04-01T09:25:13.569Z</time>
      </trkpt>
      <trkpt lat="43.1360447" lon="-2.7960254">
        <ele>160.177</ele>
        <time>2021-04-01T09:25:13.624Z</time>
      </trkpt>
      <trkpt lat="43.136045" lon="-2.7960277">
        <ele>160.195</ele>
        <time>2021-04-01T09:25:13.679Z</time>
      </trkpt>
      <trkpt lat="43.1360452" lon="-2.7960297">
        <ele>160.237</ele>
        <time>2021-04-01T09:25:13.734Z</time>
      </trkpt>
      <trkpt lat="43.1360457" lon="-2.796032">
        <ele>160.269</ele>
        <time>2021-04-01T09:25:13.789Z</time>
      </trkpt>
      <trkpt lat="43.1360463" lon="-2.7960341">
        <ele>160.296</ele>
        <time>2021-04-01T09:25:13.844Z</time>
      </trkpt>
      <trkpt lat="43.1360469" lon="-2.7960363">
        <ele>160.314</ele>
        <time>2021-04-01T09:25:13.899Z</time>
      </trkpt>
      <trkpt lat="43.1360472" lon="-2.7960384">
        <ele>160.341</ele>
        <time>2021-04-01T09:25:13.954Z</time>
      </trkpt>
      <trkpt lat="43.1360474" lon="-2.7960408">
        <ele>160.395</ele>
        <time>2021-04-01T09:25:14.009Z</time>
      </trkpt>
      <trkpt lat="43.1360478" lon="-2.7960426">
        <ele>160.407</ele>
        <time>2021-04-01T09:25:14.064Z</time>
      </trkpt>
      <trkpt lat="43.1360481" lon="-2.7960449">
        <ele>160.447</ele>
        <time>2021-04-01T09:25:14.119Z</time>
      </trkpt>
      <trkpt lat="43.1360484" lon="-2.796047">
        <ele>160.467</ele>
        <time>2021-04-01T09:25:14.174Z</time>
      </trkpt>
      <trkpt lat="43.1360487" lon="-2.7960493">
        <ele>160.489</ele>
        <time>2021-04-01T09:25:14.229Z</time>
      </trkpt>
      <trkpt lat="43.136049" lon="-2.7960513">
        <ele>160.482</ele>
        <time>2021-04-01T09:25:14.284Z</time>
      </trkpt>
      <trkpt lat="43.1360492" lon="-2.7960533">
        <ele>160.49</ele>
        <time>2021-04-01T09:25:14.339Z</time>
      </trkpt>
      <trkpt lat="43.1360495" lon="-2.7960557">
        <ele>160.55</ele>
        <time>2021-04-01T09:25:14.394Z</time>
      </trkpt>
      <trkpt lat="43.1360499" lon="-2.7960575">
        <ele>160.558</ele>
        <time>2021-04-01T09:25:14.452Z</time>
      </trkpt>
      <trkpt lat="43.1360501" lon="-2.7960595">
        <ele>160.57</ele>
        <time>2021-04-01T09:25:14.510Z</time>
      </trkpt>
      <trkpt lat="43.1360504" lon="-2.7960615">
        <ele>160.598</ele>
        <time>2021-04-01T09:25:14.568Z</time>
      </trkpt>
      <trkpt lat="43.1360509" lon="-2.7960634">
        <ele>160.628</ele>
        <time>2021-04-01T09:25:14.626Z</time>
      </trkpt>
      <trkpt lat="43.1360511" lon="-2.7960655">
        <ele>160.657</ele>
        <time>2021-04-01T09:25:14.684Z</time>
      </trkpt>
      <trkpt lat="43.1360515" lon="-2.7960676">
        <ele>160.661</ele>
        <time>2021-04-01T09:25:14.742Z</time>
      </trkpt>
      <trkpt lat="43.1360519" lon="-2.7960697">
        <ele>160.657</ele>
        <time>2021-04-01T09:25:14.800Z</time>
      </trkpt>
      <trkpt lat="43.1360523" lon="-2.7960718">
        <ele>160.723</ele>
        <time>2021-04-01T09:25:14.858Z</time>
      </trkpt>
      <trkpt lat="43.1360527" lon="-2.796074">
        <ele>160.784</ele>
        <time>2021-04-01T09:25:14.916Z</time>
      </trkpt>
      <trkpt lat="43.136053" lon="-2.7960761">
        <ele>160.834</ele>
        <time>2021-04-01T09:25:14.974Z</time>
      </trkpt>
      <trkpt lat="43.1360532" lon="-2.796078">
        <ele>160.83</ele>
        <time>2021-04-01T09:25:15.032Z</time>
      </trkpt>
      <trkpt lat="43.1360535" lon="-2.7960799">
        <ele>160.825</ele>
        <time>2021-04-01T09:25:15.090Z</time>
      </trkpt>
      <trkpt lat="43.1360537" lon="-2.7960821">
        <ele>160.851</ele>
        <time>2021-04-01T09:25:15.148Z</time>
      </trkpt>
      <trkpt lat="43.1360541" lon="-2.7960845">
        <ele>160.932</ele>
        <time>2021-04-01T09:25:15.206Z</time>
      </trkpt>
      <trkpt lat="43.1360543" lon="-2.7960869">
        <ele>160.997</ele>
        <time>2021-04-01T09:25:15.264Z</time>
      </trkpt>
      <trkpt lat="43.1360547" lon="-2.796089">
        <ele>161.011</ele>
        <time>2021-04-01T09:25:15.322Z</time>
      </trkpt>
      <trkpt lat="43.1360551" lon="-2.7960908">
        <ele>161.02</ele>
        <time>2021-04-01T09:25:15.380Z</time>
      </trkpt>
      <trkpt lat="43.1360556" lon="-2.7960925">
        <ele>161.018</ele>
        <time>2021-04-01T09:25:15.439Z</time>
      </trkpt>
      <trkpt lat="43.1360557" lon="-2.7960943">
        <ele>161.023</ele>
        <time>2021-04-01T09:25:15.488Z</time>
      </trkpt>
      <trkpt lat="43.1360559" lon="-2.7960964">
        <ele>161.067</ele>
        <time>2021-04-01T09:25:15.537Z</time>
      </trkpt>
      <trkpt lat="43.1360564" lon="-2.7960984">
        <ele>161.085</ele>
        <time>2021-04-01T09:25:15.586Z</time>
      </trkpt>
      <trkpt lat="43.136057" lon="-2.7961003">
        <ele>161.129</ele>
        <time>2021-04-01T09:25:15.635Z</time>
      </trkpt>
      <trkpt lat="43.1360577" lon="-2.7961021">
        <ele>161.152</ele>
        <time>2021-04-01T09:25:15.685Z</time>
      </trkpt>
      <trkpt lat="43.1360581" lon="-2.7961042">
        <ele>161.165</ele>
        <time>2021-04-01T09:25:15.734Z</time>
      </trkpt>
      <trkpt lat="43.1360586" lon="-2.7961063">
        <ele>161.209</ele>
        <time>2021-04-01T09:25:15.783Z</time>
      </trkpt>
      <trkpt lat="43.1360591" lon="-2.7961081">
        <ele>161.238</ele>
        <time>2021-04-01T09:25:15.832Z</time>
      </trkpt>
      <trkpt lat="43.1360594" lon="-2.7961099">
        <ele>161.246</ele>
        <time>2021-04-01T09:25:15.881Z</time>
      </trkpt>
      <trkpt lat="43.1360596" lon="-2.7961116">
        <ele>161.233</ele>
        <time>2021-04-01T09:25:15.931Z</time>
      </trkpt>
      <trkpt lat="43.1360602" lon="-2.7961134">
        <ele>161.234</ele>
        <time>2021-04-01T09:25:15.980Z</time>
      </trkpt>
      <trkpt lat="43.1360606" lon="-2.7961153">
        <ele>161.237</ele>
        <time>2021-04-01T09:25:16.029Z</time>
      </trkpt>
      <trkpt lat="43.1360611" lon="-2.7961171">
        <ele>161.263</ele>
        <time>2021-04-01T09:25:16.078Z</time>
      </trkpt>
      <trkpt lat="43.1360614" lon="-2.796119">
        <ele>161.275</ele>
        <time>2021-04-01T09:25:16.127Z</time>
      </trkpt>
      <trkpt lat="43.1360618" lon="-2.7961211">
        <ele>161.328</ele>
        <time>2021-04-01T09:25:16.177Z</time>
      </trkpt>
      <trkpt lat="43.1360621" lon="-2.7961231">
        <ele>161.347</ele>
        <time>2021-04-01T09:25:16.226Z</time>
      </trkpt>
      <trkpt lat="43.1360626" lon="-2.7961248">
        <ele>161.368</ele>
        <time>2021-04-01T09:25:16.275Z</time>
      </trkpt>
      <trkpt lat="43.136063" lon="-2.7961266">
        <ele>161.384</ele>
        <time>2021-04-01T09:25:16.324Z</time>
      </trkpt>
      <trkpt lat="43.1360633" lon="-2.7961287">
        <ele>161.421</ele>
        <time>2021-04-01T09:25:16.374Z</time>
      </trkpt>
      <trkpt lat="43.1360637" lon="-2.7961306">
        <ele>161.429</ele>
        <time>2021-04-01T09:25:16.429Z</time>
      </trkpt>
      <trkpt lat="43.136064" lon="-2.7961326">
        <ele>161.466</ele>
        <time>2021-04-01T09:25:16.484Z</time>
      </trkpt>
      <trkpt lat="43.1360643" lon="-2.7961346">
        <ele>161.479</ele>
        <time>2021-04-01T09:25:16.539Z</time>
      </trkpt>
      <trkpt lat="43.1360646" lon="-2.7961367">
        <ele>161.501</ele>
        <time>2021-04-01T09:25:16.594Z</time>
      </trkpt>
      <trkpt lat="43.1360651" lon="-2.7961387">
        <ele>161.53</ele>
        <time>2021-04-01T09:25:16.649Z</time>
      </trkpt>
      <trkpt lat="43.1360657" lon="-2.7961406">
        <ele>161.561</ele>
        <time>2021-04-01T09:25:16.704Z</time>
      </trkpt>
      <trkpt lat="43.1360661" lon="-2.7961427">
        <ele>161.622</ele>
        <time>2021-04-01T09:25:16.759Z</time>
      </trkpt>
      <trkpt lat="43.1360667" lon="-2.7961447">
        <ele>161.669</ele>
        <time>2021-04-01T09:25:16.814Z</time>
      </trkpt>
      <trkpt lat="43.1360674" lon="-2.7961468">
        <ele>161.701</ele>
        <time>2021-04-01T09:25:16.869Z</time>
      </trkpt>
      <trkpt lat="43.1360677" lon="-2.796149">
        <ele>161.735</ele>
        <time>2021-04-01T09:25:16.924Z</time>
      </trkpt>
      <trkpt lat="43.1360683" lon="-2.7961511">
        <ele>161.765</ele>
        <time>2021-04-01T09:25:16.979Z</time>
      </trkpt>
      <trkpt lat="43.1360687" lon="-2.7961532">
        <ele>161.791</ele>
        <time>2021-04-01T09:25:17.034Z</time>
      </trkpt>
      <trkpt lat="43.1360691" lon="-2.7961557">
        <ele>161.828</ele>
        <time>2021-04-01T09:25:17.089Z</time>
      </trkpt>
      <trkpt lat="43.1360695" lon="-2.7961576">
        <ele>161.877</ele>
        <time>2021-04-01T09:25:17.144Z</time>
      </trkpt>
      <trkpt lat="43.1360696" lon="-2.7961594">
        <ele>161.908</ele>
        <time>2021-04-01T09:25:17.199Z</time>
      </trkpt>
      <trkpt lat="43.1360699" lon="-2.7961614">
        <ele>161.87</ele>
        <time>2021-04-01T09:25:17.254Z</time>
      </trkpt>
      <trkpt lat="43.1360703" lon="-2.7961633">
        <ele>161.864</ele>
        <time>2021-04-01T09:25:17.309Z</time>
      </trkpt>
      <trkpt lat="43.1360706" lon="-2.7961656">
        <ele>161.913</ele>
        <time>2021-04-01T09:25:17.364Z</time>
      </trkpt>
      <trkpt lat="43.1360707" lon="-2.7961677">
        <ele>161.969</ele>
        <time>2021-04-01T09:25:17.422Z</time>
      </trkpt>
      <trkpt lat="43.136071" lon="-2.7961697">
        <ele>161.999</ele>
        <time>2021-04-01T09:25:17.480Z</time>
      </trkpt>
      <trkpt lat="43.1360712" lon="-2.7961718">
        <ele>161.991</ele>
        <time>2021-04-01T09:25:17.538Z</time>
      </trkpt>
      <trkpt lat="43.1360717" lon="-2.7961738">
        <ele>162.007</ele>
        <time>2021-04-01T09:25:17.596Z</time>
      </trkpt>
      <trkpt lat="43.1360721" lon="-2.7961758">
        <ele>162.063</ele>
        <time>2021-04-01T09:25:17.654Z</time>
      </trkpt>
      <trkpt lat="43.1360724" lon="-2.7961783">
        <ele>162.143</ele>
        <time>2021-04-01T09:25:17.712Z</time>
      </trkpt>
      <trkpt lat="43.1360729" lon="-2.7961804">
        <ele>162.155</ele>
        <time>2021-04-01T09:25:17.770Z</time>
      </trkpt>
      <trkpt lat="43.1360732" lon="-2.7961828">
        <ele>162.205</ele>
        <time>2021-04-01T09:25:17.828Z</time>
      </trkpt>
      <trkpt lat="43.1360736" lon="-2.7961849">
        <ele>162.237</ele>
        <time>2021-04-01T09:25:17.886Z</time>
      </trkpt>
      <trkpt lat="43.1360739" lon="-2.7961869">
        <ele>162.254</ele>
        <time>2021-04-01T09:25:17.944Z</time>
      </trkpt>
      <trkpt lat="43.1360742" lon="-2.796189">
        <ele>162.263</ele>
        <time>2021-04-01T09:25:18.002Z</time>
      </trkpt>
      <trkpt lat="43.1360748" lon="-2.7961912">
        <ele>162.276</ele>
        <time>2021-04-01T09:25:18.060Z</time>
      </trkpt>
      <trkpt lat="43.1360754" lon="-2.7961933">
        <ele>162.295</ele>
        <time>2021-04-01T09:25:18.118Z</time>
      </trkpt>
      <trkpt lat="43.1360758" lon="-2.7961953">
        <ele>162.331</ele>
        <time>2021-04-01T09:25:18.176Z</time>
      </trkpt>
      <trkpt lat="43.1360764" lon="-2.796197">
        <ele>162.323</ele>
        <time>2021-04-01T09:25:18.234Z</time>
      </trkpt>
      <trkpt lat="43.1360768" lon="-2.7961991">
        <ele>162.342</ele>
        <time>2021-04-01T09:25:18.292Z</time>
      </trkpt>
      <trkpt lat="43.1360771" lon="-2.796201">
        <ele>162.339</ele>
        <time>2021-04-01T09:25:18.350Z</time>
      </trkpt>
      <trkpt lat="43.1360775" lon="-2.7962029">
        <ele>162.362</ele>
        <time>2021-04-01T09:25:18.409Z</time>
      </trkpt>
      <trkpt lat="43.1360778" lon="-2.7962049">
        <ele>162.375</ele>
        <time>2021-04-01T09:25:18.464Z</time>
      </trkpt>
      <trkpt lat="43.1360781" lon="-2.7962068">
        <ele>162.371</ele>
        <time>2021-04-01T09:25:18.519Z</time>
      </trkpt>
      <trkpt lat="43.1360785" lon="-2.796209">
        <ele>162.374</ele>
        <time>2021-04-01T09:25:18.574Z</time>
      </trkpt>
      <trkpt lat="43.1360787" lon="-2.7962106">
        <ele>162.353</ele>
        <time>2021-04-01T09:25:18.629Z</time>
      </trkpt>
      <trkpt lat="43.1360789" lon="-2.7962122">
        <ele>162.319</ele>
        <time>2021-04-01T09:25:18.684Z</time>
      </trkpt>
      <trkpt lat="43.1360793" lon="-2.7962139">
        <ele>162.315</ele>
        <time>2021-04-01T09:25:18.739Z</time>
      </trkpt>
      <trkpt lat="43.1360797" lon="-2.7962157">
        <ele>162.301</ele>
        <time>2021-04-01T09:25:18.794Z</time>
      </trkpt>
      <trkpt lat="43.1360801" lon="-2.7962176">
        <ele>162.281</ele>
        <time>2021-04-01T09:25:18.849Z</time>
      </trkpt>
      <trkpt lat="43.1360804" lon="-2.7962197">
        <ele>162.293</ele>
        <time>2021-04-01T09:25:18.904Z</time>
      </trkpt>
      <trkpt lat="43.1360807" lon="-2.7962218">
        <ele>162.334</ele>
        <time>2021-04-01T09:25:18.959Z</time>
      </trkpt>
      <trkpt lat="43.1360811" lon="-2.796224">
        <ele>162.395</ele>
        <time>2021-04-01T09:25:19.014Z</time>
      </trkpt>
      <trkpt lat="43.1360816" lon="-2.7962263">
        <ele>162.418</ele>
        <time>2021-04-01T09:25:19.069Z</time>
      </trkpt>
      <trkpt lat="43.1360819" lon="-2.7962284">
        <ele>162.418</ele>
        <time>2021-04-01T09:25:19.124Z</time>
      </trkpt>
      <trkpt lat="43.1360822" lon="-2.7962305">
        <ele>162.45</ele>
        <time>2021-04-01T09:25:19.179Z</time>
      </trkpt>
      <trkpt lat="43.1360826" lon="-2.7962324">
        <ele>162.443</ele>
        <time>2021-04-01T09:25:19.234Z</time>
      </trkpt>
      <trkpt lat="43.136083" lon="-2.7962344">
        <ele>162.447</ele>
        <time>2021-04-01T09:25:19.289Z</time>
      </trkpt>
      <trkpt lat="43.1360833" lon="-2.7962363">
        <ele>162.451</ele>
        <time>2021-04-01T09:25:19.344Z</time>
      </trkpt>
      <trkpt lat="43.1360837" lon="-2.7962386">
        <ele>162.488</ele>
        <time>2021-04-01T09:25:19.399Z</time>
      </trkpt>
      <trkpt lat="43.1360839" lon="-2.7962408">
        <ele>162.494</ele>
        <time>2021-04-01T09:25:19.454Z</time>
      </trkpt>
      <trkpt lat="43.1360841" lon="-2.796243">
        <ele>162.498</ele>
        <time>2021-04-01T09:25:19.509Z</time>
      </trkpt>
      <trkpt lat="43.1360846" lon="-2.7962449">
        <ele>162.519</ele>
        <time>2021-04-01T09:25:19.564Z</time>
      </trkpt>
      <trkpt lat="43.1360848" lon="-2.7962469">
        <ele>162.543</ele>
        <time>2021-04-01T09:25:19.619Z</time>
      </trkpt>
      <trkpt lat="43.1360853" lon="-2.796249">
        <ele>162.55</ele>
        <time>2021-04-01T09:25:19.674Z</time>
      </trkpt>
      <trkpt lat="43.1360857" lon="-2.7962509">
        <ele>162.558</ele>
        <time>2021-04-01T09:25:19.729Z</time>
      </trkpt>
      <trkpt lat="43.1360862" lon="-2.7962526">
        <ele>162.534</ele>
        <time>2021-04-01T09:25:19.784Z</time>
      </trkpt>
      <trkpt lat="43.1360864" lon="-2.7962545">
        <ele>162.501</ele>
        <time>2021-04-01T09:25:19.839Z</time>
      </trkpt>
      <trkpt lat="43.1360866" lon="-2.7962566">
        <ele>162.54</ele>
        <time>2021-04-01T09:25:19.894Z</time>
      </trkpt>
      <trkpt lat="43.1360869" lon="-2.7962586">
        <ele>162.572</ele>
        <time>2021-04-01T09:25:19.949Z</time>
      </trkpt>
      <trkpt lat="43.1360876" lon="-2.7962606">
        <ele>162.576</ele>
        <time>2021-04-01T09:25:20.004Z</time>
      </trkpt>
      <trkpt lat="43.1360882" lon="-2.7962624">
        <ele>162.587</ele>
        <time>2021-04-01T09:25:20.059Z</time>
      </trkpt>
      <trkpt lat="43.1360887" lon="-2.7962645">
        <ele>162.605</ele>
        <time>2021-04-01T09:25:20.114Z</time>
      </trkpt>
      <trkpt lat="43.1360892" lon="-2.7962668">
        <ele>162.653</ele>
        <time>2021-04-01T09:25:20.169Z</time>
      </trkpt>
      <trkpt lat="43.1360896" lon="-2.7962689">
        <ele>162.677</ele>
        <time>2021-04-01T09:25:20.224Z</time>
      </trkpt>
      <trkpt lat="43.1360903" lon="-2.7962708">
        <ele>162.671</ele>
        <time>2021-04-01T09:25:20.279Z</time>
      </trkpt>
      <trkpt lat="43.136091" lon="-2.7962726">
        <ele>162.66</ele>
        <time>2021-04-01T09:25:20.334Z</time>
      </trkpt>
      <trkpt lat="43.1360916" lon="-2.7962742">
        <ele>162.649</ele>
        <time>2021-04-01T09:25:20.389Z</time>
      </trkpt>
      <trkpt lat="43.1360921" lon="-2.7962759">
        <ele>162.659</ele>
        <time>2021-04-01T09:25:20.441Z</time>
      </trkpt>
      <trkpt lat="43.1360928" lon="-2.7962777">
        <ele>162.65</ele>
        <time>2021-04-01T09:25:20.493Z</time>
      </trkpt>
      <trkpt lat="43.1360933" lon="-2.7962794">
        <ele>162.639</ele>
        <time>2021-04-01T09:25:20.545Z</time>
      </trkpt>
      <trkpt lat="43.1360937" lon="-2.7962813">
        <ele>162.65</ele>
        <time>2021-04-01T09:25:20.597Z</time>
      </trkpt>
      <trkpt lat="43.1360942" lon="-2.796283">
        <ele>162.647</ele>
        <time>2021-04-01T09:25:20.649Z</time>
      </trkpt>
      <trkpt lat="43.1360947" lon="-2.7962849">
        <ele>162.634</ele>
        <time>2021-04-01T09:25:20.701Z</time>
      </trkpt>
      <trkpt lat="43.1360953" lon="-2.7962867">
        <ele>162.659</ele>
        <time>2021-04-01T09:25:20.753Z</time>
      </trkpt>
      <trkpt lat="43.1360957" lon="-2.7962883">
        <ele>162.642</ele>
        <time>2021-04-01T09:25:20.805Z</time>
      </trkpt>
      <trkpt lat="43.136096" lon="-2.7962898">
        <ele>162.631</ele>
        <time>2021-04-01T09:25:20.857Z</time>
      </trkpt>
      <trkpt lat="43.1360967" lon="-2.7962915">
        <ele>162.611</ele>
        <time>2021-04-01T09:25:20.910Z</time>
      </trkpt>
      <trkpt lat="43.136097" lon="-2.7962936">
        <ele>162.654</ele>
        <time>2021-04-01T09:25:20.962Z</time>
      </trkpt>
      <trkpt lat="43.1360974" lon="-2.7962953">
        <ele>162.658</ele>
        <time>2021-04-01T09:25:21.014Z</time>
      </trkpt>
      <trkpt lat="43.1360979" lon="-2.7962973">
        <ele>162.681</ele>
        <time>2021-04-01T09:25:21.066Z</time>
      </trkpt>
      <trkpt lat="43.1360984" lon="-2.7962994">
        <ele>162.687</ele>
        <time>2021-04-01T09:25:21.118Z</time>
      </trkpt>
      <trkpt lat="43.1360991" lon="-2.7963012">
        <ele>162.687</ele>
        <time>2021-04-01T09:25:21.170Z</time>
      </trkpt>
      <trkpt lat="43.1360995" lon="-2.7963031">
        <ele>162.708</ele>
        <time>2021-04-01T09:25:21.222Z</time>
      </trkpt>
      <trkpt lat="43.1360998" lon="-2.7963051">
        <ele>162.727</ele>
        <time>2021-04-01T09:25:21.274Z</time>
      </trkpt>
      <trkpt lat="43.1361003" lon="-2.7963069">
        <ele>162.725</ele>
        <time>2021-04-01T09:25:21.326Z</time>
      </trkpt>
      <trkpt lat="43.1361009" lon="-2.7963088">
        <ele>162.743</ele>
        <time>2021-04-01T09:25:21.379Z</time>
      </trkpt>
      <trkpt lat="43.1361015" lon="-2.7963108">
        <ele>162.736</ele>
        <time>2021-04-01T09:25:21.437Z</time>
      </trkpt>
      <trkpt lat="43.136102" lon="-2.7963128">
        <ele>162.766</ele>
        <time>2021-04-01T09:25:21.495Z</time>
      </trkpt>
      <trkpt lat="43.1361023" lon="-2.796315">
        <ele>162.8</ele>
        <time>2021-04-01T09:25:21.553Z</time>
      </trkpt>
      <trkpt lat="43.1361028" lon="-2.796317">
        <ele>162.813</ele>
        <time>2021-04-01T09:25:21.611Z</time>
      </trkpt>
      <trkpt lat="43.1361031" lon="-2.796319">
        <ele>162.853</ele>
        <time>2021-04-01T09:25:21.669Z</time>
      </trkpt>
      <trkpt lat="43.1361037" lon="-2.7963212">
        <ele>162.91</ele>
        <time>2021-04-01T09:25:21.727Z</time>
      </trkpt>
      <trkpt lat="43.1361043" lon="-2.7963236">
        <ele>162.98</ele>
        <time>2021-04-01T09:25:21.785Z</time>
      </trkpt>
      <trkpt lat="43.1361047" lon="-2.7963258">
        <ele>163.008</ele>
        <time>2021-04-01T09:25:21.843Z</time>
      </trkpt>
      <trkpt lat="43.1361049" lon="-2.7963277">
        <ele>162.987</ele>
        <time>2021-04-01T09:25:21.901Z</time>
      </trkpt>
      <trkpt lat="43.1361053" lon="-2.7963296">
        <ele>163.026</ele>
        <time>2021-04-01T09:25:21.959Z</time>
      </trkpt>
      <trkpt lat="43.1361056" lon="-2.7963322">
        <ele>163.1</ele>
        <time>2021-04-01T09:25:22.017Z</time>
      </trkpt>
      <trkpt lat="43.1361063" lon="-2.7963342">
        <ele>163.105</ele>
        <time>2021-04-01T09:25:22.075Z</time>
      </trkpt>
      <trkpt lat="43.1361067" lon="-2.796336">
        <ele>163.104</ele>
        <time>2021-04-01T09:25:22.133Z</time>
      </trkpt>
      <trkpt lat="43.136107" lon="-2.796338">
        <ele>163.141</ele>
        <time>2021-04-01T09:25:22.191Z</time>
      </trkpt>
      <trkpt lat="43.1361074" lon="-2.7963401">
        <ele>163.169</ele>
        <time>2021-04-01T09:25:22.249Z</time>
      </trkpt>
      <trkpt lat="43.1361078" lon="-2.7963423">
        <ele>163.182</ele>
        <time>2021-04-01T09:25:22.307Z</time>
      </trkpt>
      <trkpt lat="43.1361081" lon="-2.7963445">
        <ele>163.189</ele>
        <time>2021-04-01T09:25:22.365Z</time>
      </trkpt>
      <trkpt lat="43.1361085" lon="-2.7963468">
        <ele>163.23</ele>
        <time>2021-04-01T09:25:22.424Z</time>
      </trkpt>
      <trkpt lat="43.1361089" lon="-2.7963489">
        <ele>163.252</ele>
        <time>2021-04-01T09:25:22.479Z</time>
      </trkpt>
      <trkpt lat="43.1361093" lon="-2.7963512">
        <ele>163.288</ele>
        <time>2021-04-01T09:25:22.534Z</time>
      </trkpt>
      <trkpt lat="43.1361094" lon="-2.7963537">
        <ele>163.327</ele>
        <time>2021-04-01T09:25:22.589Z</time>
      </trkpt>
      <trkpt lat="43.1361097" lon="-2.7963558">
        <ele>163.346</ele>
        <time>2021-04-01T09:25:22.644Z</time>
      </trkpt>
      <trkpt lat="43.1361102" lon="-2.7963579">
        <ele>163.38</ele>
        <time>2021-04-01T09:25:22.699Z</time>
      </trkpt>
      <trkpt lat="43.1361106" lon="-2.7963599">
        <ele>163.403</ele>
        <time>2021-04-01T09:25:22.754Z</time>
      </trkpt>
      <trkpt lat="43.136111" lon="-2.7963619">
        <ele>163.408</ele>
        <time>2021-04-01T09:25:22.809Z</time>
      </trkpt>
      <trkpt lat="43.1361111" lon="-2.7963639">
        <ele>163.418</ele>
        <time>2021-04-01T09:25:22.864Z</time>
      </trkpt>
      <trkpt lat="43.1361114" lon="-2.796366">
        <ele>163.418</ele>
        <time>2021-04-01T09:25:22.919Z</time>
      </trkpt>
      <trkpt lat="43.136112" lon="-2.7963681">
        <ele>163.444</ele>
        <time>2021-04-01T09:25:22.974Z</time>
      </trkpt>
      <trkpt lat="43.1361125" lon="-2.7963701">
        <ele>163.449</ele>
        <time>2021-04-01T09:25:23.029Z</time>
      </trkpt>
      <trkpt lat="43.1361129" lon="-2.7963718">
        <ele>163.439</ele>
        <time>2021-04-01T09:25:23.084Z</time>
      </trkpt>
      <trkpt lat="43.1361132" lon="-2.7963733">
        <ele>163.387</ele>
        <time>2021-04-01T09:25:23.139Z</time>
      </trkpt>
      <trkpt lat="43.1361139" lon="-2.7963752">
        <ele>163.416</ele>
        <time>2021-04-01T09:25:23.194Z</time>
      </trkpt>
      <trkpt lat="43.1361142" lon="-2.7963773">
        <ele>163.434</ele>
        <time>2021-04-01T09:25:23.249Z</time>
      </trkpt>
      <trkpt lat="43.1361147" lon="-2.7963793">
        <ele>163.442</ele>
        <time>2021-04-01T09:25:23.304Z</time>
      </trkpt>
      <trkpt lat="43.1361153" lon="-2.7963816">
        <ele>163.445</ele>
        <time>2021-04-01T09:25:23.359Z</time>
      </trkpt>
      <trkpt lat="43.1361157" lon="-2.7963836">
        <ele>163.459</ele>
        <time>2021-04-01T09:25:23.414Z</time>
      </trkpt>
      <trkpt lat="43.1361161" lon="-2.7963857">
        <ele>163.501</ele>
        <time>2021-04-01T09:25:23.469Z</time>
      </trkpt>
      <trkpt lat="43.1361168" lon="-2.7963879">
        <ele>163.524</ele>
        <time>2021-04-01T09:25:23.524Z</time>
      </trkpt>
      <trkpt lat="43.1361173" lon="-2.7963901">
        <ele>163.541</ele>
        <time>2021-04-01T09:25:23.579Z</time>
      </trkpt>
      <trkpt lat="43.1361177" lon="-2.7963924">
        <ele>163.561</ele>
        <time>2021-04-01T09:25:23.634Z</time>
      </trkpt>
      <trkpt lat="43.136118" lon="-2.7963945">
        <ele>163.587</ele>
        <time>2021-04-01T09:25:23.689Z</time>
      </trkpt>
      <trkpt lat="43.1361182" lon="-2.7963964">
        <ele>163.593</ele>
        <time>2021-04-01T09:25:23.744Z</time>
      </trkpt>
      <trkpt lat="43.1361186" lon="-2.7963987">
        <ele>163.62</ele>
        <time>2021-04-01T09:25:23.799Z</time>
      </trkpt>
      <trkpt lat="43.1361191" lon="-2.7964008">
        <ele>163.619</ele>
        <time>2021-04-01T09:25:23.854Z</time>
      </trkpt>
      <trkpt lat="43.1361195" lon="-2.7964029">
        <ele>163.627</ele>
        <time>2021-04-01T09:25:23.909Z</time>
      </trkpt>
      <trkpt lat="43.1361197" lon="-2.796405">
        <ele>163.664</ele>
        <time>2021-04-01T09:25:23.964Z</time>
      </trkpt>
      <trkpt lat="43.1361201" lon="-2.7964073">
        <ele>163.685</ele>
        <time>2021-04-01T09:25:24.019Z</time>
      </trkpt>
      <trkpt lat="43.1361206" lon="-2.7964096">
        <ele>163.705</ele>
        <time>2021-04-01T09:25:24.074Z</time>
      </trkpt>
      <trkpt lat="43.1361211" lon="-2.7964118">
        <ele>163.72</ele>
        <time>2021-04-01T09:25:24.129Z</time>
      </trkpt>
      <trkpt lat="43.1361213" lon="-2.7964139">
        <ele>163.725</ele>
        <time>2021-04-01T09:25:24.184Z</time>
      </trkpt>
      <trkpt lat="43.1361216" lon="-2.7964162">
        <ele>163.738</ele>
        <time>2021-04-01T09:25:24.239Z</time>
      </trkpt>
      <trkpt lat="43.136122" lon="-2.7964183">
        <ele>163.728</ele>
        <time>2021-04-01T09:25:24.294Z</time>
      </trkpt>
      <trkpt lat="43.1361226" lon="-2.7964205">
        <ele>163.762</ele>
        <time>2021-04-01T09:25:24.349Z</time>
      </trkpt>
      <trkpt lat="43.1361232" lon="-2.796423">
        <ele>163.821</ele>
        <time>2021-04-01T09:25:24.404Z</time>
      </trkpt>
      <trkpt lat="43.1361237" lon="-2.7964255">
        <ele>163.881</ele>
        <time>2021-04-01T09:25:24.459Z</time>
      </trkpt>
      <trkpt lat="43.1361241" lon="-2.7964281">
        <ele>163.914</ele>
        <time>2021-04-01T09:25:24.514Z</time>
      </trkpt>
      <trkpt lat="43.1361246" lon="-2.7964302">
        <ele>163.958</ele>
        <time>2021-04-01T09:25:24.569Z</time>
      </trkpt>
      <trkpt lat="43.1361249" lon="-2.7964324">
        <ele>163.968</ele>
        <time>2021-04-01T09:25:24.624Z</time>
      </trkpt>
      <trkpt lat="43.1361252" lon="-2.7964344">
        <ele>163.965</ele>
        <time>2021-04-01T09:25:24.679Z</time>
      </trkpt>
      <trkpt lat="43.1361254" lon="-2.7964364">
        <ele>163.954</ele>
        <time>2021-04-01T09:25:24.734Z</time>
      </trkpt>
      <trkpt lat="43.1361259" lon="-2.7964389">
        <ele>164.001</ele>
        <time>2021-04-01T09:25:24.789Z</time>
      </trkpt>
      <trkpt lat="43.1361264" lon="-2.7964411">
        <ele>164.041</ele>
        <time>2021-04-01T09:25:24.844Z</time>
      </trkpt>
      <trkpt lat="43.1361272" lon="-2.7964433">
        <ele>164.08</ele>
        <time>2021-04-01T09:25:24.899Z</time>
      </trkpt>
      <trkpt lat="43.1361274" lon="-2.7964454">
        <ele>164.061</ele>
        <time>2021-04-01T09:25:24.954Z</time>
      </trkpt>
      <trkpt lat="43.1361278" lon="-2.7964475">
        <ele>164.069</ele>
        <time>2021-04-01T09:25:25.009Z</time>
      </trkpt>
      <trkpt lat="43.1361284" lon="-2.7964495">
        <ele>164.066</ele>
        <time>2021-04-01T09:25:25.064Z</time>
      </trkpt>
      <trkpt lat="43.1361286" lon="-2.7964512">
        <ele>164.024</ele>
        <time>2021-04-01T09:25:25.119Z</time>
      </trkpt>
      <trkpt lat="43.1361286" lon="-2.7964529">
        <ele>163.985</ele>
        <time>2021-04-01T09:25:25.174Z</time>
      </trkpt>
      <trkpt lat="43.1361286" lon="-2.7964545">
        <ele>163.899</ele>
        <time>2021-04-01T09:25:25.229Z</time>
      </trkpt>
      <trkpt lat="43.1361289" lon="-2.7964566">
        <ele>163.918</ele>
        <time>2021-04-01T09:25:25.284Z</time>
      </trkpt>
      <trkpt lat="43.1361296" lon="-2.7964589">
        <ele>163.945</ele>
        <time>2021-04-01T09:25:25.339Z</time>
      </trkpt>
      <trkpt lat="43.1361301" lon="-2.7964612">
        <ele>163.991</ele>
        <time>2021-04-01T09:25:25.394Z</time>
      </trkpt>
      <trkpt lat="43.1361307" lon="-2.7964639">
        <ele>164.08</ele>
        <time>2021-04-01T09:25:25.449Z</time>
      </trkpt>
      <trkpt lat="43.136131" lon="-2.7964662">
        <ele>164.107</ele>
        <time>2021-04-01T09:25:25.504Z</time>
      </trkpt>
      <trkpt lat="43.1361312" lon="-2.7964683">
        <ele>164.105</ele>
        <time>2021-04-01T09:25:25.559Z</time>
      </trkpt>
      <trkpt lat="43.1361313" lon="-2.7964702">
        <ele>164.077</ele>
        <time>2021-04-01T09:25:25.614Z</time>
      </trkpt>
      <trkpt lat="43.1361314" lon="-2.796472">
        <ele>164.064</ele>
        <time>2021-04-01T09:25:25.669Z</time>
      </trkpt>
      <trkpt lat="43.1361316" lon="-2.7964737">
        <ele>164.048</ele>
        <time>2021-04-01T09:25:25.724Z</time>
      </trkpt>
      <trkpt lat="43.136132" lon="-2.7964759">
        <ele>164.014</ele>
        <time>2021-04-01T09:25:25.779Z</time>
      </trkpt>
      <trkpt lat="43.1361329" lon="-2.7964782">
        <ele>164.04</ele>
        <time>2021-04-01T09:25:25.834Z</time>
      </trkpt>
      <trkpt lat="43.1361334" lon="-2.7964804">
        <ele>164.035</ele>
        <time>2021-04-01T09:25:25.889Z</time>
      </trkpt>
      <trkpt lat="43.1361337" lon="-2.7964826">
        <ele>164.038</ele>
        <time>2021-04-01T09:25:25.944Z</time>
      </trkpt>
      <trkpt lat="43.1361339" lon="-2.7964845">
        <ele>164.03</ele>
        <time>2021-04-01T09:25:25.999Z</time>
      </trkpt>
      <trkpt lat="43.1361344" lon="-2.7964864">
        <ele>164.005</ele>
        <time>2021-04-01T09:25:26.054Z</time>
      </trkpt>
      <trkpt lat="43.1361349" lon="-2.7964884">
        <ele>163.996</ele>
        <time>2021-04-01T09:25:26.109Z</time>
      </trkpt>
      <trkpt lat="43.1361354" lon="-2.7964903">
        <ele>163.993</ele>
        <time>2021-04-01T09:25:26.164Z</time>
      </trkpt>
      <trkpt lat="43.136136" lon="-2.7964923">
        <ele>163.985</ele>
        <time>2021-04-01T09:25:26.219Z</time>
      </trkpt>
      <trkpt lat="43.1361361" lon="-2.7964945">
        <ele>163.988</ele>
        <time>2021-04-01T09:25:26.274Z</time>
      </trkpt>
      <trkpt lat="43.1361365" lon="-2.7964967">
        <ele>163.987</ele>
        <time>2021-04-01T09:25:26.329Z</time>
      </trkpt>
      <trkpt lat="43.1361372" lon="-2.7964987">
        <ele>163.989</ele>
        <time>2021-04-01T09:25:26.384Z</time>
      </trkpt>
      <trkpt lat="43.1361377" lon="-2.7965004">
        <ele>163.991</ele>
        <time>2021-04-01T09:25:26.439Z</time>
      </trkpt>
      <trkpt lat="43.1361377" lon="-2.7965024">
        <ele>163.988</ele>
        <time>2021-04-01T09:25:26.494Z</time>
      </trkpt>
      <trkpt lat="43.1361381" lon="-2.7965045">
        <ele>163.982</ele>
        <time>2021-04-01T09:25:26.549Z</time>
      </trkpt>
      <trkpt lat="43.1361388" lon="-2.7965069">
        <ele>164.023</ele>
        <time>2021-04-01T09:25:26.604Z</time>
      </trkpt>
      <trkpt lat="43.1361398" lon="-2.7965091">
        <ele>164.047</ele>
        <time>2021-04-01T09:25:26.659Z</time>
      </trkpt>
      <trkpt lat="43.1361403" lon="-2.7965113">
        <ele>164.042</ele>
        <time>2021-04-01T09:25:26.714Z</time>
      </trkpt>
      <trkpt lat="43.1361407" lon="-2.7965136">
        <ele>164.05</ele>
        <time>2021-04-01T09:25:26.769Z</time>
      </trkpt>
      <trkpt lat="43.1361411" lon="-2.7965158">
        <ele>164.077</ele>
        <time>2021-04-01T09:25:26.824Z</time>
      </trkpt>
      <trkpt lat="43.1361415" lon="-2.7965179">
        <ele>164.105</ele>
        <time>2021-04-01T09:25:26.879Z</time>
      </trkpt>
      <trkpt lat="43.1361418" lon="-2.7965201">
        <ele>164.117</ele>
        <time>2021-04-01T09:25:26.934Z</time>
      </trkpt>
      <trkpt lat="43.1361424" lon="-2.7965224">
        <ele>164.129</ele>
        <time>2021-04-01T09:25:26.989Z</time>
      </trkpt>
      <trkpt lat="43.1361429" lon="-2.7965245">
        <ele>164.156</ele>
        <time>2021-04-01T09:25:27.044Z</time>
      </trkpt>
      <trkpt lat="43.1361434" lon="-2.7965268">
        <ele>164.194</ele>
        <time>2021-04-01T09:25:27.099Z</time>
      </trkpt>
      <trkpt lat="43.1361435" lon="-2.7965288">
        <ele>164.174</ele>
        <time>2021-04-01T09:25:27.154Z</time>
      </trkpt>
      <trkpt lat="43.1361439" lon="-2.7965307">
        <ele>164.154</ele>
        <time>2021-04-01T09:25:27.209Z</time>
      </trkpt>
      <trkpt lat="43.1361443" lon="-2.7965325">
        <ele>164.121</ele>
        <time>2021-04-01T09:25:27.264Z</time>
      </trkpt>
      <trkpt lat="43.1361446" lon="-2.7965342">
        <ele>164.114</ele>
        <time>2021-04-01T09:25:27.319Z</time>
      </trkpt>
      <trkpt lat="43.1361448" lon="-2.7965363">
        <ele>164.153</ele>
        <time>2021-04-01T09:25:27.374Z</time>
      </trkpt>
      <trkpt lat="43.1361452" lon="-2.7965384">
        <ele>164.152</ele>
        <time>2021-04-01T09:25:27.429Z</time>
      </trkpt>
      <trkpt lat="43.136145" lon="-2.7965403">
        <ele>164.135</ele>
        <time>2021-04-01T09:25:27.484Z</time>
      </trkpt>
      <trkpt lat="43.1361455" lon="-2.7965427">
        <ele>164.195</ele>
        <time>2021-04-01T09:25:27.539Z</time>
      </trkpt>
      <trkpt lat="43.1361459" lon="-2.7965451">
        <ele>164.244</ele>
        <time>2021-04-01T09:25:27.594Z</time>
      </trkpt>
      <trkpt lat="43.1361464" lon="-2.7965474">
        <ele>164.27</ele>
        <time>2021-04-01T09:25:27.649Z</time>
      </trkpt>
      <trkpt lat="43.1361467" lon="-2.7965496">
        <ele>164.267</ele>
        <time>2021-04-01T09:25:27.704Z</time>
      </trkpt>
      <trkpt lat="43.1361471" lon="-2.7965517">
        <ele>164.271</ele>
        <time>2021-04-01T09:25:27.759Z</time>
      </trkpt>
      <trkpt lat="43.1361473" lon="-2.7965539">
        <ele>164.258</ele>
        <time>2021-04-01T09:25:27.814Z</time>
      </trkpt>
      <trkpt lat="43.1361478" lon="-2.796556">
        <ele>164.275</ele>
        <time>2021-04-01T09:25:27.869Z</time>
      </trkpt>
      <trkpt lat="43.1361481" lon="-2.7965579">
        <ele>164.263</ele>
        <time>2021-04-01T09:25:27.924Z</time>
      </trkpt>
      <trkpt lat="43.1361485" lon="-2.7965601">
        <ele>164.266</ele>
        <time>2021-04-01T09:25:27.979Z</time>
      </trkpt>
      <trkpt lat="43.136149" lon="-2.7965624">
        <ele>164.285</ele>
        <time>2021-04-01T09:25:28.034Z</time>
      </trkpt>
      <trkpt lat="43.1361494" lon="-2.7965647">
        <ele>164.329</ele>
        <time>2021-04-01T09:25:28.089Z</time>
      </trkpt>
      <trkpt lat="43.1361499" lon="-2.7965667">
        <ele>164.327</ele>
        <time>2021-04-01T09:25:28.144Z</time>
      </trkpt>
      <trkpt lat="43.1361504" lon="-2.7965688">
        <ele>164.333</ele>
        <time>2021-04-01T09:25:28.199Z</time>
      </trkpt>
      <trkpt lat="43.1361507" lon="-2.7965707">
        <ele>164.346</ele>
        <time>2021-04-01T09:25:28.254Z</time>
      </trkpt>
      <trkpt lat="43.1361509" lon="-2.796573">
        <ele>164.376</ele>
        <time>2021-04-01T09:25:28.309Z</time>
      </trkpt>
      <trkpt lat="43.1361513" lon="-2.7965749">
        <ele>164.334</ele>
        <time>2021-04-01T09:25:28.364Z</time>
      </trkpt>
      <trkpt lat="43.1361514" lon="-2.7965767">
        <ele>164.271</ele>
        <time>2021-04-01T09:25:28.419Z</time>
      </trkpt>
      <trkpt lat="43.1361517" lon="-2.7965788">
        <ele>164.279</ele>
        <time>2021-04-01T09:25:28.474Z</time>
      </trkpt>
      <trkpt lat="43.1361524" lon="-2.796581">
        <ele>164.318</ele>
        <time>2021-04-01T09:25:28.529Z</time>
      </trkpt>
      <trkpt lat="43.1361527" lon="-2.796583">
        <ele>164.317</ele>
        <time>2021-04-01T09:25:28.584Z</time>
      </trkpt>
      <trkpt lat="43.136153" lon="-2.7965853">
        <ele>164.338</ele>
        <time>2021-04-01T09:25:28.639Z</time>
      </trkpt>
      <trkpt lat="43.1361535" lon="-2.7965879">
        <ele>164.39</ele>
        <time>2021-04-01T09:25:28.694Z</time>
      </trkpt>
      <trkpt lat="43.1361539" lon="-2.79659">
        <ele>164.395</ele>
        <time>2021-04-01T09:25:28.749Z</time>
      </trkpt>
      <trkpt lat="43.1361543" lon="-2.7965924">
        <ele>164.43</ele>
        <time>2021-04-01T09:25:28.804Z</time>
      </trkpt>
      <trkpt lat="43.136155" lon="-2.7965947">
        <ele>164.462</ele>
        <time>2021-04-01T09:25:28.859Z</time>
      </trkpt>
      <trkpt lat="43.1361559" lon="-2.7965971">
        <ele>164.498</ele>
        <time>2021-04-01T09:25:28.914Z</time>
      </trkpt>
      <trkpt lat="43.1361564" lon="-2.7965992">
        <ele>164.502</ele>
        <time>2021-04-01T09:25:28.969Z</time>
      </trkpt>
      <trkpt lat="43.1361568" lon="-2.7966014">
        <ele>164.522</ele>
        <time>2021-04-01T09:25:29.024Z</time>
      </trkpt>
      <trkpt lat="43.1361578" lon="-2.7966037">
        <ele>164.562</ele>
        <time>2021-04-01T09:25:29.079Z</time>
      </trkpt>
      <trkpt lat="43.1361581" lon="-2.7966057">
        <ele>164.543</ele>
        <time>2021-04-01T09:25:29.134Z</time>
      </trkpt>
      <trkpt lat="43.1361585" lon="-2.7966079">
        <ele>164.562</ele>
        <time>2021-04-01T09:25:29.189Z</time>
      </trkpt>
      <trkpt lat="43.1361589" lon="-2.7966104">
        <ele>164.586</ele>
        <time>2021-04-01T09:25:29.244Z</time>
      </trkpt>
      <trkpt lat="43.1361593" lon="-2.7966126">
        <ele>164.59</ele>
        <time>2021-04-01T09:25:29.299Z</time>
      </trkpt>
      <trkpt lat="43.1361596" lon="-2.796615">
        <ele>164.616</ele>
        <time>2021-04-01T09:25:29.354Z</time>
      </trkpt>
      <trkpt lat="43.1361601" lon="-2.7966169">
        <ele>164.631</ele>
        <time>2021-04-01T09:25:29.409Z</time>
      </trkpt>
      <trkpt lat="43.1361605" lon="-2.7966188">
        <ele>164.614</ele>
        <time>2021-04-01T09:25:29.461Z</time>
      </trkpt>
      <trkpt lat="43.1361611" lon="-2.7966209">
        <ele>164.606</ele>
        <time>2021-04-01T09:25:29.513Z</time>
      </trkpt>
      <trkpt lat="43.1361617" lon="-2.7966226">
        <ele>164.571</ele>
        <time>2021-04-01T09:25:29.565Z</time>
      </trkpt>
      <trkpt lat="43.1361621" lon="-2.7966248">
        <ele>164.584</ele>
        <time>2021-04-01T09:25:29.617Z</time>
      </trkpt>
      <trkpt lat="43.1361627" lon="-2.7966269">
        <ele>164.549</ele>
        <time>2021-04-01T09:25:29.669Z</time>
      </trkpt>
      <trkpt lat="43.1361632" lon="-2.796629">
        <ele>164.548</ele>
        <time>2021-04-01T09:25:29.721Z</time>
      </trkpt>
      <trkpt lat="43.1361638" lon="-2.7966308">
        <ele>164.571</ele>
        <time>2021-04-01T09:25:29.773Z</time>
      </trkpt>
      <trkpt lat="43.1361645" lon="-2.7966328">
        <ele>164.603</ele>
        <time>2021-04-01T09:25:29.825Z</time>
      </trkpt>
      <trkpt lat="43.1361649" lon="-2.796635">
        <ele>164.621</ele>
        <time>2021-04-01T09:25:29.877Z</time>
      </trkpt>
      <trkpt lat="43.1361656" lon="-2.7966371">
        <ele>164.65</ele>
        <time>2021-04-01T09:25:29.930Z</time>
      </trkpt>
      <trkpt lat="43.1361661" lon="-2.7966393">
        <ele>164.679</ele>
        <time>2021-04-01T09:25:29.982Z</time>
      </trkpt>
      <trkpt lat="43.1361667" lon="-2.7966414">
        <ele>164.68</ele>
        <time>2021-04-01T09:25:30.034Z</time>
      </trkpt>
      <trkpt lat="43.1361677" lon="-2.7966438">
        <ele>164.704</ele>
        <time>2021-04-01T09:25:30.086Z</time>
      </trkpt>
      <trkpt lat="43.1361683" lon="-2.7966458">
        <ele>164.692</ele>
        <time>2021-04-01T09:25:30.138Z</time>
      </trkpt>
      <trkpt lat="43.1361689" lon="-2.796648">
        <ele>164.715</ele>
        <time>2021-04-01T09:25:30.190Z</time>
      </trkpt>
      <trkpt lat="43.1361695" lon="-2.7966502">
        <ele>164.746</ele>
        <time>2021-04-01T09:25:30.242Z</time>
      </trkpt>
      <trkpt lat="43.1361703" lon="-2.7966522">
        <ele>164.76</ele>
        <time>2021-04-01T09:25:30.294Z</time>
      </trkpt>
      <trkpt lat="43.1361711" lon="-2.7966542">
        <ele>164.734</ele>
        <time>2021-04-01T09:25:30.346Z</time>
      </trkpt>
      <trkpt lat="43.1361717" lon="-2.7966563">
        <ele>164.76</ele>
        <time>2021-04-01T09:25:30.399Z</time>
      </trkpt>
      <trkpt lat="43.1361723" lon="-2.7966586">
        <ele>164.789</ele>
        <time>2021-04-01T09:25:30.457Z</time>
      </trkpt>
      <trkpt lat="43.1361729" lon="-2.796661">
        <ele>164.811</ele>
        <time>2021-04-01T09:25:30.515Z</time>
      </trkpt>
      <trkpt lat="43.1361736" lon="-2.7966632">
        <ele>164.813</ele>
        <time>2021-04-01T09:25:30.573Z</time>
      </trkpt>
      <trkpt lat="43.1361748" lon="-2.796665">
        <ele>164.854</ele>
        <time>2021-04-01T09:25:30.631Z</time>
      </trkpt>
      <trkpt lat="43.1361754" lon="-2.7966667">
        <ele>164.874</ele>
        <time>2021-04-01T09:25:30.690Z</time>
      </trkpt>
      <trkpt lat="43.1361762" lon="-2.7966682">
        <ele>164.838</ele>
        <time>2021-04-01T09:25:30.748Z</time>
      </trkpt>
      <trkpt lat="43.1361764" lon="-2.7966701">
        <ele>164.8</ele>
        <time>2021-04-01T09:25:30.806Z</time>
      </trkpt>
      <trkpt lat="43.1361769" lon="-2.796672">
        <ele>164.814</ele>
        <time>2021-04-01T09:25:30.864Z</time>
      </trkpt>
      <trkpt lat="43.1361774" lon="-2.7966741">
        <ele>164.816</ele>
        <time>2021-04-01T09:25:30.923Z</time>
      </trkpt>
      <trkpt lat="43.1361779" lon="-2.796676">
        <ele>164.832</ele>
        <time>2021-04-01T09:25:30.981Z</time>
      </trkpt>
      <trkpt lat="43.136178" lon="-2.7966781">
        <ele>164.862</ele>
        <time>2021-04-01T09:25:31.039Z</time>
      </trkpt>
      <trkpt lat="43.1361782" lon="-2.7966799">
        <ele>164.853</ele>
        <time>2021-04-01T09:25:31.097Z</time>
      </trkpt>
      <trkpt lat="43.1361786" lon="-2.7966821">
        <ele>164.854</ele>
        <time>2021-04-01T09:25:31.156Z</time>
      </trkpt>
      <trkpt lat="43.1361791" lon="-2.7966848">
        <ele>164.932</ele>
        <time>2021-04-01T09:25:31.214Z</time>
      </trkpt>
      <trkpt lat="43.1361795" lon="-2.796687">
        <ele>164.967</ele>
        <time>2021-04-01T09:25:31.272Z</time>
      </trkpt>
      <trkpt lat="43.13618" lon="-2.7966892">
        <ele>165.007</ele>
        <time>2021-04-01T09:25:31.330Z</time>
      </trkpt>
      <trkpt lat="43.1361807" lon="-2.7966916">
        <ele>165.023</ele>
        <time>2021-04-01T09:25:31.389Z</time>
      </trkpt>
      <trkpt lat="43.1361813" lon="-2.7966939">
        <ele>165.051</ele>
        <time>2021-04-01T09:25:31.444Z</time>
      </trkpt>
      <trkpt lat="43.1361815" lon="-2.796696">
        <ele>165.07</ele>
        <time>2021-04-01T09:25:31.499Z</time>
      </trkpt>
      <trkpt lat="43.136182" lon="-2.7966983">
        <ele>165.135</ele>
        <time>2021-04-01T09:25:31.554Z</time>
      </trkpt>
      <trkpt lat="43.1361826" lon="-2.7967003">
        <ele>165.176</ele>
        <time>2021-04-01T09:25:31.609Z</time>
      </trkpt>
      <trkpt lat="43.1361832" lon="-2.7967025">
        <ele>165.171</ele>
        <time>2021-04-01T09:25:31.664Z</time>
      </trkpt>
      <trkpt lat="43.1361837" lon="-2.7967045">
        <ele>165.196</ele>
        <time>2021-04-01T09:25:31.719Z</time>
      </trkpt>
      <trkpt lat="43.1361844" lon="-2.7967065">
        <ele>165.21</ele>
        <time>2021-04-01T09:25:31.774Z</time>
      </trkpt>
      <trkpt lat="43.1361847" lon="-2.7967088">
        <ele>165.202</ele>
        <time>2021-04-01T09:25:31.829Z</time>
      </trkpt>
      <trkpt lat="43.1361852" lon="-2.796711">
        <ele>165.228</ele>
        <time>2021-04-01T09:25:31.884Z</time>
      </trkpt>
      <trkpt lat="43.1361856" lon="-2.7967129">
        <ele>165.236</ele>
        <time>2021-04-01T09:25:31.939Z</time>
      </trkpt>
      <trkpt lat="43.1361862" lon="-2.7967148">
        <ele>165.227</ele>
        <time>2021-04-01T09:25:31.994Z</time>
      </trkpt>
      <trkpt lat="43.1361865" lon="-2.7967169">
        <ele>165.222</ele>
        <time>2021-04-01T09:25:32.049Z</time>
      </trkpt>
      <trkpt lat="43.1361872" lon="-2.7967189">
        <ele>165.254</ele>
        <time>2021-04-01T09:25:32.104Z</time>
      </trkpt>
      <trkpt lat="43.1361878" lon="-2.796721">
        <ele>165.26</ele>
        <time>2021-04-01T09:25:32.159Z</time>
      </trkpt>
      <trkpt lat="43.1361883" lon="-2.7967227">
        <ele>165.226</ele>
        <time>2021-04-01T09:25:32.214Z</time>
      </trkpt>
      <trkpt lat="43.136189" lon="-2.7967249">
        <ele>165.241</ele>
        <time>2021-04-01T09:25:32.269Z</time>
      </trkpt>
      <trkpt lat="43.1361895" lon="-2.7967271">
        <ele>165.261</ele>
        <time>2021-04-01T09:25:32.324Z</time>
      </trkpt>
      <trkpt lat="43.1361904" lon="-2.7967289">
        <ele>165.273</ele>
        <time>2021-04-01T09:25:32.379Z</time>
      </trkpt>
      <trkpt lat="43.1361909" lon="-2.7967312">
        <ele>165.302</ele>
        <time>2021-04-01T09:25:32.434Z</time>
      </trkpt>
      <trkpt lat="43.1361913" lon="-2.7967331">
        <ele>165.299</ele>
        <time>2021-04-01T09:25:32.489Z</time>
      </trkpt>
      <trkpt lat="43.1361923" lon="-2.7967353">
        <ele>165.365</ele>
        <time>2021-04-01T09:25:32.544Z</time>
      </trkpt>
      <trkpt lat="43.136193" lon="-2.7967373">
        <ele>165.419</ele>
        <time>2021-04-01T09:25:32.599Z</time>
      </trkpt>
      <trkpt lat="43.1361936" lon="-2.7967395">
        <ele>165.438</ele>
        <time>2021-04-01T09:25:32.654Z</time>
      </trkpt>
      <trkpt lat="43.1361943" lon="-2.7967418">
        <ele>165.45</ele>
        <time>2021-04-01T09:25:32.709Z</time>
      </trkpt>
      <trkpt lat="43.1361949" lon="-2.796744">
        <ele>165.466</ele>
        <time>2021-04-01T09:25:32.764Z</time>
      </trkpt>
      <trkpt lat="43.1361956" lon="-2.7967461">
        <ele>165.489</ele>
        <time>2021-04-01T09:25:32.819Z</time>
      </trkpt>
      <trkpt lat="43.1361964" lon="-2.7967483">
        <ele>165.531</ele>
        <time>2021-04-01T09:25:32.874Z</time>
      </trkpt>
      <trkpt lat="43.136197" lon="-2.7967507">
        <ele>165.599</ele>
        <time>2021-04-01T09:25:32.929Z</time>
      </trkpt>
      <trkpt lat="43.1361975" lon="-2.7967528">
        <ele>165.602</ele>
        <time>2021-04-01T09:25:32.984Z</time>
      </trkpt>
      <trkpt lat="43.136198" lon="-2.7967549">
        <ele>165.614</ele>
        <time>2021-04-01T09:25:33.039Z</time>
      </trkpt>
      <trkpt lat="43.1361986" lon="-2.7967571">
        <ele>165.639</ele>
        <time>2021-04-01T09:25:33.094Z</time>
      </trkpt>
      <trkpt lat="43.1361994" lon="-2.7967593">
        <ele>165.65</ele>
        <time>2021-04-01T09:25:33.149Z</time>
      </trkpt>
      <trkpt lat="43.1362001" lon="-2.7967614">
        <ele>165.667</ele>
        <time>2021-04-01T09:25:33.204Z</time>
      </trkpt>
      <trkpt lat="43.1362003" lon="-2.7967634">
        <ele>165.686</ele>
        <time>2021-04-01T09:25:33.259Z</time>
      </trkpt>
      <trkpt lat="43.1362012" lon="-2.7967652">
        <ele>165.681</ele>
        <time>2021-04-01T09:25:33.314Z</time>
      </trkpt>
      <trkpt lat="43.1362017" lon="-2.7967672">
        <ele>165.671</ele>
        <time>2021-04-01T09:25:33.369Z</time>
      </trkpt>
      <trkpt lat="43.1362024" lon="-2.7967693">
        <ele>165.696</ele>
        <time>2021-04-01T09:25:33.424Z</time>
      </trkpt>
      <trkpt lat="43.1362029" lon="-2.7967715">
        <ele>165.755</ele>
        <time>2021-04-01T09:25:33.479Z</time>
      </trkpt>
      <trkpt lat="43.1362036" lon="-2.7967738">
        <ele>165.846</ele>
        <time>2021-04-01T09:25:33.534Z</time>
      </trkpt>
      <trkpt lat="43.1362045" lon="-2.7967758">
        <ele>165.891</ele>
        <time>2021-04-01T09:25:33.589Z</time>
      </trkpt>
      <trkpt lat="43.1362053" lon="-2.7967779">
        <ele>165.931</ele>
        <time>2021-04-01T09:25:33.644Z</time>
      </trkpt>
      <trkpt lat="43.1362059" lon="-2.7967798">
        <ele>165.988</ele>
        <time>2021-04-01T09:25:33.699Z</time>
      </trkpt>
      <trkpt lat="43.1362066" lon="-2.7967819">
        <ele>166.04</ele>
        <time>2021-04-01T09:25:33.754Z</time>
      </trkpt>
      <trkpt lat="43.1362074" lon="-2.7967841">
        <ele>166.07</ele>
        <time>2021-04-01T09:25:33.809Z</time>
      </trkpt>
      <trkpt lat="43.1362081" lon="-2.7967862">
        <ele>166.096</ele>
        <time>2021-04-01T09:25:33.864Z</time>
      </trkpt>
      <trkpt lat="43.1362087" lon="-2.7967883">
        <ele>166.12</ele>
        <time>2021-04-01T09:25:33.919Z</time>
      </trkpt>
      <trkpt lat="43.1362093" lon="-2.7967904">
        <ele>166.139</ele>
        <time>2021-04-01T09:25:33.974Z</time>
      </trkpt>
      <trkpt lat="43.1362102" lon="-2.7967925">
        <ele>166.15</ele>
        <time>2021-04-01T09:25:34.029Z</time>
      </trkpt>
      <trkpt lat="43.136211" lon="-2.7967945">
        <ele>166.196</ele>
        <time>2021-04-01T09:25:34.084Z</time>
      </trkpt>
      <trkpt lat="43.1362114" lon="-2.7967967">
        <ele>166.244</ele>
        <time>2021-04-01T09:25:34.139Z</time>
      </trkpt>
      <trkpt lat="43.1362122" lon="-2.7967988">
        <ele>166.291</ele>
        <time>2021-04-01T09:25:34.194Z</time>
      </trkpt>
      <trkpt lat="43.136213" lon="-2.7968008">
        <ele>166.316</ele>
        <time>2021-04-01T09:25:34.249Z</time>
      </trkpt>
      <trkpt lat="43.1362136" lon="-2.796803">
        <ele>166.339</ele>
        <time>2021-04-01T09:25:34.304Z</time>
      </trkpt>
      <trkpt lat="43.1362143" lon="-2.7968051">
        <ele>166.357</ele>
        <time>2021-04-01T09:25:34.359Z</time>
      </trkpt>
      <trkpt lat="43.1362149" lon="-2.7968071">
        <ele>166.356</ele>
        <time>2021-04-01T09:25:34.414Z</time>
      </trkpt>
      <trkpt lat="43.1362154" lon="-2.7968093">
        <ele>166.412</ele>
        <time>2021-04-01T09:25:34.469Z</time>
      </trkpt>
      <trkpt lat="43.1362161" lon="-2.7968113">
        <ele>166.4</ele>
        <time>2021-04-01T09:25:34.524Z</time>
      </trkpt>
      <trkpt lat="43.1362168" lon="-2.7968134">
        <ele>166.398</ele>
        <time>2021-04-01T09:25:34.579Z</time>
      </trkpt>
      <trkpt lat="43.1362174" lon="-2.7968154">
        <ele>166.4</ele>
        <time>2021-04-01T09:25:34.634Z</time>
      </trkpt>
      <trkpt lat="43.1362177" lon="-2.7968177">
        <ele>166.431</ele>
        <time>2021-04-01T09:25:34.689Z</time>
      </trkpt>
      <trkpt lat="43.1362186" lon="-2.7968197">
        <ele>166.469</ele>
        <time>2021-04-01T09:25:34.744Z</time>
      </trkpt>
      <trkpt lat="43.1362193" lon="-2.7968216">
        <ele>166.476</ele>
        <time>2021-04-01T09:25:34.799Z</time>
      </trkpt>
      <trkpt lat="43.1362201" lon="-2.7968235">
        <ele>166.462</ele>
        <time>2021-04-01T09:25:34.854Z</time>
      </trkpt>
      <trkpt lat="43.1362211" lon="-2.7968255">
        <ele>166.469</ele>
        <time>2021-04-01T09:25:34.909Z</time>
      </trkpt>
      <trkpt lat="43.136222" lon="-2.7968274">
        <ele>166.465</ele>
        <time>2021-04-01T09:25:34.964Z</time>
      </trkpt>
      <trkpt lat="43.1362228" lon="-2.7968295">
        <ele>166.488</ele>
        <time>2021-04-01T09:25:35.019Z</time>
      </trkpt>
      <trkpt lat="43.1362233" lon="-2.7968316">
        <ele>166.525</ele>
        <time>2021-04-01T09:25:35.074Z</time>
      </trkpt>
      <trkpt lat="43.1362239" lon="-2.7968333">
        <ele>166.531</ele>
        <time>2021-04-01T09:25:35.129Z</time>
      </trkpt>
      <trkpt lat="43.1362246" lon="-2.7968358">
        <ele>166.596</ele>
        <time>2021-04-01T09:25:35.184Z</time>
      </trkpt>
      <trkpt lat="43.1362252" lon="-2.7968383">
        <ele>166.63</ele>
        <time>2021-04-01T09:25:35.239Z</time>
      </trkpt>
      <trkpt lat="43.1362257" lon="-2.7968407">
        <ele>166.651</ele>
        <time>2021-04-01T09:25:35.294Z</time>
      </trkpt>
      <trkpt lat="43.1362264" lon="-2.7968429">
        <ele>166.665</ele>
        <time>2021-04-01T09:25:35.349Z</time>
      </trkpt>
      <trkpt lat="43.136227" lon="-2.7968449">
        <ele>166.708</ele>
        <time>2021-04-01T09:25:35.404Z</time>
      </trkpt>
      <trkpt lat="43.1362277" lon="-2.7968467">
        <ele>166.727</ele>
        <time>2021-04-01T09:25:35.459Z</time>
      </trkpt>
      <trkpt lat="43.1362286" lon="-2.7968487">
        <ele>166.701</ele>
        <time>2021-04-01T09:25:35.514Z</time>
      </trkpt>
      <trkpt lat="43.1362294" lon="-2.7968507">
        <ele>166.711</ele>
        <time>2021-04-01T09:25:35.569Z</time>
      </trkpt>
      <trkpt lat="43.13623" lon="-2.7968528">
        <ele>166.774</ele>
        <time>2021-04-01T09:25:35.624Z</time>
      </trkpt>
      <trkpt lat="43.1362306" lon="-2.7968554">
        <ele>166.801</ele>
        <time>2021-04-01T09:25:35.679Z</time>
      </trkpt>
      <trkpt lat="43.1362315" lon="-2.7968575">
        <ele>166.831</ele>
        <time>2021-04-01T09:25:35.734Z</time>
      </trkpt>
      <trkpt lat="43.1362323" lon="-2.7968596">
        <ele>166.858</ele>
        <time>2021-04-01T09:25:35.789Z</time>
      </trkpt>
      <trkpt lat="43.1362331" lon="-2.7968614">
        <ele>166.841</ele>
        <time>2021-04-01T09:25:35.844Z</time>
      </trkpt>
      <trkpt lat="43.1362337" lon="-2.7968634">
        <ele>166.857</ele>
        <time>2021-04-01T09:25:35.899Z</time>
      </trkpt>
      <trkpt lat="43.1362345" lon="-2.7968655">
        <ele>166.915</ele>
        <time>2021-04-01T09:25:35.954Z</time>
      </trkpt>
      <trkpt lat="43.1362352" lon="-2.7968677">
        <ele>166.952</ele>
        <time>2021-04-01T09:25:36.009Z</time>
      </trkpt>
      <trkpt lat="43.1362359" lon="-2.7968699">
        <ele>167.036</ele>
        <time>2021-04-01T09:25:36.064Z</time>
      </trkpt>
      <trkpt lat="43.1362367" lon="-2.7968721">
        <ele>167.054</ele>
        <time>2021-04-01T09:25:36.119Z</time>
      </trkpt>
      <trkpt lat="43.1362374" lon="-2.7968742">
        <ele>167.023</ele>
        <time>2021-04-01T09:25:36.174Z</time>
      </trkpt>
      <trkpt lat="43.136238" lon="-2.796876">
        <ele>167.062</ele>
        <time>2021-04-01T09:25:36.229Z</time>
      </trkpt>
      <trkpt lat="43.1362386" lon="-2.7968781">
        <ele>167.117</ele>
        <time>2021-04-01T09:25:36.284Z</time>
      </trkpt>
      <trkpt lat="43.1362394" lon="-2.7968801">
        <ele>167.135</ele>
        <time>2021-04-01T09:25:36.339Z</time>
      </trkpt>
      <trkpt lat="43.1362401" lon="-2.7968821">
        <ele>167.159</ele>
        <time>2021-04-01T09:25:36.394Z</time>
      </trkpt>
      <trkpt lat="43.136241" lon="-2.7968838">
        <ele>167.161</ele>
        <time>2021-04-01T09:25:36.449Z</time>
      </trkpt>
      <trkpt lat="43.1362419" lon="-2.7968857">
        <ele>167.158</ele>
        <time>2021-04-01T09:25:36.504Z</time>
      </trkpt>
      <trkpt lat="43.1362424" lon="-2.7968882">
        <ele>167.222</ele>
        <time>2021-04-01T09:25:36.559Z</time>
      </trkpt>
      <trkpt lat="43.1362431" lon="-2.7968902">
        <ele>167.21</ele>
        <time>2021-04-01T09:25:36.614Z</time>
      </trkpt>
      <trkpt lat="43.136244" lon="-2.7968921">
        <ele>167.239</ele>
        <time>2021-04-01T09:25:36.669Z</time>
      </trkpt>
      <trkpt lat="43.1362448" lon="-2.7968939">
        <ele>167.253</ele>
        <time>2021-04-01T09:25:36.724Z</time>
      </trkpt>
      <trkpt lat="43.1362455" lon="-2.7968959">
        <ele>167.254</ele>
        <time>2021-04-01T09:25:36.779Z</time>
      </trkpt>
      <trkpt lat="43.1362462" lon="-2.7968979">
        <ele>167.317</ele>
        <time>2021-04-01T09:25:36.834Z</time>
      </trkpt>
      <trkpt lat="43.1362471" lon="-2.7968997">
        <ele>167.327</ele>
        <time>2021-04-01T09:25:36.889Z</time>
      </trkpt>
      <trkpt lat="43.1362477" lon="-2.7969016">
        <ele>167.34</ele>
        <time>2021-04-01T09:25:36.944Z</time>
      </trkpt>
      <trkpt lat="43.1362483" lon="-2.7969035">
        <ele>167.347</ele>
        <time>2021-04-01T09:25:36.999Z</time>
      </trkpt>
      <trkpt lat="43.1362493" lon="-2.7969054">
        <ele>167.342</ele>
        <time>2021-04-01T09:25:37.054Z</time>
      </trkpt>
      <trkpt lat="43.1362501" lon="-2.7969075">
        <ele>167.383</ele>
        <time>2021-04-01T09:25:37.109Z</time>
      </trkpt>
      <trkpt lat="43.1362509" lon="-2.7969092">
        <ele>167.383</ele>
        <time>2021-04-01T09:25:37.164Z</time>
      </trkpt>
      <trkpt lat="43.1362516" lon="-2.796911">
        <ele>167.427</ele>
        <time>2021-04-01T09:25:37.219Z</time>
      </trkpt>
      <trkpt lat="43.1362525" lon="-2.7969128">
        <ele>167.444</ele>
        <time>2021-04-01T09:25:37.274Z</time>
      </trkpt>
      <trkpt lat="43.1362531" lon="-2.7969146">
        <ele>167.441</ele>
        <time>2021-04-01T09:25:37.329Z</time>
      </trkpt>
      <trkpt lat="43.1362538" lon="-2.7969166">
        <ele>167.465</ele>
        <time>2021-04-01T09:25:37.384Z</time>
      </trkpt>
      <trkpt lat="43.1362547" lon="-2.7969184">
        <ele>167.468</ele>
        <time>2021-04-01T09:25:37.439Z</time>
      </trkpt>
      <trkpt lat="43.1362556" lon="-2.79692">
        <ele>167.475</ele>
        <time>2021-04-01T09:25:37.494Z</time>
      </trkpt>
      <trkpt lat="43.1362566" lon="-2.7969217">
        <ele>167.484</ele>
        <time>2021-04-01T09:25:37.549Z</time>
      </trkpt>
      <trkpt lat="43.1362575" lon="-2.7969237">
        <ele>167.486</ele>
        <time>2021-04-01T09:25:37.604Z</time>
      </trkpt>
      <trkpt lat="43.1362584" lon="-2.7969256">
        <ele>167.546</ele>
        <time>2021-04-01T09:25:37.659Z</time>
      </trkpt>
      <trkpt lat="43.1362594" lon="-2.7969273">
        <ele>167.566</ele>
        <time>2021-04-01T09:25:37.714Z</time>
      </trkpt>
      <trkpt lat="43.1362603" lon="-2.7969291">
        <ele>167.618</ele>
        <time>2021-04-01T09:25:37.769Z</time>
      </trkpt>
      <trkpt lat="43.1362611" lon="-2.7969309">
        <ele>167.648</ele>
        <time>2021-04-01T09:25:37.824Z</time>
      </trkpt>
      <trkpt lat="43.1362619" lon="-2.7969327">
        <ele>167.686</ele>
        <time>2021-04-01T09:25:37.879Z</time>
      </trkpt>
      <trkpt lat="43.1362628" lon="-2.7969347">
        <ele>167.682</ele>
        <time>2021-04-01T09:25:37.934Z</time>
      </trkpt>
      <trkpt lat="43.1362639" lon="-2.7969363">
        <ele>167.666</ele>
        <time>2021-04-01T09:25:37.989Z</time>
      </trkpt>
      <trkpt lat="43.1362649" lon="-2.7969379">
        <ele>167.639</ele>
        <time>2021-04-01T09:25:38.044Z</time>
      </trkpt>
      <trkpt lat="43.1362658" lon="-2.7969394">
        <ele>167.657</ele>
        <time>2021-04-01T09:25:38.099Z</time>
      </trkpt>
      <trkpt lat="43.1362667" lon="-2.7969411">
        <ele>167.659</ele>
        <time>2021-04-01T09:25:38.154Z</time>
      </trkpt>
      <trkpt lat="43.1362675" lon="-2.796943">
        <ele>167.667</ele>
        <time>2021-04-01T09:25:38.209Z</time>
      </trkpt>
      <trkpt lat="43.1362685" lon="-2.7969443">
        <ele>167.675</ele>
        <time>2021-04-01T09:25:38.264Z</time>
      </trkpt>
      <trkpt lat="43.1362692" lon="-2.7969465">
        <ele>167.707</ele>
        <time>2021-04-01T09:25:38.319Z</time>
      </trkpt>
      <trkpt lat="43.1362701" lon="-2.7969485">
        <ele>167.775</ele>
        <time>2021-04-01T09:25:38.374Z</time>
      </trkpt>
      <trkpt lat="43.1362708" lon="-2.7969506">
        <ele>167.796</ele>
        <time>2021-04-01T09:25:38.429Z</time>
      </trkpt>
      <trkpt lat="43.1362716" lon="-2.7969527">
        <ele>167.846</ele>
        <time>2021-04-01T09:25:38.481Z</time>
      </trkpt>
      <trkpt lat="43.1362724" lon="-2.7969547">
        <ele>167.893</ele>
        <time>2021-04-01T09:25:38.533Z</time>
      </trkpt>
      <trkpt lat="43.1362732" lon="-2.7969565">
        <ele>167.913</ele>
        <time>2021-04-01T09:25:38.585Z</time>
      </trkpt>
      <trkpt lat="43.1362743" lon="-2.7969584">
        <ele>167.97</ele>
        <time>2021-04-01T09:25:38.637Z</time>
      </trkpt>
      <trkpt lat="43.1362748" lon="-2.7969607">
        <ele>168.017</ele>
        <time>2021-04-01T09:25:38.689Z</time>
      </trkpt>
      <trkpt lat="43.1362757" lon="-2.7969626">
        <ele>168.036</ele>
        <time>2021-04-01T09:25:38.741Z</time>
      </trkpt>
      <trkpt lat="43.1362764" lon="-2.7969643">
        <ele>168.039</ele>
        <time>2021-04-01T09:25:38.793Z</time>
      </trkpt>
      <trkpt lat="43.1362774" lon="-2.7969661">
        <ele>168.007</ele>
        <time>2021-04-01T09:25:38.845Z</time>
      </trkpt>
      <trkpt lat="43.1362785" lon="-2.7969678">
        <ele>168</ele>
        <time>2021-04-01T09:25:38.897Z</time>
      </trkpt>
      <trkpt lat="43.1362793" lon="-2.7969696">
        <ele>168.011</ele>
        <time>2021-04-01T09:25:38.950Z</time>
      </trkpt>
      <trkpt lat="43.1362802" lon="-2.7969713">
        <ele>168.039</ele>
        <time>2021-04-01T09:25:39.002Z</time>
      </trkpt>
      <trkpt lat="43.1362809" lon="-2.7969735">
        <ele>168.061</ele>
        <time>2021-04-01T09:25:39.054Z</time>
      </trkpt>
      <trkpt lat="43.1362818" lon="-2.7969751">
        <ele>168.04</ele>
        <time>2021-04-01T09:25:39.106Z</time>
      </trkpt>
      <trkpt lat="43.1362827" lon="-2.7969769">
        <ele>168.046</ele>
        <time>2021-04-01T09:25:39.158Z</time>
      </trkpt>
      <trkpt lat="43.1362833" lon="-2.796979">
        <ele>168.083</ele>
        <time>2021-04-01T09:25:39.210Z</time>
      </trkpt>
      <trkpt lat="43.1362841" lon="-2.7969812">
        <ele>168.103</ele>
        <time>2021-04-01T09:25:39.262Z</time>
      </trkpt>
      <trkpt lat="43.1362849" lon="-2.7969832">
        <ele>168.146</ele>
        <time>2021-04-01T09:25:39.314Z</time>
      </trkpt>
      <trkpt lat="43.1362857" lon="-2.7969851">
        <ele>168.144</ele>
        <time>2021-04-01T09:25:39.366Z</time>
      </trkpt>
      <trkpt lat="43.1362862" lon="-2.7969872">
        <ele>168.188</ele>
        <time>2021-04-01T09:25:39.419Z</time>
      </trkpt>
      <trkpt lat="43.1362869" lon="-2.7969894">
        <ele>168.214</ele>
        <time>2021-04-01T09:25:39.477Z</time>
      </trkpt>
      <trkpt lat="43.136288" lon="-2.7969911">
        <ele>168.25</ele>
        <time>2021-04-01T09:25:39.535Z</time>
      </trkpt>
      <trkpt lat="43.1362888" lon="-2.7969929">
        <ele>168.251</ele>
        <time>2021-04-01T09:25:39.593Z</time>
      </trkpt>
      <trkpt lat="43.1362897" lon="-2.7969948">
        <ele>168.249</ele>
        <time>2021-04-01T09:25:39.651Z</time>
      </trkpt>
      <trkpt lat="43.1362903" lon="-2.796997">
        <ele>168.268</ele>
        <time>2021-04-01T09:25:39.710Z</time>
      </trkpt>
      <trkpt lat="43.1362911" lon="-2.7969991">
        <ele>168.317</ele>
        <time>2021-04-01T09:25:39.768Z</time>
      </trkpt>
      <trkpt lat="43.1362915" lon="-2.7970012">
        <ele>168.375</ele>
        <time>2021-04-01T09:25:39.826Z</time>
      </trkpt>
      <trkpt lat="43.136292" lon="-2.7970031">
        <ele>168.402</ele>
        <time>2021-04-01T09:25:39.884Z</time>
      </trkpt>
      <trkpt lat="43.1362926" lon="-2.7970052">
        <ele>168.421</ele>
        <time>2021-04-01T09:25:39.943Z</time>
      </trkpt>
      <trkpt lat="43.1362934" lon="-2.7970072">
        <ele>168.43</ele>
        <time>2021-04-01T09:25:40.001Z</time>
      </trkpt>
      <trkpt lat="43.1362942" lon="-2.7970089">
        <ele>168.426</ele>
        <time>2021-04-01T09:25:40.059Z</time>
      </trkpt>
      <trkpt lat="43.136295" lon="-2.797011">
        <ele>168.429</ele>
        <time>2021-04-01T09:25:40.117Z</time>
      </trkpt>
      <trkpt lat="43.1362958" lon="-2.7970129">
        <ele>168.425</ele>
        <time>2021-04-01T09:25:40.176Z</time>
      </trkpt>
      <trkpt lat="43.1362968" lon="-2.797015">
        <ele>168.443</ele>
        <time>2021-04-01T09:25:40.234Z</time>
      </trkpt>
      <trkpt lat="43.1362977" lon="-2.7970164">
        <ele>168.443</ele>
        <time>2021-04-01T09:25:40.292Z</time>
      </trkpt>
      <trkpt lat="43.1362982" lon="-2.7970184">
        <ele>168.443</ele>
        <time>2021-04-01T09:25:40.350Z</time>
      </trkpt>
      <trkpt lat="43.136299" lon="-2.7970204">
        <ele>168.468</ele>
        <time>2021-04-01T09:25:40.409Z</time>
      </trkpt>
      <trkpt lat="43.1363002" lon="-2.7970221">
        <ele>168.453</ele>
        <time>2021-04-01T09:25:40.461Z</time>
      </trkpt>
      <trkpt lat="43.1363013" lon="-2.797024">
        <ele>168.466</ele>
        <time>2021-04-01T09:25:40.513Z</time>
      </trkpt>
      <trkpt lat="43.1363022" lon="-2.7970261">
        <ele>168.491</ele>
        <time>2021-04-01T09:25:40.565Z</time>
      </trkpt>
      <trkpt lat="43.1363031" lon="-2.797028">
        <ele>168.509</ele>
        <time>2021-04-01T09:25:40.617Z</time>
      </trkpt>
      <trkpt lat="43.1363039" lon="-2.7970304">
        <ele>168.571</ele>
        <time>2021-04-01T09:25:40.669Z</time>
      </trkpt>
      <trkpt lat="43.1363047" lon="-2.7970324">
        <ele>168.597</ele>
        <time>2021-04-01T09:25:40.721Z</time>
      </trkpt>
      <trkpt lat="43.1363058" lon="-2.7970338">
        <ele>168.606</ele>
        <time>2021-04-01T09:25:40.773Z</time>
      </trkpt>
      <trkpt lat="43.1363068" lon="-2.7970357">
        <ele>168.591</ele>
        <time>2021-04-01T09:25:40.825Z</time>
      </trkpt>
      <trkpt lat="43.136308" lon="-2.7970371">
        <ele>168.61</ele>
        <time>2021-04-01T09:25:40.877Z</time>
      </trkpt>
      <trkpt lat="43.1363087" lon="-2.7970391">
        <ele>168.617</ele>
        <time>2021-04-01T09:25:40.930Z</time>
      </trkpt>
      <trkpt lat="43.1363097" lon="-2.7970408">
        <ele>168.648</ele>
        <time>2021-04-01T09:25:40.982Z</time>
      </trkpt>
      <trkpt lat="43.1363107" lon="-2.7970426">
        <ele>168.656</ele>
        <time>2021-04-01T09:25:41.034Z</time>
      </trkpt>
      <trkpt lat="43.1363116" lon="-2.7970446">
        <ele>168.683</ele>
        <time>2021-04-01T09:25:41.086Z</time>
      </trkpt>
      <trkpt lat="43.1363124" lon="-2.7970465">
        <ele>168.722</ele>
        <time>2021-04-01T09:25:41.138Z</time>
      </trkpt>
      <trkpt lat="43.1363134" lon="-2.7970483">
        <ele>168.745</ele>
        <time>2021-04-01T09:25:41.190Z</time>
      </trkpt>
      <trkpt lat="43.1363143" lon="-2.79705">
        <ele>168.755</ele>
        <time>2021-04-01T09:25:41.242Z</time>
      </trkpt>
      <trkpt lat="43.1363153" lon="-2.7970517">
        <ele>168.746</ele>
        <time>2021-04-01T09:25:41.294Z</time>
      </trkpt>
      <trkpt lat="43.1363162" lon="-2.7970536">
        <ele>168.724</ele>
        <time>2021-04-01T09:25:41.346Z</time>
      </trkpt>
      <trkpt lat="43.136317" lon="-2.7970554">
        <ele>168.707</ele>
        <time>2021-04-01T09:25:41.399Z</time>
      </trkpt>
      <trkpt lat="43.1363176" lon="-2.7970573">
        <ele>168.685</ele>
        <time>2021-04-01T09:25:41.454Z</time>
      </trkpt>
      <trkpt lat="43.1363184" lon="-2.7970587">
        <ele>168.637</ele>
        <time>2021-04-01T09:25:41.509Z</time>
      </trkpt>
      <trkpt lat="43.1363195" lon="-2.7970602">
        <ele>168.665</ele>
        <time>2021-04-01T09:25:41.564Z</time>
      </trkpt>
      <trkpt lat="43.1363205" lon="-2.7970623">
        <ele>168.71</ele>
        <time>2021-04-01T09:25:41.619Z</time>
      </trkpt>
      <trkpt lat="43.1363214" lon="-2.7970643">
        <ele>168.719</ele>
        <time>2021-04-01T09:25:41.674Z</time>
      </trkpt>
      <trkpt lat="43.1363225" lon="-2.797066">
        <ele>168.742</ele>
        <time>2021-04-01T09:25:41.729Z</time>
      </trkpt>
      <trkpt lat="43.1363233" lon="-2.7970681">
        <ele>168.766</ele>
        <time>2021-04-01T09:25:41.784Z</time>
      </trkpt>
      <trkpt lat="43.1363242" lon="-2.79707">
        <ele>168.822</ele>
        <time>2021-04-01T09:25:41.839Z</time>
      </trkpt>
      <trkpt lat="43.1363252" lon="-2.7970716">
        <ele>168.831</ele>
        <time>2021-04-01T09:25:41.894Z</time>
      </trkpt>
      <trkpt lat="43.1363264" lon="-2.7970734">
        <ele>168.849</ele>
        <time>2021-04-01T09:25:41.949Z</time>
      </trkpt>
      <trkpt lat="43.1363276" lon="-2.7970752">
        <ele>168.852</ele>
        <time>2021-04-01T09:25:42.004Z</time>
      </trkpt>
      <trkpt lat="43.1363285" lon="-2.7970769">
        <ele>168.876</ele>
        <time>2021-04-01T09:25:42.059Z</time>
      </trkpt>
      <trkpt lat="43.1363295" lon="-2.797079">
        <ele>168.951</ele>
        <time>2021-04-01T09:25:42.114Z</time>
      </trkpt>
      <trkpt lat="43.1363305" lon="-2.797081">
        <ele>168.989</ele>
        <time>2021-04-01T09:25:42.169Z</time>
      </trkpt>
      <trkpt lat="43.1363314" lon="-2.797083">
        <ele>169.01</ele>
        <time>2021-04-01T09:25:42.224Z</time>
      </trkpt>
      <trkpt lat="43.1363322" lon="-2.7970851">
        <ele>169.057</ele>
        <time>2021-04-01T09:25:42.279Z</time>
      </trkpt>
      <trkpt lat="43.1363331" lon="-2.7970872">
        <ele>169.083</ele>
        <time>2021-04-01T09:25:42.334Z</time>
      </trkpt>
      <trkpt lat="43.1363341" lon="-2.7970891">
        <ele>169.089</ele>
        <time>2021-04-01T09:25:42.389Z</time>
      </trkpt>
      <trkpt lat="43.136335" lon="-2.7970909">
        <ele>169.141</ele>
        <time>2021-04-01T09:25:42.447Z</time>
      </trkpt>
      <trkpt lat="43.136336" lon="-2.7970927">
        <ele>169.172</ele>
        <time>2021-04-01T09:25:42.505Z</time>
      </trkpt>
      <trkpt lat="43.1363369" lon="-2.7970943">
        <ele>169.179</ele>
        <time>2021-04-01T09:25:42.563Z</time>
      </trkpt>
      <trkpt lat="43.1363376" lon="-2.7970962">
        <ele>169.207</ele>
        <time>2021-04-01T09:25:42.621Z</time>
      </trkpt>
      <trkpt lat="43.1363388" lon="-2.7970983">
        <ele>169.235</ele>
        <time>2021-04-01T09:25:42.679Z</time>
      </trkpt>
      <trkpt lat="43.1363401" lon="-2.7971002">
        <ele>169.275</ele>
        <time>2021-04-01T09:25:42.737Z</time>
      </trkpt>
      <trkpt lat="43.1363413" lon="-2.797102">
        <ele>169.288</ele>
        <time>2021-04-01T09:25:42.795Z</time>
      </trkpt>
      <trkpt lat="43.1363423" lon="-2.7971041">
        <ele>169.328</ele>
        <time>2021-04-01T09:25:42.853Z</time>
      </trkpt>
      <trkpt lat="43.1363433" lon="-2.7971059">
        <ele>169.357</ele>
        <time>2021-04-01T09:25:42.911Z</time>
      </trkpt>
      <trkpt lat="43.1363442" lon="-2.7971076">
        <ele>169.354</ele>
        <time>2021-04-01T09:25:42.969Z</time>
      </trkpt>
      <trkpt lat="43.1363451" lon="-2.7971097">
        <ele>169.418</ele>
        <time>2021-04-01T09:25:43.027Z</time>
      </trkpt>
      <trkpt lat="43.1363461" lon="-2.7971118">
        <ele>169.451</ele>
        <time>2021-04-01T09:25:43.085Z</time>
      </trkpt>
      <trkpt lat="43.136347" lon="-2.7971136">
        <ele>169.463</ele>
        <time>2021-04-01T09:25:43.143Z</time>
      </trkpt>
      <trkpt lat="43.1363482" lon="-2.7971158">
        <ele>169.519</ele>
        <time>2021-04-01T09:25:43.201Z</time>
      </trkpt>
      <trkpt lat="43.1363491" lon="-2.7971178">
        <ele>169.55</ele>
        <time>2021-04-01T09:25:43.259Z</time>
      </trkpt>
      <trkpt lat="43.13635" lon="-2.7971201">
        <ele>169.588</ele>
        <time>2021-04-01T09:25:43.317Z</time>
      </trkpt>
      <trkpt lat="43.136351" lon="-2.797122">
        <ele>169.625</ele>
        <time>2021-04-01T09:25:43.375Z</time>
      </trkpt>
      <trkpt lat="43.1363517" lon="-2.7971239">
        <ele>169.63</ele>
        <time>2021-04-01T09:25:43.434Z</time>
      </trkpt>
      <trkpt lat="43.1363527" lon="-2.7971259">
        <ele>169.629</ele>
        <time>2021-04-01T09:25:43.489Z</time>
      </trkpt>
      <trkpt lat="43.1363538" lon="-2.7971277">
        <ele>169.621</ele>
        <time>2021-04-01T09:25:43.544Z</time>
      </trkpt>
      <trkpt lat="43.136355" lon="-2.7971299">
        <ele>169.673</ele>
        <time>2021-04-01T09:25:43.599Z</time>
      </trkpt>
      <trkpt lat="43.1363561" lon="-2.7971318">
        <ele>169.712</ele>
        <time>2021-04-01T09:25:43.654Z</time>
      </trkpt>
      <trkpt lat="43.1363572" lon="-2.797134">
        <ele>169.709</ele>
        <time>2021-04-01T09:25:43.709Z</time>
      </trkpt>
      <trkpt lat="43.1363582" lon="-2.7971359">
        <ele>169.739</ele>
        <time>2021-04-01T09:25:43.764Z</time>
      </trkpt>
      <trkpt lat="43.1363592" lon="-2.7971375">
        <ele>169.787</ele>
        <time>2021-04-01T09:25:43.819Z</time>
      </trkpt>
      <trkpt lat="43.1363603" lon="-2.797139">
        <ele>169.798</ele>
        <time>2021-04-01T09:25:43.874Z</time>
      </trkpt>
      <trkpt lat="43.1363613" lon="-2.7971412">
        <ele>169.805</ele>
        <time>2021-04-01T09:25:43.929Z</time>
      </trkpt>
      <trkpt lat="43.136362" lon="-2.7971435">
        <ele>169.814</ele>
        <time>2021-04-01T09:25:43.984Z</time>
      </trkpt>
      <trkpt lat="43.136363" lon="-2.7971458">
        <ele>169.832</ele>
        <time>2021-04-01T09:25:44.039Z</time>
      </trkpt>
      <trkpt lat="43.1363644" lon="-2.7971475">
        <ele>169.85</ele>
        <time>2021-04-01T09:25:44.094Z</time>
      </trkpt>
      <trkpt lat="43.136365" lon="-2.7971496">
        <ele>169.885</ele>
        <time>2021-04-01T09:25:44.149Z</time>
      </trkpt>
      <trkpt lat="43.136366" lon="-2.7971515">
        <ele>169.933</ele>
        <time>2021-04-01T09:25:44.204Z</time>
      </trkpt>
      <trkpt lat="43.1363672" lon="-2.7971534">
        <ele>169.939</ele>
        <time>2021-04-01T09:25:44.259Z</time>
      </trkpt>
      <trkpt lat="43.1363682" lon="-2.7971552">
        <ele>169.958</ele>
        <time>2021-04-01T09:25:44.314Z</time>
      </trkpt>
      <trkpt lat="43.136369" lon="-2.7971576">
        <ele>169.987</ele>
        <time>2021-04-01T09:25:44.369Z</time>
      </trkpt>
      <trkpt lat="43.1363704" lon="-2.7971596">
        <ele>169.989</ele>
        <time>2021-04-01T09:25:44.424Z</time>
      </trkpt>
      <trkpt lat="43.1363713" lon="-2.7971616">
        <ele>170.008</ele>
        <time>2021-04-01T09:25:44.479Z</time>
      </trkpt>
      <trkpt lat="43.1363723" lon="-2.7971638">
        <ele>170.029</ele>
        <time>2021-04-01T09:25:44.534Z</time>
      </trkpt>
      <trkpt lat="43.1363733" lon="-2.7971657">
        <ele>170.055</ele>
        <time>2021-04-01T09:25:44.589Z</time>
      </trkpt>
      <trkpt lat="43.1363742" lon="-2.7971673">
        <ele>170.041</ele>
        <time>2021-04-01T09:25:44.644Z</time>
      </trkpt>
      <trkpt lat="43.1363751" lon="-2.7971693">
        <ele>170.06</ele>
        <time>2021-04-01T09:25:44.699Z</time>
      </trkpt>
      <trkpt lat="43.1363761" lon="-2.7971711">
        <ele>170.05</ele>
        <time>2021-04-01T09:25:44.754Z</time>
      </trkpt>
      <trkpt lat="43.1363771" lon="-2.797173">
        <ele>170.069</ele>
        <time>2021-04-01T09:25:44.809Z</time>
      </trkpt>
      <trkpt lat="43.136378" lon="-2.797175">
        <ele>170.045</ele>
        <time>2021-04-01T09:25:44.864Z</time>
      </trkpt>
      <trkpt lat="43.136379" lon="-2.7971771">
        <ele>170.026</ele>
        <time>2021-04-01T09:25:44.919Z</time>
      </trkpt>
      <trkpt lat="43.13638" lon="-2.7971788">
        <ele>170.042</ele>
        <time>2021-04-01T09:25:44.974Z</time>
      </trkpt>
      <trkpt lat="43.1363811" lon="-2.7971805">
        <ele>170.038</ele>
        <time>2021-04-01T09:25:45.029Z</time>
      </trkpt>
      <trkpt lat="43.1363821" lon="-2.7971823">
        <ele>170.021</ele>
        <time>2021-04-01T09:25:45.084Z</time>
      </trkpt>
      <trkpt lat="43.1363827" lon="-2.7971844">
        <ele>170.024</ele>
        <time>2021-04-01T09:25:45.139Z</time>
      </trkpt>
      <trkpt lat="43.1363836" lon="-2.7971864">
        <ele>170.022</ele>
        <time>2021-04-01T09:25:45.194Z</time>
      </trkpt>
      <trkpt lat="43.1363846" lon="-2.7971883">
        <ele>170.037</ele>
        <time>2021-04-01T09:25:45.249Z</time>
      </trkpt>
      <trkpt lat="43.1363854" lon="-2.7971902">
        <ele>170.027</ele>
        <time>2021-04-01T09:25:45.304Z</time>
      </trkpt>
      <trkpt lat="43.1363865" lon="-2.7971918">
        <ele>170.025</ele>
        <time>2021-04-01T09:25:45.359Z</time>
      </trkpt>
      <trkpt lat="43.1363874" lon="-2.7971938">
        <ele>170.027</ele>
        <time>2021-04-01T09:25:45.414Z</time>
      </trkpt>
      <trkpt lat="43.1363883" lon="-2.7971955">
        <ele>169.998</ele>
        <time>2021-04-01T09:25:45.466Z</time>
      </trkpt>
      <trkpt lat="43.1363892" lon="-2.7971974">
        <ele>170.011</ele>
        <time>2021-04-01T09:25:45.518Z</time>
      </trkpt>
      <trkpt lat="43.1363903" lon="-2.797199">
        <ele>169.991</ele>
        <time>2021-04-01T09:25:45.570Z</time>
      </trkpt>
      <trkpt lat="43.1363912" lon="-2.7972009">
        <ele>169.991</ele>
        <time>2021-04-01T09:25:45.622Z</time>
      </trkpt>
      <trkpt lat="43.136392" lon="-2.7972028">
        <ele>169.978</ele>
        <time>2021-04-01T09:25:45.674Z</time>
      </trkpt>
      <trkpt lat="43.136393" lon="-2.7972045">
        <ele>169.943</ele>
        <time>2021-04-01T09:25:45.726Z</time>
      </trkpt>
      <trkpt lat="43.136394" lon="-2.7972061">
        <ele>169.948</ele>
        <time>2021-04-01T09:25:45.778Z</time>
      </trkpt>
      <trkpt lat="43.1363949" lon="-2.7972078">
        <ele>169.965</ele>
        <time>2021-04-01T09:25:45.830Z</time>
      </trkpt>
      <trkpt lat="43.1363959" lon="-2.7972096">
        <ele>169.928</ele>
        <time>2021-04-01T09:25:45.882Z</time>
      </trkpt>
      <trkpt lat="43.1363967" lon="-2.7972114">
        <ele>169.911</ele>
        <time>2021-04-01T09:25:45.935Z</time>
      </trkpt>
      <trkpt lat="43.1363975" lon="-2.7972139">
        <ele>169.923</ele>
        <time>2021-04-01T09:25:45.987Z</time>
      </trkpt>
      <trkpt lat="43.1363986" lon="-2.7972157">
        <ele>169.929</ele>
        <time>2021-04-01T09:25:46.039Z</time>
      </trkpt>
      <trkpt lat="43.1363996" lon="-2.7972178">
        <ele>169.912</ele>
        <time>2021-04-01T09:25:46.091Z</time>
      </trkpt>
      <trkpt lat="43.1364006" lon="-2.7972199">
        <ele>169.945</ele>
        <time>2021-04-01T09:25:46.143Z</time>
      </trkpt>
      <trkpt lat="43.1364018" lon="-2.7972216">
        <ele>169.943</ele>
        <time>2021-04-01T09:25:46.195Z</time>
      </trkpt>
      <trkpt lat="43.1364027" lon="-2.7972234">
        <ele>169.945</ele>
        <time>2021-04-01T09:25:46.247Z</time>
      </trkpt>
      <trkpt lat="43.1364035" lon="-2.7972255">
        <ele>169.938</ele>
        <time>2021-04-01T09:25:46.299Z</time>
      </trkpt>
      <trkpt lat="43.1364044" lon="-2.7972275">
        <ele>169.953</ele>
        <time>2021-04-01T09:25:46.351Z</time>
      </trkpt>
      <trkpt lat="43.1364054" lon="-2.7972296">
        <ele>169.968</ele>
        <time>2021-04-01T09:25:46.404Z</time>
      </trkpt>
      <trkpt lat="43.1364065" lon="-2.7972315">
        <ele>169.973</ele>
        <time>2021-04-01T09:25:46.465Z</time>
      </trkpt>
      <trkpt lat="43.1364075" lon="-2.7972337">
        <ele>169.975</ele>
        <time>2021-04-01T09:25:46.526Z</time>
      </trkpt>
      <trkpt lat="43.1364085" lon="-2.7972357">
        <ele>169.992</ele>
        <time>2021-04-01T09:25:46.588Z</time>
      </trkpt>
      <trkpt lat="43.1364093" lon="-2.7972378">
        <ele>170.031</ele>
        <time>2021-04-01T09:25:46.649Z</time>
      </trkpt>
      <trkpt lat="43.1364102" lon="-2.7972397">
        <ele>170.04</ele>
        <time>2021-04-01T09:25:46.711Z</time>
      </trkpt>
      <trkpt lat="43.1364113" lon="-2.7972417">
        <ele>170.03</ele>
        <time>2021-04-01T09:25:46.772Z</time>
      </trkpt>
      <trkpt lat="43.1364122" lon="-2.7972439">
        <ele>170.033</ele>
        <time>2021-04-01T09:25:46.834Z</time>
      </trkpt>
      <trkpt lat="43.1364133" lon="-2.7972458">
        <ele>170.012</ele>
        <time>2021-04-01T09:25:46.895Z</time>
      </trkpt>
      <trkpt lat="43.1364142" lon="-2.7972479">
        <ele>170.007</ele>
        <time>2021-04-01T09:25:46.957Z</time>
      </trkpt>
      <trkpt lat="43.1364153" lon="-2.7972502">
        <ele>170.059</ele>
        <time>2021-04-01T09:25:47.018Z</time>
      </trkpt>
      <trkpt lat="43.1364162" lon="-2.7972521">
        <ele>170.096</ele>
        <time>2021-04-01T09:25:47.080Z</time>
      </trkpt>
      <trkpt lat="43.1364172" lon="-2.797254">
        <ele>170.109</ele>
        <time>2021-04-01T09:25:47.141Z</time>
      </trkpt>
      <trkpt lat="43.1364182" lon="-2.7972559">
        <ele>170.116</ele>
        <time>2021-04-01T09:25:47.203Z</time>
      </trkpt>
      <trkpt lat="43.1364191" lon="-2.797258">
        <ele>170.134</ele>
        <time>2021-04-01T09:25:47.264Z</time>
      </trkpt>
      <trkpt lat="43.1364198" lon="-2.7972601">
        <ele>170.14</ele>
        <time>2021-04-01T09:25:47.326Z</time>
      </trkpt>
      <trkpt lat="43.1364208" lon="-2.797262">
        <ele>170.148</ele>
        <time>2021-04-01T09:25:47.387Z</time>
      </trkpt>
      <trkpt lat="43.1364219" lon="-2.7972638">
        <ele>170.141</ele>
        <time>2021-04-01T09:25:47.449Z</time>
      </trkpt>
      <trkpt lat="43.1364228" lon="-2.7972659">
        <ele>170.16</ele>
        <time>2021-04-01T09:25:47.501Z</time>
      </trkpt>
      <trkpt lat="43.1364234" lon="-2.7972681">
        <ele>170.19</ele>
        <time>2021-04-01T09:25:47.553Z</time>
      </trkpt>
      <trkpt lat="43.1364243" lon="-2.7972701">
        <ele>170.197</ele>
        <time>2021-04-01T09:25:47.605Z</time>
      </trkpt>
      <trkpt lat="43.1364253" lon="-2.7972719">
        <ele>170.182</ele>
        <time>2021-04-01T09:25:47.657Z</time>
      </trkpt>
      <trkpt lat="43.1364261" lon="-2.7972739">
        <ele>170.177</ele>
        <time>2021-04-01T09:25:47.709Z</time>
      </trkpt>
      <trkpt lat="43.136427" lon="-2.7972761">
        <ele>170.213</ele>
        <time>2021-04-01T09:25:47.761Z</time>
      </trkpt>
      <trkpt lat="43.1364282" lon="-2.7972781">
        <ele>170.239</ele>
        <time>2021-04-01T09:25:47.813Z</time>
      </trkpt>
      <trkpt lat="43.1364291" lon="-2.7972802">
        <ele>170.277</ele>
        <time>2021-04-01T09:25:47.865Z</time>
      </trkpt>
      <trkpt lat="43.1364299" lon="-2.7972822">
        <ele>170.293</ele>
        <time>2021-04-01T09:25:47.917Z</time>
      </trkpt>
      <trkpt lat="43.1364309" lon="-2.797284">
        <ele>170.291</ele>
        <time>2021-04-01T09:25:47.970Z</time>
      </trkpt>
      <trkpt lat="43.1364317" lon="-2.7972859">
        <ele>170.327</ele>
        <time>2021-04-01T09:25:48.022Z</time>
      </trkpt>
      <trkpt lat="43.1364328" lon="-2.7972879">
        <ele>170.303</ele>
        <time>2021-04-01T09:25:48.074Z</time>
      </trkpt>
      <trkpt lat="43.1364338" lon="-2.7972899">
        <ele>170.311</ele>
        <time>2021-04-01T09:25:48.126Z</time>
      </trkpt>
      <trkpt lat="43.1364346" lon="-2.7972921">
        <ele>170.324</ele>
        <time>2021-04-01T09:25:48.178Z</time>
      </trkpt>
      <trkpt lat="43.1364356" lon="-2.7972942">
        <ele>170.333</ele>
        <time>2021-04-01T09:25:48.230Z</time>
      </trkpt>
      <trkpt lat="43.1364365" lon="-2.7972962">
        <ele>170.346</ele>
        <time>2021-04-01T09:25:48.282Z</time>
      </trkpt>
      <trkpt lat="43.1364375" lon="-2.7972981">
        <ele>170.35</ele>
        <time>2021-04-01T09:25:48.334Z</time>
      </trkpt>
      <trkpt lat="43.1364384" lon="-2.7973001">
        <ele>170.362</ele>
        <time>2021-04-01T09:25:48.386Z</time>
      </trkpt>
      <trkpt lat="43.1364391" lon="-2.797302">
        <ele>170.338</ele>
        <time>2021-04-01T09:25:48.439Z</time>
      </trkpt>
      <trkpt lat="43.1364399" lon="-2.7973042">
        <ele>170.366</ele>
        <time>2021-04-01T09:25:48.494Z</time>
      </trkpt>
      <trkpt lat="43.1364409" lon="-2.7973064">
        <ele>170.405</ele>
        <time>2021-04-01T09:25:48.549Z</time>
      </trkpt>
      <trkpt lat="43.1364418" lon="-2.7973085">
        <ele>170.42</ele>
        <time>2021-04-01T09:25:48.604Z</time>
      </trkpt>
      <trkpt lat="43.1364429" lon="-2.7973102">
        <ele>170.392</ele>
        <time>2021-04-01T09:25:48.659Z</time>
      </trkpt>
      <trkpt lat="43.136444" lon="-2.7973122">
        <ele>170.41</ele>
        <time>2021-04-01T09:25:48.714Z</time>
      </trkpt>
      <trkpt lat="43.1364449" lon="-2.7973142">
        <ele>170.466</ele>
        <time>2021-04-01T09:25:48.769Z</time>
      </trkpt>
      <trkpt lat="43.136446" lon="-2.7973161">
        <ele>170.478</ele>
        <time>2021-04-01T09:25:48.824Z</time>
      </trkpt>
      <trkpt lat="43.136447" lon="-2.797318">
        <ele>170.479</ele>
        <time>2021-04-01T09:25:48.879Z</time>
      </trkpt>
      <trkpt lat="43.136448" lon="-2.7973198">
        <ele>170.477</ele>
        <time>2021-04-01T09:25:48.934Z</time>
      </trkpt>
      <trkpt lat="43.1364489" lon="-2.7973223">
        <ele>170.516</ele>
        <time>2021-04-01T09:25:48.989Z</time>
      </trkpt>
      <trkpt lat="43.1364501" lon="-2.7973244">
        <ele>170.554</ele>
        <time>2021-04-01T09:25:49.044Z</time>
      </trkpt>
      <trkpt lat="43.1364512" lon="-2.7973261">
        <ele>170.581</ele>
        <time>2021-04-01T09:25:49.099Z</time>
      </trkpt>
      <trkpt lat="43.136452" lon="-2.7973281">
        <ele>170.585</ele>
        <time>2021-04-01T09:25:49.154Z</time>
      </trkpt>
      <trkpt lat="43.136453" lon="-2.79733">
        <ele>170.574</ele>
        <time>2021-04-01T09:25:49.209Z</time>
      </trkpt>
      <trkpt lat="43.136454" lon="-2.797332">
        <ele>170.578</ele>
        <time>2021-04-01T09:25:49.264Z</time>
      </trkpt>
      <trkpt lat="43.1364551" lon="-2.7973339">
        <ele>170.589</ele>
        <time>2021-04-01T09:25:49.319Z</time>
      </trkpt>
      <trkpt lat="43.1364561" lon="-2.7973358">
        <ele>170.593</ele>
        <time>2021-04-01T09:25:49.374Z</time>
      </trkpt>
      <trkpt lat="43.1364572" lon="-2.7973377">
        <ele>170.597</ele>
        <time>2021-04-01T09:25:49.429Z</time>
      </trkpt>
      <trkpt lat="43.136458" lon="-2.7973397">
        <ele>170.622</ele>
        <time>2021-04-01T09:25:49.481Z</time>
      </trkpt>
      <trkpt lat="43.1364589" lon="-2.7973415">
        <ele>170.632</ele>
        <time>2021-04-01T09:25:49.533Z</time>
      </trkpt>
      <trkpt lat="43.1364599" lon="-2.7973435">
        <ele>170.641</ele>
        <time>2021-04-01T09:25:49.585Z</time>
      </trkpt>
      <trkpt lat="43.1364608" lon="-2.7973456">
        <ele>170.65</ele>
        <time>2021-04-01T09:25:49.637Z</time>
      </trkpt>
      <trkpt lat="43.1364618" lon="-2.7973472">
        <ele>170.65</ele>
        <time>2021-04-01T09:25:49.689Z</time>
      </trkpt>
      <trkpt lat="43.1364627" lon="-2.7973487">
        <ele>170.619</ele>
        <time>2021-04-01T09:25:49.741Z</time>
      </trkpt>
      <trkpt lat="43.1364636" lon="-2.7973505">
        <ele>170.604</ele>
        <time>2021-04-01T09:25:49.793Z</time>
      </trkpt>
      <trkpt lat="43.1364644" lon="-2.7973525">
        <ele>170.618</ele>
        <time>2021-04-01T09:25:49.845Z</time>
      </trkpt>
      <trkpt lat="43.1364653" lon="-2.7973546">
        <ele>170.636</ele>
        <time>2021-04-01T09:25:49.897Z</time>
      </trkpt>
      <trkpt lat="43.1364664" lon="-2.7973567">
        <ele>170.655</ele>
        <time>2021-04-01T09:25:49.950Z</time>
      </trkpt>
      <trkpt lat="43.1364674" lon="-2.7973587">
        <ele>170.663</ele>
        <time>2021-04-01T09:25:50.002Z</time>
      </trkpt>
      <trkpt lat="43.1364684" lon="-2.7973607">
        <ele>170.684</ele>
        <time>2021-04-01T09:25:50.054Z</time>
      </trkpt>
      <trkpt lat="43.1364694" lon="-2.7973625">
        <ele>170.703</ele>
        <time>2021-04-01T09:25:50.106Z</time>
      </trkpt>
      <trkpt lat="43.1364705" lon="-2.7973643">
        <ele>170.706</ele>
        <time>2021-04-01T09:25:50.158Z</time>
      </trkpt>
      <trkpt lat="43.1364714" lon="-2.7973664">
        <ele>170.723</ele>
        <time>2021-04-01T09:25:50.210Z</time>
      </trkpt>
      <trkpt lat="43.1364721" lon="-2.7973686">
        <ele>170.772</ele>
        <time>2021-04-01T09:25:50.262Z</time>
      </trkpt>
      <trkpt lat="43.136473" lon="-2.7973706">
        <ele>170.797</ele>
        <time>2021-04-01T09:25:50.314Z</time>
      </trkpt>
      <trkpt lat="43.1364741" lon="-2.7973725">
        <ele>170.782</ele>
        <time>2021-04-01T09:25:50.366Z</time>
      </trkpt>
      <trkpt lat="43.136475" lon="-2.7973744">
        <ele>170.799</ele>
        <time>2021-04-01T09:25:50.419Z</time>
      </trkpt>
      <trkpt lat="43.136476" lon="-2.7973762">
        <ele>170.808</ele>
        <time>2021-04-01T09:25:50.480Z</time>
      </trkpt>
      <trkpt lat="43.1364769" lon="-2.7973784">
        <ele>170.802</ele>
        <time>2021-04-01T09:25:50.542Z</time>
      </trkpt>
      <trkpt lat="43.1364779" lon="-2.7973803">
        <ele>170.79</ele>
        <time>2021-04-01T09:25:50.604Z</time>
      </trkpt>
      <trkpt lat="43.1364788" lon="-2.7973824">
        <ele>170.779</ele>
        <time>2021-04-01T09:25:50.666Z</time>
      </trkpt>
      <trkpt lat="43.1364797" lon="-2.7973843">
        <ele>170.792</ele>
        <time>2021-04-01T09:25:50.728Z</time>
      </trkpt>
      <trkpt lat="43.1364805" lon="-2.7973865">
        <ele>170.796</ele>
        <time>2021-04-01T09:25:50.790Z</time>
      </trkpt>
      <trkpt lat="43.1364813" lon="-2.7973887">
        <ele>170.811</ele>
        <time>2021-04-01T09:25:50.852Z</time>
      </trkpt>
      <trkpt lat="43.1364823" lon="-2.7973906">
        <ele>170.808</ele>
        <time>2021-04-01T09:25:50.914Z</time>
      </trkpt>
      <trkpt lat="43.1364832" lon="-2.7973924">
        <ele>170.845</ele>
        <time>2021-04-01T09:25:50.975Z</time>
      </trkpt>
      <trkpt lat="43.136484" lon="-2.7973946">
        <ele>170.87</ele>
        <time>2021-04-01T09:25:51.037Z</time>
      </trkpt>
      <trkpt lat="43.1364849" lon="-2.7973966">
        <ele>170.907</ele>
        <time>2021-04-01T09:25:51.099Z</time>
      </trkpt>
      <trkpt lat="43.1364857" lon="-2.7973989">
        <ele>170.944</ele>
        <time>2021-04-01T09:25:51.161Z</time>
      </trkpt>
      <trkpt lat="43.1364865" lon="-2.797401">
        <ele>170.981</ele>
        <time>2021-04-01T09:25:51.223Z</time>
      </trkpt>
      <trkpt lat="43.1364872" lon="-2.797403">
        <ele>170.998</ele>
        <time>2021-04-01T09:25:51.285Z</time>
      </trkpt>
      <trkpt lat="43.1364889" lon="-2.7974071">
        <ele>171.032</ele>
        <time>2021-04-01T09:25:51.347Z</time>
      </trkpt>
      <trkpt lat="43.1364898" lon="-2.7974091">
        <ele>171.052</ele>
        <time>2021-04-01T09:25:51.409Z</time>
      </trkpt>
      <trkpt lat="43.136491" lon="-2.7974113">
        <ele>171.074</ele>
        <time>2021-04-01T09:25:51.461Z</time>
      </trkpt>
      <trkpt lat="43.1364924" lon="-2.7974132">
        <ele>171.068</ele>
        <time>2021-04-01T09:25:51.513Z</time>
      </trkpt>
      <trkpt lat="43.1364934" lon="-2.7974155">
        <ele>171.049</ele>
        <time>2021-04-01T09:25:51.565Z</time>
      </trkpt>
      <trkpt lat="43.1364942" lon="-2.7974177">
        <ele>171.043</ele>
        <time>2021-04-01T09:25:51.617Z</time>
      </trkpt>
      <trkpt lat="43.1364949" lon="-2.7974196">
        <ele>171.068</ele>
        <time>2021-04-01T09:25:51.669Z</time>
      </trkpt>
      <trkpt lat="43.1364956" lon="-2.7974216">
        <ele>171.081</ele>
        <time>2021-04-01T09:25:51.721Z</time>
      </trkpt>
      <trkpt lat="43.1364966" lon="-2.7974235">
        <ele>171.109</ele>
        <time>2021-04-01T09:25:51.773Z</time>
      </trkpt>
      <trkpt lat="43.1364972" lon="-2.7974255">
        <ele>171.123</ele>
        <time>2021-04-01T09:25:51.825Z</time>
      </trkpt>
      <trkpt lat="43.136498" lon="-2.7974276">
        <ele>171.142</ele>
        <time>2021-04-01T09:25:51.877Z</time>
      </trkpt>
      <trkpt lat="43.1364988" lon="-2.7974295">
        <ele>171.153</ele>
        <time>2021-04-01T09:25:51.930Z</time>
      </trkpt>
      <trkpt lat="43.1364996" lon="-2.7974312">
        <ele>171.149</ele>
        <time>2021-04-01T09:25:51.982Z</time>
      </trkpt>
      <trkpt lat="43.1365006" lon="-2.7974333">
        <ele>171.193</ele>
        <time>2021-04-01T09:25:52.034Z</time>
      </trkpt>
      <trkpt lat="43.1365017" lon="-2.7974352">
        <ele>171.211</ele>
        <time>2021-04-01T09:25:52.086Z</time>
      </trkpt>
      <trkpt lat="43.1365027" lon="-2.7974374">
        <ele>171.228</ele>
        <time>2021-04-01T09:25:52.138Z</time>
      </trkpt>
      <trkpt lat="43.1365036" lon="-2.7974395">
        <ele>171.255</ele>
        <time>2021-04-01T09:25:52.190Z</time>
      </trkpt>
      <trkpt lat="43.1365047" lon="-2.7974413">
        <ele>171.255</ele>
        <time>2021-04-01T09:25:52.242Z</time>
      </trkpt>
      <trkpt lat="43.1365058" lon="-2.7974431">
        <ele>171.284</ele>
        <time>2021-04-01T09:25:52.294Z</time>
      </trkpt>
      <trkpt lat="43.1365068" lon="-2.7974452">
        <ele>171.306</ele>
        <time>2021-04-01T09:25:52.346Z</time>
      </trkpt>
      <trkpt lat="43.1365078" lon="-2.7974473">
        <ele>171.334</ele>
        <time>2021-04-01T09:25:52.399Z</time>
      </trkpt>
      <trkpt lat="43.1365087" lon="-2.7974493">
        <ele>171.35</ele>
        <time>2021-04-01T09:25:52.457Z</time>
      </trkpt>
      <trkpt lat="43.1365096" lon="-2.7974511">
        <ele>171.395</ele>
        <time>2021-04-01T09:25:52.515Z</time>
      </trkpt>
      <trkpt lat="43.1365104" lon="-2.7974527">
        <ele>171.407</ele>
        <time>2021-04-01T09:25:52.573Z</time>
      </trkpt>
      <trkpt lat="43.1365116" lon="-2.7974549">
        <ele>171.422</ele>
        <time>2021-04-01T09:25:52.631Z</time>
      </trkpt>
      <trkpt lat="43.1365126" lon="-2.7974569">
        <ele>171.413</ele>
        <time>2021-04-01T09:25:52.689Z</time>
      </trkpt>
      <trkpt lat="43.1365134" lon="-2.7974588">
        <ele>171.42</ele>
        <time>2021-04-01T09:25:52.747Z</time>
      </trkpt>
      <trkpt lat="43.1365142" lon="-2.7974608">
        <ele>171.424</ele>
        <time>2021-04-01T09:25:52.805Z</time>
      </trkpt>
      <trkpt lat="43.1365152" lon="-2.7974627">
        <ele>171.414</ele>
        <time>2021-04-01T09:25:52.863Z</time>
      </trkpt>
      <trkpt lat="43.1365162" lon="-2.7974648">
        <ele>171.448</ele>
        <time>2021-04-01T09:25:52.921Z</time>
      </trkpt>
      <trkpt lat="43.1365169" lon="-2.797467">
        <ele>171.477</ele>
        <time>2021-04-01T09:25:52.979Z</time>
      </trkpt>
      <trkpt lat="43.1365179" lon="-2.7974693">
        <ele>171.482</ele>
        <time>2021-04-01T09:25:53.037Z</time>
      </trkpt>
      <trkpt lat="43.1365187" lon="-2.7974711">
        <ele>171.476</ele>
        <time>2021-04-01T09:25:53.095Z</time>
      </trkpt>
      <trkpt lat="43.1365198" lon="-2.7974731">
        <ele>171.495</ele>
        <time>2021-04-01T09:25:53.153Z</time>
      </trkpt>
      <trkpt lat="43.1365209" lon="-2.7974752">
        <ele>171.523</ele>
        <time>2021-04-01T09:25:53.211Z</time>
      </trkpt>
      <trkpt lat="43.1365219" lon="-2.7974772">
        <ele>171.534</ele>
        <time>2021-04-01T09:25:53.269Z</time>
      </trkpt>
      <trkpt lat="43.1365228" lon="-2.7974791">
        <ele>171.557</ele>
        <time>2021-04-01T09:25:53.327Z</time>
      </trkpt>
      <trkpt lat="43.1365239" lon="-2.7974813">
        <ele>171.563</ele>
        <time>2021-04-01T09:25:53.385Z</time>
      </trkpt>
      <trkpt lat="43.1365249" lon="-2.7974834">
        <ele>171.562</ele>
        <time>2021-04-01T09:25:53.444Z</time>
      </trkpt>
      <trkpt lat="43.1365259" lon="-2.7974858">
        <ele>171.586</ele>
        <time>2021-04-01T09:25:53.499Z</time>
      </trkpt>
      <trkpt lat="43.1365268" lon="-2.7974881">
        <ele>171.622</ele>
        <time>2021-04-01T09:25:53.554Z</time>
      </trkpt>
      <trkpt lat="43.1365275" lon="-2.7974899">
        <ele>171.63</ele>
        <time>2021-04-01T09:25:53.609Z</time>
      </trkpt>
      <trkpt lat="43.1365283" lon="-2.7974922">
        <ele>171.68</ele>
        <time>2021-04-01T09:25:53.664Z</time>
      </trkpt>
      <trkpt lat="43.1365292" lon="-2.7974942">
        <ele>171.694</ele>
        <time>2021-04-01T09:25:53.719Z</time>
      </trkpt>
      <trkpt lat="43.1365301" lon="-2.7974964">
        <ele>171.717</ele>
        <time>2021-04-01T09:25:53.774Z</time>
      </trkpt>
      <trkpt lat="43.1365311" lon="-2.7974986">
        <ele>171.763</ele>
        <time>2021-04-01T09:25:53.829Z</time>
      </trkpt>
      <trkpt lat="43.1365321" lon="-2.797501">
        <ele>171.8</ele>
        <time>2021-04-01T09:25:53.884Z</time>
      </trkpt>
      <trkpt lat="43.136533" lon="-2.7975031">
        <ele>171.82</ele>
        <time>2021-04-01T09:25:53.939Z</time>
      </trkpt>
      <trkpt lat="43.136534" lon="-2.7975051">
        <ele>171.84</ele>
        <time>2021-04-01T09:25:53.994Z</time>
      </trkpt>
      <trkpt lat="43.1365348" lon="-2.797507">
        <ele>171.85</ele>
        <time>2021-04-01T09:25:54.049Z</time>
      </trkpt>
      <trkpt lat="43.1365357" lon="-2.7975092">
        <ele>171.858</ele>
        <time>2021-04-01T09:25:54.104Z</time>
      </trkpt>
      <trkpt lat="43.136537" lon="-2.797511">
        <ele>171.846</ele>
        <time>2021-04-01T09:25:54.159Z</time>
      </trkpt>
      <trkpt lat="43.136538" lon="-2.7975131">
        <ele>171.87</ele>
        <time>2021-04-01T09:25:54.214Z</time>
      </trkpt>
      <trkpt lat="43.1365388" lon="-2.7975152">
        <ele>171.902</ele>
        <time>2021-04-01T09:25:54.269Z</time>
      </trkpt>
      <trkpt lat="43.1365398" lon="-2.7975171">
        <ele>171.93</ele>
        <time>2021-04-01T09:25:54.324Z</time>
      </trkpt>
      <trkpt lat="43.1365409" lon="-2.797519">
        <ele>171.919</ele>
        <time>2021-04-01T09:25:54.379Z</time>
      </trkpt>
      <trkpt lat="43.136542" lon="-2.7975209">
        <ele>171.916</ele>
        <time>2021-04-01T09:25:54.434Z</time>
      </trkpt>
      <trkpt lat="43.1365429" lon="-2.797523">
        <ele>171.926</ele>
        <time>2021-04-01T09:25:54.489Z</time>
      </trkpt>
      <trkpt lat="43.1365441" lon="-2.797525">
        <ele>171.939</ele>
        <time>2021-04-01T09:25:54.544Z</time>
      </trkpt>
      <trkpt lat="43.1365455" lon="-2.797527">
        <ele>171.951</ele>
        <time>2021-04-01T09:25:54.599Z</time>
      </trkpt>
      <trkpt lat="43.1365469" lon="-2.7975293">
        <ele>172.062</ele>
        <time>2021-04-01T09:25:54.654Z</time>
      </trkpt>
      <trkpt lat="43.1365483" lon="-2.7975314">
        <ele>172.148</ele>
        <time>2021-04-01T09:25:54.709Z</time>
      </trkpt>
      <trkpt lat="43.1365495" lon="-2.7975336">
        <ele>172.234</ele>
        <time>2021-04-01T09:25:54.764Z</time>
      </trkpt>
      <trkpt lat="43.1365506" lon="-2.7975354">
        <ele>172.23</ele>
        <time>2021-04-01T09:25:54.819Z</time>
      </trkpt>
      <trkpt lat="43.1365516" lon="-2.797537">
        <ele>172.226</ele>
        <time>2021-04-01T09:25:54.874Z</time>
      </trkpt>
      <trkpt lat="43.136553" lon="-2.7975387">
        <ele>172.189</ele>
        <time>2021-04-01T09:25:54.929Z</time>
      </trkpt>
      <trkpt lat="43.1365542" lon="-2.7975407">
        <ele>172.183</ele>
        <time>2021-04-01T09:25:54.984Z</time>
      </trkpt>
      <trkpt lat="43.1365554" lon="-2.7975423">
        <ele>172.174</ele>
        <time>2021-04-01T09:25:55.039Z</time>
      </trkpt>
      <trkpt lat="43.1365565" lon="-2.797544">
        <ele>172.186</ele>
        <time>2021-04-01T09:25:55.094Z</time>
      </trkpt>
      <trkpt lat="43.1365574" lon="-2.7975456">
        <ele>172.185</ele>
        <time>2021-04-01T09:25:55.149Z</time>
      </trkpt>
      <trkpt lat="43.1365587" lon="-2.7975472">
        <ele>172.18</ele>
        <time>2021-04-01T09:25:55.204Z</time>
      </trkpt>
      <trkpt lat="43.1365598" lon="-2.797549">
        <ele>172.148</ele>
        <time>2021-04-01T09:25:55.259Z</time>
      </trkpt>
      <trkpt lat="43.136561" lon="-2.7975511">
        <ele>172.152</ele>
        <time>2021-04-01T09:25:55.314Z</time>
      </trkpt>
      <trkpt lat="43.136562" lon="-2.7975527">
        <ele>172.148</ele>
        <time>2021-04-01T09:25:55.369Z</time>
      </trkpt>
      <trkpt lat="43.1365633" lon="-2.7975544">
        <ele>172.141</ele>
        <time>2021-04-01T09:25:55.424Z</time>
      </trkpt>
      <trkpt lat="43.1365643" lon="-2.7975561">
        <ele>172.128</ele>
        <time>2021-04-01T09:25:55.482Z</time>
      </trkpt>
      <trkpt lat="43.1365652" lon="-2.7975577">
        <ele>172.141</ele>
        <time>2021-04-01T09:25:55.540Z</time>
      </trkpt>
      <trkpt lat="43.136566" lon="-2.7975598">
        <ele>172.139</ele>
        <time>2021-04-01T09:25:55.598Z</time>
      </trkpt>
      <trkpt lat="43.1365671" lon="-2.797562">
        <ele>172.16</ele>
        <time>2021-04-01T09:25:55.656Z</time>
      </trkpt>
      <trkpt lat="43.1365683" lon="-2.797564">
        <ele>172.214</ele>
        <time>2021-04-01T09:25:55.714Z</time>
      </trkpt>
      <trkpt lat="43.1365696" lon="-2.7975661">
        <ele>172.244</ele>
        <time>2021-04-01T09:25:55.772Z</time>
      </trkpt>
      <trkpt lat="43.1365708" lon="-2.7975683">
        <ele>172.25</ele>
        <time>2021-04-01T09:25:55.830Z</time>
      </trkpt>
      <trkpt lat="43.1365716" lon="-2.7975701">
        <ele>172.208</ele>
        <time>2021-04-01T09:25:55.888Z</time>
      </trkpt>
      <trkpt lat="43.1365728" lon="-2.7975722">
        <ele>172.244</ele>
        <time>2021-04-01T09:25:55.946Z</time>
      </trkpt>
      <trkpt lat="43.1365736" lon="-2.797574">
        <ele>172.219</ele>
        <time>2021-04-01T09:25:56.004Z</time>
      </trkpt>
      <trkpt lat="43.1365746" lon="-2.7975754">
        <ele>172.218</ele>
        <time>2021-04-01T09:25:56.062Z</time>
      </trkpt>
      <trkpt lat="43.1365757" lon="-2.7975774">
        <ele>172.186</ele>
        <time>2021-04-01T09:25:56.120Z</time>
      </trkpt>
      <trkpt lat="43.1365767" lon="-2.7975795">
        <ele>172.186</ele>
        <time>2021-04-01T09:25:56.178Z</time>
      </trkpt>
      <trkpt lat="43.1365778" lon="-2.7975814">
        <ele>172.197</ele>
        <time>2021-04-01T09:25:56.236Z</time>
      </trkpt>
      <trkpt lat="43.1365788" lon="-2.7975835">
        <ele>172.22</ele>
        <time>2021-04-01T09:25:56.294Z</time>
      </trkpt>
      <trkpt lat="43.1365799" lon="-2.7975855">
        <ele>172.228</ele>
        <time>2021-04-01T09:25:56.352Z</time>
      </trkpt>
      <trkpt lat="43.1365808" lon="-2.7975876">
        <ele>172.264</ele>
        <time>2021-04-01T09:25:56.410Z</time>
      </trkpt>
      <trkpt lat="43.1365819" lon="-2.7975895">
        <ele>172.223</ele>
        <time>2021-04-01T09:25:56.469Z</time>
      </trkpt>
      <trkpt lat="43.1365829" lon="-2.7975913">
        <ele>172.186</ele>
        <time>2021-04-01T09:25:56.518Z</time>
      </trkpt>
      <trkpt lat="43.136584" lon="-2.7975932">
        <ele>172.188</ele>
        <time>2021-04-01T09:25:56.567Z</time>
      </trkpt>
      <trkpt lat="43.1365852" lon="-2.7975954">
        <ele>172.222</ele>
        <time>2021-04-01T09:25:56.616Z</time>
      </trkpt>
      <trkpt lat="43.1365861" lon="-2.7975974">
        <ele>172.238</ele>
        <time>2021-04-01T09:25:56.665Z</time>
      </trkpt>
      <trkpt lat="43.1365874" lon="-2.797599">
        <ele>172.21</ele>
        <time>2021-04-01T09:25:56.715Z</time>
      </trkpt>
      <trkpt lat="43.1365885" lon="-2.7976009">
        <ele>172.23</ele>
        <time>2021-04-01T09:25:56.764Z</time>
      </trkpt>
      <trkpt lat="43.1365897" lon="-2.7976028">
        <ele>172.2</ele>
        <time>2021-04-01T09:25:56.813Z</time>
      </trkpt>
      <trkpt lat="43.1365907" lon="-2.7976047">
        <ele>172.192</ele>
        <time>2021-04-01T09:25:56.862Z</time>
      </trkpt>
      <trkpt lat="43.1365917" lon="-2.7976065">
        <ele>172.212</ele>
        <time>2021-04-01T09:25:56.911Z</time>
      </trkpt>
      <trkpt lat="43.1365927" lon="-2.7976082">
        <ele>172.22</ele>
        <time>2021-04-01T09:25:56.961Z</time>
      </trkpt>
      <trkpt lat="43.1365937" lon="-2.7976104">
        <ele>172.239</ele>
        <time>2021-04-01T09:25:57.010Z</time>
      </trkpt>
      <trkpt lat="43.1365948" lon="-2.7976122">
        <ele>172.251</ele>
        <time>2021-04-01T09:25:57.059Z</time>
      </trkpt>
      <trkpt lat="43.136596" lon="-2.7976139">
        <ele>172.267</ele>
        <time>2021-04-01T09:25:57.108Z</time>
      </trkpt>
      <trkpt lat="43.1365972" lon="-2.797616">
        <ele>172.264</ele>
        <time>2021-04-01T09:25:57.157Z</time>
      </trkpt>
      <trkpt lat="43.1365983" lon="-2.7976176">
        <ele>172.251</ele>
        <time>2021-04-01T09:25:57.207Z</time>
      </trkpt>
      <trkpt lat="43.1365995" lon="-2.7976194">
        <ele>172.26</ele>
        <time>2021-04-01T09:25:57.256Z</time>
      </trkpt>
      <trkpt lat="43.1366005" lon="-2.7976215">
        <ele>172.289</ele>
        <time>2021-04-01T09:25:57.305Z</time>
      </trkpt>
      <trkpt lat="43.1366016" lon="-2.7976233">
        <ele>172.309</ele>
        <time>2021-04-01T09:25:57.354Z</time>
      </trkpt>
      <trkpt lat="43.1366025" lon="-2.7976258">
        <ele>172.381</ele>
        <time>2021-04-01T09:25:57.404Z</time>
      </trkpt>
      <trkpt lat="43.1366035" lon="-2.7976272">
        <ele>172.309</ele>
        <time>2021-04-01T09:25:57.462Z</time>
      </trkpt>
      <trkpt lat="43.1366046" lon="-2.7976289">
        <ele>172.295</ele>
        <time>2021-04-01T09:25:57.520Z</time>
      </trkpt>
      <trkpt lat="43.1366056" lon="-2.7976308">
        <ele>172.27</ele>
        <time>2021-04-01T09:25:57.578Z</time>
      </trkpt>
      <trkpt lat="43.1366065" lon="-2.7976326">
        <ele>172.28</ele>
        <time>2021-04-01T09:25:57.636Z</time>
      </trkpt>
      <trkpt lat="43.1366073" lon="-2.7976344">
        <ele>172.31</ele>
        <time>2021-04-01T09:25:57.694Z</time>
      </trkpt>
      <trkpt lat="43.1366084" lon="-2.7976361">
        <ele>172.282</ele>
        <time>2021-04-01T09:25:57.752Z</time>
      </trkpt>
      <trkpt lat="43.1366096" lon="-2.7976376">
        <ele>172.243</ele>
        <time>2021-04-01T09:25:57.810Z</time>
      </trkpt>
      <trkpt lat="43.1366107" lon="-2.7976393">
        <ele>172.219</ele>
        <time>2021-04-01T09:25:57.868Z</time>
      </trkpt>
      <trkpt lat="43.1366119" lon="-2.7976413">
        <ele>172.243</ele>
        <time>2021-04-01T09:25:57.926Z</time>
      </trkpt>
      <trkpt lat="43.1366133" lon="-2.7976434">
        <ele>172.294</ele>
        <time>2021-04-01T09:25:57.984Z</time>
      </trkpt>
      <trkpt lat="43.1366145" lon="-2.7976456">
        <ele>172.326</ele>
        <time>2021-04-01T09:25:58.042Z</time>
      </trkpt>
      <trkpt lat="43.1366154" lon="-2.7976476">
        <ele>172.314</ele>
        <time>2021-04-01T09:25:58.100Z</time>
      </trkpt>
      <trkpt lat="43.1366164" lon="-2.7976499">
        <ele>172.323</ele>
        <time>2021-04-01T09:25:58.158Z</time>
      </trkpt>
      <trkpt lat="43.1366175" lon="-2.7976519">
        <ele>172.391</ele>
        <time>2021-04-01T09:25:58.216Z</time>
      </trkpt>
      <trkpt lat="43.1366187" lon="-2.7976538">
        <ele>172.404</ele>
        <time>2021-04-01T09:25:58.274Z</time>
      </trkpt>
      <trkpt lat="43.13662" lon="-2.7976557">
        <ele>172.424</ele>
        <time>2021-04-01T09:25:58.332Z</time>
      </trkpt>
      <trkpt lat="43.136621" lon="-2.7976581">
        <ele>172.44</ele>
        <time>2021-04-01T09:25:58.390Z</time>
      </trkpt>
      <trkpt lat="43.1366222" lon="-2.7976599">
        <ele>172.433</ele>
        <time>2021-04-01T09:25:58.449Z</time>
      </trkpt>
      <trkpt lat="43.1366234" lon="-2.7976618">
        <ele>172.426</ele>
        <time>2021-04-01T09:25:58.504Z</time>
      </trkpt>
      <trkpt lat="43.1366244" lon="-2.7976637">
        <ele>172.407</ele>
        <time>2021-04-01T09:25:58.559Z</time>
      </trkpt>
      <trkpt lat="43.1366255" lon="-2.7976658">
        <ele>172.423</ele>
        <time>2021-04-01T09:25:58.614Z</time>
      </trkpt>
      <trkpt lat="43.1366265" lon="-2.7976678">
        <ele>172.436</ele>
        <time>2021-04-01T09:25:58.669Z</time>
      </trkpt>
      <trkpt lat="43.1366276" lon="-2.7976698">
        <ele>172.422</ele>
        <time>2021-04-01T09:25:58.724Z</time>
      </trkpt>
      <trkpt lat="43.1366287" lon="-2.7976717">
        <ele>172.432</ele>
        <time>2021-04-01T09:25:58.779Z</time>
      </trkpt>
      <trkpt lat="43.1366298" lon="-2.7976736">
        <ele>172.437</ele>
        <time>2021-04-01T09:25:58.834Z</time>
      </trkpt>
      <trkpt lat="43.1366309" lon="-2.7976756">
        <ele>172.448</ele>
        <time>2021-04-01T09:25:58.889Z</time>
      </trkpt>
      <trkpt lat="43.1366319" lon="-2.797678">
        <ele>172.492</ele>
        <time>2021-04-01T09:25:58.944Z</time>
      </trkpt>
      <trkpt lat="43.1366332" lon="-2.7976799">
        <ele>172.532</ele>
        <time>2021-04-01T09:25:58.999Z</time>
      </trkpt>
      <trkpt lat="43.1366346" lon="-2.7976818">
        <ele>172.577</ele>
        <time>2021-04-01T09:25:59.054Z</time>
      </trkpt>
      <trkpt lat="43.1366357" lon="-2.7976837">
        <ele>172.62</ele>
        <time>2021-04-01T09:25:59.109Z</time>
      </trkpt>
      <trkpt lat="43.1366368" lon="-2.7976854">
        <ele>172.63</ele>
        <time>2021-04-01T09:25:59.164Z</time>
      </trkpt>
      <trkpt lat="43.1366379" lon="-2.7976875">
        <ele>172.651</ele>
        <time>2021-04-01T09:25:59.219Z</time>
      </trkpt>
      <trkpt lat="43.1366391" lon="-2.7976895">
        <ele>172.669</ele>
        <time>2021-04-01T09:25:59.274Z</time>
      </trkpt>
      <trkpt lat="43.1366402" lon="-2.7976918">
        <ele>172.697</ele>
        <time>2021-04-01T09:25:59.329Z</time>
      </trkpt>
      <trkpt lat="43.1366413" lon="-2.7976938">
        <ele>172.676</ele>
        <time>2021-04-01T09:25:59.384Z</time>
      </trkpt>
      <trkpt lat="43.1366424" lon="-2.7976955">
        <ele>172.653</ele>
        <time>2021-04-01T09:25:59.439Z</time>
      </trkpt>
      <trkpt lat="43.1366437" lon="-2.7976975">
        <ele>172.694</ele>
        <time>2021-04-01T09:25:59.494Z</time>
      </trkpt>
      <trkpt lat="43.1366446" lon="-2.7976993">
        <ele>172.716</ele>
        <time>2021-04-01T09:25:59.549Z</time>
      </trkpt>
      <trkpt lat="43.1366458" lon="-2.7977011">
        <ele>172.728</ele>
        <time>2021-04-01T09:25:59.604Z</time>
      </trkpt>
      <trkpt lat="43.136647" lon="-2.797703">
        <ele>172.705</ele>
        <time>2021-04-01T09:25:59.659Z</time>
      </trkpt>
      <trkpt lat="43.1366481" lon="-2.7977046">
        <ele>172.694</ele>
        <time>2021-04-01T09:25:59.714Z</time>
      </trkpt>
      <trkpt lat="43.1366491" lon="-2.7977064">
        <ele>172.707</ele>
        <time>2021-04-01T09:25:59.769Z</time>
      </trkpt>
      <trkpt lat="43.1366502" lon="-2.7977082">
        <ele>172.697</ele>
        <time>2021-04-01T09:25:59.824Z</time>
      </trkpt>
      <trkpt lat="43.1366511" lon="-2.7977096">
        <ele>172.727</ele>
        <time>2021-04-01T09:25:59.879Z</time>
      </trkpt>
      <trkpt lat="43.136652" lon="-2.7977111">
        <ele>172.73</ele>
        <time>2021-04-01T09:25:59.934Z</time>
      </trkpt>
      <trkpt lat="43.136653" lon="-2.7977127">
        <ele>172.72</ele>
        <time>2021-04-01T09:25:59.989Z</time>
      </trkpt>
      <trkpt lat="43.1366541" lon="-2.7977144">
        <ele>172.722</ele>
        <time>2021-04-01T09:26:00.044Z</time>
      </trkpt>
      <trkpt lat="43.1366553" lon="-2.7977162">
        <ele>172.722</ele>
        <time>2021-04-01T09:26:00.099Z</time>
      </trkpt>
      <trkpt lat="43.1366563" lon="-2.7977182">
        <ele>172.709</ele>
        <time>2021-04-01T09:26:00.154Z</time>
      </trkpt>
      <trkpt lat="43.1366572" lon="-2.7977199">
        <ele>172.714</ele>
        <time>2021-04-01T09:26:00.209Z</time>
      </trkpt>
      <trkpt lat="43.1366578" lon="-2.7977217">
        <ele>172.719</ele>
        <time>2021-04-01T09:26:00.264Z</time>
      </trkpt>
      <trkpt lat="43.1366588" lon="-2.7977237">
        <ele>172.716</ele>
        <time>2021-04-01T09:26:00.319Z</time>
      </trkpt>
      <trkpt lat="43.1366597" lon="-2.7977256">
        <ele>172.71</ele>
        <time>2021-04-01T09:26:00.374Z</time>
      </trkpt>
      <trkpt lat="43.1366606" lon="-2.7977282">
        <ele>172.704</ele>
        <time>2021-04-01T09:26:00.429Z</time>
      </trkpt>
      <trkpt lat="43.1366616" lon="-2.7977302">
        <ele>172.693</ele>
        <time>2021-04-01T09:26:00.481Z</time>
      </trkpt>
      <trkpt lat="43.1366624" lon="-2.7977324">
        <ele>172.679</ele>
        <time>2021-04-01T09:26:00.533Z</time>
      </trkpt>
      <trkpt lat="43.1366631" lon="-2.7977346">
        <ele>172.687</ele>
        <time>2021-04-01T09:26:00.585Z</time>
      </trkpt>
      <trkpt lat="43.1366638" lon="-2.7977365">
        <ele>172.691</ele>
        <time>2021-04-01T09:26:00.637Z</time>
      </trkpt>
      <trkpt lat="43.1366645" lon="-2.7977384">
        <ele>172.673</ele>
        <time>2021-04-01T09:26:00.689Z</time>
      </trkpt>
      <trkpt lat="43.1366652" lon="-2.797741">
        <ele>172.7</ele>
        <time>2021-04-01T09:26:00.741Z</time>
      </trkpt>
      <trkpt lat="43.136666" lon="-2.7977431">
        <ele>172.69</ele>
        <time>2021-04-01T09:26:00.793Z</time>
      </trkpt>
      <trkpt lat="43.1366669" lon="-2.7977452">
        <ele>172.709</ele>
        <time>2021-04-01T09:26:00.845Z</time>
      </trkpt>
      <trkpt lat="43.136668" lon="-2.7977476">
        <ele>172.733</ele>
        <time>2021-04-01T09:26:00.897Z</time>
      </trkpt>
      <trkpt lat="43.1366689" lon="-2.7977499">
        <ele>172.774</ele>
        <time>2021-04-01T09:26:00.950Z</time>
      </trkpt>
      <trkpt lat="43.1366697" lon="-2.797752">
        <ele>172.785</ele>
        <time>2021-04-01T09:26:01.002Z</time>
      </trkpt>
      <trkpt lat="43.1366705" lon="-2.7977543">
        <ele>172.783</ele>
        <time>2021-04-01T09:26:01.054Z</time>
      </trkpt>
      <trkpt lat="43.1366714" lon="-2.7977565">
        <ele>172.78</ele>
        <time>2021-04-01T09:26:01.106Z</time>
      </trkpt>
      <trkpt lat="43.1366723" lon="-2.7977586">
        <ele>172.745</ele>
        <time>2021-04-01T09:26:01.158Z</time>
      </trkpt>
      <trkpt lat="43.1366733" lon="-2.7977607">
        <ele>172.747</ele>
        <time>2021-04-01T09:26:01.210Z</time>
      </trkpt>
      <trkpt lat="43.1366742" lon="-2.797763">
        <ele>172.748</ele>
        <time>2021-04-01T09:26:01.262Z</time>
      </trkpt>
      <trkpt lat="43.1366753" lon="-2.7977651">
        <ele>172.748</ele>
        <time>2021-04-01T09:26:01.314Z</time>
      </trkpt>
      <trkpt lat="43.1366763" lon="-2.797767">
        <ele>172.742</ele>
        <time>2021-04-01T09:26:01.366Z</time>
      </trkpt>
      <trkpt lat="43.1366771" lon="-2.7977689">
        <ele>172.742</ele>
        <time>2021-04-01T09:26:01.419Z</time>
      </trkpt>
      <trkpt lat="43.1366779" lon="-2.797771">
        <ele>172.735</ele>
        <time>2021-04-01T09:26:01.480Z</time>
      </trkpt>
      <trkpt lat="43.1366787" lon="-2.7977724">
        <ele>172.698</ele>
        <time>2021-04-01T09:26:01.541Z</time>
      </trkpt>
      <trkpt lat="43.1366799" lon="-2.7977739">
        <ele>172.592</ele>
        <time>2021-04-01T09:26:01.603Z</time>
      </trkpt>
      <trkpt lat="43.136681" lon="-2.7977756">
        <ele>172.5</ele>
        <time>2021-04-01T09:26:01.664Z</time>
      </trkpt>
      <trkpt lat="43.1366818" lon="-2.7977773">
        <ele>172.444</ele>
        <time>2021-04-01T09:26:01.726Z</time>
      </trkpt>
      <trkpt lat="43.1366826" lon="-2.7977789">
        <ele>172.385</ele>
        <time>2021-04-01T09:26:01.787Z</time>
      </trkpt>
      <trkpt lat="43.1366836" lon="-2.7977807">
        <ele>172.354</ele>
        <time>2021-04-01T09:26:01.849Z</time>
      </trkpt>
      <trkpt lat="43.1366843" lon="-2.7977823">
        <ele>172.33</ele>
        <time>2021-04-01T09:26:01.910Z</time>
      </trkpt>
      <trkpt lat="43.1366851" lon="-2.7977841">
        <ele>172.322</ele>
        <time>2021-04-01T09:26:01.972Z</time>
      </trkpt>
      <trkpt lat="43.1366861" lon="-2.7977863">
        <ele>172.28</ele>
        <time>2021-04-01T09:26:02.033Z</time>
      </trkpt>
      <trkpt lat="43.1366874" lon="-2.7977882">
        <ele>172.292</ele>
        <time>2021-04-01T09:26:02.095Z</time>
      </trkpt>
      <trkpt lat="43.1366881" lon="-2.7977897">
        <ele>172.249</ele>
        <time>2021-04-01T09:26:02.156Z</time>
      </trkpt>
      <trkpt lat="43.1366891" lon="-2.7977914">
        <ele>172.222</ele>
        <time>2021-04-01T09:26:02.218Z</time>
      </trkpt>
      <trkpt lat="43.1366902" lon="-2.7977924">
        <ele>172.062</ele>
        <time>2021-04-01T09:26:02.279Z</time>
      </trkpt>
      <trkpt lat="43.1366913" lon="-2.7977938">
        <ele>171.955</ele>
        <time>2021-04-01T09:26:02.341Z</time>
      </trkpt>
      <trkpt lat="43.1366924" lon="-2.7977951">
        <ele>171.832</ele>
        <time>2021-04-01T09:26:02.402Z</time>
      </trkpt>
      <trkpt lat="43.1366933" lon="-2.7977963">
        <ele>171.698</ele>
        <time>2021-04-01T09:26:02.464Z</time>
      </trkpt>
      <trkpt lat="43.1366944" lon="-2.7977981">
        <ele>171.639</ele>
        <time>2021-04-01T09:26:02.516Z</time>
      </trkpt>
      <trkpt lat="43.1366953" lon="-2.7978">
        <ele>171.623</ele>
        <time>2021-04-01T09:26:02.568Z</time>
      </trkpt>
      <trkpt lat="43.1366963" lon="-2.7978017">
        <ele>171.639</ele>
        <time>2021-04-01T09:26:02.620Z</time>
      </trkpt>
      <trkpt lat="43.1366971" lon="-2.7978035">
        <ele>171.587</ele>
        <time>2021-04-01T09:26:02.672Z</time>
      </trkpt>
      <trkpt lat="43.1366976" lon="-2.7978053">
        <ele>171.539</ele>
        <time>2021-04-01T09:26:02.724Z</time>
      </trkpt>
      <trkpt lat="43.1366984" lon="-2.7978073">
        <ele>171.506</ele>
        <time>2021-04-01T09:26:02.776Z</time>
      </trkpt>
      <trkpt lat="43.1366994" lon="-2.7978094">
        <ele>171.511</ele>
        <time>2021-04-01T09:26:02.828Z</time>
      </trkpt>
      <trkpt lat="43.1367003" lon="-2.7978114">
        <ele>171.511</ele>
        <time>2021-04-01T09:26:02.880Z</time>
      </trkpt>
      <trkpt lat="43.1367012" lon="-2.7978132">
        <ele>171.514</ele>
        <time>2021-04-01T09:26:02.932Z</time>
      </trkpt>
      <trkpt lat="43.1367025" lon="-2.7978152">
        <ele>171.508</ele>
        <time>2021-04-01T09:26:02.985Z</time>
      </trkpt>
      <trkpt lat="43.1367034" lon="-2.7978171">
        <ele>171.495</ele>
        <time>2021-04-01T09:26:03.037Z</time>
      </trkpt>
      <trkpt lat="43.136704" lon="-2.797819">
        <ele>171.496</ele>
        <time>2021-04-01T09:26:03.089Z</time>
      </trkpt>
      <trkpt lat="43.1367049" lon="-2.7978213">
        <ele>171.509</ele>
        <time>2021-04-01T09:26:03.141Z</time>
      </trkpt>
      <trkpt lat="43.1367056" lon="-2.7978234">
        <ele>171.497</ele>
        <time>2021-04-01T09:26:03.193Z</time>
      </trkpt>
      <trkpt lat="43.1367063" lon="-2.7978255">
        <ele>171.478</ele>
        <time>2021-04-01T09:26:03.245Z</time>
      </trkpt>
      <trkpt lat="43.1367068" lon="-2.7978271">
        <ele>171.459</ele>
        <time>2021-04-01T09:26:03.297Z</time>
      </trkpt>
      <trkpt lat="43.1367076" lon="-2.7978294">
        <ele>171.535</ele>
        <time>2021-04-01T09:26:03.349Z</time>
      </trkpt>
      <trkpt lat="43.1367085" lon="-2.797832">
        <ele>171.634</ele>
        <time>2021-04-01T09:26:03.401Z</time>
      </trkpt>
      <trkpt lat="43.1367089" lon="-2.7978342">
        <ele>171.63</ele>
        <time>2021-04-01T09:26:03.454Z</time>
      </trkpt>
      <trkpt lat="43.1367093" lon="-2.7978366">
        <ele>171.602</ele>
        <time>2021-04-01T09:26:03.509Z</time>
      </trkpt>
      <trkpt lat="43.13671" lon="-2.7978388">
        <ele>171.572</ele>
        <time>2021-04-01T09:26:03.564Z</time>
      </trkpt>
      <trkpt lat="43.1367106" lon="-2.7978411">
        <ele>171.54</ele>
        <time>2021-04-01T09:26:03.619Z</time>
      </trkpt>
      <trkpt lat="43.1367115" lon="-2.7978435">
        <ele>171.566</ele>
        <time>2021-04-01T09:26:03.674Z</time>
      </trkpt>
      <trkpt lat="43.1367126" lon="-2.7978457">
        <ele>171.584</ele>
        <time>2021-04-01T09:26:03.729Z</time>
      </trkpt>
      <trkpt lat="43.1367136" lon="-2.7978478">
        <ele>171.598</ele>
        <time>2021-04-01T09:26:03.784Z</time>
      </trkpt>
      <trkpt lat="43.1367147" lon="-2.79785">
        <ele>171.55</ele>
        <time>2021-04-01T09:26:03.839Z</time>
      </trkpt>
      <trkpt lat="43.1367158" lon="-2.7978524">
        <ele>171.543</ele>
        <time>2021-04-01T09:26:03.894Z</time>
      </trkpt>
      <trkpt lat="43.1367164" lon="-2.7978547">
        <ele>171.473</ele>
        <time>2021-04-01T09:26:03.949Z</time>
      </trkpt>
      <trkpt lat="43.1367171" lon="-2.7978569">
        <ele>171.391</ele>
        <time>2021-04-01T09:26:04.004Z</time>
      </trkpt>
      <trkpt lat="43.1367176" lon="-2.797859">
        <ele>171.352</ele>
        <time>2021-04-01T09:26:04.059Z</time>
      </trkpt>
      <trkpt lat="43.1367183" lon="-2.797861">
        <ele>171.327</ele>
        <time>2021-04-01T09:26:04.114Z</time>
      </trkpt>
      <trkpt lat="43.1367188" lon="-2.7978634">
        <ele>171.336</ele>
        <time>2021-04-01T09:26:04.169Z</time>
      </trkpt>
      <trkpt lat="43.1367196" lon="-2.7978649">
        <ele>171.241</ele>
        <time>2021-04-01T09:26:04.224Z</time>
      </trkpt>
      <trkpt lat="43.1367204" lon="-2.7978671">
        <ele>171.171</ele>
        <time>2021-04-01T09:26:04.279Z</time>
      </trkpt>
      <trkpt lat="43.1367212" lon="-2.7978692">
        <ele>171.125</ele>
        <time>2021-04-01T09:26:04.334Z</time>
      </trkpt>
      <trkpt lat="43.1367222" lon="-2.7978712">
        <ele>171.095</ele>
        <time>2021-04-01T09:26:04.389Z</time>
      </trkpt>
      <trkpt lat="43.136723" lon="-2.7978732">
        <ele>171.047</ele>
        <time>2021-04-01T09:26:04.444Z</time>
      </trkpt>
      <trkpt lat="43.1367241" lon="-2.7978754">
        <ele>170.975</ele>
        <time>2021-04-01T09:26:04.499Z</time>
      </trkpt>
      <trkpt lat="43.1367251" lon="-2.7978775">
        <ele>170.897</ele>
        <time>2021-04-01T09:26:04.554Z</time>
      </trkpt>
      <trkpt lat="43.1367262" lon="-2.7978798">
        <ele>170.832</ele>
        <time>2021-04-01T09:26:04.609Z</time>
      </trkpt>
      <trkpt lat="43.1367272" lon="-2.7978822">
        <ele>170.799</ele>
        <time>2021-04-01T09:26:04.664Z</time>
      </trkpt>
      <trkpt lat="43.1367279" lon="-2.7978845">
        <ele>170.73</ele>
        <time>2021-04-01T09:26:04.719Z</time>
      </trkpt>
      <trkpt lat="43.1367284" lon="-2.7978868">
        <ele>170.645</ele>
        <time>2021-04-01T09:26:04.774Z</time>
      </trkpt>
      <trkpt lat="43.1367289" lon="-2.7978893">
        <ele>170.558</ele>
        <time>2021-04-01T09:26:04.829Z</time>
      </trkpt>
      <trkpt lat="43.1367295" lon="-2.7978915">
        <ele>170.507</ele>
        <time>2021-04-01T09:26:04.884Z</time>
      </trkpt>
      <trkpt lat="43.13673" lon="-2.7978934">
        <ele>170.496</ele>
        <time>2021-04-01T09:26:04.939Z</time>
      </trkpt>
      <trkpt lat="43.1367309" lon="-2.7978955">
        <ele>170.51</ele>
        <time>2021-04-01T09:26:04.994Z</time>
      </trkpt>
      <trkpt lat="43.1367316" lon="-2.7978979">
        <ele>170.556</ele>
        <time>2021-04-01T09:26:05.049Z</time>
      </trkpt>
      <trkpt lat="43.1367325" lon="-2.7979008">
        <ele>170.664</ele>
        <time>2021-04-01T09:26:05.104Z</time>
      </trkpt>
      <trkpt lat="43.1367336" lon="-2.7979036">
        <ele>170.751</ele>
        <time>2021-04-01T09:26:05.159Z</time>
      </trkpt>
      <trkpt lat="43.1367344" lon="-2.7979052">
        <ele>170.743</ele>
        <time>2021-04-01T09:26:05.214Z</time>
      </trkpt>
      <trkpt lat="43.1367351" lon="-2.7979078">
        <ele>170.794</ele>
        <time>2021-04-01T09:26:05.269Z</time>
      </trkpt>
      <trkpt lat="43.1367358" lon="-2.7979101">
        <ele>170.832</ele>
        <time>2021-04-01T09:26:05.324Z</time>
      </trkpt>
      <trkpt lat="43.1367364" lon="-2.7979123">
        <ele>170.857</ele>
        <time>2021-04-01T09:26:05.379Z</time>
      </trkpt>
      <trkpt lat="43.1367371" lon="-2.7979145">
        <ele>170.882</ele>
        <time>2021-04-01T09:26:05.434Z</time>
      </trkpt>
      <trkpt lat="43.1367378" lon="-2.7979169">
        <ele>170.907</ele>
        <time>2021-04-01T09:26:05.489Z</time>
      </trkpt>
      <trkpt lat="43.1367384" lon="-2.7979191">
        <ele>170.925</ele>
        <time>2021-04-01T09:26:05.544Z</time>
      </trkpt>
      <trkpt lat="43.1367388" lon="-2.7979213">
        <ele>170.935</ele>
        <time>2021-04-01T09:26:05.599Z</time>
      </trkpt>
      <trkpt lat="43.1367391" lon="-2.7979236">
        <ele>170.951</ele>
        <time>2021-04-01T09:26:05.654Z</time>
      </trkpt>
      <trkpt lat="43.1367397" lon="-2.797926">
        <ele>170.947</ele>
        <time>2021-04-01T09:26:05.709Z</time>
      </trkpt>
      <trkpt lat="43.1367403" lon="-2.7979282">
        <ele>170.933</ele>
        <time>2021-04-01T09:26:05.764Z</time>
      </trkpt>
      <trkpt lat="43.1367414" lon="-2.7979308">
        <ele>170.968</ele>
        <time>2021-04-01T09:26:05.819Z</time>
      </trkpt>
      <trkpt lat="43.1367418" lon="-2.7979333">
        <ele>171.002</ele>
        <time>2021-04-01T09:26:05.874Z</time>
      </trkpt>
      <trkpt lat="43.1367422" lon="-2.7979355">
        <ele>171.071</ele>
        <time>2021-04-01T09:26:05.929Z</time>
      </trkpt>
      <trkpt lat="43.1367429" lon="-2.7979379">
        <ele>171.043</ele>
        <time>2021-04-01T09:26:05.984Z</time>
      </trkpt>
      <trkpt lat="43.1367433" lon="-2.7979404">
        <ele>171.021</ele>
        <time>2021-04-01T09:26:06.039Z</time>
      </trkpt>
      <trkpt lat="43.1367436" lon="-2.7979427">
        <ele>171.052</ele>
        <time>2021-04-01T09:26:06.094Z</time>
      </trkpt>
      <trkpt lat="43.1367438" lon="-2.7979448">
        <ele>171.026</ele>
        <time>2021-04-01T09:26:06.149Z</time>
      </trkpt>
      <trkpt lat="43.1367447" lon="-2.7979474">
        <ele>171.049</ele>
        <time>2021-04-01T09:26:06.204Z</time>
      </trkpt>
      <trkpt lat="43.1367456" lon="-2.7979501">
        <ele>171.075</ele>
        <time>2021-04-01T09:26:06.259Z</time>
      </trkpt>
      <trkpt lat="43.1367461" lon="-2.7979524">
        <ele>171.12</ele>
        <time>2021-04-01T09:26:06.314Z</time>
      </trkpt>
      <trkpt lat="43.1367463" lon="-2.7979548">
        <ele>171.202</ele>
        <time>2021-04-01T09:26:06.369Z</time>
      </trkpt>
      <trkpt lat="43.1367467" lon="-2.7979572">
        <ele>171.199</ele>
        <time>2021-04-01T09:26:06.424Z</time>
      </trkpt>
      <trkpt lat="43.1367473" lon="-2.7979599">
        <ele>171.146</ele>
        <time>2021-04-01T09:26:06.479Z</time>
      </trkpt>
      <trkpt lat="43.1367479" lon="-2.797962">
        <ele>171.205</ele>
        <time>2021-04-01T09:26:06.534Z</time>
      </trkpt>
      <trkpt lat="43.1367492" lon="-2.7979646">
        <ele>171.313</ele>
        <time>2021-04-01T09:26:06.589Z</time>
      </trkpt>
      <trkpt lat="43.1367497" lon="-2.7979667">
        <ele>171.346</ele>
        <time>2021-04-01T09:26:06.644Z</time>
      </trkpt>
      <trkpt lat="43.1367499" lon="-2.7979688">
        <ele>171.389</ele>
        <time>2021-04-01T09:26:06.699Z</time>
      </trkpt>
      <trkpt lat="43.1367502" lon="-2.797971">
        <ele>171.38</ele>
        <time>2021-04-01T09:26:06.754Z</time>
      </trkpt>
      <trkpt lat="43.1367505" lon="-2.797973">
        <ele>171.39</ele>
        <time>2021-04-01T09:26:06.809Z</time>
      </trkpt>
      <trkpt lat="43.1367506" lon="-2.7979752">
        <ele>171.386</ele>
        <time>2021-04-01T09:26:06.864Z</time>
      </trkpt>
      <trkpt lat="43.1367508" lon="-2.7979774">
        <ele>171.398</ele>
        <time>2021-04-01T09:26:06.919Z</time>
      </trkpt>
      <trkpt lat="43.1367516" lon="-2.7979795">
        <ele>171.444</ele>
        <time>2021-04-01T09:26:06.974Z</time>
      </trkpt>
      <trkpt lat="43.1367526" lon="-2.7979818">
        <ele>171.5</ele>
        <time>2021-04-01T09:26:07.029Z</time>
      </trkpt>
      <trkpt lat="43.1367531" lon="-2.7979843">
        <ele>171.504</ele>
        <time>2021-04-01T09:26:07.084Z</time>
      </trkpt>
      <trkpt lat="43.1367534" lon="-2.7979863">
        <ele>171.471</ele>
        <time>2021-04-01T09:26:07.139Z</time>
      </trkpt>
      <trkpt lat="43.136754" lon="-2.7979892">
        <ele>171.446</ele>
        <time>2021-04-01T09:26:07.194Z</time>
      </trkpt>
      <trkpt lat="43.1367546" lon="-2.797992">
        <ele>171.468</ele>
        <time>2021-04-01T09:26:07.249Z</time>
      </trkpt>
      <trkpt lat="43.1367551" lon="-2.7979944">
        <ele>171.535</ele>
        <time>2021-04-01T09:26:07.304Z</time>
      </trkpt>
      <trkpt lat="43.1367555" lon="-2.7979966">
        <ele>171.571</ele>
        <time>2021-04-01T09:26:07.359Z</time>
      </trkpt>
      <trkpt lat="43.1367559" lon="-2.7979991">
        <ele>171.588</ele>
        <time>2021-04-01T09:26:07.414Z</time>
      </trkpt>
      <trkpt lat="43.1367562" lon="-2.7980014">
        <ele>171.608</ele>
        <time>2021-04-01T09:26:07.469Z</time>
      </trkpt>
      <trkpt lat="43.1367566" lon="-2.7980038">
        <ele>171.608</ele>
        <time>2021-04-01T09:26:07.524Z</time>
      </trkpt>
      <trkpt lat="43.1367572" lon="-2.7980062">
        <ele>171.634</ele>
        <time>2021-04-01T09:26:07.579Z</time>
      </trkpt>
      <trkpt lat="43.1367576" lon="-2.7980083">
        <ele>171.631</ele>
        <time>2021-04-01T09:26:07.634Z</time>
      </trkpt>
      <trkpt lat="43.1367584" lon="-2.7980108">
        <ele>171.691</ele>
        <time>2021-04-01T09:26:07.689Z</time>
      </trkpt>
      <trkpt lat="43.1367589" lon="-2.7980128">
        <ele>171.709</ele>
        <time>2021-04-01T09:26:07.744Z</time>
      </trkpt>
      <trkpt lat="43.1367593" lon="-2.7980146">
        <ele>171.721</ele>
        <time>2021-04-01T09:26:07.799Z</time>
      </trkpt>
      <trkpt lat="43.1367598" lon="-2.7980165">
        <ele>171.697</ele>
        <time>2021-04-01T09:26:07.854Z</time>
      </trkpt>
      <trkpt lat="43.1367604" lon="-2.7980187">
        <ele>171.697</ele>
        <time>2021-04-01T09:26:07.909Z</time>
      </trkpt>
      <trkpt lat="43.1367608" lon="-2.7980207">
        <ele>171.71</ele>
        <time>2021-04-01T09:26:07.964Z</time>
      </trkpt>
      <trkpt lat="43.1367613" lon="-2.798023">
        <ele>171.744</ele>
        <time>2021-04-01T09:26:08.019Z</time>
      </trkpt>
      <trkpt lat="43.1367619" lon="-2.7980254">
        <ele>171.757</ele>
        <time>2021-04-01T09:26:08.074Z</time>
      </trkpt>
      <trkpt lat="43.1367624" lon="-2.7980277">
        <ele>171.82</ele>
        <time>2021-04-01T09:26:08.129Z</time>
      </trkpt>
      <trkpt lat="43.1367628" lon="-2.7980299">
        <ele>171.805</ele>
        <time>2021-04-01T09:26:08.184Z</time>
      </trkpt>
      <trkpt lat="43.1367631" lon="-2.7980323">
        <ele>171.819</ele>
        <time>2021-04-01T09:26:08.239Z</time>
      </trkpt>
      <trkpt lat="43.1367633" lon="-2.7980343">
        <ele>171.82</ele>
        <time>2021-04-01T09:26:08.294Z</time>
      </trkpt>
      <trkpt lat="43.1367635" lon="-2.7980364">
        <ele>171.837</ele>
        <time>2021-04-01T09:26:08.349Z</time>
      </trkpt>
      <trkpt lat="43.1367638" lon="-2.7980389">
        <ele>171.868</ele>
        <time>2021-04-01T09:26:08.404Z</time>
      </trkpt>
      <trkpt lat="43.1367641" lon="-2.7980416">
        <ele>171.897</ele>
        <time>2021-04-01T09:26:08.459Z</time>
      </trkpt>
      <trkpt lat="43.1367645" lon="-2.7980437">
        <ele>171.93</ele>
        <time>2021-04-01T09:26:08.514Z</time>
      </trkpt>
      <trkpt lat="43.1367647" lon="-2.7980457">
        <ele>171.946</ele>
        <time>2021-04-01T09:26:08.569Z</time>
      </trkpt>
      <trkpt lat="43.1367647" lon="-2.7980475">
        <ele>171.992</ele>
        <time>2021-04-01T09:26:08.624Z</time>
      </trkpt>
      <trkpt lat="43.1367645" lon="-2.7980493">
        <ele>171.974</ele>
        <time>2021-04-01T09:26:08.679Z</time>
      </trkpt>
      <trkpt lat="43.1367643" lon="-2.798051">
        <ele>171.925</ele>
        <time>2021-04-01T09:26:08.734Z</time>
      </trkpt>
      <trkpt lat="43.1367645" lon="-2.7980532">
        <ele>171.91</ele>
        <time>2021-04-01T09:26:08.789Z</time>
      </trkpt>
      <trkpt lat="43.1367645" lon="-2.7980555">
        <ele>171.884</ele>
        <time>2021-04-01T09:26:08.844Z</time>
      </trkpt>
      <trkpt lat="43.1367643" lon="-2.7980575">
        <ele>171.958</ele>
        <time>2021-04-01T09:26:08.899Z</time>
      </trkpt>
      <trkpt lat="43.1367644" lon="-2.7980593">
        <ele>172.001</ele>
        <time>2021-04-01T09:26:08.954Z</time>
      </trkpt>
      <trkpt lat="43.1367648" lon="-2.7980611">
        <ele>171.979</ele>
        <time>2021-04-01T09:26:09.009Z</time>
      </trkpt>
      <trkpt lat="43.1367652" lon="-2.7980633">
        <ele>172.005</ele>
        <time>2021-04-01T09:26:09.064Z</time>
      </trkpt>
      <trkpt lat="43.1367657" lon="-2.7980658">
        <ele>172.07</ele>
        <time>2021-04-01T09:26:09.119Z</time>
      </trkpt>
      <trkpt lat="43.1367663" lon="-2.798068">
        <ele>172.1</ele>
        <time>2021-04-01T09:26:09.174Z</time>
      </trkpt>
      <trkpt lat="43.1367664" lon="-2.7980702">
        <ele>172.094</ele>
        <time>2021-04-01T09:26:09.229Z</time>
      </trkpt>
      <trkpt lat="43.1367669" lon="-2.7980723">
        <ele>172.072</ele>
        <time>2021-04-01T09:26:09.284Z</time>
      </trkpt>
      <trkpt lat="43.1367671" lon="-2.7980741">
        <ele>172.058</ele>
        <time>2021-04-01T09:26:09.339Z</time>
      </trkpt>
      <trkpt lat="43.1367672" lon="-2.798076">
        <ele>172.031</ele>
        <time>2021-04-01T09:26:09.394Z</time>
      </trkpt>
      <trkpt lat="43.1367674" lon="-2.7980781">
        <ele>172.049</ele>
        <time>2021-04-01T09:26:09.449Z</time>
      </trkpt>
      <trkpt lat="43.1367678" lon="-2.7980803">
        <ele>172.064</ele>
        <time>2021-04-01T09:26:09.504Z</time>
      </trkpt>
      <trkpt lat="43.1367681" lon="-2.7980827">
        <ele>172.109</ele>
        <time>2021-04-01T09:26:09.559Z</time>
      </trkpt>
      <trkpt lat="43.136768" lon="-2.798085">
        <ele>172.13</ele>
        <time>2021-04-01T09:26:09.614Z</time>
      </trkpt>
      <trkpt lat="43.1367682" lon="-2.7980875">
        <ele>172.153</ele>
        <time>2021-04-01T09:26:09.669Z</time>
      </trkpt>
      <trkpt lat="43.1367684" lon="-2.7980897">
        <ele>172.182</ele>
        <time>2021-04-01T09:26:09.724Z</time>
      </trkpt>
      <trkpt lat="43.1367686" lon="-2.7980921">
        <ele>172.219</ele>
        <time>2021-04-01T09:26:09.779Z</time>
      </trkpt>
      <trkpt lat="43.1367689" lon="-2.7980943">
        <ele>172.231</ele>
        <time>2021-04-01T09:26:09.834Z</time>
      </trkpt>
      <trkpt lat="43.136769" lon="-2.7980967">
        <ele>172.236</ele>
        <time>2021-04-01T09:26:09.889Z</time>
      </trkpt>
      <trkpt lat="43.1367691" lon="-2.798099">
        <ele>172.259</ele>
        <time>2021-04-01T09:26:09.944Z</time>
      </trkpt>
      <trkpt lat="43.1367692" lon="-2.7981013">
        <ele>172.295</ele>
        <time>2021-04-01T09:26:09.999Z</time>
      </trkpt>
      <trkpt lat="43.1367694" lon="-2.7981034">
        <ele>172.294</ele>
        <time>2021-04-01T09:26:10.054Z</time>
      </trkpt>
      <trkpt lat="43.1367695" lon="-2.7981056">
        <ele>172.292</ele>
        <time>2021-04-01T09:26:10.109Z</time>
      </trkpt>
      <trkpt lat="43.1367701" lon="-2.7981072">
        <ele>172.216</ele>
        <time>2021-04-01T09:26:10.164Z</time>
      </trkpt>
      <trkpt lat="43.1367706" lon="-2.7981092">
        <ele>172.233</ele>
        <time>2021-04-01T09:26:10.219Z</time>
      </trkpt>
      <trkpt lat="43.1367704" lon="-2.7981115">
        <ele>172.266</ele>
        <time>2021-04-01T09:26:10.274Z</time>
      </trkpt>
      <trkpt lat="43.1367706" lon="-2.7981136">
        <ele>172.282</ele>
        <time>2021-04-01T09:26:10.329Z</time>
      </trkpt>
      <trkpt lat="43.1367711" lon="-2.7981157">
        <ele>172.28</ele>
        <time>2021-04-01T09:26:10.384Z</time>
      </trkpt>
      <trkpt lat="43.1367714" lon="-2.7981178">
        <ele>172.228</ele>
        <time>2021-04-01T09:26:10.439Z</time>
      </trkpt>
      <trkpt lat="43.1367719" lon="-2.7981197">
        <ele>172.196</ele>
        <time>2021-04-01T09:26:10.494Z</time>
      </trkpt>
      <trkpt lat="43.1367716" lon="-2.7981214">
        <ele>172.152</ele>
        <time>2021-04-01T09:26:10.549Z</time>
      </trkpt>
      <trkpt lat="43.136772" lon="-2.7981231">
        <ele>172.115</ele>
        <time>2021-04-01T09:26:10.604Z</time>
      </trkpt>
      <trkpt lat="43.1367724" lon="-2.798125">
        <ele>172.081</ele>
        <time>2021-04-01T09:26:10.659Z</time>
      </trkpt>
      <trkpt lat="43.1367727" lon="-2.7981269">
        <ele>172.094</ele>
        <time>2021-04-01T09:26:10.714Z</time>
      </trkpt>
      <trkpt lat="43.1367729" lon="-2.798129">
        <ele>172.111</ele>
        <time>2021-04-01T09:26:10.769Z</time>
      </trkpt>
      <trkpt lat="43.1367731" lon="-2.7981312">
        <ele>172.138</ele>
        <time>2021-04-01T09:26:10.824Z</time>
      </trkpt>
      <trkpt lat="43.1367731" lon="-2.7981334">
        <ele>172.121</ele>
        <time>2021-04-01T09:26:10.879Z</time>
      </trkpt>
      <trkpt lat="43.1367731" lon="-2.7981357">
        <ele>172.138</ele>
        <time>2021-04-01T09:26:10.934Z</time>
      </trkpt>
      <trkpt lat="43.1367732" lon="-2.7981375">
        <ele>172.099</ele>
        <time>2021-04-01T09:26:10.989Z</time>
      </trkpt>
      <trkpt lat="43.1367733" lon="-2.7981393">
        <ele>172.067</ele>
        <time>2021-04-01T09:26:11.044Z</time>
      </trkpt>
      <trkpt lat="43.1367732" lon="-2.7981411">
        <ele>172.061</ele>
        <time>2021-04-01T09:26:11.099Z</time>
      </trkpt>
      <trkpt lat="43.1367732" lon="-2.7981433">
        <ele>172.077</ele>
        <time>2021-04-01T09:26:11.154Z</time>
      </trkpt>
      <trkpt lat="43.1367737" lon="-2.7981452">
        <ele>172.068</ele>
        <time>2021-04-01T09:26:11.209Z</time>
      </trkpt>
      <trkpt lat="43.136774" lon="-2.7981473">
        <ele>172.061</ele>
        <time>2021-04-01T09:26:11.264Z</time>
      </trkpt>
      <trkpt lat="43.1367738" lon="-2.7981495">
        <ele>172.041</ele>
        <time>2021-04-01T09:26:11.319Z</time>
      </trkpt>
      <trkpt lat="43.1367742" lon="-2.7981514">
        <ele>171.996</ele>
        <time>2021-04-01T09:26:11.374Z</time>
      </trkpt>
      <trkpt lat="43.1367745" lon="-2.7981532">
        <ele>171.964</ele>
        <time>2021-04-01T09:26:11.429Z</time>
      </trkpt>
      <trkpt lat="43.1367748" lon="-2.7981552">
        <ele>171.945</ele>
        <time>2021-04-01T09:26:11.484Z</time>
      </trkpt>
      <trkpt lat="43.1367748" lon="-2.7981575">
        <ele>171.995</ele>
        <time>2021-04-01T09:26:11.539Z</time>
      </trkpt>
      <trkpt lat="43.1367751" lon="-2.7981595">
        <ele>171.968</ele>
        <time>2021-04-01T09:26:11.594Z</time>
      </trkpt>
      <trkpt lat="43.1367756" lon="-2.7981617">
        <ele>171.994</ele>
        <time>2021-04-01T09:26:11.649Z</time>
      </trkpt>
      <trkpt lat="43.1367757" lon="-2.798164">
        <ele>172.001</ele>
        <time>2021-04-01T09:26:11.704Z</time>
      </trkpt>
      <trkpt lat="43.1367763" lon="-2.7981657">
        <ele>171.943</ele>
        <time>2021-04-01T09:26:11.759Z</time>
      </trkpt>
      <trkpt lat="43.1367761" lon="-2.7981675">
        <ele>171.907</ele>
        <time>2021-04-01T09:26:11.814Z</time>
      </trkpt>
      <trkpt lat="43.1367764" lon="-2.7981698">
        <ele>171.934</ele>
        <time>2021-04-01T09:26:11.869Z</time>
      </trkpt>
      <trkpt lat="43.1367767" lon="-2.798172">
        <ele>171.952</ele>
        <time>2021-04-01T09:26:11.924Z</time>
      </trkpt>
      <trkpt lat="43.1367776" lon="-2.7981739">
        <ele>171.957</ele>
        <time>2021-04-01T09:26:11.979Z</time>
      </trkpt>
      <trkpt lat="43.1367779" lon="-2.7981763">
        <ele>171.983</ele>
        <time>2021-04-01T09:26:12.034Z</time>
      </trkpt>
      <trkpt lat="43.1367784" lon="-2.7981784">
        <ele>172.008</ele>
        <time>2021-04-01T09:26:12.089Z</time>
      </trkpt>
      <trkpt lat="43.1367784" lon="-2.7981811">
        <ele>172.101</ele>
        <time>2021-04-01T09:26:12.144Z</time>
      </trkpt>
      <trkpt lat="43.1367788" lon="-2.7981831">
        <ele>172.126</ele>
        <time>2021-04-01T09:26:12.199Z</time>
      </trkpt>
      <trkpt lat="43.136779" lon="-2.7981853">
        <ele>172.165</ele>
        <time>2021-04-01T09:26:12.254Z</time>
      </trkpt>
      <trkpt lat="43.1367794" lon="-2.7981877">
        <ele>172.209</ele>
        <time>2021-04-01T09:26:12.309Z</time>
      </trkpt>
      <trkpt lat="43.1367796" lon="-2.7981904">
        <ele>172.285</ele>
        <time>2021-04-01T09:26:12.364Z</time>
      </trkpt>
      <trkpt lat="43.1367798" lon="-2.7981925">
        <ele>172.259</ele>
        <time>2021-04-01T09:26:12.419Z</time>
      </trkpt>
      <trkpt lat="43.13678" lon="-2.7981944">
        <ele>172.26</ele>
        <time>2021-04-01T09:26:12.474Z</time>
      </trkpt>
      <trkpt lat="43.1367803" lon="-2.7981965">
        <ele>172.29</ele>
        <time>2021-04-01T09:26:12.529Z</time>
      </trkpt>
      <trkpt lat="43.1367808" lon="-2.798199">
        <ele>172.367</ele>
        <time>2021-04-01T09:26:12.584Z</time>
      </trkpt>
      <trkpt lat="43.1367811" lon="-2.798201">
        <ele>172.392</ele>
        <time>2021-04-01T09:26:12.639Z</time>
      </trkpt>
      <trkpt lat="43.1367814" lon="-2.7982029">
        <ele>172.386</ele>
        <time>2021-04-01T09:26:12.694Z</time>
      </trkpt>
      <trkpt lat="43.1367818" lon="-2.7982052">
        <ele>172.42</ele>
        <time>2021-04-01T09:26:12.749Z</time>
      </trkpt>
      <trkpt lat="43.1367821" lon="-2.7982072">
        <ele>172.432</ele>
        <time>2021-04-01T09:26:12.804Z</time>
      </trkpt>
      <trkpt lat="43.1367824" lon="-2.7982096">
        <ele>172.455</ele>
        <time>2021-04-01T09:26:12.859Z</time>
      </trkpt>
      <trkpt lat="43.1367826" lon="-2.7982117">
        <ele>172.47</ele>
        <time>2021-04-01T09:26:12.914Z</time>
      </trkpt>
      <trkpt lat="43.1367828" lon="-2.7982142">
        <ele>172.575</ele>
        <time>2021-04-01T09:26:12.969Z</time>
      </trkpt>
      <trkpt lat="43.1367826" lon="-2.7982164">
        <ele>172.591</ele>
        <time>2021-04-01T09:26:13.024Z</time>
      </trkpt>
      <trkpt lat="43.1367829" lon="-2.7982184">
        <ele>172.617</ele>
        <time>2021-04-01T09:26:13.079Z</time>
      </trkpt>
      <trkpt lat="43.1367834" lon="-2.7982208">
        <ele>172.721</ele>
        <time>2021-04-01T09:26:13.134Z</time>
      </trkpt>
      <trkpt lat="43.1367836" lon="-2.7982227">
        <ele>172.704</ele>
        <time>2021-04-01T09:26:13.189Z</time>
      </trkpt>
      <trkpt lat="43.1367839" lon="-2.798225">
        <ele>172.733</ele>
        <time>2021-04-01T09:26:13.244Z</time>
      </trkpt>
      <trkpt lat="43.1367838" lon="-2.798227">
        <ele>172.722</ele>
        <time>2021-04-01T09:26:13.299Z</time>
      </trkpt>
      <trkpt lat="43.1367836" lon="-2.7982291">
        <ele>172.767</ele>
        <time>2021-04-01T09:26:13.354Z</time>
      </trkpt>
      <trkpt lat="43.1367837" lon="-2.798231">
        <ele>172.763</ele>
        <time>2021-04-01T09:26:13.409Z</time>
      </trkpt>
      <trkpt lat="43.1367838" lon="-2.7982331">
        <ele>172.785</ele>
        <time>2021-04-01T09:26:13.464Z</time>
      </trkpt>
      <trkpt lat="43.1367843" lon="-2.7982354">
        <ele>172.821</ele>
        <time>2021-04-01T09:26:13.519Z</time>
      </trkpt>
      <trkpt lat="43.1367846" lon="-2.7982374">
        <ele>172.84</ele>
        <time>2021-04-01T09:26:13.574Z</time>
      </trkpt>
      <trkpt lat="43.1367847" lon="-2.7982392">
        <ele>172.875</ele>
        <time>2021-04-01T09:26:13.629Z</time>
      </trkpt>
      <trkpt lat="43.1367845" lon="-2.7982411">
        <ele>172.928</ele>
        <time>2021-04-01T09:26:13.684Z</time>
      </trkpt>
      <trkpt lat="43.1367846" lon="-2.7982434">
        <ele>172.936</ele>
        <time>2021-04-01T09:26:13.739Z</time>
      </trkpt>
      <trkpt lat="43.1367849" lon="-2.7982455">
        <ele>172.972</ele>
        <time>2021-04-01T09:26:13.794Z</time>
      </trkpt>
      <trkpt lat="43.136785" lon="-2.7982478">
        <ele>172.962</ele>
        <time>2021-04-01T09:26:13.849Z</time>
      </trkpt>
      <trkpt lat="43.1367854" lon="-2.79825">
        <ele>172.991</ele>
        <time>2021-04-01T09:26:13.904Z</time>
      </trkpt>
      <trkpt lat="43.1367858" lon="-2.7982521">
        <ele>173.021</ele>
        <time>2021-04-01T09:26:13.959Z</time>
      </trkpt>
      <trkpt lat="43.1367862" lon="-2.7982541">
        <ele>173.064</ele>
        <time>2021-04-01T09:26:14.014Z</time>
      </trkpt>
      <trkpt lat="43.1367867" lon="-2.7982561">
        <ele>173.09</ele>
        <time>2021-04-01T09:26:14.069Z</time>
      </trkpt>
      <trkpt lat="43.1367869" lon="-2.7982582">
        <ele>173.108</ele>
        <time>2021-04-01T09:26:14.124Z</time>
      </trkpt>
      <trkpt lat="43.136787" lon="-2.7982605">
        <ele>173.163</ele>
        <time>2021-04-01T09:26:14.179Z</time>
      </trkpt>
      <trkpt lat="43.1367871" lon="-2.7982626">
        <ele>173.192</ele>
        <time>2021-04-01T09:26:14.234Z</time>
      </trkpt>
      <trkpt lat="43.1367876" lon="-2.7982646">
        <ele>173.165</ele>
        <time>2021-04-01T09:26:14.289Z</time>
      </trkpt>
      <trkpt lat="43.1367881" lon="-2.7982662">
        <ele>173.122</ele>
        <time>2021-04-01T09:26:14.344Z</time>
      </trkpt>
      <trkpt lat="43.1367885" lon="-2.7982678">
        <ele>173.089</ele>
        <time>2021-04-01T09:26:14.399Z</time>
      </trkpt>
      <trkpt lat="43.1367887" lon="-2.798269">
        <ele>172.993</ele>
        <time>2021-04-01T09:26:14.454Z</time>
      </trkpt>
      <trkpt lat="43.1367889" lon="-2.7982702">
        <ele>172.885</ele>
        <time>2021-04-01T09:26:14.509Z</time>
      </trkpt>
      <trkpt lat="43.1367894" lon="-2.7982721">
        <ele>172.903</ele>
        <time>2021-04-01T09:26:14.564Z</time>
      </trkpt>
      <trkpt lat="43.1367899" lon="-2.798274">
        <ele>172.9</ele>
        <time>2021-04-01T09:26:14.619Z</time>
      </trkpt>
      <trkpt lat="43.1367904" lon="-2.7982761">
        <ele>172.903</ele>
        <time>2021-04-01T09:26:14.674Z</time>
      </trkpt>
      <trkpt lat="43.1367909" lon="-2.7982779">
        <ele>172.894</ele>
        <time>2021-04-01T09:26:14.729Z</time>
      </trkpt>
      <trkpt lat="43.1367911" lon="-2.7982797">
        <ele>172.836</ele>
        <time>2021-04-01T09:26:14.784Z</time>
      </trkpt>
      <trkpt lat="43.1367912" lon="-2.7982816">
        <ele>172.816</ele>
        <time>2021-04-01T09:26:14.839Z</time>
      </trkpt>
      <trkpt lat="43.1367913" lon="-2.7982832">
        <ele>172.787</ele>
        <time>2021-04-01T09:26:14.894Z</time>
      </trkpt>
      <trkpt lat="43.1367912" lon="-2.798285">
        <ele>172.785</ele>
        <time>2021-04-01T09:26:14.949Z</time>
      </trkpt>
      <trkpt lat="43.1367915" lon="-2.7982867">
        <ele>172.737</ele>
        <time>2021-04-01T09:26:15.004Z</time>
      </trkpt>
      <trkpt lat="43.1367919" lon="-2.7982887">
        <ele>172.745</ele>
        <time>2021-04-01T09:26:15.059Z</time>
      </trkpt>
      <trkpt lat="43.1367919" lon="-2.7982904">
        <ele>172.737</ele>
        <time>2021-04-01T09:26:15.114Z</time>
      </trkpt>
      <trkpt lat="43.136792" lon="-2.7982923">
        <ele>172.739</ele>
        <time>2021-04-01T09:26:15.169Z</time>
      </trkpt>
      <trkpt lat="43.1367917" lon="-2.7982942">
        <ele>172.737</ele>
        <time>2021-04-01T09:26:15.224Z</time>
      </trkpt>
      <trkpt lat="43.1367917" lon="-2.7982961">
        <ele>172.724</ele>
        <time>2021-04-01T09:26:15.279Z</time>
      </trkpt>
      <trkpt lat="43.1367917" lon="-2.7982981">
        <ele>172.717</ele>
        <time>2021-04-01T09:26:15.334Z</time>
      </trkpt>
      <trkpt lat="43.1367917" lon="-2.7983001">
        <ele>172.734</ele>
        <time>2021-04-01T09:26:15.389Z</time>
      </trkpt>
      <trkpt lat="43.136792" lon="-2.7983018">
        <ele>172.729</ele>
        <time>2021-04-01T09:26:15.444Z</time>
      </trkpt>
      <trkpt lat="43.1367922" lon="-2.7983037">
        <ele>172.733</ele>
        <time>2021-04-01T09:26:15.499Z</time>
      </trkpt>
      <trkpt lat="43.1367921" lon="-2.7983058">
        <ele>172.748</ele>
        <time>2021-04-01T09:26:15.554Z</time>
      </trkpt>
      <trkpt lat="43.136792" lon="-2.7983076">
        <ele>172.757</ele>
        <time>2021-04-01T09:26:15.609Z</time>
      </trkpt>
      <trkpt lat="43.136792" lon="-2.7983096">
        <ele>172.762</ele>
        <time>2021-04-01T09:26:15.664Z</time>
      </trkpt>
      <trkpt lat="43.1367922" lon="-2.7983115">
        <ele>172.732</ele>
        <time>2021-04-01T09:26:15.719Z</time>
      </trkpt>
      <trkpt lat="43.1367924" lon="-2.7983135">
        <ele>172.727</ele>
        <time>2021-04-01T09:26:15.774Z</time>
      </trkpt>
      <trkpt lat="43.1367924" lon="-2.7983153">
        <ele>172.736</ele>
        <time>2021-04-01T09:26:15.829Z</time>
      </trkpt>
      <trkpt lat="43.1367924" lon="-2.7983171">
        <ele>172.731</ele>
        <time>2021-04-01T09:26:15.884Z</time>
      </trkpt>
      <trkpt lat="43.1367925" lon="-2.7983192">
        <ele>172.74</ele>
        <time>2021-04-01T09:26:15.939Z</time>
      </trkpt>
      <trkpt lat="43.1367928" lon="-2.7983212">
        <ele>172.781</ele>
        <time>2021-04-01T09:26:15.994Z</time>
      </trkpt>
      <trkpt lat="43.1367932" lon="-2.7983231">
        <ele>172.806</ele>
        <time>2021-04-01T09:26:16.049Z</time>
      </trkpt>
      <trkpt lat="43.1367933" lon="-2.7983251">
        <ele>172.785</ele>
        <time>2021-04-01T09:26:16.104Z</time>
      </trkpt>
      <trkpt lat="43.1367936" lon="-2.7983272">
        <ele>172.769</ele>
        <time>2021-04-01T09:26:16.159Z</time>
      </trkpt>
      <trkpt lat="43.1367941" lon="-2.7983289">
        <ele>172.74</ele>
        <time>2021-04-01T09:26:16.214Z</time>
      </trkpt>
      <trkpt lat="43.1367947" lon="-2.7983308">
        <ele>172.717</ele>
        <time>2021-04-01T09:26:16.269Z</time>
      </trkpt>
      <trkpt lat="43.1367949" lon="-2.7983323">
        <ele>172.699</ele>
        <time>2021-04-01T09:26:16.324Z</time>
      </trkpt>
      <trkpt lat="43.1367952" lon="-2.798334">
        <ele>172.71</ele>
        <time>2021-04-01T09:26:16.379Z</time>
      </trkpt>
      <trkpt lat="43.1367955" lon="-2.798336">
        <ele>172.71</ele>
        <time>2021-04-01T09:26:16.434Z</time>
      </trkpt>
      <trkpt lat="43.136796" lon="-2.7983382">
        <ele>172.733</ele>
        <time>2021-04-01T09:26:16.489Z</time>
      </trkpt>
      <trkpt lat="43.1367966" lon="-2.7983401">
        <ele>172.715</ele>
        <time>2021-04-01T09:26:16.544Z</time>
      </trkpt>
      <trkpt lat="43.1367971" lon="-2.7983421">
        <ele>172.756</ele>
        <time>2021-04-01T09:26:16.599Z</time>
      </trkpt>
      <trkpt lat="43.1367974" lon="-2.7983443">
        <ele>172.778</ele>
        <time>2021-04-01T09:26:16.654Z</time>
      </trkpt>
      <trkpt lat="43.1367977" lon="-2.7983465">
        <ele>172.776</ele>
        <time>2021-04-01T09:26:16.709Z</time>
      </trkpt>
      <trkpt lat="43.1367982" lon="-2.7983482">
        <ele>172.738</ele>
        <time>2021-04-01T09:26:16.764Z</time>
      </trkpt>
      <trkpt lat="43.1367985" lon="-2.7983502">
        <ele>172.764</ele>
        <time>2021-04-01T09:26:16.819Z</time>
      </trkpt>
      <trkpt lat="43.1367985" lon="-2.7983523">
        <ele>172.789</ele>
        <time>2021-04-01T09:26:16.874Z</time>
      </trkpt>
      <trkpt lat="43.1367986" lon="-2.7983545">
        <ele>172.816</ele>
        <time>2021-04-01T09:26:16.929Z</time>
      </trkpt>
      <trkpt lat="43.1367989" lon="-2.7983569">
        <ele>172.831</ele>
        <time>2021-04-01T09:26:16.984Z</time>
      </trkpt>
      <trkpt lat="43.1367991" lon="-2.7983589">
        <ele>172.836</ele>
        <time>2021-04-01T09:26:17.039Z</time>
      </trkpt>
      <trkpt lat="43.1367993" lon="-2.7983614">
        <ele>172.854</ele>
        <time>2021-04-01T09:26:17.094Z</time>
      </trkpt>
      <trkpt lat="43.1367994" lon="-2.7983636">
        <ele>172.872</ele>
        <time>2021-04-01T09:26:17.149Z</time>
      </trkpt>
      <trkpt lat="43.1367996" lon="-2.7983658">
        <ele>172.928</ele>
        <time>2021-04-01T09:26:17.204Z</time>
      </trkpt>
      <trkpt lat="43.1367998" lon="-2.7983677">
        <ele>172.925</ele>
        <time>2021-04-01T09:26:17.259Z</time>
      </trkpt>
      <trkpt lat="43.1367997" lon="-2.7983697">
        <ele>172.894</ele>
        <time>2021-04-01T09:26:17.314Z</time>
      </trkpt>
      <trkpt lat="43.1367997" lon="-2.7983717">
        <ele>172.886</ele>
        <time>2021-04-01T09:26:17.369Z</time>
      </trkpt>
      <trkpt lat="43.1367997" lon="-2.7983737">
        <ele>172.882</ele>
        <time>2021-04-01T09:26:17.424Z</time>
      </trkpt>
      <trkpt lat="43.1367998" lon="-2.7983764">
        <ele>172.943</ele>
        <time>2021-04-01T09:26:17.479Z</time>
      </trkpt>
      <trkpt lat="43.1367999" lon="-2.7983788">
        <ele>172.989</ele>
        <time>2021-04-01T09:26:17.534Z</time>
      </trkpt>
      <trkpt lat="43.1368002" lon="-2.7983811">
        <ele>173.004</ele>
        <time>2021-04-01T09:26:17.589Z</time>
      </trkpt>
      <trkpt lat="43.1368004" lon="-2.7983832">
        <ele>173.002</ele>
        <time>2021-04-01T09:26:17.644Z</time>
      </trkpt>
      <trkpt lat="43.1368005" lon="-2.7983854">
        <ele>173.019</ele>
        <time>2021-04-01T09:26:17.699Z</time>
      </trkpt>
      <trkpt lat="43.1368006" lon="-2.7983875">
        <ele>173.018</ele>
        <time>2021-04-01T09:26:17.754Z</time>
      </trkpt>
      <trkpt lat="43.1368007" lon="-2.79839">
        <ele>173.04</ele>
        <time>2021-04-01T09:26:17.809Z</time>
      </trkpt>
      <trkpt lat="43.1368008" lon="-2.7983922">
        <ele>173.056</ele>
        <time>2021-04-01T09:26:17.864Z</time>
      </trkpt>
      <trkpt lat="43.1368011" lon="-2.7983945">
        <ele>173.081</ele>
        <time>2021-04-01T09:26:17.919Z</time>
      </trkpt>
      <trkpt lat="43.1368014" lon="-2.7983966">
        <ele>173.072</ele>
        <time>2021-04-01T09:26:17.974Z</time>
      </trkpt>
      <trkpt lat="43.1368022" lon="-2.7983984">
        <ele>173.062</ele>
        <time>2021-04-01T09:26:18.029Z</time>
      </trkpt>
      <trkpt lat="43.1368018" lon="-2.7984002">
        <ele>172.968</ele>
        <time>2021-04-01T09:26:18.084Z</time>
      </trkpt>
      <trkpt lat="43.1368021" lon="-2.7984021">
        <ele>172.966</ele>
        <time>2021-04-01T09:26:18.139Z</time>
      </trkpt>
      <trkpt lat="43.1368026" lon="-2.798404">
        <ele>172.944</ele>
        <time>2021-04-01T09:26:18.194Z</time>
      </trkpt>
      <trkpt lat="43.1368033" lon="-2.7984062">
        <ele>172.97</ele>
        <time>2021-04-01T09:26:18.249Z</time>
      </trkpt>
      <trkpt lat="43.1368038" lon="-2.7984087">
        <ele>173.005</ele>
        <time>2021-04-01T09:26:18.304Z</time>
      </trkpt>
      <trkpt lat="43.1368041" lon="-2.7984104">
        <ele>172.968</ele>
        <time>2021-04-01T09:26:18.359Z</time>
      </trkpt>
      <trkpt lat="43.1368045" lon="-2.7984123">
        <ele>172.924</ele>
        <time>2021-04-01T09:26:18.414Z</time>
      </trkpt>
      <trkpt lat="43.136805" lon="-2.7984139">
        <ele>172.84</ele>
        <time>2021-04-01T09:26:18.469Z</time>
      </trkpt>
      <trkpt lat="43.1368054" lon="-2.798416">
        <ele>172.862</ele>
        <time>2021-04-01T09:26:18.524Z</time>
      </trkpt>
      <trkpt lat="43.1368057" lon="-2.7984186">
        <ele>172.967</ele>
        <time>2021-04-01T09:26:18.579Z</time>
      </trkpt>
      <trkpt lat="43.136806" lon="-2.7984213">
        <ele>172.996</ele>
        <time>2021-04-01T09:26:18.634Z</time>
      </trkpt>
      <trkpt lat="43.1368063" lon="-2.7984236">
        <ele>173.004</ele>
        <time>2021-04-01T09:26:18.689Z</time>
      </trkpt>
      <trkpt lat="43.1368061" lon="-2.7984254">
        <ele>172.963</ele>
        <time>2021-04-01T09:26:18.744Z</time>
      </trkpt>
      <trkpt lat="43.1368068" lon="-2.7984279">
        <ele>173.007</ele>
        <time>2021-04-01T09:26:18.799Z</time>
      </trkpt>
      <trkpt lat="43.1368072" lon="-2.7984306">
        <ele>173.088</ele>
        <time>2021-04-01T09:26:18.854Z</time>
      </trkpt>
      <trkpt lat="43.1368072" lon="-2.798433">
        <ele>173.115</ele>
        <time>2021-04-01T09:26:18.909Z</time>
      </trkpt>
      <trkpt lat="43.1368073" lon="-2.7984353">
        <ele>173.123</ele>
        <time>2021-04-01T09:26:18.964Z</time>
      </trkpt>
      <trkpt lat="43.1368072" lon="-2.7984376">
        <ele>173.171</ele>
        <time>2021-04-01T09:26:19.019Z</time>
      </trkpt>
      <trkpt lat="43.1368072" lon="-2.7984398">
        <ele>173.174</ele>
        <time>2021-04-01T09:26:19.074Z</time>
      </trkpt>
      <trkpt lat="43.1368074" lon="-2.7984422">
        <ele>173.2</ele>
        <time>2021-04-01T09:26:19.129Z</time>
      </trkpt>
      <trkpt lat="43.136808" lon="-2.7984448">
        <ele>173.235</ele>
        <time>2021-04-01T09:26:19.184Z</time>
      </trkpt>
      <trkpt lat="43.1368085" lon="-2.7984473">
        <ele>173.264</ele>
        <time>2021-04-01T09:26:19.239Z</time>
      </trkpt>
      <trkpt lat="43.1368087" lon="-2.798449">
        <ele>173.228</ele>
        <time>2021-04-01T09:26:19.294Z</time>
      </trkpt>
      <trkpt lat="43.1368087" lon="-2.7984512">
        <ele>173.254</ele>
        <time>2021-04-01T09:26:19.349Z</time>
      </trkpt>
      <trkpt lat="43.1368087" lon="-2.7984536">
        <ele>173.257</ele>
        <time>2021-04-01T09:26:19.404Z</time>
      </trkpt>
      <trkpt lat="43.1368091" lon="-2.798456">
        <ele>173.263</ele>
        <time>2021-04-01T09:26:19.459Z</time>
      </trkpt>
      <trkpt lat="43.1368094" lon="-2.7984584">
        <ele>173.306</ele>
        <time>2021-04-01T09:26:19.517Z</time>
      </trkpt>
      <trkpt lat="43.1368099" lon="-2.798461">
        <ele>173.337</ele>
        <time>2021-04-01T09:26:19.575Z</time>
      </trkpt>
      <trkpt lat="43.1368106" lon="-2.7984635">
        <ele>173.379</ele>
        <time>2021-04-01T09:26:19.633Z</time>
      </trkpt>
      <trkpt lat="43.1368111" lon="-2.7984657">
        <ele>173.403</ele>
        <time>2021-04-01T09:26:19.691Z</time>
      </trkpt>
      <trkpt lat="43.1368115" lon="-2.7984678">
        <ele>173.395</ele>
        <time>2021-04-01T09:26:19.749Z</time>
      </trkpt>
      <trkpt lat="43.1368118" lon="-2.7984702">
        <ele>173.417</ele>
        <time>2021-04-01T09:26:19.807Z</time>
      </trkpt>
      <trkpt lat="43.1368121" lon="-2.7984726">
        <ele>173.441</ele>
        <time>2021-04-01T09:26:19.865Z</time>
      </trkpt>
      <trkpt lat="43.1368127" lon="-2.798475">
        <ele>173.473</ele>
        <time>2021-04-01T09:26:19.923Z</time>
      </trkpt>
      <trkpt lat="43.136813" lon="-2.7984776">
        <ele>173.527</ele>
        <time>2021-04-01T09:26:19.981Z</time>
      </trkpt>
      <trkpt lat="43.1368132" lon="-2.7984799">
        <ele>173.504</ele>
        <time>2021-04-01T09:26:20.039Z</time>
      </trkpt>
      <trkpt lat="43.1368135" lon="-2.7984824">
        <ele>173.553</ele>
        <time>2021-04-01T09:26:20.097Z</time>
      </trkpt>
      <trkpt lat="43.1368141" lon="-2.7984847">
        <ele>173.584</ele>
        <time>2021-04-01T09:26:20.155Z</time>
      </trkpt>
      <trkpt lat="43.1368145" lon="-2.7984871">
        <ele>173.608</ele>
        <time>2021-04-01T09:26:20.213Z</time>
      </trkpt>
      <trkpt lat="43.1368148" lon="-2.7984895">
        <ele>173.605</ele>
        <time>2021-04-01T09:26:20.271Z</time>
      </trkpt>
      <trkpt lat="43.1368152" lon="-2.7984917">
        <ele>173.617</ele>
        <time>2021-04-01T09:26:20.329Z</time>
      </trkpt>
      <trkpt lat="43.1368156" lon="-2.7984941">
        <ele>173.632</ele>
        <time>2021-04-01T09:26:20.387Z</time>
      </trkpt>
      <trkpt lat="43.136816" lon="-2.798496">
        <ele>173.621</ele>
        <time>2021-04-01T09:26:20.445Z</time>
      </trkpt>
      <trkpt lat="43.1368162" lon="-2.7984982">
        <ele>173.592</ele>
        <time>2021-04-01T09:26:20.504Z</time>
      </trkpt>
      <trkpt lat="43.1368165" lon="-2.7985004">
        <ele>173.584</ele>
        <time>2021-04-01T09:26:20.555Z</time>
      </trkpt>
      <trkpt lat="43.1368168" lon="-2.7985025">
        <ele>173.586</ele>
        <time>2021-04-01T09:26:20.607Z</time>
      </trkpt>
      <trkpt lat="43.1368172" lon="-2.7985045">
        <ele>173.575</ele>
        <time>2021-04-01T09:26:20.659Z</time>
      </trkpt>
      <trkpt lat="43.1368176" lon="-2.7985066">
        <ele>173.572</ele>
        <time>2021-04-01T09:26:20.711Z</time>
      </trkpt>
      <trkpt lat="43.1368181" lon="-2.7985086">
        <ele>173.526</ele>
        <time>2021-04-01T09:26:20.763Z</time>
      </trkpt>
      <trkpt lat="43.1368186" lon="-2.7985111">
        <ele>173.524</ele>
        <time>2021-04-01T09:26:20.815Z</time>
      </trkpt>
      <trkpt lat="43.1368189" lon="-2.7985135">
        <ele>173.541</ele>
        <time>2021-04-01T09:26:20.867Z</time>
      </trkpt>
      <trkpt lat="43.136819" lon="-2.7985159">
        <ele>173.572</ele>
        <time>2021-04-01T09:26:20.919Z</time>
      </trkpt>
      <trkpt lat="43.1368197" lon="-2.7985179">
        <ele>173.587</ele>
        <time>2021-04-01T09:26:20.971Z</time>
      </trkpt>
      <trkpt lat="43.1368201" lon="-2.7985203">
        <ele>173.613</ele>
        <time>2021-04-01T09:26:21.023Z</time>
      </trkpt>
      <trkpt lat="43.1368206" lon="-2.7985226">
        <ele>173.598</ele>
        <time>2021-04-01T09:26:21.075Z</time>
      </trkpt>
      <trkpt lat="43.1368209" lon="-2.7985249">
        <ele>173.61</ele>
        <time>2021-04-01T09:26:21.127Z</time>
      </trkpt>
      <trkpt lat="43.1368212" lon="-2.7985272">
        <ele>173.629</ele>
        <time>2021-04-01T09:26:21.179Z</time>
      </trkpt>
      <trkpt lat="43.1368217" lon="-2.7985295">
        <ele>173.61</ele>
        <time>2021-04-01T09:26:21.231Z</time>
      </trkpt>
      <trkpt lat="43.1368221" lon="-2.7985316">
        <ele>173.576</ele>
        <time>2021-04-01T09:26:21.283Z</time>
      </trkpt>
      <trkpt lat="43.1368225" lon="-2.7985337">
        <ele>173.588</ele>
        <time>2021-04-01T09:26:21.335Z</time>
      </trkpt>
      <trkpt lat="43.1368229" lon="-2.7985356">
        <ele>173.563</ele>
        <time>2021-04-01T09:26:21.387Z</time>
      </trkpt>
      <trkpt lat="43.1368232" lon="-2.7985379">
        <ele>173.575</ele>
        <time>2021-04-01T09:26:21.439Z</time>
      </trkpt>
      <trkpt lat="43.1368236" lon="-2.7985404">
        <ele>173.592</ele>
        <time>2021-04-01T09:26:21.494Z</time>
      </trkpt>
      <trkpt lat="43.1368241" lon="-2.7985426">
        <ele>173.578</ele>
        <time>2021-04-01T09:26:21.549Z</time>
      </trkpt>
      <trkpt lat="43.1368246" lon="-2.7985451">
        <ele>173.594</ele>
        <time>2021-04-01T09:26:21.604Z</time>
      </trkpt>
      <trkpt lat="43.1368255" lon="-2.7985476">
        <ele>173.626</ele>
        <time>2021-04-01T09:26:21.659Z</time>
      </trkpt>
      <trkpt lat="43.1368257" lon="-2.7985493">
        <ele>173.583</ele>
        <time>2021-04-01T09:26:21.714Z</time>
      </trkpt>
      <trkpt lat="43.1368261" lon="-2.7985514">
        <ele>173.569</ele>
        <time>2021-04-01T09:26:21.769Z</time>
      </trkpt>
      <trkpt lat="43.1368264" lon="-2.7985537">
        <ele>173.561</ele>
        <time>2021-04-01T09:26:21.824Z</time>
      </trkpt>
      <trkpt lat="43.1368265" lon="-2.7985558">
        <ele>173.539</ele>
        <time>2021-04-01T09:26:21.879Z</time>
      </trkpt>
      <trkpt lat="43.1368271" lon="-2.7985579">
        <ele>173.526</ele>
        <time>2021-04-01T09:26:21.934Z</time>
      </trkpt>
      <trkpt lat="43.1368278" lon="-2.7985603">
        <ele>173.515</ele>
        <time>2021-04-01T09:26:21.989Z</time>
      </trkpt>
      <trkpt lat="43.1368281" lon="-2.7985628">
        <ele>173.505</ele>
        <time>2021-04-01T09:26:22.044Z</time>
      </trkpt>
      <trkpt lat="43.1368284" lon="-2.798565">
        <ele>173.517</ele>
        <time>2021-04-01T09:26:22.099Z</time>
      </trkpt>
      <trkpt lat="43.1368288" lon="-2.7985671">
        <ele>173.517</ele>
        <time>2021-04-01T09:26:22.154Z</time>
      </trkpt>
      <trkpt lat="43.1368292" lon="-2.798569">
        <ele>173.475</ele>
        <time>2021-04-01T09:26:22.209Z</time>
      </trkpt>
      <trkpt lat="43.1368297" lon="-2.7985713">
        <ele>173.476</ele>
        <time>2021-04-01T09:26:22.264Z</time>
      </trkpt>
      <trkpt lat="43.1368304" lon="-2.7985735">
        <ele>173.462</ele>
        <time>2021-04-01T09:26:22.319Z</time>
      </trkpt>
      <trkpt lat="43.1368309" lon="-2.7985759">
        <ele>173.441</ele>
        <time>2021-04-01T09:26:22.374Z</time>
      </trkpt>
      <trkpt lat="43.136831" lon="-2.7985782">
        <ele>173.432</ele>
        <time>2021-04-01T09:26:22.429Z</time>
      </trkpt>
      <trkpt lat="43.1368311" lon="-2.7985803">
        <ele>173.437</ele>
        <time>2021-04-01T09:26:22.484Z</time>
      </trkpt>
      <trkpt lat="43.1368317" lon="-2.7985824">
        <ele>173.44</ele>
        <time>2021-04-01T09:26:22.539Z</time>
      </trkpt>
      <trkpt lat="43.1368321" lon="-2.7985845">
        <ele>173.408</ele>
        <time>2021-04-01T09:26:22.594Z</time>
      </trkpt>
      <trkpt lat="43.1368324" lon="-2.7985866">
        <ele>173.397</ele>
        <time>2021-04-01T09:26:22.649Z</time>
      </trkpt>
      <trkpt lat="43.1368325" lon="-2.7985891">
        <ele>173.399</ele>
        <time>2021-04-01T09:26:22.704Z</time>
      </trkpt>
      <trkpt lat="43.1368327" lon="-2.7985916">
        <ele>173.405</ele>
        <time>2021-04-01T09:26:22.759Z</time>
      </trkpt>
      <trkpt lat="43.1368333" lon="-2.7985935">
        <ele>173.351</ele>
        <time>2021-04-01T09:26:22.814Z</time>
      </trkpt>
      <trkpt lat="43.1368336" lon="-2.7985959">
        <ele>173.348</ele>
        <time>2021-04-01T09:26:22.869Z</time>
      </trkpt>
      <trkpt lat="43.1368342" lon="-2.798598">
        <ele>173.346</ele>
        <time>2021-04-01T09:26:22.924Z</time>
      </trkpt>
      <trkpt lat="43.1368346" lon="-2.7986003">
        <ele>173.344</ele>
        <time>2021-04-01T09:26:22.979Z</time>
      </trkpt>
      <trkpt lat="43.1368351" lon="-2.7986026">
        <ele>173.344</ele>
        <time>2021-04-01T09:26:23.034Z</time>
      </trkpt>
      <trkpt lat="43.1368353" lon="-2.7986048">
        <ele>173.34</ele>
        <time>2021-04-01T09:26:23.089Z</time>
      </trkpt>
      <trkpt lat="43.1368355" lon="-2.7986072">
        <ele>173.325</ele>
        <time>2021-04-01T09:26:23.144Z</time>
      </trkpt>
      <trkpt lat="43.1368358" lon="-2.7986094">
        <ele>173.306</ele>
        <time>2021-04-01T09:26:23.199Z</time>
      </trkpt>
      <trkpt lat="43.1368361" lon="-2.7986114">
        <ele>173.281</ele>
        <time>2021-04-01T09:26:23.254Z</time>
      </trkpt>
      <trkpt lat="43.1368363" lon="-2.798614">
        <ele>173.314</ele>
        <time>2021-04-01T09:26:23.309Z</time>
      </trkpt>
      <trkpt lat="43.1368367" lon="-2.7986163">
        <ele>173.322</ele>
        <time>2021-04-01T09:26:23.364Z</time>
      </trkpt>
      <trkpt lat="43.1368369" lon="-2.7986186">
        <ele>173.306</ele>
        <time>2021-04-01T09:26:23.419Z</time>
      </trkpt>
      <trkpt lat="43.1368371" lon="-2.7986212">
        <ele>173.311</ele>
        <time>2021-04-01T09:26:23.474Z</time>
      </trkpt>
      <trkpt lat="43.1368374" lon="-2.7986237">
        <ele>173.337</ele>
        <time>2021-04-01T09:26:23.529Z</time>
      </trkpt>
      <trkpt lat="43.1368377" lon="-2.7986259">
        <ele>173.35</ele>
        <time>2021-04-01T09:26:23.584Z</time>
      </trkpt>
      <trkpt lat="43.1368381" lon="-2.7986286">
        <ele>173.397</ele>
        <time>2021-04-01T09:26:23.639Z</time>
      </trkpt>
      <trkpt lat="43.1368386" lon="-2.798631">
        <ele>173.403</ele>
        <time>2021-04-01T09:26:23.694Z</time>
      </trkpt>
      <trkpt lat="43.136839" lon="-2.7986328">
        <ele>173.354</ele>
        <time>2021-04-01T09:26:23.749Z</time>
      </trkpt>
      <trkpt lat="43.1368394" lon="-2.7986348">
        <ele>173.337</ele>
        <time>2021-04-01T09:26:23.804Z</time>
      </trkpt>
      <trkpt lat="43.1368396" lon="-2.7986373">
        <ele>173.366</ele>
        <time>2021-04-01T09:26:23.859Z</time>
      </trkpt>
      <trkpt lat="43.1368397" lon="-2.7986397">
        <ele>173.375</ele>
        <time>2021-04-01T09:26:23.914Z</time>
      </trkpt>
      <trkpt lat="43.1368402" lon="-2.798642">
        <ele>173.377</ele>
        <time>2021-04-01T09:26:23.969Z</time>
      </trkpt>
      <trkpt lat="43.1368407" lon="-2.7986445">
        <ele>173.399</ele>
        <time>2021-04-01T09:26:24.024Z</time>
      </trkpt>
      <trkpt lat="43.1368411" lon="-2.7986467">
        <ele>173.428</ele>
        <time>2021-04-01T09:26:24.079Z</time>
      </trkpt>
      <trkpt lat="43.1368414" lon="-2.7986492">
        <ele>173.47</ele>
        <time>2021-04-01T09:26:24.134Z</time>
      </trkpt>
      <trkpt lat="43.1368416" lon="-2.7986521">
        <ele>173.509</ele>
        <time>2021-04-01T09:26:24.189Z</time>
      </trkpt>
      <trkpt lat="43.1368419" lon="-2.7986547">
        <ele>173.555</ele>
        <time>2021-04-01T09:26:24.244Z</time>
      </trkpt>
      <trkpt lat="43.136842" lon="-2.7986577">
        <ele>173.617</ele>
        <time>2021-04-01T09:26:24.299Z</time>
      </trkpt>
      <trkpt lat="43.1368419" lon="-2.7986605">
        <ele>173.661</ele>
        <time>2021-04-01T09:26:24.354Z</time>
      </trkpt>
      <trkpt lat="43.136842" lon="-2.7986629">
        <ele>173.679</ele>
        <time>2021-04-01T09:26:24.409Z</time>
      </trkpt>
      <trkpt lat="43.1368421" lon="-2.7986653">
        <ele>173.719</ele>
        <time>2021-04-01T09:26:24.464Z</time>
      </trkpt>
      <trkpt lat="43.1368422" lon="-2.7986674">
        <ele>173.714</ele>
        <time>2021-04-01T09:26:24.516Z</time>
      </trkpt>
      <trkpt lat="43.1368421" lon="-2.7986694">
        <ele>173.678</ele>
        <time>2021-04-01T09:26:24.568Z</time>
      </trkpt>
      <trkpt lat="43.1368422" lon="-2.7986717">
        <ele>173.691</ele>
        <time>2021-04-01T09:26:24.620Z</time>
      </trkpt>
      <trkpt lat="43.1368422" lon="-2.7986743">
        <ele>173.738</ele>
        <time>2021-04-01T09:26:24.672Z</time>
      </trkpt>
      <trkpt lat="43.1368424" lon="-2.798677">
        <ele>173.784</ele>
        <time>2021-04-01T09:26:24.724Z</time>
      </trkpt>
      <trkpt lat="43.1368426" lon="-2.7986795">
        <ele>173.814</ele>
        <time>2021-04-01T09:26:24.776Z</time>
      </trkpt>
      <trkpt lat="43.1368429" lon="-2.7986823">
        <ele>173.888</ele>
        <time>2021-04-01T09:26:24.828Z</time>
      </trkpt>
      <trkpt lat="43.1368431" lon="-2.798685">
        <ele>173.952</ele>
        <time>2021-04-01T09:26:24.880Z</time>
      </trkpt>
      <trkpt lat="43.1368432" lon="-2.7986874">
        <ele>173.984</ele>
        <time>2021-04-01T09:26:24.932Z</time>
      </trkpt>
      <trkpt lat="43.1368435" lon="-2.7986896">
        <ele>173.968</ele>
        <time>2021-04-01T09:26:24.985Z</time>
      </trkpt>
      <trkpt lat="43.1368437" lon="-2.7986921">
        <ele>173.962</ele>
        <time>2021-04-01T09:26:25.037Z</time>
      </trkpt>
      <trkpt lat="43.1368441" lon="-2.7986943">
        <ele>173.959</ele>
        <time>2021-04-01T09:26:25.089Z</time>
      </trkpt>
      <trkpt lat="43.1368445" lon="-2.7986965">
        <ele>174.003</ele>
        <time>2021-04-01T09:26:25.141Z</time>
      </trkpt>
      <trkpt lat="43.1368446" lon="-2.7986986">
        <ele>174.018</ele>
        <time>2021-04-01T09:26:25.193Z</time>
      </trkpt>
      <trkpt lat="43.136845" lon="-2.7987009">
        <ele>174.026</ele>
        <time>2021-04-01T09:26:25.245Z</time>
      </trkpt>
      <trkpt lat="43.1368455" lon="-2.7987033">
        <ele>174.023</ele>
        <time>2021-04-01T09:26:25.297Z</time>
      </trkpt>
      <trkpt lat="43.1368459" lon="-2.7987059">
        <ele>174.054</ele>
        <time>2021-04-01T09:26:25.349Z</time>
      </trkpt>
      <trkpt lat="43.1368464" lon="-2.7987079">
        <ele>174.073</ele>
        <time>2021-04-01T09:26:25.401Z</time>
      </trkpt>
      <trkpt lat="43.1368466" lon="-2.7987104">
        <ele>174.093</ele>
        <time>2021-04-01T09:26:25.454Z</time>
      </trkpt>
      <trkpt lat="43.1368469" lon="-2.7987127">
        <ele>174.092</ele>
        <time>2021-04-01T09:26:25.515Z</time>
      </trkpt>
      <trkpt lat="43.1368472" lon="-2.798715">
        <ele>174.103</ele>
        <time>2021-04-01T09:26:25.576Z</time>
      </trkpt>
      <trkpt lat="43.1368481" lon="-2.7987172">
        <ele>174.125</ele>
        <time>2021-04-01T09:26:25.638Z</time>
      </trkpt>
      <trkpt lat="43.1368486" lon="-2.7987196">
        <ele>174.173</ele>
        <time>2021-04-01T09:26:25.699Z</time>
      </trkpt>
      <trkpt lat="43.136849" lon="-2.7987223">
        <ele>174.212</ele>
        <time>2021-04-01T09:26:25.761Z</time>
      </trkpt>
      <trkpt lat="43.1368493" lon="-2.7987251">
        <ele>174.251</ele>
        <time>2021-04-01T09:26:25.822Z</time>
      </trkpt>
      <trkpt lat="43.1368499" lon="-2.7987276">
        <ele>174.29</ele>
        <time>2021-04-01T09:26:25.884Z</time>
      </trkpt>
      <trkpt lat="43.1368505" lon="-2.7987301">
        <ele>174.317</ele>
        <time>2021-04-01T09:26:25.945Z</time>
      </trkpt>
      <trkpt lat="43.1368507" lon="-2.7987326">
        <ele>174.358</ele>
        <time>2021-04-01T09:26:26.007Z</time>
      </trkpt>
      <trkpt lat="43.1368514" lon="-2.7987352">
        <ele>174.439</ele>
        <time>2021-04-01T09:26:26.068Z</time>
      </trkpt>
      <trkpt lat="43.136852" lon="-2.7987375">
        <ele>174.454</ele>
        <time>2021-04-01T09:26:26.130Z</time>
      </trkpt>
      <trkpt lat="43.1368524" lon="-2.7987398">
        <ele>174.453</ele>
        <time>2021-04-01T09:26:26.191Z</time>
      </trkpt>
      <trkpt lat="43.1368532" lon="-2.7987427">
        <ele>174.547</ele>
        <time>2021-04-01T09:26:26.253Z</time>
      </trkpt>
      <trkpt lat="43.1368538" lon="-2.7987455">
        <ele>174.606</ele>
        <time>2021-04-01T09:26:26.314Z</time>
      </trkpt>
      <trkpt lat="43.1368543" lon="-2.798748">
        <ele>174.629</ele>
        <time>2021-04-01T09:26:26.376Z</time>
      </trkpt>
      <trkpt lat="43.1368549" lon="-2.7987506">
        <ele>174.668</ele>
        <time>2021-04-01T09:26:26.437Z</time>
      </trkpt>
      <trkpt lat="43.1368557" lon="-2.7987528">
        <ele>174.7</ele>
        <time>2021-04-01T09:26:26.499Z</time>
      </trkpt>
      <trkpt lat="43.1368562" lon="-2.7987553">
        <ele>174.72</ele>
        <time>2021-04-01T09:26:26.548Z</time>
      </trkpt>
      <trkpt lat="43.1368568" lon="-2.7987577">
        <ele>174.746</ele>
        <time>2021-04-01T09:26:26.597Z</time>
      </trkpt>
      <trkpt lat="43.1368571" lon="-2.7987602">
        <ele>174.784</ele>
        <time>2021-04-01T09:26:26.646Z</time>
      </trkpt>
      <trkpt lat="43.1368575" lon="-2.7987628">
        <ele>174.826</ele>
        <time>2021-04-01T09:26:26.695Z</time>
      </trkpt>
      <trkpt lat="43.1368583" lon="-2.7987656">
        <ele>174.919</ele>
        <time>2021-04-01T09:26:26.745Z</time>
      </trkpt>
      <trkpt lat="43.1368589" lon="-2.7987682">
        <ele>174.969</ele>
        <time>2021-04-01T09:26:26.794Z</time>
      </trkpt>
      <trkpt lat="43.1368596" lon="-2.7987706">
        <ele>174.973</ele>
        <time>2021-04-01T09:26:26.843Z</time>
      </trkpt>
      <trkpt lat="43.1368599" lon="-2.7987728">
        <ele>174.989</ele>
        <time>2021-04-01T09:26:26.892Z</time>
      </trkpt>
      <trkpt lat="43.1368602" lon="-2.7987751">
        <ele>174.996</ele>
        <time>2021-04-01T09:26:26.941Z</time>
      </trkpt>
      <trkpt lat="43.1368606" lon="-2.7987774">
        <ele>175.002</ele>
        <time>2021-04-01T09:26:26.991Z</time>
      </trkpt>
      <trkpt lat="43.1368611" lon="-2.7987797">
        <ele>175.03</ele>
        <time>2021-04-01T09:26:27.040Z</time>
      </trkpt>
      <trkpt lat="43.1368615" lon="-2.7987824">
        <ele>175.079</ele>
        <time>2021-04-01T09:26:27.089Z</time>
      </trkpt>
      <trkpt lat="43.136862" lon="-2.7987851">
        <ele>175.109</ele>
        <time>2021-04-01T09:26:27.138Z</time>
      </trkpt>
      <trkpt lat="43.1368626" lon="-2.7987876">
        <ele>175.159</ele>
        <time>2021-04-01T09:26:27.187Z</time>
      </trkpt>
      <trkpt lat="43.1368631" lon="-2.7987898">
        <ele>175.19</ele>
        <time>2021-04-01T09:26:27.237Z</time>
      </trkpt>
      <trkpt lat="43.1368637" lon="-2.7987925">
        <ele>175.204</ele>
        <time>2021-04-01T09:26:27.286Z</time>
      </trkpt>
      <trkpt lat="43.1368639" lon="-2.7987948">
        <ele>175.245</ele>
        <time>2021-04-01T09:26:27.335Z</time>
      </trkpt>
      <trkpt lat="43.1368643" lon="-2.7987973">
        <ele>175.299</ele>
        <time>2021-04-01T09:26:27.384Z</time>
      </trkpt>
      <trkpt lat="43.1368647" lon="-2.7987998">
        <ele>175.307</ele>
        <time>2021-04-01T09:26:27.434Z</time>
      </trkpt>
      <trkpt lat="43.136865" lon="-2.798802">
        <ele>175.34</ele>
        <time>2021-04-01T09:26:27.492Z</time>
      </trkpt>
      <trkpt lat="43.1368651" lon="-2.7988041">
        <ele>175.357</ele>
        <time>2021-04-01T09:26:27.550Z</time>
      </trkpt>
      <trkpt lat="43.1368652" lon="-2.7988063">
        <ele>175.358</ele>
        <time>2021-04-01T09:26:27.608Z</time>
      </trkpt>
      <trkpt lat="43.1368655" lon="-2.7988084">
        <ele>175.368</ele>
        <time>2021-04-01T09:26:27.666Z</time>
      </trkpt>
      <trkpt lat="43.1368658" lon="-2.7988106">
        <ele>175.371</ele>
        <time>2021-04-01T09:26:27.724Z</time>
      </trkpt>
      <trkpt lat="43.1368659" lon="-2.7988129">
        <ele>175.4</ele>
        <time>2021-04-01T09:26:27.782Z</time>
      </trkpt>
      <trkpt lat="43.1368665" lon="-2.7988154">
        <ele>175.402</ele>
        <time>2021-04-01T09:26:27.840Z</time>
      </trkpt>
      <trkpt lat="43.136867" lon="-2.7988181">
        <ele>175.454</ele>
        <time>2021-04-01T09:26:27.898Z</time>
      </trkpt>
      <trkpt lat="43.1368674" lon="-2.7988204">
        <ele>175.49</ele>
        <time>2021-04-01T09:26:27.956Z</time>
      </trkpt>
      <trkpt lat="43.1368678" lon="-2.7988226">
        <ele>175.524</ele>
        <time>2021-04-01T09:26:28.014Z</time>
      </trkpt>
      <trkpt lat="43.1368682" lon="-2.798825">
        <ele>175.518</ele>
        <time>2021-04-01T09:26:28.072Z</time>
      </trkpt>
      <trkpt lat="43.1368683" lon="-2.7988271">
        <ele>175.513</ele>
        <time>2021-04-01T09:26:28.130Z</time>
      </trkpt>
      <trkpt lat="43.1368687" lon="-2.7988296">
        <ele>175.561</ele>
        <time>2021-04-01T09:26:28.188Z</time>
      </trkpt>
      <trkpt lat="43.1368692" lon="-2.7988319">
        <ele>175.561</ele>
        <time>2021-04-01T09:26:28.246Z</time>
      </trkpt>
      <trkpt lat="43.1368697" lon="-2.798834">
        <ele>175.577</ele>
        <time>2021-04-01T09:26:28.304Z</time>
      </trkpt>
      <trkpt lat="43.1368701" lon="-2.7988363">
        <ele>175.595</ele>
        <time>2021-04-01T09:26:28.362Z</time>
      </trkpt>
      <trkpt lat="43.1368705" lon="-2.798839">
        <ele>175.626</ele>
        <time>2021-04-01T09:26:28.420Z</time>
      </trkpt>
      <trkpt lat="43.1368708" lon="-2.7988412">
        <ele>175.651</ele>
        <time>2021-04-01T09:26:28.479Z</time>
      </trkpt>
      <trkpt lat="43.1368714" lon="-2.7988436">
        <ele>175.663</ele>
        <time>2021-04-01T09:26:28.534Z</time>
      </trkpt>
      <trkpt lat="43.1368713" lon="-2.7988456">
        <ele>175.679</ele>
        <time>2021-04-01T09:26:28.589Z</time>
      </trkpt>
      <trkpt lat="43.1368717" lon="-2.7988478">
        <ele>175.674</ele>
        <time>2021-04-01T09:26:28.644Z</time>
      </trkpt>
      <trkpt lat="43.136872" lon="-2.7988502">
        <ele>175.687</ele>
        <time>2021-04-01T09:26:28.699Z</time>
      </trkpt>
      <trkpt lat="43.1368719" lon="-2.7988524">
        <ele>175.706</ele>
        <time>2021-04-01T09:26:28.754Z</time>
      </trkpt>
      <trkpt lat="43.136872" lon="-2.7988544">
        <ele>175.713</ele>
        <time>2021-04-01T09:26:28.809Z</time>
      </trkpt>
      <trkpt lat="43.1368724" lon="-2.7988566">
        <ele>175.739</ele>
        <time>2021-04-01T09:26:28.864Z</time>
      </trkpt>
      <trkpt lat="43.1368725" lon="-2.7988588">
        <ele>175.724</ele>
        <time>2021-04-01T09:26:28.919Z</time>
      </trkpt>
      <trkpt lat="43.1368727" lon="-2.7988611">
        <ele>175.739</ele>
        <time>2021-04-01T09:26:28.974Z</time>
      </trkpt>
      <trkpt lat="43.1368731" lon="-2.7988637">
        <ele>175.766</ele>
        <time>2021-04-01T09:26:29.029Z</time>
      </trkpt>
      <trkpt lat="43.1368733" lon="-2.7988661">
        <ele>175.792</ele>
        <time>2021-04-01T09:26:29.084Z</time>
      </trkpt>
      <trkpt lat="43.1368735" lon="-2.7988684">
        <ele>175.831</ele>
        <time>2021-04-01T09:26:29.139Z</time>
      </trkpt>
      <trkpt lat="43.1368737" lon="-2.7988708">
        <ele>175.864</ele>
        <time>2021-04-01T09:26:29.194Z</time>
      </trkpt>
      <trkpt lat="43.136874" lon="-2.7988731">
        <ele>175.906</ele>
        <time>2021-04-01T09:26:29.249Z</time>
      </trkpt>
      <trkpt lat="43.1368745" lon="-2.7988753">
        <ele>175.904</ele>
        <time>2021-04-01T09:26:29.304Z</time>
      </trkpt>
      <trkpt lat="43.1368747" lon="-2.7988776">
        <ele>175.931</ele>
        <time>2021-04-01T09:26:29.359Z</time>
      </trkpt>
      <trkpt lat="43.136875" lon="-2.7988797">
        <ele>175.929</ele>
        <time>2021-04-01T09:26:29.414Z</time>
      </trkpt>
      <trkpt lat="43.1368752" lon="-2.7988819">
        <ele>175.949</ele>
        <time>2021-04-01T09:26:29.469Z</time>
      </trkpt>
      <trkpt lat="43.1368755" lon="-2.7988841">
        <ele>175.943</ele>
        <time>2021-04-01T09:26:29.527Z</time>
      </trkpt>
      <trkpt lat="43.1368757" lon="-2.7988864">
        <ele>175.96</ele>
        <time>2021-04-01T09:26:29.585Z</time>
      </trkpt>
      <trkpt lat="43.136876" lon="-2.7988885">
        <ele>175.989</ele>
        <time>2021-04-01T09:26:29.643Z</time>
      </trkpt>
      <trkpt lat="43.1368763" lon="-2.7988905">
        <ele>175.979</ele>
        <time>2021-04-01T09:26:29.701Z</time>
      </trkpt>
      <trkpt lat="43.1368765" lon="-2.7988926">
        <ele>175.981</ele>
        <time>2021-04-01T09:26:29.759Z</time>
      </trkpt>
      <trkpt lat="43.1368764" lon="-2.7988947">
        <ele>175.997</ele>
        <time>2021-04-01T09:26:29.817Z</time>
      </trkpt>
      <trkpt lat="43.1368767" lon="-2.7988969">
        <ele>175.994</ele>
        <time>2021-04-01T09:26:29.875Z</time>
      </trkpt>
      <trkpt lat="43.1368767" lon="-2.7988989">
        <ele>175.996</ele>
        <time>2021-04-01T09:26:29.933Z</time>
      </trkpt>
      <trkpt lat="43.1368769" lon="-2.7989012">
        <ele>176.021</ele>
        <time>2021-04-01T09:26:29.991Z</time>
      </trkpt>
      <trkpt lat="43.136877" lon="-2.7989034">
        <ele>176.037</ele>
        <time>2021-04-01T09:26:30.049Z</time>
      </trkpt>
      <trkpt lat="43.1368772" lon="-2.7989055">
        <ele>176.062</ele>
        <time>2021-04-01T09:26:30.107Z</time>
      </trkpt>
      <trkpt lat="43.1368774" lon="-2.7989076">
        <ele>176.055</ele>
        <time>2021-04-01T09:26:30.165Z</time>
      </trkpt>
      <trkpt lat="43.1368779" lon="-2.7989097">
        <ele>176.067</ele>
        <time>2021-04-01T09:26:30.223Z</time>
      </trkpt>
      <trkpt lat="43.1368781" lon="-2.7989118">
        <ele>176.048</ele>
        <time>2021-04-01T09:26:30.281Z</time>
      </trkpt>
      <trkpt lat="43.1368785" lon="-2.7989137">
        <ele>176.041</ele>
        <time>2021-04-01T09:26:30.339Z</time>
      </trkpt>
      <trkpt lat="43.1368789" lon="-2.798916">
        <ele>176.055</ele>
        <time>2021-04-01T09:26:30.397Z</time>
      </trkpt>
      <trkpt lat="43.1368794" lon="-2.7989185">
        <ele>176.107</ele>
        <time>2021-04-01T09:26:30.455Z</time>
      </trkpt>
      <trkpt lat="43.13688" lon="-2.7989211">
        <ele>176.154</ele>
        <time>2021-04-01T09:26:30.514Z</time>
      </trkpt>
      <trkpt lat="43.1368804" lon="-2.7989234">
        <ele>176.173</ele>
        <time>2021-04-01T09:26:30.565Z</time>
      </trkpt>
      <trkpt lat="43.1368808" lon="-2.7989255">
        <ele>176.198</ele>
        <time>2021-04-01T09:26:30.617Z</time>
      </trkpt>
      <trkpt lat="43.136881" lon="-2.7989277">
        <ele>176.206</ele>
        <time>2021-04-01T09:26:30.669Z</time>
      </trkpt>
      <trkpt lat="43.1368813" lon="-2.7989299">
        <ele>176.217</ele>
        <time>2021-04-01T09:26:30.721Z</time>
      </trkpt>
      <trkpt lat="43.1368814" lon="-2.7989322">
        <ele>176.242</ele>
        <time>2021-04-01T09:26:30.773Z</time>
      </trkpt>
      <trkpt lat="43.1368817" lon="-2.7989348">
        <ele>176.278</ele>
        <time>2021-04-01T09:26:30.825Z</time>
      </trkpt>
      <trkpt lat="43.136882" lon="-2.7989372">
        <ele>176.302</ele>
        <time>2021-04-01T09:26:30.877Z</time>
      </trkpt>
      <trkpt lat="43.1368822" lon="-2.7989394">
        <ele>176.337</ele>
        <time>2021-04-01T09:26:30.929Z</time>
      </trkpt>
      <trkpt lat="43.1368826" lon="-2.7989417">
        <ele>176.37</ele>
        <time>2021-04-01T09:26:30.981Z</time>
      </trkpt>
      <trkpt lat="43.136883" lon="-2.7989439">
        <ele>176.374</ele>
        <time>2021-04-01T09:26:31.033Z</time>
      </trkpt>
      <trkpt lat="43.1368834" lon="-2.7989462">
        <ele>176.399</ele>
        <time>2021-04-01T09:26:31.085Z</time>
      </trkpt>
      <trkpt lat="43.1368838" lon="-2.7989484">
        <ele>176.41</ele>
        <time>2021-04-01T09:26:31.137Z</time>
      </trkpt>
      <trkpt lat="43.1368842" lon="-2.798951">
        <ele>176.44</ele>
        <time>2021-04-01T09:26:31.189Z</time>
      </trkpt>
      <trkpt lat="43.1368845" lon="-2.7989534">
        <ele>176.442</ele>
        <time>2021-04-01T09:26:31.241Z</time>
      </trkpt>
      <trkpt lat="43.136885" lon="-2.7989557">
        <ele>176.45</ele>
        <time>2021-04-01T09:26:31.293Z</time>
      </trkpt>
      <trkpt lat="43.1368856" lon="-2.7989579">
        <ele>176.474</ele>
        <time>2021-04-01T09:26:31.345Z</time>
      </trkpt>
      <trkpt lat="43.1368862" lon="-2.7989608">
        <ele>176.51</ele>
        <time>2021-04-01T09:26:31.397Z</time>
      </trkpt>
      <trkpt lat="43.1368867" lon="-2.7989633">
        <ele>176.521</ele>
        <time>2021-04-01T09:26:31.449Z</time>
      </trkpt>
      <trkpt lat="43.1368874" lon="-2.7989657">
        <ele>176.565</ele>
        <time>2021-04-01T09:26:31.504Z</time>
      </trkpt>
      <trkpt lat="43.1368879" lon="-2.7989682">
        <ele>176.575</ele>
        <time>2021-04-01T09:26:31.559Z</time>
      </trkpt>
      <trkpt lat="43.1368886" lon="-2.7989711">
        <ele>176.624</ele>
        <time>2021-04-01T09:26:31.614Z</time>
      </trkpt>
      <trkpt lat="43.1368894" lon="-2.7989737">
        <ele>176.629</ele>
        <time>2021-04-01T09:26:31.669Z</time>
      </trkpt>
      <trkpt lat="43.1368895" lon="-2.7989756">
        <ele>176.633</ele>
        <time>2021-04-01T09:26:31.724Z</time>
      </trkpt>
      <trkpt lat="43.1368898" lon="-2.7989779">
        <ele>176.651</ele>
        <time>2021-04-01T09:26:31.779Z</time>
      </trkpt>
      <trkpt lat="43.1368899" lon="-2.7989797">
        <ele>176.622</ele>
        <time>2021-04-01T09:26:31.834Z</time>
      </trkpt>
      <trkpt lat="43.1368904" lon="-2.7989818">
        <ele>176.605</ele>
        <time>2021-04-01T09:26:31.889Z</time>
      </trkpt>
      <trkpt lat="43.136891" lon="-2.7989839">
        <ele>176.61</ele>
        <time>2021-04-01T09:26:31.944Z</time>
      </trkpt>
      <trkpt lat="43.1368913" lon="-2.7989861">
        <ele>176.61</ele>
        <time>2021-04-01T09:26:31.999Z</time>
      </trkpt>
      <trkpt lat="43.1368916" lon="-2.7989883">
        <ele>176.587</ele>
        <time>2021-04-01T09:26:32.054Z</time>
      </trkpt>
      <trkpt lat="43.1368921" lon="-2.7989907">
        <ele>176.59</ele>
        <time>2021-04-01T09:26:32.109Z</time>
      </trkpt>
      <trkpt lat="43.1368927" lon="-2.7989932">
        <ele>176.617</ele>
        <time>2021-04-01T09:26:32.164Z</time>
      </trkpt>
      <trkpt lat="43.1368931" lon="-2.7989955">
        <ele>176.632</ele>
        <time>2021-04-01T09:26:32.219Z</time>
      </trkpt>
      <trkpt lat="43.1368932" lon="-2.7989981">
        <ele>176.643</ele>
        <time>2021-04-01T09:26:32.274Z</time>
      </trkpt>
      <trkpt lat="43.1368935" lon="-2.7990008">
        <ele>176.644</ele>
        <time>2021-04-01T09:26:32.329Z</time>
      </trkpt>
      <trkpt lat="43.1368937" lon="-2.799003">
        <ele>176.639</ele>
        <time>2021-04-01T09:26:32.384Z</time>
      </trkpt>
      <trkpt lat="43.136894" lon="-2.7990052">
        <ele>176.624</ele>
        <time>2021-04-01T09:26:32.439Z</time>
      </trkpt>
      <trkpt lat="43.1368944" lon="-2.7990074">
        <ele>176.632</ele>
        <time>2021-04-01T09:26:32.494Z</time>
      </trkpt>
      <trkpt lat="43.1368946" lon="-2.7990096">
        <ele>176.631</ele>
        <time>2021-04-01T09:26:32.552Z</time>
      </trkpt>
      <trkpt lat="43.136895" lon="-2.799012">
        <ele>176.626</ele>
        <time>2021-04-01T09:26:32.610Z</time>
      </trkpt>
      <trkpt lat="43.1368955" lon="-2.7990141">
        <ele>176.63</ele>
        <time>2021-04-01T09:26:32.668Z</time>
      </trkpt>
      <trkpt lat="43.136896" lon="-2.7990169">
        <ele>176.714</ele>
        <time>2021-04-01T09:26:32.726Z</time>
      </trkpt>
      <trkpt lat="43.1368962" lon="-2.7990191">
        <ele>176.741</ele>
        <time>2021-04-01T09:26:32.785Z</time>
      </trkpt>
      <trkpt lat="43.1368967" lon="-2.7990214">
        <ele>176.769</ele>
        <time>2021-04-01T09:26:32.843Z</time>
      </trkpt>
      <trkpt lat="43.1368971" lon="-2.7990238">
        <ele>176.835</ele>
        <time>2021-04-01T09:26:32.901Z</time>
      </trkpt>
      <trkpt lat="43.1368973" lon="-2.7990264">
        <ele>176.891</ele>
        <time>2021-04-01T09:26:32.959Z</time>
      </trkpt>
      <trkpt lat="43.1368977" lon="-2.7990284">
        <ele>176.861</ele>
        <time>2021-04-01T09:26:33.018Z</time>
      </trkpt>
      <trkpt lat="43.136898" lon="-2.7990305">
        <ele>176.858</ele>
        <time>2021-04-01T09:26:33.076Z</time>
      </trkpt>
      <trkpt lat="43.1368984" lon="-2.7990328">
        <ele>176.909</ele>
        <time>2021-04-01T09:26:33.134Z</time>
      </trkpt>
      <trkpt lat="43.1368987" lon="-2.7990348">
        <ele>176.903</ele>
        <time>2021-04-01T09:26:33.192Z</time>
      </trkpt>
      <trkpt lat="43.136899" lon="-2.7990375">
        <ele>176.969</ele>
        <time>2021-04-01T09:26:33.251Z</time>
      </trkpt>
      <trkpt lat="43.1368994" lon="-2.7990399">
        <ele>177.003</ele>
        <time>2021-04-01T09:26:33.309Z</time>
      </trkpt>
      <trkpt lat="43.1368998" lon="-2.799042">
        <ele>176.981</ele>
        <time>2021-04-01T09:26:33.367Z</time>
      </trkpt>
      <trkpt lat="43.1369004" lon="-2.7990443">
        <ele>177.033</ele>
        <time>2021-04-01T09:26:33.425Z</time>
      </trkpt>
      <trkpt lat="43.1369007" lon="-2.7990465">
        <ele>177.057</ele>
        <time>2021-04-01T09:26:33.484Z</time>
      </trkpt>
      <trkpt lat="43.1369012" lon="-2.7990486">
        <ele>177.047</ele>
        <time>2021-04-01T09:26:33.536Z</time>
      </trkpt>
      <trkpt lat="43.1369019" lon="-2.7990513">
        <ele>177.092</ele>
        <time>2021-04-01T09:26:33.588Z</time>
      </trkpt>
      <trkpt lat="43.1369025" lon="-2.7990542">
        <ele>177.173</ele>
        <time>2021-04-01T09:26:33.640Z</time>
      </trkpt>
      <trkpt lat="43.1369032" lon="-2.7990569">
        <ele>177.227</ele>
        <time>2021-04-01T09:26:33.692Z</time>
      </trkpt>
      <trkpt lat="43.1369035" lon="-2.7990593">
        <ele>177.252</ele>
        <time>2021-04-01T09:26:33.744Z</time>
      </trkpt>
      <trkpt lat="43.136904" lon="-2.7990618">
        <ele>177.265</ele>
        <time>2021-04-01T09:26:33.796Z</time>
      </trkpt>
      <trkpt lat="43.1369043" lon="-2.7990639">
        <ele>177.279</ele>
        <time>2021-04-01T09:26:33.848Z</time>
      </trkpt>
      <trkpt lat="43.1369047" lon="-2.7990661">
        <ele>177.281</ele>
        <time>2021-04-01T09:26:33.900Z</time>
      </trkpt>
      <trkpt lat="43.1369053" lon="-2.7990685">
        <ele>177.306</ele>
        <time>2021-04-01T09:26:33.952Z</time>
      </trkpt>
      <trkpt lat="43.1369056" lon="-2.7990709">
        <ele>177.326</ele>
        <time>2021-04-01T09:26:34.005Z</time>
      </trkpt>
      <trkpt lat="43.1369059" lon="-2.7990734">
        <ele>177.346</ele>
        <time>2021-04-01T09:26:34.057Z</time>
      </trkpt>
      <trkpt lat="43.1369064" lon="-2.7990756">
        <ele>177.339</ele>
        <time>2021-04-01T09:26:34.109Z</time>
      </trkpt>
      <trkpt lat="43.1369068" lon="-2.7990776">
        <ele>177.352</ele>
        <time>2021-04-01T09:26:34.161Z</time>
      </trkpt>
      <trkpt lat="43.1369072" lon="-2.7990793">
        <ele>177.347</ele>
        <time>2021-04-01T09:26:34.213Z</time>
      </trkpt>
      <trkpt lat="43.1369072" lon="-2.7990808">
        <ele>177.334</ele>
        <time>2021-04-01T09:26:34.265Z</time>
      </trkpt>
      <trkpt lat="43.1369072" lon="-2.7990827">
        <ele>177.339</ele>
        <time>2021-04-01T09:26:34.317Z</time>
      </trkpt>
      <trkpt lat="43.1369074" lon="-2.7990851">
        <ele>177.367</ele>
        <time>2021-04-01T09:26:34.369Z</time>
      </trkpt>
      <trkpt lat="43.1369073" lon="-2.7990879">
        <ele>177.442</ele>
        <time>2021-04-01T09:26:34.421Z</time>
      </trkpt>
      <trkpt lat="43.1369073" lon="-2.7990906">
        <ele>177.519</ele>
        <time>2021-04-01T09:26:34.474Z</time>
      </trkpt>
      <trkpt lat="43.1369077" lon="-2.7990929">
        <ele>177.559</ele>
        <time>2021-04-01T09:26:34.526Z</time>
      </trkpt>
      <trkpt lat="43.136908" lon="-2.7990952">
        <ele>177.6</ele>
        <time>2021-04-01T09:26:34.578Z</time>
      </trkpt>
      <trkpt lat="43.1369083" lon="-2.7990972">
        <ele>177.627</ele>
        <time>2021-04-01T09:26:34.630Z</time>
      </trkpt>
      <trkpt lat="43.1369085" lon="-2.7990993">
        <ele>177.632</ele>
        <time>2021-04-01T09:26:34.682Z</time>
      </trkpt>
      <trkpt lat="43.1369088" lon="-2.7991016">
        <ele>177.664</ele>
        <time>2021-04-01T09:26:34.734Z</time>
      </trkpt>
      <trkpt lat="43.1369094" lon="-2.7991037">
        <ele>177.686</ele>
        <time>2021-04-01T09:26:34.786Z</time>
      </trkpt>
      <trkpt lat="43.1369097" lon="-2.7991062">
        <ele>177.71</ele>
        <time>2021-04-01T09:26:34.838Z</time>
      </trkpt>
      <trkpt lat="43.13691" lon="-2.7991083">
        <ele>177.704</ele>
        <time>2021-04-01T09:26:34.890Z</time>
      </trkpt>
      <trkpt lat="43.1369106" lon="-2.7991109">
        <ele>177.731</ele>
        <time>2021-04-01T09:26:34.942Z</time>
      </trkpt>
      <trkpt lat="43.1369113" lon="-2.799113">
        <ele>177.73</ele>
        <time>2021-04-01T09:26:34.995Z</time>
      </trkpt>
      <trkpt lat="43.1369116" lon="-2.7991151">
        <ele>177.759</ele>
        <time>2021-04-01T09:26:35.047Z</time>
      </trkpt>
      <trkpt lat="43.1369118" lon="-2.7991173">
        <ele>177.828</ele>
        <time>2021-04-01T09:26:35.099Z</time>
      </trkpt>
      <trkpt lat="43.1369122" lon="-2.7991197">
        <ele>177.873</ele>
        <time>2021-04-01T09:26:35.151Z</time>
      </trkpt>
      <trkpt lat="43.1369126" lon="-2.7991221">
        <ele>177.869</ele>
        <time>2021-04-01T09:26:35.203Z</time>
      </trkpt>
      <trkpt lat="43.1369129" lon="-2.7991244">
        <ele>177.887</ele>
        <time>2021-04-01T09:26:35.255Z</time>
      </trkpt>
      <trkpt lat="43.1369134" lon="-2.7991271">
        <ele>177.948</ele>
        <time>2021-04-01T09:26:35.307Z</time>
      </trkpt>
      <trkpt lat="43.1369137" lon="-2.7991293">
        <ele>177.971</ele>
        <time>2021-04-01T09:26:35.359Z</time>
      </trkpt>
      <trkpt lat="43.1369145" lon="-2.799131">
        <ele>177.965</ele>
        <time>2021-04-01T09:26:35.411Z</time>
      </trkpt>
      <trkpt lat="43.1369152" lon="-2.7991329">
        <ele>177.947</ele>
        <time>2021-04-01T09:26:35.464Z</time>
      </trkpt>
      <trkpt lat="43.1369157" lon="-2.7991349">
        <ele>177.917</ele>
        <time>2021-04-01T09:26:35.522Z</time>
      </trkpt>
      <trkpt lat="43.136916" lon="-2.7991372">
        <ele>177.952</ele>
        <time>2021-04-01T09:26:35.580Z</time>
      </trkpt>
      <trkpt lat="43.1369165" lon="-2.7991394">
        <ele>177.971</ele>
        <time>2021-04-01T09:26:35.638Z</time>
      </trkpt>
      <trkpt lat="43.136917" lon="-2.7991417">
        <ele>178.007</ele>
        <time>2021-04-01T09:26:35.696Z</time>
      </trkpt>
      <trkpt lat="43.1369174" lon="-2.7991442">
        <ele>178.021</ele>
        <time>2021-04-01T09:26:35.755Z</time>
      </trkpt>
      <trkpt lat="43.1369179" lon="-2.7991467">
        <ele>178.036</ele>
        <time>2021-04-01T09:26:35.813Z</time>
      </trkpt>
      <trkpt lat="43.1369181" lon="-2.7991491">
        <ele>178.06</ele>
        <time>2021-04-01T09:26:35.871Z</time>
      </trkpt>
      <trkpt lat="43.1369185" lon="-2.7991508">
        <ele>178.04</ele>
        <time>2021-04-01T09:26:35.929Z</time>
      </trkpt>
      <trkpt lat="43.1369191" lon="-2.7991527">
        <ele>178.044</ele>
        <time>2021-04-01T09:26:35.988Z</time>
      </trkpt>
      <trkpt lat="43.1369195" lon="-2.7991551">
        <ele>178.055</ele>
        <time>2021-04-01T09:26:36.046Z</time>
      </trkpt>
      <trkpt lat="43.1369199" lon="-2.7991573">
        <ele>178.078</ele>
        <time>2021-04-01T09:26:36.104Z</time>
      </trkpt>
      <trkpt lat="43.1369204" lon="-2.7991594">
        <ele>178.073</ele>
        <time>2021-04-01T09:26:36.162Z</time>
      </trkpt>
      <trkpt lat="43.1369203" lon="-2.7991619">
        <ele>178.126</ele>
        <time>2021-04-01T09:26:36.221Z</time>
      </trkpt>
      <trkpt lat="43.13692" lon="-2.7991646">
        <ele>178.196</ele>
        <time>2021-04-01T09:26:36.279Z</time>
      </trkpt>
      <trkpt lat="43.1369202" lon="-2.7991666">
        <ele>178.196</ele>
        <time>2021-04-01T09:26:36.337Z</time>
      </trkpt>
      <trkpt lat="43.1369209" lon="-2.7991684">
        <ele>178.174</ele>
        <time>2021-04-01T09:26:36.395Z</time>
      </trkpt>
      <trkpt lat="43.1369212" lon="-2.7991709">
        <ele>178.235</ele>
        <time>2021-04-01T09:26:36.454Z</time>
      </trkpt>
      <trkpt lat="43.1369215" lon="-2.7991731">
        <ele>178.252</ele>
        <time>2021-04-01T09:26:36.512Z</time>
      </trkpt>
      <trkpt lat="43.1369218" lon="-2.7991756">
        <ele>178.226</ele>
        <time>2021-04-01T09:26:36.570Z</time>
      </trkpt>
      <trkpt lat="43.1369219" lon="-2.799178">
        <ele>178.279</ele>
        <time>2021-04-01T09:26:36.628Z</time>
      </trkpt>
      <trkpt lat="43.1369221" lon="-2.7991801">
        <ele>178.313</ele>
        <time>2021-04-01T09:26:36.686Z</time>
      </trkpt>
      <trkpt lat="43.1369225" lon="-2.7991822">
        <ele>178.329</ele>
        <time>2021-04-01T09:26:36.744Z</time>
      </trkpt>
      <trkpt lat="43.136923" lon="-2.7991845">
        <ele>178.336</ele>
        <time>2021-04-01T09:26:36.802Z</time>
      </trkpt>
      <trkpt lat="43.1369235" lon="-2.7991867">
        <ele>178.322</ele>
        <time>2021-04-01T09:26:36.860Z</time>
      </trkpt>
      <trkpt lat="43.136924" lon="-2.7991888">
        <ele>178.33</ele>
        <time>2021-04-01T09:26:36.918Z</time>
      </trkpt>
      <trkpt lat="43.1369245" lon="-2.799191">
        <ele>178.369</ele>
        <time>2021-04-01T09:26:36.976Z</time>
      </trkpt>
      <trkpt lat="43.1369247" lon="-2.7991933">
        <ele>178.379</ele>
        <time>2021-04-01T09:26:37.034Z</time>
      </trkpt>
      <trkpt lat="43.1369253" lon="-2.7991955">
        <ele>178.368</ele>
        <time>2021-04-01T09:26:37.092Z</time>
      </trkpt>
      <trkpt lat="43.1369259" lon="-2.7991974">
        <ele>178.374</ele>
        <time>2021-04-01T09:26:37.150Z</time>
      </trkpt>
      <trkpt lat="43.1369264" lon="-2.7991996">
        <ele>178.396</ele>
        <time>2021-04-01T09:26:37.208Z</time>
      </trkpt>
      <trkpt lat="43.1369266" lon="-2.7992018">
        <ele>178.42</ele>
        <time>2021-04-01T09:26:37.266Z</time>
      </trkpt>
      <trkpt lat="43.136927" lon="-2.7992038">
        <ele>178.425</ele>
        <time>2021-04-01T09:26:37.324Z</time>
      </trkpt>
      <trkpt lat="43.1369277" lon="-2.7992062">
        <ele>178.478</ele>
        <time>2021-04-01T09:26:37.382Z</time>
      </trkpt>
      <trkpt lat="43.1369281" lon="-2.7992084">
        <ele>178.516</ele>
        <time>2021-04-01T09:26:37.440Z</time>
      </trkpt>
      <trkpt lat="43.1369283" lon="-2.7992109">
        <ele>178.574</ele>
        <time>2021-04-01T09:26:37.499Z</time>
      </trkpt>
      <trkpt lat="43.1369285" lon="-2.7992135">
        <ele>178.596</ele>
        <time>2021-04-01T09:26:37.551Z</time>
      </trkpt>
      <trkpt lat="43.136929" lon="-2.7992158">
        <ele>178.636</ele>
        <time>2021-04-01T09:26:37.603Z</time>
      </trkpt>
      <trkpt lat="43.1369296" lon="-2.7992178">
        <ele>178.653</ele>
        <time>2021-04-01T09:26:37.655Z</time>
      </trkpt>
      <trkpt lat="43.1369299" lon="-2.7992198">
        <ele>178.634</ele>
        <time>2021-04-01T09:26:37.707Z</time>
      </trkpt>
      <trkpt lat="43.1369301" lon="-2.7992223">
        <ele>178.656</ele>
        <time>2021-04-01T09:26:37.759Z</time>
      </trkpt>
      <trkpt lat="43.1369304" lon="-2.7992246">
        <ele>178.686</ele>
        <time>2021-04-01T09:26:37.811Z</time>
      </trkpt>
      <trkpt lat="43.136931" lon="-2.7992269">
        <ele>178.74</ele>
        <time>2021-04-01T09:26:37.863Z</time>
      </trkpt>
      <trkpt lat="43.1369312" lon="-2.7992294">
        <ele>178.791</ele>
        <time>2021-04-01T09:26:37.915Z</time>
      </trkpt>
      <trkpt lat="43.1369314" lon="-2.7992322">
        <ele>178.834</ele>
        <time>2021-04-01T09:26:37.967Z</time>
      </trkpt>
      <trkpt lat="43.1369314" lon="-2.7992346">
        <ele>178.863</ele>
        <time>2021-04-01T09:26:38.020Z</time>
      </trkpt>
      <trkpt lat="43.1369318" lon="-2.7992366">
        <ele>178.849</ele>
        <time>2021-04-01T09:26:38.072Z</time>
      </trkpt>
      <trkpt lat="43.1369321" lon="-2.7992387">
        <ele>178.861</ele>
        <time>2021-04-01T09:26:38.124Z</time>
      </trkpt>
      <trkpt lat="43.1369325" lon="-2.799241">
        <ele>178.911</ele>
        <time>2021-04-01T09:26:38.176Z</time>
      </trkpt>
      <trkpt lat="43.1369329" lon="-2.7992431">
        <ele>178.919</ele>
        <time>2021-04-01T09:26:38.228Z</time>
      </trkpt>
      <trkpt lat="43.1369333" lon="-2.7992453">
        <ele>178.924</ele>
        <time>2021-04-01T09:26:38.280Z</time>
      </trkpt>
      <trkpt lat="43.1369335" lon="-2.7992478">
        <ele>178.972</ele>
        <time>2021-04-01T09:26:38.332Z</time>
      </trkpt>
      <trkpt lat="43.136934" lon="-2.7992498">
        <ele>179.005</ele>
        <time>2021-04-01T09:26:38.384Z</time>
      </trkpt>
      <trkpt lat="43.1369343" lon="-2.799252">
        <ele>179.006</ele>
        <time>2021-04-01T09:26:38.436Z</time>
      </trkpt>
      <trkpt lat="43.1369347" lon="-2.799254">
        <ele>179.015</ele>
        <time>2021-04-01T09:26:38.489Z</time>
      </trkpt>
      <trkpt lat="43.1369348" lon="-2.7992561">
        <ele>179.017</ele>
        <time>2021-04-01T09:26:38.544Z</time>
      </trkpt>
      <trkpt lat="43.1369351" lon="-2.7992583">
        <ele>179.037</ele>
        <time>2021-04-01T09:26:38.599Z</time>
      </trkpt>
      <trkpt lat="43.1369354" lon="-2.7992605">
        <ele>179.039</ele>
        <time>2021-04-01T09:26:38.654Z</time>
      </trkpt>
      <trkpt lat="43.1369357" lon="-2.7992628">
        <ele>179.025</ele>
        <time>2021-04-01T09:26:38.709Z</time>
      </trkpt>
      <trkpt lat="43.1369363" lon="-2.799265">
        <ele>179.083</ele>
        <time>2021-04-01T09:26:38.764Z</time>
      </trkpt>
      <trkpt lat="43.1369365" lon="-2.7992673">
        <ele>179.135</ele>
        <time>2021-04-01T09:26:38.819Z</time>
      </trkpt>
      <trkpt lat="43.1369366" lon="-2.7992693">
        <ele>179.125</ele>
        <time>2021-04-01T09:26:38.874Z</time>
      </trkpt>
      <trkpt lat="43.1369367" lon="-2.7992713">
        <ele>179.094</ele>
        <time>2021-04-01T09:26:38.929Z</time>
      </trkpt>
      <trkpt lat="43.1369368" lon="-2.7992736">
        <ele>179.121</ele>
        <time>2021-04-01T09:26:38.984Z</time>
      </trkpt>
      <trkpt lat="43.136937" lon="-2.7992759">
        <ele>179.137</ele>
        <time>2021-04-01T09:26:39.039Z</time>
      </trkpt>
      <trkpt lat="43.1369373" lon="-2.7992781">
        <ele>179.132</ele>
        <time>2021-04-01T09:26:39.094Z</time>
      </trkpt>
      <trkpt lat="43.1369376" lon="-2.7992801">
        <ele>179.139</ele>
        <time>2021-04-01T09:26:39.149Z</time>
      </trkpt>
      <trkpt lat="43.1369376" lon="-2.7992826">
        <ele>179.152</ele>
        <time>2021-04-01T09:26:39.204Z</time>
      </trkpt>
      <trkpt lat="43.136938" lon="-2.7992847">
        <ele>179.164</ele>
        <time>2021-04-01T09:26:39.259Z</time>
      </trkpt>
      <trkpt lat="43.1369388" lon="-2.7992863">
        <ele>179.158</ele>
        <time>2021-04-01T09:26:39.314Z</time>
      </trkpt>
      <trkpt lat="43.1369394" lon="-2.7992879">
        <ele>179.144</ele>
        <time>2021-04-01T09:26:39.369Z</time>
      </trkpt>
      <trkpt lat="43.1369396" lon="-2.7992905">
        <ele>179.165</ele>
        <time>2021-04-01T09:26:39.424Z</time>
      </trkpt>
      <trkpt lat="43.1369399" lon="-2.7992926">
        <ele>179.147</ele>
        <time>2021-04-01T09:26:39.479Z</time>
      </trkpt>
      <trkpt lat="43.1369403" lon="-2.799295">
        <ele>179.163</ele>
        <time>2021-04-01T09:26:39.534Z</time>
      </trkpt>
      <trkpt lat="43.1369408" lon="-2.7992973">
        <ele>179.169</ele>
        <time>2021-04-01T09:26:39.589Z</time>
      </trkpt>
      <trkpt lat="43.1369411" lon="-2.7992998">
        <ele>179.21</ele>
        <time>2021-04-01T09:26:39.644Z</time>
      </trkpt>
      <trkpt lat="43.1369413" lon="-2.7993018">
        <ele>179.239</ele>
        <time>2021-04-01T09:26:39.699Z</time>
      </trkpt>
      <trkpt lat="43.1369417" lon="-2.7993037">
        <ele>179.248</ele>
        <time>2021-04-01T09:26:39.754Z</time>
      </trkpt>
      <trkpt lat="43.136942" lon="-2.799306">
        <ele>179.249</ele>
        <time>2021-04-01T09:26:39.809Z</time>
      </trkpt>
      <trkpt lat="43.1369422" lon="-2.7993083">
        <ele>179.263</ele>
        <time>2021-04-01T09:26:39.864Z</time>
      </trkpt>
      <trkpt lat="43.1369427" lon="-2.7993104">
        <ele>179.287</ele>
        <time>2021-04-01T09:26:39.919Z</time>
      </trkpt>
      <trkpt lat="43.1369429" lon="-2.7993125">
        <ele>179.317</ele>
        <time>2021-04-01T09:26:39.974Z</time>
      </trkpt>
      <trkpt lat="43.1369432" lon="-2.7993148">
        <ele>179.314</ele>
        <time>2021-04-01T09:26:40.029Z</time>
      </trkpt>
      <trkpt lat="43.136944" lon="-2.7993174">
        <ele>179.363</ele>
        <time>2021-04-01T09:26:40.084Z</time>
      </trkpt>
      <trkpt lat="43.1369444" lon="-2.7993194">
        <ele>179.379</ele>
        <time>2021-04-01T09:26:40.139Z</time>
      </trkpt>
      <trkpt lat="43.1369447" lon="-2.7993218">
        <ele>179.426</ele>
        <time>2021-04-01T09:26:40.194Z</time>
      </trkpt>
      <trkpt lat="43.1369449" lon="-2.7993243">
        <ele>179.474</ele>
        <time>2021-04-01T09:26:40.249Z</time>
      </trkpt>
      <trkpt lat="43.1369451" lon="-2.7993265">
        <ele>179.463</ele>
        <time>2021-04-01T09:26:40.304Z</time>
      </trkpt>
      <trkpt lat="43.1369456" lon="-2.7993287">
        <ele>179.457</ele>
        <time>2021-04-01T09:26:40.359Z</time>
      </trkpt>
      <trkpt lat="43.136946" lon="-2.7993307">
        <ele>179.491</ele>
        <time>2021-04-01T09:26:40.414Z</time>
      </trkpt>
      <trkpt lat="43.1369464" lon="-2.7993328">
        <ele>179.519</ele>
        <time>2021-04-01T09:26:40.469Z</time>
      </trkpt>
      <trkpt lat="43.1369465" lon="-2.7993353">
        <ele>179.551</ele>
        <time>2021-04-01T09:26:40.524Z</time>
      </trkpt>
      <trkpt lat="43.1369468" lon="-2.7993375">
        <ele>179.567</ele>
        <time>2021-04-01T09:26:40.579Z</time>
      </trkpt>
      <trkpt lat="43.1369472" lon="-2.7993399">
        <ele>179.563</ele>
        <time>2021-04-01T09:26:40.634Z</time>
      </trkpt>
      <trkpt lat="43.1369475" lon="-2.799342">
        <ele>179.602</ele>
        <time>2021-04-01T09:26:40.689Z</time>
      </trkpt>
      <trkpt lat="43.1369481" lon="-2.799344">
        <ele>179.635</ele>
        <time>2021-04-01T09:26:40.744Z</time>
      </trkpt>
      <trkpt lat="43.1369487" lon="-2.7993458">
        <ele>179.615</ele>
        <time>2021-04-01T09:26:40.799Z</time>
      </trkpt>
      <trkpt lat="43.136949" lon="-2.7993479">
        <ele>179.648</ele>
        <time>2021-04-01T09:26:40.854Z</time>
      </trkpt>
      <trkpt lat="43.1369496" lon="-2.7993503">
        <ele>179.666</ele>
        <time>2021-04-01T09:26:40.909Z</time>
      </trkpt>
      <trkpt lat="43.1369501" lon="-2.7993522">
        <ele>179.681</ele>
        <time>2021-04-01T09:26:40.964Z</time>
      </trkpt>
      <trkpt lat="43.1369502" lon="-2.7993546">
        <ele>179.683</ele>
        <time>2021-04-01T09:26:41.019Z</time>
      </trkpt>
      <trkpt lat="43.1369505" lon="-2.7993568">
        <ele>179.733</ele>
        <time>2021-04-01T09:26:41.074Z</time>
      </trkpt>
      <trkpt lat="43.1369508" lon="-2.799359">
        <ele>179.712</ele>
        <time>2021-04-01T09:26:41.129Z</time>
      </trkpt>
      <trkpt lat="43.136951" lon="-2.7993611">
        <ele>179.719</ele>
        <time>2021-04-01T09:26:41.184Z</time>
      </trkpt>
      <trkpt lat="43.1369512" lon="-2.7993632">
        <ele>179.74</ele>
        <time>2021-04-01T09:26:41.239Z</time>
      </trkpt>
      <trkpt lat="43.1369517" lon="-2.7993658">
        <ele>179.788</ele>
        <time>2021-04-01T09:26:41.294Z</time>
      </trkpt>
      <trkpt lat="43.1369521" lon="-2.7993678">
        <ele>179.788</ele>
        <time>2021-04-01T09:26:41.349Z</time>
      </trkpt>
      <trkpt lat="43.1369525" lon="-2.7993699">
        <ele>179.778</ele>
        <time>2021-04-01T09:26:41.404Z</time>
      </trkpt>
      <trkpt lat="43.1369528" lon="-2.7993721">
        <ele>179.794</ele>
        <time>2021-04-01T09:26:41.459Z</time>
      </trkpt>
      <trkpt lat="43.1369529" lon="-2.7993748">
        <ele>179.874</ele>
        <time>2021-04-01T09:26:41.514Z</time>
      </trkpt>
      <trkpt lat="43.1369531" lon="-2.7993771">
        <ele>179.898</ele>
        <time>2021-04-01T09:26:41.569Z</time>
      </trkpt>
      <trkpt lat="43.1369534" lon="-2.7993791">
        <ele>179.913</ele>
        <time>2021-04-01T09:26:41.624Z</time>
      </trkpt>
      <trkpt lat="43.1369535" lon="-2.7993816">
        <ele>179.937</ele>
        <time>2021-04-01T09:26:41.679Z</time>
      </trkpt>
      <trkpt lat="43.1369536" lon="-2.7993842">
        <ele>179.971</ele>
        <time>2021-04-01T09:26:41.734Z</time>
      </trkpt>
      <trkpt lat="43.136954" lon="-2.7993862">
        <ele>179.978</ele>
        <time>2021-04-01T09:26:41.789Z</time>
      </trkpt>
      <trkpt lat="43.1369545" lon="-2.7993884">
        <ele>179.998</ele>
        <time>2021-04-01T09:26:41.844Z</time>
      </trkpt>
      <trkpt lat="43.1369551" lon="-2.7993904">
        <ele>180.008</ele>
        <time>2021-04-01T09:26:41.899Z</time>
      </trkpt>
      <trkpt lat="43.1369553" lon="-2.7993927">
        <ele>180.035</ele>
        <time>2021-04-01T09:26:41.954Z</time>
      </trkpt>
      <trkpt lat="43.1369557" lon="-2.799395">
        <ele>180.04</ele>
        <time>2021-04-01T09:26:42.009Z</time>
      </trkpt>
      <trkpt lat="43.1369559" lon="-2.7993973">
        <ele>180.054</ele>
        <time>2021-04-01T09:26:42.064Z</time>
      </trkpt>
      <trkpt lat="43.1369562" lon="-2.7993994">
        <ele>180.08</ele>
        <time>2021-04-01T09:26:42.119Z</time>
      </trkpt>
      <trkpt lat="43.1369566" lon="-2.7994016">
        <ele>180.106</ele>
        <time>2021-04-01T09:26:42.174Z</time>
      </trkpt>
      <trkpt lat="43.1369568" lon="-2.7994039">
        <ele>180.126</ele>
        <time>2021-04-01T09:26:42.229Z</time>
      </trkpt>
      <trkpt lat="43.1369569" lon="-2.7994059">
        <ele>180.118</ele>
        <time>2021-04-01T09:26:42.284Z</time>
      </trkpt>
      <trkpt lat="43.1369573" lon="-2.7994079">
        <ele>180.112</ele>
        <time>2021-04-01T09:26:42.339Z</time>
      </trkpt>
      <trkpt lat="43.1369576" lon="-2.7994101">
        <ele>180.147</ele>
        <time>2021-04-01T09:26:42.394Z</time>
      </trkpt>
      <trkpt lat="43.1369582" lon="-2.7994123">
        <ele>180.174</ele>
        <time>2021-04-01T09:26:42.449Z</time>
      </trkpt>
      <trkpt lat="43.1369584" lon="-2.7994147">
        <ele>180.24</ele>
        <time>2021-04-01T09:26:42.504Z</time>
      </trkpt>
      <trkpt lat="43.1369589" lon="-2.7994169">
        <ele>180.235</ele>
        <time>2021-04-01T09:26:42.562Z</time>
      </trkpt>
      <trkpt lat="43.1369593" lon="-2.7994192">
        <ele>180.224</ele>
        <time>2021-04-01T09:26:42.620Z</time>
      </trkpt>
      <trkpt lat="43.1369596" lon="-2.7994213">
        <ele>180.242</ele>
        <time>2021-04-01T09:26:42.678Z</time>
      </trkpt>
      <trkpt lat="43.1369599" lon="-2.7994235">
        <ele>180.253</ele>
        <time>2021-04-01T09:26:42.736Z</time>
      </trkpt>
      <trkpt lat="43.1369603" lon="-2.7994259">
        <ele>180.302</ele>
        <time>2021-04-01T09:26:42.795Z</time>
      </trkpt>
      <trkpt lat="43.1369607" lon="-2.7994283">
        <ele>180.314</ele>
        <time>2021-04-01T09:26:42.853Z</time>
      </trkpt>
      <trkpt lat="43.1369611" lon="-2.7994304">
        <ele>180.319</ele>
        <time>2021-04-01T09:26:42.911Z</time>
      </trkpt>
      <trkpt lat="43.1369615" lon="-2.7994326">
        <ele>180.332</ele>
        <time>2021-04-01T09:26:42.969Z</time>
      </trkpt>
      <trkpt lat="43.1369619" lon="-2.7994348">
        <ele>180.341</ele>
        <time>2021-04-01T09:26:43.028Z</time>
      </trkpt>
      <trkpt lat="43.1369621" lon="-2.799437">
        <ele>180.34</ele>
        <time>2021-04-01T09:26:43.086Z</time>
      </trkpt>
      <trkpt lat="43.1369625" lon="-2.799439">
        <ele>180.351</ele>
        <time>2021-04-01T09:26:43.144Z</time>
      </trkpt>
      <trkpt lat="43.1369632" lon="-2.7994415">
        <ele>180.386</ele>
        <time>2021-04-01T09:26:43.202Z</time>
      </trkpt>
      <trkpt lat="43.1369634" lon="-2.7994438">
        <ele>180.394</ele>
        <time>2021-04-01T09:26:43.261Z</time>
      </trkpt>
      <trkpt lat="43.1369639" lon="-2.799446">
        <ele>180.394</ele>
        <time>2021-04-01T09:26:43.319Z</time>
      </trkpt>
      <trkpt lat="43.1369642" lon="-2.7994483">
        <ele>180.406</ele>
        <time>2021-04-01T09:26:43.377Z</time>
      </trkpt>
      <trkpt lat="43.1369648" lon="-2.7994509">
        <ele>180.453</ele>
        <time>2021-04-01T09:26:43.435Z</time>
      </trkpt>
      <trkpt lat="43.1369652" lon="-2.7994533">
        <ele>180.459</ele>
        <time>2021-04-01T09:26:43.494Z</time>
      </trkpt>
      <trkpt lat="43.1369656" lon="-2.7994554">
        <ele>180.453</ele>
        <time>2021-04-01T09:26:43.546Z</time>
      </trkpt>
      <trkpt lat="43.1369662" lon="-2.7994573">
        <ele>180.439</ele>
        <time>2021-04-01T09:26:43.598Z</time>
      </trkpt>
      <trkpt lat="43.1369668" lon="-2.7994594">
        <ele>180.454</ele>
        <time>2021-04-01T09:26:43.650Z</time>
      </trkpt>
      <trkpt lat="43.1369671" lon="-2.7994617">
        <ele>180.457</ele>
        <time>2021-04-01T09:26:43.702Z</time>
      </trkpt>
      <trkpt lat="43.1369675" lon="-2.7994641">
        <ele>180.488</ele>
        <time>2021-04-01T09:26:43.754Z</time>
      </trkpt>
      <trkpt lat="43.1369681" lon="-2.7994661">
        <ele>180.479</ele>
        <time>2021-04-01T09:26:43.806Z</time>
      </trkpt>
      <trkpt lat="43.1369686" lon="-2.7994685">
        <ele>180.483</ele>
        <time>2021-04-01T09:26:43.858Z</time>
      </trkpt>
      <trkpt lat="43.1369692" lon="-2.7994712">
        <ele>180.563</ele>
        <time>2021-04-01T09:26:43.910Z</time>
      </trkpt>
      <trkpt lat="43.1369693" lon="-2.7994733">
        <ele>180.563</ele>
        <time>2021-04-01T09:26:43.962Z</time>
      </trkpt>
      <trkpt lat="43.1369697" lon="-2.7994755">
        <ele>180.576</ele>
        <time>2021-04-01T09:26:44.015Z</time>
      </trkpt>
      <trkpt lat="43.1369701" lon="-2.7994777">
        <ele>180.577</ele>
        <time>2021-04-01T09:26:44.067Z</time>
      </trkpt>
      <trkpt lat="43.1369705" lon="-2.79948">
        <ele>180.599</ele>
        <time>2021-04-01T09:26:44.119Z</time>
      </trkpt>
      <trkpt lat="43.136971" lon="-2.7994824">
        <ele>180.648</ele>
        <time>2021-04-01T09:26:44.171Z</time>
      </trkpt>
      <trkpt lat="43.1369714" lon="-2.7994852">
        <ele>180.691</ele>
        <time>2021-04-01T09:26:44.223Z</time>
      </trkpt>
      <trkpt lat="43.1369719" lon="-2.7994874">
        <ele>180.696</ele>
        <time>2021-04-01T09:26:44.275Z</time>
      </trkpt>
      <trkpt lat="43.1369725" lon="-2.7994891">
        <ele>180.643</ele>
        <time>2021-04-01T09:26:44.327Z</time>
      </trkpt>
      <trkpt lat="43.136973" lon="-2.7994913">
        <ele>180.663</ele>
        <time>2021-04-01T09:26:44.379Z</time>
      </trkpt>
      <trkpt lat="43.1369736" lon="-2.7994935">
        <ele>180.677</ele>
        <time>2021-04-01T09:26:44.431Z</time>
      </trkpt>
      <trkpt lat="43.1369741" lon="-2.7994958">
        <ele>180.662</ele>
        <time>2021-04-01T09:26:44.484Z</time>
      </trkpt>
      <trkpt lat="43.1369746" lon="-2.799498">
        <ele>180.69</ele>
        <time>2021-04-01T09:26:44.539Z</time>
      </trkpt>
      <trkpt lat="43.136975" lon="-2.7995007">
        <ele>180.724</ele>
        <time>2021-04-01T09:26:44.594Z</time>
      </trkpt>
      <trkpt lat="43.1369753" lon="-2.799503">
        <ele>180.739</ele>
        <time>2021-04-01T09:26:44.649Z</time>
      </trkpt>
      <trkpt lat="43.1369756" lon="-2.7995054">
        <ele>180.752</ele>
        <time>2021-04-01T09:26:44.704Z</time>
      </trkpt>
      <trkpt lat="43.1369761" lon="-2.7995074">
        <ele>180.736</ele>
        <time>2021-04-01T09:26:44.759Z</time>
      </trkpt>
      <trkpt lat="43.1369765" lon="-2.7995096">
        <ele>180.724</ele>
        <time>2021-04-01T09:26:44.814Z</time>
      </trkpt>
      <trkpt lat="43.136977" lon="-2.7995116">
        <ele>180.713</ele>
        <time>2021-04-01T09:26:44.869Z</time>
      </trkpt>
      <trkpt lat="43.1369771" lon="-2.7995137">
        <ele>180.681</ele>
        <time>2021-04-01T09:26:44.924Z</time>
      </trkpt>
      <trkpt lat="43.1369769" lon="-2.7995159">
        <ele>180.65</ele>
        <time>2021-04-01T09:26:44.979Z</time>
      </trkpt>
      <trkpt lat="43.136977" lon="-2.7995179">
        <ele>180.595</ele>
        <time>2021-04-01T09:26:45.034Z</time>
      </trkpt>
      <trkpt lat="43.1369775" lon="-2.7995199">
        <ele>180.569</ele>
        <time>2021-04-01T09:26:45.089Z</time>
      </trkpt>
      <trkpt lat="43.1369778" lon="-2.799522">
        <ele>180.552</ele>
        <time>2021-04-01T09:26:45.144Z</time>
      </trkpt>
      <trkpt lat="43.1369783" lon="-2.7995242">
        <ele>180.57</ele>
        <time>2021-04-01T09:26:45.199Z</time>
      </trkpt>
      <trkpt lat="43.136979" lon="-2.7995263">
        <ele>180.593</ele>
        <time>2021-04-01T09:26:45.254Z</time>
      </trkpt>
      <trkpt lat="43.1369794" lon="-2.7995284">
        <ele>180.572</ele>
        <time>2021-04-01T09:26:45.309Z</time>
      </trkpt>
      <trkpt lat="43.1369799" lon="-2.7995308">
        <ele>180.583</ele>
        <time>2021-04-01T09:26:45.364Z</time>
      </trkpt>
      <trkpt lat="43.1369804" lon="-2.7995331">
        <ele>180.58</ele>
        <time>2021-04-01T09:26:45.419Z</time>
      </trkpt>
      <trkpt lat="43.1369809" lon="-2.7995356">
        <ele>180.623</ele>
        <time>2021-04-01T09:26:45.474Z</time>
      </trkpt>
      <trkpt lat="43.1369814" lon="-2.7995377">
        <ele>180.635</ele>
        <time>2021-04-01T09:26:45.529Z</time>
      </trkpt>
      <trkpt lat="43.1369819" lon="-2.7995399">
        <ele>180.65</ele>
        <time>2021-04-01T09:26:45.584Z</time>
      </trkpt>
      <trkpt lat="43.1369824" lon="-2.7995423">
        <ele>180.671</ele>
        <time>2021-04-01T09:26:45.639Z</time>
      </trkpt>
      <trkpt lat="43.1369827" lon="-2.7995447">
        <ele>180.676</ele>
        <time>2021-04-01T09:26:45.694Z</time>
      </trkpt>
      <trkpt lat="43.1369832" lon="-2.799547">
        <ele>180.705</ele>
        <time>2021-04-01T09:26:45.749Z</time>
      </trkpt>
      <trkpt lat="43.1369834" lon="-2.7995493">
        <ele>180.703</ele>
        <time>2021-04-01T09:26:45.804Z</time>
      </trkpt>
      <trkpt lat="43.1369838" lon="-2.7995515">
        <ele>180.711</ele>
        <time>2021-04-01T09:26:45.859Z</time>
      </trkpt>
      <trkpt lat="43.1369844" lon="-2.7995537">
        <ele>180.723</ele>
        <time>2021-04-01T09:26:45.914Z</time>
      </trkpt>
      <trkpt lat="43.1369846" lon="-2.7995559">
        <ele>180.711</ele>
        <time>2021-04-01T09:26:45.969Z</time>
      </trkpt>
      <trkpt lat="43.1369849" lon="-2.7995578">
        <ele>180.695</ele>
        <time>2021-04-01T09:26:46.024Z</time>
      </trkpt>
      <trkpt lat="43.1369854" lon="-2.7995601">
        <ele>180.698</ele>
        <time>2021-04-01T09:26:46.079Z</time>
      </trkpt>
      <trkpt lat="43.1369858" lon="-2.7995625">
        <ele>180.716</ele>
        <time>2021-04-01T09:26:46.134Z</time>
      </trkpt>
      <trkpt lat="43.1369861" lon="-2.7995648">
        <ele>180.74</ele>
        <time>2021-04-01T09:26:46.189Z</time>
      </trkpt>
      <trkpt lat="43.1369862" lon="-2.7995671">
        <ele>180.753</ele>
        <time>2021-04-01T09:26:46.244Z</time>
      </trkpt>
      <trkpt lat="43.1369864" lon="-2.7995698">
        <ele>180.776</ele>
        <time>2021-04-01T09:26:46.299Z</time>
      </trkpt>
      <trkpt lat="43.1369868" lon="-2.7995722">
        <ele>180.813</ele>
        <time>2021-04-01T09:26:46.354Z</time>
      </trkpt>
      <trkpt lat="43.1369874" lon="-2.7995745">
        <ele>180.852</ele>
        <time>2021-04-01T09:26:46.409Z</time>
      </trkpt>
      <trkpt lat="43.1369878" lon="-2.7995766">
        <ele>180.852</ele>
        <time>2021-04-01T09:26:46.464Z</time>
      </trkpt>
      <trkpt lat="43.1369882" lon="-2.7995789">
        <ele>180.894</ele>
        <time>2021-04-01T09:26:46.519Z</time>
      </trkpt>
      <trkpt lat="43.1369887" lon="-2.7995812">
        <ele>180.907</ele>
        <time>2021-04-01T09:26:46.574Z</time>
      </trkpt>
      <trkpt lat="43.1369889" lon="-2.7995834">
        <ele>180.899</ele>
        <time>2021-04-01T09:26:46.629Z</time>
      </trkpt>
      <trkpt lat="43.1369891" lon="-2.7995859">
        <ele>180.919</ele>
        <time>2021-04-01T09:26:46.684Z</time>
      </trkpt>
      <trkpt lat="43.1369897" lon="-2.7995879">
        <ele>180.918</ele>
        <time>2021-04-01T09:26:46.739Z</time>
      </trkpt>
      <trkpt lat="43.1369899" lon="-2.7995901">
        <ele>180.926</ele>
        <time>2021-04-01T09:26:46.794Z</time>
      </trkpt>
      <trkpt lat="43.1369902" lon="-2.7995921">
        <ele>180.91</ele>
        <time>2021-04-01T09:26:46.849Z</time>
      </trkpt>
      <trkpt lat="43.1369907" lon="-2.7995944">
        <ele>180.942</ele>
        <time>2021-04-01T09:26:46.904Z</time>
      </trkpt>
      <trkpt lat="43.1369911" lon="-2.7995965">
        <ele>180.911</ele>
        <time>2021-04-01T09:26:46.959Z</time>
      </trkpt>
      <trkpt lat="43.1369915" lon="-2.7995987">
        <ele>180.93</ele>
        <time>2021-04-01T09:26:47.014Z</time>
      </trkpt>
      <trkpt lat="43.1369918" lon="-2.7996012">
        <ele>180.981</ele>
        <time>2021-04-01T09:26:47.069Z</time>
      </trkpt>
      <trkpt lat="43.1369922" lon="-2.7996032">
        <ele>180.982</ele>
        <time>2021-04-01T09:26:47.124Z</time>
      </trkpt>
      <trkpt lat="43.1369926" lon="-2.7996054">
        <ele>180.996</ele>
        <time>2021-04-01T09:26:47.179Z</time>
      </trkpt>
      <trkpt lat="43.1369929" lon="-2.7996075">
        <ele>180.991</ele>
        <time>2021-04-01T09:26:47.234Z</time>
      </trkpt>
      <trkpt lat="43.1369931" lon="-2.7996097">
        <ele>180.989</ele>
        <time>2021-04-01T09:26:47.289Z</time>
      </trkpt>
      <trkpt lat="43.1369936" lon="-2.799612">
        <ele>181</ele>
        <time>2021-04-01T09:26:47.344Z</time>
      </trkpt>
      <trkpt lat="43.136994" lon="-2.7996141">
        <ele>180.981</ele>
        <time>2021-04-01T09:26:47.399Z</time>
      </trkpt>
      <trkpt lat="43.1369944" lon="-2.7996164">
        <ele>181.015</ele>
        <time>2021-04-01T09:26:47.454Z</time>
      </trkpt>
      <trkpt lat="43.1369946" lon="-2.7996187">
        <ele>181.013</ele>
        <time>2021-04-01T09:26:47.509Z</time>
      </trkpt>
      <trkpt lat="43.136995" lon="-2.7996209">
        <ele>181.012</ele>
        <time>2021-04-01T09:26:47.564Z</time>
      </trkpt>
      <trkpt lat="43.1369954" lon="-2.7996233">
        <ele>181.031</ele>
        <time>2021-04-01T09:26:47.619Z</time>
      </trkpt>
      <trkpt lat="43.1369956" lon="-2.7996255">
        <ele>181.024</ele>
        <time>2021-04-01T09:26:47.674Z</time>
      </trkpt>
      <trkpt lat="43.136996" lon="-2.7996278">
        <ele>181.052</ele>
        <time>2021-04-01T09:26:47.729Z</time>
      </trkpt>
      <trkpt lat="43.1369964" lon="-2.7996301">
        <ele>181.057</ele>
        <time>2021-04-01T09:26:47.784Z</time>
      </trkpt>
      <trkpt lat="43.1369967" lon="-2.7996323">
        <ele>181.075</ele>
        <time>2021-04-01T09:26:47.839Z</time>
      </trkpt>
      <trkpt lat="43.136997" lon="-2.7996345">
        <ele>181.093</ele>
        <time>2021-04-01T09:26:47.894Z</time>
      </trkpt>
      <trkpt lat="43.1369973" lon="-2.799637">
        <ele>181.114</ele>
        <time>2021-04-01T09:26:47.949Z</time>
      </trkpt>
      <trkpt lat="43.1369977" lon="-2.7996394">
        <ele>181.133</ele>
        <time>2021-04-01T09:26:48.004Z</time>
      </trkpt>
      <trkpt lat="43.136998" lon="-2.7996415">
        <ele>181.13</ele>
        <time>2021-04-01T09:26:48.059Z</time>
      </trkpt>
      <trkpt lat="43.136998" lon="-2.7996438">
        <ele>181.133</ele>
        <time>2021-04-01T09:26:48.114Z</time>
      </trkpt>
      <trkpt lat="43.1369983" lon="-2.7996461">
        <ele>181.128</ele>
        <time>2021-04-01T09:26:48.169Z</time>
      </trkpt>
      <trkpt lat="43.1369986" lon="-2.7996484">
        <ele>181.159</ele>
        <time>2021-04-01T09:26:48.224Z</time>
      </trkpt>
      <trkpt lat="43.1369991" lon="-2.7996504">
        <ele>181.16</ele>
        <time>2021-04-01T09:26:48.279Z</time>
      </trkpt>
      <trkpt lat="43.1369994" lon="-2.7996528">
        <ele>181.179</ele>
        <time>2021-04-01T09:26:48.334Z</time>
      </trkpt>
      <trkpt lat="43.1369997" lon="-2.7996551">
        <ele>181.19</ele>
        <time>2021-04-01T09:26:48.389Z</time>
      </trkpt>
      <trkpt lat="43.1370002" lon="-2.7996576">
        <ele>181.216</ele>
        <time>2021-04-01T09:26:48.444Z</time>
      </trkpt>
      <trkpt lat="43.1370004" lon="-2.7996597">
        <ele>181.203</ele>
        <time>2021-04-01T09:26:48.499Z</time>
      </trkpt>
      <trkpt lat="43.1370012" lon="-2.7996617">
        <ele>181.192</ele>
        <time>2021-04-01T09:26:48.554Z</time>
      </trkpt>
      <trkpt lat="43.1370016" lon="-2.7996641">
        <ele>181.225</ele>
        <time>2021-04-01T09:26:48.609Z</time>
      </trkpt>
      <trkpt lat="43.137002" lon="-2.7996663">
        <ele>181.229</ele>
        <time>2021-04-01T09:26:48.664Z</time>
      </trkpt>
      <trkpt lat="43.1370026" lon="-2.7996685">
        <ele>181.235</ele>
        <time>2021-04-01T09:26:48.719Z</time>
      </trkpt>
      <trkpt lat="43.137003" lon="-2.7996708">
        <ele>181.229</ele>
        <time>2021-04-01T09:26:48.774Z</time>
      </trkpt>
      <trkpt lat="43.1370032" lon="-2.799673">
        <ele>181.221</ele>
        <time>2021-04-01T09:26:48.829Z</time>
      </trkpt>
      <trkpt lat="43.1370034" lon="-2.799675">
        <ele>181.218</ele>
        <time>2021-04-01T09:26:48.884Z</time>
      </trkpt>
      <trkpt lat="43.1370038" lon="-2.7996772">
        <ele>181.197</ele>
        <time>2021-04-01T09:26:48.939Z</time>
      </trkpt>
      <trkpt lat="43.137004" lon="-2.7996796">
        <ele>181.229</ele>
        <time>2021-04-01T09:26:48.994Z</time>
      </trkpt>
      <trkpt lat="43.1370042" lon="-2.7996816">
        <ele>181.216</ele>
        <time>2021-04-01T09:26:49.049Z</time>
      </trkpt>
      <trkpt lat="43.1370047" lon="-2.7996837">
        <ele>181.217</ele>
        <time>2021-04-01T09:26:49.104Z</time>
      </trkpt>
      <trkpt lat="43.1370051" lon="-2.799686">
        <ele>181.211</ele>
        <time>2021-04-01T09:26:49.159Z</time>
      </trkpt>
      <trkpt lat="43.1370055" lon="-2.7996884">
        <ele>181.221</ele>
        <time>2021-04-01T09:26:49.214Z</time>
      </trkpt>
      <trkpt lat="43.137006" lon="-2.7996905">
        <ele>181.207</ele>
        <time>2021-04-01T09:26:49.269Z</time>
      </trkpt>
      <trkpt lat="43.1370064" lon="-2.7996924">
        <ele>181.199</ele>
        <time>2021-04-01T09:26:49.324Z</time>
      </trkpt>
      <trkpt lat="43.1370068" lon="-2.7996945">
        <ele>181.199</ele>
        <time>2021-04-01T09:26:49.379Z</time>
      </trkpt>
      <trkpt lat="43.1370071" lon="-2.7996968">
        <ele>181.21</ele>
        <time>2021-04-01T09:26:49.434Z</time>
      </trkpt>
      <trkpt lat="43.1370073" lon="-2.7996991">
        <ele>181.235</ele>
        <time>2021-04-01T09:26:49.489Z</time>
      </trkpt>
      <trkpt lat="43.1370076" lon="-2.7997015">
        <ele>181.256</ele>
        <time>2021-04-01T09:26:49.547Z</time>
      </trkpt>
      <trkpt lat="43.1370079" lon="-2.799704">
        <ele>181.268</ele>
        <time>2021-04-01T09:26:49.605Z</time>
      </trkpt>
      <trkpt lat="43.1370082" lon="-2.7997064">
        <ele>181.31</ele>
        <time>2021-04-01T09:26:49.663Z</time>
      </trkpt>
      <trkpt lat="43.1370085" lon="-2.7997086">
        <ele>181.329</ele>
        <time>2021-04-01T09:26:49.721Z</time>
      </trkpt>
      <trkpt lat="43.1370087" lon="-2.7997112">
        <ele>181.362</ele>
        <time>2021-04-01T09:26:49.780Z</time>
      </trkpt>
      <trkpt lat="43.1370088" lon="-2.7997137">
        <ele>181.387</ele>
        <time>2021-04-01T09:26:49.838Z</time>
      </trkpt>
      <trkpt lat="43.1370092" lon="-2.799716">
        <ele>181.4</ele>
        <time>2021-04-01T09:26:49.896Z</time>
      </trkpt>
      <trkpt lat="43.1370093" lon="-2.7997182">
        <ele>181.398</ele>
        <time>2021-04-01T09:26:49.954Z</time>
      </trkpt>
      <trkpt lat="43.1370096" lon="-2.7997205">
        <ele>181.399</ele>
        <time>2021-04-01T09:26:50.013Z</time>
      </trkpt>
      <trkpt lat="43.1370096" lon="-2.7997225">
        <ele>181.38</ele>
        <time>2021-04-01T09:26:50.071Z</time>
      </trkpt>
      <trkpt lat="43.1370099" lon="-2.7997245">
        <ele>181.348</ele>
        <time>2021-04-01T09:26:50.129Z</time>
      </trkpt>
      <trkpt lat="43.1370102" lon="-2.7997265">
        <ele>181.332</ele>
        <time>2021-04-01T09:26:50.187Z</time>
      </trkpt>
      <trkpt lat="43.1370105" lon="-2.7997285">
        <ele>181.329</ele>
        <time>2021-04-01T09:26:50.246Z</time>
      </trkpt>
      <trkpt lat="43.1370108" lon="-2.7997309">
        <ele>181.328</ele>
        <time>2021-04-01T09:26:50.304Z</time>
      </trkpt>
      <trkpt lat="43.137011" lon="-2.7997331">
        <ele>181.319</ele>
        <time>2021-04-01T09:26:50.362Z</time>
      </trkpt>
      <trkpt lat="43.137012" lon="-2.7997374">
        <ele>181.371</ele>
        <time>2021-04-01T09:26:50.420Z</time>
      </trkpt>
      <trkpt lat="43.1370126" lon="-2.7997397">
        <ele>181.378</ele>
        <time>2021-04-01T09:26:50.479Z</time>
      </trkpt>
      <trkpt lat="43.1370131" lon="-2.7997417">
        <ele>181.353</ele>
        <time>2021-04-01T09:26:50.534Z</time>
      </trkpt>
      <trkpt lat="43.1370135" lon="-2.799744">
        <ele>181.385</ele>
        <time>2021-04-01T09:26:50.589Z</time>
      </trkpt>
      <trkpt lat="43.1370138" lon="-2.7997459">
        <ele>181.395</ele>
        <time>2021-04-01T09:26:50.644Z</time>
      </trkpt>
      <trkpt lat="43.1370144" lon="-2.799748">
        <ele>181.42</ele>
        <time>2021-04-01T09:26:50.699Z</time>
      </trkpt>
      <trkpt lat="43.1370151" lon="-2.7997501">
        <ele>181.4</ele>
        <time>2021-04-01T09:26:50.754Z</time>
      </trkpt>
      <trkpt lat="43.1370155" lon="-2.7997524">
        <ele>181.415</ele>
        <time>2021-04-01T09:26:50.809Z</time>
      </trkpt>
      <trkpt lat="43.1370158" lon="-2.7997546">
        <ele>181.436</ele>
        <time>2021-04-01T09:26:50.864Z</time>
      </trkpt>
      <trkpt lat="43.1370162" lon="-2.7997567">
        <ele>181.422</ele>
        <time>2021-04-01T09:26:50.919Z</time>
      </trkpt>
      <trkpt lat="43.1370167" lon="-2.7997588">
        <ele>181.403</ele>
        <time>2021-04-01T09:26:50.974Z</time>
      </trkpt>
      <trkpt lat="43.1370171" lon="-2.7997609">
        <ele>181.425</ele>
        <time>2021-04-01T09:26:51.029Z</time>
      </trkpt>
      <trkpt lat="43.1370176" lon="-2.7997632">
        <ele>181.438</ele>
        <time>2021-04-01T09:26:51.084Z</time>
      </trkpt>
      <trkpt lat="43.137018" lon="-2.7997655">
        <ele>181.449</ele>
        <time>2021-04-01T09:26:51.139Z</time>
      </trkpt>
      <trkpt lat="43.1370181" lon="-2.7997674">
        <ele>181.404</ele>
        <time>2021-04-01T09:26:51.194Z</time>
      </trkpt>
      <trkpt lat="43.1370185" lon="-2.7997691">
        <ele>181.356</ele>
        <time>2021-04-01T09:26:51.249Z</time>
      </trkpt>
      <trkpt lat="43.1370188" lon="-2.7997714">
        <ele>181.35</ele>
        <time>2021-04-01T09:26:51.304Z</time>
      </trkpt>
      <trkpt lat="43.1370193" lon="-2.7997734">
        <ele>181.347</ele>
        <time>2021-04-01T09:26:51.359Z</time>
      </trkpt>
      <trkpt lat="43.1370197" lon="-2.7997754">
        <ele>181.337</ele>
        <time>2021-04-01T09:26:51.414Z</time>
      </trkpt>
      <trkpt lat="43.13702" lon="-2.7997777">
        <ele>181.323</ele>
        <time>2021-04-01T09:26:51.469Z</time>
      </trkpt>
      <trkpt lat="43.1370204" lon="-2.7997799">
        <ele>181.307</ele>
        <time>2021-04-01T09:26:51.524Z</time>
      </trkpt>
      <trkpt lat="43.1370209" lon="-2.7997822">
        <ele>181.344</ele>
        <time>2021-04-01T09:26:51.582Z</time>
      </trkpt>
      <trkpt lat="43.1370211" lon="-2.7997845">
        <ele>181.356</ele>
        <time>2021-04-01T09:26:51.640Z</time>
      </trkpt>
      <trkpt lat="43.1370215" lon="-2.7997867">
        <ele>181.361</ele>
        <time>2021-04-01T09:26:51.698Z</time>
      </trkpt>
      <trkpt lat="43.1370219" lon="-2.7997889">
        <ele>181.344</ele>
        <time>2021-04-01T09:26:51.756Z</time>
      </trkpt>
      <trkpt lat="43.137022" lon="-2.7997913">
        <ele>181.38</ele>
        <time>2021-04-01T09:26:51.815Z</time>
      </trkpt>
      <trkpt lat="43.1370221" lon="-2.7997931">
        <ele>181.35</ele>
        <time>2021-04-01T09:26:51.873Z</time>
      </trkpt>
      <trkpt lat="43.1370224" lon="-2.7997951">
        <ele>181.344</ele>
        <time>2021-04-01T09:26:51.931Z</time>
      </trkpt>
      <trkpt lat="43.1370226" lon="-2.7997973">
        <ele>181.355</ele>
        <time>2021-04-01T09:26:51.989Z</time>
      </trkpt>
      <trkpt lat="43.1370231" lon="-2.7997996">
        <ele>181.366</ele>
        <time>2021-04-01T09:26:52.048Z</time>
      </trkpt>
      <trkpt lat="43.1370237" lon="-2.7998019">
        <ele>181.348</ele>
        <time>2021-04-01T09:26:52.106Z</time>
      </trkpt>
      <trkpt lat="43.1370239" lon="-2.7998042">
        <ele>181.373</ele>
        <time>2021-04-01T09:26:52.164Z</time>
      </trkpt>
      <trkpt lat="43.1370242" lon="-2.7998063">
        <ele>181.374</ele>
        <time>2021-04-01T09:26:52.222Z</time>
      </trkpt>
      <trkpt lat="43.1370247" lon="-2.7998084">
        <ele>181.363</ele>
        <time>2021-04-01T09:26:52.281Z</time>
      </trkpt>
      <trkpt lat="43.1370251" lon="-2.7998106">
        <ele>181.368</ele>
        <time>2021-04-01T09:26:52.339Z</time>
      </trkpt>
      <trkpt lat="43.1370256" lon="-2.7998128">
        <ele>181.365</ele>
        <time>2021-04-01T09:26:52.397Z</time>
      </trkpt>
      <trkpt lat="43.1370257" lon="-2.7998149">
        <ele>181.389</ele>
        <time>2021-04-01T09:26:52.455Z</time>
      </trkpt>
      <trkpt lat="43.1370261" lon="-2.7998172">
        <ele>181.407</ele>
        <time>2021-04-01T09:26:52.514Z</time>
      </trkpt>
      <trkpt lat="43.1370265" lon="-2.7998193">
        <ele>181.396</ele>
        <time>2021-04-01T09:26:52.563Z</time>
      </trkpt>
      <trkpt lat="43.1370269" lon="-2.7998215">
        <ele>181.38</ele>
        <time>2021-04-01T09:26:52.612Z</time>
      </trkpt>
      <trkpt lat="43.1370272" lon="-2.7998238">
        <ele>181.4</ele>
        <time>2021-04-01T09:26:52.661Z</time>
      </trkpt>
      <trkpt lat="43.1370275" lon="-2.7998261">
        <ele>181.436</ele>
        <time>2021-04-01T09:26:52.710Z</time>
      </trkpt>
      <trkpt lat="43.1370278" lon="-2.7998281">
        <ele>181.417</ele>
        <time>2021-04-01T09:26:52.760Z</time>
      </trkpt>
      <trkpt lat="43.1370282" lon="-2.7998302">
        <ele>181.41</ele>
        <time>2021-04-01T09:26:52.809Z</time>
      </trkpt>
      <trkpt lat="43.1370284" lon="-2.7998323">
        <ele>181.403</ele>
        <time>2021-04-01T09:26:52.858Z</time>
      </trkpt>
      <trkpt lat="43.1370284" lon="-2.7998347">
        <ele>181.434</ele>
        <time>2021-04-01T09:26:52.907Z</time>
      </trkpt>
      <trkpt lat="43.1370287" lon="-2.7998371">
        <ele>181.465</ele>
        <time>2021-04-01T09:26:52.956Z</time>
      </trkpt>
      <trkpt lat="43.1370291" lon="-2.7998395">
        <ele>181.497</ele>
        <time>2021-04-01T09:26:53.006Z</time>
      </trkpt>
      <trkpt lat="43.1370296" lon="-2.7998411">
        <ele>181.439</ele>
        <time>2021-04-01T09:26:53.055Z</time>
      </trkpt>
      <trkpt lat="43.1370301" lon="-2.7998437">
        <ele>181.487</ele>
        <time>2021-04-01T09:26:53.104Z</time>
      </trkpt>
      <trkpt lat="43.1370305" lon="-2.7998457">
        <ele>181.476</ele>
        <time>2021-04-01T09:26:53.153Z</time>
      </trkpt>
      <trkpt lat="43.1370307" lon="-2.7998482">
        <ele>181.518</ele>
        <time>2021-04-01T09:26:53.202Z</time>
      </trkpt>
      <trkpt lat="43.137031" lon="-2.7998505">
        <ele>181.529</ele>
        <time>2021-04-01T09:26:53.252Z</time>
      </trkpt>
      <trkpt lat="43.1370312" lon="-2.7998527">
        <ele>181.519</ele>
        <time>2021-04-01T09:26:53.301Z</time>
      </trkpt>
      <trkpt lat="43.1370319" lon="-2.7998545">
        <ele>181.486</ele>
        <time>2021-04-01T09:26:53.350Z</time>
      </trkpt>
      <trkpt lat="43.1370323" lon="-2.7998566">
        <ele>181.486</ele>
        <time>2021-04-01T09:26:53.399Z</time>
      </trkpt>
      <trkpt lat="43.1370326" lon="-2.7998589">
        <ele>181.507</ele>
        <time>2021-04-01T09:26:53.449Z</time>
      </trkpt>
      <trkpt lat="43.1370329" lon="-2.799861">
        <ele>181.515</ele>
        <time>2021-04-01T09:26:53.507Z</time>
      </trkpt>
      <trkpt lat="43.1370334" lon="-2.7998631">
        <ele>181.511</ele>
        <time>2021-04-01T09:26:53.565Z</time>
      </trkpt>
      <trkpt lat="43.1370337" lon="-2.7998653">
        <ele>181.519</ele>
        <time>2021-04-01T09:26:53.623Z</time>
      </trkpt>
      <trkpt lat="43.1370341" lon="-2.7998678">
        <ele>181.555</ele>
        <time>2021-04-01T09:26:53.681Z</time>
      </trkpt>
      <trkpt lat="43.1370344" lon="-2.7998699">
        <ele>181.572</ele>
        <time>2021-04-01T09:26:53.739Z</time>
      </trkpt>
      <trkpt lat="43.1370346" lon="-2.7998722">
        <ele>181.592</ele>
        <time>2021-04-01T09:26:53.797Z</time>
      </trkpt>
      <trkpt lat="43.1370347" lon="-2.7998744">
        <ele>181.621</ele>
        <time>2021-04-01T09:26:53.855Z</time>
      </trkpt>
      <trkpt lat="43.1370348" lon="-2.7998767">
        <ele>181.64</ele>
        <time>2021-04-01T09:26:53.913Z</time>
      </trkpt>
      <trkpt lat="43.1370349" lon="-2.799879">
        <ele>181.649</ele>
        <time>2021-04-01T09:26:53.971Z</time>
      </trkpt>
      <trkpt lat="43.1370351" lon="-2.7998812">
        <ele>181.66</ele>
        <time>2021-04-01T09:26:54.029Z</time>
      </trkpt>
      <trkpt lat="43.1370355" lon="-2.7998831">
        <ele>181.651</ele>
        <time>2021-04-01T09:26:54.087Z</time>
      </trkpt>
      <trkpt lat="43.1370356" lon="-2.7998858">
        <ele>181.68</ele>
        <time>2021-04-01T09:26:54.145Z</time>
      </trkpt>
      <trkpt lat="43.137036" lon="-2.7998879">
        <ele>181.69</ele>
        <time>2021-04-01T09:26:54.203Z</time>
      </trkpt>
      <trkpt lat="43.1370364" lon="-2.7998904">
        <ele>181.733</ele>
        <time>2021-04-01T09:26:54.261Z</time>
      </trkpt>
      <trkpt lat="43.1370368" lon="-2.7998923">
        <ele>181.728</ele>
        <time>2021-04-01T09:26:54.319Z</time>
      </trkpt>
      <trkpt lat="43.1370372" lon="-2.7998944">
        <ele>181.744</ele>
        <time>2021-04-01T09:26:54.377Z</time>
      </trkpt>
      <trkpt lat="43.1370374" lon="-2.7998968">
        <ele>181.75</ele>
        <time>2021-04-01T09:26:54.435Z</time>
      </trkpt>
      <trkpt lat="43.1370376" lon="-2.799899">
        <ele>181.742</ele>
        <time>2021-04-01T09:26:54.494Z</time>
      </trkpt>
      <trkpt lat="43.1370379" lon="-2.7999014">
        <ele>181.755</ele>
        <time>2021-04-01T09:26:54.549Z</time>
      </trkpt>
      <trkpt lat="43.1370383" lon="-2.799904">
        <ele>181.803</ele>
        <time>2021-04-01T09:26:54.604Z</time>
      </trkpt>
      <trkpt lat="43.1370386" lon="-2.7999063">
        <ele>181.83</ele>
        <time>2021-04-01T09:26:54.659Z</time>
      </trkpt>
      <trkpt lat="43.137039" lon="-2.7999084">
        <ele>181.841</ele>
        <time>2021-04-01T09:26:54.714Z</time>
      </trkpt>
      <trkpt lat="43.1370394" lon="-2.7999107">
        <ele>181.842</ele>
        <time>2021-04-01T09:26:54.769Z</time>
      </trkpt>
      <trkpt lat="43.1370398" lon="-2.7999132">
        <ele>181.847</ele>
        <time>2021-04-01T09:26:54.824Z</time>
      </trkpt>
      <trkpt lat="43.1370402" lon="-2.7999155">
        <ele>181.88</ele>
        <time>2021-04-01T09:26:54.879Z</time>
      </trkpt>
      <trkpt lat="43.1370407" lon="-2.7999178">
        <ele>181.918</ele>
        <time>2021-04-01T09:26:54.934Z</time>
      </trkpt>
      <trkpt lat="43.1370413" lon="-2.7999199">
        <ele>181.942</ele>
        <time>2021-04-01T09:26:54.989Z</time>
      </trkpt>
      <trkpt lat="43.1370415" lon="-2.7999225">
        <ele>181.957</ele>
        <time>2021-04-01T09:26:55.044Z</time>
      </trkpt>
      <trkpt lat="43.1370418" lon="-2.7999248">
        <ele>181.984</ele>
        <time>2021-04-01T09:26:55.099Z</time>
      </trkpt>
      <trkpt lat="43.1370422" lon="-2.799927">
        <ele>181.979</ele>
        <time>2021-04-01T09:26:55.154Z</time>
      </trkpt>
      <trkpt lat="43.1370427" lon="-2.7999295">
        <ele>182.018</ele>
        <time>2021-04-01T09:26:55.209Z</time>
      </trkpt>
      <trkpt lat="43.1370433" lon="-2.7999317">
        <ele>182.033</ele>
        <time>2021-04-01T09:26:55.264Z</time>
      </trkpt>
      <trkpt lat="43.1370437" lon="-2.799934">
        <ele>182.043</ele>
        <time>2021-04-01T09:26:55.319Z</time>
      </trkpt>
      <trkpt lat="43.1370441" lon="-2.7999363">
        <ele>182.046</ele>
        <time>2021-04-01T09:26:55.374Z</time>
      </trkpt>
      <trkpt lat="43.1370445" lon="-2.7999386">
        <ele>182.055</ele>
        <time>2021-04-01T09:26:55.429Z</time>
      </trkpt>
      <trkpt lat="43.1370448" lon="-2.7999407">
        <ele>182.056</ele>
        <time>2021-04-01T09:26:55.484Z</time>
      </trkpt>
      <trkpt lat="43.1370456" lon="-2.7999428">
        <ele>182.064</ele>
        <time>2021-04-01T09:26:55.536Z</time>
      </trkpt>
      <trkpt lat="43.1370461" lon="-2.7999447">
        <ele>182.056</ele>
        <time>2021-04-01T09:26:55.588Z</time>
      </trkpt>
      <trkpt lat="43.1370463" lon="-2.7999468">
        <ele>182.056</ele>
        <time>2021-04-01T09:26:55.640Z</time>
      </trkpt>
      <trkpt lat="43.1370468" lon="-2.799949">
        <ele>182.047</ele>
        <time>2021-04-01T09:26:55.692Z</time>
      </trkpt>
      <trkpt lat="43.1370472" lon="-2.7999517">
        <ele>182.114</ele>
        <time>2021-04-01T09:26:55.744Z</time>
      </trkpt>
      <trkpt lat="43.1370476" lon="-2.799954">
        <ele>182.126</ele>
        <time>2021-04-01T09:26:55.796Z</time>
      </trkpt>
      <trkpt lat="43.137048" lon="-2.7999563">
        <ele>182.129</ele>
        <time>2021-04-01T09:26:55.848Z</time>
      </trkpt>
      <trkpt lat="43.1370484" lon="-2.7999587">
        <ele>182.154</ele>
        <time>2021-04-01T09:26:55.900Z</time>
      </trkpt>
      <trkpt lat="43.1370487" lon="-2.7999607">
        <ele>182.144</ele>
        <time>2021-04-01T09:26:55.952Z</time>
      </trkpt>
      <trkpt lat="43.1370491" lon="-2.7999628">
        <ele>182.162</ele>
        <time>2021-04-01T09:26:56.005Z</time>
      </trkpt>
      <trkpt lat="43.1370495" lon="-2.7999652">
        <ele>182.155</ele>
        <time>2021-04-01T09:26:56.057Z</time>
      </trkpt>
      <trkpt lat="43.13705" lon="-2.7999677">
        <ele>182.209</ele>
        <time>2021-04-01T09:26:56.109Z</time>
      </trkpt>
      <trkpt lat="43.1370503" lon="-2.7999701">
        <ele>182.211</ele>
        <time>2021-04-01T09:26:56.161Z</time>
      </trkpt>
      <trkpt lat="43.1370507" lon="-2.7999726">
        <ele>182.234</ele>
        <time>2021-04-01T09:26:56.213Z</time>
      </trkpt>
      <trkpt lat="43.1370511" lon="-2.7999753">
        <ele>182.305</ele>
        <time>2021-04-01T09:26:56.265Z</time>
      </trkpt>
      <trkpt lat="43.1370516" lon="-2.7999771">
        <ele>182.303</ele>
        <time>2021-04-01T09:26:56.317Z</time>
      </trkpt>
      <trkpt lat="43.1370523" lon="-2.7999789">
        <ele>182.283</ele>
        <time>2021-04-01T09:26:56.369Z</time>
      </trkpt>
      <trkpt lat="43.1370527" lon="-2.7999812">
        <ele>182.286</ele>
        <time>2021-04-01T09:26:56.421Z</time>
      </trkpt>
      <trkpt lat="43.1370529" lon="-2.7999834">
        <ele>182.325</ele>
        <time>2021-04-01T09:26:56.474Z</time>
      </trkpt>
      <trkpt lat="43.1370533" lon="-2.7999857">
        <ele>182.338</ele>
        <time>2021-04-01T09:26:56.532Z</time>
      </trkpt>
      <trkpt lat="43.1370539" lon="-2.7999882">
        <ele>182.36</ele>
        <time>2021-04-01T09:26:56.590Z</time>
      </trkpt>
      <trkpt lat="43.1370542" lon="-2.7999907">
        <ele>182.358</ele>
        <time>2021-04-01T09:26:56.648Z</time>
      </trkpt>
      <trkpt lat="43.1370546" lon="-2.799993">
        <ele>182.386</ele>
        <time>2021-04-01T09:26:56.706Z</time>
      </trkpt>
      <trkpt lat="43.1370547" lon="-2.7999953">
        <ele>182.436</ele>
        <time>2021-04-01T09:26:56.764Z</time>
      </trkpt>
      <trkpt lat="43.1370551" lon="-2.7999973">
        <ele>182.417</ele>
        <time>2021-04-01T09:26:56.822Z</time>
      </trkpt>
      <trkpt lat="43.1370556" lon="-2.7999995">
        <ele>182.403</ele>
        <time>2021-04-01T09:26:56.880Z</time>
      </trkpt>
      <trkpt lat="43.1370561" lon="-2.8000014">
        <ele>182.382</ele>
        <time>2021-04-01T09:26:56.938Z</time>
      </trkpt>
      <trkpt lat="43.1370566" lon="-2.8000035">
        <ele>182.365</ele>
        <time>2021-04-01T09:26:56.996Z</time>
      </trkpt>
      <trkpt lat="43.1370569" lon="-2.8000055">
        <ele>182.368</ele>
        <time>2021-04-01T09:26:57.054Z</time>
      </trkpt>
      <trkpt lat="43.1370571" lon="-2.8000077">
        <ele>182.382</ele>
        <time>2021-04-01T09:26:57.112Z</time>
      </trkpt>
      <trkpt lat="43.1370574" lon="-2.8000099">
        <ele>182.387</ele>
        <time>2021-04-01T09:26:57.170Z</time>
      </trkpt>
      <trkpt lat="43.1370576" lon="-2.8000122">
        <ele>182.389</ele>
        <time>2021-04-01T09:26:57.228Z</time>
      </trkpt>
      <trkpt lat="43.1370578" lon="-2.8000143">
        <ele>182.376</ele>
        <time>2021-04-01T09:26:57.286Z</time>
      </trkpt>
      <trkpt lat="43.1370582" lon="-2.8000167">
        <ele>182.414</ele>
        <time>2021-04-01T09:26:57.344Z</time>
      </trkpt>
      <trkpt lat="43.1370588" lon="-2.8000191">
        <ele>182.394</ele>
        <time>2021-04-01T09:26:57.402Z</time>
      </trkpt>
      <trkpt lat="43.1370589" lon="-2.8000215">
        <ele>182.388</ele>
        <time>2021-04-01T09:26:57.460Z</time>
      </trkpt>
      <trkpt lat="43.1370593" lon="-2.8000238">
        <ele>182.403</ele>
        <time>2021-04-01T09:26:57.519Z</time>
      </trkpt>
      <trkpt lat="43.1370596" lon="-2.8000261">
        <ele>182.436</ele>
        <time>2021-04-01T09:26:57.574Z</time>
      </trkpt>
      <trkpt lat="43.1370599" lon="-2.800028">
        <ele>182.427</ele>
        <time>2021-04-01T09:26:57.629Z</time>
      </trkpt>
      <trkpt lat="43.1370604" lon="-2.8000305">
        <ele>182.445</ele>
        <time>2021-04-01T09:26:57.684Z</time>
      </trkpt>
      <trkpt lat="43.1370607" lon="-2.8000331">
        <ele>182.482</ele>
        <time>2021-04-01T09:26:57.739Z</time>
      </trkpt>
      <trkpt lat="43.1370612" lon="-2.8000355">
        <ele>182.477</ele>
        <time>2021-04-01T09:26:57.794Z</time>
      </trkpt>
      <trkpt lat="43.1370616" lon="-2.8000378">
        <ele>182.52</ele>
        <time>2021-04-01T09:26:57.849Z</time>
      </trkpt>
      <trkpt lat="43.1370621" lon="-2.8000401">
        <ele>182.511</ele>
        <time>2021-04-01T09:26:57.904Z</time>
      </trkpt>
      <trkpt lat="43.1370627" lon="-2.8000421">
        <ele>182.496</ele>
        <time>2021-04-01T09:26:57.959Z</time>
      </trkpt>
      <trkpt lat="43.137063" lon="-2.8000442">
        <ele>182.499</ele>
        <time>2021-04-01T09:26:58.014Z</time>
      </trkpt>
      <trkpt lat="43.1370635" lon="-2.8000463">
        <ele>182.493</ele>
        <time>2021-04-01T09:26:58.069Z</time>
      </trkpt>
      <trkpt lat="43.137064" lon="-2.8000486">
        <ele>182.503</ele>
        <time>2021-04-01T09:26:58.124Z</time>
      </trkpt>
      <trkpt lat="43.1370645" lon="-2.8000509">
        <ele>182.52</ele>
        <time>2021-04-01T09:26:58.179Z</time>
      </trkpt>
      <trkpt lat="43.1370649" lon="-2.8000531">
        <ele>182.524</ele>
        <time>2021-04-01T09:26:58.234Z</time>
      </trkpt>
      <trkpt lat="43.1370652" lon="-2.8000556">
        <ele>182.545</ele>
        <time>2021-04-01T09:26:58.289Z</time>
      </trkpt>
      <trkpt lat="43.1370655" lon="-2.8000582">
        <ele>182.596</ele>
        <time>2021-04-01T09:26:58.344Z</time>
      </trkpt>
      <trkpt lat="43.1370662" lon="-2.8000598">
        <ele>182.578</ele>
        <time>2021-04-01T09:26:58.399Z</time>
      </trkpt>
      <trkpt lat="43.1370668" lon="-2.8000618">
        <ele>182.562</ele>
        <time>2021-04-01T09:26:58.454Z</time>
      </trkpt>
      <trkpt lat="43.1370673" lon="-2.8000642">
        <ele>182.557</ele>
        <time>2021-04-01T09:26:58.509Z</time>
      </trkpt>
      <trkpt lat="43.1370675" lon="-2.8000668">
        <ele>182.582</ele>
        <time>2021-04-01T09:26:58.564Z</time>
      </trkpt>
      <trkpt lat="43.1370678" lon="-2.8000689">
        <ele>182.601</ele>
        <time>2021-04-01T09:26:58.619Z</time>
      </trkpt>
      <trkpt lat="43.1370683" lon="-2.8000714">
        <ele>182.624</ele>
        <time>2021-04-01T09:26:58.674Z</time>
      </trkpt>
      <trkpt lat="43.1370687" lon="-2.8000737">
        <ele>182.646</ele>
        <time>2021-04-01T09:26:58.729Z</time>
      </trkpt>
      <trkpt lat="43.1370693" lon="-2.8000759">
        <ele>182.675</ele>
        <time>2021-04-01T09:26:58.784Z</time>
      </trkpt>
      <trkpt lat="43.1370694" lon="-2.8000781">
        <ele>182.68</ele>
        <time>2021-04-01T09:26:58.839Z</time>
      </trkpt>
      <trkpt lat="43.1370697" lon="-2.8000806">
        <ele>182.691</ele>
        <time>2021-04-01T09:26:58.894Z</time>
      </trkpt>
      <trkpt lat="43.1370701" lon="-2.8000831">
        <ele>182.713</ele>
        <time>2021-04-01T09:26:58.949Z</time>
      </trkpt>
      <trkpt lat="43.1370702" lon="-2.8000856">
        <ele>182.773</ele>
        <time>2021-04-01T09:26:59.004Z</time>
      </trkpt>
      <trkpt lat="43.1370704" lon="-2.800088">
        <ele>182.782</ele>
        <time>2021-04-01T09:26:59.059Z</time>
      </trkpt>
      <trkpt lat="43.1370708" lon="-2.8000905">
        <ele>182.82</ele>
        <time>2021-04-01T09:26:59.114Z</time>
      </trkpt>
      <trkpt lat="43.1370713" lon="-2.8000925">
        <ele>182.793</ele>
        <time>2021-04-01T09:26:59.169Z</time>
      </trkpt>
      <trkpt lat="43.1370714" lon="-2.8000948">
        <ele>182.804</ele>
        <time>2021-04-01T09:26:59.224Z</time>
      </trkpt>
      <trkpt lat="43.1370715" lon="-2.8000973">
        <ele>182.831</ele>
        <time>2021-04-01T09:26:59.279Z</time>
      </trkpt>
      <trkpt lat="43.137072" lon="-2.8000997">
        <ele>182.889</ele>
        <time>2021-04-01T09:26:59.334Z</time>
      </trkpt>
      <trkpt lat="43.1370722" lon="-2.800102">
        <ele>182.901</ele>
        <time>2021-04-01T09:26:59.389Z</time>
      </trkpt>
      <trkpt lat="43.1370727" lon="-2.8001039">
        <ele>182.89</ele>
        <time>2021-04-01T09:26:59.444Z</time>
      </trkpt>
      <trkpt lat="43.1370729" lon="-2.8001063">
        <ele>182.903</ele>
        <time>2021-04-01T09:26:59.499Z</time>
      </trkpt>
      <trkpt lat="43.1370733" lon="-2.8001086">
        <ele>182.942</ele>
        <time>2021-04-01T09:26:59.554Z</time>
      </trkpt>
      <trkpt lat="43.1370736" lon="-2.8001107">
        <ele>182.938</ele>
        <time>2021-04-01T09:26:59.609Z</time>
      </trkpt>
      <trkpt lat="43.1370738" lon="-2.8001129">
        <ele>182.965</ele>
        <time>2021-04-01T09:26:59.664Z</time>
      </trkpt>
      <trkpt lat="43.137074" lon="-2.8001156">
        <ele>182.985</ele>
        <time>2021-04-01T09:26:59.719Z</time>
      </trkpt>
      <trkpt lat="43.137074" lon="-2.800118">
        <ele>183.04</ele>
        <time>2021-04-01T09:26:59.774Z</time>
      </trkpt>
      <trkpt lat="43.1370744" lon="-2.8001201">
        <ele>183.048</ele>
        <time>2021-04-01T09:26:59.829Z</time>
      </trkpt>
      <trkpt lat="43.1370745" lon="-2.8001226">
        <ele>183.054</ele>
        <time>2021-04-01T09:26:59.884Z</time>
      </trkpt>
      <trkpt lat="43.1370747" lon="-2.8001249">
        <ele>183.069</ele>
        <time>2021-04-01T09:26:59.939Z</time>
      </trkpt>
      <trkpt lat="43.1370752" lon="-2.800127">
        <ele>183.08</ele>
        <time>2021-04-01T09:26:59.994Z</time>
      </trkpt>
      <trkpt lat="43.1370756" lon="-2.800129">
        <ele>183.093</ele>
        <time>2021-04-01T09:27:00.049Z</time>
      </trkpt>
      <trkpt lat="43.1370761" lon="-2.8001311">
        <ele>183.096</ele>
        <time>2021-04-01T09:27:00.104Z</time>
      </trkpt>
      <trkpt lat="43.1370765" lon="-2.8001332">
        <ele>183.089</ele>
        <time>2021-04-01T09:27:00.159Z</time>
      </trkpt>
      <trkpt lat="43.1370768" lon="-2.8001357">
        <ele>183.117</ele>
        <time>2021-04-01T09:27:00.214Z</time>
      </trkpt>
      <trkpt lat="43.1370772" lon="-2.8001377">
        <ele>183.121</ele>
        <time>2021-04-01T09:27:00.269Z</time>
      </trkpt>
      <trkpt lat="43.1370777" lon="-2.8001397">
        <ele>183.104</ele>
        <time>2021-04-01T09:27:00.324Z</time>
      </trkpt>
      <trkpt lat="43.137078" lon="-2.800142">
        <ele>183.097</ele>
        <time>2021-04-01T09:27:00.379Z</time>
      </trkpt>
      <trkpt lat="43.1370785" lon="-2.800144">
        <ele>183.071</ele>
        <time>2021-04-01T09:27:00.434Z</time>
      </trkpt>
      <trkpt lat="43.137079" lon="-2.8001462">
        <ele>183.085</ele>
        <time>2021-04-01T09:27:00.489Z</time>
      </trkpt>
      <trkpt lat="43.1370793" lon="-2.8001484">
        <ele>183.078</ele>
        <time>2021-04-01T09:27:00.541Z</time>
      </trkpt>
      <trkpt lat="43.1370797" lon="-2.8001507">
        <ele>183.082</ele>
        <time>2021-04-01T09:27:00.593Z</time>
      </trkpt>
      <trkpt lat="43.1370802" lon="-2.800153">
        <ele>183.094</ele>
        <time>2021-04-01T09:27:00.645Z</time>
      </trkpt>
      <trkpt lat="43.1370806" lon="-2.8001548">
        <ele>183.079</ele>
        <time>2021-04-01T09:27:00.697Z</time>
      </trkpt>
      <trkpt lat="43.1370812" lon="-2.800157">
        <ele>183.084</ele>
        <time>2021-04-01T09:27:00.749Z</time>
      </trkpt>
      <trkpt lat="43.1370816" lon="-2.8001591">
        <ele>183.065</ele>
        <time>2021-04-01T09:27:00.801Z</time>
      </trkpt>
      <trkpt lat="43.137082" lon="-2.8001611">
        <ele>183.062</ele>
        <time>2021-04-01T09:27:00.853Z</time>
      </trkpt>
      <trkpt lat="43.1370824" lon="-2.8001631">
        <ele>183.061</ele>
        <time>2021-04-01T09:27:00.905Z</time>
      </trkpt>
      <trkpt lat="43.137083" lon="-2.8001652">
        <ele>183.056</ele>
        <time>2021-04-01T09:27:00.957Z</time>
      </trkpt>
      <trkpt lat="43.1370836" lon="-2.8001672">
        <ele>183.043</ele>
        <time>2021-04-01T09:27:01.010Z</time>
      </trkpt>
      <trkpt lat="43.1370842" lon="-2.8001691">
        <ele>183.047</ele>
        <time>2021-04-01T09:27:01.062Z</time>
      </trkpt>
      <trkpt lat="43.1370847" lon="-2.8001712">
        <ele>183.026</ele>
        <time>2021-04-01T09:27:01.114Z</time>
      </trkpt>
      <trkpt lat="43.137085" lon="-2.8001736">
        <ele>183.025</ele>
        <time>2021-04-01T09:27:01.166Z</time>
      </trkpt>
      <trkpt lat="43.1370856" lon="-2.8001758">
        <ele>183.044</ele>
        <time>2021-04-01T09:27:01.218Z</time>
      </trkpt>
      <trkpt lat="43.1370862" lon="-2.8001776">
        <ele>183.019</ele>
        <time>2021-04-01T09:27:01.270Z</time>
      </trkpt>
      <trkpt lat="43.1370866" lon="-2.8001798">
        <ele>183.012</ele>
        <time>2021-04-01T09:27:01.322Z</time>
      </trkpt>
      <trkpt lat="43.1370872" lon="-2.8001816">
        <ele>182.966</ele>
        <time>2021-04-01T09:27:01.374Z</time>
      </trkpt>
      <trkpt lat="43.1370876" lon="-2.8001837">
        <ele>182.977</ele>
        <time>2021-04-01T09:27:01.426Z</time>
      </trkpt>
      <trkpt lat="43.137088" lon="-2.8001855">
        <ele>182.955</ele>
        <time>2021-04-01T09:27:01.479Z</time>
      </trkpt>
      <trkpt lat="43.1370885" lon="-2.8001876">
        <ele>182.936</ele>
        <time>2021-04-01T09:27:01.534Z</time>
      </trkpt>
      <trkpt lat="43.1370891" lon="-2.8001895">
        <ele>182.902</ele>
        <time>2021-04-01T09:27:01.589Z</time>
      </trkpt>
      <trkpt lat="43.1370892" lon="-2.8001921">
        <ele>182.926</ele>
        <time>2021-04-01T09:27:01.644Z</time>
      </trkpt>
      <trkpt lat="43.1370895" lon="-2.8001942">
        <ele>182.944</ele>
        <time>2021-04-01T09:27:01.699Z</time>
      </trkpt>
      <trkpt lat="43.1370902" lon="-2.800196">
        <ele>182.933</ele>
        <time>2021-04-01T09:27:01.754Z</time>
      </trkpt>
      <trkpt lat="43.1370905" lon="-2.8001981">
        <ele>182.933</ele>
        <time>2021-04-01T09:27:01.809Z</time>
      </trkpt>
      <trkpt lat="43.1370911" lon="-2.8002001">
        <ele>182.922</ele>
        <time>2021-04-01T09:27:01.864Z</time>
      </trkpt>
      <trkpt lat="43.1370917" lon="-2.8002023">
        <ele>182.906</ele>
        <time>2021-04-01T09:27:01.919Z</time>
      </trkpt>
      <trkpt lat="43.1370922" lon="-2.8002045">
        <ele>182.9</ele>
        <time>2021-04-01T09:27:01.974Z</time>
      </trkpt>
      <trkpt lat="43.1370926" lon="-2.8002068">
        <ele>182.932</ele>
        <time>2021-04-01T09:27:02.029Z</time>
      </trkpt>
      <trkpt lat="43.1370929" lon="-2.800209">
        <ele>182.958</ele>
        <time>2021-04-01T09:27:02.084Z</time>
      </trkpt>
      <trkpt lat="43.1370933" lon="-2.8002111">
        <ele>182.936</ele>
        <time>2021-04-01T09:27:02.139Z</time>
      </trkpt>
      <trkpt lat="43.1370939" lon="-2.8002132">
        <ele>182.928</ele>
        <time>2021-04-01T09:27:02.194Z</time>
      </trkpt>
      <trkpt lat="43.1370942" lon="-2.8002156">
        <ele>182.946</ele>
        <time>2021-04-01T09:27:02.249Z</time>
      </trkpt>
      <trkpt lat="43.1370945" lon="-2.8002181">
        <ele>182.98</ele>
        <time>2021-04-01T09:27:02.304Z</time>
      </trkpt>
      <trkpt lat="43.1370948" lon="-2.8002205">
        <ele>182.975</ele>
        <time>2021-04-01T09:27:02.359Z</time>
      </trkpt>
      <trkpt lat="43.1370952" lon="-2.8002228">
        <ele>182.957</ele>
        <time>2021-04-01T09:27:02.414Z</time>
      </trkpt>
      <trkpt lat="43.1370957" lon="-2.8002246">
        <ele>182.944</ele>
        <time>2021-04-01T09:27:02.469Z</time>
      </trkpt>
      <trkpt lat="43.1370963" lon="-2.8002268">
        <ele>182.969</ele>
        <time>2021-04-01T09:27:02.530Z</time>
      </trkpt>
      <trkpt lat="43.1370969" lon="-2.800229">
        <ele>182.971</ele>
        <time>2021-04-01T09:27:02.591Z</time>
      </trkpt>
      <trkpt lat="43.1370971" lon="-2.8002313">
        <ele>182.958</ele>
        <time>2021-04-01T09:27:02.653Z</time>
      </trkpt>
      <trkpt lat="43.1370978" lon="-2.8002334">
        <ele>182.959</ele>
        <time>2021-04-01T09:27:02.714Z</time>
      </trkpt>
      <trkpt lat="43.1370979" lon="-2.8002361">
        <ele>183.003</ele>
        <time>2021-04-01T09:27:02.776Z</time>
      </trkpt>
      <trkpt lat="43.1370979" lon="-2.8002383">
        <ele>182.977</ele>
        <time>2021-04-01T09:27:02.837Z</time>
      </trkpt>
      <trkpt lat="43.1370979" lon="-2.8002402">
        <ele>182.934</ele>
        <time>2021-04-01T09:27:02.899Z</time>
      </trkpt>
      <trkpt lat="43.1370983" lon="-2.800242">
        <ele>182.885</ele>
        <time>2021-04-01T09:27:02.960Z</time>
      </trkpt>
      <trkpt lat="43.1370987" lon="-2.800244">
        <ele>182.874</ele>
        <time>2021-04-01T09:27:03.022Z</time>
      </trkpt>
      <trkpt lat="43.1370989" lon="-2.8002461">
        <ele>182.874</ele>
        <time>2021-04-01T09:27:03.083Z</time>
      </trkpt>
      <trkpt lat="43.1370992" lon="-2.8002477">
        <ele>182.807</ele>
        <time>2021-04-01T09:27:03.145Z</time>
      </trkpt>
      <trkpt lat="43.1370994" lon="-2.8002495">
        <ele>182.756</ele>
        <time>2021-04-01T09:27:03.206Z</time>
      </trkpt>
      <trkpt lat="43.1370994" lon="-2.8002515">
        <ele>182.722</ele>
        <time>2021-04-01T09:27:03.268Z</time>
      </trkpt>
      <trkpt lat="43.1370987" lon="-2.8002523">
        <ele>182.551</ele>
        <time>2021-04-01T09:27:03.329Z</time>
      </trkpt>
      <trkpt lat="43.1370992" lon="-2.8002539">
        <ele>182.491</ele>
        <time>2021-04-01T09:27:03.391Z</time>
      </trkpt>
      <trkpt lat="43.1370998" lon="-2.8002558">
        <ele>182.469</ele>
        <time>2021-04-01T09:27:03.452Z</time>
      </trkpt>
      <trkpt lat="43.1371002" lon="-2.8002579">
        <ele>182.457</ele>
        <time>2021-04-01T09:27:03.514Z</time>
      </trkpt>
      <trkpt lat="43.1371001" lon="-2.8002605">
        <ele>182.482</ele>
        <time>2021-04-01T09:27:03.566Z</time>
      </trkpt>
      <trkpt lat="43.1371003" lon="-2.8002628">
        <ele>182.496</ele>
        <time>2021-04-01T09:27:03.618Z</time>
      </trkpt>
      <trkpt lat="43.1371004" lon="-2.8002653">
        <ele>182.505</ele>
        <time>2021-04-01T09:27:03.670Z</time>
      </trkpt>
      <trkpt lat="43.1371008" lon="-2.8002676">
        <ele>182.503</ele>
        <time>2021-04-01T09:27:03.722Z</time>
      </trkpt>
      <trkpt lat="43.137101" lon="-2.8002701">
        <ele>182.517</ele>
        <time>2021-04-01T09:27:03.774Z</time>
      </trkpt>
      <trkpt lat="43.1371012" lon="-2.800272">
        <ele>182.525</ele>
        <time>2021-04-01T09:27:03.826Z</time>
      </trkpt>
      <trkpt lat="43.1371015" lon="-2.8002743">
        <ele>182.518</ele>
        <time>2021-04-01T09:27:03.878Z</time>
      </trkpt>
      <trkpt lat="43.1371021" lon="-2.8002763">
        <ele>182.486</ele>
        <time>2021-04-01T09:27:03.930Z</time>
      </trkpt>
      <trkpt lat="43.1371024" lon="-2.8002786">
        <ele>182.489</ele>
        <time>2021-04-01T09:27:03.982Z</time>
      </trkpt>
      <trkpt lat="43.1371023" lon="-2.8002807">
        <ele>182.501</ele>
        <time>2021-04-01T09:27:04.035Z</time>
      </trkpt>
      <trkpt lat="43.1371028" lon="-2.800283">
        <ele>182.507</ele>
        <time>2021-04-01T09:27:04.087Z</time>
      </trkpt>
      <trkpt lat="43.1371033" lon="-2.8002853">
        <ele>182.512</ele>
        <time>2021-04-01T09:27:04.139Z</time>
      </trkpt>
      <trkpt lat="43.1371037" lon="-2.8002878">
        <ele>182.519</ele>
        <time>2021-04-01T09:27:04.191Z</time>
      </trkpt>
      <trkpt lat="43.1371041" lon="-2.8002898">
        <ele>182.521</ele>
        <time>2021-04-01T09:27:04.243Z</time>
      </trkpt>
      <trkpt lat="43.1371046" lon="-2.8002917">
        <ele>182.51</ele>
        <time>2021-04-01T09:27:04.295Z</time>
      </trkpt>
      <trkpt lat="43.137105" lon="-2.800294">
        <ele>182.537</ele>
        <time>2021-04-01T09:27:04.347Z</time>
      </trkpt>
      <trkpt lat="43.1371053" lon="-2.8002964">
        <ele>182.526</ele>
        <time>2021-04-01T09:27:04.399Z</time>
      </trkpt>
      <trkpt lat="43.1371055" lon="-2.800299">
        <ele>182.553</ele>
        <time>2021-04-01T09:27:04.451Z</time>
      </trkpt>
      <trkpt lat="43.1371061" lon="-2.8003009">
        <ele>182.57</ele>
        <time>2021-04-01T09:27:04.504Z</time>
      </trkpt>
      <trkpt lat="43.1371067" lon="-2.800303">
        <ele>182.589</ele>
        <time>2021-04-01T09:27:04.559Z</time>
      </trkpt>
      <trkpt lat="43.1371071" lon="-2.8003048">
        <ele>182.547</ele>
        <time>2021-04-01T09:27:04.614Z</time>
      </trkpt>
      <trkpt lat="43.1371074" lon="-2.8003069">
        <ele>182.539</ele>
        <time>2021-04-01T09:27:04.669Z</time>
      </trkpt>
      <trkpt lat="43.1371076" lon="-2.8003093">
        <ele>182.537</ele>
        <time>2021-04-01T09:27:04.724Z</time>
      </trkpt>
      <trkpt lat="43.1371079" lon="-2.8003114">
        <ele>182.548</ele>
        <time>2021-04-01T09:27:04.779Z</time>
      </trkpt>
      <trkpt lat="43.1371083" lon="-2.8003135">
        <ele>182.535</ele>
        <time>2021-04-01T09:27:04.834Z</time>
      </trkpt>
      <trkpt lat="43.1371089" lon="-2.8003156">
        <ele>182.522</ele>
        <time>2021-04-01T09:27:04.889Z</time>
      </trkpt>
      <trkpt lat="43.1371097" lon="-2.8003179">
        <ele>182.537</ele>
        <time>2021-04-01T09:27:04.944Z</time>
      </trkpt>
      <trkpt lat="43.1371102" lon="-2.8003201">
        <ele>182.552</ele>
        <time>2021-04-01T09:27:04.999Z</time>
      </trkpt>
      <trkpt lat="43.1371105" lon="-2.8003222">
        <ele>182.548</ele>
        <time>2021-04-01T09:27:05.054Z</time>
      </trkpt>
      <trkpt lat="43.1371108" lon="-2.8003242">
        <ele>182.523</ele>
        <time>2021-04-01T09:27:05.109Z</time>
      </trkpt>
      <trkpt lat="43.1371113" lon="-2.8003261">
        <ele>182.502</ele>
        <time>2021-04-01T09:27:05.164Z</time>
      </trkpt>
      <trkpt lat="43.1371119" lon="-2.8003282">
        <ele>182.512</ele>
        <time>2021-04-01T09:27:05.219Z</time>
      </trkpt>
      <trkpt lat="43.137112" lon="-2.8003305">
        <ele>182.525</ele>
        <time>2021-04-01T09:27:05.274Z</time>
      </trkpt>
      <trkpt lat="43.1371122" lon="-2.8003331">
        <ele>182.556</ele>
        <time>2021-04-01T09:27:05.329Z</time>
      </trkpt>
      <trkpt lat="43.1371125" lon="-2.8003354">
        <ele>182.551</ele>
        <time>2021-04-01T09:27:05.384Z</time>
      </trkpt>
      <trkpt lat="43.137113" lon="-2.8003373">
        <ele>182.528</ele>
        <time>2021-04-01T09:27:05.439Z</time>
      </trkpt>
      <trkpt lat="43.1371134" lon="-2.8003391">
        <ele>182.489</ele>
        <time>2021-04-01T09:27:05.494Z</time>
      </trkpt>
      <trkpt lat="43.1371137" lon="-2.8003416">
        <ele>182.519</ele>
        <time>2021-04-01T09:27:05.549Z</time>
      </trkpt>
      <trkpt lat="43.1371142" lon="-2.8003439">
        <ele>182.504</ele>
        <time>2021-04-01T09:27:05.604Z</time>
      </trkpt>
      <trkpt lat="43.1371144" lon="-2.8003461">
        <ele>182.527</ele>
        <time>2021-04-01T09:27:05.659Z</time>
      </trkpt>
      <trkpt lat="43.1371148" lon="-2.8003484">
        <ele>182.53</ele>
        <time>2021-04-01T09:27:05.714Z</time>
      </trkpt>
      <trkpt lat="43.1371151" lon="-2.800351">
        <ele>182.586</ele>
        <time>2021-04-01T09:27:05.769Z</time>
      </trkpt>
      <trkpt lat="43.1371153" lon="-2.8003536">
        <ele>182.615</ele>
        <time>2021-04-01T09:27:05.824Z</time>
      </trkpt>
      <trkpt lat="43.1371156" lon="-2.800356">
        <ele>182.641</ele>
        <time>2021-04-01T09:27:05.879Z</time>
      </trkpt>
      <trkpt lat="43.1371158" lon="-2.8003584">
        <ele>182.683</ele>
        <time>2021-04-01T09:27:05.934Z</time>
      </trkpt>
      <trkpt lat="43.137116" lon="-2.8003609">
        <ele>182.723</ele>
        <time>2021-04-01T09:27:05.989Z</time>
      </trkpt>
      <trkpt lat="43.1371165" lon="-2.8003631">
        <ele>182.722</ele>
        <time>2021-04-01T09:27:06.044Z</time>
      </trkpt>
      <trkpt lat="43.1371168" lon="-2.8003653">
        <ele>182.713</ele>
        <time>2021-04-01T09:27:06.099Z</time>
      </trkpt>
      <trkpt lat="43.137117" lon="-2.8003676">
        <ele>182.715</ele>
        <time>2021-04-01T09:27:06.154Z</time>
      </trkpt>
      <trkpt lat="43.1371175" lon="-2.8003704">
        <ele>182.758</ele>
        <time>2021-04-01T09:27:06.209Z</time>
      </trkpt>
      <trkpt lat="43.1371177" lon="-2.8003723">
        <ele>182.769</ele>
        <time>2021-04-01T09:27:06.264Z</time>
      </trkpt>
      <trkpt lat="43.1371181" lon="-2.8003739">
        <ele>182.678</ele>
        <time>2021-04-01T09:27:06.319Z</time>
      </trkpt>
      <trkpt lat="43.1371182" lon="-2.8003767">
        <ele>182.691</ele>
        <time>2021-04-01T09:27:06.374Z</time>
      </trkpt>
      <trkpt lat="43.1371187" lon="-2.8003787">
        <ele>182.677</ele>
        <time>2021-04-01T09:27:06.429Z</time>
      </trkpt>
      <trkpt lat="43.1371187" lon="-2.8003806">
        <ele>182.65</ele>
        <time>2021-04-01T09:27:06.484Z</time>
      </trkpt>
      <trkpt lat="43.1371187" lon="-2.8003831">
        <ele>182.671</ele>
        <time>2021-04-01T09:27:06.539Z</time>
      </trkpt>
      <trkpt lat="43.1371191" lon="-2.800385">
        <ele>182.627</ele>
        <time>2021-04-01T09:27:06.594Z</time>
      </trkpt>
      <trkpt lat="43.1371194" lon="-2.8003871">
        <ele>182.628</ele>
        <time>2021-04-01T09:27:06.649Z</time>
      </trkpt>
      <trkpt lat="43.1371197" lon="-2.8003891">
        <ele>182.625</ele>
        <time>2021-04-01T09:27:06.704Z</time>
      </trkpt>
      <trkpt lat="43.13712" lon="-2.8003914">
        <ele>182.608</ele>
        <time>2021-04-01T09:27:06.759Z</time>
      </trkpt>
      <trkpt lat="43.1371204" lon="-2.8003935">
        <ele>182.599</ele>
        <time>2021-04-01T09:27:06.814Z</time>
      </trkpt>
      <trkpt lat="43.1371207" lon="-2.8003959">
        <ele>182.648</ele>
        <time>2021-04-01T09:27:06.869Z</time>
      </trkpt>
      <trkpt lat="43.1371208" lon="-2.8003986">
        <ele>182.68</ele>
        <time>2021-04-01T09:27:06.924Z</time>
      </trkpt>
      <trkpt lat="43.1371215" lon="-2.8004014">
        <ele>182.741</ele>
        <time>2021-04-01T09:27:06.979Z</time>
      </trkpt>
      <trkpt lat="43.137122" lon="-2.8004038">
        <ele>182.764</ele>
        <time>2021-04-01T09:27:07.034Z</time>
      </trkpt>
      <trkpt lat="43.1371224" lon="-2.8004062">
        <ele>182.79</ele>
        <time>2021-04-01T09:27:07.089Z</time>
      </trkpt>
      <trkpt lat="43.1371222" lon="-2.8004077">
        <ele>182.711</ele>
        <time>2021-04-01T09:27:07.144Z</time>
      </trkpt>
      <trkpt lat="43.1371222" lon="-2.8004102">
        <ele>182.707</ele>
        <time>2021-04-01T09:27:07.199Z</time>
      </trkpt>
      <trkpt lat="43.1371223" lon="-2.8004123">
        <ele>182.703</ele>
        <time>2021-04-01T09:27:07.254Z</time>
      </trkpt>
      <trkpt lat="43.1371223" lon="-2.8004145">
        <ele>182.688</ele>
        <time>2021-04-01T09:27:07.309Z</time>
      </trkpt>
      <trkpt lat="43.1371225" lon="-2.8004165">
        <ele>182.666</ele>
        <time>2021-04-01T09:27:07.364Z</time>
      </trkpt>
      <trkpt lat="43.1371226" lon="-2.8004183">
        <ele>182.629</ele>
        <time>2021-04-01T09:27:07.419Z</time>
      </trkpt>
      <trkpt lat="43.1371231" lon="-2.80042">
        <ele>182.589</ele>
        <time>2021-04-01T09:27:07.474Z</time>
      </trkpt>
      <trkpt lat="43.1371235" lon="-2.8004221">
        <ele>182.546</ele>
        <time>2021-04-01T09:27:07.529Z</time>
      </trkpt>
      <trkpt lat="43.1371237" lon="-2.8004239">
        <ele>182.507</ele>
        <time>2021-04-01T09:27:07.584Z</time>
      </trkpt>
      <trkpt lat="43.1371238" lon="-2.8004259">
        <ele>182.477</ele>
        <time>2021-04-01T09:27:07.639Z</time>
      </trkpt>
      <trkpt lat="43.1371239" lon="-2.8004284">
        <ele>182.499</ele>
        <time>2021-04-01T09:27:07.694Z</time>
      </trkpt>
      <trkpt lat="43.1371239" lon="-2.800431">
        <ele>182.506</ele>
        <time>2021-04-01T09:27:07.749Z</time>
      </trkpt>
      <trkpt lat="43.1371244" lon="-2.8004337">
        <ele>182.52</ele>
        <time>2021-04-01T09:27:07.804Z</time>
      </trkpt>
      <trkpt lat="43.1371247" lon="-2.8004361">
        <ele>182.564</ele>
        <time>2021-04-01T09:27:07.859Z</time>
      </trkpt>
      <trkpt lat="43.1371249" lon="-2.8004386">
        <ele>182.612</ele>
        <time>2021-04-01T09:27:07.914Z</time>
      </trkpt>
      <trkpt lat="43.1371253" lon="-2.8004412">
        <ele>182.623</ele>
        <time>2021-04-01T09:27:07.969Z</time>
      </trkpt>
      <trkpt lat="43.1371259" lon="-2.8004434">
        <ele>182.664</ele>
        <time>2021-04-01T09:27:08.024Z</time>
      </trkpt>
      <trkpt lat="43.1371266" lon="-2.8004456">
        <ele>182.662</ele>
        <time>2021-04-01T09:27:08.079Z</time>
      </trkpt>
      <trkpt lat="43.1371269" lon="-2.800448">
        <ele>182.668</ele>
        <time>2021-04-01T09:27:08.134Z</time>
      </trkpt>
      <trkpt lat="43.1371271" lon="-2.8004504">
        <ele>182.691</ele>
        <time>2021-04-01T09:27:08.189Z</time>
      </trkpt>
      <trkpt lat="43.1371277" lon="-2.8004526">
        <ele>182.708</ele>
        <time>2021-04-01T09:27:08.244Z</time>
      </trkpt>
      <trkpt lat="43.1371288" lon="-2.8004547">
        <ele>182.707</ele>
        <time>2021-04-01T09:27:08.299Z</time>
      </trkpt>
      <trkpt lat="43.1371293" lon="-2.800457">
        <ele>182.725</ele>
        <time>2021-04-01T09:27:08.354Z</time>
      </trkpt>
      <trkpt lat="43.1371295" lon="-2.8004594">
        <ele>182.764</ele>
        <time>2021-04-01T09:27:08.409Z</time>
      </trkpt>
      <trkpt lat="43.1371299" lon="-2.8004615">
        <ele>182.764</ele>
        <time>2021-04-01T09:27:08.464Z</time>
      </trkpt>
      <trkpt lat="43.1371302" lon="-2.800464">
        <ele>182.771</ele>
        <time>2021-04-01T09:27:08.519Z</time>
      </trkpt>
      <trkpt lat="43.1371305" lon="-2.8004665">
        <ele>182.766</ele>
        <time>2021-04-01T09:27:08.574Z</time>
      </trkpt>
      <trkpt lat="43.1371307" lon="-2.8004686">
        <ele>182.76</ele>
        <time>2021-04-01T09:27:08.629Z</time>
      </trkpt>
      <trkpt lat="43.1371309" lon="-2.8004708">
        <ele>182.764</ele>
        <time>2021-04-01T09:27:08.684Z</time>
      </trkpt>
      <trkpt lat="43.1371314" lon="-2.8004731">
        <ele>182.75</ele>
        <time>2021-04-01T09:27:08.739Z</time>
      </trkpt>
      <trkpt lat="43.1371315" lon="-2.800476">
        <ele>182.8</ele>
        <time>2021-04-01T09:27:08.794Z</time>
      </trkpt>
      <trkpt lat="43.137132" lon="-2.8004786">
        <ele>182.829</ele>
        <time>2021-04-01T09:27:08.849Z</time>
      </trkpt>
      <trkpt lat="43.1371324" lon="-2.8004808">
        <ele>182.858</ele>
        <time>2021-04-01T09:27:08.904Z</time>
      </trkpt>
      <trkpt lat="43.1371326" lon="-2.8004831">
        <ele>182.864</ele>
        <time>2021-04-01T09:27:08.959Z</time>
      </trkpt>
      <trkpt lat="43.1371331" lon="-2.8004859">
        <ele>182.899</ele>
        <time>2021-04-01T09:27:09.014Z</time>
      </trkpt>
      <trkpt lat="43.1371337" lon="-2.8004879">
        <ele>182.889</ele>
        <time>2021-04-01T09:27:09.069Z</time>
      </trkpt>
      <trkpt lat="43.1371338" lon="-2.8004901">
        <ele>182.903</ele>
        <time>2021-04-01T09:27:09.124Z</time>
      </trkpt>
      <trkpt lat="43.1371339" lon="-2.8004925">
        <ele>182.919</ele>
        <time>2021-04-01T09:27:09.179Z</time>
      </trkpt>
      <trkpt lat="43.1371339" lon="-2.8004949">
        <ele>182.996</ele>
        <time>2021-04-01T09:27:09.234Z</time>
      </trkpt>
      <trkpt lat="43.1371342" lon="-2.8004973">
        <ele>182.992</ele>
        <time>2021-04-01T09:27:09.289Z</time>
      </trkpt>
      <trkpt lat="43.1371345" lon="-2.8004999">
        <ele>183.006</ele>
        <time>2021-04-01T09:27:09.344Z</time>
      </trkpt>
      <trkpt lat="43.137135" lon="-2.8005021">
        <ele>183.024</ele>
        <time>2021-04-01T09:27:09.399Z</time>
      </trkpt>
      <trkpt lat="43.1371355" lon="-2.8005041">
        <ele>183.034</ele>
        <time>2021-04-01T09:27:09.454Z</time>
      </trkpt>
      <trkpt lat="43.137136" lon="-2.800506">
        <ele>183.02</ele>
        <time>2021-04-01T09:27:09.509Z</time>
      </trkpt>
      <trkpt lat="43.1371365" lon="-2.8005079">
        <ele>182.977</ele>
        <time>2021-04-01T09:27:09.564Z</time>
      </trkpt>
      <trkpt lat="43.1371368" lon="-2.8005102">
        <ele>182.964</ele>
        <time>2021-04-01T09:27:09.619Z</time>
      </trkpt>
      <trkpt lat="43.1371371" lon="-2.8005122">
        <ele>182.996</ele>
        <time>2021-04-01T09:27:09.674Z</time>
      </trkpt>
      <trkpt lat="43.1371373" lon="-2.8005144">
        <ele>182.995</ele>
        <time>2021-04-01T09:27:09.729Z</time>
      </trkpt>
      <trkpt lat="43.1371376" lon="-2.8005169">
        <ele>182.982</ele>
        <time>2021-04-01T09:27:09.784Z</time>
      </trkpt>
      <trkpt lat="43.137138" lon="-2.8005197">
        <ele>183.02</ele>
        <time>2021-04-01T09:27:09.839Z</time>
      </trkpt>
      <trkpt lat="43.1371384" lon="-2.8005219">
        <ele>183.075</ele>
        <time>2021-04-01T09:27:09.894Z</time>
      </trkpt>
      <trkpt lat="43.1371388" lon="-2.8005244">
        <ele>183.088</ele>
        <time>2021-04-01T09:27:09.949Z</time>
      </trkpt>
      <trkpt lat="43.1371391" lon="-2.8005267">
        <ele>183.082</ele>
        <time>2021-04-01T09:27:10.004Z</time>
      </trkpt>
      <trkpt lat="43.1371397" lon="-2.8005292">
        <ele>183.08</ele>
        <time>2021-04-01T09:27:10.059Z</time>
      </trkpt>
      <trkpt lat="43.1371399" lon="-2.8005313">
        <ele>183.06</ele>
        <time>2021-04-01T09:27:10.114Z</time>
      </trkpt>
      <trkpt lat="43.1371401" lon="-2.8005337">
        <ele>183.079</ele>
        <time>2021-04-01T09:27:10.169Z</time>
      </trkpt>
      <trkpt lat="43.1371403" lon="-2.8005364">
        <ele>183.083</ele>
        <time>2021-04-01T09:27:10.224Z</time>
      </trkpt>
      <trkpt lat="43.1371408" lon="-2.8005386">
        <ele>183.064</ele>
        <time>2021-04-01T09:27:10.279Z</time>
      </trkpt>
      <trkpt lat="43.1371411" lon="-2.8005406">
        <ele>183.062</ele>
        <time>2021-04-01T09:27:10.334Z</time>
      </trkpt>
      <trkpt lat="43.1371414" lon="-2.8005428">
        <ele>183.073</ele>
        <time>2021-04-01T09:27:10.389Z</time>
      </trkpt>
      <trkpt lat="43.1371419" lon="-2.8005454">
        <ele>183.095</ele>
        <time>2021-04-01T09:27:10.444Z</time>
      </trkpt>
      <trkpt lat="43.1371423" lon="-2.8005475">
        <ele>183.13</ele>
        <time>2021-04-01T09:27:10.499Z</time>
      </trkpt>
      <trkpt lat="43.1371427" lon="-2.8005495">
        <ele>183.083</ele>
        <time>2021-04-01T09:27:10.554Z</time>
      </trkpt>
      <trkpt lat="43.1371431" lon="-2.8005514">
        <ele>183.045</ele>
        <time>2021-04-01T09:27:10.609Z</time>
      </trkpt>
      <trkpt lat="43.1371434" lon="-2.8005539">
        <ele>183.056</ele>
        <time>2021-04-01T09:27:10.664Z</time>
      </trkpt>
      <trkpt lat="43.1371437" lon="-2.800556">
        <ele>183.023</ele>
        <time>2021-04-01T09:27:10.719Z</time>
      </trkpt>
      <trkpt lat="43.137144" lon="-2.8005581">
        <ele>183.01</ele>
        <time>2021-04-01T09:27:10.774Z</time>
      </trkpt>
      <trkpt lat="43.1371443" lon="-2.8005603">
        <ele>183.055</ele>
        <time>2021-04-01T09:27:10.829Z</time>
      </trkpt>
      <trkpt lat="43.1371447" lon="-2.800563">
        <ele>183.098</ele>
        <time>2021-04-01T09:27:10.884Z</time>
      </trkpt>
      <trkpt lat="43.1371452" lon="-2.8005655">
        <ele>183.132</ele>
        <time>2021-04-01T09:27:10.939Z</time>
      </trkpt>
      <trkpt lat="43.1371455" lon="-2.8005677">
        <ele>183.127</ele>
        <time>2021-04-01T09:27:10.994Z</time>
      </trkpt>
      <trkpt lat="43.137146" lon="-2.8005699">
        <ele>183.105</ele>
        <time>2021-04-01T09:27:11.049Z</time>
      </trkpt>
      <trkpt lat="43.1371463" lon="-2.800572">
        <ele>183.108</ele>
        <time>2021-04-01T09:27:11.104Z</time>
      </trkpt>
      <trkpt lat="43.1371467" lon="-2.8005741">
        <ele>183.124</ele>
        <time>2021-04-01T09:27:11.159Z</time>
      </trkpt>
      <trkpt lat="43.1371469" lon="-2.8005763">
        <ele>183.136</ele>
        <time>2021-04-01T09:27:11.214Z</time>
      </trkpt>
      <trkpt lat="43.1371472" lon="-2.800579">
        <ele>183.168</ele>
        <time>2021-04-01T09:27:11.269Z</time>
      </trkpt>
      <trkpt lat="43.1371475" lon="-2.8005816">
        <ele>183.209</ele>
        <time>2021-04-01T09:27:11.324Z</time>
      </trkpt>
      <trkpt lat="43.1371478" lon="-2.8005839">
        <ele>183.21</ele>
        <time>2021-04-01T09:27:11.379Z</time>
      </trkpt>
      <trkpt lat="43.1371482" lon="-2.8005861">
        <ele>183.213</ele>
        <time>2021-04-01T09:27:11.434Z</time>
      </trkpt>
      <trkpt lat="43.1371486" lon="-2.8005884">
        <ele>183.228</ele>
        <time>2021-04-01T09:27:11.489Z</time>
      </trkpt>
      <trkpt lat="43.1371488" lon="-2.8005906">
        <ele>183.24</ele>
        <time>2021-04-01T09:27:11.544Z</time>
      </trkpt>
      <trkpt lat="43.1371488" lon="-2.8005932">
        <ele>183.26</ele>
        <time>2021-04-01T09:27:11.599Z</time>
      </trkpt>
      <trkpt lat="43.137149" lon="-2.8005954">
        <ele>183.27</ele>
        <time>2021-04-01T09:27:11.654Z</time>
      </trkpt>
      <trkpt lat="43.1371491" lon="-2.8005975">
        <ele>183.282</ele>
        <time>2021-04-01T09:27:11.709Z</time>
      </trkpt>
      <trkpt lat="43.1371492" lon="-2.8005997">
        <ele>183.291</ele>
        <time>2021-04-01T09:27:11.764Z</time>
      </trkpt>
      <trkpt lat="43.1371495" lon="-2.800602">
        <ele>183.303</ele>
        <time>2021-04-01T09:27:11.819Z</time>
      </trkpt>
      <trkpt lat="43.1371496" lon="-2.8006042">
        <ele>183.292</ele>
        <time>2021-04-01T09:27:11.874Z</time>
      </trkpt>
      <trkpt lat="43.1371495" lon="-2.8006062">
        <ele>183.312</ele>
        <time>2021-04-01T09:27:11.929Z</time>
      </trkpt>
      <trkpt lat="43.1371496" lon="-2.8006093">
        <ele>183.362</ele>
        <time>2021-04-01T09:27:11.984Z</time>
      </trkpt>
      <trkpt lat="43.1371496" lon="-2.8006119">
        <ele>183.373</ele>
        <time>2021-04-01T09:27:12.039Z</time>
      </trkpt>
      <trkpt lat="43.1371499" lon="-2.8006143">
        <ele>183.393</ele>
        <time>2021-04-01T09:27:12.094Z</time>
      </trkpt>
      <trkpt lat="43.1371499" lon="-2.8006168">
        <ele>183.422</ele>
        <time>2021-04-01T09:27:12.149Z</time>
      </trkpt>
      <trkpt lat="43.1371498" lon="-2.8006196">
        <ele>183.449</ele>
        <time>2021-04-01T09:27:12.204Z</time>
      </trkpt>
      <trkpt lat="43.1371496" lon="-2.800622">
        <ele>183.476</ele>
        <time>2021-04-01T09:27:12.259Z</time>
      </trkpt>
      <trkpt lat="43.1371496" lon="-2.8006243">
        <ele>183.485</ele>
        <time>2021-04-01T09:27:12.314Z</time>
      </trkpt>
      <trkpt lat="43.1371498" lon="-2.8006268">
        <ele>183.498</ele>
        <time>2021-04-01T09:27:12.369Z</time>
      </trkpt>
      <trkpt lat="43.1371499" lon="-2.8006293">
        <ele>183.501</ele>
        <time>2021-04-01T09:27:12.424Z</time>
      </trkpt>
      <trkpt lat="43.1371498" lon="-2.8006316">
        <ele>183.507</ele>
        <time>2021-04-01T09:27:12.479Z</time>
      </trkpt>
      <trkpt lat="43.1371494" lon="-2.8006338">
        <ele>183.519</ele>
        <time>2021-04-01T09:27:12.534Z</time>
      </trkpt>
      <trkpt lat="43.1371494" lon="-2.8006362">
        <ele>183.499</ele>
        <time>2021-04-01T09:27:12.592Z</time>
      </trkpt>
      <trkpt lat="43.1371493" lon="-2.8006387">
        <ele>183.497</ele>
        <time>2021-04-01T09:27:12.650Z</time>
      </trkpt>
      <trkpt lat="43.1371493" lon="-2.8006408">
        <ele>183.464</ele>
        <time>2021-04-01T09:27:12.708Z</time>
      </trkpt>
      <trkpt lat="43.1371492" lon="-2.8006429">
        <ele>183.475</ele>
        <time>2021-04-01T09:27:12.766Z</time>
      </trkpt>
      <trkpt lat="43.1371493" lon="-2.8006451">
        <ele>183.459</ele>
        <time>2021-04-01T09:27:12.825Z</time>
      </trkpt>
      <trkpt lat="43.1371491" lon="-2.8006475">
        <ele>183.462</ele>
        <time>2021-04-01T09:27:12.883Z</time>
      </trkpt>
      <trkpt lat="43.1371489" lon="-2.8006498">
        <ele>183.438</ele>
        <time>2021-04-01T09:27:12.941Z</time>
      </trkpt>
      <trkpt lat="43.1371488" lon="-2.8006522">
        <ele>183.421</ele>
        <time>2021-04-01T09:27:12.999Z</time>
      </trkpt>
      <trkpt lat="43.137149" lon="-2.8006545">
        <ele>183.41</ele>
        <time>2021-04-01T09:27:13.058Z</time>
      </trkpt>
      <trkpt lat="43.1371491" lon="-2.8006565">
        <ele>183.387</ele>
        <time>2021-04-01T09:27:13.116Z</time>
      </trkpt>
      <trkpt lat="43.1371487" lon="-2.8006591">
        <ele>183.427</ele>
        <time>2021-04-01T09:27:13.174Z</time>
      </trkpt>
      <trkpt lat="43.1371485" lon="-2.8006615">
        <ele>183.412</ele>
        <time>2021-04-01T09:27:13.232Z</time>
      </trkpt>
      <trkpt lat="43.1371484" lon="-2.8006639">
        <ele>183.411</ele>
        <time>2021-04-01T09:27:13.291Z</time>
      </trkpt>
      <trkpt lat="43.1371486" lon="-2.8006661">
        <ele>183.381</ele>
        <time>2021-04-01T09:27:13.349Z</time>
      </trkpt>
      <trkpt lat="43.1371483" lon="-2.8006682">
        <ele>183.354</ele>
        <time>2021-04-01T09:27:13.407Z</time>
      </trkpt>
      <trkpt lat="43.137148" lon="-2.8006702">
        <ele>183.344</ele>
        <time>2021-04-01T09:27:13.465Z</time>
      </trkpt>
      <trkpt lat="43.1371481" lon="-2.8006728">
        <ele>183.368</ele>
        <time>2021-04-01T09:27:13.524Z</time>
      </trkpt>
      <trkpt lat="43.1371481" lon="-2.800675">
        <ele>183.329</ele>
        <time>2021-04-01T09:27:13.576Z</time>
      </trkpt>
      <trkpt lat="43.1371477" lon="-2.8006765">
        <ele>183.228</ele>
        <time>2021-04-01T09:27:13.628Z</time>
      </trkpt>
      <trkpt lat="43.1371474" lon="-2.8006792">
        <ele>183.27</ele>
        <time>2021-04-01T09:27:13.680Z</time>
      </trkpt>
      <trkpt lat="43.1371474" lon="-2.8006818">
        <ele>183.279</ele>
        <time>2021-04-01T09:27:13.732Z</time>
      </trkpt>
      <trkpt lat="43.1371475" lon="-2.8006842">
        <ele>183.275</ele>
        <time>2021-04-01T09:27:13.784Z</time>
      </trkpt>
      <trkpt lat="43.1371473" lon="-2.8006868">
        <ele>183.297</ele>
        <time>2021-04-01T09:27:13.836Z</time>
      </trkpt>
      <trkpt lat="43.1371473" lon="-2.800689">
        <ele>183.288</ele>
        <time>2021-04-01T09:27:13.888Z</time>
      </trkpt>
      <trkpt lat="43.1371472" lon="-2.8006915">
        <ele>183.303</ele>
        <time>2021-04-01T09:27:13.940Z</time>
      </trkpt>
      <trkpt lat="43.1371471" lon="-2.8006939">
        <ele>183.323</ele>
        <time>2021-04-01T09:27:13.992Z</time>
      </trkpt>
      <trkpt lat="43.1371469" lon="-2.8006961">
        <ele>183.322</ele>
        <time>2021-04-01T09:27:14.045Z</time>
      </trkpt>
      <trkpt lat="43.1371468" lon="-2.8006984">
        <ele>183.343</ele>
        <time>2021-04-01T09:27:14.097Z</time>
      </trkpt>
      <trkpt lat="43.1371466" lon="-2.8007009">
        <ele>183.362</ele>
        <time>2021-04-01T09:27:14.149Z</time>
      </trkpt>
      <trkpt lat="43.1371465" lon="-2.800703">
        <ele>183.319</ele>
        <time>2021-04-01T09:27:14.201Z</time>
      </trkpt>
      <trkpt lat="43.1371464" lon="-2.8007055">
        <ele>183.325</ele>
        <time>2021-04-01T09:27:14.253Z</time>
      </trkpt>
      <trkpt lat="43.1371463" lon="-2.8007076">
        <ele>183.332</ele>
        <time>2021-04-01T09:27:14.305Z</time>
      </trkpt>
      <trkpt lat="43.1371461" lon="-2.8007107">
        <ele>183.4</ele>
        <time>2021-04-01T09:27:14.357Z</time>
      </trkpt>
      <trkpt lat="43.1371459" lon="-2.8007131">
        <ele>183.459</ele>
        <time>2021-04-01T09:27:14.409Z</time>
      </trkpt>
      <trkpt lat="43.1371455" lon="-2.8007157">
        <ele>183.505</ele>
        <time>2021-04-01T09:27:14.461Z</time>
      </trkpt>
      <trkpt lat="43.1371451" lon="-2.8007185">
        <ele>183.563</ele>
        <time>2021-04-01T09:27:14.514Z</time>
      </trkpt>
      <trkpt lat="43.1371449" lon="-2.800721">
        <ele>183.591</ele>
        <time>2021-04-01T09:27:14.572Z</time>
      </trkpt>
      <trkpt lat="43.1371444" lon="-2.8007231">
        <ele>183.583</ele>
        <time>2021-04-01T09:27:14.630Z</time>
      </trkpt>
      <trkpt lat="43.137144" lon="-2.800725">
        <ele>183.537</ele>
        <time>2021-04-01T09:27:14.688Z</time>
      </trkpt>
      <trkpt lat="43.137144" lon="-2.8007271">
        <ele>183.497</ele>
        <time>2021-04-01T09:27:14.746Z</time>
      </trkpt>
      <trkpt lat="43.1371437" lon="-2.8007297">
        <ele>183.525</ele>
        <time>2021-04-01T09:27:14.804Z</time>
      </trkpt>
      <trkpt lat="43.1371432" lon="-2.800732">
        <ele>183.536</ele>
        <time>2021-04-01T09:27:14.862Z</time>
      </trkpt>
      <trkpt lat="43.1371428" lon="-2.800734">
        <ele>183.529</ele>
        <time>2021-04-01T09:27:14.920Z</time>
      </trkpt>
      <trkpt lat="43.1371423" lon="-2.8007362">
        <ele>183.525</ele>
        <time>2021-04-01T09:27:14.978Z</time>
      </trkpt>
      <trkpt lat="43.1371417" lon="-2.8007384">
        <ele>183.505</ele>
        <time>2021-04-01T09:27:15.036Z</time>
      </trkpt>
      <trkpt lat="43.1371415" lon="-2.8007408">
        <ele>183.507</ele>
        <time>2021-04-01T09:27:15.094Z</time>
      </trkpt>
      <trkpt lat="43.1371413" lon="-2.800743">
        <ele>183.523</ele>
        <time>2021-04-01T09:27:15.152Z</time>
      </trkpt>
      <trkpt lat="43.1371409" lon="-2.8007451">
        <ele>183.516</ele>
        <time>2021-04-01T09:27:15.210Z</time>
      </trkpt>
      <trkpt lat="43.1371404" lon="-2.8007474">
        <ele>183.527</ele>
        <time>2021-04-01T09:27:15.268Z</time>
      </trkpt>
      <trkpt lat="43.1371398" lon="-2.8007497">
        <ele>183.524</ele>
        <time>2021-04-01T09:27:15.326Z</time>
      </trkpt>
      <trkpt lat="43.1371395" lon="-2.800752">
        <ele>183.47</ele>
        <time>2021-04-01T09:27:15.384Z</time>
      </trkpt>
      <trkpt lat="43.1371394" lon="-2.8007546">
        <ele>183.505</ele>
        <time>2021-04-01T09:27:15.442Z</time>
      </trkpt>
      <trkpt lat="43.1371391" lon="-2.8007566">
        <ele>183.484</ele>
        <time>2021-04-01T09:27:15.500Z</time>
      </trkpt>
      <trkpt lat="43.1371386" lon="-2.8007585">
        <ele>183.489</ele>
        <time>2021-04-01T09:27:15.559Z</time>
      </trkpt>
      <trkpt lat="43.1371382" lon="-2.8007612">
        <ele>183.504</ele>
        <time>2021-04-01T09:27:15.610Z</time>
      </trkpt>
      <trkpt lat="43.1371375" lon="-2.8007637">
        <ele>183.537</ele>
        <time>2021-04-01T09:27:15.662Z</time>
      </trkpt>
      <trkpt lat="43.1371372" lon="-2.800766">
        <ele>183.546</ele>
        <time>2021-04-01T09:27:15.714Z</time>
      </trkpt>
      <trkpt lat="43.1371367" lon="-2.8007684">
        <ele>183.57</ele>
        <time>2021-04-01T09:27:15.766Z</time>
      </trkpt>
      <trkpt lat="43.1371363" lon="-2.8007707">
        <ele>183.568</ele>
        <time>2021-04-01T09:27:15.818Z</time>
      </trkpt>
      <trkpt lat="43.1371361" lon="-2.8007727">
        <ele>183.537</ele>
        <time>2021-04-01T09:27:15.870Z</time>
      </trkpt>
      <trkpt lat="43.1371359" lon="-2.8007754">
        <ele>183.594</ele>
        <time>2021-04-01T09:27:15.922Z</time>
      </trkpt>
      <trkpt lat="43.1371357" lon="-2.8007773">
        <ele>183.523</ele>
        <time>2021-04-01T09:27:15.974Z</time>
      </trkpt>
      <trkpt lat="43.1371354" lon="-2.80078">
        <ele>183.558</ele>
        <time>2021-04-01T09:27:16.026Z</time>
      </trkpt>
      <trkpt lat="43.1371351" lon="-2.8007822">
        <ele>183.531</ele>
        <time>2021-04-01T09:27:16.078Z</time>
      </trkpt>
      <trkpt lat="43.1371346" lon="-2.8007842">
        <ele>183.53</ele>
        <time>2021-04-01T09:27:16.130Z</time>
      </trkpt>
      <trkpt lat="43.137134" lon="-2.8007867">
        <ele>183.58</ele>
        <time>2021-04-01T09:27:16.182Z</time>
      </trkpt>
      <trkpt lat="43.1371334" lon="-2.8007889">
        <ele>183.567</ele>
        <time>2021-04-01T09:27:16.234Z</time>
      </trkpt>
      <trkpt lat="43.1371329" lon="-2.8007913">
        <ele>183.591</ele>
        <time>2021-04-01T09:27:16.286Z</time>
      </trkpt>
      <trkpt lat="43.1371327" lon="-2.8007934">
        <ele>183.579</ele>
        <time>2021-04-01T09:27:16.338Z</time>
      </trkpt>
      <trkpt lat="43.1371326" lon="-2.8007958">
        <ele>183.587</ele>
        <time>2021-04-01T09:27:16.390Z</time>
      </trkpt>
      <trkpt lat="43.1371321" lon="-2.8007982">
        <ele>183.61</ele>
        <time>2021-04-01T09:27:16.442Z</time>
      </trkpt>
      <trkpt lat="43.1371317" lon="-2.8008004">
        <ele>183.61</ele>
        <time>2021-04-01T09:27:16.494Z</time>
      </trkpt>
      <trkpt lat="43.1371313" lon="-2.8008028">
        <ele>183.636</ele>
        <time>2021-04-01T09:27:16.546Z</time>
      </trkpt>
      <trkpt lat="43.1371311" lon="-2.8008055">
        <ele>183.692</ele>
        <time>2021-04-01T09:27:16.598Z</time>
      </trkpt>
      <trkpt lat="43.1371309" lon="-2.800808">
        <ele>183.761</ele>
        <time>2021-04-01T09:27:16.650Z</time>
      </trkpt>
      <trkpt lat="43.1371304" lon="-2.8008101">
        <ele>183.759</ele>
        <time>2021-04-01T09:27:16.702Z</time>
      </trkpt>
      <trkpt lat="43.1371299" lon="-2.8008124">
        <ele>183.787</ele>
        <time>2021-04-01T09:27:16.754Z</time>
      </trkpt>
      <trkpt lat="43.1371292" lon="-2.8008147">
        <ele>183.795</ele>
        <time>2021-04-01T09:27:16.806Z</time>
      </trkpt>
      <trkpt lat="43.1371288" lon="-2.8008168">
        <ele>183.787</ele>
        <time>2021-04-01T09:27:16.858Z</time>
      </trkpt>
      <trkpt lat="43.1371287" lon="-2.8008188">
        <ele>183.741</ele>
        <time>2021-04-01T09:27:16.910Z</time>
      </trkpt>
      <trkpt lat="43.1371283" lon="-2.8008208">
        <ele>183.693</ele>
        <time>2021-04-01T09:27:16.962Z</time>
      </trkpt>
      <trkpt lat="43.1371279" lon="-2.8008228">
        <ele>183.709</ele>
        <time>2021-04-01T09:27:17.015Z</time>
      </trkpt>
      <trkpt lat="43.1371274" lon="-2.8008251">
        <ele>183.743</ele>
        <time>2021-04-01T09:27:17.067Z</time>
      </trkpt>
      <trkpt lat="43.1371268" lon="-2.8008274">
        <ele>183.738</ele>
        <time>2021-04-01T09:27:17.119Z</time>
      </trkpt>
      <trkpt lat="43.1371265" lon="-2.8008299">
        <ele>183.769</ele>
        <time>2021-04-01T09:27:17.171Z</time>
      </trkpt>
      <trkpt lat="43.1371263" lon="-2.8008322">
        <ele>183.753</ele>
        <time>2021-04-01T09:27:17.223Z</time>
      </trkpt>
      <trkpt lat="43.137126" lon="-2.8008345">
        <ele>183.78</ele>
        <time>2021-04-01T09:27:17.275Z</time>
      </trkpt>
      <trkpt lat="43.1371258" lon="-2.8008369">
        <ele>183.784</ele>
        <time>2021-04-01T09:27:17.327Z</time>
      </trkpt>
      <trkpt lat="43.1371252" lon="-2.8008394">
        <ele>183.794</ele>
        <time>2021-04-01T09:27:17.379Z</time>
      </trkpt>
      <trkpt lat="43.1371245" lon="-2.8008416">
        <ele>183.844</ele>
        <time>2021-04-01T09:27:17.431Z</time>
      </trkpt>
      <trkpt lat="43.1371244" lon="-2.8008437">
        <ele>183.817</ele>
        <time>2021-04-01T09:27:17.484Z</time>
      </trkpt>
      <trkpt lat="43.1371242" lon="-2.800846">
        <ele>183.832</ele>
        <time>2021-04-01T09:27:17.545Z</time>
      </trkpt>
      <trkpt lat="43.1371239" lon="-2.8008482">
        <ele>183.863</ele>
        <time>2021-04-01T09:27:17.606Z</time>
      </trkpt>
      <trkpt lat="43.1371234" lon="-2.8008506">
        <ele>183.892</ele>
        <time>2021-04-01T09:27:17.668Z</time>
      </trkpt>
      <trkpt lat="43.1371231" lon="-2.8008529">
        <ele>183.927</ele>
        <time>2021-04-01T09:27:17.729Z</time>
      </trkpt>
      <trkpt lat="43.1371228" lon="-2.8008552">
        <ele>183.927</ele>
        <time>2021-04-01T09:27:17.791Z</time>
      </trkpt>
      <trkpt lat="43.1371225" lon="-2.8008572">
        <ele>183.93</ele>
        <time>2021-04-01T09:27:17.852Z</time>
      </trkpt>
      <trkpt lat="43.1371223" lon="-2.8008592">
        <ele>183.928</ele>
        <time>2021-04-01T09:27:17.914Z</time>
      </trkpt>
      <trkpt lat="43.1371222" lon="-2.8008616">
        <ele>183.946</ele>
        <time>2021-04-01T09:27:17.975Z</time>
      </trkpt>
      <trkpt lat="43.137122" lon="-2.800864">
        <ele>183.949</ele>
        <time>2021-04-01T09:27:18.037Z</time>
      </trkpt>
      <trkpt lat="43.1371214" lon="-2.8008661">
        <ele>183.955</ele>
        <time>2021-04-01T09:27:18.098Z</time>
      </trkpt>
      <trkpt lat="43.1371212" lon="-2.8008686">
        <ele>183.996</ele>
        <time>2021-04-01T09:27:18.160Z</time>
      </trkpt>
      <trkpt lat="43.1371213" lon="-2.8008718">
        <ele>184.117</ele>
        <time>2021-04-01T09:27:18.221Z</time>
      </trkpt>
      <trkpt lat="43.1371209" lon="-2.800874">
        <ele>184.11</ele>
        <time>2021-04-01T09:27:18.283Z</time>
      </trkpt>
      <trkpt lat="43.1371208" lon="-2.8008763">
        <ele>184.12</ele>
        <time>2021-04-01T09:27:18.344Z</time>
      </trkpt>
      <trkpt lat="43.1371205" lon="-2.8008789">
        <ele>184.19</ele>
        <time>2021-04-01T09:27:18.406Z</time>
      </trkpt>
      <trkpt lat="43.1371202" lon="-2.8008811">
        <ele>184.192</ele>
        <time>2021-04-01T09:27:18.467Z</time>
      </trkpt>
      <trkpt lat="43.1371198" lon="-2.8008834">
        <ele>184.222</ele>
        <time>2021-04-01T09:27:18.529Z</time>
      </trkpt>
      <trkpt lat="43.1371195" lon="-2.8008856">
        <ele>184.225</ele>
        <time>2021-04-01T09:27:18.581Z</time>
      </trkpt>
      <trkpt lat="43.1371192" lon="-2.8008878">
        <ele>184.216</ele>
        <time>2021-04-01T09:27:18.633Z</time>
      </trkpt>
      <trkpt lat="43.137119" lon="-2.8008901">
        <ele>184.248</ele>
        <time>2021-04-01T09:27:18.685Z</time>
      </trkpt>
      <trkpt lat="43.1371186" lon="-2.8008924">
        <ele>184.291</ele>
        <time>2021-04-01T09:27:18.737Z</time>
      </trkpt>
      <trkpt lat="43.1371182" lon="-2.8008946">
        <ele>184.282</ele>
        <time>2021-04-01T09:27:18.789Z</time>
      </trkpt>
      <trkpt lat="43.137118" lon="-2.8008971">
        <ele>184.33</ele>
        <time>2021-04-01T09:27:18.841Z</time>
      </trkpt>
      <trkpt lat="43.137118" lon="-2.8008997">
        <ele>184.36</ele>
        <time>2021-04-01T09:27:18.893Z</time>
      </trkpt>
      <trkpt lat="43.1371177" lon="-2.8009021">
        <ele>184.416</ele>
        <time>2021-04-01T09:27:18.945Z</time>
      </trkpt>
      <trkpt lat="43.1371173" lon="-2.8009044">
        <ele>184.438</ele>
        <time>2021-04-01T09:27:18.997Z</time>
      </trkpt>
      <trkpt lat="43.1371171" lon="-2.8009068">
        <ele>184.482</ele>
        <time>2021-04-01T09:27:19.050Z</time>
      </trkpt>
      <trkpt lat="43.137117" lon="-2.8009092">
        <ele>184.506</ele>
        <time>2021-04-01T09:27:19.102Z</time>
      </trkpt>
      <trkpt lat="43.1371169" lon="-2.8009116">
        <ele>184.544</ele>
        <time>2021-04-01T09:27:19.154Z</time>
      </trkpt>
      <trkpt lat="43.1371168" lon="-2.8009138">
        <ele>184.567</ele>
        <time>2021-04-01T09:27:19.206Z</time>
      </trkpt>
      <trkpt lat="43.1371167" lon="-2.8009161">
        <ele>184.564</ele>
        <time>2021-04-01T09:27:19.258Z</time>
      </trkpt>
      <trkpt lat="43.1371165" lon="-2.8009184">
        <ele>184.59</ele>
        <time>2021-04-01T09:27:19.310Z</time>
      </trkpt>
      <trkpt lat="43.1371164" lon="-2.800921">
        <ele>184.619</ele>
        <time>2021-04-01T09:27:19.362Z</time>
      </trkpt>
      <trkpt lat="43.1371164" lon="-2.8009239">
        <ele>184.666</ele>
        <time>2021-04-01T09:27:19.414Z</time>
      </trkpt>
      <trkpt lat="43.1371159" lon="-2.8009261">
        <ele>184.681</ele>
        <time>2021-04-01T09:27:19.466Z</time>
      </trkpt>
      <trkpt lat="43.1371156" lon="-2.800928">
        <ele>184.681</ele>
        <time>2021-04-01T09:27:19.519Z</time>
      </trkpt>
      <trkpt lat="43.1371154" lon="-2.8009305">
        <ele>184.722</ele>
        <time>2021-04-01T09:27:19.574Z</time>
      </trkpt>
      <trkpt lat="43.1371157" lon="-2.8009337">
        <ele>184.774</ele>
        <time>2021-04-01T09:27:19.629Z</time>
      </trkpt>
      <trkpt lat="43.1371151" lon="-2.8009358">
        <ele>184.763</ele>
        <time>2021-04-01T09:27:19.684Z</time>
      </trkpt>
      <trkpt lat="43.1371147" lon="-2.8009379">
        <ele>184.757</ele>
        <time>2021-04-01T09:27:19.739Z</time>
      </trkpt>
      <trkpt lat="43.1371142" lon="-2.8009399">
        <ele>184.773</ele>
        <time>2021-04-01T09:27:19.794Z</time>
      </trkpt>
      <trkpt lat="43.1371136" lon="-2.8009421">
        <ele>184.824</ele>
        <time>2021-04-01T09:27:19.849Z</time>
      </trkpt>
      <trkpt lat="43.137113" lon="-2.8009447">
        <ele>184.868</ele>
        <time>2021-04-01T09:27:19.904Z</time>
      </trkpt>
      <trkpt lat="43.1371128" lon="-2.800947">
        <ele>184.887</ele>
        <time>2021-04-01T09:27:19.959Z</time>
      </trkpt>
      <trkpt lat="43.1371126" lon="-2.8009494">
        <ele>184.916</ele>
        <time>2021-04-01T09:27:20.014Z</time>
      </trkpt>
      <trkpt lat="43.1371124" lon="-2.8009518">
        <ele>184.932</ele>
        <time>2021-04-01T09:27:20.069Z</time>
      </trkpt>
      <trkpt lat="43.1371121" lon="-2.8009542">
        <ele>184.957</ele>
        <time>2021-04-01T09:27:20.124Z</time>
      </trkpt>
      <trkpt lat="43.137112" lon="-2.8009565">
        <ele>184.956</ele>
        <time>2021-04-01T09:27:20.179Z</time>
      </trkpt>
      <trkpt lat="43.1371113" lon="-2.8009588">
        <ele>184.986</ele>
        <time>2021-04-01T09:27:20.234Z</time>
      </trkpt>
      <trkpt lat="43.1371111" lon="-2.8009602">
        <ele>184.958</ele>
        <time>2021-04-01T09:27:20.289Z</time>
      </trkpt>
      <trkpt lat="43.1371105" lon="-2.8009624">
        <ele>185.005</ele>
        <time>2021-04-01T09:27:20.344Z</time>
      </trkpt>
      <trkpt lat="43.1371098" lon="-2.8009644">
        <ele>185.088</ele>
        <time>2021-04-01T09:27:20.399Z</time>
      </trkpt>
      <trkpt lat="43.1371091" lon="-2.8009667">
        <ele>185.167</ele>
        <time>2021-04-01T09:27:20.454Z</time>
      </trkpt>
      <trkpt lat="43.1371083" lon="-2.800969">
        <ele>185.215</ele>
        <time>2021-04-01T09:27:20.509Z</time>
      </trkpt>
      <trkpt lat="43.1371082" lon="-2.8009714">
        <ele>185.246</ele>
        <time>2021-04-01T09:27:20.561Z</time>
      </trkpt>
      <trkpt lat="43.1371075" lon="-2.8009743">
        <ele>185.381</ele>
        <time>2021-04-01T09:27:20.613Z</time>
      </trkpt>
      <trkpt lat="43.1371068" lon="-2.8009766">
        <ele>185.441</ele>
        <time>2021-04-01T09:27:20.665Z</time>
      </trkpt>
      <trkpt lat="43.1371068" lon="-2.8009792">
        <ele>185.458</ele>
        <time>2021-04-01T09:27:20.717Z</time>
      </trkpt>
      <trkpt lat="43.1371067" lon="-2.8009818">
        <ele>185.517</ele>
        <time>2021-04-01T09:27:20.769Z</time>
      </trkpt>
      <trkpt lat="43.1371062" lon="-2.8009841">
        <ele>185.563</ele>
        <time>2021-04-01T09:27:20.821Z</time>
      </trkpt>
      <trkpt lat="43.1371061" lon="-2.8009867">
        <ele>185.583</ele>
        <time>2021-04-01T09:27:20.873Z</time>
      </trkpt>
      <trkpt lat="43.1371056" lon="-2.8009894">
        <ele>185.677</ele>
        <time>2021-04-01T09:27:20.925Z</time>
      </trkpt>
      <trkpt lat="43.1371049" lon="-2.8009915">
        <ele>185.7</ele>
        <time>2021-04-01T09:27:20.977Z</time>
      </trkpt>
      <trkpt lat="43.1371051" lon="-2.8009943">
        <ele>185.75</ele>
        <time>2021-04-01T09:27:21.030Z</time>
      </trkpt>
      <trkpt lat="43.1371048" lon="-2.8009968">
        <ele>185.809</ele>
        <time>2021-04-01T09:27:21.082Z</time>
      </trkpt>
      <trkpt lat="43.1371047" lon="-2.800999">
        <ele>185.78</ele>
        <time>2021-04-01T09:27:21.134Z</time>
      </trkpt>
      <trkpt lat="43.1371041" lon="-2.8010013">
        <ele>185.774</ele>
        <time>2021-04-01T09:27:21.186Z</time>
      </trkpt>
      <trkpt lat="43.1371034" lon="-2.8010034">
        <ele>185.751</ele>
        <time>2021-04-01T09:27:21.238Z</time>
      </trkpt>
      <trkpt lat="43.1371033" lon="-2.8010054">
        <ele>185.784</ele>
        <time>2021-04-01T09:27:21.290Z</time>
      </trkpt>
      <trkpt lat="43.1371034" lon="-2.8010085">
        <ele>185.857</ele>
        <time>2021-04-01T09:27:21.342Z</time>
      </trkpt>
      <trkpt lat="43.137103" lon="-2.8010111">
        <ele>185.867</ele>
        <time>2021-04-01T09:27:21.394Z</time>
      </trkpt>
      <trkpt lat="43.1371025" lon="-2.8010134">
        <ele>185.859</ele>
        <time>2021-04-01T09:27:21.446Z</time>
      </trkpt>
      <trkpt lat="43.1371024" lon="-2.8010158">
        <ele>185.831</ele>
        <time>2021-04-01T09:27:21.499Z</time>
      </trkpt>
      <trkpt lat="43.1371026" lon="-2.801018">
        <ele>185.896</ele>
        <time>2021-04-01T09:27:21.560Z</time>
      </trkpt>
      <trkpt lat="43.1371024" lon="-2.8010204">
        <ele>185.922</ele>
        <time>2021-04-01T09:27:21.621Z</time>
      </trkpt>
      <trkpt lat="43.1371022" lon="-2.8010231">
        <ele>185.98</ele>
        <time>2021-04-01T09:27:21.683Z</time>
      </trkpt>
      <trkpt lat="43.1371018" lon="-2.8010255">
        <ele>185.958</ele>
        <time>2021-04-01T09:27:21.744Z</time>
      </trkpt>
      <trkpt lat="43.1371016" lon="-2.801028">
        <ele>185.986</ele>
        <time>2021-04-01T09:27:21.806Z</time>
      </trkpt>
      <trkpt lat="43.1371014" lon="-2.8010307">
        <ele>186.034</ele>
        <time>2021-04-01T09:27:21.867Z</time>
      </trkpt>
      <trkpt lat="43.1371013" lon="-2.8010333">
        <ele>186.106</ele>
        <time>2021-04-01T09:27:21.929Z</time>
      </trkpt>
      <trkpt lat="43.1371007" lon="-2.8010358">
        <ele>186.156</ele>
        <time>2021-04-01T09:27:21.990Z</time>
      </trkpt>
      <trkpt lat="43.1371004" lon="-2.8010386">
        <ele>186.206</ele>
        <time>2021-04-01T09:27:22.052Z</time>
      </trkpt>
      <trkpt lat="43.1371001" lon="-2.8010411">
        <ele>186.266</ele>
        <time>2021-04-01T09:27:22.113Z</time>
      </trkpt>
      <trkpt lat="43.1371001" lon="-2.8010436">
        <ele>186.302</ele>
        <time>2021-04-01T09:27:22.175Z</time>
      </trkpt>
      <trkpt lat="43.1370996" lon="-2.8010459">
        <ele>186.403</ele>
        <time>2021-04-01T09:27:22.236Z</time>
      </trkpt>
      <trkpt lat="43.1370993" lon="-2.8010484">
        <ele>186.436</ele>
        <time>2021-04-01T09:27:22.298Z</time>
      </trkpt>
      <trkpt lat="43.1370989" lon="-2.8010508">
        <ele>186.483</ele>
        <time>2021-04-01T09:27:22.359Z</time>
      </trkpt>
      <trkpt lat="43.1370988" lon="-2.8010533">
        <ele>186.495</ele>
        <time>2021-04-01T09:27:22.421Z</time>
      </trkpt>
      <trkpt lat="43.1370982" lon="-2.8010556">
        <ele>186.584</ele>
        <time>2021-04-01T09:27:22.482Z</time>
      </trkpt>
      <trkpt lat="43.1370981" lon="-2.8010581">
        <ele>186.613</ele>
        <time>2021-04-01T09:27:22.544Z</time>
      </trkpt>
      <trkpt lat="43.137098" lon="-2.8010605">
        <ele>186.66</ele>
        <time>2021-04-01T09:27:22.596Z</time>
      </trkpt>
      <trkpt lat="43.1370977" lon="-2.8010628">
        <ele>186.677</ele>
        <time>2021-04-01T09:27:22.648Z</time>
      </trkpt>
      <trkpt lat="43.1370977" lon="-2.8010649">
        <ele>186.662</ele>
        <time>2021-04-01T09:27:22.700Z</time>
      </trkpt>
      <trkpt lat="43.137098" lon="-2.8010675">
        <ele>186.731</ele>
        <time>2021-04-01T09:27:22.752Z</time>
      </trkpt>
      <trkpt lat="43.1370978" lon="-2.8010699">
        <ele>186.75</ele>
        <time>2021-04-01T09:27:22.804Z</time>
      </trkpt>
      <trkpt lat="43.1370975" lon="-2.8010721">
        <ele>186.821</ele>
        <time>2021-04-01T09:27:22.856Z</time>
      </trkpt>
      <trkpt lat="43.1370974" lon="-2.8010744">
        <ele>186.863</ele>
        <time>2021-04-01T09:27:22.908Z</time>
      </trkpt>
      <trkpt lat="43.1370975" lon="-2.8010766">
        <ele>186.907</ele>
        <time>2021-04-01T09:27:22.960Z</time>
      </trkpt>
      <trkpt lat="43.1370974" lon="-2.8010788">
        <ele>186.916</ele>
        <time>2021-04-01T09:27:23.012Z</time>
      </trkpt>
      <trkpt lat="43.137097" lon="-2.8010809">
        <ele>186.954</ele>
        <time>2021-04-01T09:27:23.065Z</time>
      </trkpt>
      <trkpt lat="43.1370967" lon="-2.8010832">
        <ele>186.98</ele>
        <time>2021-04-01T09:27:23.117Z</time>
      </trkpt>
      <trkpt lat="43.1370962" lon="-2.8010853">
        <ele>187.033</ele>
        <time>2021-04-01T09:27:23.169Z</time>
      </trkpt>
      <trkpt lat="43.1370957" lon="-2.8010878">
        <ele>187.064</ele>
        <time>2021-04-01T09:27:23.221Z</time>
      </trkpt>
      <trkpt lat="43.1370955" lon="-2.80109">
        <ele>187.095</ele>
        <time>2021-04-01T09:27:23.273Z</time>
      </trkpt>
      <trkpt lat="43.1370952" lon="-2.8010923">
        <ele>187.111</ele>
        <time>2021-04-01T09:27:23.325Z</time>
      </trkpt>
      <trkpt lat="43.1370945" lon="-2.8010946">
        <ele>187.133</ele>
        <time>2021-04-01T09:27:23.377Z</time>
      </trkpt>
      <trkpt lat="43.1370938" lon="-2.8010969">
        <ele>187.125</ele>
        <time>2021-04-01T09:27:23.429Z</time>
      </trkpt>
      <trkpt lat="43.1370934" lon="-2.8010997">
        <ele>187.269</ele>
        <time>2021-04-01T09:27:23.481Z</time>
      </trkpt>
      <trkpt lat="43.1370932" lon="-2.8011024">
        <ele>187.301</ele>
        <time>2021-04-01T09:27:23.534Z</time>
      </trkpt>
      <trkpt lat="43.1370929" lon="-2.8011046">
        <ele>187.293</ele>
        <time>2021-04-01T09:27:23.589Z</time>
      </trkpt>
      <trkpt lat="43.1370926" lon="-2.8011067">
        <ele>187.289</ele>
        <time>2021-04-01T09:27:23.644Z</time>
      </trkpt>
      <trkpt lat="43.137092" lon="-2.8011091">
        <ele>187.365</ele>
        <time>2021-04-01T09:27:23.699Z</time>
      </trkpt>
      <trkpt lat="43.1370917" lon="-2.8011119">
        <ele>187.477</ele>
        <time>2021-04-01T09:27:23.754Z</time>
      </trkpt>
      <trkpt lat="43.1370917" lon="-2.8011145">
        <ele>187.516</ele>
        <time>2021-04-01T09:27:23.809Z</time>
      </trkpt>
      <trkpt lat="43.1370918" lon="-2.8011172">
        <ele>187.531</ele>
        <time>2021-04-01T09:27:23.864Z</time>
      </trkpt>
      <trkpt lat="43.1370912" lon="-2.8011198">
        <ele>187.638</ele>
        <time>2021-04-01T09:27:23.919Z</time>
      </trkpt>
      <trkpt lat="43.1370905" lon="-2.8011223">
        <ele>187.695</ele>
        <time>2021-04-01T09:27:23.974Z</time>
      </trkpt>
      <trkpt lat="43.13709" lon="-2.8011248">
        <ele>187.781</ele>
        <time>2021-04-01T09:27:24.029Z</time>
      </trkpt>
      <trkpt lat="43.1370898" lon="-2.8011268">
        <ele>187.737</ele>
        <time>2021-04-01T09:27:24.084Z</time>
      </trkpt>
      <trkpt lat="43.1370896" lon="-2.8011293">
        <ele>187.778</ele>
        <time>2021-04-01T09:27:24.139Z</time>
      </trkpt>
      <trkpt lat="43.1370897" lon="-2.8011321">
        <ele>187.871</ele>
        <time>2021-04-01T09:27:24.194Z</time>
      </trkpt>
      <trkpt lat="43.1370893" lon="-2.8011344">
        <ele>187.939</ele>
        <time>2021-04-01T09:27:24.249Z</time>
      </trkpt>
      <trkpt lat="43.1370889" lon="-2.8011369">
        <ele>187.954</ele>
        <time>2021-04-01T09:27:24.304Z</time>
      </trkpt>
      <trkpt lat="43.1370884" lon="-2.8011393">
        <ele>187.956</ele>
        <time>2021-04-01T09:27:24.359Z</time>
      </trkpt>
      <trkpt lat="43.1370882" lon="-2.8011418">
        <ele>188.026</ele>
        <time>2021-04-01T09:27:24.414Z</time>
      </trkpt>
      <trkpt lat="43.1370878" lon="-2.801144">
        <ele>188.066</ele>
        <time>2021-04-01T09:27:24.469Z</time>
      </trkpt>
      <trkpt lat="43.1370877" lon="-2.8011463">
        <ele>188.081</ele>
        <time>2021-04-01T09:27:24.524Z</time>
      </trkpt>
      <trkpt lat="43.1370875" lon="-2.8011489">
        <ele>188.114</ele>
        <time>2021-04-01T09:27:24.579Z</time>
      </trkpt>
      <trkpt lat="43.1370872" lon="-2.8011512">
        <ele>188.151</ele>
        <time>2021-04-01T09:27:24.634Z</time>
      </trkpt>
      <trkpt lat="43.1370871" lon="-2.8011535">
        <ele>188.151</ele>
        <time>2021-04-01T09:27:24.689Z</time>
      </trkpt>
      <trkpt lat="43.137087" lon="-2.8011561">
        <ele>188.239</ele>
        <time>2021-04-01T09:27:24.744Z</time>
      </trkpt>
      <trkpt lat="43.1370867" lon="-2.8011584">
        <ele>188.31</ele>
        <time>2021-04-01T09:27:24.799Z</time>
      </trkpt>
      <trkpt lat="43.1370864" lon="-2.8011605">
        <ele>188.311</ele>
        <time>2021-04-01T09:27:24.854Z</time>
      </trkpt>
      <trkpt lat="43.1370863" lon="-2.801163">
        <ele>188.318</ele>
        <time>2021-04-01T09:27:24.909Z</time>
      </trkpt>
      <trkpt lat="43.1370863" lon="-2.8011652">
        <ele>188.272</ele>
        <time>2021-04-01T09:27:24.964Z</time>
      </trkpt>
      <trkpt lat="43.1370863" lon="-2.8011672">
        <ele>188.255</ele>
        <time>2021-04-01T09:27:25.019Z</time>
      </trkpt>
      <trkpt lat="43.1370864" lon="-2.8011697">
        <ele>188.297</ele>
        <time>2021-04-01T09:27:25.074Z</time>
      </trkpt>
      <trkpt lat="43.1370863" lon="-2.801172">
        <ele>188.299</ele>
        <time>2021-04-01T09:27:25.129Z</time>
      </trkpt>
      <trkpt lat="43.1370863" lon="-2.8011743">
        <ele>188.284</ele>
        <time>2021-04-01T09:27:25.184Z</time>
      </trkpt>
      <trkpt lat="43.1370863" lon="-2.8011764">
        <ele>188.287</ele>
        <time>2021-04-01T09:27:25.239Z</time>
      </trkpt>
      <trkpt lat="43.1370863" lon="-2.8011785">
        <ele>188.27</ele>
        <time>2021-04-01T09:27:25.294Z</time>
      </trkpt>
      <trkpt lat="43.1370863" lon="-2.8011808">
        <ele>188.278</ele>
        <time>2021-04-01T09:27:25.349Z</time>
      </trkpt>
      <trkpt lat="43.1370864" lon="-2.8011836">
        <ele>188.262</ele>
        <time>2021-04-01T09:27:25.404Z</time>
      </trkpt>
      <trkpt lat="43.1370866" lon="-2.8011861">
        <ele>188.272</ele>
        <time>2021-04-01T09:27:25.459Z</time>
      </trkpt>
      <trkpt lat="43.1370865" lon="-2.8011883">
        <ele>188.269</ele>
        <time>2021-04-01T09:27:25.514Z</time>
      </trkpt>
      <trkpt lat="43.1370868" lon="-2.801191">
        <ele>188.283</ele>
        <time>2021-04-01T09:27:25.569Z</time>
      </trkpt>
      <trkpt lat="43.1370868" lon="-2.8011935">
        <ele>188.305</ele>
        <time>2021-04-01T09:27:25.624Z</time>
      </trkpt>
      <trkpt lat="43.1370869" lon="-2.8011955">
        <ele>188.296</ele>
        <time>2021-04-01T09:27:25.679Z</time>
      </trkpt>
      <trkpt lat="43.1370868" lon="-2.8011977">
        <ele>188.3</ele>
        <time>2021-04-01T09:27:25.734Z</time>
      </trkpt>
      <trkpt lat="43.1370868" lon="-2.8012">
        <ele>188.297</ele>
        <time>2021-04-01T09:27:25.789Z</time>
      </trkpt>
      <trkpt lat="43.1370867" lon="-2.8012022">
        <ele>188.31</ele>
        <time>2021-04-01T09:27:25.844Z</time>
      </trkpt>
      <trkpt lat="43.1370865" lon="-2.8012045">
        <ele>188.278</ele>
        <time>2021-04-01T09:27:25.899Z</time>
      </trkpt>
      <trkpt lat="43.1370866" lon="-2.8012068">
        <ele>188.295</ele>
        <time>2021-04-01T09:27:25.954Z</time>
      </trkpt>
      <trkpt lat="43.1370865" lon="-2.8012091">
        <ele>188.301</ele>
        <time>2021-04-01T09:27:26.009Z</time>
      </trkpt>
      <trkpt lat="43.1370861" lon="-2.8012111">
        <ele>188.285</ele>
        <time>2021-04-01T09:27:26.064Z</time>
      </trkpt>
      <trkpt lat="43.1370859" lon="-2.8012132">
        <ele>188.267</ele>
        <time>2021-04-01T09:27:26.119Z</time>
      </trkpt>
      <trkpt lat="43.1370862" lon="-2.8012155">
        <ele>188.269</ele>
        <time>2021-04-01T09:27:26.174Z</time>
      </trkpt>
      <trkpt lat="43.1370859" lon="-2.8012176">
        <ele>188.266</ele>
        <time>2021-04-01T09:27:26.229Z</time>
      </trkpt>
      <trkpt lat="43.1370858" lon="-2.8012198">
        <ele>188.258</ele>
        <time>2021-04-01T09:27:26.284Z</time>
      </trkpt>
      <trkpt lat="43.1370858" lon="-2.801222">
        <ele>188.242</ele>
        <time>2021-04-01T09:27:26.339Z</time>
      </trkpt>
      <trkpt lat="43.1370857" lon="-2.8012242">
        <ele>188.212</ele>
        <time>2021-04-01T09:27:26.394Z</time>
      </trkpt>
      <trkpt lat="43.137086" lon="-2.8012261">
        <ele>188.203</ele>
        <time>2021-04-01T09:27:26.449Z</time>
      </trkpt>
      <trkpt lat="43.1370862" lon="-2.8012281">
        <ele>188.18</ele>
        <time>2021-04-01T09:27:26.504Z</time>
      </trkpt>
      <trkpt lat="43.1370864" lon="-2.8012301">
        <ele>188.152</ele>
        <time>2021-04-01T09:27:26.559Z</time>
      </trkpt>
      <trkpt lat="43.1370865" lon="-2.801232">
        <ele>188.127</ele>
        <time>2021-04-01T09:27:26.614Z</time>
      </trkpt>
      <trkpt lat="43.1370867" lon="-2.8012341">
        <ele>188.097</ele>
        <time>2021-04-01T09:27:26.669Z</time>
      </trkpt>
      <trkpt lat="43.1370867" lon="-2.8012363">
        <ele>188.112</ele>
        <time>2021-04-01T09:27:26.724Z</time>
      </trkpt>
      <trkpt lat="43.1370867" lon="-2.8012385">
        <ele>188.096</ele>
        <time>2021-04-01T09:27:26.779Z</time>
      </trkpt>
      <trkpt lat="43.1370867" lon="-2.8012408">
        <ele>188.092</ele>
        <time>2021-04-01T09:27:26.834Z</time>
      </trkpt>
      <trkpt lat="43.1370868" lon="-2.8012429">
        <ele>188.089</ele>
        <time>2021-04-01T09:27:26.889Z</time>
      </trkpt>
      <trkpt lat="43.1370879" lon="-2.8012451">
        <ele>188.161</ele>
        <time>2021-04-01T09:27:26.944Z</time>
      </trkpt>
      <trkpt lat="43.1370884" lon="-2.8012471">
        <ele>188.162</ele>
        <time>2021-04-01T09:27:26.999Z</time>
      </trkpt>
      <trkpt lat="43.1370886" lon="-2.8012493">
        <ele>188.147</ele>
        <time>2021-04-01T09:27:27.054Z</time>
      </trkpt>
      <trkpt lat="43.1370887" lon="-2.8012513">
        <ele>188.135</ele>
        <time>2021-04-01T09:27:27.109Z</time>
      </trkpt>
      <trkpt lat="43.1370888" lon="-2.8012532">
        <ele>188.105</ele>
        <time>2021-04-01T09:27:27.164Z</time>
      </trkpt>
      <trkpt lat="43.1370889" lon="-2.8012551">
        <ele>188.08</ele>
        <time>2021-04-01T09:27:27.219Z</time>
      </trkpt>
      <trkpt lat="43.137089" lon="-2.8012569">
        <ele>188.043</ele>
        <time>2021-04-01T09:27:27.274Z</time>
      </trkpt>
      <trkpt lat="43.1370892" lon="-2.8012585">
        <ele>187.975</ele>
        <time>2021-04-01T09:27:27.329Z</time>
      </trkpt>
      <trkpt lat="43.1370894" lon="-2.8012605">
        <ele>187.896</ele>
        <time>2021-04-01T09:27:27.384Z</time>
      </trkpt>
      <trkpt lat="43.1370897" lon="-2.8012622">
        <ele>187.883</ele>
        <time>2021-04-01T09:27:27.439Z</time>
      </trkpt>
      <trkpt lat="43.1370898" lon="-2.8012644">
        <ele>187.88</ele>
        <time>2021-04-01T09:27:27.494Z</time>
      </trkpt>
      <trkpt lat="43.1370899" lon="-2.8012664">
        <ele>187.867</ele>
        <time>2021-04-01T09:27:27.549Z</time>
      </trkpt>
      <trkpt lat="43.13709" lon="-2.8012686">
        <ele>187.847</ele>
        <time>2021-04-01T09:27:27.604Z</time>
      </trkpt>
      <trkpt lat="43.1370906" lon="-2.8012704">
        <ele>187.803</ele>
        <time>2021-04-01T09:27:27.659Z</time>
      </trkpt>
      <trkpt lat="43.1370905" lon="-2.8012724">
        <ele>187.778</ele>
        <time>2021-04-01T09:27:27.714Z</time>
      </trkpt>
      <trkpt lat="43.1370902" lon="-2.8012745">
        <ele>187.754</ele>
        <time>2021-04-01T09:27:27.769Z</time>
      </trkpt>
      <trkpt lat="43.1370901" lon="-2.8012768">
        <ele>187.732</ele>
        <time>2021-04-01T09:27:27.824Z</time>
      </trkpt>
      <trkpt lat="43.1370905" lon="-2.8012787">
        <ele>187.716</ele>
        <time>2021-04-01T09:27:27.879Z</time>
      </trkpt>
      <trkpt lat="43.137091" lon="-2.8012806">
        <ele>187.688</ele>
        <time>2021-04-01T09:27:27.934Z</time>
      </trkpt>
      <trkpt lat="43.1370911" lon="-2.8012828">
        <ele>187.638</ele>
        <time>2021-04-01T09:27:27.989Z</time>
      </trkpt>
      <trkpt lat="43.1370911" lon="-2.801285">
        <ele>187.619</ele>
        <time>2021-04-01T09:27:28.044Z</time>
      </trkpt>
      <trkpt lat="43.1370911" lon="-2.801287">
        <ele>187.609</ele>
        <time>2021-04-01T09:27:28.099Z</time>
      </trkpt>
      <trkpt lat="43.1370914" lon="-2.801289">
        <ele>187.625</ele>
        <time>2021-04-01T09:27:28.154Z</time>
      </trkpt>
      <trkpt lat="43.1370917" lon="-2.801291">
        <ele>187.606</ele>
        <time>2021-04-01T09:27:28.209Z</time>
      </trkpt>
      <trkpt lat="43.1370916" lon="-2.8012932">
        <ele>187.616</ele>
        <time>2021-04-01T09:27:28.264Z</time>
      </trkpt>
      <trkpt lat="43.1370913" lon="-2.8012954">
        <ele>187.6</ele>
        <time>2021-04-01T09:27:28.319Z</time>
      </trkpt>
      <trkpt lat="43.1370915" lon="-2.8012973">
        <ele>187.577</ele>
        <time>2021-04-01T09:27:28.374Z</time>
      </trkpt>
      <trkpt lat="43.1370916" lon="-2.8012994">
        <ele>187.527</ele>
        <time>2021-04-01T09:27:28.429Z</time>
      </trkpt>
      <trkpt lat="43.1370916" lon="-2.8013012">
        <ele>187.477</ele>
        <time>2021-04-01T09:27:28.484Z</time>
      </trkpt>
      <trkpt lat="43.1370915" lon="-2.8013029">
        <ele>187.436</ele>
        <time>2021-04-01T09:27:28.539Z</time>
      </trkpt>
      <trkpt lat="43.1370915" lon="-2.8013045">
        <ele>187.383</ele>
        <time>2021-04-01T09:27:28.594Z</time>
      </trkpt>
      <trkpt lat="43.1370917" lon="-2.8013063">
        <ele>187.362</ele>
        <time>2021-04-01T09:27:28.649Z</time>
      </trkpt>
      <trkpt lat="43.1370921" lon="-2.8013081">
        <ele>187.349</ele>
        <time>2021-04-01T09:27:28.704Z</time>
      </trkpt>
      <trkpt lat="43.1370921" lon="-2.8013101">
        <ele>187.368</ele>
        <time>2021-04-01T09:27:28.759Z</time>
      </trkpt>
      <trkpt lat="43.1370923" lon="-2.8013127">
        <ele>187.373</ele>
        <time>2021-04-01T09:27:28.814Z</time>
      </trkpt>
      <trkpt lat="43.1370927" lon="-2.8013149">
        <ele>187.347</ele>
        <time>2021-04-01T09:27:28.869Z</time>
      </trkpt>
      <trkpt lat="43.1370929" lon="-2.8013169">
        <ele>187.379</ele>
        <time>2021-04-01T09:27:28.924Z</time>
      </trkpt>
      <trkpt lat="43.1370931" lon="-2.8013186">
        <ele>187.394</ele>
        <time>2021-04-01T09:27:28.979Z</time>
      </trkpt>
      <trkpt lat="43.1370935" lon="-2.8013206">
        <ele>187.388</ele>
        <time>2021-04-01T09:27:29.034Z</time>
      </trkpt>
      <trkpt lat="43.1370934" lon="-2.8013228">
        <ele>187.385</ele>
        <time>2021-04-01T09:27:29.089Z</time>
      </trkpt>
      <trkpt lat="43.1370934" lon="-2.8013249">
        <ele>187.38</ele>
        <time>2021-04-01T09:27:29.144Z</time>
      </trkpt>
      <trkpt lat="43.1370938" lon="-2.8013269">
        <ele>187.354</ele>
        <time>2021-04-01T09:27:29.199Z</time>
      </trkpt>
      <trkpt lat="43.1370938" lon="-2.801329">
        <ele>187.314</ele>
        <time>2021-04-01T09:27:29.254Z</time>
      </trkpt>
      <trkpt lat="43.1370942" lon="-2.801331">
        <ele>187.289</ele>
        <time>2021-04-01T09:27:29.309Z</time>
      </trkpt>
      <trkpt lat="43.1370945" lon="-2.8013329">
        <ele>187.292</ele>
        <time>2021-04-01T09:27:29.364Z</time>
      </trkpt>
      <trkpt lat="43.1370948" lon="-2.8013351">
        <ele>187.329</ele>
        <time>2021-04-01T09:27:29.419Z</time>
      </trkpt>
      <trkpt lat="43.1370954" lon="-2.8013375">
        <ele>187.367</ele>
        <time>2021-04-01T09:27:29.474Z</time>
      </trkpt>
      <trkpt lat="43.1370957" lon="-2.8013395">
        <ele>187.345</ele>
        <time>2021-04-01T09:27:29.529Z</time>
      </trkpt>
      <trkpt lat="43.1370961" lon="-2.8013418">
        <ele>187.318</ele>
        <time>2021-04-01T09:27:29.584Z</time>
      </trkpt>
      <trkpt lat="43.1370964" lon="-2.801344">
        <ele>187.328</ele>
        <time>2021-04-01T09:27:29.639Z</time>
      </trkpt>
      <trkpt lat="43.1370967" lon="-2.8013461">
        <ele>187.358</ele>
        <time>2021-04-01T09:27:29.694Z</time>
      </trkpt>
      <trkpt lat="43.1370971" lon="-2.8013484">
        <ele>187.385</ele>
        <time>2021-04-01T09:27:29.749Z</time>
      </trkpt>
      <trkpt lat="43.1370984" lon="-2.8013523">
        <ele>187.548</ele>
        <time>2021-04-01T09:27:29.804Z</time>
      </trkpt>
      <trkpt lat="43.1370988" lon="-2.8013548">
        <ele>187.557</ele>
        <time>2021-04-01T09:27:29.859Z</time>
      </trkpt>
      <trkpt lat="43.1370992" lon="-2.8013572">
        <ele>187.597</ele>
        <time>2021-04-01T09:27:29.914Z</time>
      </trkpt>
      <trkpt lat="43.1370996" lon="-2.8013594">
        <ele>187.59</ele>
        <time>2021-04-01T09:27:29.969Z</time>
      </trkpt>
      <trkpt lat="43.1371002" lon="-2.8013619">
        <ele>187.603</ele>
        <time>2021-04-01T09:27:30.024Z</time>
      </trkpt>
      <trkpt lat="43.1371008" lon="-2.8013643">
        <ele>187.646</ele>
        <time>2021-04-01T09:27:30.079Z</time>
      </trkpt>
      <trkpt lat="43.1371011" lon="-2.8013663">
        <ele>187.653</ele>
        <time>2021-04-01T09:27:30.134Z</time>
      </trkpt>
      <trkpt lat="43.1371017" lon="-2.8013685">
        <ele>187.662</ele>
        <time>2021-04-01T09:27:30.189Z</time>
      </trkpt>
      <trkpt lat="43.1371025" lon="-2.8013711">
        <ele>187.705</ele>
        <time>2021-04-01T09:27:30.244Z</time>
      </trkpt>
      <trkpt lat="43.1371032" lon="-2.8013731">
        <ele>187.679</ele>
        <time>2021-04-01T09:27:30.299Z</time>
      </trkpt>
      <trkpt lat="43.1371034" lon="-2.8013751">
        <ele>187.667</ele>
        <time>2021-04-01T09:27:30.354Z</time>
      </trkpt>
      <trkpt lat="43.1371039" lon="-2.8013778">
        <ele>187.735</ele>
        <time>2021-04-01T09:27:30.409Z</time>
      </trkpt>
      <trkpt lat="43.1371042" lon="-2.8013806">
        <ele>187.747</ele>
        <time>2021-04-01T09:27:30.464Z</time>
      </trkpt>
      <trkpt lat="43.1371043" lon="-2.8013832">
        <ele>187.774</ele>
        <time>2021-04-01T09:27:30.519Z</time>
      </trkpt>
      <trkpt lat="43.1371045" lon="-2.8013855">
        <ele>187.784</ele>
        <time>2021-04-01T09:27:30.571Z</time>
      </trkpt>
      <trkpt lat="43.1371049" lon="-2.801388">
        <ele>187.833</ele>
        <time>2021-04-01T09:27:30.623Z</time>
      </trkpt>
      <trkpt lat="43.1371054" lon="-2.8013903">
        <ele>187.829</ele>
        <time>2021-04-01T09:27:30.675Z</time>
      </trkpt>
      <trkpt lat="43.1371057" lon="-2.8013925">
        <ele>187.856</ele>
        <time>2021-04-01T09:27:30.727Z</time>
      </trkpt>
      <trkpt lat="43.1371059" lon="-2.8013949">
        <ele>187.856</ele>
        <time>2021-04-01T09:27:30.779Z</time>
      </trkpt>
      <trkpt lat="43.1371063" lon="-2.8013974">
        <ele>187.915</ele>
        <time>2021-04-01T09:27:30.831Z</time>
      </trkpt>
      <trkpt lat="43.1371066" lon="-2.8013999">
        <ele>187.935</ele>
        <time>2021-04-01T09:27:30.883Z</time>
      </trkpt>
      <trkpt lat="43.1371069" lon="-2.8014012">
        <ele>187.872</ele>
        <time>2021-04-01T09:27:30.935Z</time>
      </trkpt>
      <trkpt lat="43.137107" lon="-2.8014045">
        <ele>187.951</ele>
        <time>2021-04-01T09:27:30.987Z</time>
      </trkpt>
      <trkpt lat="43.1371072" lon="-2.8014073">
        <ele>188.036</ele>
        <time>2021-04-01T09:27:31.040Z</time>
      </trkpt>
      <trkpt lat="43.137107" lon="-2.8014095">
        <ele>188.03</ele>
        <time>2021-04-01T09:27:31.092Z</time>
      </trkpt>
      <trkpt lat="43.1371067" lon="-2.8014127">
        <ele>188.098</ele>
        <time>2021-04-01T09:27:31.144Z</time>
      </trkpt>
      <trkpt lat="43.1371072" lon="-2.801415">
        <ele>188.119</ele>
        <time>2021-04-01T09:27:31.196Z</time>
      </trkpt>
      <trkpt lat="43.1371073" lon="-2.8014173">
        <ele>188.163</ele>
        <time>2021-04-01T09:27:31.248Z</time>
      </trkpt>
      <trkpt lat="43.1371074" lon="-2.8014193">
        <ele>188.134</ele>
        <time>2021-04-01T09:27:31.300Z</time>
      </trkpt>
      <trkpt lat="43.1371077" lon="-2.8014216">
        <ele>188.16</ele>
        <time>2021-04-01T09:27:31.352Z</time>
      </trkpt>
      <trkpt lat="43.1371079" lon="-2.8014241">
        <ele>188.22</ele>
        <time>2021-04-01T09:27:31.404Z</time>
      </trkpt>
      <trkpt lat="43.1371081" lon="-2.8014266">
        <ele>188.255</ele>
        <time>2021-04-01T09:27:31.456Z</time>
      </trkpt>
      <trkpt lat="43.1371081" lon="-2.8014294">
        <ele>188.307</ele>
        <time>2021-04-01T09:27:31.509Z</time>
      </trkpt>
      <trkpt lat="43.137108" lon="-2.801432">
        <ele>188.35</ele>
        <time>2021-04-01T09:27:31.567Z</time>
      </trkpt>
      <trkpt lat="43.137108" lon="-2.8014343">
        <ele>188.35</ele>
        <time>2021-04-01T09:27:31.625Z</time>
      </trkpt>
      <trkpt lat="43.1371081" lon="-2.8014369">
        <ele>188.389</ele>
        <time>2021-04-01T09:27:31.683Z</time>
      </trkpt>
      <trkpt lat="43.1371086" lon="-2.8014393">
        <ele>188.442</ele>
        <time>2021-04-01T09:27:31.741Z</time>
      </trkpt>
      <trkpt lat="43.1371089" lon="-2.8014417">
        <ele>188.467</ele>
        <time>2021-04-01T09:27:31.799Z</time>
      </trkpt>
      <trkpt lat="43.1371091" lon="-2.8014442">
        <ele>188.492</ele>
        <time>2021-04-01T09:27:31.857Z</time>
      </trkpt>
      <trkpt lat="43.1371093" lon="-2.8014467">
        <ele>188.522</ele>
        <time>2021-04-01T09:27:31.915Z</time>
      </trkpt>
      <trkpt lat="43.1371096" lon="-2.8014491">
        <ele>188.534</ele>
        <time>2021-04-01T09:27:31.973Z</time>
      </trkpt>
      <trkpt lat="43.1371097" lon="-2.8014516">
        <ele>188.572</ele>
        <time>2021-04-01T09:27:32.031Z</time>
      </trkpt>
      <trkpt lat="43.1371098" lon="-2.8014536">
        <ele>188.573</ele>
        <time>2021-04-01T09:27:32.089Z</time>
      </trkpt>
      <trkpt lat="43.1371099" lon="-2.8014557">
        <ele>188.563</ele>
        <time>2021-04-01T09:27:32.147Z</time>
      </trkpt>
      <trkpt lat="43.13711" lon="-2.801458">
        <ele>188.588</ele>
        <time>2021-04-01T09:27:32.205Z</time>
      </trkpt>
      <trkpt lat="43.1371101" lon="-2.8014603">
        <ele>188.619</ele>
        <time>2021-04-01T09:27:32.263Z</time>
      </trkpt>
      <trkpt lat="43.1371105" lon="-2.8014625">
        <ele>188.64</ele>
        <time>2021-04-01T09:27:32.321Z</time>
      </trkpt>
      <trkpt lat="43.1371106" lon="-2.8014647">
        <ele>188.673</ele>
        <time>2021-04-01T09:27:32.379Z</time>
      </trkpt>
      <trkpt lat="43.1371107" lon="-2.8014668">
        <ele>188.664</ele>
        <time>2021-04-01T09:27:32.437Z</time>
      </trkpt>
      <trkpt lat="43.137111" lon="-2.8014693">
        <ele>188.676</ele>
        <time>2021-04-01T09:27:32.495Z</time>
      </trkpt>
      <trkpt lat="43.1371113" lon="-2.8014716">
        <ele>188.714</ele>
        <time>2021-04-01T09:27:32.554Z</time>
      </trkpt>
      <trkpt lat="43.1371116" lon="-2.8014741">
        <ele>188.758</ele>
        <time>2021-04-01T09:27:32.612Z</time>
      </trkpt>
      <trkpt lat="43.1371118" lon="-2.8014764">
        <ele>188.761</ele>
        <time>2021-04-01T09:27:32.670Z</time>
      </trkpt>
      <trkpt lat="43.137112" lon="-2.8014786">
        <ele>188.773</ele>
        <time>2021-04-01T09:27:32.728Z</time>
      </trkpt>
      <trkpt lat="43.1371121" lon="-2.8014812">
        <ele>188.814</ele>
        <time>2021-04-01T09:27:32.786Z</time>
      </trkpt>
      <trkpt lat="43.1371124" lon="-2.8014839">
        <ele>188.855</ele>
        <time>2021-04-01T09:27:32.845Z</time>
      </trkpt>
      <trkpt lat="43.1371126" lon="-2.8014861">
        <ele>188.878</ele>
        <time>2021-04-01T09:27:32.903Z</time>
      </trkpt>
      <trkpt lat="43.1371129" lon="-2.8014887">
        <ele>188.925</ele>
        <time>2021-04-01T09:27:32.961Z</time>
      </trkpt>
      <trkpt lat="43.1371129" lon="-2.8014909">
        <ele>188.931</ele>
        <time>2021-04-01T09:27:33.019Z</time>
      </trkpt>
      <trkpt lat="43.137113" lon="-2.8014934">
        <ele>188.969</ele>
        <time>2021-04-01T09:27:33.078Z</time>
      </trkpt>
      <trkpt lat="43.1371132" lon="-2.8014959">
        <ele>188.984</ele>
        <time>2021-04-01T09:27:33.136Z</time>
      </trkpt>
      <trkpt lat="43.1371133" lon="-2.8014985">
        <ele>189.044</ele>
        <time>2021-04-01T09:27:33.194Z</time>
      </trkpt>
      <trkpt lat="43.1371133" lon="-2.801501">
        <ele>189.101</ele>
        <time>2021-04-01T09:27:33.252Z</time>
      </trkpt>
      <trkpt lat="43.1371134" lon="-2.8015034">
        <ele>189.1</ele>
        <time>2021-04-01T09:27:33.311Z</time>
      </trkpt>
      <trkpt lat="43.1371136" lon="-2.8015058">
        <ele>189.133</ele>
        <time>2021-04-01T09:27:33.369Z</time>
      </trkpt>
      <trkpt lat="43.137114" lon="-2.8015079">
        <ele>189.161</ele>
        <time>2021-04-01T09:27:33.427Z</time>
      </trkpt>
      <trkpt lat="43.137114" lon="-2.8015103">
        <ele>189.191</ele>
        <time>2021-04-01T09:27:33.485Z</time>
      </trkpt>
      <trkpt lat="43.1371143" lon="-2.8015129">
        <ele>189.214</ele>
        <time>2021-04-01T09:27:33.544Z</time>
      </trkpt>
      <trkpt lat="43.1371146" lon="-2.8015151">
        <ele>189.241</ele>
        <time>2021-04-01T09:27:33.596Z</time>
      </trkpt>
      <trkpt lat="43.1371149" lon="-2.8015172">
        <ele>189.223</ele>
        <time>2021-04-01T09:27:33.648Z</time>
      </trkpt>
      <trkpt lat="43.1371151" lon="-2.8015195">
        <ele>189.246</ele>
        <time>2021-04-01T09:27:33.700Z</time>
      </trkpt>
      <trkpt lat="43.1371156" lon="-2.8015219">
        <ele>189.288</ele>
        <time>2021-04-01T09:27:33.752Z</time>
      </trkpt>
      <trkpt lat="43.1371157" lon="-2.8015242">
        <ele>189.298</ele>
        <time>2021-04-01T09:27:33.804Z</time>
      </trkpt>
      <trkpt lat="43.1371159" lon="-2.8015266">
        <ele>189.333</ele>
        <time>2021-04-01T09:27:33.856Z</time>
      </trkpt>
      <trkpt lat="43.1371158" lon="-2.801529">
        <ele>189.342</ele>
        <time>2021-04-01T09:27:33.908Z</time>
      </trkpt>
      <trkpt lat="43.1371161" lon="-2.8015317">
        <ele>189.386</ele>
        <time>2021-04-01T09:27:33.960Z</time>
      </trkpt>
      <trkpt lat="43.1371162" lon="-2.8015338">
        <ele>189.38</ele>
        <time>2021-04-01T09:27:34.012Z</time>
      </trkpt>
      <trkpt lat="43.1371165" lon="-2.8015364">
        <ele>189.422</ele>
        <time>2021-04-01T09:27:34.065Z</time>
      </trkpt>
      <trkpt lat="43.1371169" lon="-2.8015384">
        <ele>189.423</ele>
        <time>2021-04-01T09:27:34.117Z</time>
      </trkpt>
      <trkpt lat="43.1371172" lon="-2.8015409">
        <ele>189.469</ele>
        <time>2021-04-01T09:27:34.169Z</time>
      </trkpt>
      <trkpt lat="43.1371173" lon="-2.8015428">
        <ele>189.48</ele>
        <time>2021-04-01T09:27:34.221Z</time>
      </trkpt>
      <trkpt lat="43.1371177" lon="-2.8015453">
        <ele>189.489</ele>
        <time>2021-04-01T09:27:34.273Z</time>
      </trkpt>
      <trkpt lat="43.137118" lon="-2.8015478">
        <ele>189.508</ele>
        <time>2021-04-01T09:27:34.325Z</time>
      </trkpt>
      <trkpt lat="43.1371183" lon="-2.8015506">
        <ele>189.563</ele>
        <time>2021-04-01T09:27:34.377Z</time>
      </trkpt>
      <trkpt lat="43.1371186" lon="-2.8015524">
        <ele>189.554</ele>
        <time>2021-04-01T09:27:34.429Z</time>
      </trkpt>
      <trkpt lat="43.137119" lon="-2.8015545">
        <ele>189.555</ele>
        <time>2021-04-01T09:27:34.481Z</time>
      </trkpt>
      <trkpt lat="43.1371192" lon="-2.8015568">
        <ele>189.577</ele>
        <time>2021-04-01T09:27:34.534Z</time>
      </trkpt>
      <trkpt lat="43.1371196" lon="-2.8015587">
        <ele>189.595</ele>
        <time>2021-04-01T09:27:34.589Z</time>
      </trkpt>
      <trkpt lat="43.1371202" lon="-2.8015608">
        <ele>189.604</ele>
        <time>2021-04-01T09:27:34.644Z</time>
      </trkpt>
      <trkpt lat="43.1371205" lon="-2.801563">
        <ele>189.607</ele>
        <time>2021-04-01T09:27:34.699Z</time>
      </trkpt>
      <trkpt lat="43.1371206" lon="-2.8015654">
        <ele>189.643</ele>
        <time>2021-04-01T09:27:34.754Z</time>
      </trkpt>
      <trkpt lat="43.1371208" lon="-2.8015677">
        <ele>189.664</ele>
        <time>2021-04-01T09:27:34.809Z</time>
      </trkpt>
      <trkpt lat="43.1371215" lon="-2.8015702">
        <ele>189.71</ele>
        <time>2021-04-01T09:27:34.864Z</time>
      </trkpt>
      <trkpt lat="43.1371221" lon="-2.8015724">
        <ele>189.71</ele>
        <time>2021-04-01T09:27:34.919Z</time>
      </trkpt>
      <trkpt lat="43.1371224" lon="-2.8015745">
        <ele>189.742</ele>
        <time>2021-04-01T09:27:34.974Z</time>
      </trkpt>
      <trkpt lat="43.1371228" lon="-2.8015766">
        <ele>189.779</ele>
        <time>2021-04-01T09:27:35.029Z</time>
      </trkpt>
      <trkpt lat="43.1371231" lon="-2.8015789">
        <ele>189.792</ele>
        <time>2021-04-01T09:27:35.084Z</time>
      </trkpt>
      <trkpt lat="43.1371233" lon="-2.8015812">
        <ele>189.804</ele>
        <time>2021-04-01T09:27:35.139Z</time>
      </trkpt>
      <trkpt lat="43.1371235" lon="-2.8015836">
        <ele>189.825</ele>
        <time>2021-04-01T09:27:35.194Z</time>
      </trkpt>
      <trkpt lat="43.1371237" lon="-2.8015858">
        <ele>189.833</ele>
        <time>2021-04-01T09:27:35.249Z</time>
      </trkpt>
      <trkpt lat="43.1371243" lon="-2.801588">
        <ele>189.824</ele>
        <time>2021-04-01T09:27:35.304Z</time>
      </trkpt>
      <trkpt lat="43.1371245" lon="-2.8015903">
        <ele>189.847</ele>
        <time>2021-04-01T09:27:35.359Z</time>
      </trkpt>
      <trkpt lat="43.1371246" lon="-2.8015926">
        <ele>189.887</ele>
        <time>2021-04-01T09:27:35.414Z</time>
      </trkpt>
      <trkpt lat="43.1371251" lon="-2.8015949">
        <ele>189.9</ele>
        <time>2021-04-01T09:27:35.469Z</time>
      </trkpt>
      <trkpt lat="43.1371258" lon="-2.8015967">
        <ele>189.913</ele>
        <time>2021-04-01T09:27:35.524Z</time>
      </trkpt>
      <trkpt lat="43.137126" lon="-2.8015988">
        <ele>189.882</ele>
        <time>2021-04-01T09:27:35.576Z</time>
      </trkpt>
      <trkpt lat="43.1371266" lon="-2.8016007">
        <ele>189.864</ele>
        <time>2021-04-01T09:27:35.628Z</time>
      </trkpt>
      <trkpt lat="43.1371267" lon="-2.8016024">
        <ele>189.843</ele>
        <time>2021-04-01T09:27:35.680Z</time>
      </trkpt>
      <trkpt lat="43.1371275" lon="-2.8016041">
        <ele>189.805</ele>
        <time>2021-04-01T09:27:35.732Z</time>
      </trkpt>
      <trkpt lat="43.1371278" lon="-2.8016063">
        <ele>189.827</ele>
        <time>2021-04-01T09:27:35.784Z</time>
      </trkpt>
      <trkpt lat="43.1371283" lon="-2.8016083">
        <ele>189.817</ele>
        <time>2021-04-01T09:27:35.836Z</time>
      </trkpt>
      <trkpt lat="43.1371286" lon="-2.8016106">
        <ele>189.827</ele>
        <time>2021-04-01T09:27:35.888Z</time>
      </trkpt>
      <trkpt lat="43.1371289" lon="-2.8016126">
        <ele>189.827</ele>
        <time>2021-04-01T09:27:35.940Z</time>
      </trkpt>
      <trkpt lat="43.1371298" lon="-2.8016146">
        <ele>189.761</ele>
        <time>2021-04-01T09:27:35.992Z</time>
      </trkpt>
      <trkpt lat="43.1371303" lon="-2.8016166">
        <ele>189.766</ele>
        <time>2021-04-01T09:27:36.045Z</time>
      </trkpt>
      <trkpt lat="43.1371309" lon="-2.8016183">
        <ele>189.778</ele>
        <time>2021-04-01T09:27:36.097Z</time>
      </trkpt>
      <trkpt lat="43.1371312" lon="-2.8016206">
        <ele>189.806</ele>
        <time>2021-04-01T09:27:36.149Z</time>
      </trkpt>
      <trkpt lat="43.1371319" lon="-2.8016232">
        <ele>189.828</ele>
        <time>2021-04-01T09:27:36.201Z</time>
      </trkpt>
      <trkpt lat="43.1371326" lon="-2.8016256">
        <ele>189.85</ele>
        <time>2021-04-01T09:27:36.253Z</time>
      </trkpt>
      <trkpt lat="43.137133" lon="-2.8016272">
        <ele>189.776</ele>
        <time>2021-04-01T09:27:36.305Z</time>
      </trkpt>
      <trkpt lat="43.1371334" lon="-2.8016292">
        <ele>189.765</ele>
        <time>2021-04-01T09:27:36.357Z</time>
      </trkpt>
      <trkpt lat="43.1371337" lon="-2.8016314">
        <ele>189.789</ele>
        <time>2021-04-01T09:27:36.409Z</time>
      </trkpt>
      <trkpt lat="43.1371341" lon="-2.8016335">
        <ele>189.774</ele>
        <time>2021-04-01T09:27:36.461Z</time>
      </trkpt>
      <trkpt lat="43.1371343" lon="-2.8016353">
        <ele>189.753</ele>
        <time>2021-04-01T09:27:36.514Z</time>
      </trkpt>
      <trkpt lat="43.1371347" lon="-2.801637">
        <ele>189.73</ele>
        <time>2021-04-01T09:27:36.569Z</time>
      </trkpt>
      <trkpt lat="43.137135" lon="-2.801639">
        <ele>189.706</ele>
        <time>2021-04-01T09:27:36.624Z</time>
      </trkpt>
      <trkpt lat="43.1371353" lon="-2.8016411">
        <ele>189.677</ele>
        <time>2021-04-01T09:27:36.679Z</time>
      </trkpt>
      <trkpt lat="43.1371356" lon="-2.8016428">
        <ele>189.657</ele>
        <time>2021-04-01T09:27:36.734Z</time>
      </trkpt>
      <trkpt lat="43.1371359" lon="-2.8016445">
        <ele>189.627</ele>
        <time>2021-04-01T09:27:36.789Z</time>
      </trkpt>
      <trkpt lat="43.1371361" lon="-2.8016461">
        <ele>189.572</ele>
        <time>2021-04-01T09:27:36.844Z</time>
      </trkpt>
      <trkpt lat="43.1371363" lon="-2.8016481">
        <ele>189.499</ele>
        <time>2021-04-01T09:27:36.899Z</time>
      </trkpt>
      <trkpt lat="43.1371362" lon="-2.80165">
        <ele>189.456</ele>
        <time>2021-04-01T09:27:36.954Z</time>
      </trkpt>
      <trkpt lat="43.1371363" lon="-2.8016517">
        <ele>189.442</ele>
        <time>2021-04-01T09:27:37.009Z</time>
      </trkpt>
      <trkpt lat="43.1371363" lon="-2.8016533">
        <ele>189.447</ele>
        <time>2021-04-01T09:27:37.064Z</time>
      </trkpt>
      <trkpt lat="43.1371368" lon="-2.8016553">
        <ele>189.421</ele>
        <time>2021-04-01T09:27:37.119Z</time>
      </trkpt>
      <trkpt lat="43.1371372" lon="-2.8016575">
        <ele>189.382</ele>
        <time>2021-04-01T09:27:37.174Z</time>
      </trkpt>
      <trkpt lat="43.1371372" lon="-2.8016599">
        <ele>189.439</ele>
        <time>2021-04-01T09:27:37.229Z</time>
      </trkpt>
      <trkpt lat="43.137138" lon="-2.8016621">
        <ele>189.472</ele>
        <time>2021-04-01T09:27:37.284Z</time>
      </trkpt>
      <trkpt lat="43.1371385" lon="-2.8016643">
        <ele>189.459</ele>
        <time>2021-04-01T09:27:37.339Z</time>
      </trkpt>
      <trkpt lat="43.1371389" lon="-2.8016661">
        <ele>189.394</ele>
        <time>2021-04-01T09:27:37.394Z</time>
      </trkpt>
      <trkpt lat="43.1371395" lon="-2.801668">
        <ele>189.372</ele>
        <time>2021-04-01T09:27:37.449Z</time>
      </trkpt>
      <trkpt lat="43.1371399" lon="-2.8016702">
        <ele>189.37</ele>
        <time>2021-04-01T09:27:37.504Z</time>
      </trkpt>
      <trkpt lat="43.1371404" lon="-2.8016724">
        <ele>189.399</ele>
        <time>2021-04-01T09:27:37.565Z</time>
      </trkpt>
      <trkpt lat="43.1371408" lon="-2.8016746">
        <ele>189.383</ele>
        <time>2021-04-01T09:27:37.626Z</time>
      </trkpt>
      <trkpt lat="43.1371414" lon="-2.8016768">
        <ele>189.377</ele>
        <time>2021-04-01T09:27:37.688Z</time>
      </trkpt>
      <trkpt lat="43.1371421" lon="-2.801679">
        <ele>189.391</ele>
        <time>2021-04-01T09:27:37.749Z</time>
      </trkpt>
      <trkpt lat="43.1371429" lon="-2.8016811">
        <ele>189.379</ele>
        <time>2021-04-01T09:27:37.811Z</time>
      </trkpt>
      <trkpt lat="43.1371435" lon="-2.8016832">
        <ele>189.365</ele>
        <time>2021-04-01T09:27:37.872Z</time>
      </trkpt>
      <trkpt lat="43.137144" lon="-2.8016852">
        <ele>189.37</ele>
        <time>2021-04-01T09:27:37.934Z</time>
      </trkpt>
      <trkpt lat="43.1371445" lon="-2.8016871">
        <ele>189.389</ele>
        <time>2021-04-01T09:27:37.995Z</time>
      </trkpt>
      <trkpt lat="43.1371449" lon="-2.8016893">
        <ele>189.383</ele>
        <time>2021-04-01T09:27:38.057Z</time>
      </trkpt>
      <trkpt lat="43.1371454" lon="-2.801692">
        <ele>189.428</ele>
        <time>2021-04-01T09:27:38.118Z</time>
      </trkpt>
      <trkpt lat="43.1371463" lon="-2.8016939">
        <ele>189.425</ele>
        <time>2021-04-01T09:27:38.180Z</time>
      </trkpt>
      <trkpt lat="43.1371473" lon="-2.8016962">
        <ele>189.479</ele>
        <time>2021-04-01T09:27:38.241Z</time>
      </trkpt>
      <trkpt lat="43.137148" lon="-2.8016985">
        <ele>189.506</ele>
        <time>2021-04-01T09:27:38.303Z</time>
      </trkpt>
      <trkpt lat="43.1371486" lon="-2.801701">
        <ele>189.54</ele>
        <time>2021-04-01T09:27:38.364Z</time>
      </trkpt>
      <trkpt lat="43.1371493" lon="-2.8017037">
        <ele>189.623</ele>
        <time>2021-04-01T09:27:38.426Z</time>
      </trkpt>
      <trkpt lat="43.1371502" lon="-2.801706">
        <ele>189.641</ele>
        <time>2021-04-01T09:27:38.487Z</time>
      </trkpt>
      <trkpt lat="43.1371509" lon="-2.8017083">
        <ele>189.623</ele>
        <time>2021-04-01T09:27:38.549Z</time>
      </trkpt>
      <trkpt lat="43.1371516" lon="-2.8017112">
        <ele>189.628</ele>
        <time>2021-04-01T09:27:38.601Z</time>
      </trkpt>
      <trkpt lat="43.1371524" lon="-2.8017137">
        <ele>189.659</ele>
        <time>2021-04-01T09:27:38.653Z</time>
      </trkpt>
      <trkpt lat="43.1371531" lon="-2.8017157">
        <ele>189.642</ele>
        <time>2021-04-01T09:27:38.705Z</time>
      </trkpt>
      <trkpt lat="43.1371537" lon="-2.8017182">
        <ele>189.703</ele>
        <time>2021-04-01T09:27:38.757Z</time>
      </trkpt>
      <trkpt lat="43.1371548" lon="-2.801721">
        <ele>189.762</ele>
        <time>2021-04-01T09:27:38.809Z</time>
      </trkpt>
      <trkpt lat="43.1371557" lon="-2.801723">
        <ele>189.78</ele>
        <time>2021-04-01T09:27:38.861Z</time>
      </trkpt>
      <trkpt lat="43.1371566" lon="-2.801725">
        <ele>189.71</ele>
        <time>2021-04-01T09:27:38.913Z</time>
      </trkpt>
      <trkpt lat="43.1371575" lon="-2.8017273">
        <ele>189.758</ele>
        <time>2021-04-01T09:27:38.965Z</time>
      </trkpt>
      <trkpt lat="43.1371584" lon="-2.8017295">
        <ele>189.879</ele>
        <time>2021-04-01T09:27:39.017Z</time>
      </trkpt>
      <trkpt lat="43.1371592" lon="-2.8017322">
        <ele>189.976</ele>
        <time>2021-04-01T09:27:39.070Z</time>
      </trkpt>
      <trkpt lat="43.1371603" lon="-2.8017348">
        <ele>190.057</ele>
        <time>2021-04-01T09:27:39.122Z</time>
      </trkpt>
      <trkpt lat="43.1371612" lon="-2.8017371">
        <ele>190.111</ele>
        <time>2021-04-01T09:27:39.174Z</time>
      </trkpt>
      <trkpt lat="43.1371624" lon="-2.8017389">
        <ele>190.093</ele>
        <time>2021-04-01T09:27:39.226Z</time>
      </trkpt>
      <trkpt lat="43.1371632" lon="-2.8017414">
        <ele>190.148</ele>
        <time>2021-04-01T09:27:39.278Z</time>
      </trkpt>
      <trkpt lat="43.137164" lon="-2.8017441">
        <ele>190.265</ele>
        <time>2021-04-01T09:27:39.330Z</time>
      </trkpt>
      <trkpt lat="43.1371647" lon="-2.8017467">
        <ele>190.355</ele>
        <time>2021-04-01T09:27:39.382Z</time>
      </trkpt>
      <trkpt lat="43.1371654" lon="-2.8017491">
        <ele>190.38</ele>
        <time>2021-04-01T09:27:39.434Z</time>
      </trkpt>
      <trkpt lat="43.1371663" lon="-2.8017513">
        <ele>190.382</ele>
        <time>2021-04-01T09:27:39.486Z</time>
      </trkpt>
      <trkpt lat="43.1371674" lon="-2.8017534">
        <ele>190.362</ele>
        <time>2021-04-01T09:27:39.539Z</time>
      </trkpt>
      <trkpt lat="43.1371682" lon="-2.8017555">
        <ele>190.369</ele>
        <time>2021-04-01T09:27:39.594Z</time>
      </trkpt>
      <trkpt lat="43.1371688" lon="-2.8017575">
        <ele>190.423</ele>
        <time>2021-04-01T09:27:39.649Z</time>
      </trkpt>
      <trkpt lat="43.1371694" lon="-2.8017597">
        <ele>190.466</ele>
        <time>2021-04-01T09:27:39.704Z</time>
      </trkpt>
      <trkpt lat="43.1371701" lon="-2.8017617">
        <ele>190.486</ele>
        <time>2021-04-01T09:27:39.759Z</time>
      </trkpt>
      <trkpt lat="43.1371707" lon="-2.8017644">
        <ele>190.582</ele>
        <time>2021-04-01T09:27:39.814Z</time>
      </trkpt>
      <trkpt lat="43.1371713" lon="-2.8017667">
        <ele>190.587</ele>
        <time>2021-04-01T09:27:39.869Z</time>
      </trkpt>
      <trkpt lat="43.1371722" lon="-2.8017682">
        <ele>190.58</ele>
        <time>2021-04-01T09:27:39.924Z</time>
      </trkpt>
      <trkpt lat="43.1371729" lon="-2.8017704">
        <ele>190.648</ele>
        <time>2021-04-01T09:27:39.979Z</time>
      </trkpt>
      <trkpt lat="43.1371738" lon="-2.801772">
        <ele>190.661</ele>
        <time>2021-04-01T09:27:40.034Z</time>
      </trkpt>
      <trkpt lat="43.1371744" lon="-2.8017742">
        <ele>190.687</ele>
        <time>2021-04-01T09:27:40.089Z</time>
      </trkpt>
      <trkpt lat="43.1371752" lon="-2.8017764">
        <ele>190.677</ele>
        <time>2021-04-01T09:27:40.144Z</time>
      </trkpt>
      <trkpt lat="43.1371762" lon="-2.8017783">
        <ele>190.664</ele>
        <time>2021-04-01T09:27:40.199Z</time>
      </trkpt>
      <trkpt lat="43.1371769" lon="-2.8017802">
        <ele>190.705</ele>
        <time>2021-04-01T09:27:40.254Z</time>
      </trkpt>
      <trkpt lat="43.1371779" lon="-2.8017824">
        <ele>190.684</ele>
        <time>2021-04-01T09:27:40.309Z</time>
      </trkpt>
      <trkpt lat="43.1371787" lon="-2.8017847">
        <ele>190.701</ele>
        <time>2021-04-01T09:27:40.364Z</time>
      </trkpt>
      <trkpt lat="43.1371799" lon="-2.8017866">
        <ele>190.741</ele>
        <time>2021-04-01T09:27:40.419Z</time>
      </trkpt>
      <trkpt lat="43.1371809" lon="-2.8017886">
        <ele>190.776</ele>
        <time>2021-04-01T09:27:40.474Z</time>
      </trkpt>
      <trkpt lat="43.1371813" lon="-2.8017904">
        <ele>190.805</ele>
        <time>2021-04-01T09:27:40.529Z</time>
      </trkpt>
      <trkpt lat="43.1371822" lon="-2.8017923">
        <ele>190.751</ele>
        <time>2021-04-01T09:27:40.581Z</time>
      </trkpt>
      <trkpt lat="43.1371829" lon="-2.8017944">
        <ele>190.773</ele>
        <time>2021-04-01T09:27:40.633Z</time>
      </trkpt>
      <trkpt lat="43.1371837" lon="-2.8017963">
        <ele>190.798</ele>
        <time>2021-04-01T09:27:40.685Z</time>
      </trkpt>
      <trkpt lat="43.1371848" lon="-2.8017986">
        <ele>190.834</ele>
        <time>2021-04-01T09:27:40.737Z</time>
      </trkpt>
      <trkpt lat="43.1371859" lon="-2.8018004">
        <ele>190.838</ele>
        <time>2021-04-01T09:27:40.789Z</time>
      </trkpt>
      <trkpt lat="43.1371868" lon="-2.8018023">
        <ele>190.817</ele>
        <time>2021-04-01T09:27:40.841Z</time>
      </trkpt>
      <trkpt lat="43.1371877" lon="-2.8018042">
        <ele>190.804</ele>
        <time>2021-04-01T09:27:40.893Z</time>
      </trkpt>
      <trkpt lat="43.1371883" lon="-2.8018064">
        <ele>190.854</ele>
        <time>2021-04-01T09:27:40.945Z</time>
      </trkpt>
      <trkpt lat="43.1371887" lon="-2.8018086">
        <ele>190.879</ele>
        <time>2021-04-01T09:27:40.997Z</time>
      </trkpt>
      <trkpt lat="43.1371892" lon="-2.8018105">
        <ele>190.87</ele>
        <time>2021-04-01T09:27:41.050Z</time>
      </trkpt>
      <trkpt lat="43.1371898" lon="-2.8018121">
        <ele>190.831</ele>
        <time>2021-04-01T09:27:41.102Z</time>
      </trkpt>
      <trkpt lat="43.1371906" lon="-2.8018136">
        <ele>190.756</ele>
        <time>2021-04-01T09:27:41.154Z</time>
      </trkpt>
      <trkpt lat="43.1371911" lon="-2.8018153">
        <ele>190.768</ele>
        <time>2021-04-01T09:27:41.206Z</time>
      </trkpt>
      <trkpt lat="43.1371917" lon="-2.801817">
        <ele>190.748</ele>
        <time>2021-04-01T09:27:41.258Z</time>
      </trkpt>
      <trkpt lat="43.1371923" lon="-2.8018191">
        <ele>190.736</ele>
        <time>2021-04-01T09:27:41.310Z</time>
      </trkpt>
      <trkpt lat="43.1371932" lon="-2.8018208">
        <ele>190.682</ele>
        <time>2021-04-01T09:27:41.362Z</time>
      </trkpt>
      <trkpt lat="43.1371937" lon="-2.8018231">
        <ele>190.686</ele>
        <time>2021-04-01T09:27:41.414Z</time>
      </trkpt>
      <trkpt lat="43.1371947" lon="-2.8018247">
        <ele>190.71</ele>
        <time>2021-04-01T09:27:41.466Z</time>
      </trkpt>
      <trkpt lat="43.1371954" lon="-2.8018263">
        <ele>190.679</ele>
        <time>2021-04-01T09:27:41.519Z</time>
      </trkpt>
      <trkpt lat="43.1371956" lon="-2.8018278">
        <ele>190.631</ele>
        <time>2021-04-01T09:27:41.577Z</time>
      </trkpt>
      <trkpt lat="43.1371962" lon="-2.8018295">
        <ele>190.61</ele>
        <time>2021-04-01T09:27:41.635Z</time>
      </trkpt>
      <trkpt lat="43.1371967" lon="-2.8018309">
        <ele>190.551</ele>
        <time>2021-04-01T09:27:41.693Z</time>
      </trkpt>
      <trkpt lat="43.1371974" lon="-2.8018327">
        <ele>190.575</ele>
        <time>2021-04-01T09:27:41.751Z</time>
      </trkpt>
      <trkpt lat="43.1371982" lon="-2.8018352">
        <ele>190.634</ele>
        <time>2021-04-01T09:27:41.810Z</time>
      </trkpt>
      <trkpt lat="43.1371988" lon="-2.8018372">
        <ele>190.641</ele>
        <time>2021-04-01T09:27:41.868Z</time>
      </trkpt>
      <trkpt lat="43.1372001" lon="-2.8018387">
        <ele>190.65</ele>
        <time>2021-04-01T09:27:41.926Z</time>
      </trkpt>
      <trkpt lat="43.1372008" lon="-2.80184">
        <ele>190.618</ele>
        <time>2021-04-01T09:27:41.984Z</time>
      </trkpt>
      <trkpt lat="43.1372014" lon="-2.8018422">
        <ele>190.661</ele>
        <time>2021-04-01T09:27:42.043Z</time>
      </trkpt>
      <trkpt lat="43.137202" lon="-2.8018441">
        <ele>190.629</ele>
        <time>2021-04-01T09:27:42.101Z</time>
      </trkpt>
      <trkpt lat="43.1372027" lon="-2.8018469">
        <ele>190.64</ele>
        <time>2021-04-01T09:27:42.159Z</time>
      </trkpt>
      <trkpt lat="43.1372028" lon="-2.8018494">
        <ele>190.715</ele>
        <time>2021-04-01T09:27:42.217Z</time>
      </trkpt>
      <trkpt lat="43.1372037" lon="-2.8018515">
        <ele>190.723</ele>
        <time>2021-04-01T09:27:42.276Z</time>
      </trkpt>
      <trkpt lat="43.1372044" lon="-2.8018541">
        <ele>190.702</ele>
        <time>2021-04-01T09:27:42.334Z</time>
      </trkpt>
      <trkpt lat="43.1372049" lon="-2.8018565">
        <ele>190.697</ele>
        <time>2021-04-01T09:27:42.392Z</time>
      </trkpt>
      <trkpt lat="43.1372049" lon="-2.8018584">
        <ele>190.665</ele>
        <time>2021-04-01T09:27:42.450Z</time>
      </trkpt>
      <trkpt lat="43.1372053" lon="-2.8018606">
        <ele>190.654</ele>
        <time>2021-04-01T09:27:42.509Z</time>
      </trkpt>
      <trkpt lat="43.1372056" lon="-2.8018624">
        <ele>190.598</ele>
        <time>2021-04-01T09:27:42.564Z</time>
      </trkpt>
      <trkpt lat="43.1372061" lon="-2.8018644">
        <ele>190.559</ele>
        <time>2021-04-01T09:27:42.619Z</time>
      </trkpt>
      <trkpt lat="43.1372069" lon="-2.8018661">
        <ele>190.525</ele>
        <time>2021-04-01T09:27:42.674Z</time>
      </trkpt>
      <trkpt lat="43.1372081" lon="-2.8018679">
        <ele>190.542</ele>
        <time>2021-04-01T09:27:42.729Z</time>
      </trkpt>
      <trkpt lat="43.1372093" lon="-2.8018699">
        <ele>190.504</ele>
        <time>2021-04-01T09:27:42.784Z</time>
      </trkpt>
      <trkpt lat="43.1372103" lon="-2.8018719">
        <ele>190.465</ele>
        <time>2021-04-01T09:27:42.839Z</time>
      </trkpt>
      <trkpt lat="43.1372114" lon="-2.8018737">
        <ele>190.49</ele>
        <time>2021-04-01T09:27:42.894Z</time>
      </trkpt>
      <trkpt lat="43.1372122" lon="-2.8018753">
        <ele>190.48</ele>
        <time>2021-04-01T09:27:42.949Z</time>
      </trkpt>
      <trkpt lat="43.1372132" lon="-2.801877">
        <ele>190.457</ele>
        <time>2021-04-01T09:27:43.004Z</time>
      </trkpt>
      <trkpt lat="43.1372141" lon="-2.8018784">
        <ele>190.359</ele>
        <time>2021-04-01T09:27:43.059Z</time>
      </trkpt>
      <trkpt lat="43.1372147" lon="-2.8018795">
        <ele>190.283</ele>
        <time>2021-04-01T09:27:43.114Z</time>
      </trkpt>
      <trkpt lat="43.1372155" lon="-2.801881">
        <ele>190.219</ele>
        <time>2021-04-01T09:27:43.169Z</time>
      </trkpt>
      <trkpt lat="43.137216" lon="-2.8018825">
        <ele>190.138</ele>
        <time>2021-04-01T09:27:43.224Z</time>
      </trkpt>
      <trkpt lat="43.1372166" lon="-2.8018841">
        <ele>190.091</ele>
        <time>2021-04-01T09:27:43.279Z</time>
      </trkpt>
      <trkpt lat="43.1372171" lon="-2.8018855">
        <ele>190.045</ele>
        <time>2021-04-01T09:27:43.334Z</time>
      </trkpt>
      <trkpt lat="43.1372179" lon="-2.8018867">
        <ele>189.986</ele>
        <time>2021-04-01T09:27:43.389Z</time>
      </trkpt>
      <trkpt lat="43.1372188" lon="-2.801888">
        <ele>189.899</ele>
        <time>2021-04-01T09:27:43.444Z</time>
      </trkpt>
      <trkpt lat="43.1372196" lon="-2.8018898">
        <ele>189.869</ele>
        <time>2021-04-01T09:27:43.499Z</time>
      </trkpt>
      <trkpt lat="43.1372203" lon="-2.8018914">
        <ele>189.827</ele>
        <time>2021-04-01T09:27:43.554Z</time>
      </trkpt>
      <trkpt lat="43.1372212" lon="-2.8018931">
        <ele>189.803</ele>
        <time>2021-04-01T09:27:43.609Z</time>
      </trkpt>
      <trkpt lat="43.1372219" lon="-2.801895">
        <ele>189.758</ele>
        <time>2021-04-01T09:27:43.664Z</time>
      </trkpt>
      <trkpt lat="43.1372221" lon="-2.8018972">
        <ele>189.691</ele>
        <time>2021-04-01T09:27:43.719Z</time>
      </trkpt>
      <trkpt lat="43.1372229" lon="-2.8018989">
        <ele>189.658</ele>
        <time>2021-04-01T09:27:43.774Z</time>
      </trkpt>
      <trkpt lat="43.1372234" lon="-2.8019008">
        <ele>189.604</ele>
        <time>2021-04-01T09:27:43.829Z</time>
      </trkpt>
      <trkpt lat="43.1372242" lon="-2.801903">
        <ele>189.566</ele>
        <time>2021-04-01T09:27:43.884Z</time>
      </trkpt>
      <trkpt lat="43.1372252" lon="-2.8019049">
        <ele>189.564</ele>
        <time>2021-04-01T09:27:43.939Z</time>
      </trkpt>
      <trkpt lat="43.137226" lon="-2.8019071">
        <ele>189.591</ele>
        <time>2021-04-01T09:27:43.994Z</time>
      </trkpt>
      <trkpt lat="43.1372267" lon="-2.8019096">
        <ele>189.614</ele>
        <time>2021-04-01T09:27:44.049Z</time>
      </trkpt>
      <trkpt lat="43.1372272" lon="-2.8019115">
        <ele>189.544</ele>
        <time>2021-04-01T09:27:44.104Z</time>
      </trkpt>
      <trkpt lat="43.1372275" lon="-2.8019134">
        <ele>189.509</ele>
        <time>2021-04-01T09:27:44.159Z</time>
      </trkpt>
      <trkpt lat="43.1372279" lon="-2.8019157">
        <ele>189.546</ele>
        <time>2021-04-01T09:27:44.214Z</time>
      </trkpt>
      <trkpt lat="43.1372287" lon="-2.8019176">
        <ele>189.56</ele>
        <time>2021-04-01T09:27:44.269Z</time>
      </trkpt>
      <trkpt lat="43.1372293" lon="-2.8019195">
        <ele>189.549</ele>
        <time>2021-04-01T09:27:44.324Z</time>
      </trkpt>
      <trkpt lat="43.13723" lon="-2.8019212">
        <ele>189.466</ele>
        <time>2021-04-01T09:27:44.379Z</time>
      </trkpt>
      <trkpt lat="43.1372307" lon="-2.8019236">
        <ele>189.453</ele>
        <time>2021-04-01T09:27:44.434Z</time>
      </trkpt>
      <trkpt lat="43.1372313" lon="-2.8019258">
        <ele>189.447</ele>
        <time>2021-04-01T09:27:44.489Z</time>
      </trkpt>
      <trkpt lat="43.1372318" lon="-2.8019275">
        <ele>189.418</ele>
        <time>2021-04-01T09:27:44.544Z</time>
      </trkpt>
      <trkpt lat="43.1372326" lon="-2.8019294">
        <ele>189.407</ele>
        <time>2021-04-01T09:27:44.599Z</time>
      </trkpt>
      <trkpt lat="43.1372334" lon="-2.8019318">
        <ele>189.437</ele>
        <time>2021-04-01T09:27:44.654Z</time>
      </trkpt>
      <trkpt lat="43.137234" lon="-2.8019338">
        <ele>189.404</ele>
        <time>2021-04-01T09:27:44.709Z</time>
      </trkpt>
      <trkpt lat="43.1372346" lon="-2.8019359">
        <ele>189.412</ele>
        <time>2021-04-01T09:27:44.764Z</time>
      </trkpt>
      <trkpt lat="43.1372352" lon="-2.801938">
        <ele>189.418</ele>
        <time>2021-04-01T09:27:44.819Z</time>
      </trkpt>
      <trkpt lat="43.1372359" lon="-2.8019401">
        <ele>189.427</ele>
        <time>2021-04-01T09:27:44.874Z</time>
      </trkpt>
      <trkpt lat="43.1372363" lon="-2.8019424">
        <ele>189.409</ele>
        <time>2021-04-01T09:27:44.929Z</time>
      </trkpt>
      <trkpt lat="43.1372368" lon="-2.8019438">
        <ele>189.319</ele>
        <time>2021-04-01T09:27:44.984Z</time>
      </trkpt>
      <trkpt lat="43.1372374" lon="-2.8019458">
        <ele>189.294</ele>
        <time>2021-04-01T09:27:45.039Z</time>
      </trkpt>
      <trkpt lat="43.1372381" lon="-2.8019475">
        <ele>189.223</ele>
        <time>2021-04-01T09:27:45.094Z</time>
      </trkpt>
      <trkpt lat="43.1372388" lon="-2.8019492">
        <ele>189.193</ele>
        <time>2021-04-01T09:27:45.149Z</time>
      </trkpt>
      <trkpt lat="43.1372395" lon="-2.8019509">
        <ele>189.133</ele>
        <time>2021-04-01T09:27:45.204Z</time>
      </trkpt>
      <trkpt lat="43.1372402" lon="-2.8019532">
        <ele>189.106</ele>
        <time>2021-04-01T09:27:45.259Z</time>
      </trkpt>
      <trkpt lat="43.1372409" lon="-2.8019555">
        <ele>189.06</ele>
        <time>2021-04-01T09:27:45.314Z</time>
      </trkpt>
      <trkpt lat="43.1372418" lon="-2.8019581">
        <ele>189.092</ele>
        <time>2021-04-01T09:27:45.369Z</time>
      </trkpt>
      <trkpt lat="43.1372425" lon="-2.8019602">
        <ele>189.117</ele>
        <time>2021-04-01T09:27:45.424Z</time>
      </trkpt>
      <trkpt lat="43.1372432" lon="-2.8019618">
        <ele>189.055</ele>
        <time>2021-04-01T09:27:45.479Z</time>
      </trkpt>
      <trkpt lat="43.1372436" lon="-2.8019636">
        <ele>188.99</ele>
        <time>2021-04-01T09:27:45.534Z</time>
      </trkpt>
      <trkpt lat="43.1372441" lon="-2.8019655">
        <ele>188.949</ele>
        <time>2021-04-01T09:27:45.586Z</time>
      </trkpt>
      <trkpt lat="43.1372444" lon="-2.8019678">
        <ele>188.965</ele>
        <time>2021-04-01T09:27:45.638Z</time>
      </trkpt>
      <trkpt lat="43.1372454" lon="-2.8019701">
        <ele>189.007</ele>
        <time>2021-04-01T09:27:45.690Z</time>
      </trkpt>
      <trkpt lat="43.1372462" lon="-2.8019723">
        <ele>189.006</ele>
        <time>2021-04-01T09:27:45.742Z</time>
      </trkpt>
      <trkpt lat="43.1372466" lon="-2.8019743">
        <ele>189.009</ele>
        <time>2021-04-01T09:27:45.794Z</time>
      </trkpt>
      <trkpt lat="43.1372471" lon="-2.8019768">
        <ele>189.02</ele>
        <time>2021-04-01T09:27:45.846Z</time>
      </trkpt>
      <trkpt lat="43.1372476" lon="-2.8019787">
        <ele>188.99</ele>
        <time>2021-04-01T09:27:45.898Z</time>
      </trkpt>
      <trkpt lat="43.1372481" lon="-2.8019808">
        <ele>189.029</ele>
        <time>2021-04-01T09:27:45.950Z</time>
      </trkpt>
      <trkpt lat="43.1372486" lon="-2.8019829">
        <ele>189.03</ele>
        <time>2021-04-01T09:27:46.002Z</time>
      </trkpt>
      <trkpt lat="43.1372494" lon="-2.801985">
        <ele>189.043</ele>
        <time>2021-04-01T09:27:46.055Z</time>
      </trkpt>
      <trkpt lat="43.1372497" lon="-2.8019875">
        <ele>189.043</ele>
        <time>2021-04-01T09:27:46.107Z</time>
      </trkpt>
      <trkpt lat="43.1372497" lon="-2.8019895">
        <ele>189.065</ele>
        <time>2021-04-01T09:27:46.159Z</time>
      </trkpt>
      <trkpt lat="43.1372498" lon="-2.8019921">
        <ele>189.109</ele>
        <time>2021-04-01T09:27:46.211Z</time>
      </trkpt>
      <trkpt lat="43.1372504" lon="-2.8019939">
        <ele>189.069</ele>
        <time>2021-04-01T09:27:46.263Z</time>
      </trkpt>
      <trkpt lat="43.137251" lon="-2.801996">
        <ele>189.076</ele>
        <time>2021-04-01T09:27:46.315Z</time>
      </trkpt>
      <trkpt lat="43.1372515" lon="-2.8019979">
        <ele>189.038</ele>
        <time>2021-04-01T09:27:46.367Z</time>
      </trkpt>
      <trkpt lat="43.1372521" lon="-2.8020003">
        <ele>189.029</ele>
        <time>2021-04-01T09:27:46.419Z</time>
      </trkpt>
      <trkpt lat="43.1372527" lon="-2.8020025">
        <ele>189.027</ele>
        <time>2021-04-01T09:27:46.471Z</time>
      </trkpt>
      <trkpt lat="43.1372532" lon="-2.8020045">
        <ele>189.044</ele>
        <time>2021-04-01T09:27:46.524Z</time>
      </trkpt>
      <trkpt lat="43.1372542" lon="-2.8020067">
        <ele>189.068</ele>
        <time>2021-04-01T09:27:46.582Z</time>
      </trkpt>
      <trkpt lat="43.1372549" lon="-2.8020092">
        <ele>189.1</ele>
        <time>2021-04-01T09:27:46.640Z</time>
      </trkpt>
      <trkpt lat="43.137255" lon="-2.8020113">
        <ele>189.061</ele>
        <time>2021-04-01T09:27:46.698Z</time>
      </trkpt>
      <trkpt lat="43.1372557" lon="-2.8020144">
        <ele>189.165</ele>
        <time>2021-04-01T09:27:46.756Z</time>
      </trkpt>
      <trkpt lat="43.1372565" lon="-2.802017">
        <ele>189.22</ele>
        <time>2021-04-01T09:27:46.815Z</time>
      </trkpt>
      <trkpt lat="43.1372572" lon="-2.8020193">
        <ele>189.269</ele>
        <time>2021-04-01T09:27:46.873Z</time>
      </trkpt>
      <trkpt lat="43.137258" lon="-2.8020209">
        <ele>189.194</ele>
        <time>2021-04-01T09:27:46.931Z</time>
      </trkpt>
      <trkpt lat="43.1372585" lon="-2.8020227">
        <ele>189.164</ele>
        <time>2021-04-01T09:27:46.989Z</time>
      </trkpt>
      <trkpt lat="43.1372591" lon="-2.8020241">
        <ele>189.106</ele>
        <time>2021-04-01T09:27:47.048Z</time>
      </trkpt>
      <trkpt lat="43.1372597" lon="-2.8020256">
        <ele>189.031</ele>
        <time>2021-04-01T09:27:47.106Z</time>
      </trkpt>
      <trkpt lat="43.1372603" lon="-2.8020276">
        <ele>189.022</ele>
        <time>2021-04-01T09:27:47.164Z</time>
      </trkpt>
      <trkpt lat="43.1372609" lon="-2.8020295">
        <ele>188.994</ele>
        <time>2021-04-01T09:27:47.222Z</time>
      </trkpt>
      <trkpt lat="43.1372616" lon="-2.8020316">
        <ele>188.989</ele>
        <time>2021-04-01T09:27:47.281Z</time>
      </trkpt>
      <trkpt lat="43.1372622" lon="-2.8020339">
        <ele>188.994</ele>
        <time>2021-04-01T09:27:47.339Z</time>
      </trkpt>
      <trkpt lat="43.1372626" lon="-2.8020363">
        <ele>189.036</ele>
        <time>2021-04-01T09:27:47.397Z</time>
      </trkpt>
      <trkpt lat="43.1372633" lon="-2.802038">
        <ele>189.039</ele>
        <time>2021-04-01T09:27:47.455Z</time>
      </trkpt>
      <trkpt lat="43.137264" lon="-2.8020399">
        <ele>189.02</ele>
        <time>2021-04-01T09:27:47.514Z</time>
      </trkpt>
      <trkpt lat="43.1372646" lon="-2.8020418">
        <ele>188.986</ele>
        <time>2021-04-01T09:27:47.569Z</time>
      </trkpt>
      <trkpt lat="43.1372654" lon="-2.8020435">
        <ele>188.949</ele>
        <time>2021-04-01T09:27:47.624Z</time>
      </trkpt>
      <trkpt lat="43.1372663" lon="-2.802046">
        <ele>189.022</ele>
        <time>2021-04-01T09:27:47.679Z</time>
      </trkpt>
      <trkpt lat="43.1372671" lon="-2.802048">
        <ele>189.014</ele>
        <time>2021-04-01T09:27:47.734Z</time>
      </trkpt>
      <trkpt lat="43.1372679" lon="-2.8020499">
        <ele>189.007</ele>
        <time>2021-04-01T09:27:47.789Z</time>
      </trkpt>
      <trkpt lat="43.1372685" lon="-2.802052">
        <ele>189.011</ele>
        <time>2021-04-01T09:27:47.844Z</time>
      </trkpt>
      <trkpt lat="43.1372695" lon="-2.8020543">
        <ele>189.091</ele>
        <time>2021-04-01T09:27:47.899Z</time>
      </trkpt>
      <trkpt lat="43.1372705" lon="-2.8020568">
        <ele>189.197</ele>
        <time>2021-04-01T09:27:47.954Z</time>
      </trkpt>
      <trkpt lat="43.1372711" lon="-2.8020593">
        <ele>189.238</ele>
        <time>2021-04-01T09:27:48.009Z</time>
      </trkpt>
      <trkpt lat="43.1372718" lon="-2.8020619">
        <ele>189.279</ele>
        <time>2021-04-01T09:27:48.064Z</time>
      </trkpt>
      <trkpt lat="43.1372724" lon="-2.802064">
        <ele>189.296</ele>
        <time>2021-04-01T09:27:48.119Z</time>
      </trkpt>
      <trkpt lat="43.1372729" lon="-2.802066">
        <ele>189.295</ele>
        <time>2021-04-01T09:27:48.174Z</time>
      </trkpt>
      <trkpt lat="43.1372736" lon="-2.8020669">
        <ele>189.22</ele>
        <time>2021-04-01T09:27:48.229Z</time>
      </trkpt>
      <trkpt lat="43.137274" lon="-2.8020685">
        <ele>189.189</ele>
        <time>2021-04-01T09:27:48.284Z</time>
      </trkpt>
      <trkpt lat="43.1372746" lon="-2.80207">
        <ele>189.12</ele>
        <time>2021-04-01T09:27:48.339Z</time>
      </trkpt>
      <trkpt lat="43.1372752" lon="-2.8020715">
        <ele>189.06</ele>
        <time>2021-04-01T09:27:48.394Z</time>
      </trkpt>
      <trkpt lat="43.1372758" lon="-2.8020733">
        <ele>189.04</ele>
        <time>2021-04-01T09:27:48.449Z</time>
      </trkpt>
      <trkpt lat="43.1372765" lon="-2.802075">
        <ele>189.024</ele>
        <time>2021-04-01T09:27:48.504Z</time>
      </trkpt>
      <trkpt lat="43.1372769" lon="-2.8020767">
        <ele>188.988</ele>
        <time>2021-04-01T09:27:48.559Z</time>
      </trkpt>
      <trkpt lat="43.1372774" lon="-2.8020783">
        <ele>188.955</ele>
        <time>2021-04-01T09:27:48.610Z</time>
      </trkpt>
      <trkpt lat="43.137278" lon="-2.8020798">
        <ele>188.909</ele>
        <time>2021-04-01T09:27:48.662Z</time>
      </trkpt>
      <trkpt lat="43.1372785" lon="-2.8020811">
        <ele>188.804</ele>
        <time>2021-04-01T09:27:48.714Z</time>
      </trkpt>
      <trkpt lat="43.1372789" lon="-2.8020825">
        <ele>188.745</ele>
        <time>2021-04-01T09:27:48.766Z</time>
      </trkpt>
      <trkpt lat="43.1372791" lon="-2.8020839">
        <ele>188.685</ele>
        <time>2021-04-01T09:27:48.818Z</time>
      </trkpt>
      <trkpt lat="43.1372796" lon="-2.802085">
        <ele>188.588</ele>
        <time>2021-04-01T09:27:48.870Z</time>
      </trkpt>
      <trkpt lat="43.1372802" lon="-2.8020868">
        <ele>188.579</ele>
        <time>2021-04-01T09:27:48.922Z</time>
      </trkpt>
      <trkpt lat="43.1372808" lon="-2.8020887">
        <ele>188.574</ele>
        <time>2021-04-01T09:27:48.974Z</time>
      </trkpt>
      <trkpt lat="43.1372813" lon="-2.8020902">
        <ele>188.506</ele>
        <time>2021-04-01T09:27:49.026Z</time>
      </trkpt>
      <trkpt lat="43.1372818" lon="-2.8020922">
        <ele>188.479</ele>
        <time>2021-04-01T09:27:49.078Z</time>
      </trkpt>
      <trkpt lat="43.1372821" lon="-2.8020934">
        <ele>188.411</ele>
        <time>2021-04-01T09:27:49.130Z</time>
      </trkpt>
      <trkpt lat="43.1372824" lon="-2.8020952">
        <ele>188.396</ele>
        <time>2021-04-01T09:27:49.182Z</time>
      </trkpt>
      <trkpt lat="43.1372831" lon="-2.8020971">
        <ele>188.336</ele>
        <time>2021-04-01T09:27:49.234Z</time>
      </trkpt>
      <trkpt lat="43.1372839" lon="-2.8020986">
        <ele>188.297</ele>
        <time>2021-04-01T09:27:49.286Z</time>
      </trkpt>
      <trkpt lat="43.1372845" lon="-2.8021">
        <ele>188.244</ele>
        <time>2021-04-01T09:27:49.338Z</time>
      </trkpt>
      <trkpt lat="43.1372847" lon="-2.8021015">
        <ele>188.201</ele>
        <time>2021-04-01T09:27:49.390Z</time>
      </trkpt>
      <trkpt lat="43.1372856" lon="-2.8021033">
        <ele>188.201</ele>
        <time>2021-04-01T09:27:49.442Z</time>
      </trkpt>
      <trkpt lat="43.1372859" lon="-2.8021051">
        <ele>188.196</ele>
        <time>2021-04-01T09:27:49.494Z</time>
      </trkpt>
      <trkpt lat="43.1372863" lon="-2.8021073">
        <ele>188.204</ele>
        <time>2021-04-01T09:27:49.552Z</time>
      </trkpt>
      <trkpt lat="43.1372872" lon="-2.8021097">
        <ele>188.207</ele>
        <time>2021-04-01T09:27:49.610Z</time>
      </trkpt>
      <trkpt lat="43.1372878" lon="-2.8021116">
        <ele>188.196</ele>
        <time>2021-04-01T09:27:49.668Z</time>
      </trkpt>
      <trkpt lat="43.1372883" lon="-2.8021136">
        <ele>188.165</ele>
        <time>2021-04-01T09:27:49.726Z</time>
      </trkpt>
      <trkpt lat="43.1372886" lon="-2.8021156">
        <ele>188.183</ele>
        <time>2021-04-01T09:27:49.784Z</time>
      </trkpt>
      <trkpt lat="43.1372889" lon="-2.8021177">
        <ele>188.192</ele>
        <time>2021-04-01T09:27:49.842Z</time>
      </trkpt>
      <trkpt lat="43.1372892" lon="-2.80212">
        <ele>188.181</ele>
        <time>2021-04-01T09:27:49.900Z</time>
      </trkpt>
      <trkpt lat="43.1372898" lon="-2.8021221">
        <ele>188.189</ele>
        <time>2021-04-01T09:27:49.958Z</time>
      </trkpt>
      <trkpt lat="43.1372904" lon="-2.8021243">
        <ele>188.224</ele>
        <time>2021-04-01T09:27:50.016Z</time>
      </trkpt>
      <trkpt lat="43.1372908" lon="-2.8021266">
        <ele>188.237</ele>
        <time>2021-04-01T09:27:50.074Z</time>
      </trkpt>
      <trkpt lat="43.1372916" lon="-2.8021293">
        <ele>188.302</ele>
        <time>2021-04-01T09:27:50.132Z</time>
      </trkpt>
      <trkpt lat="43.1372921" lon="-2.8021316">
        <ele>188.325</ele>
        <time>2021-04-01T09:27:50.190Z</time>
      </trkpt>
      <trkpt lat="43.1372924" lon="-2.8021338">
        <ele>188.327</ele>
        <time>2021-04-01T09:27:50.248Z</time>
      </trkpt>
      <trkpt lat="43.1372928" lon="-2.8021359">
        <ele>188.306</ele>
        <time>2021-04-01T09:27:50.306Z</time>
      </trkpt>
      <trkpt lat="43.1372932" lon="-2.8021382">
        <ele>188.352</ele>
        <time>2021-04-01T09:27:50.364Z</time>
      </trkpt>
      <trkpt lat="43.1372939" lon="-2.8021403">
        <ele>188.362</ele>
        <time>2021-04-01T09:27:50.422Z</time>
      </trkpt>
      <trkpt lat="43.1372945" lon="-2.8021424">
        <ele>188.363</ele>
        <time>2021-04-01T09:27:50.480Z</time>
      </trkpt>
      <trkpt lat="43.1372951" lon="-2.8021449">
        <ele>188.393</ele>
        <time>2021-04-01T09:27:50.539Z</time>
      </trkpt>
      <trkpt lat="43.1372955" lon="-2.8021473">
        <ele>188.439</ele>
        <time>2021-04-01T09:27:50.594Z</time>
      </trkpt>
      <trkpt lat="43.1372962" lon="-2.8021491">
        <ele>188.452</ele>
        <time>2021-04-01T09:27:50.649Z</time>
      </trkpt>
      <trkpt lat="43.1372965" lon="-2.8021515">
        <ele>188.44</ele>
        <time>2021-04-01T09:27:50.704Z</time>
      </trkpt>
      <trkpt lat="43.1372969" lon="-2.8021537">
        <ele>188.437</ele>
        <time>2021-04-01T09:27:50.759Z</time>
      </trkpt>
      <trkpt lat="43.1372975" lon="-2.8021556">
        <ele>188.438</ele>
        <time>2021-04-01T09:27:50.814Z</time>
      </trkpt>
      <trkpt lat="43.1372981" lon="-2.8021573">
        <ele>188.423</ele>
        <time>2021-04-01T09:27:50.869Z</time>
      </trkpt>
      <trkpt lat="43.1372984" lon="-2.8021591">
        <ele>188.404</ele>
        <time>2021-04-01T09:27:50.924Z</time>
      </trkpt>
      <trkpt lat="43.1372991" lon="-2.8021612">
        <ele>188.391</ele>
        <time>2021-04-01T09:27:50.979Z</time>
      </trkpt>
      <trkpt lat="43.1372995" lon="-2.8021631">
        <ele>188.383</ele>
        <time>2021-04-01T09:27:51.034Z</time>
      </trkpt>
      <trkpt lat="43.1373001" lon="-2.8021656">
        <ele>188.41</ele>
        <time>2021-04-01T09:27:51.089Z</time>
      </trkpt>
      <trkpt lat="43.1373009" lon="-2.802168">
        <ele>188.444</ele>
        <time>2021-04-01T09:27:51.144Z</time>
      </trkpt>
      <trkpt lat="43.1373019" lon="-2.8021699">
        <ele>188.468</ele>
        <time>2021-04-01T09:27:51.199Z</time>
      </trkpt>
      <trkpt lat="43.1373029" lon="-2.8021718">
        <ele>188.489</ele>
        <time>2021-04-01T09:27:51.254Z</time>
      </trkpt>
      <trkpt lat="43.137304" lon="-2.8021736">
        <ele>188.489</ele>
        <time>2021-04-01T09:27:51.309Z</time>
      </trkpt>
      <trkpt lat="43.1373048" lon="-2.8021759">
        <ele>188.533</ele>
        <time>2021-04-01T09:27:51.364Z</time>
      </trkpt>
      <trkpt lat="43.1373056" lon="-2.8021785">
        <ele>188.556</ele>
        <time>2021-04-01T09:27:51.419Z</time>
      </trkpt>
      <trkpt lat="43.1373064" lon="-2.8021804">
        <ele>188.553</ele>
        <time>2021-04-01T09:27:51.474Z</time>
      </trkpt>
      <trkpt lat="43.1373072" lon="-2.8021822">
        <ele>188.589</ele>
        <time>2021-04-01T09:27:51.529Z</time>
      </trkpt>
      <trkpt lat="43.137308" lon="-2.802184">
        <ele>188.554</ele>
        <time>2021-04-01T09:27:51.587Z</time>
      </trkpt>
      <trkpt lat="43.1373088" lon="-2.8021851">
        <ele>188.454</ele>
        <time>2021-04-01T09:27:51.645Z</time>
      </trkpt>
      <trkpt lat="43.1373093" lon="-2.8021869">
        <ele>188.449</ele>
        <time>2021-04-01T09:27:51.703Z</time>
      </trkpt>
      <trkpt lat="43.1373102" lon="-2.8021887">
        <ele>188.428</ele>
        <time>2021-04-01T09:27:51.761Z</time>
      </trkpt>
      <trkpt lat="43.137311" lon="-2.802191">
        <ele>188.476</ele>
        <time>2021-04-01T09:27:51.819Z</time>
      </trkpt>
      <trkpt lat="43.1373116" lon="-2.802193">
        <ele>188.491</ele>
        <time>2021-04-01T09:27:51.877Z</time>
      </trkpt>
      <trkpt lat="43.1373121" lon="-2.8021953">
        <ele>188.515</ele>
        <time>2021-04-01T09:27:51.935Z</time>
      </trkpt>
      <trkpt lat="43.1373124" lon="-2.8021975">
        <ele>188.5</ele>
        <time>2021-04-01T09:27:51.993Z</time>
      </trkpt>
      <trkpt lat="43.137313" lon="-2.8021997">
        <ele>188.461</ele>
        <time>2021-04-01T09:27:52.051Z</time>
      </trkpt>
      <trkpt lat="43.1373134" lon="-2.8022016">
        <ele>188.469</ele>
        <time>2021-04-01T09:27:52.109Z</time>
      </trkpt>
      <trkpt lat="43.1373137" lon="-2.8022032">
        <ele>188.422</ele>
        <time>2021-04-01T09:27:52.167Z</time>
      </trkpt>
      <trkpt lat="43.1373139" lon="-2.8022046">
        <ele>188.396</ele>
        <time>2021-04-01T09:27:52.225Z</time>
      </trkpt>
      <trkpt lat="43.1373143" lon="-2.8022065">
        <ele>188.35</ele>
        <time>2021-04-01T09:27:52.283Z</time>
      </trkpt>
      <trkpt lat="43.1373153" lon="-2.802208">
        <ele>188.323</ele>
        <time>2021-04-01T09:27:52.341Z</time>
      </trkpt>
      <trkpt lat="43.137316" lon="-2.8022099">
        <ele>188.323</ele>
        <time>2021-04-01T09:27:52.399Z</time>
      </trkpt>
      <trkpt lat="43.137317" lon="-2.8022122">
        <ele>188.384</ele>
        <time>2021-04-01T09:27:52.457Z</time>
      </trkpt>
      <trkpt lat="43.1373176" lon="-2.8022145">
        <ele>188.413</ele>
        <time>2021-04-01T09:27:52.515Z</time>
      </trkpt>
      <trkpt lat="43.1373183" lon="-2.8022165">
        <ele>188.409</ele>
        <time>2021-04-01T09:27:52.574Z</time>
      </trkpt>
      <trkpt lat="43.137319" lon="-2.8022178">
        <ele>188.379</ele>
        <time>2021-04-01T09:27:52.623Z</time>
      </trkpt>
      <trkpt lat="43.1373199" lon="-2.8022195">
        <ele>188.355</ele>
        <time>2021-04-01T09:27:52.672Z</time>
      </trkpt>
      <trkpt lat="43.1373206" lon="-2.8022212">
        <ele>188.33</ele>
        <time>2021-04-01T09:27:52.721Z</time>
      </trkpt>
      <trkpt lat="43.1373209" lon="-2.8022227">
        <ele>188.287</ele>
        <time>2021-04-01T09:27:52.770Z</time>
      </trkpt>
      <trkpt lat="43.1373216" lon="-2.8022244">
        <ele>188.251</ele>
        <time>2021-04-01T09:27:52.820Z</time>
      </trkpt>
      <trkpt lat="43.137322" lon="-2.8022261">
        <ele>188.222</ele>
        <time>2021-04-01T09:27:52.869Z</time>
      </trkpt>
      <trkpt lat="43.1373225" lon="-2.8022277">
        <ele>188.176</ele>
        <time>2021-04-01T09:27:52.918Z</time>
      </trkpt>
      <trkpt lat="43.1373231" lon="-2.8022293">
        <ele>188.128</ele>
        <time>2021-04-01T09:27:52.967Z</time>
      </trkpt>
      <trkpt lat="43.1373237" lon="-2.802231">
        <ele>188.083</ele>
        <time>2021-04-01T09:27:53.016Z</time>
      </trkpt>
      <trkpt lat="43.137324" lon="-2.8022325">
        <ele>187.988</ele>
        <time>2021-04-01T09:27:53.066Z</time>
      </trkpt>
      <trkpt lat="43.1373246" lon="-2.8022342">
        <ele>187.986</ele>
        <time>2021-04-01T09:27:53.115Z</time>
      </trkpt>
      <trkpt lat="43.1373252" lon="-2.8022358">
        <ele>187.971</ele>
        <time>2021-04-01T09:27:53.164Z</time>
      </trkpt>
      <trkpt lat="43.1373259" lon="-2.8022378">
        <ele>187.945</ele>
        <time>2021-04-01T09:27:53.213Z</time>
      </trkpt>
      <trkpt lat="43.1373264" lon="-2.8022393">
        <ele>187.887</ele>
        <time>2021-04-01T09:27:53.262Z</time>
      </trkpt>
      <trkpt lat="43.1373267" lon="-2.8022413">
        <ele>187.872</ele>
        <time>2021-04-01T09:27:53.312Z</time>
      </trkpt>
      <trkpt lat="43.1373271" lon="-2.8022438">
        <ele>187.891</ele>
        <time>2021-04-01T09:27:53.361Z</time>
      </trkpt>
      <trkpt lat="43.1373277" lon="-2.8022455">
        <ele>187.85</ele>
        <time>2021-04-01T09:27:53.410Z</time>
      </trkpt>
      <trkpt lat="43.1373284" lon="-2.8022467">
        <ele>187.813</ele>
        <time>2021-04-01T09:27:53.459Z</time>
      </trkpt>
      <trkpt lat="43.137329" lon="-2.8022482">
        <ele>187.72</ele>
        <time>2021-04-01T09:27:53.509Z</time>
      </trkpt>
      <trkpt lat="43.1373296" lon="-2.8022497">
        <ele>187.676</ele>
        <time>2021-04-01T09:27:53.567Z</time>
      </trkpt>
      <trkpt lat="43.13733" lon="-2.8022515">
        <ele>187.647</ele>
        <time>2021-04-01T09:27:53.625Z</time>
      </trkpt>
      <trkpt lat="43.1373303" lon="-2.802253">
        <ele>187.603</ele>
        <time>2021-04-01T09:27:53.683Z</time>
      </trkpt>
      <trkpt lat="43.1373306" lon="-2.8022551">
        <ele>187.645</ele>
        <time>2021-04-01T09:27:53.741Z</time>
      </trkpt>
      <trkpt lat="43.1373314" lon="-2.8022571">
        <ele>187.627</ele>
        <time>2021-04-01T09:27:53.799Z</time>
      </trkpt>
      <trkpt lat="43.1373324" lon="-2.802259">
        <ele>187.638</ele>
        <time>2021-04-01T09:27:53.857Z</time>
      </trkpt>
      <trkpt lat="43.1373333" lon="-2.8022608">
        <ele>187.648</ele>
        <time>2021-04-01T09:27:53.915Z</time>
      </trkpt>
      <trkpt lat="43.1373339" lon="-2.802263">
        <ele>187.656</ele>
        <time>2021-04-01T09:27:53.973Z</time>
      </trkpt>
      <trkpt lat="43.1373346" lon="-2.8022649">
        <ele>187.702</ele>
        <time>2021-04-01T09:27:54.031Z</time>
      </trkpt>
      <trkpt lat="43.1373353" lon="-2.8022668">
        <ele>187.733</ele>
        <time>2021-04-01T09:27:54.089Z</time>
      </trkpt>
      <trkpt lat="43.1373362" lon="-2.8022692">
        <ele>187.74</ele>
        <time>2021-04-01T09:27:54.147Z</time>
      </trkpt>
      <trkpt lat="43.1373368" lon="-2.8022711">
        <ele>187.724</ele>
        <time>2021-04-01T09:27:54.205Z</time>
      </trkpt>
      <trkpt lat="43.1373372" lon="-2.8022731">
        <ele>187.736</ele>
        <time>2021-04-01T09:27:54.263Z</time>
      </trkpt>
      <trkpt lat="43.1373381" lon="-2.8022755">
        <ele>187.794</ele>
        <time>2021-04-01T09:27:54.321Z</time>
      </trkpt>
      <trkpt lat="43.1373387" lon="-2.8022769">
        <ele>187.739</ele>
        <time>2021-04-01T09:27:54.379Z</time>
      </trkpt>
      <trkpt lat="43.1373395" lon="-2.802279">
        <ele>187.747</ele>
        <time>2021-04-01T09:27:54.437Z</time>
      </trkpt>
      <trkpt lat="43.13734" lon="-2.8022802">
        <ele>187.658</ele>
        <time>2021-04-01T09:27:54.495Z</time>
      </trkpt>
      <trkpt lat="43.1373406" lon="-2.8022823">
        <ele>187.652</ele>
        <time>2021-04-01T09:27:54.554Z</time>
      </trkpt>
      <trkpt lat="43.1373412" lon="-2.8022843">
        <ele>187.668</ele>
        <time>2021-04-01T09:27:54.606Z</time>
      </trkpt>
      <trkpt lat="43.1373419" lon="-2.8022863">
        <ele>187.675</ele>
        <time>2021-04-01T09:27:54.658Z</time>
      </trkpt>
      <trkpt lat="43.1373423" lon="-2.8022883">
        <ele>187.665</ele>
        <time>2021-04-01T09:27:54.710Z</time>
      </trkpt>
      <trkpt lat="43.1373428" lon="-2.80229">
        <ele>187.651</ele>
        <time>2021-04-01T09:27:54.762Z</time>
      </trkpt>
      <trkpt lat="43.1373432" lon="-2.8022916">
        <ele>187.636</ele>
        <time>2021-04-01T09:27:54.814Z</time>
      </trkpt>
      <trkpt lat="43.1373437" lon="-2.8022937">
        <ele>187.618</ele>
        <time>2021-04-01T09:27:54.866Z</time>
      </trkpt>
      <trkpt lat="43.1373444" lon="-2.8022959">
        <ele>187.646</ele>
        <time>2021-04-01T09:27:54.918Z</time>
      </trkpt>
      <trkpt lat="43.1373453" lon="-2.802298">
        <ele>187.636</ele>
        <time>2021-04-01T09:27:54.970Z</time>
      </trkpt>
      <trkpt lat="43.1373459" lon="-2.8023002">
        <ele>187.608</ele>
        <time>2021-04-01T09:27:55.022Z</time>
      </trkpt>
      <trkpt lat="43.1373463" lon="-2.8023019">
        <ele>187.639</ele>
        <time>2021-04-01T09:27:55.075Z</time>
      </trkpt>
      <trkpt lat="43.1373472" lon="-2.8023038">
        <ele>187.664</ele>
        <time>2021-04-01T09:27:55.127Z</time>
      </trkpt>
      <trkpt lat="43.1373481" lon="-2.8023061">
        <ele>187.718</ele>
        <time>2021-04-01T09:27:55.179Z</time>
      </trkpt>
      <trkpt lat="43.1373486" lon="-2.8023082">
        <ele>187.747</ele>
        <time>2021-04-01T09:27:55.231Z</time>
      </trkpt>
      <trkpt lat="43.1373492" lon="-2.8023101">
        <ele>187.732</ele>
        <time>2021-04-01T09:27:55.283Z</time>
      </trkpt>
      <trkpt lat="43.1373498" lon="-2.8023123">
        <ele>187.735</ele>
        <time>2021-04-01T09:27:55.335Z</time>
      </trkpt>
      <trkpt lat="43.1373508" lon="-2.8023148">
        <ele>187.747</ele>
        <time>2021-04-01T09:27:55.387Z</time>
      </trkpt>
      <trkpt lat="43.1373516" lon="-2.8023173">
        <ele>187.84</ele>
        <time>2021-04-01T09:27:55.439Z</time>
      </trkpt>
      <trkpt lat="43.1373521" lon="-2.8023194">
        <ele>187.839</ele>
        <time>2021-04-01T09:27:55.491Z</time>
      </trkpt>
      <trkpt lat="43.1373528" lon="-2.8023208">
        <ele>187.802</ele>
        <time>2021-04-01T09:27:55.544Z</time>
      </trkpt>
      <trkpt lat="43.1373529" lon="-2.802323">
        <ele>187.807</ele>
        <time>2021-04-01T09:27:55.602Z</time>
      </trkpt>
      <trkpt lat="43.1373534" lon="-2.8023253">
        <ele>187.785</ele>
        <time>2021-04-01T09:27:55.660Z</time>
      </trkpt>
      <trkpt lat="43.1373541" lon="-2.8023269">
        <ele>187.734</ele>
        <time>2021-04-01T09:27:55.718Z</time>
      </trkpt>
      <trkpt lat="43.1373546" lon="-2.8023287">
        <ele>187.748</ele>
        <time>2021-04-01T09:27:55.776Z</time>
      </trkpt>
      <trkpt lat="43.137355" lon="-2.8023303">
        <ele>187.716</ele>
        <time>2021-04-01T09:27:55.835Z</time>
      </trkpt>
      <trkpt lat="43.1373553" lon="-2.8023318">
        <ele>187.618</ele>
        <time>2021-04-01T09:27:55.893Z</time>
      </trkpt>
      <trkpt lat="43.137356" lon="-2.8023332">
        <ele>187.574</ele>
        <time>2021-04-01T09:27:55.951Z</time>
      </trkpt>
      <trkpt lat="43.1373565" lon="-2.8023353">
        <ele>187.627</ele>
        <time>2021-04-01T09:27:56.009Z</time>
      </trkpt>
      <trkpt lat="43.1373572" lon="-2.8023371">
        <ele>187.651</ele>
        <time>2021-04-01T09:27:56.068Z</time>
      </trkpt>
      <trkpt lat="43.1373579" lon="-2.8023394">
        <ele>187.695</ele>
        <time>2021-04-01T09:27:56.126Z</time>
      </trkpt>
      <trkpt lat="43.1373585" lon="-2.8023419">
        <ele>187.727</ele>
        <time>2021-04-01T09:27:56.184Z</time>
      </trkpt>
      <trkpt lat="43.1373592" lon="-2.8023441">
        <ele>187.695</ele>
        <time>2021-04-01T09:27:56.242Z</time>
      </trkpt>
      <trkpt lat="43.1373598" lon="-2.8023461">
        <ele>187.711</ele>
        <time>2021-04-01T09:27:56.301Z</time>
      </trkpt>
      <trkpt lat="43.1373607" lon="-2.8023483">
        <ele>187.75</ele>
        <time>2021-04-01T09:27:56.359Z</time>
      </trkpt>
      <trkpt lat="43.1373613" lon="-2.8023504">
        <ele>187.764</ele>
        <time>2021-04-01T09:27:56.417Z</time>
      </trkpt>
      <trkpt lat="43.1373618" lon="-2.8023525">
        <ele>187.767</ele>
        <time>2021-04-01T09:27:56.475Z</time>
      </trkpt>
      <trkpt lat="43.1373624" lon="-2.8023546">
        <ele>187.815</ele>
        <time>2021-04-01T09:27:56.534Z</time>
      </trkpt>
      <trkpt lat="43.1373629" lon="-2.8023566">
        <ele>187.817</ele>
        <time>2021-04-01T09:27:56.592Z</time>
      </trkpt>
      <trkpt lat="43.1373634" lon="-2.8023587">
        <ele>187.84</ele>
        <time>2021-04-01T09:27:56.650Z</time>
      </trkpt>
      <trkpt lat="43.1373642" lon="-2.8023604">
        <ele>187.779</ele>
        <time>2021-04-01T09:27:56.708Z</time>
      </trkpt>
      <trkpt lat="43.1373645" lon="-2.8023622">
        <ele>187.719</ele>
        <time>2021-04-01T09:27:56.766Z</time>
      </trkpt>
      <trkpt lat="43.1373651" lon="-2.8023635">
        <ele>187.66</ele>
        <time>2021-04-01T09:27:56.824Z</time>
      </trkpt>
      <trkpt lat="43.1373655" lon="-2.8023654">
        <ele>187.647</ele>
        <time>2021-04-01T09:27:56.882Z</time>
      </trkpt>
      <trkpt lat="43.1373661" lon="-2.8023673">
        <ele>187.633</ele>
        <time>2021-04-01T09:27:56.940Z</time>
      </trkpt>
      <trkpt lat="43.1373663" lon="-2.8023682">
        <ele>187.484</ele>
        <time>2021-04-01T09:27:56.998Z</time>
      </trkpt>
      <trkpt lat="43.137367" lon="-2.80237">
        <ele>187.454</ele>
        <time>2021-04-01T09:27:57.056Z</time>
      </trkpt>
      <trkpt lat="43.1373674" lon="-2.802372">
        <ele>187.455</ele>
        <time>2021-04-01T09:27:57.114Z</time>
      </trkpt>
      <trkpt lat="43.1373679" lon="-2.802374">
        <ele>187.454</ele>
        <time>2021-04-01T09:27:57.172Z</time>
      </trkpt>
      <trkpt lat="43.1373685" lon="-2.802376">
        <ele>187.453</ele>
        <time>2021-04-01T09:27:57.230Z</time>
      </trkpt>
      <trkpt lat="43.1373689" lon="-2.8023779">
        <ele>187.443</ele>
        <time>2021-04-01T09:27:57.288Z</time>
      </trkpt>
      <trkpt lat="43.1373695" lon="-2.8023795">
        <ele>187.419</ele>
        <time>2021-04-01T09:27:57.346Z</time>
      </trkpt>
      <trkpt lat="43.1373699" lon="-2.8023821">
        <ele>187.425</ele>
        <time>2021-04-01T09:27:57.404Z</time>
      </trkpt>
      <trkpt lat="43.1373711" lon="-2.8023843">
        <ele>187.426</ele>
        <time>2021-04-01T09:27:57.462Z</time>
      </trkpt>
      <trkpt lat="43.137372" lon="-2.8023866">
        <ele>187.438</ele>
        <time>2021-04-01T09:27:57.520Z</time>
      </trkpt>
      <trkpt lat="43.1373728" lon="-2.8023888">
        <ele>187.449</ele>
        <time>2021-04-01T09:27:57.579Z</time>
      </trkpt>
      <trkpt lat="43.1373738" lon="-2.802391">
        <ele>187.424</ele>
        <time>2021-04-01T09:27:57.631Z</time>
      </trkpt>
      <trkpt lat="43.1373744" lon="-2.8023934">
        <ele>187.436</ele>
        <time>2021-04-01T09:27:57.683Z</time>
      </trkpt>
      <trkpt lat="43.137375" lon="-2.8023951">
        <ele>187.406</ele>
        <time>2021-04-01T09:27:57.735Z</time>
      </trkpt>
      <trkpt lat="43.1373755" lon="-2.8023972">
        <ele>187.416</ele>
        <time>2021-04-01T09:27:57.787Z</time>
      </trkpt>
      <trkpt lat="43.1373759" lon="-2.8023991">
        <ele>187.42</ele>
        <time>2021-04-01T09:27:57.839Z</time>
      </trkpt>
      <trkpt lat="43.1373762" lon="-2.802401">
        <ele>187.438</ele>
        <time>2021-04-01T09:27:57.891Z</time>
      </trkpt>
      <trkpt lat="43.1373766" lon="-2.8024033">
        <ele>187.43</ele>
        <time>2021-04-01T09:27:57.943Z</time>
      </trkpt>
      <trkpt lat="43.1373771" lon="-2.802405">
        <ele>187.42</ele>
        <time>2021-04-01T09:27:57.995Z</time>
      </trkpt>
      <trkpt lat="43.1373774" lon="-2.8024073">
        <ele>187.455</ele>
        <time>2021-04-01T09:27:58.047Z</time>
      </trkpt>
      <trkpt lat="43.1373776" lon="-2.8024093">
        <ele>187.497</ele>
        <time>2021-04-01T09:27:58.100Z</time>
      </trkpt>
      <trkpt lat="43.1373784" lon="-2.8024109">
        <ele>187.464</ele>
        <time>2021-04-01T09:27:58.152Z</time>
      </trkpt>
      <trkpt lat="43.1373783" lon="-2.8024125">
        <ele>187.471</ele>
        <time>2021-04-01T09:27:58.204Z</time>
      </trkpt>
      <trkpt lat="43.137378" lon="-2.8024148">
        <ele>187.509</ele>
        <time>2021-04-01T09:27:58.256Z</time>
      </trkpt>
      <trkpt lat="43.1373784" lon="-2.8024167">
        <ele>187.484</ele>
        <time>2021-04-01T09:27:58.308Z</time>
      </trkpt>
      <trkpt lat="43.137379" lon="-2.8024185">
        <ele>187.457</ele>
        <time>2021-04-01T09:27:58.360Z</time>
      </trkpt>
      <trkpt lat="43.13738" lon="-2.8024207">
        <ele>187.482</ele>
        <time>2021-04-01T09:27:58.412Z</time>
      </trkpt>
      <trkpt lat="43.1373808" lon="-2.8024233">
        <ele>187.527</ele>
        <time>2021-04-01T09:27:58.464Z</time>
      </trkpt>
      <trkpt lat="43.1373816" lon="-2.8024252">
        <ele>187.497</ele>
        <time>2021-04-01T09:27:58.516Z</time>
      </trkpt>
      <trkpt lat="43.137382" lon="-2.8024273">
        <ele>187.553</ele>
        <time>2021-04-01T09:27:58.569Z</time>
      </trkpt>
      <trkpt lat="43.1373826" lon="-2.8024292">
        <ele>187.562</ele>
        <time>2021-04-01T09:27:58.624Z</time>
      </trkpt>
      <trkpt lat="43.1373828" lon="-2.8024317">
        <ele>187.632</ele>
        <time>2021-04-01T09:27:58.679Z</time>
      </trkpt>
      <trkpt lat="43.1373833" lon="-2.8024335">
        <ele>187.607</ele>
        <time>2021-04-01T09:27:58.734Z</time>
      </trkpt>
      <trkpt lat="43.1373839" lon="-2.8024357">
        <ele>187.603</ele>
        <time>2021-04-01T09:27:58.789Z</time>
      </trkpt>
      <trkpt lat="43.1373843" lon="-2.8024378">
        <ele>187.612</ele>
        <time>2021-04-01T09:27:58.844Z</time>
      </trkpt>
      <trkpt lat="43.1373847" lon="-2.8024393">
        <ele>187.592</ele>
        <time>2021-04-01T09:27:58.899Z</time>
      </trkpt>
      <trkpt lat="43.1373852" lon="-2.8024409">
        <ele>187.561</ele>
        <time>2021-04-01T09:27:58.954Z</time>
      </trkpt>
      <trkpt lat="43.1373855" lon="-2.8024427">
        <ele>187.531</ele>
        <time>2021-04-01T09:27:59.009Z</time>
      </trkpt>
      <trkpt lat="43.1373857" lon="-2.8024445">
        <ele>187.467</ele>
        <time>2021-04-01T09:27:59.064Z</time>
      </trkpt>
      <trkpt lat="43.1373857" lon="-2.8024461">
        <ele>187.443</ele>
        <time>2021-04-01T09:27:59.119Z</time>
      </trkpt>
      <trkpt lat="43.1373857" lon="-2.8024475">
        <ele>187.431</ele>
        <time>2021-04-01T09:27:59.174Z</time>
      </trkpt>
      <trkpt lat="43.1373856" lon="-2.802449">
        <ele>187.397</ele>
        <time>2021-04-01T09:27:59.229Z</time>
      </trkpt>
      <trkpt lat="43.1373857" lon="-2.8024502">
        <ele>187.337</ele>
        <time>2021-04-01T09:27:59.284Z</time>
      </trkpt>
      <trkpt lat="43.1373855" lon="-2.8024515">
        <ele>187.273</ele>
        <time>2021-04-01T09:27:59.339Z</time>
      </trkpt>
      <trkpt lat="43.1373853" lon="-2.8024531">
        <ele>187.243</ele>
        <time>2021-04-01T09:27:59.394Z</time>
      </trkpt>
      <trkpt lat="43.1373848" lon="-2.8024541">
        <ele>187.206</ele>
        <time>2021-04-01T09:27:59.449Z</time>
      </trkpt>
      <trkpt lat="43.1373842" lon="-2.802455">
        <ele>187.172</ele>
        <time>2021-04-01T09:27:59.504Z</time>
      </trkpt>
      <trkpt lat="43.1373843" lon="-2.8024562">
        <ele>187.168</ele>
        <time>2021-04-01T09:27:59.559Z</time>
      </trkpt>
      <trkpt lat="43.1373842" lon="-2.8024579">
        <ele>187.182</ele>
        <time>2021-04-01T09:27:59.614Z</time>
      </trkpt>
      <trkpt lat="43.1373846" lon="-2.80246">
        <ele>187.251</ele>
        <time>2021-04-01T09:27:59.669Z</time>
      </trkpt>
      <trkpt lat="43.1373852" lon="-2.802462">
        <ele>187.265</ele>
        <time>2021-04-01T09:27:59.724Z</time>
      </trkpt>
      <trkpt lat="43.1373856" lon="-2.8024641">
        <ele>187.29</ele>
        <time>2021-04-01T09:27:59.779Z</time>
      </trkpt>
      <trkpt lat="43.1373858" lon="-2.8024656">
        <ele>187.265</ele>
        <time>2021-04-01T09:27:59.834Z</time>
      </trkpt>
      <trkpt lat="43.1373862" lon="-2.8024677">
        <ele>187.273</ele>
        <time>2021-04-01T09:27:59.889Z</time>
      </trkpt>
      <trkpt lat="43.1373866" lon="-2.8024698">
        <ele>187.272</ele>
        <time>2021-04-01T09:27:59.944Z</time>
      </trkpt>
      <trkpt lat="43.1373872" lon="-2.8024718">
        <ele>187.251</ele>
        <time>2021-04-01T09:27:59.999Z</time>
      </trkpt>
      <trkpt lat="43.1373876" lon="-2.8024736">
        <ele>187.254</ele>
        <time>2021-04-01T09:28:00.054Z</time>
      </trkpt>
      <trkpt lat="43.137388" lon="-2.8024755">
        <ele>187.226</ele>
        <time>2021-04-01T09:28:00.109Z</time>
      </trkpt>
      <trkpt lat="43.1373889" lon="-2.8024778">
        <ele>187.197</ele>
        <time>2021-04-01T09:28:00.164Z</time>
      </trkpt>
      <trkpt lat="43.1373897" lon="-2.8024801">
        <ele>187.142</ele>
        <time>2021-04-01T09:28:00.219Z</time>
      </trkpt>
      <trkpt lat="43.1373901" lon="-2.8024823">
        <ele>187.108</ele>
        <time>2021-04-01T09:28:00.274Z</time>
      </trkpt>
      <trkpt lat="43.1373903" lon="-2.8024841">
        <ele>187.145</ele>
        <time>2021-04-01T09:28:00.329Z</time>
      </trkpt>
      <trkpt lat="43.1373904" lon="-2.8024855">
        <ele>187.161</ele>
        <time>2021-04-01T09:28:00.384Z</time>
      </trkpt>
      <trkpt lat="43.1373905" lon="-2.8024869">
        <ele>187.171</ele>
        <time>2021-04-01T09:28:00.439Z</time>
      </trkpt>
      <trkpt lat="43.1373909" lon="-2.8024893">
        <ele>187.175</ele>
        <time>2021-04-01T09:28:00.494Z</time>
      </trkpt>
      <trkpt lat="43.1373912" lon="-2.8024916">
        <ele>187.116</ele>
        <time>2021-04-01T09:28:00.549Z</time>
      </trkpt>
      <trkpt lat="43.1373914" lon="-2.8024939">
        <ele>187.15</ele>
        <time>2021-04-01T09:28:00.604Z</time>
      </trkpt>
      <trkpt lat="43.1373917" lon="-2.8024961">
        <ele>187.214</ele>
        <time>2021-04-01T09:28:00.659Z</time>
      </trkpt>
      <trkpt lat="43.1373924" lon="-2.8024986">
        <ele>187.194</ele>
        <time>2021-04-01T09:28:00.714Z</time>
      </trkpt>
      <trkpt lat="43.1373929" lon="-2.8025007">
        <ele>187.201</ele>
        <time>2021-04-01T09:28:00.769Z</time>
      </trkpt>
      <trkpt lat="43.1373925" lon="-2.802502">
        <ele>187.176</ele>
        <time>2021-04-01T09:28:00.824Z</time>
      </trkpt>
      <trkpt lat="43.1373925" lon="-2.8025038">
        <ele>187.218</ele>
        <time>2021-04-01T09:28:00.879Z</time>
      </trkpt>
      <trkpt lat="43.137393" lon="-2.802506">
        <ele>187.23</ele>
        <time>2021-04-01T09:28:00.934Z</time>
      </trkpt>
      <trkpt lat="43.1373935" lon="-2.8025083">
        <ele>187.276</ele>
        <time>2021-04-01T09:28:00.989Z</time>
      </trkpt>
      <trkpt lat="43.1373935" lon="-2.8025105">
        <ele>187.281</ele>
        <time>2021-04-01T09:28:01.044Z</time>
      </trkpt>
      <trkpt lat="43.1373939" lon="-2.8025131">
        <ele>187.341</ele>
        <time>2021-04-01T09:28:01.099Z</time>
      </trkpt>
      <trkpt lat="43.1373938" lon="-2.8025148">
        <ele>187.273</ele>
        <time>2021-04-01T09:28:01.154Z</time>
      </trkpt>
      <trkpt lat="43.1373944" lon="-2.8025177">
        <ele>187.326</ele>
        <time>2021-04-01T09:28:01.209Z</time>
      </trkpt>
      <trkpt lat="43.1373948" lon="-2.8025197">
        <ele>187.333</ele>
        <time>2021-04-01T09:28:01.264Z</time>
      </trkpt>
      <trkpt lat="43.137395" lon="-2.8025219">
        <ele>187.35</ele>
        <time>2021-04-01T09:28:01.319Z</time>
      </trkpt>
      <trkpt lat="43.1373953" lon="-2.802524">
        <ele>187.355</ele>
        <time>2021-04-01T09:28:01.374Z</time>
      </trkpt>
      <trkpt lat="43.1373952" lon="-2.8025265">
        <ele>187.406</ele>
        <time>2021-04-01T09:28:01.429Z</time>
      </trkpt>
      <trkpt lat="43.1373953" lon="-2.8025286">
        <ele>187.432</ele>
        <time>2021-04-01T09:28:01.484Z</time>
      </trkpt>
      <trkpt lat="43.1373953" lon="-2.8025309">
        <ele>187.457</ele>
        <time>2021-04-01T09:28:01.539Z</time>
      </trkpt>
      <trkpt lat="43.1373952" lon="-2.802533">
        <ele>187.484</ele>
        <time>2021-04-01T09:28:01.594Z</time>
      </trkpt>
      <trkpt lat="43.1373955" lon="-2.8025351">
        <ele>187.45</ele>
        <time>2021-04-01T09:28:01.649Z</time>
      </trkpt>
      <trkpt lat="43.1373959" lon="-2.8025367">
        <ele>187.397</ele>
        <time>2021-04-01T09:28:01.704Z</time>
      </trkpt>
      <trkpt lat="43.137396" lon="-2.8025386">
        <ele>187.404</ele>
        <time>2021-04-01T09:28:01.759Z</time>
      </trkpt>
      <trkpt lat="43.137396" lon="-2.8025403">
        <ele>187.37</ele>
        <time>2021-04-01T09:28:01.814Z</time>
      </trkpt>
      <trkpt lat="43.1373957" lon="-2.8025419">
        <ele>187.416</ele>
        <time>2021-04-01T09:28:01.869Z</time>
      </trkpt>
      <trkpt lat="43.1373959" lon="-2.8025434">
        <ele>187.421</ele>
        <time>2021-04-01T09:28:01.924Z</time>
      </trkpt>
      <trkpt lat="43.1373963" lon="-2.8025455">
        <ele>187.344</ele>
        <time>2021-04-01T09:28:01.979Z</time>
      </trkpt>
      <trkpt lat="43.1373962" lon="-2.8025475">
        <ele>187.32</ele>
        <time>2021-04-01T09:28:02.034Z</time>
      </trkpt>
      <trkpt lat="43.1373962" lon="-2.8025493">
        <ele>187.316</ele>
        <time>2021-04-01T09:28:02.089Z</time>
      </trkpt>
      <trkpt lat="43.1373962" lon="-2.8025509">
        <ele>187.301</ele>
        <time>2021-04-01T09:28:02.144Z</time>
      </trkpt>
      <trkpt lat="43.1373965" lon="-2.8025527">
        <ele>187.274</ele>
        <time>2021-04-01T09:28:02.199Z</time>
      </trkpt>
      <trkpt lat="43.1373965" lon="-2.8025549">
        <ele>187.323</ele>
        <time>2021-04-01T09:28:02.254Z</time>
      </trkpt>
      <trkpt lat="43.1373961" lon="-2.8025569">
        <ele>187.38</ele>
        <time>2021-04-01T09:28:02.309Z</time>
      </trkpt>
      <trkpt lat="43.1373964" lon="-2.8025589">
        <ele>187.314</ele>
        <time>2021-04-01T09:28:02.364Z</time>
      </trkpt>
      <trkpt lat="43.1373962" lon="-2.8025607">
        <ele>187.29</ele>
        <time>2021-04-01T09:28:02.419Z</time>
      </trkpt>
      <trkpt lat="43.1373958" lon="-2.8025629">
        <ele>187.294</ele>
        <time>2021-04-01T09:28:02.474Z</time>
      </trkpt>
      <trkpt lat="43.1373953" lon="-2.8025648">
        <ele>187.285</ele>
        <time>2021-04-01T09:28:02.529Z</time>
      </trkpt>
      <trkpt lat="43.1373956" lon="-2.8025663">
        <ele>187.234</ele>
        <time>2021-04-01T09:28:02.584Z</time>
      </trkpt>
      <trkpt lat="43.1373955" lon="-2.8025675">
        <ele>187.13</ele>
        <time>2021-04-01T09:28:02.639Z</time>
      </trkpt>
      <trkpt lat="43.137395" lon="-2.8025686">
        <ele>187.081</ele>
        <time>2021-04-01T09:28:02.694Z</time>
      </trkpt>
      <trkpt lat="43.1373948" lon="-2.8025701">
        <ele>187.067</ele>
        <time>2021-04-01T09:28:02.749Z</time>
      </trkpt>
      <trkpt lat="43.1373948" lon="-2.8025716">
        <ele>187.052</ele>
        <time>2021-04-01T09:28:02.804Z</time>
      </trkpt>
      <trkpt lat="43.1373947" lon="-2.8025734">
        <ele>187.03</ele>
        <time>2021-04-01T09:28:02.859Z</time>
      </trkpt>
      <trkpt lat="43.1373943" lon="-2.8025752">
        <ele>187.028</ele>
        <time>2021-04-01T09:28:02.914Z</time>
      </trkpt>
      <trkpt lat="43.1373943" lon="-2.802577">
        <ele>186.99</ele>
        <time>2021-04-01T09:28:02.969Z</time>
      </trkpt>
      <trkpt lat="43.1373937" lon="-2.8025788">
        <ele>187.023</ele>
        <time>2021-04-01T09:28:03.024Z</time>
      </trkpt>
      <trkpt lat="43.1373936" lon="-2.8025806">
        <ele>187</ele>
        <time>2021-04-01T09:28:03.079Z</time>
      </trkpt>
      <trkpt lat="43.1373935" lon="-2.8025826">
        <ele>187.013</ele>
        <time>2021-04-01T09:28:03.134Z</time>
      </trkpt>
      <trkpt lat="43.1373935" lon="-2.8025847">
        <ele>186.977</ele>
        <time>2021-04-01T09:28:03.189Z</time>
      </trkpt>
      <trkpt lat="43.1373929" lon="-2.8025864">
        <ele>186.961</ele>
        <time>2021-04-01T09:28:03.244Z</time>
      </trkpt>
      <trkpt lat="43.1373926" lon="-2.8025878">
        <ele>186.935</ele>
        <time>2021-04-01T09:28:03.299Z</time>
      </trkpt>
      <trkpt lat="43.1373922" lon="-2.8025894">
        <ele>186.9</ele>
        <time>2021-04-01T09:28:03.354Z</time>
      </trkpt>
      <trkpt lat="43.1373919" lon="-2.8025912">
        <ele>186.832</ele>
        <time>2021-04-01T09:28:03.409Z</time>
      </trkpt>
      <trkpt lat="43.1373915" lon="-2.8025927">
        <ele>186.758</ele>
        <time>2021-04-01T09:28:03.464Z</time>
      </trkpt>
      <trkpt lat="43.1373915" lon="-2.8025943">
        <ele>186.707</ele>
        <time>2021-04-01T09:28:03.519Z</time>
      </trkpt>
      <trkpt lat="43.1373916" lon="-2.8025962">
        <ele>186.672</ele>
        <time>2021-04-01T09:28:03.574Z</time>
      </trkpt>
      <trkpt lat="43.1373912" lon="-2.802598">
        <ele>186.635</ele>
        <time>2021-04-01T09:28:03.629Z</time>
      </trkpt>
      <trkpt lat="43.1373902" lon="-2.8025998">
        <ele>186.626</ele>
        <time>2021-04-01T09:28:03.684Z</time>
      </trkpt>
      <trkpt lat="43.1373895" lon="-2.8026011">
        <ele>186.582</ele>
        <time>2021-04-01T09:28:03.739Z</time>
      </trkpt>
      <trkpt lat="43.1373887" lon="-2.8026025">
        <ele>186.539</ele>
        <time>2021-04-01T09:28:03.794Z</time>
      </trkpt>
      <trkpt lat="43.1373878" lon="-2.8026041">
        <ele>186.501</ele>
        <time>2021-04-01T09:28:03.849Z</time>
      </trkpt>
      <trkpt lat="43.1373875" lon="-2.8026058">
        <ele>186.435</ele>
        <time>2021-04-01T09:28:03.904Z</time>
      </trkpt>
      <trkpt lat="43.1373876" lon="-2.8026073">
        <ele>186.367</ele>
        <time>2021-04-01T09:28:03.959Z</time>
      </trkpt>
      <trkpt lat="43.1373869" lon="-2.8026089">
        <ele>186.371</ele>
        <time>2021-04-01T09:28:04.014Z</time>
      </trkpt>
      <trkpt lat="43.1373869" lon="-2.8026105">
        <ele>186.313</ele>
        <time>2021-04-01T09:28:04.069Z</time>
      </trkpt>
      <trkpt lat="43.1373871" lon="-2.8026122">
        <ele>186.246</ele>
        <time>2021-04-01T09:28:04.124Z</time>
      </trkpt>
      <trkpt lat="43.1373869" lon="-2.8026136">
        <ele>186.148</ele>
        <time>2021-04-01T09:28:04.179Z</time>
      </trkpt>
      <trkpt lat="43.1373865" lon="-2.8026153">
        <ele>186.135</ele>
        <time>2021-04-01T09:28:04.234Z</time>
      </trkpt>
      <trkpt lat="43.1373864" lon="-2.802617">
        <ele>186.108</ele>
        <time>2021-04-01T09:28:04.289Z</time>
      </trkpt>
      <trkpt lat="43.137386" lon="-2.8026186">
        <ele>186.098</ele>
        <time>2021-04-01T09:28:04.344Z</time>
      </trkpt>
      <trkpt lat="43.1373858" lon="-2.8026204">
        <ele>186.109</ele>
        <time>2021-04-01T09:28:04.399Z</time>
      </trkpt>
      <trkpt lat="43.1373854" lon="-2.802622">
        <ele>186.078</ele>
        <time>2021-04-01T09:28:04.454Z</time>
      </trkpt>
      <trkpt lat="43.1373853" lon="-2.8026238">
        <ele>186.118</ele>
        <time>2021-04-01T09:28:04.509Z</time>
      </trkpt>
      <trkpt lat="43.1373849" lon="-2.8026253">
        <ele>186.153</ele>
        <time>2021-04-01T09:28:04.564Z</time>
      </trkpt>
      <trkpt lat="43.1373844" lon="-2.8026265">
        <ele>186.083</ele>
        <time>2021-04-01T09:28:04.622Z</time>
      </trkpt>
      <trkpt lat="43.1373835" lon="-2.802627">
        <ele>185.986</ele>
        <time>2021-04-01T09:28:04.680Z</time>
      </trkpt>
      <trkpt lat="43.1373827" lon="-2.8026285">
        <ele>185.984</ele>
        <time>2021-04-01T09:28:04.738Z</time>
      </trkpt>
      <trkpt lat="43.1373823" lon="-2.8026304">
        <ele>185.971</ele>
        <time>2021-04-01T09:28:04.796Z</time>
      </trkpt>
      <trkpt lat="43.137382" lon="-2.8026321">
        <ele>185.905</ele>
        <time>2021-04-01T09:28:04.854Z</time>
      </trkpt>
      <trkpt lat="43.137381" lon="-2.8026334">
        <ele>185.879</ele>
        <time>2021-04-01T09:28:04.912Z</time>
      </trkpt>
      <trkpt lat="43.1373803" lon="-2.8026349">
        <ele>185.886</ele>
        <time>2021-04-01T09:28:04.970Z</time>
      </trkpt>
      <trkpt lat="43.1373793" lon="-2.8026366">
        <ele>185.933</ele>
        <time>2021-04-01T09:28:05.028Z</time>
      </trkpt>
      <trkpt lat="43.1373789" lon="-2.8026391">
        <ele>186.001</ele>
        <time>2021-04-01T09:28:05.086Z</time>
      </trkpt>
      <trkpt lat="43.1373783" lon="-2.8026413">
        <ele>186.039</ele>
        <time>2021-04-01T09:28:05.144Z</time>
      </trkpt>
      <trkpt lat="43.1373776" lon="-2.8026437">
        <ele>186.093</ele>
        <time>2021-04-01T09:28:05.202Z</time>
      </trkpt>
      <trkpt lat="43.1373769" lon="-2.802646">
        <ele>186.162</ele>
        <time>2021-04-01T09:28:05.260Z</time>
      </trkpt>
      <trkpt lat="43.1373767" lon="-2.8026481">
        <ele>186.141</ele>
        <time>2021-04-01T09:28:05.318Z</time>
      </trkpt>
      <trkpt lat="43.1373768" lon="-2.8026508">
        <ele>186.146</ele>
        <time>2021-04-01T09:28:05.376Z</time>
      </trkpt>
      <trkpt lat="43.1373765" lon="-2.8026529">
        <ele>186.145</ele>
        <time>2021-04-01T09:28:05.434Z</time>
      </trkpt>
      <trkpt lat="43.1373767" lon="-2.8026551">
        <ele>186.044</ele>
        <time>2021-04-01T09:28:05.492Z</time>
      </trkpt>
      <trkpt lat="43.1373757" lon="-2.8026563">
        <ele>185.996</ele>
        <time>2021-04-01T09:28:05.550Z</time>
      </trkpt>
      <trkpt lat="43.1373753" lon="-2.8026579">
        <ele>185.969</ele>
        <time>2021-04-01T09:28:05.609Z</time>
      </trkpt>
      <trkpt lat="43.1373745" lon="-2.80266">
        <ele>185.955</ele>
        <time>2021-04-01T09:28:05.661Z</time>
      </trkpt>
      <trkpt lat="43.1373735" lon="-2.8026619">
        <ele>185.921</ele>
        <time>2021-04-01T09:28:05.713Z</time>
      </trkpt>
      <trkpt lat="43.1373723" lon="-2.8026631">
        <ele>185.832</ele>
        <time>2021-04-01T09:28:05.765Z</time>
      </trkpt>
      <trkpt lat="43.1373717" lon="-2.8026648">
        <ele>185.867</ele>
        <time>2021-04-01T09:28:05.817Z</time>
      </trkpt>
      <trkpt lat="43.1373707" lon="-2.8026656">
        <ele>185.826</ele>
        <time>2021-04-01T09:28:05.869Z</time>
      </trkpt>
      <trkpt lat="43.1373697" lon="-2.8026676">
        <ele>185.862</ele>
        <time>2021-04-01T09:28:05.921Z</time>
      </trkpt>
      <trkpt lat="43.1373684" lon="-2.8026696">
        <ele>185.912</ele>
        <time>2021-04-01T09:28:05.973Z</time>
      </trkpt>
      <trkpt lat="43.1373672" lon="-2.8026714">
        <ele>185.952</ele>
        <time>2021-04-01T09:28:06.025Z</time>
      </trkpt>
      <trkpt lat="43.137366" lon="-2.802673">
        <ele>185.909</ele>
        <time>2021-04-01T09:28:06.077Z</time>
      </trkpt>
      <trkpt lat="43.1373651" lon="-2.8026748">
        <ele>185.876</ele>
        <time>2021-04-01T09:28:06.130Z</time>
      </trkpt>
      <trkpt lat="43.1373638" lon="-2.8026764">
        <ele>185.914</ele>
        <time>2021-04-01T09:28:06.182Z</time>
      </trkpt>
      <trkpt lat="43.1373629" lon="-2.802678">
        <ele>185.898</ele>
        <time>2021-04-01T09:28:06.234Z</time>
      </trkpt>
      <trkpt lat="43.1373622" lon="-2.80268">
        <ele>185.901</ele>
        <time>2021-04-01T09:28:06.286Z</time>
      </trkpt>
      <trkpt lat="43.1373613" lon="-2.802682">
        <ele>185.895</ele>
        <time>2021-04-01T09:28:06.338Z</time>
      </trkpt>
      <trkpt lat="43.1373609" lon="-2.8026841">
        <ele>185.864</ele>
        <time>2021-04-01T09:28:06.390Z</time>
      </trkpt>
      <trkpt lat="43.1373597" lon="-2.8026861">
        <ele>185.878</ele>
        <time>2021-04-01T09:28:06.442Z</time>
      </trkpt>
      <trkpt lat="43.1373585" lon="-2.8026881">
        <ele>185.933</ele>
        <time>2021-04-01T09:28:06.494Z</time>
      </trkpt>
      <trkpt lat="43.1373579" lon="-2.8026906">
        <ele>185.996</ele>
        <time>2021-04-01T09:28:06.546Z</time>
      </trkpt>
      <trkpt lat="43.137358" lon="-2.8026926">
        <ele>186.006</ele>
        <time>2021-04-01T09:28:06.599Z</time>
      </trkpt>
      <trkpt lat="43.1373572" lon="-2.8026944">
        <ele>186.013</ele>
        <time>2021-04-01T09:28:06.657Z</time>
      </trkpt>
      <trkpt lat="43.1373566" lon="-2.8026966">
        <ele>186.059</ele>
        <time>2021-04-01T09:28:06.715Z</time>
      </trkpt>
      <trkpt lat="43.1373566" lon="-2.8026988">
        <ele>186.14</ele>
        <time>2021-04-01T09:28:06.773Z</time>
      </trkpt>
      <trkpt lat="43.1373561" lon="-2.8027015">
        <ele>186.322</ele>
        <time>2021-04-01T09:28:06.831Z</time>
      </trkpt>
      <trkpt lat="43.1373556" lon="-2.8027041">
        <ele>186.488</ele>
        <time>2021-04-01T09:28:06.890Z</time>
      </trkpt>
      <trkpt lat="43.1373553" lon="-2.8027063">
        <ele>186.616</ele>
        <time>2021-04-01T09:28:06.948Z</time>
      </trkpt>
      <trkpt lat="43.1373541" lon="-2.8027084">
        <ele>186.673</ele>
        <time>2021-04-01T09:28:07.006Z</time>
      </trkpt>
      <trkpt lat="43.1373538" lon="-2.80271">
        <ele>186.626</ele>
        <time>2021-04-01T09:28:07.064Z</time>
      </trkpt>
      <trkpt lat="43.1373531" lon="-2.8027124">
        <ele>186.659</ele>
        <time>2021-04-01T09:28:07.123Z</time>
      </trkpt>
      <trkpt lat="43.1373517" lon="-2.8027142">
        <ele>186.729</ele>
        <time>2021-04-01T09:28:07.181Z</time>
      </trkpt>
      <trkpt lat="43.1373509" lon="-2.8027155">
        <ele>186.608</ele>
        <time>2021-04-01T09:28:07.239Z</time>
      </trkpt>
      <trkpt lat="43.1373498" lon="-2.8027175">
        <ele>186.58</ele>
        <time>2021-04-01T09:28:07.297Z</time>
      </trkpt>
      <trkpt lat="43.1373489" lon="-2.8027201">
        <ele>186.682</ele>
        <time>2021-04-01T09:28:07.356Z</time>
      </trkpt>
      <trkpt lat="43.1373479" lon="-2.8027226">
        <ele>186.713</ele>
        <time>2021-04-01T09:28:07.414Z</time>
      </trkpt>
      <trkpt lat="43.1373474" lon="-2.802725">
        <ele>186.737</ele>
        <time>2021-04-01T09:28:07.472Z</time>
      </trkpt>
      <trkpt lat="43.1373469" lon="-2.8027272">
        <ele>186.744</ele>
        <time>2021-04-01T09:28:07.530Z</time>
      </trkpt>
      <trkpt lat="43.1373457" lon="-2.8027298">
        <ele>186.809</ele>
        <time>2021-04-01T09:28:07.589Z</time>
      </trkpt>
      <trkpt lat="43.1373449" lon="-2.8027322">
        <ele>186.796</ele>
        <time>2021-04-01T09:28:07.644Z</time>
      </trkpt>
      <trkpt lat="43.137344" lon="-2.8027346">
        <ele>186.832</ele>
        <time>2021-04-01T09:28:07.699Z</time>
      </trkpt>
      <trkpt lat="43.1373433" lon="-2.8027368">
        <ele>186.868</ele>
        <time>2021-04-01T09:28:07.754Z</time>
      </trkpt>
      <trkpt lat="43.1373422" lon="-2.8027396">
        <ele>186.943</ele>
        <time>2021-04-01T09:28:07.809Z</time>
      </trkpt>
      <trkpt lat="43.1373415" lon="-2.8027415">
        <ele>186.901</ele>
        <time>2021-04-01T09:28:07.864Z</time>
      </trkpt>
      <trkpt lat="43.1373402" lon="-2.8027431">
        <ele>186.864</ele>
        <time>2021-04-01T09:28:07.919Z</time>
      </trkpt>
      <trkpt lat="43.1373391" lon="-2.8027447">
        <ele>186.814</ele>
        <time>2021-04-01T09:28:07.974Z</time>
      </trkpt>
      <trkpt lat="43.1373379" lon="-2.8027464">
        <ele>186.77</ele>
        <time>2021-04-01T09:28:08.029Z</time>
      </trkpt>
      <trkpt lat="43.1373365" lon="-2.8027484">
        <ele>186.786</ele>
        <time>2021-04-01T09:28:08.084Z</time>
      </trkpt>
      <trkpt lat="43.1373347" lon="-2.8027502">
        <ele>186.826</ele>
        <time>2021-04-01T09:28:08.139Z</time>
      </trkpt>
      <trkpt lat="43.1373334" lon="-2.8027518">
        <ele>186.804</ele>
        <time>2021-04-01T09:28:08.194Z</time>
      </trkpt>
      <trkpt lat="43.137332" lon="-2.8027533">
        <ele>186.787</ele>
        <time>2021-04-01T09:28:08.249Z</time>
      </trkpt>
      <trkpt lat="43.1373307" lon="-2.8027551">
        <ele>186.765</ele>
        <time>2021-04-01T09:28:08.304Z</time>
      </trkpt>
      <trkpt lat="43.1373296" lon="-2.802757">
        <ele>186.774</ele>
        <time>2021-04-01T09:28:08.359Z</time>
      </trkpt>
      <trkpt lat="43.137328" lon="-2.8027581">
        <ele>186.736</ele>
        <time>2021-04-01T09:28:08.414Z</time>
      </trkpt>
      <trkpt lat="43.1373264" lon="-2.8027593">
        <ele>186.702</ele>
        <time>2021-04-01T09:28:08.469Z</time>
      </trkpt>
      <trkpt lat="43.1373248" lon="-2.8027605">
        <ele>186.662</ele>
        <time>2021-04-01T09:28:08.524Z</time>
      </trkpt>
      <trkpt lat="43.1373236" lon="-2.8027621">
        <ele>186.624</ele>
        <time>2021-04-01T09:28:08.579Z</time>
      </trkpt>
      <trkpt lat="43.1373221" lon="-2.8027638">
        <ele>186.609</ele>
        <time>2021-04-01T09:28:08.634Z</time>
      </trkpt>
      <trkpt lat="43.1373206" lon="-2.8027652">
        <ele>186.591</ele>
        <time>2021-04-01T09:28:08.689Z</time>
      </trkpt>
      <trkpt lat="43.1373204" lon="-2.8027672">
        <ele>186.548</ele>
        <time>2021-04-01T09:28:08.744Z</time>
      </trkpt>
      <trkpt lat="43.1373188" lon="-2.8027691">
        <ele>186.566</ele>
        <time>2021-04-01T09:28:08.799Z</time>
      </trkpt>
      <trkpt lat="43.1373173" lon="-2.8027707">
        <ele>186.602</ele>
        <time>2021-04-01T09:28:08.854Z</time>
      </trkpt>
      <trkpt lat="43.1373154" lon="-2.8027724">
        <ele>186.638</ele>
        <time>2021-04-01T09:28:08.909Z</time>
      </trkpt>
      <trkpt lat="43.137313" lon="-2.8027742">
        <ele>186.748</ele>
        <time>2021-04-01T09:28:08.964Z</time>
      </trkpt>
      <trkpt lat="43.1373114" lon="-2.802776">
        <ele>186.791</ele>
        <time>2021-04-01T09:28:09.019Z</time>
      </trkpt>
      <trkpt lat="43.1373098" lon="-2.8027779">
        <ele>186.872</ele>
        <time>2021-04-01T09:28:09.074Z</time>
      </trkpt>
      <trkpt lat="43.1373084" lon="-2.8027794">
        <ele>186.884</ele>
        <time>2021-04-01T09:28:09.129Z</time>
      </trkpt>
      <trkpt lat="43.1373071" lon="-2.8027814">
        <ele>186.897</ele>
        <time>2021-04-01T09:28:09.184Z</time>
      </trkpt>
      <trkpt lat="43.1373056" lon="-2.8027834">
        <ele>186.885</ele>
        <time>2021-04-01T09:28:09.239Z</time>
      </trkpt>
      <trkpt lat="43.1373039" lon="-2.8027852">
        <ele>186.888</ele>
        <time>2021-04-01T09:28:09.294Z</time>
      </trkpt>
      <trkpt lat="43.1373022" lon="-2.8027868">
        <ele>186.882</ele>
        <time>2021-04-01T09:28:09.349Z</time>
      </trkpt>
      <trkpt lat="43.1373006" lon="-2.8027886">
        <ele>186.937</ele>
        <time>2021-04-01T09:28:09.404Z</time>
      </trkpt>
      <trkpt lat="43.1372991" lon="-2.8027907">
        <ele>187.023</ele>
        <time>2021-04-01T09:28:09.459Z</time>
      </trkpt>
      <trkpt lat="43.137298" lon="-2.8027926">
        <ele>186.997</ele>
        <time>2021-04-01T09:28:09.514Z</time>
      </trkpt>
      <trkpt lat="43.1372958" lon="-2.8027952">
        <ele>187.179</ele>
        <time>2021-04-01T09:28:09.569Z</time>
      </trkpt>
      <trkpt lat="43.1372934" lon="-2.8027974">
        <ele>187.351</ele>
        <time>2021-04-01T09:28:09.624Z</time>
      </trkpt>
      <trkpt lat="43.137292" lon="-2.8027993">
        <ele>187.349</ele>
        <time>2021-04-01T09:28:09.676Z</time>
      </trkpt>
      <trkpt lat="43.1372902" lon="-2.8028013">
        <ele>187.402</ele>
        <time>2021-04-01T09:28:09.728Z</time>
      </trkpt>
      <trkpt lat="43.1372888" lon="-2.802803">
        <ele>187.424</ele>
        <time>2021-04-01T09:28:09.780Z</time>
      </trkpt>
      <trkpt lat="43.137287" lon="-2.802805">
        <ele>187.502</ele>
        <time>2021-04-01T09:28:09.832Z</time>
      </trkpt>
      <trkpt lat="43.1372862" lon="-2.8028073">
        <ele>187.471</ele>
        <time>2021-04-01T09:28:09.884Z</time>
      </trkpt>
      <trkpt lat="43.1372841" lon="-2.8028092">
        <ele>187.578</ele>
        <time>2021-04-01T09:28:09.936Z</time>
      </trkpt>
      <trkpt lat="43.1372825" lon="-2.8028109">
        <ele>187.659</ele>
        <time>2021-04-01T09:28:09.988Z</time>
      </trkpt>
      <trkpt lat="43.1372811" lon="-2.8028129">
        <ele>187.77</ele>
        <time>2021-04-01T09:28:10.040Z</time>
      </trkpt>
      <trkpt lat="43.1372796" lon="-2.8028151">
        <ele>187.871</ele>
        <time>2021-04-01T09:28:10.092Z</time>
      </trkpt>
      <trkpt lat="43.1372782" lon="-2.8028171">
        <ele>187.924</ele>
        <time>2021-04-01T09:28:10.145Z</time>
      </trkpt>
      <trkpt lat="43.137277" lon="-2.8028192">
        <ele>188.008</ele>
        <time>2021-04-01T09:28:10.197Z</time>
      </trkpt>
      <trkpt lat="43.1372754" lon="-2.8028214">
        <ele>188.053</ele>
        <time>2021-04-01T09:28:10.249Z</time>
      </trkpt>
      <trkpt lat="43.137274" lon="-2.8028236">
        <ele>188.116</ele>
        <time>2021-04-01T09:28:10.301Z</time>
      </trkpt>
      <trkpt lat="43.1372723" lon="-2.8028259">
        <ele>188.275</ele>
        <time>2021-04-01T09:28:10.353Z</time>
      </trkpt>
      <trkpt lat="43.1372705" lon="-2.8028279">
        <ele>188.356</ele>
        <time>2021-04-01T09:28:10.405Z</time>
      </trkpt>
      <trkpt lat="43.1372692" lon="-2.8028299">
        <ele>188.407</ele>
        <time>2021-04-01T09:28:10.457Z</time>
      </trkpt>
      <trkpt lat="43.1372676" lon="-2.8028318">
        <ele>188.453</ele>
        <time>2021-04-01T09:28:10.509Z</time>
      </trkpt>
      <trkpt lat="43.1372663" lon="-2.8028338">
        <ele>188.501</ele>
        <time>2021-04-01T09:28:10.561Z</time>
      </trkpt>
      <trkpt lat="43.1372657" lon="-2.8028357">
        <ele>188.544</ele>
        <time>2021-04-01T09:28:10.614Z</time>
      </trkpt>
      <trkpt lat="43.1372644" lon="-2.802838">
        <ele>188.608</ele>
        <time>2021-04-01T09:28:10.672Z</time>
      </trkpt>
      <trkpt lat="43.1372624" lon="-2.80284">
        <ele>188.68</ele>
        <time>2021-04-01T09:28:10.730Z</time>
      </trkpt>
      <trkpt lat="43.1372608" lon="-2.8028422">
        <ele>188.799</ele>
        <time>2021-04-01T09:28:10.788Z</time>
      </trkpt>
      <trkpt lat="43.1372586" lon="-2.8028437">
        <ele>188.858</ele>
        <time>2021-04-01T09:28:10.846Z</time>
      </trkpt>
      <trkpt lat="43.1372578" lon="-2.8028453">
        <ele>188.925</ele>
        <time>2021-04-01T09:28:10.905Z</time>
      </trkpt>
      <trkpt lat="43.1372567" lon="-2.8028471">
        <ele>189.02</ele>
        <time>2021-04-01T09:28:10.963Z</time>
      </trkpt>
      <trkpt lat="43.1372558" lon="-2.8028502">
        <ele>189.149</ele>
        <time>2021-04-01T09:28:11.021Z</time>
      </trkpt>
      <trkpt lat="43.1372542" lon="-2.8028522">
        <ele>189.191</ele>
        <time>2021-04-01T09:28:11.079Z</time>
      </trkpt>
      <trkpt lat="43.1372522" lon="-2.8028538">
        <ele>189.245</ele>
        <time>2021-04-01T09:28:11.138Z</time>
      </trkpt>
      <trkpt lat="43.1372501" lon="-2.8028561">
        <ele>189.473</ele>
        <time>2021-04-01T09:28:11.196Z</time>
      </trkpt>
      <trkpt lat="43.137248" lon="-2.8028586">
        <ele>189.752</ele>
        <time>2021-04-01T09:28:11.254Z</time>
      </trkpt>
      <trkpt lat="43.1372463" lon="-2.8028606">
        <ele>189.851</ele>
        <time>2021-04-01T09:28:11.312Z</time>
      </trkpt>
      <trkpt lat="43.137245" lon="-2.8028627">
        <ele>189.916</ele>
        <time>2021-04-01T09:28:11.371Z</time>
      </trkpt>
      <trkpt lat="43.1372439" lon="-2.8028643">
        <ele>189.886</ele>
        <time>2021-04-01T09:28:11.429Z</time>
      </trkpt>
      <trkpt lat="43.1372432" lon="-2.8028664">
        <ele>189.944</ele>
        <time>2021-04-01T09:28:11.487Z</time>
      </trkpt>
      <trkpt lat="43.1372417" lon="-2.8028681">
        <ele>189.962</ele>
        <time>2021-04-01T09:28:11.545Z</time>
      </trkpt>
      <trkpt lat="43.1372402" lon="-2.8028703">
        <ele>190.048</ele>
        <time>2021-04-01T09:28:11.604Z</time>
      </trkpt>
      <trkpt lat="43.137239" lon="-2.8028725">
        <ele>190.172</ele>
        <time>2021-04-01T09:28:11.656Z</time>
      </trkpt>
      <trkpt lat="43.1372376" lon="-2.8028744">
        <ele>190.281</ele>
        <time>2021-04-01T09:28:11.708Z</time>
      </trkpt>
      <trkpt lat="43.1372359" lon="-2.8028761">
        <ele>190.358</ele>
        <time>2021-04-01T09:28:11.760Z</time>
      </trkpt>
      <trkpt lat="43.1372346" lon="-2.8028779">
        <ele>190.424</ele>
        <time>2021-04-01T09:28:11.812Z</time>
      </trkpt>
      <trkpt lat="43.1372334" lon="-2.8028794">
        <ele>190.458</ele>
        <time>2021-04-01T09:28:11.864Z</time>
      </trkpt>
      <trkpt lat="43.137232" lon="-2.8028811">
        <ele>190.507</ele>
        <time>2021-04-01T09:28:11.916Z</time>
      </trkpt>
      <trkpt lat="43.1372308" lon="-2.8028824">
        <ele>190.531</ele>
        <time>2021-04-01T09:28:11.968Z</time>
      </trkpt>
      <trkpt lat="43.1372294" lon="-2.8028836">
        <ele>190.536</ele>
        <time>2021-04-01T09:28:12.020Z</time>
      </trkpt>
      <trkpt lat="43.1372281" lon="-2.8028847">
        <ele>190.632</ele>
        <time>2021-04-01T09:28:12.072Z</time>
      </trkpt>
      <trkpt lat="43.1372268" lon="-2.802886">
        <ele>190.677</ele>
        <time>2021-04-01T09:28:12.125Z</time>
      </trkpt>
      <trkpt lat="43.1372257" lon="-2.8028876">
        <ele>190.697</ele>
        <time>2021-04-01T09:28:12.177Z</time>
      </trkpt>
      <trkpt lat="43.1372245" lon="-2.8028893">
        <ele>190.658</ele>
        <time>2021-04-01T09:28:12.229Z</time>
      </trkpt>
      <trkpt lat="43.1372234" lon="-2.8028907">
        <ele>190.623</ele>
        <time>2021-04-01T09:28:12.281Z</time>
      </trkpt>
      <trkpt lat="43.1372225" lon="-2.8028924">
        <ele>190.655</ele>
        <time>2021-04-01T09:28:12.333Z</time>
      </trkpt>
      <trkpt lat="43.137222" lon="-2.8028936">
        <ele>190.537</ele>
        <time>2021-04-01T09:28:12.385Z</time>
      </trkpt>
      <trkpt lat="43.1372209" lon="-2.8028951">
        <ele>190.501</ele>
        <time>2021-04-01T09:28:12.437Z</time>
      </trkpt>
      <trkpt lat="43.1372196" lon="-2.8028968">
        <ele>190.52</ele>
        <time>2021-04-01T09:28:12.489Z</time>
      </trkpt>
      <trkpt lat="43.1372182" lon="-2.8028986">
        <ele>190.564</ele>
        <time>2021-04-01T09:28:12.541Z</time>
      </trkpt>
      <trkpt lat="43.137217" lon="-2.8029003">
        <ele>190.684</ele>
        <time>2021-04-01T09:28:12.594Z</time>
      </trkpt>
      <trkpt lat="43.1372153" lon="-2.8029025">
        <ele>190.84</ele>
        <time>2021-04-01T09:28:12.652Z</time>
      </trkpt>
      <trkpt lat="43.1372137" lon="-2.8029043">
        <ele>190.948</ele>
        <time>2021-04-01T09:28:12.710Z</time>
      </trkpt>
      <trkpt lat="43.1372127" lon="-2.8029063">
        <ele>191.058</ele>
        <time>2021-04-01T09:28:12.768Z</time>
      </trkpt>
      <trkpt lat="43.1372118" lon="-2.8029086">
        <ele>191.175</ele>
        <time>2021-04-01T09:28:12.826Z</time>
      </trkpt>
      <trkpt lat="43.1372109" lon="-2.8029104">
        <ele>191.29</ele>
        <time>2021-04-01T09:28:12.884Z</time>
      </trkpt>
      <trkpt lat="43.1372101" lon="-2.8029123">
        <ele>191.411</ele>
        <time>2021-04-01T09:28:12.942Z</time>
      </trkpt>
      <trkpt lat="43.1372091" lon="-2.802915">
        <ele>191.551</ele>
        <time>2021-04-01T09:28:13.000Z</time>
      </trkpt>
      <trkpt lat="43.1372077" lon="-2.8029169">
        <ele>191.679</ele>
        <time>2021-04-01T09:28:13.058Z</time>
      </trkpt>
      <trkpt lat="43.1372066" lon="-2.8029192">
        <ele>191.847</ele>
        <time>2021-04-01T09:28:13.116Z</time>
      </trkpt>
      <trkpt lat="43.1372053" lon="-2.8029214">
        <ele>192.005</ele>
        <time>2021-04-01T09:28:13.174Z</time>
      </trkpt>
      <trkpt lat="43.1372037" lon="-2.8029241">
        <ele>192.246</ele>
        <time>2021-04-01T09:28:13.232Z</time>
      </trkpt>
      <trkpt lat="43.1372028" lon="-2.8029258">
        <ele>192.347</ele>
        <time>2021-04-01T09:28:13.290Z</time>
      </trkpt>
      <trkpt lat="43.1372018" lon="-2.8029271">
        <ele>192.485</ele>
        <time>2021-04-01T09:28:13.348Z</time>
      </trkpt>
      <trkpt lat="43.1372008" lon="-2.8029289">
        <ele>192.593</ele>
        <time>2021-04-01T09:28:13.406Z</time>
      </trkpt>
      <trkpt lat="43.1371996" lon="-2.8029308">
        <ele>192.684</ele>
        <time>2021-04-01T09:28:13.464Z</time>
      </trkpt>
      <trkpt lat="43.1371984" lon="-2.8029334">
        <ele>192.801</ele>
        <time>2021-04-01T09:28:13.522Z</time>
      </trkpt>
      <trkpt lat="43.137198" lon="-2.8029359">
        <ele>193</ele>
        <time>2021-04-01T09:28:13.580Z</time>
      </trkpt>
      <trkpt lat="43.1371969" lon="-2.8029378">
        <ele>193.176</ele>
        <time>2021-04-01T09:28:13.639Z</time>
      </trkpt>
      <trkpt lat="43.137196" lon="-2.8029398">
        <ele>193.35</ele>
        <time>2021-04-01T09:28:13.694Z</time>
      </trkpt>
      <trkpt lat="43.1371951" lon="-2.8029418">
        <ele>193.469</ele>
        <time>2021-04-01T09:28:13.749Z</time>
      </trkpt>
      <trkpt lat="43.1371938" lon="-2.8029447">
        <ele>193.624</ele>
        <time>2021-04-01T09:28:13.804Z</time>
      </trkpt>
      <trkpt lat="43.1371928" lon="-2.8029467">
        <ele>193.797</ele>
        <time>2021-04-01T09:28:13.859Z</time>
      </trkpt>
      <trkpt lat="43.1371917" lon="-2.8029488">
        <ele>193.94</ele>
        <time>2021-04-01T09:28:13.914Z</time>
      </trkpt>
      <trkpt lat="43.1371907" lon="-2.8029509">
        <ele>194.136</ele>
        <time>2021-04-01T09:28:13.969Z</time>
      </trkpt>
      <trkpt lat="43.1371897" lon="-2.8029532">
        <ele>194.28</ele>
        <time>2021-04-01T09:28:14.024Z</time>
      </trkpt>
      <trkpt lat="43.1371887" lon="-2.8029552">
        <ele>194.329</ele>
        <time>2021-04-01T09:28:14.079Z</time>
      </trkpt>
      <trkpt lat="43.1371873" lon="-2.802957">
        <ele>194.429</ele>
        <time>2021-04-01T09:28:14.134Z</time>
      </trkpt>
      <trkpt lat="43.1371856" lon="-2.8029588">
        <ele>194.554</ele>
        <time>2021-04-01T09:28:14.189Z</time>
      </trkpt>
      <trkpt lat="43.1371837" lon="-2.8029608">
        <ele>194.662</ele>
        <time>2021-04-01T09:28:14.244Z</time>
      </trkpt>
      <trkpt lat="43.1371821" lon="-2.8029629">
        <ele>194.783</ele>
        <time>2021-04-01T09:28:14.299Z</time>
      </trkpt>
      <trkpt lat="43.1371803" lon="-2.8029644">
        <ele>194.868</ele>
        <time>2021-04-01T09:28:14.354Z</time>
      </trkpt>
      <trkpt lat="43.1371786" lon="-2.8029656">
        <ele>194.943</ele>
        <time>2021-04-01T09:28:14.409Z</time>
      </trkpt>
      <trkpt lat="43.137177" lon="-2.8029671">
        <ele>194.964</ele>
        <time>2021-04-01T09:28:14.464Z</time>
      </trkpt>
      <trkpt lat="43.1371752" lon="-2.8029686">
        <ele>195.025</ele>
        <time>2021-04-01T09:28:14.519Z</time>
      </trkpt>
      <trkpt lat="43.1371731" lon="-2.8029697">
        <ele>195.132</ele>
        <time>2021-04-01T09:28:14.574Z</time>
      </trkpt>
      <trkpt lat="43.1371713" lon="-2.8029709">
        <ele>195.211</ele>
        <time>2021-04-01T09:28:14.629Z</time>
      </trkpt>
      <trkpt lat="43.1371692" lon="-2.8029718">
        <ele>195.258</ele>
        <time>2021-04-01T09:28:14.684Z</time>
      </trkpt>
      <trkpt lat="43.1371674" lon="-2.8029731">
        <ele>195.343</ele>
        <time>2021-04-01T09:28:14.739Z</time>
      </trkpt>
      <trkpt lat="43.1371654" lon="-2.8029742">
        <ele>195.414</ele>
        <time>2021-04-01T09:28:14.794Z</time>
      </trkpt>
      <trkpt lat="43.1371635" lon="-2.8029753">
        <ele>195.488</ele>
        <time>2021-04-01T09:28:14.849Z</time>
      </trkpt>
      <trkpt lat="43.1371617" lon="-2.8029767">
        <ele>195.535</ele>
        <time>2021-04-01T09:28:14.904Z</time>
      </trkpt>
      <trkpt lat="43.1371603" lon="-2.8029778">
        <ele>195.508</ele>
        <time>2021-04-01T09:28:14.959Z</time>
      </trkpt>
      <trkpt lat="43.1371584" lon="-2.802979">
        <ele>195.567</ele>
        <time>2021-04-01T09:28:15.014Z</time>
      </trkpt>
      <trkpt lat="43.1371564" lon="-2.8029799">
        <ele>195.623</ele>
        <time>2021-04-01T09:28:15.069Z</time>
      </trkpt>
      <trkpt lat="43.1371544" lon="-2.8029811">
        <ele>195.653</ele>
        <time>2021-04-01T09:28:15.124Z</time>
      </trkpt>
      <trkpt lat="43.1371525" lon="-2.8029826">
        <ele>195.738</ele>
        <time>2021-04-01T09:28:15.179Z</time>
      </trkpt>
      <trkpt lat="43.1371508" lon="-2.8029839">
        <ele>195.833</ele>
        <time>2021-04-01T09:28:15.234Z</time>
      </trkpt>
      <trkpt lat="43.1371488" lon="-2.8029848">
        <ele>195.941</ele>
        <time>2021-04-01T09:28:15.289Z</time>
      </trkpt>
      <trkpt lat="43.137147" lon="-2.8029867">
        <ele>195.994</ele>
        <time>2021-04-01T09:28:15.344Z</time>
      </trkpt>
      <trkpt lat="43.1371454" lon="-2.8029884">
        <ele>196.026</ele>
        <time>2021-04-01T09:28:15.399Z</time>
      </trkpt>
      <trkpt lat="43.1371435" lon="-2.8029894">
        <ele>196.091</ele>
        <time>2021-04-01T09:28:15.454Z</time>
      </trkpt>
      <trkpt lat="43.1371417" lon="-2.8029904">
        <ele>196.104</ele>
        <time>2021-04-01T09:28:15.509Z</time>
      </trkpt>
      <trkpt lat="43.13714" lon="-2.802991">
        <ele>196.113</ele>
        <time>2021-04-01T09:28:15.564Z</time>
      </trkpt>
      <trkpt lat="43.1371386" lon="-2.8029917">
        <ele>196.108</ele>
        <time>2021-04-01T09:28:15.619Z</time>
      </trkpt>
      <trkpt lat="43.137137" lon="-2.8029924">
        <ele>196.07</ele>
        <time>2021-04-01T09:28:15.671Z</time>
      </trkpt>
      <trkpt lat="43.1371355" lon="-2.802993">
        <ele>196.013</ele>
        <time>2021-04-01T09:28:15.723Z</time>
      </trkpt>
      <trkpt lat="43.1371341" lon="-2.8029935">
        <ele>196.008</ele>
        <time>2021-04-01T09:28:15.775Z</time>
      </trkpt>
      <trkpt lat="43.1371324" lon="-2.8029943">
        <ele>195.987</ele>
        <time>2021-04-01T09:28:15.827Z</time>
      </trkpt>
      <trkpt lat="43.137131" lon="-2.8029951">
        <ele>195.934</ele>
        <time>2021-04-01T09:28:15.879Z</time>
      </trkpt>
      <trkpt lat="43.1371297" lon="-2.8029958">
        <ele>195.873</ele>
        <time>2021-04-01T09:28:15.931Z</time>
      </trkpt>
      <trkpt lat="43.1371283" lon="-2.8029958">
        <ele>195.813</ele>
        <time>2021-04-01T09:28:15.983Z</time>
      </trkpt>
      <trkpt lat="43.1371266" lon="-2.8029964">
        <ele>195.812</ele>
        <time>2021-04-01T09:28:16.035Z</time>
      </trkpt>
      <trkpt lat="43.1371246" lon="-2.802997">
        <ele>195.815</ele>
        <time>2021-04-01T09:28:16.087Z</time>
      </trkpt>
      <trkpt lat="43.1371228" lon="-2.802998">
        <ele>195.833</ele>
        <time>2021-04-01T09:28:16.140Z</time>
      </trkpt>
      <trkpt lat="43.1371213" lon="-2.8029985">
        <ele>195.819</ele>
        <time>2021-04-01T09:28:16.192Z</time>
      </trkpt>
      <trkpt lat="43.1371195" lon="-2.8029992">
        <ele>195.811</ele>
        <time>2021-04-01T09:28:16.244Z</time>
      </trkpt>
      <trkpt lat="43.1371176" lon="-2.8030002">
        <ele>195.804</ele>
        <time>2021-04-01T09:28:16.296Z</time>
      </trkpt>
      <trkpt lat="43.1371158" lon="-2.8030012">
        <ele>195.831</ele>
        <time>2021-04-01T09:28:16.348Z</time>
      </trkpt>
      <trkpt lat="43.1371138" lon="-2.803002">
        <ele>195.853</ele>
        <time>2021-04-01T09:28:16.400Z</time>
      </trkpt>
      <trkpt lat="43.1371117" lon="-2.8030028">
        <ele>195.864</ele>
        <time>2021-04-01T09:28:16.452Z</time>
      </trkpt>
      <trkpt lat="43.1371097" lon="-2.8030036">
        <ele>195.913</ele>
        <time>2021-04-01T09:28:16.504Z</time>
      </trkpt>
      <trkpt lat="43.1371079" lon="-2.8030047">
        <ele>195.944</ele>
        <time>2021-04-01T09:28:16.556Z</time>
      </trkpt>
      <trkpt lat="43.1371061" lon="-2.8030058">
        <ele>195.97</ele>
        <time>2021-04-01T09:28:16.609Z</time>
      </trkpt>
      <trkpt lat="43.1371046" lon="-2.8030061">
        <ele>195.947</ele>
        <time>2021-04-01T09:28:16.667Z</time>
      </trkpt>
      <trkpt lat="43.1371026" lon="-2.8030074">
        <ele>195.987</ele>
        <time>2021-04-01T09:28:16.725Z</time>
      </trkpt>
      <trkpt lat="43.1371008" lon="-2.8030085">
        <ele>196.011</ele>
        <time>2021-04-01T09:28:16.783Z</time>
      </trkpt>
      <trkpt lat="43.1370991" lon="-2.8030094">
        <ele>196.062</ele>
        <time>2021-04-01T09:28:16.841Z</time>
      </trkpt>
      <trkpt lat="43.1370971" lon="-2.8030104">
        <ele>196.081</ele>
        <time>2021-04-01T09:28:16.900Z</time>
      </trkpt>
      <trkpt lat="43.1370953" lon="-2.8030115">
        <ele>196.085</ele>
        <time>2021-04-01T09:28:16.958Z</time>
      </trkpt>
      <trkpt lat="43.1370934" lon="-2.8030123">
        <ele>196.096</ele>
        <time>2021-04-01T09:28:17.016Z</time>
      </trkpt>
      <trkpt lat="43.1370915" lon="-2.8030132">
        <ele>196.175</ele>
        <time>2021-04-01T09:28:17.074Z</time>
      </trkpt>
      <trkpt lat="43.1370896" lon="-2.8030138">
        <ele>196.172</ele>
        <time>2021-04-01T09:28:17.133Z</time>
      </trkpt>
      <trkpt lat="43.1370877" lon="-2.8030146">
        <ele>196.172</ele>
        <time>2021-04-01T09:28:17.191Z</time>
      </trkpt>
      <trkpt lat="43.137086" lon="-2.8030157">
        <ele>196.139</ele>
        <time>2021-04-01T09:28:17.249Z</time>
      </trkpt>
      <trkpt lat="43.1370841" lon="-2.8030167">
        <ele>196.186</ele>
        <time>2021-04-01T09:28:17.307Z</time>
      </trkpt>
      <trkpt lat="43.1370821" lon="-2.8030174">
        <ele>196.246</ele>
        <time>2021-04-01T09:28:17.366Z</time>
      </trkpt>
      <trkpt lat="43.1370802" lon="-2.8030181">
        <ele>196.263</ele>
        <time>2021-04-01T09:28:17.424Z</time>
      </trkpt>
      <trkpt lat="43.1370784" lon="-2.8030191">
        <ele>196.259</ele>
        <time>2021-04-01T09:28:17.482Z</time>
      </trkpt>
      <trkpt lat="43.1370768" lon="-2.80302">
        <ele>196.149</ele>
        <time>2021-04-01T09:28:17.540Z</time>
      </trkpt>
      <trkpt lat="43.1370751" lon="-2.8030209">
        <ele>196.108</ele>
        <time>2021-04-01T09:28:17.599Z</time>
      </trkpt>
      <trkpt lat="43.1370733" lon="-2.8030221">
        <ele>196.13</ele>
        <time>2021-04-01T09:28:17.657Z</time>
      </trkpt>
      <trkpt lat="43.1370715" lon="-2.8030232">
        <ele>196.086</ele>
        <time>2021-04-01T09:28:17.715Z</time>
      </trkpt>
      <trkpt lat="43.1370697" lon="-2.8030242">
        <ele>196.055</ele>
        <time>2021-04-01T09:28:17.773Z</time>
      </trkpt>
      <trkpt lat="43.137068" lon="-2.8030251">
        <ele>196.006</ele>
        <time>2021-04-01T09:28:17.831Z</time>
      </trkpt>
      <trkpt lat="43.1370662" lon="-2.8030257">
        <ele>195.995</ele>
        <time>2021-04-01T09:28:17.889Z</time>
      </trkpt>
      <trkpt lat="43.1370646" lon="-2.8030264">
        <ele>195.943</ele>
        <time>2021-04-01T09:28:17.947Z</time>
      </trkpt>
      <trkpt lat="43.1370625" lon="-2.8030265">
        <ele>195.982</ele>
        <time>2021-04-01T09:28:18.005Z</time>
      </trkpt>
      <trkpt lat="43.1370606" lon="-2.8030266">
        <ele>195.978</ele>
        <time>2021-04-01T09:28:18.063Z</time>
      </trkpt>
      <trkpt lat="43.1370586" lon="-2.8030271">
        <ele>195.993</ele>
        <time>2021-04-01T09:28:18.121Z</time>
      </trkpt>
      <trkpt lat="43.1370565" lon="-2.8030278">
        <ele>196.035</ele>
        <time>2021-04-01T09:28:18.179Z</time>
      </trkpt>
      <trkpt lat="43.1370548" lon="-2.8030285">
        <ele>196.079</ele>
        <time>2021-04-01T09:28:18.237Z</time>
      </trkpt>
      <trkpt lat="43.1370528" lon="-2.8030297">
        <ele>196.071</ele>
        <time>2021-04-01T09:28:18.295Z</time>
      </trkpt>
      <trkpt lat="43.1370511" lon="-2.803031">
        <ele>196.073</ele>
        <time>2021-04-01T09:28:18.353Z</time>
      </trkpt>
      <trkpt lat="43.1370491" lon="-2.8030324">
        <ele>196.111</ele>
        <time>2021-04-01T09:28:18.411Z</time>
      </trkpt>
      <trkpt lat="43.1370472" lon="-2.8030333">
        <ele>196.111</ele>
        <time>2021-04-01T09:28:18.469Z</time>
      </trkpt>
      <trkpt lat="43.1370454" lon="-2.8030342">
        <ele>196.124</ele>
        <time>2021-04-01T09:28:18.527Z</time>
      </trkpt>
      <trkpt lat="43.1370436" lon="-2.8030353">
        <ele>196.095</ele>
        <time>2021-04-01T09:28:18.585Z</time>
      </trkpt>
      <trkpt lat="43.1370419" lon="-2.8030366">
        <ele>196.12</ele>
        <time>2021-04-01T09:28:18.644Z</time>
      </trkpt>
      <trkpt lat="43.13704" lon="-2.8030368">
        <ele>196.161</ele>
        <time>2021-04-01T09:28:18.696Z</time>
      </trkpt>
      <trkpt lat="43.1370378" lon="-2.8030368">
        <ele>196.211</ele>
        <time>2021-04-01T09:28:18.748Z</time>
      </trkpt>
      <trkpt lat="43.1370357" lon="-2.8030368">
        <ele>196.297</ele>
        <time>2021-04-01T09:28:18.800Z</time>
      </trkpt>
      <trkpt lat="43.1370333" lon="-2.8030369">
        <ele>196.485</ele>
        <time>2021-04-01T09:28:18.852Z</time>
      </trkpt>
      <trkpt lat="43.1370312" lon="-2.8030378">
        <ele>196.551</ele>
        <time>2021-04-01T09:28:18.904Z</time>
      </trkpt>
      <trkpt lat="43.1370292" lon="-2.8030384">
        <ele>196.572</ele>
        <time>2021-04-01T09:28:18.956Z</time>
      </trkpt>
      <trkpt lat="43.1370274" lon="-2.8030391">
        <ele>196.6</ele>
        <time>2021-04-01T09:28:19.008Z</time>
      </trkpt>
      <trkpt lat="43.1370254" lon="-2.8030392">
        <ele>196.661</ele>
        <time>2021-04-01T09:28:19.060Z</time>
      </trkpt>
      <trkpt lat="43.1370232" lon="-2.8030395">
        <ele>196.762</ele>
        <time>2021-04-01T09:28:19.112Z</time>
      </trkpt>
      <trkpt lat="43.1370212" lon="-2.8030399">
        <ele>196.795</ele>
        <time>2021-04-01T09:28:19.165Z</time>
      </trkpt>
      <trkpt lat="43.1370193" lon="-2.8030403">
        <ele>196.83</ele>
        <time>2021-04-01T09:28:19.217Z</time>
      </trkpt>
      <trkpt lat="43.1370171" lon="-2.8030405">
        <ele>196.917</ele>
        <time>2021-04-01T09:28:19.269Z</time>
      </trkpt>
      <trkpt lat="43.1370149" lon="-2.8030399">
        <ele>196.991</ele>
        <time>2021-04-01T09:28:19.321Z</time>
      </trkpt>
      <trkpt lat="43.1370129" lon="-2.8030396">
        <ele>196.998</ele>
        <time>2021-04-01T09:28:19.373Z</time>
      </trkpt>
      <trkpt lat="43.1370111" lon="-2.8030398">
        <ele>197.008</ele>
        <time>2021-04-01T09:28:19.425Z</time>
      </trkpt>
      <trkpt lat="43.1370093" lon="-2.8030406">
        <ele>197.006</ele>
        <time>2021-04-01T09:28:19.477Z</time>
      </trkpt>
      <trkpt lat="43.1370076" lon="-2.8030413">
        <ele>196.999</ele>
        <time>2021-04-01T09:28:19.529Z</time>
      </trkpt>
      <trkpt lat="43.1370058" lon="-2.8030419">
        <ele>197.008</ele>
        <time>2021-04-01T09:28:19.581Z</time>
      </trkpt>
      <trkpt lat="43.137004" lon="-2.8030428">
        <ele>196.999</ele>
        <time>2021-04-01T09:28:19.634Z</time>
      </trkpt>
      <trkpt lat="43.1370018" lon="-2.8030439">
        <ele>197.117</ele>
        <time>2021-04-01T09:28:19.686Z</time>
      </trkpt>
      <trkpt lat="43.1369996" lon="-2.8030448">
        <ele>197.253</ele>
        <time>2021-04-01T09:28:19.738Z</time>
      </trkpt>
      <trkpt lat="43.1369976" lon="-2.8030452">
        <ele>197.303</ele>
        <time>2021-04-01T09:28:19.790Z</time>
      </trkpt>
      <trkpt lat="43.1369955" lon="-2.8030457">
        <ele>197.411</ele>
        <time>2021-04-01T09:28:19.842Z</time>
      </trkpt>
      <trkpt lat="43.1369935" lon="-2.8030464">
        <ele>197.482</ele>
        <time>2021-04-01T09:28:19.894Z</time>
      </trkpt>
      <trkpt lat="43.1369913" lon="-2.8030467">
        <ele>197.551</ele>
        <time>2021-04-01T09:28:19.946Z</time>
      </trkpt>
      <trkpt lat="43.1369895" lon="-2.8030481">
        <ele>197.529</ele>
        <time>2021-04-01T09:28:19.998Z</time>
      </trkpt>
      <trkpt lat="43.1369877" lon="-2.8030497">
        <ele>197.593</ele>
        <time>2021-04-01T09:28:20.050Z</time>
      </trkpt>
      <trkpt lat="43.1369861" lon="-2.8030512">
        <ele>197.563</ele>
        <time>2021-04-01T09:28:20.102Z</time>
      </trkpt>
      <trkpt lat="43.1369847" lon="-2.8030522">
        <ele>197.499</ele>
        <time>2021-04-01T09:28:20.155Z</time>
      </trkpt>
      <trkpt lat="43.1369828" lon="-2.8030535">
        <ele>197.541</ele>
        <time>2021-04-01T09:28:20.207Z</time>
      </trkpt>
      <trkpt lat="43.1369808" lon="-2.8030544">
        <ele>197.635</ele>
        <time>2021-04-01T09:28:20.259Z</time>
      </trkpt>
      <trkpt lat="43.1369791" lon="-2.8030552">
        <ele>197.654</ele>
        <time>2021-04-01T09:28:20.311Z</time>
      </trkpt>
      <trkpt lat="43.1369772" lon="-2.8030559">
        <ele>197.688</ele>
        <time>2021-04-01T09:28:20.363Z</time>
      </trkpt>
      <trkpt lat="43.1369752" lon="-2.8030566">
        <ele>197.767</ele>
        <time>2021-04-01T09:28:20.415Z</time>
      </trkpt>
      <trkpt lat="43.1369734" lon="-2.8030576">
        <ele>197.813</ele>
        <time>2021-04-01T09:28:20.467Z</time>
      </trkpt>
      <trkpt lat="43.1369715" lon="-2.8030582">
        <ele>197.888</ele>
        <time>2021-04-01T09:28:20.519Z</time>
      </trkpt>
      <trkpt lat="43.1369697" lon="-2.8030578">
        <ele>197.938</ele>
        <time>2021-04-01T09:28:20.571Z</time>
      </trkpt>
      <trkpt lat="43.1369679" lon="-2.8030585">
        <ele>198.003</ele>
        <time>2021-04-01T09:28:20.624Z</time>
      </trkpt>
      <trkpt lat="43.1369658" lon="-2.803059">
        <ele>198.119</ele>
        <time>2021-04-01T09:28:20.685Z</time>
      </trkpt>
      <trkpt lat="43.1369641" lon="-2.80306">
        <ele>198.137</ele>
        <time>2021-04-01T09:28:20.746Z</time>
      </trkpt>
      <trkpt lat="43.1369622" lon="-2.8030609">
        <ele>198.223</ele>
        <time>2021-04-01T09:28:20.808Z</time>
      </trkpt>
      <trkpt lat="43.1369605" lon="-2.8030614">
        <ele>198.248</ele>
        <time>2021-04-01T09:28:20.869Z</time>
      </trkpt>
      <trkpt lat="43.1369587" lon="-2.8030622">
        <ele>198.288</ele>
        <time>2021-04-01T09:28:20.931Z</time>
      </trkpt>
      <trkpt lat="43.136957" lon="-2.8030627">
        <ele>198.302</ele>
        <time>2021-04-01T09:28:20.992Z</time>
      </trkpt>
      <trkpt lat="43.1369551" lon="-2.8030632">
        <ele>198.371</ele>
        <time>2021-04-01T09:28:21.054Z</time>
      </trkpt>
      <trkpt lat="43.1369534" lon="-2.803064">
        <ele>198.404</ele>
        <time>2021-04-01T09:28:21.115Z</time>
      </trkpt>
      <trkpt lat="43.1369516" lon="-2.8030643">
        <ele>198.428</ele>
        <time>2021-04-01T09:28:21.177Z</time>
      </trkpt>
      <trkpt lat="43.1369499" lon="-2.8030651">
        <ele>198.443</ele>
        <time>2021-04-01T09:28:21.238Z</time>
      </trkpt>
      <trkpt lat="43.1369481" lon="-2.8030658">
        <ele>198.543</ele>
        <time>2021-04-01T09:28:21.300Z</time>
      </trkpt>
      <trkpt lat="43.1369462" lon="-2.8030661">
        <ele>198.567</ele>
        <time>2021-04-01T09:28:21.361Z</time>
      </trkpt>
      <trkpt lat="43.1369446" lon="-2.8030664">
        <ele>198.694</ele>
        <time>2021-04-01T09:28:21.423Z</time>
      </trkpt>
      <trkpt lat="43.1369429" lon="-2.803067">
        <ele>198.705</ele>
        <time>2021-04-01T09:28:21.484Z</time>
      </trkpt>
      <trkpt lat="43.136941" lon="-2.8030672">
        <ele>198.788</ele>
        <time>2021-04-01T09:28:21.546Z</time>
      </trkpt>
      <trkpt lat="43.1369394" lon="-2.8030671">
        <ele>198.87</ele>
        <time>2021-04-01T09:28:21.607Z</time>
      </trkpt>
      <trkpt lat="43.1369375" lon="-2.803067">
        <ele>198.994</ele>
        <time>2021-04-01T09:28:21.669Z</time>
      </trkpt>
      <trkpt lat="43.1369354" lon="-2.8030671">
        <ele>199.055</ele>
        <time>2021-04-01T09:28:21.718Z</time>
      </trkpt>
      <trkpt lat="43.1369335" lon="-2.8030671">
        <ele>199.151</ele>
        <time>2021-04-01T09:28:21.767Z</time>
      </trkpt>
      <trkpt lat="43.1369319" lon="-2.8030673">
        <ele>199.209</ele>
        <time>2021-04-01T09:28:21.816Z</time>
      </trkpt>
      <trkpt lat="43.1369305" lon="-2.8030677">
        <ele>199.182</ele>
        <time>2021-04-01T09:28:21.865Z</time>
      </trkpt>
      <trkpt lat="43.136929" lon="-2.8030681">
        <ele>199.226</ele>
        <time>2021-04-01T09:28:21.915Z</time>
      </trkpt>
      <trkpt lat="43.1369274" lon="-2.8030685">
        <ele>199.226</ele>
        <time>2021-04-01T09:28:21.964Z</time>
      </trkpt>
      <trkpt lat="43.1369259" lon="-2.803069">
        <ele>199.27</ele>
        <time>2021-04-01T09:28:22.013Z</time>
      </trkpt>
      <trkpt lat="43.1369243" lon="-2.8030689">
        <ele>199.315</ele>
        <time>2021-04-01T09:28:22.062Z</time>
      </trkpt>
      <trkpt lat="43.1369226" lon="-2.8030691">
        <ele>199.373</ele>
        <time>2021-04-01T09:28:22.111Z</time>
      </trkpt>
      <trkpt lat="43.136921" lon="-2.8030691">
        <ele>199.44</ele>
        <time>2021-04-01T09:28:22.161Z</time>
      </trkpt>
      <trkpt lat="43.1369191" lon="-2.8030692">
        <ele>199.517</ele>
        <time>2021-04-01T09:28:22.210Z</time>
      </trkpt>
      <trkpt lat="43.1369171" lon="-2.803069">
        <ele>199.541</ele>
        <time>2021-04-01T09:28:22.259Z</time>
      </trkpt>
      <trkpt lat="43.1369154" lon="-2.803069">
        <ele>199.572</ele>
        <time>2021-04-01T09:28:22.308Z</time>
      </trkpt>
      <trkpt lat="43.1369137" lon="-2.8030692">
        <ele>199.629</ele>
        <time>2021-04-01T09:28:22.357Z</time>
      </trkpt>
      <trkpt lat="43.1369119" lon="-2.8030693">
        <ele>199.687</ele>
        <time>2021-04-01T09:28:22.407Z</time>
      </trkpt>
      <trkpt lat="43.1369101" lon="-2.8030694">
        <ele>199.709</ele>
        <time>2021-04-01T09:28:22.456Z</time>
      </trkpt>
      <trkpt lat="43.1369085" lon="-2.8030697">
        <ele>199.761</ele>
        <time>2021-04-01T09:28:22.505Z</time>
      </trkpt>
      <trkpt lat="43.1369072" lon="-2.8030703">
        <ele>199.728</ele>
        <time>2021-04-01T09:28:22.554Z</time>
      </trkpt>
      <trkpt lat="43.1369056" lon="-2.8030705">
        <ele>199.715</ele>
        <time>2021-04-01T09:28:22.604Z</time>
      </trkpt>
      <trkpt lat="43.1369036" lon="-2.803071">
        <ele>199.827</ele>
        <time>2021-04-01T09:28:22.662Z</time>
      </trkpt>
      <trkpt lat="43.1369018" lon="-2.8030707">
        <ele>199.85</ele>
        <time>2021-04-01T09:28:22.720Z</time>
      </trkpt>
      <trkpt lat="43.1369002" lon="-2.8030711">
        <ele>199.862</ele>
        <time>2021-04-01T09:28:22.778Z</time>
      </trkpt>
      <trkpt lat="43.1368984" lon="-2.803071">
        <ele>199.924</ele>
        <time>2021-04-01T09:28:22.836Z</time>
      </trkpt>
      <trkpt lat="43.1368966" lon="-2.8030709">
        <ele>199.936</ele>
        <time>2021-04-01T09:28:22.894Z</time>
      </trkpt>
      <trkpt lat="43.1368948" lon="-2.8030707">
        <ele>200.004</ele>
        <time>2021-04-01T09:28:22.952Z</time>
      </trkpt>
      <trkpt lat="43.1368932" lon="-2.8030709">
        <ele>200.033</ele>
        <time>2021-04-01T09:28:23.010Z</time>
      </trkpt>
      <trkpt lat="43.1368916" lon="-2.8030709">
        <ele>200.024</ele>
        <time>2021-04-01T09:28:23.068Z</time>
      </trkpt>
      <trkpt lat="43.1368898" lon="-2.803071">
        <ele>200.094</ele>
        <time>2021-04-01T09:28:23.126Z</time>
      </trkpt>
      <trkpt lat="43.136888" lon="-2.8030711">
        <ele>200.131</ele>
        <time>2021-04-01T09:28:23.184Z</time>
      </trkpt>
      <trkpt lat="43.1368864" lon="-2.8030712">
        <ele>200.122</ele>
        <time>2021-04-01T09:28:23.242Z</time>
      </trkpt>
      <trkpt lat="43.1368844" lon="-2.8030706">
        <ele>200.163</ele>
        <time>2021-04-01T09:28:23.300Z</time>
      </trkpt>
      <trkpt lat="43.1368828" lon="-2.8030705">
        <ele>200.207</ele>
        <time>2021-04-01T09:28:23.358Z</time>
      </trkpt>
      <trkpt lat="43.1368811" lon="-2.8030708">
        <ele>200.225</ele>
        <time>2021-04-01T09:28:23.416Z</time>
      </trkpt>
      <trkpt lat="43.1368796" lon="-2.8030711">
        <ele>200.159</ele>
        <time>2021-04-01T09:28:23.474Z</time>
      </trkpt>
      <trkpt lat="43.1368781" lon="-2.8030715">
        <ele>200.155</ele>
        <time>2021-04-01T09:28:23.532Z</time>
      </trkpt>
      <trkpt lat="43.1368764" lon="-2.803072">
        <ele>200.191</ele>
        <time>2021-04-01T09:28:23.590Z</time>
      </trkpt>
      <trkpt lat="43.1368747" lon="-2.803072">
        <ele>200.168</ele>
        <time>2021-04-01T09:28:23.649Z</time>
      </trkpt>
      <trkpt lat="43.136873" lon="-2.8030722">
        <ele>200.143</ele>
        <time>2021-04-01T09:28:23.700Z</time>
      </trkpt>
      <trkpt lat="43.1368714" lon="-2.8030724">
        <ele>200.179</ele>
        <time>2021-04-01T09:28:23.752Z</time>
      </trkpt>
      <trkpt lat="43.13687" lon="-2.8030729">
        <ele>200.206</ele>
        <time>2021-04-01T09:28:23.804Z</time>
      </trkpt>
      <trkpt lat="43.1368684" lon="-2.8030733">
        <ele>200.224</ele>
        <time>2021-04-01T09:28:23.856Z</time>
      </trkpt>
      <trkpt lat="43.1368665" lon="-2.8030727">
        <ele>200.244</ele>
        <time>2021-04-01T09:28:23.908Z</time>
      </trkpt>
      <trkpt lat="43.1368648" lon="-2.8030727">
        <ele>200.27</ele>
        <time>2021-04-01T09:28:23.960Z</time>
      </trkpt>
      <trkpt lat="43.1368632" lon="-2.8030728">
        <ele>200.268</ele>
        <time>2021-04-01T09:28:24.012Z</time>
      </trkpt>
      <trkpt lat="43.1368615" lon="-2.8030722">
        <ele>200.27</ele>
        <time>2021-04-01T09:28:24.064Z</time>
      </trkpt>
      <trkpt lat="43.1368597" lon="-2.8030721">
        <ele>200.251</ele>
        <time>2021-04-01T09:28:24.116Z</time>
      </trkpt>
      <trkpt lat="43.1368578" lon="-2.803072">
        <ele>200.266</ele>
        <time>2021-04-01T09:28:24.168Z</time>
      </trkpt>
      <trkpt lat="43.1368563" lon="-2.8030718">
        <ele>200.272</ele>
        <time>2021-04-01T09:28:24.220Z</time>
      </trkpt>
      <trkpt lat="43.1368546" lon="-2.8030712">
        <ele>200.335</ele>
        <time>2021-04-01T09:28:24.272Z</time>
      </trkpt>
      <trkpt lat="43.1368528" lon="-2.8030711">
        <ele>200.402</ele>
        <time>2021-04-01T09:28:24.324Z</time>
      </trkpt>
      <trkpt lat="43.136851" lon="-2.803071">
        <ele>200.426</ele>
        <time>2021-04-01T09:28:24.376Z</time>
      </trkpt>
      <trkpt lat="43.1368493" lon="-2.8030715">
        <ele>200.386</ele>
        <time>2021-04-01T09:28:24.428Z</time>
      </trkpt>
      <trkpt lat="43.1368476" lon="-2.8030716">
        <ele>200.388</ele>
        <time>2021-04-01T09:28:24.480Z</time>
      </trkpt>
      <trkpt lat="43.1368459" lon="-2.8030719">
        <ele>200.418</ele>
        <time>2021-04-01T09:28:24.532Z</time>
      </trkpt>
      <trkpt lat="43.1368443" lon="-2.8030723">
        <ele>200.433</ele>
        <time>2021-04-01T09:28:24.584Z</time>
      </trkpt>
      <trkpt lat="43.1368425" lon="-2.8030722">
        <ele>200.47</ele>
        <time>2021-04-01T09:28:24.639Z</time>
      </trkpt>
      <trkpt lat="43.1368407" lon="-2.8030725">
        <ele>200.46</ele>
        <time>2021-04-01T09:28:24.694Z</time>
      </trkpt>
      <trkpt lat="43.1368389" lon="-2.803073">
        <ele>200.504</ele>
        <time>2021-04-01T09:28:24.749Z</time>
      </trkpt>
      <trkpt lat="43.1368371" lon="-2.8030726">
        <ele>200.574</ele>
        <time>2021-04-01T09:28:24.804Z</time>
      </trkpt>
      <trkpt lat="43.1368355" lon="-2.8030728">
        <ele>200.558</ele>
        <time>2021-04-01T09:28:24.859Z</time>
      </trkpt>
      <trkpt lat="43.1368337" lon="-2.8030728">
        <ele>200.599</ele>
        <time>2021-04-01T09:28:24.914Z</time>
      </trkpt>
      <trkpt lat="43.136832" lon="-2.8030731">
        <ele>200.555</ele>
        <time>2021-04-01T09:28:24.969Z</time>
      </trkpt>
      <trkpt lat="43.1368303" lon="-2.803073">
        <ele>200.619</ele>
        <time>2021-04-01T09:28:25.024Z</time>
      </trkpt>
      <trkpt lat="43.1368287" lon="-2.8030732">
        <ele>200.637</ele>
        <time>2021-04-01T09:28:25.079Z</time>
      </trkpt>
      <trkpt lat="43.1368269" lon="-2.8030731">
        <ele>200.637</ele>
        <time>2021-04-01T09:28:25.134Z</time>
      </trkpt>
      <trkpt lat="43.1368252" lon="-2.8030728">
        <ele>200.639</ele>
        <time>2021-04-01T09:28:25.189Z</time>
      </trkpt>
      <trkpt lat="43.1368237" lon="-2.8030729">
        <ele>200.636</ele>
        <time>2021-04-01T09:28:25.244Z</time>
      </trkpt>
      <trkpt lat="43.1368217" lon="-2.8030726">
        <ele>200.676</ele>
        <time>2021-04-01T09:28:25.299Z</time>
      </trkpt>
      <trkpt lat="43.13682" lon="-2.8030726">
        <ele>200.652</ele>
        <time>2021-04-01T09:28:25.354Z</time>
      </trkpt>
      <trkpt lat="43.1368184" lon="-2.8030731">
        <ele>200.601</ele>
        <time>2021-04-01T09:28:25.409Z</time>
      </trkpt>
      <trkpt lat="43.1368171" lon="-2.8030732">
        <ele>200.59</ele>
        <time>2021-04-01T09:28:25.464Z</time>
      </trkpt>
      <trkpt lat="43.1368158" lon="-2.8030743">
        <ele>200.579</ele>
        <time>2021-04-01T09:28:25.519Z</time>
      </trkpt>
      <trkpt lat="43.1368143" lon="-2.8030746">
        <ele>200.557</ele>
        <time>2021-04-01T09:28:25.574Z</time>
      </trkpt>
      <trkpt lat="43.1368127" lon="-2.803075">
        <ele>200.533</ele>
        <time>2021-04-01T09:28:25.629Z</time>
      </trkpt>
      <trkpt lat="43.1368112" lon="-2.8030755">
        <ele>200.504</ele>
        <time>2021-04-01T09:28:25.684Z</time>
      </trkpt>
      <trkpt lat="43.1368096" lon="-2.803076">
        <ele>200.469</ele>
        <time>2021-04-01T09:28:25.739Z</time>
      </trkpt>
      <trkpt lat="43.1368081" lon="-2.8030763">
        <ele>200.422</ele>
        <time>2021-04-01T09:28:25.794Z</time>
      </trkpt>
      <trkpt lat="43.1368067" lon="-2.8030767">
        <ele>200.381</ele>
        <time>2021-04-01T09:28:25.849Z</time>
      </trkpt>
      <trkpt lat="43.1368056" lon="-2.8030771">
        <ele>200.365</ele>
        <time>2021-04-01T09:28:25.904Z</time>
      </trkpt>
      <trkpt lat="43.1368041" lon="-2.8030774">
        <ele>200.346</ele>
        <time>2021-04-01T09:28:25.959Z</time>
      </trkpt>
      <trkpt lat="43.1368026" lon="-2.8030779">
        <ele>200.313</ele>
        <time>2021-04-01T09:28:26.014Z</time>
      </trkpt>
      <trkpt lat="43.1368011" lon="-2.803078">
        <ele>200.304</ele>
        <time>2021-04-01T09:28:26.069Z</time>
      </trkpt>
      <trkpt lat="43.1367996" lon="-2.8030781">
        <ele>200.321</ele>
        <time>2021-04-01T09:28:26.124Z</time>
      </trkpt>
      <trkpt lat="43.1367978" lon="-2.8030781">
        <ele>200.35</ele>
        <time>2021-04-01T09:28:26.179Z</time>
      </trkpt>
      <trkpt lat="43.1367961" lon="-2.8030783">
        <ele>200.355</ele>
        <time>2021-04-01T09:28:26.234Z</time>
      </trkpt>
      <trkpt lat="43.1367945" lon="-2.8030779">
        <ele>200.382</ele>
        <time>2021-04-01T09:28:26.289Z</time>
      </trkpt>
      <trkpt lat="43.1367931" lon="-2.8030778">
        <ele>200.404</ele>
        <time>2021-04-01T09:28:26.344Z</time>
      </trkpt>
      <trkpt lat="43.1367915" lon="-2.8030777">
        <ele>200.42</ele>
        <time>2021-04-01T09:28:26.399Z</time>
      </trkpt>
      <trkpt lat="43.1367899" lon="-2.8030775">
        <ele>200.436</ele>
        <time>2021-04-01T09:28:26.454Z</time>
      </trkpt>
      <trkpt lat="43.1367883" lon="-2.8030771">
        <ele>200.401</ele>
        <time>2021-04-01T09:28:26.509Z</time>
      </trkpt>
      <trkpt lat="43.1367869" lon="-2.8030773">
        <ele>200.416</ele>
        <time>2021-04-01T09:28:26.564Z</time>
      </trkpt>
      <trkpt lat="43.1367854" lon="-2.803077">
        <ele>200.451</ele>
        <time>2021-04-01T09:28:26.616Z</time>
      </trkpt>
      <trkpt lat="43.1367839" lon="-2.8030767">
        <ele>200.414</ele>
        <time>2021-04-01T09:28:26.668Z</time>
      </trkpt>
      <trkpt lat="43.1367824" lon="-2.8030763">
        <ele>200.363</ele>
        <time>2021-04-01T09:28:26.720Z</time>
      </trkpt>
      <trkpt lat="43.1367811" lon="-2.8030762">
        <ele>200.328</ele>
        <time>2021-04-01T09:28:26.772Z</time>
      </trkpt>
      <trkpt lat="43.13678" lon="-2.8030769">
        <ele>200.27</ele>
        <time>2021-04-01T09:28:26.824Z</time>
      </trkpt>
      <trkpt lat="43.1367784" lon="-2.8030772">
        <ele>200.29</ele>
        <time>2021-04-01T09:28:26.876Z</time>
      </trkpt>
      <trkpt lat="43.1367767" lon="-2.8030773">
        <ele>200.343</ele>
        <time>2021-04-01T09:28:26.928Z</time>
      </trkpt>
      <trkpt lat="43.136775" lon="-2.8030767">
        <ele>200.431</ele>
        <time>2021-04-01T09:28:26.980Z</time>
      </trkpt>
      <trkpt lat="43.1367731" lon="-2.8030762">
        <ele>200.524</ele>
        <time>2021-04-01T09:28:27.032Z</time>
      </trkpt>
      <trkpt lat="43.136771" lon="-2.8030758">
        <ele>200.601</ele>
        <time>2021-04-01T09:28:27.085Z</time>
      </trkpt>
      <trkpt lat="43.1367692" lon="-2.8030752">
        <ele>200.696</ele>
        <time>2021-04-01T09:28:27.137Z</time>
      </trkpt>
      <trkpt lat="43.1367678" lon="-2.8030744">
        <ele>200.753</ele>
        <time>2021-04-01T09:28:27.189Z</time>
      </trkpt>
      <trkpt lat="43.1367663" lon="-2.8030736">
        <ele>200.749</ele>
        <time>2021-04-01T09:28:27.241Z</time>
      </trkpt>
      <trkpt lat="43.1367648" lon="-2.803073">
        <ele>200.738</ele>
        <time>2021-04-01T09:28:27.293Z</time>
      </trkpt>
      <trkpt lat="43.1367634" lon="-2.8030721">
        <ele>200.736</ele>
        <time>2021-04-01T09:28:27.345Z</time>
      </trkpt>
      <trkpt lat="43.1367619" lon="-2.8030711">
        <ele>200.729</ele>
        <time>2021-04-01T09:28:27.397Z</time>
      </trkpt>
      <trkpt lat="43.1367604" lon="-2.8030704">
        <ele>200.73</ele>
        <time>2021-04-01T09:28:27.449Z</time>
      </trkpt>
      <trkpt lat="43.1367588" lon="-2.8030707">
        <ele>200.747</ele>
        <time>2021-04-01T09:28:27.501Z</time>
      </trkpt>
      <trkpt lat="43.1367572" lon="-2.8030705">
        <ele>200.768</ele>
        <time>2021-04-01T09:28:27.554Z</time>
      </trkpt>
      <trkpt lat="43.136756" lon="-2.8030709">
        <ele>200.748</ele>
        <time>2021-04-01T09:28:27.615Z</time>
      </trkpt>
      <trkpt lat="43.1367546" lon="-2.8030707">
        <ele>200.717</ele>
        <time>2021-04-01T09:28:27.676Z</time>
      </trkpt>
      <trkpt lat="43.1367533" lon="-2.8030707">
        <ele>200.721</ele>
        <time>2021-04-01T09:28:27.738Z</time>
      </trkpt>
      <trkpt lat="43.1367521" lon="-2.8030704">
        <ele>200.742</ele>
        <time>2021-04-01T09:28:27.799Z</time>
      </trkpt>
      <trkpt lat="43.136751" lon="-2.8030697">
        <ele>200.654</ele>
        <time>2021-04-01T09:28:27.861Z</time>
      </trkpt>
      <trkpt lat="43.1367494" lon="-2.8030693">
        <ele>200.677</ele>
        <time>2021-04-01T09:28:27.922Z</time>
      </trkpt>
      <trkpt lat="43.1367479" lon="-2.8030692">
        <ele>200.699</ele>
        <time>2021-04-01T09:28:27.984Z</time>
      </trkpt>
      <trkpt lat="43.1367465" lon="-2.8030689">
        <ele>200.673</ele>
        <time>2021-04-01T09:28:28.045Z</time>
      </trkpt>
      <trkpt lat="43.1367451" lon="-2.8030688">
        <ele>200.632</ele>
        <time>2021-04-01T09:28:28.107Z</time>
      </trkpt>
      <trkpt lat="43.136744" lon="-2.8030691">
        <ele>200.576</ele>
        <time>2021-04-01T09:28:28.168Z</time>
      </trkpt>
      <trkpt lat="43.1367426" lon="-2.8030689">
        <ele>200.583</ele>
        <time>2021-04-01T09:28:28.230Z</time>
      </trkpt>
      <trkpt lat="43.1367414" lon="-2.8030688">
        <ele>200.592</ele>
        <time>2021-04-01T09:28:28.291Z</time>
      </trkpt>
      <trkpt lat="43.13674" lon="-2.8030682">
        <ele>200.605</ele>
        <time>2021-04-01T09:28:28.353Z</time>
      </trkpt>
      <trkpt lat="43.1367386" lon="-2.8030678">
        <ele>200.576</ele>
        <time>2021-04-01T09:28:28.414Z</time>
      </trkpt>
      <trkpt lat="43.1367375" lon="-2.8030679">
        <ele>200.538</ele>
        <time>2021-04-01T09:28:28.476Z</time>
      </trkpt>
      <trkpt lat="43.1367363" lon="-2.8030677">
        <ele>200.439</ele>
        <time>2021-04-01T09:28:28.537Z</time>
      </trkpt>
      <trkpt lat="43.1367348" lon="-2.8030669">
        <ele>200.448</ele>
        <time>2021-04-01T09:28:28.599Z</time>
      </trkpt>
      <trkpt lat="43.1367336" lon="-2.8030664">
        <ele>200.376</ele>
        <time>2021-04-01T09:28:28.651Z</time>
      </trkpt>
      <trkpt lat="43.1367323" lon="-2.8030662">
        <ele>200.357</ele>
        <time>2021-04-01T09:28:28.703Z</time>
      </trkpt>
      <trkpt lat="43.1367307" lon="-2.8030659">
        <ele>200.397</ele>
        <time>2021-04-01T09:28:28.755Z</time>
      </trkpt>
      <trkpt lat="43.1367291" lon="-2.8030651">
        <ele>200.446</ele>
        <time>2021-04-01T09:28:28.807Z</time>
      </trkpt>
      <trkpt lat="43.1367281" lon="-2.8030644">
        <ele>200.425</ele>
        <time>2021-04-01T09:28:28.859Z</time>
      </trkpt>
      <trkpt lat="43.1367263" lon="-2.8030636">
        <ele>200.484</ele>
        <time>2021-04-01T09:28:28.911Z</time>
      </trkpt>
      <trkpt lat="43.1367249" lon="-2.8030631">
        <ele>200.502</ele>
        <time>2021-04-01T09:28:28.963Z</time>
      </trkpt>
      <trkpt lat="43.1367235" lon="-2.803063">
        <ele>200.49</ele>
        <time>2021-04-01T09:28:29.015Z</time>
      </trkpt>
      <trkpt lat="43.1367222" lon="-2.803063">
        <ele>200.474</ele>
        <time>2021-04-01T09:28:29.067Z</time>
      </trkpt>
      <trkpt lat="43.1367208" lon="-2.8030627">
        <ele>200.506</ele>
        <time>2021-04-01T09:28:29.120Z</time>
      </trkpt>
      <trkpt lat="43.1367195" lon="-2.803063">
        <ele>200.528</ele>
        <time>2021-04-01T09:28:29.172Z</time>
      </trkpt>
      <trkpt lat="43.136718" lon="-2.8030626">
        <ele>200.557</ele>
        <time>2021-04-01T09:28:29.224Z</time>
      </trkpt>
      <trkpt lat="43.1367166" lon="-2.8030622">
        <ele>200.58</ele>
        <time>2021-04-01T09:28:29.276Z</time>
      </trkpt>
      <trkpt lat="43.1367153" lon="-2.8030621">
        <ele>200.588</ele>
        <time>2021-04-01T09:28:29.328Z</time>
      </trkpt>
      <trkpt lat="43.1367138" lon="-2.8030622">
        <ele>200.62</ele>
        <time>2021-04-01T09:28:29.380Z</time>
      </trkpt>
      <trkpt lat="43.1367123" lon="-2.8030625">
        <ele>200.664</ele>
        <time>2021-04-01T09:28:29.432Z</time>
      </trkpt>
      <trkpt lat="43.136711" lon="-2.8030622">
        <ele>200.616</ele>
        <time>2021-04-01T09:28:29.484Z</time>
      </trkpt>
      <trkpt lat="43.1367096" lon="-2.8030615">
        <ele>200.641</ele>
        <time>2021-04-01T09:28:29.536Z</time>
      </trkpt>
      <trkpt lat="43.1367082" lon="-2.8030608">
        <ele>200.696</ele>
        <time>2021-04-01T09:28:29.589Z</time>
      </trkpt>
      <trkpt lat="43.1367069" lon="-2.8030602">
        <ele>200.726</ele>
        <time>2021-04-01T09:28:29.644Z</time>
      </trkpt>
      <trkpt lat="43.1367055" lon="-2.8030595">
        <ele>200.715</ele>
        <time>2021-04-01T09:28:29.699Z</time>
      </trkpt>
      <trkpt lat="43.1367041" lon="-2.8030586">
        <ele>200.742</ele>
        <time>2021-04-01T09:28:29.754Z</time>
      </trkpt>
      <trkpt lat="43.1367029" lon="-2.8030581">
        <ele>200.75</ele>
        <time>2021-04-01T09:28:29.809Z</time>
      </trkpt>
      <trkpt lat="43.1367015" lon="-2.8030576">
        <ele>200.757</ele>
        <time>2021-04-01T09:28:29.864Z</time>
      </trkpt>
      <trkpt lat="43.1367001" lon="-2.803057">
        <ele>200.747</ele>
        <time>2021-04-01T09:28:29.919Z</time>
      </trkpt>
      <trkpt lat="43.1366989" lon="-2.8030566">
        <ele>200.773</ele>
        <time>2021-04-01T09:28:29.974Z</time>
      </trkpt>
      <trkpt lat="43.1366976" lon="-2.8030559">
        <ele>200.762</ele>
        <time>2021-04-01T09:28:30.029Z</time>
      </trkpt>
      <trkpt lat="43.1366965" lon="-2.803055">
        <ele>200.759</ele>
        <time>2021-04-01T09:28:30.084Z</time>
      </trkpt>
      <trkpt lat="43.1366952" lon="-2.8030544">
        <ele>200.757</ele>
        <time>2021-04-01T09:28:30.139Z</time>
      </trkpt>
      <trkpt lat="43.1366939" lon="-2.8030538">
        <ele>200.75</ele>
        <time>2021-04-01T09:28:30.194Z</time>
      </trkpt>
      <trkpt lat="43.1366927" lon="-2.803053">
        <ele>200.735</ele>
        <time>2021-04-01T09:28:30.249Z</time>
      </trkpt>
      <trkpt lat="43.1366916" lon="-2.8030523">
        <ele>200.706</ele>
        <time>2021-04-01T09:28:30.304Z</time>
      </trkpt>
      <trkpt lat="43.1366901" lon="-2.8030519">
        <ele>200.687</ele>
        <time>2021-04-01T09:28:30.359Z</time>
      </trkpt>
      <trkpt lat="43.1366887" lon="-2.8030516">
        <ele>200.692</ele>
        <time>2021-04-01T09:28:30.414Z</time>
      </trkpt>
      <trkpt lat="43.1366874" lon="-2.8030511">
        <ele>200.695</ele>
        <time>2021-04-01T09:28:30.469Z</time>
      </trkpt>
      <trkpt lat="43.1366863" lon="-2.8030503">
        <ele>200.691</ele>
        <time>2021-04-01T09:28:30.524Z</time>
      </trkpt>
      <trkpt lat="43.1366851" lon="-2.80305">
        <ele>200.669</ele>
        <time>2021-04-01T09:28:30.579Z</time>
      </trkpt>
      <trkpt lat="43.1366838" lon="-2.8030504">
        <ele>200.641</ele>
        <time>2021-04-01T09:28:30.631Z</time>
      </trkpt>
      <trkpt lat="43.1366826" lon="-2.80305">
        <ele>200.632</ele>
        <time>2021-04-01T09:28:30.683Z</time>
      </trkpt>
      <trkpt lat="43.1366815" lon="-2.8030495">
        <ele>200.656</ele>
        <time>2021-04-01T09:28:30.735Z</time>
      </trkpt>
      <trkpt lat="43.1366802" lon="-2.8030492">
        <ele>200.645</ele>
        <time>2021-04-01T09:28:30.787Z</time>
      </trkpt>
      <trkpt lat="43.1366788" lon="-2.8030485">
        <ele>200.656</ele>
        <time>2021-04-01T09:28:30.839Z</time>
      </trkpt>
      <trkpt lat="43.1366779" lon="-2.8030466">
        <ele>200.557</ele>
        <time>2021-04-01T09:28:30.891Z</time>
      </trkpt>
      <trkpt lat="43.136677" lon="-2.8030453">
        <ele>200.444</ele>
        <time>2021-04-01T09:28:30.943Z</time>
      </trkpt>
      <trkpt lat="43.1366757" lon="-2.8030447">
        <ele>200.418</ele>
        <time>2021-04-01T09:28:30.995Z</time>
      </trkpt>
      <trkpt lat="43.1366746" lon="-2.8030452">
        <ele>200.386</ele>
        <time>2021-04-01T09:28:31.047Z</time>
      </trkpt>
      <trkpt lat="43.1366733" lon="-2.8030445">
        <ele>200.36</ele>
        <time>2021-04-01T09:28:31.100Z</time>
      </trkpt>
      <trkpt lat="43.136672" lon="-2.8030441">
        <ele>200.306</ele>
        <time>2021-04-01T09:28:31.152Z</time>
      </trkpt>
      <trkpt lat="43.1366705" lon="-2.8030432">
        <ele>200.341</ele>
        <time>2021-04-01T09:28:31.204Z</time>
      </trkpt>
      <trkpt lat="43.1366691" lon="-2.8030425">
        <ele>200.359</ele>
        <time>2021-04-01T09:28:31.256Z</time>
      </trkpt>
      <trkpt lat="43.1366681" lon="-2.8030416">
        <ele>200.367</ele>
        <time>2021-04-01T09:28:31.308Z</time>
      </trkpt>
      <trkpt lat="43.1366667" lon="-2.8030402">
        <ele>200.411</ele>
        <time>2021-04-01T09:28:31.360Z</time>
      </trkpt>
      <trkpt lat="43.1366657" lon="-2.8030393">
        <ele>200.44</ele>
        <time>2021-04-01T09:28:31.412Z</time>
      </trkpt>
      <trkpt lat="43.1366647" lon="-2.8030382">
        <ele>200.433</ele>
        <time>2021-04-01T09:28:31.464Z</time>
      </trkpt>
      <trkpt lat="43.1366635" lon="-2.8030374">
        <ele>200.436</ele>
        <time>2021-04-01T09:28:31.516Z</time>
      </trkpt>
      <trkpt lat="43.1366624" lon="-2.8030367">
        <ele>200.415</ele>
        <time>2021-04-01T09:28:31.569Z</time>
      </trkpt>
      <trkpt lat="43.136661" lon="-2.8030355">
        <ele>200.417</ele>
        <time>2021-04-01T09:28:31.627Z</time>
      </trkpt>
      <trkpt lat="43.1366596" lon="-2.8030341">
        <ele>200.449</ele>
        <time>2021-04-01T09:28:31.685Z</time>
      </trkpt>
      <trkpt lat="43.1366584" lon="-2.8030332">
        <ele>200.483</ele>
        <time>2021-04-01T09:28:31.743Z</time>
      </trkpt>
      <trkpt lat="43.1366573" lon="-2.8030322">
        <ele>200.486</ele>
        <time>2021-04-01T09:28:31.801Z</time>
      </trkpt>
      <trkpt lat="43.1366562" lon="-2.8030313">
        <ele>200.508</ele>
        <time>2021-04-01T09:28:31.860Z</time>
      </trkpt>
      <trkpt lat="43.1366552" lon="-2.8030305">
        <ele>200.517</ele>
        <time>2021-04-01T09:28:31.918Z</time>
      </trkpt>
      <trkpt lat="43.1366542" lon="-2.80303">
        <ele>200.491</ele>
        <time>2021-04-01T09:28:31.976Z</time>
      </trkpt>
      <trkpt lat="43.1366533" lon="-2.8030296">
        <ele>200.456</ele>
        <time>2021-04-01T09:28:32.034Z</time>
      </trkpt>
      <trkpt lat="43.1366528" lon="-2.803029">
        <ele>200.435</ele>
        <time>2021-04-01T09:28:32.093Z</time>
      </trkpt>
      <trkpt lat="43.1366518" lon="-2.8030284">
        <ele>200.372</ele>
        <time>2021-04-01T09:28:32.151Z</time>
      </trkpt>
      <trkpt lat="43.136651" lon="-2.803027">
        <ele>200.32</ele>
        <time>2021-04-01T09:28:32.209Z</time>
      </trkpt>
      <trkpt lat="43.1366502" lon="-2.8030267">
        <ele>200.226</ele>
        <time>2021-04-01T09:28:32.267Z</time>
      </trkpt>
      <trkpt lat="43.1366496" lon="-2.803026">
        <ele>200.161</ele>
        <time>2021-04-01T09:28:32.326Z</time>
      </trkpt>
      <trkpt lat="43.1366485" lon="-2.8030248">
        <ele>200.086</ele>
        <time>2021-04-01T09:28:32.384Z</time>
      </trkpt>
      <trkpt lat="43.1366481" lon="-2.8030241">
        <ele>200.002</ele>
        <time>2021-04-01T09:28:32.442Z</time>
      </trkpt>
      <trkpt lat="43.1366482" lon="-2.8030235">
        <ele>199.975</ele>
        <time>2021-04-01T09:28:32.500Z</time>
      </trkpt>
      <trkpt lat="43.1366482" lon="-2.8030228">
        <ele>199.93</ele>
        <time>2021-04-01T09:28:32.559Z</time>
      </trkpt>
      <trkpt lat="43.1366483" lon="-2.8030217">
        <ele>199.788</ele>
        <time>2021-04-01T09:28:32.614Z</time>
      </trkpt>
      <trkpt lat="43.1366481" lon="-2.8030201">
        <ele>199.668</ele>
        <time>2021-04-01T09:28:32.669Z</time>
      </trkpt>
      <trkpt lat="43.1366477" lon="-2.8030188">
        <ele>199.582</ele>
        <time>2021-04-01T09:28:32.724Z</time>
      </trkpt>
      <trkpt lat="43.1366474" lon="-2.8030171">
        <ele>199.485</ele>
        <time>2021-04-01T09:28:32.779Z</time>
      </trkpt>
      <trkpt lat="43.1366463" lon="-2.8030163">
        <ele>199.528</ele>
        <time>2021-04-01T09:28:32.834Z</time>
      </trkpt>
      <trkpt lat="43.1366446" lon="-2.8030154">
        <ele>199.679</ele>
        <time>2021-04-01T09:28:32.889Z</time>
      </trkpt>
      <trkpt lat="43.1366436" lon="-2.8030145">
        <ele>199.653</ele>
        <time>2021-04-01T09:28:32.944Z</time>
      </trkpt>
      <trkpt lat="43.1366429" lon="-2.8030138">
        <ele>199.626</ele>
        <time>2021-04-01T09:28:32.999Z</time>
      </trkpt>
      <trkpt lat="43.1366421" lon="-2.8030126">
        <ele>199.647</ele>
        <time>2021-04-01T09:28:33.054Z</time>
      </trkpt>
      <trkpt lat="43.1366408" lon="-2.803011">
        <ele>199.665</ele>
        <time>2021-04-01T09:28:33.109Z</time>
      </trkpt>
      <trkpt lat="43.13664" lon="-2.8030099">
        <ele>199.631</ele>
        <time>2021-04-01T09:28:33.164Z</time>
      </trkpt>
      <trkpt lat="43.1366392" lon="-2.803009">
        <ele>199.605</ele>
        <time>2021-04-01T09:28:33.219Z</time>
      </trkpt>
      <trkpt lat="43.1366387" lon="-2.8030077">
        <ele>199.593</ele>
        <time>2021-04-01T09:28:33.274Z</time>
      </trkpt>
      <trkpt lat="43.1366378" lon="-2.8030063">
        <ele>199.586</ele>
        <time>2021-04-01T09:28:33.329Z</time>
      </trkpt>
      <trkpt lat="43.1366368" lon="-2.8030043">
        <ele>199.571</ele>
        <time>2021-04-01T09:28:33.384Z</time>
      </trkpt>
      <trkpt lat="43.1366356" lon="-2.8030023">
        <ele>199.581</ele>
        <time>2021-04-01T09:28:33.439Z</time>
      </trkpt>
      <trkpt lat="43.1366346" lon="-2.8030005">
        <ele>199.589</ele>
        <time>2021-04-01T09:28:33.494Z</time>
      </trkpt>
      <trkpt lat="43.1366338" lon="-2.8029989">
        <ele>199.562</ele>
        <time>2021-04-01T09:28:33.549Z</time>
      </trkpt>
      <trkpt lat="43.1366323" lon="-2.8029969">
        <ele>199.511</ele>
        <time>2021-04-01T09:28:33.604Z</time>
      </trkpt>
      <trkpt lat="43.1366311" lon="-2.8029949">
        <ele>199.514</ele>
        <time>2021-04-01T09:28:33.662Z</time>
      </trkpt>
      <trkpt lat="43.1366298" lon="-2.8029933">
        <ele>199.551</ele>
        <time>2021-04-01T09:28:33.720Z</time>
      </trkpt>
      <trkpt lat="43.1366288" lon="-2.8029918">
        <ele>199.557</ele>
        <time>2021-04-01T09:28:33.778Z</time>
      </trkpt>
      <trkpt lat="43.1366278" lon="-2.80299">
        <ele>199.547</ele>
        <time>2021-04-01T09:28:33.836Z</time>
      </trkpt>
      <trkpt lat="43.1366262" lon="-2.8029882">
        <ele>199.543</ele>
        <time>2021-04-01T09:28:33.895Z</time>
      </trkpt>
      <trkpt lat="43.1366245" lon="-2.8029862">
        <ele>199.577</ele>
        <time>2021-04-01T09:28:33.953Z</time>
      </trkpt>
      <trkpt lat="43.1366243" lon="-2.8029853">
        <ele>199.68</ele>
        <time>2021-04-01T09:28:34.011Z</time>
      </trkpt>
      <trkpt lat="43.1366231" lon="-2.8029834">
        <ele>199.693</ele>
        <time>2021-04-01T09:28:34.069Z</time>
      </trkpt>
      <trkpt lat="43.136622" lon="-2.8029821">
        <ele>199.693</ele>
        <time>2021-04-01T09:28:34.128Z</time>
      </trkpt>
      <trkpt lat="43.1366208" lon="-2.8029805">
        <ele>199.764</ele>
        <time>2021-04-01T09:28:34.186Z</time>
      </trkpt>
      <trkpt lat="43.1366197" lon="-2.8029786">
        <ele>199.765</ele>
        <time>2021-04-01T09:28:34.244Z</time>
      </trkpt>
      <trkpt lat="43.1366189" lon="-2.8029768">
        <ele>199.745</ele>
        <time>2021-04-01T09:28:34.302Z</time>
      </trkpt>
      <trkpt lat="43.1366174" lon="-2.802975">
        <ele>199.732</ele>
        <time>2021-04-01T09:28:34.361Z</time>
      </trkpt>
      <trkpt lat="43.1366165" lon="-2.8029732">
        <ele>199.74</ele>
        <time>2021-04-01T09:28:34.419Z</time>
      </trkpt>
      <trkpt lat="43.1366156" lon="-2.8029713">
        <ele>199.73</ele>
        <time>2021-04-01T09:28:34.477Z</time>
      </trkpt>
      <trkpt lat="43.1366146" lon="-2.8029694">
        <ele>199.685</ele>
        <time>2021-04-01T09:28:34.535Z</time>
      </trkpt>
      <trkpt lat="43.1366139" lon="-2.8029679">
        <ele>199.702</ele>
        <time>2021-04-01T09:28:34.594Z</time>
      </trkpt>
      <trkpt lat="43.1366134" lon="-2.8029668">
        <ele>199.758</ele>
        <time>2021-04-01T09:28:34.646Z</time>
      </trkpt>
      <trkpt lat="43.1366127" lon="-2.8029652">
        <ele>199.77</ele>
        <time>2021-04-01T09:28:34.698Z</time>
      </trkpt>
      <trkpt lat="43.1366119" lon="-2.802963">
        <ele>199.818</ele>
        <time>2021-04-01T09:28:34.750Z</time>
      </trkpt>
      <trkpt lat="43.1366111" lon="-2.8029614">
        <ele>199.871</ele>
        <time>2021-04-01T09:28:34.802Z</time>
      </trkpt>
      <trkpt lat="43.1366104" lon="-2.80296">
        <ele>199.868</ele>
        <time>2021-04-01T09:28:34.854Z</time>
      </trkpt>
      <trkpt lat="43.1366093" lon="-2.8029584">
        <ele>199.847</ele>
        <time>2021-04-01T09:28:34.906Z</time>
      </trkpt>
      <trkpt lat="43.1366083" lon="-2.8029567">
        <ele>199.862</ele>
        <time>2021-04-01T09:28:34.958Z</time>
      </trkpt>
      <trkpt lat="43.1366071" lon="-2.8029548">
        <ele>199.909</ele>
        <time>2021-04-01T09:28:35.010Z</time>
      </trkpt>
      <trkpt lat="43.1366058" lon="-2.802953">
        <ele>199.897</ele>
        <time>2021-04-01T09:28:35.062Z</time>
      </trkpt>
      <trkpt lat="43.1366055" lon="-2.8029522">
        <ele>199.933</ele>
        <time>2021-04-01T09:28:35.115Z</time>
      </trkpt>
      <trkpt lat="43.1366045" lon="-2.8029503">
        <ele>199.883</ele>
        <time>2021-04-01T09:28:35.167Z</time>
      </trkpt>
      <trkpt lat="43.1366038" lon="-2.8029491">
        <ele>199.863</ele>
        <time>2021-04-01T09:28:35.219Z</time>
      </trkpt>
      <trkpt lat="43.1366036" lon="-2.8029481">
        <ele>199.972</ele>
        <time>2021-04-01T09:28:35.271Z</time>
      </trkpt>
      <trkpt lat="43.1366022" lon="-2.8029463">
        <ele>200.006</ele>
        <time>2021-04-01T09:28:35.323Z</time>
      </trkpt>
      <trkpt lat="43.1366012" lon="-2.8029443">
        <ele>200.064</ele>
        <time>2021-04-01T09:28:35.375Z</time>
      </trkpt>
      <trkpt lat="43.1366001" lon="-2.8029427">
        <ele>200.156</ele>
        <time>2021-04-01T09:28:35.427Z</time>
      </trkpt>
      <trkpt lat="43.136599" lon="-2.8029412">
        <ele>200.238</ele>
        <time>2021-04-01T09:28:35.479Z</time>
      </trkpt>
      <trkpt lat="43.1365982" lon="-2.8029397">
        <ele>200.263</ele>
        <time>2021-04-01T09:28:35.531Z</time>
      </trkpt>
      <trkpt lat="43.1365973" lon="-2.8029379">
        <ele>200.351</ele>
        <time>2021-04-01T09:28:35.584Z</time>
      </trkpt>
      <trkpt lat="43.1365967" lon="-2.8029364">
        <ele>200.329</ele>
        <time>2021-04-01T09:28:35.642Z</time>
      </trkpt>
      <trkpt lat="43.1365964" lon="-2.8029347">
        <ele>200.3</ele>
        <time>2021-04-01T09:28:35.700Z</time>
      </trkpt>
      <trkpt lat="43.1365961" lon="-2.8029331">
        <ele>200.274</ele>
        <time>2021-04-01T09:28:35.758Z</time>
      </trkpt>
      <trkpt lat="43.1365961" lon="-2.8029313">
        <ele>200.23</ele>
        <time>2021-04-01T09:28:35.816Z</time>
      </trkpt>
      <trkpt lat="43.1365958" lon="-2.8029301">
        <ele>200.212</ele>
        <time>2021-04-01T09:28:35.874Z</time>
      </trkpt>
      <trkpt lat="43.1365956" lon="-2.8029286">
        <ele>200.228</ele>
        <time>2021-04-01T09:28:35.932Z</time>
      </trkpt>
      <trkpt lat="43.1365953" lon="-2.8029268">
        <ele>200.292</ele>
        <time>2021-04-01T09:28:35.990Z</time>
      </trkpt>
      <trkpt lat="43.136595" lon="-2.8029248">
        <ele>200.366</ele>
        <time>2021-04-01T09:28:36.048Z</time>
      </trkpt>
      <trkpt lat="43.136595" lon="-2.8029233">
        <ele>200.46</ele>
        <time>2021-04-01T09:28:36.106Z</time>
      </trkpt>
      <trkpt lat="43.1365949" lon="-2.802922">
        <ele>200.536</ele>
        <time>2021-04-01T09:28:36.164Z</time>
      </trkpt>
      <trkpt lat="43.1365946" lon="-2.8029202">
        <ele>200.578</ele>
        <time>2021-04-01T09:28:36.222Z</time>
      </trkpt>
      <trkpt lat="43.1365941" lon="-2.8029178">
        <ele>200.612</ele>
        <time>2021-04-01T09:28:36.280Z</time>
      </trkpt>
      <trkpt lat="43.1365935" lon="-2.8029161">
        <ele>200.573</ele>
        <time>2021-04-01T09:28:36.338Z</time>
      </trkpt>
      <trkpt lat="43.1365924" lon="-2.8029135">
        <ele>200.558</ele>
        <time>2021-04-01T09:28:36.396Z</time>
      </trkpt>
      <trkpt lat="43.1365919" lon="-2.8029114">
        <ele>200.539</ele>
        <time>2021-04-01T09:28:36.454Z</time>
      </trkpt>
      <trkpt lat="43.1365918" lon="-2.8029096">
        <ele>200.544</ele>
        <time>2021-04-01T09:28:36.512Z</time>
      </trkpt>
      <trkpt lat="43.1365911" lon="-2.8029078">
        <ele>200.542</ele>
        <time>2021-04-01T09:28:36.570Z</time>
      </trkpt>
      <trkpt lat="43.1365902" lon="-2.8029053">
        <ele>200.536</ele>
        <time>2021-04-01T09:28:36.629Z</time>
      </trkpt>
      <trkpt lat="43.1365909" lon="-2.8029042">
        <ele>200.57</ele>
        <time>2021-04-01T09:28:36.680Z</time>
      </trkpt>
      <trkpt lat="43.1365906" lon="-2.8029021">
        <ele>200.563</ele>
        <time>2021-04-01T09:28:36.732Z</time>
      </trkpt>
      <trkpt lat="43.1365903" lon="-2.8029003">
        <ele>200.574</ele>
        <time>2021-04-01T09:28:36.784Z</time>
      </trkpt>
      <trkpt lat="43.1365898" lon="-2.8028983">
        <ele>200.577</ele>
        <time>2021-04-01T09:28:36.836Z</time>
      </trkpt>
      <trkpt lat="43.1365893" lon="-2.8028962">
        <ele>200.566</ele>
        <time>2021-04-01T09:28:36.888Z</time>
      </trkpt>
      <trkpt lat="43.1365889" lon="-2.8028941">
        <ele>200.557</ele>
        <time>2021-04-01T09:28:36.940Z</time>
      </trkpt>
      <trkpt lat="43.1365884" lon="-2.8028924">
        <ele>200.515</ele>
        <time>2021-04-01T09:28:36.992Z</time>
      </trkpt>
      <trkpt lat="43.1365876" lon="-2.8028907">
        <ele>200.633</ele>
        <time>2021-04-01T09:28:37.044Z</time>
      </trkpt>
      <trkpt lat="43.1365865" lon="-2.8028883">
        <ele>200.741</ele>
        <time>2021-04-01T09:28:37.096Z</time>
      </trkpt>
      <trkpt lat="43.1365865" lon="-2.8028863">
        <ele>200.774</ele>
        <time>2021-04-01T09:28:37.148Z</time>
      </trkpt>
      <trkpt lat="43.1365856" lon="-2.8028835">
        <ele>200.765</ele>
        <time>2021-04-01T09:28:37.200Z</time>
      </trkpt>
      <trkpt lat="43.1365852" lon="-2.8028818">
        <ele>200.709</ele>
        <time>2021-04-01T09:28:37.252Z</time>
      </trkpt>
      <trkpt lat="43.1365848" lon="-2.8028794">
        <ele>200.719</ele>
        <time>2021-04-01T09:28:37.304Z</time>
      </trkpt>
      <trkpt lat="43.1365839" lon="-2.8028765">
        <ele>200.767</ele>
        <time>2021-04-01T09:28:37.356Z</time>
      </trkpt>
      <trkpt lat="43.1365835" lon="-2.802874">
        <ele>200.73</ele>
        <time>2021-04-01T09:28:37.408Z</time>
      </trkpt>
      <trkpt lat="43.1365827" lon="-2.8028718">
        <ele>200.735</ele>
        <time>2021-04-01T09:28:37.460Z</time>
      </trkpt>
      <trkpt lat="43.1365824" lon="-2.8028699">
        <ele>200.711</ele>
        <time>2021-04-01T09:28:37.512Z</time>
      </trkpt>
      <trkpt lat="43.1365824" lon="-2.8028682">
        <ele>200.677</ele>
        <time>2021-04-01T09:28:37.564Z</time>
      </trkpt>
      <trkpt lat="43.1365822" lon="-2.8028665">
        <ele>200.645</ele>
        <time>2021-04-01T09:28:37.619Z</time>
      </trkpt>
      <trkpt lat="43.1365823" lon="-2.8028645">
        <ele>200.606</ele>
        <time>2021-04-01T09:28:37.674Z</time>
      </trkpt>
      <trkpt lat="43.1365818" lon="-2.8028628">
        <ele>200.609</ele>
        <time>2021-04-01T09:28:37.729Z</time>
      </trkpt>
      <trkpt lat="43.1365817" lon="-2.8028603">
        <ele>200.579</ele>
        <time>2021-04-01T09:28:37.784Z</time>
      </trkpt>
      <trkpt lat="43.1365811" lon="-2.8028579">
        <ele>200.569</ele>
        <time>2021-04-01T09:28:37.839Z</time>
      </trkpt>
      <trkpt lat="43.136581" lon="-2.802856">
        <ele>200.595</ele>
        <time>2021-04-01T09:28:37.894Z</time>
      </trkpt>
      <trkpt lat="43.1365804" lon="-2.8028537">
        <ele>200.629</ele>
        <time>2021-04-01T09:28:37.949Z</time>
      </trkpt>
      <trkpt lat="43.1365802" lon="-2.8028515">
        <ele>200.666</ele>
        <time>2021-04-01T09:28:38.004Z</time>
      </trkpt>
      <trkpt lat="43.1365797" lon="-2.8028495">
        <ele>200.712</ele>
        <time>2021-04-01T09:28:38.059Z</time>
      </trkpt>
      <trkpt lat="43.1365793" lon="-2.8028471">
        <ele>200.745</ele>
        <time>2021-04-01T09:28:38.114Z</time>
      </trkpt>
      <trkpt lat="43.1365785" lon="-2.8028447">
        <ele>200.757</ele>
        <time>2021-04-01T09:28:38.169Z</time>
      </trkpt>
      <trkpt lat="43.136578" lon="-2.8028422">
        <ele>200.767</ele>
        <time>2021-04-01T09:28:38.224Z</time>
      </trkpt>
      <trkpt lat="43.1365779" lon="-2.8028402">
        <ele>200.732</ele>
        <time>2021-04-01T09:28:38.279Z</time>
      </trkpt>
      <trkpt lat="43.1365779" lon="-2.8028379">
        <ele>200.709</ele>
        <time>2021-04-01T09:28:38.334Z</time>
      </trkpt>
      <trkpt lat="43.1365777" lon="-2.8028363">
        <ele>200.692</ele>
        <time>2021-04-01T09:28:38.389Z</time>
      </trkpt>
      <trkpt lat="43.1365774" lon="-2.8028345">
        <ele>200.706</ele>
        <time>2021-04-01T09:28:38.444Z</time>
      </trkpt>
      <trkpt lat="43.1365776" lon="-2.8028328">
        <ele>200.65</ele>
        <time>2021-04-01T09:28:38.499Z</time>
      </trkpt>
      <trkpt lat="43.1365779" lon="-2.8028311">
        <ele>200.604</ele>
        <time>2021-04-01T09:28:38.554Z</time>
      </trkpt>
      <trkpt lat="43.1365783" lon="-2.8028292">
        <ele>200.613</ele>
        <time>2021-04-01T09:28:38.609Z</time>
      </trkpt>
      <trkpt lat="43.1365788" lon="-2.802828">
        <ele>200.58</ele>
        <time>2021-04-01T09:28:38.667Z</time>
      </trkpt>
      <trkpt lat="43.1365789" lon="-2.8028262">
        <ele>200.588</ele>
        <time>2021-04-01T09:28:38.725Z</time>
      </trkpt>
      <trkpt lat="43.1365793" lon="-2.8028245">
        <ele>200.576</ele>
        <time>2021-04-01T09:28:38.783Z</time>
      </trkpt>
      <trkpt lat="43.1365797" lon="-2.8028235">
        <ele>200.469</ele>
        <time>2021-04-01T09:28:38.841Z</time>
      </trkpt>
      <trkpt lat="43.13658" lon="-2.802822">
        <ele>200.388</ele>
        <time>2021-04-01T09:28:38.900Z</time>
      </trkpt>
      <trkpt lat="43.1365797" lon="-2.80282">
        <ele>200.373</ele>
        <time>2021-04-01T09:28:38.958Z</time>
      </trkpt>
      <trkpt lat="43.1365794" lon="-2.8028173">
        <ele>200.353</ele>
        <time>2021-04-01T09:28:39.016Z</time>
      </trkpt>
      <trkpt lat="43.1365789" lon="-2.8028152">
        <ele>200.34</ele>
        <time>2021-04-01T09:28:39.074Z</time>
      </trkpt>
      <trkpt lat="43.136578" lon="-2.8028135">
        <ele>200.342</ele>
        <time>2021-04-01T09:28:39.133Z</time>
      </trkpt>
      <trkpt lat="43.1365772" lon="-2.8028115">
        <ele>200.381</ele>
        <time>2021-04-01T09:28:39.191Z</time>
      </trkpt>
      <trkpt lat="43.1365763" lon="-2.8028094">
        <ele>200.457</ele>
        <time>2021-04-01T09:28:39.249Z</time>
      </trkpt>
      <trkpt lat="43.1365756" lon="-2.8028071">
        <ele>200.528</ele>
        <time>2021-04-01T09:28:39.307Z</time>
      </trkpt>
      <trkpt lat="43.1365747" lon="-2.8028052">
        <ele>200.622</ele>
        <time>2021-04-01T09:28:39.366Z</time>
      </trkpt>
      <trkpt lat="43.1365741" lon="-2.8028035">
        <ele>200.695</ele>
        <time>2021-04-01T09:28:39.424Z</time>
      </trkpt>
      <trkpt lat="43.1365738" lon="-2.8028017">
        <ele>200.686</ele>
        <time>2021-04-01T09:28:39.482Z</time>
      </trkpt>
      <trkpt lat="43.1365739" lon="-2.8028">
        <ele>200.669</ele>
        <time>2021-04-01T09:28:39.540Z</time>
      </trkpt>
      <trkpt lat="43.1365739" lon="-2.8027986">
        <ele>200.544</ele>
        <time>2021-04-01T09:28:39.599Z</time>
      </trkpt>
      <trkpt lat="43.1365744" lon="-2.8027965">
        <ele>200.453</ele>
        <time>2021-04-01T09:28:39.654Z</time>
      </trkpt>
      <trkpt lat="43.1365752" lon="-2.802796">
        <ele>200.373</ele>
        <time>2021-04-01T09:28:39.709Z</time>
      </trkpt>
      <trkpt lat="43.1365753" lon="-2.8027947">
        <ele>200.218</ele>
        <time>2021-04-01T09:28:39.764Z</time>
      </trkpt>
      <trkpt lat="43.1365751" lon="-2.8027926">
        <ele>200.037</ele>
        <time>2021-04-01T09:28:39.819Z</time>
      </trkpt>
      <trkpt lat="43.1365753" lon="-2.8027925">
        <ele>199.877</ele>
        <time>2021-04-01T09:28:39.874Z</time>
      </trkpt>
      <trkpt lat="43.1365748" lon="-2.8027901">
        <ele>199.789</ele>
        <time>2021-04-01T09:28:39.929Z</time>
      </trkpt>
      <trkpt lat="43.1365745" lon="-2.8027877">
        <ele>199.746</ele>
        <time>2021-04-01T09:28:39.984Z</time>
      </trkpt>
      <trkpt lat="43.1365742" lon="-2.8027863">
        <ele>199.718</ele>
        <time>2021-04-01T09:28:40.039Z</time>
      </trkpt>
      <trkpt lat="43.1365739" lon="-2.8027847">
        <ele>199.698</ele>
        <time>2021-04-01T09:28:40.094Z</time>
      </trkpt>
      <trkpt lat="43.1365736" lon="-2.802782">
        <ele>199.708</ele>
        <time>2021-04-01T09:28:40.149Z</time>
      </trkpt>
      <trkpt lat="43.1365732" lon="-2.8027798">
        <ele>199.725</ele>
        <time>2021-04-01T09:28:40.204Z</time>
      </trkpt>
      <trkpt lat="43.1365722" lon="-2.8027782">
        <ele>199.766</ele>
        <time>2021-04-01T09:28:40.259Z</time>
      </trkpt>
      <trkpt lat="43.1365705" lon="-2.8027754">
        <ele>199.852</ele>
        <time>2021-04-01T09:28:40.314Z</time>
      </trkpt>
      <trkpt lat="43.1365697" lon="-2.802774">
        <ele>199.803</ele>
        <time>2021-04-01T09:28:40.369Z</time>
      </trkpt>
      <trkpt lat="43.1365689" lon="-2.8027718">
        <ele>199.768</ele>
        <time>2021-04-01T09:28:40.424Z</time>
      </trkpt>
      <trkpt lat="43.1365683" lon="-2.8027696">
        <ele>199.716</ele>
        <time>2021-04-01T09:28:40.479Z</time>
      </trkpt>
      <trkpt lat="43.1365685" lon="-2.8027683">
        <ele>199.736</ele>
        <time>2021-04-01T09:28:40.534Z</time>
      </trkpt>
      <trkpt lat="43.1365687" lon="-2.8027672">
        <ele>199.79</ele>
        <time>2021-04-01T09:28:40.589Z</time>
      </trkpt>
      <trkpt lat="43.1365698" lon="-2.8027666">
        <ele>199.848</ele>
        <time>2021-04-01T09:28:40.644Z</time>
      </trkpt>
      <trkpt lat="43.1365701" lon="-2.8027647">
        <ele>199.824</ele>
        <time>2021-04-01T09:28:40.695Z</time>
      </trkpt>
      <trkpt lat="43.1365697" lon="-2.8027629">
        <ele>199.89</ele>
        <time>2021-04-01T09:28:40.747Z</time>
      </trkpt>
      <trkpt lat="43.1365696" lon="-2.8027607">
        <ele>199.839</ele>
        <time>2021-04-01T09:28:40.799Z</time>
      </trkpt>
      <trkpt lat="43.1365696" lon="-2.8027589">
        <ele>199.692</ele>
        <time>2021-04-01T09:28:40.851Z</time>
      </trkpt>
      <trkpt lat="43.1365691" lon="-2.8027574">
        <ele>199.815</ele>
        <time>2021-04-01T09:28:40.903Z</time>
      </trkpt>
      <trkpt lat="43.1365687" lon="-2.8027552">
        <ele>199.863</ele>
        <time>2021-04-01T09:28:40.955Z</time>
      </trkpt>
      <trkpt lat="43.1365685" lon="-2.8027534">
        <ele>199.75</ele>
        <time>2021-04-01T09:28:41.007Z</time>
      </trkpt>
      <trkpt lat="43.1365681" lon="-2.8027513">
        <ele>199.708</ele>
        <time>2021-04-01T09:28:41.059Z</time>
      </trkpt>
      <trkpt lat="43.1365681" lon="-2.8027487">
        <ele>199.678</ele>
        <time>2021-04-01T09:28:41.111Z</time>
      </trkpt>
      <trkpt lat="43.1365679" lon="-2.8027468">
        <ele>199.662</ele>
        <time>2021-04-01T09:28:41.163Z</time>
      </trkpt>
      <trkpt lat="43.1365676" lon="-2.8027447">
        <ele>199.641</ele>
        <time>2021-04-01T09:28:41.215Z</time>
      </trkpt>
      <trkpt lat="43.1365677" lon="-2.8027428">
        <ele>199.463</ele>
        <time>2021-04-01T09:28:41.267Z</time>
      </trkpt>
      <trkpt lat="43.1365676" lon="-2.8027405">
        <ele>199.356</ele>
        <time>2021-04-01T09:28:41.319Z</time>
      </trkpt>
      <trkpt lat="43.1365677" lon="-2.802738">
        <ele>199.129</ele>
        <time>2021-04-01T09:28:41.371Z</time>
      </trkpt>
      <trkpt lat="43.1365676" lon="-2.8027353">
        <ele>198.956</ele>
        <time>2021-04-01T09:28:41.423Z</time>
      </trkpt>
      <trkpt lat="43.1365673" lon="-2.8027329">
        <ele>198.836</ele>
        <time>2021-04-01T09:28:41.475Z</time>
      </trkpt>
      <trkpt lat="43.1365673" lon="-2.8027306">
        <ele>198.668</ele>
        <time>2021-04-01T09:28:41.527Z</time>
      </trkpt>
      <trkpt lat="43.136567" lon="-2.8027282">
        <ele>198.603</ele>
        <time>2021-04-01T09:28:41.579Z</time>
      </trkpt>
      <trkpt lat="43.1365669" lon="-2.8027267">
        <ele>198.61</ele>
        <time>2021-04-01T09:28:41.634Z</time>
      </trkpt>
      <trkpt lat="43.1365667" lon="-2.8027255">
        <ele>198.664</ele>
        <time>2021-04-01T09:28:41.689Z</time>
      </trkpt>
      <trkpt lat="43.1365657" lon="-2.802724">
        <ele>198.737</ele>
        <time>2021-04-01T09:28:41.744Z</time>
      </trkpt>
      <trkpt lat="43.1365646" lon="-2.802722">
        <ele>198.63</ele>
        <time>2021-04-01T09:28:41.799Z</time>
      </trkpt>
      <trkpt lat="43.1365645" lon="-2.8027202">
        <ele>198.575</ele>
        <time>2021-04-01T09:28:41.854Z</time>
      </trkpt>
      <trkpt lat="43.1365649" lon="-2.8027182">
        <ele>198.552</ele>
        <time>2021-04-01T09:28:41.909Z</time>
      </trkpt>
      <trkpt lat="43.1365651" lon="-2.802716">
        <ele>198.463</ele>
        <time>2021-04-01T09:28:41.964Z</time>
      </trkpt>
      <trkpt lat="43.1365645" lon="-2.8027152">
        <ele>198.314</ele>
        <time>2021-04-01T09:28:42.019Z</time>
      </trkpt>
      <trkpt lat="43.1365643" lon="-2.8027138">
        <ele>198.22</ele>
        <time>2021-04-01T09:28:42.074Z</time>
      </trkpt>
      <trkpt lat="43.1365641" lon="-2.8027126">
        <ele>198.162</ele>
        <time>2021-04-01T09:28:42.129Z</time>
      </trkpt>
      <trkpt lat="43.1365646" lon="-2.8027118">
        <ele>198.009</ele>
        <time>2021-04-01T09:28:42.184Z</time>
      </trkpt>
      <trkpt lat="43.1365642" lon="-2.8027102">
        <ele>197.852</ele>
        <time>2021-04-01T09:28:42.239Z</time>
      </trkpt>
      <trkpt lat="43.1365636" lon="-2.8027083">
        <ele>197.802</ele>
        <time>2021-04-01T09:28:42.294Z</time>
      </trkpt>
      <trkpt lat="43.136563" lon="-2.8027067">
        <ele>197.824</ele>
        <time>2021-04-01T09:28:42.349Z</time>
      </trkpt>
      <trkpt lat="43.1365626" lon="-2.8027053">
        <ele>197.757</ele>
        <time>2021-04-01T09:28:42.404Z</time>
      </trkpt>
      <trkpt lat="43.1365621" lon="-2.8027033">
        <ele>197.676</ele>
        <time>2021-04-01T09:28:42.459Z</time>
      </trkpt>
      <trkpt lat="43.1365614" lon="-2.8027015">
        <ele>197.551</ele>
        <time>2021-04-01T09:28:42.514Z</time>
      </trkpt>
      <trkpt lat="43.1365622" lon="-2.8027003">
        <ele>197.543</ele>
        <time>2021-04-01T09:28:42.569Z</time>
      </trkpt>
      <trkpt lat="43.1365624" lon="-2.8026996">
        <ele>197.375</ele>
        <time>2021-04-01T09:28:42.624Z</time>
      </trkpt>
      <trkpt lat="43.1365621" lon="-2.8026988">
        <ele>197.28</ele>
        <time>2021-04-01T09:28:42.679Z</time>
      </trkpt>
      <trkpt lat="43.1365619" lon="-2.8026983">
        <ele>197.182</ele>
        <time>2021-04-01T09:28:42.734Z</time>
      </trkpt>
      <trkpt lat="43.1365614" lon="-2.8026966">
        <ele>197.081</ele>
        <time>2021-04-01T09:28:42.789Z</time>
      </trkpt>
      <trkpt lat="43.1365604" lon="-2.8026951">
        <ele>197.006</ele>
        <time>2021-04-01T09:28:42.844Z</time>
      </trkpt>
      <trkpt lat="43.13656" lon="-2.8026932">
        <ele>196.965</ele>
        <time>2021-04-01T09:28:42.899Z</time>
      </trkpt>
      <trkpt lat="43.13656" lon="-2.8026924">
        <ele>196.755</ele>
        <time>2021-04-01T09:28:42.954Z</time>
      </trkpt>
      <trkpt lat="43.1365593" lon="-2.802691">
        <ele>196.695</ele>
        <time>2021-04-01T09:28:43.009Z</time>
      </trkpt>
      <trkpt lat="43.1365584" lon="-2.8026887">
        <ele>196.798</ele>
        <time>2021-04-01T09:28:43.064Z</time>
      </trkpt>
      <trkpt lat="43.1365582" lon="-2.8026874">
        <ele>196.639</ele>
        <time>2021-04-01T09:28:43.119Z</time>
      </trkpt>
      <trkpt lat="43.1365574" lon="-2.8026862">
        <ele>196.642</ele>
        <time>2021-04-01T09:28:43.174Z</time>
      </trkpt>
      <trkpt lat="43.1365569" lon="-2.8026848">
        <ele>196.581</ele>
        <time>2021-04-01T09:28:43.229Z</time>
      </trkpt>
      <trkpt lat="43.1365556" lon="-2.8026831">
        <ele>196.586</ele>
        <time>2021-04-01T09:28:43.284Z</time>
      </trkpt>
      <trkpt lat="43.1365546" lon="-2.8026812">
        <ele>196.544</ele>
        <time>2021-04-01T09:28:43.339Z</time>
      </trkpt>
      <trkpt lat="43.136554" lon="-2.802679">
        <ele>196.695</ele>
        <time>2021-04-01T09:28:43.394Z</time>
      </trkpt>
      <trkpt lat="43.1365532" lon="-2.8026773">
        <ele>196.721</ele>
        <time>2021-04-01T09:28:43.449Z</time>
      </trkpt>
      <trkpt lat="43.1365525" lon="-2.8026751">
        <ele>196.713</ele>
        <time>2021-04-01T09:28:43.504Z</time>
      </trkpt>
      <trkpt lat="43.1365515" lon="-2.802673">
        <ele>196.718</ele>
        <time>2021-04-01T09:28:43.559Z</time>
      </trkpt>
      <trkpt lat="43.1365506" lon="-2.802671">
        <ele>196.821</ele>
        <time>2021-04-01T09:28:43.614Z</time>
      </trkpt>
      <trkpt lat="43.1365499" lon="-2.8026691">
        <ele>196.958</ele>
        <time>2021-04-01T09:28:43.669Z</time>
      </trkpt>
      <trkpt lat="43.1365494" lon="-2.8026673">
        <ele>197.058</ele>
        <time>2021-04-01T09:28:43.724Z</time>
      </trkpt>
      <trkpt lat="43.1365485" lon="-2.8026649">
        <ele>196.979</ele>
        <time>2021-04-01T09:28:43.779Z</time>
      </trkpt>
      <trkpt lat="43.1365474" lon="-2.8026624">
        <ele>196.913</ele>
        <time>2021-04-01T09:28:43.834Z</time>
      </trkpt>
      <trkpt lat="43.136546" lon="-2.8026605">
        <ele>196.965</ele>
        <time>2021-04-01T09:28:43.889Z</time>
      </trkpt>
      <trkpt lat="43.1365448" lon="-2.8026589">
        <ele>196.977</ele>
        <time>2021-04-01T09:28:43.944Z</time>
      </trkpt>
      <trkpt lat="43.1365438" lon="-2.8026566">
        <ele>196.94</ele>
        <time>2021-04-01T09:28:43.999Z</time>
      </trkpt>
      <trkpt lat="43.1365429" lon="-2.8026536">
        <ele>197.053</ele>
        <time>2021-04-01T09:28:44.054Z</time>
      </trkpt>
      <trkpt lat="43.136542" lon="-2.8026516">
        <ele>197.099</ele>
        <time>2021-04-01T09:28:44.109Z</time>
      </trkpt>
      <trkpt lat="43.1365412" lon="-2.80265">
        <ele>197.089</ele>
        <time>2021-04-01T09:28:44.164Z</time>
      </trkpt>
      <trkpt lat="43.1365404" lon="-2.8026486">
        <ele>197.063</ele>
        <time>2021-04-01T09:28:44.219Z</time>
      </trkpt>
      <trkpt lat="43.1365397" lon="-2.8026474">
        <ele>197.041</ele>
        <time>2021-04-01T09:28:44.274Z</time>
      </trkpt>
      <trkpt lat="43.136539" lon="-2.8026459">
        <ele>197.032</ele>
        <time>2021-04-01T09:28:44.329Z</time>
      </trkpt>
      <trkpt lat="43.136538" lon="-2.8026444">
        <ele>197.065</ele>
        <time>2021-04-01T09:28:44.384Z</time>
      </trkpt>
      <trkpt lat="43.1365369" lon="-2.8026431">
        <ele>197.075</ele>
        <time>2021-04-01T09:28:44.439Z</time>
      </trkpt>
      <trkpt lat="43.1365358" lon="-2.8026418">
        <ele>197.095</ele>
        <time>2021-04-01T09:28:44.494Z</time>
      </trkpt>
      <trkpt lat="43.1365349" lon="-2.8026404">
        <ele>197.138</ele>
        <time>2021-04-01T09:28:44.549Z</time>
      </trkpt>
      <trkpt lat="43.1365338" lon="-2.802639">
        <ele>197.192</ele>
        <time>2021-04-01T09:28:44.604Z</time>
      </trkpt>
      <trkpt lat="43.1365329" lon="-2.8026373">
        <ele>197.222</ele>
        <time>2021-04-01T09:28:44.659Z</time>
      </trkpt>
      <trkpt lat="43.136532" lon="-2.8026357">
        <ele>197.255</ele>
        <time>2021-04-01T09:28:44.714Z</time>
      </trkpt>
      <trkpt lat="43.1365312" lon="-2.8026346">
        <ele>197.251</ele>
        <time>2021-04-01T09:28:44.769Z</time>
      </trkpt>
      <trkpt lat="43.1365304" lon="-2.8026337">
        <ele>197.245</ele>
        <time>2021-04-01T09:28:44.824Z</time>
      </trkpt>
      <trkpt lat="43.1365293" lon="-2.8026321">
        <ele>197.167</ele>
        <time>2021-04-01T09:28:44.879Z</time>
      </trkpt>
      <trkpt lat="43.1365281" lon="-2.8026301">
        <ele>197.064</ele>
        <time>2021-04-01T09:28:44.934Z</time>
      </trkpt>
      <trkpt lat="43.1365272" lon="-2.8026289">
        <ele>197.06</ele>
        <time>2021-04-01T09:28:44.989Z</time>
      </trkpt>
      <trkpt lat="43.136526" lon="-2.8026279">
        <ele>197.074</ele>
        <time>2021-04-01T09:28:45.044Z</time>
      </trkpt>
      <trkpt lat="43.1365249" lon="-2.8026258">
        <ele>197.136</ele>
        <time>2021-04-01T09:28:45.099Z</time>
      </trkpt>
      <trkpt lat="43.1365237" lon="-2.8026243">
        <ele>197.121</ele>
        <time>2021-04-01T09:28:45.154Z</time>
      </trkpt>
      <trkpt lat="43.1365227" lon="-2.8026225">
        <ele>197.117</ele>
        <time>2021-04-01T09:28:45.209Z</time>
      </trkpt>
      <trkpt lat="43.1365219" lon="-2.8026208">
        <ele>197.142</ele>
        <time>2021-04-01T09:28:45.264Z</time>
      </trkpt>
      <trkpt lat="43.1365206" lon="-2.802619">
        <ele>197.119</ele>
        <time>2021-04-01T09:28:45.319Z</time>
      </trkpt>
      <trkpt lat="43.1365195" lon="-2.8026171">
        <ele>197.101</ele>
        <time>2021-04-01T09:28:45.374Z</time>
      </trkpt>
      <trkpt lat="43.1365189" lon="-2.8026152">
        <ele>197.194</ele>
        <time>2021-04-01T09:28:45.429Z</time>
      </trkpt>
      <trkpt lat="43.1365175" lon="-2.8026131">
        <ele>197.192</ele>
        <time>2021-04-01T09:28:45.484Z</time>
      </trkpt>
      <trkpt lat="43.1365164" lon="-2.8026114">
        <ele>197.223</ele>
        <time>2021-04-01T09:28:45.539Z</time>
      </trkpt>
      <trkpt lat="43.1365152" lon="-2.8026095">
        <ele>197.262</ele>
        <time>2021-04-01T09:28:45.594Z</time>
      </trkpt>
      <trkpt lat="43.1365139" lon="-2.8026078">
        <ele>197.328</ele>
        <time>2021-04-01T09:28:45.649Z</time>
      </trkpt>
      <trkpt lat="43.1365126" lon="-2.8026059">
        <ele>197.39</ele>
        <time>2021-04-01T09:28:45.704Z</time>
      </trkpt>
      <trkpt lat="43.1365114" lon="-2.8026048">
        <ele>197.46</ele>
        <time>2021-04-01T09:28:45.759Z</time>
      </trkpt>
      <trkpt lat="43.1365101" lon="-2.8026035">
        <ele>197.48</ele>
        <time>2021-04-01T09:28:45.814Z</time>
      </trkpt>
      <trkpt lat="43.136509" lon="-2.8026025">
        <ele>197.491</ele>
        <time>2021-04-01T09:28:45.869Z</time>
      </trkpt>
      <trkpt lat="43.1365079" lon="-2.8026013">
        <ele>197.548</ele>
        <time>2021-04-01T09:28:45.924Z</time>
      </trkpt>
      <trkpt lat="43.1365065" lon="-2.8025997">
        <ele>197.567</ele>
        <time>2021-04-01T09:28:45.979Z</time>
      </trkpt>
      <trkpt lat="43.1365057" lon="-2.8025991">
        <ele>197.539</ele>
        <time>2021-04-01T09:28:46.034Z</time>
      </trkpt>
      <trkpt lat="43.1365047" lon="-2.8025981">
        <ele>197.55</ele>
        <time>2021-04-01T09:28:46.089Z</time>
      </trkpt>
      <trkpt lat="43.1365031" lon="-2.8025967">
        <ele>197.544</ele>
        <time>2021-04-01T09:28:46.144Z</time>
      </trkpt>
      <trkpt lat="43.1365018" lon="-2.8025955">
        <ele>197.503</ele>
        <time>2021-04-01T09:28:46.199Z</time>
      </trkpt>
      <trkpt lat="43.1365006" lon="-2.8025941">
        <ele>197.516</ele>
        <time>2021-04-01T09:28:46.254Z</time>
      </trkpt>
      <trkpt lat="43.1364996" lon="-2.8025924">
        <ele>197.524</ele>
        <time>2021-04-01T09:28:46.309Z</time>
      </trkpt>
      <trkpt lat="43.1364984" lon="-2.8025906">
        <ele>197.494</ele>
        <time>2021-04-01T09:28:46.364Z</time>
      </trkpt>
      <trkpt lat="43.1364972" lon="-2.8025893">
        <ele>197.448</ele>
        <time>2021-04-01T09:28:46.419Z</time>
      </trkpt>
      <trkpt lat="43.1364961" lon="-2.8025878">
        <ele>197.418</ele>
        <time>2021-04-01T09:28:46.474Z</time>
      </trkpt>
      <trkpt lat="43.1364951" lon="-2.8025861">
        <ele>197.419</ele>
        <time>2021-04-01T09:28:46.529Z</time>
      </trkpt>
      <trkpt lat="43.136494" lon="-2.8025851">
        <ele>197.385</ele>
        <time>2021-04-01T09:28:46.584Z</time>
      </trkpt>
      <trkpt lat="43.1364928" lon="-2.8025837">
        <ele>197.297</ele>
        <time>2021-04-01T09:28:46.636Z</time>
      </trkpt>
      <trkpt lat="43.1364918" lon="-2.8025823">
        <ele>197.291</ele>
        <time>2021-04-01T09:28:46.688Z</time>
      </trkpt>
      <trkpt lat="43.1364908" lon="-2.8025813">
        <ele>197.286</ele>
        <time>2021-04-01T09:28:46.740Z</time>
      </trkpt>
      <trkpt lat="43.1364896" lon="-2.8025805">
        <ele>197.313</ele>
        <time>2021-04-01T09:28:46.792Z</time>
      </trkpt>
      <trkpt lat="43.1364886" lon="-2.8025794">
        <ele>197.274</ele>
        <time>2021-04-01T09:28:46.844Z</time>
      </trkpt>
      <trkpt lat="43.1364873" lon="-2.8025785">
        <ele>197.214</ele>
        <time>2021-04-01T09:28:46.896Z</time>
      </trkpt>
      <trkpt lat="43.1364863" lon="-2.8025779">
        <ele>197.183</ele>
        <time>2021-04-01T09:28:46.948Z</time>
      </trkpt>
      <trkpt lat="43.1364854" lon="-2.8025776">
        <ele>197.172</ele>
        <time>2021-04-01T09:28:47.000Z</time>
      </trkpt>
      <trkpt lat="43.1364846" lon="-2.8025772">
        <ele>197.102</ele>
        <time>2021-04-01T09:28:47.052Z</time>
      </trkpt>
      <trkpt lat="43.1364838" lon="-2.8025768">
        <ele>197.028</ele>
        <time>2021-04-01T09:28:47.105Z</time>
      </trkpt>
      <trkpt lat="43.1364833" lon="-2.8025762">
        <ele>196.978</ele>
        <time>2021-04-01T09:28:47.157Z</time>
      </trkpt>
      <trkpt lat="43.1364827" lon="-2.8025757">
        <ele>196.955</ele>
        <time>2021-04-01T09:28:47.209Z</time>
      </trkpt>
      <trkpt lat="43.1364821" lon="-2.8025746">
        <ele>196.965</ele>
        <time>2021-04-01T09:28:47.261Z</time>
      </trkpt>
      <trkpt lat="43.1364815" lon="-2.8025735">
        <ele>196.959</ele>
        <time>2021-04-01T09:28:47.313Z</time>
      </trkpt>
      <trkpt lat="43.1364811" lon="-2.8025722">
        <ele>196.871</ele>
        <time>2021-04-01T09:28:47.365Z</time>
      </trkpt>
      <trkpt lat="43.1364804" lon="-2.8025712">
        <ele>196.813</ele>
        <time>2021-04-01T09:28:47.417Z</time>
      </trkpt>
      <trkpt lat="43.1364792" lon="-2.8025704">
        <ele>196.792</ele>
        <time>2021-04-01T09:28:47.469Z</time>
      </trkpt>
      <trkpt lat="43.1364785" lon="-2.8025702">
        <ele>196.713</ele>
        <time>2021-04-01T09:28:47.521Z</time>
      </trkpt>
      <trkpt lat="43.1364773" lon="-2.8025692">
        <ele>196.663</ele>
        <time>2021-04-01T09:28:47.574Z</time>
      </trkpt>
      <trkpt lat="43.1364763" lon="-2.8025684">
        <ele>196.611</ele>
        <time>2021-04-01T09:28:47.632Z</time>
      </trkpt>
      <trkpt lat="43.1364752" lon="-2.8025679">
        <ele>196.571</ele>
        <time>2021-04-01T09:28:47.690Z</time>
      </trkpt>
      <trkpt lat="43.1364741" lon="-2.8025675">
        <ele>196.525</ele>
        <time>2021-04-01T09:28:47.748Z</time>
      </trkpt>
      <trkpt lat="43.136473" lon="-2.8025667">
        <ele>196.515</ele>
        <time>2021-04-01T09:28:47.806Z</time>
      </trkpt>
      <trkpt lat="43.1364719" lon="-2.8025659">
        <ele>196.59</ele>
        <time>2021-04-01T09:28:47.865Z</time>
      </trkpt>
      <trkpt lat="43.1364708" lon="-2.8025646">
        <ele>196.659</ele>
        <time>2021-04-01T09:28:47.923Z</time>
      </trkpt>
      <trkpt lat="43.1364699" lon="-2.802563">
        <ele>196.711</ele>
        <time>2021-04-01T09:28:47.981Z</time>
      </trkpt>
      <trkpt lat="43.1364688" lon="-2.8025613">
        <ele>196.768</ele>
        <time>2021-04-01T09:28:48.039Z</time>
      </trkpt>
      <trkpt lat="43.1364673" lon="-2.8025603">
        <ele>196.809</ele>
        <time>2021-04-01T09:28:48.098Z</time>
      </trkpt>
      <trkpt lat="43.1364659" lon="-2.8025594">
        <ele>196.834</ele>
        <time>2021-04-01T09:28:48.156Z</time>
      </trkpt>
      <trkpt lat="43.1364646" lon="-2.8025586">
        <ele>196.824</ele>
        <time>2021-04-01T09:28:48.214Z</time>
      </trkpt>
      <trkpt lat="43.1364633" lon="-2.802558">
        <ele>196.724</ele>
        <time>2021-04-01T09:28:48.272Z</time>
      </trkpt>
      <trkpt lat="43.1364622" lon="-2.8025577">
        <ele>196.688</ele>
        <time>2021-04-01T09:28:48.331Z</time>
      </trkpt>
      <trkpt lat="43.1364613" lon="-2.8025574">
        <ele>196.651</ele>
        <time>2021-04-01T09:28:48.389Z</time>
      </trkpt>
      <trkpt lat="43.1364601" lon="-2.8025571">
        <ele>196.576</ele>
        <time>2021-04-01T09:28:48.447Z</time>
      </trkpt>
      <trkpt lat="43.1364588" lon="-2.8025569">
        <ele>196.531</ele>
        <time>2021-04-01T09:28:48.505Z</time>
      </trkpt>
      <trkpt lat="43.1364578" lon="-2.8025562">
        <ele>196.452</ele>
        <time>2021-04-01T09:28:48.564Z</time>
      </trkpt>
      <trkpt lat="43.1364566" lon="-2.8025548">
        <ele>196.475</ele>
        <time>2021-04-01T09:28:48.619Z</time>
      </trkpt>
      <trkpt lat="43.1364553" lon="-2.802554">
        <ele>196.438</ele>
        <time>2021-04-01T09:28:48.674Z</time>
      </trkpt>
      <trkpt lat="43.1364539" lon="-2.8025535">
        <ele>196.426</ele>
        <time>2021-04-01T09:28:48.729Z</time>
      </trkpt>
      <trkpt lat="43.1364522" lon="-2.8025528">
        <ele>196.487</ele>
        <time>2021-04-01T09:28:48.784Z</time>
      </trkpt>
      <trkpt lat="43.1364507" lon="-2.8025511">
        <ele>196.598</ele>
        <time>2021-04-01T09:28:48.839Z</time>
      </trkpt>
      <trkpt lat="43.1364493" lon="-2.8025508">
        <ele>196.689</ele>
        <time>2021-04-01T09:28:48.894Z</time>
      </trkpt>
      <trkpt lat="43.1364479" lon="-2.80255">
        <ele>196.802</ele>
        <time>2021-04-01T09:28:48.949Z</time>
      </trkpt>
      <trkpt lat="43.1364465" lon="-2.8025491">
        <ele>196.861</ele>
        <time>2021-04-01T09:28:49.004Z</time>
      </trkpt>
      <trkpt lat="43.136445" lon="-2.8025485">
        <ele>196.918</ele>
        <time>2021-04-01T09:28:49.059Z</time>
      </trkpt>
      <trkpt lat="43.1364438" lon="-2.8025486">
        <ele>196.886</ele>
        <time>2021-04-01T09:28:49.114Z</time>
      </trkpt>
      <trkpt lat="43.1364424" lon="-2.8025483">
        <ele>196.851</ele>
        <time>2021-04-01T09:28:49.169Z</time>
      </trkpt>
      <trkpt lat="43.1364411" lon="-2.8025477">
        <ele>196.823</ele>
        <time>2021-04-01T09:28:49.224Z</time>
      </trkpt>
      <trkpt lat="43.1364399" lon="-2.802547">
        <ele>196.823</ele>
        <time>2021-04-01T09:28:49.279Z</time>
      </trkpt>
      <trkpt lat="43.1364387" lon="-2.8025459">
        <ele>196.847</ele>
        <time>2021-04-01T09:28:49.334Z</time>
      </trkpt>
      <trkpt lat="43.1364375" lon="-2.8025457">
        <ele>196.875</ele>
        <time>2021-04-01T09:28:49.389Z</time>
      </trkpt>
      <trkpt lat="43.1364361" lon="-2.802545">
        <ele>196.905</ele>
        <time>2021-04-01T09:28:49.444Z</time>
      </trkpt>
      <trkpt lat="43.1364346" lon="-2.8025447">
        <ele>196.935</ele>
        <time>2021-04-01T09:28:49.499Z</time>
      </trkpt>
      <trkpt lat="43.1364331" lon="-2.8025444">
        <ele>197.013</ele>
        <time>2021-04-01T09:28:49.554Z</time>
      </trkpt>
      <trkpt lat="43.1364316" lon="-2.8025437">
        <ele>197.09</ele>
        <time>2021-04-01T09:28:49.609Z</time>
      </trkpt>
      <trkpt lat="43.1364301" lon="-2.8025432">
        <ele>197.131</ele>
        <time>2021-04-01T09:28:49.664Z</time>
      </trkpt>
      <trkpt lat="43.1364282" lon="-2.802543">
        <ele>197.188</ele>
        <time>2021-04-01T09:28:49.719Z</time>
      </trkpt>
      <trkpt lat="43.1364264" lon="-2.8025428">
        <ele>197.266</ele>
        <time>2021-04-01T09:28:49.774Z</time>
      </trkpt>
      <trkpt lat="43.1364246" lon="-2.8025425">
        <ele>197.344</ele>
        <time>2021-04-01T09:28:49.829Z</time>
      </trkpt>
      <trkpt lat="43.1364232" lon="-2.8025417">
        <ele>197.404</ele>
        <time>2021-04-01T09:28:49.884Z</time>
      </trkpt>
      <trkpt lat="43.1364215" lon="-2.8025411">
        <ele>197.495</ele>
        <time>2021-04-01T09:28:49.939Z</time>
      </trkpt>
      <trkpt lat="43.1364199" lon="-2.8025406">
        <ele>197.54</ele>
        <time>2021-04-01T09:28:49.994Z</time>
      </trkpt>
      <trkpt lat="43.1364181" lon="-2.80254">
        <ele>197.629</ele>
        <time>2021-04-01T09:28:50.049Z</time>
      </trkpt>
      <trkpt lat="43.1364164" lon="-2.8025401">
        <ele>197.624</ele>
        <time>2021-04-01T09:28:50.104Z</time>
      </trkpt>
      <trkpt lat="43.1364147" lon="-2.8025399">
        <ele>197.654</ele>
        <time>2021-04-01T09:28:50.159Z</time>
      </trkpt>
      <trkpt lat="43.1364129" lon="-2.8025401">
        <ele>197.729</ele>
        <time>2021-04-01T09:28:50.214Z</time>
      </trkpt>
      <trkpt lat="43.1364114" lon="-2.8025402">
        <ele>197.772</ele>
        <time>2021-04-01T09:28:50.269Z</time>
      </trkpt>
      <trkpt lat="43.1364101" lon="-2.80254">
        <ele>197.761</ele>
        <time>2021-04-01T09:28:50.324Z</time>
      </trkpt>
      <trkpt lat="43.1364086" lon="-2.8025396">
        <ele>197.745</ele>
        <time>2021-04-01T09:28:50.379Z</time>
      </trkpt>
      <trkpt lat="43.1364072" lon="-2.8025393">
        <ele>197.761</ele>
        <time>2021-04-01T09:28:50.434Z</time>
      </trkpt>
      <trkpt lat="43.1364057" lon="-2.8025395">
        <ele>197.719</ele>
        <time>2021-04-01T09:28:50.489Z</time>
      </trkpt>
      <trkpt lat="43.136404" lon="-2.8025395">
        <ele>197.736</ele>
        <time>2021-04-01T09:28:50.544Z</time>
      </trkpt>
      <trkpt lat="43.1364023" lon="-2.8025386">
        <ele>197.835</ele>
        <time>2021-04-01T09:28:50.599Z</time>
      </trkpt>
      <trkpt lat="43.1364009" lon="-2.8025384">
        <ele>197.92</ele>
        <time>2021-04-01T09:28:50.654Z</time>
      </trkpt>
      <trkpt lat="43.1363994" lon="-2.8025382">
        <ele>197.919</ele>
        <time>2021-04-01T09:28:50.709Z</time>
      </trkpt>
      <trkpt lat="43.1363977" lon="-2.8025383">
        <ele>197.866</ele>
        <time>2021-04-01T09:28:50.764Z</time>
      </trkpt>
      <trkpt lat="43.1363962" lon="-2.8025383">
        <ele>197.903</ele>
        <time>2021-04-01T09:28:50.819Z</time>
      </trkpt>
      <trkpt lat="43.1363949" lon="-2.802538">
        <ele>197.955</ele>
        <time>2021-04-01T09:28:50.874Z</time>
      </trkpt>
      <trkpt lat="43.1363933" lon="-2.8025373">
        <ele>197.966</ele>
        <time>2021-04-01T09:28:50.929Z</time>
      </trkpt>
      <trkpt lat="43.1363921" lon="-2.8025373">
        <ele>197.893</ele>
        <time>2021-04-01T09:28:50.984Z</time>
      </trkpt>
      <trkpt lat="43.1363907" lon="-2.8025373">
        <ele>197.886</ele>
        <time>2021-04-01T09:28:51.039Z</time>
      </trkpt>
      <trkpt lat="43.1363894" lon="-2.8025377">
        <ele>197.908</ele>
        <time>2021-04-01T09:28:51.094Z</time>
      </trkpt>
      <trkpt lat="43.1363879" lon="-2.8025376">
        <ele>197.923</ele>
        <time>2021-04-01T09:28:51.149Z</time>
      </trkpt>
      <trkpt lat="43.1363864" lon="-2.8025381">
        <ele>197.888</ele>
        <time>2021-04-01T09:28:51.204Z</time>
      </trkpt>
      <trkpt lat="43.1363848" lon="-2.8025377">
        <ele>197.957</ele>
        <time>2021-04-01T09:28:51.259Z</time>
      </trkpt>
      <trkpt lat="43.1363834" lon="-2.8025379">
        <ele>197.982</ele>
        <time>2021-04-01T09:28:51.314Z</time>
      </trkpt>
      <trkpt lat="43.1363819" lon="-2.8025378">
        <ele>197.953</ele>
        <time>2021-04-01T09:28:51.369Z</time>
      </trkpt>
      <trkpt lat="43.1363804" lon="-2.8025379">
        <ele>197.972</ele>
        <time>2021-04-01T09:28:51.424Z</time>
      </trkpt>
      <trkpt lat="43.1363789" lon="-2.802537">
        <ele>198.082</ele>
        <time>2021-04-01T09:28:51.479Z</time>
      </trkpt>
      <trkpt lat="43.1363774" lon="-2.802537">
        <ele>198.131</ele>
        <time>2021-04-01T09:28:51.534Z</time>
      </trkpt>
      <trkpt lat="43.1363757" lon="-2.8025372">
        <ele>198.139</ele>
        <time>2021-04-01T09:28:51.589Z</time>
      </trkpt>
      <trkpt lat="43.1363743" lon="-2.8025375">
        <ele>198.134</ele>
        <time>2021-04-01T09:28:51.644Z</time>
      </trkpt>
      <trkpt lat="43.1363729" lon="-2.8025375">
        <ele>198.139</ele>
        <time>2021-04-01T09:28:51.699Z</time>
      </trkpt>
      <trkpt lat="43.1363714" lon="-2.8025374">
        <ele>198.236</ele>
        <time>2021-04-01T09:28:51.754Z</time>
      </trkpt>
      <trkpt lat="43.1363698" lon="-2.802537">
        <ele>198.222</ele>
        <time>2021-04-01T09:28:51.809Z</time>
      </trkpt>
      <trkpt lat="43.1363681" lon="-2.8025366">
        <ele>198.233</ele>
        <time>2021-04-01T09:28:51.864Z</time>
      </trkpt>
      <trkpt lat="43.1363668" lon="-2.8025364">
        <ele>198.265</ele>
        <time>2021-04-01T09:28:51.919Z</time>
      </trkpt>
      <trkpt lat="43.1363653" lon="-2.8025361">
        <ele>198.331</ele>
        <time>2021-04-01T09:28:51.974Z</time>
      </trkpt>
      <trkpt lat="43.1363637" lon="-2.8025364">
        <ele>198.353</ele>
        <time>2021-04-01T09:28:52.029Z</time>
      </trkpt>
      <trkpt lat="43.1363623" lon="-2.8025361">
        <ele>198.366</ele>
        <time>2021-04-01T09:28:52.084Z</time>
      </trkpt>
      <trkpt lat="43.1363609" lon="-2.8025357">
        <ele>198.332</ele>
        <time>2021-04-01T09:28:52.139Z</time>
      </trkpt>
      <trkpt lat="43.1363594" lon="-2.8025358">
        <ele>198.329</ele>
        <time>2021-04-01T09:28:52.194Z</time>
      </trkpt>
      <trkpt lat="43.136358" lon="-2.802536">
        <ele>198.29</ele>
        <time>2021-04-01T09:28:52.249Z</time>
      </trkpt>
      <trkpt lat="43.1363566" lon="-2.8025357">
        <ele>198.201</ele>
        <time>2021-04-01T09:28:52.304Z</time>
      </trkpt>
      <trkpt lat="43.1363551" lon="-2.8025359">
        <ele>198.142</ele>
        <time>2021-04-01T09:28:52.359Z</time>
      </trkpt>
      <trkpt lat="43.1363536" lon="-2.8025355">
        <ele>198.176</ele>
        <time>2021-04-01T09:28:52.414Z</time>
      </trkpt>
      <trkpt lat="43.1363522" lon="-2.8025352">
        <ele>198.193</ele>
        <time>2021-04-01T09:28:52.469Z</time>
      </trkpt>
      <trkpt lat="43.136351" lon="-2.8025352">
        <ele>198.156</ele>
        <time>2021-04-01T09:28:52.524Z</time>
      </trkpt>
      <trkpt lat="43.1363496" lon="-2.802535">
        <ele>198.182</ele>
        <time>2021-04-01T09:28:52.579Z</time>
      </trkpt>
      <trkpt lat="43.1363482" lon="-2.8025345">
        <ele>198.236</ele>
        <time>2021-04-01T09:28:52.634Z</time>
      </trkpt>
      <trkpt lat="43.1363467" lon="-2.8025343">
        <ele>198.272</ele>
        <time>2021-04-01T09:28:52.689Z</time>
      </trkpt>
      <trkpt lat="43.1363454" lon="-2.8025343">
        <ele>198.251</ele>
        <time>2021-04-01T09:28:52.744Z</time>
      </trkpt>
      <trkpt lat="43.1363439" lon="-2.8025338">
        <ele>198.259</ele>
        <time>2021-04-01T09:28:52.799Z</time>
      </trkpt>
      <trkpt lat="43.1363426" lon="-2.8025331">
        <ele>198.26</ele>
        <time>2021-04-01T09:28:52.854Z</time>
      </trkpt>
      <trkpt lat="43.1363413" lon="-2.8025319">
        <ele>198.263</ele>
        <time>2021-04-01T09:28:52.909Z</time>
      </trkpt>
      <trkpt lat="43.1363403" lon="-2.8025318">
        <ele>198.278</ele>
        <time>2021-04-01T09:28:52.964Z</time>
      </trkpt>
      <trkpt lat="43.136339" lon="-2.8025313">
        <ele>198.365</ele>
        <time>2021-04-01T09:28:53.019Z</time>
      </trkpt>
      <trkpt lat="43.1363375" lon="-2.8025305">
        <ele>198.416</ele>
        <time>2021-04-01T09:28:53.074Z</time>
      </trkpt>
      <trkpt lat="43.1363361" lon="-2.8025297">
        <ele>198.425</ele>
        <time>2021-04-01T09:28:53.129Z</time>
      </trkpt>
      <trkpt lat="43.1363347" lon="-2.802529">
        <ele>198.427</ele>
        <time>2021-04-01T09:28:53.184Z</time>
      </trkpt>
      <trkpt lat="43.1363335" lon="-2.8025286">
        <ele>198.462</ele>
        <time>2021-04-01T09:28:53.239Z</time>
      </trkpt>
      <trkpt lat="43.1363322" lon="-2.8025283">
        <ele>198.467</ele>
        <time>2021-04-01T09:28:53.294Z</time>
      </trkpt>
      <trkpt lat="43.1363309" lon="-2.8025276">
        <ele>198.481</ele>
        <time>2021-04-01T09:28:53.349Z</time>
      </trkpt>
      <trkpt lat="43.1363296" lon="-2.8025273">
        <ele>198.477</ele>
        <time>2021-04-01T09:28:53.404Z</time>
      </trkpt>
      <trkpt lat="43.1363284" lon="-2.8025271">
        <ele>198.486</ele>
        <time>2021-04-01T09:28:53.459Z</time>
      </trkpt>
      <trkpt lat="43.1363273" lon="-2.8025268">
        <ele>198.469</ele>
        <time>2021-04-01T09:28:53.514Z</time>
      </trkpt>
      <trkpt lat="43.1363262" lon="-2.8025264">
        <ele>198.41</ele>
        <time>2021-04-01T09:28:53.569Z</time>
      </trkpt>
      <trkpt lat="43.1363248" lon="-2.802526">
        <ele>198.325</ele>
        <time>2021-04-01T09:28:53.624Z</time>
      </trkpt>
      <trkpt lat="43.1363238" lon="-2.8025255">
        <ele>198.287</ele>
        <time>2021-04-01T09:28:53.679Z</time>
      </trkpt>
      <trkpt lat="43.1363229" lon="-2.8025253">
        <ele>198.217</ele>
        <time>2021-04-01T09:28:53.734Z</time>
      </trkpt>
      <trkpt lat="43.1363215" lon="-2.8025244">
        <ele>198.262</ele>
        <time>2021-04-01T09:28:53.789Z</time>
      </trkpt>
      <trkpt lat="43.1363202" lon="-2.8025233">
        <ele>198.321</ele>
        <time>2021-04-01T09:28:53.844Z</time>
      </trkpt>
      <trkpt lat="43.1363186" lon="-2.8025224">
        <ele>198.368</ele>
        <time>2021-04-01T09:28:53.899Z</time>
      </trkpt>
      <trkpt lat="43.1363174" lon="-2.802522">
        <ele>198.351</ele>
        <time>2021-04-01T09:28:53.954Z</time>
      </trkpt>
      <trkpt lat="43.1363161" lon="-2.8025219">
        <ele>198.356</ele>
        <time>2021-04-01T09:28:54.009Z</time>
      </trkpt>
      <trkpt lat="43.1363145" lon="-2.8025217">
        <ele>198.36</ele>
        <time>2021-04-01T09:28:54.064Z</time>
      </trkpt>
      <trkpt lat="43.1363133" lon="-2.8025213">
        <ele>198.312</ele>
        <time>2021-04-01T09:28:54.119Z</time>
      </trkpt>
      <trkpt lat="43.1363118" lon="-2.8025212">
        <ele>198.321</ele>
        <time>2021-04-01T09:28:54.174Z</time>
      </trkpt>
      <trkpt lat="43.1363102" lon="-2.8025206">
        <ele>198.389</ele>
        <time>2021-04-01T09:28:54.229Z</time>
      </trkpt>
      <trkpt lat="43.1363086" lon="-2.8025203">
        <ele>198.474</ele>
        <time>2021-04-01T09:28:54.284Z</time>
      </trkpt>
      <trkpt lat="43.136307" lon="-2.8025201">
        <ele>198.549</ele>
        <time>2021-04-01T09:28:54.339Z</time>
      </trkpt>
      <trkpt lat="43.1363055" lon="-2.80252">
        <ele>198.627</ele>
        <time>2021-04-01T09:28:54.394Z</time>
      </trkpt>
      <trkpt lat="43.136304" lon="-2.8025196">
        <ele>198.662</ele>
        <time>2021-04-01T09:28:54.449Z</time>
      </trkpt>
      <trkpt lat="43.1363024" lon="-2.8025189">
        <ele>198.702</ele>
        <time>2021-04-01T09:28:54.504Z</time>
      </trkpt>
      <trkpt lat="43.1363011" lon="-2.8025182">
        <ele>198.683</ele>
        <time>2021-04-01T09:28:54.559Z</time>
      </trkpt>
      <trkpt lat="43.1362997" lon="-2.8025174">
        <ele>198.705</ele>
        <time>2021-04-01T09:28:54.614Z</time>
      </trkpt>
      <trkpt lat="43.1362984" lon="-2.8025168">
        <ele>198.755</ele>
        <time>2021-04-01T09:28:54.669Z</time>
      </trkpt>
      <trkpt lat="43.1362973" lon="-2.8025162">
        <ele>198.794</ele>
        <time>2021-04-01T09:28:54.724Z</time>
      </trkpt>
      <trkpt lat="43.136296" lon="-2.8025157">
        <ele>198.815</ele>
        <time>2021-04-01T09:28:54.779Z</time>
      </trkpt>
      <trkpt lat="43.1362948" lon="-2.8025154">
        <ele>198.8</ele>
        <time>2021-04-01T09:28:54.834Z</time>
      </trkpt>
      <trkpt lat="43.1362936" lon="-2.8025153">
        <ele>198.775</ele>
        <time>2021-04-01T09:28:54.889Z</time>
      </trkpt>
      <trkpt lat="43.1362922" lon="-2.8025143">
        <ele>198.758</ele>
        <time>2021-04-01T09:28:54.944Z</time>
      </trkpt>
      <trkpt lat="43.1362909" lon="-2.8025144">
        <ele>198.805</ele>
        <time>2021-04-01T09:28:54.999Z</time>
      </trkpt>
      <trkpt lat="43.1362896" lon="-2.8025143">
        <ele>198.82</ele>
        <time>2021-04-01T09:28:55.054Z</time>
      </trkpt>
      <trkpt lat="43.1362882" lon="-2.8025141">
        <ele>198.864</ele>
        <time>2021-04-01T09:28:55.109Z</time>
      </trkpt>
      <trkpt lat="43.136287" lon="-2.8025141">
        <ele>198.88</ele>
        <time>2021-04-01T09:28:55.164Z</time>
      </trkpt>
      <trkpt lat="43.1362858" lon="-2.8025128">
        <ele>198.844</ele>
        <time>2021-04-01T09:28:55.219Z</time>
      </trkpt>
      <trkpt lat="43.1362844" lon="-2.8025126">
        <ele>198.847</ele>
        <time>2021-04-01T09:28:55.274Z</time>
      </trkpt>
      <trkpt lat="43.1362834" lon="-2.8025126">
        <ele>198.841</ele>
        <time>2021-04-01T09:28:55.329Z</time>
      </trkpt>
      <trkpt lat="43.1362819" lon="-2.8025123">
        <ele>198.836</ele>
        <time>2021-04-01T09:28:55.384Z</time>
      </trkpt>
      <trkpt lat="43.1362805" lon="-2.8025125">
        <ele>198.848</ele>
        <time>2021-04-01T09:28:55.439Z</time>
      </trkpt>
      <trkpt lat="43.1362791" lon="-2.802513">
        <ele>198.855</ele>
        <time>2021-04-01T09:28:55.494Z</time>
      </trkpt>
      <trkpt lat="43.1362779" lon="-2.8025127">
        <ele>198.887</ele>
        <time>2021-04-01T09:28:55.549Z</time>
      </trkpt>
      <trkpt lat="43.1362767" lon="-2.8025124">
        <ele>198.915</ele>
        <time>2021-04-01T09:28:55.604Z</time>
      </trkpt>
      <trkpt lat="43.1362753" lon="-2.8025119">
        <ele>198.968</ele>
        <time>2021-04-01T09:28:55.662Z</time>
      </trkpt>
      <trkpt lat="43.136274" lon="-2.8025114">
        <ele>198.998</ele>
        <time>2021-04-01T09:28:55.720Z</time>
      </trkpt>
      <trkpt lat="43.1362727" lon="-2.802511">
        <ele>199.015</ele>
        <time>2021-04-01T09:28:55.778Z</time>
      </trkpt>
      <trkpt lat="43.1362717" lon="-2.8025109">
        <ele>199</ele>
        <time>2021-04-01T09:28:55.836Z</time>
      </trkpt>
      <trkpt lat="43.1362706" lon="-2.8025107">
        <ele>198.959</ele>
        <time>2021-04-01T09:28:55.894Z</time>
      </trkpt>
      <trkpt lat="43.1362695" lon="-2.8025104">
        <ele>198.941</ele>
        <time>2021-04-01T09:28:55.952Z</time>
      </trkpt>
      <trkpt lat="43.1362682" lon="-2.8025098">
        <ele>198.959</ele>
        <time>2021-04-01T09:28:56.010Z</time>
      </trkpt>
      <trkpt lat="43.1362669" lon="-2.8025094">
        <ele>198.967</ele>
        <time>2021-04-01T09:28:56.068Z</time>
      </trkpt>
      <trkpt lat="43.1362654" lon="-2.8025093">
        <ele>199.014</ele>
        <time>2021-04-01T09:28:56.126Z</time>
      </trkpt>
      <trkpt lat="43.136264" lon="-2.8025092">
        <ele>199.039</ele>
        <time>2021-04-01T09:28:56.184Z</time>
      </trkpt>
      <trkpt lat="43.1362627" lon="-2.8025089">
        <ele>199.049</ele>
        <time>2021-04-01T09:28:56.242Z</time>
      </trkpt>
      <trkpt lat="43.1362612" lon="-2.8025084">
        <ele>199.088</ele>
        <time>2021-04-01T09:28:56.300Z</time>
      </trkpt>
      <trkpt lat="43.1362594" lon="-2.802508">
        <ele>199.137</ele>
        <time>2021-04-01T09:28:56.358Z</time>
      </trkpt>
      <trkpt lat="43.1362577" lon="-2.8025076">
        <ele>199.184</ele>
        <time>2021-04-01T09:28:56.416Z</time>
      </trkpt>
      <trkpt lat="43.1362561" lon="-2.8025073">
        <ele>199.22</ele>
        <time>2021-04-01T09:28:56.474Z</time>
      </trkpt>
      <trkpt lat="43.1362547" lon="-2.8025071">
        <ele>199.282</ele>
        <time>2021-04-01T09:28:56.532Z</time>
      </trkpt>
      <trkpt lat="43.1362535" lon="-2.8025071">
        <ele>199.297</ele>
        <time>2021-04-01T09:28:56.590Z</time>
      </trkpt>
      <trkpt lat="43.1362522" lon="-2.8025066">
        <ele>199.264</ele>
        <time>2021-04-01T09:28:56.649Z</time>
      </trkpt>
      <trkpt lat="43.1362513" lon="-2.8025058">
        <ele>199.135</ele>
        <time>2021-04-01T09:28:56.700Z</time>
      </trkpt>
      <trkpt lat="43.1362503" lon="-2.8025054">
        <ele>199.071</ele>
        <time>2021-04-01T09:28:56.752Z</time>
      </trkpt>
      <trkpt lat="43.1362492" lon="-2.8025048">
        <ele>199.027</ele>
        <time>2021-04-01T09:28:56.804Z</time>
      </trkpt>
      <trkpt lat="43.1362484" lon="-2.8025045">
        <ele>198.878</ele>
        <time>2021-04-01T09:28:56.856Z</time>
      </trkpt>
      <trkpt lat="43.1362472" lon="-2.8025041">
        <ele>198.821</ele>
        <time>2021-04-01T09:28:56.908Z</time>
      </trkpt>
      <trkpt lat="43.136246" lon="-2.8025039">
        <ele>198.767</ele>
        <time>2021-04-01T09:28:56.960Z</time>
      </trkpt>
      <trkpt lat="43.1362449" lon="-2.802504">
        <ele>198.741</ele>
        <time>2021-04-01T09:28:57.012Z</time>
      </trkpt>
      <trkpt lat="43.1362436" lon="-2.8025034">
        <ele>198.781</ele>
        <time>2021-04-01T09:28:57.064Z</time>
      </trkpt>
      <trkpt lat="43.1362422" lon="-2.8025031">
        <ele>198.767</ele>
        <time>2021-04-01T09:28:57.116Z</time>
      </trkpt>
      <trkpt lat="43.1362409" lon="-2.8025026">
        <ele>198.792</ele>
        <time>2021-04-01T09:28:57.168Z</time>
      </trkpt>
      <trkpt lat="43.1362397" lon="-2.8025021">
        <ele>198.814</ele>
        <time>2021-04-01T09:28:57.220Z</time>
      </trkpt>
      <trkpt lat="43.1362382" lon="-2.8025019">
        <ele>198.824</ele>
        <time>2021-04-01T09:28:57.272Z</time>
      </trkpt>
      <trkpt lat="43.1362363" lon="-2.8025018">
        <ele>198.939</ele>
        <time>2021-04-01T09:28:57.324Z</time>
      </trkpt>
      <trkpt lat="43.1362349" lon="-2.8025016">
        <ele>198.943</ele>
        <time>2021-04-01T09:28:57.376Z</time>
      </trkpt>
      <trkpt lat="43.1362338" lon="-2.8025013">
        <ele>198.94</ele>
        <time>2021-04-01T09:28:57.428Z</time>
      </trkpt>
      <trkpt lat="43.1362321" lon="-2.8025009">
        <ele>199.014</ele>
        <time>2021-04-01T09:28:57.480Z</time>
      </trkpt>
      <trkpt lat="43.1362307" lon="-2.8025005">
        <ele>199.047</ele>
        <time>2021-04-01T09:28:57.532Z</time>
      </trkpt>
      <trkpt lat="43.1362289" lon="-2.8025003">
        <ele>199.131</ele>
        <time>2021-04-01T09:28:57.584Z</time>
      </trkpt>
      <trkpt lat="43.1362275" lon="-2.8024999">
        <ele>199.179</ele>
        <time>2021-04-01T09:28:57.636Z</time>
      </trkpt>
      <trkpt lat="43.1362261" lon="-2.8025">
        <ele>199.204</ele>
        <time>2021-04-01T09:28:57.688Z</time>
      </trkpt>
      <trkpt lat="43.1362245" lon="-2.8024999">
        <ele>199.238</ele>
        <time>2021-04-01T09:28:57.740Z</time>
      </trkpt>
      <trkpt lat="43.1362231" lon="-2.8024996">
        <ele>199.28</ele>
        <time>2021-04-01T09:28:57.792Z</time>
      </trkpt>
      <trkpt lat="43.1362217" lon="-2.8024993">
        <ele>199.295</ele>
        <time>2021-04-01T09:28:57.844Z</time>
      </trkpt>
      <trkpt lat="43.1362203" lon="-2.802499">
        <ele>199.278</ele>
        <time>2021-04-01T09:28:57.896Z</time>
      </trkpt>
      <trkpt lat="43.1362192" lon="-2.8024994">
        <ele>199.264</ele>
        <time>2021-04-01T09:28:57.948Z</time>
      </trkpt>
      <trkpt lat="43.1362183" lon="-2.8024992">
        <ele>199.239</ele>
        <time>2021-04-01T09:28:58.000Z</time>
      </trkpt>
      <trkpt lat="43.1362172" lon="-2.8024987">
        <ele>199.194</ele>
        <time>2021-04-01T09:28:58.052Z</time>
      </trkpt>
      <trkpt lat="43.1362159" lon="-2.8024984">
        <ele>199.168</ele>
        <time>2021-04-01T09:28:58.105Z</time>
      </trkpt>
      <trkpt lat="43.1362149" lon="-2.8024985">
        <ele>199.108</ele>
        <time>2021-04-01T09:28:58.157Z</time>
      </trkpt>
      <trkpt lat="43.1362137" lon="-2.8024983">
        <ele>199.095</ele>
        <time>2021-04-01T09:28:58.209Z</time>
      </trkpt>
      <trkpt lat="43.1362123" lon="-2.8024977">
        <ele>199.103</ele>
        <time>2021-04-01T09:28:58.261Z</time>
      </trkpt>
      <trkpt lat="43.136211" lon="-2.8024975">
        <ele>199.151</ele>
        <time>2021-04-01T09:28:58.313Z</time>
      </trkpt>
      <trkpt lat="43.1362097" lon="-2.8024974">
        <ele>199.184</ele>
        <time>2021-04-01T09:28:58.365Z</time>
      </trkpt>
      <trkpt lat="43.1362083" lon="-2.802497">
        <ele>199.236</ele>
        <time>2021-04-01T09:28:58.417Z</time>
      </trkpt>
      <trkpt lat="43.1362067" lon="-2.8024971">
        <ele>199.317</ele>
        <time>2021-04-01T09:28:58.469Z</time>
      </trkpt>
      <trkpt lat="43.1362053" lon="-2.8024962">
        <ele>199.365</ele>
        <time>2021-04-01T09:28:58.521Z</time>
      </trkpt>
      <trkpt lat="43.1362039" lon="-2.8024954">
        <ele>199.437</ele>
        <time>2021-04-01T09:28:58.574Z</time>
      </trkpt>
      <trkpt lat="43.1362025" lon="-2.8024945">
        <ele>199.483</ele>
        <time>2021-04-01T09:28:58.632Z</time>
      </trkpt>
      <trkpt lat="43.136201" lon="-2.8024938">
        <ele>199.537</ele>
        <time>2021-04-01T09:28:58.690Z</time>
      </trkpt>
      <trkpt lat="43.1361996" lon="-2.8024928">
        <ele>199.581</ele>
        <time>2021-04-01T09:28:58.748Z</time>
      </trkpt>
      <trkpt lat="43.1361984" lon="-2.8024919">
        <ele>199.581</ele>
        <time>2021-04-01T09:28:58.806Z</time>
      </trkpt>
      <trkpt lat="43.136197" lon="-2.8024907">
        <ele>199.613</ele>
        <time>2021-04-01T09:28:58.864Z</time>
      </trkpt>
      <trkpt lat="43.136196" lon="-2.8024902">
        <ele>199.572</ele>
        <time>2021-04-01T09:28:58.922Z</time>
      </trkpt>
      <trkpt lat="43.1361946" lon="-2.8024895">
        <ele>199.578</ele>
        <time>2021-04-01T09:28:58.980Z</time>
      </trkpt>
      <trkpt lat="43.1361931" lon="-2.8024887">
        <ele>199.602</ele>
        <time>2021-04-01T09:28:59.038Z</time>
      </trkpt>
      <trkpt lat="43.1361922" lon="-2.8024878">
        <ele>199.605</ele>
        <time>2021-04-01T09:28:59.096Z</time>
      </trkpt>
      <trkpt lat="43.1361905" lon="-2.802487">
        <ele>199.55</ele>
        <time>2021-04-01T09:28:59.154Z</time>
      </trkpt>
      <trkpt lat="43.1361893" lon="-2.8024864">
        <ele>199.554</ele>
        <time>2021-04-01T09:28:59.212Z</time>
      </trkpt>
      <trkpt lat="43.1361881" lon="-2.8024853">
        <ele>199.587</ele>
        <time>2021-04-01T09:28:59.270Z</time>
      </trkpt>
      <trkpt lat="43.1361867" lon="-2.802484">
        <ele>199.607</ele>
        <time>2021-04-01T09:28:59.328Z</time>
      </trkpt>
      <trkpt lat="43.1361852" lon="-2.8024832">
        <ele>199.622</ele>
        <time>2021-04-01T09:28:59.386Z</time>
      </trkpt>
      <trkpt lat="43.136184" lon="-2.8024822">
        <ele>199.602</ele>
        <time>2021-04-01T09:28:59.444Z</time>
      </trkpt>
      <trkpt lat="43.1361829" lon="-2.8024813">
        <ele>199.593</ele>
        <time>2021-04-01T09:28:59.502Z</time>
      </trkpt>
      <trkpt lat="43.1361817" lon="-2.8024797">
        <ele>199.538</ele>
        <time>2021-04-01T09:28:59.560Z</time>
      </trkpt>
      <trkpt lat="43.1361809" lon="-2.8024788">
        <ele>199.474</ele>
        <time>2021-04-01T09:28:59.619Z</time>
      </trkpt>
      <trkpt lat="43.1361797" lon="-2.8024773">
        <ele>199.431</ele>
        <time>2021-04-01T09:28:59.671Z</time>
      </trkpt>
      <trkpt lat="43.1361787" lon="-2.8024762">
        <ele>199.394</ele>
        <time>2021-04-01T09:28:59.723Z</time>
      </trkpt>
      <trkpt lat="43.1361776" lon="-2.8024751">
        <ele>199.378</ele>
        <time>2021-04-01T09:28:59.775Z</time>
      </trkpt>
      <trkpt lat="43.1361765" lon="-2.8024744">
        <ele>199.348</ele>
        <time>2021-04-01T09:28:59.827Z</time>
      </trkpt>
      <trkpt lat="43.1361754" lon="-2.8024734">
        <ele>199.286</ele>
        <time>2021-04-01T09:28:59.879Z</time>
      </trkpt>
      <trkpt lat="43.1361745" lon="-2.8024727">
        <ele>199.263</ele>
        <time>2021-04-01T09:28:59.931Z</time>
      </trkpt>
      <trkpt lat="43.1361735" lon="-2.8024711">
        <ele>199.196</ele>
        <time>2021-04-01T09:28:59.983Z</time>
      </trkpt>
      <trkpt lat="43.1361726" lon="-2.8024697">
        <ele>199.131</ele>
        <time>2021-04-01T09:29:00.035Z</time>
      </trkpt>
      <trkpt lat="43.1361716" lon="-2.8024688">
        <ele>199.091</ele>
        <time>2021-04-01T09:29:00.087Z</time>
      </trkpt>
      <trkpt lat="43.1361708" lon="-2.8024674">
        <ele>199.057</ele>
        <time>2021-04-01T09:29:00.140Z</time>
      </trkpt>
      <trkpt lat="43.1361701" lon="-2.8024664">
        <ele>199.005</ele>
        <time>2021-04-01T09:29:00.192Z</time>
      </trkpt>
      <trkpt lat="43.1361694" lon="-2.8024653">
        <ele>198.988</ele>
        <time>2021-04-01T09:29:00.244Z</time>
      </trkpt>
      <trkpt lat="43.1361689" lon="-2.8024641">
        <ele>198.954</ele>
        <time>2021-04-01T09:29:00.296Z</time>
      </trkpt>
      <trkpt lat="43.1361685" lon="-2.8024631">
        <ele>198.886</ele>
        <time>2021-04-01T09:29:00.348Z</time>
      </trkpt>
      <trkpt lat="43.136168" lon="-2.8024618">
        <ele>198.817</ele>
        <time>2021-04-01T09:29:00.400Z</time>
      </trkpt>
      <trkpt lat="43.1361675" lon="-2.8024606">
        <ele>198.774</ele>
        <time>2021-04-01T09:29:00.452Z</time>
      </trkpt>
      <trkpt lat="43.1361666" lon="-2.8024592">
        <ele>198.734</ele>
        <time>2021-04-01T09:29:00.504Z</time>
      </trkpt>
      <trkpt lat="43.1361654" lon="-2.8024581">
        <ele>198.724</ele>
        <time>2021-04-01T09:29:00.556Z</time>
      </trkpt>
      <trkpt lat="43.1361641" lon="-2.8024567">
        <ele>198.662</ele>
        <time>2021-04-01T09:29:00.609Z</time>
      </trkpt>
      <trkpt lat="43.136163" lon="-2.8024558">
        <ele>198.591</ele>
        <time>2021-04-01T09:29:00.667Z</time>
      </trkpt>
      <trkpt lat="43.1361622" lon="-2.8024547">
        <ele>198.544</ele>
        <time>2021-04-01T09:29:00.725Z</time>
      </trkpt>
      <trkpt lat="43.1361611" lon="-2.8024538">
        <ele>198.508</ele>
        <time>2021-04-01T09:29:00.783Z</time>
      </trkpt>
      <trkpt lat="43.1361597" lon="-2.8024527">
        <ele>198.433</ele>
        <time>2021-04-01T09:29:00.841Z</time>
      </trkpt>
      <trkpt lat="43.1361581" lon="-2.8024516">
        <ele>198.431</ele>
        <time>2021-04-01T09:29:00.900Z</time>
      </trkpt>
      <trkpt lat="43.1361566" lon="-2.8024502">
        <ele>198.376</ele>
        <time>2021-04-01T09:29:00.958Z</time>
      </trkpt>
      <trkpt lat="43.136156" lon="-2.8024495">
        <ele>198.356</ele>
        <time>2021-04-01T09:29:01.016Z</time>
      </trkpt>
      <trkpt lat="43.136155" lon="-2.8024485">
        <ele>198.288</ele>
        <time>2021-04-01T09:29:01.074Z</time>
      </trkpt>
      <trkpt lat="43.1361541" lon="-2.8024474">
        <ele>198.238</ele>
        <time>2021-04-01T09:29:01.133Z</time>
      </trkpt>
      <trkpt lat="43.1361531" lon="-2.8024461">
        <ele>198.214</ele>
        <time>2021-04-01T09:29:01.191Z</time>
      </trkpt>
      <trkpt lat="43.1361521" lon="-2.8024448">
        <ele>198.21</ele>
        <time>2021-04-01T09:29:01.249Z</time>
      </trkpt>
      <trkpt lat="43.1361511" lon="-2.8024434">
        <ele>198.163</ele>
        <time>2021-04-01T09:29:01.307Z</time>
      </trkpt>
      <trkpt lat="43.1361502" lon="-2.8024422">
        <ele>198.12</ele>
        <time>2021-04-01T09:29:01.366Z</time>
      </trkpt>
      <trkpt lat="43.1361496" lon="-2.8024412">
        <ele>198.017</ele>
        <time>2021-04-01T09:29:01.424Z</time>
      </trkpt>
      <trkpt lat="43.1361493" lon="-2.8024404">
        <ele>197.952</ele>
        <time>2021-04-01T09:29:01.482Z</time>
      </trkpt>
      <trkpt lat="43.1361482" lon="-2.8024395">
        <ele>197.949</ele>
        <time>2021-04-01T09:29:01.540Z</time>
      </trkpt>
      <trkpt lat="43.1361474" lon="-2.8024386">
        <ele>197.937</ele>
        <time>2021-04-01T09:29:01.599Z</time>
      </trkpt>
      <trkpt lat="43.1361464" lon="-2.8024377">
        <ele>197.905</ele>
        <time>2021-04-01T09:29:01.651Z</time>
      </trkpt>
      <trkpt lat="43.1361454" lon="-2.8024369">
        <ele>197.893</ele>
        <time>2021-04-01T09:29:01.703Z</time>
      </trkpt>
      <trkpt lat="43.1361446" lon="-2.8024364">
        <ele>197.859</ele>
        <time>2021-04-01T09:29:01.755Z</time>
      </trkpt>
      <trkpt lat="43.1361436" lon="-2.8024355">
        <ele>197.757</ele>
        <time>2021-04-01T09:29:01.807Z</time>
      </trkpt>
      <trkpt lat="43.1361428" lon="-2.8024344">
        <ele>197.707</ele>
        <time>2021-04-01T09:29:01.859Z</time>
      </trkpt>
      <trkpt lat="43.1361422" lon="-2.8024337">
        <ele>197.64</ele>
        <time>2021-04-01T09:29:01.911Z</time>
      </trkpt>
      <trkpt lat="43.1361415" lon="-2.8024326">
        <ele>197.57</ele>
        <time>2021-04-01T09:29:01.963Z</time>
      </trkpt>
      <trkpt lat="43.1361408" lon="-2.8024314">
        <ele>197.47</ele>
        <time>2021-04-01T09:29:02.015Z</time>
      </trkpt>
      <trkpt lat="43.1361401" lon="-2.8024303">
        <ele>197.395</ele>
        <time>2021-04-01T09:29:02.067Z</time>
      </trkpt>
      <trkpt lat="43.1361394" lon="-2.8024293">
        <ele>197.311</ele>
        <time>2021-04-01T09:29:02.120Z</time>
      </trkpt>
      <trkpt lat="43.1361384" lon="-2.8024282">
        <ele>197.262</ele>
        <time>2021-04-01T09:29:02.172Z</time>
      </trkpt>
      <trkpt lat="43.1361374" lon="-2.8024267">
        <ele>197.255</ele>
        <time>2021-04-01T09:29:02.224Z</time>
      </trkpt>
      <trkpt lat="43.1361361" lon="-2.802425">
        <ele>197.23</ele>
        <time>2021-04-01T09:29:02.276Z</time>
      </trkpt>
      <trkpt lat="43.1361349" lon="-2.8024234">
        <ele>197.179</ele>
        <time>2021-04-01T09:29:02.328Z</time>
      </trkpt>
      <trkpt lat="43.136134" lon="-2.802422">
        <ele>197.168</ele>
        <time>2021-04-01T09:29:02.380Z</time>
      </trkpt>
      <trkpt lat="43.1361329" lon="-2.8024202">
        <ele>197.161</ele>
        <time>2021-04-01T09:29:02.432Z</time>
      </trkpt>
      <trkpt lat="43.1361318" lon="-2.8024185">
        <ele>197.138</ele>
        <time>2021-04-01T09:29:02.484Z</time>
      </trkpt>
      <trkpt lat="43.136131" lon="-2.8024167">
        <ele>197.078</ele>
        <time>2021-04-01T09:29:02.536Z</time>
      </trkpt>
      <trkpt lat="43.1361302" lon="-2.8024151">
        <ele>197.062</ele>
        <time>2021-04-01T09:29:02.589Z</time>
      </trkpt>
      <trkpt lat="43.1361295" lon="-2.8024137">
        <ele>197.047</ele>
        <time>2021-04-01T09:29:02.650Z</time>
      </trkpt>
      <trkpt lat="43.1361286" lon="-2.8024122">
        <ele>197.05</ele>
        <time>2021-04-01T09:29:02.711Z</time>
      </trkpt>
      <trkpt lat="43.1361278" lon="-2.8024106">
        <ele>197.06</ele>
        <time>2021-04-01T09:29:02.773Z</time>
      </trkpt>
      <trkpt lat="43.1361267" lon="-2.8024091">
        <ele>197.067</ele>
        <time>2021-04-01T09:29:02.834Z</time>
      </trkpt>
      <trkpt lat="43.1361259" lon="-2.8024076">
        <ele>197.063</ele>
        <time>2021-04-01T09:29:02.896Z</time>
      </trkpt>
      <trkpt lat="43.1361253" lon="-2.8024063">
        <ele>196.994</ele>
        <time>2021-04-01T09:29:02.957Z</time>
      </trkpt>
      <trkpt lat="43.1361242" lon="-2.8024048">
        <ele>196.97</ele>
        <time>2021-04-01T09:29:03.019Z</time>
      </trkpt>
      <trkpt lat="43.1361231" lon="-2.8024033">
        <ele>197.082</ele>
        <time>2021-04-01T09:29:03.080Z</time>
      </trkpt>
      <trkpt lat="43.1361218" lon="-2.8024013">
        <ele>197.097</ele>
        <time>2021-04-01T09:29:03.142Z</time>
      </trkpt>
      <trkpt lat="43.1361201" lon="-2.8023998">
        <ele>197.165</ele>
        <time>2021-04-01T09:29:03.203Z</time>
      </trkpt>
      <trkpt lat="43.1361182" lon="-2.802398">
        <ele>197.211</ele>
        <time>2021-04-01T09:29:03.265Z</time>
      </trkpt>
      <trkpt lat="43.1361167" lon="-2.8023963">
        <ele>197.272</ele>
        <time>2021-04-01T09:29:03.326Z</time>
      </trkpt>
      <trkpt lat="43.136116" lon="-2.802395">
        <ele>197.289</ele>
        <time>2021-04-01T09:29:03.388Z</time>
      </trkpt>
      <trkpt lat="43.1361147" lon="-2.8023937">
        <ele>197.222</ele>
        <time>2021-04-01T09:29:03.449Z</time>
      </trkpt>
      <trkpt lat="43.1361132" lon="-2.802392">
        <ele>197.161</ele>
        <time>2021-04-01T09:29:03.511Z</time>
      </trkpt>
      <trkpt lat="43.1361126" lon="-2.8023911">
        <ele>197.136</ele>
        <time>2021-04-01T09:29:03.572Z</time>
      </trkpt>
      <trkpt lat="43.1361116" lon="-2.8023895">
        <ele>197.093</ele>
        <time>2021-04-01T09:29:03.634Z</time>
      </trkpt>
      <trkpt lat="43.1361105" lon="-2.8023877">
        <ele>197.05</ele>
        <time>2021-04-01T09:29:03.683Z</time>
      </trkpt>
      <trkpt lat="43.1361094" lon="-2.8023857">
        <ele>197.094</ele>
        <time>2021-04-01T09:29:03.732Z</time>
      </trkpt>
      <trkpt lat="43.136108" lon="-2.802384">
        <ele>197.059</ele>
        <time>2021-04-01T09:29:03.781Z</time>
      </trkpt>
      <trkpt lat="43.1361068" lon="-2.8023822">
        <ele>197.068</ele>
        <time>2021-04-01T09:29:03.830Z</time>
      </trkpt>
      <trkpt lat="43.1361059" lon="-2.8023804">
        <ele>197.08</ele>
        <time>2021-04-01T09:29:03.880Z</time>
      </trkpt>
      <trkpt lat="43.1361049" lon="-2.8023789">
        <ele>197.021</ele>
        <time>2021-04-01T09:29:03.929Z</time>
      </trkpt>
      <trkpt lat="43.1361037" lon="-2.8023773">
        <ele>196.951</ele>
        <time>2021-04-01T09:29:03.978Z</time>
      </trkpt>
      <trkpt lat="43.1361024" lon="-2.8023752">
        <ele>196.901</ele>
        <time>2021-04-01T09:29:04.027Z</time>
      </trkpt>
      <trkpt lat="43.1361012" lon="-2.8023732">
        <ele>196.865</ele>
        <time>2021-04-01T09:29:04.076Z</time>
      </trkpt>
      <trkpt lat="43.1361006" lon="-2.8023718">
        <ele>196.821</ele>
        <time>2021-04-01T09:29:04.126Z</time>
      </trkpt>
      <trkpt lat="43.1361001" lon="-2.802371">
        <ele>196.777</ele>
        <time>2021-04-01T09:29:04.175Z</time>
      </trkpt>
      <trkpt lat="43.1360994" lon="-2.8023696">
        <ele>196.711</ele>
        <time>2021-04-01T09:29:04.224Z</time>
      </trkpt>
      <trkpt lat="43.1360986" lon="-2.8023679">
        <ele>196.644</ele>
        <time>2021-04-01T09:29:04.273Z</time>
      </trkpt>
      <trkpt lat="43.136098" lon="-2.802366">
        <ele>196.58</ele>
        <time>2021-04-01T09:29:04.322Z</time>
      </trkpt>
      <trkpt lat="43.1360966" lon="-2.8023638">
        <ele>196.582</ele>
        <time>2021-04-01T09:29:04.372Z</time>
      </trkpt>
      <trkpt lat="43.1360954" lon="-2.8023619">
        <ele>196.605</ele>
        <time>2021-04-01T09:29:04.421Z</time>
      </trkpt>
      <trkpt lat="43.1360944" lon="-2.8023598">
        <ele>196.541</ele>
        <time>2021-04-01T09:29:04.470Z</time>
      </trkpt>
      <trkpt lat="43.1360937" lon="-2.8023582">
        <ele>196.488</ele>
        <time>2021-04-01T09:29:04.519Z</time>
      </trkpt>
      <trkpt lat="43.136093" lon="-2.8023563">
        <ele>196.432</ele>
        <time>2021-04-01T09:29:04.569Z</time>
      </trkpt>
      <trkpt lat="43.1360924" lon="-2.8023543">
        <ele>196.309</ele>
        <time>2021-04-01T09:29:04.627Z</time>
      </trkpt>
      <trkpt lat="43.1360917" lon="-2.8023529">
        <ele>196.238</ele>
        <time>2021-04-01T09:29:04.685Z</time>
      </trkpt>
      <trkpt lat="43.1360909" lon="-2.8023512">
        <ele>196.175</ele>
        <time>2021-04-01T09:29:04.743Z</time>
      </trkpt>
      <trkpt lat="43.1360899" lon="-2.8023488">
        <ele>196.172</ele>
        <time>2021-04-01T09:29:04.801Z</time>
      </trkpt>
      <trkpt lat="43.1360888" lon="-2.802347">
        <ele>196.187</ele>
        <time>2021-04-01T09:29:04.859Z</time>
      </trkpt>
      <trkpt lat="43.1360877" lon="-2.8023448">
        <ele>196.168</ele>
        <time>2021-04-01T09:29:04.917Z</time>
      </trkpt>
      <trkpt lat="43.1360867" lon="-2.8023429">
        <ele>196.171</ele>
        <time>2021-04-01T09:29:04.975Z</time>
      </trkpt>
      <trkpt lat="43.1360853" lon="-2.8023406">
        <ele>196.316</ele>
        <time>2021-04-01T09:29:05.033Z</time>
      </trkpt>
      <trkpt lat="43.136084" lon="-2.8023385">
        <ele>196.339</ele>
        <time>2021-04-01T09:29:05.091Z</time>
      </trkpt>
      <trkpt lat="43.1360826" lon="-2.8023364">
        <ele>196.436</ele>
        <time>2021-04-01T09:29:05.149Z</time>
      </trkpt>
      <trkpt lat="43.1360812" lon="-2.8023343">
        <ele>196.591</ele>
        <time>2021-04-01T09:29:05.207Z</time>
      </trkpt>
      <trkpt lat="43.1360796" lon="-2.8023317">
        <ele>196.691</ele>
        <time>2021-04-01T09:29:05.265Z</time>
      </trkpt>
      <trkpt lat="43.1360781" lon="-2.8023292">
        <ele>196.773</ele>
        <time>2021-04-01T09:29:05.323Z</time>
      </trkpt>
      <trkpt lat="43.1360765" lon="-2.8023269">
        <ele>196.865</ele>
        <time>2021-04-01T09:29:05.381Z</time>
      </trkpt>
      <trkpt lat="43.1360752" lon="-2.8023245">
        <ele>196.928</ele>
        <time>2021-04-01T09:29:05.439Z</time>
      </trkpt>
      <trkpt lat="43.1360734" lon="-2.8023214">
        <ele>197.086</ele>
        <time>2021-04-01T09:29:05.497Z</time>
      </trkpt>
      <trkpt lat="43.1360718" lon="-2.8023185">
        <ele>197.162</ele>
        <time>2021-04-01T09:29:05.555Z</time>
      </trkpt>
      <trkpt lat="43.1360706" lon="-2.8023162">
        <ele>197.231</ele>
        <time>2021-04-01T09:29:05.614Z</time>
      </trkpt>
      <trkpt lat="43.1360696" lon="-2.8023138">
        <ele>197.416</ele>
        <time>2021-04-01T09:29:05.669Z</time>
      </trkpt>
      <trkpt lat="43.1360681" lon="-2.8023111">
        <ele>197.569</ele>
        <time>2021-04-01T09:29:05.724Z</time>
      </trkpt>
      <trkpt lat="43.1360665" lon="-2.8023084">
        <ele>197.724</ele>
        <time>2021-04-01T09:29:05.779Z</time>
      </trkpt>
      <trkpt lat="43.1360652" lon="-2.8023061">
        <ele>197.9</ele>
        <time>2021-04-01T09:29:05.834Z</time>
      </trkpt>
      <trkpt lat="43.1360638" lon="-2.8023041">
        <ele>198.008</ele>
        <time>2021-04-01T09:29:05.889Z</time>
      </trkpt>
      <trkpt lat="43.1360626" lon="-2.8023018">
        <ele>198.073</ele>
        <time>2021-04-01T09:29:05.944Z</time>
      </trkpt>
      <trkpt lat="43.1360614" lon="-2.8022999">
        <ele>198.129</ele>
        <time>2021-04-01T09:29:05.999Z</time>
      </trkpt>
      <trkpt lat="43.1360603" lon="-2.8022979">
        <ele>198.138</ele>
        <time>2021-04-01T09:29:06.054Z</time>
      </trkpt>
      <trkpt lat="43.1360593" lon="-2.8022959">
        <ele>198.193</ele>
        <time>2021-04-01T09:29:06.109Z</time>
      </trkpt>
      <trkpt lat="43.1360582" lon="-2.8022939">
        <ele>198.209</ele>
        <time>2021-04-01T09:29:06.164Z</time>
      </trkpt>
      <trkpt lat="43.1360574" lon="-2.8022921">
        <ele>198.282</ele>
        <time>2021-04-01T09:29:06.219Z</time>
      </trkpt>
      <trkpt lat="43.1360567" lon="-2.8022905">
        <ele>198.332</ele>
        <time>2021-04-01T09:29:06.274Z</time>
      </trkpt>
      <trkpt lat="43.1360561" lon="-2.8022885">
        <ele>198.306</ele>
        <time>2021-04-01T09:29:06.329Z</time>
      </trkpt>
      <trkpt lat="43.1360553" lon="-2.8022863">
        <ele>198.248</ele>
        <time>2021-04-01T09:29:06.384Z</time>
      </trkpt>
      <trkpt lat="43.1360541" lon="-2.8022844">
        <ele>198.25</ele>
        <time>2021-04-01T09:29:06.439Z</time>
      </trkpt>
      <trkpt lat="43.1360531" lon="-2.8022823">
        <ele>198.272</ele>
        <time>2021-04-01T09:29:06.494Z</time>
      </trkpt>
      <trkpt lat="43.1360522" lon="-2.8022801">
        <ele>198.315</ele>
        <time>2021-04-01T09:29:06.549Z</time>
      </trkpt>
      <trkpt lat="43.1360511" lon="-2.8022779">
        <ele>198.327</ele>
        <time>2021-04-01T09:29:06.604Z</time>
      </trkpt>
      <trkpt lat="43.1360503" lon="-2.8022757">
        <ele>198.342</ele>
        <time>2021-04-01T09:29:06.659Z</time>
      </trkpt>
      <trkpt lat="43.1360493" lon="-2.8022737">
        <ele>198.357</ele>
        <time>2021-04-01T09:29:06.714Z</time>
      </trkpt>
      <trkpt lat="43.1360483" lon="-2.8022717">
        <ele>198.393</ele>
        <time>2021-04-01T09:29:06.769Z</time>
      </trkpt>
      <trkpt lat="43.1360475" lon="-2.8022694">
        <ele>198.438</ele>
        <time>2021-04-01T09:29:06.824Z</time>
      </trkpt>
      <trkpt lat="43.1360468" lon="-2.802267">
        <ele>198.407</ele>
        <time>2021-04-01T09:29:06.879Z</time>
      </trkpt>
      <trkpt lat="43.1360459" lon="-2.8022653">
        <ele>198.436</ele>
        <time>2021-04-01T09:29:06.934Z</time>
      </trkpt>
      <trkpt lat="43.1360449" lon="-2.8022635">
        <ele>198.517</ele>
        <time>2021-04-01T09:29:06.989Z</time>
      </trkpt>
      <trkpt lat="43.1360436" lon="-2.802262">
        <ele>198.675</ele>
        <time>2021-04-01T09:29:07.044Z</time>
      </trkpt>
      <trkpt lat="43.1360422" lon="-2.8022605">
        <ele>198.891</ele>
        <time>2021-04-01T09:29:07.099Z</time>
      </trkpt>
      <trkpt lat="43.1360411" lon="-2.802259">
        <ele>198.986</ele>
        <time>2021-04-01T09:29:07.154Z</time>
      </trkpt>
      <trkpt lat="43.1360401" lon="-2.8022574">
        <ele>199.013</ele>
        <time>2021-04-01T09:29:07.209Z</time>
      </trkpt>
      <trkpt lat="43.1360392" lon="-2.8022556">
        <ele>199.087</ele>
        <time>2021-04-01T09:29:07.264Z</time>
      </trkpt>
      <trkpt lat="43.1360382" lon="-2.8022534">
        <ele>199.172</ele>
        <time>2021-04-01T09:29:07.319Z</time>
      </trkpt>
      <trkpt lat="43.1360373" lon="-2.8022513">
        <ele>199.277</ele>
        <time>2021-04-01T09:29:07.374Z</time>
      </trkpt>
      <trkpt lat="43.1360359" lon="-2.8022493">
        <ele>199.365</ele>
        <time>2021-04-01T09:29:07.429Z</time>
      </trkpt>
      <trkpt lat="43.136035" lon="-2.8022474">
        <ele>199.409</ele>
        <time>2021-04-01T09:29:07.484Z</time>
      </trkpt>
      <trkpt lat="43.1360341" lon="-2.8022455">
        <ele>199.453</ele>
        <time>2021-04-01T09:29:07.539Z</time>
      </trkpt>
      <trkpt lat="43.1360332" lon="-2.8022432">
        <ele>199.545</ele>
        <time>2021-04-01T09:29:07.594Z</time>
      </trkpt>
      <trkpt lat="43.1360325" lon="-2.8022415">
        <ele>199.611</ele>
        <time>2021-04-01T09:29:07.649Z</time>
      </trkpt>
      <trkpt lat="43.1360312" lon="-2.8022392">
        <ele>199.683</ele>
        <time>2021-04-01T09:29:07.704Z</time>
      </trkpt>
      <trkpt lat="43.1360298" lon="-2.802237">
        <ele>199.77</ele>
        <time>2021-04-01T09:29:07.759Z</time>
      </trkpt>
      <trkpt lat="43.1360281" lon="-2.8022345">
        <ele>199.859</ele>
        <time>2021-04-01T09:29:07.814Z</time>
      </trkpt>
      <trkpt lat="43.1360269" lon="-2.8022324">
        <ele>199.94</ele>
        <time>2021-04-01T09:29:07.869Z</time>
      </trkpt>
      <trkpt lat="43.1360259" lon="-2.8022303">
        <ele>200.036</ele>
        <time>2021-04-01T09:29:07.924Z</time>
      </trkpt>
      <trkpt lat="43.1360248" lon="-2.8022282">
        <ele>200.131</ele>
        <time>2021-04-01T09:29:07.979Z</time>
      </trkpt>
      <trkpt lat="43.1360238" lon="-2.8022256">
        <ele>200.215</ele>
        <time>2021-04-01T09:29:08.034Z</time>
      </trkpt>
      <trkpt lat="43.1360223" lon="-2.8022234">
        <ele>200.302</ele>
        <time>2021-04-01T09:29:08.089Z</time>
      </trkpt>
      <trkpt lat="43.1360213" lon="-2.8022211">
        <ele>200.337</ele>
        <time>2021-04-01T09:29:08.144Z</time>
      </trkpt>
      <trkpt lat="43.13602" lon="-2.8022185">
        <ele>200.427</ele>
        <time>2021-04-01T09:29:08.199Z</time>
      </trkpt>
      <trkpt lat="43.136019" lon="-2.8022159">
        <ele>200.516</ele>
        <time>2021-04-01T09:29:08.254Z</time>
      </trkpt>
      <trkpt lat="43.1360174" lon="-2.8022136">
        <ele>200.599</ele>
        <time>2021-04-01T09:29:08.309Z</time>
      </trkpt>
      <trkpt lat="43.136016" lon="-2.8022115">
        <ele>200.673</ele>
        <time>2021-04-01T09:29:08.364Z</time>
      </trkpt>
      <trkpt lat="43.1360147" lon="-2.8022088">
        <ele>200.813</ele>
        <time>2021-04-01T09:29:08.419Z</time>
      </trkpt>
      <trkpt lat="43.1360129" lon="-2.8022057">
        <ele>200.943</ele>
        <time>2021-04-01T09:29:08.474Z</time>
      </trkpt>
      <trkpt lat="43.1360112" lon="-2.8022034">
        <ele>201.049</ele>
        <time>2021-04-01T09:29:08.529Z</time>
      </trkpt>
      <trkpt lat="43.1360099" lon="-2.8022007">
        <ele>201.128</ele>
        <time>2021-04-01T09:29:08.584Z</time>
      </trkpt>
      <trkpt lat="43.1360088" lon="-2.8021982">
        <ele>201.223</ele>
        <time>2021-04-01T09:29:08.639Z</time>
      </trkpt>
      <trkpt lat="43.1360076" lon="-2.8021959">
        <ele>201.323</ele>
        <time>2021-04-01T09:29:08.694Z</time>
      </trkpt>
      <trkpt lat="43.1360062" lon="-2.8021936">
        <ele>201.457</ele>
        <time>2021-04-01T09:29:08.749Z</time>
      </trkpt>
      <trkpt lat="43.136005" lon="-2.8021909">
        <ele>201.521</ele>
        <time>2021-04-01T09:29:08.804Z</time>
      </trkpt>
      <trkpt lat="43.1360044" lon="-2.8021881">
        <ele>201.583</ele>
        <time>2021-04-01T09:29:08.859Z</time>
      </trkpt>
      <trkpt lat="43.1360034" lon="-2.8021857">
        <ele>201.679</ele>
        <time>2021-04-01T09:29:08.914Z</time>
      </trkpt>
      <trkpt lat="43.1360019" lon="-2.8021829">
        <ele>201.776</ele>
        <time>2021-04-01T09:29:08.969Z</time>
      </trkpt>
      <trkpt lat="43.1360007" lon="-2.8021803">
        <ele>201.836</ele>
        <time>2021-04-01T09:29:09.024Z</time>
      </trkpt>
      <trkpt lat="43.1359998" lon="-2.8021778">
        <ele>201.918</ele>
        <time>2021-04-01T09:29:09.079Z</time>
      </trkpt>
      <trkpt lat="43.135999" lon="-2.8021754">
        <ele>202.078</ele>
        <time>2021-04-01T09:29:09.134Z</time>
      </trkpt>
      <trkpt lat="43.1359981" lon="-2.8021732">
        <ele>202.101</ele>
        <time>2021-04-01T09:29:09.189Z</time>
      </trkpt>
      <trkpt lat="43.1359972" lon="-2.802171">
        <ele>202.172</ele>
        <time>2021-04-01T09:29:09.244Z</time>
      </trkpt>
      <trkpt lat="43.1359961" lon="-2.8021686">
        <ele>202.241</ele>
        <time>2021-04-01T09:29:09.299Z</time>
      </trkpt>
      <trkpt lat="43.1359953" lon="-2.8021659">
        <ele>202.372</ele>
        <time>2021-04-01T09:29:09.354Z</time>
      </trkpt>
      <trkpt lat="43.1359945" lon="-2.8021638">
        <ele>202.438</ele>
        <time>2021-04-01T09:29:09.409Z</time>
      </trkpt>
      <trkpt lat="43.1359937" lon="-2.8021616">
        <ele>202.508</ele>
        <time>2021-04-01T09:29:09.464Z</time>
      </trkpt>
      <trkpt lat="43.1359927" lon="-2.8021594">
        <ele>202.631</ele>
        <time>2021-04-01T09:29:09.519Z</time>
      </trkpt>
      <trkpt lat="43.1359915" lon="-2.8021568">
        <ele>202.739</ele>
        <time>2021-04-01T09:29:09.574Z</time>
      </trkpt>
      <trkpt lat="43.1359901" lon="-2.8021544">
        <ele>202.855</ele>
        <time>2021-04-01T09:29:09.629Z</time>
      </trkpt>
      <trkpt lat="43.1359889" lon="-2.802152">
        <ele>202.93</ele>
        <time>2021-04-01T09:29:09.684Z</time>
      </trkpt>
      <trkpt lat="43.1359878" lon="-2.8021495">
        <ele>202.984</ele>
        <time>2021-04-01T09:29:09.739Z</time>
      </trkpt>
      <trkpt lat="43.1359864" lon="-2.8021469">
        <ele>203.03</ele>
        <time>2021-04-01T09:29:09.794Z</time>
      </trkpt>
      <trkpt lat="43.1359853" lon="-2.8021442">
        <ele>203.115</ele>
        <time>2021-04-01T09:29:09.849Z</time>
      </trkpt>
      <trkpt lat="43.1359843" lon="-2.8021421">
        <ele>203.178</ele>
        <time>2021-04-01T09:29:09.904Z</time>
      </trkpt>
      <trkpt lat="43.135983" lon="-2.8021395">
        <ele>203.262</ele>
        <time>2021-04-01T09:29:09.959Z</time>
      </trkpt>
      <trkpt lat="43.1359815" lon="-2.8021368">
        <ele>203.244</ele>
        <time>2021-04-01T09:29:10.014Z</time>
      </trkpt>
      <trkpt lat="43.1359799" lon="-2.8021337">
        <ele>203.245</ele>
        <time>2021-04-01T09:29:10.069Z</time>
      </trkpt>
      <trkpt lat="43.1359788" lon="-2.8021312">
        <ele>203.251</ele>
        <time>2021-04-01T09:29:10.124Z</time>
      </trkpt>
      <trkpt lat="43.1359776" lon="-2.8021282">
        <ele>203.247</ele>
        <time>2021-04-01T09:29:10.179Z</time>
      </trkpt>
      <trkpt lat="43.135976" lon="-2.8021255">
        <ele>203.314</ele>
        <time>2021-04-01T09:29:10.234Z</time>
      </trkpt>
      <trkpt lat="43.1359749" lon="-2.802123">
        <ele>203.353</ele>
        <time>2021-04-01T09:29:10.289Z</time>
      </trkpt>
      <trkpt lat="43.1359738" lon="-2.8021203">
        <ele>203.439</ele>
        <time>2021-04-01T09:29:10.344Z</time>
      </trkpt>
      <trkpt lat="43.135973" lon="-2.8021174">
        <ele>203.456</ele>
        <time>2021-04-01T09:29:10.399Z</time>
      </trkpt>
      <trkpt lat="43.1359721" lon="-2.8021151">
        <ele>203.497</ele>
        <time>2021-04-01T09:29:10.454Z</time>
      </trkpt>
      <trkpt lat="43.135971" lon="-2.8021129">
        <ele>203.538</ele>
        <time>2021-04-01T09:29:10.509Z</time>
      </trkpt>
      <trkpt lat="43.1359699" lon="-2.8021106">
        <ele>203.546</ele>
        <time>2021-04-01T09:29:10.564Z</time>
      </trkpt>
      <trkpt lat="43.1359689" lon="-2.8021085">
        <ele>203.602</ele>
        <time>2021-04-01T09:29:10.619Z</time>
      </trkpt>
      <trkpt lat="43.1359678" lon="-2.8021063">
        <ele>203.649</ele>
        <time>2021-04-01T09:29:10.671Z</time>
      </trkpt>
      <trkpt lat="43.1359667" lon="-2.8021043">
        <ele>203.698</ele>
        <time>2021-04-01T09:29:10.723Z</time>
      </trkpt>
      <trkpt lat="43.1359658" lon="-2.8021019">
        <ele>203.728</ele>
        <time>2021-04-01T09:29:10.775Z</time>
      </trkpt>
      <trkpt lat="43.1359651" lon="-2.8020994">
        <ele>203.786</ele>
        <time>2021-04-01T09:29:10.827Z</time>
      </trkpt>
      <trkpt lat="43.135964" lon="-2.8020974">
        <ele>203.847</ele>
        <time>2021-04-01T09:29:10.879Z</time>
      </trkpt>
      <trkpt lat="43.135963" lon="-2.8020953">
        <ele>203.879</ele>
        <time>2021-04-01T09:29:10.931Z</time>
      </trkpt>
      <trkpt lat="43.1359621" lon="-2.8020931">
        <ele>203.891</ele>
        <time>2021-04-01T09:29:10.983Z</time>
      </trkpt>
      <trkpt lat="43.1359611" lon="-2.8020909">
        <ele>203.93</ele>
        <time>2021-04-01T09:29:11.035Z</time>
      </trkpt>
      <trkpt lat="43.1359601" lon="-2.8020885">
        <ele>204.005</ele>
        <time>2021-04-01T09:29:11.087Z</time>
      </trkpt>
      <trkpt lat="43.1359589" lon="-2.8020863">
        <ele>204.065</ele>
        <time>2021-04-01T09:29:11.140Z</time>
      </trkpt>
      <trkpt lat="43.1359579" lon="-2.8020843">
        <ele>204.081</ele>
        <time>2021-04-01T09:29:11.192Z</time>
      </trkpt>
      <trkpt lat="43.1359572" lon="-2.8020822">
        <ele>204.166</ele>
        <time>2021-04-01T09:29:11.244Z</time>
      </trkpt>
      <trkpt lat="43.1359559" lon="-2.8020805">
        <ele>204.272</ele>
        <time>2021-04-01T09:29:11.296Z</time>
      </trkpt>
      <trkpt lat="43.1359548" lon="-2.8020784">
        <ele>204.299</ele>
        <time>2021-04-01T09:29:11.348Z</time>
      </trkpt>
      <trkpt lat="43.1359534" lon="-2.802076">
        <ele>204.331</ele>
        <time>2021-04-01T09:29:11.400Z</time>
      </trkpt>
      <trkpt lat="43.1359521" lon="-2.8020738">
        <ele>204.335</ele>
        <time>2021-04-01T09:29:11.452Z</time>
      </trkpt>
      <trkpt lat="43.1359507" lon="-2.802072">
        <ele>204.346</ele>
        <time>2021-04-01T09:29:11.504Z</time>
      </trkpt>
      <trkpt lat="43.1359499" lon="-2.8020695">
        <ele>204.375</ele>
        <time>2021-04-01T09:29:11.556Z</time>
      </trkpt>
      <trkpt lat="43.1359486" lon="-2.8020677">
        <ele>204.424</ele>
        <time>2021-04-01T09:29:11.609Z</time>
      </trkpt>
      <trkpt lat="43.1359476" lon="-2.8020655">
        <ele>204.422</ele>
        <time>2021-04-01T09:29:11.667Z</time>
      </trkpt>
      <trkpt lat="43.1359468" lon="-2.8020637">
        <ele>204.544</ele>
        <time>2021-04-01T09:29:11.725Z</time>
      </trkpt>
      <trkpt lat="43.1359456" lon="-2.8020621">
        <ele>204.66</ele>
        <time>2021-04-01T09:29:11.783Z</time>
      </trkpt>
      <trkpt lat="43.1359445" lon="-2.8020601">
        <ele>204.705</ele>
        <time>2021-04-01T09:29:11.841Z</time>
      </trkpt>
      <trkpt lat="43.1359434" lon="-2.8020584">
        <ele>204.772</ele>
        <time>2021-04-01T09:29:11.900Z</time>
      </trkpt>
      <trkpt lat="43.1359424" lon="-2.8020563">
        <ele>204.865</ele>
        <time>2021-04-01T09:29:11.958Z</time>
      </trkpt>
      <trkpt lat="43.1359414" lon="-2.802054">
        <ele>204.917</ele>
        <time>2021-04-01T09:29:12.016Z</time>
      </trkpt>
      <trkpt lat="43.1359402" lon="-2.8020519">
        <ele>204.919</ele>
        <time>2021-04-01T09:29:12.074Z</time>
      </trkpt>
      <trkpt lat="43.1359393" lon="-2.8020498">
        <ele>204.959</ele>
        <time>2021-04-01T09:29:12.133Z</time>
      </trkpt>
      <trkpt lat="43.1359387" lon="-2.8020475">
        <ele>205.003</ele>
        <time>2021-04-01T09:29:12.191Z</time>
      </trkpt>
      <trkpt lat="43.1359379" lon="-2.8020459">
        <ele>204.994</ele>
        <time>2021-04-01T09:29:12.249Z</time>
      </trkpt>
      <trkpt lat="43.1359371" lon="-2.8020441">
        <ele>205.037</ele>
        <time>2021-04-01T09:29:12.307Z</time>
      </trkpt>
      <trkpt lat="43.1359355" lon="-2.8020417">
        <ele>204.906</ele>
        <time>2021-04-01T09:29:12.366Z</time>
      </trkpt>
      <trkpt lat="43.1359346" lon="-2.8020395">
        <ele>204.909</ele>
        <time>2021-04-01T09:29:12.424Z</time>
      </trkpt>
      <trkpt lat="43.1359343" lon="-2.8020372">
        <ele>204.991</ele>
        <time>2021-04-01T09:29:12.482Z</time>
      </trkpt>
      <trkpt lat="43.1359334" lon="-2.8020352">
        <ele>205.056</ele>
        <time>2021-04-01T09:29:12.540Z</time>
      </trkpt>
      <trkpt lat="43.1359323" lon="-2.8020339">
        <ele>205.124</ele>
        <time>2021-04-01T09:29:12.599Z</time>
      </trkpt>
      <trkpt lat="43.1359308" lon="-2.8020325">
        <ele>205.187</ele>
        <time>2021-04-01T09:29:12.654Z</time>
      </trkpt>
      <trkpt lat="43.1359294" lon="-2.8020307">
        <ele>205.252</ele>
        <time>2021-04-01T09:29:12.709Z</time>
      </trkpt>
      <trkpt lat="43.1359283" lon="-2.802029">
        <ele>205.305</ele>
        <time>2021-04-01T09:29:12.764Z</time>
      </trkpt>
      <trkpt lat="43.1359273" lon="-2.8020268">
        <ele>205.396</ele>
        <time>2021-04-01T09:29:12.819Z</time>
      </trkpt>
      <trkpt lat="43.1359264" lon="-2.8020252">
        <ele>205.533</ele>
        <time>2021-04-01T09:29:12.874Z</time>
      </trkpt>
      <trkpt lat="43.1359252" lon="-2.8020232">
        <ele>205.577</ele>
        <time>2021-04-01T09:29:12.929Z</time>
      </trkpt>
      <trkpt lat="43.1359241" lon="-2.8020215">
        <ele>205.739</ele>
        <time>2021-04-01T09:29:12.984Z</time>
      </trkpt>
      <trkpt lat="43.1359228" lon="-2.8020198">
        <ele>205.845</ele>
        <time>2021-04-01T09:29:13.039Z</time>
      </trkpt>
      <trkpt lat="43.1359217" lon="-2.8020177">
        <ele>205.866</ele>
        <time>2021-04-01T09:29:13.094Z</time>
      </trkpt>
      <trkpt lat="43.1359206" lon="-2.8020152">
        <ele>205.873</ele>
        <time>2021-04-01T09:29:13.149Z</time>
      </trkpt>
      <trkpt lat="43.1359196" lon="-2.802013">
        <ele>205.863</ele>
        <time>2021-04-01T09:29:13.204Z</time>
      </trkpt>
      <trkpt lat="43.1359186" lon="-2.8020116">
        <ele>205.906</ele>
        <time>2021-04-01T09:29:13.259Z</time>
      </trkpt>
      <trkpt lat="43.1359173" lon="-2.8020101">
        <ele>205.958</ele>
        <time>2021-04-01T09:29:13.314Z</time>
      </trkpt>
      <trkpt lat="43.1359167" lon="-2.8020083">
        <ele>206.04</ele>
        <time>2021-04-01T09:29:13.369Z</time>
      </trkpt>
      <trkpt lat="43.1359155" lon="-2.8020068">
        <ele>206.075</ele>
        <time>2021-04-01T09:29:13.424Z</time>
      </trkpt>
      <trkpt lat="43.1359147" lon="-2.8020044">
        <ele>206.09</ele>
        <time>2021-04-01T09:29:13.479Z</time>
      </trkpt>
      <trkpt lat="43.1359136" lon="-2.8020021">
        <ele>206.098</ele>
        <time>2021-04-01T09:29:13.534Z</time>
      </trkpt>
      <trkpt lat="43.1359124" lon="-2.802">
        <ele>206.14</ele>
        <time>2021-04-01T09:29:13.589Z</time>
      </trkpt>
      <trkpt lat="43.1359115" lon="-2.8019981">
        <ele>206.223</ele>
        <time>2021-04-01T09:29:13.644Z</time>
      </trkpt>
      <trkpt lat="43.1359105" lon="-2.8019958">
        <ele>206.254</ele>
        <time>2021-04-01T09:29:13.702Z</time>
      </trkpt>
      <trkpt lat="43.1359097" lon="-2.8019939">
        <ele>206.354</ele>
        <time>2021-04-01T09:29:13.760Z</time>
      </trkpt>
      <trkpt lat="43.1359086" lon="-2.801992">
        <ele>206.456</ele>
        <time>2021-04-01T09:29:13.818Z</time>
      </trkpt>
      <trkpt lat="43.1359077" lon="-2.8019898">
        <ele>206.514</ele>
        <time>2021-04-01T09:29:13.876Z</time>
      </trkpt>
      <trkpt lat="43.135907" lon="-2.8019875">
        <ele>206.572</ele>
        <time>2021-04-01T09:29:13.935Z</time>
      </trkpt>
      <trkpt lat="43.1359061" lon="-2.8019853">
        <ele>206.612</ele>
        <time>2021-04-01T09:29:13.993Z</time>
      </trkpt>
      <trkpt lat="43.1359052" lon="-2.801983">
        <ele>206.638</ele>
        <time>2021-04-01T09:29:14.051Z</time>
      </trkpt>
      <trkpt lat="43.1359041" lon="-2.801981">
        <ele>206.771</ele>
        <time>2021-04-01T09:29:14.109Z</time>
      </trkpt>
      <trkpt lat="43.1359029" lon="-2.8019789">
        <ele>206.833</ele>
        <time>2021-04-01T09:29:14.168Z</time>
      </trkpt>
      <trkpt lat="43.1359017" lon="-2.8019766">
        <ele>206.906</ele>
        <time>2021-04-01T09:29:14.226Z</time>
      </trkpt>
      <trkpt lat="43.135901" lon="-2.8019742">
        <ele>206.967</ele>
        <time>2021-04-01T09:29:14.284Z</time>
      </trkpt>
      <trkpt lat="43.1359002" lon="-2.8019724">
        <ele>207.085</ele>
        <time>2021-04-01T09:29:14.342Z</time>
      </trkpt>
      <trkpt lat="43.1358991" lon="-2.8019706">
        <ele>207.156</ele>
        <time>2021-04-01T09:29:14.401Z</time>
      </trkpt>
      <trkpt lat="43.1358981" lon="-2.8019684">
        <ele>207.121</ele>
        <time>2021-04-01T09:29:14.459Z</time>
      </trkpt>
      <trkpt lat="43.1358966" lon="-2.8019668">
        <ele>207.114</ele>
        <time>2021-04-01T09:29:14.517Z</time>
      </trkpt>
      <trkpt lat="43.1358955" lon="-2.8019649">
        <ele>207.12</ele>
        <time>2021-04-01T09:29:14.575Z</time>
      </trkpt>
      <trkpt lat="43.1358946" lon="-2.8019628">
        <ele>207.122</ele>
        <time>2021-04-01T09:29:14.634Z</time>
      </trkpt>
      <trkpt lat="43.1358937" lon="-2.8019605">
        <ele>207.115</ele>
        <time>2021-04-01T09:29:14.686Z</time>
      </trkpt>
      <trkpt lat="43.1358926" lon="-2.8019585">
        <ele>207.129</ele>
        <time>2021-04-01T09:29:14.738Z</time>
      </trkpt>
      <trkpt lat="43.1358921" lon="-2.8019563">
        <ele>207.209</ele>
        <time>2021-04-01T09:29:14.790Z</time>
      </trkpt>
      <trkpt lat="43.1358908" lon="-2.8019541">
        <ele>207.246</ele>
        <time>2021-04-01T09:29:14.842Z</time>
      </trkpt>
      <trkpt lat="43.1358897" lon="-2.8019521">
        <ele>207.244</ele>
        <time>2021-04-01T09:29:14.894Z</time>
      </trkpt>
      <trkpt lat="43.1358886" lon="-2.8019504">
        <ele>207.249</ele>
        <time>2021-04-01T09:29:14.946Z</time>
      </trkpt>
      <trkpt lat="43.135888" lon="-2.801949">
        <ele>207.255</ele>
        <time>2021-04-01T09:29:14.998Z</time>
      </trkpt>
      <trkpt lat="43.1358869" lon="-2.801947">
        <ele>207.325</ele>
        <time>2021-04-01T09:29:15.050Z</time>
      </trkpt>
      <trkpt lat="43.1358859" lon="-2.8019454">
        <ele>207.375</ele>
        <time>2021-04-01T09:29:15.102Z</time>
      </trkpt>
      <trkpt lat="43.1358847" lon="-2.8019434">
        <ele>207.389</ele>
        <time>2021-04-01T09:29:15.155Z</time>
      </trkpt>
      <trkpt lat="43.1358836" lon="-2.8019417">
        <ele>207.44</ele>
        <time>2021-04-01T09:29:15.207Z</time>
      </trkpt>
      <trkpt lat="43.1358826" lon="-2.8019403">
        <ele>207.538</ele>
        <time>2021-04-01T09:29:15.259Z</time>
      </trkpt>
      <trkpt lat="43.1358814" lon="-2.801939">
        <ele>207.605</ele>
        <time>2021-04-01T09:29:15.311Z</time>
      </trkpt>
      <trkpt lat="43.13588" lon="-2.8019379">
        <ele>207.648</ele>
        <time>2021-04-01T09:29:15.363Z</time>
      </trkpt>
      <trkpt lat="43.1358786" lon="-2.8019366">
        <ele>207.686</ele>
        <time>2021-04-01T09:29:15.415Z</time>
      </trkpt>
      <trkpt lat="43.1358774" lon="-2.8019352">
        <ele>207.73</ele>
        <time>2021-04-01T09:29:15.467Z</time>
      </trkpt>
      <trkpt lat="43.135876" lon="-2.8019339">
        <ele>207.774</ele>
        <time>2021-04-01T09:29:15.519Z</time>
      </trkpt>
      <trkpt lat="43.1358746" lon="-2.8019324">
        <ele>207.801</ele>
        <time>2021-04-01T09:29:15.571Z</time>
      </trkpt>
      <trkpt lat="43.1358734" lon="-2.8019309">
        <ele>207.852</ele>
        <time>2021-04-01T09:29:15.624Z</time>
      </trkpt>
      <trkpt lat="43.1358722" lon="-2.8019293">
        <ele>207.842</ele>
        <time>2021-04-01T09:29:15.679Z</time>
      </trkpt>
      <trkpt lat="43.1358712" lon="-2.801928">
        <ele>207.884</ele>
        <time>2021-04-01T09:29:15.734Z</time>
      </trkpt>
      <trkpt lat="43.1358702" lon="-2.8019268">
        <ele>207.9</ele>
        <time>2021-04-01T09:29:15.789Z</time>
      </trkpt>
      <trkpt lat="43.1358693" lon="-2.8019254">
        <ele>207.92</ele>
        <time>2021-04-01T09:29:15.844Z</time>
      </trkpt>
      <trkpt lat="43.1358682" lon="-2.801924">
        <ele>207.945</ele>
        <time>2021-04-01T09:29:15.899Z</time>
      </trkpt>
      <trkpt lat="43.135867" lon="-2.8019224">
        <ele>207.966</ele>
        <time>2021-04-01T09:29:15.954Z</time>
      </trkpt>
      <trkpt lat="43.1358659" lon="-2.8019209">
        <ele>207.971</ele>
        <time>2021-04-01T09:29:16.009Z</time>
      </trkpt>
      <trkpt lat="43.1358643" lon="-2.8019192">
        <ele>207.98</ele>
        <time>2021-04-01T09:29:16.064Z</time>
      </trkpt>
      <trkpt lat="43.1358631" lon="-2.8019176">
        <ele>207.979</ele>
        <time>2021-04-01T09:29:16.119Z</time>
      </trkpt>
      <trkpt lat="43.1358621" lon="-2.8019164">
        <ele>207.968</ele>
        <time>2021-04-01T09:29:16.174Z</time>
      </trkpt>
      <trkpt lat="43.1358607" lon="-2.8019153">
        <ele>207.969</ele>
        <time>2021-04-01T09:29:16.229Z</time>
      </trkpt>
      <trkpt lat="43.1358591" lon="-2.8019146">
        <ele>207.94</ele>
        <time>2021-04-01T09:29:16.284Z</time>
      </trkpt>
      <trkpt lat="43.1358579" lon="-2.8019128">
        <ele>207.953</ele>
        <time>2021-04-01T09:29:16.339Z</time>
      </trkpt>
      <trkpt lat="43.1358568" lon="-2.8019112">
        <ele>207.958</ele>
        <time>2021-04-01T09:29:16.394Z</time>
      </trkpt>
      <trkpt lat="43.1358553" lon="-2.8019101">
        <ele>207.969</ele>
        <time>2021-04-01T09:29:16.449Z</time>
      </trkpt>
      <trkpt lat="43.1358538" lon="-2.8019084">
        <ele>208.013</ele>
        <time>2021-04-01T09:29:16.504Z</time>
      </trkpt>
      <trkpt lat="43.1358522" lon="-2.801907">
        <ele>208.029</ele>
        <time>2021-04-01T09:29:16.559Z</time>
      </trkpt>
      <trkpt lat="43.1358509" lon="-2.8019059">
        <ele>208.059</ele>
        <time>2021-04-01T09:29:16.614Z</time>
      </trkpt>
      <trkpt lat="43.1358495" lon="-2.8019047">
        <ele>208.063</ele>
        <time>2021-04-01T09:29:16.666Z</time>
      </trkpt>
      <trkpt lat="43.1358482" lon="-2.8019035">
        <ele>208.115</ele>
        <time>2021-04-01T09:29:16.718Z</time>
      </trkpt>
      <trkpt lat="43.1358468" lon="-2.8019022">
        <ele>208.144</ele>
        <time>2021-04-01T09:29:16.770Z</time>
      </trkpt>
      <trkpt lat="43.1358454" lon="-2.8019008">
        <ele>208.212</ele>
        <time>2021-04-01T09:29:16.822Z</time>
      </trkpt>
      <trkpt lat="43.1358441" lon="-2.8018992">
        <ele>208.216</ele>
        <time>2021-04-01T09:29:16.874Z</time>
      </trkpt>
      <trkpt lat="43.1358426" lon="-2.8018981">
        <ele>208.222</ele>
        <time>2021-04-01T09:29:16.926Z</time>
      </trkpt>
      <trkpt lat="43.1358416" lon="-2.8018963">
        <ele>208.254</ele>
        <time>2021-04-01T09:29:16.978Z</time>
      </trkpt>
      <trkpt lat="43.1358404" lon="-2.8018959">
        <ele>208.233</ele>
        <time>2021-04-01T09:29:17.030Z</time>
      </trkpt>
      <trkpt lat="43.1358391" lon="-2.8018947">
        <ele>208.293</ele>
        <time>2021-04-01T09:29:17.082Z</time>
      </trkpt>
      <trkpt lat="43.1358379" lon="-2.8018933">
        <ele>208.307</ele>
        <time>2021-04-01T09:29:17.135Z</time>
      </trkpt>
      <trkpt lat="43.135837" lon="-2.8018922">
        <ele>208.319</ele>
        <time>2021-04-01T09:29:17.187Z</time>
      </trkpt>
      <trkpt lat="43.1358362" lon="-2.8018912">
        <ele>208.324</ele>
        <time>2021-04-01T09:29:17.239Z</time>
      </trkpt>
      <trkpt lat="43.135835" lon="-2.8018903">
        <ele>208.335</ele>
        <time>2021-04-01T09:29:17.291Z</time>
      </trkpt>
      <trkpt lat="43.1358337" lon="-2.801889">
        <ele>208.345</ele>
        <time>2021-04-01T09:29:17.343Z</time>
      </trkpt>
      <trkpt lat="43.1358324" lon="-2.8018879">
        <ele>208.341</ele>
        <time>2021-04-01T09:29:17.395Z</time>
      </trkpt>
      <trkpt lat="43.1358318" lon="-2.8018874">
        <ele>208.265</ele>
        <time>2021-04-01T09:29:17.447Z</time>
      </trkpt>
      <trkpt lat="43.1358308" lon="-2.8018863">
        <ele>208.264</ele>
        <time>2021-04-01T09:29:17.499Z</time>
      </trkpt>
      <trkpt lat="43.13583" lon="-2.8018853">
        <ele>208.273</ele>
        <time>2021-04-01T09:29:17.551Z</time>
      </trkpt>
      <trkpt lat="43.1358287" lon="-2.8018838">
        <ele>208.316</ele>
        <time>2021-04-01T09:29:17.604Z</time>
      </trkpt>
      <trkpt lat="43.1358275" lon="-2.8018828">
        <ele>208.317</ele>
        <time>2021-04-01T09:29:17.662Z</time>
      </trkpt>
      <trkpt lat="43.1358264" lon="-2.8018818">
        <ele>208.316</ele>
        <time>2021-04-01T09:29:17.720Z</time>
      </trkpt>
      <trkpt lat="43.1358252" lon="-2.8018805">
        <ele>208.271</ele>
        <time>2021-04-01T09:29:17.778Z</time>
      </trkpt>
      <trkpt lat="43.135824" lon="-2.8018791">
        <ele>208.262</ele>
        <time>2021-04-01T09:29:17.836Z</time>
      </trkpt>
      <trkpt lat="43.1358229" lon="-2.8018786">
        <ele>208.199</ele>
        <time>2021-04-01T09:29:17.894Z</time>
      </trkpt>
      <trkpt lat="43.135822" lon="-2.8018775">
        <ele>208.149</ele>
        <time>2021-04-01T09:29:17.952Z</time>
      </trkpt>
      <trkpt lat="43.1358208" lon="-2.8018767">
        <ele>208.14</ele>
        <time>2021-04-01T09:29:18.010Z</time>
      </trkpt>
      <trkpt lat="43.13582" lon="-2.8018751">
        <ele>208.152</ele>
        <time>2021-04-01T09:29:18.068Z</time>
      </trkpt>
      <trkpt lat="43.1358188" lon="-2.8018739">
        <ele>208.138</ele>
        <time>2021-04-01T09:29:18.126Z</time>
      </trkpt>
      <trkpt lat="43.1358176" lon="-2.8018727">
        <ele>208.174</ele>
        <time>2021-04-01T09:29:18.184Z</time>
      </trkpt>
      <trkpt lat="43.1358166" lon="-2.8018712">
        <ele>208.205</ele>
        <time>2021-04-01T09:29:18.242Z</time>
      </trkpt>
      <trkpt lat="43.1358156" lon="-2.8018696">
        <ele>208.204</ele>
        <time>2021-04-01T09:29:18.300Z</time>
      </trkpt>
      <trkpt lat="43.1358143" lon="-2.8018685">
        <ele>208.254</ele>
        <time>2021-04-01T09:29:18.358Z</time>
      </trkpt>
      <trkpt lat="43.135813" lon="-2.8018672">
        <ele>208.255</ele>
        <time>2021-04-01T09:29:18.416Z</time>
      </trkpt>
      <trkpt lat="43.1358115" lon="-2.8018656">
        <ele>208.323</ele>
        <time>2021-04-01T09:29:18.474Z</time>
      </trkpt>
      <trkpt lat="43.1358103" lon="-2.8018646">
        <ele>208.302</ele>
        <time>2021-04-01T09:29:18.532Z</time>
      </trkpt>
      <trkpt lat="43.135809" lon="-2.8018636">
        <ele>208.32</ele>
        <time>2021-04-01T09:29:18.590Z</time>
      </trkpt>
      <trkpt lat="43.1358076" lon="-2.8018629">
        <ele>208.366</ele>
        <time>2021-04-01T09:29:18.649Z</time>
      </trkpt>
      <trkpt lat="43.1358063" lon="-2.8018622">
        <ele>208.371</ele>
        <time>2021-04-01T09:29:18.704Z</time>
      </trkpt>
      <trkpt lat="43.1358049" lon="-2.8018612">
        <ele>208.375</ele>
        <time>2021-04-01T09:29:18.759Z</time>
      </trkpt>
      <trkpt lat="43.1358035" lon="-2.8018602">
        <ele>208.358</ele>
        <time>2021-04-01T09:29:18.814Z</time>
      </trkpt>
      <trkpt lat="43.1358025" lon="-2.8018591">
        <ele>208.384</ele>
        <time>2021-04-01T09:29:18.869Z</time>
      </trkpt>
      <trkpt lat="43.1358012" lon="-2.8018587">
        <ele>208.372</ele>
        <time>2021-04-01T09:29:18.924Z</time>
      </trkpt>
      <trkpt lat="43.1358001" lon="-2.8018575">
        <ele>208.415</ele>
        <time>2021-04-01T09:29:18.979Z</time>
      </trkpt>
      <trkpt lat="43.1357989" lon="-2.8018565">
        <ele>208.413</ele>
        <time>2021-04-01T09:29:19.034Z</time>
      </trkpt>
      <trkpt lat="43.135798" lon="-2.8018554">
        <ele>208.382</ele>
        <time>2021-04-01T09:29:19.089Z</time>
      </trkpt>
      <trkpt lat="43.135797" lon="-2.8018542">
        <ele>208.376</ele>
        <time>2021-04-01T09:29:19.144Z</time>
      </trkpt>
      <trkpt lat="43.1357961" lon="-2.8018534">
        <ele>208.366</ele>
        <time>2021-04-01T09:29:19.199Z</time>
      </trkpt>
      <trkpt lat="43.1357949" lon="-2.8018527">
        <ele>208.355</ele>
        <time>2021-04-01T09:29:19.254Z</time>
      </trkpt>
      <trkpt lat="43.1357938" lon="-2.8018518">
        <ele>208.319</ele>
        <time>2021-04-01T09:29:19.309Z</time>
      </trkpt>
      <trkpt lat="43.1357929" lon="-2.8018506">
        <ele>208.296</ele>
        <time>2021-04-01T09:29:19.364Z</time>
      </trkpt>
      <trkpt lat="43.1357918" lon="-2.8018495">
        <ele>208.288</ele>
        <time>2021-04-01T09:29:19.419Z</time>
      </trkpt>
      <trkpt lat="43.1357907" lon="-2.8018483">
        <ele>208.345</ele>
        <time>2021-04-01T09:29:19.474Z</time>
      </trkpt>
      <trkpt lat="43.1357896" lon="-2.801847">
        <ele>208.364</ele>
        <time>2021-04-01T09:29:19.529Z</time>
      </trkpt>
      <trkpt lat="43.1357885" lon="-2.8018456">
        <ele>208.343</ele>
        <time>2021-04-01T09:29:19.584Z</time>
      </trkpt>
      <trkpt lat="43.1357871" lon="-2.8018449">
        <ele>208.38</ele>
        <time>2021-04-01T09:29:19.639Z</time>
      </trkpt>
      <trkpt lat="43.135786" lon="-2.8018437">
        <ele>208.397</ele>
        <time>2021-04-01T09:29:19.694Z</time>
      </trkpt>
      <trkpt lat="43.1357849" lon="-2.8018428">
        <ele>208.387</ele>
        <time>2021-04-01T09:29:19.749Z</time>
      </trkpt>
      <trkpt lat="43.1357836" lon="-2.8018419">
        <ele>208.401</ele>
        <time>2021-04-01T09:29:19.804Z</time>
      </trkpt>
      <trkpt lat="43.1357823" lon="-2.801841">
        <ele>208.409</ele>
        <time>2021-04-01T09:29:19.859Z</time>
      </trkpt>
      <trkpt lat="43.1357809" lon="-2.8018404">
        <ele>208.435</ele>
        <time>2021-04-01T09:29:19.914Z</time>
      </trkpt>
      <trkpt lat="43.1357798" lon="-2.8018393">
        <ele>208.43</ele>
        <time>2021-04-01T09:29:19.969Z</time>
      </trkpt>
      <trkpt lat="43.1357788" lon="-2.8018386">
        <ele>208.4</ele>
        <time>2021-04-01T09:29:20.024Z</time>
      </trkpt>
      <trkpt lat="43.1357776" lon="-2.8018378">
        <ele>208.381</ele>
        <time>2021-04-01T09:29:20.079Z</time>
      </trkpt>
      <trkpt lat="43.1357766" lon="-2.8018368">
        <ele>208.339</ele>
        <time>2021-04-01T09:29:20.134Z</time>
      </trkpt>
      <trkpt lat="43.1357758" lon="-2.801836">
        <ele>208.321</ele>
        <time>2021-04-01T09:29:20.189Z</time>
      </trkpt>
      <trkpt lat="43.1357749" lon="-2.8018351">
        <ele>208.332</ele>
        <time>2021-04-01T09:29:20.244Z</time>
      </trkpt>
      <trkpt lat="43.135774" lon="-2.8018343">
        <ele>208.308</ele>
        <time>2021-04-01T09:29:20.299Z</time>
      </trkpt>
      <trkpt lat="43.1357726" lon="-2.8018332">
        <ele>208.335</ele>
        <time>2021-04-01T09:29:20.354Z</time>
      </trkpt>
      <trkpt lat="43.1357712" lon="-2.8018315">
        <ele>208.451</ele>
        <time>2021-04-01T09:29:20.409Z</time>
      </trkpt>
      <trkpt lat="43.1357702" lon="-2.8018305">
        <ele>208.441</ele>
        <time>2021-04-01T09:29:20.464Z</time>
      </trkpt>
      <trkpt lat="43.1357691" lon="-2.8018295">
        <ele>208.439</ele>
        <time>2021-04-01T09:29:20.519Z</time>
      </trkpt>
      <trkpt lat="43.1357678" lon="-2.8018294">
        <ele>208.429</ele>
        <time>2021-04-01T09:29:20.574Z</time>
      </trkpt>
      <trkpt lat="43.1357665" lon="-2.8018287">
        <ele>208.415</ele>
        <time>2021-04-01T09:29:20.629Z</time>
      </trkpt>
      <trkpt lat="43.1357654" lon="-2.8018282">
        <ele>208.378</ele>
        <time>2021-04-01T09:29:20.681Z</time>
      </trkpt>
      <trkpt lat="43.1357644" lon="-2.8018272">
        <ele>208.388</ele>
        <time>2021-04-01T09:29:20.733Z</time>
      </trkpt>
      <trkpt lat="43.1357629" lon="-2.8018273">
        <ele>208.313</ele>
        <time>2021-04-01T09:29:20.785Z</time>
      </trkpt>
      <trkpt lat="43.1357615" lon="-2.8018265">
        <ele>208.311</ele>
        <time>2021-04-01T09:29:20.837Z</time>
      </trkpt>
      <trkpt lat="43.1357603" lon="-2.8018251">
        <ele>208.35</ele>
        <time>2021-04-01T09:29:20.889Z</time>
      </trkpt>
      <trkpt lat="43.1357588" lon="-2.8018245">
        <ele>208.396</ele>
        <time>2021-04-01T09:29:20.941Z</time>
      </trkpt>
      <trkpt lat="43.1357578" lon="-2.8018233">
        <ele>208.452</ele>
        <time>2021-04-01T09:29:20.993Z</time>
      </trkpt>
      <trkpt lat="43.1357568" lon="-2.8018223">
        <ele>208.459</ele>
        <time>2021-04-01T09:29:21.045Z</time>
      </trkpt>
      <trkpt lat="43.1357556" lon="-2.8018215">
        <ele>208.463</ele>
        <time>2021-04-01T09:29:21.097Z</time>
      </trkpt>
      <trkpt lat="43.1357544" lon="-2.8018207">
        <ele>208.458</ele>
        <time>2021-04-01T09:29:21.150Z</time>
      </trkpt>
      <trkpt lat="43.1357529" lon="-2.80182">
        <ele>208.498</ele>
        <time>2021-04-01T09:29:21.202Z</time>
      </trkpt>
      <trkpt lat="43.1357516" lon="-2.8018193">
        <ele>208.487</ele>
        <time>2021-04-01T09:29:21.254Z</time>
      </trkpt>
      <trkpt lat="43.1357505" lon="-2.8018185">
        <ele>208.481</ele>
        <time>2021-04-01T09:29:21.306Z</time>
      </trkpt>
      <trkpt lat="43.1357493" lon="-2.8018174">
        <ele>208.504</ele>
        <time>2021-04-01T09:29:21.358Z</time>
      </trkpt>
      <trkpt lat="43.1357479" lon="-2.8018169">
        <ele>208.526</ele>
        <time>2021-04-01T09:29:21.410Z</time>
      </trkpt>
      <trkpt lat="43.1357472" lon="-2.8018162">
        <ele>208.508</ele>
        <time>2021-04-01T09:29:21.462Z</time>
      </trkpt>
      <trkpt lat="43.1357459" lon="-2.8018157">
        <ele>208.496</ele>
        <time>2021-04-01T09:29:21.514Z</time>
      </trkpt>
      <trkpt lat="43.1357446" lon="-2.8018151">
        <ele>208.498</ele>
        <time>2021-04-01T09:29:21.566Z</time>
      </trkpt>
      <trkpt lat="43.1357435" lon="-2.8018148">
        <ele>208.45</ele>
        <time>2021-04-01T09:29:21.619Z</time>
      </trkpt>
      <trkpt lat="43.1357421" lon="-2.8018149">
        <ele>208.385</ele>
        <time>2021-04-01T09:29:21.677Z</time>
      </trkpt>
      <trkpt lat="43.1357414" lon="-2.8018132">
        <ele>208.459</ele>
        <time>2021-04-01T09:29:21.735Z</time>
      </trkpt>
      <trkpt lat="43.1357407" lon="-2.8018129">
        <ele>208.378</ele>
        <time>2021-04-01T09:29:21.793Z</time>
      </trkpt>
      <trkpt lat="43.1357393" lon="-2.8018124">
        <ele>208.399</ele>
        <time>2021-04-01T09:29:21.851Z</time>
      </trkpt>
      <trkpt lat="43.1357379" lon="-2.801812">
        <ele>208.416</ele>
        <time>2021-04-01T09:29:21.910Z</time>
      </trkpt>
      <trkpt lat="43.1357367" lon="-2.8018115">
        <ele>208.446</ele>
        <time>2021-04-01T09:29:21.968Z</time>
      </trkpt>
      <trkpt lat="43.1357356" lon="-2.8018109">
        <ele>208.459</ele>
        <time>2021-04-01T09:29:22.026Z</time>
      </trkpt>
      <trkpt lat="43.1357344" lon="-2.8018104">
        <ele>208.456</ele>
        <time>2021-04-01T09:29:22.084Z</time>
      </trkpt>
      <trkpt lat="43.1357333" lon="-2.80181">
        <ele>208.477</ele>
        <time>2021-04-01T09:29:22.143Z</time>
      </trkpt>
      <trkpt lat="43.1357316" lon="-2.8018094">
        <ele>208.563</ele>
        <time>2021-04-01T09:29:22.201Z</time>
      </trkpt>
      <trkpt lat="43.1357301" lon="-2.8018087">
        <ele>208.609</ele>
        <time>2021-04-01T09:29:22.259Z</time>
      </trkpt>
      <trkpt lat="43.1357288" lon="-2.8018085">
        <ele>208.6</ele>
        <time>2021-04-01T09:29:22.317Z</time>
      </trkpt>
      <trkpt lat="43.1357274" lon="-2.801809">
        <ele>208.532</ele>
        <time>2021-04-01T09:29:22.376Z</time>
      </trkpt>
      <trkpt lat="43.1357263" lon="-2.8018086">
        <ele>208.526</ele>
        <time>2021-04-01T09:29:22.434Z</time>
      </trkpt>
      <trkpt lat="43.1357249" lon="-2.8018083">
        <ele>208.576</ele>
        <time>2021-04-01T09:29:22.492Z</time>
      </trkpt>
      <trkpt lat="43.1357237" lon="-2.801808">
        <ele>208.59</ele>
        <time>2021-04-01T09:29:22.550Z</time>
      </trkpt>
      <trkpt lat="43.1357222" lon="-2.8018073">
        <ele>208.63</ele>
        <time>2021-04-01T09:29:22.609Z</time>
      </trkpt>
      <trkpt lat="43.1357209" lon="-2.8018066">
        <ele>208.675</ele>
        <time>2021-04-01T09:29:22.664Z</time>
      </trkpt>
      <trkpt lat="43.1357195" lon="-2.801806">
        <ele>208.741</ele>
        <time>2021-04-01T09:29:22.719Z</time>
      </trkpt>
      <trkpt lat="43.1357182" lon="-2.8018062">
        <ele>208.753</ele>
        <time>2021-04-01T09:29:22.774Z</time>
      </trkpt>
      <trkpt lat="43.1357167" lon="-2.8018059">
        <ele>208.806</ele>
        <time>2021-04-01T09:29:22.829Z</time>
      </trkpt>
      <trkpt lat="43.1357154" lon="-2.8018073">
        <ele>208.713</ele>
        <time>2021-04-01T09:29:22.884Z</time>
      </trkpt>
      <trkpt lat="43.1357139" lon="-2.8018063">
        <ele>208.813</ele>
        <time>2021-04-01T09:29:22.939Z</time>
      </trkpt>
      <trkpt lat="43.1357127" lon="-2.8018056">
        <ele>208.889</ele>
        <time>2021-04-01T09:29:22.994Z</time>
      </trkpt>
      <trkpt lat="43.1357114" lon="-2.8018056">
        <ele>208.936</ele>
        <time>2021-04-01T09:29:23.049Z</time>
      </trkpt>
      <trkpt lat="43.13571" lon="-2.8018053">
        <ele>209.024</ele>
        <time>2021-04-01T09:29:23.104Z</time>
      </trkpt>
      <trkpt lat="43.1357088" lon="-2.8018054">
        <ele>209.022</ele>
        <time>2021-04-01T09:29:23.159Z</time>
      </trkpt>
      <trkpt lat="43.1357075" lon="-2.8018052">
        <ele>209.048</ele>
        <time>2021-04-01T09:29:23.214Z</time>
      </trkpt>
      <trkpt lat="43.1357064" lon="-2.8018051">
        <ele>209.094</ele>
        <time>2021-04-01T09:29:23.269Z</time>
      </trkpt>
      <trkpt lat="43.1357054" lon="-2.8018053">
        <ele>209.057</ele>
        <time>2021-04-01T09:29:23.324Z</time>
      </trkpt>
      <trkpt lat="43.1357042" lon="-2.8018053">
        <ele>209.062</ele>
        <time>2021-04-01T09:29:23.379Z</time>
      </trkpt>
      <trkpt lat="43.1357027" lon="-2.8018052">
        <ele>209.102</ele>
        <time>2021-04-01T09:29:23.434Z</time>
      </trkpt>
      <trkpt lat="43.1357012" lon="-2.8018053">
        <ele>209.163</ele>
        <time>2021-04-01T09:29:23.489Z</time>
      </trkpt>
      <trkpt lat="43.1357" lon="-2.8018053">
        <ele>209.259</ele>
        <time>2021-04-01T09:29:23.544Z</time>
      </trkpt>
      <trkpt lat="43.1356989" lon="-2.8018061">
        <ele>209.196</ele>
        <time>2021-04-01T09:29:23.599Z</time>
      </trkpt>
      <trkpt lat="43.1356972" lon="-2.8018061">
        <ele>209.23</ele>
        <time>2021-04-01T09:29:23.654Z</time>
      </trkpt>
      <trkpt lat="43.1356956" lon="-2.8018056">
        <ele>209.317</ele>
        <time>2021-04-01T09:29:23.709Z</time>
      </trkpt>
      <trkpt lat="43.135694" lon="-2.8018052">
        <ele>209.373</ele>
        <time>2021-04-01T09:29:23.764Z</time>
      </trkpt>
      <trkpt lat="43.1356929" lon="-2.8018049">
        <ele>209.37</ele>
        <time>2021-04-01T09:29:23.819Z</time>
      </trkpt>
      <trkpt lat="43.1356917" lon="-2.801805">
        <ele>209.365</ele>
        <time>2021-04-01T09:29:23.874Z</time>
      </trkpt>
      <trkpt lat="43.1356903" lon="-2.8018053">
        <ele>209.369</ele>
        <time>2021-04-01T09:29:23.929Z</time>
      </trkpt>
      <trkpt lat="43.1356892" lon="-2.801805">
        <ele>209.374</ele>
        <time>2021-04-01T09:29:23.984Z</time>
      </trkpt>
      <trkpt lat="43.1356879" lon="-2.8018042">
        <ele>209.476</ele>
        <time>2021-04-01T09:29:24.039Z</time>
      </trkpt>
      <trkpt lat="43.1356865" lon="-2.8018038">
        <ele>209.534</ele>
        <time>2021-04-01T09:29:24.094Z</time>
      </trkpt>
      <trkpt lat="43.1356845" lon="-2.8018039">
        <ele>209.598</ele>
        <time>2021-04-01T09:29:24.149Z</time>
      </trkpt>
      <trkpt lat="43.1356827" lon="-2.8018043">
        <ele>209.703</ele>
        <time>2021-04-01T09:29:24.204Z</time>
      </trkpt>
      <trkpt lat="43.135681" lon="-2.8018039">
        <ele>209.817</ele>
        <time>2021-04-01T09:29:24.259Z</time>
      </trkpt>
      <trkpt lat="43.1356796" lon="-2.8018038">
        <ele>209.834</ele>
        <time>2021-04-01T09:29:24.314Z</time>
      </trkpt>
      <trkpt lat="43.1356781" lon="-2.8018037">
        <ele>209.863</ele>
        <time>2021-04-01T09:29:24.369Z</time>
      </trkpt>
      <trkpt lat="43.1356767" lon="-2.8018034">
        <ele>209.928</ele>
        <time>2021-04-01T09:29:24.424Z</time>
      </trkpt>
      <trkpt lat="43.1356754" lon="-2.8018032">
        <ele>210.008</ele>
        <time>2021-04-01T09:29:24.479Z</time>
      </trkpt>
      <trkpt lat="43.1356737" lon="-2.8018034">
        <ele>210.011</ele>
        <time>2021-04-01T09:29:24.534Z</time>
      </trkpt>
      <trkpt lat="43.1356726" lon="-2.8018032">
        <ele>210.04</ele>
        <time>2021-04-01T09:29:24.589Z</time>
      </trkpt>
      <trkpt lat="43.135671" lon="-2.8018033">
        <ele>210.079</ele>
        <time>2021-04-01T09:29:24.644Z</time>
      </trkpt>
      <trkpt lat="43.1356696" lon="-2.8018034">
        <ele>210.127</ele>
        <time>2021-04-01T09:29:24.699Z</time>
      </trkpt>
      <trkpt lat="43.135668" lon="-2.8018028">
        <ele>210.209</ele>
        <time>2021-04-01T09:29:24.754Z</time>
      </trkpt>
      <trkpt lat="43.1356668" lon="-2.8018026">
        <ele>210.244</ele>
        <time>2021-04-01T09:29:24.809Z</time>
      </trkpt>
      <trkpt lat="43.1356657" lon="-2.8018025">
        <ele>210.331</ele>
        <time>2021-04-01T09:29:24.864Z</time>
      </trkpt>
      <trkpt lat="43.1356646" lon="-2.8018028">
        <ele>210.445</ele>
        <time>2021-04-01T09:29:24.919Z</time>
      </trkpt>
      <trkpt lat="43.1356632" lon="-2.8018033">
        <ele>210.598</ele>
        <time>2021-04-01T09:29:24.974Z</time>
      </trkpt>
      <trkpt lat="43.1356617" lon="-2.8018035">
        <ele>210.654</ele>
        <time>2021-04-01T09:29:25.029Z</time>
      </trkpt>
      <trkpt lat="43.1356605" lon="-2.8018038">
        <ele>210.73</ele>
        <time>2021-04-01T09:29:25.084Z</time>
      </trkpt>
      <trkpt lat="43.1356595" lon="-2.8018041">
        <ele>210.79</ele>
        <time>2021-04-01T09:29:25.139Z</time>
      </trkpt>
      <trkpt lat="43.1356578" lon="-2.8018043">
        <ele>210.849</ele>
        <time>2021-04-01T09:29:25.194Z</time>
      </trkpt>
      <trkpt lat="43.1356566" lon="-2.801805">
        <ele>210.799</ele>
        <time>2021-04-01T09:29:25.249Z</time>
      </trkpt>
      <trkpt lat="43.1356553" lon="-2.8018052">
        <ele>210.817</ele>
        <time>2021-04-01T09:29:25.304Z</time>
      </trkpt>
      <trkpt lat="43.1356538" lon="-2.8018052">
        <ele>210.824</ele>
        <time>2021-04-01T09:29:25.359Z</time>
      </trkpt>
      <trkpt lat="43.1356527" lon="-2.8018052">
        <ele>210.832</ele>
        <time>2021-04-01T09:29:25.414Z</time>
      </trkpt>
      <trkpt lat="43.1356512" lon="-2.8018051">
        <ele>210.831</ele>
        <time>2021-04-01T09:29:25.469Z</time>
      </trkpt>
      <trkpt lat="43.1356497" lon="-2.8018049">
        <ele>210.813</ele>
        <time>2021-04-01T09:29:25.524Z</time>
      </trkpt>
      <trkpt lat="43.1356486" lon="-2.8018049">
        <ele>210.828</ele>
        <time>2021-04-01T09:29:25.579Z</time>
      </trkpt>
      <trkpt lat="43.1356472" lon="-2.8018049">
        <ele>210.862</ele>
        <time>2021-04-01T09:29:25.634Z</time>
      </trkpt>
      <trkpt lat="43.135646" lon="-2.8018046">
        <ele>210.91</ele>
        <time>2021-04-01T09:29:25.692Z</time>
      </trkpt>
      <trkpt lat="43.1356451" lon="-2.8018045">
        <ele>210.954</ele>
        <time>2021-04-01T09:29:25.750Z</time>
      </trkpt>
      <trkpt lat="43.1356439" lon="-2.8018046">
        <ele>210.962</ele>
        <time>2021-04-01T09:29:25.808Z</time>
      </trkpt>
      <trkpt lat="43.1356428" lon="-2.8018054">
        <ele>210.904</ele>
        <time>2021-04-01T09:29:25.866Z</time>
      </trkpt>
      <trkpt lat="43.1356415" lon="-2.8018057">
        <ele>210.897</ele>
        <time>2021-04-01T09:29:25.924Z</time>
      </trkpt>
      <trkpt lat="43.13564" lon="-2.8018052">
        <ele>210.908</ele>
        <time>2021-04-01T09:29:25.982Z</time>
      </trkpt>
      <trkpt lat="43.1356385" lon="-2.8018053">
        <ele>210.953</ele>
        <time>2021-04-01T09:29:26.040Z</time>
      </trkpt>
      <trkpt lat="43.1356374" lon="-2.8018059">
        <ele>210.999</ele>
        <time>2021-04-01T09:29:26.098Z</time>
      </trkpt>
      <trkpt lat="43.1356363" lon="-2.8018065">
        <ele>211.029</ele>
        <time>2021-04-01T09:29:26.156Z</time>
      </trkpt>
      <trkpt lat="43.1356357" lon="-2.8018065">
        <ele>211.065</ele>
        <time>2021-04-01T09:29:26.214Z</time>
      </trkpt>
      <trkpt lat="43.1356345" lon="-2.8018062">
        <ele>211.05</ele>
        <time>2021-04-01T09:29:26.272Z</time>
      </trkpt>
      <trkpt lat="43.1356336" lon="-2.8018068">
        <ele>211.113</ele>
        <time>2021-04-01T09:29:26.330Z</time>
      </trkpt>
      <trkpt lat="43.1356323" lon="-2.8018065">
        <ele>211.187</ele>
        <time>2021-04-01T09:29:26.388Z</time>
      </trkpt>
      <trkpt lat="43.1356309" lon="-2.8018066">
        <ele>211.228</ele>
        <time>2021-04-01T09:29:26.446Z</time>
      </trkpt>
      <trkpt lat="43.1356299" lon="-2.8018066">
        <ele>211.206</ele>
        <time>2021-04-01T09:29:26.504Z</time>
      </trkpt>
      <trkpt lat="43.1356285" lon="-2.8018068">
        <ele>211.224</ele>
        <time>2021-04-01T09:29:26.562Z</time>
      </trkpt>
      <trkpt lat="43.1356271" lon="-2.801807">
        <ele>211.262</ele>
        <time>2021-04-01T09:29:26.620Z</time>
      </trkpt>
      <trkpt lat="43.1356256" lon="-2.8018074">
        <ele>211.319</ele>
        <time>2021-04-01T09:29:26.679Z</time>
      </trkpt>
      <trkpt lat="43.1356243" lon="-2.8018076">
        <ele>211.308</ele>
        <time>2021-04-01T09:29:26.730Z</time>
      </trkpt>
      <trkpt lat="43.1356233" lon="-2.8018073">
        <ele>211.267</ele>
        <time>2021-04-01T09:29:26.782Z</time>
      </trkpt>
      <trkpt lat="43.1356219" lon="-2.8018071">
        <ele>211.218</ele>
        <time>2021-04-01T09:29:26.834Z</time>
      </trkpt>
      <trkpt lat="43.1356205" lon="-2.8018072">
        <ele>211.2</ele>
        <time>2021-04-01T09:29:26.886Z</time>
      </trkpt>
      <trkpt lat="43.1356194" lon="-2.8018071">
        <ele>211.224</ele>
        <time>2021-04-01T09:29:26.938Z</time>
      </trkpt>
      <trkpt lat="43.1356178" lon="-2.8018074">
        <ele>211.279</ele>
        <time>2021-04-01T09:29:26.990Z</time>
      </trkpt>
      <trkpt lat="43.1356165" lon="-2.8018074">
        <ele>211.352</ele>
        <time>2021-04-01T09:29:27.042Z</time>
      </trkpt>
      <trkpt lat="43.1356152" lon="-2.8018078">
        <ele>211.442</ele>
        <time>2021-04-01T09:29:27.094Z</time>
      </trkpt>
      <trkpt lat="43.1356138" lon="-2.8018077">
        <ele>211.475</ele>
        <time>2021-04-01T09:29:27.146Z</time>
      </trkpt>
      <trkpt lat="43.1356124" lon="-2.8018078">
        <ele>211.503</ele>
        <time>2021-04-01T09:29:27.198Z</time>
      </trkpt>
      <trkpt lat="43.1356108" lon="-2.8018077">
        <ele>211.521</ele>
        <time>2021-04-01T09:29:27.250Z</time>
      </trkpt>
      <trkpt lat="43.1356091" lon="-2.8018073">
        <ele>211.569</ele>
        <time>2021-04-01T09:29:27.302Z</time>
      </trkpt>
      <trkpt lat="43.1356077" lon="-2.8018074">
        <ele>211.598</ele>
        <time>2021-04-01T09:29:27.354Z</time>
      </trkpt>
      <trkpt lat="43.1356067" lon="-2.8018077">
        <ele>211.571</ele>
        <time>2021-04-01T09:29:27.406Z</time>
      </trkpt>
      <trkpt lat="43.1356053" lon="-2.801807">
        <ele>211.604</ele>
        <time>2021-04-01T09:29:27.458Z</time>
      </trkpt>
      <trkpt lat="43.1356037" lon="-2.8018064">
        <ele>211.729</ele>
        <time>2021-04-01T09:29:27.510Z</time>
      </trkpt>
      <trkpt lat="43.1356025" lon="-2.8018063">
        <ele>211.783</ele>
        <time>2021-04-01T09:29:27.562Z</time>
      </trkpt>
      <trkpt lat="43.1356011" lon="-2.8018066">
        <ele>211.797</ele>
        <time>2021-04-01T09:29:27.614Z</time>
      </trkpt>
      <trkpt lat="43.1355997" lon="-2.8018069">
        <ele>211.772</ele>
        <time>2021-04-01T09:29:27.669Z</time>
      </trkpt>
      <trkpt lat="43.1355979" lon="-2.8018067">
        <ele>211.858</ele>
        <time>2021-04-01T09:29:27.724Z</time>
      </trkpt>
      <trkpt lat="43.1355965" lon="-2.8018066">
        <ele>211.901</ele>
        <time>2021-04-01T09:29:27.779Z</time>
      </trkpt>
      <trkpt lat="43.1355953" lon="-2.8018061">
        <ele>211.989</ele>
        <time>2021-04-01T09:29:27.834Z</time>
      </trkpt>
      <trkpt lat="43.1355936" lon="-2.8018062">
        <ele>212.014</ele>
        <time>2021-04-01T09:29:27.889Z</time>
      </trkpt>
      <trkpt lat="43.1355922" lon="-2.8018059">
        <ele>212.08</ele>
        <time>2021-04-01T09:29:27.944Z</time>
      </trkpt>
      <trkpt lat="43.1355907" lon="-2.801806">
        <ele>212.105</ele>
        <time>2021-04-01T09:29:27.999Z</time>
      </trkpt>
      <trkpt lat="43.1355894" lon="-2.8018064">
        <ele>212.117</ele>
        <time>2021-04-01T09:29:28.054Z</time>
      </trkpt>
      <trkpt lat="43.1355883" lon="-2.8018065">
        <ele>212.139</ele>
        <time>2021-04-01T09:29:28.109Z</time>
      </trkpt>
      <trkpt lat="43.135587" lon="-2.8018064">
        <ele>212.133</ele>
        <time>2021-04-01T09:29:28.164Z</time>
      </trkpt>
      <trkpt lat="43.1355858" lon="-2.8018061">
        <ele>212.101</ele>
        <time>2021-04-01T09:29:28.219Z</time>
      </trkpt>
      <trkpt lat="43.1355847" lon="-2.8018064">
        <ele>212.106</ele>
        <time>2021-04-01T09:29:28.274Z</time>
      </trkpt>
      <trkpt lat="43.1355836" lon="-2.8018064">
        <ele>212.131</ele>
        <time>2021-04-01T09:29:28.329Z</time>
      </trkpt>
      <trkpt lat="43.1355818" lon="-2.801806">
        <ele>212.223</ele>
        <time>2021-04-01T09:29:28.384Z</time>
      </trkpt>
      <trkpt lat="43.13558" lon="-2.8018061">
        <ele>212.268</ele>
        <time>2021-04-01T09:29:28.439Z</time>
      </trkpt>
      <trkpt lat="43.1355789" lon="-2.8018063">
        <ele>212.287</ele>
        <time>2021-04-01T09:29:28.494Z</time>
      </trkpt>
      <trkpt lat="43.1355776" lon="-2.8018067">
        <ele>212.285</ele>
        <time>2021-04-01T09:29:28.549Z</time>
      </trkpt>
      <trkpt lat="43.135576" lon="-2.8018069">
        <ele>212.356</ele>
        <time>2021-04-01T09:29:28.604Z</time>
      </trkpt>
      <trkpt lat="43.135574" lon="-2.8018068">
        <ele>212.421</ele>
        <time>2021-04-01T09:29:28.659Z</time>
      </trkpt>
      <trkpt lat="43.1355724" lon="-2.8018073">
        <ele>212.44</ele>
        <time>2021-04-01T09:29:28.714Z</time>
      </trkpt>
      <trkpt lat="43.1355708" lon="-2.8018072">
        <ele>212.549</ele>
        <time>2021-04-01T09:29:28.769Z</time>
      </trkpt>
      <trkpt lat="43.1355695" lon="-2.8018069">
        <ele>212.578</ele>
        <time>2021-04-01T09:29:28.824Z</time>
      </trkpt>
      <trkpt lat="43.135568" lon="-2.801807">
        <ele>212.561</ele>
        <time>2021-04-01T09:29:28.879Z</time>
      </trkpt>
      <trkpt lat="43.1355666" lon="-2.8018073">
        <ele>212.584</ele>
        <time>2021-04-01T09:29:28.934Z</time>
      </trkpt>
      <trkpt lat="43.1355653" lon="-2.8018079">
        <ele>212.591</ele>
        <time>2021-04-01T09:29:28.989Z</time>
      </trkpt>
      <trkpt lat="43.1355637" lon="-2.8018077">
        <ele>212.609</ele>
        <time>2021-04-01T09:29:29.044Z</time>
      </trkpt>
      <trkpt lat="43.1355624" lon="-2.8018079">
        <ele>212.664</ele>
        <time>2021-04-01T09:29:29.099Z</time>
      </trkpt>
      <trkpt lat="43.135561" lon="-2.8018085">
        <ele>212.759</ele>
        <time>2021-04-01T09:29:29.154Z</time>
      </trkpt>
      <trkpt lat="43.1355596" lon="-2.8018092">
        <ele>212.794</ele>
        <time>2021-04-01T09:29:29.209Z</time>
      </trkpt>
      <trkpt lat="43.1355582" lon="-2.8018098">
        <ele>212.859</ele>
        <time>2021-04-01T09:29:29.264Z</time>
      </trkpt>
      <trkpt lat="43.1355568" lon="-2.8018099">
        <ele>212.915</ele>
        <time>2021-04-01T09:29:29.319Z</time>
      </trkpt>
      <trkpt lat="43.1355554" lon="-2.8018102">
        <ele>212.94</ele>
        <time>2021-04-01T09:29:29.374Z</time>
      </trkpt>
      <trkpt lat="43.1355542" lon="-2.8018104">
        <ele>212.963</ele>
        <time>2021-04-01T09:29:29.429Z</time>
      </trkpt>
      <trkpt lat="43.1355527" lon="-2.8018105">
        <ele>213.054</ele>
        <time>2021-04-01T09:29:29.484Z</time>
      </trkpt>
      <trkpt lat="43.1355518" lon="-2.8018108">
        <ele>213.066</ele>
        <time>2021-04-01T09:29:29.539Z</time>
      </trkpt>
      <trkpt lat="43.1355506" lon="-2.801811">
        <ele>213.015</ele>
        <time>2021-04-01T09:29:29.594Z</time>
      </trkpt>
      <trkpt lat="43.1355493" lon="-2.8018116">
        <ele>213.029</ele>
        <time>2021-04-01T09:29:29.649Z</time>
      </trkpt>
      <trkpt lat="43.1355479" lon="-2.801812">
        <ele>213.059</ele>
        <time>2021-04-01T09:29:29.704Z</time>
      </trkpt>
      <trkpt lat="43.1355468" lon="-2.8018124">
        <ele>213.049</ele>
        <time>2021-04-01T09:29:29.759Z</time>
      </trkpt>
      <trkpt lat="43.1355455" lon="-2.8018127">
        <ele>213.106</ele>
        <time>2021-04-01T09:29:29.814Z</time>
      </trkpt>
      <trkpt lat="43.1355445" lon="-2.801813">
        <ele>213.126</ele>
        <time>2021-04-01T09:29:29.869Z</time>
      </trkpt>
      <trkpt lat="43.1355435" lon="-2.8018139">
        <ele>213.138</ele>
        <time>2021-04-01T09:29:29.924Z</time>
      </trkpt>
      <trkpt lat="43.1355424" lon="-2.8018145">
        <ele>213.159</ele>
        <time>2021-04-01T09:29:29.979Z</time>
      </trkpt>
      <trkpt lat="43.1355413" lon="-2.8018154">
        <ele>213.114</ele>
        <time>2021-04-01T09:29:30.034Z</time>
      </trkpt>
      <trkpt lat="43.1355402" lon="-2.8018155">
        <ele>213.154</ele>
        <time>2021-04-01T09:29:30.089Z</time>
      </trkpt>
      <trkpt lat="43.1355388" lon="-2.8018158">
        <ele>213.115</ele>
        <time>2021-04-01T09:29:30.144Z</time>
      </trkpt>
      <trkpt lat="43.1355374" lon="-2.8018161">
        <ele>213.123</ele>
        <time>2021-04-01T09:29:30.199Z</time>
      </trkpt>
      <trkpt lat="43.1355359" lon="-2.8018166">
        <ele>213.193</ele>
        <time>2021-04-01T09:29:30.254Z</time>
      </trkpt>
      <trkpt lat="43.1355346" lon="-2.8018172">
        <ele>213.255</ele>
        <time>2021-04-01T09:29:30.309Z</time>
      </trkpt>
      <trkpt lat="43.1355333" lon="-2.8018175">
        <ele>213.288</ele>
        <time>2021-04-01T09:29:30.364Z</time>
      </trkpt>
      <trkpt lat="43.1355323" lon="-2.8018178">
        <ele>213.316</ele>
        <time>2021-04-01T09:29:30.419Z</time>
      </trkpt>
      <trkpt lat="43.1355311" lon="-2.8018179">
        <ele>213.376</ele>
        <time>2021-04-01T09:29:30.474Z</time>
      </trkpt>
      <trkpt lat="43.1355299" lon="-2.8018185">
        <ele>213.415</ele>
        <time>2021-04-01T09:29:30.529Z</time>
      </trkpt>
      <trkpt lat="43.1355287" lon="-2.8018191">
        <ele>213.438</ele>
        <time>2021-04-01T09:29:30.584Z</time>
      </trkpt>
      <trkpt lat="43.1355277" lon="-2.8018198">
        <ele>213.429</ele>
        <time>2021-04-01T09:29:30.639Z</time>
      </trkpt>
      <trkpt lat="43.1355264" lon="-2.8018202">
        <ele>213.433</ele>
        <time>2021-04-01T09:29:30.697Z</time>
      </trkpt>
      <trkpt lat="43.1355253" lon="-2.8018208">
        <ele>213.426</ele>
        <time>2021-04-01T09:29:30.755Z</time>
      </trkpt>
      <trkpt lat="43.1355242" lon="-2.8018212">
        <ele>213.409</ele>
        <time>2021-04-01T09:29:30.813Z</time>
      </trkpt>
      <trkpt lat="43.1355231" lon="-2.8018212">
        <ele>213.356</ele>
        <time>2021-04-01T09:29:30.871Z</time>
      </trkpt>
      <trkpt lat="43.1355222" lon="-2.8018217">
        <ele>213.373</ele>
        <time>2021-04-01T09:29:30.929Z</time>
      </trkpt>
      <trkpt lat="43.1355211" lon="-2.8018225">
        <ele>213.375</ele>
        <time>2021-04-01T09:29:30.987Z</time>
      </trkpt>
      <trkpt lat="43.1355198" lon="-2.8018227">
        <ele>213.45</ele>
        <time>2021-04-01T09:29:31.045Z</time>
      </trkpt>
      <trkpt lat="43.1355187" lon="-2.801823">
        <ele>213.545</ele>
        <time>2021-04-01T09:29:31.103Z</time>
      </trkpt>
      <trkpt lat="43.1355173" lon="-2.801823">
        <ele>213.613</ele>
        <time>2021-04-01T09:29:31.161Z</time>
      </trkpt>
      <trkpt lat="43.1355162" lon="-2.801824">
        <ele>213.589</ele>
        <time>2021-04-01T09:29:31.219Z</time>
      </trkpt>
      <trkpt lat="43.1355152" lon="-2.8018241">
        <ele>213.558</ele>
        <time>2021-04-01T09:29:31.277Z</time>
      </trkpt>
      <trkpt lat="43.1355139" lon="-2.8018239">
        <ele>213.551</ele>
        <time>2021-04-01T09:29:31.335Z</time>
      </trkpt>
      <trkpt lat="43.1355126" lon="-2.8018241">
        <ele>213.548</ele>
        <time>2021-04-01T09:29:31.393Z</time>
      </trkpt>
      <trkpt lat="43.1355115" lon="-2.8018246">
        <ele>213.543</ele>
        <time>2021-04-01T09:29:31.451Z</time>
      </trkpt>
      <trkpt lat="43.1355105" lon="-2.8018252">
        <ele>213.539</ele>
        <time>2021-04-01T09:29:31.509Z</time>
      </trkpt>
      <trkpt lat="43.1355094" lon="-2.8018253">
        <ele>213.447</ele>
        <time>2021-04-01T09:29:31.567Z</time>
      </trkpt>
      <trkpt lat="43.1355084" lon="-2.8018258">
        <ele>213.369</ele>
        <time>2021-04-01T09:29:31.625Z</time>
      </trkpt>
      <trkpt lat="43.1355074" lon="-2.8018264">
        <ele>213.355</ele>
        <time>2021-04-01T09:29:31.684Z</time>
      </trkpt>
      <trkpt lat="43.1355065" lon="-2.8018274">
        <ele>213.309</ele>
        <time>2021-04-01T09:29:31.735Z</time>
      </trkpt>
      <trkpt lat="43.135505" lon="-2.8018281">
        <ele>213.293</ele>
        <time>2021-04-01T09:29:31.787Z</time>
      </trkpt>
      <trkpt lat="43.1355038" lon="-2.8018284">
        <ele>213.33</ele>
        <time>2021-04-01T09:29:31.839Z</time>
      </trkpt>
      <trkpt lat="43.1355028" lon="-2.8018292">
        <ele>213.267</ele>
        <time>2021-04-01T09:29:31.891Z</time>
      </trkpt>
      <trkpt lat="43.1355018" lon="-2.8018296">
        <ele>213.253</ele>
        <time>2021-04-01T09:29:31.943Z</time>
      </trkpt>
      <trkpt lat="43.1355007" lon="-2.8018303">
        <ele>213.268</ele>
        <time>2021-04-01T09:29:31.995Z</time>
      </trkpt>
      <trkpt lat="43.1354995" lon="-2.8018307">
        <ele>213.281</ele>
        <time>2021-04-01T09:29:32.047Z</time>
      </trkpt>
      <trkpt lat="43.1354983" lon="-2.8018309">
        <ele>213.312</ele>
        <time>2021-04-01T09:29:32.099Z</time>
      </trkpt>
      <trkpt lat="43.1354971" lon="-2.8018313">
        <ele>213.349</ele>
        <time>2021-04-01T09:29:32.151Z</time>
      </trkpt>
      <trkpt lat="43.1354959" lon="-2.8018316">
        <ele>213.352</ele>
        <time>2021-04-01T09:29:32.203Z</time>
      </trkpt>
      <trkpt lat="43.135495" lon="-2.8018325">
        <ele>213.359</ele>
        <time>2021-04-01T09:29:32.255Z</time>
      </trkpt>
      <trkpt lat="43.1354939" lon="-2.8018332">
        <ele>213.352</ele>
        <time>2021-04-01T09:29:32.307Z</time>
      </trkpt>
      <trkpt lat="43.1354929" lon="-2.8018339">
        <ele>213.326</ele>
        <time>2021-04-01T09:29:32.359Z</time>
      </trkpt>
      <trkpt lat="43.1354916" lon="-2.8018343">
        <ele>213.337</ele>
        <time>2021-04-01T09:29:32.411Z</time>
      </trkpt>
      <trkpt lat="43.1354903" lon="-2.8018348">
        <ele>213.432</ele>
        <time>2021-04-01T09:29:32.463Z</time>
      </trkpt>
      <trkpt lat="43.1354891" lon="-2.8018351">
        <ele>213.46</ele>
        <time>2021-04-01T09:29:32.515Z</time>
      </trkpt>
      <trkpt lat="43.1354877" lon="-2.8018358">
        <ele>213.479</ele>
        <time>2021-04-01T09:29:32.567Z</time>
      </trkpt>
      <trkpt lat="43.1354863" lon="-2.8018362">
        <ele>213.557</ele>
        <time>2021-04-01T09:29:32.619Z</time>
      </trkpt>
      <trkpt lat="43.1354851" lon="-2.8018365">
        <ele>213.593</ele>
        <time>2021-04-01T09:29:32.671Z</time>
      </trkpt>
      <trkpt lat="43.135484" lon="-2.8018371">
        <ele>213.586</ele>
        <time>2021-04-01T09:29:32.723Z</time>
      </trkpt>
      <trkpt lat="43.1354826" lon="-2.8018376">
        <ele>213.684</ele>
        <time>2021-04-01T09:29:32.775Z</time>
      </trkpt>
      <trkpt lat="43.1354817" lon="-2.8018378">
        <ele>213.645</ele>
        <time>2021-04-01T09:29:32.827Z</time>
      </trkpt>
      <trkpt lat="43.1354805" lon="-2.8018384">
        <ele>213.662</ele>
        <time>2021-04-01T09:29:32.879Z</time>
      </trkpt>
      <trkpt lat="43.1354794" lon="-2.8018387">
        <ele>213.72</ele>
        <time>2021-04-01T09:29:32.931Z</time>
      </trkpt>
      <trkpt lat="43.1354781" lon="-2.8018391">
        <ele>213.783</ele>
        <time>2021-04-01T09:29:32.983Z</time>
      </trkpt>
      <trkpt lat="43.1354769" lon="-2.8018397">
        <ele>213.844</ele>
        <time>2021-04-01T09:29:33.035Z</time>
      </trkpt>
      <trkpt lat="43.1354759" lon="-2.80184">
        <ele>213.884</ele>
        <time>2021-04-01T09:29:33.087Z</time>
      </trkpt>
      <trkpt lat="43.1354745" lon="-2.8018399">
        <ele>214.005</ele>
        <time>2021-04-01T09:29:33.140Z</time>
      </trkpt>
      <trkpt lat="43.1354734" lon="-2.8018405">
        <ele>214.088</ele>
        <time>2021-04-01T09:29:33.192Z</time>
      </trkpt>
      <trkpt lat="43.1354719" lon="-2.8018407">
        <ele>214.155</ele>
        <time>2021-04-01T09:29:33.244Z</time>
      </trkpt>
      <trkpt lat="43.1354706" lon="-2.8018408">
        <ele>214.183</ele>
        <time>2021-04-01T09:29:33.296Z</time>
      </trkpt>
      <trkpt lat="43.1354693" lon="-2.8018413">
        <ele>214.21</ele>
        <time>2021-04-01T09:29:33.348Z</time>
      </trkpt>
      <trkpt lat="43.1354678" lon="-2.8018415">
        <ele>214.31</ele>
        <time>2021-04-01T09:29:33.400Z</time>
      </trkpt>
      <trkpt lat="43.1354668" lon="-2.8018421">
        <ele>214.395</ele>
        <time>2021-04-01T09:29:33.452Z</time>
      </trkpt>
      <trkpt lat="43.1354658" lon="-2.8018423">
        <ele>214.377</ele>
        <time>2021-04-01T09:29:33.504Z</time>
      </trkpt>
      <trkpt lat="43.1354647" lon="-2.8018428">
        <ele>214.336</ele>
        <time>2021-04-01T09:29:33.556Z</time>
      </trkpt>
      <trkpt lat="43.1354637" lon="-2.8018432">
        <ele>214.362</ele>
        <time>2021-04-01T09:29:33.609Z</time>
      </trkpt>
      <trkpt lat="43.1354626" lon="-2.801844">
        <ele>214.394</ele>
        <time>2021-04-01T09:29:33.667Z</time>
      </trkpt>
      <trkpt lat="43.1354617" lon="-2.8018448">
        <ele>214.409</ele>
        <time>2021-04-01T09:29:33.725Z</time>
      </trkpt>
      <trkpt lat="43.1354605" lon="-2.8018454">
        <ele>214.452</ele>
        <time>2021-04-01T09:29:33.783Z</time>
      </trkpt>
      <trkpt lat="43.1354592" lon="-2.801846">
        <ele>214.464</ele>
        <time>2021-04-01T09:29:33.841Z</time>
      </trkpt>
      <trkpt lat="43.1354581" lon="-2.8018465">
        <ele>214.504</ele>
        <time>2021-04-01T09:29:33.899Z</time>
      </trkpt>
      <trkpt lat="43.1354572" lon="-2.8018471">
        <ele>214.55</ele>
        <time>2021-04-01T09:29:33.957Z</time>
      </trkpt>
      <trkpt lat="43.1354559" lon="-2.8018479">
        <ele>214.612</ele>
        <time>2021-04-01T09:29:34.015Z</time>
      </trkpt>
      <trkpt lat="43.1354548" lon="-2.8018487">
        <ele>214.606</ele>
        <time>2021-04-01T09:29:34.073Z</time>
      </trkpt>
      <trkpt lat="43.1354534" lon="-2.8018494">
        <ele>214.644</ele>
        <time>2021-04-01T09:29:34.131Z</time>
      </trkpt>
      <trkpt lat="43.1354522" lon="-2.80185">
        <ele>214.651</ele>
        <time>2021-04-01T09:29:34.189Z</time>
      </trkpt>
      <trkpt lat="43.135451" lon="-2.8018508">
        <ele>214.69</ele>
        <time>2021-04-01T09:29:34.247Z</time>
      </trkpt>
      <trkpt lat="43.1354499" lon="-2.801852">
        <ele>214.723</ele>
        <time>2021-04-01T09:29:34.305Z</time>
      </trkpt>
      <trkpt lat="43.1354487" lon="-2.801853">
        <ele>214.742</ele>
        <time>2021-04-01T09:29:34.363Z</time>
      </trkpt>
      <trkpt lat="43.1354476" lon="-2.801854">
        <ele>214.794</ele>
        <time>2021-04-01T09:29:34.421Z</time>
      </trkpt>
      <trkpt lat="43.1354461" lon="-2.8018547">
        <ele>214.833</ele>
        <time>2021-04-01T09:29:34.479Z</time>
      </trkpt>
      <trkpt lat="43.1354452" lon="-2.8018559">
        <ele>214.843</ele>
        <time>2021-04-01T09:29:34.537Z</time>
      </trkpt>
      <trkpt lat="43.1354436" lon="-2.8018569">
        <ele>214.947</ele>
        <time>2021-04-01T09:29:34.595Z</time>
      </trkpt>
      <trkpt lat="43.1354416" lon="-2.8018577">
        <ele>215.103</ele>
        <time>2021-04-01T09:29:34.654Z</time>
      </trkpt>
      <trkpt lat="43.1354404" lon="-2.8018591">
        <ele>215.159</ele>
        <time>2021-04-01T09:29:34.709Z</time>
      </trkpt>
      <trkpt lat="43.1354386" lon="-2.8018602">
        <ele>215.219</ele>
        <time>2021-04-01T09:29:34.764Z</time>
      </trkpt>
      <trkpt lat="43.1354369" lon="-2.8018613">
        <ele>215.362</ele>
        <time>2021-04-01T09:29:34.819Z</time>
      </trkpt>
      <trkpt lat="43.1354354" lon="-2.8018622">
        <ele>215.415</ele>
        <time>2021-04-01T09:29:34.874Z</time>
      </trkpt>
      <trkpt lat="43.135434" lon="-2.801863">
        <ele>215.415</ele>
        <time>2021-04-01T09:29:34.929Z</time>
      </trkpt>
      <trkpt lat="43.1354329" lon="-2.8018639">
        <ele>215.476</ele>
        <time>2021-04-01T09:29:34.984Z</time>
      </trkpt>
      <trkpt lat="43.1354317" lon="-2.8018649">
        <ele>215.503</ele>
        <time>2021-04-01T09:29:35.039Z</time>
      </trkpt>
      <trkpt lat="43.1354305" lon="-2.8018655">
        <ele>215.486</ele>
        <time>2021-04-01T09:29:35.094Z</time>
      </trkpt>
      <trkpt lat="43.1354291" lon="-2.8018661">
        <ele>215.502</ele>
        <time>2021-04-01T09:29:35.149Z</time>
      </trkpt>
      <trkpt lat="43.135428" lon="-2.8018669">
        <ele>215.519</ele>
        <time>2021-04-01T09:29:35.204Z</time>
      </trkpt>
      <trkpt lat="43.1354268" lon="-2.8018676">
        <ele>215.539</ele>
        <time>2021-04-01T09:29:35.259Z</time>
      </trkpt>
      <trkpt lat="43.1354255" lon="-2.8018687">
        <ele>215.557</ele>
        <time>2021-04-01T09:29:35.314Z</time>
      </trkpt>
      <trkpt lat="43.1354242" lon="-2.8018696">
        <ele>215.593</ele>
        <time>2021-04-01T09:29:35.369Z</time>
      </trkpt>
      <trkpt lat="43.135423" lon="-2.8018702">
        <ele>215.615</ele>
        <time>2021-04-01T09:29:35.424Z</time>
      </trkpt>
      <trkpt lat="43.1354217" lon="-2.8018707">
        <ele>215.585</ele>
        <time>2021-04-01T09:29:35.479Z</time>
      </trkpt>
      <trkpt lat="43.1354204" lon="-2.801871">
        <ele>215.623</ele>
        <time>2021-04-01T09:29:35.534Z</time>
      </trkpt>
      <trkpt lat="43.1354191" lon="-2.8018716">
        <ele>215.677</ele>
        <time>2021-04-01T09:29:35.589Z</time>
      </trkpt>
      <trkpt lat="43.1354178" lon="-2.8018719">
        <ele>215.697</ele>
        <time>2021-04-01T09:29:35.644Z</time>
      </trkpt>
      <trkpt lat="43.1354166" lon="-2.8018725">
        <ele>215.712</ele>
        <time>2021-04-01T09:29:35.696Z</time>
      </trkpt>
      <trkpt lat="43.1354151" lon="-2.8018732">
        <ele>215.77</ele>
        <time>2021-04-01T09:29:35.748Z</time>
      </trkpt>
      <trkpt lat="43.1354134" lon="-2.8018737">
        <ele>215.824</ele>
        <time>2021-04-01T09:29:35.800Z</time>
      </trkpt>
      <trkpt lat="43.135412" lon="-2.8018745">
        <ele>215.878</ele>
        <time>2021-04-01T09:29:35.852Z</time>
      </trkpt>
      <trkpt lat="43.1354107" lon="-2.8018754">
        <ele>215.908</ele>
        <time>2021-04-01T09:29:35.904Z</time>
      </trkpt>
      <trkpt lat="43.1354097" lon="-2.801876">
        <ele>215.903</ele>
        <time>2021-04-01T09:29:35.956Z</time>
      </trkpt>
      <trkpt lat="43.135408" lon="-2.8018765">
        <ele>215.989</ele>
        <time>2021-04-01T09:29:36.008Z</time>
      </trkpt>
      <trkpt lat="43.1354066" lon="-2.8018771">
        <ele>216.029</ele>
        <time>2021-04-01T09:29:36.060Z</time>
      </trkpt>
      <trkpt lat="43.1354052" lon="-2.8018776">
        <ele>216.065</ele>
        <time>2021-04-01T09:29:36.112Z</time>
      </trkpt>
      <trkpt lat="43.1354045" lon="-2.8018783">
        <ele>216.05</ele>
        <time>2021-04-01T09:29:36.165Z</time>
      </trkpt>
      <trkpt lat="43.1354033" lon="-2.8018789">
        <ele>216.029</ele>
        <time>2021-04-01T09:29:36.217Z</time>
      </trkpt>
      <trkpt lat="43.1354019" lon="-2.8018796">
        <ele>216.066</ele>
        <time>2021-04-01T09:29:36.269Z</time>
      </trkpt>
      <trkpt lat="43.1354005" lon="-2.8018803">
        <ele>216.122</ele>
        <time>2021-04-01T09:29:36.321Z</time>
      </trkpt>
      <trkpt lat="43.1353989" lon="-2.8018808">
        <ele>216.164</ele>
        <time>2021-04-01T09:29:36.373Z</time>
      </trkpt>
      <trkpt lat="43.1353976" lon="-2.8018811">
        <ele>216.167</ele>
        <time>2021-04-01T09:29:36.425Z</time>
      </trkpt>
      <trkpt lat="43.1353964" lon="-2.8018817">
        <ele>216.173</ele>
        <time>2021-04-01T09:29:36.477Z</time>
      </trkpt>
      <trkpt lat="43.1353952" lon="-2.801882">
        <ele>216.191</ele>
        <time>2021-04-01T09:29:36.529Z</time>
      </trkpt>
      <trkpt lat="43.1353938" lon="-2.8018822">
        <ele>216.18</ele>
        <time>2021-04-01T09:29:36.581Z</time>
      </trkpt>
      <trkpt lat="43.1353928" lon="-2.8018828">
        <ele>216.156</ele>
        <time>2021-04-01T09:29:36.634Z</time>
      </trkpt>
      <trkpt lat="43.1353919" lon="-2.8018835">
        <ele>216.12</ele>
        <time>2021-04-01T09:29:36.695Z</time>
      </trkpt>
      <trkpt lat="43.135391" lon="-2.8018843">
        <ele>216.075</ele>
        <time>2021-04-01T09:29:36.756Z</time>
      </trkpt>
      <trkpt lat="43.1353899" lon="-2.801885">
        <ele>216.067</ele>
        <time>2021-04-01T09:29:36.818Z</time>
      </trkpt>
      <trkpt lat="43.1353884" lon="-2.8018855">
        <ele>216.078</ele>
        <time>2021-04-01T09:29:36.879Z</time>
      </trkpt>
      <trkpt lat="43.1353872" lon="-2.8018858">
        <ele>216.024</ele>
        <time>2021-04-01T09:29:36.941Z</time>
      </trkpt>
      <trkpt lat="43.1353855" lon="-2.8018867">
        <ele>216.105</ele>
        <time>2021-04-01T09:29:37.002Z</time>
      </trkpt>
      <trkpt lat="43.1353838" lon="-2.8018872">
        <ele>216.115</ele>
        <time>2021-04-01T09:29:37.064Z</time>
      </trkpt>
      <trkpt lat="43.1353823" lon="-2.8018879">
        <ele>216.124</ele>
        <time>2021-04-01T09:29:37.125Z</time>
      </trkpt>
      <trkpt lat="43.1353808" lon="-2.8018882">
        <ele>216.112</ele>
        <time>2021-04-01T09:29:37.187Z</time>
      </trkpt>
      <trkpt lat="43.1353787" lon="-2.8018885">
        <ele>216.092</ele>
        <time>2021-04-01T09:29:37.248Z</time>
      </trkpt>
      <trkpt lat="43.1353766" lon="-2.8018889">
        <ele>216.19</ele>
        <time>2021-04-01T09:29:37.310Z</time>
      </trkpt>
      <trkpt lat="43.135375" lon="-2.8018891">
        <ele>216.192</ele>
        <time>2021-04-01T09:29:37.371Z</time>
      </trkpt>
      <trkpt lat="43.1353731" lon="-2.8018895">
        <ele>216.262</ele>
        <time>2021-04-01T09:29:37.433Z</time>
      </trkpt>
      <trkpt lat="43.1353715" lon="-2.8018901">
        <ele>216.26</ele>
        <time>2021-04-01T09:29:37.494Z</time>
      </trkpt>
      <trkpt lat="43.1353698" lon="-2.8018904">
        <ele>216.261</ele>
        <time>2021-04-01T09:29:37.556Z</time>
      </trkpt>
      <trkpt lat="43.1353678" lon="-2.8018905">
        <ele>216.288</ele>
        <time>2021-04-01T09:29:37.617Z</time>
      </trkpt>
      <trkpt lat="43.135366" lon="-2.8018908">
        <ele>216.297</ele>
        <time>2021-04-01T09:29:37.679Z</time>
      </trkpt>
      <trkpt lat="43.1353644" lon="-2.8018911">
        <ele>216.321</ele>
        <time>2021-04-01T09:29:37.728Z</time>
      </trkpt>
      <trkpt lat="43.1353628" lon="-2.8018915">
        <ele>216.376</ele>
        <time>2021-04-01T09:29:37.777Z</time>
      </trkpt>
      <trkpt lat="43.1353613" lon="-2.8018922">
        <ele>216.401</ele>
        <time>2021-04-01T09:29:37.826Z</time>
      </trkpt>
      <trkpt lat="43.1353596" lon="-2.8018925">
        <ele>216.455</ele>
        <time>2021-04-01T09:29:37.875Z</time>
      </trkpt>
      <trkpt lat="43.1353581" lon="-2.801893">
        <ele>216.464</ele>
        <time>2021-04-01T09:29:37.925Z</time>
      </trkpt>
      <trkpt lat="43.1353568" lon="-2.8018935">
        <ele>216.488</ele>
        <time>2021-04-01T09:29:37.974Z</time>
      </trkpt>
      <trkpt lat="43.1353553" lon="-2.801894">
        <ele>216.521</ele>
        <time>2021-04-01T09:29:38.023Z</time>
      </trkpt>
      <trkpt lat="43.1353536" lon="-2.8018944">
        <ele>216.563</ele>
        <time>2021-04-01T09:29:38.072Z</time>
      </trkpt>
      <trkpt lat="43.1353521" lon="-2.8018948">
        <ele>216.587</ele>
        <time>2021-04-01T09:29:38.121Z</time>
      </trkpt>
      <trkpt lat="43.1353507" lon="-2.8018953">
        <ele>216.569</ele>
        <time>2021-04-01T09:29:38.171Z</time>
      </trkpt>
      <trkpt lat="43.1353492" lon="-2.801896">
        <ele>216.578</ele>
        <time>2021-04-01T09:29:38.220Z</time>
      </trkpt>
      <trkpt lat="43.1353477" lon="-2.8018965">
        <ele>216.582</ele>
        <time>2021-04-01T09:29:38.269Z</time>
      </trkpt>
      <trkpt lat="43.1353463" lon="-2.8018972">
        <ele>216.582</ele>
        <time>2021-04-01T09:29:38.318Z</time>
      </trkpt>
      <trkpt lat="43.1353445" lon="-2.8018976">
        <ele>216.642</ele>
        <time>2021-04-01T09:29:38.367Z</time>
      </trkpt>
      <trkpt lat="43.1353427" lon="-2.8018982">
        <ele>216.68</ele>
        <time>2021-04-01T09:29:38.417Z</time>
      </trkpt>
      <trkpt lat="43.1353412" lon="-2.8018984">
        <ele>216.668</ele>
        <time>2021-04-01T09:29:38.466Z</time>
      </trkpt>
      <trkpt lat="43.1353396" lon="-2.8018987">
        <ele>216.683</ele>
        <time>2021-04-01T09:29:38.515Z</time>
      </trkpt>
      <trkpt lat="43.1353379" lon="-2.801899">
        <ele>216.694</ele>
        <time>2021-04-01T09:29:38.564Z</time>
      </trkpt>
      <trkpt lat="43.135336" lon="-2.8018988">
        <ele>216.741</ele>
        <time>2021-04-01T09:29:38.614Z</time>
      </trkpt>
      <trkpt lat="43.135334" lon="-2.8018989">
        <ele>216.804</ele>
        <time>2021-04-01T09:29:38.672Z</time>
      </trkpt>
      <trkpt lat="43.1353322" lon="-2.8018989">
        <ele>216.856</ele>
        <time>2021-04-01T09:29:38.730Z</time>
      </trkpt>
      <trkpt lat="43.1353302" lon="-2.8018992">
        <ele>216.905</ele>
        <time>2021-04-01T09:29:38.788Z</time>
      </trkpt>
      <trkpt lat="43.1353285" lon="-2.8018997">
        <ele>216.95</ele>
        <time>2021-04-01T09:29:38.846Z</time>
      </trkpt>
      <trkpt lat="43.1353268" lon="-2.8018998">
        <ele>216.988</ele>
        <time>2021-04-01T09:29:38.904Z</time>
      </trkpt>
      <trkpt lat="43.135325" lon="-2.8019">
        <ele>217.013</ele>
        <time>2021-04-01T09:29:38.962Z</time>
      </trkpt>
      <trkpt lat="43.1353233" lon="-2.8019003">
        <ele>217.056</ele>
        <time>2021-04-01T09:29:39.020Z</time>
      </trkpt>
      <trkpt lat="43.1353217" lon="-2.8019008">
        <ele>217.094</ele>
        <time>2021-04-01T09:29:39.078Z</time>
      </trkpt>
      <trkpt lat="43.1353202" lon="-2.8019013">
        <ele>217.13</ele>
        <time>2021-04-01T09:29:39.136Z</time>
      </trkpt>
      <trkpt lat="43.1353185" lon="-2.8019016">
        <ele>217.134</ele>
        <time>2021-04-01T09:29:39.194Z</time>
      </trkpt>
      <trkpt lat="43.1353168" lon="-2.801902">
        <ele>217.125</ele>
        <time>2021-04-01T09:29:39.252Z</time>
      </trkpt>
      <trkpt lat="43.135315" lon="-2.8019025">
        <ele>217.181</ele>
        <time>2021-04-01T09:29:39.310Z</time>
      </trkpt>
      <trkpt lat="43.1353132" lon="-2.8019027">
        <ele>217.232</ele>
        <time>2021-04-01T09:29:39.368Z</time>
      </trkpt>
      <trkpt lat="43.1353113" lon="-2.801903">
        <ele>217.245</ele>
        <time>2021-04-01T09:29:39.426Z</time>
      </trkpt>
      <trkpt lat="43.1353092" lon="-2.8019031">
        <ele>217.266</ele>
        <time>2021-04-01T09:29:39.484Z</time>
      </trkpt>
      <trkpt lat="43.135307" lon="-2.8019034">
        <ele>217.341</ele>
        <time>2021-04-01T09:29:39.542Z</time>
      </trkpt>
      <trkpt lat="43.1353049" lon="-2.801903">
        <ele>217.356</ele>
        <time>2021-04-01T09:29:39.600Z</time>
      </trkpt>
      <trkpt lat="43.1353029" lon="-2.8019031">
        <ele>217.38</ele>
        <time>2021-04-01T09:29:39.659Z</time>
      </trkpt>
      <trkpt lat="43.1353012" lon="-2.8019035">
        <ele>217.387</ele>
        <time>2021-04-01T09:29:39.714Z</time>
      </trkpt>
      <trkpt lat="43.1352994" lon="-2.801904">
        <ele>217.369</ele>
        <time>2021-04-01T09:29:39.769Z</time>
      </trkpt>
      <trkpt lat="43.1352974" lon="-2.8019044">
        <ele>217.387</ele>
        <time>2021-04-01T09:29:39.824Z</time>
      </trkpt>
      <trkpt lat="43.1352957" lon="-2.8019047">
        <ele>217.365</ele>
        <time>2021-04-01T09:29:39.879Z</time>
      </trkpt>
      <trkpt lat="43.1352939" lon="-2.8019053">
        <ele>217.431</ele>
        <time>2021-04-01T09:29:39.934Z</time>
      </trkpt>
      <trkpt lat="43.1352921" lon="-2.8019056">
        <ele>217.488</ele>
        <time>2021-04-01T09:29:39.989Z</time>
      </trkpt>
      <trkpt lat="43.1352902" lon="-2.8019062">
        <ele>217.505</ele>
        <time>2021-04-01T09:29:40.044Z</time>
      </trkpt>
      <trkpt lat="43.1352882" lon="-2.8019065">
        <ele>217.556</ele>
        <time>2021-04-01T09:29:40.099Z</time>
      </trkpt>
      <trkpt lat="43.1352864" lon="-2.8019066">
        <ele>217.577</ele>
        <time>2021-04-01T09:29:40.154Z</time>
      </trkpt>
      <trkpt lat="43.1352846" lon="-2.8019071">
        <ele>217.632</ele>
        <time>2021-04-01T09:29:40.209Z</time>
      </trkpt>
      <trkpt lat="43.1352829" lon="-2.8019076">
        <ele>217.634</ele>
        <time>2021-04-01T09:29:40.264Z</time>
      </trkpt>
      <trkpt lat="43.1352812" lon="-2.8019083">
        <ele>217.631</ele>
        <time>2021-04-01T09:29:40.319Z</time>
      </trkpt>
      <trkpt lat="43.1352796" lon="-2.8019091">
        <ele>217.67</ele>
        <time>2021-04-01T09:29:40.374Z</time>
      </trkpt>
      <trkpt lat="43.135278" lon="-2.8019096">
        <ele>217.702</ele>
        <time>2021-04-01T09:29:40.429Z</time>
      </trkpt>
      <trkpt lat="43.1352761" lon="-2.8019098">
        <ele>217.755</ele>
        <time>2021-04-01T09:29:40.484Z</time>
      </trkpt>
      <trkpt lat="43.1352745" lon="-2.8019102">
        <ele>217.796</ele>
        <time>2021-04-01T09:29:40.539Z</time>
      </trkpt>
      <trkpt lat="43.1352729" lon="-2.8019104">
        <ele>217.828</ele>
        <time>2021-04-01T09:29:40.594Z</time>
      </trkpt>
      <trkpt lat="43.1352713" lon="-2.8019108">
        <ele>217.898</ele>
        <time>2021-04-01T09:29:40.649Z</time>
      </trkpt>
      <trkpt lat="43.1352695" lon="-2.8019112">
        <ele>217.946</ele>
        <time>2021-04-01T09:29:40.704Z</time>
      </trkpt>
      <trkpt lat="43.1352673" lon="-2.8019116">
        <ele>218.022</ele>
        <time>2021-04-01T09:29:40.759Z</time>
      </trkpt>
      <trkpt lat="43.1352654" lon="-2.801912">
        <ele>218.101</ele>
        <time>2021-04-01T09:29:40.814Z</time>
      </trkpt>
      <trkpt lat="43.1352635" lon="-2.8019127">
        <ele>218.183</ele>
        <time>2021-04-01T09:29:40.869Z</time>
      </trkpt>
      <trkpt lat="43.1352619" lon="-2.8019132">
        <ele>218.287</ele>
        <time>2021-04-01T09:29:40.924Z</time>
      </trkpt>
      <trkpt lat="43.1352602" lon="-2.8019138">
        <ele>218.321</ele>
        <time>2021-04-01T09:29:40.979Z</time>
      </trkpt>
      <trkpt lat="43.1352582" lon="-2.8019139">
        <ele>218.378</ele>
        <time>2021-04-01T09:29:41.034Z</time>
      </trkpt>
      <trkpt lat="43.1352565" lon="-2.8019143">
        <ele>218.373</ele>
        <time>2021-04-01T09:29:41.089Z</time>
      </trkpt>
      <trkpt lat="43.1352546" lon="-2.8019147">
        <ele>218.434</ele>
        <time>2021-04-01T09:29:41.144Z</time>
      </trkpt>
      <trkpt lat="43.1352529" lon="-2.8019147">
        <ele>218.507</ele>
        <time>2021-04-01T09:29:41.199Z</time>
      </trkpt>
      <trkpt lat="43.1352509" lon="-2.8019152">
        <ele>218.578</ele>
        <time>2021-04-01T09:29:41.254Z</time>
      </trkpt>
      <trkpt lat="43.135249" lon="-2.8019154">
        <ele>218.63</ele>
        <time>2021-04-01T09:29:41.309Z</time>
      </trkpt>
      <trkpt lat="43.1352472" lon="-2.8019155">
        <ele>218.667</ele>
        <time>2021-04-01T09:29:41.364Z</time>
      </trkpt>
      <trkpt lat="43.1352454" lon="-2.8019158">
        <ele>218.746</ele>
        <time>2021-04-01T09:29:41.419Z</time>
      </trkpt>
      <trkpt lat="43.1352435" lon="-2.8019165">
        <ele>218.83</ele>
        <time>2021-04-01T09:29:41.474Z</time>
      </trkpt>
      <trkpt lat="43.1352417" lon="-2.8019171">
        <ele>218.85</ele>
        <time>2021-04-01T09:29:41.529Z</time>
      </trkpt>
      <trkpt lat="43.1352401" lon="-2.8019174">
        <ele>218.877</ele>
        <time>2021-04-01T09:29:41.584Z</time>
      </trkpt>
      <trkpt lat="43.1352385" lon="-2.8019178">
        <ele>218.962</ele>
        <time>2021-04-01T09:29:41.639Z</time>
      </trkpt>
      <trkpt lat="43.1352368" lon="-2.8019181">
        <ele>218.987</ele>
        <time>2021-04-01T09:29:41.694Z</time>
      </trkpt>
      <trkpt lat="43.135235" lon="-2.8019186">
        <ele>219.014</ele>
        <time>2021-04-01T09:29:41.749Z</time>
      </trkpt>
      <trkpt lat="43.1352331" lon="-2.8019187">
        <ele>219.073</ele>
        <time>2021-04-01T09:29:41.804Z</time>
      </trkpt>
      <trkpt lat="43.1352314" lon="-2.8019191">
        <ele>219.135</ele>
        <time>2021-04-01T09:29:41.859Z</time>
      </trkpt>
      <trkpt lat="43.1352295" lon="-2.8019191">
        <ele>219.243</ele>
        <time>2021-04-01T09:29:41.914Z</time>
      </trkpt>
      <trkpt lat="43.1352278" lon="-2.8019197">
        <ele>219.284</ele>
        <time>2021-04-01T09:29:41.969Z</time>
      </trkpt>
      <trkpt lat="43.1352263" lon="-2.8019202">
        <ele>219.297</ele>
        <time>2021-04-01T09:29:42.024Z</time>
      </trkpt>
      <trkpt lat="43.1352246" lon="-2.8019205">
        <ele>219.332</ele>
        <time>2021-04-01T09:29:42.079Z</time>
      </trkpt>
      <trkpt lat="43.1352228" lon="-2.801921">
        <ele>219.345</ele>
        <time>2021-04-01T09:29:42.134Z</time>
      </trkpt>
      <trkpt lat="43.135221" lon="-2.8019215">
        <ele>219.368</ele>
        <time>2021-04-01T09:29:42.189Z</time>
      </trkpt>
      <trkpt lat="43.135219" lon="-2.801922">
        <ele>219.433</ele>
        <time>2021-04-01T09:29:42.244Z</time>
      </trkpt>
      <trkpt lat="43.1352173" lon="-2.8019225">
        <ele>219.471</ele>
        <time>2021-04-01T09:29:42.299Z</time>
      </trkpt>
      <trkpt lat="43.1352158" lon="-2.8019227">
        <ele>219.495</ele>
        <time>2021-04-01T09:29:42.354Z</time>
      </trkpt>
      <trkpt lat="43.1352141" lon="-2.801923">
        <ele>219.564</ele>
        <time>2021-04-01T09:29:42.409Z</time>
      </trkpt>
      <trkpt lat="43.1352125" lon="-2.8019232">
        <ele>219.621</ele>
        <time>2021-04-01T09:29:42.464Z</time>
      </trkpt>
      <trkpt lat="43.1352108" lon="-2.8019236">
        <ele>219.662</ele>
        <time>2021-04-01T09:29:42.519Z</time>
      </trkpt>
      <trkpt lat="43.1352093" lon="-2.8019242">
        <ele>219.663</ele>
        <time>2021-04-01T09:29:42.574Z</time>
      </trkpt>
      <trkpt lat="43.1352077" lon="-2.8019243">
        <ele>219.688</ele>
        <time>2021-04-01T09:29:42.629Z</time>
      </trkpt>
      <trkpt lat="43.1352061" lon="-2.8019244">
        <ele>219.692</ele>
        <time>2021-04-01T09:29:42.684Z</time>
      </trkpt>
      <trkpt lat="43.1352044" lon="-2.8019247">
        <ele>219.688</ele>
        <time>2021-04-01T09:29:42.739Z</time>
      </trkpt>
      <trkpt lat="43.135203" lon="-2.8019251">
        <ele>219.713</ele>
        <time>2021-04-01T09:29:42.794Z</time>
      </trkpt>
      <trkpt lat="43.1352014" lon="-2.8019252">
        <ele>219.723</ele>
        <time>2021-04-01T09:29:42.849Z</time>
      </trkpt>
      <trkpt lat="43.1351998" lon="-2.8019253">
        <ele>219.71</ele>
        <time>2021-04-01T09:29:42.904Z</time>
      </trkpt>
      <trkpt lat="43.1351981" lon="-2.8019257">
        <ele>219.724</ele>
        <time>2021-04-01T09:29:42.959Z</time>
      </trkpt>
      <trkpt lat="43.1351964" lon="-2.8019255">
        <ele>219.752</ele>
        <time>2021-04-01T09:29:43.014Z</time>
      </trkpt>
      <trkpt lat="43.1351948" lon="-2.8019256">
        <ele>219.805</ele>
        <time>2021-04-01T09:29:43.069Z</time>
      </trkpt>
      <trkpt lat="43.1351932" lon="-2.8019262">
        <ele>219.783</ele>
        <time>2021-04-01T09:29:43.124Z</time>
      </trkpt>
      <trkpt lat="43.1351913" lon="-2.8019261">
        <ele>219.805</ele>
        <time>2021-04-01T09:29:43.179Z</time>
      </trkpt>
      <trkpt lat="43.1351897" lon="-2.8019262">
        <ele>219.726</ele>
        <time>2021-04-01T09:29:43.234Z</time>
      </trkpt>
      <trkpt lat="43.135188" lon="-2.8019262">
        <ele>219.774</ele>
        <time>2021-04-01T09:29:43.289Z</time>
      </trkpt>
      <trkpt lat="43.1351863" lon="-2.8019262">
        <ele>219.804</ele>
        <time>2021-04-01T09:29:43.344Z</time>
      </trkpt>
      <trkpt lat="43.1351848" lon="-2.8019266">
        <ele>219.779</ele>
        <time>2021-04-01T09:29:43.399Z</time>
      </trkpt>
      <trkpt lat="43.1351829" lon="-2.8019267">
        <ele>219.841</ele>
        <time>2021-04-01T09:29:43.454Z</time>
      </trkpt>
      <trkpt lat="43.1351814" lon="-2.8019272">
        <ele>219.85</ele>
        <time>2021-04-01T09:29:43.509Z</time>
      </trkpt>
      <trkpt lat="43.1351799" lon="-2.8019271">
        <ele>219.935</ele>
        <time>2021-04-01T09:29:43.564Z</time>
      </trkpt>
      <trkpt lat="43.1351781" lon="-2.8019272">
        <ele>219.99</ele>
        <time>2021-04-01T09:29:43.619Z</time>
      </trkpt>
      <trkpt lat="43.1351764" lon="-2.8019275">
        <ele>219.993</ele>
        <time>2021-04-01T09:29:43.674Z</time>
      </trkpt>
      <trkpt lat="43.1351747" lon="-2.8019277">
        <ele>220.04</ele>
        <time>2021-04-01T09:29:43.729Z</time>
      </trkpt>
      <trkpt lat="43.1351733" lon="-2.8019281">
        <ele>220.054</ele>
        <time>2021-04-01T09:29:43.784Z</time>
      </trkpt>
      <trkpt lat="43.1351715" lon="-2.8019283">
        <ele>220.106</ele>
        <time>2021-04-01T09:29:43.839Z</time>
      </trkpt>
      <trkpt lat="43.13517" lon="-2.8019287">
        <ele>220.17</ele>
        <time>2021-04-01T09:29:43.894Z</time>
      </trkpt>
      <trkpt lat="43.1351684" lon="-2.8019288">
        <ele>220.183</ele>
        <time>2021-04-01T09:29:43.949Z</time>
      </trkpt>
      <trkpt lat="43.1351669" lon="-2.8019288">
        <ele>220.19</ele>
        <time>2021-04-01T09:29:44.004Z</time>
      </trkpt>
      <trkpt lat="43.1351653" lon="-2.8019288">
        <ele>220.238</ele>
        <time>2021-04-01T09:29:44.059Z</time>
      </trkpt>
      <trkpt lat="43.1351638" lon="-2.8019291">
        <ele>220.219</ele>
        <time>2021-04-01T09:29:44.114Z</time>
      </trkpt>
      <trkpt lat="43.1351622" lon="-2.8019293">
        <ele>220.219</ele>
        <time>2021-04-01T09:29:44.169Z</time>
      </trkpt>
      <trkpt lat="43.1351607" lon="-2.8019298">
        <ele>220.212</ele>
        <time>2021-04-01T09:29:44.224Z</time>
      </trkpt>
      <trkpt lat="43.1351594" lon="-2.8019299">
        <ele>220.209</ele>
        <time>2021-04-01T09:29:44.279Z</time>
      </trkpt>
      <trkpt lat="43.135158" lon="-2.8019298">
        <ele>220.214</ele>
        <time>2021-04-01T09:29:44.334Z</time>
      </trkpt>
      <trkpt lat="43.1351566" lon="-2.80193">
        <ele>220.225</ele>
        <time>2021-04-01T09:29:44.389Z</time>
      </trkpt>
      <trkpt lat="43.1351551" lon="-2.8019302">
        <ele>220.2</ele>
        <time>2021-04-01T09:29:44.444Z</time>
      </trkpt>
      <trkpt lat="43.1351535" lon="-2.8019302">
        <ele>220.207</ele>
        <time>2021-04-01T09:29:44.499Z</time>
      </trkpt>
      <trkpt lat="43.1351522" lon="-2.8019301">
        <ele>220.19</ele>
        <time>2021-04-01T09:29:44.554Z</time>
      </trkpt>
      <trkpt lat="43.1351509" lon="-2.8019305">
        <ele>220.123</ele>
        <time>2021-04-01T09:29:44.609Z</time>
      </trkpt>
      <trkpt lat="43.1351491" lon="-2.8019301">
        <ele>220.185</ele>
        <time>2021-04-01T09:29:44.664Z</time>
      </trkpt>
      <trkpt lat="43.1351474" lon="-2.80193">
        <ele>220.274</ele>
        <time>2021-04-01T09:29:44.719Z</time>
      </trkpt>
      <trkpt lat="43.1351457" lon="-2.8019301">
        <ele>220.312</ele>
        <time>2021-04-01T09:29:44.774Z</time>
      </trkpt>
      <trkpt lat="43.1351439" lon="-2.8019299">
        <ele>220.369</ele>
        <time>2021-04-01T09:29:44.829Z</time>
      </trkpt>
      <trkpt lat="43.1351423" lon="-2.80193">
        <ele>220.411</ele>
        <time>2021-04-01T09:29:44.884Z</time>
      </trkpt>
      <trkpt lat="43.1351407" lon="-2.8019304">
        <ele>220.459</ele>
        <time>2021-04-01T09:29:44.939Z</time>
      </trkpt>
      <trkpt lat="43.1351392" lon="-2.8019305">
        <ele>220.51</ele>
        <time>2021-04-01T09:29:44.994Z</time>
      </trkpt>
      <trkpt lat="43.1351374" lon="-2.8019307">
        <ele>220.542</ele>
        <time>2021-04-01T09:29:45.049Z</time>
      </trkpt>
      <trkpt lat="43.1351356" lon="-2.8019308">
        <ele>220.549</ele>
        <time>2021-04-01T09:29:45.104Z</time>
      </trkpt>
      <trkpt lat="43.1351338" lon="-2.8019309">
        <ele>220.564</ele>
        <time>2021-04-01T09:29:45.159Z</time>
      </trkpt>
      <trkpt lat="43.1351322" lon="-2.801931">
        <ele>220.566</ele>
        <time>2021-04-01T09:29:45.214Z</time>
      </trkpt>
      <trkpt lat="43.1351305" lon="-2.8019307">
        <ele>220.689</ele>
        <time>2021-04-01T09:29:45.269Z</time>
      </trkpt>
      <trkpt lat="43.135129" lon="-2.8019307">
        <ele>220.713</ele>
        <time>2021-04-01T09:29:45.324Z</time>
      </trkpt>
      <trkpt lat="43.1351275" lon="-2.8019311">
        <ele>220.68</ele>
        <time>2021-04-01T09:29:45.379Z</time>
      </trkpt>
      <trkpt lat="43.1351258" lon="-2.8019312">
        <ele>220.75</ele>
        <time>2021-04-01T09:29:45.434Z</time>
      </trkpt>
      <trkpt lat="43.1351243" lon="-2.8019312">
        <ele>220.75</ele>
        <time>2021-04-01T09:29:45.489Z</time>
      </trkpt>
      <trkpt lat="43.1351227" lon="-2.8019315">
        <ele>220.787</ele>
        <time>2021-04-01T09:29:45.544Z</time>
      </trkpt>
      <trkpt lat="43.1351209" lon="-2.8019319">
        <ele>220.824</ele>
        <time>2021-04-01T09:29:45.599Z</time>
      </trkpt>
      <trkpt lat="43.1351193" lon="-2.801932">
        <ele>220.843</ele>
        <time>2021-04-01T09:29:45.654Z</time>
      </trkpt>
      <trkpt lat="43.1351177" lon="-2.8019321">
        <ele>220.855</ele>
        <time>2021-04-01T09:29:45.709Z</time>
      </trkpt>
      <trkpt lat="43.1351162" lon="-2.8019322">
        <ele>220.901</ele>
        <time>2021-04-01T09:29:45.764Z</time>
      </trkpt>
      <trkpt lat="43.1351148" lon="-2.8019323">
        <ele>220.927</ele>
        <time>2021-04-01T09:29:45.819Z</time>
      </trkpt>
      <trkpt lat="43.1351132" lon="-2.8019323">
        <ele>220.961</ele>
        <time>2021-04-01T09:29:45.874Z</time>
      </trkpt>
      <trkpt lat="43.1351118" lon="-2.8019324">
        <ele>220.974</ele>
        <time>2021-04-01T09:29:45.929Z</time>
      </trkpt>
      <trkpt lat="43.1351103" lon="-2.8019323">
        <ele>220.983</ele>
        <time>2021-04-01T09:29:45.984Z</time>
      </trkpt>
      <trkpt lat="43.1351086" lon="-2.8019321">
        <ele>221.005</ele>
        <time>2021-04-01T09:29:46.039Z</time>
      </trkpt>
      <trkpt lat="43.1351068" lon="-2.8019321">
        <ele>221.028</ele>
        <time>2021-04-01T09:29:46.094Z</time>
      </trkpt>
      <trkpt lat="43.1351051" lon="-2.8019319">
        <ele>221.063</ele>
        <time>2021-04-01T09:29:46.149Z</time>
      </trkpt>
      <trkpt lat="43.1351035" lon="-2.801932">
        <ele>221.078</ele>
        <time>2021-04-01T09:29:46.204Z</time>
      </trkpt>
      <trkpt lat="43.1351022" lon="-2.801932">
        <ele>221.119</ele>
        <time>2021-04-01T09:29:46.259Z</time>
      </trkpt>
      <trkpt lat="43.1351007" lon="-2.801932">
        <ele>221.137</ele>
        <time>2021-04-01T09:29:46.314Z</time>
      </trkpt>
      <trkpt lat="43.1350991" lon="-2.8019317">
        <ele>221.167</ele>
        <time>2021-04-01T09:29:46.369Z</time>
      </trkpt>
      <trkpt lat="43.1350975" lon="-2.8019315">
        <ele>221.229</ele>
        <time>2021-04-01T09:29:46.424Z</time>
      </trkpt>
      <trkpt lat="43.1350959" lon="-2.8019316">
        <ele>221.273</ele>
        <time>2021-04-01T09:29:46.479Z</time>
      </trkpt>
      <trkpt lat="43.1350942" lon="-2.8019315">
        <ele>221.315</ele>
        <time>2021-04-01T09:29:46.534Z</time>
      </trkpt>
      <trkpt lat="43.1350925" lon="-2.8019314">
        <ele>221.387</ele>
        <time>2021-04-01T09:29:46.589Z</time>
      </trkpt>
      <trkpt lat="43.1350907" lon="-2.8019317">
        <ele>221.449</ele>
        <time>2021-04-01T09:29:46.644Z</time>
      </trkpt>
      <trkpt lat="43.1350891" lon="-2.8019318">
        <ele>221.471</ele>
        <time>2021-04-01T09:29:46.699Z</time>
      </trkpt>
      <trkpt lat="43.1350875" lon="-2.8019318">
        <ele>221.501</ele>
        <time>2021-04-01T09:29:46.754Z</time>
      </trkpt>
      <trkpt lat="43.1350858" lon="-2.8019316">
        <ele>221.561</ele>
        <time>2021-04-01T09:29:46.809Z</time>
      </trkpt>
      <trkpt lat="43.1350841" lon="-2.8019316">
        <ele>221.639</ele>
        <time>2021-04-01T09:29:46.864Z</time>
      </trkpt>
      <trkpt lat="43.1350824" lon="-2.8019318">
        <ele>221.688</ele>
        <time>2021-04-01T09:29:46.919Z</time>
      </trkpt>
      <trkpt lat="43.1350808" lon="-2.8019315">
        <ele>221.741</ele>
        <time>2021-04-01T09:29:46.974Z</time>
      </trkpt>
      <trkpt lat="43.1350791" lon="-2.8019318">
        <ele>221.79</ele>
        <time>2021-04-01T09:29:47.029Z</time>
      </trkpt>
      <trkpt lat="43.1350773" lon="-2.801932">
        <ele>221.804</ele>
        <time>2021-04-01T09:29:47.084Z</time>
      </trkpt>
      <trkpt lat="43.1350756" lon="-2.8019322">
        <ele>221.856</ele>
        <time>2021-04-01T09:29:47.139Z</time>
      </trkpt>
      <trkpt lat="43.1350739" lon="-2.8019324">
        <ele>221.897</ele>
        <time>2021-04-01T09:29:47.194Z</time>
      </trkpt>
      <trkpt lat="43.1350723" lon="-2.8019327">
        <ele>221.939</ele>
        <time>2021-04-01T09:29:47.249Z</time>
      </trkpt>
      <trkpt lat="43.1350705" lon="-2.8019326">
        <ele>221.999</ele>
        <time>2021-04-01T09:29:47.304Z</time>
      </trkpt>
      <trkpt lat="43.1350689" lon="-2.8019327">
        <ele>222.027</ele>
        <time>2021-04-01T09:29:47.359Z</time>
      </trkpt>
      <trkpt lat="43.1350673" lon="-2.8019329">
        <ele>222.04</ele>
        <time>2021-04-01T09:29:47.414Z</time>
      </trkpt>
      <trkpt lat="43.1350657" lon="-2.801933">
        <ele>222.083</ele>
        <time>2021-04-01T09:29:47.469Z</time>
      </trkpt>
      <trkpt lat="43.1350638" lon="-2.8019328">
        <ele>222.164</ele>
        <time>2021-04-01T09:29:47.524Z</time>
      </trkpt>
      <trkpt lat="43.1350621" lon="-2.8019333">
        <ele>222.181</ele>
        <time>2021-04-01T09:29:47.579Z</time>
      </trkpt>
      <trkpt lat="43.1350604" lon="-2.8019334">
        <ele>222.212</ele>
        <time>2021-04-01T09:29:47.634Z</time>
      </trkpt>
      <trkpt lat="43.1350587" lon="-2.8019336">
        <ele>222.274</ele>
        <time>2021-04-01T09:29:47.689Z</time>
      </trkpt>
      <trkpt lat="43.1350571" lon="-2.8019341">
        <ele>222.31</ele>
        <time>2021-04-01T09:29:47.744Z</time>
      </trkpt>
      <trkpt lat="43.1350557" lon="-2.8019342">
        <ele>222.291</ele>
        <time>2021-04-01T09:29:47.799Z</time>
      </trkpt>
      <trkpt lat="43.1350542" lon="-2.8019344">
        <ele>222.313</ele>
        <time>2021-04-01T09:29:47.854Z</time>
      </trkpt>
      <trkpt lat="43.1350525" lon="-2.8019346">
        <ele>222.347</ele>
        <time>2021-04-01T09:29:47.909Z</time>
      </trkpt>
      <trkpt lat="43.1350507" lon="-2.8019344">
        <ele>222.417</ele>
        <time>2021-04-01T09:29:47.964Z</time>
      </trkpt>
      <trkpt lat="43.1350488" lon="-2.8019343">
        <ele>222.443</ele>
        <time>2021-04-01T09:29:48.019Z</time>
      </trkpt>
      <trkpt lat="43.1350469" lon="-2.8019342">
        <ele>222.5</ele>
        <time>2021-04-01T09:29:48.074Z</time>
      </trkpt>
      <trkpt lat="43.1350452" lon="-2.801934">
        <ele>222.553</ele>
        <time>2021-04-01T09:29:48.129Z</time>
      </trkpt>
      <trkpt lat="43.1350437" lon="-2.8019338">
        <ele>222.563</ele>
        <time>2021-04-01T09:29:48.184Z</time>
      </trkpt>
      <trkpt lat="43.135042" lon="-2.8019337">
        <ele>222.627</ele>
        <time>2021-04-01T09:29:48.239Z</time>
      </trkpt>
      <trkpt lat="43.1350405" lon="-2.8019335">
        <ele>222.646</ele>
        <time>2021-04-01T09:29:48.294Z</time>
      </trkpt>
      <trkpt lat="43.1350388" lon="-2.8019332">
        <ele>222.674</ele>
        <time>2021-04-01T09:29:48.349Z</time>
      </trkpt>
      <trkpt lat="43.1350373" lon="-2.8019332">
        <ele>222.69</ele>
        <time>2021-04-01T09:29:48.404Z</time>
      </trkpt>
      <trkpt lat="43.1350357" lon="-2.8019332">
        <ele>222.711</ele>
        <time>2021-04-01T09:29:48.459Z</time>
      </trkpt>
      <trkpt lat="43.1350341" lon="-2.8019332">
        <ele>222.748</ele>
        <time>2021-04-01T09:29:48.514Z</time>
      </trkpt>
      <trkpt lat="43.1350324" lon="-2.8019332">
        <ele>222.784</ele>
        <time>2021-04-01T09:29:48.569Z</time>
      </trkpt>
      <trkpt lat="43.1350308" lon="-2.8019332">
        <ele>222.817</ele>
        <time>2021-04-01T09:29:48.624Z</time>
      </trkpt>
      <trkpt lat="43.1350293" lon="-2.8019332">
        <ele>222.847</ele>
        <time>2021-04-01T09:29:48.679Z</time>
      </trkpt>
      <trkpt lat="43.1350277" lon="-2.8019333">
        <ele>222.886</ele>
        <time>2021-04-01T09:29:48.730Z</time>
      </trkpt>
      <trkpt lat="43.1350263" lon="-2.801933">
        <ele>222.891</ele>
        <time>2021-04-01T09:29:48.782Z</time>
      </trkpt>
      <trkpt lat="43.1350248" lon="-2.8019332">
        <ele>222.927</ele>
        <time>2021-04-01T09:29:48.834Z</time>
      </trkpt>
      <trkpt lat="43.1350233" lon="-2.8019332">
        <ele>222.956</ele>
        <time>2021-04-01T09:29:48.886Z</time>
      </trkpt>
      <trkpt lat="43.1350217" lon="-2.8019331">
        <ele>222.963</ele>
        <time>2021-04-01T09:29:48.938Z</time>
      </trkpt>
      <trkpt lat="43.1350201" lon="-2.8019332">
        <ele>222.983</ele>
        <time>2021-04-01T09:29:48.990Z</time>
      </trkpt>
      <trkpt lat="43.1350185" lon="-2.8019329">
        <ele>223.002</ele>
        <time>2021-04-01T09:29:49.042Z</time>
      </trkpt>
      <trkpt lat="43.1350169" lon="-2.8019329">
        <ele>223.045</ele>
        <time>2021-04-01T09:29:49.094Z</time>
      </trkpt>
      <trkpt lat="43.1350154" lon="-2.801933">
        <ele>223.052</ele>
        <time>2021-04-01T09:29:49.146Z</time>
      </trkpt>
      <trkpt lat="43.135014" lon="-2.8019327">
        <ele>223.062</ele>
        <time>2021-04-01T09:29:49.198Z</time>
      </trkpt>
      <trkpt lat="43.1350125" lon="-2.8019325">
        <ele>223.105</ele>
        <time>2021-04-01T09:29:49.250Z</time>
      </trkpt>
      <trkpt lat="43.135011" lon="-2.8019321">
        <ele>223.109</ele>
        <time>2021-04-01T09:29:49.302Z</time>
      </trkpt>
      <trkpt lat="43.1350095" lon="-2.8019319">
        <ele>223.121</ele>
        <time>2021-04-01T09:29:49.354Z</time>
      </trkpt>
      <trkpt lat="43.1350079" lon="-2.8019316">
        <ele>223.143</ele>
        <time>2021-04-01T09:29:49.406Z</time>
      </trkpt>
      <trkpt lat="43.1350063" lon="-2.8019313">
        <ele>223.156</ele>
        <time>2021-04-01T09:29:49.458Z</time>
      </trkpt>
      <trkpt lat="43.1350048" lon="-2.8019314">
        <ele>223.156</ele>
        <time>2021-04-01T09:29:49.510Z</time>
      </trkpt>
      <trkpt lat="43.1350034" lon="-2.8019312">
        <ele>223.177</ele>
        <time>2021-04-01T09:29:49.562Z</time>
      </trkpt>
      <trkpt lat="43.1350019" lon="-2.8019309">
        <ele>223.205</ele>
        <time>2021-04-01T09:29:49.614Z</time>
      </trkpt>
      <trkpt lat="43.1350003" lon="-2.8019306">
        <ele>223.212</ele>
        <time>2021-04-01T09:29:49.672Z</time>
      </trkpt>
      <trkpt lat="43.1349988" lon="-2.8019305">
        <ele>223.212</ele>
        <time>2021-04-01T09:29:49.730Z</time>
      </trkpt>
      <trkpt lat="43.1349974" lon="-2.8019306">
        <ele>223.16</ele>
        <time>2021-04-01T09:29:49.788Z</time>
      </trkpt>
      <trkpt lat="43.1349959" lon="-2.8019305">
        <ele>223.149</ele>
        <time>2021-04-01T09:29:49.846Z</time>
      </trkpt>
      <trkpt lat="43.1349943" lon="-2.8019304">
        <ele>223.121</ele>
        <time>2021-04-01T09:29:49.904Z</time>
      </trkpt>
      <trkpt lat="43.1349929" lon="-2.8019304">
        <ele>223.092</ele>
        <time>2021-04-01T09:29:49.962Z</time>
      </trkpt>
      <trkpt lat="43.1349916" lon="-2.8019304">
        <ele>223.047</ele>
        <time>2021-04-01T09:29:50.020Z</time>
      </trkpt>
      <trkpt lat="43.1349902" lon="-2.8019301">
        <ele>223.053</ele>
        <time>2021-04-01T09:29:50.078Z</time>
      </trkpt>
      <trkpt lat="43.1349887" lon="-2.8019299">
        <ele>223.045</ele>
        <time>2021-04-01T09:29:50.136Z</time>
      </trkpt>
      <trkpt lat="43.1349873" lon="-2.80193">
        <ele>223.011</ele>
        <time>2021-04-01T09:29:50.194Z</time>
      </trkpt>
      <trkpt lat="43.1349859" lon="-2.8019303">
        <ele>222.975</ele>
        <time>2021-04-01T09:29:50.252Z</time>
      </trkpt>
      <trkpt lat="43.1349844" lon="-2.8019302">
        <ele>222.981</ele>
        <time>2021-04-01T09:29:50.310Z</time>
      </trkpt>
      <trkpt lat="43.1349829" lon="-2.8019302">
        <ele>222.966</ele>
        <time>2021-04-01T09:29:50.368Z</time>
      </trkpt>
      <trkpt lat="43.1349813" lon="-2.8019303">
        <ele>222.964</ele>
        <time>2021-04-01T09:29:50.426Z</time>
      </trkpt>
      <trkpt lat="43.1349799" lon="-2.8019306">
        <ele>222.931</ele>
        <time>2021-04-01T09:29:50.484Z</time>
      </trkpt>
      <trkpt lat="43.1349784" lon="-2.8019309">
        <ele>222.909</ele>
        <time>2021-04-01T09:29:50.542Z</time>
      </trkpt>
      <trkpt lat="43.1349769" lon="-2.8019308">
        <ele>222.892</ele>
        <time>2021-04-01T09:29:50.600Z</time>
      </trkpt>
      <trkpt lat="43.1349755" lon="-2.8019312">
        <ele>222.876</ele>
        <time>2021-04-01T09:29:50.659Z</time>
      </trkpt>
      <trkpt lat="43.134974" lon="-2.8019314">
        <ele>222.884</ele>
        <time>2021-04-01T09:29:50.714Z</time>
      </trkpt>
      <trkpt lat="43.1349724" lon="-2.8019315">
        <ele>222.888</ele>
        <time>2021-04-01T09:29:50.769Z</time>
      </trkpt>
      <trkpt lat="43.1349708" lon="-2.8019315">
        <ele>222.899</ele>
        <time>2021-04-01T09:29:50.824Z</time>
      </trkpt>
      <trkpt lat="43.1349691" lon="-2.8019312">
        <ele>222.912</ele>
        <time>2021-04-01T09:29:50.879Z</time>
      </trkpt>
      <trkpt lat="43.1349675" lon="-2.801931">
        <ele>222.944</ele>
        <time>2021-04-01T09:29:50.934Z</time>
      </trkpt>
      <trkpt lat="43.134966" lon="-2.8019311">
        <ele>222.954</ele>
        <time>2021-04-01T09:29:50.989Z</time>
      </trkpt>
      <trkpt lat="43.1349645" lon="-2.801931">
        <ele>222.958</ele>
        <time>2021-04-01T09:29:51.044Z</time>
      </trkpt>
      <trkpt lat="43.134963" lon="-2.801931">
        <ele>222.961</ele>
        <time>2021-04-01T09:29:51.099Z</time>
      </trkpt>
      <trkpt lat="43.1349614" lon="-2.8019308">
        <ele>222.97</ele>
        <time>2021-04-01T09:29:51.154Z</time>
      </trkpt>
      <trkpt lat="43.1349599" lon="-2.801931">
        <ele>222.961</ele>
        <time>2021-04-01T09:29:51.209Z</time>
      </trkpt>
      <trkpt lat="43.1349584" lon="-2.8019312">
        <ele>222.956</ele>
        <time>2021-04-01T09:29:51.264Z</time>
      </trkpt>
      <trkpt lat="43.1349567" lon="-2.8019311">
        <ele>222.97</ele>
        <time>2021-04-01T09:29:51.319Z</time>
      </trkpt>
      <trkpt lat="43.1349552" lon="-2.8019313">
        <ele>222.985</ele>
        <time>2021-04-01T09:29:51.374Z</time>
      </trkpt>
      <trkpt lat="43.1349537" lon="-2.8019317">
        <ele>222.975</ele>
        <time>2021-04-01T09:29:51.429Z</time>
      </trkpt>
      <trkpt lat="43.1349521" lon="-2.8019317">
        <ele>222.976</ele>
        <time>2021-04-01T09:29:51.484Z</time>
      </trkpt>
      <trkpt lat="43.1349505" lon="-2.8019316">
        <ele>222.994</ele>
        <time>2021-04-01T09:29:51.539Z</time>
      </trkpt>
      <trkpt lat="43.134949" lon="-2.8019323">
        <ele>222.982</ele>
        <time>2021-04-01T09:29:51.594Z</time>
      </trkpt>
      <trkpt lat="43.1349475" lon="-2.8019325">
        <ele>223.001</ele>
        <time>2021-04-01T09:29:51.649Z</time>
      </trkpt>
      <trkpt lat="43.1349458" lon="-2.8019325">
        <ele>223.058</ele>
        <time>2021-04-01T09:29:51.704Z</time>
      </trkpt>
      <trkpt lat="43.1349442" lon="-2.8019328">
        <ele>223.083</ele>
        <time>2021-04-01T09:29:51.759Z</time>
      </trkpt>
      <trkpt lat="43.1349424" lon="-2.8019329">
        <ele>223.093</ele>
        <time>2021-04-01T09:29:51.814Z</time>
      </trkpt>
      <trkpt lat="43.1349408" lon="-2.801933">
        <ele>223.093</ele>
        <time>2021-04-01T09:29:51.869Z</time>
      </trkpt>
      <trkpt lat="43.1349394" lon="-2.8019335">
        <ele>223.077</ele>
        <time>2021-04-01T09:29:51.924Z</time>
      </trkpt>
      <trkpt lat="43.134938" lon="-2.8019339">
        <ele>223.056</ele>
        <time>2021-04-01T09:29:51.979Z</time>
      </trkpt>
      <trkpt lat="43.1349365" lon="-2.8019343">
        <ele>223.042</ele>
        <time>2021-04-01T09:29:52.034Z</time>
      </trkpt>
      <trkpt lat="43.1349351" lon="-2.8019349">
        <ele>223.024</ele>
        <time>2021-04-01T09:29:52.089Z</time>
      </trkpt>
      <trkpt lat="43.1349338" lon="-2.8019352">
        <ele>222.997</ele>
        <time>2021-04-01T09:29:52.144Z</time>
      </trkpt>
      <trkpt lat="43.1349322" lon="-2.8019353">
        <ele>223.027</ele>
        <time>2021-04-01T09:29:52.199Z</time>
      </trkpt>
      <trkpt lat="43.1349305" lon="-2.8019355">
        <ele>223.055</ele>
        <time>2021-04-01T09:29:52.254Z</time>
      </trkpt>
      <trkpt lat="43.1349289" lon="-2.8019356">
        <ele>223.068</ele>
        <time>2021-04-01T09:29:52.309Z</time>
      </trkpt>
      <trkpt lat="43.1349272" lon="-2.8019356">
        <ele>223.107</ele>
        <time>2021-04-01T09:29:52.364Z</time>
      </trkpt>
      <trkpt lat="43.1349257" lon="-2.8019358">
        <ele>223.128</ele>
        <time>2021-04-01T09:29:52.419Z</time>
      </trkpt>
      <trkpt lat="43.1349245" lon="-2.8019363">
        <ele>223.058</ele>
        <time>2021-04-01T09:29:52.474Z</time>
      </trkpt>
      <trkpt lat="43.1349232" lon="-2.8019368">
        <ele>223.029</ele>
        <time>2021-04-01T09:29:52.529Z</time>
      </trkpt>
      <trkpt lat="43.1349219" lon="-2.801937">
        <ele>223.006</ele>
        <time>2021-04-01T09:29:52.584Z</time>
      </trkpt>
      <trkpt lat="43.1349205" lon="-2.8019375">
        <ele>222.944</ele>
        <time>2021-04-01T09:29:52.639Z</time>
      </trkpt>
      <trkpt lat="43.1349191" lon="-2.8019378">
        <ele>222.904</ele>
        <time>2021-04-01T09:29:52.691Z</time>
      </trkpt>
      <trkpt lat="43.1349179" lon="-2.8019382">
        <ele>222.855</ele>
        <time>2021-04-01T09:29:52.743Z</time>
      </trkpt>
      <trkpt lat="43.1349166" lon="-2.8019385">
        <ele>222.789</ele>
        <time>2021-04-01T09:29:52.795Z</time>
      </trkpt>
      <trkpt lat="43.1349151" lon="-2.8019388">
        <ele>222.787</ele>
        <time>2021-04-01T09:29:52.847Z</time>
      </trkpt>
      <trkpt lat="43.1349138" lon="-2.8019391">
        <ele>222.782</ele>
        <time>2021-04-01T09:29:52.899Z</time>
      </trkpt>
      <trkpt lat="43.1349123" lon="-2.8019389">
        <ele>222.783</ele>
        <time>2021-04-01T09:29:52.951Z</time>
      </trkpt>
      <trkpt lat="43.1349107" lon="-2.8019388">
        <ele>222.798</ele>
        <time>2021-04-01T09:29:53.003Z</time>
      </trkpt>
      <trkpt lat="43.1349093" lon="-2.801939">
        <ele>222.785</ele>
        <time>2021-04-01T09:29:53.055Z</time>
      </trkpt>
      <trkpt lat="43.1349078" lon="-2.8019392">
        <ele>222.798</ele>
        <time>2021-04-01T09:29:53.107Z</time>
      </trkpt>
      <trkpt lat="43.1349063" lon="-2.8019394">
        <ele>222.787</ele>
        <time>2021-04-01T09:29:53.160Z</time>
      </trkpt>
      <trkpt lat="43.1349048" lon="-2.8019397">
        <ele>222.758</ele>
        <time>2021-04-01T09:29:53.212Z</time>
      </trkpt>
      <trkpt lat="43.1349033" lon="-2.8019396">
        <ele>222.773</ele>
        <time>2021-04-01T09:29:53.264Z</time>
      </trkpt>
      <trkpt lat="43.1349018" lon="-2.8019393">
        <ele>222.815</ele>
        <time>2021-04-01T09:29:53.316Z</time>
      </trkpt>
      <trkpt lat="43.1349004" lon="-2.8019399">
        <ele>222.78</ele>
        <time>2021-04-01T09:29:53.368Z</time>
      </trkpt>
      <trkpt lat="43.1348991" lon="-2.8019403">
        <ele>222.739</ele>
        <time>2021-04-01T09:29:53.420Z</time>
      </trkpt>
      <trkpt lat="43.1348977" lon="-2.8019406">
        <ele>222.72</ele>
        <time>2021-04-01T09:29:53.472Z</time>
      </trkpt>
      <trkpt lat="43.1348963" lon="-2.8019404">
        <ele>222.706</ele>
        <time>2021-04-01T09:29:53.524Z</time>
      </trkpt>
      <trkpt lat="43.1348948" lon="-2.8019404">
        <ele>222.669</ele>
        <time>2021-04-01T09:29:53.576Z</time>
      </trkpt>
      <trkpt lat="43.1348934" lon="-2.8019403">
        <ele>222.651</ele>
        <time>2021-04-01T09:29:53.629Z</time>
      </trkpt>
      <trkpt lat="43.134892" lon="-2.8019404">
        <ele>222.629</ele>
        <time>2021-04-01T09:29:53.687Z</time>
      </trkpt>
      <trkpt lat="43.1348908" lon="-2.8019404">
        <ele>222.626</ele>
        <time>2021-04-01T09:29:53.745Z</time>
      </trkpt>
      <trkpt lat="43.1348894" lon="-2.8019401">
        <ele>222.618</ele>
        <time>2021-04-01T09:29:53.803Z</time>
      </trkpt>
      <trkpt lat="43.134888" lon="-2.8019397">
        <ele>222.612</ele>
        <time>2021-04-01T09:29:53.861Z</time>
      </trkpt>
      <trkpt lat="43.1348864" lon="-2.8019395">
        <ele>222.612</ele>
        <time>2021-04-01T09:29:53.919Z</time>
      </trkpt>
      <trkpt lat="43.1348847" lon="-2.8019395">
        <ele>222.623</ele>
        <time>2021-04-01T09:29:53.977Z</time>
      </trkpt>
      <trkpt lat="43.1348832" lon="-2.8019393">
        <ele>222.64</ele>
        <time>2021-04-01T09:29:54.035Z</time>
      </trkpt>
      <trkpt lat="43.1348819" lon="-2.8019393">
        <ele>222.627</ele>
        <time>2021-04-01T09:29:54.093Z</time>
      </trkpt>
      <trkpt lat="43.1348804" lon="-2.8019389">
        <ele>222.634</ele>
        <time>2021-04-01T09:29:54.151Z</time>
      </trkpt>
      <trkpt lat="43.134879" lon="-2.801939">
        <ele>222.591</ele>
        <time>2021-04-01T09:29:54.209Z</time>
      </trkpt>
      <trkpt lat="43.1348777" lon="-2.8019391">
        <ele>222.564</ele>
        <time>2021-04-01T09:29:54.267Z</time>
      </trkpt>
      <trkpt lat="43.1348764" lon="-2.8019391">
        <ele>222.527</ele>
        <time>2021-04-01T09:29:54.325Z</time>
      </trkpt>
      <trkpt lat="43.134875" lon="-2.8019392">
        <ele>222.542</ele>
        <time>2021-04-01T09:29:54.383Z</time>
      </trkpt>
      <trkpt lat="43.1348737" lon="-2.8019391">
        <ele>222.532</ele>
        <time>2021-04-01T09:29:54.441Z</time>
      </trkpt>
      <trkpt lat="43.1348723" lon="-2.8019394">
        <ele>222.458</ele>
        <time>2021-04-01T09:29:54.499Z</time>
      </trkpt>
      <trkpt lat="43.1348708" lon="-2.8019394">
        <ele>222.402</ele>
        <time>2021-04-01T09:29:54.557Z</time>
      </trkpt>
      <trkpt lat="43.1348695" lon="-2.8019392">
        <ele>222.36</ele>
        <time>2021-04-01T09:29:54.615Z</time>
      </trkpt>
      <trkpt lat="43.1348683" lon="-2.801939">
        <ele>222.312</ele>
        <time>2021-04-01T09:29:54.674Z</time>
      </trkpt>
      <trkpt lat="43.1348672" lon="-2.8019388">
        <ele>222.279</ele>
        <time>2021-04-01T09:29:54.729Z</time>
      </trkpt>
      <trkpt lat="43.134866" lon="-2.8019385">
        <ele>222.249</ele>
        <time>2021-04-01T09:29:54.784Z</time>
      </trkpt>
      <trkpt lat="43.1348646" lon="-2.8019384">
        <ele>222.196</ele>
        <time>2021-04-01T09:29:54.839Z</time>
      </trkpt>
      <trkpt lat="43.1348633" lon="-2.8019381">
        <ele>222.156</ele>
        <time>2021-04-01T09:29:54.894Z</time>
      </trkpt>
      <trkpt lat="43.134862" lon="-2.8019381">
        <ele>222.125</ele>
        <time>2021-04-01T09:29:54.949Z</time>
      </trkpt>
      <trkpt lat="43.1348605" lon="-2.8019379">
        <ele>222.129</ele>
        <time>2021-04-01T09:29:55.004Z</time>
      </trkpt>
      <trkpt lat="43.1348591" lon="-2.8019377">
        <ele>222.117</ele>
        <time>2021-04-01T09:29:55.059Z</time>
      </trkpt>
      <trkpt lat="43.1348577" lon="-2.8019375">
        <ele>222.101</ele>
        <time>2021-04-01T09:29:55.114Z</time>
      </trkpt>
      <trkpt lat="43.1348564" lon="-2.8019372">
        <ele>222.102</ele>
        <time>2021-04-01T09:29:55.169Z</time>
      </trkpt>
      <trkpt lat="43.134855" lon="-2.801937">
        <ele>222.087</ele>
        <time>2021-04-01T09:29:55.224Z</time>
      </trkpt>
      <trkpt lat="43.1348537" lon="-2.8019366">
        <ele>222.07</ele>
        <time>2021-04-01T09:29:55.279Z</time>
      </trkpt>
      <trkpt lat="43.1348524" lon="-2.8019365">
        <ele>222.053</ele>
        <time>2021-04-01T09:29:55.334Z</time>
      </trkpt>
      <trkpt lat="43.134851" lon="-2.8019363">
        <ele>222.039</ele>
        <time>2021-04-01T09:29:55.389Z</time>
      </trkpt>
      <trkpt lat="43.1348493" lon="-2.8019358">
        <ele>222.025</ele>
        <time>2021-04-01T09:29:55.444Z</time>
      </trkpt>
      <trkpt lat="43.1348479" lon="-2.8019356">
        <ele>222.01</ele>
        <time>2021-04-01T09:29:55.499Z</time>
      </trkpt>
      <trkpt lat="43.1348467" lon="-2.8019355">
        <ele>221.999</ele>
        <time>2021-04-01T09:29:55.554Z</time>
      </trkpt>
      <trkpt lat="43.1348454" lon="-2.8019346">
        <ele>221.956</ele>
        <time>2021-04-01T09:29:55.609Z</time>
      </trkpt>
      <trkpt lat="43.1348441" lon="-2.8019344">
        <ele>221.894</ele>
        <time>2021-04-01T09:29:55.664Z</time>
      </trkpt>
      <trkpt lat="43.134843" lon="-2.8019337">
        <ele>221.844</ele>
        <time>2021-04-01T09:29:55.719Z</time>
      </trkpt>
      <trkpt lat="43.1348418" lon="-2.801933">
        <ele>221.817</ele>
        <time>2021-04-01T09:29:55.774Z</time>
      </trkpt>
      <trkpt lat="43.1348404" lon="-2.801933">
        <ele>221.771</ele>
        <time>2021-04-01T09:29:55.829Z</time>
      </trkpt>
      <trkpt lat="43.134839" lon="-2.8019327">
        <ele>221.737</ele>
        <time>2021-04-01T09:29:55.884Z</time>
      </trkpt>
      <trkpt lat="43.1348377" lon="-2.8019324">
        <ele>221.709</ele>
        <time>2021-04-01T09:29:55.939Z</time>
      </trkpt>
      <trkpt lat="43.1348362" lon="-2.8019322">
        <ele>221.692</ele>
        <time>2021-04-01T09:29:55.994Z</time>
      </trkpt>
      <trkpt lat="43.1348349" lon="-2.8019315">
        <ele>221.667</ele>
        <time>2021-04-01T09:29:56.049Z</time>
      </trkpt>
      <trkpt lat="43.1348333" lon="-2.8019313">
        <ele>221.713</ele>
        <time>2021-04-01T09:29:56.104Z</time>
      </trkpt>
      <trkpt lat="43.1348318" lon="-2.8019312">
        <ele>221.697</ele>
        <time>2021-04-01T09:29:56.159Z</time>
      </trkpt>
      <trkpt lat="43.1348303" lon="-2.8019307">
        <ele>221.7</ele>
        <time>2021-04-01T09:29:56.214Z</time>
      </trkpt>
      <trkpt lat="43.1348289" lon="-2.8019301">
        <ele>221.711</ele>
        <time>2021-04-01T09:29:56.269Z</time>
      </trkpt>
      <trkpt lat="43.1348273" lon="-2.80193">
        <ele>221.715</ele>
        <time>2021-04-01T09:29:56.324Z</time>
      </trkpt>
      <trkpt lat="43.1348256" lon="-2.8019296">
        <ele>221.702</ele>
        <time>2021-04-01T09:29:56.379Z</time>
      </trkpt>
      <trkpt lat="43.1348242" lon="-2.801929">
        <ele>221.698</ele>
        <time>2021-04-01T09:29:56.434Z</time>
      </trkpt>
      <trkpt lat="43.1348228" lon="-2.8019285">
        <ele>221.708</ele>
        <time>2021-04-01T09:29:56.489Z</time>
      </trkpt>
      <trkpt lat="43.1348214" lon="-2.8019282">
        <ele>221.725</ele>
        <time>2021-04-01T09:29:56.544Z</time>
      </trkpt>
      <trkpt lat="43.1348198" lon="-2.8019278">
        <ele>221.731</ele>
        <time>2021-04-01T09:29:56.599Z</time>
      </trkpt>
      <trkpt lat="43.1348183" lon="-2.8019272">
        <ele>221.764</ele>
        <time>2021-04-01T09:29:56.654Z</time>
      </trkpt>
      <trkpt lat="43.1348166" lon="-2.8019269">
        <ele>221.791</ele>
        <time>2021-04-01T09:29:56.709Z</time>
      </trkpt>
      <trkpt lat="43.1348149" lon="-2.8019264">
        <ele>221.833</ele>
        <time>2021-04-01T09:29:56.764Z</time>
      </trkpt>
      <trkpt lat="43.1348131" lon="-2.8019264">
        <ele>221.882</ele>
        <time>2021-04-01T09:29:56.819Z</time>
      </trkpt>
      <trkpt lat="43.1348114" lon="-2.8019263">
        <ele>221.925</ele>
        <time>2021-04-01T09:29:56.874Z</time>
      </trkpt>
      <trkpt lat="43.1348096" lon="-2.8019255">
        <ele>222.02</ele>
        <time>2021-04-01T09:29:56.929Z</time>
      </trkpt>
      <trkpt lat="43.134808" lon="-2.801925">
        <ele>222.041</ele>
        <time>2021-04-01T09:29:56.984Z</time>
      </trkpt>
      <trkpt lat="43.1348063" lon="-2.8019249">
        <ele>222.09</ele>
        <time>2021-04-01T09:29:57.039Z</time>
      </trkpt>
      <trkpt lat="43.1348046" lon="-2.8019241">
        <ele>222.168</ele>
        <time>2021-04-01T09:29:57.094Z</time>
      </trkpt>
      <trkpt lat="43.1348031" lon="-2.8019238">
        <ele>222.153</ele>
        <time>2021-04-01T09:29:57.149Z</time>
      </trkpt>
      <trkpt lat="43.1348015" lon="-2.8019229">
        <ele>222.225</ele>
        <time>2021-04-01T09:29:57.204Z</time>
      </trkpt>
      <trkpt lat="43.1348" lon="-2.8019226">
        <ele>222.189</ele>
        <time>2021-04-01T09:29:57.259Z</time>
      </trkpt>
      <trkpt lat="43.1347983" lon="-2.8019224">
        <ele>222.221</ele>
        <time>2021-04-01T09:29:57.314Z</time>
      </trkpt>
      <trkpt lat="43.1347968" lon="-2.801922">
        <ele>222.241</ele>
        <time>2021-04-01T09:29:57.369Z</time>
      </trkpt>
      <trkpt lat="43.1347954" lon="-2.8019216">
        <ele>222.199</ele>
        <time>2021-04-01T09:29:57.424Z</time>
      </trkpt>
      <trkpt lat="43.1347941" lon="-2.8019214">
        <ele>222.148</ele>
        <time>2021-04-01T09:29:57.479Z</time>
      </trkpt>
      <trkpt lat="43.1347928" lon="-2.8019211">
        <ele>222.105</ele>
        <time>2021-04-01T09:29:57.534Z</time>
      </trkpt>
      <trkpt lat="43.1347915" lon="-2.8019211">
        <ele>222.077</ele>
        <time>2021-04-01T09:29:57.589Z</time>
      </trkpt>
      <trkpt lat="43.1347903" lon="-2.8019211">
        <ele>222.003</ele>
        <time>2021-04-01T09:29:57.644Z</time>
      </trkpt>
      <trkpt lat="43.134789" lon="-2.8019212">
        <ele>221.934</ele>
        <time>2021-04-01T09:29:57.696Z</time>
      </trkpt>
      <trkpt lat="43.1347875" lon="-2.8019211">
        <ele>221.902</ele>
        <time>2021-04-01T09:29:57.748Z</time>
      </trkpt>
      <trkpt lat="43.134786" lon="-2.8019209">
        <ele>221.909</ele>
        <time>2021-04-01T09:29:57.800Z</time>
      </trkpt>
      <trkpt lat="43.1347844" lon="-2.8019209">
        <ele>221.893</ele>
        <time>2021-04-01T09:29:57.852Z</time>
      </trkpt>
      <trkpt lat="43.1347829" lon="-2.8019212">
        <ele>221.852</ele>
        <time>2021-04-01T09:29:57.904Z</time>
      </trkpt>
      <trkpt lat="43.1347814" lon="-2.801921">
        <ele>221.881</ele>
        <time>2021-04-01T09:29:57.956Z</time>
      </trkpt>
      <trkpt lat="43.13478" lon="-2.8019208">
        <ele>221.897</ele>
        <time>2021-04-01T09:29:58.008Z</time>
      </trkpt>
      <trkpt lat="43.1347782" lon="-2.8019205">
        <ele>221.948</ele>
        <time>2021-04-01T09:29:58.060Z</time>
      </trkpt>
      <trkpt lat="43.1347766" lon="-2.8019199">
        <ele>221.975</ele>
        <time>2021-04-01T09:29:58.112Z</time>
      </trkpt>
      <trkpt lat="43.1347749" lon="-2.8019197">
        <ele>221.974</ele>
        <time>2021-04-01T09:29:58.165Z</time>
      </trkpt>
      <trkpt lat="43.1347733" lon="-2.8019197">
        <ele>221.946</ele>
        <time>2021-04-01T09:29:58.217Z</time>
      </trkpt>
      <trkpt lat="43.1347716" lon="-2.8019188">
        <ele>222.06</ele>
        <time>2021-04-01T09:29:58.269Z</time>
      </trkpt>
      <trkpt lat="43.1347699" lon="-2.8019185">
        <ele>222.089</ele>
        <time>2021-04-01T09:29:58.321Z</time>
      </trkpt>
      <trkpt lat="43.1347682" lon="-2.8019182">
        <ele>222.134</ele>
        <time>2021-04-01T09:29:58.373Z</time>
      </trkpt>
      <trkpt lat="43.1347666" lon="-2.8019179">
        <ele>222.152</ele>
        <time>2021-04-01T09:29:58.425Z</time>
      </trkpt>
      <trkpt lat="43.1347649" lon="-2.8019174">
        <ele>222.171</ele>
        <time>2021-04-01T09:29:58.477Z</time>
      </trkpt>
      <trkpt lat="43.1347633" lon="-2.801917">
        <ele>222.19</ele>
        <time>2021-04-01T09:29:58.529Z</time>
      </trkpt>
      <trkpt lat="43.1347618" lon="-2.8019167">
        <ele>222.198</ele>
        <time>2021-04-01T09:29:58.581Z</time>
      </trkpt>
      <trkpt lat="43.1347602" lon="-2.801916">
        <ele>222.242</ele>
        <time>2021-04-01T09:29:58.634Z</time>
      </trkpt>
      <trkpt lat="43.1347586" lon="-2.8019153">
        <ele>222.264</ele>
        <time>2021-04-01T09:29:58.689Z</time>
      </trkpt>
      <trkpt lat="43.1347568" lon="-2.8019149">
        <ele>222.331</ele>
        <time>2021-04-01T09:29:58.744Z</time>
      </trkpt>
      <trkpt lat="43.134755" lon="-2.8019144">
        <ele>222.403</ele>
        <time>2021-04-01T09:29:58.799Z</time>
      </trkpt>
      <trkpt lat="43.1347532" lon="-2.8019141">
        <ele>222.435</ele>
        <time>2021-04-01T09:29:58.854Z</time>
      </trkpt>
      <trkpt lat="43.1347516" lon="-2.8019138">
        <ele>222.451</ele>
        <time>2021-04-01T09:29:58.909Z</time>
      </trkpt>
      <trkpt lat="43.1347498" lon="-2.8019131">
        <ele>222.454</ele>
        <time>2021-04-01T09:29:58.964Z</time>
      </trkpt>
      <trkpt lat="43.134748" lon="-2.8019124">
        <ele>222.524</ele>
        <time>2021-04-01T09:29:59.019Z</time>
      </trkpt>
      <trkpt lat="43.1347463" lon="-2.8019117">
        <ele>222.569</ele>
        <time>2021-04-01T09:29:59.074Z</time>
      </trkpt>
      <trkpt lat="43.1347447" lon="-2.8019112">
        <ele>222.61</ele>
        <time>2021-04-01T09:29:59.129Z</time>
      </trkpt>
      <trkpt lat="43.1347431" lon="-2.8019105">
        <ele>222.688</ele>
        <time>2021-04-01T09:29:59.184Z</time>
      </trkpt>
      <trkpt lat="43.1347414" lon="-2.80191">
        <ele>222.733</ele>
        <time>2021-04-01T09:29:59.239Z</time>
      </trkpt>
      <trkpt lat="43.1347398" lon="-2.8019094">
        <ele>222.73</ele>
        <time>2021-04-01T09:29:59.294Z</time>
      </trkpt>
      <trkpt lat="43.1347381" lon="-2.8019086">
        <ele>222.765</ele>
        <time>2021-04-01T09:29:59.349Z</time>
      </trkpt>
      <trkpt lat="43.1347363" lon="-2.8019082">
        <ele>222.82</ele>
        <time>2021-04-01T09:29:59.404Z</time>
      </trkpt>
      <trkpt lat="43.1347346" lon="-2.8019076">
        <ele>222.813</ele>
        <time>2021-04-01T09:29:59.459Z</time>
      </trkpt>
      <trkpt lat="43.1347329" lon="-2.8019075">
        <ele>222.794</ele>
        <time>2021-04-01T09:29:59.514Z</time>
      </trkpt>
      <trkpt lat="43.1347311" lon="-2.8019073">
        <ele>222.886</ele>
        <time>2021-04-01T09:29:59.569Z</time>
      </trkpt>
      <trkpt lat="43.1347296" lon="-2.8019073">
        <ele>222.919</ele>
        <time>2021-04-01T09:29:59.624Z</time>
      </trkpt>
      <trkpt lat="43.1347279" lon="-2.8019069">
        <ele>223.018</ele>
        <time>2021-04-01T09:29:59.682Z</time>
      </trkpt>
      <trkpt lat="43.1347264" lon="-2.8019064">
        <ele>222.993</ele>
        <time>2021-04-01T09:29:59.740Z</time>
      </trkpt>
      <trkpt lat="43.134725" lon="-2.8019056">
        <ele>222.947</ele>
        <time>2021-04-01T09:29:59.798Z</time>
      </trkpt>
      <trkpt lat="43.1347236" lon="-2.801905">
        <ele>222.991</ele>
        <time>2021-04-01T09:29:59.856Z</time>
      </trkpt>
      <trkpt lat="43.1347221" lon="-2.8019043">
        <ele>223.065</ele>
        <time>2021-04-01T09:29:59.914Z</time>
      </trkpt>
      <trkpt lat="43.1347209" lon="-2.8019038">
        <ele>223.116</ele>
        <time>2021-04-01T09:29:59.972Z</time>
      </trkpt>
      <trkpt lat="43.1347195" lon="-2.801903">
        <ele>223.139</ele>
        <time>2021-04-01T09:30:00.030Z</time>
      </trkpt>
      <trkpt lat="43.1347182" lon="-2.8019024">
        <ele>223.153</ele>
        <time>2021-04-01T09:30:00.088Z</time>
      </trkpt>
      <trkpt lat="43.1347166" lon="-2.8019021">
        <ele>223.188</ele>
        <time>2021-04-01T09:30:00.146Z</time>
      </trkpt>
      <trkpt lat="43.1347148" lon="-2.8019015">
        <ele>223.257</ele>
        <time>2021-04-01T09:30:00.204Z</time>
      </trkpt>
      <trkpt lat="43.1347133" lon="-2.8019012">
        <ele>223.273</ele>
        <time>2021-04-01T09:30:00.262Z</time>
      </trkpt>
      <trkpt lat="43.1347119" lon="-2.8019009">
        <ele>223.246</ele>
        <time>2021-04-01T09:30:00.320Z</time>
      </trkpt>
      <trkpt lat="43.1347106" lon="-2.8019006">
        <ele>223.226</ele>
        <time>2021-04-01T09:30:00.378Z</time>
      </trkpt>
      <trkpt lat="43.1347093" lon="-2.8019">
        <ele>223.235</ele>
        <time>2021-04-01T09:30:00.436Z</time>
      </trkpt>
      <trkpt lat="43.1347079" lon="-2.8018995">
        <ele>223.239</ele>
        <time>2021-04-01T09:30:00.494Z</time>
      </trkpt>
      <trkpt lat="43.1347065" lon="-2.8018993">
        <ele>223.275</ele>
        <time>2021-04-01T09:30:00.552Z</time>
      </trkpt>
      <trkpt lat="43.134705" lon="-2.8018988">
        <ele>223.279</ele>
        <time>2021-04-01T09:30:00.610Z</time>
      </trkpt>
      <trkpt lat="43.1347035" lon="-2.8018986">
        <ele>223.281</ele>
        <time>2021-04-01T09:30:00.669Z</time>
      </trkpt>
      <trkpt lat="43.1347021" lon="-2.8018979">
        <ele>223.292</ele>
        <time>2021-04-01T09:30:00.724Z</time>
      </trkpt>
      <trkpt lat="43.1347005" lon="-2.8018974">
        <ele>223.315</ele>
        <time>2021-04-01T09:30:00.779Z</time>
      </trkpt>
      <trkpt lat="43.1346992" lon="-2.801897">
        <ele>223.363</ele>
        <time>2021-04-01T09:30:00.834Z</time>
      </trkpt>
      <trkpt lat="43.134698" lon="-2.8018964">
        <ele>223.376</ele>
        <time>2021-04-01T09:30:00.889Z</time>
      </trkpt>
      <trkpt lat="43.1346967" lon="-2.8018959">
        <ele>223.395</ele>
        <time>2021-04-01T09:30:00.944Z</time>
      </trkpt>
      <trkpt lat="43.1346952" lon="-2.8018953">
        <ele>223.377</ele>
        <time>2021-04-01T09:30:00.999Z</time>
      </trkpt>
      <trkpt lat="43.1346939" lon="-2.8018946">
        <ele>223.374</ele>
        <time>2021-04-01T09:30:01.054Z</time>
      </trkpt>
      <trkpt lat="43.1346923" lon="-2.8018945">
        <ele>223.376</ele>
        <time>2021-04-01T09:30:01.109Z</time>
      </trkpt>
      <trkpt lat="43.1346907" lon="-2.8018943">
        <ele>223.382</ele>
        <time>2021-04-01T09:30:01.164Z</time>
      </trkpt>
      <trkpt lat="43.1346892" lon="-2.8018942">
        <ele>223.384</ele>
        <time>2021-04-01T09:30:01.219Z</time>
      </trkpt>
      <trkpt lat="43.1346876" lon="-2.8018941">
        <ele>223.398</ele>
        <time>2021-04-01T09:30:01.274Z</time>
      </trkpt>
      <trkpt lat="43.1346863" lon="-2.8018939">
        <ele>223.415</ele>
        <time>2021-04-01T09:30:01.329Z</time>
      </trkpt>
      <trkpt lat="43.1346849" lon="-2.8018937">
        <ele>223.435</ele>
        <time>2021-04-01T09:30:01.384Z</time>
      </trkpt>
      <trkpt lat="43.1346832" lon="-2.8018938">
        <ele>223.456</ele>
        <time>2021-04-01T09:30:01.439Z</time>
      </trkpt>
      <trkpt lat="43.1346816" lon="-2.8018937">
        <ele>223.459</ele>
        <time>2021-04-01T09:30:01.494Z</time>
      </trkpt>
      <trkpt lat="43.1346801" lon="-2.8018937">
        <ele>223.472</ele>
        <time>2021-04-01T09:30:01.549Z</time>
      </trkpt>
      <trkpt lat="43.1346787" lon="-2.8018939">
        <ele>223.482</ele>
        <time>2021-04-01T09:30:01.604Z</time>
      </trkpt>
      <trkpt lat="43.1346772" lon="-2.8018944">
        <ele>223.483</ele>
        <time>2021-04-01T09:30:01.659Z</time>
      </trkpt>
      <trkpt lat="43.1346759" lon="-2.8018947">
        <ele>223.478</ele>
        <time>2021-04-01T09:30:01.711Z</time>
      </trkpt>
      <trkpt lat="43.1346743" lon="-2.8018947">
        <ele>223.503</ele>
        <time>2021-04-01T09:30:01.763Z</time>
      </trkpt>
      <trkpt lat="43.1346727" lon="-2.8018945">
        <ele>223.502</ele>
        <time>2021-04-01T09:30:01.815Z</time>
      </trkpt>
      <trkpt lat="43.1346709" lon="-2.8018938">
        <ele>223.514</ele>
        <time>2021-04-01T09:30:01.867Z</time>
      </trkpt>
      <trkpt lat="43.1346697" lon="-2.8018942">
        <ele>223.501</ele>
        <time>2021-04-01T09:30:01.919Z</time>
      </trkpt>
      <trkpt lat="43.1346682" lon="-2.8018938">
        <ele>223.527</ele>
        <time>2021-04-01T09:30:01.971Z</time>
      </trkpt>
      <trkpt lat="43.1346667" lon="-2.8018938">
        <ele>223.544</ele>
        <time>2021-04-01T09:30:02.023Z</time>
      </trkpt>
      <trkpt lat="43.1346653" lon="-2.8018938">
        <ele>223.549</ele>
        <time>2021-04-01T09:30:02.075Z</time>
      </trkpt>
      <trkpt lat="43.1346639" lon="-2.8018941">
        <ele>223.59</ele>
        <time>2021-04-01T09:30:02.127Z</time>
      </trkpt>
      <trkpt lat="43.1346623" lon="-2.8018941">
        <ele>223.646</ele>
        <time>2021-04-01T09:30:02.180Z</time>
      </trkpt>
      <trkpt lat="43.1346607" lon="-2.801894">
        <ele>223.681</ele>
        <time>2021-04-01T09:30:02.232Z</time>
      </trkpt>
      <trkpt lat="43.134659" lon="-2.801894">
        <ele>223.704</ele>
        <time>2021-04-01T09:30:02.284Z</time>
      </trkpt>
      <trkpt lat="43.1346575" lon="-2.8018937">
        <ele>223.67</ele>
        <time>2021-04-01T09:30:02.336Z</time>
      </trkpt>
      <trkpt lat="43.1346561" lon="-2.801894">
        <ele>223.675</ele>
        <time>2021-04-01T09:30:02.388Z</time>
      </trkpt>
      <trkpt lat="43.1346548" lon="-2.8018941">
        <ele>223.676</ele>
        <time>2021-04-01T09:30:02.440Z</time>
      </trkpt>
      <trkpt lat="43.1346537" lon="-2.8018946">
        <ele>223.617</ele>
        <time>2021-04-01T09:30:02.492Z</time>
      </trkpt>
      <trkpt lat="43.1346523" lon="-2.8018946">
        <ele>223.555</ele>
        <time>2021-04-01T09:30:02.544Z</time>
      </trkpt>
      <trkpt lat="43.1346514" lon="-2.8018944">
        <ele>223.443</ele>
        <time>2021-04-01T09:30:02.596Z</time>
      </trkpt>
      <trkpt lat="43.1346503" lon="-2.8018947">
        <ele>223.343</ele>
        <time>2021-04-01T09:30:02.649Z</time>
      </trkpt>
      <trkpt lat="43.134649" lon="-2.8018948">
        <ele>223.29</ele>
        <time>2021-04-01T09:30:02.707Z</time>
      </trkpt>
      <trkpt lat="43.1346478" lon="-2.8018951">
        <ele>223.279</ele>
        <time>2021-04-01T09:30:02.765Z</time>
      </trkpt>
      <trkpt lat="43.1346463" lon="-2.8018952">
        <ele>223.277</ele>
        <time>2021-04-01T09:30:02.823Z</time>
      </trkpt>
      <trkpt lat="43.1346448" lon="-2.801895">
        <ele>223.307</ele>
        <time>2021-04-01T09:30:02.881Z</time>
      </trkpt>
      <trkpt lat="43.1346436" lon="-2.8018957">
        <ele>223.273</ele>
        <time>2021-04-01T09:30:02.940Z</time>
      </trkpt>
      <trkpt lat="43.1346421" lon="-2.801896">
        <ele>223.231</ele>
        <time>2021-04-01T09:30:02.998Z</time>
      </trkpt>
      <trkpt lat="43.1346409" lon="-2.8018962">
        <ele>223.208</ele>
        <time>2021-04-01T09:30:03.056Z</time>
      </trkpt>
      <trkpt lat="43.1346395" lon="-2.8018959">
        <ele>223.17</ele>
        <time>2021-04-01T09:30:03.114Z</time>
      </trkpt>
      <trkpt lat="43.1346383" lon="-2.8018953">
        <ele>223.166</ele>
        <time>2021-04-01T09:30:03.173Z</time>
      </trkpt>
      <trkpt lat="43.1346368" lon="-2.801896">
        <ele>223.167</ele>
        <time>2021-04-01T09:30:03.231Z</time>
      </trkpt>
      <trkpt lat="43.1346354" lon="-2.8018963">
        <ele>223.164</ele>
        <time>2021-04-01T09:30:03.289Z</time>
      </trkpt>
      <trkpt lat="43.1346346" lon="-2.8018975">
        <ele>223.216</ele>
        <time>2021-04-01T09:30:03.347Z</time>
      </trkpt>
      <trkpt lat="43.1346335" lon="-2.8018977">
        <ele>223.245</ele>
        <time>2021-04-01T09:30:03.406Z</time>
      </trkpt>
      <trkpt lat="43.1346323" lon="-2.8018982">
        <ele>223.285</ele>
        <time>2021-04-01T09:30:03.464Z</time>
      </trkpt>
      <trkpt lat="43.1346314" lon="-2.801899">
        <ele>223.267</ele>
        <time>2021-04-01T09:30:03.522Z</time>
      </trkpt>
      <trkpt lat="43.1346304" lon="-2.8018994">
        <ele>223.244</ele>
        <time>2021-04-01T09:30:03.580Z</time>
      </trkpt>
      <trkpt lat="43.1346294" lon="-2.8018992">
        <ele>223.193</ele>
        <time>2021-04-01T09:30:03.639Z</time>
      </trkpt>
      <trkpt lat="43.1346284" lon="-2.8018991">
        <ele>223.111</ele>
        <time>2021-04-01T09:30:03.694Z</time>
      </trkpt>
      <trkpt lat="43.1346264" lon="-2.801899">
        <ele>223.188</ele>
        <time>2021-04-01T09:30:03.749Z</time>
      </trkpt>
      <trkpt lat="43.1346242" lon="-2.8018988">
        <ele>223.262</ele>
        <time>2021-04-01T09:30:03.804Z</time>
      </trkpt>
      <trkpt lat="43.1346224" lon="-2.8018988">
        <ele>223.278</ele>
        <time>2021-04-01T09:30:03.859Z</time>
      </trkpt>
      <trkpt lat="43.1346208" lon="-2.8018985">
        <ele>223.347</ele>
        <time>2021-04-01T09:30:03.914Z</time>
      </trkpt>
      <trkpt lat="43.1346196" lon="-2.8018987">
        <ele>223.359</ele>
        <time>2021-04-01T09:30:03.969Z</time>
      </trkpt>
      <trkpt lat="43.134618" lon="-2.801899">
        <ele>223.352</ele>
        <time>2021-04-01T09:30:04.024Z</time>
      </trkpt>
      <trkpt lat="43.1346168" lon="-2.8018989">
        <ele>223.348</ele>
        <time>2021-04-01T09:30:04.079Z</time>
      </trkpt>
      <trkpt lat="43.1346156" lon="-2.8018988">
        <ele>223.371</ele>
        <time>2021-04-01T09:30:04.134Z</time>
      </trkpt>
      <trkpt lat="43.134614" lon="-2.801899">
        <ele>223.371</ele>
        <time>2021-04-01T09:30:04.189Z</time>
      </trkpt>
      <trkpt lat="43.1346125" lon="-2.801899">
        <ele>223.385</ele>
        <time>2021-04-01T09:30:04.244Z</time>
      </trkpt>
      <trkpt lat="43.1346108" lon="-2.8018994">
        <ele>223.374</ele>
        <time>2021-04-01T09:30:04.299Z</time>
      </trkpt>
      <trkpt lat="43.1346094" lon="-2.8018996">
        <ele>223.372</ele>
        <time>2021-04-01T09:30:04.354Z</time>
      </trkpt>
      <trkpt lat="43.1346082" lon="-2.8018999">
        <ele>223.374</ele>
        <time>2021-04-01T09:30:04.409Z</time>
      </trkpt>
      <trkpt lat="43.1346069" lon="-2.8019003">
        <ele>223.347</ele>
        <time>2021-04-01T09:30:04.464Z</time>
      </trkpt>
      <trkpt lat="43.1346055" lon="-2.8019007">
        <ele>223.352</ele>
        <time>2021-04-01T09:30:04.519Z</time>
      </trkpt>
      <trkpt lat="43.1346039" lon="-2.8019008">
        <ele>223.375</ele>
        <time>2021-04-01T09:30:04.574Z</time>
      </trkpt>
      <trkpt lat="43.1346024" lon="-2.8019013">
        <ele>223.378</ele>
        <time>2021-04-01T09:30:04.629Z</time>
      </trkpt>
      <trkpt lat="43.1346011" lon="-2.8019018">
        <ele>223.362</ele>
        <time>2021-04-01T09:30:04.684Z</time>
      </trkpt>
      <trkpt lat="43.1345996" lon="-2.8019023">
        <ele>223.369</ele>
        <time>2021-04-01T09:30:04.742Z</time>
      </trkpt>
      <trkpt lat="43.1345982" lon="-2.8019033">
        <ele>223.363</ele>
        <time>2021-04-01T09:30:04.800Z</time>
      </trkpt>
      <trkpt lat="43.1345967" lon="-2.801904">
        <ele>223.37</ele>
        <time>2021-04-01T09:30:04.858Z</time>
      </trkpt>
      <trkpt lat="43.1345952" lon="-2.8019043">
        <ele>223.439</ele>
        <time>2021-04-01T09:30:04.916Z</time>
      </trkpt>
      <trkpt lat="43.1345939" lon="-2.8019047">
        <ele>223.441</ele>
        <time>2021-04-01T09:30:04.975Z</time>
      </trkpt>
      <trkpt lat="43.1345932" lon="-2.8019062">
        <ele>223.479</ele>
        <time>2021-04-01T09:30:05.033Z</time>
      </trkpt>
      <trkpt lat="43.134592" lon="-2.8019069">
        <ele>223.489</ele>
        <time>2021-04-01T09:30:05.091Z</time>
      </trkpt>
      <trkpt lat="43.134591" lon="-2.8019078">
        <ele>223.46</ele>
        <time>2021-04-01T09:30:05.149Z</time>
      </trkpt>
      <trkpt lat="43.13459" lon="-2.801909">
        <ele>223.437</ele>
        <time>2021-04-01T09:30:05.208Z</time>
      </trkpt>
      <trkpt lat="43.1345887" lon="-2.8019098">
        <ele>223.427</ele>
        <time>2021-04-01T09:30:05.266Z</time>
      </trkpt>
      <trkpt lat="43.1345874" lon="-2.8019107">
        <ele>223.404</ele>
        <time>2021-04-01T09:30:05.324Z</time>
      </trkpt>
      <trkpt lat="43.1345862" lon="-2.8019111">
        <ele>223.39</ele>
        <time>2021-04-01T09:30:05.382Z</time>
      </trkpt>
      <trkpt lat="43.1345848" lon="-2.8019113">
        <ele>223.441</ele>
        <time>2021-04-01T09:30:05.441Z</time>
      </trkpt>
      <trkpt lat="43.1345834" lon="-2.8019119">
        <ele>223.434</ele>
        <time>2021-04-01T09:30:05.499Z</time>
      </trkpt>
      <trkpt lat="43.1345817" lon="-2.8019123">
        <ele>223.463</ele>
        <time>2021-04-01T09:30:05.557Z</time>
      </trkpt>
      <trkpt lat="43.1345803" lon="-2.8019133">
        <ele>223.426</ele>
        <time>2021-04-01T09:30:05.615Z</time>
      </trkpt>
      <trkpt lat="43.1345795" lon="-2.8019148">
        <ele>223.459</ele>
        <time>2021-04-01T09:30:05.674Z</time>
      </trkpt>
      <trkpt lat="43.1345779" lon="-2.8019155">
        <ele>223.483</ele>
        <time>2021-04-01T09:30:05.726Z</time>
      </trkpt>
      <trkpt lat="43.1345766" lon="-2.8019164">
        <ele>223.433</ele>
        <time>2021-04-01T09:30:05.778Z</time>
      </trkpt>
      <trkpt lat="43.1345754" lon="-2.8019174">
        <ele>223.399</ele>
        <time>2021-04-01T09:30:05.830Z</time>
      </trkpt>
      <trkpt lat="43.1345742" lon="-2.8019177">
        <ele>223.377</ele>
        <time>2021-04-01T09:30:05.882Z</time>
      </trkpt>
      <trkpt lat="43.1345733" lon="-2.8019187">
        <ele>223.361</ele>
        <time>2021-04-01T09:30:05.934Z</time>
      </trkpt>
      <trkpt lat="43.1345724" lon="-2.80192">
        <ele>223.393</ele>
        <time>2021-04-01T09:30:05.986Z</time>
      </trkpt>
      <trkpt lat="43.1345712" lon="-2.8019211">
        <ele>223.333</ele>
        <time>2021-04-01T09:30:06.038Z</time>
      </trkpt>
      <trkpt lat="43.1345703" lon="-2.8019222">
        <ele>223.299</ele>
        <time>2021-04-01T09:30:06.090Z</time>
      </trkpt>
      <trkpt lat="43.1345691" lon="-2.8019235">
        <ele>223.299</ele>
        <time>2021-04-01T09:30:06.142Z</time>
      </trkpt>
      <trkpt lat="43.1345681" lon="-2.8019247">
        <ele>223.16</ele>
        <time>2021-04-01T09:30:06.195Z</time>
      </trkpt>
      <trkpt lat="43.134567" lon="-2.8019258">
        <ele>223.055</ele>
        <time>2021-04-01T09:30:06.247Z</time>
      </trkpt>
      <trkpt lat="43.1345663" lon="-2.801927">
        <ele>222.886</ele>
        <time>2021-04-01T09:30:06.299Z</time>
      </trkpt>
      <trkpt lat="43.1345653" lon="-2.8019278">
        <ele>222.795</ele>
        <time>2021-04-01T09:30:06.351Z</time>
      </trkpt>
      <trkpt lat="43.1345643" lon="-2.8019287">
        <ele>222.723</ele>
        <time>2021-04-01T09:30:06.403Z</time>
      </trkpt>
      <trkpt lat="43.1345633" lon="-2.8019303">
        <ele>222.686</ele>
        <time>2021-04-01T09:30:06.455Z</time>
      </trkpt>
      <trkpt lat="43.1345623" lon="-2.8019315">
        <ele>222.592</ele>
        <time>2021-04-01T09:30:06.507Z</time>
      </trkpt>
      <trkpt lat="43.1345617" lon="-2.8019331">
        <ele>222.551</ele>
        <time>2021-04-01T09:30:06.559Z</time>
      </trkpt>
      <trkpt lat="43.1345608" lon="-2.8019343">
        <ele>222.475</ele>
        <time>2021-04-01T09:30:06.611Z</time>
      </trkpt>
      <trkpt lat="43.1345596" lon="-2.8019358">
        <ele>222.434</ele>
        <time>2021-04-01T09:30:06.664Z</time>
      </trkpt>
      <trkpt lat="43.1345586" lon="-2.801937">
        <ele>222.435</ele>
        <time>2021-04-01T09:30:06.716Z</time>
      </trkpt>
      <trkpt lat="43.1345581" lon="-2.8019384">
        <ele>222.435</ele>
        <time>2021-04-01T09:30:06.768Z</time>
      </trkpt>
      <trkpt lat="43.1345575" lon="-2.8019397">
        <ele>222.425</ele>
        <time>2021-04-01T09:30:06.820Z</time>
      </trkpt>
      <trkpt lat="43.134557" lon="-2.8019412">
        <ele>222.423</ele>
        <time>2021-04-01T09:30:06.872Z</time>
      </trkpt>
      <trkpt lat="43.1345563" lon="-2.8019426">
        <ele>222.464</ele>
        <time>2021-04-01T09:30:06.924Z</time>
      </trkpt>
      <trkpt lat="43.1345555" lon="-2.8019442">
        <ele>222.479</ele>
        <time>2021-04-01T09:30:06.976Z</time>
      </trkpt>
      <trkpt lat="43.134555" lon="-2.8019459">
        <ele>222.388</ele>
        <time>2021-04-01T09:30:07.028Z</time>
      </trkpt>
      <trkpt lat="43.1345545" lon="-2.8019475">
        <ele>222.388</ele>
        <time>2021-04-01T09:30:07.080Z</time>
      </trkpt>
      <trkpt lat="43.1345535" lon="-2.8019488">
        <ele>222.427</ele>
        <time>2021-04-01T09:30:07.132Z</time>
      </trkpt>
      <trkpt lat="43.1345526" lon="-2.8019502">
        <ele>222.402</ele>
        <time>2021-04-01T09:30:07.185Z</time>
      </trkpt>
      <trkpt lat="43.1345515" lon="-2.8019515">
        <ele>222.407</ele>
        <time>2021-04-01T09:30:07.237Z</time>
      </trkpt>
      <trkpt lat="43.1345508" lon="-2.8019529">
        <ele>222.467</ele>
        <time>2021-04-01T09:30:07.289Z</time>
      </trkpt>
      <trkpt lat="43.1345504" lon="-2.8019543">
        <ele>222.471</ele>
        <time>2021-04-01T09:30:07.341Z</time>
      </trkpt>
      <trkpt lat="43.1345494" lon="-2.8019555">
        <ele>222.477</ele>
        <time>2021-04-01T09:30:07.393Z</time>
      </trkpt>
      <trkpt lat="43.1345486" lon="-2.8019568">
        <ele>222.49</ele>
        <time>2021-04-01T09:30:07.445Z</time>
      </trkpt>
      <trkpt lat="43.1345481" lon="-2.8019583">
        <ele>222.457</ele>
        <time>2021-04-01T09:30:07.497Z</time>
      </trkpt>
      <trkpt lat="43.1345471" lon="-2.8019601">
        <ele>222.522</ele>
        <time>2021-04-01T09:30:07.549Z</time>
      </trkpt>
      <trkpt lat="43.1345463" lon="-2.8019612">
        <ele>222.491</ele>
        <time>2021-04-01T09:30:07.601Z</time>
      </trkpt>
      <trkpt lat="43.1345454" lon="-2.8019625">
        <ele>222.501</ele>
        <time>2021-04-01T09:30:07.654Z</time>
      </trkpt>
      <trkpt lat="43.1345444" lon="-2.8019635">
        <ele>222.511</ele>
        <time>2021-04-01T09:30:07.715Z</time>
      </trkpt>
      <trkpt lat="43.1345433" lon="-2.8019649">
        <ele>222.524</ele>
        <time>2021-04-01T09:30:07.776Z</time>
      </trkpt>
      <trkpt lat="43.1345421" lon="-2.8019663">
        <ele>222.566</ele>
        <time>2021-04-01T09:30:07.838Z</time>
      </trkpt>
      <trkpt lat="43.1345414" lon="-2.8019678">
        <ele>222.562</ele>
        <time>2021-04-01T09:30:07.899Z</time>
      </trkpt>
      <trkpt lat="43.1345407" lon="-2.8019694">
        <ele>222.581</ele>
        <time>2021-04-01T09:30:07.961Z</time>
      </trkpt>
      <trkpt lat="43.1345399" lon="-2.8019712">
        <ele>222.577</ele>
        <time>2021-04-01T09:30:08.022Z</time>
      </trkpt>
      <trkpt lat="43.1345391" lon="-2.8019723">
        <ele>222.565</ele>
        <time>2021-04-01T09:30:08.084Z</time>
      </trkpt>
      <trkpt lat="43.1345389" lon="-2.801974">
        <ele>222.54</ele>
        <time>2021-04-01T09:30:08.145Z</time>
      </trkpt>
      <trkpt lat="43.1345392" lon="-2.8019756">
        <ele>222.496</ele>
        <time>2021-04-01T09:30:08.207Z</time>
      </trkpt>
      <trkpt lat="43.1345395" lon="-2.8019769">
        <ele>222.476</ele>
        <time>2021-04-01T09:30:08.268Z</time>
      </trkpt>
      <trkpt lat="43.1345393" lon="-2.8019787">
        <ele>222.46</ele>
        <time>2021-04-01T09:30:08.330Z</time>
      </trkpt>
      <trkpt lat="43.1345396" lon="-2.8019804">
        <ele>222.419</ele>
        <time>2021-04-01T09:30:08.391Z</time>
      </trkpt>
      <trkpt lat="43.1345402" lon="-2.8019822">
        <ele>222.39</ele>
        <time>2021-04-01T09:30:08.453Z</time>
      </trkpt>
      <trkpt lat="43.134541" lon="-2.8019836">
        <ele>222.319</ele>
        <time>2021-04-01T09:30:08.514Z</time>
      </trkpt>
      <trkpt lat="43.1345414" lon="-2.801985">
        <ele>222.266</ele>
        <time>2021-04-01T09:30:08.576Z</time>
      </trkpt>
      <trkpt lat="43.1345421" lon="-2.8019862">
        <ele>222.215</ele>
        <time>2021-04-01T09:30:08.637Z</time>
      </trkpt>
      <trkpt lat="43.1345422" lon="-2.8019874">
        <ele>222.178</ele>
        <time>2021-04-01T09:30:08.699Z</time>
      </trkpt>
      <trkpt lat="43.1345429" lon="-2.8019889">
        <ele>222.119</ele>
        <time>2021-04-01T09:30:08.750Z</time>
      </trkpt>
      <trkpt lat="43.1345434" lon="-2.8019903">
        <ele>222.1</ele>
        <time>2021-04-01T09:30:08.802Z</time>
      </trkpt>
      <trkpt lat="43.1345442" lon="-2.801992">
        <ele>222.098</ele>
        <time>2021-04-01T09:30:08.854Z</time>
      </trkpt>
      <trkpt lat="43.1345448" lon="-2.8019934">
        <ele>222.023</ele>
        <time>2021-04-01T09:30:08.906Z</time>
      </trkpt>
      <trkpt lat="43.1345449" lon="-2.8019947">
        <ele>221.944</ele>
        <time>2021-04-01T09:30:08.958Z</time>
      </trkpt>
      <trkpt lat="43.1345454" lon="-2.8019965">
        <ele>221.917</ele>
        <time>2021-04-01T09:30:09.010Z</time>
      </trkpt>
      <trkpt lat="43.1345456" lon="-2.8019978">
        <ele>221.889</ele>
        <time>2021-04-01T09:30:09.062Z</time>
      </trkpt>
      <trkpt lat="43.1345456" lon="-2.8019993">
        <ele>221.913</ele>
        <time>2021-04-01T09:30:09.114Z</time>
      </trkpt>
      <trkpt lat="43.1345461" lon="-2.8020006">
        <ele>221.968</ele>
        <time>2021-04-01T09:30:09.166Z</time>
      </trkpt>
      <trkpt lat="43.1345473" lon="-2.8020011">
        <ele>222.042</ele>
        <time>2021-04-01T09:30:09.218Z</time>
      </trkpt>
      <trkpt lat="43.1345478" lon="-2.8020028">
        <ele>222.107</ele>
        <time>2021-04-01T09:30:09.270Z</time>
      </trkpt>
      <trkpt lat="43.1345479" lon="-2.8020047">
        <ele>222.158</ele>
        <time>2021-04-01T09:30:09.322Z</time>
      </trkpt>
      <trkpt lat="43.1345479" lon="-2.8020064">
        <ele>222.139</ele>
        <time>2021-04-01T09:30:09.374Z</time>
      </trkpt>
      <trkpt lat="43.1345483" lon="-2.8020082">
        <ele>222.176</ele>
        <time>2021-04-01T09:30:09.426Z</time>
      </trkpt>
      <trkpt lat="43.1345488" lon="-2.8020092">
        <ele>222.154</ele>
        <time>2021-04-01T09:30:09.478Z</time>
      </trkpt>
      <trkpt lat="43.1345494" lon="-2.8020097">
        <ele>222.104</ele>
        <time>2021-04-01T09:30:09.530Z</time>
      </trkpt>
      <trkpt lat="43.1345495" lon="-2.8020113">
        <ele>222.073</ele>
        <time>2021-04-01T09:30:09.582Z</time>
      </trkpt>
      <trkpt lat="43.13455" lon="-2.8020131">
        <ele>222.065</ele>
        <time>2021-04-01T09:30:09.634Z</time>
      </trkpt>
      <trkpt lat="43.1345513" lon="-2.802015">
        <ele>222.008</ele>
        <time>2021-04-01T09:30:09.689Z</time>
      </trkpt>
      <trkpt lat="43.1345513" lon="-2.8020163">
        <ele>222.012</ele>
        <time>2021-04-01T09:30:09.744Z</time>
      </trkpt>
      <trkpt lat="43.1345516" lon="-2.8020174">
        <ele>222.073</ele>
        <time>2021-04-01T09:30:09.799Z</time>
      </trkpt>
      <trkpt lat="43.1345524" lon="-2.8020186">
        <ele>222.112</ele>
        <time>2021-04-01T09:30:09.854Z</time>
      </trkpt>
      <trkpt lat="43.1345532" lon="-2.8020198">
        <ele>222.135</ele>
        <time>2021-04-01T09:30:09.909Z</time>
      </trkpt>
      <trkpt lat="43.134554" lon="-2.802021">
        <ele>222.161</ele>
        <time>2021-04-01T09:30:09.964Z</time>
      </trkpt>
      <trkpt lat="43.1345551" lon="-2.8020221">
        <ele>222.205</ele>
        <time>2021-04-01T09:30:10.019Z</time>
      </trkpt>
      <trkpt lat="43.134556" lon="-2.8020231">
        <ele>222.237</ele>
        <time>2021-04-01T09:30:10.074Z</time>
      </trkpt>
      <trkpt lat="43.1345568" lon="-2.8020243">
        <ele>222.287</ele>
        <time>2021-04-01T09:30:10.129Z</time>
      </trkpt>
      <trkpt lat="43.1345578" lon="-2.8020253">
        <ele>222.288</ele>
        <time>2021-04-01T09:30:10.184Z</time>
      </trkpt>
      <trkpt lat="43.1345588" lon="-2.8020266">
        <ele>222.271</ele>
        <time>2021-04-01T09:30:10.239Z</time>
      </trkpt>
      <trkpt lat="43.1345599" lon="-2.8020279">
        <ele>222.29</ele>
        <time>2021-04-01T09:30:10.294Z</time>
      </trkpt>
      <trkpt lat="43.1345611" lon="-2.8020288">
        <ele>222.338</ele>
        <time>2021-04-01T09:30:10.349Z</time>
      </trkpt>
      <trkpt lat="43.1345623" lon="-2.80203">
        <ele>222.351</ele>
        <time>2021-04-01T09:30:10.404Z</time>
      </trkpt>
      <trkpt lat="43.1345631" lon="-2.8020313">
        <ele>222.428</ele>
        <time>2021-04-01T09:30:10.459Z</time>
      </trkpt>
      <trkpt lat="43.1345636" lon="-2.8020327">
        <ele>222.477</ele>
        <time>2021-04-01T09:30:10.514Z</time>
      </trkpt>
      <trkpt lat="43.1345647" lon="-2.8020339">
        <ele>222.524</ele>
        <time>2021-04-01T09:30:10.569Z</time>
      </trkpt>
      <trkpt lat="43.1345655" lon="-2.8020354">
        <ele>222.529</ele>
        <time>2021-04-01T09:30:10.624Z</time>
      </trkpt>
      <trkpt lat="43.1345664" lon="-2.8020365">
        <ele>222.563</ele>
        <time>2021-04-01T09:30:10.679Z</time>
      </trkpt>
      <trkpt lat="43.1345675" lon="-2.8020376">
        <ele>222.617</ele>
        <time>2021-04-01T09:30:10.737Z</time>
      </trkpt>
      <trkpt lat="43.1345689" lon="-2.8020385">
        <ele>222.628</ele>
        <time>2021-04-01T09:30:10.795Z</time>
      </trkpt>
      <trkpt lat="43.13457" lon="-2.8020397">
        <ele>222.62</ele>
        <time>2021-04-01T09:30:10.853Z</time>
      </trkpt>
      <trkpt lat="43.1345712" lon="-2.8020407">
        <ele>222.581</ele>
        <time>2021-04-01T09:30:10.911Z</time>
      </trkpt>
      <trkpt lat="43.1345722" lon="-2.8020417">
        <ele>222.568</ele>
        <time>2021-04-01T09:30:10.969Z</time>
      </trkpt>
      <trkpt lat="43.134573" lon="-2.8020423">
        <ele>222.612</ele>
        <time>2021-04-01T09:30:11.027Z</time>
      </trkpt>
      <trkpt lat="43.1345737" lon="-2.8020426">
        <ele>222.634</ele>
        <time>2021-04-01T09:30:11.085Z</time>
      </trkpt>
      <trkpt lat="43.1345747" lon="-2.8020436">
        <ele>222.585</ele>
        <time>2021-04-01T09:30:11.143Z</time>
      </trkpt>
      <trkpt lat="43.1345756" lon="-2.8020443">
        <ele>222.575</ele>
        <time>2021-04-01T09:30:11.201Z</time>
      </trkpt>
      <trkpt lat="43.1345769" lon="-2.8020451">
        <ele>222.548</ele>
        <time>2021-04-01T09:30:11.259Z</time>
      </trkpt>
      <trkpt lat="43.1345783" lon="-2.8020462">
        <ele>222.522</ele>
        <time>2021-04-01T09:30:11.317Z</time>
      </trkpt>
      <trkpt lat="43.1345795" lon="-2.8020471">
        <ele>222.513</ele>
        <time>2021-04-01T09:30:11.375Z</time>
      </trkpt>
      <trkpt lat="43.1345808" lon="-2.8020482">
        <ele>222.505</ele>
        <time>2021-04-01T09:30:11.433Z</time>
      </trkpt>
      <trkpt lat="43.134582" lon="-2.8020489">
        <ele>222.457</ele>
        <time>2021-04-01T09:30:11.491Z</time>
      </trkpt>
      <trkpt lat="43.1345826" lon="-2.8020496">
        <ele>222.428</ele>
        <time>2021-04-01T09:30:11.549Z</time>
      </trkpt>
      <trkpt lat="43.1345834" lon="-2.8020508">
        <ele>222.535</ele>
        <time>2021-04-01T09:30:11.607Z</time>
      </trkpt>
      <trkpt lat="43.134585" lon="-2.8020517">
        <ele>222.57</ele>
        <time>2021-04-01T09:30:11.665Z</time>
      </trkpt>
      <trkpt lat="43.1345862" lon="-2.802053">
        <ele>222.578</ele>
        <time>2021-04-01T09:30:11.724Z</time>
      </trkpt>
      <trkpt lat="43.1345877" lon="-2.802054">
        <ele>222.594</ele>
        <time>2021-04-01T09:30:11.775Z</time>
      </trkpt>
      <trkpt lat="43.1345889" lon="-2.8020549">
        <ele>222.607</ele>
        <time>2021-04-01T09:30:11.827Z</time>
      </trkpt>
      <trkpt lat="43.1345902" lon="-2.8020556">
        <ele>222.636</ele>
        <time>2021-04-01T09:30:11.879Z</time>
      </trkpt>
      <trkpt lat="43.1345911" lon="-2.802056">
        <ele>222.579</ele>
        <time>2021-04-01T09:30:11.931Z</time>
      </trkpt>
      <trkpt lat="43.134592" lon="-2.8020565">
        <ele>222.58</ele>
        <time>2021-04-01T09:30:11.983Z</time>
      </trkpt>
      <trkpt lat="43.1345932" lon="-2.802057">
        <ele>222.565</ele>
        <time>2021-04-01T09:30:12.035Z</time>
      </trkpt>
      <trkpt lat="43.134594" lon="-2.802058">
        <ele>222.55</ele>
        <time>2021-04-01T09:30:12.087Z</time>
      </trkpt>
      <trkpt lat="43.1345953" lon="-2.8020585">
        <ele>222.565</ele>
        <time>2021-04-01T09:30:12.139Z</time>
      </trkpt>
      <trkpt lat="43.1345965" lon="-2.8020591">
        <ele>222.596</ele>
        <time>2021-04-01T09:30:12.191Z</time>
      </trkpt>
      <trkpt lat="43.1345979" lon="-2.80206">
        <ele>222.637</ele>
        <time>2021-04-01T09:30:12.243Z</time>
      </trkpt>
      <trkpt lat="43.1345989" lon="-2.8020609">
        <ele>222.607</ele>
        <time>2021-04-01T09:30:12.295Z</time>
      </trkpt>
      <trkpt lat="43.1345999" lon="-2.8020618">
        <ele>222.539</ele>
        <time>2021-04-01T09:30:12.347Z</time>
      </trkpt>
      <trkpt lat="43.1346006" lon="-2.8020622">
        <ele>222.484</ele>
        <time>2021-04-01T09:30:12.399Z</time>
      </trkpt>
      <trkpt lat="43.1346013" lon="-2.8020626">
        <ele>222.448</ele>
        <time>2021-04-01T09:30:12.451Z</time>
      </trkpt>
      <trkpt lat="43.1346021" lon="-2.8020633">
        <ele>222.392</ele>
        <time>2021-04-01T09:30:12.503Z</time>
      </trkpt>
      <trkpt lat="43.1346034" lon="-2.8020637">
        <ele>222.434</ele>
        <time>2021-04-01T09:30:12.555Z</time>
      </trkpt>
      <trkpt lat="43.1346049" lon="-2.8020644">
        <ele>222.467</ele>
        <time>2021-04-01T09:30:12.607Z</time>
      </trkpt>
      <trkpt lat="43.1346062" lon="-2.8020652">
        <ele>222.553</ele>
        <time>2021-04-01T09:30:12.659Z</time>
      </trkpt>
      <trkpt lat="43.1346076" lon="-2.802066">
        <ele>222.625</ele>
        <time>2021-04-01T09:30:12.714Z</time>
      </trkpt>
      <trkpt lat="43.1346085" lon="-2.8020668">
        <ele>222.649</ele>
        <time>2021-04-01T09:30:12.769Z</time>
      </trkpt>
      <trkpt lat="43.1346095" lon="-2.8020676">
        <ele>222.672</ele>
        <time>2021-04-01T09:30:12.824Z</time>
      </trkpt>
      <trkpt lat="43.1346107" lon="-2.8020684">
        <ele>222.722</ele>
        <time>2021-04-01T09:30:12.879Z</time>
      </trkpt>
      <trkpt lat="43.1346124" lon="-2.8020694">
        <ele>222.8</ele>
        <time>2021-04-01T09:30:12.934Z</time>
      </trkpt>
      <trkpt lat="43.1346133" lon="-2.8020697">
        <ele>222.736</ele>
        <time>2021-04-01T09:30:12.989Z</time>
      </trkpt>
      <trkpt lat="43.1346144" lon="-2.8020702">
        <ele>222.729</ele>
        <time>2021-04-01T09:30:13.044Z</time>
      </trkpt>
      <trkpt lat="43.1346154" lon="-2.8020704">
        <ele>222.738</ele>
        <time>2021-04-01T09:30:13.099Z</time>
      </trkpt>
      <trkpt lat="43.1346163" lon="-2.8020708">
        <ele>222.725</ele>
        <time>2021-04-01T09:30:13.154Z</time>
      </trkpt>
      <trkpt lat="43.1346177" lon="-2.8020714">
        <ele>222.754</ele>
        <time>2021-04-01T09:30:13.209Z</time>
      </trkpt>
      <trkpt lat="43.1346187" lon="-2.802072">
        <ele>222.743</ele>
        <time>2021-04-01T09:30:13.264Z</time>
      </trkpt>
      <trkpt lat="43.1346196" lon="-2.8020728">
        <ele>222.74</ele>
        <time>2021-04-01T09:30:13.319Z</time>
      </trkpt>
      <trkpt lat="43.1346207" lon="-2.802074">
        <ele>222.743</ele>
        <time>2021-04-01T09:30:13.374Z</time>
      </trkpt>
      <trkpt lat="43.1346217" lon="-2.8020754">
        <ele>222.784</ele>
        <time>2021-04-01T09:30:13.429Z</time>
      </trkpt>
      <trkpt lat="43.1346231" lon="-2.8020768">
        <ele>222.89</ele>
        <time>2021-04-01T09:30:13.484Z</time>
      </trkpt>
      <trkpt lat="43.1346245" lon="-2.8020777">
        <ele>222.889</ele>
        <time>2021-04-01T09:30:13.539Z</time>
      </trkpt>
      <trkpt lat="43.1346254" lon="-2.8020785">
        <ele>222.851</ele>
        <time>2021-04-01T09:30:13.594Z</time>
      </trkpt>
      <trkpt lat="43.1346266" lon="-2.8020793">
        <ele>222.893</ele>
        <time>2021-04-01T09:30:13.649Z</time>
      </trkpt>
      <trkpt lat="43.1346276" lon="-2.8020801">
        <ele>222.897</ele>
        <time>2021-04-01T09:30:13.704Z</time>
      </trkpt>
      <trkpt lat="43.134629" lon="-2.8020811">
        <ele>222.944</ele>
        <time>2021-04-01T09:30:13.759Z</time>
      </trkpt>
      <trkpt lat="43.1346294" lon="-2.8020823">
        <ele>222.927</ele>
        <time>2021-04-01T09:30:13.814Z</time>
      </trkpt>
      <trkpt lat="43.1346308" lon="-2.8020837">
        <ele>222.969</ele>
        <time>2021-04-01T09:30:13.869Z</time>
      </trkpt>
      <trkpt lat="43.1346323" lon="-2.8020849">
        <ele>223.034</ele>
        <time>2021-04-01T09:30:13.924Z</time>
      </trkpt>
      <trkpt lat="43.1346337" lon="-2.8020859">
        <ele>223.028</ele>
        <time>2021-04-01T09:30:13.979Z</time>
      </trkpt>
      <trkpt lat="43.1346348" lon="-2.8020871">
        <ele>223.013</ele>
        <time>2021-04-01T09:30:14.034Z</time>
      </trkpt>
      <trkpt lat="43.1346355" lon="-2.8020878">
        <ele>222.965</ele>
        <time>2021-04-01T09:30:14.089Z</time>
      </trkpt>
      <trkpt lat="43.1346361" lon="-2.8020885">
        <ele>222.922</ele>
        <time>2021-04-01T09:30:14.144Z</time>
      </trkpt>
      <trkpt lat="43.1346369" lon="-2.8020891">
        <ele>222.892</ele>
        <time>2021-04-01T09:30:14.199Z</time>
      </trkpt>
      <trkpt lat="43.1346381" lon="-2.80209">
        <ele>222.9</ele>
        <time>2021-04-01T09:30:14.254Z</time>
      </trkpt>
      <trkpt lat="43.1346391" lon="-2.8020907">
        <ele>222.893</ele>
        <time>2021-04-01T09:30:14.309Z</time>
      </trkpt>
      <trkpt lat="43.13464" lon="-2.802092">
        <ele>222.936</ele>
        <time>2021-04-01T09:30:14.364Z</time>
      </trkpt>
      <trkpt lat="43.1346411" lon="-2.8020928">
        <ele>222.955</ele>
        <time>2021-04-01T09:30:14.419Z</time>
      </trkpt>
      <trkpt lat="43.1346422" lon="-2.8020937">
        <ele>222.992</ele>
        <time>2021-04-01T09:30:14.474Z</time>
      </trkpt>
      <trkpt lat="43.1346429" lon="-2.8020946">
        <ele>222.92</ele>
        <time>2021-04-01T09:30:14.529Z</time>
      </trkpt>
      <trkpt lat="43.1346441" lon="-2.8020952">
        <ele>222.855</ele>
        <time>2021-04-01T09:30:14.584Z</time>
      </trkpt>
      <trkpt lat="43.1346447" lon="-2.8020959">
        <ele>222.856</ele>
        <time>2021-04-01T09:30:14.639Z</time>
      </trkpt>
      <trkpt lat="43.1346459" lon="-2.8020969">
        <ele>222.854</ele>
        <time>2021-04-01T09:30:14.694Z</time>
      </trkpt>
      <trkpt lat="43.1346473" lon="-2.8020977">
        <ele>222.88</ele>
        <time>2021-04-01T09:30:14.749Z</time>
      </trkpt>
      <trkpt lat="43.1346486" lon="-2.8020986">
        <ele>222.88</ele>
        <time>2021-04-01T09:30:14.804Z</time>
      </trkpt>
      <trkpt lat="43.1346498" lon="-2.8020994">
        <ele>222.896</ele>
        <time>2021-04-01T09:30:14.859Z</time>
      </trkpt>
      <trkpt lat="43.1346512" lon="-2.8020997">
        <ele>222.925</ele>
        <time>2021-04-01T09:30:14.914Z</time>
      </trkpt>
      <trkpt lat="43.1346525" lon="-2.8021008">
        <ele>222.922</ele>
        <time>2021-04-01T09:30:14.969Z</time>
      </trkpt>
      <trkpt lat="43.1346537" lon="-2.8021015">
        <ele>222.884</ele>
        <time>2021-04-01T09:30:15.024Z</time>
      </trkpt>
      <trkpt lat="43.1346549" lon="-2.8021024">
        <ele>222.907</ele>
        <time>2021-04-01T09:30:15.079Z</time>
      </trkpt>
      <trkpt lat="43.1346565" lon="-2.8021037">
        <ele>222.908</ele>
        <time>2021-04-01T09:30:15.134Z</time>
      </trkpt>
      <trkpt lat="43.1346578" lon="-2.802105">
        <ele>222.906</ele>
        <time>2021-04-01T09:30:15.189Z</time>
      </trkpt>
      <trkpt lat="43.1346592" lon="-2.802106">
        <ele>222.978</ele>
        <time>2021-04-01T09:30:15.244Z</time>
      </trkpt>
      <trkpt lat="43.1346604" lon="-2.8021071">
        <ele>223.029</ele>
        <time>2021-04-01T09:30:15.299Z</time>
      </trkpt>
      <trkpt lat="43.1346618" lon="-2.8021082">
        <ele>223.06</ele>
        <time>2021-04-01T09:30:15.354Z</time>
      </trkpt>
      <trkpt lat="43.1346632" lon="-2.8021091">
        <ele>223.062</ele>
        <time>2021-04-01T09:30:15.409Z</time>
      </trkpt>
      <trkpt lat="43.1346644" lon="-2.8021102">
        <ele>223.036</ele>
        <time>2021-04-01T09:30:15.464Z</time>
      </trkpt>
      <trkpt lat="43.1346657" lon="-2.8021113">
        <ele>223.039</ele>
        <time>2021-04-01T09:30:15.519Z</time>
      </trkpt>
      <trkpt lat="43.134667" lon="-2.8021123">
        <ele>223.057</ele>
        <time>2021-04-01T09:30:15.574Z</time>
      </trkpt>
      <trkpt lat="43.1346681" lon="-2.8021135">
        <ele>223.069</ele>
        <time>2021-04-01T09:30:15.629Z</time>
      </trkpt>
      <trkpt lat="43.1346698" lon="-2.802115">
        <ele>223.094</ele>
        <time>2021-04-01T09:30:15.684Z</time>
      </trkpt>
      <trkpt lat="43.1346716" lon="-2.8021158">
        <ele>223.127</ele>
        <time>2021-04-01T09:30:15.742Z</time>
      </trkpt>
      <trkpt lat="43.1346733" lon="-2.802117">
        <ele>223.16</ele>
        <time>2021-04-01T09:30:15.800Z</time>
      </trkpt>
      <trkpt lat="43.1346749" lon="-2.8021178">
        <ele>223.221</ele>
        <time>2021-04-01T09:30:15.858Z</time>
      </trkpt>
      <trkpt lat="43.1346766" lon="-2.8021181">
        <ele>223.31</ele>
        <time>2021-04-01T09:30:15.916Z</time>
      </trkpt>
      <trkpt lat="43.1346782" lon="-2.8021188">
        <ele>223.333</ele>
        <time>2021-04-01T09:30:15.974Z</time>
      </trkpt>
      <trkpt lat="43.13468" lon="-2.80212">
        <ele>223.438</ele>
        <time>2021-04-01T09:30:16.032Z</time>
      </trkpt>
      <trkpt lat="43.1346818" lon="-2.8021211">
        <ele>223.486</ele>
        <time>2021-04-01T09:30:16.090Z</time>
      </trkpt>
      <trkpt lat="43.1346836" lon="-2.8021221">
        <ele>223.499</ele>
        <time>2021-04-01T09:30:16.148Z</time>
      </trkpt>
      <trkpt lat="43.1346851" lon="-2.8021228">
        <ele>223.517</ele>
        <time>2021-04-01T09:30:16.206Z</time>
      </trkpt>
      <trkpt lat="43.1346869" lon="-2.8021239">
        <ele>223.6</ele>
        <time>2021-04-01T09:30:16.264Z</time>
      </trkpt>
      <trkpt lat="43.1346887" lon="-2.8021247">
        <ele>223.687</ele>
        <time>2021-04-01T09:30:16.322Z</time>
      </trkpt>
      <trkpt lat="43.1346904" lon="-2.8021254">
        <ele>223.749</ele>
        <time>2021-04-01T09:30:16.380Z</time>
      </trkpt>
      <trkpt lat="43.1346918" lon="-2.802126">
        <ele>223.751</ele>
        <time>2021-04-01T09:30:16.438Z</time>
      </trkpt>
      <trkpt lat="43.1346933" lon="-2.8021271">
        <ele>223.787</ele>
        <time>2021-04-01T09:30:16.496Z</time>
      </trkpt>
      <trkpt lat="43.1346947" lon="-2.8021281">
        <ele>223.868</ele>
        <time>2021-04-01T09:30:16.554Z</time>
      </trkpt>
      <trkpt lat="43.1346959" lon="-2.8021287">
        <ele>223.976</ele>
        <time>2021-04-01T09:30:16.612Z</time>
      </trkpt>
      <trkpt lat="43.1346974" lon="-2.8021297">
        <ele>224.042</ele>
        <time>2021-04-01T09:30:16.670Z</time>
      </trkpt>
      <trkpt lat="43.1346988" lon="-2.8021307">
        <ele>224.099</ele>
        <time>2021-04-01T09:30:16.729Z</time>
      </trkpt>
      <trkpt lat="43.1347003" lon="-2.8021317">
        <ele>224.169</ele>
        <time>2021-04-01T09:30:16.780Z</time>
      </trkpt>
      <trkpt lat="43.134702" lon="-2.8021327">
        <ele>224.268</ele>
        <time>2021-04-01T09:30:16.832Z</time>
      </trkpt>
      <trkpt lat="43.1347034" lon="-2.8021336">
        <ele>224.331</ele>
        <time>2021-04-01T09:30:16.884Z</time>
      </trkpt>
      <trkpt lat="43.1347046" lon="-2.8021345">
        <ele>224.343</ele>
        <time>2021-04-01T09:30:16.936Z</time>
      </trkpt>
      <trkpt lat="43.1347061" lon="-2.8021355">
        <ele>224.382</ele>
        <time>2021-04-01T09:30:16.988Z</time>
      </trkpt>
      <trkpt lat="43.1347077" lon="-2.8021362">
        <ele>224.39</ele>
        <time>2021-04-01T09:30:17.040Z</time>
      </trkpt>
      <trkpt lat="43.1347096" lon="-2.8021364">
        <ele>224.427</ele>
        <time>2021-04-01T09:30:17.092Z</time>
      </trkpt>
      <trkpt lat="43.1347108" lon="-2.8021371">
        <ele>224.394</ele>
        <time>2021-04-01T09:30:17.144Z</time>
      </trkpt>
      <trkpt lat="43.1347121" lon="-2.8021378">
        <ele>224.397</ele>
        <time>2021-04-01T09:30:17.196Z</time>
      </trkpt>
      <trkpt lat="43.1347132" lon="-2.8021386">
        <ele>224.412</ele>
        <time>2021-04-01T09:30:17.248Z</time>
      </trkpt>
      <trkpt lat="43.1347139" lon="-2.802139">
        <ele>224.368</ele>
        <time>2021-04-01T09:30:17.300Z</time>
      </trkpt>
      <trkpt lat="43.1347152" lon="-2.8021397">
        <ele>224.373</ele>
        <time>2021-04-01T09:30:17.352Z</time>
      </trkpt>
      <trkpt lat="43.1347165" lon="-2.8021404">
        <ele>224.395</ele>
        <time>2021-04-01T09:30:17.404Z</time>
      </trkpt>
      <trkpt lat="43.1347181" lon="-2.8021411">
        <ele>224.43</ele>
        <time>2021-04-01T09:30:17.456Z</time>
      </trkpt>
      <trkpt lat="43.1347196" lon="-2.8021417">
        <ele>224.444</ele>
        <time>2021-04-01T09:30:17.508Z</time>
      </trkpt>
      <trkpt lat="43.1347211" lon="-2.8021425">
        <ele>224.473</ele>
        <time>2021-04-01T09:30:17.560Z</time>
      </trkpt>
      <trkpt lat="43.1347226" lon="-2.8021431">
        <ele>224.504</ele>
        <time>2021-04-01T09:30:17.612Z</time>
      </trkpt>
      <trkpt lat="43.1347242" lon="-2.8021437">
        <ele>224.531</ele>
        <time>2021-04-01T09:30:17.664Z</time>
      </trkpt>
      <trkpt lat="43.1347257" lon="-2.8021446">
        <ele>224.613</ele>
        <time>2021-04-01T09:30:17.716Z</time>
      </trkpt>
      <trkpt lat="43.1347271" lon="-2.8021455">
        <ele>224.625</ele>
        <time>2021-04-01T09:30:17.768Z</time>
      </trkpt>
      <trkpt lat="43.1347286" lon="-2.8021464">
        <ele>224.639</ele>
        <time>2021-04-01T09:30:17.820Z</time>
      </trkpt>
      <trkpt lat="43.1347303" lon="-2.8021472">
        <ele>224.627</ele>
        <time>2021-04-01T09:30:17.872Z</time>
      </trkpt>
      <trkpt lat="43.1347317" lon="-2.802148">
        <ele>224.6</ele>
        <time>2021-04-01T09:30:17.924Z</time>
      </trkpt>
      <trkpt lat="43.1347332" lon="-2.8021489">
        <ele>224.615</ele>
        <time>2021-04-01T09:30:17.976Z</time>
      </trkpt>
      <trkpt lat="43.1347347" lon="-2.8021498">
        <ele>224.667</ele>
        <time>2021-04-01T09:30:18.028Z</time>
      </trkpt>
      <trkpt lat="43.1347363" lon="-2.8021504">
        <ele>224.659</ele>
        <time>2021-04-01T09:30:18.080Z</time>
      </trkpt>
      <trkpt lat="43.1347378" lon="-2.8021511">
        <ele>224.68</ele>
        <time>2021-04-01T09:30:18.132Z</time>
      </trkpt>
      <trkpt lat="43.1347397" lon="-2.802152">
        <ele>224.765</ele>
        <time>2021-04-01T09:30:18.185Z</time>
      </trkpt>
      <trkpt lat="43.1347414" lon="-2.802153">
        <ele>224.809</ele>
        <time>2021-04-01T09:30:18.237Z</time>
      </trkpt>
      <trkpt lat="43.1347427" lon="-2.8021539">
        <ele>224.819</ele>
        <time>2021-04-01T09:30:18.289Z</time>
      </trkpt>
      <trkpt lat="43.1347441" lon="-2.8021547">
        <ele>224.816</ele>
        <time>2021-04-01T09:30:18.341Z</time>
      </trkpt>
      <trkpt lat="43.1347453" lon="-2.8021555">
        <ele>224.812</ele>
        <time>2021-04-01T09:30:18.393Z</time>
      </trkpt>
      <trkpt lat="43.1347463" lon="-2.8021561">
        <ele>224.757</ele>
        <time>2021-04-01T09:30:18.445Z</time>
      </trkpt>
      <trkpt lat="43.1347471" lon="-2.8021568">
        <ele>224.699</ele>
        <time>2021-04-01T09:30:18.497Z</time>
      </trkpt>
      <trkpt lat="43.1347478" lon="-2.8021576">
        <ele>224.717</ele>
        <time>2021-04-01T09:30:18.549Z</time>
      </trkpt>
      <trkpt lat="43.1347489" lon="-2.8021586">
        <ele>224.675</ele>
        <time>2021-04-01T09:30:18.601Z</time>
      </trkpt>
      <trkpt lat="43.1347502" lon="-2.8021595">
        <ele>224.683</ele>
        <time>2021-04-01T09:30:18.654Z</time>
      </trkpt>
      <trkpt lat="43.1347515" lon="-2.8021602">
        <ele>224.649</ele>
        <time>2021-04-01T09:30:18.712Z</time>
      </trkpt>
      <trkpt lat="43.1347526" lon="-2.8021608">
        <ele>224.653</ele>
        <time>2021-04-01T09:30:18.770Z</time>
      </trkpt>
      <trkpt lat="43.1347539" lon="-2.8021615">
        <ele>224.678</ele>
        <time>2021-04-01T09:30:18.828Z</time>
      </trkpt>
      <trkpt lat="43.1347553" lon="-2.8021619">
        <ele>224.643</ele>
        <time>2021-04-01T09:30:18.886Z</time>
      </trkpt>
      <trkpt lat="43.1347564" lon="-2.8021626">
        <ele>224.65</ele>
        <time>2021-04-01T09:30:18.944Z</time>
      </trkpt>
      <trkpt lat="43.1347577" lon="-2.8021637">
        <ele>224.693</ele>
        <time>2021-04-01T09:30:19.002Z</time>
      </trkpt>
      <trkpt lat="43.1347589" lon="-2.8021645">
        <ele>224.692</ele>
        <time>2021-04-01T09:30:19.060Z</time>
      </trkpt>
      <trkpt lat="43.1347607" lon="-2.8021653">
        <ele>224.754</ele>
        <time>2021-04-01T09:30:19.118Z</time>
      </trkpt>
      <trkpt lat="43.1347623" lon="-2.8021661">
        <ele>224.822</ele>
        <time>2021-04-01T09:30:19.176Z</time>
      </trkpt>
      <trkpt lat="43.1347635" lon="-2.8021669">
        <ele>224.835</ele>
        <time>2021-04-01T09:30:19.234Z</time>
      </trkpt>
      <trkpt lat="43.1347647" lon="-2.8021676">
        <ele>224.837</ele>
        <time>2021-04-01T09:30:19.292Z</time>
      </trkpt>
      <trkpt lat="43.1347659" lon="-2.8021683">
        <ele>224.88</ele>
        <time>2021-04-01T09:30:19.350Z</time>
      </trkpt>
      <trkpt lat="43.1347679" lon="-2.8021695">
        <ele>224.986</ele>
        <time>2021-04-01T09:30:19.408Z</time>
      </trkpt>
      <trkpt lat="43.1347697" lon="-2.8021703">
        <ele>225.057</ele>
        <time>2021-04-01T09:30:19.466Z</time>
      </trkpt>
      <trkpt lat="43.1347715" lon="-2.802171">
        <ele>225.133</ele>
        <time>2021-04-01T09:30:19.524Z</time>
      </trkpt>
      <trkpt lat="43.1347731" lon="-2.8021719">
        <ele>225.198</ele>
        <time>2021-04-01T09:30:19.582Z</time>
      </trkpt>
      <trkpt lat="43.1347745" lon="-2.8021725">
        <ele>225.244</ele>
        <time>2021-04-01T09:30:19.640Z</time>
      </trkpt>
      <trkpt lat="43.134776" lon="-2.8021733">
        <ele>225.313</ele>
        <time>2021-04-01T09:30:19.699Z</time>
      </trkpt>
      <trkpt lat="43.1347775" lon="-2.8021736">
        <ele>225.358</ele>
        <time>2021-04-01T09:30:19.754Z</time>
      </trkpt>
      <trkpt lat="43.134779" lon="-2.8021744">
        <ele>225.417</ele>
        <time>2021-04-01T09:30:19.809Z</time>
      </trkpt>
      <trkpt lat="43.1347806" lon="-2.8021754">
        <ele>225.489</ele>
        <time>2021-04-01T09:30:19.864Z</time>
      </trkpt>
      <trkpt lat="43.1347822" lon="-2.802176">
        <ele>225.546</ele>
        <time>2021-04-01T09:30:19.919Z</time>
      </trkpt>
      <trkpt lat="43.1347834" lon="-2.8021766">
        <ele>225.622</ele>
        <time>2021-04-01T09:30:19.974Z</time>
      </trkpt>
      <trkpt lat="43.1347848" lon="-2.8021771">
        <ele>225.687</ele>
        <time>2021-04-01T09:30:20.029Z</time>
      </trkpt>
      <trkpt lat="43.134786" lon="-2.8021778">
        <ele>225.718</ele>
        <time>2021-04-01T09:30:20.084Z</time>
      </trkpt>
      <trkpt lat="43.134787" lon="-2.8021785">
        <ele>225.739</ele>
        <time>2021-04-01T09:30:20.139Z</time>
      </trkpt>
      <trkpt lat="43.1347877" lon="-2.8021789">
        <ele>225.757</ele>
        <time>2021-04-01T09:30:20.194Z</time>
      </trkpt>
      <trkpt lat="43.1347891" lon="-2.8021792">
        <ele>225.809</ele>
        <time>2021-04-01T09:30:20.249Z</time>
      </trkpt>
      <trkpt lat="43.1347903" lon="-2.80218">
        <ele>225.808</ele>
        <time>2021-04-01T09:30:20.304Z</time>
      </trkpt>
      <trkpt lat="43.134792" lon="-2.8021817">
        <ele>225.805</ele>
        <time>2021-04-01T09:30:20.359Z</time>
      </trkpt>
      <trkpt lat="43.1347931" lon="-2.802182">
        <ele>225.839</ele>
        <time>2021-04-01T09:30:20.414Z</time>
      </trkpt>
      <trkpt lat="43.1347946" lon="-2.8021826">
        <ele>225.815</ele>
        <time>2021-04-01T09:30:20.469Z</time>
      </trkpt>
      <trkpt lat="43.1347958" lon="-2.802183">
        <ele>225.828</ele>
        <time>2021-04-01T09:30:20.524Z</time>
      </trkpt>
      <trkpt lat="43.1347972" lon="-2.8021836">
        <ele>225.857</ele>
        <time>2021-04-01T09:30:20.579Z</time>
      </trkpt>
      <trkpt lat="43.1347985" lon="-2.8021843">
        <ele>225.851</ele>
        <time>2021-04-01T09:30:20.634Z</time>
      </trkpt>
      <trkpt lat="43.1347998" lon="-2.8021847">
        <ele>225.861</ele>
        <time>2021-04-01T09:30:20.689Z</time>
      </trkpt>
      <trkpt lat="43.1348015" lon="-2.8021858">
        <ele>225.961</ele>
        <time>2021-04-01T09:30:20.744Z</time>
      </trkpt>
      <trkpt lat="43.1348031" lon="-2.802187">
        <ele>225.981</ele>
        <time>2021-04-01T09:30:20.799Z</time>
      </trkpt>
      <trkpt lat="43.1348045" lon="-2.8021879">
        <ele>225.984</ele>
        <time>2021-04-01T09:30:20.854Z</time>
      </trkpt>
      <trkpt lat="43.1348058" lon="-2.8021886">
        <ele>225.995</ele>
        <time>2021-04-01T09:30:20.909Z</time>
      </trkpt>
      <trkpt lat="43.1348072" lon="-2.8021893">
        <ele>225.995</ele>
        <time>2021-04-01T09:30:20.964Z</time>
      </trkpt>
      <trkpt lat="43.1348084" lon="-2.8021898">
        <ele>225.978</ele>
        <time>2021-04-01T09:30:21.019Z</time>
      </trkpt>
      <trkpt lat="43.1348099" lon="-2.8021905">
        <ele>225.982</ele>
        <time>2021-04-01T09:30:21.074Z</time>
      </trkpt>
      <trkpt lat="43.1348115" lon="-2.8021912">
        <ele>226.019</ele>
        <time>2021-04-01T09:30:21.129Z</time>
      </trkpt>
      <trkpt lat="43.1348133" lon="-2.8021919">
        <ele>226.02</ele>
        <time>2021-04-01T09:30:21.184Z</time>
      </trkpt>
      <trkpt lat="43.1348149" lon="-2.8021926">
        <ele>226.055</ele>
        <time>2021-04-01T09:30:21.239Z</time>
      </trkpt>
      <trkpt lat="43.1348163" lon="-2.8021934">
        <ele>226.035</ele>
        <time>2021-04-01T09:30:21.294Z</time>
      </trkpt>
      <trkpt lat="43.134818" lon="-2.8021941">
        <ele>226.065</ele>
        <time>2021-04-01T09:30:21.349Z</time>
      </trkpt>
      <trkpt lat="43.1348194" lon="-2.8021947">
        <ele>226.094</ele>
        <time>2021-04-01T09:30:21.404Z</time>
      </trkpt>
      <trkpt lat="43.1348209" lon="-2.8021953">
        <ele>226.08</ele>
        <time>2021-04-01T09:30:21.459Z</time>
      </trkpt>
      <trkpt lat="43.1348225" lon="-2.8021958">
        <ele>226.126</ele>
        <time>2021-04-01T09:30:21.514Z</time>
      </trkpt>
      <trkpt lat="43.1348242" lon="-2.8021968">
        <ele>226.146</ele>
        <time>2021-04-01T09:30:21.569Z</time>
      </trkpt>
      <trkpt lat="43.1348259" lon="-2.8021977">
        <ele>226.15</ele>
        <time>2021-04-01T09:30:21.624Z</time>
      </trkpt>
      <trkpt lat="43.1348275" lon="-2.8021984">
        <ele>226.135</ele>
        <time>2021-04-01T09:30:21.679Z</time>
      </trkpt>
      <trkpt lat="43.1348291" lon="-2.8021992">
        <ele>226.171</ele>
        <time>2021-04-01T09:30:21.734Z</time>
      </trkpt>
      <trkpt lat="43.1348306" lon="-2.8021998">
        <ele>226.179</ele>
        <time>2021-04-01T09:30:21.789Z</time>
      </trkpt>
      <trkpt lat="43.1348321" lon="-2.8022005">
        <ele>226.201</ele>
        <time>2021-04-01T09:30:21.844Z</time>
      </trkpt>
      <trkpt lat="43.1348338" lon="-2.8022012">
        <ele>226.219</ele>
        <time>2021-04-01T09:30:21.899Z</time>
      </trkpt>
      <trkpt lat="43.1348357" lon="-2.8022022">
        <ele>226.253</ele>
        <time>2021-04-01T09:30:21.954Z</time>
      </trkpt>
      <trkpt lat="43.134837" lon="-2.8022029">
        <ele>226.274</ele>
        <time>2021-04-01T09:30:22.009Z</time>
      </trkpt>
      <trkpt lat="43.1348386" lon="-2.8022039">
        <ele>226.271</ele>
        <time>2021-04-01T09:30:22.064Z</time>
      </trkpt>
      <trkpt lat="43.1348402" lon="-2.8022045">
        <ele>226.266</ele>
        <time>2021-04-01T09:30:22.119Z</time>
      </trkpt>
      <trkpt lat="43.1348419" lon="-2.8022053">
        <ele>226.3</ele>
        <time>2021-04-01T09:30:22.174Z</time>
      </trkpt>
      <trkpt lat="43.1348436" lon="-2.802206">
        <ele>226.344</ele>
        <time>2021-04-01T09:30:22.229Z</time>
      </trkpt>
      <trkpt lat="43.1348453" lon="-2.8022063">
        <ele>226.413</ele>
        <time>2021-04-01T09:30:22.284Z</time>
      </trkpt>
      <trkpt lat="43.1348469" lon="-2.8022069">
        <ele>226.43</ele>
        <time>2021-04-01T09:30:22.339Z</time>
      </trkpt>
      <trkpt lat="43.1348485" lon="-2.8022075">
        <ele>226.436</ele>
        <time>2021-04-01T09:30:22.394Z</time>
      </trkpt>
      <trkpt lat="43.1348502" lon="-2.8022081">
        <ele>226.445</ele>
        <time>2021-04-01T09:30:22.449Z</time>
      </trkpt>
      <trkpt lat="43.1348517" lon="-2.8022085">
        <ele>226.465</ele>
        <time>2021-04-01T09:30:22.504Z</time>
      </trkpt>
      <trkpt lat="43.1348534" lon="-2.8022093">
        <ele>226.529</ele>
        <time>2021-04-01T09:30:22.559Z</time>
      </trkpt>
      <trkpt lat="43.134855" lon="-2.8022099">
        <ele>226.534</ele>
        <time>2021-04-01T09:30:22.614Z</time>
      </trkpt>
      <trkpt lat="43.1348566" lon="-2.8022107">
        <ele>226.541</ele>
        <time>2021-04-01T09:30:22.669Z</time>
      </trkpt>
      <trkpt lat="43.1348581" lon="-2.8022111">
        <ele>226.551</ele>
        <time>2021-04-01T09:30:22.724Z</time>
      </trkpt>
      <trkpt lat="43.1348596" lon="-2.8022118">
        <ele>226.599</ele>
        <time>2021-04-01T09:30:22.779Z</time>
      </trkpt>
      <trkpt lat="43.1348611" lon="-2.8022126">
        <ele>226.626</ele>
        <time>2021-04-01T09:30:22.834Z</time>
      </trkpt>
      <trkpt lat="43.1348628" lon="-2.8022133">
        <ele>226.637</ele>
        <time>2021-04-01T09:30:22.889Z</time>
      </trkpt>
      <trkpt lat="43.1348644" lon="-2.8022138">
        <ele>226.643</ele>
        <time>2021-04-01T09:30:22.944Z</time>
      </trkpt>
      <trkpt lat="43.1348658" lon="-2.8022142">
        <ele>226.654</ele>
        <time>2021-04-01T09:30:22.999Z</time>
      </trkpt>
      <trkpt lat="43.1348674" lon="-2.8022148">
        <ele>226.692</ele>
        <time>2021-04-01T09:30:23.054Z</time>
      </trkpt>
      <trkpt lat="43.1348688" lon="-2.8022156">
        <ele>226.692</ele>
        <time>2021-04-01T09:30:23.109Z</time>
      </trkpt>
      <trkpt lat="43.1348704" lon="-2.8022161">
        <ele>226.688</ele>
        <time>2021-04-01T09:30:23.164Z</time>
      </trkpt>
      <trkpt lat="43.134872" lon="-2.8022167">
        <ele>226.741</ele>
        <time>2021-04-01T09:30:23.219Z</time>
      </trkpt>
      <trkpt lat="43.1348736" lon="-2.8022175">
        <ele>226.78</ele>
        <time>2021-04-01T09:30:23.274Z</time>
      </trkpt>
      <trkpt lat="43.134875" lon="-2.8022182">
        <ele>226.798</ele>
        <time>2021-04-01T09:30:23.329Z</time>
      </trkpt>
      <trkpt lat="43.1348766" lon="-2.802219">
        <ele>226.817</ele>
        <time>2021-04-01T09:30:23.384Z</time>
      </trkpt>
      <trkpt lat="43.1348782" lon="-2.8022196">
        <ele>226.842</ele>
        <time>2021-04-01T09:30:23.439Z</time>
      </trkpt>
      <trkpt lat="43.1348795" lon="-2.8022205">
        <ele>226.846</ele>
        <time>2021-04-01T09:30:23.494Z</time>
      </trkpt>
      <trkpt lat="43.1348811" lon="-2.8022213">
        <ele>226.832</ele>
        <time>2021-04-01T09:30:23.549Z</time>
      </trkpt>
      <trkpt lat="43.1348825" lon="-2.8022219">
        <ele>226.875</ele>
        <time>2021-04-01T09:30:23.604Z</time>
      </trkpt>
      <trkpt lat="43.1348839" lon="-2.8022227">
        <ele>226.928</ele>
        <time>2021-04-01T09:30:23.659Z</time>
      </trkpt>
      <trkpt lat="43.1348856" lon="-2.8022235">
        <ele>226.956</ele>
        <time>2021-04-01T09:30:23.711Z</time>
      </trkpt>
      <trkpt lat="43.134887" lon="-2.8022244">
        <ele>226.933</ele>
        <time>2021-04-01T09:30:23.763Z</time>
      </trkpt>
      <trkpt lat="43.1348885" lon="-2.8022252">
        <ele>226.931</ele>
        <time>2021-04-01T09:30:23.815Z</time>
      </trkpt>
      <trkpt lat="43.1348898" lon="-2.8022261">
        <ele>226.925</ele>
        <time>2021-04-01T09:30:23.867Z</time>
      </trkpt>
      <trkpt lat="43.1348915" lon="-2.8022269">
        <ele>226.935</ele>
        <time>2021-04-01T09:30:23.919Z</time>
      </trkpt>
      <trkpt lat="43.1348928" lon="-2.8022277">
        <ele>226.929</ele>
        <time>2021-04-01T09:30:23.971Z</time>
      </trkpt>
      <trkpt lat="43.134894" lon="-2.8022282">
        <ele>226.894</ele>
        <time>2021-04-01T09:30:24.023Z</time>
      </trkpt>
      <trkpt lat="43.1348952" lon="-2.8022288">
        <ele>226.902</ele>
        <time>2021-04-01T09:30:24.075Z</time>
      </trkpt>
      <trkpt lat="43.1348967" lon="-2.8022294">
        <ele>226.878</ele>
        <time>2021-04-01T09:30:24.127Z</time>
      </trkpt>
      <trkpt lat="43.1348981" lon="-2.8022301">
        <ele>226.899</ele>
        <time>2021-04-01T09:30:24.180Z</time>
      </trkpt>
      <trkpt lat="43.1348997" lon="-2.8022307">
        <ele>226.917</ele>
        <time>2021-04-01T09:30:24.232Z</time>
      </trkpt>
      <trkpt lat="43.134901" lon="-2.8022317">
        <ele>226.925</ele>
        <time>2021-04-01T09:30:24.284Z</time>
      </trkpt>
      <trkpt lat="43.1349025" lon="-2.8022323">
        <ele>226.949</ele>
        <time>2021-04-01T09:30:24.336Z</time>
      </trkpt>
      <trkpt lat="43.134904" lon="-2.8022329">
        <ele>226.982</ele>
        <time>2021-04-01T09:30:24.388Z</time>
      </trkpt>
      <trkpt lat="43.1349056" lon="-2.8022334">
        <ele>226.994</ele>
        <time>2021-04-01T09:30:24.440Z</time>
      </trkpt>
      <trkpt lat="43.1349073" lon="-2.802234">
        <ele>226.997</ele>
        <time>2021-04-01T09:30:24.492Z</time>
      </trkpt>
      <trkpt lat="43.134909" lon="-2.8022349">
        <ele>227.005</ele>
        <time>2021-04-01T09:30:24.544Z</time>
      </trkpt>
      <trkpt lat="43.1349104" lon="-2.8022353">
        <ele>227.029</ele>
        <time>2021-04-01T09:30:24.596Z</time>
      </trkpt>
      <trkpt lat="43.1349117" lon="-2.8022358">
        <ele>227.047</ele>
        <time>2021-04-01T09:30:24.649Z</time>
      </trkpt>
      <trkpt lat="43.1349133" lon="-2.8022365">
        <ele>227.064</ele>
        <time>2021-04-01T09:30:24.707Z</time>
      </trkpt>
      <trkpt lat="43.1349149" lon="-2.8022371">
        <ele>227.07</ele>
        <time>2021-04-01T09:30:24.765Z</time>
      </trkpt>
      <trkpt lat="43.1349165" lon="-2.8022376">
        <ele>227.069</ele>
        <time>2021-04-01T09:30:24.823Z</time>
      </trkpt>
      <trkpt lat="43.134918" lon="-2.8022382">
        <ele>227.065</ele>
        <time>2021-04-01T09:30:24.881Z</time>
      </trkpt>
      <trkpt lat="43.1349194" lon="-2.8022391">
        <ele>227.07</ele>
        <time>2021-04-01T09:30:24.939Z</time>
      </trkpt>
      <trkpt lat="43.1349211" lon="-2.8022397">
        <ele>227.08</ele>
        <time>2021-04-01T09:30:24.997Z</time>
      </trkpt>
      <trkpt lat="43.1349229" lon="-2.8022402">
        <ele>227.085</ele>
        <time>2021-04-01T09:30:25.055Z</time>
      </trkpt>
      <trkpt lat="43.1349244" lon="-2.802241">
        <ele>227.093</ele>
        <time>2021-04-01T09:30:25.113Z</time>
      </trkpt>
      <trkpt lat="43.134926" lon="-2.8022418">
        <ele>227.075</ele>
        <time>2021-04-01T09:30:25.171Z</time>
      </trkpt>
      <trkpt lat="43.1349274" lon="-2.8022427">
        <ele>227.109</ele>
        <time>2021-04-01T09:30:25.229Z</time>
      </trkpt>
      <trkpt lat="43.134929" lon="-2.8022432">
        <ele>227.141</ele>
        <time>2021-04-01T09:30:25.287Z</time>
      </trkpt>
      <trkpt lat="43.1349307" lon="-2.8022437">
        <ele>227.173</ele>
        <time>2021-04-01T09:30:25.345Z</time>
      </trkpt>
      <trkpt lat="43.1349325" lon="-2.8022442">
        <ele>227.239</ele>
        <time>2021-04-01T09:30:25.403Z</time>
      </trkpt>
      <trkpt lat="43.134934" lon="-2.8022449">
        <ele>227.24</ele>
        <time>2021-04-01T09:30:25.461Z</time>
      </trkpt>
      <trkpt lat="43.1349357" lon="-2.8022456">
        <ele>227.263</ele>
        <time>2021-04-01T09:30:25.519Z</time>
      </trkpt>
      <trkpt lat="43.1349373" lon="-2.802246">
        <ele>227.26</ele>
        <time>2021-04-01T09:30:25.577Z</time>
      </trkpt>
      <trkpt lat="43.1349387" lon="-2.8022467">
        <ele>227.284</ele>
        <time>2021-04-01T09:30:25.635Z</time>
      </trkpt>
      <trkpt lat="43.1349403" lon="-2.8022471">
        <ele>227.31</ele>
        <time>2021-04-01T09:30:25.694Z</time>
      </trkpt>
      <trkpt lat="43.1349416" lon="-2.8022477">
        <ele>227.32</ele>
        <time>2021-04-01T09:30:25.749Z</time>
      </trkpt>
      <trkpt lat="43.1349428" lon="-2.8022483">
        <ele>227.317</ele>
        <time>2021-04-01T09:30:25.804Z</time>
      </trkpt>
      <trkpt lat="43.1349444" lon="-2.802249">
        <ele>227.349</ele>
        <time>2021-04-01T09:30:25.859Z</time>
      </trkpt>
      <trkpt lat="43.1349461" lon="-2.8022495">
        <ele>227.382</ele>
        <time>2021-04-01T09:30:25.914Z</time>
      </trkpt>
      <trkpt lat="43.1349479" lon="-2.8022502">
        <ele>227.354</ele>
        <time>2021-04-01T09:30:25.969Z</time>
      </trkpt>
      <trkpt lat="43.1349495" lon="-2.8022508">
        <ele>227.376</ele>
        <time>2021-04-01T09:30:26.024Z</time>
      </trkpt>
      <trkpt lat="43.134951" lon="-2.8022514">
        <ele>227.397</ele>
        <time>2021-04-01T09:30:26.079Z</time>
      </trkpt>
      <trkpt lat="43.1349523" lon="-2.8022518">
        <ele>227.403</ele>
        <time>2021-04-01T09:30:26.134Z</time>
      </trkpt>
      <trkpt lat="43.1349538" lon="-2.8022522">
        <ele>227.455</ele>
        <time>2021-04-01T09:30:26.189Z</time>
      </trkpt>
      <trkpt lat="43.1349553" lon="-2.8022528">
        <ele>227.48</ele>
        <time>2021-04-01T09:30:26.244Z</time>
      </trkpt>
      <trkpt lat="43.134957" lon="-2.8022535">
        <ele>227.488</ele>
        <time>2021-04-01T09:30:26.299Z</time>
      </trkpt>
      <trkpt lat="43.1349586" lon="-2.8022538">
        <ele>227.544</ele>
        <time>2021-04-01T09:30:26.354Z</time>
      </trkpt>
      <trkpt lat="43.1349602" lon="-2.8022545">
        <ele>227.559</ele>
        <time>2021-04-01T09:30:26.409Z</time>
      </trkpt>
      <trkpt lat="43.1349617" lon="-2.8022551">
        <ele>227.581</ele>
        <time>2021-04-01T09:30:26.464Z</time>
      </trkpt>
      <trkpt lat="43.1349633" lon="-2.8022555">
        <ele>227.579</ele>
        <time>2021-04-01T09:30:26.519Z</time>
      </trkpt>
      <trkpt lat="43.1349649" lon="-2.802256">
        <ele>227.578</ele>
        <time>2021-04-01T09:30:26.574Z</time>
      </trkpt>
      <trkpt lat="43.1349663" lon="-2.8022565">
        <ele>227.572</ele>
        <time>2021-04-01T09:30:26.629Z</time>
      </trkpt>
      <trkpt lat="43.1349676" lon="-2.8022568">
        <ele>227.612</ele>
        <time>2021-04-01T09:30:26.684Z</time>
      </trkpt>
      <trkpt lat="43.1349692" lon="-2.8022572">
        <ele>227.642</ele>
        <time>2021-04-01T09:30:26.739Z</time>
      </trkpt>
      <trkpt lat="43.134971" lon="-2.8022577">
        <ele>227.69</ele>
        <time>2021-04-01T09:30:26.794Z</time>
      </trkpt>
      <trkpt lat="43.1349727" lon="-2.8022583">
        <ele>227.702</ele>
        <time>2021-04-01T09:30:26.849Z</time>
      </trkpt>
      <trkpt lat="43.1349742" lon="-2.8022586">
        <ele>227.736</ele>
        <time>2021-04-01T09:30:26.904Z</time>
      </trkpt>
      <trkpt lat="43.1349756" lon="-2.8022591">
        <ele>227.731</ele>
        <time>2021-04-01T09:30:26.959Z</time>
      </trkpt>
      <trkpt lat="43.1349771" lon="-2.8022594">
        <ele>227.79</ele>
        <time>2021-04-01T09:30:27.014Z</time>
      </trkpt>
      <trkpt lat="43.1349785" lon="-2.8022597">
        <ele>227.793</ele>
        <time>2021-04-01T09:30:27.069Z</time>
      </trkpt>
      <trkpt lat="43.1349801" lon="-2.8022603">
        <ele>227.798</ele>
        <time>2021-04-01T09:30:27.124Z</time>
      </trkpt>
      <trkpt lat="43.1349817" lon="-2.8022606">
        <ele>227.852</ele>
        <time>2021-04-01T09:30:27.179Z</time>
      </trkpt>
      <trkpt lat="43.1349834" lon="-2.802261">
        <ele>227.894</ele>
        <time>2021-04-01T09:30:27.234Z</time>
      </trkpt>
      <trkpt lat="43.1349849" lon="-2.8022615">
        <ele>227.92</ele>
        <time>2021-04-01T09:30:27.289Z</time>
      </trkpt>
      <trkpt lat="43.1349865" lon="-2.8022621">
        <ele>227.921</ele>
        <time>2021-04-01T09:30:27.344Z</time>
      </trkpt>
      <trkpt lat="43.134988" lon="-2.8022621">
        <ele>227.946</ele>
        <time>2021-04-01T09:30:27.399Z</time>
      </trkpt>
      <trkpt lat="43.1349896" lon="-2.8022625">
        <ele>228.008</ele>
        <time>2021-04-01T09:30:27.454Z</time>
      </trkpt>
      <trkpt lat="43.1349912" lon="-2.8022629">
        <ele>228.064</ele>
        <time>2021-04-01T09:30:27.509Z</time>
      </trkpt>
      <trkpt lat="43.1349927" lon="-2.8022633">
        <ele>228.085</ele>
        <time>2021-04-01T09:30:27.564Z</time>
      </trkpt>
      <trkpt lat="43.1349943" lon="-2.8022638">
        <ele>228.105</ele>
        <time>2021-04-01T09:30:27.619Z</time>
      </trkpt>
      <trkpt lat="43.1349958" lon="-2.8022645">
        <ele>228.116</ele>
        <time>2021-04-01T09:30:27.674Z</time>
      </trkpt>
      <trkpt lat="43.1349974" lon="-2.8022652">
        <ele>228.134</ele>
        <time>2021-04-01T09:30:27.729Z</time>
      </trkpt>
      <trkpt lat="43.1349988" lon="-2.802266">
        <ele>228.154</ele>
        <time>2021-04-01T09:30:27.784Z</time>
      </trkpt>
      <trkpt lat="43.1350004" lon="-2.8022667">
        <ele>228.139</ele>
        <time>2021-04-01T09:30:27.839Z</time>
      </trkpt>
      <trkpt lat="43.1350018" lon="-2.802267">
        <ele>228.163</ele>
        <time>2021-04-01T09:30:27.894Z</time>
      </trkpt>
      <trkpt lat="43.1350034" lon="-2.8022674">
        <ele>228.188</ele>
        <time>2021-04-01T09:30:27.949Z</time>
      </trkpt>
      <trkpt lat="43.1350051" lon="-2.8022681">
        <ele>228.202</ele>
        <time>2021-04-01T09:30:28.004Z</time>
      </trkpt>
      <trkpt lat="43.1350067" lon="-2.8022689">
        <ele>228.221</ele>
        <time>2021-04-01T09:30:28.059Z</time>
      </trkpt>
      <trkpt lat="43.1350085" lon="-2.8022697">
        <ele>228.223</ele>
        <time>2021-04-01T09:30:28.114Z</time>
      </trkpt>
      <trkpt lat="43.1350102" lon="-2.8022702">
        <ele>228.2</ele>
        <time>2021-04-01T09:30:28.169Z</time>
      </trkpt>
      <trkpt lat="43.1350117" lon="-2.8022706">
        <ele>228.199</ele>
        <time>2021-04-01T09:30:28.224Z</time>
      </trkpt>
      <trkpt lat="43.1350132" lon="-2.8022711">
        <ele>228.202</ele>
        <time>2021-04-01T09:30:28.279Z</time>
      </trkpt>
      <trkpt lat="43.1350147" lon="-2.8022718">
        <ele>228.207</ele>
        <time>2021-04-01T09:30:28.334Z</time>
      </trkpt>
      <trkpt lat="43.1350161" lon="-2.8022723">
        <ele>228.226</ele>
        <time>2021-04-01T09:30:28.389Z</time>
      </trkpt>
      <trkpt lat="43.1350177" lon="-2.802273">
        <ele>228.256</ele>
        <time>2021-04-01T09:30:28.444Z</time>
      </trkpt>
      <trkpt lat="43.1350194" lon="-2.8022736">
        <ele>228.22</ele>
        <time>2021-04-01T09:30:28.499Z</time>
      </trkpt>
      <trkpt lat="43.1350209" lon="-2.8022743">
        <ele>228.208</ele>
        <time>2021-04-01T09:30:28.554Z</time>
      </trkpt>
      <trkpt lat="43.1350224" lon="-2.8022749">
        <ele>228.225</ele>
        <time>2021-04-01T09:30:28.609Z</time>
      </trkpt>
      <trkpt lat="43.1350239" lon="-2.8022754">
        <ele>228.218</ele>
        <time>2021-04-01T09:30:28.664Z</time>
      </trkpt>
      <trkpt lat="43.1350253" lon="-2.802276">
        <ele>228.246</ele>
        <time>2021-04-01T09:30:28.719Z</time>
      </trkpt>
      <trkpt lat="43.1350269" lon="-2.8022765">
        <ele>228.269</ele>
        <time>2021-04-01T09:30:28.774Z</time>
      </trkpt>
      <trkpt lat="43.1350286" lon="-2.802277">
        <ele>228.279</ele>
        <time>2021-04-01T09:30:28.829Z</time>
      </trkpt>
      <trkpt lat="43.1350303" lon="-2.8022775">
        <ele>228.291</ele>
        <time>2021-04-01T09:30:28.884Z</time>
      </trkpt>
      <trkpt lat="43.1350319" lon="-2.802278">
        <ele>228.285</ele>
        <time>2021-04-01T09:30:28.939Z</time>
      </trkpt>
      <trkpt lat="43.1350335" lon="-2.8022786">
        <ele>228.301</ele>
        <time>2021-04-01T09:30:28.994Z</time>
      </trkpt>
      <trkpt lat="43.135035" lon="-2.8022789">
        <ele>228.314</ele>
        <time>2021-04-01T09:30:29.049Z</time>
      </trkpt>
      <trkpt lat="43.1350364" lon="-2.8022792">
        <ele>228.312</ele>
        <time>2021-04-01T09:30:29.104Z</time>
      </trkpt>
      <trkpt lat="43.1350379" lon="-2.8022802">
        <ele>228.283</ele>
        <time>2021-04-01T09:30:29.159Z</time>
      </trkpt>
      <trkpt lat="43.1350395" lon="-2.802281">
        <ele>228.277</ele>
        <time>2021-04-01T09:30:29.214Z</time>
      </trkpt>
      <trkpt lat="43.1350411" lon="-2.8022811">
        <ele>228.321</ele>
        <time>2021-04-01T09:30:29.269Z</time>
      </trkpt>
      <trkpt lat="43.135043" lon="-2.802282">
        <ele>228.271</ele>
        <time>2021-04-01T09:30:29.324Z</time>
      </trkpt>
      <trkpt lat="43.1350448" lon="-2.8022828">
        <ele>228.257</ele>
        <time>2021-04-01T09:30:29.379Z</time>
      </trkpt>
      <trkpt lat="43.1350464" lon="-2.8022837">
        <ele>228.226</ele>
        <time>2021-04-01T09:30:29.434Z</time>
      </trkpt>
      <trkpt lat="43.1350479" lon="-2.8022842">
        <ele>228.26</ele>
        <time>2021-04-01T09:30:29.489Z</time>
      </trkpt>
      <trkpt lat="43.1350496" lon="-2.8022848">
        <ele>228.296</ele>
        <time>2021-04-01T09:30:29.544Z</time>
      </trkpt>
      <trkpt lat="43.1350511" lon="-2.802285">
        <ele>228.329</ele>
        <time>2021-04-01T09:30:29.599Z</time>
      </trkpt>
      <trkpt lat="43.1350528" lon="-2.8022854">
        <ele>228.344</ele>
        <time>2021-04-01T09:30:29.654Z</time>
      </trkpt>
      <trkpt lat="43.1350546" lon="-2.8022858">
        <ele>228.366</ele>
        <time>2021-04-01T09:30:29.709Z</time>
      </trkpt>
      <trkpt lat="43.1350562" lon="-2.8022866">
        <ele>228.37</ele>
        <time>2021-04-01T09:30:29.764Z</time>
      </trkpt>
      <trkpt lat="43.1350578" lon="-2.8022873">
        <ele>228.363</ele>
        <time>2021-04-01T09:30:29.819Z</time>
      </trkpt>
      <trkpt lat="43.1350593" lon="-2.8022876">
        <ele>228.393</ele>
        <time>2021-04-01T09:30:29.874Z</time>
      </trkpt>
      <trkpt lat="43.1350609" lon="-2.8022879">
        <ele>228.424</ele>
        <time>2021-04-01T09:30:29.929Z</time>
      </trkpt>
      <trkpt lat="43.1350627" lon="-2.8022883">
        <ele>228.463</ele>
        <time>2021-04-01T09:30:29.984Z</time>
      </trkpt>
      <trkpt lat="43.1350641" lon="-2.8022888">
        <ele>228.486</ele>
        <time>2021-04-01T09:30:30.039Z</time>
      </trkpt>
      <trkpt lat="43.1350656" lon="-2.8022893">
        <ele>228.502</ele>
        <time>2021-04-01T09:30:30.094Z</time>
      </trkpt>
      <trkpt lat="43.1350675" lon="-2.8022899">
        <ele>228.477</ele>
        <time>2021-04-01T09:30:30.149Z</time>
      </trkpt>
      <trkpt lat="43.1350692" lon="-2.8022903">
        <ele>228.507</ele>
        <time>2021-04-01T09:30:30.204Z</time>
      </trkpt>
      <trkpt lat="43.1350707" lon="-2.8022909">
        <ele>228.541</ele>
        <time>2021-04-01T09:30:30.259Z</time>
      </trkpt>
      <trkpt lat="43.1350723" lon="-2.8022915">
        <ele>228.528</ele>
        <time>2021-04-01T09:30:30.314Z</time>
      </trkpt>
      <trkpt lat="43.1350737" lon="-2.8022921">
        <ele>228.557</ele>
        <time>2021-04-01T09:30:30.369Z</time>
      </trkpt>
      <trkpt lat="43.1350753" lon="-2.8022925">
        <ele>228.54</ele>
        <time>2021-04-01T09:30:30.424Z</time>
      </trkpt>
      <trkpt lat="43.1350768" lon="-2.802293">
        <ele>228.526</ele>
        <time>2021-04-01T09:30:30.479Z</time>
      </trkpt>
      <trkpt lat="43.1350785" lon="-2.8022936">
        <ele>228.52</ele>
        <time>2021-04-01T09:30:30.534Z</time>
      </trkpt>
      <trkpt lat="43.1350803" lon="-2.8022941">
        <ele>228.523</ele>
        <time>2021-04-01T09:30:30.589Z</time>
      </trkpt>
      <trkpt lat="43.1350819" lon="-2.8022946">
        <ele>228.535</ele>
        <time>2021-04-01T09:30:30.644Z</time>
      </trkpt>
      <trkpt lat="43.1350835" lon="-2.8022951">
        <ele>228.541</ele>
        <time>2021-04-01T09:30:30.699Z</time>
      </trkpt>
      <trkpt lat="43.1350851" lon="-2.8022954">
        <ele>228.523</ele>
        <time>2021-04-01T09:30:30.754Z</time>
      </trkpt>
      <trkpt lat="43.1350866" lon="-2.8022958">
        <ele>228.518</ele>
        <time>2021-04-01T09:30:30.809Z</time>
      </trkpt>
      <trkpt lat="43.1350882" lon="-2.8022962">
        <ele>228.553</ele>
        <time>2021-04-01T09:30:30.864Z</time>
      </trkpt>
      <trkpt lat="43.1350897" lon="-2.8022965">
        <ele>228.567</ele>
        <time>2021-04-01T09:30:30.919Z</time>
      </trkpt>
      <trkpt lat="43.1350915" lon="-2.8022969">
        <ele>228.594</ele>
        <time>2021-04-01T09:30:30.974Z</time>
      </trkpt>
      <trkpt lat="43.1350933" lon="-2.8022973">
        <ele>228.619</ele>
        <time>2021-04-01T09:30:31.029Z</time>
      </trkpt>
      <trkpt lat="43.135095" lon="-2.8022978">
        <ele>228.637</ele>
        <time>2021-04-01T09:30:31.084Z</time>
      </trkpt>
      <trkpt lat="43.1350965" lon="-2.8022985">
        <ele>228.632</ele>
        <time>2021-04-01T09:30:31.139Z</time>
      </trkpt>
      <trkpt lat="43.135098" lon="-2.802299">
        <ele>228.632</ele>
        <time>2021-04-01T09:30:31.194Z</time>
      </trkpt>
      <trkpt lat="43.1350996" lon="-2.8022996">
        <ele>228.627</ele>
        <time>2021-04-01T09:30:31.249Z</time>
      </trkpt>
      <trkpt lat="43.1351012" lon="-2.8023002">
        <ele>228.654</ele>
        <time>2021-04-01T09:30:31.304Z</time>
      </trkpt>
      <trkpt lat="43.1351028" lon="-2.8023007">
        <ele>228.642</ele>
        <time>2021-04-01T09:30:31.359Z</time>
      </trkpt>
      <trkpt lat="43.1351045" lon="-2.8023014">
        <ele>228.627</ele>
        <time>2021-04-01T09:30:31.414Z</time>
      </trkpt>
      <trkpt lat="43.1351062" lon="-2.8023019">
        <ele>228.665</ele>
        <time>2021-04-01T09:30:31.469Z</time>
      </trkpt>
      <trkpt lat="43.1351078" lon="-2.8023026">
        <ele>228.665</ele>
        <time>2021-04-01T09:30:31.524Z</time>
      </trkpt>
      <trkpt lat="43.1351094" lon="-2.8023033">
        <ele>228.646</ele>
        <time>2021-04-01T09:30:31.579Z</time>
      </trkpt>
      <trkpt lat="43.135111" lon="-2.8023038">
        <ele>228.647</ele>
        <time>2021-04-01T09:30:31.634Z</time>
      </trkpt>
      <trkpt lat="43.1351125" lon="-2.8023043">
        <ele>228.658</ele>
        <time>2021-04-01T09:30:31.689Z</time>
      </trkpt>
      <trkpt lat="43.1351141" lon="-2.8023048">
        <ele>228.684</ele>
        <time>2021-04-01T09:30:31.747Z</time>
      </trkpt>
      <trkpt lat="43.1351156" lon="-2.8023056">
        <ele>228.687</ele>
        <time>2021-04-01T09:30:31.805Z</time>
      </trkpt>
      <trkpt lat="43.1351173" lon="-2.8023062">
        <ele>228.708</ele>
        <time>2021-04-01T09:30:31.863Z</time>
      </trkpt>
      <trkpt lat="43.1351192" lon="-2.8023067">
        <ele>228.729</ele>
        <time>2021-04-01T09:30:31.921Z</time>
      </trkpt>
      <trkpt lat="43.1351208" lon="-2.8023074">
        <ele>228.749</ele>
        <time>2021-04-01T09:30:31.979Z</time>
      </trkpt>
      <trkpt lat="43.1351222" lon="-2.8023082">
        <ele>228.769</ele>
        <time>2021-04-01T09:30:32.037Z</time>
      </trkpt>
      <trkpt lat="43.1351238" lon="-2.8023085">
        <ele>228.765</ele>
        <time>2021-04-01T09:30:32.095Z</time>
      </trkpt>
      <trkpt lat="43.1351253" lon="-2.8023089">
        <ele>228.811</ele>
        <time>2021-04-01T09:30:32.153Z</time>
      </trkpt>
      <trkpt lat="43.1351269" lon="-2.8023093">
        <ele>228.826</ele>
        <time>2021-04-01T09:30:32.211Z</time>
      </trkpt>
      <trkpt lat="43.1351286" lon="-2.8023097">
        <ele>228.834</ele>
        <time>2021-04-01T09:30:32.269Z</time>
      </trkpt>
      <trkpt lat="43.1351302" lon="-2.8023106">
        <ele>228.847</ele>
        <time>2021-04-01T09:30:32.327Z</time>
      </trkpt>
      <trkpt lat="43.1351319" lon="-2.8023108">
        <ele>228.862</ele>
        <time>2021-04-01T09:30:32.385Z</time>
      </trkpt>
      <trkpt lat="43.1351334" lon="-2.802311">
        <ele>228.87</ele>
        <time>2021-04-01T09:30:32.443Z</time>
      </trkpt>
      <trkpt lat="43.1351349" lon="-2.8023114">
        <ele>228.884</ele>
        <time>2021-04-01T09:30:32.501Z</time>
      </trkpt>
      <trkpt lat="43.1351363" lon="-2.8023117">
        <ele>228.915</ele>
        <time>2021-04-01T09:30:32.559Z</time>
      </trkpt>
      <trkpt lat="43.1351379" lon="-2.8023119">
        <ele>228.93</ele>
        <time>2021-04-01T09:30:32.617Z</time>
      </trkpt>
      <trkpt lat="43.1351394" lon="-2.8023123">
        <ele>228.94</ele>
        <time>2021-04-01T09:30:32.675Z</time>
      </trkpt>
      <trkpt lat="43.1351408" lon="-2.8023127">
        <ele>228.96</ele>
        <time>2021-04-01T09:30:32.734Z</time>
      </trkpt>
      <trkpt lat="43.1351423" lon="-2.8023131">
        <ele>229.014</ele>
        <time>2021-04-01T09:30:32.783Z</time>
      </trkpt>
      <trkpt lat="43.1351439" lon="-2.8023134">
        <ele>229.035</ele>
        <time>2021-04-01T09:30:32.832Z</time>
      </trkpt>
      <trkpt lat="43.1351454" lon="-2.8023139">
        <ele>229.087</ele>
        <time>2021-04-01T09:30:32.881Z</time>
      </trkpt>
      <trkpt lat="43.1351468" lon="-2.8023144">
        <ele>229.116</ele>
        <time>2021-04-01T09:30:32.930Z</time>
      </trkpt>
      <trkpt lat="43.1351482" lon="-2.8023149">
        <ele>229.129</ele>
        <time>2021-04-01T09:30:32.980Z</time>
      </trkpt>
      <trkpt lat="43.1351496" lon="-2.8023153">
        <ele>229.151</ele>
        <time>2021-04-01T09:30:33.029Z</time>
      </trkpt>
      <trkpt lat="43.135151" lon="-2.8023156">
        <ele>229.161</ele>
        <time>2021-04-01T09:30:33.078Z</time>
      </trkpt>
      <trkpt lat="43.1351524" lon="-2.8023161">
        <ele>229.173</ele>
        <time>2021-04-01T09:30:33.127Z</time>
      </trkpt>
      <trkpt lat="43.1351541" lon="-2.8023165">
        <ele>229.221</ele>
        <time>2021-04-01T09:30:33.176Z</time>
      </trkpt>
      <trkpt lat="43.1351559" lon="-2.8023171">
        <ele>229.276</ele>
        <time>2021-04-01T09:30:33.226Z</time>
      </trkpt>
      <trkpt lat="43.1351574" lon="-2.8023175">
        <ele>229.29</ele>
        <time>2021-04-01T09:30:33.275Z</time>
      </trkpt>
      <trkpt lat="43.1351589" lon="-2.802318">
        <ele>229.277</ele>
        <time>2021-04-01T09:30:33.324Z</time>
      </trkpt>
      <trkpt lat="43.1351603" lon="-2.8023184">
        <ele>229.283</ele>
        <time>2021-04-01T09:30:33.373Z</time>
      </trkpt>
      <trkpt lat="43.1351618" lon="-2.8023187">
        <ele>229.292</ele>
        <time>2021-04-01T09:30:33.422Z</time>
      </trkpt>
      <trkpt lat="43.1351631" lon="-2.8023192">
        <ele>229.303</ele>
        <time>2021-04-01T09:30:33.472Z</time>
      </trkpt>
      <trkpt lat="43.1351647" lon="-2.8023197">
        <ele>229.314</ele>
        <time>2021-04-01T09:30:33.521Z</time>
      </trkpt>
      <trkpt lat="43.1351665" lon="-2.8023202">
        <ele>229.313</ele>
        <time>2021-04-01T09:30:33.570Z</time>
      </trkpt>
      <trkpt lat="43.1351683" lon="-2.802321">
        <ele>229.306</ele>
        <time>2021-04-01T09:30:33.619Z</time>
      </trkpt>
      <trkpt lat="43.1351699" lon="-2.8023215">
        <ele>229.315</ele>
        <time>2021-04-01T09:30:33.669Z</time>
      </trkpt>
      <trkpt lat="43.1351714" lon="-2.8023222">
        <ele>229.324</ele>
        <time>2021-04-01T09:30:33.727Z</time>
      </trkpt>
      <trkpt lat="43.1351729" lon="-2.8023228">
        <ele>229.324</ele>
        <time>2021-04-01T09:30:33.785Z</time>
      </trkpt>
      <trkpt lat="43.1351743" lon="-2.8023233">
        <ele>229.32</ele>
        <time>2021-04-01T09:30:33.843Z</time>
      </trkpt>
      <trkpt lat="43.1351759" lon="-2.8023238">
        <ele>229.324</ele>
        <time>2021-04-01T09:30:33.901Z</time>
      </trkpt>
      <trkpt lat="43.1351774" lon="-2.8023242">
        <ele>229.328</ele>
        <time>2021-04-01T09:30:33.959Z</time>
      </trkpt>
      <trkpt lat="43.1351788" lon="-2.8023248">
        <ele>229.347</ele>
        <time>2021-04-01T09:30:34.017Z</time>
      </trkpt>
      <trkpt lat="43.1351803" lon="-2.8023254">
        <ele>229.373</ele>
        <time>2021-04-01T09:30:34.075Z</time>
      </trkpt>
      <trkpt lat="43.1351817" lon="-2.802326">
        <ele>229.376</ele>
        <time>2021-04-01T09:30:34.133Z</time>
      </trkpt>
      <trkpt lat="43.1351831" lon="-2.8023265">
        <ele>229.386</ele>
        <time>2021-04-01T09:30:34.191Z</time>
      </trkpt>
      <trkpt lat="43.1351844" lon="-2.8023268">
        <ele>229.375</ele>
        <time>2021-04-01T09:30:34.249Z</time>
      </trkpt>
      <trkpt lat="43.1351858" lon="-2.8023272">
        <ele>229.383</ele>
        <time>2021-04-01T09:30:34.307Z</time>
      </trkpt>
      <trkpt lat="43.1351871" lon="-2.8023278">
        <ele>229.398</ele>
        <time>2021-04-01T09:30:34.365Z</time>
      </trkpt>
      <trkpt lat="43.1351885" lon="-2.8023283">
        <ele>229.418</ele>
        <time>2021-04-01T09:30:34.423Z</time>
      </trkpt>
      <trkpt lat="43.1351899" lon="-2.8023288">
        <ele>229.412</ele>
        <time>2021-04-01T09:30:34.481Z</time>
      </trkpt>
      <trkpt lat="43.1351913" lon="-2.8023292">
        <ele>229.431</ele>
        <time>2021-04-01T09:30:34.539Z</time>
      </trkpt>
      <trkpt lat="43.1351926" lon="-2.8023297">
        <ele>229.415</ele>
        <time>2021-04-01T09:30:34.597Z</time>
      </trkpt>
      <trkpt lat="43.1351938" lon="-2.8023303">
        <ele>229.425</ele>
        <time>2021-04-01T09:30:34.655Z</time>
      </trkpt>
      <trkpt lat="43.1351951" lon="-2.8023307">
        <ele>229.442</ele>
        <time>2021-04-01T09:30:34.714Z</time>
      </trkpt>
      <trkpt lat="43.1351964" lon="-2.8023312">
        <ele>229.472</ele>
        <time>2021-04-01T09:30:34.769Z</time>
      </trkpt>
      <trkpt lat="43.1351978" lon="-2.8023315">
        <ele>229.462</ele>
        <time>2021-04-01T09:30:34.824Z</time>
      </trkpt>
      <trkpt lat="43.1351991" lon="-2.8023323">
        <ele>229.454</ele>
        <time>2021-04-01T09:30:34.879Z</time>
      </trkpt>
      <trkpt lat="43.1352004" lon="-2.802333">
        <ele>229.466</ele>
        <time>2021-04-01T09:30:34.934Z</time>
      </trkpt>
      <trkpt lat="43.1352014" lon="-2.8023337">
        <ele>229.485</ele>
        <time>2021-04-01T09:30:34.989Z</time>
      </trkpt>
      <trkpt lat="43.1352026" lon="-2.8023341">
        <ele>229.514</ele>
        <time>2021-04-01T09:30:35.044Z</time>
      </trkpt>
      <trkpt lat="43.1352038" lon="-2.8023344">
        <ele>229.519</ele>
        <time>2021-04-01T09:30:35.099Z</time>
      </trkpt>
      <trkpt lat="43.135205" lon="-2.8023348">
        <ele>229.526</ele>
        <time>2021-04-01T09:30:35.154Z</time>
      </trkpt>
      <trkpt lat="43.1352061" lon="-2.8023352">
        <ele>229.539</ele>
        <time>2021-04-01T09:30:35.209Z</time>
      </trkpt>
      <trkpt lat="43.1352073" lon="-2.8023358">
        <ele>229.552</ele>
        <time>2021-04-01T09:30:35.264Z</time>
      </trkpt>
      <trkpt lat="43.1352086" lon="-2.8023363">
        <ele>229.576</ele>
        <time>2021-04-01T09:30:35.319Z</time>
      </trkpt>
      <trkpt lat="43.13521" lon="-2.8023367">
        <ele>229.621</ele>
        <time>2021-04-01T09:30:35.374Z</time>
      </trkpt>
      <trkpt lat="43.1352112" lon="-2.8023372">
        <ele>229.658</ele>
        <time>2021-04-01T09:30:35.429Z</time>
      </trkpt>
      <trkpt lat="43.1352125" lon="-2.8023377">
        <ele>229.676</ele>
        <time>2021-04-01T09:30:35.484Z</time>
      </trkpt>
      <trkpt lat="43.135214" lon="-2.802338">
        <ele>229.688</ele>
        <time>2021-04-01T09:30:35.539Z</time>
      </trkpt>
      <trkpt lat="43.1352156" lon="-2.8023384">
        <ele>229.706</ele>
        <time>2021-04-01T09:30:35.594Z</time>
      </trkpt>
      <trkpt lat="43.1352169" lon="-2.8023388">
        <ele>229.707</ele>
        <time>2021-04-01T09:30:35.649Z</time>
      </trkpt>
      <trkpt lat="43.1352183" lon="-2.8023392">
        <ele>229.758</ele>
        <time>2021-04-01T09:30:35.704Z</time>
      </trkpt>
      <trkpt lat="43.1352195" lon="-2.8023394">
        <ele>229.79</ele>
        <time>2021-04-01T09:30:35.759Z</time>
      </trkpt>
      <trkpt lat="43.1352208" lon="-2.8023398">
        <ele>229.794</ele>
        <time>2021-04-01T09:30:35.814Z</time>
      </trkpt>
      <trkpt lat="43.135222" lon="-2.8023401">
        <ele>229.807</ele>
        <time>2021-04-01T09:30:35.869Z</time>
      </trkpt>
      <trkpt lat="43.1352233" lon="-2.8023406">
        <ele>229.813</ele>
        <time>2021-04-01T09:30:35.924Z</time>
      </trkpt>
      <trkpt lat="43.1352245" lon="-2.8023409">
        <ele>229.84</ele>
        <time>2021-04-01T09:30:35.979Z</time>
      </trkpt>
      <trkpt lat="43.1352257" lon="-2.8023411">
        <ele>229.859</ele>
        <time>2021-04-01T09:30:36.034Z</time>
      </trkpt>
      <trkpt lat="43.135227" lon="-2.8023414">
        <ele>229.86</ele>
        <time>2021-04-01T09:30:36.089Z</time>
      </trkpt>
      <trkpt lat="43.1352285" lon="-2.8023419">
        <ele>229.869</ele>
        <time>2021-04-01T09:30:36.144Z</time>
      </trkpt>
      <trkpt lat="43.13523" lon="-2.8023423">
        <ele>229.876</ele>
        <time>2021-04-01T09:30:36.199Z</time>
      </trkpt>
      <trkpt lat="43.1352312" lon="-2.8023427">
        <ele>229.887</ele>
        <time>2021-04-01T09:30:36.254Z</time>
      </trkpt>
      <trkpt lat="43.1352325" lon="-2.8023431">
        <ele>229.899</ele>
        <time>2021-04-01T09:30:36.309Z</time>
      </trkpt>
      <trkpt lat="43.1352338" lon="-2.8023434">
        <ele>229.885</ele>
        <time>2021-04-01T09:30:36.364Z</time>
      </trkpt>
      <trkpt lat="43.1352349" lon="-2.8023442">
        <ele>229.86</ele>
        <time>2021-04-01T09:30:36.419Z</time>
      </trkpt>
      <trkpt lat="43.1352362" lon="-2.8023447">
        <ele>229.872</ele>
        <time>2021-04-01T09:30:36.474Z</time>
      </trkpt>
      <trkpt lat="43.1352374" lon="-2.8023453">
        <ele>229.863</ele>
        <time>2021-04-01T09:30:36.529Z</time>
      </trkpt>
      <trkpt lat="43.1352386" lon="-2.8023461">
        <ele>229.869</ele>
        <time>2021-04-01T09:30:36.584Z</time>
      </trkpt>
      <trkpt lat="43.1352399" lon="-2.8023464">
        <ele>229.855</ele>
        <time>2021-04-01T09:30:36.639Z</time>
      </trkpt>
      <trkpt lat="43.1352414" lon="-2.8023469">
        <ele>229.86</ele>
        <time>2021-04-01T09:30:36.694Z</time>
      </trkpt>
      <trkpt lat="43.135243" lon="-2.8023474">
        <ele>229.87</ele>
        <time>2021-04-01T09:30:36.749Z</time>
      </trkpt>
      <trkpt lat="43.1352441" lon="-2.8023479">
        <ele>229.87</ele>
        <time>2021-04-01T09:30:36.804Z</time>
      </trkpt>
      <trkpt lat="43.1352456" lon="-2.8023483">
        <ele>229.882</ele>
        <time>2021-04-01T09:30:36.859Z</time>
      </trkpt>
      <trkpt lat="43.1352472" lon="-2.8023489">
        <ele>229.913</ele>
        <time>2021-04-01T09:30:36.914Z</time>
      </trkpt>
      <trkpt lat="43.1352486" lon="-2.8023497">
        <ele>229.956</ele>
        <time>2021-04-01T09:30:36.969Z</time>
      </trkpt>
      <trkpt lat="43.1352495" lon="-2.8023502">
        <ele>229.912</ele>
        <time>2021-04-01T09:30:37.024Z</time>
      </trkpt>
      <trkpt lat="43.1352507" lon="-2.8023507">
        <ele>229.876</ele>
        <time>2021-04-01T09:30:37.079Z</time>
      </trkpt>
      <trkpt lat="43.1352519" lon="-2.8023511">
        <ele>229.885</ele>
        <time>2021-04-01T09:30:37.134Z</time>
      </trkpt>
      <trkpt lat="43.1352531" lon="-2.8023516">
        <ele>229.917</ele>
        <time>2021-04-01T09:30:37.189Z</time>
      </trkpt>
      <trkpt lat="43.1352544" lon="-2.8023521">
        <ele>229.913</ele>
        <time>2021-04-01T09:30:37.244Z</time>
      </trkpt>
      <trkpt lat="43.1352557" lon="-2.8023527">
        <ele>229.906</ele>
        <time>2021-04-01T09:30:37.299Z</time>
      </trkpt>
      <trkpt lat="43.135257" lon="-2.802353">
        <ele>229.936</ele>
        <time>2021-04-01T09:30:37.354Z</time>
      </trkpt>
      <trkpt lat="43.1352585" lon="-2.8023534">
        <ele>229.951</ele>
        <time>2021-04-01T09:30:37.409Z</time>
      </trkpt>
      <trkpt lat="43.1352601" lon="-2.802354">
        <ele>229.955</ele>
        <time>2021-04-01T09:30:37.464Z</time>
      </trkpt>
      <trkpt lat="43.1352617" lon="-2.8023547">
        <ele>229.982</ele>
        <time>2021-04-01T09:30:37.519Z</time>
      </trkpt>
      <trkpt lat="43.1352632" lon="-2.8023553">
        <ele>230.055</ele>
        <time>2021-04-01T09:30:37.574Z</time>
      </trkpt>
      <trkpt lat="43.1352647" lon="-2.8023559">
        <ele>230.077</ele>
        <time>2021-04-01T09:30:37.629Z</time>
      </trkpt>
      <trkpt lat="43.1352665" lon="-2.802356">
        <ele>230.082</ele>
        <time>2021-04-01T09:30:37.684Z</time>
      </trkpt>
      <trkpt lat="43.1352682" lon="-2.8023567">
        <ele>230.085</ele>
        <time>2021-04-01T09:30:37.739Z</time>
      </trkpt>
      <trkpt lat="43.1352695" lon="-2.8023573">
        <ele>230.036</ele>
        <time>2021-04-01T09:30:37.794Z</time>
      </trkpt>
      <trkpt lat="43.1352709" lon="-2.802358">
        <ele>230.079</ele>
        <time>2021-04-01T09:30:37.849Z</time>
      </trkpt>
      <trkpt lat="43.1352723" lon="-2.8023585">
        <ele>230.099</ele>
        <time>2021-04-01T09:30:37.904Z</time>
      </trkpt>
      <trkpt lat="43.1352738" lon="-2.8023591">
        <ele>230.112</ele>
        <time>2021-04-01T09:30:37.959Z</time>
      </trkpt>
      <trkpt lat="43.1352751" lon="-2.8023598">
        <ele>230.119</ele>
        <time>2021-04-01T09:30:38.014Z</time>
      </trkpt>
      <trkpt lat="43.1352767" lon="-2.8023605">
        <ele>230.116</ele>
        <time>2021-04-01T09:30:38.069Z</time>
      </trkpt>
      <trkpt lat="43.1352782" lon="-2.8023613">
        <ele>230.166</ele>
        <time>2021-04-01T09:30:38.124Z</time>
      </trkpt>
      <trkpt lat="43.1352796" lon="-2.8023623">
        <ele>230.196</ele>
        <time>2021-04-01T09:30:38.179Z</time>
      </trkpt>
      <trkpt lat="43.135281" lon="-2.8023634">
        <ele>230.217</ele>
        <time>2021-04-01T09:30:38.234Z</time>
      </trkpt>
      <trkpt lat="43.1352825" lon="-2.8023643">
        <ele>230.212</ele>
        <time>2021-04-01T09:30:38.289Z</time>
      </trkpt>
      <trkpt lat="43.135284" lon="-2.8023648">
        <ele>230.239</ele>
        <time>2021-04-01T09:30:38.344Z</time>
      </trkpt>
      <trkpt lat="43.1352856" lon="-2.8023652">
        <ele>230.269</ele>
        <time>2021-04-01T09:30:38.399Z</time>
      </trkpt>
      <trkpt lat="43.135287" lon="-2.8023661">
        <ele>230.295</ele>
        <time>2021-04-01T09:30:38.454Z</time>
      </trkpt>
      <trkpt lat="43.1352884" lon="-2.8023669">
        <ele>230.298</ele>
        <time>2021-04-01T09:30:38.509Z</time>
      </trkpt>
      <trkpt lat="43.1352897" lon="-2.8023674">
        <ele>230.293</ele>
        <time>2021-04-01T09:30:38.564Z</time>
      </trkpt>
      <trkpt lat="43.1352912" lon="-2.802368">
        <ele>230.28</ele>
        <time>2021-04-01T09:30:38.619Z</time>
      </trkpt>
      <trkpt lat="43.1352926" lon="-2.8023688">
        <ele>230.289</ele>
        <time>2021-04-01T09:30:38.674Z</time>
      </trkpt>
      <trkpt lat="43.1352943" lon="-2.8023698">
        <ele>230.307</ele>
        <time>2021-04-01T09:30:38.729Z</time>
      </trkpt>
      <trkpt lat="43.1352957" lon="-2.8023707">
        <ele>230.336</ele>
        <time>2021-04-01T09:30:38.784Z</time>
      </trkpt>
      <trkpt lat="43.1352972" lon="-2.8023716">
        <ele>230.378</ele>
        <time>2021-04-01T09:30:38.839Z</time>
      </trkpt>
      <trkpt lat="43.1352987" lon="-2.8023725">
        <ele>230.396</ele>
        <time>2021-04-01T09:30:38.894Z</time>
      </trkpt>
      <trkpt lat="43.1353003" lon="-2.8023734">
        <ele>230.377</ele>
        <time>2021-04-01T09:30:38.949Z</time>
      </trkpt>
      <trkpt lat="43.1353018" lon="-2.8023745">
        <ele>230.36</ele>
        <time>2021-04-01T09:30:39.004Z</time>
      </trkpt>
      <trkpt lat="43.1353032" lon="-2.8023756">
        <ele>230.357</ele>
        <time>2021-04-01T09:30:39.059Z</time>
      </trkpt>
      <trkpt lat="43.1353047" lon="-2.8023765">
        <ele>230.36</ele>
        <time>2021-04-01T09:30:39.114Z</time>
      </trkpt>
      <trkpt lat="43.135306" lon="-2.8023775">
        <ele>230.35</ele>
        <time>2021-04-01T09:30:39.169Z</time>
      </trkpt>
      <trkpt lat="43.1353075" lon="-2.8023779">
        <ele>230.357</ele>
        <time>2021-04-01T09:30:39.224Z</time>
      </trkpt>
      <trkpt lat="43.1353088" lon="-2.8023788">
        <ele>230.368</ele>
        <time>2021-04-01T09:30:39.279Z</time>
      </trkpt>
      <trkpt lat="43.1353101" lon="-2.8023797">
        <ele>230.38</ele>
        <time>2021-04-01T09:30:39.334Z</time>
      </trkpt>
      <trkpt lat="43.1353114" lon="-2.8023808">
        <ele>230.392</ele>
        <time>2021-04-01T09:30:39.389Z</time>
      </trkpt>
      <trkpt lat="43.1353129" lon="-2.802382">
        <ele>230.39</ele>
        <time>2021-04-01T09:30:39.444Z</time>
      </trkpt>
      <trkpt lat="43.1353144" lon="-2.8023827">
        <ele>230.441</ele>
        <time>2021-04-01T09:30:39.499Z</time>
      </trkpt>
      <trkpt lat="43.135316" lon="-2.802384">
        <ele>230.432</ele>
        <time>2021-04-01T09:30:39.554Z</time>
      </trkpt>
      <trkpt lat="43.1353174" lon="-2.8023852">
        <ele>230.468</ele>
        <time>2021-04-01T09:30:39.609Z</time>
      </trkpt>
      <trkpt lat="43.1353187" lon="-2.8023862">
        <ele>230.498</ele>
        <time>2021-04-01T09:30:39.664Z</time>
      </trkpt>
      <trkpt lat="43.1353201" lon="-2.8023871">
        <ele>230.493</ele>
        <time>2021-04-01T09:30:39.719Z</time>
      </trkpt>
      <trkpt lat="43.1353212" lon="-2.8023883">
        <ele>230.495</ele>
        <time>2021-04-01T09:30:39.770Z</time>
      </trkpt>
      <trkpt lat="43.1353222" lon="-2.8023896">
        <ele>230.504</ele>
        <time>2021-04-01T09:30:39.822Z</time>
      </trkpt>
      <trkpt lat="43.1353238" lon="-2.8023903">
        <ele>230.551</ele>
        <time>2021-04-01T09:30:39.874Z</time>
      </trkpt>
      <trkpt lat="43.1353251" lon="-2.8023913">
        <ele>230.588</ele>
        <time>2021-04-01T09:30:39.926Z</time>
      </trkpt>
      <trkpt lat="43.1353264" lon="-2.8023922">
        <ele>230.579</ele>
        <time>2021-04-01T09:30:39.978Z</time>
      </trkpt>
      <trkpt lat="43.1353276" lon="-2.8023932">
        <ele>230.555</ele>
        <time>2021-04-01T09:30:40.030Z</time>
      </trkpt>
      <trkpt lat="43.1353291" lon="-2.802394">
        <ele>230.568</ele>
        <time>2021-04-01T09:30:40.082Z</time>
      </trkpt>
      <trkpt lat="43.1353307" lon="-2.8023949">
        <ele>230.605</ele>
        <time>2021-04-01T09:30:40.134Z</time>
      </trkpt>
      <trkpt lat="43.1353321" lon="-2.8023961">
        <ele>230.619</ele>
        <time>2021-04-01T09:30:40.186Z</time>
      </trkpt>
      <trkpt lat="43.1353336" lon="-2.8023969">
        <ele>230.596</ele>
        <time>2021-04-01T09:30:40.238Z</time>
      </trkpt>
      <trkpt lat="43.135335" lon="-2.8023979">
        <ele>230.59</ele>
        <time>2021-04-01T09:30:40.290Z</time>
      </trkpt>
      <trkpt lat="43.1353362" lon="-2.8023989">
        <ele>230.639</ele>
        <time>2021-04-01T09:30:40.342Z</time>
      </trkpt>
      <trkpt lat="43.1353375" lon="-2.8024001">
        <ele>230.687</ele>
        <time>2021-04-01T09:30:40.394Z</time>
      </trkpt>
      <trkpt lat="43.1353387" lon="-2.8024012">
        <ele>230.723</ele>
        <time>2021-04-01T09:30:40.446Z</time>
      </trkpt>
      <trkpt lat="43.13534" lon="-2.8024024">
        <ele>230.713</ele>
        <time>2021-04-01T09:30:40.498Z</time>
      </trkpt>
      <trkpt lat="43.1353412" lon="-2.8024033">
        <ele>230.738</ele>
        <time>2021-04-01T09:30:40.550Z</time>
      </trkpt>
      <trkpt lat="43.1353425" lon="-2.8024043">
        <ele>230.754</ele>
        <time>2021-04-01T09:30:40.602Z</time>
      </trkpt>
      <trkpt lat="43.135344" lon="-2.8024051">
        <ele>230.75</ele>
        <time>2021-04-01T09:30:40.654Z</time>
      </trkpt>
      <trkpt lat="43.1353453" lon="-2.8024063">
        <ele>230.773</ele>
        <time>2021-04-01T09:30:40.712Z</time>
      </trkpt>
      <trkpt lat="43.1353464" lon="-2.8024075">
        <ele>230.807</ele>
        <time>2021-04-01T09:30:40.770Z</time>
      </trkpt>
      <trkpt lat="43.1353476" lon="-2.8024091">
        <ele>230.819</ele>
        <time>2021-04-01T09:30:40.828Z</time>
      </trkpt>
      <trkpt lat="43.1353487" lon="-2.8024108">
        <ele>230.849</ele>
        <time>2021-04-01T09:30:40.886Z</time>
      </trkpt>
      <trkpt lat="43.1353499" lon="-2.8024116">
        <ele>230.82</ele>
        <time>2021-04-01T09:30:40.944Z</time>
      </trkpt>
      <trkpt lat="43.135351" lon="-2.8024133">
        <ele>230.843</ele>
        <time>2021-04-01T09:30:41.002Z</time>
      </trkpt>
      <trkpt lat="43.135352" lon="-2.8024146">
        <ele>230.881</ele>
        <time>2021-04-01T09:30:41.060Z</time>
      </trkpt>
      <trkpt lat="43.1353532" lon="-2.8024158">
        <ele>230.914</ele>
        <time>2021-04-01T09:30:41.118Z</time>
      </trkpt>
      <trkpt lat="43.1353543" lon="-2.8024171">
        <ele>230.918</ele>
        <time>2021-04-01T09:30:41.176Z</time>
      </trkpt>
      <trkpt lat="43.1353554" lon="-2.8024184">
        <ele>230.915</ele>
        <time>2021-04-01T09:30:41.234Z</time>
      </trkpt>
      <trkpt lat="43.1353565" lon="-2.8024198">
        <ele>230.915</ele>
        <time>2021-04-01T09:30:41.292Z</time>
      </trkpt>
      <trkpt lat="43.1353579" lon="-2.8024214">
        <ele>230.949</ele>
        <time>2021-04-01T09:30:41.350Z</time>
      </trkpt>
      <trkpt lat="43.1353591" lon="-2.8024226">
        <ele>230.974</ele>
        <time>2021-04-01T09:30:41.408Z</time>
      </trkpt>
      <trkpt lat="43.1353602" lon="-2.8024239">
        <ele>231.003</ele>
        <time>2021-04-01T09:30:41.466Z</time>
      </trkpt>
      <trkpt lat="43.1353613" lon="-2.8024253">
        <ele>231.017</ele>
        <time>2021-04-01T09:30:41.524Z</time>
      </trkpt>
      <trkpt lat="43.1353624" lon="-2.802427">
        <ele>231.026</ele>
        <time>2021-04-01T09:30:41.582Z</time>
      </trkpt>
      <trkpt lat="43.1353636" lon="-2.8024285">
        <ele>231.043</ele>
        <time>2021-04-01T09:30:41.640Z</time>
      </trkpt>
      <trkpt lat="43.1353647" lon="-2.8024298">
        <ele>231.064</ele>
        <time>2021-04-01T09:30:41.699Z</time>
      </trkpt>
      <trkpt lat="43.1353655" lon="-2.8024309">
        <ele>231.097</ele>
        <time>2021-04-01T09:30:41.751Z</time>
      </trkpt>
      <trkpt lat="43.1353665" lon="-2.8024322">
        <ele>231.136</ele>
        <time>2021-04-01T09:30:41.803Z</time>
      </trkpt>
      <trkpt lat="43.1353676" lon="-2.8024336">
        <ele>231.139</ele>
        <time>2021-04-01T09:30:41.855Z</time>
      </trkpt>
      <trkpt lat="43.1353687" lon="-2.8024349">
        <ele>231.169</ele>
        <time>2021-04-01T09:30:41.907Z</time>
      </trkpt>
      <trkpt lat="43.1353696" lon="-2.8024363">
        <ele>231.201</ele>
        <time>2021-04-01T09:30:41.959Z</time>
      </trkpt>
      <trkpt lat="43.1353706" lon="-2.8024378">
        <ele>231.19</ele>
        <time>2021-04-01T09:30:42.011Z</time>
      </trkpt>
      <trkpt lat="43.1353716" lon="-2.8024392">
        <ele>231.234</ele>
        <time>2021-04-01T09:30:42.063Z</time>
      </trkpt>
      <trkpt lat="43.1353727" lon="-2.8024407">
        <ele>231.255</ele>
        <time>2021-04-01T09:30:42.115Z</time>
      </trkpt>
      <trkpt lat="43.1353739" lon="-2.8024422">
        <ele>231.291</ele>
        <time>2021-04-01T09:30:42.167Z</time>
      </trkpt>
      <trkpt lat="43.1353749" lon="-2.8024442">
        <ele>231.31</ele>
        <time>2021-04-01T09:30:42.220Z</time>
      </trkpt>
      <trkpt lat="43.1353758" lon="-2.8024463">
        <ele>231.314</ele>
        <time>2021-04-01T09:30:42.272Z</time>
      </trkpt>
      <trkpt lat="43.1353767" lon="-2.8024478">
        <ele>231.308</ele>
        <time>2021-04-01T09:30:42.324Z</time>
      </trkpt>
      <trkpt lat="43.1353775" lon="-2.8024494">
        <ele>231.339</ele>
        <time>2021-04-01T09:30:42.376Z</time>
      </trkpt>
      <trkpt lat="43.1353788" lon="-2.8024502">
        <ele>231.39</ele>
        <time>2021-04-01T09:30:42.428Z</time>
      </trkpt>
      <trkpt lat="43.13538" lon="-2.8024518">
        <ele>231.431</ele>
        <time>2021-04-01T09:30:42.480Z</time>
      </trkpt>
      <trkpt lat="43.1353813" lon="-2.8024532">
        <ele>231.463</ele>
        <time>2021-04-01T09:30:42.532Z</time>
      </trkpt>
      <trkpt lat="43.1353823" lon="-2.8024548">
        <ele>231.484</ele>
        <time>2021-04-01T09:30:42.584Z</time>
      </trkpt>
      <trkpt lat="43.1353832" lon="-2.8024563">
        <ele>231.479</ele>
        <time>2021-04-01T09:30:42.636Z</time>
      </trkpt>
      <trkpt lat="43.1353845" lon="-2.8024577">
        <ele>231.492</ele>
        <time>2021-04-01T09:30:42.689Z</time>
      </trkpt>
      <trkpt lat="43.1353857" lon="-2.8024593">
        <ele>231.517</ele>
        <time>2021-04-01T09:30:42.747Z</time>
      </trkpt>
      <trkpt lat="43.1353871" lon="-2.8024607">
        <ele>231.552</ele>
        <time>2021-04-01T09:30:42.805Z</time>
      </trkpt>
      <trkpt lat="43.1353882" lon="-2.8024623">
        <ele>231.571</ele>
        <time>2021-04-01T09:30:42.863Z</time>
      </trkpt>
      <trkpt lat="43.1353895" lon="-2.8024635">
        <ele>231.581</ele>
        <time>2021-04-01T09:30:42.921Z</time>
      </trkpt>
      <trkpt lat="43.1353906" lon="-2.802465">
        <ele>231.59</ele>
        <time>2021-04-01T09:30:42.980Z</time>
      </trkpt>
      <trkpt lat="43.1353917" lon="-2.8024664">
        <ele>231.622</ele>
        <time>2021-04-01T09:30:43.038Z</time>
      </trkpt>
      <trkpt lat="43.1353927" lon="-2.8024677">
        <ele>231.648</ele>
        <time>2021-04-01T09:30:43.096Z</time>
      </trkpt>
      <trkpt lat="43.1353941" lon="-2.8024689">
        <ele>231.657</ele>
        <time>2021-04-01T09:30:43.154Z</time>
      </trkpt>
      <trkpt lat="43.1353953" lon="-2.8024703">
        <ele>231.671</ele>
        <time>2021-04-01T09:30:43.213Z</time>
      </trkpt>
      <trkpt lat="43.1353963" lon="-2.8024719">
        <ele>231.719</ele>
        <time>2021-04-01T09:30:43.271Z</time>
      </trkpt>
      <trkpt lat="43.1353972" lon="-2.8024733">
        <ele>231.723</ele>
        <time>2021-04-01T09:30:43.329Z</time>
      </trkpt>
      <trkpt lat="43.1353982" lon="-2.8024748">
        <ele>231.701</ele>
        <time>2021-04-01T09:30:43.387Z</time>
      </trkpt>
      <trkpt lat="43.1353991" lon="-2.802476">
        <ele>231.661</ele>
        <time>2021-04-01T09:30:43.446Z</time>
      </trkpt>
      <trkpt lat="43.1354" lon="-2.8024771">
        <ele>231.652</ele>
        <time>2021-04-01T09:30:43.504Z</time>
      </trkpt>
      <trkpt lat="43.135401" lon="-2.802479">
        <ele>231.665</ele>
        <time>2021-04-01T09:30:43.562Z</time>
      </trkpt>
      <trkpt lat="43.1354022" lon="-2.8024803">
        <ele>231.658</ele>
        <time>2021-04-01T09:30:43.620Z</time>
      </trkpt>
      <trkpt lat="43.1354031" lon="-2.8024811">
        <ele>231.709</ele>
        <time>2021-04-01T09:30:43.679Z</time>
      </trkpt>
      <trkpt lat="43.1354043" lon="-2.8024825">
        <ele>231.717</ele>
        <time>2021-04-01T09:30:43.734Z</time>
      </trkpt>
      <trkpt lat="43.1354054" lon="-2.8024842">
        <ele>231.727</ele>
        <time>2021-04-01T09:30:43.789Z</time>
      </trkpt>
      <trkpt lat="43.1354064" lon="-2.8024854">
        <ele>231.73</ele>
        <time>2021-04-01T09:30:43.844Z</time>
      </trkpt>
      <trkpt lat="43.1354074" lon="-2.8024865">
        <ele>231.763</ele>
        <time>2021-04-01T09:30:43.899Z</time>
      </trkpt>
      <trkpt lat="43.1354084" lon="-2.8024881">
        <ele>231.765</ele>
        <time>2021-04-01T09:30:43.954Z</time>
      </trkpt>
      <trkpt lat="43.1354098" lon="-2.8024897">
        <ele>231.8</ele>
        <time>2021-04-01T09:30:44.009Z</time>
      </trkpt>
      <trkpt lat="43.1354109" lon="-2.8024915">
        <ele>231.809</ele>
        <time>2021-04-01T09:30:44.064Z</time>
      </trkpt>
      <trkpt lat="43.1354121" lon="-2.8024927">
        <ele>231.859</ele>
        <time>2021-04-01T09:30:44.119Z</time>
      </trkpt>
      <trkpt lat="43.1354135" lon="-2.8024936">
        <ele>231.859</ele>
        <time>2021-04-01T09:30:44.174Z</time>
      </trkpt>
      <trkpt lat="43.1354145" lon="-2.8024954">
        <ele>231.855</ele>
        <time>2021-04-01T09:30:44.229Z</time>
      </trkpt>
      <trkpt lat="43.1354155" lon="-2.8024966">
        <ele>231.911</ele>
        <time>2021-04-01T09:30:44.284Z</time>
      </trkpt>
      <trkpt lat="43.1354164" lon="-2.8024976">
        <ele>231.985</ele>
        <time>2021-04-01T09:30:44.339Z</time>
      </trkpt>
      <trkpt lat="43.1354174" lon="-2.8024986">
        <ele>232.032</ele>
        <time>2021-04-01T09:30:44.394Z</time>
      </trkpt>
      <trkpt lat="43.1354185" lon="-2.8025001">
        <ele>232.06</ele>
        <time>2021-04-01T09:30:44.449Z</time>
      </trkpt>
      <trkpt lat="43.1354194" lon="-2.8025016">
        <ele>232.09</ele>
        <time>2021-04-01T09:30:44.504Z</time>
      </trkpt>
      <trkpt lat="43.1354203" lon="-2.8025031">
        <ele>232.107</ele>
        <time>2021-04-01T09:30:44.559Z</time>
      </trkpt>
      <trkpt lat="43.1354212" lon="-2.8025045">
        <ele>232.127</ele>
        <time>2021-04-01T09:30:44.614Z</time>
      </trkpt>
      <trkpt lat="43.1354222" lon="-2.8025059">
        <ele>232.152</ele>
        <time>2021-04-01T09:30:44.669Z</time>
      </trkpt>
      <trkpt lat="43.1354235" lon="-2.802507">
        <ele>232.175</ele>
        <time>2021-04-01T09:30:44.724Z</time>
      </trkpt>
      <trkpt lat="43.1354245" lon="-2.8025086">
        <ele>232.188</ele>
        <time>2021-04-01T09:30:44.779Z</time>
      </trkpt>
      <trkpt lat="43.1354257" lon="-2.80251">
        <ele>232.204</ele>
        <time>2021-04-01T09:30:44.834Z</time>
      </trkpt>
      <trkpt lat="43.1354269" lon="-2.8025113">
        <ele>232.227</ele>
        <time>2021-04-01T09:30:44.889Z</time>
      </trkpt>
      <trkpt lat="43.1354281" lon="-2.8025124">
        <ele>232.241</ele>
        <time>2021-04-01T09:30:44.944Z</time>
      </trkpt>
      <trkpt lat="43.1354293" lon="-2.8025134">
        <ele>232.261</ele>
        <time>2021-04-01T09:30:44.999Z</time>
      </trkpt>
      <trkpt lat="43.1354307" lon="-2.8025149">
        <ele>232.306</ele>
        <time>2021-04-01T09:30:45.054Z</time>
      </trkpt>
      <trkpt lat="43.135432" lon="-2.8025162">
        <ele>232.324</ele>
        <time>2021-04-01T09:30:45.109Z</time>
      </trkpt>
      <trkpt lat="43.135433" lon="-2.8025173">
        <ele>232.373</ele>
        <time>2021-04-01T09:30:45.164Z</time>
      </trkpt>
      <trkpt lat="43.1354343" lon="-2.8025187">
        <ele>232.387</ele>
        <time>2021-04-01T09:30:45.219Z</time>
      </trkpt>
      <trkpt lat="43.1354355" lon="-2.80252">
        <ele>232.398</ele>
        <time>2021-04-01T09:30:45.274Z</time>
      </trkpt>
      <trkpt lat="43.1354365" lon="-2.8025216">
        <ele>232.427</ele>
        <time>2021-04-01T09:30:45.329Z</time>
      </trkpt>
      <trkpt lat="43.1354379" lon="-2.8025228">
        <ele>232.438</ele>
        <time>2021-04-01T09:30:45.384Z</time>
      </trkpt>
      <trkpt lat="43.1354393" lon="-2.8025237">
        <ele>232.451</ele>
        <time>2021-04-01T09:30:45.439Z</time>
      </trkpt>
      <trkpt lat="43.1354406" lon="-2.802525">
        <ele>232.47</ele>
        <time>2021-04-01T09:30:45.494Z</time>
      </trkpt>
      <trkpt lat="43.1354419" lon="-2.8025262">
        <ele>232.509</ele>
        <time>2021-04-01T09:30:45.549Z</time>
      </trkpt>
      <trkpt lat="43.1354433" lon="-2.8025274">
        <ele>232.55</ele>
        <time>2021-04-01T09:30:45.604Z</time>
      </trkpt>
      <trkpt lat="43.1354446" lon="-2.8025288">
        <ele>232.57</ele>
        <time>2021-04-01T09:30:45.659Z</time>
      </trkpt>
      <trkpt lat="43.1354458" lon="-2.8025297">
        <ele>232.561</ele>
        <time>2021-04-01T09:30:45.714Z</time>
      </trkpt>
      <trkpt lat="43.135447" lon="-2.8025312">
        <ele>232.595</ele>
        <time>2021-04-01T09:30:45.769Z</time>
      </trkpt>
      <trkpt lat="43.1354481" lon="-2.8025322">
        <ele>232.64</ele>
        <time>2021-04-01T09:30:45.824Z</time>
      </trkpt>
      <trkpt lat="43.135449" lon="-2.8025342">
        <ele>232.678</ele>
        <time>2021-04-01T09:30:45.879Z</time>
      </trkpt>
      <trkpt lat="43.1354503" lon="-2.8025355">
        <ele>232.642</ele>
        <time>2021-04-01T09:30:45.934Z</time>
      </trkpt>
      <trkpt lat="43.1354516" lon="-2.8025367">
        <ele>232.664</ele>
        <time>2021-04-01T09:30:45.989Z</time>
      </trkpt>
      <trkpt lat="43.1354528" lon="-2.8025381">
        <ele>232.686</ele>
        <time>2021-04-01T09:30:46.044Z</time>
      </trkpt>
      <trkpt lat="43.1354541" lon="-2.8025394">
        <ele>232.713</ele>
        <time>2021-04-01T09:30:46.099Z</time>
      </trkpt>
      <trkpt lat="43.1354554" lon="-2.8025407">
        <ele>232.756</ele>
        <time>2021-04-01T09:30:46.154Z</time>
      </trkpt>
      <trkpt lat="43.1354567" lon="-2.8025419">
        <ele>232.772</ele>
        <time>2021-04-01T09:30:46.209Z</time>
      </trkpt>
      <trkpt lat="43.1354581" lon="-2.8025428">
        <ele>232.785</ele>
        <time>2021-04-01T09:30:46.264Z</time>
      </trkpt>
      <trkpt lat="43.1354593" lon="-2.8025439">
        <ele>232.81</ele>
        <time>2021-04-01T09:30:46.319Z</time>
      </trkpt>
      <trkpt lat="43.1354605" lon="-2.8025454">
        <ele>232.828</ele>
        <time>2021-04-01T09:30:46.374Z</time>
      </trkpt>
      <trkpt lat="43.135462" lon="-2.8025462">
        <ele>232.864</ele>
        <time>2021-04-01T09:30:46.429Z</time>
      </trkpt>
      <trkpt lat="43.1354632" lon="-2.8025471">
        <ele>232.893</ele>
        <time>2021-04-01T09:30:46.484Z</time>
      </trkpt>
      <trkpt lat="43.1354645" lon="-2.8025484">
        <ele>232.927</ele>
        <time>2021-04-01T09:30:46.539Z</time>
      </trkpt>
      <trkpt lat="43.1354659" lon="-2.8025494">
        <ele>232.926</ele>
        <time>2021-04-01T09:30:46.594Z</time>
      </trkpt>
      <trkpt lat="43.1354674" lon="-2.8025504">
        <ele>232.956</ele>
        <time>2021-04-01T09:30:46.649Z</time>
      </trkpt>
      <trkpt lat="43.1354689" lon="-2.8025515">
        <ele>232.985</ele>
        <time>2021-04-01T09:30:46.704Z</time>
      </trkpt>
      <trkpt lat="43.1354702" lon="-2.8025527">
        <ele>233.002</ele>
        <time>2021-04-01T09:30:46.756Z</time>
      </trkpt>
      <trkpt lat="43.1354715" lon="-2.8025537">
        <ele>233.001</ele>
        <time>2021-04-01T09:30:46.808Z</time>
      </trkpt>
      <trkpt lat="43.1354727" lon="-2.8025548">
        <ele>232.999</ele>
        <time>2021-04-01T09:30:46.860Z</time>
      </trkpt>
      <trkpt lat="43.135474" lon="-2.8025557">
        <ele>233.014</ele>
        <time>2021-04-01T09:30:46.912Z</time>
      </trkpt>
      <trkpt lat="43.1354752" lon="-2.8025568">
        <ele>233.054</ele>
        <time>2021-04-01T09:30:46.964Z</time>
      </trkpt>
      <trkpt lat="43.1354764" lon="-2.8025581">
        <ele>233.081</ele>
        <time>2021-04-01T09:30:47.016Z</time>
      </trkpt>
      <trkpt lat="43.1354777" lon="-2.8025593">
        <ele>233.116</ele>
        <time>2021-04-01T09:30:47.068Z</time>
      </trkpt>
      <trkpt lat="43.1354789" lon="-2.8025604">
        <ele>233.141</ele>
        <time>2021-04-01T09:30:47.120Z</time>
      </trkpt>
      <trkpt lat="43.13548" lon="-2.8025615">
        <ele>233.147</ele>
        <time>2021-04-01T09:30:47.172Z</time>
      </trkpt>
      <trkpt lat="43.1354813" lon="-2.8025627">
        <ele>233.165</ele>
        <time>2021-04-01T09:30:47.225Z</time>
      </trkpt>
      <trkpt lat="43.1354826" lon="-2.8025639">
        <ele>233.195</ele>
        <time>2021-04-01T09:30:47.277Z</time>
      </trkpt>
      <trkpt lat="43.1354839" lon="-2.802565">
        <ele>233.207</ele>
        <time>2021-04-01T09:30:47.329Z</time>
      </trkpt>
      <trkpt lat="43.1354853" lon="-2.8025663">
        <ele>233.212</ele>
        <time>2021-04-01T09:30:47.381Z</time>
      </trkpt>
      <trkpt lat="43.1354867" lon="-2.8025675">
        <ele>233.233</ele>
        <time>2021-04-01T09:30:47.433Z</time>
      </trkpt>
      <trkpt lat="43.1354883" lon="-2.8025684">
        <ele>233.226</ele>
        <time>2021-04-01T09:30:47.485Z</time>
      </trkpt>
      <trkpt lat="43.1354897" lon="-2.8025694">
        <ele>233.251</ele>
        <time>2021-04-01T09:30:47.537Z</time>
      </trkpt>
      <trkpt lat="43.1354908" lon="-2.8025705">
        <ele>233.283</ele>
        <time>2021-04-01T09:30:47.589Z</time>
      </trkpt>
      <trkpt lat="43.135492" lon="-2.8025715">
        <ele>233.294</ele>
        <time>2021-04-01T09:30:47.641Z</time>
      </trkpt>
      <trkpt lat="43.1354932" lon="-2.8025729">
        <ele>233.307</ele>
        <time>2021-04-01T09:30:47.694Z</time>
      </trkpt>
      <trkpt lat="43.1354942" lon="-2.802574">
        <ele>233.283</ele>
        <time>2021-04-01T09:30:47.752Z</time>
      </trkpt>
      <trkpt lat="43.1354955" lon="-2.8025749">
        <ele>233.291</ele>
        <time>2021-04-01T09:30:47.810Z</time>
      </trkpt>
      <trkpt lat="43.1354968" lon="-2.8025762">
        <ele>233.301</ele>
        <time>2021-04-01T09:30:47.868Z</time>
      </trkpt>
      <trkpt lat="43.1354984" lon="-2.8025772">
        <ele>233.306</ele>
        <time>2021-04-01T09:30:47.926Z</time>
      </trkpt>
      <trkpt lat="43.1354997" lon="-2.8025781">
        <ele>233.288</ele>
        <time>2021-04-01T09:30:47.985Z</time>
      </trkpt>
      <trkpt lat="43.135501" lon="-2.8025791">
        <ele>233.271</ele>
        <time>2021-04-01T09:30:48.043Z</time>
      </trkpt>
      <trkpt lat="43.1355025" lon="-2.80258">
        <ele>233.244</ele>
        <time>2021-04-01T09:30:48.101Z</time>
      </trkpt>
      <trkpt lat="43.1355039" lon="-2.8025811">
        <ele>233.246</ele>
        <time>2021-04-01T09:30:48.159Z</time>
      </trkpt>
      <trkpt lat="43.135505" lon="-2.8025827">
        <ele>233.264</ele>
        <time>2021-04-01T09:30:48.218Z</time>
      </trkpt>
      <trkpt lat="43.1355062" lon="-2.8025841">
        <ele>233.299</ele>
        <time>2021-04-01T09:30:48.276Z</time>
      </trkpt>
      <trkpt lat="43.1355074" lon="-2.8025855">
        <ele>233.323</ele>
        <time>2021-04-01T09:30:48.334Z</time>
      </trkpt>
      <trkpt lat="43.1355086" lon="-2.802587">
        <ele>233.356</ele>
        <time>2021-04-01T09:30:48.392Z</time>
      </trkpt>
      <trkpt lat="43.1355098" lon="-2.8025882">
        <ele>233.345</ele>
        <time>2021-04-01T09:30:48.451Z</time>
      </trkpt>
      <trkpt lat="43.135511" lon="-2.8025898">
        <ele>233.374</ele>
        <time>2021-04-01T09:30:48.509Z</time>
      </trkpt>
      <trkpt lat="43.1355122" lon="-2.8025912">
        <ele>233.364</ele>
        <time>2021-04-01T09:30:48.567Z</time>
      </trkpt>
      <trkpt lat="43.1355138" lon="-2.8025925">
        <ele>233.389</ele>
        <time>2021-04-01T09:30:48.625Z</time>
      </trkpt>
      <trkpt lat="43.1355152" lon="-2.802594">
        <ele>233.443</ele>
        <time>2021-04-01T09:30:48.684Z</time>
      </trkpt>
      <trkpt lat="43.1355165" lon="-2.8025953">
        <ele>233.453</ele>
        <time>2021-04-01T09:30:48.739Z</time>
      </trkpt>
      <trkpt lat="43.1355178" lon="-2.8025964">
        <ele>233.449</ele>
        <time>2021-04-01T09:30:48.794Z</time>
      </trkpt>
      <trkpt lat="43.1355195" lon="-2.8025973">
        <ele>233.455</ele>
        <time>2021-04-01T09:30:48.849Z</time>
      </trkpt>
      <trkpt lat="43.1355207" lon="-2.8025984">
        <ele>233.464</ele>
        <time>2021-04-01T09:30:48.904Z</time>
      </trkpt>
      <trkpt lat="43.135522" lon="-2.8026">
        <ele>233.517</ele>
        <time>2021-04-01T09:30:48.959Z</time>
      </trkpt>
      <trkpt lat="43.1355231" lon="-2.8026015">
        <ele>233.58</ele>
        <time>2021-04-01T09:30:49.014Z</time>
      </trkpt>
      <trkpt lat="43.1355245" lon="-2.8026028">
        <ele>233.604</ele>
        <time>2021-04-01T09:30:49.069Z</time>
      </trkpt>
      <trkpt lat="43.1355257" lon="-2.8026041">
        <ele>233.636</ele>
        <time>2021-04-01T09:30:49.124Z</time>
      </trkpt>
      <trkpt lat="43.1355271" lon="-2.8026056">
        <ele>233.615</ele>
        <time>2021-04-01T09:30:49.179Z</time>
      </trkpt>
      <trkpt lat="43.1355284" lon="-2.8026068">
        <ele>233.643</ele>
        <time>2021-04-01T09:30:49.234Z</time>
      </trkpt>
      <trkpt lat="43.1355297" lon="-2.8026083">
        <ele>233.672</ele>
        <time>2021-04-01T09:30:49.289Z</time>
      </trkpt>
      <trkpt lat="43.1355309" lon="-2.8026094">
        <ele>233.684</ele>
        <time>2021-04-01T09:30:49.344Z</time>
      </trkpt>
      <trkpt lat="43.1355323" lon="-2.8026106">
        <ele>233.699</ele>
        <time>2021-04-01T09:30:49.399Z</time>
      </trkpt>
      <trkpt lat="43.1355335" lon="-2.8026119">
        <ele>233.704</ele>
        <time>2021-04-01T09:30:49.454Z</time>
      </trkpt>
      <trkpt lat="43.1355345" lon="-2.8026131">
        <ele>233.692</ele>
        <time>2021-04-01T09:30:49.509Z</time>
      </trkpt>
      <trkpt lat="43.1355356" lon="-2.8026144">
        <ele>233.718</ele>
        <time>2021-04-01T09:30:49.564Z</time>
      </trkpt>
      <trkpt lat="43.1355369" lon="-2.8026158">
        <ele>233.762</ele>
        <time>2021-04-01T09:30:49.619Z</time>
      </trkpt>
      <trkpt lat="43.1355381" lon="-2.8026171">
        <ele>233.791</ele>
        <time>2021-04-01T09:30:49.674Z</time>
      </trkpt>
      <trkpt lat="43.1355394" lon="-2.8026185">
        <ele>233.807</ele>
        <time>2021-04-01T09:30:49.729Z</time>
      </trkpt>
      <trkpt lat="43.1355406" lon="-2.8026199">
        <ele>233.834</ele>
        <time>2021-04-01T09:30:49.780Z</time>
      </trkpt>
      <trkpt lat="43.1355418" lon="-2.8026213">
        <ele>233.834</ele>
        <time>2021-04-01T09:30:49.832Z</time>
      </trkpt>
      <trkpt lat="43.1355431" lon="-2.8026226">
        <ele>233.855</ele>
        <time>2021-04-01T09:30:49.884Z</time>
      </trkpt>
      <trkpt lat="43.1355441" lon="-2.8026239">
        <ele>233.841</ele>
        <time>2021-04-01T09:30:49.936Z</time>
      </trkpt>
      <trkpt lat="43.1355455" lon="-2.8026251">
        <ele>233.821</ele>
        <time>2021-04-01T09:30:49.988Z</time>
      </trkpt>
      <trkpt lat="43.1355469" lon="-2.8026265">
        <ele>233.838</ele>
        <time>2021-04-01T09:30:50.040Z</time>
      </trkpt>
      <trkpt lat="43.1355483" lon="-2.8026279">
        <ele>233.856</ele>
        <time>2021-04-01T09:30:50.092Z</time>
      </trkpt>
      <trkpt lat="43.1355496" lon="-2.8026291">
        <ele>233.855</ele>
        <time>2021-04-01T09:30:50.144Z</time>
      </trkpt>
      <trkpt lat="43.1355507" lon="-2.8026304">
        <ele>233.867</ele>
        <time>2021-04-01T09:30:50.196Z</time>
      </trkpt>
      <trkpt lat="43.1355519" lon="-2.8026322">
        <ele>233.918</ele>
        <time>2021-04-01T09:30:50.248Z</time>
      </trkpt>
      <trkpt lat="43.1355529" lon="-2.8026342">
        <ele>233.958</ele>
        <time>2021-04-01T09:30:50.300Z</time>
      </trkpt>
      <trkpt lat="43.1355538" lon="-2.8026357">
        <ele>233.977</ele>
        <time>2021-04-01T09:30:50.352Z</time>
      </trkpt>
      <trkpt lat="43.1355547" lon="-2.8026374">
        <ele>234.012</ele>
        <time>2021-04-01T09:30:50.404Z</time>
      </trkpt>
      <trkpt lat="43.135556" lon="-2.8026389">
        <ele>234.037</ele>
        <time>2021-04-01T09:30:50.456Z</time>
      </trkpt>
      <trkpt lat="43.1355573" lon="-2.8026404">
        <ele>234.07</ele>
        <time>2021-04-01T09:30:50.508Z</time>
      </trkpt>
      <trkpt lat="43.1355585" lon="-2.8026418">
        <ele>234.091</ele>
        <time>2021-04-01T09:30:50.560Z</time>
      </trkpt>
      <trkpt lat="43.1355599" lon="-2.8026434">
        <ele>234.129</ele>
        <time>2021-04-01T09:30:50.612Z</time>
      </trkpt>
      <trkpt lat="43.1355611" lon="-2.802645">
        <ele>234.148</ele>
        <time>2021-04-01T09:30:50.664Z</time>
      </trkpt>
      <trkpt lat="43.1355623" lon="-2.8026465">
        <ele>234.171</ele>
        <time>2021-04-01T09:30:50.722Z</time>
      </trkpt>
      <trkpt lat="43.1355636" lon="-2.8026478">
        <ele>234.212</ele>
        <time>2021-04-01T09:30:50.780Z</time>
      </trkpt>
      <trkpt lat="43.1355648" lon="-2.8026494">
        <ele>234.257</ele>
        <time>2021-04-01T09:30:50.838Z</time>
      </trkpt>
      <trkpt lat="43.1355659" lon="-2.8026509">
        <ele>234.27</ele>
        <time>2021-04-01T09:30:50.896Z</time>
      </trkpt>
      <trkpt lat="43.1355669" lon="-2.8026521">
        <ele>234.271</ele>
        <time>2021-04-01T09:30:50.954Z</time>
      </trkpt>
      <trkpt lat="43.1355682" lon="-2.8026535">
        <ele>234.287</ele>
        <time>2021-04-01T09:30:51.012Z</time>
      </trkpt>
      <trkpt lat="43.1355695" lon="-2.8026548">
        <ele>234.319</ele>
        <time>2021-04-01T09:30:51.070Z</time>
      </trkpt>
      <trkpt lat="43.1355707" lon="-2.8026562">
        <ele>234.335</ele>
        <time>2021-04-01T09:30:51.128Z</time>
      </trkpt>
      <trkpt lat="43.1355718" lon="-2.8026579">
        <ele>234.335</ele>
        <time>2021-04-01T09:30:51.186Z</time>
      </trkpt>
      <trkpt lat="43.1355731" lon="-2.8026593">
        <ele>234.338</ele>
        <time>2021-04-01T09:30:51.244Z</time>
      </trkpt>
      <trkpt lat="43.1355744" lon="-2.8026606">
        <ele>234.325</ele>
        <time>2021-04-01T09:30:51.302Z</time>
      </trkpt>
      <trkpt lat="43.1355758" lon="-2.8026619">
        <ele>234.359</ele>
        <time>2021-04-01T09:30:51.360Z</time>
      </trkpt>
      <trkpt lat="43.1355771" lon="-2.8026632">
        <ele>234.382</ele>
        <time>2021-04-01T09:30:51.418Z</time>
      </trkpt>
      <trkpt lat="43.1355783" lon="-2.8026643">
        <ele>234.41</ele>
        <time>2021-04-01T09:30:51.476Z</time>
      </trkpt>
      <trkpt lat="43.1355795" lon="-2.8026657">
        <ele>234.404</ele>
        <time>2021-04-01T09:30:51.534Z</time>
      </trkpt>
      <trkpt lat="43.1355808" lon="-2.8026669">
        <ele>234.41</ele>
        <time>2021-04-01T09:30:51.592Z</time>
      </trkpt>
      <trkpt lat="43.135582" lon="-2.8026682">
        <ele>234.432</ele>
        <time>2021-04-01T09:30:51.650Z</time>
      </trkpt>
      <trkpt lat="43.1355834" lon="-2.8026697">
        <ele>234.471</ele>
        <time>2021-04-01T09:30:51.709Z</time>
      </trkpt>
      <trkpt lat="43.1355847" lon="-2.8026709">
        <ele>234.456</ele>
        <time>2021-04-01T09:30:51.764Z</time>
      </trkpt>
      <trkpt lat="43.135586" lon="-2.802672">
        <ele>234.435</ele>
        <time>2021-04-01T09:30:51.819Z</time>
      </trkpt>
      <trkpt lat="43.1355874" lon="-2.8026732">
        <ele>234.465</ele>
        <time>2021-04-01T09:30:51.874Z</time>
      </trkpt>
      <trkpt lat="43.1355887" lon="-2.8026745">
        <ele>234.453</ele>
        <time>2021-04-01T09:30:51.929Z</time>
      </trkpt>
      <trkpt lat="43.1355902" lon="-2.8026755">
        <ele>234.464</ele>
        <time>2021-04-01T09:30:51.984Z</time>
      </trkpt>
      <trkpt lat="43.1355917" lon="-2.8026768">
        <ele>234.498</ele>
        <time>2021-04-01T09:30:52.039Z</time>
      </trkpt>
      <trkpt lat="43.1355928" lon="-2.802678">
        <ele>234.518</ele>
        <time>2021-04-01T09:30:52.094Z</time>
      </trkpt>
      <trkpt lat="43.1355942" lon="-2.8026791">
        <ele>234.534</ele>
        <time>2021-04-01T09:30:52.149Z</time>
      </trkpt>
      <trkpt lat="43.1355956" lon="-2.80268">
        <ele>234.566</ele>
        <time>2021-04-01T09:30:52.204Z</time>
      </trkpt>
      <trkpt lat="43.1355971" lon="-2.8026813">
        <ele>234.588</ele>
        <time>2021-04-01T09:30:52.259Z</time>
      </trkpt>
      <trkpt lat="43.1355986" lon="-2.8026825">
        <ele>234.647</ele>
        <time>2021-04-01T09:30:52.314Z</time>
      </trkpt>
      <trkpt lat="43.1355999" lon="-2.8026839">
        <ele>234.707</ele>
        <time>2021-04-01T09:30:52.369Z</time>
      </trkpt>
      <trkpt lat="43.1356016" lon="-2.8026855">
        <ele>234.746</ele>
        <time>2021-04-01T09:30:52.424Z</time>
      </trkpt>
      <trkpt lat="43.135603" lon="-2.8026866">
        <ele>234.759</ele>
        <time>2021-04-01T09:30:52.479Z</time>
      </trkpt>
      <trkpt lat="43.135604" lon="-2.8026877">
        <ele>234.771</ele>
        <time>2021-04-01T09:30:52.534Z</time>
      </trkpt>
      <trkpt lat="43.1356053" lon="-2.8026894">
        <ele>234.747</ele>
        <time>2021-04-01T09:30:52.589Z</time>
      </trkpt>
      <trkpt lat="43.1356066" lon="-2.8026905">
        <ele>234.747</ele>
        <time>2021-04-01T09:30:52.644Z</time>
      </trkpt>
      <trkpt lat="43.1356078" lon="-2.8026914">
        <ele>234.774</ele>
        <time>2021-04-01T09:30:52.699Z</time>
      </trkpt>
      <trkpt lat="43.135609" lon="-2.8026928">
        <ele>234.792</ele>
        <time>2021-04-01T09:30:52.754Z</time>
      </trkpt>
      <trkpt lat="43.1356102" lon="-2.8026943">
        <ele>234.805</ele>
        <time>2021-04-01T09:30:52.809Z</time>
      </trkpt>
      <trkpt lat="43.1356114" lon="-2.8026958">
        <ele>234.827</ele>
        <time>2021-04-01T09:30:52.864Z</time>
      </trkpt>
      <trkpt lat="43.1356127" lon="-2.8026969">
        <ele>234.805</ele>
        <time>2021-04-01T09:30:52.919Z</time>
      </trkpt>
      <trkpt lat="43.1356139" lon="-2.8026976">
        <ele>234.798</ele>
        <time>2021-04-01T09:30:52.974Z</time>
      </trkpt>
      <trkpt lat="43.1356149" lon="-2.8026989">
        <ele>234.796</ele>
        <time>2021-04-01T09:30:53.029Z</time>
      </trkpt>
      <trkpt lat="43.1356164" lon="-2.8027">
        <ele>234.778</ele>
        <time>2021-04-01T09:30:53.084Z</time>
      </trkpt>
      <trkpt lat="43.1356179" lon="-2.8027011">
        <ele>234.775</ele>
        <time>2021-04-01T09:30:53.139Z</time>
      </trkpt>
      <trkpt lat="43.1356193" lon="-2.8027022">
        <ele>234.774</ele>
        <time>2021-04-01T09:30:53.194Z</time>
      </trkpt>
      <trkpt lat="43.1356205" lon="-2.8027035">
        <ele>234.782</ele>
        <time>2021-04-01T09:30:53.249Z</time>
      </trkpt>
      <trkpt lat="43.1356219" lon="-2.8027049">
        <ele>234.795</ele>
        <time>2021-04-01T09:30:53.304Z</time>
      </trkpt>
      <trkpt lat="43.1356233" lon="-2.8027058">
        <ele>234.81</ele>
        <time>2021-04-01T09:30:53.359Z</time>
      </trkpt>
      <trkpt lat="43.1356245" lon="-2.8027073">
        <ele>234.833</ele>
        <time>2021-04-01T09:30:53.414Z</time>
      </trkpt>
      <trkpt lat="43.1356257" lon="-2.8027088">
        <ele>234.859</ele>
        <time>2021-04-01T09:30:53.469Z</time>
      </trkpt>
      <trkpt lat="43.1356267" lon="-2.8027101">
        <ele>234.875</ele>
        <time>2021-04-01T09:30:53.524Z</time>
      </trkpt>
      <trkpt lat="43.135628" lon="-2.8027112">
        <ele>234.89</ele>
        <time>2021-04-01T09:30:53.579Z</time>
      </trkpt>
      <trkpt lat="43.1356292" lon="-2.8027124">
        <ele>234.902</ele>
        <time>2021-04-01T09:30:53.634Z</time>
      </trkpt>
      <trkpt lat="43.1356303" lon="-2.8027137">
        <ele>234.918</ele>
        <time>2021-04-01T09:30:53.689Z</time>
      </trkpt>
      <trkpt lat="43.1356314" lon="-2.8027145">
        <ele>234.894</ele>
        <time>2021-04-01T09:30:53.744Z</time>
      </trkpt>
      <trkpt lat="43.1356327" lon="-2.802716">
        <ele>234.948</ele>
        <time>2021-04-01T09:30:53.799Z</time>
      </trkpt>
      <trkpt lat="43.135634" lon="-2.8027172">
        <ele>234.936</ele>
        <time>2021-04-01T09:30:53.854Z</time>
      </trkpt>
      <trkpt lat="43.1356353" lon="-2.8027184">
        <ele>234.934</ele>
        <time>2021-04-01T09:30:53.909Z</time>
      </trkpt>
      <trkpt lat="43.1356362" lon="-2.8027195">
        <ele>234.898</ele>
        <time>2021-04-01T09:30:53.964Z</time>
      </trkpt>
      <trkpt lat="43.1356374" lon="-2.8027205">
        <ele>234.908</ele>
        <time>2021-04-01T09:30:54.019Z</time>
      </trkpt>
      <trkpt lat="43.1356387" lon="-2.8027216">
        <ele>234.925</ele>
        <time>2021-04-01T09:30:54.074Z</time>
      </trkpt>
      <trkpt lat="43.1356398" lon="-2.8027232">
        <ele>234.927</ele>
        <time>2021-04-01T09:30:54.129Z</time>
      </trkpt>
      <trkpt lat="43.135641" lon="-2.8027245">
        <ele>234.946</ele>
        <time>2021-04-01T09:30:54.184Z</time>
      </trkpt>
      <trkpt lat="43.135642" lon="-2.8027256">
        <ele>234.985</ele>
        <time>2021-04-01T09:30:54.239Z</time>
      </trkpt>
      <trkpt lat="43.1356431" lon="-2.8027266">
        <ele>234.995</ele>
        <time>2021-04-01T09:30:54.294Z</time>
      </trkpt>
      <trkpt lat="43.1356442" lon="-2.8027278">
        <ele>235.016</ele>
        <time>2021-04-01T09:30:54.349Z</time>
      </trkpt>
      <trkpt lat="43.1356456" lon="-2.8027292">
        <ele>235.026</ele>
        <time>2021-04-01T09:30:54.404Z</time>
      </trkpt>
      <trkpt lat="43.1356469" lon="-2.8027306">
        <ele>235.011</ele>
        <time>2021-04-01T09:30:54.459Z</time>
      </trkpt>
      <trkpt lat="43.1356482" lon="-2.8027318">
        <ele>235.055</ele>
        <time>2021-04-01T09:30:54.514Z</time>
      </trkpt>
      <trkpt lat="43.1356497" lon="-2.8027333">
        <ele>235.095</ele>
        <time>2021-04-01T09:30:54.569Z</time>
      </trkpt>
      <trkpt lat="43.135651" lon="-2.8027348">
        <ele>235.134</ele>
        <time>2021-04-01T09:30:54.624Z</time>
      </trkpt>
      <trkpt lat="43.1356521" lon="-2.8027362">
        <ele>235.135</ele>
        <time>2021-04-01T09:30:54.679Z</time>
      </trkpt>
      <trkpt lat="43.1356532" lon="-2.8027375">
        <ele>235.16</ele>
        <time>2021-04-01T09:30:54.734Z</time>
      </trkpt>
      <trkpt lat="43.1356544" lon="-2.8027387">
        <ele>235.204</ele>
        <time>2021-04-01T09:30:54.789Z</time>
      </trkpt>
      <trkpt lat="43.1356555" lon="-2.8027399">
        <ele>235.246</ele>
        <time>2021-04-01T09:30:54.844Z</time>
      </trkpt>
      <trkpt lat="43.1356568" lon="-2.8027409">
        <ele>235.261</ele>
        <time>2021-04-01T09:30:54.899Z</time>
      </trkpt>
      <trkpt lat="43.1356577" lon="-2.8027426">
        <ele>235.281</ele>
        <time>2021-04-01T09:30:54.954Z</time>
      </trkpt>
      <trkpt lat="43.1356587" lon="-2.8027438">
        <ele>235.277</ele>
        <time>2021-04-01T09:30:55.009Z</time>
      </trkpt>
      <trkpt lat="43.1356598" lon="-2.8027449">
        <ele>235.294</ele>
        <time>2021-04-01T09:30:55.064Z</time>
      </trkpt>
      <trkpt lat="43.1356608" lon="-2.8027464">
        <ele>235.331</ele>
        <time>2021-04-01T09:30:55.119Z</time>
      </trkpt>
      <trkpt lat="43.135662" lon="-2.8027482">
        <ele>235.397</ele>
        <time>2021-04-01T09:30:55.174Z</time>
      </trkpt>
      <trkpt lat="43.1356631" lon="-2.8027493">
        <ele>235.389</ele>
        <time>2021-04-01T09:30:55.229Z</time>
      </trkpt>
      <trkpt lat="43.1356643" lon="-2.8027506">
        <ele>235.38</ele>
        <time>2021-04-01T09:30:55.284Z</time>
      </trkpt>
      <trkpt lat="43.1356654" lon="-2.8027521">
        <ele>235.413</ele>
        <time>2021-04-01T09:30:55.339Z</time>
      </trkpt>
      <trkpt lat="43.1356666" lon="-2.8027534">
        <ele>235.439</ele>
        <time>2021-04-01T09:30:55.394Z</time>
      </trkpt>
      <trkpt lat="43.1356676" lon="-2.8027547">
        <ele>235.438</ele>
        <time>2021-04-01T09:30:55.449Z</time>
      </trkpt>
      <trkpt lat="43.1356685" lon="-2.8027561">
        <ele>235.439</ele>
        <time>2021-04-01T09:30:55.504Z</time>
      </trkpt>
      <trkpt lat="43.1356696" lon="-2.8027575">
        <ele>235.451</ele>
        <time>2021-04-01T09:30:55.559Z</time>
      </trkpt>
      <trkpt lat="43.1356706" lon="-2.8027588">
        <ele>235.454</ele>
        <time>2021-04-01T09:30:55.614Z</time>
      </trkpt>
      <trkpt lat="43.1356715" lon="-2.8027602">
        <ele>235.463</ele>
        <time>2021-04-01T09:30:55.669Z</time>
      </trkpt>
      <trkpt lat="43.1356726" lon="-2.8027614">
        <ele>235.462</ele>
        <time>2021-04-01T09:30:55.724Z</time>
      </trkpt>
      <trkpt lat="43.1356737" lon="-2.8027625">
        <ele>235.425</ele>
        <time>2021-04-01T09:30:55.779Z</time>
      </trkpt>
      <trkpt lat="43.1356745" lon="-2.8027641">
        <ele>235.442</ele>
        <time>2021-04-01T09:30:55.834Z</time>
      </trkpt>
      <trkpt lat="43.1356759" lon="-2.8027655">
        <ele>235.512</ele>
        <time>2021-04-01T09:30:55.889Z</time>
      </trkpt>
      <trkpt lat="43.1356769" lon="-2.8027674">
        <ele>235.524</ele>
        <time>2021-04-01T09:30:55.944Z</time>
      </trkpt>
      <trkpt lat="43.135678" lon="-2.802769">
        <ele>235.534</ele>
        <time>2021-04-01T09:30:55.999Z</time>
      </trkpt>
      <trkpt lat="43.1356789" lon="-2.8027705">
        <ele>235.561</ele>
        <time>2021-04-01T09:30:56.054Z</time>
      </trkpt>
      <trkpt lat="43.1356798" lon="-2.8027719">
        <ele>235.571</ele>
        <time>2021-04-01T09:30:56.109Z</time>
      </trkpt>
      <trkpt lat="43.1356809" lon="-2.8027733">
        <ele>235.613</ele>
        <time>2021-04-01T09:30:56.164Z</time>
      </trkpt>
      <trkpt lat="43.1356819" lon="-2.8027749">
        <ele>235.655</ele>
        <time>2021-04-01T09:30:56.219Z</time>
      </trkpt>
      <trkpt lat="43.1356828" lon="-2.8027766">
        <ele>235.673</ele>
        <time>2021-04-01T09:30:56.274Z</time>
      </trkpt>
      <trkpt lat="43.1356836" lon="-2.8027781">
        <ele>235.681</ele>
        <time>2021-04-01T09:30:56.329Z</time>
      </trkpt>
      <trkpt lat="43.1356847" lon="-2.8027794">
        <ele>235.713</ele>
        <time>2021-04-01T09:30:56.384Z</time>
      </trkpt>
      <trkpt lat="43.1356856" lon="-2.8027809">
        <ele>235.722</ele>
        <time>2021-04-01T09:30:56.439Z</time>
      </trkpt>
      <trkpt lat="43.1356864" lon="-2.8027826">
        <ele>235.745</ele>
        <time>2021-04-01T09:30:56.494Z</time>
      </trkpt>
      <trkpt lat="43.1356871" lon="-2.8027841">
        <ele>235.746</ele>
        <time>2021-04-01T09:30:56.549Z</time>
      </trkpt>
      <trkpt lat="43.135688" lon="-2.8027853">
        <ele>235.715</ele>
        <time>2021-04-01T09:30:56.604Z</time>
      </trkpt>
      <trkpt lat="43.135689" lon="-2.8027866">
        <ele>235.724</ele>
        <time>2021-04-01T09:30:56.659Z</time>
      </trkpt>
      <trkpt lat="43.1356898" lon="-2.8027889">
        <ele>235.748</ele>
        <time>2021-04-01T09:30:56.714Z</time>
      </trkpt>
      <trkpt lat="43.1356909" lon="-2.8027904">
        <ele>235.789</ele>
        <time>2021-04-01T09:30:56.769Z</time>
      </trkpt>
      <trkpt lat="43.135692" lon="-2.8027918">
        <ele>235.798</ele>
        <time>2021-04-01T09:30:56.824Z</time>
      </trkpt>
      <trkpt lat="43.135693" lon="-2.8027934">
        <ele>235.824</ele>
        <time>2021-04-01T09:30:56.879Z</time>
      </trkpt>
      <trkpt lat="43.1356938" lon="-2.8027948">
        <ele>235.835</ele>
        <time>2021-04-01T09:30:56.934Z</time>
      </trkpt>
      <trkpt lat="43.1356949" lon="-2.8027966">
        <ele>235.864</ele>
        <time>2021-04-01T09:30:56.989Z</time>
      </trkpt>
      <trkpt lat="43.1356959" lon="-2.8027983">
        <ele>235.895</ele>
        <time>2021-04-01T09:30:57.044Z</time>
      </trkpt>
      <trkpt lat="43.135697" lon="-2.8027998">
        <ele>235.95</ele>
        <time>2021-04-01T09:30:57.099Z</time>
      </trkpt>
      <trkpt lat="43.1356978" lon="-2.8028015">
        <ele>235.95</ele>
        <time>2021-04-01T09:30:57.154Z</time>
      </trkpt>
      <trkpt lat="43.1356988" lon="-2.802803">
        <ele>235.942</ele>
        <time>2021-04-01T09:30:57.209Z</time>
      </trkpt>
      <trkpt lat="43.1356996" lon="-2.8028045">
        <ele>235.95</ele>
        <time>2021-04-01T09:30:57.264Z</time>
      </trkpt>
      <trkpt lat="43.1357005" lon="-2.8028062">
        <ele>235.955</ele>
        <time>2021-04-01T09:30:57.319Z</time>
      </trkpt>
      <trkpt lat="43.1357011" lon="-2.8028081">
        <ele>235.939</ele>
        <time>2021-04-01T09:30:57.374Z</time>
      </trkpt>
      <trkpt lat="43.1357017" lon="-2.8028098">
        <ele>235.936</ele>
        <time>2021-04-01T09:30:57.429Z</time>
      </trkpt>
      <trkpt lat="43.1357025" lon="-2.8028117">
        <ele>235.953</ele>
        <time>2021-04-01T09:30:57.484Z</time>
      </trkpt>
      <trkpt lat="43.1357035" lon="-2.8028135">
        <ele>235.969</ele>
        <time>2021-04-01T09:30:57.539Z</time>
      </trkpt>
      <trkpt lat="43.1357042" lon="-2.8028155">
        <ele>236.002</ele>
        <time>2021-04-01T09:30:57.594Z</time>
      </trkpt>
      <trkpt lat="43.135705" lon="-2.8028173">
        <ele>236.018</ele>
        <time>2021-04-01T09:30:57.649Z</time>
      </trkpt>
      <trkpt lat="43.1357057" lon="-2.8028189">
        <ele>236.044</ele>
        <time>2021-04-01T09:30:57.704Z</time>
      </trkpt>
      <trkpt lat="43.1357066" lon="-2.8028207">
        <ele>236.065</ele>
        <time>2021-04-01T09:30:57.756Z</time>
      </trkpt>
      <trkpt lat="43.1357076" lon="-2.8028219">
        <ele>236.045</ele>
        <time>2021-04-01T09:30:57.808Z</time>
      </trkpt>
      <trkpt lat="43.1357086" lon="-2.8028234">
        <ele>236.064</ele>
        <time>2021-04-01T09:30:57.860Z</time>
      </trkpt>
      <trkpt lat="43.1357095" lon="-2.8028247">
        <ele>236.083</ele>
        <time>2021-04-01T09:30:57.912Z</time>
      </trkpt>
      <trkpt lat="43.1357105" lon="-2.802826">
        <ele>236.091</ele>
        <time>2021-04-01T09:30:57.964Z</time>
      </trkpt>
      <trkpt lat="43.1357115" lon="-2.8028272">
        <ele>236.105</ele>
        <time>2021-04-01T09:30:58.016Z</time>
      </trkpt>
      <trkpt lat="43.1357126" lon="-2.8028283">
        <ele>236.092</ele>
        <time>2021-04-01T09:30:58.068Z</time>
      </trkpt>
      <trkpt lat="43.1357137" lon="-2.80283">
        <ele>236.12</ele>
        <time>2021-04-01T09:30:58.120Z</time>
      </trkpt>
      <trkpt lat="43.1357146" lon="-2.8028315">
        <ele>236.146</ele>
        <time>2021-04-01T09:30:58.172Z</time>
      </trkpt>
      <trkpt lat="43.1357156" lon="-2.8028332">
        <ele>236.162</ele>
        <time>2021-04-01T09:30:58.225Z</time>
      </trkpt>
      <trkpt lat="43.1357165" lon="-2.8028347">
        <ele>236.157</ele>
        <time>2021-04-01T09:30:58.277Z</time>
      </trkpt>
      <trkpt lat="43.1357176" lon="-2.8028363">
        <ele>236.196</ele>
        <time>2021-04-01T09:30:58.329Z</time>
      </trkpt>
      <trkpt lat="43.1357185" lon="-2.8028381">
        <ele>236.233</ele>
        <time>2021-04-01T09:30:58.381Z</time>
      </trkpt>
      <trkpt lat="43.1357196" lon="-2.8028396">
        <ele>236.269</ele>
        <time>2021-04-01T09:30:58.433Z</time>
      </trkpt>
      <trkpt lat="43.1357207" lon="-2.8028413">
        <ele>236.307</ele>
        <time>2021-04-01T09:30:58.485Z</time>
      </trkpt>
      <trkpt lat="43.1357219" lon="-2.802843">
        <ele>236.341</ele>
        <time>2021-04-01T09:30:58.537Z</time>
      </trkpt>
      <trkpt lat="43.1357228" lon="-2.8028445">
        <ele>236.33</ele>
        <time>2021-04-01T09:30:58.589Z</time>
      </trkpt>
      <trkpt lat="43.1357237" lon="-2.8028463">
        <ele>236.321</ele>
        <time>2021-04-01T09:30:58.641Z</time>
      </trkpt>
      <trkpt lat="43.1357245" lon="-2.8028479">
        <ele>236.32</ele>
        <time>2021-04-01T09:30:58.694Z</time>
      </trkpt>
      <trkpt lat="43.1357256" lon="-2.8028494">
        <ele>236.333</ele>
        <time>2021-04-01T09:30:58.749Z</time>
      </trkpt>
      <trkpt lat="43.1357264" lon="-2.8028512">
        <ele>236.331</ele>
        <time>2021-04-01T09:30:58.804Z</time>
      </trkpt>
      <trkpt lat="43.1357273" lon="-2.802853">
        <ele>236.32</ele>
        <time>2021-04-01T09:30:58.859Z</time>
      </trkpt>
      <trkpt lat="43.1357283" lon="-2.8028546">
        <ele>236.321</ele>
        <time>2021-04-01T09:30:58.914Z</time>
      </trkpt>
      <trkpt lat="43.1357292" lon="-2.8028559">
        <ele>236.345</ele>
        <time>2021-04-01T09:30:58.969Z</time>
      </trkpt>
      <trkpt lat="43.1357301" lon="-2.8028576">
        <ele>236.347</ele>
        <time>2021-04-01T09:30:59.024Z</time>
      </trkpt>
      <trkpt lat="43.135731" lon="-2.8028591">
        <ele>236.326</ele>
        <time>2021-04-01T09:30:59.079Z</time>
      </trkpt>
      <trkpt lat="43.1357317" lon="-2.8028609">
        <ele>236.334</ele>
        <time>2021-04-01T09:30:59.134Z</time>
      </trkpt>
      <trkpt lat="43.1357323" lon="-2.8028627">
        <ele>236.339</ele>
        <time>2021-04-01T09:30:59.189Z</time>
      </trkpt>
      <trkpt lat="43.1357331" lon="-2.8028643">
        <ele>236.35</ele>
        <time>2021-04-01T09:30:59.244Z</time>
      </trkpt>
      <trkpt lat="43.135734" lon="-2.802866">
        <ele>236.354</ele>
        <time>2021-04-01T09:30:59.299Z</time>
      </trkpt>
      <trkpt lat="43.1357348" lon="-2.8028677">
        <ele>236.34</ele>
        <time>2021-04-01T09:30:59.354Z</time>
      </trkpt>
      <trkpt lat="43.1357357" lon="-2.8028695">
        <ele>236.336</ele>
        <time>2021-04-01T09:30:59.409Z</time>
      </trkpt>
      <trkpt lat="43.1357368" lon="-2.8028711">
        <ele>236.357</ele>
        <time>2021-04-01T09:30:59.464Z</time>
      </trkpt>
      <trkpt lat="43.1357377" lon="-2.8028727">
        <ele>236.356</ele>
        <time>2021-04-01T09:30:59.519Z</time>
      </trkpt>
      <trkpt lat="43.1357385" lon="-2.802874">
        <ele>236.363</ele>
        <time>2021-04-01T09:30:59.574Z</time>
      </trkpt>
      <trkpt lat="43.1357393" lon="-2.8028756">
        <ele>236.355</ele>
        <time>2021-04-01T09:30:59.629Z</time>
      </trkpt>
      <trkpt lat="43.1357401" lon="-2.8028773">
        <ele>236.352</ele>
        <time>2021-04-01T09:30:59.684Z</time>
      </trkpt>
      <trkpt lat="43.1357409" lon="-2.802879">
        <ele>236.358</ele>
        <time>2021-04-01T09:30:59.742Z</time>
      </trkpt>
      <trkpt lat="43.1357419" lon="-2.8028805">
        <ele>236.392</ele>
        <time>2021-04-01T09:30:59.800Z</time>
      </trkpt>
      <trkpt lat="43.1357427" lon="-2.8028823">
        <ele>236.401</ele>
        <time>2021-04-01T09:30:59.858Z</time>
      </trkpt>
      <trkpt lat="43.1357436" lon="-2.8028839">
        <ele>236.408</ele>
        <time>2021-04-01T09:30:59.916Z</time>
      </trkpt>
      <trkpt lat="43.1357448" lon="-2.8028855">
        <ele>236.454</ele>
        <time>2021-04-01T09:30:59.974Z</time>
      </trkpt>
      <trkpt lat="43.1357454" lon="-2.8028873">
        <ele>236.427</ele>
        <time>2021-04-01T09:31:00.032Z</time>
      </trkpt>
      <trkpt lat="43.1357465" lon="-2.8028892">
        <ele>236.488</ele>
        <time>2021-04-01T09:31:00.090Z</time>
      </trkpt>
      <trkpt lat="43.1357472" lon="-2.8028911">
        <ele>236.482</ele>
        <time>2021-04-01T09:31:00.148Z</time>
      </trkpt>
      <trkpt lat="43.135748" lon="-2.8028925">
        <ele>236.463</ele>
        <time>2021-04-01T09:31:00.206Z</time>
      </trkpt>
      <trkpt lat="43.1357489" lon="-2.802894">
        <ele>236.469</ele>
        <time>2021-04-01T09:31:00.264Z</time>
      </trkpt>
      <trkpt lat="43.1357497" lon="-2.8028958">
        <ele>236.506</ele>
        <time>2021-04-01T09:31:00.322Z</time>
      </trkpt>
      <trkpt lat="43.1357506" lon="-2.8028976">
        <ele>236.524</ele>
        <time>2021-04-01T09:31:00.380Z</time>
      </trkpt>
      <trkpt lat="43.1357516" lon="-2.8028996">
        <ele>236.581</ele>
        <time>2021-04-01T09:31:00.438Z</time>
      </trkpt>
      <trkpt lat="43.1357523" lon="-2.8029012">
        <ele>236.571</ele>
        <time>2021-04-01T09:31:00.496Z</time>
      </trkpt>
      <trkpt lat="43.1357531" lon="-2.8029026">
        <ele>236.586</ele>
        <time>2021-04-01T09:31:00.554Z</time>
      </trkpt>
      <trkpt lat="43.135754" lon="-2.8029042">
        <ele>236.613</ele>
        <time>2021-04-01T09:31:00.612Z</time>
      </trkpt>
      <trkpt lat="43.1357546" lon="-2.8029059">
        <ele>236.618</ele>
        <time>2021-04-01T09:31:00.670Z</time>
      </trkpt>
      <trkpt lat="43.1357554" lon="-2.8029077">
        <ele>236.614</ele>
        <time>2021-04-01T09:31:00.729Z</time>
      </trkpt>
      <trkpt lat="43.135756" lon="-2.8029094">
        <ele>236.609</ele>
        <time>2021-04-01T09:31:00.784Z</time>
      </trkpt>
      <trkpt lat="43.1357568" lon="-2.8029108">
        <ele>236.623</ele>
        <time>2021-04-01T09:31:00.839Z</time>
      </trkpt>
      <trkpt lat="43.1357574" lon="-2.8029124">
        <ele>236.617</ele>
        <time>2021-04-01T09:31:00.894Z</time>
      </trkpt>
      <trkpt lat="43.1357581" lon="-2.8029139">
        <ele>236.636</ele>
        <time>2021-04-01T09:31:00.949Z</time>
      </trkpt>
      <trkpt lat="43.1357586" lon="-2.8029157">
        <ele>236.668</ele>
        <time>2021-04-01T09:31:01.004Z</time>
      </trkpt>
      <trkpt lat="43.1357592" lon="-2.8029173">
        <ele>236.702</ele>
        <time>2021-04-01T09:31:01.059Z</time>
      </trkpt>
      <trkpt lat="43.13576" lon="-2.8029192">
        <ele>236.721</ele>
        <time>2021-04-01T09:31:01.114Z</time>
      </trkpt>
      <trkpt lat="43.1357606" lon="-2.8029212">
        <ele>236.719</ele>
        <time>2021-04-01T09:31:01.169Z</time>
      </trkpt>
      <trkpt lat="43.1357611" lon="-2.8029232">
        <ele>236.721</ele>
        <time>2021-04-01T09:31:01.224Z</time>
      </trkpt>
      <trkpt lat="43.1357619" lon="-2.8029254">
        <ele>236.75</ele>
        <time>2021-04-01T09:31:01.279Z</time>
      </trkpt>
      <trkpt lat="43.1357626" lon="-2.8029274">
        <ele>236.791</ele>
        <time>2021-04-01T09:31:01.334Z</time>
      </trkpt>
      <trkpt lat="43.1357634" lon="-2.8029293">
        <ele>236.812</ele>
        <time>2021-04-01T09:31:01.389Z</time>
      </trkpt>
      <trkpt lat="43.1357641" lon="-2.8029311">
        <ele>236.818</ele>
        <time>2021-04-01T09:31:01.444Z</time>
      </trkpt>
      <trkpt lat="43.1357649" lon="-2.8029331">
        <ele>236.844</ele>
        <time>2021-04-01T09:31:01.499Z</time>
      </trkpt>
      <trkpt lat="43.1357657" lon="-2.8029353">
        <ele>236.851</ele>
        <time>2021-04-01T09:31:01.554Z</time>
      </trkpt>
      <trkpt lat="43.1357664" lon="-2.8029372">
        <ele>236.865</ele>
        <time>2021-04-01T09:31:01.609Z</time>
      </trkpt>
      <trkpt lat="43.1357673" lon="-2.8029388">
        <ele>236.893</ele>
        <time>2021-04-01T09:31:01.664Z</time>
      </trkpt>
      <trkpt lat="43.1357681" lon="-2.8029405">
        <ele>236.911</ele>
        <time>2021-04-01T09:31:01.719Z</time>
      </trkpt>
      <trkpt lat="43.1357686" lon="-2.8029428">
        <ele>236.914</ele>
        <time>2021-04-01T09:31:01.774Z</time>
      </trkpt>
      <trkpt lat="43.1357694" lon="-2.8029444">
        <ele>236.961</ele>
        <time>2021-04-01T09:31:01.829Z</time>
      </trkpt>
      <trkpt lat="43.1357702" lon="-2.8029462">
        <ele>236.992</ele>
        <time>2021-04-01T09:31:01.884Z</time>
      </trkpt>
      <trkpt lat="43.1357708" lon="-2.8029479">
        <ele>237.012</ele>
        <time>2021-04-01T09:31:01.939Z</time>
      </trkpt>
      <trkpt lat="43.1357716" lon="-2.8029501">
        <ele>237.014</ele>
        <time>2021-04-01T09:31:01.994Z</time>
      </trkpt>
      <trkpt lat="43.1357723" lon="-2.8029524">
        <ele>237.05</ele>
        <time>2021-04-01T09:31:02.049Z</time>
      </trkpt>
      <trkpt lat="43.135773" lon="-2.8029542">
        <ele>237.051</ele>
        <time>2021-04-01T09:31:02.104Z</time>
      </trkpt>
      <trkpt lat="43.1357737" lon="-2.8029562">
        <ele>237.057</ele>
        <time>2021-04-01T09:31:02.159Z</time>
      </trkpt>
      <trkpt lat="43.1357747" lon="-2.8029583">
        <ele>237.071</ele>
        <time>2021-04-01T09:31:02.214Z</time>
      </trkpt>
      <trkpt lat="43.1357752" lon="-2.8029603">
        <ele>237.075</ele>
        <time>2021-04-01T09:31:02.269Z</time>
      </trkpt>
      <trkpt lat="43.1357758" lon="-2.8029625">
        <ele>237.072</ele>
        <time>2021-04-01T09:31:02.324Z</time>
      </trkpt>
      <trkpt lat="43.1357764" lon="-2.8029644">
        <ele>237.057</ele>
        <time>2021-04-01T09:31:02.379Z</time>
      </trkpt>
      <trkpt lat="43.135777" lon="-2.8029661">
        <ele>237.073</ele>
        <time>2021-04-01T09:31:02.434Z</time>
      </trkpt>
      <trkpt lat="43.1357777" lon="-2.8029682">
        <ele>237.122</ele>
        <time>2021-04-01T09:31:02.489Z</time>
      </trkpt>
      <trkpt lat="43.1357783" lon="-2.8029702">
        <ele>237.102</ele>
        <time>2021-04-01T09:31:02.544Z</time>
      </trkpt>
      <trkpt lat="43.1357789" lon="-2.8029724">
        <ele>237.134</ele>
        <time>2021-04-01T09:31:02.599Z</time>
      </trkpt>
      <trkpt lat="43.1357795" lon="-2.8029744">
        <ele>237.161</ele>
        <time>2021-04-01T09:31:02.654Z</time>
      </trkpt>
      <trkpt lat="43.1357801" lon="-2.8029765">
        <ele>237.169</ele>
        <time>2021-04-01T09:31:02.709Z</time>
      </trkpt>
      <trkpt lat="43.1357806" lon="-2.8029785">
        <ele>237.169</ele>
        <time>2021-04-01T09:31:02.764Z</time>
      </trkpt>
      <trkpt lat="43.1357812" lon="-2.8029808">
        <ele>237.182</ele>
        <time>2021-04-01T09:31:02.819Z</time>
      </trkpt>
      <trkpt lat="43.1357817" lon="-2.8029828">
        <ele>237.197</ele>
        <time>2021-04-01T09:31:02.874Z</time>
      </trkpt>
      <trkpt lat="43.1357823" lon="-2.8029849">
        <ele>237.21</ele>
        <time>2021-04-01T09:31:02.929Z</time>
      </trkpt>
      <trkpt lat="43.1357828" lon="-2.8029868">
        <ele>237.222</ele>
        <time>2021-04-01T09:31:02.984Z</time>
      </trkpt>
      <trkpt lat="43.1357833" lon="-2.8029887">
        <ele>237.224</ele>
        <time>2021-04-01T09:31:03.039Z</time>
      </trkpt>
      <trkpt lat="43.1357837" lon="-2.8029906">
        <ele>237.199</ele>
        <time>2021-04-01T09:31:03.094Z</time>
      </trkpt>
      <trkpt lat="43.1357842" lon="-2.8029927">
        <ele>237.193</ele>
        <time>2021-04-01T09:31:03.149Z</time>
      </trkpt>
      <trkpt lat="43.135785" lon="-2.8029947">
        <ele>237.214</ele>
        <time>2021-04-01T09:31:03.204Z</time>
      </trkpt>
      <trkpt lat="43.1357856" lon="-2.8029968">
        <ele>237.229</ele>
        <time>2021-04-01T09:31:03.259Z</time>
      </trkpt>
      <trkpt lat="43.1357861" lon="-2.8029991">
        <ele>237.24</ele>
        <time>2021-04-01T09:31:03.314Z</time>
      </trkpt>
      <trkpt lat="43.1357865" lon="-2.8030015">
        <ele>237.259</ele>
        <time>2021-04-01T09:31:03.369Z</time>
      </trkpt>
      <trkpt lat="43.135787" lon="-2.8030038">
        <ele>237.26</ele>
        <time>2021-04-01T09:31:03.424Z</time>
      </trkpt>
      <trkpt lat="43.1357877" lon="-2.8030062">
        <ele>237.259</ele>
        <time>2021-04-01T09:31:03.479Z</time>
      </trkpt>
      <trkpt lat="43.1357884" lon="-2.8030081">
        <ele>237.233</ele>
        <time>2021-04-01T09:31:03.534Z</time>
      </trkpt>
      <trkpt lat="43.1357886" lon="-2.8030096">
        <ele>237.265</ele>
        <time>2021-04-01T09:31:03.589Z</time>
      </trkpt>
      <trkpt lat="43.135789" lon="-2.8030113">
        <ele>237.252</ele>
        <time>2021-04-01T09:31:03.644Z</time>
      </trkpt>
      <trkpt lat="43.1357895" lon="-2.8030133">
        <ele>237.253</ele>
        <time>2021-04-01T09:31:03.699Z</time>
      </trkpt>
      <trkpt lat="43.13579" lon="-2.8030153">
        <ele>237.237</ele>
        <time>2021-04-01T09:31:03.754Z</time>
      </trkpt>
      <trkpt lat="43.1357905" lon="-2.8030175">
        <ele>237.24</ele>
        <time>2021-04-01T09:31:03.812Z</time>
      </trkpt>
      <trkpt lat="43.1357912" lon="-2.8030196">
        <ele>237.229</ele>
        <time>2021-04-01T09:31:03.870Z</time>
      </trkpt>
      <trkpt lat="43.1357917" lon="-2.8030217">
        <ele>237.212</ele>
        <time>2021-04-01T09:31:03.928Z</time>
      </trkpt>
      <trkpt lat="43.1357923" lon="-2.8030239">
        <ele>237.207</ele>
        <time>2021-04-01T09:31:03.986Z</time>
      </trkpt>
      <trkpt lat="43.1357927" lon="-2.8030262">
        <ele>237.181</ele>
        <time>2021-04-01T09:31:04.045Z</time>
      </trkpt>
      <trkpt lat="43.1357929" lon="-2.8030288">
        <ele>237.115</ele>
        <time>2021-04-01T09:31:04.103Z</time>
      </trkpt>
      <trkpt lat="43.1357934" lon="-2.8030311">
        <ele>237.135</ele>
        <time>2021-04-01T09:31:04.161Z</time>
      </trkpt>
      <trkpt lat="43.1357941" lon="-2.8030334">
        <ele>237.212</ele>
        <time>2021-04-01T09:31:04.219Z</time>
      </trkpt>
      <trkpt lat="43.1357948" lon="-2.8030354">
        <ele>237.257</ele>
        <time>2021-04-01T09:31:04.278Z</time>
      </trkpt>
      <trkpt lat="43.1357955" lon="-2.8030373">
        <ele>237.232</ele>
        <time>2021-04-01T09:31:04.336Z</time>
      </trkpt>
      <trkpt lat="43.135796" lon="-2.8030392">
        <ele>237.196</ele>
        <time>2021-04-01T09:31:04.394Z</time>
      </trkpt>
      <trkpt lat="43.1357963" lon="-2.8030412">
        <ele>237.154</ele>
        <time>2021-04-01T09:31:04.452Z</time>
      </trkpt>
      <trkpt lat="43.1357967" lon="-2.8030431">
        <ele>237.145</ele>
        <time>2021-04-01T09:31:04.511Z</time>
      </trkpt>
      <trkpt lat="43.1357972" lon="-2.8030452">
        <ele>237.143</ele>
        <time>2021-04-01T09:31:04.569Z</time>
      </trkpt>
      <trkpt lat="43.1357977" lon="-2.8030472">
        <ele>237.14</ele>
        <time>2021-04-01T09:31:04.627Z</time>
      </trkpt>
      <trkpt lat="43.135798" lon="-2.8030493">
        <ele>237.113</ele>
        <time>2021-04-01T09:31:04.685Z</time>
      </trkpt>
      <trkpt lat="43.1357987" lon="-2.8030515">
        <ele>237.092</ele>
        <time>2021-04-01T09:31:04.744Z</time>
      </trkpt>
      <trkpt lat="43.1357994" lon="-2.8030538">
        <ele>237.098</ele>
        <time>2021-04-01T09:31:04.796Z</time>
      </trkpt>
      <trkpt lat="43.1358" lon="-2.8030558">
        <ele>237.09</ele>
        <time>2021-04-01T09:31:04.848Z</time>
      </trkpt>
      <trkpt lat="43.1358006" lon="-2.8030575">
        <ele>237.073</ele>
        <time>2021-04-01T09:31:04.900Z</time>
      </trkpt>
      <trkpt lat="43.1358011" lon="-2.8030594">
        <ele>237.074</ele>
        <time>2021-04-01T09:31:04.952Z</time>
      </trkpt>
      <trkpt lat="43.1358015" lon="-2.8030618">
        <ele>237.074</ele>
        <time>2021-04-01T09:31:05.004Z</time>
      </trkpt>
      <trkpt lat="43.135802" lon="-2.8030641">
        <ele>237.07</ele>
        <time>2021-04-01T09:31:05.056Z</time>
      </trkpt>
      <trkpt lat="43.1358024" lon="-2.8030663">
        <ele>237.088</ele>
        <time>2021-04-01T09:31:05.108Z</time>
      </trkpt>
      <trkpt lat="43.1358027" lon="-2.8030683">
        <ele>237.109</ele>
        <time>2021-04-01T09:31:05.160Z</time>
      </trkpt>
      <trkpt lat="43.1358033" lon="-2.8030707">
        <ele>237.114</ele>
        <time>2021-04-01T09:31:05.212Z</time>
      </trkpt>
      <trkpt lat="43.1358038" lon="-2.8030731">
        <ele>237.063</ele>
        <time>2021-04-01T09:31:05.265Z</time>
      </trkpt>
      <trkpt lat="43.1358045" lon="-2.8030754">
        <ele>237.092</ele>
        <time>2021-04-01T09:31:05.317Z</time>
      </trkpt>
      <trkpt lat="43.1358053" lon="-2.8030776">
        <ele>237.152</ele>
        <time>2021-04-01T09:31:05.369Z</time>
      </trkpt>
      <trkpt lat="43.1358061" lon="-2.8030798">
        <ele>237.198</ele>
        <time>2021-04-01T09:31:05.421Z</time>
      </trkpt>
      <trkpt lat="43.1358068" lon="-2.8030818">
        <ele>237.205</ele>
        <time>2021-04-01T09:31:05.473Z</time>
      </trkpt>
      <trkpt lat="43.1358075" lon="-2.8030839">
        <ele>237.222</ele>
        <time>2021-04-01T09:31:05.525Z</time>
      </trkpt>
      <trkpt lat="43.135808" lon="-2.8030859">
        <ele>237.228</ele>
        <time>2021-04-01T09:31:05.577Z</time>
      </trkpt>
      <trkpt lat="43.1358086" lon="-2.8030882">
        <ele>237.245</ele>
        <time>2021-04-01T09:31:05.629Z</time>
      </trkpt>
      <trkpt lat="43.1358091" lon="-2.8030904">
        <ele>237.25</ele>
        <time>2021-04-01T09:31:05.681Z</time>
      </trkpt>
      <trkpt lat="43.1358098" lon="-2.8030927">
        <ele>237.266</ele>
        <time>2021-04-01T09:31:05.734Z</time>
      </trkpt>
      <trkpt lat="43.1358105" lon="-2.8030946">
        <ele>237.291</ele>
        <time>2021-04-01T09:31:05.789Z</time>
      </trkpt>
      <trkpt lat="43.135811" lon="-2.803097">
        <ele>237.296</ele>
        <time>2021-04-01T09:31:05.844Z</time>
      </trkpt>
      <trkpt lat="43.1358117" lon="-2.8030993">
        <ele>237.307</ele>
        <time>2021-04-01T09:31:05.899Z</time>
      </trkpt>
      <trkpt lat="43.1358123" lon="-2.8031017">
        <ele>237.308</ele>
        <time>2021-04-01T09:31:05.954Z</time>
      </trkpt>
      <trkpt lat="43.1358132" lon="-2.8031034">
        <ele>237.318</ele>
        <time>2021-04-01T09:31:06.009Z</time>
      </trkpt>
      <trkpt lat="43.1358139" lon="-2.8031055">
        <ele>237.342</ele>
        <time>2021-04-01T09:31:06.064Z</time>
      </trkpt>
      <trkpt lat="43.1358146" lon="-2.8031074">
        <ele>237.371</ele>
        <time>2021-04-01T09:31:06.119Z</time>
      </trkpt>
      <trkpt lat="43.1358152" lon="-2.8031093">
        <ele>237.368</ele>
        <time>2021-04-01T09:31:06.174Z</time>
      </trkpt>
      <trkpt lat="43.1358159" lon="-2.8031115">
        <ele>237.355</ele>
        <time>2021-04-01T09:31:06.229Z</time>
      </trkpt>
      <trkpt lat="43.1358166" lon="-2.8031135">
        <ele>237.357</ele>
        <time>2021-04-01T09:31:06.284Z</time>
      </trkpt>
      <trkpt lat="43.135817" lon="-2.8031158">
        <ele>237.352</ele>
        <time>2021-04-01T09:31:06.339Z</time>
      </trkpt>
      <trkpt lat="43.1358176" lon="-2.8031179">
        <ele>237.366</ele>
        <time>2021-04-01T09:31:06.394Z</time>
      </trkpt>
      <trkpt lat="43.1358181" lon="-2.8031202">
        <ele>237.352</ele>
        <time>2021-04-01T09:31:06.449Z</time>
      </trkpt>
      <trkpt lat="43.1358187" lon="-2.8031224">
        <ele>237.365</ele>
        <time>2021-04-01T09:31:06.504Z</time>
      </trkpt>
      <trkpt lat="43.1358193" lon="-2.8031245">
        <ele>237.372</ele>
        <time>2021-04-01T09:31:06.559Z</time>
      </trkpt>
      <trkpt lat="43.13582" lon="-2.8031264">
        <ele>237.388</ele>
        <time>2021-04-01T09:31:06.614Z</time>
      </trkpt>
      <trkpt lat="43.1358206" lon="-2.8031283">
        <ele>237.4</ele>
        <time>2021-04-01T09:31:06.669Z</time>
      </trkpt>
      <trkpt lat="43.1358212" lon="-2.8031305">
        <ele>237.382</ele>
        <time>2021-04-01T09:31:06.724Z</time>
      </trkpt>
      <trkpt lat="43.1358218" lon="-2.8031322">
        <ele>237.387</ele>
        <time>2021-04-01T09:31:06.776Z</time>
      </trkpt>
      <trkpt lat="43.1358221" lon="-2.803134">
        <ele>237.353</ele>
        <time>2021-04-01T09:31:06.828Z</time>
      </trkpt>
      <trkpt lat="43.1358234" lon="-2.803136">
        <ele>237.405</ele>
        <time>2021-04-01T09:31:06.880Z</time>
      </trkpt>
      <trkpt lat="43.1358242" lon="-2.803138">
        <ele>237.402</ele>
        <time>2021-04-01T09:31:06.932Z</time>
      </trkpt>
      <trkpt lat="43.135825" lon="-2.8031397">
        <ele>237.407</ele>
        <time>2021-04-01T09:31:06.984Z</time>
      </trkpt>
      <trkpt lat="43.1358258" lon="-2.8031417">
        <ele>237.404</ele>
        <time>2021-04-01T09:31:07.036Z</time>
      </trkpt>
      <trkpt lat="43.1358268" lon="-2.8031439">
        <ele>237.429</ele>
        <time>2021-04-01T09:31:07.088Z</time>
      </trkpt>
      <trkpt lat="43.1358274" lon="-2.8031459">
        <ele>237.45</ele>
        <time>2021-04-01T09:31:07.140Z</time>
      </trkpt>
      <trkpt lat="43.135828" lon="-2.8031478">
        <ele>237.497</ele>
        <time>2021-04-01T09:31:07.192Z</time>
      </trkpt>
      <trkpt lat="43.1358287" lon="-2.8031497">
        <ele>237.511</ele>
        <time>2021-04-01T09:31:07.245Z</time>
      </trkpt>
      <trkpt lat="43.1358293" lon="-2.803152">
        <ele>237.521</ele>
        <time>2021-04-01T09:31:07.297Z</time>
      </trkpt>
      <trkpt lat="43.1358303" lon="-2.8031539">
        <ele>237.554</ele>
        <time>2021-04-01T09:31:07.349Z</time>
      </trkpt>
      <trkpt lat="43.1358306" lon="-2.8031559">
        <ele>237.521</ele>
        <time>2021-04-01T09:31:07.401Z</time>
      </trkpt>
      <trkpt lat="43.1358312" lon="-2.8031576">
        <ele>237.498</ele>
        <time>2021-04-01T09:31:07.453Z</time>
      </trkpt>
      <trkpt lat="43.1358316" lon="-2.8031597">
        <ele>237.468</ele>
        <time>2021-04-01T09:31:07.505Z</time>
      </trkpt>
      <trkpt lat="43.1358321" lon="-2.8031619">
        <ele>237.435</ele>
        <time>2021-04-01T09:31:07.557Z</time>
      </trkpt>
      <trkpt lat="43.1358326" lon="-2.8031639">
        <ele>237.412</ele>
        <time>2021-04-01T09:31:07.609Z</time>
      </trkpt>
      <trkpt lat="43.1358331" lon="-2.8031662">
        <ele>237.466</ele>
        <time>2021-04-01T09:31:07.661Z</time>
      </trkpt>
      <trkpt lat="43.1358338" lon="-2.8031683">
        <ele>237.493</ele>
        <time>2021-04-01T09:31:07.714Z</time>
      </trkpt>
      <trkpt lat="43.1358346" lon="-2.8031702">
        <ele>237.52</ele>
        <time>2021-04-01T09:31:07.772Z</time>
      </trkpt>
      <trkpt lat="43.1358354" lon="-2.8031721">
        <ele>237.536</ele>
        <time>2021-04-01T09:31:07.830Z</time>
      </trkpt>
      <trkpt lat="43.1358358" lon="-2.8031739">
        <ele>237.553</ele>
        <time>2021-04-01T09:31:07.888Z</time>
      </trkpt>
      <trkpt lat="43.1358364" lon="-2.803176">
        <ele>237.551</ele>
        <time>2021-04-01T09:31:07.946Z</time>
      </trkpt>
      <trkpt lat="43.1358371" lon="-2.8031779">
        <ele>237.576</ele>
        <time>2021-04-01T09:31:08.004Z</time>
      </trkpt>
      <trkpt lat="43.1358377" lon="-2.8031801">
        <ele>237.586</ele>
        <time>2021-04-01T09:31:08.062Z</time>
      </trkpt>
      <trkpt lat="43.1358382" lon="-2.8031823">
        <ele>237.587</ele>
        <time>2021-04-01T09:31:08.120Z</time>
      </trkpt>
      <trkpt lat="43.1358386" lon="-2.8031845">
        <ele>237.57</ele>
        <time>2021-04-01T09:31:08.178Z</time>
      </trkpt>
      <trkpt lat="43.1358392" lon="-2.8031865">
        <ele>237.536</ele>
        <time>2021-04-01T09:31:08.236Z</time>
      </trkpt>
      <trkpt lat="43.1358398" lon="-2.8031883">
        <ele>237.52</ele>
        <time>2021-04-01T09:31:08.294Z</time>
      </trkpt>
      <trkpt lat="43.1358403" lon="-2.8031902">
        <ele>237.493</ele>
        <time>2021-04-01T09:31:08.352Z</time>
      </trkpt>
      <trkpt lat="43.1358405" lon="-2.8031919">
        <ele>237.471</ele>
        <time>2021-04-01T09:31:08.410Z</time>
      </trkpt>
      <trkpt lat="43.1358409" lon="-2.8031938">
        <ele>237.467</ele>
        <time>2021-04-01T09:31:08.468Z</time>
      </trkpt>
      <trkpt lat="43.1358413" lon="-2.8031954">
        <ele>237.467</ele>
        <time>2021-04-01T09:31:08.526Z</time>
      </trkpt>
      <trkpt lat="43.1358418" lon="-2.8031972">
        <ele>237.456</ele>
        <time>2021-04-01T09:31:08.584Z</time>
      </trkpt>
      <trkpt lat="43.1358426" lon="-2.803199">
        <ele>237.469</ele>
        <time>2021-04-01T09:31:08.642Z</time>
      </trkpt>
      <trkpt lat="43.1358431" lon="-2.8032008">
        <ele>237.462</ele>
        <time>2021-04-01T09:31:08.700Z</time>
      </trkpt>
      <trkpt lat="43.135844" lon="-2.8032027">
        <ele>237.484</ele>
        <time>2021-04-01T09:31:08.759Z</time>
      </trkpt>
      <trkpt lat="43.1358447" lon="-2.8032048">
        <ele>237.492</ele>
        <time>2021-04-01T09:31:08.814Z</time>
      </trkpt>
      <trkpt lat="43.1358454" lon="-2.8032069">
        <ele>237.489</ele>
        <time>2021-04-01T09:31:08.869Z</time>
      </trkpt>
      <trkpt lat="43.1358461" lon="-2.803209">
        <ele>237.494</ele>
        <time>2021-04-01T09:31:08.924Z</time>
      </trkpt>
      <trkpt lat="43.1358467" lon="-2.8032112">
        <ele>237.496</ele>
        <time>2021-04-01T09:31:08.979Z</time>
      </trkpt>
      <trkpt lat="43.1358473" lon="-2.8032131">
        <ele>237.506</ele>
        <time>2021-04-01T09:31:09.034Z</time>
      </trkpt>
      <trkpt lat="43.1358479" lon="-2.8032149">
        <ele>237.531</ele>
        <time>2021-04-01T09:31:09.089Z</time>
      </trkpt>
      <trkpt lat="43.1358483" lon="-2.8032167">
        <ele>237.533</ele>
        <time>2021-04-01T09:31:09.144Z</time>
      </trkpt>
      <trkpt lat="43.1358489" lon="-2.8032191">
        <ele>237.557</ele>
        <time>2021-04-01T09:31:09.199Z</time>
      </trkpt>
      <trkpt lat="43.1358494" lon="-2.8032209">
        <ele>237.561</ele>
        <time>2021-04-01T09:31:09.254Z</time>
      </trkpt>
      <trkpt lat="43.13585" lon="-2.803223">
        <ele>237.589</ele>
        <time>2021-04-01T09:31:09.309Z</time>
      </trkpt>
      <trkpt lat="43.1358505" lon="-2.8032257">
        <ele>237.638</ele>
        <time>2021-04-01T09:31:09.364Z</time>
      </trkpt>
      <trkpt lat="43.1358508" lon="-2.8032278">
        <ele>237.645</ele>
        <time>2021-04-01T09:31:09.419Z</time>
      </trkpt>
      <trkpt lat="43.1358515" lon="-2.80323">
        <ele>237.658</ele>
        <time>2021-04-01T09:31:09.474Z</time>
      </trkpt>
      <trkpt lat="43.135852" lon="-2.803232">
        <ele>237.67</ele>
        <time>2021-04-01T09:31:09.529Z</time>
      </trkpt>
      <trkpt lat="43.1358528" lon="-2.8032342">
        <ele>237.683</ele>
        <time>2021-04-01T09:31:09.584Z</time>
      </trkpt>
      <trkpt lat="43.1358532" lon="-2.8032363">
        <ele>237.658</ele>
        <time>2021-04-01T09:31:09.639Z</time>
      </trkpt>
      <trkpt lat="43.1358537" lon="-2.8032383">
        <ele>237.656</ele>
        <time>2021-04-01T09:31:09.694Z</time>
      </trkpt>
      <trkpt lat="43.1358543" lon="-2.8032404">
        <ele>237.661</ele>
        <time>2021-04-01T09:31:09.749Z</time>
      </trkpt>
      <trkpt lat="43.1358551" lon="-2.8032427">
        <ele>237.697</ele>
        <time>2021-04-01T09:31:09.804Z</time>
      </trkpt>
      <trkpt lat="43.1358558" lon="-2.8032451">
        <ele>237.72</ele>
        <time>2021-04-01T09:31:09.859Z</time>
      </trkpt>
      <trkpt lat="43.1358565" lon="-2.8032468">
        <ele>237.82</ele>
        <time>2021-04-01T09:31:09.914Z</time>
      </trkpt>
      <trkpt lat="43.1358575" lon="-2.8032486">
        <ele>237.905</ele>
        <time>2021-04-01T09:31:09.969Z</time>
      </trkpt>
      <trkpt lat="43.1358582" lon="-2.8032503">
        <ele>237.978</ele>
        <time>2021-04-01T09:31:10.024Z</time>
      </trkpt>
      <trkpt lat="43.135859" lon="-2.8032526">
        <ele>237.964</ele>
        <time>2021-04-01T09:31:10.079Z</time>
      </trkpt>
      <trkpt lat="43.1358598" lon="-2.8032551">
        <ele>238.026</ele>
        <time>2021-04-01T09:31:10.134Z</time>
      </trkpt>
      <trkpt lat="43.1358605" lon="-2.8032574">
        <ele>238.054</ele>
        <time>2021-04-01T09:31:10.189Z</time>
      </trkpt>
      <trkpt lat="43.1358609" lon="-2.8032592">
        <ele>238.041</ele>
        <time>2021-04-01T09:31:10.244Z</time>
      </trkpt>
      <trkpt lat="43.1358616" lon="-2.8032614">
        <ele>238.054</ele>
        <time>2021-04-01T09:31:10.299Z</time>
      </trkpt>
      <trkpt lat="43.1358623" lon="-2.8032631">
        <ele>238.089</ele>
        <time>2021-04-01T09:31:10.354Z</time>
      </trkpt>
      <trkpt lat="43.1358631" lon="-2.8032652">
        <ele>238.131</ele>
        <time>2021-04-01T09:31:10.409Z</time>
      </trkpt>
      <trkpt lat="43.1358639" lon="-2.8032677">
        <ele>238.175</ele>
        <time>2021-04-01T09:31:10.464Z</time>
      </trkpt>
      <trkpt lat="43.1358641" lon="-2.8032695">
        <ele>238.176</ele>
        <time>2021-04-01T09:31:10.519Z</time>
      </trkpt>
      <trkpt lat="43.1358647" lon="-2.8032716">
        <ele>238.201</ele>
        <time>2021-04-01T09:31:10.574Z</time>
      </trkpt>
      <trkpt lat="43.1358652" lon="-2.8032737">
        <ele>238.248</ele>
        <time>2021-04-01T09:31:10.629Z</time>
      </trkpt>
      <trkpt lat="43.1358658" lon="-2.8032757">
        <ele>238.257</ele>
        <time>2021-04-01T09:31:10.684Z</time>
      </trkpt>
      <trkpt lat="43.1358665" lon="-2.8032778">
        <ele>238.28</ele>
        <time>2021-04-01T09:31:10.739Z</time>
      </trkpt>
      <trkpt lat="43.1358673" lon="-2.8032796">
        <ele>238.374</ele>
        <time>2021-04-01T09:31:10.794Z</time>
      </trkpt>
      <trkpt lat="43.135868" lon="-2.8032817">
        <ele>238.379</ele>
        <time>2021-04-01T09:31:10.849Z</time>
      </trkpt>
      <trkpt lat="43.1358686" lon="-2.8032835">
        <ele>238.425</ele>
        <time>2021-04-01T09:31:10.904Z</time>
      </trkpt>
      <trkpt lat="43.1358694" lon="-2.8032854">
        <ele>238.483</ele>
        <time>2021-04-01T09:31:10.959Z</time>
      </trkpt>
      <trkpt lat="43.13587" lon="-2.8032876">
        <ele>238.503</ele>
        <time>2021-04-01T09:31:11.014Z</time>
      </trkpt>
      <trkpt lat="43.1358704" lon="-2.8032897">
        <ele>238.513</ele>
        <time>2021-04-01T09:31:11.069Z</time>
      </trkpt>
      <trkpt lat="43.1358712" lon="-2.8032918">
        <ele>238.572</ele>
        <time>2021-04-01T09:31:11.124Z</time>
      </trkpt>
      <trkpt lat="43.1358717" lon="-2.8032938">
        <ele>238.597</ele>
        <time>2021-04-01T09:31:11.179Z</time>
      </trkpt>
      <trkpt lat="43.1358721" lon="-2.8032959">
        <ele>238.585</ele>
        <time>2021-04-01T09:31:11.234Z</time>
      </trkpt>
      <trkpt lat="43.1358723" lon="-2.8032978">
        <ele>238.544</ele>
        <time>2021-04-01T09:31:11.289Z</time>
      </trkpt>
      <trkpt lat="43.1358727" lon="-2.8032999">
        <ele>238.555</ele>
        <time>2021-04-01T09:31:11.344Z</time>
      </trkpt>
      <trkpt lat="43.135873" lon="-2.8033021">
        <ele>238.534</ele>
        <time>2021-04-01T09:31:11.399Z</time>
      </trkpt>
      <trkpt lat="43.1358732" lon="-2.8033041">
        <ele>238.554</ele>
        <time>2021-04-01T09:31:11.454Z</time>
      </trkpt>
      <trkpt lat="43.1358736" lon="-2.803306">
        <ele>238.584</ele>
        <time>2021-04-01T09:31:11.509Z</time>
      </trkpt>
      <trkpt lat="43.135874" lon="-2.803308">
        <ele>238.62</ele>
        <time>2021-04-01T09:31:11.564Z</time>
      </trkpt>
      <trkpt lat="43.1358743" lon="-2.8033101">
        <ele>238.651</ele>
        <time>2021-04-01T09:31:11.619Z</time>
      </trkpt>
      <trkpt lat="43.1358746" lon="-2.8033117">
        <ele>238.708</ele>
        <time>2021-04-01T09:31:11.674Z</time>
      </trkpt>
      <trkpt lat="43.1358751" lon="-2.8033135">
        <ele>238.747</ele>
        <time>2021-04-01T09:31:11.729Z</time>
      </trkpt>
      <trkpt lat="43.1358756" lon="-2.8033155">
        <ele>238.764</ele>
        <time>2021-04-01T09:31:11.787Z</time>
      </trkpt>
      <trkpt lat="43.1358763" lon="-2.8033172">
        <ele>238.758</ele>
        <time>2021-04-01T09:31:11.845Z</time>
      </trkpt>
      <trkpt lat="43.135877" lon="-2.8033194">
        <ele>238.72</ele>
        <time>2021-04-01T09:31:11.903Z</time>
      </trkpt>
      <trkpt lat="43.1358776" lon="-2.8033215">
        <ele>238.742</ele>
        <time>2021-04-01T09:31:11.961Z</time>
      </trkpt>
      <trkpt lat="43.1358783" lon="-2.8033235">
        <ele>238.766</ele>
        <time>2021-04-01T09:31:12.019Z</time>
      </trkpt>
      <trkpt lat="43.1358787" lon="-2.8033254">
        <ele>238.774</ele>
        <time>2021-04-01T09:31:12.077Z</time>
      </trkpt>
      <trkpt lat="43.1358792" lon="-2.8033274">
        <ele>238.815</ele>
        <time>2021-04-01T09:31:12.135Z</time>
      </trkpt>
      <trkpt lat="43.1358797" lon="-2.8033293">
        <ele>238.819</ele>
        <time>2021-04-01T09:31:12.193Z</time>
      </trkpt>
      <trkpt lat="43.1358804" lon="-2.8033308">
        <ele>238.888</ele>
        <time>2021-04-01T09:31:12.251Z</time>
      </trkpt>
      <trkpt lat="43.135881" lon="-2.8033327">
        <ele>238.912</ele>
        <time>2021-04-01T09:31:12.309Z</time>
      </trkpt>
      <trkpt lat="43.1358817" lon="-2.8033349">
        <ele>238.935</ele>
        <time>2021-04-01T09:31:12.367Z</time>
      </trkpt>
      <trkpt lat="43.1358825" lon="-2.8033369">
        <ele>238.975</ele>
        <time>2021-04-01T09:31:12.425Z</time>
      </trkpt>
      <trkpt lat="43.1358835" lon="-2.8033387">
        <ele>239.017</ele>
        <time>2021-04-01T09:31:12.483Z</time>
      </trkpt>
      <trkpt lat="43.1358844" lon="-2.8033407">
        <ele>239.074</ele>
        <time>2021-04-01T09:31:12.541Z</time>
      </trkpt>
      <trkpt lat="43.135885" lon="-2.8033425">
        <ele>239.117</ele>
        <time>2021-04-01T09:31:12.599Z</time>
      </trkpt>
      <trkpt lat="43.1358859" lon="-2.8033445">
        <ele>239.147</ele>
        <time>2021-04-01T09:31:12.657Z</time>
      </trkpt>
      <trkpt lat="43.1358868" lon="-2.8033469">
        <ele>239.141</ele>
        <time>2021-04-01T09:31:12.715Z</time>
      </trkpt>
      <trkpt lat="43.1358873" lon="-2.803349">
        <ele>239.132</ele>
        <time>2021-04-01T09:31:12.774Z</time>
      </trkpt>
      <trkpt lat="43.1358879" lon="-2.8033508">
        <ele>239.144</ele>
        <time>2021-04-01T09:31:12.823Z</time>
      </trkpt>
      <trkpt lat="43.1358882" lon="-2.8033523">
        <ele>239.116</ele>
        <time>2021-04-01T09:31:12.872Z</time>
      </trkpt>
      <trkpt lat="43.1358885" lon="-2.8033538">
        <ele>239.133</ele>
        <time>2021-04-01T09:31:12.921Z</time>
      </trkpt>
      <trkpt lat="43.1358889" lon="-2.8033561">
        <ele>239.119</ele>
        <time>2021-04-01T09:31:12.970Z</time>
      </trkpt>
      <trkpt lat="43.13589" lon="-2.803358">
        <ele>239.134</ele>
        <time>2021-04-01T09:31:13.020Z</time>
      </trkpt>
      <trkpt lat="43.1358905" lon="-2.8033597">
        <ele>239.133</ele>
        <time>2021-04-01T09:31:13.069Z</time>
      </trkpt>
      <trkpt lat="43.1358912" lon="-2.8033614">
        <ele>239.151</ele>
        <time>2021-04-01T09:31:13.118Z</time>
      </trkpt>
      <trkpt lat="43.1358917" lon="-2.8033633">
        <ele>239.137</ele>
        <time>2021-04-01T09:31:13.167Z</time>
      </trkpt>
      <trkpt lat="43.1358923" lon="-2.8033653">
        <ele>239.137</ele>
        <time>2021-04-01T09:31:13.216Z</time>
      </trkpt>
      <trkpt lat="43.1358931" lon="-2.8033673">
        <ele>239.141</ele>
        <time>2021-04-01T09:31:13.266Z</time>
      </trkpt>
      <trkpt lat="43.1358938" lon="-2.8033692">
        <ele>239.165</ele>
        <time>2021-04-01T09:31:13.315Z</time>
      </trkpt>
      <trkpt lat="43.1358949" lon="-2.8033715">
        <ele>239.175</ele>
        <time>2021-04-01T09:31:13.364Z</time>
      </trkpt>
      <trkpt lat="43.1358954" lon="-2.8033737">
        <ele>239.167</ele>
        <time>2021-04-01T09:31:13.413Z</time>
      </trkpt>
      <trkpt lat="43.1358959" lon="-2.8033755">
        <ele>239.229</ele>
        <time>2021-04-01T09:31:13.462Z</time>
      </trkpt>
      <trkpt lat="43.135897" lon="-2.8033771">
        <ele>239.311</ele>
        <time>2021-04-01T09:31:13.512Z</time>
      </trkpt>
      <trkpt lat="43.1358974" lon="-2.8033786">
        <ele>239.309</ele>
        <time>2021-04-01T09:31:13.561Z</time>
      </trkpt>
      <trkpt lat="43.1358981" lon="-2.8033802">
        <ele>239.309</ele>
        <time>2021-04-01T09:31:13.610Z</time>
      </trkpt>
      <trkpt lat="43.1358985" lon="-2.8033822">
        <ele>239.286</ele>
        <time>2021-04-01T09:31:13.659Z</time>
      </trkpt>
      <trkpt lat="43.1358993" lon="-2.803384">
        <ele>239.279</ele>
        <time>2021-04-01T09:31:13.709Z</time>
      </trkpt>
      <trkpt lat="43.1358995" lon="-2.8033855">
        <ele>239.254</ele>
        <time>2021-04-01T09:31:13.767Z</time>
      </trkpt>
      <trkpt lat="43.1359004" lon="-2.8033873">
        <ele>239.278</ele>
        <time>2021-04-01T09:31:13.825Z</time>
      </trkpt>
      <trkpt lat="43.1359012" lon="-2.8033891">
        <ele>239.279</ele>
        <time>2021-04-01T09:31:13.883Z</time>
      </trkpt>
      <trkpt lat="43.1359017" lon="-2.8033909">
        <ele>239.266</ele>
        <time>2021-04-01T09:31:13.941Z</time>
      </trkpt>
      <trkpt lat="43.1359023" lon="-2.8033925">
        <ele>239.267</ele>
        <time>2021-04-01T09:31:13.999Z</time>
      </trkpt>
      <trkpt lat="43.1359029" lon="-2.8033948">
        <ele>239.272</ele>
        <time>2021-04-01T09:31:14.057Z</time>
      </trkpt>
      <trkpt lat="43.1359034" lon="-2.8033963">
        <ele>239.262</ele>
        <time>2021-04-01T09:31:14.115Z</time>
      </trkpt>
      <trkpt lat="43.1359041" lon="-2.8033976">
        <ele>239.292</ele>
        <time>2021-04-01T09:31:14.173Z</time>
      </trkpt>
      <trkpt lat="43.1359049" lon="-2.8033996">
        <ele>239.32</ele>
        <time>2021-04-01T09:31:14.231Z</time>
      </trkpt>
      <trkpt lat="43.135905" lon="-2.8034011">
        <ele>239.335</ele>
        <time>2021-04-01T09:31:14.289Z</time>
      </trkpt>
      <trkpt lat="43.1359055" lon="-2.8034034">
        <ele>239.285</ele>
        <time>2021-04-01T09:31:14.347Z</time>
      </trkpt>
      <trkpt lat="43.1359061" lon="-2.8034049">
        <ele>239.278</ele>
        <time>2021-04-01T09:31:14.405Z</time>
      </trkpt>
      <trkpt lat="43.1359064" lon="-2.8034064">
        <ele>239.271</ele>
        <time>2021-04-01T09:31:14.463Z</time>
      </trkpt>
      <trkpt lat="43.1359067" lon="-2.8034079">
        <ele>239.251</ele>
        <time>2021-04-01T09:31:14.521Z</time>
      </trkpt>
      <trkpt lat="43.135907" lon="-2.8034093">
        <ele>239.228</ele>
        <time>2021-04-01T09:31:14.579Z</time>
      </trkpt>
      <trkpt lat="43.1359074" lon="-2.8034111">
        <ele>239.185</ele>
        <time>2021-04-01T09:31:14.637Z</time>
      </trkpt>
      <trkpt lat="43.1359078" lon="-2.8034129">
        <ele>239.102</ele>
        <time>2021-04-01T09:31:14.695Z</time>
      </trkpt>
      <trkpt lat="43.1359082" lon="-2.8034139">
        <ele>239.027</ele>
        <time>2021-04-01T09:31:14.754Z</time>
      </trkpt>
      <trkpt lat="43.1359086" lon="-2.8034156">
        <ele>238.928</ele>
        <time>2021-04-01T09:31:14.805Z</time>
      </trkpt>
      <trkpt lat="43.1359091" lon="-2.8034167">
        <ele>238.871</ele>
        <time>2021-04-01T09:31:14.857Z</time>
      </trkpt>
      <trkpt lat="43.1359094" lon="-2.8034179">
        <ele>238.834</ele>
        <time>2021-04-01T09:31:14.909Z</time>
      </trkpt>
      <trkpt lat="43.1359098" lon="-2.8034186">
        <ele>238.858</ele>
        <time>2021-04-01T09:31:14.961Z</time>
      </trkpt>
      <trkpt lat="43.1359104" lon="-2.8034208">
        <ele>238.781</ele>
        <time>2021-04-01T09:31:15.013Z</time>
      </trkpt>
      <trkpt lat="43.1359111" lon="-2.8034223">
        <ele>238.814</ele>
        <time>2021-04-01T09:31:15.065Z</time>
      </trkpt>
      <trkpt lat="43.1359121" lon="-2.803424">
        <ele>238.839</ele>
        <time>2021-04-01T09:31:15.117Z</time>
      </trkpt>
      <trkpt lat="43.1359128" lon="-2.803426">
        <ele>238.847</ele>
        <time>2021-04-01T09:31:15.169Z</time>
      </trkpt>
      <trkpt lat="43.1359132" lon="-2.8034275">
        <ele>238.867</ele>
        <time>2021-04-01T09:31:15.221Z</time>
      </trkpt>
      <trkpt lat="43.1359139" lon="-2.8034292">
        <ele>238.858</ele>
        <time>2021-04-01T09:31:15.273Z</time>
      </trkpt>
      <trkpt lat="43.1359141" lon="-2.8034306">
        <ele>238.864</ele>
        <time>2021-04-01T09:31:15.325Z</time>
      </trkpt>
      <trkpt lat="43.1359145" lon="-2.8034324">
        <ele>238.871</ele>
        <time>2021-04-01T09:31:15.377Z</time>
      </trkpt>
      <trkpt lat="43.1359152" lon="-2.803434">
        <ele>238.874</ele>
        <time>2021-04-01T09:31:15.429Z</time>
      </trkpt>
      <trkpt lat="43.1359158" lon="-2.8034362">
        <ele>238.848</ele>
        <time>2021-04-01T09:31:15.481Z</time>
      </trkpt>
      <trkpt lat="43.135916" lon="-2.8034379">
        <ele>238.853</ele>
        <time>2021-04-01T09:31:15.533Z</time>
      </trkpt>
      <trkpt lat="43.135916" lon="-2.8034391">
        <ele>238.885</ele>
        <time>2021-04-01T09:31:15.585Z</time>
      </trkpt>
      <trkpt lat="43.1359167" lon="-2.8034407">
        <ele>238.883</ele>
        <time>2021-04-01T09:31:15.637Z</time>
      </trkpt>
      <trkpt lat="43.1359173" lon="-2.8034424">
        <ele>238.865</ele>
        <time>2021-04-01T09:31:15.689Z</time>
      </trkpt>
      <trkpt lat="43.1359178" lon="-2.8034438">
        <ele>238.915</ele>
        <time>2021-04-01T09:31:15.747Z</time>
      </trkpt>
      <trkpt lat="43.1359183" lon="-2.8034457">
        <ele>238.927</ele>
        <time>2021-04-01T09:31:15.805Z</time>
      </trkpt>
      <trkpt lat="43.1359193" lon="-2.8034481">
        <ele>238.969</ele>
        <time>2021-04-01T09:31:15.863Z</time>
      </trkpt>
      <trkpt lat="43.1359202" lon="-2.8034499">
        <ele>239</ele>
        <time>2021-04-01T09:31:15.921Z</time>
      </trkpt>
      <trkpt lat="43.1359204" lon="-2.8034518">
        <ele>238.974</ele>
        <time>2021-04-01T09:31:15.979Z</time>
      </trkpt>
      <trkpt lat="43.1359209" lon="-2.8034538">
        <ele>238.951</ele>
        <time>2021-04-01T09:31:16.037Z</time>
      </trkpt>
      <trkpt lat="43.1359213" lon="-2.8034554">
        <ele>238.93</ele>
        <time>2021-04-01T09:31:16.095Z</time>
      </trkpt>
      <trkpt lat="43.1359217" lon="-2.8034569">
        <ele>238.9</ele>
        <time>2021-04-01T09:31:16.153Z</time>
      </trkpt>
      <trkpt lat="43.1359218" lon="-2.8034584">
        <ele>238.882</ele>
        <time>2021-04-01T09:31:16.211Z</time>
      </trkpt>
      <trkpt lat="43.135922" lon="-2.8034599">
        <ele>238.885</ele>
        <time>2021-04-01T09:31:16.269Z</time>
      </trkpt>
      <trkpt lat="43.1359225" lon="-2.8034614">
        <ele>238.955</ele>
        <time>2021-04-01T09:31:16.327Z</time>
      </trkpt>
      <trkpt lat="43.1359227" lon="-2.8034629">
        <ele>238.98</ele>
        <time>2021-04-01T09:31:16.385Z</time>
      </trkpt>
      <trkpt lat="43.135923" lon="-2.8034651">
        <ele>238.977</ele>
        <time>2021-04-01T09:31:16.443Z</time>
      </trkpt>
      <trkpt lat="43.1359234" lon="-2.8034669">
        <ele>238.984</ele>
        <time>2021-04-01T09:31:16.501Z</time>
      </trkpt>
      <trkpt lat="43.1359242" lon="-2.8034687">
        <ele>239.002</ele>
        <time>2021-04-01T09:31:16.559Z</time>
      </trkpt>
      <trkpt lat="43.1359237" lon="-2.80347">
        <ele>238.932</ele>
        <time>2021-04-01T09:31:16.617Z</time>
      </trkpt>
      <trkpt lat="43.1359236" lon="-2.8034717">
        <ele>238.907</ele>
        <time>2021-04-01T09:31:16.675Z</time>
      </trkpt>
      <trkpt lat="43.1359239" lon="-2.8034734">
        <ele>238.931</ele>
        <time>2021-04-01T09:31:16.734Z</time>
      </trkpt>
      <trkpt lat="43.1359244" lon="-2.8034753">
        <ele>238.942</ele>
        <time>2021-04-01T09:31:16.792Z</time>
      </trkpt>
      <trkpt lat="43.135925" lon="-2.8034773">
        <ele>239.009</ele>
        <time>2021-04-01T09:31:16.850Z</time>
      </trkpt>
      <trkpt lat="43.1359257" lon="-2.8034788">
        <ele>239.073</ele>
        <time>2021-04-01T09:31:16.908Z</time>
      </trkpt>
      <trkpt lat="43.1359265" lon="-2.8034806">
        <ele>239.089</ele>
        <time>2021-04-01T09:31:16.966Z</time>
      </trkpt>
      <trkpt lat="43.1359275" lon="-2.8034826">
        <ele>239.123</ele>
        <time>2021-04-01T09:31:17.024Z</time>
      </trkpt>
      <trkpt lat="43.1359282" lon="-2.8034847">
        <ele>239.062</ele>
        <time>2021-04-01T09:31:17.082Z</time>
      </trkpt>
      <trkpt lat="43.1359289" lon="-2.8034864">
        <ele>239.041</ele>
        <time>2021-04-01T09:31:17.140Z</time>
      </trkpt>
      <trkpt lat="43.1359294" lon="-2.8034876">
        <ele>239.126</ele>
        <time>2021-04-01T09:31:17.198Z</time>
      </trkpt>
      <trkpt lat="43.1359301" lon="-2.8034889">
        <ele>239.18</ele>
        <time>2021-04-01T09:31:17.256Z</time>
      </trkpt>
      <trkpt lat="43.1359307" lon="-2.8034904">
        <ele>239.22</ele>
        <time>2021-04-01T09:31:17.314Z</time>
      </trkpt>
      <trkpt lat="43.1359312" lon="-2.8034917">
        <ele>239.266</ele>
        <time>2021-04-01T09:31:17.372Z</time>
      </trkpt>
      <trkpt lat="43.135932" lon="-2.8034933">
        <ele>239.298</ele>
        <time>2021-04-01T09:31:17.430Z</time>
      </trkpt>
      <trkpt lat="43.1359326" lon="-2.803495">
        <ele>239.315</ele>
        <time>2021-04-01T09:31:17.488Z</time>
      </trkpt>
      <trkpt lat="43.1359333" lon="-2.8034966">
        <ele>239.363</ele>
        <time>2021-04-01T09:31:17.546Z</time>
      </trkpt>
      <trkpt lat="43.1359343" lon="-2.8034983">
        <ele>239.432</ele>
        <time>2021-04-01T09:31:17.604Z</time>
      </trkpt>
      <trkpt lat="43.1359351" lon="-2.8034989">
        <ele>239.543</ele>
        <time>2021-04-01T09:31:17.662Z</time>
      </trkpt>
      <trkpt lat="43.1359354" lon="-2.8034994">
        <ele>239.632</ele>
        <time>2021-04-01T09:31:17.720Z</time>
      </trkpt>
      <trkpt lat="43.1359359" lon="-2.8035004">
        <ele>239.752</ele>
        <time>2021-04-01T09:31:17.779Z</time>
      </trkpt>
      <trkpt lat="43.1359367" lon="-2.8035018">
        <ele>239.806</ele>
        <time>2021-04-01T09:31:17.830Z</time>
      </trkpt>
      <trkpt lat="43.1359372" lon="-2.8035035">
        <ele>239.842</ele>
        <time>2021-04-01T09:31:17.882Z</time>
      </trkpt>
      <trkpt lat="43.1359379" lon="-2.8035055">
        <ele>239.828</ele>
        <time>2021-04-01T09:31:17.934Z</time>
      </trkpt>
      <trkpt lat="43.1359388" lon="-2.8035071">
        <ele>239.822</ele>
        <time>2021-04-01T09:31:17.986Z</time>
      </trkpt>
      <trkpt lat="43.1359394" lon="-2.803508">
        <ele>239.814</ele>
        <time>2021-04-01T09:31:18.038Z</time>
      </trkpt>
      <trkpt lat="43.1359398" lon="-2.8035092">
        <ele>239.812</ele>
        <time>2021-04-01T09:31:18.090Z</time>
      </trkpt>
      <trkpt lat="43.1359402" lon="-2.8035111">
        <ele>239.827</ele>
        <time>2021-04-01T09:31:18.142Z</time>
      </trkpt>
      <trkpt lat="43.1359405" lon="-2.8035128">
        <ele>239.815</ele>
        <time>2021-04-01T09:31:18.194Z</time>
      </trkpt>
      <trkpt lat="43.1359403" lon="-2.8035145">
        <ele>239.727</ele>
        <time>2021-04-01T09:31:18.246Z</time>
      </trkpt>
      <trkpt lat="43.1359406" lon="-2.8035157">
        <ele>239.703</ele>
        <time>2021-04-01T09:31:18.298Z</time>
      </trkpt>
      <trkpt lat="43.1359407" lon="-2.8035165">
        <ele>239.685</ele>
        <time>2021-04-01T09:31:18.350Z</time>
      </trkpt>
      <trkpt lat="43.1359411" lon="-2.8035185">
        <ele>239.695</ele>
        <time>2021-04-01T09:31:18.402Z</time>
      </trkpt>
      <trkpt lat="43.1359421" lon="-2.8035211">
        <ele>239.762</ele>
        <time>2021-04-01T09:31:18.454Z</time>
      </trkpt>
      <trkpt lat="43.1359435" lon="-2.8035231">
        <ele>239.719</ele>
        <time>2021-04-01T09:31:18.506Z</time>
      </trkpt>
      <trkpt lat="43.1359443" lon="-2.8035247">
        <ele>239.707</ele>
        <time>2021-04-01T09:31:18.558Z</time>
      </trkpt>
      <trkpt lat="43.1359449" lon="-2.8035266">
        <ele>239.712</ele>
        <time>2021-04-01T09:31:18.610Z</time>
      </trkpt>
      <trkpt lat="43.1359458" lon="-2.8035283">
        <ele>239.708</ele>
        <time>2021-04-01T09:31:18.662Z</time>
      </trkpt>
      <trkpt lat="43.1359468" lon="-2.8035301">
        <ele>239.667</ele>
        <time>2021-04-01T09:31:18.714Z</time>
      </trkpt>
      <trkpt lat="43.1359474" lon="-2.8035315">
        <ele>239.617</ele>
        <time>2021-04-01T09:31:18.769Z</time>
      </trkpt>
      <trkpt lat="43.1359481" lon="-2.8035334">
        <ele>239.648</ele>
        <time>2021-04-01T09:31:18.824Z</time>
      </trkpt>
      <trkpt lat="43.1359487" lon="-2.8035354">
        <ele>239.685</ele>
        <time>2021-04-01T09:31:18.879Z</time>
      </trkpt>
      <trkpt lat="43.1359494" lon="-2.8035378">
        <ele>239.673</ele>
        <time>2021-04-01T09:31:18.934Z</time>
      </trkpt>
      <trkpt lat="43.1359503" lon="-2.8035406">
        <ele>239.706</ele>
        <time>2021-04-01T09:31:18.989Z</time>
      </trkpt>
      <trkpt lat="43.1359515" lon="-2.8035427">
        <ele>239.717</ele>
        <time>2021-04-01T09:31:19.044Z</time>
      </trkpt>
      <trkpt lat="43.1359524" lon="-2.8035454">
        <ele>239.728</ele>
        <time>2021-04-01T09:31:19.099Z</time>
      </trkpt>
      <trkpt lat="43.1359531" lon="-2.8035474">
        <ele>239.755</ele>
        <time>2021-04-01T09:31:19.154Z</time>
      </trkpt>
      <trkpt lat="43.1359539" lon="-2.8035493">
        <ele>239.772</ele>
        <time>2021-04-01T09:31:19.209Z</time>
      </trkpt>
      <trkpt lat="43.1359545" lon="-2.8035512">
        <ele>239.787</ele>
        <time>2021-04-01T09:31:19.264Z</time>
      </trkpt>
      <trkpt lat="43.1359551" lon="-2.8035534">
        <ele>239.733</ele>
        <time>2021-04-01T09:31:19.319Z</time>
      </trkpt>
      <trkpt lat="43.1359558" lon="-2.8035555">
        <ele>239.745</ele>
        <time>2021-04-01T09:31:19.374Z</time>
      </trkpt>
      <trkpt lat="43.1359563" lon="-2.8035571">
        <ele>239.715</ele>
        <time>2021-04-01T09:31:19.429Z</time>
      </trkpt>
      <trkpt lat="43.1359568" lon="-2.8035587">
        <ele>239.719</ele>
        <time>2021-04-01T09:31:19.484Z</time>
      </trkpt>
      <trkpt lat="43.1359578" lon="-2.8035605">
        <ele>239.665</ele>
        <time>2021-04-01T09:31:19.539Z</time>
      </trkpt>
      <trkpt lat="43.1359585" lon="-2.8035621">
        <ele>239.647</ele>
        <time>2021-04-01T09:31:19.594Z</time>
      </trkpt>
      <trkpt lat="43.1359593" lon="-2.8035638">
        <ele>239.635</ele>
        <time>2021-04-01T09:31:19.649Z</time>
      </trkpt>
      <trkpt lat="43.1359602" lon="-2.8035657">
        <ele>239.634</ele>
        <time>2021-04-01T09:31:19.704Z</time>
      </trkpt>
      <trkpt lat="43.1359612" lon="-2.8035675">
        <ele>239.673</ele>
        <time>2021-04-01T09:31:19.759Z</time>
      </trkpt>
      <trkpt lat="43.1359621" lon="-2.8035694">
        <ele>239.756</ele>
        <time>2021-04-01T09:31:19.810Z</time>
      </trkpt>
      <trkpt lat="43.1359629" lon="-2.8035716">
        <ele>239.808</ele>
        <time>2021-04-01T09:31:19.862Z</time>
      </trkpt>
      <trkpt lat="43.1359637" lon="-2.8035734">
        <ele>239.838</ele>
        <time>2021-04-01T09:31:19.914Z</time>
      </trkpt>
      <trkpt lat="43.1359642" lon="-2.8035759">
        <ele>239.904</ele>
        <time>2021-04-01T09:31:19.966Z</time>
      </trkpt>
      <trkpt lat="43.1359647" lon="-2.803577">
        <ele>239.899</ele>
        <time>2021-04-01T09:31:20.018Z</time>
      </trkpt>
      <trkpt lat="43.1359648" lon="-2.8035779">
        <ele>239.809</ele>
        <time>2021-04-01T09:31:20.070Z</time>
      </trkpt>
      <trkpt lat="43.135965" lon="-2.8035801">
        <ele>239.828</ele>
        <time>2021-04-01T09:31:20.122Z</time>
      </trkpt>
      <trkpt lat="43.1359655" lon="-2.803581">
        <ele>239.849</ele>
        <time>2021-04-01T09:31:20.174Z</time>
      </trkpt>
      <trkpt lat="43.1359659" lon="-2.803583">
        <ele>239.861</ele>
        <time>2021-04-01T09:31:20.226Z</time>
      </trkpt>
      <trkpt lat="43.1359665" lon="-2.803584">
        <ele>239.902</ele>
        <time>2021-04-01T09:31:20.278Z</time>
      </trkpt>
      <trkpt lat="43.1359666" lon="-2.8035855">
        <ele>239.877</ele>
        <time>2021-04-01T09:31:20.330Z</time>
      </trkpt>
      <trkpt lat="43.1359667" lon="-2.8035876">
        <ele>239.869</ele>
        <time>2021-04-01T09:31:20.382Z</time>
      </trkpt>
      <trkpt lat="43.1359667" lon="-2.8035892">
        <ele>239.864</ele>
        <time>2021-04-01T09:31:20.434Z</time>
      </trkpt>
      <trkpt lat="43.1359672" lon="-2.8035906">
        <ele>239.86</ele>
        <time>2021-04-01T09:31:20.486Z</time>
      </trkpt>
      <trkpt lat="43.135968" lon="-2.8035922">
        <ele>239.887</ele>
        <time>2021-04-01T09:31:20.538Z</time>
      </trkpt>
      <trkpt lat="43.1359687" lon="-2.8035935">
        <ele>239.877</ele>
        <time>2021-04-01T09:31:20.590Z</time>
      </trkpt>
      <trkpt lat="43.1359692" lon="-2.8035953">
        <ele>239.862</ele>
        <time>2021-04-01T09:31:20.642Z</time>
      </trkpt>
      <trkpt lat="43.1359699" lon="-2.8035969">
        <ele>239.854</ele>
        <time>2021-04-01T09:31:20.694Z</time>
      </trkpt>
      <trkpt lat="43.1359708" lon="-2.8035981">
        <ele>239.877</ele>
        <time>2021-04-01T09:31:20.752Z</time>
      </trkpt>
      <trkpt lat="43.1359718" lon="-2.803599">
        <ele>239.867</ele>
        <time>2021-04-01T09:31:20.810Z</time>
      </trkpt>
      <trkpt lat="43.1359727" lon="-2.8036004">
        <ele>239.875</ele>
        <time>2021-04-01T09:31:20.868Z</time>
      </trkpt>
      <trkpt lat="43.1359734" lon="-2.803602">
        <ele>239.873</ele>
        <time>2021-04-01T09:31:20.926Z</time>
      </trkpt>
      <trkpt lat="43.1359744" lon="-2.8036031">
        <ele>239.89</ele>
        <time>2021-04-01T09:31:20.984Z</time>
      </trkpt>
      <trkpt lat="43.1359751" lon="-2.8036042">
        <ele>239.967</ele>
        <time>2021-04-01T09:31:21.042Z</time>
      </trkpt>
      <trkpt lat="43.1359757" lon="-2.8036062">
        <ele>240.043</ele>
        <time>2021-04-01T09:31:21.100Z</time>
      </trkpt>
      <trkpt lat="43.1359765" lon="-2.8036086">
        <ele>240.014</ele>
        <time>2021-04-01T09:31:21.158Z</time>
      </trkpt>
      <trkpt lat="43.1359773" lon="-2.803611">
        <ele>240.053</ele>
        <time>2021-04-01T09:31:21.216Z</time>
      </trkpt>
      <trkpt lat="43.1359781" lon="-2.8036127">
        <ele>240.114</ele>
        <time>2021-04-01T09:31:21.274Z</time>
      </trkpt>
      <trkpt lat="43.135979" lon="-2.8036148">
        <ele>240.081</ele>
        <time>2021-04-01T09:31:21.332Z</time>
      </trkpt>
      <trkpt lat="43.13598" lon="-2.8036168">
        <ele>240.121</ele>
        <time>2021-04-01T09:31:21.390Z</time>
      </trkpt>
      <trkpt lat="43.1359807" lon="-2.8036191">
        <ele>240.166</ele>
        <time>2021-04-01T09:31:21.448Z</time>
      </trkpt>
      <trkpt lat="43.1359813" lon="-2.8036212">
        <ele>240.217</ele>
        <time>2021-04-01T09:31:21.506Z</time>
      </trkpt>
      <trkpt lat="43.1359819" lon="-2.8036232">
        <ele>240.176</ele>
        <time>2021-04-01T09:31:21.564Z</time>
      </trkpt>
      <trkpt lat="43.1359826" lon="-2.8036252">
        <ele>240.151</ele>
        <time>2021-04-01T09:31:21.622Z</time>
      </trkpt>
      <trkpt lat="43.1359833" lon="-2.8036269">
        <ele>240.108</ele>
        <time>2021-04-01T09:31:21.680Z</time>
      </trkpt>
      <trkpt lat="43.1359841" lon="-2.8036285">
        <ele>240.086</ele>
        <time>2021-04-01T09:31:21.739Z</time>
      </trkpt>
      <trkpt lat="43.1359844" lon="-2.8036311">
        <ele>240.099</ele>
        <time>2021-04-01T09:31:21.791Z</time>
      </trkpt>
      <trkpt lat="43.1359853" lon="-2.8036329">
        <ele>240.159</ele>
        <time>2021-04-01T09:31:21.843Z</time>
      </trkpt>
      <trkpt lat="43.1359864" lon="-2.8036331">
        <ele>240.178</ele>
        <time>2021-04-01T09:31:21.895Z</time>
      </trkpt>
      <trkpt lat="43.1359873" lon="-2.8036341">
        <ele>240.183</ele>
        <time>2021-04-01T09:31:21.947Z</time>
      </trkpt>
      <trkpt lat="43.135988" lon="-2.8036349">
        <ele>240.163</ele>
        <time>2021-04-01T09:31:21.999Z</time>
      </trkpt>
      <trkpt lat="43.1359884" lon="-2.8036364">
        <ele>240.159</ele>
        <time>2021-04-01T09:31:22.051Z</time>
      </trkpt>
      <trkpt lat="43.1359889" lon="-2.803638">
        <ele>240.151</ele>
        <time>2021-04-01T09:31:22.103Z</time>
      </trkpt>
      <trkpt lat="43.1359897" lon="-2.8036394">
        <ele>240.08</ele>
        <time>2021-04-01T09:31:22.155Z</time>
      </trkpt>
      <trkpt lat="43.1359901" lon="-2.8036414">
        <ele>240.017</ele>
        <time>2021-04-01T09:31:22.207Z</time>
      </trkpt>
      <trkpt lat="43.1359908" lon="-2.8036427">
        <ele>239.921</ele>
        <time>2021-04-01T09:31:22.260Z</time>
      </trkpt>
      <trkpt lat="43.1359911" lon="-2.8036447">
        <ele>239.942</ele>
        <time>2021-04-01T09:31:22.312Z</time>
      </trkpt>
      <trkpt lat="43.1359916" lon="-2.8036465">
        <ele>239.875</ele>
        <time>2021-04-01T09:31:22.364Z</time>
      </trkpt>
      <trkpt lat="43.1359922" lon="-2.8036478">
        <ele>239.817</ele>
        <time>2021-04-01T09:31:22.416Z</time>
      </trkpt>
      <trkpt lat="43.1359924" lon="-2.8036495">
        <ele>239.713</ele>
        <time>2021-04-01T09:31:22.468Z</time>
      </trkpt>
      <trkpt lat="43.1359928" lon="-2.8036518">
        <ele>239.571</ele>
        <time>2021-04-01T09:31:22.520Z</time>
      </trkpt>
      <trkpt lat="43.1359933" lon="-2.8036536">
        <ele>239.464</ele>
        <time>2021-04-01T09:31:22.572Z</time>
      </trkpt>
      <trkpt lat="43.1359937" lon="-2.8036555">
        <ele>239.426</ele>
        <time>2021-04-01T09:31:22.624Z</time>
      </trkpt>
      <trkpt lat="43.135994" lon="-2.8036574">
        <ele>239.451</ele>
        <time>2021-04-01T09:31:22.676Z</time>
      </trkpt>
      <trkpt lat="43.1359945" lon="-2.8036591">
        <ele>239.448</ele>
        <time>2021-04-01T09:31:22.729Z</time>
      </trkpt>
      <trkpt lat="43.1359954" lon="-2.8036615">
        <ele>239.5</ele>
        <time>2021-04-01T09:31:22.790Z</time>
      </trkpt>
      <trkpt lat="43.1359961" lon="-2.8036635">
        <ele>239.476</ele>
        <time>2021-04-01T09:31:22.851Z</time>
      </trkpt>
      <trkpt lat="43.1359967" lon="-2.8036653">
        <ele>239.404</ele>
        <time>2021-04-01T09:31:22.913Z</time>
      </trkpt>
      <trkpt lat="43.1359973" lon="-2.8036673">
        <ele>239.368</ele>
        <time>2021-04-01T09:31:22.974Z</time>
      </trkpt>
      <trkpt lat="43.1359981" lon="-2.8036695">
        <ele>239.395</ele>
        <time>2021-04-01T09:31:23.036Z</time>
      </trkpt>
      <trkpt lat="43.1359988" lon="-2.8036715">
        <ele>239.391</ele>
        <time>2021-04-01T09:31:23.097Z</time>
      </trkpt>
      <trkpt lat="43.1359993" lon="-2.8036734">
        <ele>239.359</ele>
        <time>2021-04-01T09:31:23.159Z</time>
      </trkpt>
      <trkpt lat="43.1359998" lon="-2.8036749">
        <ele>239.245</ele>
        <time>2021-04-01T09:31:23.220Z</time>
      </trkpt>
      <trkpt lat="43.1360006" lon="-2.8036766">
        <ele>239.184</ele>
        <time>2021-04-01T09:31:23.282Z</time>
      </trkpt>
      <trkpt lat="43.1360012" lon="-2.8036785">
        <ele>239.119</ele>
        <time>2021-04-01T09:31:23.343Z</time>
      </trkpt>
      <trkpt lat="43.1360017" lon="-2.8036809">
        <ele>239.105</ele>
        <time>2021-04-01T09:31:23.405Z</time>
      </trkpt>
      <trkpt lat="43.1360023" lon="-2.8036828">
        <ele>239.074</ele>
        <time>2021-04-01T09:31:23.466Z</time>
      </trkpt>
      <trkpt lat="43.1360027" lon="-2.8036845">
        <ele>239.001</ele>
        <time>2021-04-01T09:31:23.528Z</time>
      </trkpt>
      <trkpt lat="43.1360034" lon="-2.8036865">
        <ele>238.958</ele>
        <time>2021-04-01T09:31:23.589Z</time>
      </trkpt>
      <trkpt lat="43.136004" lon="-2.8036888">
        <ele>238.928</ele>
        <time>2021-04-01T09:31:23.651Z</time>
      </trkpt>
      <trkpt lat="43.1360045" lon="-2.8036911">
        <ele>238.926</ele>
        <time>2021-04-01T09:31:23.712Z</time>
      </trkpt>
      <trkpt lat="43.1360052" lon="-2.803693">
        <ele>238.88</ele>
        <time>2021-04-01T09:31:23.774Z</time>
      </trkpt>
      <trkpt lat="43.1360061" lon="-2.8036952">
        <ele>238.818</ele>
        <time>2021-04-01T09:31:23.823Z</time>
      </trkpt>
      <trkpt lat="43.136007" lon="-2.8036979">
        <ele>238.853</ele>
        <time>2021-04-01T09:31:23.872Z</time>
      </trkpt>
      <trkpt lat="43.136008" lon="-2.8037003">
        <ele>238.871</ele>
        <time>2021-04-01T09:31:23.921Z</time>
      </trkpt>
      <trkpt lat="43.1360087" lon="-2.8037028">
        <ele>238.873</ele>
        <time>2021-04-01T09:31:23.970Z</time>
      </trkpt>
      <trkpt lat="43.1360096" lon="-2.8037048">
        <ele>238.834</ele>
        <time>2021-04-01T09:31:24.020Z</time>
      </trkpt>
      <trkpt lat="43.13601" lon="-2.8037068">
        <ele>238.798</ele>
        <time>2021-04-01T09:31:24.069Z</time>
      </trkpt>
      <trkpt lat="43.1360108" lon="-2.803709">
        <ele>238.824</ele>
        <time>2021-04-01T09:31:24.118Z</time>
      </trkpt>
      <trkpt lat="43.1360115" lon="-2.8037114">
        <ele>238.905</ele>
        <time>2021-04-01T09:31:24.167Z</time>
      </trkpt>
      <trkpt lat="43.136012" lon="-2.8037134">
        <ele>238.936</ele>
        <time>2021-04-01T09:31:24.216Z</time>
      </trkpt>
      <trkpt lat="43.1360126" lon="-2.8037154">
        <ele>238.929</ele>
        <time>2021-04-01T09:31:24.266Z</time>
      </trkpt>
      <trkpt lat="43.1360135" lon="-2.8037177">
        <ele>238.935</ele>
        <time>2021-04-01T09:31:24.315Z</time>
      </trkpt>
      <trkpt lat="43.1360142" lon="-2.80372">
        <ele>238.915</ele>
        <time>2021-04-01T09:31:24.364Z</time>
      </trkpt>
      <trkpt lat="43.1360148" lon="-2.8037223">
        <ele>238.884</ele>
        <time>2021-04-01T09:31:24.413Z</time>
      </trkpt>
      <trkpt lat="43.1360154" lon="-2.8037243">
        <ele>238.85</ele>
        <time>2021-04-01T09:31:24.462Z</time>
      </trkpt>
      <trkpt lat="43.1360163" lon="-2.8037257">
        <ele>238.791</ele>
        <time>2021-04-01T09:31:24.512Z</time>
      </trkpt>
      <trkpt lat="43.136017" lon="-2.8037275">
        <ele>238.751</ele>
        <time>2021-04-01T09:31:24.561Z</time>
      </trkpt>
      <trkpt lat="43.1360178" lon="-2.8037291">
        <ele>238.726</ele>
        <time>2021-04-01T09:31:24.610Z</time>
      </trkpt>
      <trkpt lat="43.1360187" lon="-2.8037304">
        <ele>238.671</ele>
        <time>2021-04-01T09:31:24.659Z</time>
      </trkpt>
      <trkpt lat="43.1360191" lon="-2.8037322">
        <ele>238.59</ele>
        <time>2021-04-01T09:31:24.709Z</time>
      </trkpt>
      <trkpt lat="43.1360196" lon="-2.8037335">
        <ele>238.511</ele>
        <time>2021-04-01T09:31:24.767Z</time>
      </trkpt>
      <trkpt lat="43.1360203" lon="-2.8037351">
        <ele>238.478</ele>
        <time>2021-04-01T09:31:24.825Z</time>
      </trkpt>
      <trkpt lat="43.1360211" lon="-2.8037367">
        <ele>238.388</ele>
        <time>2021-04-01T09:31:24.883Z</time>
      </trkpt>
      <trkpt lat="43.1360219" lon="-2.803739">
        <ele>238.406</ele>
        <time>2021-04-01T09:31:24.941Z</time>
      </trkpt>
      <trkpt lat="43.1360226" lon="-2.8037412">
        <ele>238.324</ele>
        <time>2021-04-01T09:31:24.999Z</time>
      </trkpt>
      <trkpt lat="43.136023" lon="-2.8037431">
        <ele>238.248</ele>
        <time>2021-04-01T09:31:25.057Z</time>
      </trkpt>
      <trkpt lat="43.1360236" lon="-2.8037447">
        <ele>238.198</ele>
        <time>2021-04-01T09:31:25.115Z</time>
      </trkpt>
      <trkpt lat="43.1360242" lon="-2.8037459">
        <ele>238.115</ele>
        <time>2021-04-01T09:31:25.173Z</time>
      </trkpt>
      <trkpt lat="43.1360249" lon="-2.8037479">
        <ele>238.074</ele>
        <time>2021-04-01T09:31:25.231Z</time>
      </trkpt>
      <trkpt lat="43.1360256" lon="-2.8037503">
        <ele>238.055</ele>
        <time>2021-04-01T09:31:25.289Z</time>
      </trkpt>
      <trkpt lat="43.1360265" lon="-2.8037521">
        <ele>238.074</ele>
        <time>2021-04-01T09:31:25.347Z</time>
      </trkpt>
      <trkpt lat="43.1360274" lon="-2.8037542">
        <ele>238.06</ele>
        <time>2021-04-01T09:31:25.405Z</time>
      </trkpt>
      <trkpt lat="43.1360285" lon="-2.8037566">
        <ele>238.111</ele>
        <time>2021-04-01T09:31:25.463Z</time>
      </trkpt>
      <trkpt lat="43.1360295" lon="-2.803759">
        <ele>238.207</ele>
        <time>2021-04-01T09:31:25.521Z</time>
      </trkpt>
      <trkpt lat="43.1360302" lon="-2.8037621">
        <ele>238.224</ele>
        <time>2021-04-01T09:31:25.579Z</time>
      </trkpt>
      <trkpt lat="43.1360311" lon="-2.8037646">
        <ele>238.249</ele>
        <time>2021-04-01T09:31:25.637Z</time>
      </trkpt>
      <trkpt lat="43.1360321" lon="-2.8037669">
        <ele>238.264</ele>
        <time>2021-04-01T09:31:25.695Z</time>
      </trkpt>
      <trkpt lat="43.1360329" lon="-2.8037688">
        <ele>238.294</ele>
        <time>2021-04-01T09:31:25.754Z</time>
      </trkpt>
      <trkpt lat="43.1360337" lon="-2.803771">
        <ele>238.31</ele>
        <time>2021-04-01T09:31:25.809Z</time>
      </trkpt>
      <trkpt lat="43.1360346" lon="-2.803773">
        <ele>238.285</ele>
        <time>2021-04-01T09:31:25.864Z</time>
      </trkpt>
      <trkpt lat="43.1360352" lon="-2.8037749">
        <ele>238.249</ele>
        <time>2021-04-01T09:31:25.919Z</time>
      </trkpt>
      <trkpt lat="43.1360359" lon="-2.8037768">
        <ele>238.252</ele>
        <time>2021-04-01T09:31:25.974Z</time>
      </trkpt>
      <trkpt lat="43.1360365" lon="-2.8037791">
        <ele>238.213</ele>
        <time>2021-04-01T09:31:26.029Z</time>
      </trkpt>
      <trkpt lat="43.1360374" lon="-2.8037811">
        <ele>238.203</ele>
        <time>2021-04-01T09:31:26.084Z</time>
      </trkpt>
      <trkpt lat="43.1360381" lon="-2.8037826">
        <ele>238.155</ele>
        <time>2021-04-01T09:31:26.139Z</time>
      </trkpt>
      <trkpt lat="43.1360392" lon="-2.8037846">
        <ele>238.192</ele>
        <time>2021-04-01T09:31:26.194Z</time>
      </trkpt>
      <trkpt lat="43.1360399" lon="-2.8037871">
        <ele>238.231</ele>
        <time>2021-04-01T09:31:26.249Z</time>
      </trkpt>
      <trkpt lat="43.1360404" lon="-2.8037895">
        <ele>238.231</ele>
        <time>2021-04-01T09:31:26.304Z</time>
      </trkpt>
      <trkpt lat="43.1360414" lon="-2.8037919">
        <ele>238.224</ele>
        <time>2021-04-01T09:31:26.359Z</time>
      </trkpt>
      <trkpt lat="43.1360425" lon="-2.8037941">
        <ele>238.286</ele>
        <time>2021-04-01T09:31:26.414Z</time>
      </trkpt>
      <trkpt lat="43.1360434" lon="-2.8037962">
        <ele>238.277</ele>
        <time>2021-04-01T09:31:26.469Z</time>
      </trkpt>
      <trkpt lat="43.1360439" lon="-2.8037983">
        <ele>238.315</ele>
        <time>2021-04-01T09:31:26.524Z</time>
      </trkpt>
      <trkpt lat="43.1360446" lon="-2.8038001">
        <ele>238.369</ele>
        <time>2021-04-01T09:31:26.579Z</time>
      </trkpt>
      <trkpt lat="43.1360452" lon="-2.8038023">
        <ele>238.366</ele>
        <time>2021-04-01T09:31:26.634Z</time>
      </trkpt>
      <trkpt lat="43.1360458" lon="-2.8038041">
        <ele>238.338</ele>
        <time>2021-04-01T09:31:26.689Z</time>
      </trkpt>
      <trkpt lat="43.1360469" lon="-2.8038061">
        <ele>238.353</ele>
        <time>2021-04-01T09:31:26.744Z</time>
      </trkpt>
      <trkpt lat="43.1360476" lon="-2.8038079">
        <ele>238.339</ele>
        <time>2021-04-01T09:31:26.796Z</time>
      </trkpt>
      <trkpt lat="43.1360484" lon="-2.8038099">
        <ele>238.338</ele>
        <time>2021-04-01T09:31:26.848Z</time>
      </trkpt>
      <trkpt lat="43.1360491" lon="-2.8038117">
        <ele>238.32</ele>
        <time>2021-04-01T09:31:26.900Z</time>
      </trkpt>
      <trkpt lat="43.1360499" lon="-2.8038135">
        <ele>238.322</ele>
        <time>2021-04-01T09:31:26.952Z</time>
      </trkpt>
      <trkpt lat="43.1360508" lon="-2.8038155">
        <ele>238.359</ele>
        <time>2021-04-01T09:31:27.004Z</time>
      </trkpt>
      <trkpt lat="43.1360515" lon="-2.8038172">
        <ele>238.358</ele>
        <time>2021-04-01T09:31:27.056Z</time>
      </trkpt>
      <trkpt lat="43.1360525" lon="-2.803819">
        <ele>238.368</ele>
        <time>2021-04-01T09:31:27.108Z</time>
      </trkpt>
      <trkpt lat="43.1360533" lon="-2.8038207">
        <ele>238.345</ele>
        <time>2021-04-01T09:31:27.160Z</time>
      </trkpt>
      <trkpt lat="43.1360543" lon="-2.8038222">
        <ele>238.349</ele>
        <time>2021-04-01T09:31:27.212Z</time>
      </trkpt>
      <trkpt lat="43.1360552" lon="-2.8038238">
        <ele>238.34</ele>
        <time>2021-04-01T09:31:27.265Z</time>
      </trkpt>
      <trkpt lat="43.1360565" lon="-2.8038257">
        <ele>238.384</ele>
        <time>2021-04-01T09:31:27.317Z</time>
      </trkpt>
      <trkpt lat="43.1360578" lon="-2.8038277">
        <ele>238.407</ele>
        <time>2021-04-01T09:31:27.369Z</time>
      </trkpt>
      <trkpt lat="43.1360589" lon="-2.8038303">
        <ele>238.482</ele>
        <time>2021-04-01T09:31:27.421Z</time>
      </trkpt>
      <trkpt lat="43.1360599" lon="-2.8038317">
        <ele>238.544</ele>
        <time>2021-04-01T09:31:27.473Z</time>
      </trkpt>
      <trkpt lat="43.1360612" lon="-2.8038337">
        <ele>238.573</ele>
        <time>2021-04-01T09:31:27.525Z</time>
      </trkpt>
      <trkpt lat="43.1360625" lon="-2.8038364">
        <ele>238.581</ele>
        <time>2021-04-01T09:31:27.577Z</time>
      </trkpt>
      <trkpt lat="43.1360639" lon="-2.803839">
        <ele>238.636</ele>
        <time>2021-04-01T09:31:27.629Z</time>
      </trkpt>
      <trkpt lat="43.136065" lon="-2.8038406">
        <ele>238.63</ele>
        <time>2021-04-01T09:31:27.681Z</time>
      </trkpt>
      <trkpt lat="43.1360663" lon="-2.803843">
        <ele>238.65</ele>
        <time>2021-04-01T09:31:27.734Z</time>
      </trkpt>
      <trkpt lat="43.1360678" lon="-2.8038449">
        <ele>238.68</ele>
        <time>2021-04-01T09:31:27.792Z</time>
      </trkpt>
      <trkpt lat="43.1360691" lon="-2.8038466">
        <ele>238.679</ele>
        <time>2021-04-01T09:31:27.850Z</time>
      </trkpt>
      <trkpt lat="43.1360706" lon="-2.8038487">
        <ele>238.669</ele>
        <time>2021-04-01T09:31:27.908Z</time>
      </trkpt>
      <trkpt lat="43.1360715" lon="-2.8038507">
        <ele>238.643</ele>
        <time>2021-04-01T09:31:27.966Z</time>
      </trkpt>
      <trkpt lat="43.1360721" lon="-2.8038517">
        <ele>238.607</ele>
        <time>2021-04-01T09:31:28.025Z</time>
      </trkpt>
      <trkpt lat="43.1360733" lon="-2.8038533">
        <ele>238.626</ele>
        <time>2021-04-01T09:31:28.083Z</time>
      </trkpt>
      <trkpt lat="43.1360744" lon="-2.8038557">
        <ele>238.633</ele>
        <time>2021-04-01T09:31:28.141Z</time>
      </trkpt>
      <trkpt lat="43.1360754" lon="-2.8038575">
        <ele>238.626</ele>
        <time>2021-04-01T09:31:28.199Z</time>
      </trkpt>
      <trkpt lat="43.1360763" lon="-2.8038585">
        <ele>238.606</ele>
        <time>2021-04-01T09:31:28.258Z</time>
      </trkpt>
      <trkpt lat="43.1360772" lon="-2.8038602">
        <ele>238.579</ele>
        <time>2021-04-01T09:31:28.316Z</time>
      </trkpt>
      <trkpt lat="43.1360786" lon="-2.8038623">
        <ele>238.599</ele>
        <time>2021-04-01T09:31:28.374Z</time>
      </trkpt>
      <trkpt lat="43.1360796" lon="-2.8038637">
        <ele>238.581</ele>
        <time>2021-04-01T09:31:28.432Z</time>
      </trkpt>
      <trkpt lat="43.136081" lon="-2.8038654">
        <ele>238.575</ele>
        <time>2021-04-01T09:31:28.491Z</time>
      </trkpt>
      <trkpt lat="43.1360829" lon="-2.803868">
        <ele>238.487</ele>
        <time>2021-04-01T09:31:28.549Z</time>
      </trkpt>
      <trkpt lat="43.1360838" lon="-2.8038697">
        <ele>238.548</ele>
        <time>2021-04-01T09:31:28.607Z</time>
      </trkpt>
      <trkpt lat="43.1360842" lon="-2.8038708">
        <ele>238.576</ele>
        <time>2021-04-01T09:31:28.665Z</time>
      </trkpt>
      <trkpt lat="43.1360845" lon="-2.8038716">
        <ele>238.621</ele>
        <time>2021-04-01T09:31:28.724Z</time>
      </trkpt>
      <trkpt lat="43.1360852" lon="-2.8038727">
        <ele>238.623</ele>
        <time>2021-04-01T09:31:28.779Z</time>
      </trkpt>
      <trkpt lat="43.1360857" lon="-2.8038741">
        <ele>238.558</ele>
        <time>2021-04-01T09:31:28.834Z</time>
      </trkpt>
      <trkpt lat="43.1360866" lon="-2.8038758">
        <ele>238.534</ele>
        <time>2021-04-01T09:31:28.889Z</time>
      </trkpt>
      <trkpt lat="43.1360878" lon="-2.8038771">
        <ele>238.49</ele>
        <time>2021-04-01T09:31:28.944Z</time>
      </trkpt>
      <trkpt lat="43.1360885" lon="-2.8038785">
        <ele>238.394</ele>
        <time>2021-04-01T09:31:28.999Z</time>
      </trkpt>
      <trkpt lat="43.1360891" lon="-2.8038795">
        <ele>238.305</ele>
        <time>2021-04-01T09:31:29.054Z</time>
      </trkpt>
      <trkpt lat="43.1360903" lon="-2.8038813">
        <ele>238.268</ele>
        <time>2021-04-01T09:31:29.109Z</time>
      </trkpt>
      <trkpt lat="43.1360914" lon="-2.8038825">
        <ele>238.184</ele>
        <time>2021-04-01T09:31:29.164Z</time>
      </trkpt>
      <trkpt lat="43.1360924" lon="-2.8038833">
        <ele>238.109</ele>
        <time>2021-04-01T09:31:29.219Z</time>
      </trkpt>
      <trkpt lat="43.1360931" lon="-2.8038843">
        <ele>238.019</ele>
        <time>2021-04-01T09:31:29.274Z</time>
      </trkpt>
      <trkpt lat="43.1360936" lon="-2.8038853">
        <ele>237.88</ele>
        <time>2021-04-01T09:31:29.329Z</time>
      </trkpt>
      <trkpt lat="43.1360944" lon="-2.8038863">
        <ele>237.745</ele>
        <time>2021-04-01T09:31:29.384Z</time>
      </trkpt>
      <trkpt lat="43.1360957" lon="-2.8038881">
        <ele>237.679</ele>
        <time>2021-04-01T09:31:29.439Z</time>
      </trkpt>
      <trkpt lat="43.1360969" lon="-2.8038895">
        <ele>237.616</ele>
        <time>2021-04-01T09:31:29.494Z</time>
      </trkpt>
      <trkpt lat="43.136098" lon="-2.8038912">
        <ele>237.597</ele>
        <time>2021-04-01T09:31:29.549Z</time>
      </trkpt>
      <trkpt lat="43.1360991" lon="-2.8038927">
        <ele>237.577</ele>
        <time>2021-04-01T09:31:29.604Z</time>
      </trkpt>
      <trkpt lat="43.1361004" lon="-2.803894">
        <ele>237.521</ele>
        <time>2021-04-01T09:31:29.659Z</time>
      </trkpt>
      <trkpt lat="43.1361018" lon="-2.8038953">
        <ele>237.472</ele>
        <time>2021-04-01T09:31:29.714Z</time>
      </trkpt>
      <trkpt lat="43.1361028" lon="-2.8038971">
        <ele>237.451</ele>
        <time>2021-04-01T09:31:29.769Z</time>
      </trkpt>
      <trkpt lat="43.1361038" lon="-2.8038985">
        <ele>237.42</ele>
        <time>2021-04-01T09:31:29.824Z</time>
      </trkpt>
      <trkpt lat="43.1361051" lon="-2.8039001">
        <ele>237.405</ele>
        <time>2021-04-01T09:31:29.879Z</time>
      </trkpt>
      <trkpt lat="43.1361063" lon="-2.8039021">
        <ele>237.417</ele>
        <time>2021-04-01T09:31:29.934Z</time>
      </trkpt>
      <trkpt lat="43.1361074" lon="-2.8039032">
        <ele>237.411</ele>
        <time>2021-04-01T09:31:29.989Z</time>
      </trkpt>
      <trkpt lat="43.1361086" lon="-2.8039046">
        <ele>237.386</ele>
        <time>2021-04-01T09:31:30.044Z</time>
      </trkpt>
      <trkpt lat="43.1361098" lon="-2.8039059">
        <ele>237.355</ele>
        <time>2021-04-01T09:31:30.099Z</time>
      </trkpt>
      <trkpt lat="43.1361108" lon="-2.8039069">
        <ele>237.314</ele>
        <time>2021-04-01T09:31:30.154Z</time>
      </trkpt>
      <trkpt lat="43.1361118" lon="-2.8039079">
        <ele>237.278</ele>
        <time>2021-04-01T09:31:30.209Z</time>
      </trkpt>
      <trkpt lat="43.1361127" lon="-2.803909">
        <ele>237.202</ele>
        <time>2021-04-01T09:31:30.264Z</time>
      </trkpt>
      <trkpt lat="43.1361138" lon="-2.80391">
        <ele>237.166</ele>
        <time>2021-04-01T09:31:30.319Z</time>
      </trkpt>
      <trkpt lat="43.1361144" lon="-2.8039109">
        <ele>237.161</ele>
        <time>2021-04-01T09:31:30.374Z</time>
      </trkpt>
      <trkpt lat="43.1361151" lon="-2.8039116">
        <ele>237.08</ele>
        <time>2021-04-01T09:31:30.429Z</time>
      </trkpt>
      <trkpt lat="43.1361161" lon="-2.803912">
        <ele>237.024</ele>
        <time>2021-04-01T09:31:30.484Z</time>
      </trkpt>
      <trkpt lat="43.1361169" lon="-2.8039127">
        <ele>236.982</ele>
        <time>2021-04-01T09:31:30.539Z</time>
      </trkpt>
      <trkpt lat="43.1361179" lon="-2.8039133">
        <ele>236.936</ele>
        <time>2021-04-01T09:31:30.594Z</time>
      </trkpt>
      <trkpt lat="43.1361187" lon="-2.8039146">
        <ele>236.93</ele>
        <time>2021-04-01T09:31:30.649Z</time>
      </trkpt>
      <trkpt lat="43.1361198" lon="-2.8039154">
        <ele>236.876</ele>
        <time>2021-04-01T09:31:30.704Z</time>
      </trkpt>
      <trkpt lat="43.1361212" lon="-2.8039165">
        <ele>236.88</ele>
        <time>2021-04-01T09:31:30.759Z</time>
      </trkpt>
      <trkpt lat="43.1361223" lon="-2.8039179">
        <ele>236.843</ele>
        <time>2021-04-01T09:31:30.814Z</time>
      </trkpt>
      <trkpt lat="43.1361236" lon="-2.8039195">
        <ele>236.864</ele>
        <time>2021-04-01T09:31:30.869Z</time>
      </trkpt>
      <trkpt lat="43.1361247" lon="-2.8039203">
        <ele>236.876</ele>
        <time>2021-04-01T09:31:30.924Z</time>
      </trkpt>
      <trkpt lat="43.136126" lon="-2.8039219">
        <ele>236.918</ele>
        <time>2021-04-01T09:31:30.979Z</time>
      </trkpt>
      <trkpt lat="43.136127" lon="-2.8039227">
        <ele>236.904</ele>
        <time>2021-04-01T09:31:31.034Z</time>
      </trkpt>
      <trkpt lat="43.1361285" lon="-2.8039243">
        <ele>236.896</ele>
        <time>2021-04-01T09:31:31.089Z</time>
      </trkpt>
      <trkpt lat="43.1361297" lon="-2.8039256">
        <ele>236.872</ele>
        <time>2021-04-01T09:31:31.144Z</time>
      </trkpt>
      <trkpt lat="43.136131" lon="-2.8039266">
        <ele>236.814</ele>
        <time>2021-04-01T09:31:31.199Z</time>
      </trkpt>
      <trkpt lat="43.1361319" lon="-2.8039276">
        <ele>236.782</ele>
        <time>2021-04-01T09:31:31.254Z</time>
      </trkpt>
      <trkpt lat="43.1361329" lon="-2.8039284">
        <ele>236.744</ele>
        <time>2021-04-01T09:31:31.309Z</time>
      </trkpt>
      <trkpt lat="43.136134" lon="-2.8039286">
        <ele>236.711</ele>
        <time>2021-04-01T09:31:31.364Z</time>
      </trkpt>
      <trkpt lat="43.1361351" lon="-2.8039294">
        <ele>236.672</ele>
        <time>2021-04-01T09:31:31.419Z</time>
      </trkpt>
      <trkpt lat="43.1361362" lon="-2.8039299">
        <ele>236.638</ele>
        <time>2021-04-01T09:31:31.474Z</time>
      </trkpt>
      <trkpt lat="43.1361374" lon="-2.8039303">
        <ele>236.585</ele>
        <time>2021-04-01T09:31:31.529Z</time>
      </trkpt>
      <trkpt lat="43.1361386" lon="-2.8039309">
        <ele>236.523</ele>
        <time>2021-04-01T09:31:31.584Z</time>
      </trkpt>
      <trkpt lat="43.1361399" lon="-2.8039316">
        <ele>236.448</ele>
        <time>2021-04-01T09:31:31.639Z</time>
      </trkpt>
      <trkpt lat="43.1361413" lon="-2.8039322">
        <ele>236.434</ele>
        <time>2021-04-01T09:31:31.694Z</time>
      </trkpt>
      <trkpt lat="43.1361425" lon="-2.8039328">
        <ele>236.462</ele>
        <time>2021-04-01T09:31:31.749Z</time>
      </trkpt>
      <trkpt lat="43.1361438" lon="-2.8039332">
        <ele>236.449</ele>
        <time>2021-04-01T09:31:31.804Z</time>
      </trkpt>
      <trkpt lat="43.1361446" lon="-2.8039339">
        <ele>236.375</ele>
        <time>2021-04-01T09:31:31.859Z</time>
      </trkpt>
      <trkpt lat="43.1361453" lon="-2.8039339">
        <ele>236.316</ele>
        <time>2021-04-01T09:31:31.914Z</time>
      </trkpt>
      <trkpt lat="43.1361467" lon="-2.8039348">
        <ele>236.294</ele>
        <time>2021-04-01T09:31:31.969Z</time>
      </trkpt>
      <trkpt lat="43.1361484" lon="-2.8039361">
        <ele>236.265</ele>
        <time>2021-04-01T09:31:32.024Z</time>
      </trkpt>
      <trkpt lat="43.1361495" lon="-2.8039373">
        <ele>236.246</ele>
        <time>2021-04-01T09:31:32.079Z</time>
      </trkpt>
      <trkpt lat="43.1361502" lon="-2.8039372">
        <ele>236.213</ele>
        <time>2021-04-01T09:31:32.134Z</time>
      </trkpt>
      <trkpt lat="43.136151" lon="-2.803938">
        <ele>236.13</ele>
        <time>2021-04-01T09:31:32.189Z</time>
      </trkpt>
      <trkpt lat="43.1361517" lon="-2.8039383">
        <ele>236.128</ele>
        <time>2021-04-01T09:31:32.244Z</time>
      </trkpt>
      <trkpt lat="43.136153" lon="-2.8039397">
        <ele>236.194</ele>
        <time>2021-04-01T09:31:32.299Z</time>
      </trkpt>
      <trkpt lat="43.1361544" lon="-2.8039411">
        <ele>236.255</ele>
        <time>2021-04-01T09:31:32.354Z</time>
      </trkpt>
      <trkpt lat="43.1361561" lon="-2.8039421">
        <ele>236.409</ele>
        <time>2021-04-01T09:31:32.409Z</time>
      </trkpt>
      <trkpt lat="43.1361573" lon="-2.803943">
        <ele>236.519</ele>
        <time>2021-04-01T09:31:32.464Z</time>
      </trkpt>
      <trkpt lat="43.136159" lon="-2.8039441">
        <ele>236.611</ele>
        <time>2021-04-01T09:31:32.519Z</time>
      </trkpt>
      <trkpt lat="43.1361602" lon="-2.8039446">
        <ele>236.605</ele>
        <time>2021-04-01T09:31:32.574Z</time>
      </trkpt>
      <trkpt lat="43.1361615" lon="-2.8039447">
        <ele>236.554</ele>
        <time>2021-04-01T09:31:32.629Z</time>
      </trkpt>
      <trkpt lat="43.1361628" lon="-2.803945">
        <ele>236.53</ele>
        <time>2021-04-01T09:31:32.684Z</time>
      </trkpt>
      <trkpt lat="43.1361645" lon="-2.8039464">
        <ele>236.587</ele>
        <time>2021-04-01T09:31:32.739Z</time>
      </trkpt>
      <trkpt lat="43.1361658" lon="-2.8039466">
        <ele>236.49</ele>
        <time>2021-04-01T09:31:32.794Z</time>
      </trkpt>
      <trkpt lat="43.1361673" lon="-2.8039471">
        <ele>236.407</ele>
        <time>2021-04-01T09:31:32.849Z</time>
      </trkpt>
      <trkpt lat="43.1361687" lon="-2.8039476">
        <ele>236.406</ele>
        <time>2021-04-01T09:31:32.904Z</time>
      </trkpt>
      <trkpt lat="43.1361704" lon="-2.8039483">
        <ele>236.372</ele>
        <time>2021-04-01T09:31:32.959Z</time>
      </trkpt>
      <trkpt lat="43.1361728" lon="-2.8039498">
        <ele>236.346</ele>
        <time>2021-04-01T09:31:33.014Z</time>
      </trkpt>
      <trkpt lat="43.1361745" lon="-2.8039508">
        <ele>236.293</ele>
        <time>2021-04-01T09:31:33.069Z</time>
      </trkpt>
      <trkpt lat="43.1361767" lon="-2.8039518">
        <ele>236.291</ele>
        <time>2021-04-01T09:31:33.124Z</time>
      </trkpt>
      <trkpt lat="43.1361786" lon="-2.8039527">
        <ele>236.295</ele>
        <time>2021-04-01T09:31:33.179Z</time>
      </trkpt>
      <trkpt lat="43.1361795" lon="-2.8039526">
        <ele>236.12</ele>
        <time>2021-04-01T09:31:33.234Z</time>
      </trkpt>
      <trkpt lat="43.1361807" lon="-2.8039529">
        <ele>236.067</ele>
        <time>2021-04-01T09:31:33.289Z</time>
      </trkpt>
      <trkpt lat="43.1361818" lon="-2.8039539">
        <ele>236.097</ele>
        <time>2021-04-01T09:31:33.344Z</time>
      </trkpt>
      <trkpt lat="43.1361835" lon="-2.8039554">
        <ele>236.19</ele>
        <time>2021-04-01T09:31:33.399Z</time>
      </trkpt>
      <trkpt lat="43.136185" lon="-2.8039565">
        <ele>236.154</ele>
        <time>2021-04-01T09:31:33.454Z</time>
      </trkpt>
      <trkpt lat="43.1361868" lon="-2.8039574">
        <ele>236.164</ele>
        <time>2021-04-01T09:31:33.509Z</time>
      </trkpt>
      <trkpt lat="43.1361877" lon="-2.8039581">
        <ele>236.068</ele>
        <time>2021-04-01T09:31:33.564Z</time>
      </trkpt>
      <trkpt lat="43.136189" lon="-2.8039592">
        <ele>236.191</ele>
        <time>2021-04-01T09:31:33.619Z</time>
      </trkpt>
      <trkpt lat="43.1361904" lon="-2.8039599">
        <ele>236.234</ele>
        <time>2021-04-01T09:31:33.674Z</time>
      </trkpt>
      <trkpt lat="43.1361917" lon="-2.8039604">
        <ele>236.189</ele>
        <time>2021-04-01T09:31:33.729Z</time>
      </trkpt>
      <trkpt lat="43.1361929" lon="-2.803961">
        <ele>236.283</ele>
        <time>2021-04-01T09:31:33.784Z</time>
      </trkpt>
      <trkpt lat="43.136194" lon="-2.8039613">
        <ele>236.329</ele>
        <time>2021-04-01T09:31:33.839Z</time>
      </trkpt>
      <trkpt lat="43.1361953" lon="-2.8039618">
        <ele>236.304</ele>
        <time>2021-04-01T09:31:33.894Z</time>
      </trkpt>
      <trkpt lat="43.1361969" lon="-2.8039623">
        <ele>236.382</ele>
        <time>2021-04-01T09:31:33.949Z</time>
      </trkpt>
      <trkpt lat="43.1361986" lon="-2.8039631">
        <ele>236.445</ele>
        <time>2021-04-01T09:31:34.004Z</time>
      </trkpt>
      <trkpt lat="43.1362002" lon="-2.8039634">
        <ele>236.423</ele>
        <time>2021-04-01T09:31:34.059Z</time>
      </trkpt>
      <trkpt lat="43.1362016" lon="-2.8039647">
        <ele>236.509</ele>
        <time>2021-04-01T09:31:34.114Z</time>
      </trkpt>
      <trkpt lat="43.1362033" lon="-2.8039651">
        <ele>236.536</ele>
        <time>2021-04-01T09:31:34.169Z</time>
      </trkpt>
      <trkpt lat="43.1362044" lon="-2.8039649">
        <ele>236.433</ele>
        <time>2021-04-01T09:31:34.224Z</time>
      </trkpt>
      <trkpt lat="43.1362056" lon="-2.8039654">
        <ele>236.394</ele>
        <time>2021-04-01T09:31:34.279Z</time>
      </trkpt>
      <trkpt lat="43.1362071" lon="-2.8039663">
        <ele>236.29</ele>
        <time>2021-04-01T09:31:34.334Z</time>
      </trkpt>
      <trkpt lat="43.1362093" lon="-2.8039671">
        <ele>236.349</ele>
        <time>2021-04-01T09:31:34.389Z</time>
      </trkpt>
      <trkpt lat="43.1362111" lon="-2.8039678">
        <ele>236.386</ele>
        <time>2021-04-01T09:31:34.444Z</time>
      </trkpt>
      <trkpt lat="43.1362136" lon="-2.8039689">
        <ele>236.449</ele>
        <time>2021-04-01T09:31:34.499Z</time>
      </trkpt>
      <trkpt lat="43.1362157" lon="-2.8039698">
        <ele>236.529</ele>
        <time>2021-04-01T09:31:34.554Z</time>
      </trkpt>
      <trkpt lat="43.1362177" lon="-2.8039705">
        <ele>236.545</ele>
        <time>2021-04-01T09:31:34.609Z</time>
      </trkpt>
      <trkpt lat="43.1362197" lon="-2.8039717">
        <ele>236.589</ele>
        <time>2021-04-01T09:31:34.664Z</time>
      </trkpt>
      <trkpt lat="43.1362216" lon="-2.8039733">
        <ele>236.662</ele>
        <time>2021-04-01T09:31:34.719Z</time>
      </trkpt>
      <trkpt lat="43.1362236" lon="-2.803974">
        <ele>236.749</ele>
        <time>2021-04-01T09:31:34.774Z</time>
      </trkpt>
      <trkpt lat="43.1362256" lon="-2.8039746">
        <ele>236.789</ele>
        <time>2021-04-01T09:31:34.829Z</time>
      </trkpt>
      <trkpt lat="43.1362274" lon="-2.8039755">
        <ele>236.85</ele>
        <time>2021-04-01T09:31:34.884Z</time>
      </trkpt>
      <trkpt lat="43.1362289" lon="-2.8039761">
        <ele>236.995</ele>
        <time>2021-04-01T09:31:34.939Z</time>
      </trkpt>
      <trkpt lat="43.1362307" lon="-2.803977">
        <ele>237.163</ele>
        <time>2021-04-01T09:31:34.994Z</time>
      </trkpt>
      <trkpt lat="43.136232" lon="-2.8039775">
        <ele>237.297</ele>
        <time>2021-04-01T09:31:35.049Z</time>
      </trkpt>
      <trkpt lat="43.1362336" lon="-2.803978">
        <ele>237.344</ele>
        <time>2021-04-01T09:31:35.104Z</time>
      </trkpt>
      <trkpt lat="43.1362352" lon="-2.8039785">
        <ele>237.419</ele>
        <time>2021-04-01T09:31:35.159Z</time>
      </trkpt>
      <trkpt lat="43.1362373" lon="-2.8039791">
        <ele>237.452</ele>
        <time>2021-04-01T09:31:35.214Z</time>
      </trkpt>
      <trkpt lat="43.1362394" lon="-2.8039796">
        <ele>237.456</ele>
        <time>2021-04-01T09:31:35.269Z</time>
      </trkpt>
      <trkpt lat="43.1362411" lon="-2.8039808">
        <ele>237.41</ele>
        <time>2021-04-01T09:31:35.324Z</time>
      </trkpt>
      <trkpt lat="43.1362427" lon="-2.8039815">
        <ele>237.371</ele>
        <time>2021-04-01T09:31:35.379Z</time>
      </trkpt>
      <trkpt lat="43.1362439" lon="-2.8039817">
        <ele>237.365</ele>
        <time>2021-04-01T09:31:35.434Z</time>
      </trkpt>
      <trkpt lat="43.1362453" lon="-2.8039821">
        <ele>237.419</ele>
        <time>2021-04-01T09:31:35.489Z</time>
      </trkpt>
      <trkpt lat="43.1362471" lon="-2.803983">
        <ele>237.413</ele>
        <time>2021-04-01T09:31:35.544Z</time>
      </trkpt>
      <trkpt lat="43.1362486" lon="-2.8039836">
        <ele>237.402</ele>
        <time>2021-04-01T09:31:35.599Z</time>
      </trkpt>
      <trkpt lat="43.1362502" lon="-2.8039843">
        <ele>237.431</ele>
        <time>2021-04-01T09:31:35.654Z</time>
      </trkpt>
      <trkpt lat="43.1362518" lon="-2.8039856">
        <ele>237.495</ele>
        <time>2021-04-01T09:31:35.709Z</time>
      </trkpt>
      <trkpt lat="43.1362536" lon="-2.8039864">
        <ele>237.54</ele>
        <time>2021-04-01T09:31:35.764Z</time>
      </trkpt>
      <trkpt lat="43.1362555" lon="-2.8039871">
        <ele>237.533</ele>
        <time>2021-04-01T09:31:35.819Z</time>
      </trkpt>
      <trkpt lat="43.1362574" lon="-2.8039879">
        <ele>237.587</ele>
        <time>2021-04-01T09:31:35.874Z</time>
      </trkpt>
      <trkpt lat="43.1362592" lon="-2.8039886">
        <ele>237.617</ele>
        <time>2021-04-01T09:31:35.929Z</time>
      </trkpt>
      <trkpt lat="43.1362611" lon="-2.8039895">
        <ele>237.621</ele>
        <time>2021-04-01T09:31:35.984Z</time>
      </trkpt>
      <trkpt lat="43.136263" lon="-2.8039906">
        <ele>237.581</ele>
        <time>2021-04-01T09:31:36.039Z</time>
      </trkpt>
      <trkpt lat="43.1362649" lon="-2.8039912">
        <ele>237.61</ele>
        <time>2021-04-01T09:31:36.094Z</time>
      </trkpt>
      <trkpt lat="43.1362673" lon="-2.8039926">
        <ele>237.735</ele>
        <time>2021-04-01T09:31:36.149Z</time>
      </trkpt>
      <trkpt lat="43.1362691" lon="-2.8039938">
        <ele>237.77</ele>
        <time>2021-04-01T09:31:36.204Z</time>
      </trkpt>
      <trkpt lat="43.1362712" lon="-2.8039943">
        <ele>237.736</ele>
        <time>2021-04-01T09:31:36.259Z</time>
      </trkpt>
      <trkpt lat="43.1362735" lon="-2.8039947">
        <ele>237.741</ele>
        <time>2021-04-01T09:31:36.314Z</time>
      </trkpt>
      <trkpt lat="43.1362757" lon="-2.8039961">
        <ele>237.823</ele>
        <time>2021-04-01T09:31:36.369Z</time>
      </trkpt>
      <trkpt lat="43.1362772" lon="-2.8039968">
        <ele>237.814</ele>
        <time>2021-04-01T09:31:36.424Z</time>
      </trkpt>
      <trkpt lat="43.1362808" lon="-2.8039987">
        <ele>238.069</ele>
        <time>2021-04-01T09:31:36.479Z</time>
      </trkpt>
      <trkpt lat="43.1362824" lon="-2.8039998">
        <ele>238.067</ele>
        <time>2021-04-01T09:31:36.534Z</time>
      </trkpt>
      <trkpt lat="43.1362843" lon="-2.804001">
        <ele>238.07</ele>
        <time>2021-04-01T09:31:36.589Z</time>
      </trkpt>
      <trkpt lat="43.1362864" lon="-2.804002">
        <ele>238.131</ele>
        <time>2021-04-01T09:31:36.644Z</time>
      </trkpt>
      <trkpt lat="43.1362887" lon="-2.8040033">
        <ele>238.227</ele>
        <time>2021-04-01T09:31:36.699Z</time>
      </trkpt>
      <trkpt lat="43.136291" lon="-2.8040046">
        <ele>238.317</ele>
        <time>2021-04-01T09:31:36.754Z</time>
      </trkpt>
      <trkpt lat="43.1362936" lon="-2.8040058">
        <ele>238.451</ele>
        <time>2021-04-01T09:31:36.809Z</time>
      </trkpt>
      <trkpt lat="43.1362963" lon="-2.8040071">
        <ele>238.596</ele>
        <time>2021-04-01T09:31:36.864Z</time>
      </trkpt>
      <trkpt lat="43.1362983" lon="-2.8040086">
        <ele>238.647</ele>
        <time>2021-04-01T09:31:36.919Z</time>
      </trkpt>
      <trkpt lat="43.1363003" lon="-2.8040102">
        <ele>238.712</ele>
        <time>2021-04-01T09:31:36.974Z</time>
      </trkpt>
      <trkpt lat="43.1363024" lon="-2.8040116">
        <ele>238.801</ele>
        <time>2021-04-01T09:31:37.029Z</time>
      </trkpt>
      <trkpt lat="43.1363043" lon="-2.8040127">
        <ele>238.834</ele>
        <time>2021-04-01T09:31:37.084Z</time>
      </trkpt>
      <trkpt lat="43.1363059" lon="-2.8040138">
        <ele>238.852</ele>
        <time>2021-04-01T09:31:37.139Z</time>
      </trkpt>
      <trkpt lat="43.1363073" lon="-2.8040147">
        <ele>238.835</ele>
        <time>2021-04-01T09:31:37.194Z</time>
      </trkpt>
      <trkpt lat="43.1363088" lon="-2.8040157">
        <ele>238.783</ele>
        <time>2021-04-01T09:31:37.249Z</time>
      </trkpt>
      <trkpt lat="43.1363103" lon="-2.8040166">
        <ele>238.713</ele>
        <time>2021-04-01T09:31:37.304Z</time>
      </trkpt>
      <trkpt lat="43.1363119" lon="-2.8040173">
        <ele>238.666</ele>
        <time>2021-04-01T09:31:37.359Z</time>
      </trkpt>
      <trkpt lat="43.1363133" lon="-2.8040181">
        <ele>238.634</ele>
        <time>2021-04-01T09:31:37.414Z</time>
      </trkpt>
      <trkpt lat="43.1363152" lon="-2.8040187">
        <ele>238.69</ele>
        <time>2021-04-01T09:31:37.469Z</time>
      </trkpt>
      <trkpt lat="43.1363172" lon="-2.8040197">
        <ele>238.744</ele>
        <time>2021-04-01T09:31:37.524Z</time>
      </trkpt>
      <trkpt lat="43.1363196" lon="-2.8040209">
        <ele>238.774</ele>
        <time>2021-04-01T09:31:37.579Z</time>
      </trkpt>
      <trkpt lat="43.1363213" lon="-2.8040222">
        <ele>238.798</ele>
        <time>2021-04-01T09:31:37.634Z</time>
      </trkpt>
      <trkpt lat="43.136323" lon="-2.8040236">
        <ele>238.793</ele>
        <time>2021-04-01T09:31:37.689Z</time>
      </trkpt>
      <trkpt lat="43.1363252" lon="-2.8040248">
        <ele>238.829</ele>
        <time>2021-04-01T09:31:37.744Z</time>
      </trkpt>
      <trkpt lat="43.1363273" lon="-2.804026">
        <ele>238.878</ele>
        <time>2021-04-01T09:31:37.796Z</time>
      </trkpt>
      <trkpt lat="43.1363294" lon="-2.8040277">
        <ele>238.881</ele>
        <time>2021-04-01T09:31:37.848Z</time>
      </trkpt>
      <trkpt lat="43.1363315" lon="-2.8040293">
        <ele>238.9</ele>
        <time>2021-04-01T09:31:37.900Z</time>
      </trkpt>
      <trkpt lat="43.1363337" lon="-2.8040309">
        <ele>238.951</ele>
        <time>2021-04-01T09:31:37.952Z</time>
      </trkpt>
      <trkpt lat="43.1363363" lon="-2.8040329">
        <ele>239.069</ele>
        <time>2021-04-01T09:31:38.004Z</time>
      </trkpt>
      <trkpt lat="43.1363378" lon="-2.8040348">
        <ele>239.005</ele>
        <time>2021-04-01T09:31:38.056Z</time>
      </trkpt>
      <trkpt lat="43.1363401" lon="-2.8040368">
        <ele>238.994</ele>
        <time>2021-04-01T09:31:38.108Z</time>
      </trkpt>
      <trkpt lat="43.1363434" lon="-2.8040391">
        <ele>239.011</ele>
        <time>2021-04-01T09:31:38.160Z</time>
      </trkpt>
      <trkpt lat="43.1363458" lon="-2.8040407">
        <ele>238.988</ele>
        <time>2021-04-01T09:31:38.212Z</time>
      </trkpt>
      <trkpt lat="43.1363482" lon="-2.8040418">
        <ele>238.994</ele>
        <time>2021-04-01T09:31:38.265Z</time>
      </trkpt>
      <trkpt lat="43.13635" lon="-2.8040432">
        <ele>238.937</ele>
        <time>2021-04-01T09:31:38.317Z</time>
      </trkpt>
      <trkpt lat="43.1363523" lon="-2.8040443">
        <ele>238.949</ele>
        <time>2021-04-01T09:31:38.369Z</time>
      </trkpt>
      <trkpt lat="43.1363543" lon="-2.8040454">
        <ele>238.995</ele>
        <time>2021-04-01T09:31:38.421Z</time>
      </trkpt>
      <trkpt lat="43.1363563" lon="-2.8040466">
        <ele>239.018</ele>
        <time>2021-04-01T09:31:38.473Z</time>
      </trkpt>
      <trkpt lat="43.1363584" lon="-2.8040477">
        <ele>239.032</ele>
        <time>2021-04-01T09:31:38.525Z</time>
      </trkpt>
      <trkpt lat="43.1363603" lon="-2.8040486">
        <ele>239.05</ele>
        <time>2021-04-01T09:31:38.577Z</time>
      </trkpt>
      <trkpt lat="43.1363622" lon="-2.8040499">
        <ele>239.016</ele>
        <time>2021-04-01T09:31:38.629Z</time>
      </trkpt>
      <trkpt lat="43.1363642" lon="-2.8040514">
        <ele>239.039</ele>
        <time>2021-04-01T09:31:38.681Z</time>
      </trkpt>
      <trkpt lat="43.1363661" lon="-2.8040532">
        <ele>239.065</ele>
        <time>2021-04-01T09:31:38.734Z</time>
      </trkpt>
      <trkpt lat="43.1363682" lon="-2.8040547">
        <ele>239.046</ele>
        <time>2021-04-01T09:31:38.789Z</time>
      </trkpt>
      <trkpt lat="43.13637" lon="-2.8040565">
        <ele>239.052</ele>
        <time>2021-04-01T09:31:38.844Z</time>
      </trkpt>
      <trkpt lat="43.1363718" lon="-2.804058">
        <ele>239.055</ele>
        <time>2021-04-01T09:31:38.899Z</time>
      </trkpt>
      <trkpt lat="43.1363737" lon="-2.8040596">
        <ele>239.04</ele>
        <time>2021-04-01T09:31:38.954Z</time>
      </trkpt>
      <trkpt lat="43.1363758" lon="-2.8040603">
        <ele>239.058</ele>
        <time>2021-04-01T09:31:39.009Z</time>
      </trkpt>
      <trkpt lat="43.1363776" lon="-2.8040618">
        <ele>239.073</ele>
        <time>2021-04-01T09:31:39.064Z</time>
      </trkpt>
      <trkpt lat="43.1363795" lon="-2.8040636">
        <ele>239.102</ele>
        <time>2021-04-01T09:31:39.119Z</time>
      </trkpt>
      <trkpt lat="43.1363813" lon="-2.8040651">
        <ele>239.138</ele>
        <time>2021-04-01T09:31:39.174Z</time>
      </trkpt>
      <trkpt lat="43.1363831" lon="-2.8040666">
        <ele>239.182</ele>
        <time>2021-04-01T09:31:39.229Z</time>
      </trkpt>
      <trkpt lat="43.1363855" lon="-2.8040686">
        <ele>239.269</ele>
        <time>2021-04-01T09:31:39.284Z</time>
      </trkpt>
      <trkpt lat="43.1363878" lon="-2.8040706">
        <ele>239.358</ele>
        <time>2021-04-01T09:31:39.339Z</time>
      </trkpt>
      <trkpt lat="43.1363899" lon="-2.8040727">
        <ele>239.447</ele>
        <time>2021-04-01T09:31:39.394Z</time>
      </trkpt>
      <trkpt lat="43.136392" lon="-2.8040742">
        <ele>239.513</ele>
        <time>2021-04-01T09:31:39.449Z</time>
      </trkpt>
      <trkpt lat="43.1363939" lon="-2.8040756">
        <ele>239.528</ele>
        <time>2021-04-01T09:31:39.504Z</time>
      </trkpt>
      <trkpt lat="43.1363961" lon="-2.8040776">
        <ele>239.575</ele>
        <time>2021-04-01T09:31:39.559Z</time>
      </trkpt>
      <trkpt lat="43.1363983" lon="-2.8040792">
        <ele>239.621</ele>
        <time>2021-04-01T09:31:39.614Z</time>
      </trkpt>
      <trkpt lat="43.1364004" lon="-2.8040809">
        <ele>239.699</ele>
        <time>2021-04-01T09:31:39.669Z</time>
      </trkpt>
      <trkpt lat="43.1364026" lon="-2.8040824">
        <ele>239.753</ele>
        <time>2021-04-01T09:31:39.724Z</time>
      </trkpt>
      <trkpt lat="43.1364045" lon="-2.8040843">
        <ele>239.839</ele>
        <time>2021-04-01T09:31:39.782Z</time>
      </trkpt>
      <trkpt lat="43.1364064" lon="-2.8040858">
        <ele>239.918</ele>
        <time>2021-04-01T09:31:39.840Z</time>
      </trkpt>
      <trkpt lat="43.1364084" lon="-2.8040876">
        <ele>239.966</ele>
        <time>2021-04-01T09:31:39.898Z</time>
      </trkpt>
      <trkpt lat="43.1364101" lon="-2.8040889">
        <ele>239.98</ele>
        <time>2021-04-01T09:31:39.956Z</time>
      </trkpt>
      <trkpt lat="43.1364118" lon="-2.8040906">
        <ele>240.036</ele>
        <time>2021-04-01T09:31:40.014Z</time>
      </trkpt>
      <trkpt lat="43.1364134" lon="-2.8040922">
        <ele>240.05</ele>
        <time>2021-04-01T09:31:40.072Z</time>
      </trkpt>
      <trkpt lat="43.1364154" lon="-2.8040934">
        <ele>240.068</ele>
        <time>2021-04-01T09:31:40.130Z</time>
      </trkpt>
      <trkpt lat="43.1364171" lon="-2.8040953">
        <ele>240.119</ele>
        <time>2021-04-01T09:31:40.188Z</time>
      </trkpt>
      <trkpt lat="43.136419" lon="-2.8040968">
        <ele>240.17</ele>
        <time>2021-04-01T09:31:40.246Z</time>
      </trkpt>
      <trkpt lat="43.1364207" lon="-2.8040988">
        <ele>240.243</ele>
        <time>2021-04-01T09:31:40.304Z</time>
      </trkpt>
      <trkpt lat="43.1364228" lon="-2.8041008">
        <ele>240.347</ele>
        <time>2021-04-01T09:31:40.362Z</time>
      </trkpt>
      <trkpt lat="43.136425" lon="-2.8041028">
        <ele>240.429</ele>
        <time>2021-04-01T09:31:40.420Z</time>
      </trkpt>
      <trkpt lat="43.1364277" lon="-2.8041042">
        <ele>240.544</ele>
        <time>2021-04-01T09:31:40.478Z</time>
      </trkpt>
      <trkpt lat="43.1364301" lon="-2.8041054">
        <ele>240.611</ele>
        <time>2021-04-01T09:31:40.536Z</time>
      </trkpt>
      <trkpt lat="43.1364322" lon="-2.8041065">
        <ele>240.619</ele>
        <time>2021-04-01T09:31:40.594Z</time>
      </trkpt>
      <trkpt lat="43.1364344" lon="-2.8041085">
        <ele>240.743</ele>
        <time>2021-04-01T09:31:40.652Z</time>
      </trkpt>
      <trkpt lat="43.1364363" lon="-2.8041104">
        <ele>240.812</ele>
        <time>2021-04-01T09:31:40.710Z</time>
      </trkpt>
      <trkpt lat="43.1364387" lon="-2.8041127">
        <ele>240.928</ele>
        <time>2021-04-01T09:31:40.769Z</time>
      </trkpt>
      <trkpt lat="43.1364407" lon="-2.8041148">
        <ele>240.932</ele>
        <time>2021-04-01T09:31:40.824Z</time>
      </trkpt>
      <trkpt lat="43.1364426" lon="-2.8041171">
        <ele>241.011</ele>
        <time>2021-04-01T09:31:40.879Z</time>
      </trkpt>
      <trkpt lat="43.1364445" lon="-2.8041191">
        <ele>241.103</ele>
        <time>2021-04-01T09:31:40.934Z</time>
      </trkpt>
      <trkpt lat="43.1364464" lon="-2.8041211">
        <ele>241.164</ele>
        <time>2021-04-01T09:31:40.989Z</time>
      </trkpt>
      <trkpt lat="43.1364482" lon="-2.8041231">
        <ele>241.192</ele>
        <time>2021-04-01T09:31:41.044Z</time>
      </trkpt>
      <trkpt lat="43.1364503" lon="-2.8041249">
        <ele>241.249</ele>
        <time>2021-04-01T09:31:41.099Z</time>
      </trkpt>
      <trkpt lat="43.1364522" lon="-2.8041269">
        <ele>241.294</ele>
        <time>2021-04-01T09:31:41.154Z</time>
      </trkpt>
      <trkpt lat="43.1364541" lon="-2.8041285">
        <ele>241.349</ele>
        <time>2021-04-01T09:31:41.209Z</time>
      </trkpt>
      <trkpt lat="43.136456" lon="-2.8041303">
        <ele>241.412</ele>
        <time>2021-04-01T09:31:41.264Z</time>
      </trkpt>
      <trkpt lat="43.136458" lon="-2.8041322">
        <ele>241.457</ele>
        <time>2021-04-01T09:31:41.319Z</time>
      </trkpt>
      <trkpt lat="43.1364597" lon="-2.8041341">
        <ele>241.453</ele>
        <time>2021-04-01T09:31:41.374Z</time>
      </trkpt>
      <trkpt lat="43.1364611" lon="-2.8041364">
        <ele>241.522</ele>
        <time>2021-04-01T09:31:41.429Z</time>
      </trkpt>
      <trkpt lat="43.1364627" lon="-2.8041381">
        <ele>241.583</ele>
        <time>2021-04-01T09:31:41.484Z</time>
      </trkpt>
      <trkpt lat="43.136464" lon="-2.8041403">
        <ele>241.634</ele>
        <time>2021-04-01T09:31:41.539Z</time>
      </trkpt>
      <trkpt lat="43.136466" lon="-2.8041425">
        <ele>241.672</ele>
        <time>2021-04-01T09:31:41.594Z</time>
      </trkpt>
      <trkpt lat="43.1364678" lon="-2.8041434">
        <ele>241.568</ele>
        <time>2021-04-01T09:31:41.649Z</time>
      </trkpt>
      <trkpt lat="43.13647" lon="-2.8041449">
        <ele>241.595</ele>
        <time>2021-04-01T09:31:41.704Z</time>
      </trkpt>
      <trkpt lat="43.1364715" lon="-2.8041466">
        <ele>241.598</ele>
        <time>2021-04-01T09:31:41.759Z</time>
      </trkpt>
      <trkpt lat="43.1364732" lon="-2.8041485">
        <ele>241.674</ele>
        <time>2021-04-01T09:31:41.814Z</time>
      </trkpt>
      <trkpt lat="43.1364746" lon="-2.804151">
        <ele>241.74</ele>
        <time>2021-04-01T09:31:41.869Z</time>
      </trkpt>
      <trkpt lat="43.1364763" lon="-2.8041531">
        <ele>241.789</ele>
        <time>2021-04-01T09:31:41.924Z</time>
      </trkpt>
      <trkpt lat="43.1364779" lon="-2.8041552">
        <ele>241.84</ele>
        <time>2021-04-01T09:31:41.979Z</time>
      </trkpt>
      <trkpt lat="43.1364796" lon="-2.804157">
        <ele>241.869</ele>
        <time>2021-04-01T09:31:42.034Z</time>
      </trkpt>
      <trkpt lat="43.1364812" lon="-2.8041592">
        <ele>241.9</ele>
        <time>2021-04-01T09:31:42.089Z</time>
      </trkpt>
      <trkpt lat="43.1364827" lon="-2.8041617">
        <ele>241.952</ele>
        <time>2021-04-01T09:31:42.144Z</time>
      </trkpt>
      <trkpt lat="43.136484" lon="-2.8041638">
        <ele>242.005</ele>
        <time>2021-04-01T09:31:42.199Z</time>
      </trkpt>
      <trkpt lat="43.1364855" lon="-2.8041657">
        <ele>242.063</ele>
        <time>2021-04-01T09:31:42.254Z</time>
      </trkpt>
      <trkpt lat="43.1364873" lon="-2.8041671">
        <ele>242.066</ele>
        <time>2021-04-01T09:31:42.309Z</time>
      </trkpt>
      <trkpt lat="43.1364889" lon="-2.8041692">
        <ele>242.097</ele>
        <time>2021-04-01T09:31:42.364Z</time>
      </trkpt>
      <trkpt lat="43.1364904" lon="-2.8041713">
        <ele>242.133</ele>
        <time>2021-04-01T09:31:42.419Z</time>
      </trkpt>
      <trkpt lat="43.1364914" lon="-2.8041733">
        <ele>242.162</ele>
        <time>2021-04-01T09:31:42.474Z</time>
      </trkpt>
      <trkpt lat="43.1364926" lon="-2.8041756">
        <ele>242.194</ele>
        <time>2021-04-01T09:31:42.529Z</time>
      </trkpt>
      <trkpt lat="43.136494" lon="-2.8041781">
        <ele>242.216</ele>
        <time>2021-04-01T09:31:42.584Z</time>
      </trkpt>
      <trkpt lat="43.1364954" lon="-2.8041802">
        <ele>242.241</ele>
        <time>2021-04-01T09:31:42.639Z</time>
      </trkpt>
      <trkpt lat="43.1364968" lon="-2.8041818">
        <ele>242.25</ele>
        <time>2021-04-01T09:31:42.694Z</time>
      </trkpt>
      <trkpt lat="43.1364984" lon="-2.8041839">
        <ele>242.246</ele>
        <time>2021-04-01T09:31:42.749Z</time>
      </trkpt>
      <trkpt lat="43.1365001" lon="-2.8041853">
        <ele>242.242</ele>
        <time>2021-04-01T09:31:42.804Z</time>
      </trkpt>
      <trkpt lat="43.1365017" lon="-2.8041868">
        <ele>242.238</ele>
        <time>2021-04-01T09:31:42.859Z</time>
      </trkpt>
      <trkpt lat="43.1365034" lon="-2.8041885">
        <ele>242.25</ele>
        <time>2021-04-01T09:31:42.914Z</time>
      </trkpt>
      <trkpt lat="43.136505" lon="-2.8041904">
        <ele>242.26</ele>
        <time>2021-04-01T09:31:42.969Z</time>
      </trkpt>
      <trkpt lat="43.1365065" lon="-2.8041922">
        <ele>242.293</ele>
        <time>2021-04-01T09:31:43.024Z</time>
      </trkpt>
      <trkpt lat="43.1365078" lon="-2.8041936">
        <ele>242.331</ele>
        <time>2021-04-01T09:31:43.079Z</time>
      </trkpt>
      <trkpt lat="43.1365092" lon="-2.8041953">
        <ele>242.311</ele>
        <time>2021-04-01T09:31:43.134Z</time>
      </trkpt>
      <trkpt lat="43.1365109" lon="-2.8041974">
        <ele>242.368</ele>
        <time>2021-04-01T09:31:43.189Z</time>
      </trkpt>
      <trkpt lat="43.1365127" lon="-2.8041997">
        <ele>242.408</ele>
        <time>2021-04-01T09:31:43.244Z</time>
      </trkpt>
      <trkpt lat="43.1365141" lon="-2.8042016">
        <ele>242.42</ele>
        <time>2021-04-01T09:31:43.299Z</time>
      </trkpt>
      <trkpt lat="43.1365152" lon="-2.8042038">
        <ele>242.471</ele>
        <time>2021-04-01T09:31:43.354Z</time>
      </trkpt>
      <trkpt lat="43.1365165" lon="-2.8042057">
        <ele>242.484</ele>
        <time>2021-04-01T09:31:43.409Z</time>
      </trkpt>
      <trkpt lat="43.1365174" lon="-2.804208">
        <ele>242.486</ele>
        <time>2021-04-01T09:31:43.464Z</time>
      </trkpt>
      <trkpt lat="43.1365187" lon="-2.8042102">
        <ele>242.517</ele>
        <time>2021-04-01T09:31:43.519Z</time>
      </trkpt>
      <trkpt lat="43.1365201" lon="-2.8042124">
        <ele>242.582</ele>
        <time>2021-04-01T09:31:43.574Z</time>
      </trkpt>
      <trkpt lat="43.1365212" lon="-2.8042147">
        <ele>242.561</ele>
        <time>2021-04-01T09:31:43.629Z</time>
      </trkpt>
      <trkpt lat="43.1365224" lon="-2.8042162">
        <ele>242.563</ele>
        <time>2021-04-01T09:31:43.684Z</time>
      </trkpt>
      <trkpt lat="43.1365238" lon="-2.8042182">
        <ele>242.576</ele>
        <time>2021-04-01T09:31:43.739Z</time>
      </trkpt>
      <trkpt lat="43.1365253" lon="-2.8042205">
        <ele>242.601</ele>
        <time>2021-04-01T09:31:43.794Z</time>
      </trkpt>
      <trkpt lat="43.1365263" lon="-2.8042226">
        <ele>242.559</ele>
        <time>2021-04-01T09:31:43.852Z</time>
      </trkpt>
      <trkpt lat="43.1365277" lon="-2.8042245">
        <ele>242.629</ele>
        <time>2021-04-01T09:31:43.910Z</time>
      </trkpt>
      <trkpt lat="43.1365293" lon="-2.8042269">
        <ele>242.685</ele>
        <time>2021-04-01T09:31:43.968Z</time>
      </trkpt>
      <trkpt lat="43.1365304" lon="-2.804229">
        <ele>242.693</ele>
        <time>2021-04-01T09:31:44.026Z</time>
      </trkpt>
      <trkpt lat="43.136531" lon="-2.804231">
        <ele>242.696</ele>
        <time>2021-04-01T09:31:44.085Z</time>
      </trkpt>
      <trkpt lat="43.136532" lon="-2.8042324">
        <ele>242.641</ele>
        <time>2021-04-01T09:31:44.143Z</time>
      </trkpt>
      <trkpt lat="43.1365331" lon="-2.8042342">
        <ele>242.584</ele>
        <time>2021-04-01T09:31:44.201Z</time>
      </trkpt>
      <trkpt lat="43.1365345" lon="-2.8042355">
        <ele>242.545</ele>
        <time>2021-04-01T09:31:44.259Z</time>
      </trkpt>
      <trkpt lat="43.1365357" lon="-2.8042379">
        <ele>242.554</ele>
        <time>2021-04-01T09:31:44.318Z</time>
      </trkpt>
      <trkpt lat="43.1365369" lon="-2.8042402">
        <ele>242.574</ele>
        <time>2021-04-01T09:31:44.376Z</time>
      </trkpt>
      <trkpt lat="43.1365378" lon="-2.8042423">
        <ele>242.581</ele>
        <time>2021-04-01T09:31:44.434Z</time>
      </trkpt>
      <trkpt lat="43.1365386" lon="-2.8042442">
        <ele>242.531</ele>
        <time>2021-04-01T09:31:44.492Z</time>
      </trkpt>
      <trkpt lat="43.1365396" lon="-2.8042462">
        <ele>242.489</ele>
        <time>2021-04-01T09:31:44.551Z</time>
      </trkpt>
      <trkpt lat="43.1365405" lon="-2.8042484">
        <ele>242.49</ele>
        <time>2021-04-01T09:31:44.609Z</time>
      </trkpt>
      <trkpt lat="43.1365418" lon="-2.8042505">
        <ele>242.477</ele>
        <time>2021-04-01T09:31:44.667Z</time>
      </trkpt>
      <trkpt lat="43.136543" lon="-2.8042527">
        <ele>242.441</ele>
        <time>2021-04-01T09:31:44.725Z</time>
      </trkpt>
      <trkpt lat="43.136544" lon="-2.8042552">
        <ele>242.436</ele>
        <time>2021-04-01T09:31:44.784Z</time>
      </trkpt>
      <trkpt lat="43.1365449" lon="-2.8042571">
        <ele>242.442</ele>
        <time>2021-04-01T09:31:44.836Z</time>
      </trkpt>
      <trkpt lat="43.1365461" lon="-2.8042597">
        <ele>242.522</ele>
        <time>2021-04-01T09:31:44.888Z</time>
      </trkpt>
      <trkpt lat="43.1365471" lon="-2.8042623">
        <ele>242.539</ele>
        <time>2021-04-01T09:31:44.940Z</time>
      </trkpt>
      <trkpt lat="43.1365479" lon="-2.8042651">
        <ele>242.554</ele>
        <time>2021-04-01T09:31:44.992Z</time>
      </trkpt>
      <trkpt lat="43.136549" lon="-2.8042677">
        <ele>242.552</ele>
        <time>2021-04-01T09:31:45.044Z</time>
      </trkpt>
      <trkpt lat="43.1365499" lon="-2.8042707">
        <ele>242.542</ele>
        <time>2021-04-01T09:31:45.096Z</time>
      </trkpt>
      <trkpt lat="43.1365506" lon="-2.8042739">
        <ele>242.571</ele>
        <time>2021-04-01T09:31:45.148Z</time>
      </trkpt>
      <trkpt lat="43.1365512" lon="-2.8042765">
        <ele>242.621</ele>
        <time>2021-04-01T09:31:45.200Z</time>
      </trkpt>
      <trkpt lat="43.1365519" lon="-2.8042793">
        <ele>242.638</ele>
        <time>2021-04-01T09:31:45.252Z</time>
      </trkpt>
      <trkpt lat="43.1365528" lon="-2.8042822">
        <ele>242.64</ele>
        <time>2021-04-01T09:31:45.305Z</time>
      </trkpt>
      <trkpt lat="43.1365536" lon="-2.8042847">
        <ele>242.651</ele>
        <time>2021-04-01T09:31:45.357Z</time>
      </trkpt>
      <trkpt lat="43.1365542" lon="-2.8042874">
        <ele>242.651</ele>
        <time>2021-04-01T09:31:45.409Z</time>
      </trkpt>
      <trkpt lat="43.1365547" lon="-2.8042902">
        <ele>242.647</ele>
        <time>2021-04-01T09:31:45.461Z</time>
      </trkpt>
      <trkpt lat="43.1365554" lon="-2.8042924">
        <ele>242.73</ele>
        <time>2021-04-01T09:31:45.513Z</time>
      </trkpt>
      <trkpt lat="43.1365562" lon="-2.8042949">
        <ele>242.803</ele>
        <time>2021-04-01T09:31:45.565Z</time>
      </trkpt>
      <trkpt lat="43.1365573" lon="-2.8042972">
        <ele>242.884</ele>
        <time>2021-04-01T09:31:45.617Z</time>
      </trkpt>
      <trkpt lat="43.136558" lon="-2.8043002">
        <ele>242.942</ele>
        <time>2021-04-01T09:31:45.669Z</time>
      </trkpt>
      <trkpt lat="43.1365589" lon="-2.8043027">
        <ele>242.995</ele>
        <time>2021-04-01T09:31:45.721Z</time>
      </trkpt>
      <trkpt lat="43.1365595" lon="-2.8043052">
        <ele>243.103</ele>
        <time>2021-04-01T09:31:45.774Z</time>
      </trkpt>
      <trkpt lat="43.13656" lon="-2.8043074">
        <ele>243.058</ele>
        <time>2021-04-01T09:31:45.829Z</time>
      </trkpt>
      <trkpt lat="43.136561" lon="-2.8043098">
        <ele>243.047</ele>
        <time>2021-04-01T09:31:45.884Z</time>
      </trkpt>
      <trkpt lat="43.1365619" lon="-2.8043126">
        <ele>243.086</ele>
        <time>2021-04-01T09:31:45.939Z</time>
      </trkpt>
      <trkpt lat="43.1365628" lon="-2.8043153">
        <ele>243.149</ele>
        <time>2021-04-01T09:31:45.994Z</time>
      </trkpt>
      <trkpt lat="43.1365639" lon="-2.8043174">
        <ele>243.188</ele>
        <time>2021-04-01T09:31:46.049Z</time>
      </trkpt>
      <trkpt lat="43.1365654" lon="-2.8043193">
        <ele>243.23</ele>
        <time>2021-04-01T09:31:46.104Z</time>
      </trkpt>
      <trkpt lat="43.1365664" lon="-2.8043219">
        <ele>243.268</ele>
        <time>2021-04-01T09:31:46.159Z</time>
      </trkpt>
      <trkpt lat="43.1365675" lon="-2.804325">
        <ele>243.345</ele>
        <time>2021-04-01T09:31:46.214Z</time>
      </trkpt>
      <trkpt lat="43.1365686" lon="-2.8043281">
        <ele>243.416</ele>
        <time>2021-04-01T09:31:46.269Z</time>
      </trkpt>
      <trkpt lat="43.1365696" lon="-2.8043315">
        <ele>243.519</ele>
        <time>2021-04-01T09:31:46.324Z</time>
      </trkpt>
      <trkpt lat="43.1365704" lon="-2.8043345">
        <ele>243.633</ele>
        <time>2021-04-01T09:31:46.379Z</time>
      </trkpt>
      <trkpt lat="43.1365715" lon="-2.8043372">
        <ele>243.672</ele>
        <time>2021-04-01T09:31:46.434Z</time>
      </trkpt>
      <trkpt lat="43.1365726" lon="-2.8043392">
        <ele>243.67</ele>
        <time>2021-04-01T09:31:46.489Z</time>
      </trkpt>
      <trkpt lat="43.1365738" lon="-2.8043419">
        <ele>243.707</ele>
        <time>2021-04-01T09:31:46.544Z</time>
      </trkpt>
      <trkpt lat="43.1365745" lon="-2.8043446">
        <ele>243.704</ele>
        <time>2021-04-01T09:31:46.599Z</time>
      </trkpt>
      <trkpt lat="43.1365751" lon="-2.8043474">
        <ele>243.728</ele>
        <time>2021-04-01T09:31:46.654Z</time>
      </trkpt>
      <trkpt lat="43.1365757" lon="-2.8043503">
        <ele>243.756</ele>
        <time>2021-04-01T09:31:46.709Z</time>
      </trkpt>
      <trkpt lat="43.1365764" lon="-2.8043532">
        <ele>243.789</ele>
        <time>2021-04-01T09:31:46.764Z</time>
      </trkpt>
      <trkpt lat="43.1365775" lon="-2.8043556">
        <ele>243.822</ele>
        <time>2021-04-01T09:31:46.819Z</time>
      </trkpt>
      <trkpt lat="43.1365783" lon="-2.8043584">
        <ele>243.817</ele>
        <time>2021-04-01T09:31:46.874Z</time>
      </trkpt>
      <trkpt lat="43.136579" lon="-2.804361">
        <ele>243.857</ele>
        <time>2021-04-01T09:31:46.929Z</time>
      </trkpt>
      <trkpt lat="43.1365802" lon="-2.8043629">
        <ele>243.865</ele>
        <time>2021-04-01T09:31:46.984Z</time>
      </trkpt>
      <trkpt lat="43.1365809" lon="-2.8043656">
        <ele>243.87</ele>
        <time>2021-04-01T09:31:47.039Z</time>
      </trkpt>
      <trkpt lat="43.1365816" lon="-2.8043687">
        <ele>243.862</ele>
        <time>2021-04-01T09:31:47.094Z</time>
      </trkpt>
      <trkpt lat="43.1365819" lon="-2.8043715">
        <ele>243.848</ele>
        <time>2021-04-01T09:31:47.149Z</time>
      </trkpt>
      <trkpt lat="43.1365826" lon="-2.8043744">
        <ele>243.881</ele>
        <time>2021-04-01T09:31:47.204Z</time>
      </trkpt>
      <trkpt lat="43.1365835" lon="-2.8043769">
        <ele>243.919</ele>
        <time>2021-04-01T09:31:47.259Z</time>
      </trkpt>
      <trkpt lat="43.1365843" lon="-2.8043792">
        <ele>243.945</ele>
        <time>2021-04-01T09:31:47.314Z</time>
      </trkpt>
      <trkpt lat="43.1365851" lon="-2.8043818">
        <ele>243.956</ele>
        <time>2021-04-01T09:31:47.369Z</time>
      </trkpt>
      <trkpt lat="43.1365861" lon="-2.8043842">
        <ele>243.964</ele>
        <time>2021-04-01T09:31:47.424Z</time>
      </trkpt>
      <trkpt lat="43.136587" lon="-2.8043868">
        <ele>243.974</ele>
        <time>2021-04-01T09:31:47.479Z</time>
      </trkpt>
      <trkpt lat="43.136588" lon="-2.8043887">
        <ele>243.969</ele>
        <time>2021-04-01T09:31:47.534Z</time>
      </trkpt>
      <trkpt lat="43.1365888" lon="-2.8043914">
        <ele>244.006</ele>
        <time>2021-04-01T09:31:47.589Z</time>
      </trkpt>
      <trkpt lat="43.1365896" lon="-2.8043944">
        <ele>244.034</ele>
        <time>2021-04-01T09:31:47.644Z</time>
      </trkpt>
      <trkpt lat="43.1365907" lon="-2.8043971">
        <ele>244.091</ele>
        <time>2021-04-01T09:31:47.699Z</time>
      </trkpt>
      <trkpt lat="43.1365917" lon="-2.8043998">
        <ele>244.143</ele>
        <time>2021-04-01T09:31:47.754Z</time>
      </trkpt>
      <trkpt lat="43.1365926" lon="-2.8044024">
        <ele>244.155</ele>
        <time>2021-04-01T09:31:47.809Z</time>
      </trkpt>
      <trkpt lat="43.1365931" lon="-2.8044055">
        <ele>244.175</ele>
        <time>2021-04-01T09:31:47.864Z</time>
      </trkpt>
      <trkpt lat="43.1365936" lon="-2.8044082">
        <ele>244.199</ele>
        <time>2021-04-01T09:31:47.919Z</time>
      </trkpt>
      <trkpt lat="43.1365942" lon="-2.8044112">
        <ele>244.145</ele>
        <time>2021-04-01T09:31:47.974Z</time>
      </trkpt>
      <trkpt lat="43.1365951" lon="-2.8044139">
        <ele>244.144</ele>
        <time>2021-04-01T09:31:48.029Z</time>
      </trkpt>
      <trkpt lat="43.1365957" lon="-2.8044166">
        <ele>244.109</ele>
        <time>2021-04-01T09:31:48.084Z</time>
      </trkpt>
      <trkpt lat="43.1365965" lon="-2.804419">
        <ele>244.077</ele>
        <time>2021-04-01T09:31:48.139Z</time>
      </trkpt>
      <trkpt lat="43.1365971" lon="-2.8044214">
        <ele>244.066</ele>
        <time>2021-04-01T09:31:48.194Z</time>
      </trkpt>
      <trkpt lat="43.1365979" lon="-2.8044239">
        <ele>244.069</ele>
        <time>2021-04-01T09:31:48.249Z</time>
      </trkpt>
      <trkpt lat="43.1365986" lon="-2.8044265">
        <ele>244.034</ele>
        <time>2021-04-01T09:31:48.304Z</time>
      </trkpt>
      <trkpt lat="43.1365996" lon="-2.804429">
        <ele>243.973</ele>
        <time>2021-04-01T09:31:48.359Z</time>
      </trkpt>
      <trkpt lat="43.1366003" lon="-2.8044317">
        <ele>243.935</ele>
        <time>2021-04-01T09:31:48.414Z</time>
      </trkpt>
      <trkpt lat="43.136601" lon="-2.8044344">
        <ele>243.888</ele>
        <time>2021-04-01T09:31:48.469Z</time>
      </trkpt>
      <trkpt lat="43.1366018" lon="-2.8044376">
        <ele>243.933</ele>
        <time>2021-04-01T09:31:48.524Z</time>
      </trkpt>
      <trkpt lat="43.1366025" lon="-2.8044403">
        <ele>243.9</ele>
        <time>2021-04-01T09:31:48.579Z</time>
      </trkpt>
      <trkpt lat="43.1366032" lon="-2.8044429">
        <ele>243.903</ele>
        <time>2021-04-01T09:31:48.634Z</time>
      </trkpt>
      <trkpt lat="43.136604" lon="-2.8044454">
        <ele>243.913</ele>
        <time>2021-04-01T09:31:48.689Z</time>
      </trkpt>
      <trkpt lat="43.1366048" lon="-2.8044481">
        <ele>243.894</ele>
        <time>2021-04-01T09:31:48.744Z</time>
      </trkpt>
      <trkpt lat="43.1366057" lon="-2.8044509">
        <ele>243.884</ele>
        <time>2021-04-01T09:31:48.799Z</time>
      </trkpt>
      <trkpt lat="43.1366062" lon="-2.8044535">
        <ele>243.849</ele>
        <time>2021-04-01T09:31:48.854Z</time>
      </trkpt>
      <trkpt lat="43.1366068" lon="-2.8044559">
        <ele>243.811</ele>
        <time>2021-04-01T09:31:48.909Z</time>
      </trkpt>
      <trkpt lat="43.1366074" lon="-2.8044578">
        <ele>243.712</ele>
        <time>2021-04-01T09:31:48.964Z</time>
      </trkpt>
      <trkpt lat="43.1366082" lon="-2.8044604">
        <ele>243.649</ele>
        <time>2021-04-01T09:31:49.019Z</time>
      </trkpt>
      <trkpt lat="43.136609" lon="-2.8044631">
        <ele>243.612</ele>
        <time>2021-04-01T09:31:49.074Z</time>
      </trkpt>
      <trkpt lat="43.1366096" lon="-2.8044659">
        <ele>243.607</ele>
        <time>2021-04-01T09:31:49.129Z</time>
      </trkpt>
      <trkpt lat="43.1366103" lon="-2.804469">
        <ele>243.576</ele>
        <time>2021-04-01T09:31:49.184Z</time>
      </trkpt>
      <trkpt lat="43.1366109" lon="-2.8044718">
        <ele>243.549</ele>
        <time>2021-04-01T09:31:49.239Z</time>
      </trkpt>
      <trkpt lat="43.1366117" lon="-2.8044747">
        <ele>243.566</ele>
        <time>2021-04-01T09:31:49.294Z</time>
      </trkpt>
      <trkpt lat="43.136613" lon="-2.8044773">
        <ele>243.59</ele>
        <time>2021-04-01T09:31:49.349Z</time>
      </trkpt>
      <trkpt lat="43.1366139" lon="-2.8044802">
        <ele>243.604</ele>
        <time>2021-04-01T09:31:49.404Z</time>
      </trkpt>
      <trkpt lat="43.1366145" lon="-2.8044837">
        <ele>243.579</ele>
        <time>2021-04-01T09:31:49.459Z</time>
      </trkpt>
      <trkpt lat="43.1366154" lon="-2.8044869">
        <ele>243.632</ele>
        <time>2021-04-01T09:31:49.514Z</time>
      </trkpt>
      <trkpt lat="43.1366163" lon="-2.8044899">
        <ele>243.67</ele>
        <time>2021-04-01T09:31:49.569Z</time>
      </trkpt>
      <trkpt lat="43.1366169" lon="-2.8044927">
        <ele>243.627</ele>
        <time>2021-04-01T09:31:49.624Z</time>
      </trkpt>
      <trkpt lat="43.1366176" lon="-2.8044954">
        <ele>243.623</ele>
        <time>2021-04-01T09:31:49.679Z</time>
      </trkpt>
      <trkpt lat="43.1366183" lon="-2.804498">
        <ele>243.615</ele>
        <time>2021-04-01T09:31:49.734Z</time>
      </trkpt>
      <trkpt lat="43.136619" lon="-2.8045009">
        <ele>243.606</ele>
        <time>2021-04-01T09:31:49.789Z</time>
      </trkpt>
      <trkpt lat="43.13662" lon="-2.8045036">
        <ele>243.599</ele>
        <time>2021-04-01T09:31:49.844Z</time>
      </trkpt>
      <trkpt lat="43.1366209" lon="-2.8045067">
        <ele>243.599</ele>
        <time>2021-04-01T09:31:49.899Z</time>
      </trkpt>
      <trkpt lat="43.1366218" lon="-2.804509">
        <ele>243.52</ele>
        <time>2021-04-01T09:31:49.954Z</time>
      </trkpt>
      <trkpt lat="43.1366227" lon="-2.8045115">
        <ele>243.491</ele>
        <time>2021-04-01T09:31:50.009Z</time>
      </trkpt>
      <trkpt lat="43.1366237" lon="-2.8045138">
        <ele>243.438</ele>
        <time>2021-04-01T09:31:50.064Z</time>
      </trkpt>
      <trkpt lat="43.136625" lon="-2.8045157">
        <ele>243.375</ele>
        <time>2021-04-01T09:31:50.119Z</time>
      </trkpt>
      <trkpt lat="43.1366262" lon="-2.8045177">
        <ele>243.309</ele>
        <time>2021-04-01T09:31:50.174Z</time>
      </trkpt>
      <trkpt lat="43.1366274" lon="-2.8045199">
        <ele>243.313</ele>
        <time>2021-04-01T09:31:50.229Z</time>
      </trkpt>
      <trkpt lat="43.1366282" lon="-2.8045232">
        <ele>243.337</ele>
        <time>2021-04-01T09:31:50.284Z</time>
      </trkpt>
      <trkpt lat="43.136629" lon="-2.8045255">
        <ele>243.251</ele>
        <time>2021-04-01T09:31:50.339Z</time>
      </trkpt>
      <trkpt lat="43.1366299" lon="-2.804528">
        <ele>243.212</ele>
        <time>2021-04-01T09:31:50.394Z</time>
      </trkpt>
      <trkpt lat="43.1366308" lon="-2.8045299">
        <ele>243.097</ele>
        <time>2021-04-01T09:31:50.449Z</time>
      </trkpt>
      <trkpt lat="43.1366318" lon="-2.8045324">
        <ele>243.038</ele>
        <time>2021-04-01T09:31:50.504Z</time>
      </trkpt>
      <trkpt lat="43.1366329" lon="-2.8045348">
        <ele>242.943</ele>
        <time>2021-04-01T09:31:50.559Z</time>
      </trkpt>
      <trkpt lat="43.1366339" lon="-2.8045376">
        <ele>242.863</ele>
        <time>2021-04-01T09:31:50.614Z</time>
      </trkpt>
      <trkpt lat="43.1366349" lon="-2.8045403">
        <ele>242.814</ele>
        <time>2021-04-01T09:31:50.669Z</time>
      </trkpt>
      <trkpt lat="43.1366357" lon="-2.8045431">
        <ele>242.784</ele>
        <time>2021-04-01T09:31:50.724Z</time>
      </trkpt>
      <trkpt lat="43.1366359" lon="-2.8045456">
        <ele>242.638</ele>
        <time>2021-04-01T09:31:50.779Z</time>
      </trkpt>
      <trkpt lat="43.1366367" lon="-2.8045484">
        <ele>242.599</ele>
        <time>2021-04-01T09:31:50.834Z</time>
      </trkpt>
      <trkpt lat="43.1366377" lon="-2.804551">
        <ele>242.572</ele>
        <time>2021-04-01T09:31:50.889Z</time>
      </trkpt>
      <trkpt lat="43.1366387" lon="-2.8045534">
        <ele>242.517</ele>
        <time>2021-04-01T09:31:50.944Z</time>
      </trkpt>
      <trkpt lat="43.1366397" lon="-2.8045559">
        <ele>242.485</ele>
        <time>2021-04-01T09:31:50.999Z</time>
      </trkpt>
      <trkpt lat="43.1366405" lon="-2.8045589">
        <ele>242.451</ele>
        <time>2021-04-01T09:31:51.054Z</time>
      </trkpt>
      <trkpt lat="43.136642" lon="-2.804561">
        <ele>242.426</ele>
        <time>2021-04-01T09:31:51.109Z</time>
      </trkpt>
      <trkpt lat="43.1366431" lon="-2.8045632">
        <ele>242.404</ele>
        <time>2021-04-01T09:31:51.164Z</time>
      </trkpt>
      <trkpt lat="43.136644" lon="-2.8045652">
        <ele>242.347</ele>
        <time>2021-04-01T09:31:51.219Z</time>
      </trkpt>
      <trkpt lat="43.1366451" lon="-2.8045671">
        <ele>242.33</ele>
        <time>2021-04-01T09:31:51.274Z</time>
      </trkpt>
      <trkpt lat="43.1366462" lon="-2.8045692">
        <ele>242.279</ele>
        <time>2021-04-01T09:31:51.329Z</time>
      </trkpt>
      <trkpt lat="43.1366474" lon="-2.804571">
        <ele>242.222</ele>
        <time>2021-04-01T09:31:51.384Z</time>
      </trkpt>
      <trkpt lat="43.1366486" lon="-2.8045734">
        <ele>242.255</ele>
        <time>2021-04-01T09:31:51.439Z</time>
      </trkpt>
      <trkpt lat="43.1366498" lon="-2.8045762">
        <ele>242.281</ele>
        <time>2021-04-01T09:31:51.494Z</time>
      </trkpt>
      <trkpt lat="43.1366508" lon="-2.8045788">
        <ele>242.258</ele>
        <time>2021-04-01T09:31:51.549Z</time>
      </trkpt>
      <trkpt lat="43.136652" lon="-2.8045815">
        <ele>242.266</ele>
        <time>2021-04-01T09:31:51.604Z</time>
      </trkpt>
      <trkpt lat="43.1366533" lon="-2.8045842">
        <ele>242.279</ele>
        <time>2021-04-01T09:31:51.659Z</time>
      </trkpt>
      <trkpt lat="43.1366543" lon="-2.8045867">
        <ele>242.232</ele>
        <time>2021-04-01T09:31:51.714Z</time>
      </trkpt>
      <trkpt lat="43.1366552" lon="-2.8045896">
        <ele>242.262</ele>
        <time>2021-04-01T09:31:51.769Z</time>
      </trkpt>
      <trkpt lat="43.1366561" lon="-2.8045922">
        <ele>242.262</ele>
        <time>2021-04-01T09:31:51.824Z</time>
      </trkpt>
      <trkpt lat="43.1366571" lon="-2.8045952">
        <ele>242.282</ele>
        <time>2021-04-01T09:31:51.879Z</time>
      </trkpt>
      <trkpt lat="43.1366579" lon="-2.8045977">
        <ele>242.226</ele>
        <time>2021-04-01T09:31:51.934Z</time>
      </trkpt>
      <trkpt lat="43.1366592" lon="-2.8046003">
        <ele>242.247</ele>
        <time>2021-04-01T09:31:51.989Z</time>
      </trkpt>
      <trkpt lat="43.1366603" lon="-2.804603">
        <ele>242.253</ele>
        <time>2021-04-01T09:31:52.044Z</time>
      </trkpt>
      <trkpt lat="43.1366614" lon="-2.8046057">
        <ele>242.264</ele>
        <time>2021-04-01T09:31:52.099Z</time>
      </trkpt>
      <trkpt lat="43.1366626" lon="-2.8046079">
        <ele>242.268</ele>
        <time>2021-04-01T09:31:52.154Z</time>
      </trkpt>
      <trkpt lat="43.1366637" lon="-2.8046104">
        <ele>242.279</ele>
        <time>2021-04-01T09:31:52.209Z</time>
      </trkpt>
      <trkpt lat="43.1366649" lon="-2.8046129">
        <ele>242.289</ele>
        <time>2021-04-01T09:31:52.264Z</time>
      </trkpt>
      <trkpt lat="43.1366662" lon="-2.8046153">
        <ele>242.322</ele>
        <time>2021-04-01T09:31:52.319Z</time>
      </trkpt>
      <trkpt lat="43.1366674" lon="-2.8046177">
        <ele>242.303</ele>
        <time>2021-04-01T09:31:52.374Z</time>
      </trkpt>
      <trkpt lat="43.1366685" lon="-2.8046201">
        <ele>242.311</ele>
        <time>2021-04-01T09:31:52.429Z</time>
      </trkpt>
      <trkpt lat="43.1366694" lon="-2.8046225">
        <ele>242.268</ele>
        <time>2021-04-01T09:31:52.484Z</time>
      </trkpt>
      <trkpt lat="43.1366705" lon="-2.804625">
        <ele>242.254</ele>
        <time>2021-04-01T09:31:52.539Z</time>
      </trkpt>
      <trkpt lat="43.1366715" lon="-2.8046272">
        <ele>242.227</ele>
        <time>2021-04-01T09:31:52.594Z</time>
      </trkpt>
      <trkpt lat="43.1366725" lon="-2.8046294">
        <ele>242.179</ele>
        <time>2021-04-01T09:31:52.649Z</time>
      </trkpt>
      <trkpt lat="43.1366732" lon="-2.8046317">
        <ele>242.182</ele>
        <time>2021-04-01T09:31:52.704Z</time>
      </trkpt>
      <trkpt lat="43.1366741" lon="-2.8046342">
        <ele>242.169</ele>
        <time>2021-04-01T09:31:52.759Z</time>
      </trkpt>
      <trkpt lat="43.1366754" lon="-2.8046366">
        <ele>242.159</ele>
        <time>2021-04-01T09:31:52.811Z</time>
      </trkpt>
      <trkpt lat="43.1366766" lon="-2.8046386">
        <ele>242.134</ele>
        <time>2021-04-01T09:31:52.863Z</time>
      </trkpt>
      <trkpt lat="43.1366776" lon="-2.8046404">
        <ele>242.093</ele>
        <time>2021-04-01T09:31:52.915Z</time>
      </trkpt>
      <trkpt lat="43.1366784" lon="-2.8046422">
        <ele>241.996</ele>
        <time>2021-04-01T09:31:52.967Z</time>
      </trkpt>
      <trkpt lat="43.1366797" lon="-2.804644">
        <ele>241.924</ele>
        <time>2021-04-01T09:31:53.019Z</time>
      </trkpt>
      <trkpt lat="43.1366806" lon="-2.8046462">
        <ele>241.867</ele>
        <time>2021-04-01T09:31:53.071Z</time>
      </trkpt>
      <trkpt lat="43.1366818" lon="-2.8046479">
        <ele>241.845</ele>
        <time>2021-04-01T09:31:53.123Z</time>
      </trkpt>
      <trkpt lat="43.1366829" lon="-2.80465">
        <ele>241.8</ele>
        <time>2021-04-01T09:31:53.175Z</time>
      </trkpt>
      <trkpt lat="43.1366842" lon="-2.8046519">
        <ele>241.804</ele>
        <time>2021-04-01T09:31:53.227Z</time>
      </trkpt>
      <trkpt lat="43.1366853" lon="-2.8046543">
        <ele>241.808</ele>
        <time>2021-04-01T09:31:53.280Z</time>
      </trkpt>
      <trkpt lat="43.1366869" lon="-2.8046566">
        <ele>241.83</ele>
        <time>2021-04-01T09:31:53.332Z</time>
      </trkpt>
      <trkpt lat="43.1366887" lon="-2.8046585">
        <ele>241.827</ele>
        <time>2021-04-01T09:31:53.384Z</time>
      </trkpt>
      <trkpt lat="43.1366902" lon="-2.8046606">
        <ele>241.84</ele>
        <time>2021-04-01T09:31:53.436Z</time>
      </trkpt>
      <trkpt lat="43.1366918" lon="-2.8046629">
        <ele>241.875</ele>
        <time>2021-04-01T09:31:53.488Z</time>
      </trkpt>
      <trkpt lat="43.1366932" lon="-2.8046647">
        <ele>241.849</ele>
        <time>2021-04-01T09:31:53.540Z</time>
      </trkpt>
      <trkpt lat="43.1366941" lon="-2.8046662">
        <ele>241.752</ele>
        <time>2021-04-01T09:31:53.592Z</time>
      </trkpt>
      <trkpt lat="43.1366951" lon="-2.8046683">
        <ele>241.739</ele>
        <time>2021-04-01T09:31:53.644Z</time>
      </trkpt>
      <trkpt lat="43.1366966" lon="-2.8046709">
        <ele>241.791</ele>
        <time>2021-04-01T09:31:53.696Z</time>
      </trkpt>
      <trkpt lat="43.1366988" lon="-2.804673">
        <ele>241.89</ele>
        <time>2021-04-01T09:31:53.749Z</time>
      </trkpt>
      <trkpt lat="43.1367003" lon="-2.8046752">
        <ele>241.92</ele>
        <time>2021-04-01T09:31:53.810Z</time>
      </trkpt>
      <trkpt lat="43.1367017" lon="-2.804677">
        <ele>241.904</ele>
        <time>2021-04-01T09:31:53.871Z</time>
      </trkpt>
      <trkpt lat="43.1367027" lon="-2.8046783">
        <ele>241.786</ele>
        <time>2021-04-01T09:31:53.933Z</time>
      </trkpt>
      <trkpt lat="43.1367045" lon="-2.80468">
        <ele>241.779</ele>
        <time>2021-04-01T09:31:53.994Z</time>
      </trkpt>
      <trkpt lat="43.136706" lon="-2.8046821">
        <ele>241.815</ele>
        <time>2021-04-01T09:31:54.056Z</time>
      </trkpt>
      <trkpt lat="43.1367073" lon="-2.8046839">
        <ele>241.795</ele>
        <time>2021-04-01T09:31:54.117Z</time>
      </trkpt>
      <trkpt lat="43.1367086" lon="-2.8046854">
        <ele>241.771</ele>
        <time>2021-04-01T09:31:54.179Z</time>
      </trkpt>
      <trkpt lat="43.1367097" lon="-2.804687">
        <ele>241.716</ele>
        <time>2021-04-01T09:31:54.240Z</time>
      </trkpt>
      <trkpt lat="43.1367108" lon="-2.8046883">
        <ele>241.602</ele>
        <time>2021-04-01T09:31:54.302Z</time>
      </trkpt>
      <trkpt lat="43.1367122" lon="-2.8046897">
        <ele>241.572</ele>
        <time>2021-04-01T09:31:54.363Z</time>
      </trkpt>
      <trkpt lat="43.1367134" lon="-2.8046914">
        <ele>241.553</ele>
        <time>2021-04-01T09:31:54.425Z</time>
      </trkpt>
      <trkpt lat="43.1367145" lon="-2.804693">
        <ele>241.461</ele>
        <time>2021-04-01T09:31:54.486Z</time>
      </trkpt>
      <trkpt lat="43.1367157" lon="-2.8046943">
        <ele>241.405</ele>
        <time>2021-04-01T09:31:54.548Z</time>
      </trkpt>
      <trkpt lat="43.1367168" lon="-2.8046957">
        <ele>241.382</ele>
        <time>2021-04-01T09:31:54.609Z</time>
      </trkpt>
      <trkpt lat="43.1367179" lon="-2.8046973">
        <ele>241.302</ele>
        <time>2021-04-01T09:31:54.671Z</time>
      </trkpt>
      <trkpt lat="43.1367188" lon="-2.8046989">
        <ele>241.244</ele>
        <time>2021-04-01T09:31:54.732Z</time>
      </trkpt>
      <trkpt lat="43.1367203" lon="-2.8047">
        <ele>241.213</ele>
        <time>2021-04-01T09:31:54.794Z</time>
      </trkpt>
      <trkpt lat="43.1367213" lon="-2.8047013">
        <ele>241.124</ele>
        <time>2021-04-01T09:31:54.843Z</time>
      </trkpt>
      <trkpt lat="43.1367235" lon="-2.8047028">
        <ele>241.166</ele>
        <time>2021-04-01T09:31:54.892Z</time>
      </trkpt>
      <trkpt lat="43.1367249" lon="-2.804704">
        <ele>241.126</ele>
        <time>2021-04-01T09:31:54.941Z</time>
      </trkpt>
      <trkpt lat="43.1367258" lon="-2.8047054">
        <ele>241.05</ele>
        <time>2021-04-01T09:31:54.990Z</time>
      </trkpt>
      <trkpt lat="43.1367273" lon="-2.8047063">
        <ele>240.944</ele>
        <time>2021-04-01T09:31:55.040Z</time>
      </trkpt>
      <trkpt lat="43.1367286" lon="-2.804707">
        <ele>240.841</ele>
        <time>2021-04-01T09:31:55.089Z</time>
      </trkpt>
      <trkpt lat="43.13673" lon="-2.8047082">
        <ele>240.769</ele>
        <time>2021-04-01T09:31:55.138Z</time>
      </trkpt>
      <trkpt lat="43.1367314" lon="-2.8047092">
        <ele>240.727</ele>
        <time>2021-04-01T09:31:55.187Z</time>
      </trkpt>
      <trkpt lat="43.1367326" lon="-2.8047104">
        <ele>240.659</ele>
        <time>2021-04-01T09:31:55.236Z</time>
      </trkpt>
      <trkpt lat="43.1367343" lon="-2.8047115">
        <ele>240.582</ele>
        <time>2021-04-01T09:31:55.286Z</time>
      </trkpt>
      <trkpt lat="43.1367356" lon="-2.804713">
        <ele>240.57</ele>
        <time>2021-04-01T09:31:55.335Z</time>
      </trkpt>
      <trkpt lat="43.1367371" lon="-2.8047146">
        <ele>240.561</ele>
        <time>2021-04-01T09:31:55.384Z</time>
      </trkpt>
      <trkpt lat="43.1367384" lon="-2.8047168">
        <ele>240.532</ele>
        <time>2021-04-01T09:31:55.433Z</time>
      </trkpt>
      <trkpt lat="43.1367397" lon="-2.8047183">
        <ele>240.546</ele>
        <time>2021-04-01T09:31:55.482Z</time>
      </trkpt>
      <trkpt lat="43.1367411" lon="-2.8047196">
        <ele>240.492</ele>
        <time>2021-04-01T09:31:55.532Z</time>
      </trkpt>
      <trkpt lat="43.1367426" lon="-2.8047208">
        <ele>240.452</ele>
        <time>2021-04-01T09:31:55.581Z</time>
      </trkpt>
      <trkpt lat="43.136744" lon="-2.8047218">
        <ele>240.351</ele>
        <time>2021-04-01T09:31:55.630Z</time>
      </trkpt>
      <trkpt lat="43.1367453" lon="-2.8047232">
        <ele>240.294</ele>
        <time>2021-04-01T09:31:55.679Z</time>
      </trkpt>
      <trkpt lat="43.1367465" lon="-2.8047246">
        <ele>240.259</ele>
        <time>2021-04-01T09:31:55.729Z</time>
      </trkpt>
      <trkpt lat="43.1367476" lon="-2.8047257">
        <ele>240.184</ele>
        <time>2021-04-01T09:31:55.787Z</time>
      </trkpt>
      <trkpt lat="43.1367488" lon="-2.8047267">
        <ele>240.103</ele>
        <time>2021-04-01T09:31:55.845Z</time>
      </trkpt>
      <trkpt lat="43.1367499" lon="-2.8047279">
        <ele>240.018</ele>
        <time>2021-04-01T09:31:55.903Z</time>
      </trkpt>
      <trkpt lat="43.1367515" lon="-2.8047291">
        <ele>240.001</ele>
        <time>2021-04-01T09:31:55.961Z</time>
      </trkpt>
      <trkpt lat="43.1367527" lon="-2.8047301">
        <ele>239.941</ele>
        <time>2021-04-01T09:31:56.019Z</time>
      </trkpt>
      <trkpt lat="43.1367537" lon="-2.8047312">
        <ele>239.819</ele>
        <time>2021-04-01T09:31:56.077Z</time>
      </trkpt>
      <trkpt lat="43.136755" lon="-2.8047324">
        <ele>239.757</ele>
        <time>2021-04-01T09:31:56.135Z</time>
      </trkpt>
      <trkpt lat="43.1367562" lon="-2.8047336">
        <ele>239.726</ele>
        <time>2021-04-01T09:31:56.193Z</time>
      </trkpt>
      <trkpt lat="43.1367579" lon="-2.8047351">
        <ele>239.742</ele>
        <time>2021-04-01T09:31:56.251Z</time>
      </trkpt>
      <trkpt lat="43.1367597" lon="-2.8047365">
        <ele>239.748</ele>
        <time>2021-04-01T09:31:56.309Z</time>
      </trkpt>
      <trkpt lat="43.1367618" lon="-2.8047381">
        <ele>239.813</ele>
        <time>2021-04-01T09:31:56.367Z</time>
      </trkpt>
      <trkpt lat="43.1367637" lon="-2.8047392">
        <ele>239.813</ele>
        <time>2021-04-01T09:31:56.425Z</time>
      </trkpt>
      <trkpt lat="43.1367654" lon="-2.8047408">
        <ele>239.832</ele>
        <time>2021-04-01T09:31:56.483Z</time>
      </trkpt>
      <trkpt lat="43.1367668" lon="-2.8047421">
        <ele>239.83</ele>
        <time>2021-04-01T09:31:56.541Z</time>
      </trkpt>
      <trkpt lat="43.1367684" lon="-2.8047434">
        <ele>239.807</ele>
        <time>2021-04-01T09:31:56.599Z</time>
      </trkpt>
      <trkpt lat="43.1367699" lon="-2.8047443">
        <ele>239.776</ele>
        <time>2021-04-01T09:31:56.657Z</time>
      </trkpt>
      <trkpt lat="43.1367711" lon="-2.8047452">
        <ele>239.713</ele>
        <time>2021-04-01T09:31:56.715Z</time>
      </trkpt>
      <trkpt lat="43.1367727" lon="-2.8047467">
        <ele>239.735</ele>
        <time>2021-04-01T09:31:56.774Z</time>
      </trkpt>
      <trkpt lat="43.1367744" lon="-2.8047485">
        <ele>239.786</ele>
        <time>2021-04-01T09:31:56.829Z</time>
      </trkpt>
      <trkpt lat="43.1367759" lon="-2.8047496">
        <ele>239.799</ele>
        <time>2021-04-01T09:31:56.884Z</time>
      </trkpt>
      <trkpt lat="43.1367771" lon="-2.8047503">
        <ele>239.792</ele>
        <time>2021-04-01T09:31:56.939Z</time>
      </trkpt>
      <trkpt lat="43.1367785" lon="-2.8047515">
        <ele>239.803</ele>
        <time>2021-04-01T09:31:56.994Z</time>
      </trkpt>
      <trkpt lat="43.13678" lon="-2.8047528">
        <ele>239.815</ele>
        <time>2021-04-01T09:31:57.049Z</time>
      </trkpt>
      <trkpt lat="43.1367814" lon="-2.804754">
        <ele>239.807</ele>
        <time>2021-04-01T09:31:57.104Z</time>
      </trkpt>
      <trkpt lat="43.1367831" lon="-2.8047553">
        <ele>239.82</ele>
        <time>2021-04-01T09:31:57.159Z</time>
      </trkpt>
      <trkpt lat="43.1367849" lon="-2.8047569">
        <ele>239.895</ele>
        <time>2021-04-01T09:31:57.214Z</time>
      </trkpt>
      <trkpt lat="43.1367864" lon="-2.8047581">
        <ele>239.897</ele>
        <time>2021-04-01T09:31:57.269Z</time>
      </trkpt>
      <trkpt lat="43.136788" lon="-2.8047594">
        <ele>239.904</ele>
        <time>2021-04-01T09:31:57.324Z</time>
      </trkpt>
      <trkpt lat="43.1367897" lon="-2.804761">
        <ele>239.976</ele>
        <time>2021-04-01T09:31:57.379Z</time>
      </trkpt>
      <trkpt lat="43.1367915" lon="-2.804763">
        <ele>240.098</ele>
        <time>2021-04-01T09:31:57.434Z</time>
      </trkpt>
      <trkpt lat="43.136793" lon="-2.8047645">
        <ele>240.124</ele>
        <time>2021-04-01T09:31:57.489Z</time>
      </trkpt>
      <trkpt lat="43.1367946" lon="-2.8047658">
        <ele>240.156</ele>
        <time>2021-04-01T09:31:57.544Z</time>
      </trkpt>
      <trkpt lat="43.1367959" lon="-2.8047666">
        <ele>240.147</ele>
        <time>2021-04-01T09:31:57.599Z</time>
      </trkpt>
      <trkpt lat="43.1367972" lon="-2.8047675">
        <ele>240.127</ele>
        <time>2021-04-01T09:31:57.654Z</time>
      </trkpt>
      <trkpt lat="43.1367988" lon="-2.8047686">
        <ele>240.112</ele>
        <time>2021-04-01T09:31:57.709Z</time>
      </trkpt>
      <trkpt lat="43.1368006" lon="-2.8047698">
        <ele>240.086</ele>
        <time>2021-04-01T09:31:57.764Z</time>
      </trkpt>
      <trkpt lat="43.1368022" lon="-2.804771">
        <ele>240.091</ele>
        <time>2021-04-01T09:31:57.816Z</time>
      </trkpt>
      <trkpt lat="43.1368039" lon="-2.8047719">
        <ele>240.083</ele>
        <time>2021-04-01T09:31:57.868Z</time>
      </trkpt>
      <trkpt lat="43.1368055" lon="-2.8047728">
        <ele>240.101</ele>
        <time>2021-04-01T09:31:57.920Z</time>
      </trkpt>
      <trkpt lat="43.1368073" lon="-2.8047737">
        <ele>240.11</ele>
        <time>2021-04-01T09:31:57.972Z</time>
      </trkpt>
      <trkpt lat="43.136809" lon="-2.8047744">
        <ele>240.17</ele>
        <time>2021-04-01T09:31:58.024Z</time>
      </trkpt>
      <trkpt lat="43.1368107" lon="-2.8047751">
        <ele>240.213</ele>
        <time>2021-04-01T09:31:58.076Z</time>
      </trkpt>
      <trkpt lat="43.1368126" lon="-2.8047758">
        <ele>240.251</ele>
        <time>2021-04-01T09:31:58.128Z</time>
      </trkpt>
      <trkpt lat="43.1368146" lon="-2.8047765">
        <ele>240.31</ele>
        <time>2021-04-01T09:31:58.180Z</time>
      </trkpt>
      <trkpt lat="43.1368161" lon="-2.8047772">
        <ele>240.37</ele>
        <time>2021-04-01T09:31:58.232Z</time>
      </trkpt>
      <trkpt lat="43.1368174" lon="-2.8047779">
        <ele>240.441</ele>
        <time>2021-04-01T09:31:58.285Z</time>
      </trkpt>
      <trkpt lat="43.1368192" lon="-2.804779">
        <ele>240.528</ele>
        <time>2021-04-01T09:31:58.337Z</time>
      </trkpt>
      <trkpt lat="43.1368208" lon="-2.8047797">
        <ele>240.554</ele>
        <time>2021-04-01T09:31:58.389Z</time>
      </trkpt>
      <trkpt lat="43.1368227" lon="-2.8047805">
        <ele>240.602</ele>
        <time>2021-04-01T09:31:58.441Z</time>
      </trkpt>
      <trkpt lat="43.1368246" lon="-2.8047814">
        <ele>240.695</ele>
        <time>2021-04-01T09:31:58.493Z</time>
      </trkpt>
      <trkpt lat="43.1368263" lon="-2.8047822">
        <ele>240.784</ele>
        <time>2021-04-01T09:31:58.545Z</time>
      </trkpt>
      <trkpt lat="43.1368279" lon="-2.8047834">
        <ele>240.912</ele>
        <time>2021-04-01T09:31:58.597Z</time>
      </trkpt>
      <trkpt lat="43.1368297" lon="-2.8047843">
        <ele>240.996</ele>
        <time>2021-04-01T09:31:58.649Z</time>
      </trkpt>
      <trkpt lat="43.1368312" lon="-2.8047851">
        <ele>241.064</ele>
        <time>2021-04-01T09:31:58.701Z</time>
      </trkpt>
      <trkpt lat="43.1368329" lon="-2.8047859">
        <ele>241.143</ele>
        <time>2021-04-01T09:31:58.754Z</time>
      </trkpt>
      <trkpt lat="43.1368348" lon="-2.8047869">
        <ele>241.236</ele>
        <time>2021-04-01T09:31:58.812Z</time>
      </trkpt>
      <trkpt lat="43.1368367" lon="-2.8047873">
        <ele>241.303</ele>
        <time>2021-04-01T09:31:58.870Z</time>
      </trkpt>
      <trkpt lat="43.136838" lon="-2.8047878">
        <ele>241.314</ele>
        <time>2021-04-01T09:31:58.928Z</time>
      </trkpt>
      <trkpt lat="43.1368397" lon="-2.8047885">
        <ele>241.347</ele>
        <time>2021-04-01T09:31:58.986Z</time>
      </trkpt>
      <trkpt lat="43.1368414" lon="-2.8047895">
        <ele>241.392</ele>
        <time>2021-04-01T09:31:59.044Z</time>
      </trkpt>
      <trkpt lat="43.136843" lon="-2.8047901">
        <ele>241.414</ele>
        <time>2021-04-01T09:31:59.102Z</time>
      </trkpt>
      <trkpt lat="43.1368448" lon="-2.8047908">
        <ele>241.449</ele>
        <time>2021-04-01T09:31:59.160Z</time>
      </trkpt>
      <trkpt lat="43.1368464" lon="-2.8047915">
        <ele>241.464</ele>
        <time>2021-04-01T09:31:59.218Z</time>
      </trkpt>
      <trkpt lat="43.1368485" lon="-2.8047925">
        <ele>241.501</ele>
        <time>2021-04-01T09:31:59.276Z</time>
      </trkpt>
      <trkpt lat="43.1368508" lon="-2.8047939">
        <ele>241.519</ele>
        <time>2021-04-01T09:31:59.334Z</time>
      </trkpt>
      <trkpt lat="43.1368531" lon="-2.8047948">
        <ele>241.613</ele>
        <time>2021-04-01T09:31:59.392Z</time>
      </trkpt>
      <trkpt lat="43.1368548" lon="-2.8047952">
        <ele>241.578</ele>
        <time>2021-04-01T09:31:59.450Z</time>
      </trkpt>
      <trkpt lat="43.1368566" lon="-2.804796">
        <ele>241.607</ele>
        <time>2021-04-01T09:31:59.508Z</time>
      </trkpt>
      <trkpt lat="43.1368587" lon="-2.8047971">
        <ele>241.735</ele>
        <time>2021-04-01T09:31:59.566Z</time>
      </trkpt>
      <trkpt lat="43.1368605" lon="-2.8047979">
        <ele>241.794</ele>
        <time>2021-04-01T09:31:59.624Z</time>
      </trkpt>
      <trkpt lat="43.1368626" lon="-2.8047989">
        <ele>241.905</ele>
        <time>2021-04-01T09:31:59.682Z</time>
      </trkpt>
      <trkpt lat="43.1368643" lon="-2.8047998">
        <ele>241.93</ele>
        <time>2021-04-01T09:31:59.740Z</time>
      </trkpt>
      <trkpt lat="43.1368658" lon="-2.8048008">
        <ele>242.006</ele>
        <time>2021-04-01T09:31:59.799Z</time>
      </trkpt>
      <trkpt lat="43.1368678" lon="-2.804802">
        <ele>242.121</ele>
        <time>2021-04-01T09:31:59.854Z</time>
      </trkpt>
      <trkpt lat="43.1368696" lon="-2.8048028">
        <ele>242.191</ele>
        <time>2021-04-01T09:31:59.909Z</time>
      </trkpt>
      <trkpt lat="43.1368706" lon="-2.8048034">
        <ele>242.173</ele>
        <time>2021-04-01T09:31:59.964Z</time>
      </trkpt>
      <trkpt lat="43.136872" lon="-2.8048039">
        <ele>242.215</ele>
        <time>2021-04-01T09:32:00.019Z</time>
      </trkpt>
      <trkpt lat="43.1368743" lon="-2.8048051">
        <ele>242.332</ele>
        <time>2021-04-01T09:32:00.074Z</time>
      </trkpt>
      <trkpt lat="43.1368763" lon="-2.804806">
        <ele>242.408</ele>
        <time>2021-04-01T09:32:00.129Z</time>
      </trkpt>
      <trkpt lat="43.1368781" lon="-2.8048074">
        <ele>242.42</ele>
        <time>2021-04-01T09:32:00.184Z</time>
      </trkpt>
      <trkpt lat="43.1368795" lon="-2.8048082">
        <ele>242.395</ele>
        <time>2021-04-01T09:32:00.239Z</time>
      </trkpt>
      <trkpt lat="43.1368811" lon="-2.8048086">
        <ele>242.365</ele>
        <time>2021-04-01T09:32:00.294Z</time>
      </trkpt>
      <trkpt lat="43.1368827" lon="-2.8048094">
        <ele>242.457</ele>
        <time>2021-04-01T09:32:00.349Z</time>
      </trkpt>
      <trkpt lat="43.1368847" lon="-2.8048103">
        <ele>242.595</ele>
        <time>2021-04-01T09:32:00.404Z</time>
      </trkpt>
      <trkpt lat="43.1368864" lon="-2.8048109">
        <ele>242.582</ele>
        <time>2021-04-01T09:32:00.459Z</time>
      </trkpt>
      <trkpt lat="43.1368882" lon="-2.8048119">
        <ele>242.548</ele>
        <time>2021-04-01T09:32:00.514Z</time>
      </trkpt>
      <trkpt lat="43.1368902" lon="-2.8048126">
        <ele>242.557</ele>
        <time>2021-04-01T09:32:00.569Z</time>
      </trkpt>
      <trkpt lat="43.1368924" lon="-2.8048136">
        <ele>242.627</ele>
        <time>2021-04-01T09:32:00.624Z</time>
      </trkpt>
      <trkpt lat="43.1368943" lon="-2.8048145">
        <ele>242.741</ele>
        <time>2021-04-01T09:32:00.679Z</time>
      </trkpt>
      <trkpt lat="43.1368961" lon="-2.8048151">
        <ele>242.794</ele>
        <time>2021-04-01T09:32:00.734Z</time>
      </trkpt>
      <trkpt lat="43.1368978" lon="-2.8048154">
        <ele>242.792</ele>
        <time>2021-04-01T09:32:00.789Z</time>
      </trkpt>
      <trkpt lat="43.1368996" lon="-2.8048157">
        <ele>242.79</ele>
        <time>2021-04-01T09:32:00.844Z</time>
      </trkpt>
      <trkpt lat="43.1369016" lon="-2.8048158">
        <ele>242.841</ele>
        <time>2021-04-01T09:32:00.899Z</time>
      </trkpt>
      <trkpt lat="43.1369033" lon="-2.8048163">
        <ele>242.855</ele>
        <time>2021-04-01T09:32:00.954Z</time>
      </trkpt>
      <trkpt lat="43.1369053" lon="-2.8048166">
        <ele>242.848</ele>
        <time>2021-04-01T09:32:01.009Z</time>
      </trkpt>
      <trkpt lat="43.136907" lon="-2.8048168">
        <ele>242.861</ele>
        <time>2021-04-01T09:32:01.064Z</time>
      </trkpt>
      <trkpt lat="43.136909" lon="-2.8048173">
        <ele>242.888</ele>
        <time>2021-04-01T09:32:01.119Z</time>
      </trkpt>
      <trkpt lat="43.136911" lon="-2.8048178">
        <ele>242.946</ele>
        <time>2021-04-01T09:32:01.174Z</time>
      </trkpt>
      <trkpt lat="43.136913" lon="-2.8048182">
        <ele>242.963</ele>
        <time>2021-04-01T09:32:01.229Z</time>
      </trkpt>
      <trkpt lat="43.1369148" lon="-2.8048185">
        <ele>243.021</ele>
        <time>2021-04-01T09:32:01.284Z</time>
      </trkpt>
      <trkpt lat="43.1369168" lon="-2.8048194">
        <ele>243.048</ele>
        <time>2021-04-01T09:32:01.339Z</time>
      </trkpt>
      <trkpt lat="43.1369189" lon="-2.8048202">
        <ele>243.058</ele>
        <time>2021-04-01T09:32:01.394Z</time>
      </trkpt>
      <trkpt lat="43.1369211" lon="-2.8048212">
        <ele>243.155</ele>
        <time>2021-04-01T09:32:01.449Z</time>
      </trkpt>
      <trkpt lat="43.1369229" lon="-2.8048218">
        <ele>243.202</ele>
        <time>2021-04-01T09:32:01.504Z</time>
      </trkpt>
      <trkpt lat="43.1369248" lon="-2.8048226">
        <ele>243.306</ele>
        <time>2021-04-01T09:32:01.559Z</time>
      </trkpt>
      <trkpt lat="43.1369267" lon="-2.8048233">
        <ele>243.293</ele>
        <time>2021-04-01T09:32:01.614Z</time>
      </trkpt>
      <trkpt lat="43.1369282" lon="-2.8048238">
        <ele>243.268</ele>
        <time>2021-04-01T09:32:01.669Z</time>
      </trkpt>
      <trkpt lat="43.1369306" lon="-2.804825">
        <ele>243.396</ele>
        <time>2021-04-01T09:32:01.724Z</time>
      </trkpt>
      <trkpt lat="43.1369328" lon="-2.8048261">
        <ele>243.52</ele>
        <time>2021-04-01T09:32:01.779Z</time>
      </trkpt>
      <trkpt lat="43.1369347" lon="-2.8048272">
        <ele>243.597</ele>
        <time>2021-04-01T09:32:01.837Z</time>
      </trkpt>
      <trkpt lat="43.1369368" lon="-2.8048284">
        <ele>243.706</ele>
        <time>2021-04-01T09:32:01.895Z</time>
      </trkpt>
      <trkpt lat="43.1369386" lon="-2.8048293">
        <ele>243.824</ele>
        <time>2021-04-01T09:32:01.953Z</time>
      </trkpt>
      <trkpt lat="43.1369404" lon="-2.8048302">
        <ele>243.909</ele>
        <time>2021-04-01T09:32:02.011Z</time>
      </trkpt>
      <trkpt lat="43.1369425" lon="-2.8048312">
        <ele>244</ele>
        <time>2021-04-01T09:32:02.069Z</time>
      </trkpt>
      <trkpt lat="43.1369445" lon="-2.8048319">
        <ele>244.05</ele>
        <time>2021-04-01T09:32:02.127Z</time>
      </trkpt>
      <trkpt lat="43.1369464" lon="-2.8048325">
        <ele>244.083</ele>
        <time>2021-04-01T09:32:02.185Z</time>
      </trkpt>
      <trkpt lat="43.136948" lon="-2.8048329">
        <ele>244.012</ele>
        <time>2021-04-01T09:32:02.243Z</time>
      </trkpt>
      <trkpt lat="43.1369499" lon="-2.8048332">
        <ele>244.013</ele>
        <time>2021-04-01T09:32:02.301Z</time>
      </trkpt>
      <trkpt lat="43.1369518" lon="-2.8048337">
        <ele>244.059</ele>
        <time>2021-04-01T09:32:02.359Z</time>
      </trkpt>
      <trkpt lat="43.1369537" lon="-2.8048342">
        <ele>244.071</ele>
        <time>2021-04-01T09:32:02.417Z</time>
      </trkpt>
      <trkpt lat="43.1369556" lon="-2.8048348">
        <ele>244.058</ele>
        <time>2021-04-01T09:32:02.475Z</time>
      </trkpt>
      <trkpt lat="43.1369576" lon="-2.8048355">
        <ele>244.072</ele>
        <time>2021-04-01T09:32:02.533Z</time>
      </trkpt>
      <trkpt lat="43.1369594" lon="-2.8048361">
        <ele>244.127</ele>
        <time>2021-04-01T09:32:02.591Z</time>
      </trkpt>
      <trkpt lat="43.1369613" lon="-2.8048366">
        <ele>244.131</ele>
        <time>2021-04-01T09:32:02.649Z</time>
      </trkpt>
      <trkpt lat="43.1369633" lon="-2.8048369">
        <ele>244.169</ele>
        <time>2021-04-01T09:32:02.707Z</time>
      </trkpt>
      <trkpt lat="43.1369651" lon="-2.8048373">
        <ele>244.192</ele>
        <time>2021-04-01T09:32:02.765Z</time>
      </trkpt>
      <trkpt lat="43.1369668" lon="-2.8048379">
        <ele>244.188</ele>
        <time>2021-04-01T09:32:02.824Z</time>
      </trkpt>
      <trkpt lat="43.1369688" lon="-2.8048384">
        <ele>244.207</ele>
        <time>2021-04-01T09:32:02.875Z</time>
      </trkpt>
      <trkpt lat="43.1369706" lon="-2.8048386">
        <ele>244.235</ele>
        <time>2021-04-01T09:32:02.927Z</time>
      </trkpt>
      <trkpt lat="43.1369724" lon="-2.804839">
        <ele>244.209</ele>
        <time>2021-04-01T09:32:02.979Z</time>
      </trkpt>
      <trkpt lat="43.136974" lon="-2.8048393">
        <ele>244.231</ele>
        <time>2021-04-01T09:32:03.031Z</time>
      </trkpt>
      <trkpt lat="43.1369757" lon="-2.8048398">
        <ele>244.264</ele>
        <time>2021-04-01T09:32:03.083Z</time>
      </trkpt>
      <trkpt lat="43.1369772" lon="-2.8048401">
        <ele>244.291</ele>
        <time>2021-04-01T09:32:03.135Z</time>
      </trkpt>
      <trkpt lat="43.1369788" lon="-2.8048406">
        <ele>244.275</ele>
        <time>2021-04-01T09:32:03.187Z</time>
      </trkpt>
      <trkpt lat="43.1369807" lon="-2.8048412">
        <ele>244.265</ele>
        <time>2021-04-01T09:32:03.239Z</time>
      </trkpt>
      <trkpt lat="43.1369826" lon="-2.8048418">
        <ele>244.28</ele>
        <time>2021-04-01T09:32:03.291Z</time>
      </trkpt>
      <trkpt lat="43.1369847" lon="-2.8048423">
        <ele>244.301</ele>
        <time>2021-04-01T09:32:03.343Z</time>
      </trkpt>
      <trkpt lat="43.1369866" lon="-2.8048428">
        <ele>244.299</ele>
        <time>2021-04-01T09:32:03.395Z</time>
      </trkpt>
      <trkpt lat="43.1369885" lon="-2.8048432">
        <ele>244.309</ele>
        <time>2021-04-01T09:32:03.447Z</time>
      </trkpt>
      <trkpt lat="43.13699" lon="-2.8048436">
        <ele>244.276</ele>
        <time>2021-04-01T09:32:03.499Z</time>
      </trkpt>
      <trkpt lat="43.1369919" lon="-2.804844">
        <ele>244.271</ele>
        <time>2021-04-01T09:32:03.551Z</time>
      </trkpt>
      <trkpt lat="43.136994" lon="-2.8048445">
        <ele>244.269</ele>
        <time>2021-04-01T09:32:03.603Z</time>
      </trkpt>
      <trkpt lat="43.1369961" lon="-2.804845">
        <ele>244.309</ele>
        <time>2021-04-01T09:32:03.655Z</time>
      </trkpt>
      <trkpt lat="43.1369975" lon="-2.8048449">
        <ele>244.278</ele>
        <time>2021-04-01T09:32:03.707Z</time>
      </trkpt>
      <trkpt lat="43.1369993" lon="-2.8048455">
        <ele>244.295</ele>
        <time>2021-04-01T09:32:03.759Z</time>
      </trkpt>
      <trkpt lat="43.1370012" lon="-2.8048458">
        <ele>244.306</ele>
        <time>2021-04-01T09:32:03.814Z</time>
      </trkpt>
      <trkpt lat="43.1370031" lon="-2.8048462">
        <ele>244.295</ele>
        <time>2021-04-01T09:32:03.869Z</time>
      </trkpt>
      <trkpt lat="43.1370049" lon="-2.8048466">
        <ele>244.303</ele>
        <time>2021-04-01T09:32:03.924Z</time>
      </trkpt>
      <trkpt lat="43.1370069" lon="-2.8048471">
        <ele>244.317</ele>
        <time>2021-04-01T09:32:03.979Z</time>
      </trkpt>
      <trkpt lat="43.1370088" lon="-2.8048475">
        <ele>244.312</ele>
        <time>2021-04-01T09:32:04.034Z</time>
      </trkpt>
      <trkpt lat="43.1370106" lon="-2.8048476">
        <ele>244.308</ele>
        <time>2021-04-01T09:32:04.089Z</time>
      </trkpt>
      <trkpt lat="43.1370123" lon="-2.8048478">
        <ele>244.306</ele>
        <time>2021-04-01T09:32:04.144Z</time>
      </trkpt>
      <trkpt lat="43.1370141" lon="-2.8048479">
        <ele>244.308</ele>
        <time>2021-04-01T09:32:04.199Z</time>
      </trkpt>
      <trkpt lat="43.1370161" lon="-2.8048482">
        <ele>244.301</ele>
        <time>2021-04-01T09:32:04.254Z</time>
      </trkpt>
      <trkpt lat="43.137018" lon="-2.8048484">
        <ele>244.32</ele>
        <time>2021-04-01T09:32:04.309Z</time>
      </trkpt>
      <trkpt lat="43.1370196" lon="-2.8048489">
        <ele>244.339</ele>
        <time>2021-04-01T09:32:04.364Z</time>
      </trkpt>
      <trkpt lat="43.1370215" lon="-2.804849">
        <ele>244.358</ele>
        <time>2021-04-01T09:32:04.419Z</time>
      </trkpt>
      <trkpt lat="43.1370233" lon="-2.8048493">
        <ele>244.353</ele>
        <time>2021-04-01T09:32:04.474Z</time>
      </trkpt>
      <trkpt lat="43.1370251" lon="-2.8048499">
        <ele>244.365</ele>
        <time>2021-04-01T09:32:04.529Z</time>
      </trkpt>
      <trkpt lat="43.1370268" lon="-2.8048503">
        <ele>244.341</ele>
        <time>2021-04-01T09:32:04.584Z</time>
      </trkpt>
      <trkpt lat="43.1370286" lon="-2.8048507">
        <ele>244.337</ele>
        <time>2021-04-01T09:32:04.639Z</time>
      </trkpt>
      <trkpt lat="43.1370304" lon="-2.8048509">
        <ele>244.34</ele>
        <time>2021-04-01T09:32:04.694Z</time>
      </trkpt>
      <trkpt lat="43.1370323" lon="-2.8048511">
        <ele>244.333</ele>
        <time>2021-04-01T09:32:04.749Z</time>
      </trkpt>
      <trkpt lat="43.1370341" lon="-2.8048515">
        <ele>244.343</ele>
        <time>2021-04-01T09:32:04.804Z</time>
      </trkpt>
      <trkpt lat="43.1370359" lon="-2.8048518">
        <ele>244.336</ele>
        <time>2021-04-01T09:32:04.862Z</time>
      </trkpt>
      <trkpt lat="43.1370377" lon="-2.8048521">
        <ele>244.362</ele>
        <time>2021-04-01T09:32:04.920Z</time>
      </trkpt>
      <trkpt lat="43.1370395" lon="-2.8048526">
        <ele>244.366</ele>
        <time>2021-04-01T09:32:04.978Z</time>
      </trkpt>
      <trkpt lat="43.1370413" lon="-2.8048529">
        <ele>244.384</ele>
        <time>2021-04-01T09:32:05.036Z</time>
      </trkpt>
      <trkpt lat="43.1370429" lon="-2.8048531">
        <ele>244.384</ele>
        <time>2021-04-01T09:32:05.095Z</time>
      </trkpt>
      <trkpt lat="43.1370447" lon="-2.8048533">
        <ele>244.373</ele>
        <time>2021-04-01T09:32:05.153Z</time>
      </trkpt>
      <trkpt lat="43.1370463" lon="-2.8048533">
        <ele>244.381</ele>
        <time>2021-04-01T09:32:05.211Z</time>
      </trkpt>
      <trkpt lat="43.1370479" lon="-2.8048536">
        <ele>244.366</ele>
        <time>2021-04-01T09:32:05.269Z</time>
      </trkpt>
      <trkpt lat="43.1370497" lon="-2.8048536">
        <ele>244.394</ele>
        <time>2021-04-01T09:32:05.328Z</time>
      </trkpt>
      <trkpt lat="43.1370515" lon="-2.8048538">
        <ele>244.397</ele>
        <time>2021-04-01T09:32:05.386Z</time>
      </trkpt>
      <trkpt lat="43.137053" lon="-2.8048541">
        <ele>244.403</ele>
        <time>2021-04-01T09:32:05.444Z</time>
      </trkpt>
      <trkpt lat="43.137055" lon="-2.8048544">
        <ele>244.421</ele>
        <time>2021-04-01T09:32:05.502Z</time>
      </trkpt>
      <trkpt lat="43.1370568" lon="-2.8048548">
        <ele>244.419</ele>
        <time>2021-04-01T09:32:05.561Z</time>
      </trkpt>
      <trkpt lat="43.1370588" lon="-2.8048551">
        <ele>244.412</ele>
        <time>2021-04-01T09:32:05.619Z</time>
      </trkpt>
      <trkpt lat="43.1370605" lon="-2.8048554">
        <ele>244.387</ele>
        <time>2021-04-01T09:32:05.677Z</time>
      </trkpt>
      <trkpt lat="43.1370623" lon="-2.8048559">
        <ele>244.404</ele>
        <time>2021-04-01T09:32:05.735Z</time>
      </trkpt>
      <trkpt lat="43.1370641" lon="-2.8048564">
        <ele>244.403</ele>
        <time>2021-04-01T09:32:05.794Z</time>
      </trkpt>
      <trkpt lat="43.1370658" lon="-2.8048566">
        <ele>244.382</ele>
        <time>2021-04-01T09:32:05.846Z</time>
      </trkpt>
      <trkpt lat="43.1370676" lon="-2.804857">
        <ele>244.371</ele>
        <time>2021-04-01T09:32:05.898Z</time>
      </trkpt>
      <trkpt lat="43.1370694" lon="-2.8048573">
        <ele>244.39</ele>
        <time>2021-04-01T09:32:05.950Z</time>
      </trkpt>
      <trkpt lat="43.137071" lon="-2.8048571">
        <ele>244.437</ele>
        <time>2021-04-01T09:32:06.002Z</time>
      </trkpt>
      <trkpt lat="43.1370728" lon="-2.8048574">
        <ele>244.462</ele>
        <time>2021-04-01T09:32:06.054Z</time>
      </trkpt>
      <trkpt lat="43.1370743" lon="-2.8048575">
        <ele>244.461</ele>
        <time>2021-04-01T09:32:06.106Z</time>
      </trkpt>
      <trkpt lat="43.1370761" lon="-2.8048578">
        <ele>244.463</ele>
        <time>2021-04-01T09:32:06.158Z</time>
      </trkpt>
      <trkpt lat="43.1370778" lon="-2.8048578">
        <ele>244.483</ele>
        <time>2021-04-01T09:32:06.210Z</time>
      </trkpt>
      <trkpt lat="43.13708" lon="-2.8048583">
        <ele>244.524</ele>
        <time>2021-04-01T09:32:06.262Z</time>
      </trkpt>
      <trkpt lat="43.137082" lon="-2.8048589">
        <ele>244.542</ele>
        <time>2021-04-01T09:32:06.315Z</time>
      </trkpt>
      <trkpt lat="43.137084" lon="-2.8048595">
        <ele>244.592</ele>
        <time>2021-04-01T09:32:06.367Z</time>
      </trkpt>
      <trkpt lat="43.1370856" lon="-2.8048598">
        <ele>244.617</ele>
        <time>2021-04-01T09:32:06.419Z</time>
      </trkpt>
      <trkpt lat="43.1370873" lon="-2.8048601">
        <ele>244.612</ele>
        <time>2021-04-01T09:32:06.471Z</time>
      </trkpt>
      <trkpt lat="43.137089" lon="-2.8048602">
        <ele>244.616</ele>
        <time>2021-04-01T09:32:06.523Z</time>
      </trkpt>
      <trkpt lat="43.1370908" lon="-2.8048603">
        <ele>244.674</ele>
        <time>2021-04-01T09:32:06.575Z</time>
      </trkpt>
      <trkpt lat="43.1370928" lon="-2.8048605">
        <ele>244.702</ele>
        <time>2021-04-01T09:32:06.627Z</time>
      </trkpt>
      <trkpt lat="43.1370943" lon="-2.8048604">
        <ele>244.738</ele>
        <time>2021-04-01T09:32:06.679Z</time>
      </trkpt>
      <trkpt lat="43.1370961" lon="-2.8048607">
        <ele>244.765</ele>
        <time>2021-04-01T09:32:06.731Z</time>
      </trkpt>
      <trkpt lat="43.1370978" lon="-2.8048613">
        <ele>244.792</ele>
        <time>2021-04-01T09:32:06.784Z</time>
      </trkpt>
      <trkpt lat="43.1370999" lon="-2.8048622">
        <ele>244.804</ele>
        <time>2021-04-01T09:32:06.839Z</time>
      </trkpt>
      <trkpt lat="43.1371015" lon="-2.8048625">
        <ele>244.798</ele>
        <time>2021-04-01T09:32:06.894Z</time>
      </trkpt>
      <trkpt lat="43.1371031" lon="-2.8048628">
        <ele>244.796</ele>
        <time>2021-04-01T09:32:06.949Z</time>
      </trkpt>
      <trkpt lat="43.1371045" lon="-2.8048632">
        <ele>244.795</ele>
        <time>2021-04-01T09:32:07.004Z</time>
      </trkpt>
      <trkpt lat="43.137106" lon="-2.8048637">
        <ele>244.826</ele>
        <time>2021-04-01T09:32:07.059Z</time>
      </trkpt>
      <trkpt lat="43.1371077" lon="-2.8048645">
        <ele>244.868</ele>
        <time>2021-04-01T09:32:07.114Z</time>
      </trkpt>
      <trkpt lat="43.1371096" lon="-2.8048649">
        <ele>244.883</ele>
        <time>2021-04-01T09:32:07.169Z</time>
      </trkpt>
      <trkpt lat="43.1371117" lon="-2.8048655">
        <ele>244.944</ele>
        <time>2021-04-01T09:32:07.224Z</time>
      </trkpt>
      <trkpt lat="43.1371135" lon="-2.804866">
        <ele>244.978</ele>
        <time>2021-04-01T09:32:07.279Z</time>
      </trkpt>
      <trkpt lat="43.1371154" lon="-2.8048663">
        <ele>245.022</ele>
        <time>2021-04-01T09:32:07.334Z</time>
      </trkpt>
      <trkpt lat="43.1371173" lon="-2.8048668">
        <ele>245.046</ele>
        <time>2021-04-01T09:32:07.389Z</time>
      </trkpt>
      <trkpt lat="43.1371191" lon="-2.8048673">
        <ele>245.049</ele>
        <time>2021-04-01T09:32:07.444Z</time>
      </trkpt>
      <trkpt lat="43.1371208" lon="-2.8048677">
        <ele>245.048</ele>
        <time>2021-04-01T09:32:07.499Z</time>
      </trkpt>
      <trkpt lat="43.1371227" lon="-2.8048681">
        <ele>245.047</ele>
        <time>2021-04-01T09:32:07.554Z</time>
      </trkpt>
      <trkpt lat="43.1371243" lon="-2.8048686">
        <ele>245.041</ele>
        <time>2021-04-01T09:32:07.609Z</time>
      </trkpt>
      <trkpt lat="43.1371257" lon="-2.8048688">
        <ele>245.027</ele>
        <time>2021-04-01T09:32:07.664Z</time>
      </trkpt>
      <trkpt lat="43.1371272" lon="-2.8048695">
        <ele>244.983</ele>
        <time>2021-04-01T09:32:07.719Z</time>
      </trkpt>
      <trkpt lat="43.1371289" lon="-2.80487">
        <ele>244.992</ele>
        <time>2021-04-01T09:32:07.774Z</time>
      </trkpt>
      <trkpt lat="43.1371307" lon="-2.8048705">
        <ele>244.999</ele>
        <time>2021-04-01T09:32:07.829Z</time>
      </trkpt>
      <trkpt lat="43.1371325" lon="-2.8048711">
        <ele>245.014</ele>
        <time>2021-04-01T09:32:07.884Z</time>
      </trkpt>
      <trkpt lat="43.1371344" lon="-2.8048716">
        <ele>245.033</ele>
        <time>2021-04-01T09:32:07.939Z</time>
      </trkpt>
      <trkpt lat="43.1371363" lon="-2.804872">
        <ele>245.052</ele>
        <time>2021-04-01T09:32:07.994Z</time>
      </trkpt>
      <trkpt lat="43.1371383" lon="-2.8048726">
        <ele>245.083</ele>
        <time>2021-04-01T09:32:08.049Z</time>
      </trkpt>
      <trkpt lat="43.1371403" lon="-2.8048733">
        <ele>245.13</ele>
        <time>2021-04-01T09:32:08.104Z</time>
      </trkpt>
      <trkpt lat="43.1371423" lon="-2.8048739">
        <ele>245.146</ele>
        <time>2021-04-01T09:32:08.159Z</time>
      </trkpt>
      <trkpt lat="43.1371442" lon="-2.8048744">
        <ele>245.153</ele>
        <time>2021-04-01T09:32:08.214Z</time>
      </trkpt>
      <trkpt lat="43.1371459" lon="-2.8048749">
        <ele>245.18</ele>
        <time>2021-04-01T09:32:08.269Z</time>
      </trkpt>
      <trkpt lat="43.1371472" lon="-2.8048755">
        <ele>245.142</ele>
        <time>2021-04-01T09:32:08.324Z</time>
      </trkpt>
      <trkpt lat="43.137149" lon="-2.8048759">
        <ele>245.146</ele>
        <time>2021-04-01T09:32:08.379Z</time>
      </trkpt>
      <trkpt lat="43.1371509" lon="-2.8048762">
        <ele>245.172</ele>
        <time>2021-04-01T09:32:08.434Z</time>
      </trkpt>
      <trkpt lat="43.1371526" lon="-2.8048764">
        <ele>245.192</ele>
        <time>2021-04-01T09:32:08.489Z</time>
      </trkpt>
      <trkpt lat="43.1371544" lon="-2.8048769">
        <ele>245.194</ele>
        <time>2021-04-01T09:32:08.544Z</time>
      </trkpt>
      <trkpt lat="43.1371561" lon="-2.8048771">
        <ele>245.2</ele>
        <time>2021-04-01T09:32:08.599Z</time>
      </trkpt>
      <trkpt lat="43.1371579" lon="-2.8048777">
        <ele>245.194</ele>
        <time>2021-04-01T09:32:08.654Z</time>
      </trkpt>
      <trkpt lat="43.1371597" lon="-2.804878">
        <ele>245.186</ele>
        <time>2021-04-01T09:32:08.709Z</time>
      </trkpt>
      <trkpt lat="43.1371615" lon="-2.8048783">
        <ele>245.206</ele>
        <time>2021-04-01T09:32:08.764Z</time>
      </trkpt>
      <trkpt lat="43.1371633" lon="-2.8048788">
        <ele>245.249</ele>
        <time>2021-04-01T09:32:08.819Z</time>
      </trkpt>
      <trkpt lat="43.1371652" lon="-2.8048791">
        <ele>245.291</ele>
        <time>2021-04-01T09:32:08.874Z</time>
      </trkpt>
      <trkpt lat="43.137167" lon="-2.8048794">
        <ele>245.273</ele>
        <time>2021-04-01T09:32:08.929Z</time>
      </trkpt>
      <trkpt lat="43.1371688" lon="-2.8048797">
        <ele>245.276</ele>
        <time>2021-04-01T09:32:08.984Z</time>
      </trkpt>
      <trkpt lat="43.1371704" lon="-2.8048801">
        <ele>245.293</ele>
        <time>2021-04-01T09:32:09.039Z</time>
      </trkpt>
      <trkpt lat="43.1371724" lon="-2.8048806">
        <ele>245.298</ele>
        <time>2021-04-01T09:32:09.094Z</time>
      </trkpt>
      <trkpt lat="43.137174" lon="-2.804881">
        <ele>245.322</ele>
        <time>2021-04-01T09:32:09.149Z</time>
      </trkpt>
      <trkpt lat="43.1371754" lon="-2.8048816">
        <ele>245.318</ele>
        <time>2021-04-01T09:32:09.204Z</time>
      </trkpt>
      <trkpt lat="43.137177" lon="-2.8048819">
        <ele>245.346</ele>
        <time>2021-04-01T09:32:09.259Z</time>
      </trkpt>
      <trkpt lat="43.1371786" lon="-2.8048823">
        <ele>245.356</ele>
        <time>2021-04-01T09:32:09.314Z</time>
      </trkpt>
      <trkpt lat="43.1371803" lon="-2.8048827">
        <ele>245.385</ele>
        <time>2021-04-01T09:32:09.369Z</time>
      </trkpt>
      <trkpt lat="43.137182" lon="-2.804883">
        <ele>245.397</ele>
        <time>2021-04-01T09:32:09.424Z</time>
      </trkpt>
      <trkpt lat="43.1371838" lon="-2.8048835">
        <ele>245.398</ele>
        <time>2021-04-01T09:32:09.479Z</time>
      </trkpt>
      <trkpt lat="43.1371857" lon="-2.8048842">
        <ele>245.426</ele>
        <time>2021-04-01T09:32:09.534Z</time>
      </trkpt>
      <trkpt lat="43.1371876" lon="-2.8048844">
        <ele>245.462</ele>
        <time>2021-04-01T09:32:09.589Z</time>
      </trkpt>
      <trkpt lat="43.1371895" lon="-2.8048847">
        <ele>245.475</ele>
        <time>2021-04-01T09:32:09.644Z</time>
      </trkpt>
      <trkpt lat="43.1371911" lon="-2.804885">
        <ele>245.506</ele>
        <time>2021-04-01T09:32:09.699Z</time>
      </trkpt>
      <trkpt lat="43.1371928" lon="-2.8048857">
        <ele>245.499</ele>
        <time>2021-04-01T09:32:09.754Z</time>
      </trkpt>
      <trkpt lat="43.1371945" lon="-2.8048863">
        <ele>245.522</ele>
        <time>2021-04-01T09:32:09.809Z</time>
      </trkpt>
      <trkpt lat="43.1371963" lon="-2.8048868">
        <ele>245.54</ele>
        <time>2021-04-01T09:32:09.864Z</time>
      </trkpt>
      <trkpt lat="43.1371982" lon="-2.8048872">
        <ele>245.57</ele>
        <time>2021-04-01T09:32:09.919Z</time>
      </trkpt>
      <trkpt lat="43.1372001" lon="-2.8048873">
        <ele>245.613</ele>
        <time>2021-04-01T09:32:09.974Z</time>
      </trkpt>
      <trkpt lat="43.1372017" lon="-2.8048877">
        <ele>245.636</ele>
        <time>2021-04-01T09:32:10.029Z</time>
      </trkpt>
      <trkpt lat="43.1372033" lon="-2.8048879">
        <ele>245.624</ele>
        <time>2021-04-01T09:32:10.084Z</time>
      </trkpt>
      <trkpt lat="43.137205" lon="-2.8048885">
        <ele>245.608</ele>
        <time>2021-04-01T09:32:10.139Z</time>
      </trkpt>
      <trkpt lat="43.137207" lon="-2.8048892">
        <ele>245.625</ele>
        <time>2021-04-01T09:32:10.194Z</time>
      </trkpt>
      <trkpt lat="43.1372088" lon="-2.8048898">
        <ele>245.635</ele>
        <time>2021-04-01T09:32:10.249Z</time>
      </trkpt>
      <trkpt lat="43.1372105" lon="-2.8048904">
        <ele>245.649</ele>
        <time>2021-04-01T09:32:10.304Z</time>
      </trkpt>
      <trkpt lat="43.1372118" lon="-2.8048908">
        <ele>245.631</ele>
        <time>2021-04-01T09:32:10.359Z</time>
      </trkpt>
      <trkpt lat="43.1372135" lon="-2.8048913">
        <ele>245.647</ele>
        <time>2021-04-01T09:32:10.414Z</time>
      </trkpt>
      <trkpt lat="43.1372152" lon="-2.8048919">
        <ele>245.66</ele>
        <time>2021-04-01T09:32:10.469Z</time>
      </trkpt>
      <trkpt lat="43.1372166" lon="-2.8048924">
        <ele>245.664</ele>
        <time>2021-04-01T09:32:10.524Z</time>
      </trkpt>
      <trkpt lat="43.137218" lon="-2.8048929">
        <ele>245.642</ele>
        <time>2021-04-01T09:32:10.579Z</time>
      </trkpt>
      <trkpt lat="43.1372198" lon="-2.8048933">
        <ele>245.63</ele>
        <time>2021-04-01T09:32:10.634Z</time>
      </trkpt>
      <trkpt lat="43.1372214" lon="-2.8048938">
        <ele>245.604</ele>
        <time>2021-04-01T09:32:10.689Z</time>
      </trkpt>
      <trkpt lat="43.1372233" lon="-2.8048944">
        <ele>245.592</ele>
        <time>2021-04-01T09:32:10.744Z</time>
      </trkpt>
      <trkpt lat="43.1372253" lon="-2.8048948">
        <ele>245.609</ele>
        <time>2021-04-01T09:32:10.799Z</time>
      </trkpt>
      <trkpt lat="43.1372271" lon="-2.8048951">
        <ele>245.637</ele>
        <time>2021-04-01T09:32:10.854Z</time>
      </trkpt>
      <trkpt lat="43.137229" lon="-2.8048952">
        <ele>245.722</ele>
        <time>2021-04-01T09:32:10.909Z</time>
      </trkpt>
      <trkpt lat="43.1372311" lon="-2.8048956">
        <ele>245.766</ele>
        <time>2021-04-01T09:32:10.964Z</time>
      </trkpt>
      <trkpt lat="43.1372329" lon="-2.8048963">
        <ele>245.743</ele>
        <time>2021-04-01T09:32:11.019Z</time>
      </trkpt>
      <trkpt lat="43.1372345" lon="-2.8048966">
        <ele>245.744</ele>
        <time>2021-04-01T09:32:11.074Z</time>
      </trkpt>
      <trkpt lat="43.1372363" lon="-2.804897">
        <ele>245.779</ele>
        <time>2021-04-01T09:32:11.129Z</time>
      </trkpt>
      <trkpt lat="43.1372384" lon="-2.8048977">
        <ele>245.804</ele>
        <time>2021-04-01T09:32:11.184Z</time>
      </trkpt>
      <trkpt lat="43.1372402" lon="-2.804898">
        <ele>245.844</ele>
        <time>2021-04-01T09:32:11.239Z</time>
      </trkpt>
      <trkpt lat="43.1372422" lon="-2.8048986">
        <ele>245.863</ele>
        <time>2021-04-01T09:32:11.294Z</time>
      </trkpt>
      <trkpt lat="43.1372443" lon="-2.804899">
        <ele>245.906</ele>
        <time>2021-04-01T09:32:11.349Z</time>
      </trkpt>
      <trkpt lat="43.1372461" lon="-2.8048994">
        <ele>245.939</ele>
        <time>2021-04-01T09:32:11.404Z</time>
      </trkpt>
      <trkpt lat="43.1372481" lon="-2.8049">
        <ele>245.946</ele>
        <time>2021-04-01T09:32:11.459Z</time>
      </trkpt>
      <trkpt lat="43.1372497" lon="-2.8049007">
        <ele>245.969</ele>
        <time>2021-04-01T09:32:11.514Z</time>
      </trkpt>
      <trkpt lat="43.1372517" lon="-2.8049013">
        <ele>246.017</ele>
        <time>2021-04-01T09:32:11.569Z</time>
      </trkpt>
      <trkpt lat="43.1372527" lon="-2.8049015">
        <ele>245.926</ele>
        <time>2021-04-01T09:32:11.624Z</time>
      </trkpt>
      <trkpt lat="43.137254" lon="-2.8049016">
        <ele>245.934</ele>
        <time>2021-04-01T09:32:11.679Z</time>
      </trkpt>
      <trkpt lat="43.137256" lon="-2.8049024">
        <ele>246.007</ele>
        <time>2021-04-01T09:32:11.734Z</time>
      </trkpt>
      <trkpt lat="43.1372578" lon="-2.8049028">
        <ele>246.016</ele>
        <time>2021-04-01T09:32:11.789Z</time>
      </trkpt>
      <trkpt lat="43.1372597" lon="-2.804903">
        <ele>246.029</ele>
        <time>2021-04-01T09:32:11.841Z</time>
      </trkpt>
      <trkpt lat="43.1372616" lon="-2.8049036">
        <ele>246.054</ele>
        <time>2021-04-01T09:32:11.893Z</time>
      </trkpt>
      <trkpt lat="43.1372632" lon="-2.8049039">
        <ele>246.043</ele>
        <time>2021-04-01T09:32:11.945Z</time>
      </trkpt>
      <trkpt lat="43.1372649" lon="-2.8049043">
        <ele>246.054</ele>
        <time>2021-04-01T09:32:11.997Z</time>
      </trkpt>
      <trkpt lat="43.1372666" lon="-2.8049049">
        <ele>246.071</ele>
        <time>2021-04-01T09:32:12.049Z</time>
      </trkpt>
      <trkpt lat="43.1372685" lon="-2.8049052">
        <ele>246.085</ele>
        <time>2021-04-01T09:32:12.101Z</time>
      </trkpt>
      <trkpt lat="43.1372707" lon="-2.804906">
        <ele>246.083</ele>
        <time>2021-04-01T09:32:12.153Z</time>
      </trkpt>
      <trkpt lat="43.1372724" lon="-2.8049063">
        <ele>246.098</ele>
        <time>2021-04-01T09:32:12.205Z</time>
      </trkpt>
      <trkpt lat="43.1372741" lon="-2.8049065">
        <ele>246.126</ele>
        <time>2021-04-01T09:32:12.257Z</time>
      </trkpt>
      <trkpt lat="43.1372761" lon="-2.8049069">
        <ele>246.138</ele>
        <time>2021-04-01T09:32:12.310Z</time>
      </trkpt>
      <trkpt lat="43.1372781" lon="-2.8049078">
        <ele>246.143</ele>
        <time>2021-04-01T09:32:12.362Z</time>
      </trkpt>
      <trkpt lat="43.1372799" lon="-2.8049086">
        <ele>246.111</ele>
        <time>2021-04-01T09:32:12.414Z</time>
      </trkpt>
      <trkpt lat="43.1372816" lon="-2.8049089">
        <ele>246.157</ele>
        <time>2021-04-01T09:32:12.466Z</time>
      </trkpt>
      <trkpt lat="43.1372833" lon="-2.8049095">
        <ele>246.157</ele>
        <time>2021-04-01T09:32:12.518Z</time>
      </trkpt>
      <trkpt lat="43.137285" lon="-2.8049101">
        <ele>246.163</ele>
        <time>2021-04-01T09:32:12.570Z</time>
      </trkpt>
      <trkpt lat="43.1372866" lon="-2.8049109">
        <ele>246.186</ele>
        <time>2021-04-01T09:32:12.622Z</time>
      </trkpt>
      <trkpt lat="43.1372881" lon="-2.8049114">
        <ele>246.153</ele>
        <time>2021-04-01T09:32:12.674Z</time>
      </trkpt>
      <trkpt lat="43.1372894" lon="-2.804912">
        <ele>246.115</ele>
        <time>2021-04-01T09:32:12.726Z</time>
      </trkpt>
      <trkpt lat="43.1372911" lon="-2.8049127">
        <ele>246.125</ele>
        <time>2021-04-01T09:32:12.779Z</time>
      </trkpt>
      <trkpt lat="43.1372929" lon="-2.8049133">
        <ele>246.144</ele>
        <time>2021-04-01T09:32:12.837Z</time>
      </trkpt>
      <trkpt lat="43.1372949" lon="-2.8049137">
        <ele>246.191</ele>
        <time>2021-04-01T09:32:12.895Z</time>
      </trkpt>
      <trkpt lat="43.1372971" lon="-2.8049141">
        <ele>246.217</ele>
        <time>2021-04-01T09:32:12.953Z</time>
      </trkpt>
      <trkpt lat="43.1372989" lon="-2.8049147">
        <ele>246.233</ele>
        <time>2021-04-01T09:32:13.011Z</time>
      </trkpt>
      <trkpt lat="43.1373006" lon="-2.8049149">
        <ele>246.228</ele>
        <time>2021-04-01T09:32:13.070Z</time>
      </trkpt>
      <trkpt lat="43.1373021" lon="-2.8049154">
        <ele>246.23</ele>
        <time>2021-04-01T09:32:13.128Z</time>
      </trkpt>
      <trkpt lat="43.1373041" lon="-2.8049159">
        <ele>246.259</ele>
        <time>2021-04-01T09:32:13.186Z</time>
      </trkpt>
      <trkpt lat="43.1373059" lon="-2.8049162">
        <ele>246.287</ele>
        <time>2021-04-01T09:32:13.244Z</time>
      </trkpt>
      <trkpt lat="43.1373073" lon="-2.8049169">
        <ele>246.285</ele>
        <time>2021-04-01T09:32:13.303Z</time>
      </trkpt>
      <trkpt lat="43.1373092" lon="-2.8049176">
        <ele>246.313</ele>
        <time>2021-04-01T09:32:13.361Z</time>
      </trkpt>
      <trkpt lat="43.1373115" lon="-2.8049182">
        <ele>246.404</ele>
        <time>2021-04-01T09:32:13.419Z</time>
      </trkpt>
      <trkpt lat="43.1373135" lon="-2.8049189">
        <ele>246.412</ele>
        <time>2021-04-01T09:32:13.477Z</time>
      </trkpt>
      <trkpt lat="43.1373158" lon="-2.8049196">
        <ele>246.464</ele>
        <time>2021-04-01T09:32:13.536Z</time>
      </trkpt>
      <trkpt lat="43.1373178" lon="-2.8049202">
        <ele>246.53</ele>
        <time>2021-04-01T09:32:13.594Z</time>
      </trkpt>
      <trkpt lat="43.13732" lon="-2.8049208">
        <ele>246.586</ele>
        <time>2021-04-01T09:32:13.652Z</time>
      </trkpt>
      <trkpt lat="43.1373217" lon="-2.8049214">
        <ele>246.56</ele>
        <time>2021-04-01T09:32:13.710Z</time>
      </trkpt>
      <trkpt lat="43.1373237" lon="-2.8049223">
        <ele>246.611</ele>
        <time>2021-04-01T09:32:13.769Z</time>
      </trkpt>
      <trkpt lat="43.1373255" lon="-2.8049229">
        <ele>246.661</ele>
        <time>2021-04-01T09:32:13.824Z</time>
      </trkpt>
      <trkpt lat="43.1373271" lon="-2.8049234">
        <ele>246.715</ele>
        <time>2021-04-01T09:32:13.879Z</time>
      </trkpt>
      <trkpt lat="43.1373287" lon="-2.8049239">
        <ele>246.714</ele>
        <time>2021-04-01T09:32:13.934Z</time>
      </trkpt>
      <trkpt lat="43.1373303" lon="-2.8049241">
        <ele>246.74</ele>
        <time>2021-04-01T09:32:13.989Z</time>
      </trkpt>
      <trkpt lat="43.1373325" lon="-2.8049247">
        <ele>246.781</ele>
        <time>2021-04-01T09:32:14.044Z</time>
      </trkpt>
      <trkpt lat="43.1373343" lon="-2.8049252">
        <ele>246.771</ele>
        <time>2021-04-01T09:32:14.099Z</time>
      </trkpt>
      <trkpt lat="43.1373365" lon="-2.8049255">
        <ele>246.814</ele>
        <time>2021-04-01T09:32:14.154Z</time>
      </trkpt>
      <trkpt lat="43.1373384" lon="-2.804926">
        <ele>246.874</ele>
        <time>2021-04-01T09:32:14.209Z</time>
      </trkpt>
      <trkpt lat="43.1373399" lon="-2.8049263">
        <ele>246.947</ele>
        <time>2021-04-01T09:32:14.264Z</time>
      </trkpt>
      <trkpt lat="43.1373416" lon="-2.8049267">
        <ele>246.974</ele>
        <time>2021-04-01T09:32:14.319Z</time>
      </trkpt>
      <trkpt lat="43.1373433" lon="-2.8049274">
        <ele>247.005</ele>
        <time>2021-04-01T09:32:14.374Z</time>
      </trkpt>
      <trkpt lat="43.1373451" lon="-2.804928">
        <ele>247.068</ele>
        <time>2021-04-01T09:32:14.429Z</time>
      </trkpt>
      <trkpt lat="43.137347" lon="-2.8049288">
        <ele>247.098</ele>
        <time>2021-04-01T09:32:14.484Z</time>
      </trkpt>
      <trkpt lat="43.1373491" lon="-2.8049295">
        <ele>247.132</ele>
        <time>2021-04-01T09:32:14.539Z</time>
      </trkpt>
      <trkpt lat="43.1373509" lon="-2.8049296">
        <ele>247.107</ele>
        <time>2021-04-01T09:32:14.594Z</time>
      </trkpt>
      <trkpt lat="43.1373531" lon="-2.80493">
        <ele>247.168</ele>
        <time>2021-04-01T09:32:14.649Z</time>
      </trkpt>
      <trkpt lat="43.1373553" lon="-2.804931">
        <ele>247.175</ele>
        <time>2021-04-01T09:32:14.704Z</time>
      </trkpt>
      <trkpt lat="43.1373573" lon="-2.8049317">
        <ele>247.155</ele>
        <time>2021-04-01T09:32:14.759Z</time>
      </trkpt>
      <trkpt lat="43.1373593" lon="-2.8049324">
        <ele>247.166</ele>
        <time>2021-04-01T09:32:14.814Z</time>
      </trkpt>
      <trkpt lat="43.1373615" lon="-2.8049331">
        <ele>247.178</ele>
        <time>2021-04-01T09:32:14.869Z</time>
      </trkpt>
      <trkpt lat="43.1373635" lon="-2.8049339">
        <ele>247.168</ele>
        <time>2021-04-01T09:32:14.924Z</time>
      </trkpt>
      <trkpt lat="43.1373652" lon="-2.8049344">
        <ele>247.175</ele>
        <time>2021-04-01T09:32:14.979Z</time>
      </trkpt>
      <trkpt lat="43.1373672" lon="-2.8049351">
        <ele>247.249</ele>
        <time>2021-04-01T09:32:15.034Z</time>
      </trkpt>
      <trkpt lat="43.1373692" lon="-2.8049359">
        <ele>247.311</ele>
        <time>2021-04-01T09:32:15.089Z</time>
      </trkpt>
      <trkpt lat="43.1373715" lon="-2.804937">
        <ele>247.338</ele>
        <time>2021-04-01T09:32:15.144Z</time>
      </trkpt>
      <trkpt lat="43.1373738" lon="-2.8049382">
        <ele>247.326</ele>
        <time>2021-04-01T09:32:15.199Z</time>
      </trkpt>
      <trkpt lat="43.1373759" lon="-2.8049393">
        <ele>247.291</ele>
        <time>2021-04-01T09:32:15.254Z</time>
      </trkpt>
      <trkpt lat="43.1373778" lon="-2.8049406">
        <ele>247.289</ele>
        <time>2021-04-01T09:32:15.309Z</time>
      </trkpt>
      <trkpt lat="43.1373797" lon="-2.8049414">
        <ele>247.265</ele>
        <time>2021-04-01T09:32:15.364Z</time>
      </trkpt>
      <trkpt lat="43.1373813" lon="-2.8049424">
        <ele>247.223</ele>
        <time>2021-04-01T09:32:15.419Z</time>
      </trkpt>
      <trkpt lat="43.1373836" lon="-2.8049432">
        <ele>247.268</ele>
        <time>2021-04-01T09:32:15.474Z</time>
      </trkpt>
      <trkpt lat="43.1373854" lon="-2.8049438">
        <ele>247.288</ele>
        <time>2021-04-01T09:32:15.529Z</time>
      </trkpt>
      <trkpt lat="43.1373875" lon="-2.8049449">
        <ele>247.311</ele>
        <time>2021-04-01T09:32:15.584Z</time>
      </trkpt>
      <trkpt lat="43.1373895" lon="-2.8049459">
        <ele>247.35</ele>
        <time>2021-04-01T09:32:15.639Z</time>
      </trkpt>
      <trkpt lat="43.1373914" lon="-2.8049467">
        <ele>247.405</ele>
        <time>2021-04-01T09:32:15.694Z</time>
      </trkpt>
      <trkpt lat="43.1373931" lon="-2.8049475">
        <ele>247.395</ele>
        <time>2021-04-01T09:32:15.749Z</time>
      </trkpt>
      <trkpt lat="43.1373949" lon="-2.8049484">
        <ele>247.414</ele>
        <time>2021-04-01T09:32:15.804Z</time>
      </trkpt>
      <trkpt lat="43.1373968" lon="-2.8049494">
        <ele>247.434</ele>
        <time>2021-04-01T09:32:15.859Z</time>
      </trkpt>
      <trkpt lat="43.1373989" lon="-2.80495">
        <ele>247.441</ele>
        <time>2021-04-01T09:32:15.914Z</time>
      </trkpt>
      <trkpt lat="43.1374008" lon="-2.8049507">
        <ele>247.456</ele>
        <time>2021-04-01T09:32:15.969Z</time>
      </trkpt>
      <trkpt lat="43.1374026" lon="-2.8049515">
        <ele>247.52</ele>
        <time>2021-04-01T09:32:16.024Z</time>
      </trkpt>
      <trkpt lat="43.1374045" lon="-2.8049523">
        <ele>247.526</ele>
        <time>2021-04-01T09:32:16.079Z</time>
      </trkpt>
      <trkpt lat="43.1374066" lon="-2.8049533">
        <ele>247.545</ele>
        <time>2021-04-01T09:32:16.134Z</time>
      </trkpt>
      <trkpt lat="43.1374087" lon="-2.8049542">
        <ele>247.566</ele>
        <time>2021-04-01T09:32:16.189Z</time>
      </trkpt>
      <trkpt lat="43.1374106" lon="-2.8049552">
        <ele>247.604</ele>
        <time>2021-04-01T09:32:16.244Z</time>
      </trkpt>
      <trkpt lat="43.1374125" lon="-2.8049561">
        <ele>247.625</ele>
        <time>2021-04-01T09:32:16.299Z</time>
      </trkpt>
      <trkpt lat="43.1374144" lon="-2.8049568">
        <ele>247.67</ele>
        <time>2021-04-01T09:32:16.354Z</time>
      </trkpt>
      <trkpt lat="43.1374163" lon="-2.8049575">
        <ele>247.707</ele>
        <time>2021-04-01T09:32:16.409Z</time>
      </trkpt>
      <trkpt lat="43.1374183" lon="-2.8049583">
        <ele>247.71</ele>
        <time>2021-04-01T09:32:16.464Z</time>
      </trkpt>
      <trkpt lat="43.1374199" lon="-2.804959">
        <ele>247.67</ele>
        <time>2021-04-01T09:32:16.519Z</time>
      </trkpt>
      <trkpt lat="43.1374217" lon="-2.8049595">
        <ele>247.746</ele>
        <time>2021-04-01T09:32:16.574Z</time>
      </trkpt>
      <trkpt lat="43.1374236" lon="-2.8049603">
        <ele>247.796</ele>
        <time>2021-04-01T09:32:16.629Z</time>
      </trkpt>
      <trkpt lat="43.1374257" lon="-2.8049608">
        <ele>247.831</ele>
        <time>2021-04-01T09:32:16.684Z</time>
      </trkpt>
      <trkpt lat="43.137428" lon="-2.8049616">
        <ele>247.923</ele>
        <time>2021-04-01T09:32:16.739Z</time>
      </trkpt>
      <trkpt lat="43.1374299" lon="-2.8049623">
        <ele>247.953</ele>
        <time>2021-04-01T09:32:16.794Z</time>
      </trkpt>
      <trkpt lat="43.137432" lon="-2.8049629">
        <ele>247.982</ele>
        <time>2021-04-01T09:32:16.849Z</time>
      </trkpt>
      <trkpt lat="43.1374338" lon="-2.8049635">
        <ele>248.006</ele>
        <time>2021-04-01T09:32:16.904Z</time>
      </trkpt>
      <trkpt lat="43.1374355" lon="-2.8049643">
        <ele>248.037</ele>
        <time>2021-04-01T09:32:16.959Z</time>
      </trkpt>
      <trkpt lat="43.1374376" lon="-2.8049648">
        <ele>248.065</ele>
        <time>2021-04-01T09:32:17.014Z</time>
      </trkpt>
      <trkpt lat="43.1374398" lon="-2.8049659">
        <ele>248.079</ele>
        <time>2021-04-01T09:32:17.069Z</time>
      </trkpt>
      <trkpt lat="43.1374416" lon="-2.8049667">
        <ele>248.128</ele>
        <time>2021-04-01T09:32:17.124Z</time>
      </trkpt>
      <trkpt lat="43.1374435" lon="-2.8049672">
        <ele>248.174</ele>
        <time>2021-04-01T09:32:17.179Z</time>
      </trkpt>
      <trkpt lat="43.1374452" lon="-2.8049681">
        <ele>248.18</ele>
        <time>2021-04-01T09:32:17.234Z</time>
      </trkpt>
      <trkpt lat="43.1374471" lon="-2.8049687">
        <ele>248.228</ele>
        <time>2021-04-01T09:32:17.289Z</time>
      </trkpt>
      <trkpt lat="43.1374491" lon="-2.8049693">
        <ele>248.293</ele>
        <time>2021-04-01T09:32:17.344Z</time>
      </trkpt>
      <trkpt lat="43.1374511" lon="-2.80497">
        <ele>248.344</ele>
        <time>2021-04-01T09:32:17.399Z</time>
      </trkpt>
      <trkpt lat="43.137453" lon="-2.8049711">
        <ele>248.354</ele>
        <time>2021-04-01T09:32:17.454Z</time>
      </trkpt>
      <trkpt lat="43.1374548" lon="-2.8049718">
        <ele>248.409</ele>
        <time>2021-04-01T09:32:17.509Z</time>
      </trkpt>
      <trkpt lat="43.1374567" lon="-2.8049722">
        <ele>248.467</ele>
        <time>2021-04-01T09:32:17.564Z</time>
      </trkpt>
      <trkpt lat="43.1374584" lon="-2.804973">
        <ele>248.475</ele>
        <time>2021-04-01T09:32:17.619Z</time>
      </trkpt>
      <trkpt lat="43.1374601" lon="-2.8049738">
        <ele>248.484</ele>
        <time>2021-04-01T09:32:17.674Z</time>
      </trkpt>
      <trkpt lat="43.1374622" lon="-2.8049746">
        <ele>248.512</ele>
        <time>2021-04-01T09:32:17.729Z</time>
      </trkpt>
      <trkpt lat="43.1374638" lon="-2.8049753">
        <ele>248.553</ele>
        <time>2021-04-01T09:32:17.784Z</time>
      </trkpt>
      <trkpt lat="43.1374659" lon="-2.8049761">
        <ele>248.586</ele>
        <time>2021-04-01T09:32:17.839Z</time>
      </trkpt>
      <trkpt lat="43.137468" lon="-2.8049768">
        <ele>248.623</ele>
        <time>2021-04-01T09:32:17.894Z</time>
      </trkpt>
      <trkpt lat="43.1374701" lon="-2.8049777">
        <ele>248.687</ele>
        <time>2021-04-01T09:32:17.949Z</time>
      </trkpt>
      <trkpt lat="43.1374721" lon="-2.8049784">
        <ele>248.717</ele>
        <time>2021-04-01T09:32:18.004Z</time>
      </trkpt>
      <trkpt lat="43.1374741" lon="-2.8049791">
        <ele>248.757</ele>
        <time>2021-04-01T09:32:18.059Z</time>
      </trkpt>
      <trkpt lat="43.1374758" lon="-2.8049796">
        <ele>248.803</ele>
        <time>2021-04-01T09:32:18.114Z</time>
      </trkpt>
      <trkpt lat="43.1374776" lon="-2.8049805">
        <ele>248.833</ele>
        <time>2021-04-01T09:32:18.169Z</time>
      </trkpt>
      <trkpt lat="43.1374794" lon="-2.8049815">
        <ele>248.899</ele>
        <time>2021-04-01T09:32:18.224Z</time>
      </trkpt>
      <trkpt lat="43.1374812" lon="-2.8049819">
        <ele>248.946</ele>
        <time>2021-04-01T09:32:18.279Z</time>
      </trkpt>
      <trkpt lat="43.137483" lon="-2.8049827">
        <ele>248.997</ele>
        <time>2021-04-01T09:32:18.334Z</time>
      </trkpt>
      <trkpt lat="43.137485" lon="-2.8049836">
        <ele>249.008</ele>
        <time>2021-04-01T09:32:18.389Z</time>
      </trkpt>
      <trkpt lat="43.1374869" lon="-2.8049844">
        <ele>249.045</ele>
        <time>2021-04-01T09:32:18.444Z</time>
      </trkpt>
      <trkpt lat="43.1374886" lon="-2.804985">
        <ele>249.061</ele>
        <time>2021-04-01T09:32:18.499Z</time>
      </trkpt>
      <trkpt lat="43.1374906" lon="-2.8049854">
        <ele>249.064</ele>
        <time>2021-04-01T09:32:18.554Z</time>
      </trkpt>
      <trkpt lat="43.1374921" lon="-2.8049856">
        <ele>249.085</ele>
        <time>2021-04-01T09:32:18.609Z</time>
      </trkpt>
      <trkpt lat="43.1374937" lon="-2.804986">
        <ele>249.104</ele>
        <time>2021-04-01T09:32:18.664Z</time>
      </trkpt>
      <trkpt lat="43.1374953" lon="-2.8049867">
        <ele>249.147</ele>
        <time>2021-04-01T09:32:18.719Z</time>
      </trkpt>
      <trkpt lat="43.137497" lon="-2.8049872">
        <ele>249.169</ele>
        <time>2021-04-01T09:32:18.774Z</time>
      </trkpt>
      <trkpt lat="43.1374987" lon="-2.8049881">
        <ele>249.198</ele>
        <time>2021-04-01T09:32:18.829Z</time>
      </trkpt>
      <trkpt lat="43.1375006" lon="-2.804989">
        <ele>249.189</ele>
        <time>2021-04-01T09:32:18.884Z</time>
      </trkpt>
      <trkpt lat="43.1375027" lon="-2.8049899">
        <ele>249.217</ele>
        <time>2021-04-01T09:32:18.939Z</time>
      </trkpt>
      <trkpt lat="43.1375045" lon="-2.8049909">
        <ele>249.267</ele>
        <time>2021-04-01T09:32:18.994Z</time>
      </trkpt>
      <trkpt lat="43.1375067" lon="-2.8049915">
        <ele>249.281</ele>
        <time>2021-04-01T09:32:19.049Z</time>
      </trkpt>
      <trkpt lat="43.1375089" lon="-2.804992">
        <ele>249.306</ele>
        <time>2021-04-01T09:32:19.104Z</time>
      </trkpt>
      <trkpt lat="43.1375107" lon="-2.8049924">
        <ele>249.285</ele>
        <time>2021-04-01T09:32:19.159Z</time>
      </trkpt>
      <trkpt lat="43.1375124" lon="-2.804993">
        <ele>249.277</ele>
        <time>2021-04-01T09:32:19.214Z</time>
      </trkpt>
      <trkpt lat="43.1375141" lon="-2.8049935">
        <ele>249.281</ele>
        <time>2021-04-01T09:32:19.269Z</time>
      </trkpt>
      <trkpt lat="43.137516" lon="-2.8049942">
        <ele>249.289</ele>
        <time>2021-04-01T09:32:19.324Z</time>
      </trkpt>
      <trkpt lat="43.1375177" lon="-2.8049947">
        <ele>249.299</ele>
        <time>2021-04-01T09:32:19.379Z</time>
      </trkpt>
      <trkpt lat="43.1375194" lon="-2.8049957">
        <ele>249.319</ele>
        <time>2021-04-01T09:32:19.434Z</time>
      </trkpt>
      <trkpt lat="43.1375212" lon="-2.8049961">
        <ele>249.384</ele>
        <time>2021-04-01T09:32:19.489Z</time>
      </trkpt>
      <trkpt lat="43.1375233" lon="-2.804996">
        <ele>249.475</ele>
        <time>2021-04-01T09:32:19.544Z</time>
      </trkpt>
      <trkpt lat="43.1375254" lon="-2.8049965">
        <ele>249.554</ele>
        <time>2021-04-01T09:32:19.599Z</time>
      </trkpt>
      <trkpt lat="43.1375274" lon="-2.8049966">
        <ele>249.669</ele>
        <time>2021-04-01T09:32:19.654Z</time>
      </trkpt>
      <trkpt lat="43.1375294" lon="-2.804997">
        <ele>249.742</ele>
        <time>2021-04-01T09:32:19.709Z</time>
      </trkpt>
      <trkpt lat="43.1375311" lon="-2.8049979">
        <ele>249.776</ele>
        <time>2021-04-01T09:32:19.764Z</time>
      </trkpt>
      <trkpt lat="43.1375331" lon="-2.8049988">
        <ele>249.812</ele>
        <time>2021-04-01T09:32:19.819Z</time>
      </trkpt>
      <trkpt lat="43.1375353" lon="-2.8049995">
        <ele>249.834</ele>
        <time>2021-04-01T09:32:19.874Z</time>
      </trkpt>
      <trkpt lat="43.1375373" lon="-2.8050003">
        <ele>249.862</ele>
        <time>2021-04-01T09:32:19.929Z</time>
      </trkpt>
      <trkpt lat="43.1375392" lon="-2.8050011">
        <ele>249.898</ele>
        <time>2021-04-01T09:32:19.984Z</time>
      </trkpt>
      <trkpt lat="43.1375409" lon="-2.8050014">
        <ele>249.894</ele>
        <time>2021-04-01T09:32:20.039Z</time>
      </trkpt>
      <trkpt lat="43.1375427" lon="-2.8050019">
        <ele>249.915</ele>
        <time>2021-04-01T09:32:20.094Z</time>
      </trkpt>
      <trkpt lat="43.1375447" lon="-2.8050025">
        <ele>249.922</ele>
        <time>2021-04-01T09:32:20.149Z</time>
      </trkpt>
      <trkpt lat="43.1375468" lon="-2.8050036">
        <ele>249.944</ele>
        <time>2021-04-01T09:32:20.204Z</time>
      </trkpt>
      <trkpt lat="43.1375484" lon="-2.8050047">
        <ele>249.99</ele>
        <time>2021-04-01T09:32:20.259Z</time>
      </trkpt>
      <trkpt lat="43.1375501" lon="-2.8050051">
        <ele>250.001</ele>
        <time>2021-04-01T09:32:20.314Z</time>
      </trkpt>
      <trkpt lat="43.1375518" lon="-2.805006">
        <ele>249.987</ele>
        <time>2021-04-01T09:32:20.369Z</time>
      </trkpt>
      <trkpt lat="43.1375537" lon="-2.8050069">
        <ele>250.004</ele>
        <time>2021-04-01T09:32:20.424Z</time>
      </trkpt>
      <trkpt lat="43.1375555" lon="-2.8050074">
        <ele>250.002</ele>
        <time>2021-04-01T09:32:20.479Z</time>
      </trkpt>
      <trkpt lat="43.1375574" lon="-2.805008">
        <ele>250.011</ele>
        <time>2021-04-01T09:32:20.534Z</time>
      </trkpt>
      <trkpt lat="43.1375592" lon="-2.8050086">
        <ele>250.018</ele>
        <time>2021-04-01T09:32:20.589Z</time>
      </trkpt>
      <trkpt lat="43.1375612" lon="-2.8050094">
        <ele>250.044</ele>
        <time>2021-04-01T09:32:20.644Z</time>
      </trkpt>
      <trkpt lat="43.1375635" lon="-2.8050098">
        <ele>250.096</ele>
        <time>2021-04-01T09:32:20.699Z</time>
      </trkpt>
      <trkpt lat="43.1375653" lon="-2.8050101">
        <ele>250.13</ele>
        <time>2021-04-01T09:32:20.754Z</time>
      </trkpt>
      <trkpt lat="43.1375668" lon="-2.8050105">
        <ele>250.171</ele>
        <time>2021-04-01T09:32:20.809Z</time>
      </trkpt>
      <trkpt lat="43.1375687" lon="-2.8050111">
        <ele>250.186</ele>
        <time>2021-04-01T09:32:20.864Z</time>
      </trkpt>
      <trkpt lat="43.1375705" lon="-2.8050119">
        <ele>250.197</ele>
        <time>2021-04-01T09:32:20.919Z</time>
      </trkpt>
      <trkpt lat="43.1375725" lon="-2.8050128">
        <ele>250.205</ele>
        <time>2021-04-01T09:32:20.974Z</time>
      </trkpt>
      <trkpt lat="43.1375745" lon="-2.8050135">
        <ele>250.245</ele>
        <time>2021-04-01T09:32:21.029Z</time>
      </trkpt>
      <trkpt lat="43.1375763" lon="-2.8050144">
        <ele>250.262</ele>
        <time>2021-04-01T09:32:21.084Z</time>
      </trkpt>
      <trkpt lat="43.1375784" lon="-2.8050151">
        <ele>250.324</ele>
        <time>2021-04-01T09:32:21.139Z</time>
      </trkpt>
      <trkpt lat="43.1375804" lon="-2.8050158">
        <ele>250.378</ele>
        <time>2021-04-01T09:32:21.194Z</time>
      </trkpt>
      <trkpt lat="43.1375828" lon="-2.8050165">
        <ele>250.392</ele>
        <time>2021-04-01T09:32:21.249Z</time>
      </trkpt>
      <trkpt lat="43.1375849" lon="-2.8050178">
        <ele>250.389</ele>
        <time>2021-04-01T09:32:21.304Z</time>
      </trkpt>
      <trkpt lat="43.1375871" lon="-2.8050188">
        <ele>250.512</ele>
        <time>2021-04-01T09:32:21.359Z</time>
      </trkpt>
      <trkpt lat="43.1375893" lon="-2.8050195">
        <ele>250.584</ele>
        <time>2021-04-01T09:32:21.414Z</time>
      </trkpt>
      <trkpt lat="43.1375914" lon="-2.80502">
        <ele>250.621</ele>
        <time>2021-04-01T09:32:21.469Z</time>
      </trkpt>
      <trkpt lat="43.1375932" lon="-2.8050209">
        <ele>250.665</ele>
        <time>2021-04-01T09:32:21.524Z</time>
      </trkpt>
      <trkpt lat="43.1375951" lon="-2.8050214">
        <ele>250.749</ele>
        <time>2021-04-01T09:32:21.579Z</time>
      </trkpt>
      <trkpt lat="43.1375971" lon="-2.8050219">
        <ele>250.801</ele>
        <time>2021-04-01T09:32:21.634Z</time>
      </trkpt>
      <trkpt lat="43.1375989" lon="-2.8050229">
        <ele>250.856</ele>
        <time>2021-04-01T09:32:21.689Z</time>
      </trkpt>
      <trkpt lat="43.1376007" lon="-2.8050234">
        <ele>250.888</ele>
        <time>2021-04-01T09:32:21.744Z</time>
      </trkpt>
      <trkpt lat="43.1376027" lon="-2.805024">
        <ele>250.918</ele>
        <time>2021-04-01T09:32:21.799Z</time>
      </trkpt>
      <trkpt lat="43.1376053" lon="-2.8050248">
        <ele>251.071</ele>
        <time>2021-04-01T09:32:21.854Z</time>
      </trkpt>
      <trkpt lat="43.1376073" lon="-2.8050258">
        <ele>251.12</ele>
        <time>2021-04-01T09:32:21.909Z</time>
      </trkpt>
      <trkpt lat="43.1376094" lon="-2.8050269">
        <ele>251.115</ele>
        <time>2021-04-01T09:32:21.964Z</time>
      </trkpt>
      <trkpt lat="43.1376112" lon="-2.8050278">
        <ele>251.126</ele>
        <time>2021-04-01T09:32:22.019Z</time>
      </trkpt>
      <trkpt lat="43.137613" lon="-2.8050287">
        <ele>251.176</ele>
        <time>2021-04-01T09:32:22.074Z</time>
      </trkpt>
      <trkpt lat="43.1376146" lon="-2.8050294">
        <ele>251.182</ele>
        <time>2021-04-01T09:32:22.129Z</time>
      </trkpt>
      <trkpt lat="43.1376166" lon="-2.8050299">
        <ele>251.238</ele>
        <time>2021-04-01T09:32:22.184Z</time>
      </trkpt>
      <trkpt lat="43.1376189" lon="-2.8050303">
        <ele>251.316</ele>
        <time>2021-04-01T09:32:22.239Z</time>
      </trkpt>
      <trkpt lat="43.137621" lon="-2.8050308">
        <ele>251.336</ele>
        <time>2021-04-01T09:32:22.294Z</time>
      </trkpt>
      <trkpt lat="43.1376231" lon="-2.8050313">
        <ele>251.375</ele>
        <time>2021-04-01T09:32:22.349Z</time>
      </trkpt>
      <trkpt lat="43.1376249" lon="-2.8050327">
        <ele>251.397</ele>
        <time>2021-04-01T09:32:22.404Z</time>
      </trkpt>
      <trkpt lat="43.1376268" lon="-2.8050334">
        <ele>251.424</ele>
        <time>2021-04-01T09:32:22.459Z</time>
      </trkpt>
      <trkpt lat="43.1376289" lon="-2.8050339">
        <ele>251.45</ele>
        <time>2021-04-01T09:32:22.514Z</time>
      </trkpt>
      <trkpt lat="43.1376307" lon="-2.805035">
        <ele>251.426</ele>
        <time>2021-04-01T09:32:22.569Z</time>
      </trkpt>
      <trkpt lat="43.1376325" lon="-2.8050358">
        <ele>251.462</ele>
        <time>2021-04-01T09:32:22.624Z</time>
      </trkpt>
      <trkpt lat="43.1376347" lon="-2.8050367">
        <ele>251.524</ele>
        <time>2021-04-01T09:32:22.679Z</time>
      </trkpt>
      <trkpt lat="43.1376367" lon="-2.8050372">
        <ele>251.566</ele>
        <time>2021-04-01T09:32:22.734Z</time>
      </trkpt>
      <trkpt lat="43.1376386" lon="-2.8050381">
        <ele>251.61</ele>
        <time>2021-04-01T09:32:22.789Z</time>
      </trkpt>
      <trkpt lat="43.1376406" lon="-2.805039">
        <ele>251.678</ele>
        <time>2021-04-01T09:32:22.841Z</time>
      </trkpt>
      <trkpt lat="43.1376427" lon="-2.8050399">
        <ele>251.72</ele>
        <time>2021-04-01T09:32:22.893Z</time>
      </trkpt>
      <trkpt lat="43.1376446" lon="-2.8050407">
        <ele>251.738</ele>
        <time>2021-04-01T09:32:22.945Z</time>
      </trkpt>
      <trkpt lat="43.1376466" lon="-2.8050415">
        <ele>251.756</ele>
        <time>2021-04-01T09:32:22.997Z</time>
      </trkpt>
      <trkpt lat="43.1376484" lon="-2.8050425">
        <ele>251.74</ele>
        <time>2021-04-01T09:32:23.049Z</time>
      </trkpt>
      <trkpt lat="43.1376504" lon="-2.8050436">
        <ele>251.739</ele>
        <time>2021-04-01T09:32:23.101Z</time>
      </trkpt>
      <trkpt lat="43.1376523" lon="-2.8050445">
        <ele>251.738</ele>
        <time>2021-04-01T09:32:23.153Z</time>
      </trkpt>
      <trkpt lat="43.1376542" lon="-2.8050454">
        <ele>251.797</ele>
        <time>2021-04-01T09:32:23.205Z</time>
      </trkpt>
      <trkpt lat="43.1376557" lon="-2.8050464">
        <ele>251.849</ele>
        <time>2021-04-01T09:32:23.257Z</time>
      </trkpt>
      <trkpt lat="43.1376573" lon="-2.8050474">
        <ele>251.914</ele>
        <time>2021-04-01T09:32:23.310Z</time>
      </trkpt>
      <trkpt lat="43.1376594" lon="-2.8050483">
        <ele>251.961</ele>
        <time>2021-04-01T09:32:23.362Z</time>
      </trkpt>
      <trkpt lat="43.1376615" lon="-2.8050495">
        <ele>251.964</ele>
        <time>2021-04-01T09:32:23.414Z</time>
      </trkpt>
      <trkpt lat="43.1376635" lon="-2.8050508">
        <ele>251.99</ele>
        <time>2021-04-01T09:32:23.466Z</time>
      </trkpt>
      <trkpt lat="43.1376653" lon="-2.8050518">
        <ele>252.042</ele>
        <time>2021-04-01T09:32:23.518Z</time>
      </trkpt>
      <trkpt lat="43.137667" lon="-2.8050526">
        <ele>252.073</ele>
        <time>2021-04-01T09:32:23.570Z</time>
      </trkpt>
      <trkpt lat="43.1376688" lon="-2.8050534">
        <ele>252.104</ele>
        <time>2021-04-01T09:32:23.622Z</time>
      </trkpt>
      <trkpt lat="43.137671" lon="-2.8050541">
        <ele>252.108</ele>
        <time>2021-04-01T09:32:23.674Z</time>
      </trkpt>
      <trkpt lat="43.1376732" lon="-2.8050546">
        <ele>252.109</ele>
        <time>2021-04-01T09:32:23.726Z</time>
      </trkpt>
      <trkpt lat="43.1376753" lon="-2.8050552">
        <ele>252.099</ele>
        <time>2021-04-01T09:32:23.779Z</time>
      </trkpt>
      <trkpt lat="43.1376773" lon="-2.8050563">
        <ele>252.084</ele>
        <time>2021-04-01T09:32:23.840Z</time>
      </trkpt>
      <trkpt lat="43.1376791" lon="-2.8050571">
        <ele>252.099</ele>
        <time>2021-04-01T09:32:23.901Z</time>
      </trkpt>
      <trkpt lat="43.1376813" lon="-2.8050581">
        <ele>252.079</ele>
        <time>2021-04-01T09:32:23.963Z</time>
      </trkpt>
      <trkpt lat="43.1376831" lon="-2.8050589">
        <ele>252.101</ele>
        <time>2021-04-01T09:32:24.024Z</time>
      </trkpt>
      <trkpt lat="43.1376847" lon="-2.8050598">
        <ele>252.109</ele>
        <time>2021-04-01T09:32:24.086Z</time>
      </trkpt>
      <trkpt lat="43.1376861" lon="-2.8050611">
        <ele>252.117</ele>
        <time>2021-04-01T09:32:24.147Z</time>
      </trkpt>
      <trkpt lat="43.1376878" lon="-2.8050615">
        <ele>252.152</ele>
        <time>2021-04-01T09:32:24.209Z</time>
      </trkpt>
      <trkpt lat="43.1376894" lon="-2.8050621">
        <ele>252.175</ele>
        <time>2021-04-01T09:32:24.270Z</time>
      </trkpt>
      <trkpt lat="43.1376913" lon="-2.8050627">
        <ele>252.211</ele>
        <time>2021-04-01T09:32:24.332Z</time>
      </trkpt>
      <trkpt lat="43.1376931" lon="-2.8050637">
        <ele>252.246</ele>
        <time>2021-04-01T09:32:24.393Z</time>
      </trkpt>
      <trkpt lat="43.137695" lon="-2.8050651">
        <ele>252.261</ele>
        <time>2021-04-01T09:32:24.455Z</time>
      </trkpt>
      <trkpt lat="43.1376971" lon="-2.805066">
        <ele>252.295</ele>
        <time>2021-04-01T09:32:24.516Z</time>
      </trkpt>
      <trkpt lat="43.137699" lon="-2.8050675">
        <ele>252.315</ele>
        <time>2021-04-01T09:32:24.578Z</time>
      </trkpt>
      <trkpt lat="43.137701" lon="-2.8050684">
        <ele>252.362</ele>
        <time>2021-04-01T09:32:24.639Z</time>
      </trkpt>
      <trkpt lat="43.137703" lon="-2.8050694">
        <ele>252.405</ele>
        <time>2021-04-01T09:32:24.701Z</time>
      </trkpt>
      <trkpt lat="43.137705" lon="-2.8050705">
        <ele>252.442</ele>
        <time>2021-04-01T09:32:24.762Z</time>
      </trkpt>
      <trkpt lat="43.1377069" lon="-2.8050716">
        <ele>252.501</ele>
        <time>2021-04-01T09:32:24.824Z</time>
      </trkpt>
      <trkpt lat="43.1377088" lon="-2.8050727">
        <ele>252.516</ele>
        <time>2021-04-01T09:32:24.876Z</time>
      </trkpt>
      <trkpt lat="43.1377107" lon="-2.805074">
        <ele>252.555</ele>
        <time>2021-04-01T09:32:24.928Z</time>
      </trkpt>
      <trkpt lat="43.1377126" lon="-2.8050753">
        <ele>252.572</ele>
        <time>2021-04-01T09:32:24.980Z</time>
      </trkpt>
      <trkpt lat="43.1377143" lon="-2.8050765">
        <ele>252.604</ele>
        <time>2021-04-01T09:32:25.032Z</time>
      </trkpt>
      <trkpt lat="43.1377162" lon="-2.8050775">
        <ele>252.633</ele>
        <time>2021-04-01T09:32:25.084Z</time>
      </trkpt>
      <trkpt lat="43.137718" lon="-2.8050783">
        <ele>252.668</ele>
        <time>2021-04-01T09:32:25.136Z</time>
      </trkpt>
      <trkpt lat="43.1377197" lon="-2.8050788">
        <ele>252.684</ele>
        <time>2021-04-01T09:32:25.188Z</time>
      </trkpt>
      <trkpt lat="43.1377218" lon="-2.8050803">
        <ele>252.706</ele>
        <time>2021-04-01T09:32:25.240Z</time>
      </trkpt>
      <trkpt lat="43.1377237" lon="-2.8050815">
        <ele>252.749</ele>
        <time>2021-04-01T09:32:25.292Z</time>
      </trkpt>
      <trkpt lat="43.1377255" lon="-2.8050826">
        <ele>252.788</ele>
        <time>2021-04-01T09:32:25.345Z</time>
      </trkpt>
      <trkpt lat="43.1377274" lon="-2.8050836">
        <ele>252.801</ele>
        <time>2021-04-01T09:32:25.397Z</time>
      </trkpt>
      <trkpt lat="43.1377295" lon="-2.8050851">
        <ele>252.812</ele>
        <time>2021-04-01T09:32:25.449Z</time>
      </trkpt>
      <trkpt lat="43.1377318" lon="-2.805086">
        <ele>252.828</ele>
        <time>2021-04-01T09:32:25.501Z</time>
      </trkpt>
      <trkpt lat="43.1377342" lon="-2.8050874">
        <ele>252.911</ele>
        <time>2021-04-01T09:32:25.553Z</time>
      </trkpt>
      <trkpt lat="43.1377359" lon="-2.8050884">
        <ele>252.965</ele>
        <time>2021-04-01T09:32:25.605Z</time>
      </trkpt>
      <trkpt lat="43.1377379" lon="-2.8050897">
        <ele>253.023</ele>
        <time>2021-04-01T09:32:25.657Z</time>
      </trkpt>
      <trkpt lat="43.1377397" lon="-2.8050906">
        <ele>253.009</ele>
        <time>2021-04-01T09:32:25.709Z</time>
      </trkpt>
      <trkpt lat="43.1377414" lon="-2.8050918">
        <ele>253.048</ele>
        <time>2021-04-01T09:32:25.761Z</time>
      </trkpt>
      <trkpt lat="43.1377431" lon="-2.8050933">
        <ele>253.076</ele>
        <time>2021-04-01T09:32:25.814Z</time>
      </trkpt>
      <trkpt lat="43.137745" lon="-2.8050946">
        <ele>253.131</ele>
        <time>2021-04-01T09:32:25.869Z</time>
      </trkpt>
      <trkpt lat="43.1377472" lon="-2.8050958">
        <ele>253.217</ele>
        <time>2021-04-01T09:32:25.924Z</time>
      </trkpt>
      <trkpt lat="43.137749" lon="-2.8050974">
        <ele>253.232</ele>
        <time>2021-04-01T09:32:25.979Z</time>
      </trkpt>
      <trkpt lat="43.1377507" lon="-2.8050985">
        <ele>253.253</ele>
        <time>2021-04-01T09:32:26.034Z</time>
      </trkpt>
      <trkpt lat="43.1377525" lon="-2.8050992">
        <ele>253.266</ele>
        <time>2021-04-01T09:32:26.089Z</time>
      </trkpt>
      <trkpt lat="43.1377543" lon="-2.8051003">
        <ele>253.28</ele>
        <time>2021-04-01T09:32:26.144Z</time>
      </trkpt>
      <trkpt lat="43.1377561" lon="-2.8051011">
        <ele>253.255</ele>
        <time>2021-04-01T09:32:26.199Z</time>
      </trkpt>
      <trkpt lat="43.1377576" lon="-2.8051024">
        <ele>253.256</ele>
        <time>2021-04-01T09:32:26.254Z</time>
      </trkpt>
      <trkpt lat="43.137759" lon="-2.8051034">
        <ele>253.257</ele>
        <time>2021-04-01T09:32:26.309Z</time>
      </trkpt>
      <trkpt lat="43.1377606" lon="-2.8051049">
        <ele>253.27</ele>
        <time>2021-04-01T09:32:26.364Z</time>
      </trkpt>
      <trkpt lat="43.1377623" lon="-2.8051061">
        <ele>253.29</ele>
        <time>2021-04-01T09:32:26.419Z</time>
      </trkpt>
      <trkpt lat="43.137764" lon="-2.8051075">
        <ele>253.352</ele>
        <time>2021-04-01T09:32:26.474Z</time>
      </trkpt>
      <trkpt lat="43.1377656" lon="-2.8051089">
        <ele>253.382</ele>
        <time>2021-04-01T09:32:26.529Z</time>
      </trkpt>
      <trkpt lat="43.1377674" lon="-2.8051098">
        <ele>253.429</ele>
        <time>2021-04-01T09:32:26.584Z</time>
      </trkpt>
      <trkpt lat="43.1377688" lon="-2.8051109">
        <ele>253.407</ele>
        <time>2021-04-01T09:32:26.639Z</time>
      </trkpt>
      <trkpt lat="43.1377703" lon="-2.8051122">
        <ele>253.401</ele>
        <time>2021-04-01T09:32:26.694Z</time>
      </trkpt>
      <trkpt lat="43.1377719" lon="-2.8051133">
        <ele>253.393</ele>
        <time>2021-04-01T09:32:26.749Z</time>
      </trkpt>
      <trkpt lat="43.1377737" lon="-2.8051145">
        <ele>253.404</ele>
        <time>2021-04-01T09:32:26.804Z</time>
      </trkpt>
      <trkpt lat="43.137775" lon="-2.8051158">
        <ele>253.458</ele>
        <time>2021-04-01T09:32:26.859Z</time>
      </trkpt>
      <trkpt lat="43.1377764" lon="-2.8051169">
        <ele>253.474</ele>
        <time>2021-04-01T09:32:26.914Z</time>
      </trkpt>
      <trkpt lat="43.1377782" lon="-2.8051187">
        <ele>253.508</ele>
        <time>2021-04-01T09:32:26.969Z</time>
      </trkpt>
      <trkpt lat="43.13778" lon="-2.8051198">
        <ele>253.559</ele>
        <time>2021-04-01T09:32:27.024Z</time>
      </trkpt>
      <trkpt lat="43.1377819" lon="-2.8051215">
        <ele>253.635</ele>
        <time>2021-04-01T09:32:27.079Z</time>
      </trkpt>
      <trkpt lat="43.1377837" lon="-2.8051232">
        <ele>253.653</ele>
        <time>2021-04-01T09:32:27.134Z</time>
      </trkpt>
      <trkpt lat="43.1377853" lon="-2.8051247">
        <ele>253.679</ele>
        <time>2021-04-01T09:32:27.189Z</time>
      </trkpt>
      <trkpt lat="43.1377867" lon="-2.8051261">
        <ele>253.705</ele>
        <time>2021-04-01T09:32:27.244Z</time>
      </trkpt>
      <trkpt lat="43.137788" lon="-2.8051275">
        <ele>253.717</ele>
        <time>2021-04-01T09:32:27.299Z</time>
      </trkpt>
      <trkpt lat="43.1377893" lon="-2.8051285">
        <ele>253.681</ele>
        <time>2021-04-01T09:32:27.354Z</time>
      </trkpt>
      <trkpt lat="43.1377909" lon="-2.8051296">
        <ele>253.711</ele>
        <time>2021-04-01T09:32:27.409Z</time>
      </trkpt>
      <trkpt lat="43.1377923" lon="-2.8051309">
        <ele>253.753</ele>
        <time>2021-04-01T09:32:27.464Z</time>
      </trkpt>
      <trkpt lat="43.1377937" lon="-2.8051323">
        <ele>253.791</ele>
        <time>2021-04-01T09:32:27.519Z</time>
      </trkpt>
      <trkpt lat="43.137795" lon="-2.8051336">
        <ele>253.815</ele>
        <time>2021-04-01T09:32:27.574Z</time>
      </trkpt>
      <trkpt lat="43.1377964" lon="-2.8051348">
        <ele>253.781</ele>
        <time>2021-04-01T09:32:27.629Z</time>
      </trkpt>
      <trkpt lat="43.1377977" lon="-2.8051362">
        <ele>253.777</ele>
        <time>2021-04-01T09:32:27.684Z</time>
      </trkpt>
      <trkpt lat="43.1377992" lon="-2.8051382">
        <ele>253.761</ele>
        <time>2021-04-01T09:32:27.739Z</time>
      </trkpt>
      <trkpt lat="43.1378006" lon="-2.8051397">
        <ele>253.756</ele>
        <time>2021-04-01T09:32:27.794Z</time>
      </trkpt>
      <trkpt lat="43.1378016" lon="-2.8051415">
        <ele>253.765</ele>
        <time>2021-04-01T09:32:27.846Z</time>
      </trkpt>
      <trkpt lat="43.1378029" lon="-2.8051433">
        <ele>253.762</ele>
        <time>2021-04-01T09:32:27.898Z</time>
      </trkpt>
      <trkpt lat="43.1378041" lon="-2.805145">
        <ele>253.757</ele>
        <time>2021-04-01T09:32:27.950Z</time>
      </trkpt>
      <trkpt lat="43.1378053" lon="-2.8051468">
        <ele>253.746</ele>
        <time>2021-04-01T09:32:28.002Z</time>
      </trkpt>
      <trkpt lat="43.1378067" lon="-2.8051488">
        <ele>253.733</ele>
        <time>2021-04-01T09:32:28.054Z</time>
      </trkpt>
      <trkpt lat="43.137808" lon="-2.8051506">
        <ele>253.726</ele>
        <time>2021-04-01T09:32:28.106Z</time>
      </trkpt>
      <trkpt lat="43.1378093" lon="-2.8051524">
        <ele>253.703</ele>
        <time>2021-04-01T09:32:28.158Z</time>
      </trkpt>
      <trkpt lat="43.1378107" lon="-2.8051546">
        <ele>253.698</ele>
        <time>2021-04-01T09:32:28.210Z</time>
      </trkpt>
      <trkpt lat="43.1378118" lon="-2.8051564">
        <ele>253.703</ele>
        <time>2021-04-01T09:32:28.262Z</time>
      </trkpt>
      <trkpt lat="43.137813" lon="-2.805158">
        <ele>253.69</ele>
        <time>2021-04-01T09:32:28.315Z</time>
      </trkpt>
      <trkpt lat="43.1378142" lon="-2.8051598">
        <ele>253.663</ele>
        <time>2021-04-01T09:32:28.367Z</time>
      </trkpt>
      <trkpt lat="43.1378153" lon="-2.8051617">
        <ele>253.649</ele>
        <time>2021-04-01T09:32:28.419Z</time>
      </trkpt>
      <trkpt lat="43.1378166" lon="-2.8051636">
        <ele>253.621</ele>
        <time>2021-04-01T09:32:28.471Z</time>
      </trkpt>
      <trkpt lat="43.1378177" lon="-2.805166">
        <ele>253.609</ele>
        <time>2021-04-01T09:32:28.523Z</time>
      </trkpt>
      <trkpt lat="43.1378189" lon="-2.805168">
        <ele>253.59</ele>
        <time>2021-04-01T09:32:28.575Z</time>
      </trkpt>
      <trkpt lat="43.13782" lon="-2.8051703">
        <ele>253.558</ele>
        <time>2021-04-01T09:32:28.627Z</time>
      </trkpt>
      <trkpt lat="43.1378212" lon="-2.8051724">
        <ele>253.587</ele>
        <time>2021-04-01T09:32:28.679Z</time>
      </trkpt>
      <trkpt lat="43.1378224" lon="-2.8051748">
        <ele>253.606</ele>
        <time>2021-04-01T09:32:28.731Z</time>
      </trkpt>
      <trkpt lat="43.1378235" lon="-2.8051771">
        <ele>253.588</ele>
        <time>2021-04-01T09:32:28.784Z</time>
      </trkpt>
      <trkpt lat="43.1378246" lon="-2.8051793">
        <ele>253.578</ele>
        <time>2021-04-01T09:32:28.839Z</time>
      </trkpt>
      <trkpt lat="43.1378257" lon="-2.8051816">
        <ele>253.57</ele>
        <time>2021-04-01T09:32:28.894Z</time>
      </trkpt>
      <trkpt lat="43.137827" lon="-2.8051838">
        <ele>253.581</ele>
        <time>2021-04-01T09:32:28.949Z</time>
      </trkpt>
      <trkpt lat="43.1378283" lon="-2.8051859">
        <ele>253.62</ele>
        <time>2021-04-01T09:32:29.004Z</time>
      </trkpt>
      <trkpt lat="43.1378297" lon="-2.8051884">
        <ele>253.616</ele>
        <time>2021-04-01T09:32:29.059Z</time>
      </trkpt>
      <trkpt lat="43.1378309" lon="-2.805191">
        <ele>253.61</ele>
        <time>2021-04-01T09:32:29.114Z</time>
      </trkpt>
      <trkpt lat="43.1378322" lon="-2.8051934">
        <ele>253.64</ele>
        <time>2021-04-01T09:32:29.169Z</time>
      </trkpt>
      <trkpt lat="43.1378333" lon="-2.8051956">
        <ele>253.654</ele>
        <time>2021-04-01T09:32:29.224Z</time>
      </trkpt>
      <trkpt lat="43.1378344" lon="-2.8051979">
        <ele>253.63</ele>
        <time>2021-04-01T09:32:29.279Z</time>
      </trkpt>
      <trkpt lat="43.1378354" lon="-2.8052002">
        <ele>253.615</ele>
        <time>2021-04-01T09:32:29.334Z</time>
      </trkpt>
      <trkpt lat="43.1378365" lon="-2.8052025">
        <ele>253.628</ele>
        <time>2021-04-01T09:32:29.389Z</time>
      </trkpt>
      <trkpt lat="43.1378376" lon="-2.8052048">
        <ele>253.624</ele>
        <time>2021-04-01T09:32:29.444Z</time>
      </trkpt>
      <trkpt lat="43.1378386" lon="-2.8052072">
        <ele>253.622</ele>
        <time>2021-04-01T09:32:29.499Z</time>
      </trkpt>
      <trkpt lat="43.1378399" lon="-2.80521">
        <ele>253.638</ele>
        <time>2021-04-01T09:32:29.554Z</time>
      </trkpt>
      <trkpt lat="43.1378414" lon="-2.8052123">
        <ele>253.696</ele>
        <time>2021-04-01T09:32:29.609Z</time>
      </trkpt>
      <trkpt lat="43.1378428" lon="-2.8052144">
        <ele>253.709</ele>
        <time>2021-04-01T09:32:29.664Z</time>
      </trkpt>
      <trkpt lat="43.1378445" lon="-2.8052167">
        <ele>253.791</ele>
        <time>2021-04-01T09:32:29.719Z</time>
      </trkpt>
      <trkpt lat="43.1378456" lon="-2.8052191">
        <ele>253.824</ele>
        <time>2021-04-01T09:32:29.774Z</time>
      </trkpt>
      <trkpt lat="43.1378469" lon="-2.8052214">
        <ele>253.879</ele>
        <time>2021-04-01T09:32:29.829Z</time>
      </trkpt>
      <trkpt lat="43.1378478" lon="-2.8052236">
        <ele>253.867</ele>
        <time>2021-04-01T09:32:29.884Z</time>
      </trkpt>
      <trkpt lat="43.1378489" lon="-2.805226">
        <ele>253.824</ele>
        <time>2021-04-01T09:32:29.939Z</time>
      </trkpt>
      <trkpt lat="43.1378499" lon="-2.8052287">
        <ele>253.779</ele>
        <time>2021-04-01T09:32:29.994Z</time>
      </trkpt>
      <trkpt lat="43.137851" lon="-2.805231">
        <ele>253.752</ele>
        <time>2021-04-01T09:32:30.049Z</time>
      </trkpt>
      <trkpt lat="43.1378522" lon="-2.8052336">
        <ele>253.753</ele>
        <time>2021-04-01T09:32:30.104Z</time>
      </trkpt>
      <trkpt lat="43.1378533" lon="-2.8052362">
        <ele>253.748</ele>
        <time>2021-04-01T09:32:30.159Z</time>
      </trkpt>
      <trkpt lat="43.1378543" lon="-2.8052389">
        <ele>253.731</ele>
        <time>2021-04-01T09:32:30.214Z</time>
      </trkpt>
      <trkpt lat="43.1378552" lon="-2.8052414">
        <ele>253.698</ele>
        <time>2021-04-01T09:32:30.269Z</time>
      </trkpt>
      <trkpt lat="43.1378564" lon="-2.805244">
        <ele>253.703</ele>
        <time>2021-04-01T09:32:30.324Z</time>
      </trkpt>
      <trkpt lat="43.1378576" lon="-2.8052467">
        <ele>253.708</ele>
        <time>2021-04-01T09:32:30.379Z</time>
      </trkpt>
      <trkpt lat="43.1378589" lon="-2.8052501">
        <ele>253.77</ele>
        <time>2021-04-01T09:32:30.434Z</time>
      </trkpt>
      <trkpt lat="43.1378601" lon="-2.8052533">
        <ele>253.759</ele>
        <time>2021-04-01T09:32:30.489Z</time>
      </trkpt>
      <trkpt lat="43.137861" lon="-2.8052563">
        <ele>253.725</ele>
        <time>2021-04-01T09:32:30.544Z</time>
      </trkpt>
      <trkpt lat="43.1378621" lon="-2.8052592">
        <ele>253.73</ele>
        <time>2021-04-01T09:32:30.599Z</time>
      </trkpt>
      <trkpt lat="43.1378633" lon="-2.8052621">
        <ele>253.733</ele>
        <time>2021-04-01T09:32:30.654Z</time>
      </trkpt>
      <trkpt lat="43.1378643" lon="-2.8052648">
        <ele>253.751</ele>
        <time>2021-04-01T09:32:30.709Z</time>
      </trkpt>
      <trkpt lat="43.1378648" lon="-2.8052674">
        <ele>253.742</ele>
        <time>2021-04-01T09:32:30.764Z</time>
      </trkpt>
      <trkpt lat="43.1378655" lon="-2.80527">
        <ele>253.725</ele>
        <time>2021-04-01T09:32:30.822Z</time>
      </trkpt>
      <trkpt lat="43.1378665" lon="-2.8052727">
        <ele>253.713</ele>
        <time>2021-04-01T09:32:30.880Z</time>
      </trkpt>
      <trkpt lat="43.1378674" lon="-2.8052758">
        <ele>253.67</ele>
        <time>2021-04-01T09:32:30.938Z</time>
      </trkpt>
      <trkpt lat="43.1378683" lon="-2.8052788">
        <ele>253.654</ele>
        <time>2021-04-01T09:32:30.996Z</time>
      </trkpt>
      <trkpt lat="43.1378692" lon="-2.8052813">
        <ele>253.647</ele>
        <time>2021-04-01T09:32:31.054Z</time>
      </trkpt>
      <trkpt lat="43.1378701" lon="-2.8052837">
        <ele>253.629</ele>
        <time>2021-04-01T09:32:31.112Z</time>
      </trkpt>
      <trkpt lat="43.1378709" lon="-2.8052863">
        <ele>253.593</ele>
        <time>2021-04-01T09:32:31.170Z</time>
      </trkpt>
      <trkpt lat="43.1378715" lon="-2.8052891">
        <ele>253.556</ele>
        <time>2021-04-01T09:32:31.228Z</time>
      </trkpt>
      <trkpt lat="43.1378722" lon="-2.805292">
        <ele>253.495</ele>
        <time>2021-04-01T09:32:31.286Z</time>
      </trkpt>
      <trkpt lat="43.1378732" lon="-2.805295">
        <ele>253.48</ele>
        <time>2021-04-01T09:32:31.344Z</time>
      </trkpt>
      <trkpt lat="43.1378742" lon="-2.8052979">
        <ele>253.482</ele>
        <time>2021-04-01T09:32:31.402Z</time>
      </trkpt>
      <trkpt lat="43.1378753" lon="-2.805301">
        <ele>253.458</ele>
        <time>2021-04-01T09:32:31.460Z</time>
      </trkpt>
      <trkpt lat="43.1378761" lon="-2.8053039">
        <ele>253.444</ele>
        <time>2021-04-01T09:32:31.518Z</time>
      </trkpt>
      <trkpt lat="43.137877" lon="-2.8053067">
        <ele>253.437</ele>
        <time>2021-04-01T09:32:31.576Z</time>
      </trkpt>
      <trkpt lat="43.1378776" lon="-2.8053095">
        <ele>253.406</ele>
        <time>2021-04-01T09:32:31.634Z</time>
      </trkpt>
      <trkpt lat="43.1378785" lon="-2.8053123">
        <ele>253.378</ele>
        <time>2021-04-01T09:32:31.692Z</time>
      </trkpt>
      <trkpt lat="43.1378793" lon="-2.8053151">
        <ele>253.351</ele>
        <time>2021-04-01T09:32:31.750Z</time>
      </trkpt>
      <trkpt lat="43.1378802" lon="-2.8053178">
        <ele>253.332</ele>
        <time>2021-04-01T09:32:31.809Z</time>
      </trkpt>
      <trkpt lat="43.1378809" lon="-2.8053204">
        <ele>253.29</ele>
        <time>2021-04-01T09:32:31.864Z</time>
      </trkpt>
      <trkpt lat="43.1378816" lon="-2.8053232">
        <ele>253.253</ele>
        <time>2021-04-01T09:32:31.919Z</time>
      </trkpt>
      <trkpt lat="43.1378825" lon="-2.8053261">
        <ele>253.22</ele>
        <time>2021-04-01T09:32:31.974Z</time>
      </trkpt>
      <trkpt lat="43.1378834" lon="-2.8053288">
        <ele>253.216</ele>
        <time>2021-04-01T09:32:32.029Z</time>
      </trkpt>
      <trkpt lat="43.1378843" lon="-2.8053317">
        <ele>253.221</ele>
        <time>2021-04-01T09:32:32.084Z</time>
      </trkpt>
      <trkpt lat="43.137885" lon="-2.8053346">
        <ele>253.228</ele>
        <time>2021-04-01T09:32:32.139Z</time>
      </trkpt>
      <trkpt lat="43.1378858" lon="-2.8053373">
        <ele>253.232</ele>
        <time>2021-04-01T09:32:32.194Z</time>
      </trkpt>
      <trkpt lat="43.1378868" lon="-2.80534">
        <ele>253.245</ele>
        <time>2021-04-01T09:32:32.249Z</time>
      </trkpt>
      <trkpt lat="43.1378878" lon="-2.8053428">
        <ele>253.231</ele>
        <time>2021-04-01T09:32:32.304Z</time>
      </trkpt>
      <trkpt lat="43.1378888" lon="-2.8053454">
        <ele>253.185</ele>
        <time>2021-04-01T09:32:32.359Z</time>
      </trkpt>
      <trkpt lat="43.1378895" lon="-2.8053483">
        <ele>253.152</ele>
        <time>2021-04-01T09:32:32.414Z</time>
      </trkpt>
      <trkpt lat="43.1378901" lon="-2.8053513">
        <ele>253.109</ele>
        <time>2021-04-01T09:32:32.469Z</time>
      </trkpt>
      <trkpt lat="43.1378908" lon="-2.8053542">
        <ele>253.057</ele>
        <time>2021-04-01T09:32:32.524Z</time>
      </trkpt>
      <trkpt lat="43.1378912" lon="-2.8053569">
        <ele>252.996</ele>
        <time>2021-04-01T09:32:32.579Z</time>
      </trkpt>
      <trkpt lat="43.1378917" lon="-2.8053598">
        <ele>252.962</ele>
        <time>2021-04-01T09:32:32.634Z</time>
      </trkpt>
      <trkpt lat="43.1378921" lon="-2.8053629">
        <ele>252.91</ele>
        <time>2021-04-01T09:32:32.689Z</time>
      </trkpt>
      <trkpt lat="43.1378924" lon="-2.8053661">
        <ele>252.891</ele>
        <time>2021-04-01T09:32:32.744Z</time>
      </trkpt>
      <trkpt lat="43.137893" lon="-2.805369">
        <ele>252.862</ele>
        <time>2021-04-01T09:32:32.799Z</time>
      </trkpt>
      <trkpt lat="43.1378938" lon="-2.8053719">
        <ele>252.846</ele>
        <time>2021-04-01T09:32:32.851Z</time>
      </trkpt>
      <trkpt lat="43.1378945" lon="-2.805375">
        <ele>252.861</ele>
        <time>2021-04-01T09:32:32.903Z</time>
      </trkpt>
      <trkpt lat="43.1378955" lon="-2.8053782">
        <ele>252.932</ele>
        <time>2021-04-01T09:32:32.955Z</time>
      </trkpt>
      <trkpt lat="43.1378959" lon="-2.8053811">
        <ele>252.935</ele>
        <time>2021-04-01T09:32:33.007Z</time>
      </trkpt>
      <trkpt lat="43.1378965" lon="-2.8053836">
        <ele>252.933</ele>
        <time>2021-04-01T09:32:33.059Z</time>
      </trkpt>
      <trkpt lat="43.137897" lon="-2.8053864">
        <ele>252.922</ele>
        <time>2021-04-01T09:32:33.111Z</time>
      </trkpt>
      <trkpt lat="43.1378975" lon="-2.8053889">
        <ele>252.925</ele>
        <time>2021-04-01T09:32:33.163Z</time>
      </trkpt>
      <trkpt lat="43.1378975" lon="-2.8053908">
        <ele>252.809</ele>
        <time>2021-04-01T09:32:33.215Z</time>
      </trkpt>
      <trkpt lat="43.1378972" lon="-2.8053924">
        <ele>252.684</ele>
        <time>2021-04-01T09:32:33.267Z</time>
      </trkpt>
      <trkpt lat="43.1378974" lon="-2.805395">
        <ele>252.639</ele>
        <time>2021-04-01T09:32:33.320Z</time>
      </trkpt>
      <trkpt lat="43.1378976" lon="-2.8053975">
        <ele>252.579</ele>
        <time>2021-04-01T09:32:33.372Z</time>
      </trkpt>
      <trkpt lat="43.137898" lon="-2.8054001">
        <ele>252.534</ele>
        <time>2021-04-01T09:32:33.424Z</time>
      </trkpt>
      <trkpt lat="43.1378986" lon="-2.8054026">
        <ele>252.492</ele>
        <time>2021-04-01T09:32:33.476Z</time>
      </trkpt>
      <trkpt lat="43.1378991" lon="-2.8054053">
        <ele>252.449</ele>
        <time>2021-04-01T09:32:33.528Z</time>
      </trkpt>
      <trkpt lat="43.1379" lon="-2.805408">
        <ele>252.4</ele>
        <time>2021-04-01T09:32:33.580Z</time>
      </trkpt>
      <trkpt lat="43.1379006" lon="-2.8054105">
        <ele>252.375</ele>
        <time>2021-04-01T09:32:33.632Z</time>
      </trkpt>
      <trkpt lat="43.1379012" lon="-2.8054129">
        <ele>252.34</ele>
        <time>2021-04-01T09:32:33.684Z</time>
      </trkpt>
      <trkpt lat="43.1379019" lon="-2.8054157">
        <ele>252.317</ele>
        <time>2021-04-01T09:32:33.736Z</time>
      </trkpt>
      <trkpt lat="43.1379027" lon="-2.805418">
        <ele>252.306</ele>
        <time>2021-04-01T09:32:33.789Z</time>
      </trkpt>
      <trkpt lat="43.1379035" lon="-2.8054207">
        <ele>252.281</ele>
        <time>2021-04-01T09:32:33.850Z</time>
      </trkpt>
      <trkpt lat="43.1379043" lon="-2.8054232">
        <ele>252.259</ele>
        <time>2021-04-01T09:32:33.911Z</time>
      </trkpt>
      <trkpt lat="43.1379053" lon="-2.8054258">
        <ele>252.25</ele>
        <time>2021-04-01T09:32:33.973Z</time>
      </trkpt>
      <trkpt lat="43.137906" lon="-2.8054284">
        <ele>252.23</ele>
        <time>2021-04-01T09:32:34.034Z</time>
      </trkpt>
      <trkpt lat="43.1379067" lon="-2.805431">
        <ele>252.213</ele>
        <time>2021-04-01T09:32:34.096Z</time>
      </trkpt>
      <trkpt lat="43.1379076" lon="-2.8054337">
        <ele>252.22</ele>
        <time>2021-04-01T09:32:34.157Z</time>
      </trkpt>
      <trkpt lat="43.1379085" lon="-2.8054367">
        <ele>252.233</ele>
        <time>2021-04-01T09:32:34.219Z</time>
      </trkpt>
      <trkpt lat="43.1379096" lon="-2.8054396">
        <ele>252.253</ele>
        <time>2021-04-01T09:32:34.280Z</time>
      </trkpt>
      <trkpt lat="43.1379105" lon="-2.8054423">
        <ele>252.273</ele>
        <time>2021-04-01T09:32:34.342Z</time>
      </trkpt>
      <trkpt lat="43.1379113" lon="-2.8054452">
        <ele>252.223</ele>
        <time>2021-04-01T09:32:34.403Z</time>
      </trkpt>
      <trkpt lat="43.1379123" lon="-2.8054478">
        <ele>252.18</ele>
        <time>2021-04-01T09:32:34.465Z</time>
      </trkpt>
      <trkpt lat="43.1379132" lon="-2.8054507">
        <ele>252.171</ele>
        <time>2021-04-01T09:32:34.526Z</time>
      </trkpt>
      <trkpt lat="43.1379138" lon="-2.8054533">
        <ele>252.141</ele>
        <time>2021-04-01T09:32:34.588Z</time>
      </trkpt>
      <trkpt lat="43.1379148" lon="-2.8054557">
        <ele>252.138</ele>
        <time>2021-04-01T09:32:34.649Z</time>
      </trkpt>
      <trkpt lat="43.1379156" lon="-2.8054583">
        <ele>252.138</ele>
        <time>2021-04-01T09:32:34.711Z</time>
      </trkpt>
      <trkpt lat="43.1379159" lon="-2.8054605">
        <ele>252.06</ele>
        <time>2021-04-01T09:32:34.772Z</time>
      </trkpt>
      <trkpt lat="43.1379165" lon="-2.8054626">
        <ele>251.971</ele>
        <time>2021-04-01T09:32:34.834Z</time>
      </trkpt>
      <trkpt lat="43.1379172" lon="-2.8054654">
        <ele>251.95</ele>
        <time>2021-04-01T09:32:34.883Z</time>
      </trkpt>
      <trkpt lat="43.137918" lon="-2.8054681">
        <ele>251.917</ele>
        <time>2021-04-01T09:32:34.932Z</time>
      </trkpt>
      <trkpt lat="43.1379189" lon="-2.8054705">
        <ele>251.902</ele>
        <time>2021-04-01T09:32:34.981Z</time>
      </trkpt>
      <trkpt lat="43.1379194" lon="-2.8054731">
        <ele>251.854</ele>
        <time>2021-04-01T09:32:35.030Z</time>
      </trkpt>
      <trkpt lat="43.13792" lon="-2.8054755">
        <ele>251.799</ele>
        <time>2021-04-01T09:32:35.080Z</time>
      </trkpt>
      <trkpt lat="43.1379205" lon="-2.8054781">
        <ele>251.72</ele>
        <time>2021-04-01T09:32:35.129Z</time>
      </trkpt>
      <trkpt lat="43.137921" lon="-2.8054804">
        <ele>251.634</ele>
        <time>2021-04-01T09:32:35.178Z</time>
      </trkpt>
      <trkpt lat="43.1379215" lon="-2.805483">
        <ele>251.552</ele>
        <time>2021-04-01T09:32:35.227Z</time>
      </trkpt>
      <trkpt lat="43.1379219" lon="-2.8054852">
        <ele>251.456</ele>
        <time>2021-04-01T09:32:35.276Z</time>
      </trkpt>
      <trkpt lat="43.1379226" lon="-2.8054873">
        <ele>251.316</ele>
        <time>2021-04-01T09:32:35.326Z</time>
      </trkpt>
      <trkpt lat="43.1379232" lon="-2.8054896">
        <ele>251.222</ele>
        <time>2021-04-01T09:32:35.375Z</time>
      </trkpt>
      <trkpt lat="43.1379238" lon="-2.8054922">
        <ele>251.15</ele>
        <time>2021-04-01T09:32:35.424Z</time>
      </trkpt>
      <trkpt lat="43.1379244" lon="-2.8054946">
        <ele>251.12</ele>
        <time>2021-04-01T09:32:35.473Z</time>
      </trkpt>
      <trkpt lat="43.1379253" lon="-2.8054967">
        <ele>251.082</ele>
        <time>2021-04-01T09:32:35.522Z</time>
      </trkpt>
      <trkpt lat="43.1379261" lon="-2.8054994">
        <ele>251.055</ele>
        <time>2021-04-01T09:32:35.572Z</time>
      </trkpt>
      <trkpt lat="43.1379267" lon="-2.8055012">
        <ele>250.975</ele>
        <time>2021-04-01T09:32:35.621Z</time>
      </trkpt>
      <trkpt lat="43.1379273" lon="-2.8055034">
        <ele>250.927</ele>
        <time>2021-04-01T09:32:35.670Z</time>
      </trkpt>
      <trkpt lat="43.1379279" lon="-2.8055054">
        <ele>250.89</ele>
        <time>2021-04-01T09:32:35.719Z</time>
      </trkpt>
      <trkpt lat="43.1379285" lon="-2.8055077">
        <ele>250.856</ele>
        <time>2021-04-01T09:32:35.769Z</time>
      </trkpt>
      <trkpt lat="43.1379291" lon="-2.80551">
        <ele>250.8</ele>
        <time>2021-04-01T09:32:35.827Z</time>
      </trkpt>
      <trkpt lat="43.1379298" lon="-2.8055124">
        <ele>250.712</ele>
        <time>2021-04-01T09:32:35.885Z</time>
      </trkpt>
      <trkpt lat="43.1379305" lon="-2.8055144">
        <ele>250.65</ele>
        <time>2021-04-01T09:32:35.943Z</time>
      </trkpt>
      <trkpt lat="43.1379311" lon="-2.8055168">
        <ele>250.623</ele>
        <time>2021-04-01T09:32:36.001Z</time>
      </trkpt>
      <trkpt lat="43.1379316" lon="-2.805519">
        <ele>250.563</ele>
        <time>2021-04-01T09:32:36.059Z</time>
      </trkpt>
      <trkpt lat="43.1379323" lon="-2.8055208">
        <ele>250.487</ele>
        <time>2021-04-01T09:32:36.117Z</time>
      </trkpt>
      <trkpt lat="43.1379327" lon="-2.8055227">
        <ele>250.42</ele>
        <time>2021-04-01T09:32:36.175Z</time>
      </trkpt>
      <trkpt lat="43.1379333" lon="-2.8055249">
        <ele>250.342</ele>
        <time>2021-04-01T09:32:36.233Z</time>
      </trkpt>
      <trkpt lat="43.1379339" lon="-2.805527">
        <ele>250.281</ele>
        <time>2021-04-01T09:32:36.291Z</time>
      </trkpt>
      <trkpt lat="43.1379343" lon="-2.8055291">
        <ele>250.222</ele>
        <time>2021-04-01T09:32:36.349Z</time>
      </trkpt>
      <trkpt lat="43.1379347" lon="-2.8055315">
        <ele>250.156</ele>
        <time>2021-04-01T09:32:36.407Z</time>
      </trkpt>
      <trkpt lat="43.1379353" lon="-2.8055338">
        <ele>250.078</ele>
        <time>2021-04-01T09:32:36.465Z</time>
      </trkpt>
      <trkpt lat="43.1379359" lon="-2.8055362">
        <ele>250.007</ele>
        <time>2021-04-01T09:32:36.523Z</time>
      </trkpt>
      <trkpt lat="43.1379363" lon="-2.8055385">
        <ele>249.922</ele>
        <time>2021-04-01T09:32:36.581Z</time>
      </trkpt>
      <trkpt lat="43.1379369" lon="-2.8055405">
        <ele>249.815</ele>
        <time>2021-04-01T09:32:36.639Z</time>
      </trkpt>
      <trkpt lat="43.1379376" lon="-2.8055427">
        <ele>249.758</ele>
        <time>2021-04-01T09:32:36.697Z</time>
      </trkpt>
      <trkpt lat="43.1379381" lon="-2.805545">
        <ele>249.694</ele>
        <time>2021-04-01T09:32:36.755Z</time>
      </trkpt>
      <trkpt lat="43.1379387" lon="-2.8055473">
        <ele>249.669</ele>
        <time>2021-04-01T09:32:36.814Z</time>
      </trkpt>
      <trkpt lat="43.1379391" lon="-2.8055499">
        <ele>249.668</ele>
        <time>2021-04-01T09:32:36.866Z</time>
      </trkpt>
      <trkpt lat="43.1379397" lon="-2.8055523">
        <ele>249.67</ele>
        <time>2021-04-01T09:32:36.918Z</time>
      </trkpt>
      <trkpt lat="43.1379402" lon="-2.8055542">
        <ele>249.618</ele>
        <time>2021-04-01T09:32:36.970Z</time>
      </trkpt>
      <trkpt lat="43.1379408" lon="-2.8055559">
        <ele>249.57</ele>
        <time>2021-04-01T09:32:37.022Z</time>
      </trkpt>
      <trkpt lat="43.1379414" lon="-2.8055582">
        <ele>249.561</ele>
        <time>2021-04-01T09:32:37.074Z</time>
      </trkpt>
      <trkpt lat="43.1379419" lon="-2.8055606">
        <ele>249.55</ele>
        <time>2021-04-01T09:32:37.126Z</time>
      </trkpt>
      <trkpt lat="43.1379423" lon="-2.8055627">
        <ele>249.491</ele>
        <time>2021-04-01T09:32:37.178Z</time>
      </trkpt>
      <trkpt lat="43.1379428" lon="-2.8055648">
        <ele>249.464</ele>
        <time>2021-04-01T09:32:37.230Z</time>
      </trkpt>
      <trkpt lat="43.1379434" lon="-2.8055671">
        <ele>249.449</ele>
        <time>2021-04-01T09:32:37.282Z</time>
      </trkpt>
      <trkpt lat="43.1379442" lon="-2.8055692">
        <ele>249.42</ele>
        <time>2021-04-01T09:32:37.335Z</time>
      </trkpt>
      <trkpt lat="43.1379449" lon="-2.8055714">
        <ele>249.407</ele>
        <time>2021-04-01T09:32:37.387Z</time>
      </trkpt>
      <trkpt lat="43.1379455" lon="-2.8055735">
        <ele>249.408</ele>
        <time>2021-04-01T09:32:37.439Z</time>
      </trkpt>
      <trkpt lat="43.1379461" lon="-2.8055759">
        <ele>249.401</ele>
        <time>2021-04-01T09:32:37.491Z</time>
      </trkpt>
      <trkpt lat="43.1379467" lon="-2.8055782">
        <ele>249.404</ele>
        <time>2021-04-01T09:32:37.543Z</time>
      </trkpt>
      <trkpt lat="43.1379474" lon="-2.8055805">
        <ele>249.423</ele>
        <time>2021-04-01T09:32:37.595Z</time>
      </trkpt>
      <trkpt lat="43.1379479" lon="-2.8055825">
        <ele>249.409</ele>
        <time>2021-04-01T09:32:37.647Z</time>
      </trkpt>
      <trkpt lat="43.1379482" lon="-2.8055847">
        <ele>249.368</ele>
        <time>2021-04-01T09:32:37.699Z</time>
      </trkpt>
      <trkpt lat="43.1379488" lon="-2.8055871">
        <ele>249.348</ele>
        <time>2021-04-01T09:32:37.751Z</time>
      </trkpt>
      <trkpt lat="43.1379493" lon="-2.8055892">
        <ele>249.301</ele>
        <time>2021-04-01T09:32:37.804Z</time>
      </trkpt>
      <trkpt lat="43.1379497" lon="-2.8055915">
        <ele>249.287</ele>
        <time>2021-04-01T09:32:37.862Z</time>
      </trkpt>
      <trkpt lat="43.1379501" lon="-2.8055938">
        <ele>249.289</ele>
        <time>2021-04-01T09:32:37.920Z</time>
      </trkpt>
      <trkpt lat="43.1379511" lon="-2.8055961">
        <ele>249.332</ele>
        <time>2021-04-01T09:32:37.978Z</time>
      </trkpt>
      <trkpt lat="43.1379514" lon="-2.8055984">
        <ele>249.329</ele>
        <time>2021-04-01T09:32:38.036Z</time>
      </trkpt>
      <trkpt lat="43.1379516" lon="-2.8056006">
        <ele>249.33</ele>
        <time>2021-04-01T09:32:38.095Z</time>
      </trkpt>
      <trkpt lat="43.137952" lon="-2.8056025">
        <ele>249.303</ele>
        <time>2021-04-01T09:32:38.153Z</time>
      </trkpt>
      <trkpt lat="43.1379526" lon="-2.8056044">
        <ele>249.286</ele>
        <time>2021-04-01T09:32:38.211Z</time>
      </trkpt>
      <trkpt lat="43.137953" lon="-2.8056065">
        <ele>249.257</ele>
        <time>2021-04-01T09:32:38.269Z</time>
      </trkpt>
      <trkpt lat="43.1379535" lon="-2.8056083">
        <ele>249.232</ele>
        <time>2021-04-01T09:32:38.328Z</time>
      </trkpt>
      <trkpt lat="43.137954" lon="-2.8056102">
        <ele>249.23</ele>
        <time>2021-04-01T09:32:38.386Z</time>
      </trkpt>
      <trkpt lat="43.1379549" lon="-2.8056122">
        <ele>249.228</ele>
        <time>2021-04-01T09:32:38.444Z</time>
      </trkpt>
      <trkpt lat="43.1379557" lon="-2.8056142">
        <ele>249.199</ele>
        <time>2021-04-01T09:32:38.502Z</time>
      </trkpt>
      <trkpt lat="43.137956" lon="-2.805616">
        <ele>249.124</ele>
        <time>2021-04-01T09:32:38.561Z</time>
      </trkpt>
      <trkpt lat="43.1379564" lon="-2.8056173">
        <ele>249.028</ele>
        <time>2021-04-01T09:32:38.619Z</time>
      </trkpt>
      <trkpt lat="43.137957" lon="-2.8056191">
        <ele>248.977</ele>
        <time>2021-04-01T09:32:38.677Z</time>
      </trkpt>
      <trkpt lat="43.1379574" lon="-2.805621">
        <ele>248.941</ele>
        <time>2021-04-01T09:32:38.735Z</time>
      </trkpt>
      <trkpt lat="43.1379579" lon="-2.8056232">
        <ele>248.916</ele>
        <time>2021-04-01T09:32:38.794Z</time>
      </trkpt>
      <trkpt lat="43.1379585" lon="-2.8056252">
        <ele>248.88</ele>
        <time>2021-04-01T09:32:38.846Z</time>
      </trkpt>
      <trkpt lat="43.1379591" lon="-2.8056274">
        <ele>248.883</ele>
        <time>2021-04-01T09:32:38.898Z</time>
      </trkpt>
      <trkpt lat="43.1379597" lon="-2.8056295">
        <ele>248.89</ele>
        <time>2021-04-01T09:32:38.950Z</time>
      </trkpt>
      <trkpt lat="43.1379605" lon="-2.8056316">
        <ele>248.886</ele>
        <time>2021-04-01T09:32:39.002Z</time>
      </trkpt>
      <trkpt lat="43.1379613" lon="-2.8056336">
        <ele>248.874</ele>
        <time>2021-04-01T09:32:39.054Z</time>
      </trkpt>
      <trkpt lat="43.1379618" lon="-2.8056357">
        <ele>248.822</ele>
        <time>2021-04-01T09:32:39.106Z</time>
      </trkpt>
      <trkpt lat="43.1379624" lon="-2.8056377">
        <ele>248.785</ele>
        <time>2021-04-01T09:32:39.158Z</time>
      </trkpt>
      <trkpt lat="43.137963" lon="-2.8056399">
        <ele>248.778</ele>
        <time>2021-04-01T09:32:39.210Z</time>
      </trkpt>
      <trkpt lat="43.1379637" lon="-2.8056419">
        <ele>248.768</ele>
        <time>2021-04-01T09:32:39.262Z</time>
      </trkpt>
      <trkpt lat="43.1379645" lon="-2.8056441">
        <ele>248.755</ele>
        <time>2021-04-01T09:32:39.315Z</time>
      </trkpt>
      <trkpt lat="43.1379652" lon="-2.8056465">
        <ele>248.787</ele>
        <time>2021-04-01T09:32:39.367Z</time>
      </trkpt>
      <trkpt lat="43.1379658" lon="-2.8056488">
        <ele>248.793</ele>
        <time>2021-04-01T09:32:39.419Z</time>
      </trkpt>
      <trkpt lat="43.1379665" lon="-2.8056511">
        <ele>248.764</ele>
        <time>2021-04-01T09:32:39.471Z</time>
      </trkpt>
      <trkpt lat="43.1379669" lon="-2.8056533">
        <ele>248.765</ele>
        <time>2021-04-01T09:32:39.523Z</time>
      </trkpt>
      <trkpt lat="43.1379677" lon="-2.8056553">
        <ele>248.768</ele>
        <time>2021-04-01T09:32:39.575Z</time>
      </trkpt>
      <trkpt lat="43.137969" lon="-2.8056575">
        <ele>248.814</ele>
        <time>2021-04-01T09:32:39.627Z</time>
      </trkpt>
      <trkpt lat="43.1379697" lon="-2.8056601">
        <ele>248.845</ele>
        <time>2021-04-01T09:32:39.679Z</time>
      </trkpt>
      <trkpt lat="43.1379705" lon="-2.8056626">
        <ele>248.856</ele>
        <time>2021-04-01T09:32:39.731Z</time>
      </trkpt>
      <trkpt lat="43.1379713" lon="-2.8056651">
        <ele>248.866</ele>
        <time>2021-04-01T09:32:39.784Z</time>
      </trkpt>
      <trkpt lat="43.1379719" lon="-2.8056673">
        <ele>248.866</ele>
        <time>2021-04-01T09:32:39.842Z</time>
      </trkpt>
      <trkpt lat="43.1379722" lon="-2.8056695">
        <ele>248.854</ele>
        <time>2021-04-01T09:32:39.900Z</time>
      </trkpt>
      <trkpt lat="43.1379726" lon="-2.8056714">
        <ele>248.818</ele>
        <time>2021-04-01T09:32:39.958Z</time>
      </trkpt>
      <trkpt lat="43.1379728" lon="-2.8056735">
        <ele>248.763</ele>
        <time>2021-04-01T09:32:40.016Z</time>
      </trkpt>
      <trkpt lat="43.1379731" lon="-2.8056755">
        <ele>248.685</ele>
        <time>2021-04-01T09:32:40.074Z</time>
      </trkpt>
      <trkpt lat="43.1379738" lon="-2.8056774">
        <ele>248.637</ele>
        <time>2021-04-01T09:32:40.132Z</time>
      </trkpt>
      <trkpt lat="43.1379747" lon="-2.8056789">
        <ele>248.583</ele>
        <time>2021-04-01T09:32:40.190Z</time>
      </trkpt>
      <trkpt lat="43.1379753" lon="-2.805681">
        <ele>248.569</ele>
        <time>2021-04-01T09:32:40.248Z</time>
      </trkpt>
      <trkpt lat="43.137976" lon="-2.8056835">
        <ele>248.579</ele>
        <time>2021-04-01T09:32:40.306Z</time>
      </trkpt>
      <trkpt lat="43.1379768" lon="-2.8056856">
        <ele>248.54</ele>
        <time>2021-04-01T09:32:40.364Z</time>
      </trkpt>
      <trkpt lat="43.1379776" lon="-2.8056876">
        <ele>248.507</ele>
        <time>2021-04-01T09:32:40.422Z</time>
      </trkpt>
      <trkpt lat="43.1379784" lon="-2.8056897">
        <ele>248.458</ele>
        <time>2021-04-01T09:32:40.480Z</time>
      </trkpt>
      <trkpt lat="43.1379792" lon="-2.8056917">
        <ele>248.426</ele>
        <time>2021-04-01T09:32:40.538Z</time>
      </trkpt>
      <trkpt lat="43.13798" lon="-2.8056934">
        <ele>248.421</ele>
        <time>2021-04-01T09:32:40.596Z</time>
      </trkpt>
      <trkpt lat="43.1379808" lon="-2.8056954">
        <ele>248.377</ele>
        <time>2021-04-01T09:32:40.654Z</time>
      </trkpt>
      <trkpt lat="43.1379813" lon="-2.8056971">
        <ele>248.315</ele>
        <time>2021-04-01T09:32:40.712Z</time>
      </trkpt>
      <trkpt lat="43.1379822" lon="-2.8056996">
        <ele>248.334</ele>
        <time>2021-04-01T09:32:40.770Z</time>
      </trkpt>
      <trkpt lat="43.1379828" lon="-2.8057015">
        <ele>248.301</ele>
        <time>2021-04-01T09:32:40.829Z</time>
      </trkpt>
      <trkpt lat="43.1379837" lon="-2.805704">
        <ele>248.351</ele>
        <time>2021-04-01T09:32:40.884Z</time>
      </trkpt>
      <trkpt lat="43.1379845" lon="-2.8057064">
        <ele>248.345</ele>
        <time>2021-04-01T09:32:40.939Z</time>
      </trkpt>
      <trkpt lat="43.137985" lon="-2.8057074">
        <ele>248.21</ele>
        <time>2021-04-01T09:32:40.994Z</time>
      </trkpt>
      <trkpt lat="43.1379852" lon="-2.8057081">
        <ele>248.032</ele>
        <time>2021-04-01T09:32:41.049Z</time>
      </trkpt>
      <trkpt lat="43.1379859" lon="-2.80571">
        <ele>248.003</ele>
        <time>2021-04-01T09:32:41.104Z</time>
      </trkpt>
      <trkpt lat="43.1379864" lon="-2.8057119">
        <ele>248</ele>
        <time>2021-04-01T09:32:41.159Z</time>
      </trkpt>
      <trkpt lat="43.1379871" lon="-2.8057137">
        <ele>247.936</ele>
        <time>2021-04-01T09:32:41.214Z</time>
      </trkpt>
      <trkpt lat="43.1379876" lon="-2.8057155">
        <ele>247.866</ele>
        <time>2021-04-01T09:32:41.269Z</time>
      </trkpt>
      <trkpt lat="43.1379885" lon="-2.8057174">
        <ele>247.798</ele>
        <time>2021-04-01T09:32:41.324Z</time>
      </trkpt>
      <trkpt lat="43.1379895" lon="-2.8057186">
        <ele>247.717</ele>
        <time>2021-04-01T09:32:41.379Z</time>
      </trkpt>
      <trkpt lat="43.1379905" lon="-2.8057203">
        <ele>247.641</ele>
        <time>2021-04-01T09:32:41.434Z</time>
      </trkpt>
      <trkpt lat="43.1379912" lon="-2.8057222">
        <ele>247.618</ele>
        <time>2021-04-01T09:32:41.489Z</time>
      </trkpt>
      <trkpt lat="43.1379918" lon="-2.8057245">
        <ele>247.582</ele>
        <time>2021-04-01T09:32:41.544Z</time>
      </trkpt>
      <trkpt lat="43.1379923" lon="-2.8057265">
        <ele>247.52</ele>
        <time>2021-04-01T09:32:41.599Z</time>
      </trkpt>
      <trkpt lat="43.137993" lon="-2.8057285">
        <ele>247.468</ele>
        <time>2021-04-01T09:32:41.654Z</time>
      </trkpt>
      <trkpt lat="43.1379937" lon="-2.8057305">
        <ele>247.42</ele>
        <time>2021-04-01T09:32:41.709Z</time>
      </trkpt>
      <trkpt lat="43.1379944" lon="-2.8057327">
        <ele>247.374</ele>
        <time>2021-04-01T09:32:41.764Z</time>
      </trkpt>
      <trkpt lat="43.1379945" lon="-2.8057345">
        <ele>247.295</ele>
        <time>2021-04-01T09:32:41.819Z</time>
      </trkpt>
      <trkpt lat="43.137995" lon="-2.8057366">
        <ele>247.259</ele>
        <time>2021-04-01T09:32:41.874Z</time>
      </trkpt>
      <trkpt lat="43.1379956" lon="-2.8057387">
        <ele>247.234</ele>
        <time>2021-04-01T09:32:41.929Z</time>
      </trkpt>
      <trkpt lat="43.1379963" lon="-2.805741">
        <ele>247.205</ele>
        <time>2021-04-01T09:32:41.984Z</time>
      </trkpt>
      <trkpt lat="43.1379971" lon="-2.8057431">
        <ele>247.172</ele>
        <time>2021-04-01T09:32:42.039Z</time>
      </trkpt>
      <trkpt lat="43.1379977" lon="-2.8057457">
        <ele>247.145</ele>
        <time>2021-04-01T09:32:42.094Z</time>
      </trkpt>
      <trkpt lat="43.1379982" lon="-2.8057476">
        <ele>247.075</ele>
        <time>2021-04-01T09:32:42.149Z</time>
      </trkpt>
      <trkpt lat="43.1379983" lon="-2.8057502">
        <ele>247.039</ele>
        <time>2021-04-01T09:32:42.204Z</time>
      </trkpt>
      <trkpt lat="43.1379992" lon="-2.8057519">
        <ele>246.994</ele>
        <time>2021-04-01T09:32:42.259Z</time>
      </trkpt>
      <trkpt lat="43.1379996" lon="-2.8057542">
        <ele>246.956</ele>
        <time>2021-04-01T09:32:42.314Z</time>
      </trkpt>
      <trkpt lat="43.1380003" lon="-2.8057566">
        <ele>246.948</ele>
        <time>2021-04-01T09:32:42.369Z</time>
      </trkpt>
      <trkpt lat="43.1380011" lon="-2.8057589">
        <ele>246.954</ele>
        <time>2021-04-01T09:32:42.424Z</time>
      </trkpt>
      <trkpt lat="43.1380017" lon="-2.8057609">
        <ele>246.943</ele>
        <time>2021-04-01T09:32:42.479Z</time>
      </trkpt>
      <trkpt lat="43.1380022" lon="-2.8057631">
        <ele>246.912</ele>
        <time>2021-04-01T09:32:42.534Z</time>
      </trkpt>
      <trkpt lat="43.1380029" lon="-2.8057654">
        <ele>246.888</ele>
        <time>2021-04-01T09:32:42.589Z</time>
      </trkpt>
      <trkpt lat="43.1380036" lon="-2.805768">
        <ele>246.892</ele>
        <time>2021-04-01T09:32:42.644Z</time>
      </trkpt>
      <trkpt lat="43.1380042" lon="-2.8057702">
        <ele>246.865</ele>
        <time>2021-04-01T09:32:42.699Z</time>
      </trkpt>
      <trkpt lat="43.1380049" lon="-2.8057723">
        <ele>246.831</ele>
        <time>2021-04-01T09:32:42.754Z</time>
      </trkpt>
      <trkpt lat="43.1380057" lon="-2.8057744">
        <ele>246.814</ele>
        <time>2021-04-01T09:32:42.809Z</time>
      </trkpt>
      <trkpt lat="43.1380062" lon="-2.8057767">
        <ele>246.778</ele>
        <time>2021-04-01T09:32:42.867Z</time>
      </trkpt>
      <trkpt lat="43.1380071" lon="-2.8057795">
        <ele>246.807</ele>
        <time>2021-04-01T09:32:42.925Z</time>
      </trkpt>
      <trkpt lat="43.1380079" lon="-2.8057817">
        <ele>246.786</ele>
        <time>2021-04-01T09:32:42.983Z</time>
      </trkpt>
      <trkpt lat="43.1380087" lon="-2.805784">
        <ele>246.795</ele>
        <time>2021-04-01T09:32:43.041Z</time>
      </trkpt>
      <trkpt lat="43.1380095" lon="-2.8057867">
        <ele>246.799</ele>
        <time>2021-04-01T09:32:43.099Z</time>
      </trkpt>
      <trkpt lat="43.1380103" lon="-2.8057889">
        <ele>246.763</ele>
        <time>2021-04-01T09:32:43.157Z</time>
      </trkpt>
      <trkpt lat="43.1380109" lon="-2.8057912">
        <ele>246.732</ele>
        <time>2021-04-01T09:32:43.215Z</time>
      </trkpt>
      <trkpt lat="43.1380117" lon="-2.8057936">
        <ele>246.698</ele>
        <time>2021-04-01T09:32:43.273Z</time>
      </trkpt>
      <trkpt lat="43.1380125" lon="-2.8057959">
        <ele>246.682</ele>
        <time>2021-04-01T09:32:43.331Z</time>
      </trkpt>
      <trkpt lat="43.138013" lon="-2.8057982">
        <ele>246.649</ele>
        <time>2021-04-01T09:32:43.389Z</time>
      </trkpt>
      <trkpt lat="43.1380136" lon="-2.8058002">
        <ele>246.578</ele>
        <time>2021-04-01T09:32:43.447Z</time>
      </trkpt>
      <trkpt lat="43.1380143" lon="-2.8058023">
        <ele>246.562</ele>
        <time>2021-04-01T09:32:43.505Z</time>
      </trkpt>
      <trkpt lat="43.1380148" lon="-2.8058047">
        <ele>246.542</ele>
        <time>2021-04-01T09:32:43.563Z</time>
      </trkpt>
      <trkpt lat="43.1380153" lon="-2.8058071">
        <ele>246.545</ele>
        <time>2021-04-01T09:32:43.621Z</time>
      </trkpt>
      <trkpt lat="43.138016" lon="-2.8058092">
        <ele>246.531</ele>
        <time>2021-04-01T09:32:43.679Z</time>
      </trkpt>
      <trkpt lat="43.1380166" lon="-2.8058114">
        <ele>246.5</ele>
        <time>2021-04-01T09:32:43.737Z</time>
      </trkpt>
      <trkpt lat="43.1380169" lon="-2.8058135">
        <ele>246.447</ele>
        <time>2021-04-01T09:32:43.795Z</time>
      </trkpt>
      <trkpt lat="43.1380176" lon="-2.8058159">
        <ele>246.444</ele>
        <time>2021-04-01T09:32:43.854Z</time>
      </trkpt>
      <trkpt lat="43.138018" lon="-2.8058184">
        <ele>246.431</ele>
        <time>2021-04-01T09:32:43.903Z</time>
      </trkpt>
      <trkpt lat="43.1380186" lon="-2.805822">
        <ele>246.583</ele>
        <time>2021-04-01T09:32:43.952Z</time>
      </trkpt>
      <trkpt lat="43.1380193" lon="-2.805825">
        <ele>246.698</ele>
        <time>2021-04-01T09:32:44.001Z</time>
      </trkpt>
      <trkpt lat="43.1380205" lon="-2.8058281">
        <ele>246.761</ele>
        <time>2021-04-01T09:32:44.050Z</time>
      </trkpt>
      <trkpt lat="43.1380215" lon="-2.8058309">
        <ele>246.789</ele>
        <time>2021-04-01T09:32:44.100Z</time>
      </trkpt>
      <trkpt lat="43.1380225" lon="-2.8058339">
        <ele>246.856</ele>
        <time>2021-04-01T09:32:44.149Z</time>
      </trkpt>
      <trkpt lat="43.1380232" lon="-2.8058363">
        <ele>246.819</ele>
        <time>2021-04-01T09:32:44.198Z</time>
      </trkpt>
      <trkpt lat="43.1380241" lon="-2.8058388">
        <ele>246.814</ele>
        <time>2021-04-01T09:32:44.247Z</time>
      </trkpt>
      <trkpt lat="43.1380249" lon="-2.8058414">
        <ele>246.797</ele>
        <time>2021-04-01T09:32:44.296Z</time>
      </trkpt>
      <trkpt lat="43.1380259" lon="-2.8058437">
        <ele>246.786</ele>
        <time>2021-04-01T09:32:44.346Z</time>
      </trkpt>
      <trkpt lat="43.1380268" lon="-2.8058459">
        <ele>246.741</ele>
        <time>2021-04-01T09:32:44.395Z</time>
      </trkpt>
      <trkpt lat="43.1380277" lon="-2.8058482">
        <ele>246.715</ele>
        <time>2021-04-01T09:32:44.444Z</time>
      </trkpt>
      <trkpt lat="43.1380284" lon="-2.8058504">
        <ele>246.668</ele>
        <time>2021-04-01T09:32:44.493Z</time>
      </trkpt>
      <trkpt lat="43.1380292" lon="-2.8058528">
        <ele>246.66</ele>
        <time>2021-04-01T09:32:44.542Z</time>
      </trkpt>
      <trkpt lat="43.1380302" lon="-2.8058552">
        <ele>246.674</ele>
        <time>2021-04-01T09:32:44.592Z</time>
      </trkpt>
      <trkpt lat="43.1380309" lon="-2.8058576">
        <ele>246.633</ele>
        <time>2021-04-01T09:32:44.641Z</time>
      </trkpt>
      <trkpt lat="43.1380317" lon="-2.8058603">
        <ele>246.623</ele>
        <time>2021-04-01T09:32:44.690Z</time>
      </trkpt>
      <trkpt lat="43.1380324" lon="-2.8058629">
        <ele>246.594</ele>
        <time>2021-04-01T09:32:44.739Z</time>
      </trkpt>
      <trkpt lat="43.1380332" lon="-2.8058651">
        <ele>246.576</ele>
        <time>2021-04-01T09:32:44.789Z</time>
      </trkpt>
      <trkpt lat="43.1380338" lon="-2.8058675">
        <ele>246.579</ele>
        <time>2021-04-01T09:32:44.847Z</time>
      </trkpt>
      <trkpt lat="43.1380344" lon="-2.8058697">
        <ele>246.513</ele>
        <time>2021-04-01T09:32:44.905Z</time>
      </trkpt>
      <trkpt lat="43.1380351" lon="-2.8058719">
        <ele>246.46</ele>
        <time>2021-04-01T09:32:44.963Z</time>
      </trkpt>
      <trkpt lat="43.1380358" lon="-2.8058743">
        <ele>246.391</ele>
        <time>2021-04-01T09:32:45.021Z</time>
      </trkpt>
      <trkpt lat="43.1380365" lon="-2.8058767">
        <ele>246.324</ele>
        <time>2021-04-01T09:32:45.079Z</time>
      </trkpt>
      <trkpt lat="43.1380371" lon="-2.8058787">
        <ele>246.235</ele>
        <time>2021-04-01T09:32:45.137Z</time>
      </trkpt>
      <trkpt lat="43.1380377" lon="-2.8058805">
        <ele>246.187</ele>
        <time>2021-04-01T09:32:45.195Z</time>
      </trkpt>
      <trkpt lat="43.1380383" lon="-2.8058831">
        <ele>246.151</ele>
        <time>2021-04-01T09:32:45.253Z</time>
      </trkpt>
      <trkpt lat="43.1380387" lon="-2.8058858">
        <ele>246.082</ele>
        <time>2021-04-01T09:32:45.311Z</time>
      </trkpt>
      <trkpt lat="43.1380394" lon="-2.8058884">
        <ele>246.07</ele>
        <time>2021-04-01T09:32:45.369Z</time>
      </trkpt>
      <trkpt lat="43.1380403" lon="-2.8058908">
        <ele>246.078</ele>
        <time>2021-04-01T09:32:45.427Z</time>
      </trkpt>
      <trkpt lat="43.1380412" lon="-2.8058932">
        <ele>246.057</ele>
        <time>2021-04-01T09:32:45.485Z</time>
      </trkpt>
      <trkpt lat="43.1380419" lon="-2.8058957">
        <ele>245.997</ele>
        <time>2021-04-01T09:32:45.543Z</time>
      </trkpt>
      <trkpt lat="43.1380426" lon="-2.8058985">
        <ele>246</ele>
        <time>2021-04-01T09:32:45.601Z</time>
      </trkpt>
      <trkpt lat="43.1380435" lon="-2.8059012">
        <ele>246.02</ele>
        <time>2021-04-01T09:32:45.659Z</time>
      </trkpt>
      <trkpt lat="43.1380441" lon="-2.8059041">
        <ele>246.045</ele>
        <time>2021-04-01T09:32:45.717Z</time>
      </trkpt>
      <trkpt lat="43.1380449" lon="-2.8059067">
        <ele>246.025</ele>
        <time>2021-04-01T09:32:45.775Z</time>
      </trkpt>
      <trkpt lat="43.1380457" lon="-2.8059092">
        <ele>246.02</ele>
        <time>2021-04-01T09:32:45.834Z</time>
      </trkpt>
      <trkpt lat="43.1380462" lon="-2.8059116">
        <ele>245.936</ele>
        <time>2021-04-01T09:32:45.889Z</time>
      </trkpt>
      <trkpt lat="43.138047" lon="-2.8059141">
        <ele>245.919</ele>
        <time>2021-04-01T09:32:45.944Z</time>
      </trkpt>
      <trkpt lat="43.1380478" lon="-2.8059166">
        <ele>245.955</ele>
        <time>2021-04-01T09:32:45.999Z</time>
      </trkpt>
      <trkpt lat="43.1380486" lon="-2.8059193">
        <ele>245.964</ele>
        <time>2021-04-01T09:32:46.054Z</time>
      </trkpt>
      <trkpt lat="43.1380491" lon="-2.8059222">
        <ele>245.932</ele>
        <time>2021-04-01T09:32:46.109Z</time>
      </trkpt>
      <trkpt lat="43.1380499" lon="-2.8059249">
        <ele>245.939</ele>
        <time>2021-04-01T09:32:46.164Z</time>
      </trkpt>
      <trkpt lat="43.1380509" lon="-2.8059274">
        <ele>245.953</ele>
        <time>2021-04-01T09:32:46.219Z</time>
      </trkpt>
      <trkpt lat="43.1380517" lon="-2.8059298">
        <ele>245.914</ele>
        <time>2021-04-01T09:32:46.274Z</time>
      </trkpt>
      <trkpt lat="43.1380529" lon="-2.8059331">
        <ele>245.989</ele>
        <time>2021-04-01T09:32:46.329Z</time>
      </trkpt>
      <trkpt lat="43.1380539" lon="-2.8059363">
        <ele>246.025</ele>
        <time>2021-04-01T09:32:46.384Z</time>
      </trkpt>
      <trkpt lat="43.138055" lon="-2.8059393">
        <ele>246.079</ele>
        <time>2021-04-01T09:32:46.439Z</time>
      </trkpt>
      <trkpt lat="43.1380561" lon="-2.8059422">
        <ele>246.135</ele>
        <time>2021-04-01T09:32:46.494Z</time>
      </trkpt>
      <trkpt lat="43.1380571" lon="-2.8059459">
        <ele>246.253</ele>
        <time>2021-04-01T09:32:46.549Z</time>
      </trkpt>
      <trkpt lat="43.1380581" lon="-2.8059493">
        <ele>246.334</ele>
        <time>2021-04-01T09:32:46.604Z</time>
      </trkpt>
      <trkpt lat="43.1380589" lon="-2.8059517">
        <ele>246.272</ele>
        <time>2021-04-01T09:32:46.659Z</time>
      </trkpt>
      <trkpt lat="43.1380597" lon="-2.805955">
        <ele>246.313</ele>
        <time>2021-04-01T09:32:46.714Z</time>
      </trkpt>
      <trkpt lat="43.1380607" lon="-2.8059586">
        <ele>246.436</ele>
        <time>2021-04-01T09:32:46.769Z</time>
      </trkpt>
      <trkpt lat="43.1380618" lon="-2.8059625">
        <ele>246.59</ele>
        <time>2021-04-01T09:32:46.824Z</time>
      </trkpt>
      <trkpt lat="43.1380626" lon="-2.805966">
        <ele>246.685</ele>
        <time>2021-04-01T09:32:46.879Z</time>
      </trkpt>
      <trkpt lat="43.1380637" lon="-2.8059693">
        <ele>246.735</ele>
        <time>2021-04-01T09:32:46.934Z</time>
      </trkpt>
      <trkpt lat="43.1380647" lon="-2.8059728">
        <ele>246.779</ele>
        <time>2021-04-01T09:32:46.989Z</time>
      </trkpt>
      <trkpt lat="43.1380654" lon="-2.8059768">
        <ele>246.889</ele>
        <time>2021-04-01T09:32:47.044Z</time>
      </trkpt>
      <trkpt lat="43.1380663" lon="-2.8059802">
        <ele>246.935</ele>
        <time>2021-04-01T09:32:47.099Z</time>
      </trkpt>
      <trkpt lat="43.1380672" lon="-2.8059838">
        <ele>247.017</ele>
        <time>2021-04-01T09:32:47.154Z</time>
      </trkpt>
      <trkpt lat="43.1380681" lon="-2.8059869">
        <ele>247.048</ele>
        <time>2021-04-01T09:32:47.209Z</time>
      </trkpt>
      <trkpt lat="43.1380686" lon="-2.8059898">
        <ele>247.046</ele>
        <time>2021-04-01T09:32:47.264Z</time>
      </trkpt>
      <trkpt lat="43.1380695" lon="-2.805993">
        <ele>247.086</ele>
        <time>2021-04-01T09:32:47.319Z</time>
      </trkpt>
      <trkpt lat="43.1380702" lon="-2.8059967">
        <ele>247.138</ele>
        <time>2021-04-01T09:32:47.374Z</time>
      </trkpt>
      <trkpt lat="43.1380712" lon="-2.8060003">
        <ele>247.225</ele>
        <time>2021-04-01T09:32:47.429Z</time>
      </trkpt>
      <trkpt lat="43.138072" lon="-2.8060034">
        <ele>247.253</ele>
        <time>2021-04-01T09:32:47.484Z</time>
      </trkpt>
      <trkpt lat="43.1380729" lon="-2.8060069">
        <ele>247.291</ele>
        <time>2021-04-01T09:32:47.539Z</time>
      </trkpt>
      <trkpt lat="43.1380738" lon="-2.8060104">
        <ele>247.324</ele>
        <time>2021-04-01T09:32:47.594Z</time>
      </trkpt>
      <trkpt lat="43.1380743" lon="-2.8060136">
        <ele>247.341</ele>
        <time>2021-04-01T09:32:47.649Z</time>
      </trkpt>
      <trkpt lat="43.1380748" lon="-2.8060166">
        <ele>247.322</ele>
        <time>2021-04-01T09:32:47.704Z</time>
      </trkpt>
      <trkpt lat="43.138075" lon="-2.8060194">
        <ele>247.297</ele>
        <time>2021-04-01T09:32:47.759Z</time>
      </trkpt>
      <trkpt lat="43.1380757" lon="-2.8060228">
        <ele>247.319</ele>
        <time>2021-04-01T09:32:47.814Z</time>
      </trkpt>
      <trkpt lat="43.1380761" lon="-2.8060257">
        <ele>247.264</ele>
        <time>2021-04-01T09:32:47.869Z</time>
      </trkpt>
      <trkpt lat="43.1380769" lon="-2.8060288">
        <ele>247.26</ele>
        <time>2021-04-01T09:32:47.924Z</time>
      </trkpt>
      <trkpt lat="43.1380775" lon="-2.8060323">
        <ele>247.255</ele>
        <time>2021-04-01T09:32:47.979Z</time>
      </trkpt>
      <trkpt lat="43.1380783" lon="-2.8060357">
        <ele>247.285</ele>
        <time>2021-04-01T09:32:48.034Z</time>
      </trkpt>
      <trkpt lat="43.1380791" lon="-2.8060391">
        <ele>247.33</ele>
        <time>2021-04-01T09:32:48.089Z</time>
      </trkpt>
      <trkpt lat="43.1380799" lon="-2.8060422">
        <ele>247.301</ele>
        <time>2021-04-01T09:32:48.144Z</time>
      </trkpt>
      <trkpt lat="43.1380808" lon="-2.8060455">
        <ele>247.315</ele>
        <time>2021-04-01T09:32:48.199Z</time>
      </trkpt>
      <trkpt lat="43.1380815" lon="-2.8060486">
        <ele>247.311</ele>
        <time>2021-04-01T09:32:48.254Z</time>
      </trkpt>
      <trkpt lat="43.1380822" lon="-2.8060518">
        <ele>247.309</ele>
        <time>2021-04-01T09:32:48.309Z</time>
      </trkpt>
      <trkpt lat="43.1380831" lon="-2.8060551">
        <ele>247.323</ele>
        <time>2021-04-01T09:32:48.364Z</time>
      </trkpt>
      <trkpt lat="43.138084" lon="-2.8060585">
        <ele>247.387</ele>
        <time>2021-04-01T09:32:48.419Z</time>
      </trkpt>
      <trkpt lat="43.1380851" lon="-2.8060619">
        <ele>247.46</ele>
        <time>2021-04-01T09:32:48.474Z</time>
      </trkpt>
      <trkpt lat="43.1380861" lon="-2.8060652">
        <ele>247.545</ele>
        <time>2021-04-01T09:32:48.529Z</time>
      </trkpt>
      <trkpt lat="43.138087" lon="-2.8060687">
        <ele>247.603</ele>
        <time>2021-04-01T09:32:48.584Z</time>
      </trkpt>
      <trkpt lat="43.138088" lon="-2.8060721">
        <ele>247.63</ele>
        <time>2021-04-01T09:32:48.639Z</time>
      </trkpt>
      <trkpt lat="43.1380889" lon="-2.8060753">
        <ele>247.63</ele>
        <time>2021-04-01T09:32:48.694Z</time>
      </trkpt>
      <trkpt lat="43.1380892" lon="-2.8060781">
        <ele>247.594</ele>
        <time>2021-04-01T09:32:48.749Z</time>
      </trkpt>
      <trkpt lat="43.1380896" lon="-2.8060809">
        <ele>247.596</ele>
        <time>2021-04-01T09:32:48.804Z</time>
      </trkpt>
      <trkpt lat="43.1380902" lon="-2.8060841">
        <ele>247.578</ele>
        <time>2021-04-01T09:32:48.859Z</time>
      </trkpt>
      <trkpt lat="43.1380906" lon="-2.8060868">
        <ele>247.526</ele>
        <time>2021-04-01T09:32:48.914Z</time>
      </trkpt>
      <trkpt lat="43.1380917" lon="-2.8060901">
        <ele>247.537</ele>
        <time>2021-04-01T09:32:48.969Z</time>
      </trkpt>
      <trkpt lat="43.1380927" lon="-2.8060933">
        <ele>247.547</ele>
        <time>2021-04-01T09:32:49.024Z</time>
      </trkpt>
      <trkpt lat="43.1380937" lon="-2.8060968">
        <ele>247.549</ele>
        <time>2021-04-01T09:32:49.079Z</time>
      </trkpt>
      <trkpt lat="43.1380946" lon="-2.8061">
        <ele>247.548</ele>
        <time>2021-04-01T09:32:49.134Z</time>
      </trkpt>
      <trkpt lat="43.1380955" lon="-2.8061031">
        <ele>247.538</ele>
        <time>2021-04-01T09:32:49.189Z</time>
      </trkpt>
      <trkpt lat="43.1380964" lon="-2.8061064">
        <ele>247.538</ele>
        <time>2021-04-01T09:32:49.244Z</time>
      </trkpt>
      <trkpt lat="43.1380972" lon="-2.8061096">
        <ele>247.516</ele>
        <time>2021-04-01T09:32:49.299Z</time>
      </trkpt>
      <trkpt lat="43.1380984" lon="-2.806113">
        <ele>247.517</ele>
        <time>2021-04-01T09:32:49.354Z</time>
      </trkpt>
      <trkpt lat="43.1380995" lon="-2.8061165">
        <ele>247.505</ele>
        <time>2021-04-01T09:32:49.409Z</time>
      </trkpt>
      <trkpt lat="43.1381002" lon="-2.8061196">
        <ele>247.492</ele>
        <time>2021-04-01T09:32:49.464Z</time>
      </trkpt>
      <trkpt lat="43.1381015" lon="-2.8061229">
        <ele>247.511</ele>
        <time>2021-04-01T09:32:49.519Z</time>
      </trkpt>
      <trkpt lat="43.1381029" lon="-2.8061264">
        <ele>247.521</ele>
        <time>2021-04-01T09:32:49.574Z</time>
      </trkpt>
      <trkpt lat="43.1381035" lon="-2.8061296">
        <ele>247.491</ele>
        <time>2021-04-01T09:32:49.629Z</time>
      </trkpt>
      <trkpt lat="43.1381043" lon="-2.8061326">
        <ele>247.519</ele>
        <time>2021-04-01T09:32:49.684Z</time>
      </trkpt>
      <trkpt lat="43.1381052" lon="-2.8061359">
        <ele>247.529</ele>
        <time>2021-04-01T09:32:49.739Z</time>
      </trkpt>
      <trkpt lat="43.1381062" lon="-2.806139">
        <ele>247.52</ele>
        <time>2021-04-01T09:32:49.794Z</time>
      </trkpt>
      <trkpt lat="43.1381073" lon="-2.8061421">
        <ele>247.511</ele>
        <time>2021-04-01T09:32:49.846Z</time>
      </trkpt>
      <trkpt lat="43.1381083" lon="-2.8061451">
        <ele>247.479</ele>
        <time>2021-04-01T09:32:49.898Z</time>
      </trkpt>
      <trkpt lat="43.1381092" lon="-2.806148">
        <ele>247.455</ele>
        <time>2021-04-01T09:32:49.950Z</time>
      </trkpt>
      <trkpt lat="43.1381101" lon="-2.8061511">
        <ele>247.432</ele>
        <time>2021-04-01T09:32:50.002Z</time>
      </trkpt>
      <trkpt lat="43.1381109" lon="-2.8061542">
        <ele>247.398</ele>
        <time>2021-04-01T09:32:50.054Z</time>
      </trkpt>
      <trkpt lat="43.1381118" lon="-2.8061572">
        <ele>247.355</ele>
        <time>2021-04-01T09:32:50.106Z</time>
      </trkpt>
      <trkpt lat="43.1381128" lon="-2.8061604">
        <ele>247.327</ele>
        <time>2021-04-01T09:32:50.158Z</time>
      </trkpt>
      <trkpt lat="43.1381135" lon="-2.8061635">
        <ele>247.278</ele>
        <time>2021-04-01T09:32:50.210Z</time>
      </trkpt>
      <trkpt lat="43.1381144" lon="-2.8061666">
        <ele>247.242</ele>
        <time>2021-04-01T09:32:50.262Z</time>
      </trkpt>
      <trkpt lat="43.1381153" lon="-2.8061699">
        <ele>247.236</ele>
        <time>2021-04-01T09:32:50.315Z</time>
      </trkpt>
      <trkpt lat="43.1381163" lon="-2.806173">
        <ele>247.225</ele>
        <time>2021-04-01T09:32:50.367Z</time>
      </trkpt>
      <trkpt lat="43.1381173" lon="-2.8061761">
        <ele>247.227</ele>
        <time>2021-04-01T09:32:50.419Z</time>
      </trkpt>
      <trkpt lat="43.1381182" lon="-2.8061794">
        <ele>247.209</ele>
        <time>2021-04-01T09:32:50.471Z</time>
      </trkpt>
      <trkpt lat="43.1381192" lon="-2.8061826">
        <ele>247.166</ele>
        <time>2021-04-01T09:32:50.523Z</time>
      </trkpt>
      <trkpt lat="43.1381203" lon="-2.8061859">
        <ele>247.165</ele>
        <time>2021-04-01T09:32:50.575Z</time>
      </trkpt>
      <trkpt lat="43.1381211" lon="-2.8061893">
        <ele>247.148</ele>
        <time>2021-04-01T09:32:50.627Z</time>
      </trkpt>
      <trkpt lat="43.138122" lon="-2.8061924">
        <ele>247.15</ele>
        <time>2021-04-01T09:32:50.679Z</time>
      </trkpt>
      <trkpt lat="43.1381232" lon="-2.8061951">
        <ele>247.127</ele>
        <time>2021-04-01T09:32:50.731Z</time>
      </trkpt>
      <trkpt lat="43.138124" lon="-2.8061983">
        <ele>247.101</ele>
        <time>2021-04-01T09:32:50.784Z</time>
      </trkpt>
      <trkpt lat="43.1381249" lon="-2.8062018">
        <ele>247.093</ele>
        <time>2021-04-01T09:32:50.842Z</time>
      </trkpt>
      <trkpt lat="43.1381259" lon="-2.8062051">
        <ele>247.124</ele>
        <time>2021-04-01T09:32:50.900Z</time>
      </trkpt>
      <trkpt lat="43.138127" lon="-2.8062086">
        <ele>247.134</ele>
        <time>2021-04-01T09:32:50.958Z</time>
      </trkpt>
      <trkpt lat="43.138128" lon="-2.8062119">
        <ele>247.138</ele>
        <time>2021-04-01T09:32:51.016Z</time>
      </trkpt>
      <trkpt lat="43.138129" lon="-2.8062152">
        <ele>247.134</ele>
        <time>2021-04-01T09:32:51.074Z</time>
      </trkpt>
      <trkpt lat="43.1381302" lon="-2.8062184">
        <ele>247.151</ele>
        <time>2021-04-01T09:32:51.132Z</time>
      </trkpt>
      <trkpt lat="43.1381313" lon="-2.8062216">
        <ele>247.142</ele>
        <time>2021-04-01T09:32:51.190Z</time>
      </trkpt>
      <trkpt lat="43.1381324" lon="-2.8062246">
        <ele>247.145</ele>
        <time>2021-04-01T09:32:51.248Z</time>
      </trkpt>
      <trkpt lat="43.1381336" lon="-2.8062275">
        <ele>247.14</ele>
        <time>2021-04-01T09:32:51.306Z</time>
      </trkpt>
      <trkpt lat="43.1381349" lon="-2.8062306">
        <ele>247.096</ele>
        <time>2021-04-01T09:32:51.364Z</time>
      </trkpt>
      <trkpt lat="43.1381362" lon="-2.8062334">
        <ele>247.103</ele>
        <time>2021-04-01T09:32:51.422Z</time>
      </trkpt>
      <trkpt lat="43.1381374" lon="-2.8062367">
        <ele>247.112</ele>
        <time>2021-04-01T09:32:51.480Z</time>
      </trkpt>
      <trkpt lat="43.1381388" lon="-2.8062399">
        <ele>247.128</ele>
        <time>2021-04-01T09:32:51.538Z</time>
      </trkpt>
      <trkpt lat="43.1381399" lon="-2.8062424">
        <ele>247.063</ele>
        <time>2021-04-01T09:32:51.596Z</time>
      </trkpt>
      <trkpt lat="43.1381415" lon="-2.8062459">
        <ele>247.117</ele>
        <time>2021-04-01T09:32:51.654Z</time>
      </trkpt>
      <trkpt lat="43.1381427" lon="-2.8062491">
        <ele>247.087</ele>
        <time>2021-04-01T09:32:51.712Z</time>
      </trkpt>
      <trkpt lat="43.1381438" lon="-2.8062522">
        <ele>247.049</ele>
        <time>2021-04-01T09:32:51.770Z</time>
      </trkpt>
      <trkpt lat="43.1381448" lon="-2.8062552">
        <ele>247.027</ele>
        <time>2021-04-01T09:32:51.829Z</time>
      </trkpt>
      <trkpt lat="43.138146" lon="-2.8062584">
        <ele>247.018</ele>
        <time>2021-04-01T09:32:51.884Z</time>
      </trkpt>
      <trkpt lat="43.1381475" lon="-2.8062619">
        <ele>247.059</ele>
        <time>2021-04-01T09:32:51.939Z</time>
      </trkpt>
      <trkpt lat="43.1381487" lon="-2.8062651">
        <ele>247.02</ele>
        <time>2021-04-01T09:32:51.994Z</time>
      </trkpt>
      <trkpt lat="43.13815" lon="-2.8062684">
        <ele>247.029</ele>
        <time>2021-04-01T09:32:52.049Z</time>
      </trkpt>
      <trkpt lat="43.1381514" lon="-2.8062719">
        <ele>247.052</ele>
        <time>2021-04-01T09:32:52.104Z</time>
      </trkpt>
      <trkpt lat="43.1381524" lon="-2.8062756">
        <ele>247.055</ele>
        <time>2021-04-01T09:32:52.159Z</time>
      </trkpt>
      <trkpt lat="43.1381536" lon="-2.8062793">
        <ele>247.072</ele>
        <time>2021-04-01T09:32:52.214Z</time>
      </trkpt>
      <trkpt lat="43.1381547" lon="-2.8062827">
        <ele>247.06</ele>
        <time>2021-04-01T09:32:52.269Z</time>
      </trkpt>
      <trkpt lat="43.1381559" lon="-2.8062858">
        <ele>247.028</ele>
        <time>2021-04-01T09:32:52.324Z</time>
      </trkpt>
      <trkpt lat="43.1381571" lon="-2.8062891">
        <ele>247.002</ele>
        <time>2021-04-01T09:32:52.379Z</time>
      </trkpt>
      <trkpt lat="43.1381583" lon="-2.8062924">
        <ele>246.986</ele>
        <time>2021-04-01T09:32:52.434Z</time>
      </trkpt>
      <trkpt lat="43.1381594" lon="-2.8062963">
        <ele>247.024</ele>
        <time>2021-04-01T09:32:52.489Z</time>
      </trkpt>
      <trkpt lat="43.1381605" lon="-2.8063">
        <ele>247.023</ele>
        <time>2021-04-01T09:32:52.544Z</time>
      </trkpt>
      <trkpt lat="43.1381618" lon="-2.8063033">
        <ele>246.974</ele>
        <time>2021-04-01T09:32:52.599Z</time>
      </trkpt>
      <trkpt lat="43.138163" lon="-2.806307">
        <ele>246.978</ele>
        <time>2021-04-01T09:32:52.654Z</time>
      </trkpt>
      <trkpt lat="43.1381643" lon="-2.8063103">
        <ele>246.956</ele>
        <time>2021-04-01T09:32:52.709Z</time>
      </trkpt>
      <trkpt lat="43.1381656" lon="-2.806314">
        <ele>246.993</ele>
        <time>2021-04-01T09:32:52.764Z</time>
      </trkpt>
      <trkpt lat="43.1381669" lon="-2.8063176">
        <ele>246.986</ele>
        <time>2021-04-01T09:32:52.819Z</time>
      </trkpt>
      <trkpt lat="43.1381682" lon="-2.8063211">
        <ele>246.962</ele>
        <time>2021-04-01T09:32:52.874Z</time>
      </trkpt>
      <trkpt lat="43.1381694" lon="-2.8063246">
        <ele>246.931</ele>
        <time>2021-04-01T09:32:52.929Z</time>
      </trkpt>
      <trkpt lat="43.1381705" lon="-2.8063284">
        <ele>246.912</ele>
        <time>2021-04-01T09:32:52.984Z</time>
      </trkpt>
      <trkpt lat="43.1381719" lon="-2.8063322">
        <ele>246.931</ele>
        <time>2021-04-01T09:32:53.039Z</time>
      </trkpt>
      <trkpt lat="43.1381733" lon="-2.806336">
        <ele>246.95</ele>
        <time>2021-04-01T09:32:53.094Z</time>
      </trkpt>
      <trkpt lat="43.1381743" lon="-2.8063396">
        <ele>246.909</ele>
        <time>2021-04-01T09:32:53.149Z</time>
      </trkpt>
      <trkpt lat="43.1381755" lon="-2.8063434">
        <ele>246.908</ele>
        <time>2021-04-01T09:32:53.204Z</time>
      </trkpt>
      <trkpt lat="43.1381767" lon="-2.8063473">
        <ele>246.901</ele>
        <time>2021-04-01T09:32:53.259Z</time>
      </trkpt>
      <trkpt lat="43.1381779" lon="-2.8063513">
        <ele>246.887</ele>
        <time>2021-04-01T09:32:53.314Z</time>
      </trkpt>
      <trkpt lat="43.1381791" lon="-2.8063553">
        <ele>246.903</ele>
        <time>2021-04-01T09:32:53.369Z</time>
      </trkpt>
      <trkpt lat="43.1381805" lon="-2.8063592">
        <ele>246.913</ele>
        <time>2021-04-01T09:32:53.424Z</time>
      </trkpt>
      <trkpt lat="43.1381819" lon="-2.8063632">
        <ele>246.939</ele>
        <time>2021-04-01T09:32:53.479Z</time>
      </trkpt>
      <trkpt lat="43.1381832" lon="-2.8063669">
        <ele>246.921</ele>
        <time>2021-04-01T09:32:53.534Z</time>
      </trkpt>
      <trkpt lat="43.1381847" lon="-2.806371">
        <ele>246.971</ele>
        <time>2021-04-01T09:32:53.589Z</time>
      </trkpt>
      <trkpt lat="43.1381859" lon="-2.806375">
        <ele>246.958</ele>
        <time>2021-04-01T09:32:53.644Z</time>
      </trkpt>
      <trkpt lat="43.1381871" lon="-2.8063788">
        <ele>246.964</ele>
        <time>2021-04-01T09:32:53.699Z</time>
      </trkpt>
      <trkpt lat="43.1381885" lon="-2.8063827">
        <ele>246.958</ele>
        <time>2021-04-01T09:32:53.754Z</time>
      </trkpt>
      <trkpt lat="43.13819" lon="-2.8063867">
        <ele>246.96</ele>
        <time>2021-04-01T09:32:53.809Z</time>
      </trkpt>
      <trkpt lat="43.1381912" lon="-2.8063906">
        <ele>246.936</ele>
        <time>2021-04-01T09:32:53.861Z</time>
      </trkpt>
      <trkpt lat="43.1381925" lon="-2.8063945">
        <ele>246.915</ele>
        <time>2021-04-01T09:32:53.913Z</time>
      </trkpt>
      <trkpt lat="43.1381937" lon="-2.8063985">
        <ele>246.94</ele>
        <time>2021-04-01T09:32:53.965Z</time>
      </trkpt>
      <trkpt lat="43.1381952" lon="-2.8064026">
        <ele>246.944</ele>
        <time>2021-04-01T09:32:54.017Z</time>
      </trkpt>
      <trkpt lat="43.1381966" lon="-2.8064065">
        <ele>246.904</ele>
        <time>2021-04-01T09:32:54.069Z</time>
      </trkpt>
      <trkpt lat="43.1381979" lon="-2.8064106">
        <ele>246.897</ele>
        <time>2021-04-01T09:32:54.121Z</time>
      </trkpt>
      <trkpt lat="43.1381993" lon="-2.8064148">
        <ele>246.936</ele>
        <time>2021-04-01T09:32:54.173Z</time>
      </trkpt>
      <trkpt lat="43.1382008" lon="-2.8064187">
        <ele>246.925</ele>
        <time>2021-04-01T09:32:54.225Z</time>
      </trkpt>
      <trkpt lat="43.1382022" lon="-2.8064226">
        <ele>246.909</ele>
        <time>2021-04-01T09:32:54.277Z</time>
      </trkpt>
      <trkpt lat="43.1382036" lon="-2.8064267">
        <ele>246.897</ele>
        <time>2021-04-01T09:32:54.330Z</time>
      </trkpt>
      <trkpt lat="43.1382049" lon="-2.8064311">
        <ele>246.894</ele>
        <time>2021-04-01T09:32:54.382Z</time>
      </trkpt>
      <trkpt lat="43.1382061" lon="-2.806435">
        <ele>246.907</ele>
        <time>2021-04-01T09:32:54.434Z</time>
      </trkpt>
      <trkpt lat="43.1382075" lon="-2.8064391">
        <ele>246.895</ele>
        <time>2021-04-01T09:32:54.486Z</time>
      </trkpt>
      <trkpt lat="43.1382088" lon="-2.8064432">
        <ele>246.902</ele>
        <time>2021-04-01T09:32:54.538Z</time>
      </trkpt>
      <trkpt lat="43.1382101" lon="-2.8064475">
        <ele>246.888</ele>
        <time>2021-04-01T09:32:54.590Z</time>
      </trkpt>
      <trkpt lat="43.1382116" lon="-2.806452">
        <ele>246.878</ele>
        <time>2021-04-01T09:32:54.642Z</time>
      </trkpt>
      <trkpt lat="43.138213" lon="-2.8064561">
        <ele>246.871</ele>
        <time>2021-04-01T09:32:54.694Z</time>
      </trkpt>
      <trkpt lat="43.1382143" lon="-2.8064602">
        <ele>246.861</ele>
        <time>2021-04-01T09:32:54.746Z</time>
      </trkpt>
      <trkpt lat="43.1382157" lon="-2.8064645">
        <ele>246.868</ele>
        <time>2021-04-01T09:32:54.799Z</time>
      </trkpt>
      <trkpt lat="43.1382172" lon="-2.8064686">
        <ele>246.849</ele>
        <time>2021-04-01T09:32:54.857Z</time>
      </trkpt>
      <trkpt lat="43.1382188" lon="-2.8064731">
        <ele>246.871</ele>
        <time>2021-04-01T09:32:54.915Z</time>
      </trkpt>
      <trkpt lat="43.13822" lon="-2.8064773">
        <ele>246.843</ele>
        <time>2021-04-01T09:32:54.973Z</time>
      </trkpt>
      <trkpt lat="43.1382212" lon="-2.8064815">
        <ele>246.829</ele>
        <time>2021-04-01T09:32:55.031Z</time>
      </trkpt>
      <trkpt lat="43.1382227" lon="-2.8064858">
        <ele>246.841</ele>
        <time>2021-04-01T09:32:55.089Z</time>
      </trkpt>
      <trkpt lat="43.1382241" lon="-2.8064903">
        <ele>246.847</ele>
        <time>2021-04-01T09:32:55.147Z</time>
      </trkpt>
      <trkpt lat="43.1382257" lon="-2.8064947">
        <ele>246.863</ele>
        <time>2021-04-01T09:32:55.205Z</time>
      </trkpt>
      <trkpt lat="43.1382273" lon="-2.8064988">
        <ele>246.852</ele>
        <time>2021-04-01T09:32:55.263Z</time>
      </trkpt>
      <trkpt lat="43.1382289" lon="-2.8065031">
        <ele>246.849</ele>
        <time>2021-04-01T09:32:55.321Z</time>
      </trkpt>
      <trkpt lat="43.1382305" lon="-2.8065076">
        <ele>246.843</ele>
        <time>2021-04-01T09:32:55.379Z</time>
      </trkpt>
      <trkpt lat="43.138232" lon="-2.8065119">
        <ele>246.829</ele>
        <time>2021-04-01T09:32:55.437Z</time>
      </trkpt>
      <trkpt lat="43.1382333" lon="-2.8065163">
        <ele>246.814</ele>
        <time>2021-04-01T09:32:55.495Z</time>
      </trkpt>
      <trkpt lat="43.1382347" lon="-2.8065206">
        <ele>246.794</ele>
        <time>2021-04-01T09:32:55.553Z</time>
      </trkpt>
      <trkpt lat="43.1382361" lon="-2.806525">
        <ele>246.788</ele>
        <time>2021-04-01T09:32:55.611Z</time>
      </trkpt>
      <trkpt lat="43.1382375" lon="-2.8065293">
        <ele>246.793</ele>
        <time>2021-04-01T09:32:55.669Z</time>
      </trkpt>
      <trkpt lat="43.138239" lon="-2.8065337">
        <ele>246.773</ele>
        <time>2021-04-01T09:32:55.727Z</time>
      </trkpt>
      <trkpt lat="43.1382407" lon="-2.8065382">
        <ele>246.769</ele>
        <time>2021-04-01T09:32:55.785Z</time>
      </trkpt>
      <trkpt lat="43.1382422" lon="-2.8065426">
        <ele>246.76</ele>
        <time>2021-04-01T09:32:55.844Z</time>
      </trkpt>
      <trkpt lat="43.1382438" lon="-2.8065473">
        <ele>246.757</ele>
        <time>2021-04-01T09:32:55.899Z</time>
      </trkpt>
      <trkpt lat="43.1382454" lon="-2.8065518">
        <ele>246.744</ele>
        <time>2021-04-01T09:32:55.954Z</time>
      </trkpt>
      <trkpt lat="43.1382469" lon="-2.8065561">
        <ele>246.74</ele>
        <time>2021-04-01T09:32:56.009Z</time>
      </trkpt>
      <trkpt lat="43.1382483" lon="-2.8065604">
        <ele>246.734</ele>
        <time>2021-04-01T09:32:56.064Z</time>
      </trkpt>
      <trkpt lat="43.1382497" lon="-2.8065649">
        <ele>246.71</ele>
        <time>2021-04-01T09:32:56.119Z</time>
      </trkpt>
      <trkpt lat="43.1382514" lon="-2.8065694">
        <ele>246.697</ele>
        <time>2021-04-01T09:32:56.174Z</time>
      </trkpt>
      <trkpt lat="43.1382529" lon="-2.8065739">
        <ele>246.704</ele>
        <time>2021-04-01T09:32:56.229Z</time>
      </trkpt>
      <trkpt lat="43.1382543" lon="-2.8065784">
        <ele>246.694</ele>
        <time>2021-04-01T09:32:56.284Z</time>
      </trkpt>
      <trkpt lat="43.1382558" lon="-2.8065829">
        <ele>246.681</ele>
        <time>2021-04-01T09:32:56.339Z</time>
      </trkpt>
      <trkpt lat="43.1382575" lon="-2.8065874">
        <ele>246.67</ele>
        <time>2021-04-01T09:32:56.394Z</time>
      </trkpt>
      <trkpt lat="43.1382588" lon="-2.8065918">
        <ele>246.653</ele>
        <time>2021-04-01T09:32:56.449Z</time>
      </trkpt>
      <trkpt lat="43.1382599" lon="-2.8065961">
        <ele>246.612</ele>
        <time>2021-04-01T09:32:56.504Z</time>
      </trkpt>
      <trkpt lat="43.1382612" lon="-2.8066005">
        <ele>246.578</ele>
        <time>2021-04-01T09:32:56.559Z</time>
      </trkpt>
      <trkpt lat="43.1382627" lon="-2.806605">
        <ele>246.537</ele>
        <time>2021-04-01T09:32:56.614Z</time>
      </trkpt>
      <trkpt lat="43.1382639" lon="-2.8066093">
        <ele>246.49</ele>
        <time>2021-04-01T09:32:56.669Z</time>
      </trkpt>
      <trkpt lat="43.1382654" lon="-2.8066136">
        <ele>246.467</ele>
        <time>2021-04-01T09:32:56.724Z</time>
      </trkpt>
      <trkpt lat="43.1382668" lon="-2.8066179">
        <ele>246.423</ele>
        <time>2021-04-01T09:32:56.779Z</time>
      </trkpt>
      <trkpt lat="43.1382684" lon="-2.8066223">
        <ele>246.363</ele>
        <time>2021-04-01T09:32:56.834Z</time>
      </trkpt>
      <trkpt lat="43.1382698" lon="-2.8066267">
        <ele>246.368</ele>
        <time>2021-04-01T09:32:56.889Z</time>
      </trkpt>
      <trkpt lat="43.138271" lon="-2.8066312">
        <ele>246.335</ele>
        <time>2021-04-01T09:32:56.944Z</time>
      </trkpt>
      <trkpt lat="43.1382726" lon="-2.806636">
        <ele>246.313</ele>
        <time>2021-04-01T09:32:56.999Z</time>
      </trkpt>
      <trkpt lat="43.1382742" lon="-2.8066407">
        <ele>246.305</ele>
        <time>2021-04-01T09:32:57.054Z</time>
      </trkpt>
      <trkpt lat="43.1382756" lon="-2.8066451">
        <ele>246.254</ele>
        <time>2021-04-01T09:32:57.109Z</time>
      </trkpt>
      <trkpt lat="43.1382769" lon="-2.8066497">
        <ele>246.201</ele>
        <time>2021-04-01T09:32:57.164Z</time>
      </trkpt>
      <trkpt lat="43.1382783" lon="-2.8066543">
        <ele>246.177</ele>
        <time>2021-04-01T09:32:57.219Z</time>
      </trkpt>
      <trkpt lat="43.1382799" lon="-2.806659">
        <ele>246.173</ele>
        <time>2021-04-01T09:32:57.274Z</time>
      </trkpt>
      <trkpt lat="43.1382811" lon="-2.8066635">
        <ele>246.136</ele>
        <time>2021-04-01T09:32:57.329Z</time>
      </trkpt>
      <trkpt lat="43.1382827" lon="-2.8066681">
        <ele>246.085</ele>
        <time>2021-04-01T09:32:57.384Z</time>
      </trkpt>
      <trkpt lat="43.1382844" lon="-2.8066731">
        <ele>246.095</ele>
        <time>2021-04-01T09:32:57.439Z</time>
      </trkpt>
      <trkpt lat="43.1382859" lon="-2.8066777">
        <ele>246.071</ele>
        <time>2021-04-01T09:32:57.494Z</time>
      </trkpt>
      <trkpt lat="43.1382875" lon="-2.8066821">
        <ele>246.044</ele>
        <time>2021-04-01T09:32:57.549Z</time>
      </trkpt>
      <trkpt lat="43.138289" lon="-2.8066867">
        <ele>246.017</ele>
        <time>2021-04-01T09:32:57.604Z</time>
      </trkpt>
      <trkpt lat="43.1382906" lon="-2.8066915">
        <ele>246.008</ele>
        <time>2021-04-01T09:32:57.659Z</time>
      </trkpt>
      <trkpt lat="43.1382923" lon="-2.8066961">
        <ele>245.956</ele>
        <time>2021-04-01T09:32:57.714Z</time>
      </trkpt>
      <trkpt lat="43.1382939" lon="-2.8067005">
        <ele>245.927</ele>
        <time>2021-04-01T09:32:57.769Z</time>
      </trkpt>
      <trkpt lat="43.1382957" lon="-2.8067054">
        <ele>245.936</ele>
        <time>2021-04-01T09:32:57.824Z</time>
      </trkpt>
      <trkpt lat="43.1382974" lon="-2.8067103">
        <ele>245.921</ele>
        <time>2021-04-01T09:32:57.879Z</time>
      </trkpt>
      <trkpt lat="43.138299" lon="-2.8067149">
        <ele>245.895</ele>
        <time>2021-04-01T09:32:57.934Z</time>
      </trkpt>
      <trkpt lat="43.1383009" lon="-2.8067194">
        <ele>245.875</ele>
        <time>2021-04-01T09:32:57.989Z</time>
      </trkpt>
      <trkpt lat="43.1383025" lon="-2.8067242">
        <ele>245.833</ele>
        <time>2021-04-01T09:32:58.044Z</time>
      </trkpt>
      <trkpt lat="43.1383039" lon="-2.8067289">
        <ele>245.797</ele>
        <time>2021-04-01T09:32:58.099Z</time>
      </trkpt>
      <trkpt lat="43.1383057" lon="-2.8067341">
        <ele>245.827</ele>
        <time>2021-04-01T09:32:58.154Z</time>
      </trkpt>
      <trkpt lat="43.1383077" lon="-2.806739">
        <ele>245.833</ele>
        <time>2021-04-01T09:32:58.209Z</time>
      </trkpt>
      <trkpt lat="43.1383094" lon="-2.8067437">
        <ele>245.806</ele>
        <time>2021-04-01T09:32:58.264Z</time>
      </trkpt>
      <trkpt lat="43.138311" lon="-2.8067485">
        <ele>245.769</ele>
        <time>2021-04-01T09:32:58.319Z</time>
      </trkpt>
      <trkpt lat="43.1383125" lon="-2.8067534">
        <ele>245.726</ele>
        <time>2021-04-01T09:32:58.374Z</time>
      </trkpt>
      <trkpt lat="43.1383145" lon="-2.8067587">
        <ele>245.75</ele>
        <time>2021-04-01T09:32:58.429Z</time>
      </trkpt>
      <trkpt lat="43.138316" lon="-2.8067634">
        <ele>245.729</ele>
        <time>2021-04-01T09:32:58.484Z</time>
      </trkpt>
      <trkpt lat="43.1383178" lon="-2.8067683">
        <ele>245.701</ele>
        <time>2021-04-01T09:32:58.539Z</time>
      </trkpt>
      <trkpt lat="43.1383197" lon="-2.8067734">
        <ele>245.694</ele>
        <time>2021-04-01T09:32:58.594Z</time>
      </trkpt>
      <trkpt lat="43.1383217" lon="-2.8067786">
        <ele>245.688</ele>
        <time>2021-04-01T09:32:58.649Z</time>
      </trkpt>
      <trkpt lat="43.1383234" lon="-2.8067837">
        <ele>245.686</ele>
        <time>2021-04-01T09:32:58.704Z</time>
      </trkpt>
      <trkpt lat="43.138325" lon="-2.8067885">
        <ele>245.658</ele>
        <time>2021-04-01T09:32:58.759Z</time>
      </trkpt>
      <trkpt lat="43.1383265" lon="-2.8067932">
        <ele>245.615</ele>
        <time>2021-04-01T09:32:58.814Z</time>
      </trkpt>
      <trkpt lat="43.1383282" lon="-2.8067981">
        <ele>245.584</ele>
        <time>2021-04-01T09:32:58.869Z</time>
      </trkpt>
      <trkpt lat="43.1383302" lon="-2.8068031">
        <ele>245.57</ele>
        <time>2021-04-01T09:32:58.924Z</time>
      </trkpt>
      <trkpt lat="43.138332" lon="-2.806808">
        <ele>245.542</ele>
        <time>2021-04-01T09:32:58.979Z</time>
      </trkpt>
      <trkpt lat="43.138334" lon="-2.8068131">
        <ele>245.557</ele>
        <time>2021-04-01T09:32:59.034Z</time>
      </trkpt>
      <trkpt lat="43.1383361" lon="-2.8068186">
        <ele>245.604</ele>
        <time>2021-04-01T09:32:59.089Z</time>
      </trkpt>
      <trkpt lat="43.1383378" lon="-2.8068236">
        <ele>245.572</ele>
        <time>2021-04-01T09:32:59.144Z</time>
      </trkpt>
      <trkpt lat="43.1383398" lon="-2.8068287">
        <ele>245.563</ele>
        <time>2021-04-01T09:32:59.199Z</time>
      </trkpt>
      <trkpt lat="43.1383419" lon="-2.8068333">
        <ele>245.576</ele>
        <time>2021-04-01T09:32:59.254Z</time>
      </trkpt>
      <trkpt lat="43.138344" lon="-2.8068383">
        <ele>245.596</ele>
        <time>2021-04-01T09:32:59.309Z</time>
      </trkpt>
      <trkpt lat="43.1383457" lon="-2.8068435">
        <ele>245.549</ele>
        <time>2021-04-01T09:32:59.364Z</time>
      </trkpt>
      <trkpt lat="43.1383475" lon="-2.8068488">
        <ele>245.528</ele>
        <time>2021-04-01T09:32:59.419Z</time>
      </trkpt>
      <trkpt lat="43.1383497" lon="-2.8068539">
        <ele>245.536</ele>
        <time>2021-04-01T09:32:59.474Z</time>
      </trkpt>
      <trkpt lat="43.1383513" lon="-2.8068588">
        <ele>245.494</ele>
        <time>2021-04-01T09:32:59.529Z</time>
      </trkpt>
      <trkpt lat="43.1383531" lon="-2.8068638">
        <ele>245.46</ele>
        <time>2021-04-01T09:32:59.584Z</time>
      </trkpt>
      <trkpt lat="43.138355" lon="-2.8068689">
        <ele>245.444</ele>
        <time>2021-04-01T09:32:59.639Z</time>
      </trkpt>
      <trkpt lat="43.1383573" lon="-2.8068741">
        <ele>245.461</ele>
        <time>2021-04-01T09:32:59.694Z</time>
      </trkpt>
      <trkpt lat="43.1383594" lon="-2.8068794">
        <ele>245.456</ele>
        <time>2021-04-01T09:32:59.749Z</time>
      </trkpt>
      <trkpt lat="43.1383613" lon="-2.8068848">
        <ele>245.442</ele>
        <time>2021-04-01T09:32:59.804Z</time>
      </trkpt>
      <trkpt lat="43.138363" lon="-2.8068898">
        <ele>245.406</ele>
        <time>2021-04-01T09:32:59.859Z</time>
      </trkpt>
      <trkpt lat="43.1383647" lon="-2.8068948">
        <ele>245.358</ele>
        <time>2021-04-01T09:32:59.914Z</time>
      </trkpt>
      <trkpt lat="43.1383664" lon="-2.8068999">
        <ele>245.309</ele>
        <time>2021-04-01T09:32:59.969Z</time>
      </trkpt>
      <trkpt lat="43.1383682" lon="-2.806905">
        <ele>245.284</ele>
        <time>2021-04-01T09:33:00.024Z</time>
      </trkpt>
      <trkpt lat="43.1383702" lon="-2.80691">
        <ele>245.239</ele>
        <time>2021-04-01T09:33:00.079Z</time>
      </trkpt>
      <trkpt lat="43.138372" lon="-2.8069151">
        <ele>245.185</ele>
        <time>2021-04-01T09:33:00.134Z</time>
      </trkpt>
      <trkpt lat="43.1383738" lon="-2.8069203">
        <ele>245.138</ele>
        <time>2021-04-01T09:33:00.189Z</time>
      </trkpt>
      <trkpt lat="43.1383754" lon="-2.8069256">
        <ele>245.117</ele>
        <time>2021-04-01T09:33:00.244Z</time>
      </trkpt>
      <trkpt lat="43.1383769" lon="-2.8069309">
        <ele>245.071</ele>
        <time>2021-04-01T09:33:00.299Z</time>
      </trkpt>
      <trkpt lat="43.1383788" lon="-2.8069361">
        <ele>245.019</ele>
        <time>2021-04-01T09:33:00.354Z</time>
      </trkpt>
      <trkpt lat="43.138381" lon="-2.8069414">
        <ele>245.02</ele>
        <time>2021-04-01T09:33:00.409Z</time>
      </trkpt>
      <trkpt lat="43.1383832" lon="-2.8069468">
        <ele>245.028</ele>
        <time>2021-04-01T09:33:00.464Z</time>
      </trkpt>
      <trkpt lat="43.1383855" lon="-2.8069524">
        <ele>245.041</ele>
        <time>2021-04-01T09:33:00.519Z</time>
      </trkpt>
      <trkpt lat="43.1383874" lon="-2.8069578">
        <ele>245.013</ele>
        <time>2021-04-01T09:33:00.574Z</time>
      </trkpt>
      <trkpt lat="43.1383891" lon="-2.8069629">
        <ele>244.938</ele>
        <time>2021-04-01T09:33:00.629Z</time>
      </trkpt>
      <trkpt lat="43.1383909" lon="-2.8069682">
        <ele>244.915</ele>
        <time>2021-04-01T09:33:00.684Z</time>
      </trkpt>
      <trkpt lat="43.1383927" lon="-2.8069736">
        <ele>244.876</ele>
        <time>2021-04-01T09:33:00.739Z</time>
      </trkpt>
      <trkpt lat="43.1383947" lon="-2.8069789">
        <ele>244.86</ele>
        <time>2021-04-01T09:33:00.794Z</time>
      </trkpt>
      <trkpt lat="43.1383965" lon="-2.8069844">
        <ele>244.835</ele>
        <time>2021-04-01T09:33:00.849Z</time>
      </trkpt>
      <trkpt lat="43.1383985" lon="-2.8069897">
        <ele>244.809</ele>
        <time>2021-04-01T09:33:00.904Z</time>
      </trkpt>
      <trkpt lat="43.1384005" lon="-2.8069952">
        <ele>244.781</ele>
        <time>2021-04-01T09:33:00.959Z</time>
      </trkpt>
      <trkpt lat="43.1384022" lon="-2.8070004">
        <ele>244.741</ele>
        <time>2021-04-01T09:33:01.014Z</time>
      </trkpt>
      <trkpt lat="43.1384041" lon="-2.8070058">
        <ele>244.709</ele>
        <time>2021-04-01T09:33:01.069Z</time>
      </trkpt>
      <trkpt lat="43.1384059" lon="-2.8070113">
        <ele>244.672</ele>
        <time>2021-04-01T09:33:01.124Z</time>
      </trkpt>
      <trkpt lat="43.1384083" lon="-2.8070172">
        <ele>244.712</ele>
        <time>2021-04-01T09:33:01.179Z</time>
      </trkpt>
      <trkpt lat="43.1384105" lon="-2.8070228">
        <ele>244.708</ele>
        <time>2021-04-01T09:33:01.234Z</time>
      </trkpt>
      <trkpt lat="43.1384125" lon="-2.8070285">
        <ele>244.688</ele>
        <time>2021-04-01T09:33:01.289Z</time>
      </trkpt>
      <trkpt lat="43.1384144" lon="-2.8070341">
        <ele>244.655</ele>
        <time>2021-04-01T09:33:01.344Z</time>
      </trkpt>
      <trkpt lat="43.1384164" lon="-2.8070397">
        <ele>244.64</ele>
        <time>2021-04-01T09:33:01.399Z</time>
      </trkpt>
      <trkpt lat="43.1384187" lon="-2.8070454">
        <ele>244.651</ele>
        <time>2021-04-01T09:33:01.454Z</time>
      </trkpt>
      <trkpt lat="43.1384209" lon="-2.8070512">
        <ele>244.639</ele>
        <time>2021-04-01T09:33:01.509Z</time>
      </trkpt>
      <trkpt lat="43.1384229" lon="-2.8070568">
        <ele>244.609</ele>
        <time>2021-04-01T09:33:01.564Z</time>
      </trkpt>
      <trkpt lat="43.1384248" lon="-2.8070625">
        <ele>244.586</ele>
        <time>2021-04-01T09:33:01.619Z</time>
      </trkpt>
      <trkpt lat="43.1384271" lon="-2.8070681">
        <ele>244.592</ele>
        <time>2021-04-01T09:33:01.674Z</time>
      </trkpt>
      <trkpt lat="43.1384293" lon="-2.8070738">
        <ele>244.581</ele>
        <time>2021-04-01T09:33:01.729Z</time>
      </trkpt>
      <trkpt lat="43.1384314" lon="-2.8070796">
        <ele>244.564</ele>
        <time>2021-04-01T09:33:01.784Z</time>
      </trkpt>
      <trkpt lat="43.1384337" lon="-2.8070854">
        <ele>244.56</ele>
        <time>2021-04-01T09:33:01.839Z</time>
      </trkpt>
      <trkpt lat="43.1384359" lon="-2.8070911">
        <ele>244.551</ele>
        <time>2021-04-01T09:33:01.894Z</time>
      </trkpt>
      <trkpt lat="43.1384382" lon="-2.8070969">
        <ele>244.557</ele>
        <time>2021-04-01T09:33:01.949Z</time>
      </trkpt>
      <trkpt lat="43.1384404" lon="-2.8071026">
        <ele>244.561</ele>
        <time>2021-04-01T09:33:02.004Z</time>
      </trkpt>
      <trkpt lat="43.1384427" lon="-2.8071084">
        <ele>244.56</ele>
        <time>2021-04-01T09:33:02.059Z</time>
      </trkpt>
      <trkpt lat="43.1384451" lon="-2.8071141">
        <ele>244.552</ele>
        <time>2021-04-01T09:33:02.114Z</time>
      </trkpt>
      <trkpt lat="43.1384475" lon="-2.8071199">
        <ele>244.535</ele>
        <time>2021-04-01T09:33:02.169Z</time>
      </trkpt>
      <trkpt lat="43.1384497" lon="-2.8071258">
        <ele>244.555</ele>
        <time>2021-04-01T09:33:02.224Z</time>
      </trkpt>
      <trkpt lat="43.1384523" lon="-2.8071314">
        <ele>244.583</ele>
        <time>2021-04-01T09:33:02.279Z</time>
      </trkpt>
      <trkpt lat="43.1384549" lon="-2.8071371">
        <ele>244.598</ele>
        <time>2021-04-01T09:33:02.334Z</time>
      </trkpt>
      <trkpt lat="43.1384573" lon="-2.8071428">
        <ele>244.601</ele>
        <time>2021-04-01T09:33:02.389Z</time>
      </trkpt>
      <trkpt lat="43.1384598" lon="-2.8071486">
        <ele>244.619</ele>
        <time>2021-04-01T09:33:02.444Z</time>
      </trkpt>
      <trkpt lat="43.1384624" lon="-2.8071544">
        <ele>244.623</ele>
        <time>2021-04-01T09:33:02.499Z</time>
      </trkpt>
      <trkpt lat="43.1384651" lon="-2.8071601">
        <ele>244.624</ele>
        <time>2021-04-01T09:33:02.554Z</time>
      </trkpt>
      <trkpt lat="43.1384676" lon="-2.8071658">
        <ele>244.619</ele>
        <time>2021-04-01T09:33:02.609Z</time>
      </trkpt>
      <trkpt lat="43.1384701" lon="-2.8071715">
        <ele>244.629</ele>
        <time>2021-04-01T09:33:02.664Z</time>
      </trkpt>
      <trkpt lat="43.1384728" lon="-2.8071772">
        <ele>244.602</ele>
        <time>2021-04-01T09:33:02.719Z</time>
      </trkpt>
      <trkpt lat="43.1384754" lon="-2.807183">
        <ele>244.601</ele>
        <time>2021-04-01T09:33:02.774Z</time>
      </trkpt>
      <trkpt lat="43.1384781" lon="-2.8071887">
        <ele>244.603</ele>
        <time>2021-04-01T09:33:02.829Z</time>
      </trkpt>
      <trkpt lat="43.1384808" lon="-2.8071944">
        <ele>244.591</ele>
        <time>2021-04-01T09:33:02.884Z</time>
      </trkpt>
      <trkpt lat="43.1384834" lon="-2.8072001">
        <ele>244.573</ele>
        <time>2021-04-01T09:33:02.939Z</time>
      </trkpt>
      <trkpt lat="43.138486" lon="-2.8072057">
        <ele>244.544</ele>
        <time>2021-04-01T09:33:02.994Z</time>
      </trkpt>
      <trkpt lat="43.1384885" lon="-2.8072112">
        <ele>244.516</ele>
        <time>2021-04-01T09:33:03.049Z</time>
      </trkpt>
      <trkpt lat="43.1384911" lon="-2.8072167">
        <ele>244.493</ele>
        <time>2021-04-01T09:33:03.104Z</time>
      </trkpt>
      <trkpt lat="43.1384937" lon="-2.8072222">
        <ele>244.467</ele>
        <time>2021-04-01T09:33:03.159Z</time>
      </trkpt>
      <trkpt lat="43.1384964" lon="-2.8072276">
        <ele>244.443</ele>
        <time>2021-04-01T09:33:03.214Z</time>
      </trkpt>
      <trkpt lat="43.1384991" lon="-2.8072331">
        <ele>244.413</ele>
        <time>2021-04-01T09:33:03.269Z</time>
      </trkpt>
      <trkpt lat="43.1385018" lon="-2.8072386">
        <ele>244.386</ele>
        <time>2021-04-01T09:33:03.324Z</time>
      </trkpt>
      <trkpt lat="43.1385046" lon="-2.8072439">
        <ele>244.376</ele>
        <time>2021-04-01T09:33:03.379Z</time>
      </trkpt>
      <trkpt lat="43.1385072" lon="-2.8072494">
        <ele>244.343</ele>
        <time>2021-04-01T09:33:03.434Z</time>
      </trkpt>
      <trkpt lat="43.1385099" lon="-2.8072551">
        <ele>244.287</ele>
        <time>2021-04-01T09:33:03.489Z</time>
      </trkpt>
      <trkpt lat="43.1385127" lon="-2.8072605">
        <ele>244.26</ele>
        <time>2021-04-01T09:33:03.544Z</time>
      </trkpt>
      <trkpt lat="43.1385155" lon="-2.8072659">
        <ele>244.222</ele>
        <time>2021-04-01T09:33:03.599Z</time>
      </trkpt>
      <trkpt lat="43.1385183" lon="-2.8072713">
        <ele>244.188</ele>
        <time>2021-04-01T09:33:03.654Z</time>
      </trkpt>
      <trkpt lat="43.1385213" lon="-2.8072768">
        <ele>244.166</ele>
        <time>2021-04-01T09:33:03.709Z</time>
      </trkpt>
      <trkpt lat="43.1385241" lon="-2.8072824">
        <ele>244.137</ele>
        <time>2021-04-01T09:33:03.764Z</time>
      </trkpt>
      <trkpt lat="43.1385269" lon="-2.8072879">
        <ele>244.122</ele>
        <time>2021-04-01T09:33:03.819Z</time>
      </trkpt>
      <trkpt lat="43.1385297" lon="-2.8072933">
        <ele>244.085</ele>
        <time>2021-04-01T09:33:03.874Z</time>
      </trkpt>
      <trkpt lat="43.1385325" lon="-2.8072988">
        <ele>244.051</ele>
        <time>2021-04-01T09:33:03.929Z</time>
      </trkpt>
      <trkpt lat="43.1385355" lon="-2.8073046">
        <ele>244.05</ele>
        <time>2021-04-01T09:33:03.984Z</time>
      </trkpt>
      <trkpt lat="43.1385386" lon="-2.8073101">
        <ele>244.051</ele>
        <time>2021-04-01T09:33:04.039Z</time>
      </trkpt>
      <trkpt lat="43.1385416" lon="-2.8073157">
        <ele>244.043</ele>
        <time>2021-04-01T09:33:04.094Z</time>
      </trkpt>
      <trkpt lat="43.1385446" lon="-2.8073214">
        <ele>244.029</ele>
        <time>2021-04-01T09:33:04.149Z</time>
      </trkpt>
      <trkpt lat="43.1385476" lon="-2.8073267">
        <ele>244.012</ele>
        <time>2021-04-01T09:33:04.204Z</time>
      </trkpt>
      <trkpt lat="43.1385506" lon="-2.8073325">
        <ele>244.007</ele>
        <time>2021-04-01T09:33:04.259Z</time>
      </trkpt>
      <trkpt lat="43.1385536" lon="-2.8073383">
        <ele>243.992</ele>
        <time>2021-04-01T09:33:04.314Z</time>
      </trkpt>
      <trkpt lat="43.1385566" lon="-2.8073438">
        <ele>243.981</ele>
        <time>2021-04-01T09:33:04.369Z</time>
      </trkpt>
      <trkpt lat="43.1385595" lon="-2.8073493">
        <ele>243.987</ele>
        <time>2021-04-01T09:33:04.424Z</time>
      </trkpt>
      <trkpt lat="43.1385628" lon="-2.8073549">
        <ele>243.995</ele>
        <time>2021-04-01T09:33:04.479Z</time>
      </trkpt>
      <trkpt lat="43.1385658" lon="-2.8073604">
        <ele>243.973</ele>
        <time>2021-04-01T09:33:04.534Z</time>
      </trkpt>
      <trkpt lat="43.1385689" lon="-2.8073659">
        <ele>243.982</ele>
        <time>2021-04-01T09:33:04.589Z</time>
      </trkpt>
      <trkpt lat="43.1385722" lon="-2.8073715">
        <ele>243.985</ele>
        <time>2021-04-01T09:33:04.644Z</time>
      </trkpt>
      <trkpt lat="43.1385752" lon="-2.8073769">
        <ele>243.97</ele>
        <time>2021-04-01T09:33:04.699Z</time>
      </trkpt>
      <trkpt lat="43.1385781" lon="-2.8073825">
        <ele>243.922</ele>
        <time>2021-04-01T09:33:04.754Z</time>
      </trkpt>
      <trkpt lat="43.1385812" lon="-2.807388">
        <ele>243.908</ele>
        <time>2021-04-01T09:33:04.809Z</time>
      </trkpt>
      <trkpt lat="43.1385843" lon="-2.8073937">
        <ele>243.889</ele>
        <time>2021-04-01T09:33:04.864Z</time>
      </trkpt>
      <trkpt lat="43.1385874" lon="-2.8073991">
        <ele>243.873</ele>
        <time>2021-04-01T09:33:04.922Z</time>
      </trkpt>
      <trkpt lat="43.1385904" lon="-2.8074046">
        <ele>243.838</ele>
        <time>2021-04-01T09:33:04.980Z</time>
      </trkpt>
      <trkpt lat="43.1385934" lon="-2.80741">
        <ele>243.796</ele>
        <time>2021-04-01T09:33:05.038Z</time>
      </trkpt>
      <trkpt lat="43.1385964" lon="-2.8074156">
        <ele>243.751</ele>
        <time>2021-04-01T09:33:05.096Z</time>
      </trkpt>
      <trkpt lat="43.1385996" lon="-2.8074211">
        <ele>243.735</ele>
        <time>2021-04-01T09:33:05.155Z</time>
      </trkpt>
      <trkpt lat="43.1386028" lon="-2.8074267">
        <ele>243.727</ele>
        <time>2021-04-01T09:33:05.213Z</time>
      </trkpt>
      <trkpt lat="43.1386061" lon="-2.8074323">
        <ele>243.711</ele>
        <time>2021-04-01T09:33:05.271Z</time>
      </trkpt>
      <trkpt lat="43.138609" lon="-2.8074378">
        <ele>243.69</ele>
        <time>2021-04-01T09:33:05.329Z</time>
      </trkpt>
      <trkpt lat="43.1386125" lon="-2.8074435">
        <ele>243.69</ele>
        <time>2021-04-01T09:33:05.388Z</time>
      </trkpt>
      <trkpt lat="43.1386157" lon="-2.8074491">
        <ele>243.695</ele>
        <time>2021-04-01T09:33:05.446Z</time>
      </trkpt>
      <trkpt lat="43.1386189" lon="-2.8074545">
        <ele>243.699</ele>
        <time>2021-04-01T09:33:05.504Z</time>
      </trkpt>
      <trkpt lat="43.1386222" lon="-2.8074601">
        <ele>243.685</ele>
        <time>2021-04-01T09:33:05.562Z</time>
      </trkpt>
      <trkpt lat="43.1386253" lon="-2.8074658">
        <ele>243.664</ele>
        <time>2021-04-01T09:33:05.621Z</time>
      </trkpt>
      <trkpt lat="43.1386285" lon="-2.8074714">
        <ele>243.646</ele>
        <time>2021-04-01T09:33:05.679Z</time>
      </trkpt>
      <trkpt lat="43.1386318" lon="-2.8074771">
        <ele>243.633</ele>
        <time>2021-04-01T09:33:05.737Z</time>
      </trkpt>
      <trkpt lat="43.1386353" lon="-2.8074829">
        <ele>243.617</ele>
        <time>2021-04-01T09:33:05.795Z</time>
      </trkpt>
      <trkpt lat="43.1386383" lon="-2.8074884">
        <ele>243.584</ele>
        <time>2021-04-01T09:33:05.854Z</time>
      </trkpt>
      <trkpt lat="43.1386412" lon="-2.807494">
        <ele>243.522</ele>
        <time>2021-04-01T09:33:05.906Z</time>
      </trkpt>
      <trkpt lat="43.1386442" lon="-2.8074997">
        <ele>243.474</ele>
        <time>2021-04-01T09:33:05.958Z</time>
      </trkpt>
      <trkpt lat="43.1386472" lon="-2.8075054">
        <ele>243.424</ele>
        <time>2021-04-01T09:33:06.010Z</time>
      </trkpt>
      <trkpt lat="43.1386506" lon="-2.8075111">
        <ele>243.422</ele>
        <time>2021-04-01T09:33:06.062Z</time>
      </trkpt>
      <trkpt lat="43.138654" lon="-2.8075167">
        <ele>243.422</ele>
        <time>2021-04-01T09:33:06.114Z</time>
      </trkpt>
      <trkpt lat="43.1386575" lon="-2.8075224">
        <ele>243.432</ele>
        <time>2021-04-01T09:33:06.166Z</time>
      </trkpt>
      <trkpt lat="43.1386609" lon="-2.807528">
        <ele>243.428</ele>
        <time>2021-04-01T09:33:06.218Z</time>
      </trkpt>
      <trkpt lat="43.1386641" lon="-2.8075335">
        <ele>243.398</ele>
        <time>2021-04-01T09:33:06.270Z</time>
      </trkpt>
      <trkpt lat="43.1386675" lon="-2.8075393">
        <ele>243.39</ele>
        <time>2021-04-01T09:33:06.322Z</time>
      </trkpt>
      <trkpt lat="43.1386707" lon="-2.807545">
        <ele>243.381</ele>
        <time>2021-04-01T09:33:06.375Z</time>
      </trkpt>
      <trkpt lat="43.1386741" lon="-2.8075508">
        <ele>243.373</ele>
        <time>2021-04-01T09:33:06.427Z</time>
      </trkpt>
      <trkpt lat="43.1386774" lon="-2.8075565">
        <ele>243.365</ele>
        <time>2021-04-01T09:33:06.479Z</time>
      </trkpt>
      <trkpt lat="43.1386808" lon="-2.8075623">
        <ele>243.336</ele>
        <time>2021-04-01T09:33:06.531Z</time>
      </trkpt>
      <trkpt lat="43.1386842" lon="-2.8075679">
        <ele>243.325</ele>
        <time>2021-04-01T09:33:06.583Z</time>
      </trkpt>
      <trkpt lat="43.1386877" lon="-2.8075736">
        <ele>243.363</ele>
        <time>2021-04-01T09:33:06.635Z</time>
      </trkpt>
      <trkpt lat="43.1386911" lon="-2.8075794">
        <ele>243.376</ele>
        <time>2021-04-01T09:33:06.687Z</time>
      </trkpt>
      <trkpt lat="43.1386945" lon="-2.8075854">
        <ele>243.356</ele>
        <time>2021-04-01T09:33:06.739Z</time>
      </trkpt>
      <trkpt lat="43.1386977" lon="-2.8075912">
        <ele>243.329</ele>
        <time>2021-04-01T09:33:06.791Z</time>
      </trkpt>
      <trkpt lat="43.1387008" lon="-2.8075968">
        <ele>243.282</ele>
        <time>2021-04-01T09:33:06.844Z</time>
      </trkpt>
      <trkpt lat="43.138704" lon="-2.8076024">
        <ele>243.218</ele>
        <time>2021-04-01T09:33:06.899Z</time>
      </trkpt>
      <trkpt lat="43.1387073" lon="-2.8076083">
        <ele>243.193</ele>
        <time>2021-04-01T09:33:06.954Z</time>
      </trkpt>
      <trkpt lat="43.1387106" lon="-2.8076139">
        <ele>243.177</ele>
        <time>2021-04-01T09:33:07.009Z</time>
      </trkpt>
      <trkpt lat="43.1387137" lon="-2.8076195">
        <ele>243.146</ele>
        <time>2021-04-01T09:33:07.064Z</time>
      </trkpt>
      <trkpt lat="43.1387168" lon="-2.8076252">
        <ele>243.126</ele>
        <time>2021-04-01T09:33:07.119Z</time>
      </trkpt>
      <trkpt lat="43.13872" lon="-2.8076309">
        <ele>243.072</ele>
        <time>2021-04-01T09:33:07.174Z</time>
      </trkpt>
      <trkpt lat="43.1387233" lon="-2.8076369">
        <ele>243.006</ele>
        <time>2021-04-01T09:33:07.229Z</time>
      </trkpt>
      <trkpt lat="43.1387265" lon="-2.8076425">
        <ele>242.986</ele>
        <time>2021-04-01T09:33:07.284Z</time>
      </trkpt>
      <trkpt lat="43.1387298" lon="-2.8076483">
        <ele>242.971</ele>
        <time>2021-04-01T09:33:07.339Z</time>
      </trkpt>
      <trkpt lat="43.1387329" lon="-2.8076541">
        <ele>242.935</ele>
        <time>2021-04-01T09:33:07.394Z</time>
      </trkpt>
      <trkpt lat="43.1387362" lon="-2.8076598">
        <ele>242.901</ele>
        <time>2021-04-01T09:33:07.449Z</time>
      </trkpt>
      <trkpt lat="43.1387397" lon="-2.8076657">
        <ele>242.9</ele>
        <time>2021-04-01T09:33:07.504Z</time>
      </trkpt>
      <trkpt lat="43.138743" lon="-2.8076714">
        <ele>242.867</ele>
        <time>2021-04-01T09:33:07.559Z</time>
      </trkpt>
      <trkpt lat="43.1387465" lon="-2.8076772">
        <ele>242.858</ele>
        <time>2021-04-01T09:33:07.614Z</time>
      </trkpt>
      <trkpt lat="43.13875" lon="-2.807683">
        <ele>242.862</ele>
        <time>2021-04-01T09:33:07.669Z</time>
      </trkpt>
      <trkpt lat="43.1387535" lon="-2.8076888">
        <ele>242.87</ele>
        <time>2021-04-01T09:33:07.724Z</time>
      </trkpt>
      <trkpt lat="43.1387567" lon="-2.8076945">
        <ele>242.835</ele>
        <time>2021-04-01T09:33:07.779Z</time>
      </trkpt>
      <trkpt lat="43.1387602" lon="-2.8077004">
        <ele>242.817</ele>
        <time>2021-04-01T09:33:07.834Z</time>
      </trkpt>
      <trkpt lat="43.1387637" lon="-2.8077063">
        <ele>242.802</ele>
        <time>2021-04-01T09:33:07.892Z</time>
      </trkpt>
      <trkpt lat="43.1387671" lon="-2.8077122">
        <ele>242.775</ele>
        <time>2021-04-01T09:33:07.950Z</time>
      </trkpt>
      <trkpt lat="43.1387705" lon="-2.807718">
        <ele>242.767</ele>
        <time>2021-04-01T09:33:08.008Z</time>
      </trkpt>
      <trkpt lat="43.138774" lon="-2.8077237">
        <ele>242.749</ele>
        <time>2021-04-01T09:33:08.066Z</time>
      </trkpt>
      <trkpt lat="43.1387773" lon="-2.8077296">
        <ele>242.687</ele>
        <time>2021-04-01T09:33:08.124Z</time>
      </trkpt>
      <trkpt lat="43.1387806" lon="-2.8077355">
        <ele>242.646</ele>
        <time>2021-04-01T09:33:08.182Z</time>
      </trkpt>
      <trkpt lat="43.1387842" lon="-2.8077415">
        <ele>242.638</ele>
        <time>2021-04-01T09:33:08.240Z</time>
      </trkpt>
      <trkpt lat="43.1387877" lon="-2.8077472">
        <ele>242.636</ele>
        <time>2021-04-01T09:33:08.298Z</time>
      </trkpt>
      <trkpt lat="43.1387912" lon="-2.8077532">
        <ele>242.63</ele>
        <time>2021-04-01T09:33:08.356Z</time>
      </trkpt>
      <trkpt lat="43.1387948" lon="-2.8077592">
        <ele>242.616</ele>
        <time>2021-04-01T09:33:08.414Z</time>
      </trkpt>
      <trkpt lat="43.1387983" lon="-2.8077651">
        <ele>242.59</ele>
        <time>2021-04-01T09:33:08.472Z</time>
      </trkpt>
      <trkpt lat="43.1388016" lon="-2.8077709">
        <ele>242.549</ele>
        <time>2021-04-01T09:33:08.530Z</time>
      </trkpt>
      <trkpt lat="43.138805" lon="-2.8077768">
        <ele>242.516</ele>
        <time>2021-04-01T09:33:08.588Z</time>
      </trkpt>
      <trkpt lat="43.1388084" lon="-2.8077827">
        <ele>242.491</ele>
        <time>2021-04-01T09:33:08.646Z</time>
      </trkpt>
      <trkpt lat="43.1388118" lon="-2.8077887">
        <ele>242.452</ele>
        <time>2021-04-01T09:33:08.704Z</time>
      </trkpt>
      <trkpt lat="43.1388151" lon="-2.8077946">
        <ele>242.429</ele>
        <time>2021-04-01T09:33:08.762Z</time>
      </trkpt>
      <trkpt lat="43.1388185" lon="-2.8078006">
        <ele>242.407</ele>
        <time>2021-04-01T09:33:08.820Z</time>
      </trkpt>
      <trkpt lat="43.1388221" lon="-2.8078065">
        <ele>242.383</ele>
        <time>2021-04-01T09:33:08.879Z</time>
      </trkpt>
      <trkpt lat="43.1388258" lon="-2.8078125">
        <ele>242.386</ele>
        <time>2021-04-01T09:33:08.928Z</time>
      </trkpt>
      <trkpt lat="43.1388293" lon="-2.8078185">
        <ele>242.359</ele>
        <time>2021-04-01T09:33:08.977Z</time>
      </trkpt>
      <trkpt lat="43.1388323" lon="-2.8078243">
        <ele>242.255</ele>
        <time>2021-04-01T09:33:09.026Z</time>
      </trkpt>
      <trkpt lat="43.1388358" lon="-2.8078302">
        <ele>242.223</ele>
        <time>2021-04-01T09:33:09.075Z</time>
      </trkpt>
      <trkpt lat="43.1388392" lon="-2.807836">
        <ele>242.183</ele>
        <time>2021-04-01T09:33:09.125Z</time>
      </trkpt>
      <trkpt lat="43.1388426" lon="-2.8078421">
        <ele>242.144</ele>
        <time>2021-04-01T09:33:09.174Z</time>
      </trkpt>
      <trkpt lat="43.138846" lon="-2.8078481">
        <ele>242.087</ele>
        <time>2021-04-01T09:33:09.223Z</time>
      </trkpt>
      <trkpt lat="43.1388494" lon="-2.807854">
        <ele>242.019</ele>
        <time>2021-04-01T09:33:09.272Z</time>
      </trkpt>
      <trkpt lat="43.1388526" lon="-2.8078599">
        <ele>241.99</ele>
        <time>2021-04-01T09:33:09.321Z</time>
      </trkpt>
      <trkpt lat="43.1388558" lon="-2.8078656">
        <ele>241.942</ele>
        <time>2021-04-01T09:33:09.371Z</time>
      </trkpt>
      <trkpt lat="43.1388592" lon="-2.8078716">
        <ele>241.88</ele>
        <time>2021-04-01T09:33:09.420Z</time>
      </trkpt>
      <trkpt lat="43.1388625" lon="-2.8078775">
        <ele>241.817</ele>
        <time>2021-04-01T09:33:09.469Z</time>
      </trkpt>
      <trkpt lat="43.1388657" lon="-2.8078833">
        <ele>241.755</ele>
        <time>2021-04-01T09:33:09.518Z</time>
      </trkpt>
      <trkpt lat="43.1388692" lon="-2.8078893">
        <ele>241.72</ele>
        <time>2021-04-01T09:33:09.567Z</time>
      </trkpt>
      <trkpt lat="43.1388726" lon="-2.8078953">
        <ele>241.667</ele>
        <time>2021-04-01T09:33:09.617Z</time>
      </trkpt>
      <trkpt lat="43.138876" lon="-2.8079012">
        <ele>241.628</ele>
        <time>2021-04-01T09:33:09.666Z</time>
      </trkpt>
      <trkpt lat="43.1388794" lon="-2.8079071">
        <ele>241.58</ele>
        <time>2021-04-01T09:33:09.715Z</time>
      </trkpt>
      <trkpt lat="43.1388828" lon="-2.8079132">
        <ele>241.54</ele>
        <time>2021-04-01T09:33:09.764Z</time>
      </trkpt>
      <trkpt lat="43.1388862" lon="-2.807919">
        <ele>241.513</ele>
        <time>2021-04-01T09:33:09.814Z</time>
      </trkpt>
      <trkpt lat="43.1388897" lon="-2.807925">
        <ele>241.466</ele>
        <time>2021-04-01T09:33:09.872Z</time>
      </trkpt>
      <trkpt lat="43.1388932" lon="-2.8079311">
        <ele>241.441</ele>
        <time>2021-04-01T09:33:09.930Z</time>
      </trkpt>
      <trkpt lat="43.1388969" lon="-2.8079371">
        <ele>241.421</ele>
        <time>2021-04-01T09:33:09.988Z</time>
      </trkpt>
      <trkpt lat="43.1389006" lon="-2.8079429">
        <ele>241.392</ele>
        <time>2021-04-01T09:33:10.046Z</time>
      </trkpt>
      <trkpt lat="43.1389043" lon="-2.8079487">
        <ele>241.37</ele>
        <time>2021-04-01T09:33:10.104Z</time>
      </trkpt>
      <trkpt lat="43.138908" lon="-2.8079547">
        <ele>241.346</ele>
        <time>2021-04-01T09:33:10.162Z</time>
      </trkpt>
      <trkpt lat="43.1389112" lon="-2.8079605">
        <ele>241.326</ele>
        <time>2021-04-01T09:33:10.220Z</time>
      </trkpt>
      <trkpt lat="43.1389147" lon="-2.8079668">
        <ele>241.277</ele>
        <time>2021-04-01T09:33:10.278Z</time>
      </trkpt>
      <trkpt lat="43.1389183" lon="-2.807973">
        <ele>241.243</ele>
        <time>2021-04-01T09:33:10.336Z</time>
      </trkpt>
      <trkpt lat="43.1389216" lon="-2.8079789">
        <ele>241.184</ele>
        <time>2021-04-01T09:33:10.394Z</time>
      </trkpt>
      <trkpt lat="43.1389247" lon="-2.8079849">
        <ele>241.117</ele>
        <time>2021-04-01T09:33:10.452Z</time>
      </trkpt>
      <trkpt lat="43.138928" lon="-2.807991">
        <ele>241.066</ele>
        <time>2021-04-01T09:33:10.510Z</time>
      </trkpt>
      <trkpt lat="43.1389314" lon="-2.8079973">
        <ele>241.011</ele>
        <time>2021-04-01T09:33:10.568Z</time>
      </trkpt>
      <trkpt lat="43.1389349" lon="-2.8080032">
        <ele>240.978</ele>
        <time>2021-04-01T09:33:10.626Z</time>
      </trkpt>
      <trkpt lat="43.1389378" lon="-2.8080092">
        <ele>240.912</ele>
        <time>2021-04-01T09:33:10.684Z</time>
      </trkpt>
      <trkpt lat="43.1389412" lon="-2.8080155">
        <ele>240.867</ele>
        <time>2021-04-01T09:33:10.742Z</time>
      </trkpt>
      <trkpt lat="43.1389447" lon="-2.8080218">
        <ele>240.847</ele>
        <time>2021-04-01T09:33:10.800Z</time>
      </trkpt>
      <trkpt lat="43.1389477" lon="-2.8080282">
        <ele>240.789</ele>
        <time>2021-04-01T09:33:10.859Z</time>
      </trkpt>
      <trkpt lat="43.138951" lon="-2.8080345">
        <ele>240.754</ele>
        <time>2021-04-01T09:33:10.914Z</time>
      </trkpt>
      <trkpt lat="43.1389543" lon="-2.8080409">
        <ele>240.722</ele>
        <time>2021-04-01T09:33:10.969Z</time>
      </trkpt>
      <trkpt lat="43.1389577" lon="-2.8080469">
        <ele>240.709</ele>
        <time>2021-04-01T09:33:11.024Z</time>
      </trkpt>
      <trkpt lat="43.1389609" lon="-2.8080533">
        <ele>240.662</ele>
        <time>2021-04-01T09:33:11.079Z</time>
      </trkpt>
      <trkpt lat="43.138964" lon="-2.8080599">
        <ele>240.585</ele>
        <time>2021-04-01T09:33:11.134Z</time>
      </trkpt>
      <trkpt lat="43.1389673" lon="-2.8080665">
        <ele>240.583</ele>
        <time>2021-04-01T09:33:11.189Z</time>
      </trkpt>
      <trkpt lat="43.1389704" lon="-2.808073">
        <ele>240.555</ele>
        <time>2021-04-01T09:33:11.244Z</time>
      </trkpt>
      <trkpt lat="43.1389736" lon="-2.8080796">
        <ele>240.506</ele>
        <time>2021-04-01T09:33:11.299Z</time>
      </trkpt>
      <trkpt lat="43.1389769" lon="-2.8080862">
        <ele>240.492</ele>
        <time>2021-04-01T09:33:11.354Z</time>
      </trkpt>
      <trkpt lat="43.1389801" lon="-2.8080926">
        <ele>240.485</ele>
        <time>2021-04-01T09:33:11.409Z</time>
      </trkpt>
      <trkpt lat="43.1389836" lon="-2.8080992">
        <ele>240.501</ele>
        <time>2021-04-01T09:33:11.464Z</time>
      </trkpt>
      <trkpt lat="43.1389868" lon="-2.8081059">
        <ele>240.477</ele>
        <time>2021-04-01T09:33:11.519Z</time>
      </trkpt>
      <trkpt lat="43.13899" lon="-2.8081126">
        <ele>240.463</ele>
        <time>2021-04-01T09:33:11.574Z</time>
      </trkpt>
      <trkpt lat="43.138993" lon="-2.8081195">
        <ele>240.45</ele>
        <time>2021-04-01T09:33:11.629Z</time>
      </trkpt>
      <trkpt lat="43.1389959" lon="-2.8081262">
        <ele>240.421</ele>
        <time>2021-04-01T09:33:11.684Z</time>
      </trkpt>
      <trkpt lat="43.1389988" lon="-2.808133">
        <ele>240.387</ele>
        <time>2021-04-01T09:33:11.739Z</time>
      </trkpt>
      <trkpt lat="43.1390016" lon="-2.8081399">
        <ele>240.341</ele>
        <time>2021-04-01T09:33:11.794Z</time>
      </trkpt>
      <trkpt lat="43.1390044" lon="-2.8081467">
        <ele>240.29</ele>
        <time>2021-04-01T09:33:11.849Z</time>
      </trkpt>
      <trkpt lat="43.1390075" lon="-2.8081536">
        <ele>240.279</ele>
        <time>2021-04-01T09:33:11.904Z</time>
      </trkpt>
      <trkpt lat="43.1390109" lon="-2.8081606">
        <ele>240.313</ele>
        <time>2021-04-01T09:33:11.959Z</time>
      </trkpt>
      <trkpt lat="43.1390136" lon="-2.8081676">
        <ele>240.268</ele>
        <time>2021-04-01T09:33:12.014Z</time>
      </trkpt>
      <trkpt lat="43.1390162" lon="-2.8081747">
        <ele>240.219</ele>
        <time>2021-04-01T09:33:12.069Z</time>
      </trkpt>
      <trkpt lat="43.139019" lon="-2.8081816">
        <ele>240.188</ele>
        <time>2021-04-01T09:33:12.124Z</time>
      </trkpt>
      <trkpt lat="43.139022" lon="-2.8081886">
        <ele>240.162</ele>
        <time>2021-04-01T09:33:12.179Z</time>
      </trkpt>
      <trkpt lat="43.1390247" lon="-2.8081957">
        <ele>240.139</ele>
        <time>2021-04-01T09:33:12.234Z</time>
      </trkpt>
      <trkpt lat="43.1390277" lon="-2.808203">
        <ele>240.149</ele>
        <time>2021-04-01T09:33:12.289Z</time>
      </trkpt>
      <trkpt lat="43.1390302" lon="-2.8082102">
        <ele>240.108</ele>
        <time>2021-04-01T09:33:12.344Z</time>
      </trkpt>
      <trkpt lat="43.1390329" lon="-2.8082174">
        <ele>240.135</ele>
        <time>2021-04-01T09:33:12.399Z</time>
      </trkpt>
      <trkpt lat="43.1390353" lon="-2.8082246">
        <ele>240.064</ele>
        <time>2021-04-01T09:33:12.454Z</time>
      </trkpt>
      <trkpt lat="43.1390379" lon="-2.8082318">
        <ele>240.024</ele>
        <time>2021-04-01T09:33:12.509Z</time>
      </trkpt>
      <trkpt lat="43.1390404" lon="-2.808239">
        <ele>240.001</ele>
        <time>2021-04-01T09:33:12.564Z</time>
      </trkpt>
      <trkpt lat="43.1390429" lon="-2.8082462">
        <ele>239.998</ele>
        <time>2021-04-01T09:33:12.619Z</time>
      </trkpt>
      <trkpt lat="43.1390456" lon="-2.8082536">
        <ele>239.986</ele>
        <time>2021-04-01T09:33:12.674Z</time>
      </trkpt>
      <trkpt lat="43.1390482" lon="-2.8082609">
        <ele>239.963</ele>
        <time>2021-04-01T09:33:12.729Z</time>
      </trkpt>
      <trkpt lat="43.1390505" lon="-2.8082682">
        <ele>239.926</ele>
        <time>2021-04-01T09:33:12.784Z</time>
      </trkpt>
      <trkpt lat="43.1390522" lon="-2.8082753">
        <ele>239.831</ele>
        <time>2021-04-01T09:33:12.839Z</time>
      </trkpt>
      <trkpt lat="43.1390548" lon="-2.8082827">
        <ele>239.829</ele>
        <time>2021-04-01T09:33:12.894Z</time>
      </trkpt>
      <trkpt lat="43.1390571" lon="-2.8082901">
        <ele>239.809</ele>
        <time>2021-04-01T09:33:12.949Z</time>
      </trkpt>
      <trkpt lat="43.1390593" lon="-2.8082972">
        <ele>239.806</ele>
        <time>2021-04-01T09:33:13.004Z</time>
      </trkpt>
      <trkpt lat="43.1390609" lon="-2.8083046">
        <ele>239.687</ele>
        <time>2021-04-01T09:33:13.059Z</time>
      </trkpt>
      <trkpt lat="43.1390631" lon="-2.808312">
        <ele>239.65</ele>
        <time>2021-04-01T09:33:13.114Z</time>
      </trkpt>
      <trkpt lat="43.1390656" lon="-2.8083194">
        <ele>239.656</ele>
        <time>2021-04-01T09:33:13.169Z</time>
      </trkpt>
      <trkpt lat="43.1390674" lon="-2.8083269">
        <ele>239.59</ele>
        <time>2021-04-01T09:33:13.224Z</time>
      </trkpt>
      <trkpt lat="43.1390697" lon="-2.8083344">
        <ele>239.563</ele>
        <time>2021-04-01T09:33:13.279Z</time>
      </trkpt>
      <trkpt lat="43.1390717" lon="-2.808342">
        <ele>239.519</ele>
        <time>2021-04-01T09:33:13.334Z</time>
      </trkpt>
      <trkpt lat="43.1390737" lon="-2.8083496">
        <ele>239.477</ele>
        <time>2021-04-01T09:33:13.389Z</time>
      </trkpt>
      <trkpt lat="43.1390756" lon="-2.808357">
        <ele>239.433</ele>
        <time>2021-04-01T09:33:13.444Z</time>
      </trkpt>
      <trkpt lat="43.1390776" lon="-2.8083646">
        <ele>239.387</ele>
        <time>2021-04-01T09:33:13.499Z</time>
      </trkpt>
      <trkpt lat="43.13908" lon="-2.8083722">
        <ele>239.405</ele>
        <time>2021-04-01T09:33:13.554Z</time>
      </trkpt>
      <trkpt lat="43.1390822" lon="-2.8083799">
        <ele>239.383</ele>
        <time>2021-04-01T09:33:13.609Z</time>
      </trkpt>
      <trkpt lat="43.1390838" lon="-2.8083873">
        <ele>239.323</ele>
        <time>2021-04-01T09:33:13.664Z</time>
      </trkpt>
      <trkpt lat="43.1390856" lon="-2.8083949">
        <ele>239.259</ele>
        <time>2021-04-01T09:33:13.719Z</time>
      </trkpt>
      <trkpt lat="43.1390874" lon="-2.8084027">
        <ele>239.195</ele>
        <time>2021-04-01T09:33:13.774Z</time>
      </trkpt>
      <trkpt lat="43.1390892" lon="-2.8084103">
        <ele>239.137</ele>
        <time>2021-04-01T09:33:13.829Z</time>
      </trkpt>
      <trkpt lat="43.139091" lon="-2.8084182">
        <ele>239.074</ele>
        <time>2021-04-01T09:33:13.884Z</time>
      </trkpt>
      <trkpt lat="43.1390926" lon="-2.8084258">
        <ele>239.025</ele>
        <time>2021-04-01T09:33:13.939Z</time>
      </trkpt>
      <trkpt lat="43.1390944" lon="-2.8084337">
        <ele>238.981</ele>
        <time>2021-04-01T09:33:13.994Z</time>
      </trkpt>
      <trkpt lat="43.1390963" lon="-2.8084414">
        <ele>238.975</ele>
        <time>2021-04-01T09:33:14.049Z</time>
      </trkpt>
      <trkpt lat="43.139098" lon="-2.808449">
        <ele>238.942</ele>
        <time>2021-04-01T09:33:14.104Z</time>
      </trkpt>
      <trkpt lat="43.1390995" lon="-2.8084569">
        <ele>238.875</ele>
        <time>2021-04-01T09:33:14.159Z</time>
      </trkpt>
      <trkpt lat="43.1391016" lon="-2.8084645">
        <ele>238.902</ele>
        <time>2021-04-01T09:33:14.214Z</time>
      </trkpt>
      <trkpt lat="43.1391036" lon="-2.8084721">
        <ele>238.935</ele>
        <time>2021-04-01T09:33:14.269Z</time>
      </trkpt>
      <trkpt lat="43.1391056" lon="-2.8084799">
        <ele>238.974</ele>
        <time>2021-04-01T09:33:14.324Z</time>
      </trkpt>
      <trkpt lat="43.1391073" lon="-2.8084875">
        <ele>238.984</ele>
        <time>2021-04-01T09:33:14.379Z</time>
      </trkpt>
      <trkpt lat="43.1391086" lon="-2.8084948">
        <ele>238.954</ele>
        <time>2021-04-01T09:33:14.434Z</time>
      </trkpt>
      <trkpt lat="43.1391103" lon="-2.8085026">
        <ele>238.928</ele>
        <time>2021-04-01T09:33:14.489Z</time>
      </trkpt>
      <trkpt lat="43.1391119" lon="-2.8085104">
        <ele>238.886</ele>
        <time>2021-04-01T09:33:14.544Z</time>
      </trkpt>
      <trkpt lat="43.1391133" lon="-2.8085182">
        <ele>238.865</ele>
        <time>2021-04-01T09:33:14.599Z</time>
      </trkpt>
      <trkpt lat="43.1391145" lon="-2.8085258">
        <ele>238.814</ele>
        <time>2021-04-01T09:33:14.654Z</time>
      </trkpt>
      <trkpt lat="43.1391162" lon="-2.8085335">
        <ele>238.82</ele>
        <time>2021-04-01T09:33:14.709Z</time>
      </trkpt>
      <trkpt lat="43.1391181" lon="-2.8085413">
        <ele>238.837</ele>
        <time>2021-04-01T09:33:14.764Z</time>
      </trkpt>
      <trkpt lat="43.1391198" lon="-2.8085492">
        <ele>238.852</ele>
        <time>2021-04-01T09:33:14.819Z</time>
      </trkpt>
      <trkpt lat="43.1391213" lon="-2.8085567">
        <ele>238.83</ele>
        <time>2021-04-01T09:33:14.874Z</time>
      </trkpt>
      <trkpt lat="43.1391225" lon="-2.8085643">
        <ele>238.78</ele>
        <time>2021-04-01T09:33:14.929Z</time>
      </trkpt>
      <trkpt lat="43.1391238" lon="-2.8085719">
        <ele>238.723</ele>
        <time>2021-04-01T09:33:14.984Z</time>
      </trkpt>
      <trkpt lat="43.1391248" lon="-2.8085795">
        <ele>238.643</ele>
        <time>2021-04-01T09:33:15.039Z</time>
      </trkpt>
      <trkpt lat="43.1391261" lon="-2.8085872">
        <ele>238.595</ele>
        <time>2021-04-01T09:33:15.094Z</time>
      </trkpt>
      <trkpt lat="43.1391273" lon="-2.8085949">
        <ele>238.539</ele>
        <time>2021-04-01T09:33:15.149Z</time>
      </trkpt>
      <trkpt lat="43.1391283" lon="-2.8086028">
        <ele>238.455</ele>
        <time>2021-04-01T09:33:15.204Z</time>
      </trkpt>
      <trkpt lat="43.1391292" lon="-2.8086102">
        <ele>238.396</ele>
        <time>2021-04-01T09:33:15.259Z</time>
      </trkpt>
      <trkpt lat="43.1391302" lon="-2.8086176">
        <ele>238.336</ele>
        <time>2021-04-01T09:33:15.314Z</time>
      </trkpt>
      <trkpt lat="43.1391313" lon="-2.8086253">
        <ele>238.287</ele>
        <time>2021-04-01T09:33:15.369Z</time>
      </trkpt>
      <trkpt lat="43.1391327" lon="-2.8086328">
        <ele>238.24</ele>
        <time>2021-04-01T09:33:15.424Z</time>
      </trkpt>
      <trkpt lat="43.1391341" lon="-2.8086406">
        <ele>238.204</ele>
        <time>2021-04-01T09:33:15.479Z</time>
      </trkpt>
      <trkpt lat="43.1391356" lon="-2.8086483">
        <ele>238.18</ele>
        <time>2021-04-01T09:33:15.534Z</time>
      </trkpt>
      <trkpt lat="43.1391372" lon="-2.8086562">
        <ele>238.186</ele>
        <time>2021-04-01T09:33:15.589Z</time>
      </trkpt>
      <trkpt lat="43.1391387" lon="-2.8086637">
        <ele>238.181</ele>
        <time>2021-04-01T09:33:15.644Z</time>
      </trkpt>
      <trkpt lat="43.1391402" lon="-2.8086715">
        <ele>238.101</ele>
        <time>2021-04-01T09:33:15.699Z</time>
      </trkpt>
      <trkpt lat="43.1391417" lon="-2.8086792">
        <ele>238.085</ele>
        <time>2021-04-01T09:33:15.754Z</time>
      </trkpt>
      <trkpt lat="43.1391432" lon="-2.8086871">
        <ele>238.1</ele>
        <time>2021-04-01T09:33:15.809Z</time>
      </trkpt>
      <trkpt lat="43.1391443" lon="-2.8086948">
        <ele>238.057</ele>
        <time>2021-04-01T09:33:15.864Z</time>
      </trkpt>
      <trkpt lat="43.1391458" lon="-2.8087025">
        <ele>238.014</ele>
        <time>2021-04-01T09:33:15.919Z</time>
      </trkpt>
      <trkpt lat="43.1391469" lon="-2.8087101">
        <ele>237.947</ele>
        <time>2021-04-01T09:33:15.974Z</time>
      </trkpt>
      <trkpt lat="43.1391482" lon="-2.8087179">
        <ele>237.89</ele>
        <time>2021-04-01T09:33:16.029Z</time>
      </trkpt>
      <trkpt lat="43.1391502" lon="-2.8087256">
        <ele>237.942</ele>
        <time>2021-04-01T09:33:16.084Z</time>
      </trkpt>
      <trkpt lat="43.1391518" lon="-2.8087335">
        <ele>237.944</ele>
        <time>2021-04-01T09:33:16.139Z</time>
      </trkpt>
      <trkpt lat="43.1391535" lon="-2.8087411">
        <ele>237.946</ele>
        <time>2021-04-01T09:33:16.194Z</time>
      </trkpt>
      <trkpt lat="43.1391549" lon="-2.808749">
        <ele>237.891</ele>
        <time>2021-04-01T09:33:16.249Z</time>
      </trkpt>
      <trkpt lat="43.1391562" lon="-2.8087568">
        <ele>237.882</ele>
        <time>2021-04-01T09:33:16.304Z</time>
      </trkpt>
      <trkpt lat="43.1391574" lon="-2.8087644">
        <ele>237.856</ele>
        <time>2021-04-01T09:33:16.359Z</time>
      </trkpt>
      <trkpt lat="43.1391587" lon="-2.8087722">
        <ele>237.841</ele>
        <time>2021-04-01T09:33:16.414Z</time>
      </trkpt>
      <trkpt lat="43.13916" lon="-2.80878">
        <ele>237.789</ele>
        <time>2021-04-01T09:33:16.469Z</time>
      </trkpt>
      <trkpt lat="43.1391612" lon="-2.8087874">
        <ele>237.739</ele>
        <time>2021-04-01T09:33:16.524Z</time>
      </trkpt>
      <trkpt lat="43.1391625" lon="-2.8087953">
        <ele>237.742</ele>
        <time>2021-04-01T09:33:16.579Z</time>
      </trkpt>
      <trkpt lat="43.1391642" lon="-2.8088031">
        <ele>237.781</ele>
        <time>2021-04-01T09:33:16.634Z</time>
      </trkpt>
      <trkpt lat="43.1391655" lon="-2.8088109">
        <ele>237.765</ele>
        <time>2021-04-01T09:33:16.689Z</time>
      </trkpt>
      <trkpt lat="43.139167" lon="-2.8088185">
        <ele>237.755</ele>
        <time>2021-04-01T09:33:16.744Z</time>
      </trkpt>
      <trkpt lat="43.1391684" lon="-2.8088261">
        <ele>237.709</ele>
        <time>2021-04-01T09:33:16.799Z</time>
      </trkpt>
      <trkpt lat="43.1391698" lon="-2.8088337">
        <ele>237.714</ele>
        <time>2021-04-01T09:33:16.854Z</time>
      </trkpt>
      <trkpt lat="43.1391711" lon="-2.8088414">
        <ele>237.699</ele>
        <time>2021-04-01T09:33:16.909Z</time>
      </trkpt>
      <trkpt lat="43.1391723" lon="-2.8088489">
        <ele>237.692</ele>
        <time>2021-04-01T09:33:16.964Z</time>
      </trkpt>
      <trkpt lat="43.139174" lon="-2.8088567">
        <ele>237.642</ele>
        <time>2021-04-01T09:33:17.019Z</time>
      </trkpt>
      <trkpt lat="43.1391755" lon="-2.8088644">
        <ele>237.635</ele>
        <time>2021-04-01T09:33:17.074Z</time>
      </trkpt>
      <trkpt lat="43.139177" lon="-2.8088718">
        <ele>237.673</ele>
        <time>2021-04-01T09:33:17.129Z</time>
      </trkpt>
      <trkpt lat="43.1391784" lon="-2.8088796">
        <ele>237.639</ele>
        <time>2021-04-01T09:33:17.184Z</time>
      </trkpt>
      <trkpt lat="43.1391793" lon="-2.8088872">
        <ele>237.592</ele>
        <time>2021-04-01T09:33:17.239Z</time>
      </trkpt>
      <trkpt lat="43.1391806" lon="-2.8088946">
        <ele>237.605</ele>
        <time>2021-04-01T09:33:17.294Z</time>
      </trkpt>
      <trkpt lat="43.139182" lon="-2.808902">
        <ele>237.605</ele>
        <time>2021-04-01T09:33:17.349Z</time>
      </trkpt>
      <trkpt lat="43.1391832" lon="-2.8089095">
        <ele>237.568</ele>
        <time>2021-04-01T09:33:17.404Z</time>
      </trkpt>
      <trkpt lat="43.1391847" lon="-2.8089168">
        <ele>237.543</ele>
        <time>2021-04-01T09:33:17.459Z</time>
      </trkpt>
      <trkpt lat="43.1391861" lon="-2.8089237">
        <ele>237.508</ele>
        <time>2021-04-01T09:33:17.514Z</time>
      </trkpt>
      <trkpt lat="43.1391874" lon="-2.8089305">
        <ele>237.455</ele>
        <time>2021-04-01T09:33:17.569Z</time>
      </trkpt>
      <trkpt lat="43.1391887" lon="-2.808937">
        <ele>237.392</ele>
        <time>2021-04-01T09:33:17.624Z</time>
      </trkpt>
      <trkpt lat="43.1391902" lon="-2.8089439">
        <ele>237.358</ele>
        <time>2021-04-01T09:33:17.679Z</time>
      </trkpt>
      <trkpt lat="43.1391911" lon="-2.8089507">
        <ele>237.321</ele>
        <time>2021-04-01T09:33:17.734Z</time>
      </trkpt>
      <trkpt lat="43.1391922" lon="-2.8089583">
        <ele>237.29</ele>
        <time>2021-04-01T09:33:17.789Z</time>
      </trkpt>
      <trkpt lat="43.1391936" lon="-2.8089658">
        <ele>237.249</ele>
        <time>2021-04-01T09:33:17.844Z</time>
      </trkpt>
      <trkpt lat="43.1391954" lon="-2.8089734">
        <ele>237.232</ele>
        <time>2021-04-01T09:33:17.899Z</time>
      </trkpt>
      <trkpt lat="43.1391965" lon="-2.808981">
        <ele>237.196</ele>
        <time>2021-04-01T09:33:17.954Z</time>
      </trkpt>
      <trkpt lat="43.1391978" lon="-2.8089886">
        <ele>237.147</ele>
        <time>2021-04-01T09:33:18.009Z</time>
      </trkpt>
      <trkpt lat="43.139199" lon="-2.8089957">
        <ele>237.136</ele>
        <time>2021-04-01T09:33:18.064Z</time>
      </trkpt>
      <trkpt lat="43.1391997" lon="-2.809003">
        <ele>237.085</ele>
        <time>2021-04-01T09:33:18.119Z</time>
      </trkpt>
      <trkpt lat="43.1392006" lon="-2.8090104">
        <ele>237.041</ele>
        <time>2021-04-01T09:33:18.174Z</time>
      </trkpt>
      <trkpt lat="43.1392015" lon="-2.8090178">
        <ele>236.976</ele>
        <time>2021-04-01T09:33:18.229Z</time>
      </trkpt>
      <trkpt lat="43.1392025" lon="-2.8090251">
        <ele>236.947</ele>
        <time>2021-04-01T09:33:18.284Z</time>
      </trkpt>
      <trkpt lat="43.1392035" lon="-2.8090318">
        <ele>236.892</ele>
        <time>2021-04-01T09:33:18.339Z</time>
      </trkpt>
      <trkpt lat="43.1392042" lon="-2.8090388">
        <ele>236.818</ele>
        <time>2021-04-01T09:33:18.394Z</time>
      </trkpt>
      <trkpt lat="43.1392053" lon="-2.8090464">
        <ele>236.785</ele>
        <time>2021-04-01T09:33:18.449Z</time>
      </trkpt>
      <trkpt lat="43.139206" lon="-2.8090534">
        <ele>236.715</ele>
        <time>2021-04-01T09:33:18.504Z</time>
      </trkpt>
      <trkpt lat="43.1392068" lon="-2.8090606">
        <ele>236.704</ele>
        <time>2021-04-01T09:33:18.559Z</time>
      </trkpt>
      <trkpt lat="43.139208" lon="-2.8090677">
        <ele>236.645</ele>
        <time>2021-04-01T09:33:18.614Z</time>
      </trkpt>
      <trkpt lat="43.1392093" lon="-2.809075">
        <ele>236.621</ele>
        <time>2021-04-01T09:33:18.669Z</time>
      </trkpt>
      <trkpt lat="43.1392101" lon="-2.8090827">
        <ele>236.614</ele>
        <time>2021-04-01T09:33:18.724Z</time>
      </trkpt>
      <trkpt lat="43.1392115" lon="-2.8090898">
        <ele>236.592</ele>
        <time>2021-04-01T09:33:18.779Z</time>
      </trkpt>
      <trkpt lat="43.1392127" lon="-2.8090968">
        <ele>236.587</ele>
        <time>2021-04-01T09:33:18.834Z</time>
      </trkpt>
      <trkpt lat="43.1392137" lon="-2.809104">
        <ele>236.548</ele>
        <time>2021-04-01T09:33:18.889Z</time>
      </trkpt>
      <trkpt lat="43.1392141" lon="-2.8091103">
        <ele>236.431</ele>
        <time>2021-04-01T09:33:18.944Z</time>
      </trkpt>
      <trkpt lat="43.1392151" lon="-2.8091175">
        <ele>236.37</ele>
        <time>2021-04-01T09:33:18.999Z</time>
      </trkpt>
      <trkpt lat="43.1392166" lon="-2.8091245">
        <ele>236.333</ele>
        <time>2021-04-01T09:33:19.054Z</time>
      </trkpt>
      <trkpt lat="43.1392172" lon="-2.809131">
        <ele>236.281</ele>
        <time>2021-04-01T09:33:19.109Z</time>
      </trkpt>
      <trkpt lat="43.1392179" lon="-2.8091377">
        <ele>236.235</ele>
        <time>2021-04-01T09:33:19.164Z</time>
      </trkpt>
      <trkpt lat="43.1392187" lon="-2.8091445">
        <ele>236.152</ele>
        <time>2021-04-01T09:33:19.219Z</time>
      </trkpt>
      <trkpt lat="43.13922" lon="-2.8091516">
        <ele>236.121</ele>
        <time>2021-04-01T09:33:19.274Z</time>
      </trkpt>
      <trkpt lat="43.1392216" lon="-2.8091588">
        <ele>236.097</ele>
        <time>2021-04-01T09:33:19.329Z</time>
      </trkpt>
      <trkpt lat="43.1392228" lon="-2.8091662">
        <ele>236.082</ele>
        <time>2021-04-01T09:33:19.384Z</time>
      </trkpt>
      <trkpt lat="43.139224" lon="-2.8091741">
        <ele>236.074</ele>
        <time>2021-04-01T09:33:19.439Z</time>
      </trkpt>
      <trkpt lat="43.1392249" lon="-2.8091812">
        <ele>236.042</ele>
        <time>2021-04-01T09:33:19.494Z</time>
      </trkpt>
      <trkpt lat="43.139226" lon="-2.8091885">
        <ele>235.996</ele>
        <time>2021-04-01T09:33:19.549Z</time>
      </trkpt>
      <trkpt lat="43.1392266" lon="-2.8091954">
        <ele>235.94</ele>
        <time>2021-04-01T09:33:19.604Z</time>
      </trkpt>
      <trkpt lat="43.1392276" lon="-2.8092026">
        <ele>235.925</ele>
        <time>2021-04-01T09:33:19.659Z</time>
      </trkpt>
      <trkpt lat="43.1392284" lon="-2.8092101">
        <ele>235.922</ele>
        <time>2021-04-01T09:33:19.714Z</time>
      </trkpt>
      <trkpt lat="43.1392292" lon="-2.809217">
        <ele>235.895</ele>
        <time>2021-04-01T09:33:19.769Z</time>
      </trkpt>
      <trkpt lat="43.1392296" lon="-2.8092233">
        <ele>235.867</ele>
        <time>2021-04-01T09:33:19.824Z</time>
      </trkpt>
      <trkpt lat="43.1392308" lon="-2.8092302">
        <ele>235.866</ele>
        <time>2021-04-01T09:33:19.879Z</time>
      </trkpt>
      <trkpt lat="43.1392318" lon="-2.8092377">
        <ele>235.826</ele>
        <time>2021-04-01T09:33:19.934Z</time>
      </trkpt>
      <trkpt lat="43.1392327" lon="-2.8092452">
        <ele>235.83</ele>
        <time>2021-04-01T09:33:19.989Z</time>
      </trkpt>
      <trkpt lat="43.1392342" lon="-2.8092526">
        <ele>235.872</ele>
        <time>2021-04-01T09:33:20.044Z</time>
      </trkpt>
      <trkpt lat="43.1392357" lon="-2.8092601">
        <ele>235.922</ele>
        <time>2021-04-01T09:33:20.099Z</time>
      </trkpt>
      <trkpt lat="43.1392367" lon="-2.8092679">
        <ele>235.964</ele>
        <time>2021-04-01T09:33:20.154Z</time>
      </trkpt>
      <trkpt lat="43.1392381" lon="-2.8092756">
        <ele>235.948</ele>
        <time>2021-04-01T09:33:20.209Z</time>
      </trkpt>
      <trkpt lat="43.1392387" lon="-2.8092832">
        <ele>235.926</ele>
        <time>2021-04-01T09:33:20.264Z</time>
      </trkpt>
      <trkpt lat="43.1392399" lon="-2.8092908">
        <ele>235.961</ele>
        <time>2021-04-01T09:33:20.319Z</time>
      </trkpt>
      <trkpt lat="43.1392409" lon="-2.8092986">
        <ele>235.981</ele>
        <time>2021-04-01T09:33:20.374Z</time>
      </trkpt>
      <trkpt lat="43.1392419" lon="-2.8093062">
        <ele>235.916</ele>
        <time>2021-04-01T09:33:20.429Z</time>
      </trkpt>
      <trkpt lat="43.1392431" lon="-2.8093136">
        <ele>235.926</ele>
        <time>2021-04-01T09:33:20.484Z</time>
      </trkpt>
      <trkpt lat="43.1392444" lon="-2.8093214">
        <ele>235.977</ele>
        <time>2021-04-01T09:33:20.539Z</time>
      </trkpt>
      <trkpt lat="43.1392455" lon="-2.809329">
        <ele>236.082</ele>
        <time>2021-04-01T09:33:20.594Z</time>
      </trkpt>
      <trkpt lat="43.1392463" lon="-2.8093363">
        <ele>236.108</ele>
        <time>2021-04-01T09:33:20.649Z</time>
      </trkpt>
      <trkpt lat="43.1392472" lon="-2.8093436">
        <ele>236.074</ele>
        <time>2021-04-01T09:33:20.704Z</time>
      </trkpt>
      <trkpt lat="43.1392477" lon="-2.8093508">
        <ele>236.033</ele>
        <time>2021-04-01T09:33:20.759Z</time>
      </trkpt>
      <trkpt lat="43.1392485" lon="-2.8093584">
        <ele>236.043</ele>
        <time>2021-04-01T09:33:20.814Z</time>
      </trkpt>
      <trkpt lat="43.1392495" lon="-2.8093659">
        <ele>236.057</ele>
        <time>2021-04-01T09:33:20.869Z</time>
      </trkpt>
      <trkpt lat="43.1392504" lon="-2.8093733">
        <ele>236.067</ele>
        <time>2021-04-01T09:33:20.927Z</time>
      </trkpt>
      <trkpt lat="43.1392512" lon="-2.8093808">
        <ele>236.071</ele>
        <time>2021-04-01T09:33:20.985Z</time>
      </trkpt>
      <trkpt lat="43.1392517" lon="-2.8093883">
        <ele>236.068</ele>
        <time>2021-04-01T09:33:21.043Z</time>
      </trkpt>
      <trkpt lat="43.1392514" lon="-2.8093952">
        <ele>235.943</ele>
        <time>2021-04-01T09:33:21.101Z</time>
      </trkpt>
      <trkpt lat="43.1392514" lon="-2.8094018">
        <ele>235.895</ele>
        <time>2021-04-01T09:33:21.160Z</time>
      </trkpt>
      <trkpt lat="43.1392517" lon="-2.8094086">
        <ele>235.833</ele>
        <time>2021-04-01T09:33:21.218Z</time>
      </trkpt>
      <trkpt lat="43.1392524" lon="-2.8094155">
        <ele>235.786</ele>
        <time>2021-04-01T09:33:21.276Z</time>
      </trkpt>
      <trkpt lat="43.1392524" lon="-2.8094226">
        <ele>235.809</ele>
        <time>2021-04-01T09:33:21.334Z</time>
      </trkpt>
      <trkpt lat="43.1392521" lon="-2.8094299">
        <ele>235.781</ele>
        <time>2021-04-01T09:33:21.393Z</time>
      </trkpt>
      <trkpt lat="43.1392533" lon="-2.8094376">
        <ele>235.83</ele>
        <time>2021-04-01T09:33:21.451Z</time>
      </trkpt>
      <trkpt lat="43.1392542" lon="-2.8094451">
        <ele>235.874</ele>
        <time>2021-04-01T09:33:21.509Z</time>
      </trkpt>
      <trkpt lat="43.1392544" lon="-2.8094521">
        <ele>235.886</ele>
        <time>2021-04-01T09:33:21.567Z</time>
      </trkpt>
      <trkpt lat="43.1392546" lon="-2.8094588">
        <ele>235.931</ele>
        <time>2021-04-01T09:33:21.626Z</time>
      </trkpt>
      <trkpt lat="43.1392551" lon="-2.809466">
        <ele>235.933</ele>
        <time>2021-04-01T09:33:21.684Z</time>
      </trkpt>
      <trkpt lat="43.1392552" lon="-2.8094729">
        <ele>235.9</ele>
        <time>2021-04-01T09:33:21.742Z</time>
      </trkpt>
      <trkpt lat="43.1392559" lon="-2.8094798">
        <ele>235.901</ele>
        <time>2021-04-01T09:33:21.800Z</time>
      </trkpt>
      <trkpt lat="43.1392566" lon="-2.8094867">
        <ele>235.922</ele>
        <time>2021-04-01T09:33:21.859Z</time>
      </trkpt>
      <trkpt lat="43.1392571" lon="-2.8094937">
        <ele>235.903</ele>
        <time>2021-04-01T09:33:21.911Z</time>
      </trkpt>
      <trkpt lat="43.1392574" lon="-2.8095003">
        <ele>235.843</ele>
        <time>2021-04-01T09:33:21.963Z</time>
      </trkpt>
      <trkpt lat="43.1392576" lon="-2.8095066">
        <ele>235.782</ele>
        <time>2021-04-01T09:33:22.015Z</time>
      </trkpt>
      <trkpt lat="43.1392579" lon="-2.8095134">
        <ele>235.706</ele>
        <time>2021-04-01T09:33:22.067Z</time>
      </trkpt>
      <trkpt lat="43.1392574" lon="-2.8095191">
        <ele>235.552</ele>
        <time>2021-04-01T09:33:22.119Z</time>
      </trkpt>
      <trkpt lat="43.1392571" lon="-2.8095261">
        <ele>235.445</ele>
        <time>2021-04-01T09:33:22.171Z</time>
      </trkpt>
      <trkpt lat="43.1392572" lon="-2.8095329">
        <ele>235.385</ele>
        <time>2021-04-01T09:33:22.223Z</time>
      </trkpt>
      <trkpt lat="43.1392575" lon="-2.8095396">
        <ele>235.358</ele>
        <time>2021-04-01T09:33:22.275Z</time>
      </trkpt>
      <trkpt lat="43.1392577" lon="-2.8095461">
        <ele>235.309</ele>
        <time>2021-04-01T09:33:22.327Z</time>
      </trkpt>
      <trkpt lat="43.1392574" lon="-2.8095533">
        <ele>235.251</ele>
        <time>2021-04-01T09:33:22.380Z</time>
      </trkpt>
      <trkpt lat="43.1392569" lon="-2.8095606">
        <ele>235.215</ele>
        <time>2021-04-01T09:33:22.432Z</time>
      </trkpt>
      <trkpt lat="43.1392572" lon="-2.8095682">
        <ele>235.175</ele>
        <time>2021-04-01T09:33:22.484Z</time>
      </trkpt>
      <trkpt lat="43.1392565" lon="-2.8095751">
        <ele>235.13</ele>
        <time>2021-04-01T09:33:22.536Z</time>
      </trkpt>
      <trkpt lat="43.139256" lon="-2.8095823">
        <ele>235.053</ele>
        <time>2021-04-01T09:33:22.588Z</time>
      </trkpt>
      <trkpt lat="43.139256" lon="-2.8095902">
        <ele>235.073</ele>
        <time>2021-04-01T09:33:22.640Z</time>
      </trkpt>
      <trkpt lat="43.1392561" lon="-2.809598">
        <ele>235.091</ele>
        <time>2021-04-01T09:33:22.692Z</time>
      </trkpt>
      <trkpt lat="43.1392557" lon="-2.8096051">
        <ele>235.043</ele>
        <time>2021-04-01T09:33:22.744Z</time>
      </trkpt>
      <trkpt lat="43.1392551" lon="-2.8096122">
        <ele>234.996</ele>
        <time>2021-04-01T09:33:22.796Z</time>
      </trkpt>
      <trkpt lat="43.1392545" lon="-2.8096193">
        <ele>234.996</ele>
        <time>2021-04-01T09:33:22.849Z</time>
      </trkpt>
      <trkpt lat="43.1392539" lon="-2.8096262">
        <ele>234.976</ele>
        <time>2021-04-01T09:33:22.904Z</time>
      </trkpt>
      <trkpt lat="43.1392532" lon="-2.8096332">
        <ele>234.941</ele>
        <time>2021-04-01T09:33:22.959Z</time>
      </trkpt>
      <trkpt lat="43.1392524" lon="-2.8096406">
        <ele>234.868</ele>
        <time>2021-04-01T09:33:23.014Z</time>
      </trkpt>
      <trkpt lat="43.1392518" lon="-2.8096485">
        <ele>234.908</ele>
        <time>2021-04-01T09:33:23.069Z</time>
      </trkpt>
      <trkpt lat="43.1392507" lon="-2.8096557">
        <ele>234.833</ele>
        <time>2021-04-01T09:33:23.124Z</time>
      </trkpt>
      <trkpt lat="43.1392497" lon="-2.809663">
        <ele>234.8</ele>
        <time>2021-04-01T09:33:23.179Z</time>
      </trkpt>
      <trkpt lat="43.139249" lon="-2.8096704">
        <ele>234.8</ele>
        <time>2021-04-01T09:33:23.234Z</time>
      </trkpt>
      <trkpt lat="43.1392478" lon="-2.8096772">
        <ele>234.707</ele>
        <time>2021-04-01T09:33:23.289Z</time>
      </trkpt>
      <trkpt lat="43.1392464" lon="-2.8096843">
        <ele>234.62</ele>
        <time>2021-04-01T09:33:23.344Z</time>
      </trkpt>
      <trkpt lat="43.1392456" lon="-2.8096915">
        <ele>234.594</ele>
        <time>2021-04-01T09:33:23.399Z</time>
      </trkpt>
      <trkpt lat="43.1392446" lon="-2.8096982">
        <ele>234.49</ele>
        <time>2021-04-01T09:33:23.454Z</time>
      </trkpt>
      <trkpt lat="43.1392437" lon="-2.8097047">
        <ele>234.383</ele>
        <time>2021-04-01T09:33:23.509Z</time>
      </trkpt>
      <trkpt lat="43.1392423" lon="-2.8097116">
        <ele>234.274</ele>
        <time>2021-04-01T09:33:23.564Z</time>
      </trkpt>
      <trkpt lat="43.1392415" lon="-2.8097191">
        <ele>234.227</ele>
        <time>2021-04-01T09:33:23.619Z</time>
      </trkpt>
      <trkpt lat="43.1392406" lon="-2.8097264">
        <ele>234.191</ele>
        <time>2021-04-01T09:33:23.674Z</time>
      </trkpt>
      <trkpt lat="43.1392391" lon="-2.8097337">
        <ele>234.168</ele>
        <time>2021-04-01T09:33:23.729Z</time>
      </trkpt>
      <trkpt lat="43.1392379" lon="-2.8097407">
        <ele>234.108</ele>
        <time>2021-04-01T09:33:23.784Z</time>
      </trkpt>
      <trkpt lat="43.1392366" lon="-2.8097475">
        <ele>234.064</ele>
        <time>2021-04-01T09:33:23.839Z</time>
      </trkpt>
      <trkpt lat="43.1392353" lon="-2.8097549">
        <ele>234.043</ele>
        <time>2021-04-01T09:33:23.891Z</time>
      </trkpt>
      <trkpt lat="43.1392337" lon="-2.8097617">
        <ele>233.989</ele>
        <time>2021-04-01T09:33:23.943Z</time>
      </trkpt>
      <trkpt lat="43.1392322" lon="-2.8097683">
        <ele>233.894</ele>
        <time>2021-04-01T09:33:23.995Z</time>
      </trkpt>
      <trkpt lat="43.1392307" lon="-2.8097752">
        <ele>233.854</ele>
        <time>2021-04-01T09:33:24.047Z</time>
      </trkpt>
      <trkpt lat="43.1392295" lon="-2.8097823">
        <ele>233.824</ele>
        <time>2021-04-01T09:33:24.099Z</time>
      </trkpt>
      <trkpt lat="43.1392284" lon="-2.8097901">
        <ele>233.847</ele>
        <time>2021-04-01T09:33:24.151Z</time>
      </trkpt>
      <trkpt lat="43.1392271" lon="-2.8097979">
        <ele>233.834</ele>
        <time>2021-04-01T09:33:24.203Z</time>
      </trkpt>
      <trkpt lat="43.1392251" lon="-2.8098047">
        <ele>233.754</ele>
        <time>2021-04-01T09:33:24.255Z</time>
      </trkpt>
      <trkpt lat="43.1392233" lon="-2.8098113">
        <ele>233.577</ele>
        <time>2021-04-01T09:33:24.307Z</time>
      </trkpt>
      <trkpt lat="43.1392216" lon="-2.8098187">
        <ele>233.507</ele>
        <time>2021-04-01T09:33:24.360Z</time>
      </trkpt>
      <trkpt lat="43.1392201" lon="-2.8098258">
        <ele>233.43</ele>
        <time>2021-04-01T09:33:24.412Z</time>
      </trkpt>
      <trkpt lat="43.1392186" lon="-2.8098325">
        <ele>233.324</ele>
        <time>2021-04-01T09:33:24.464Z</time>
      </trkpt>
      <trkpt lat="43.1392173" lon="-2.8098399">
        <ele>233.28</ele>
        <time>2021-04-01T09:33:24.516Z</time>
      </trkpt>
      <trkpt lat="43.1392162" lon="-2.8098474">
        <ele>233.271</ele>
        <time>2021-04-01T09:33:24.568Z</time>
      </trkpt>
      <trkpt lat="43.139215" lon="-2.809855">
        <ele>233.236</ele>
        <time>2021-04-01T09:33:24.620Z</time>
      </trkpt>
      <trkpt lat="43.1392138" lon="-2.8098625">
        <ele>233.205</ele>
        <time>2021-04-01T09:33:24.672Z</time>
      </trkpt>
      <trkpt lat="43.1392125" lon="-2.8098699">
        <ele>233.171</ele>
        <time>2021-04-01T09:33:24.724Z</time>
      </trkpt>
      <trkpt lat="43.1392111" lon="-2.8098774">
        <ele>233.125</ele>
        <time>2021-04-01T09:33:24.776Z</time>
      </trkpt>
      <trkpt lat="43.1392098" lon="-2.8098847">
        <ele>233.121</ele>
        <time>2021-04-01T09:33:24.829Z</time>
      </trkpt>
      <trkpt lat="43.1392087" lon="-2.809892">
        <ele>233.11</ele>
        <time>2021-04-01T09:33:24.887Z</time>
      </trkpt>
      <trkpt lat="43.1392071" lon="-2.8098993">
        <ele>233.039</ele>
        <time>2021-04-01T09:33:24.945Z</time>
      </trkpt>
      <trkpt lat="43.1392064" lon="-2.8099068">
        <ele>232.98</ele>
        <time>2021-04-01T09:33:25.003Z</time>
      </trkpt>
      <trkpt lat="43.1392054" lon="-2.8099142">
        <ele>232.898</ele>
        <time>2021-04-01T09:33:25.061Z</time>
      </trkpt>
      <trkpt lat="43.1392043" lon="-2.8099219">
        <ele>232.835</ele>
        <time>2021-04-01T09:33:25.119Z</time>
      </trkpt>
      <trkpt lat="43.1392031" lon="-2.809929">
        <ele>232.759</ele>
        <time>2021-04-01T09:33:25.177Z</time>
      </trkpt>
      <trkpt lat="43.1392021" lon="-2.8099364">
        <ele>232.714</ele>
        <time>2021-04-01T09:33:25.235Z</time>
      </trkpt>
      <trkpt lat="43.139201" lon="-2.8099442">
        <ele>232.672</ele>
        <time>2021-04-01T09:33:25.293Z</time>
      </trkpt>
      <trkpt lat="43.1391998" lon="-2.8099517">
        <ele>232.6</ele>
        <time>2021-04-01T09:33:25.351Z</time>
      </trkpt>
      <trkpt lat="43.1391989" lon="-2.8099594">
        <ele>232.605</ele>
        <time>2021-04-01T09:33:25.409Z</time>
      </trkpt>
      <trkpt lat="43.1391976" lon="-2.8099672">
        <ele>232.586</ele>
        <time>2021-04-01T09:33:25.467Z</time>
      </trkpt>
      <trkpt lat="43.1391964" lon="-2.8099755">
        <ele>232.676</ele>
        <time>2021-04-01T09:33:25.525Z</time>
      </trkpt>
      <trkpt lat="43.139195" lon="-2.8099832">
        <ele>232.656</ele>
        <time>2021-04-01T09:33:25.583Z</time>
      </trkpt>
      <trkpt lat="43.1391938" lon="-2.8099912">
        <ele>232.632</ele>
        <time>2021-04-01T09:33:25.641Z</time>
      </trkpt>
      <trkpt lat="43.1391926" lon="-2.8099993">
        <ele>232.655</ele>
        <time>2021-04-01T09:33:25.699Z</time>
      </trkpt>
      <trkpt lat="43.1391915" lon="-2.810007">
        <ele>232.644</ele>
        <time>2021-04-01T09:33:25.757Z</time>
      </trkpt>
      <trkpt lat="43.13919" lon="-2.8100147">
        <ele>232.626</ele>
        <time>2021-04-01T09:33:25.815Z</time>
      </trkpt>
      <trkpt lat="43.1391893" lon="-2.8100227">
        <ele>232.66</ele>
        <time>2021-04-01T09:33:25.874Z</time>
      </trkpt>
      <trkpt lat="43.1391881" lon="-2.8100306">
        <ele>232.635</ele>
        <time>2021-04-01T09:33:25.929Z</time>
      </trkpt>
      <trkpt lat="43.139187" lon="-2.8100384">
        <ele>232.631</ele>
        <time>2021-04-01T09:33:25.984Z</time>
      </trkpt>
      <trkpt lat="43.1391856" lon="-2.8100461">
        <ele>232.615</ele>
        <time>2021-04-01T09:33:26.039Z</time>
      </trkpt>
      <trkpt lat="43.1391846" lon="-2.8100535">
        <ele>232.613</ele>
        <time>2021-04-01T09:33:26.094Z</time>
      </trkpt>
      <trkpt lat="43.1391832" lon="-2.8100606">
        <ele>232.55</ele>
        <time>2021-04-01T09:33:26.149Z</time>
      </trkpt>
      <trkpt lat="43.1391827" lon="-2.8100696">
        <ele>232.617</ele>
        <time>2021-04-01T09:33:26.204Z</time>
      </trkpt>
      <trkpt lat="43.1391815" lon="-2.8100772">
        <ele>232.68</ele>
        <time>2021-04-01T09:33:26.259Z</time>
      </trkpt>
      <trkpt lat="43.1391803" lon="-2.8100846">
        <ele>232.664</ele>
        <time>2021-04-01T09:33:26.314Z</time>
      </trkpt>
      <trkpt lat="43.1391793" lon="-2.8100923">
        <ele>232.645</ele>
        <time>2021-04-01T09:33:26.369Z</time>
      </trkpt>
      <trkpt lat="43.1391779" lon="-2.8101">
        <ele>232.644</ele>
        <time>2021-04-01T09:33:26.424Z</time>
      </trkpt>
      <trkpt lat="43.1391769" lon="-2.810108">
        <ele>232.688</ele>
        <time>2021-04-01T09:33:26.479Z</time>
      </trkpt>
      <trkpt lat="43.1391758" lon="-2.8101155">
        <ele>232.628</ele>
        <time>2021-04-01T09:33:26.534Z</time>
      </trkpt>
      <trkpt lat="43.1391744" lon="-2.8101227">
        <ele>232.591</ele>
        <time>2021-04-01T09:33:26.589Z</time>
      </trkpt>
      <trkpt lat="43.1391731" lon="-2.81013">
        <ele>232.592</ele>
        <time>2021-04-01T09:33:26.644Z</time>
      </trkpt>
      <trkpt lat="43.1391721" lon="-2.8101376">
        <ele>232.603</ele>
        <time>2021-04-01T09:33:26.699Z</time>
      </trkpt>
      <trkpt lat="43.139173" lon="-2.8101476">
        <ele>232.754</ele>
        <time>2021-04-01T09:33:26.754Z</time>
      </trkpt>
      <trkpt lat="43.139172" lon="-2.8101553">
        <ele>232.752</ele>
        <time>2021-04-01T09:33:26.809Z</time>
      </trkpt>
      <trkpt lat="43.1391707" lon="-2.810162">
        <ele>232.711</ele>
        <time>2021-04-01T09:33:26.864Z</time>
      </trkpt>
      <trkpt lat="43.1391701" lon="-2.81017">
        <ele>232.843</ele>
        <time>2021-04-01T09:33:26.919Z</time>
      </trkpt>
      <trkpt lat="43.1391697" lon="-2.8101781">
        <ele>232.965</ele>
        <time>2021-04-01T09:33:26.974Z</time>
      </trkpt>
      <trkpt lat="43.139169" lon="-2.8101863">
        <ele>233.044</ele>
        <time>2021-04-01T09:33:27.029Z</time>
      </trkpt>
      <trkpt lat="43.1391675" lon="-2.8101933">
        <ele>232.98</ele>
        <time>2021-04-01T09:33:27.084Z</time>
      </trkpt>
      <trkpt lat="43.1391664" lon="-2.8102006">
        <ele>232.966</ele>
        <time>2021-04-01T09:33:27.139Z</time>
      </trkpt>
      <trkpt lat="43.1391656" lon="-2.8102082">
        <ele>232.974</ele>
        <time>2021-04-01T09:33:27.194Z</time>
      </trkpt>
      <trkpt lat="43.1391645" lon="-2.8102151">
        <ele>232.964</ele>
        <time>2021-04-01T09:33:27.249Z</time>
      </trkpt>
      <trkpt lat="43.1391635" lon="-2.8102226">
        <ele>232.997</ele>
        <time>2021-04-01T09:33:27.304Z</time>
      </trkpt>
      <trkpt lat="43.1391628" lon="-2.8102309">
        <ele>233.086</ele>
        <time>2021-04-01T09:33:27.359Z</time>
      </trkpt>
      <trkpt lat="43.139162" lon="-2.8102387">
        <ele>233.104</ele>
        <time>2021-04-01T09:33:27.414Z</time>
      </trkpt>
      <trkpt lat="43.1391612" lon="-2.8102466">
        <ele>233.174</ele>
        <time>2021-04-01T09:33:27.469Z</time>
      </trkpt>
      <trkpt lat="43.1391602" lon="-2.810254">
        <ele>233.153</ele>
        <time>2021-04-01T09:33:27.524Z</time>
      </trkpt>
      <trkpt lat="43.1391589" lon="-2.8102611">
        <ele>233.14</ele>
        <time>2021-04-01T09:33:27.579Z</time>
      </trkpt>
      <trkpt lat="43.1391576" lon="-2.8102683">
        <ele>233.123</ele>
        <time>2021-04-01T09:33:27.634Z</time>
      </trkpt>
      <trkpt lat="43.1391568" lon="-2.810276">
        <ele>233.15</ele>
        <time>2021-04-01T09:33:27.689Z</time>
      </trkpt>
      <trkpt lat="43.139156" lon="-2.8102836">
        <ele>233.19</ele>
        <time>2021-04-01T09:33:27.744Z</time>
      </trkpt>
      <trkpt lat="43.1391551" lon="-2.810291">
        <ele>233.208</ele>
        <time>2021-04-01T09:33:27.799Z</time>
      </trkpt>
      <trkpt lat="43.1391541" lon="-2.8102985">
        <ele>233.211</ele>
        <time>2021-04-01T09:33:27.854Z</time>
      </trkpt>
      <trkpt lat="43.1391529" lon="-2.8103058">
        <ele>233.207</ele>
        <time>2021-04-01T09:33:27.909Z</time>
      </trkpt>
      <trkpt lat="43.1391521" lon="-2.8103135">
        <ele>233.203</ele>
        <time>2021-04-01T09:33:27.964Z</time>
      </trkpt>
      <trkpt lat="43.1391511" lon="-2.810321">
        <ele>233.203</ele>
        <time>2021-04-01T09:33:28.019Z</time>
      </trkpt>
      <trkpt lat="43.13915" lon="-2.8103283">
        <ele>233.137</ele>
        <time>2021-04-01T09:33:28.074Z</time>
      </trkpt>
      <trkpt lat="43.1391488" lon="-2.8103357">
        <ele>233.116</ele>
        <time>2021-04-01T09:33:28.129Z</time>
      </trkpt>
      <trkpt lat="43.1391476" lon="-2.8103432">
        <ele>233.12</ele>
        <time>2021-04-01T09:33:28.184Z</time>
      </trkpt>
      <trkpt lat="43.1391461" lon="-2.8103503">
        <ele>233.089</ele>
        <time>2021-04-01T09:33:28.239Z</time>
      </trkpt>
      <trkpt lat="43.1391452" lon="-2.8103578">
        <ele>233.072</ele>
        <time>2021-04-01T09:33:28.294Z</time>
      </trkpt>
      <trkpt lat="43.1391442" lon="-2.810365">
        <ele>233.053</ele>
        <time>2021-04-01T09:33:28.349Z</time>
      </trkpt>
      <trkpt lat="43.1391431" lon="-2.8103722">
        <ele>233.016</ele>
        <time>2021-04-01T09:33:28.404Z</time>
      </trkpt>
      <trkpt lat="43.1391417" lon="-2.8103788">
        <ele>232.936</ele>
        <time>2021-04-01T09:33:28.459Z</time>
      </trkpt>
      <trkpt lat="43.1391402" lon="-2.8103856">
        <ele>232.863</ele>
        <time>2021-04-01T09:33:28.514Z</time>
      </trkpt>
      <trkpt lat="43.1391386" lon="-2.8103922">
        <ele>232.791</ele>
        <time>2021-04-01T09:33:28.569Z</time>
      </trkpt>
      <trkpt lat="43.139137" lon="-2.8103987">
        <ele>232.728</ele>
        <time>2021-04-01T09:33:28.624Z</time>
      </trkpt>
      <trkpt lat="43.1391356" lon="-2.8104055">
        <ele>232.69</ele>
        <time>2021-04-01T09:33:28.679Z</time>
      </trkpt>
      <trkpt lat="43.1391345" lon="-2.8104125">
        <ele>232.672</ele>
        <time>2021-04-01T09:33:28.734Z</time>
      </trkpt>
      <trkpt lat="43.1391334" lon="-2.8104199">
        <ele>232.642</ele>
        <time>2021-04-01T09:33:28.789Z</time>
      </trkpt>
      <trkpt lat="43.1391319" lon="-2.8104268">
        <ele>232.569</ele>
        <time>2021-04-01T09:33:28.844Z</time>
      </trkpt>
      <trkpt lat="43.1391313" lon="-2.8104345">
        <ele>232.579</ele>
        <time>2021-04-01T09:33:28.899Z</time>
      </trkpt>
      <trkpt lat="43.139131" lon="-2.8104423">
        <ele>232.606</ele>
        <time>2021-04-01T09:33:28.954Z</time>
      </trkpt>
      <trkpt lat="43.1391296" lon="-2.810449">
        <ele>232.593</ele>
        <time>2021-04-01T09:33:29.009Z</time>
      </trkpt>
      <trkpt lat="43.1391289" lon="-2.8104565">
        <ele>232.58</ele>
        <time>2021-04-01T09:33:29.064Z</time>
      </trkpt>
      <trkpt lat="43.1391284" lon="-2.8104643">
        <ele>232.617</ele>
        <time>2021-04-01T09:33:29.119Z</time>
      </trkpt>
      <trkpt lat="43.1391274" lon="-2.8104716">
        <ele>232.616</ele>
        <time>2021-04-01T09:33:29.174Z</time>
      </trkpt>
      <trkpt lat="43.1391265" lon="-2.8104791">
        <ele>232.594</ele>
        <time>2021-04-01T09:33:29.229Z</time>
      </trkpt>
      <trkpt lat="43.1391257" lon="-2.8104864">
        <ele>232.555</ele>
        <time>2021-04-01T09:33:29.284Z</time>
      </trkpt>
      <trkpt lat="43.1391248" lon="-2.8104935">
        <ele>232.525</ele>
        <time>2021-04-01T09:33:29.339Z</time>
      </trkpt>
      <trkpt lat="43.1391236" lon="-2.8105002">
        <ele>232.444</ele>
        <time>2021-04-01T09:33:29.394Z</time>
      </trkpt>
      <trkpt lat="43.1391225" lon="-2.8105068">
        <ele>232.388</ele>
        <time>2021-04-01T09:33:29.449Z</time>
      </trkpt>
      <trkpt lat="43.1391215" lon="-2.8105144">
        <ele>232.379</ele>
        <time>2021-04-01T09:33:29.504Z</time>
      </trkpt>
      <trkpt lat="43.1391206" lon="-2.8105217">
        <ele>232.318</ele>
        <time>2021-04-01T09:33:29.559Z</time>
      </trkpt>
      <trkpt lat="43.1391198" lon="-2.8105289">
        <ele>232.341</ele>
        <time>2021-04-01T09:33:29.614Z</time>
      </trkpt>
      <trkpt lat="43.1391184" lon="-2.8105358">
        <ele>232.293</ele>
        <time>2021-04-01T09:33:29.669Z</time>
      </trkpt>
      <trkpt lat="43.1391175" lon="-2.8105428">
        <ele>232.277</ele>
        <time>2021-04-01T09:33:29.724Z</time>
      </trkpt>
      <trkpt lat="43.1391163" lon="-2.8105499">
        <ele>232.24</ele>
        <time>2021-04-01T09:33:29.779Z</time>
      </trkpt>
      <trkpt lat="43.139115" lon="-2.8105569">
        <ele>232.214</ele>
        <time>2021-04-01T09:33:29.834Z</time>
      </trkpt>
      <trkpt lat="43.1391137" lon="-2.810564">
        <ele>232.196</ele>
        <time>2021-04-01T09:33:29.889Z</time>
      </trkpt>
      <trkpt lat="43.1391127" lon="-2.8105711">
        <ele>232.196</ele>
        <time>2021-04-01T09:33:29.944Z</time>
      </trkpt>
      <trkpt lat="43.1391116" lon="-2.8105784">
        <ele>232.177</ele>
        <time>2021-04-01T09:33:29.999Z</time>
      </trkpt>
      <trkpt lat="43.1391102" lon="-2.8105856">
        <ele>232.204</ele>
        <time>2021-04-01T09:33:30.054Z</time>
      </trkpt>
      <trkpt lat="43.1391088" lon="-2.8105924">
        <ele>232.143</ele>
        <time>2021-04-01T09:33:30.109Z</time>
      </trkpt>
      <trkpt lat="43.1391072" lon="-2.8105991">
        <ele>232.087</ele>
        <time>2021-04-01T09:33:30.164Z</time>
      </trkpt>
      <trkpt lat="43.1391061" lon="-2.8106061">
        <ele>232.108</ele>
        <time>2021-04-01T09:33:30.219Z</time>
      </trkpt>
      <trkpt lat="43.1391052" lon="-2.810613">
        <ele>232.134</ele>
        <time>2021-04-01T09:33:30.274Z</time>
      </trkpt>
      <trkpt lat="43.1391043" lon="-2.8106201">
        <ele>232.118</ele>
        <time>2021-04-01T09:33:30.329Z</time>
      </trkpt>
      <trkpt lat="43.1391034" lon="-2.8106275">
        <ele>232.11</ele>
        <time>2021-04-01T09:33:30.384Z</time>
      </trkpt>
      <trkpt lat="43.1391024" lon="-2.8106348">
        <ele>232.092</ele>
        <time>2021-04-01T09:33:30.439Z</time>
      </trkpt>
      <trkpt lat="43.1391014" lon="-2.8106419">
        <ele>232.091</ele>
        <time>2021-04-01T09:33:30.494Z</time>
      </trkpt>
      <trkpt lat="43.1391001" lon="-2.8106488">
        <ele>232.111</ele>
        <time>2021-04-01T09:33:30.549Z</time>
      </trkpt>
      <trkpt lat="43.1390992" lon="-2.810656">
        <ele>232.078</ele>
        <time>2021-04-01T09:33:30.604Z</time>
      </trkpt>
      <trkpt lat="43.1390979" lon="-2.8106624">
        <ele>232.002</ele>
        <time>2021-04-01T09:33:30.659Z</time>
      </trkpt>
      <trkpt lat="43.1390965" lon="-2.8106687">
        <ele>231.943</ele>
        <time>2021-04-01T09:33:30.714Z</time>
      </trkpt>
      <trkpt lat="43.139095" lon="-2.8106754">
        <ele>231.878</ele>
        <time>2021-04-01T09:33:30.769Z</time>
      </trkpt>
      <trkpt lat="43.1390938" lon="-2.8106828">
        <ele>231.877</ele>
        <time>2021-04-01T09:33:30.824Z</time>
      </trkpt>
      <trkpt lat="43.1390927" lon="-2.8106895">
        <ele>231.832</ele>
        <time>2021-04-01T09:33:30.879Z</time>
      </trkpt>
      <trkpt lat="43.1390914" lon="-2.8106961">
        <ele>231.744</ele>
        <time>2021-04-01T09:33:30.934Z</time>
      </trkpt>
      <trkpt lat="43.1390904" lon="-2.8107027">
        <ele>231.665</ele>
        <time>2021-04-01T09:33:30.989Z</time>
      </trkpt>
      <trkpt lat="43.1390895" lon="-2.8107093">
        <ele>231.604</ele>
        <time>2021-04-01T09:33:31.044Z</time>
      </trkpt>
      <trkpt lat="43.1390882" lon="-2.8107162">
        <ele>231.556</ele>
        <time>2021-04-01T09:33:31.099Z</time>
      </trkpt>
      <trkpt lat="43.1390879" lon="-2.8107238">
        <ele>231.601</ele>
        <time>2021-04-01T09:33:31.154Z</time>
      </trkpt>
      <trkpt lat="43.1390872" lon="-2.8107312">
        <ele>231.598</ele>
        <time>2021-04-01T09:33:31.209Z</time>
      </trkpt>
      <trkpt lat="43.1390871" lon="-2.810738">
        <ele>231.588</ele>
        <time>2021-04-01T09:33:31.264Z</time>
      </trkpt>
      <trkpt lat="43.1390869" lon="-2.8107452">
        <ele>231.583</ele>
        <time>2021-04-01T09:33:31.319Z</time>
      </trkpt>
      <trkpt lat="43.1390864" lon="-2.8107529">
        <ele>231.617</ele>
        <time>2021-04-01T09:33:31.374Z</time>
      </trkpt>
      <trkpt lat="43.1390855" lon="-2.8107597">
        <ele>231.586</ele>
        <time>2021-04-01T09:33:31.429Z</time>
      </trkpt>
      <trkpt lat="43.1390849" lon="-2.8107663">
        <ele>231.57</ele>
        <time>2021-04-01T09:33:31.484Z</time>
      </trkpt>
      <trkpt lat="43.1390847" lon="-2.8107733">
        <ele>231.567</ele>
        <time>2021-04-01T09:33:31.539Z</time>
      </trkpt>
      <trkpt lat="43.1390839" lon="-2.8107798">
        <ele>231.525</ele>
        <time>2021-04-01T09:33:31.594Z</time>
      </trkpt>
      <trkpt lat="43.1390834" lon="-2.8107866">
        <ele>231.524</ele>
        <time>2021-04-01T09:33:31.649Z</time>
      </trkpt>
      <trkpt lat="43.1390833" lon="-2.8107939">
        <ele>231.531</ele>
        <time>2021-04-01T09:33:31.704Z</time>
      </trkpt>
      <trkpt lat="43.139083" lon="-2.8108004">
        <ele>231.522</ele>
        <time>2021-04-01T09:33:31.759Z</time>
      </trkpt>
      <trkpt lat="43.1390828" lon="-2.8108067">
        <ele>231.466</ele>
        <time>2021-04-01T09:33:31.814Z</time>
      </trkpt>
      <trkpt lat="43.1390831" lon="-2.8108138">
        <ele>231.452</ele>
        <time>2021-04-01T09:33:31.869Z</time>
      </trkpt>
      <trkpt lat="43.139083" lon="-2.810821">
        <ele>231.429</ele>
        <time>2021-04-01T09:33:31.924Z</time>
      </trkpt>
      <trkpt lat="43.1390831" lon="-2.8108278">
        <ele>231.413</ele>
        <time>2021-04-01T09:33:31.979Z</time>
      </trkpt>
      <trkpt lat="43.1390833" lon="-2.810835">
        <ele>231.405</ele>
        <time>2021-04-01T09:33:32.034Z</time>
      </trkpt>
      <trkpt lat="43.1390835" lon="-2.8108419">
        <ele>231.358</ele>
        <time>2021-04-01T09:33:32.089Z</time>
      </trkpt>
      <trkpt lat="43.1390835" lon="-2.8108486">
        <ele>231.292</ele>
        <time>2021-04-01T09:33:32.144Z</time>
      </trkpt>
      <trkpt lat="43.1390835" lon="-2.8108552">
        <ele>231.23</ele>
        <time>2021-04-01T09:33:32.199Z</time>
      </trkpt>
      <trkpt lat="43.1390834" lon="-2.8108619">
        <ele>231.144</ele>
        <time>2021-04-01T09:33:32.254Z</time>
      </trkpt>
      <trkpt lat="43.1390833" lon="-2.8108687">
        <ele>231.084</ele>
        <time>2021-04-01T09:33:32.309Z</time>
      </trkpt>
      <trkpt lat="43.1390839" lon="-2.8108756">
        <ele>231.04</ele>
        <time>2021-04-01T09:33:32.364Z</time>
      </trkpt>
      <trkpt lat="43.1390841" lon="-2.8108823">
        <ele>230.962</ele>
        <time>2021-04-01T09:33:32.419Z</time>
      </trkpt>
      <trkpt lat="43.1390845" lon="-2.8108892">
        <ele>230.906</ele>
        <time>2021-04-01T09:33:32.474Z</time>
      </trkpt>
      <trkpt lat="43.1390855" lon="-2.8108956">
        <ele>230.814</ele>
        <time>2021-04-01T09:33:32.529Z</time>
      </trkpt>
      <trkpt lat="43.1390867" lon="-2.8109014">
        <ele>230.67</ele>
        <time>2021-04-01T09:33:32.584Z</time>
      </trkpt>
      <trkpt lat="43.139088" lon="-2.8109084">
        <ele>230.618</ele>
        <time>2021-04-01T09:33:32.639Z</time>
      </trkpt>
      <trkpt lat="43.139089" lon="-2.8109149">
        <ele>230.554</ele>
        <time>2021-04-01T09:33:32.694Z</time>
      </trkpt>
      <trkpt lat="43.1390902" lon="-2.8109215">
        <ele>230.554</ele>
        <time>2021-04-01T09:33:32.749Z</time>
      </trkpt>
      <trkpt lat="43.1390919" lon="-2.8109288">
        <ele>230.574</ele>
        <time>2021-04-01T09:33:32.804Z</time>
      </trkpt>
      <trkpt lat="43.1390937" lon="-2.8109363">
        <ele>230.648</ele>
        <time>2021-04-01T09:33:32.859Z</time>
      </trkpt>
      <trkpt lat="43.1390952" lon="-2.8109429">
        <ele>230.636</ele>
        <time>2021-04-01T09:33:32.911Z</time>
      </trkpt>
      <trkpt lat="43.1390969" lon="-2.8109494">
        <ele>230.6</ele>
        <time>2021-04-01T09:33:32.963Z</time>
      </trkpt>
      <trkpt lat="43.1390989" lon="-2.8109559">
        <ele>230.609</ele>
        <time>2021-04-01T09:33:33.015Z</time>
      </trkpt>
      <trkpt lat="43.1391008" lon="-2.810962">
        <ele>230.596</ele>
        <time>2021-04-01T09:33:33.067Z</time>
      </trkpt>
      <trkpt lat="43.1391029" lon="-2.8109685">
        <ele>230.539</ele>
        <time>2021-04-01T09:33:33.119Z</time>
      </trkpt>
      <trkpt lat="43.1391053" lon="-2.8109745">
        <ele>230.466</ele>
        <time>2021-04-01T09:33:33.171Z</time>
      </trkpt>
      <trkpt lat="43.1391075" lon="-2.8109804">
        <ele>230.39</ele>
        <time>2021-04-01T09:33:33.223Z</time>
      </trkpt>
      <trkpt lat="43.1391097" lon="-2.810986">
        <ele>230.335</ele>
        <time>2021-04-01T09:33:33.275Z</time>
      </trkpt>
      <trkpt lat="43.1391119" lon="-2.8109916">
        <ele>230.251</ele>
        <time>2021-04-01T09:33:33.327Z</time>
      </trkpt>
      <trkpt lat="43.1391144" lon="-2.8109971">
        <ele>230.174</ele>
        <time>2021-04-01T09:33:33.380Z</time>
      </trkpt>
      <trkpt lat="43.1391168" lon="-2.8110031">
        <ele>230.132</ele>
        <time>2021-04-01T09:33:33.432Z</time>
      </trkpt>
      <trkpt lat="43.1391193" lon="-2.8110085">
        <ele>230.067</ele>
        <time>2021-04-01T09:33:33.484Z</time>
      </trkpt>
      <trkpt lat="43.1391221" lon="-2.8110137">
        <ele>230.011</ele>
        <time>2021-04-01T09:33:33.536Z</time>
      </trkpt>
      <trkpt lat="43.1391255" lon="-2.8110195">
        <ele>229.956</ele>
        <time>2021-04-01T09:33:33.588Z</time>
      </trkpt>
      <trkpt lat="43.1391286" lon="-2.8110255">
        <ele>229.954</ele>
        <time>2021-04-01T09:33:33.640Z</time>
      </trkpt>
      <trkpt lat="43.1391317" lon="-2.8110315">
        <ele>229.985</ele>
        <time>2021-04-01T09:33:33.692Z</time>
      </trkpt>
      <trkpt lat="43.1391355" lon="-2.8110371">
        <ele>230.017</ele>
        <time>2021-04-01T09:33:33.744Z</time>
      </trkpt>
      <trkpt lat="43.1391392" lon="-2.8110432">
        <ele>230.048</ele>
        <time>2021-04-01T09:33:33.796Z</time>
      </trkpt>
      <trkpt lat="43.1391423" lon="-2.8110487">
        <ele>230.025</ele>
        <time>2021-04-01T09:33:33.849Z</time>
      </trkpt>
      <trkpt lat="43.1391456" lon="-2.8110545">
        <ele>230.021</ele>
        <time>2021-04-01T09:33:33.910Z</time>
      </trkpt>
      <trkpt lat="43.1391489" lon="-2.8110605">
        <ele>229.981</ele>
        <time>2021-04-01T09:33:33.971Z</time>
      </trkpt>
      <trkpt lat="43.1391519" lon="-2.8110659">
        <ele>230.012</ele>
        <time>2021-04-01T09:33:34.033Z</time>
      </trkpt>
      <trkpt lat="43.1391555" lon="-2.8110713">
        <ele>229.976</ele>
        <time>2021-04-01T09:33:34.094Z</time>
      </trkpt>
      <trkpt lat="43.1391592" lon="-2.8110761">
        <ele>229.872</ele>
        <time>2021-04-01T09:33:34.156Z</time>
      </trkpt>
      <trkpt lat="43.1391631" lon="-2.8110807">
        <ele>229.828</ele>
        <time>2021-04-01T09:33:34.217Z</time>
      </trkpt>
      <trkpt lat="43.1391667" lon="-2.8110849">
        <ele>229.725</ele>
        <time>2021-04-01T09:33:34.279Z</time>
      </trkpt>
      <trkpt lat="43.1391706" lon="-2.8110898">
        <ele>229.714</ele>
        <time>2021-04-01T09:33:34.340Z</time>
      </trkpt>
      <trkpt lat="43.1391747" lon="-2.8110948">
        <ele>229.71</ele>
        <time>2021-04-01T09:33:34.402Z</time>
      </trkpt>
      <trkpt lat="43.1391783" lon="-2.8110996">
        <ele>229.619</ele>
        <time>2021-04-01T09:33:34.463Z</time>
      </trkpt>
      <trkpt lat="43.1391822" lon="-2.8111043">
        <ele>229.58</ele>
        <time>2021-04-01T09:33:34.525Z</time>
      </trkpt>
      <trkpt lat="43.1391862" lon="-2.811109">
        <ele>229.533</ele>
        <time>2021-04-01T09:33:34.586Z</time>
      </trkpt>
      <trkpt lat="43.1391903" lon="-2.8111136">
        <ele>229.471</ele>
        <time>2021-04-01T09:33:34.648Z</time>
      </trkpt>
      <trkpt lat="43.1391943" lon="-2.8111177">
        <ele>229.411</ele>
        <time>2021-04-01T09:33:34.709Z</time>
      </trkpt>
      <trkpt lat="43.1391982" lon="-2.8111225">
        <ele>229.361</ele>
        <time>2021-04-01T09:33:34.771Z</time>
      </trkpt>
      <trkpt lat="43.1392026" lon="-2.8111272">
        <ele>229.34</ele>
        <time>2021-04-01T09:33:34.832Z</time>
      </trkpt>
      <trkpt lat="43.1392068" lon="-2.8111317">
        <ele>229.313</ele>
        <time>2021-04-01T09:33:34.894Z</time>
      </trkpt>
      <trkpt lat="43.1392111" lon="-2.8111357">
        <ele>229.264</ele>
        <time>2021-04-01T09:33:34.943Z</time>
      </trkpt>
      <trkpt lat="43.1392154" lon="-2.8111395">
        <ele>229.228</ele>
        <time>2021-04-01T09:33:34.992Z</time>
      </trkpt>
      <trkpt lat="43.1392198" lon="-2.8111432">
        <ele>229.169</ele>
        <time>2021-04-01T09:33:35.041Z</time>
      </trkpt>
      <trkpt lat="43.1392246" lon="-2.8111466">
        <ele>229.117</ele>
        <time>2021-04-01T09:33:35.090Z</time>
      </trkpt>
      <trkpt lat="43.1392293" lon="-2.81115">
        <ele>229.057</ele>
        <time>2021-04-01T09:33:35.140Z</time>
      </trkpt>
      <trkpt lat="43.1392334" lon="-2.8111548">
        <ele>229.067</ele>
        <time>2021-04-01T09:33:35.189Z</time>
      </trkpt>
      <trkpt lat="43.1392376" lon="-2.8111591">
        <ele>229.049</ele>
        <time>2021-04-01T09:33:35.238Z</time>
      </trkpt>
      <trkpt lat="43.139242" lon="-2.8111632">
        <ele>229.002</ele>
        <time>2021-04-01T09:33:35.287Z</time>
      </trkpt>
      <trkpt lat="43.1392464" lon="-2.8111673">
        <ele>228.95</ele>
        <time>2021-04-01T09:33:35.336Z</time>
      </trkpt>
      <trkpt lat="43.1392509" lon="-2.811171">
        <ele>228.911</ele>
        <time>2021-04-01T09:33:35.386Z</time>
      </trkpt>
      <trkpt lat="43.1392553" lon="-2.8111749">
        <ele>228.872</ele>
        <time>2021-04-01T09:33:35.435Z</time>
      </trkpt>
      <trkpt lat="43.1392597" lon="-2.8111792">
        <ele>228.862</ele>
        <time>2021-04-01T09:33:35.484Z</time>
      </trkpt>
      <trkpt lat="43.1392643" lon="-2.8111836">
        <ele>228.84</ele>
        <time>2021-04-01T09:33:35.533Z</time>
      </trkpt>
      <trkpt lat="43.1392688" lon="-2.8111876">
        <ele>228.8</ele>
        <time>2021-04-01T09:33:35.582Z</time>
      </trkpt>
      <trkpt lat="43.1392733" lon="-2.8111917">
        <ele>228.776</ele>
        <time>2021-04-01T09:33:35.632Z</time>
      </trkpt>
      <trkpt lat="43.1392777" lon="-2.8111952">
        <ele>228.704</ele>
        <time>2021-04-01T09:33:35.681Z</time>
      </trkpt>
      <trkpt lat="43.1392824" lon="-2.811199">
        <ele>228.652</ele>
        <time>2021-04-01T09:33:35.730Z</time>
      </trkpt>
      <trkpt lat="43.1392867" lon="-2.8112031">
        <ele>228.65</ele>
        <time>2021-04-01T09:33:35.779Z</time>
      </trkpt>
      <trkpt lat="43.1392906" lon="-2.8112083">
        <ele>228.637</ele>
        <time>2021-04-01T09:33:35.829Z</time>
      </trkpt>
      <trkpt lat="43.1392951" lon="-2.8112123">
        <ele>228.609</ele>
        <time>2021-04-01T09:33:35.887Z</time>
      </trkpt>
      <trkpt lat="43.1392996" lon="-2.8112162">
        <ele>228.567</ele>
        <time>2021-04-01T09:33:35.945Z</time>
      </trkpt>
      <trkpt lat="43.1393039" lon="-2.8112204">
        <ele>228.557</ele>
        <time>2021-04-01T09:33:36.003Z</time>
      </trkpt>
      <trkpt lat="43.1393079" lon="-2.8112246">
        <ele>228.563</ele>
        <time>2021-04-01T09:33:36.061Z</time>
      </trkpt>
      <trkpt lat="43.1393121" lon="-2.8112292">
        <ele>228.585</ele>
        <time>2021-04-01T09:33:36.119Z</time>
      </trkpt>
      <trkpt lat="43.1393173" lon="-2.8112344">
        <ele>228.723</ele>
        <time>2021-04-01T09:33:36.177Z</time>
      </trkpt>
      <trkpt lat="43.139322" lon="-2.8112385">
        <ele>228.697</ele>
        <time>2021-04-01T09:33:36.235Z</time>
      </trkpt>
      <trkpt lat="43.1393263" lon="-2.8112432">
        <ele>228.667</ele>
        <time>2021-04-01T09:33:36.293Z</time>
      </trkpt>
      <trkpt lat="43.1393304" lon="-2.8112482">
        <ele>228.634</ele>
        <time>2021-04-01T09:33:36.351Z</time>
      </trkpt>
      <trkpt lat="43.1393347" lon="-2.8112531">
        <ele>228.639</ele>
        <time>2021-04-01T09:33:36.409Z</time>
      </trkpt>
      <trkpt lat="43.1393387" lon="-2.811258">
        <ele>228.624</ele>
        <time>2021-04-01T09:33:36.467Z</time>
      </trkpt>
      <trkpt lat="43.1393429" lon="-2.8112627">
        <ele>228.653</ele>
        <time>2021-04-01T09:33:36.525Z</time>
      </trkpt>
      <trkpt lat="43.1393474" lon="-2.8112674">
        <ele>228.713</ele>
        <time>2021-04-01T09:33:36.583Z</time>
      </trkpt>
      <trkpt lat="43.1393518" lon="-2.8112724">
        <ele>228.688</ele>
        <time>2021-04-01T09:33:36.641Z</time>
      </trkpt>
      <trkpt lat="43.1393555" lon="-2.8112775">
        <ele>228.677</ele>
        <time>2021-04-01T09:33:36.699Z</time>
      </trkpt>
      <trkpt lat="43.1393593" lon="-2.8112827">
        <ele>228.711</ele>
        <time>2021-04-01T09:33:36.757Z</time>
      </trkpt>
      <trkpt lat="43.1393631" lon="-2.8112875">
        <ele>228.719</ele>
        <time>2021-04-01T09:33:36.815Z</time>
      </trkpt>
      <trkpt lat="43.1393669" lon="-2.8112926">
        <ele>228.679</ele>
        <time>2021-04-01T09:33:36.874Z</time>
      </trkpt>
      <trkpt lat="43.1393709" lon="-2.8112977">
        <ele>228.622</ele>
        <time>2021-04-01T09:33:36.932Z</time>
      </trkpt>
      <trkpt lat="43.1393749" lon="-2.8113034">
        <ele>228.596</ele>
        <time>2021-04-01T09:33:36.990Z</time>
      </trkpt>
      <trkpt lat="43.1393788" lon="-2.8113097">
        <ele>228.629</ele>
        <time>2021-04-01T09:33:37.048Z</time>
      </trkpt>
      <trkpt lat="43.1393826" lon="-2.8113156">
        <ele>228.587</ele>
        <time>2021-04-01T09:33:37.106Z</time>
      </trkpt>
      <trkpt lat="43.1393863" lon="-2.8113212">
        <ele>228.501</ele>
        <time>2021-04-01T09:33:37.164Z</time>
      </trkpt>
      <trkpt lat="43.1393905" lon="-2.8113274">
        <ele>228.504</ele>
        <time>2021-04-01T09:33:37.222Z</time>
      </trkpt>
      <trkpt lat="43.1393944" lon="-2.8113336">
        <ele>228.464</ele>
        <time>2021-04-01T09:33:37.280Z</time>
      </trkpt>
      <trkpt lat="43.1393981" lon="-2.8113394">
        <ele>228.401</ele>
        <time>2021-04-01T09:33:37.338Z</time>
      </trkpt>
      <trkpt lat="43.1394019" lon="-2.8113459">
        <ele>228.424</ele>
        <time>2021-04-01T09:33:37.396Z</time>
      </trkpt>
      <trkpt lat="43.1394054" lon="-2.8113519">
        <ele>228.342</ele>
        <time>2021-04-01T09:33:37.454Z</time>
      </trkpt>
      <trkpt lat="43.1394093" lon="-2.8113585">
        <ele>228.349</ele>
        <time>2021-04-01T09:33:37.512Z</time>
      </trkpt>
      <trkpt lat="43.139413" lon="-2.811365">
        <ele>228.319</ele>
        <time>2021-04-01T09:33:37.570Z</time>
      </trkpt>
      <trkpt lat="43.1394167" lon="-2.8113715">
        <ele>228.324</ele>
        <time>2021-04-01T09:33:37.628Z</time>
      </trkpt>
      <trkpt lat="43.1394203" lon="-2.8113782">
        <ele>228.381</ele>
        <time>2021-04-01T09:33:37.686Z</time>
      </trkpt>
      <trkpt lat="43.1394238" lon="-2.8113844">
        <ele>228.366</ele>
        <time>2021-04-01T09:33:37.744Z</time>
      </trkpt>
      <trkpt lat="43.1394275" lon="-2.8113909">
        <ele>228.399</ele>
        <time>2021-04-01T09:33:37.802Z</time>
      </trkpt>
      <trkpt lat="43.1394307" lon="-2.8113976">
        <ele>228.274</ele>
        <time>2021-04-01T09:33:37.860Z</time>
      </trkpt>
      <trkpt lat="43.1394345" lon="-2.8114045">
        <ele>228.279</ele>
        <time>2021-04-01T09:33:37.919Z</time>
      </trkpt>
      <trkpt lat="43.139438" lon="-2.8114111">
        <ele>228.235</ele>
        <time>2021-04-01T09:33:37.971Z</time>
      </trkpt>
      <trkpt lat="43.139441" lon="-2.8114177">
        <ele>228.157</ele>
        <time>2021-04-01T09:33:38.023Z</time>
      </trkpt>
      <trkpt lat="43.1394445" lon="-2.8114243">
        <ele>228.178</ele>
        <time>2021-04-01T09:33:38.075Z</time>
      </trkpt>
      <trkpt lat="43.1394479" lon="-2.8114315">
        <ele>228.216</ele>
        <time>2021-04-01T09:33:38.127Z</time>
      </trkpt>
      <trkpt lat="43.1394514" lon="-2.8114386">
        <ele>228.217</ele>
        <time>2021-04-01T09:33:38.179Z</time>
      </trkpt>
      <trkpt lat="43.1394546" lon="-2.8114454">
        <ele>228.178</ele>
        <time>2021-04-01T09:33:38.231Z</time>
      </trkpt>
      <trkpt lat="43.1394574" lon="-2.811452">
        <ele>228.135</ele>
        <time>2021-04-01T09:33:38.283Z</time>
      </trkpt>
      <trkpt lat="43.1394607" lon="-2.8114588">
        <ele>228.086</ele>
        <time>2021-04-01T09:33:38.335Z</time>
      </trkpt>
      <trkpt lat="43.1394642" lon="-2.8114657">
        <ele>228.09</ele>
        <time>2021-04-01T09:33:38.387Z</time>
      </trkpt>
      <trkpt lat="43.1394676" lon="-2.811473">
        <ele>228.133</ele>
        <time>2021-04-01T09:33:38.440Z</time>
      </trkpt>
      <trkpt lat="43.139471" lon="-2.81148">
        <ele>228.146</ele>
        <time>2021-04-01T09:33:38.492Z</time>
      </trkpt>
      <trkpt lat="43.139474" lon="-2.8114871">
        <ele>228.142</ele>
        <time>2021-04-01T09:33:38.544Z</time>
      </trkpt>
      <trkpt lat="43.1394771" lon="-2.8114942">
        <ele>228.122</ele>
        <time>2021-04-01T09:33:38.596Z</time>
      </trkpt>
      <trkpt lat="43.13948" lon="-2.8115013">
        <ele>228.092</ele>
        <time>2021-04-01T09:33:38.648Z</time>
      </trkpt>
      <trkpt lat="43.1394829" lon="-2.8115086">
        <ele>228.094</ele>
        <time>2021-04-01T09:33:38.700Z</time>
      </trkpt>
      <trkpt lat="43.1394857" lon="-2.8115159">
        <ele>228.085</ele>
        <time>2021-04-01T09:33:38.752Z</time>
      </trkpt>
      <trkpt lat="43.1394887" lon="-2.8115231">
        <ele>228.087</ele>
        <time>2021-04-01T09:33:38.804Z</time>
      </trkpt>
      <trkpt lat="43.1394919" lon="-2.8115305">
        <ele>228.104</ele>
        <time>2021-04-01T09:33:38.856Z</time>
      </trkpt>
      <trkpt lat="43.1394951" lon="-2.8115378">
        <ele>228.09</ele>
        <time>2021-04-01T09:33:38.909Z</time>
      </trkpt>
      <trkpt lat="43.1394984" lon="-2.8115454">
        <ele>228.108</ele>
        <time>2021-04-01T09:33:38.964Z</time>
      </trkpt>
      <trkpt lat="43.1395016" lon="-2.811553">
        <ele>228.116</ele>
        <time>2021-04-01T09:33:39.019Z</time>
      </trkpt>
      <trkpt lat="43.1395046" lon="-2.8115605">
        <ele>228.117</ele>
        <time>2021-04-01T09:33:39.074Z</time>
      </trkpt>
      <trkpt lat="43.1395076" lon="-2.8115678">
        <ele>228.088</ele>
        <time>2021-04-01T09:33:39.129Z</time>
      </trkpt>
      <trkpt lat="43.1395105" lon="-2.8115755">
        <ele>228.096</ele>
        <time>2021-04-01T09:33:39.184Z</time>
      </trkpt>
      <trkpt lat="43.1395135" lon="-2.8115835">
        <ele>228.125</ele>
        <time>2021-04-01T09:33:39.239Z</time>
      </trkpt>
      <trkpt lat="43.1395163" lon="-2.8115911">
        <ele>228.121</ele>
        <time>2021-04-01T09:33:39.294Z</time>
      </trkpt>
      <trkpt lat="43.1395189" lon="-2.8115987">
        <ele>228.111</ele>
        <time>2021-04-01T09:33:39.349Z</time>
      </trkpt>
      <trkpt lat="43.1395219" lon="-2.8116065">
        <ele>228.12</ele>
        <time>2021-04-01T09:33:39.404Z</time>
      </trkpt>
      <trkpt lat="43.1395247" lon="-2.811614">
        <ele>228.089</ele>
        <time>2021-04-01T09:33:39.459Z</time>
      </trkpt>
      <trkpt lat="43.1395273" lon="-2.8116215">
        <ele>228.063</ele>
        <time>2021-04-01T09:33:39.514Z</time>
      </trkpt>
      <trkpt lat="43.1395296" lon="-2.811629">
        <ele>227.998</ele>
        <time>2021-04-01T09:33:39.569Z</time>
      </trkpt>
      <trkpt lat="43.1395321" lon="-2.8116365">
        <ele>227.965</ele>
        <time>2021-04-01T09:33:39.624Z</time>
      </trkpt>
      <trkpt lat="43.1395349" lon="-2.8116445">
        <ele>227.932</ele>
        <time>2021-04-01T09:33:39.679Z</time>
      </trkpt>
      <trkpt lat="43.1395379" lon="-2.8116524">
        <ele>227.923</ele>
        <time>2021-04-01T09:33:39.734Z</time>
      </trkpt>
      <trkpt lat="43.1395408" lon="-2.8116603">
        <ele>227.919</ele>
        <time>2021-04-01T09:33:39.789Z</time>
      </trkpt>
      <trkpt lat="43.139543" lon="-2.811668">
        <ele>227.868</ele>
        <time>2021-04-01T09:33:39.844Z</time>
      </trkpt>
      <trkpt lat="43.1395459" lon="-2.8116758">
        <ele>227.87</ele>
        <time>2021-04-01T09:33:39.899Z</time>
      </trkpt>
      <trkpt lat="43.1395484" lon="-2.8116839">
        <ele>227.856</ele>
        <time>2021-04-01T09:33:39.954Z</time>
      </trkpt>
      <trkpt lat="43.1395512" lon="-2.8116917">
        <ele>227.875</ele>
        <time>2021-04-01T09:33:40.009Z</time>
      </trkpt>
      <trkpt lat="43.1395536" lon="-2.8116993">
        <ele>227.85</ele>
        <time>2021-04-01T09:33:40.064Z</time>
      </trkpt>
      <trkpt lat="43.139556" lon="-2.8117069">
        <ele>227.796</ele>
        <time>2021-04-01T09:33:40.119Z</time>
      </trkpt>
      <trkpt lat="43.1395585" lon="-2.8117148">
        <ele>227.803</ele>
        <time>2021-04-01T09:33:40.174Z</time>
      </trkpt>
      <trkpt lat="43.1395609" lon="-2.8117227">
        <ele>227.786</ele>
        <time>2021-04-01T09:33:40.229Z</time>
      </trkpt>
      <trkpt lat="43.139563" lon="-2.8117306">
        <ele>227.717</ele>
        <time>2021-04-01T09:33:40.284Z</time>
      </trkpt>
      <trkpt lat="43.1395654" lon="-2.8117385">
        <ele>227.73</ele>
        <time>2021-04-01T09:33:40.339Z</time>
      </trkpt>
      <trkpt lat="43.1395676" lon="-2.8117465">
        <ele>227.729</ele>
        <time>2021-04-01T09:33:40.394Z</time>
      </trkpt>
      <trkpt lat="43.1395697" lon="-2.8117544">
        <ele>227.723</ele>
        <time>2021-04-01T09:33:40.449Z</time>
      </trkpt>
      <trkpt lat="43.1395719" lon="-2.8117623">
        <ele>227.685</ele>
        <time>2021-04-01T09:33:40.504Z</time>
      </trkpt>
      <trkpt lat="43.1395742" lon="-2.8117703">
        <ele>227.665</ele>
        <time>2021-04-01T09:33:40.559Z</time>
      </trkpt>
      <trkpt lat="43.1395767" lon="-2.8117784">
        <ele>227.7</ele>
        <time>2021-04-01T09:33:40.614Z</time>
      </trkpt>
      <trkpt lat="43.1395788" lon="-2.8117865">
        <ele>227.717</ele>
        <time>2021-04-01T09:33:40.669Z</time>
      </trkpt>
      <trkpt lat="43.1395808" lon="-2.8117945">
        <ele>227.719</ele>
        <time>2021-04-01T09:33:40.724Z</time>
      </trkpt>
      <trkpt lat="43.139583" lon="-2.8118025">
        <ele>227.729</ele>
        <time>2021-04-01T09:33:40.779Z</time>
      </trkpt>
      <trkpt lat="43.139585" lon="-2.8118107">
        <ele>227.713</ele>
        <time>2021-04-01T09:33:40.834Z</time>
      </trkpt>
      <trkpt lat="43.1395869" lon="-2.8118187">
        <ele>227.687</ele>
        <time>2021-04-01T09:33:40.889Z</time>
      </trkpt>
      <trkpt lat="43.1395887" lon="-2.8118267">
        <ele>227.659</ele>
        <time>2021-04-01T09:33:40.944Z</time>
      </trkpt>
      <trkpt lat="43.1395905" lon="-2.8118348">
        <ele>227.627</ele>
        <time>2021-04-01T09:33:40.999Z</time>
      </trkpt>
      <trkpt lat="43.139592" lon="-2.8118427">
        <ele>227.582</ele>
        <time>2021-04-01T09:33:41.054Z</time>
      </trkpt>
      <trkpt lat="43.1395933" lon="-2.8118506">
        <ele>227.546</ele>
        <time>2021-04-01T09:33:41.109Z</time>
      </trkpt>
      <trkpt lat="43.1395947" lon="-2.8118588">
        <ele>227.504</ele>
        <time>2021-04-01T09:33:41.164Z</time>
      </trkpt>
      <trkpt lat="43.1395962" lon="-2.8118669">
        <ele>227.465</ele>
        <time>2021-04-01T09:33:41.219Z</time>
      </trkpt>
      <trkpt lat="43.1395976" lon="-2.811875">
        <ele>227.411</ele>
        <time>2021-04-01T09:33:41.274Z</time>
      </trkpt>
      <trkpt lat="43.1395989" lon="-2.8118831">
        <ele>227.392</ele>
        <time>2021-04-01T09:33:41.329Z</time>
      </trkpt>
      <trkpt lat="43.1396002" lon="-2.811891">
        <ele>227.37</ele>
        <time>2021-04-01T09:33:41.384Z</time>
      </trkpt>
      <trkpt lat="43.1396012" lon="-2.8118989">
        <ele>227.311</ele>
        <time>2021-04-01T09:33:41.439Z</time>
      </trkpt>
      <trkpt lat="43.1396022" lon="-2.8119069">
        <ele>227.276</ele>
        <time>2021-04-01T09:33:41.494Z</time>
      </trkpt>
      <trkpt lat="43.1396033" lon="-2.8119151">
        <ele>227.263</ele>
        <time>2021-04-01T09:33:41.549Z</time>
      </trkpt>
      <trkpt lat="43.1396041" lon="-2.8119231">
        <ele>227.225</ele>
        <time>2021-04-01T09:33:41.604Z</time>
      </trkpt>
      <trkpt lat="43.1396049" lon="-2.8119311">
        <ele>227.21</ele>
        <time>2021-04-01T09:33:41.659Z</time>
      </trkpt>
      <trkpt lat="43.1396056" lon="-2.8119391">
        <ele>227.182</ele>
        <time>2021-04-01T09:33:41.714Z</time>
      </trkpt>
      <trkpt lat="43.1396061" lon="-2.8119473">
        <ele>227.155</ele>
        <time>2021-04-01T09:33:41.769Z</time>
      </trkpt>
      <trkpt lat="43.1396065" lon="-2.8119553">
        <ele>227.15</ele>
        <time>2021-04-01T09:33:41.824Z</time>
      </trkpt>
      <trkpt lat="43.1396068" lon="-2.8119634">
        <ele>227.119</ele>
        <time>2021-04-01T09:33:41.879Z</time>
      </trkpt>
      <trkpt lat="43.1396071" lon="-2.8119716">
        <ele>227.079</ele>
        <time>2021-04-01T09:33:41.934Z</time>
      </trkpt>
      <trkpt lat="43.1396072" lon="-2.8119796">
        <ele>227.02</ele>
        <time>2021-04-01T09:33:41.989Z</time>
      </trkpt>
      <trkpt lat="43.1396074" lon="-2.8119876">
        <ele>226.99</ele>
        <time>2021-04-01T09:33:42.044Z</time>
      </trkpt>
      <trkpt lat="43.1396075" lon="-2.8119957">
        <ele>226.976</ele>
        <time>2021-04-01T09:33:42.099Z</time>
      </trkpt>
      <trkpt lat="43.1396077" lon="-2.8120041">
        <ele>226.976</ele>
        <time>2021-04-01T09:33:42.154Z</time>
      </trkpt>
      <trkpt lat="43.1396077" lon="-2.8120123">
        <ele>226.939</ele>
        <time>2021-04-01T09:33:42.209Z</time>
      </trkpt>
      <trkpt lat="43.1396077" lon="-2.8120204">
        <ele>226.925</ele>
        <time>2021-04-01T09:33:42.264Z</time>
      </trkpt>
      <trkpt lat="43.1396076" lon="-2.8120285">
        <ele>226.904</ele>
        <time>2021-04-01T09:33:42.319Z</time>
      </trkpt>
      <trkpt lat="43.1396075" lon="-2.8120366">
        <ele>226.876</ele>
        <time>2021-04-01T09:33:42.374Z</time>
      </trkpt>
      <trkpt lat="43.1396073" lon="-2.8120447">
        <ele>226.835</ele>
        <time>2021-04-01T09:33:42.429Z</time>
      </trkpt>
      <trkpt lat="43.1396073" lon="-2.8120527">
        <ele>226.85</ele>
        <time>2021-04-01T09:33:42.484Z</time>
      </trkpt>
      <trkpt lat="43.139607" lon="-2.8120609">
        <ele>226.797</ele>
        <time>2021-04-01T09:33:42.539Z</time>
      </trkpt>
      <trkpt lat="43.1396068" lon="-2.8120692">
        <ele>226.748</ele>
        <time>2021-04-01T09:33:42.594Z</time>
      </trkpt>
      <trkpt lat="43.1396065" lon="-2.8120772">
        <ele>226.749</ele>
        <time>2021-04-01T09:33:42.649Z</time>
      </trkpt>
      <trkpt lat="43.1396061" lon="-2.8120854">
        <ele>226.712</ele>
        <time>2021-04-01T09:33:42.704Z</time>
      </trkpt>
      <trkpt lat="43.1396057" lon="-2.8120936">
        <ele>226.67</ele>
        <time>2021-04-01T09:33:42.759Z</time>
      </trkpt>
      <trkpt lat="43.1396054" lon="-2.8121019">
        <ele>226.656</ele>
        <time>2021-04-01T09:33:42.814Z</time>
      </trkpt>
      <trkpt lat="43.1396051" lon="-2.8121099">
        <ele>226.648</ele>
        <time>2021-04-01T09:33:42.869Z</time>
      </trkpt>
      <trkpt lat="43.1396047" lon="-2.812118">
        <ele>226.613</ele>
        <time>2021-04-01T09:33:42.927Z</time>
      </trkpt>
      <trkpt lat="43.1396043" lon="-2.8121262">
        <ele>226.557</ele>
        <time>2021-04-01T09:33:42.985Z</time>
      </trkpt>
      <trkpt lat="43.1396038" lon="-2.8121343">
        <ele>226.527</ele>
        <time>2021-04-01T09:33:43.043Z</time>
      </trkpt>
      <trkpt lat="43.1396034" lon="-2.8121424">
        <ele>226.524</ele>
        <time>2021-04-01T09:33:43.101Z</time>
      </trkpt>
      <trkpt lat="43.1396031" lon="-2.8121506">
        <ele>226.504</ele>
        <time>2021-04-01T09:33:43.159Z</time>
      </trkpt>
      <trkpt lat="43.139603" lon="-2.812159">
        <ele>226.502</ele>
        <time>2021-04-01T09:33:43.217Z</time>
      </trkpt>
      <trkpt lat="43.1396029" lon="-2.8121673">
        <ele>226.499</ele>
        <time>2021-04-01T09:33:43.275Z</time>
      </trkpt>
      <trkpt lat="43.1396026" lon="-2.8121755">
        <ele>226.485</ele>
        <time>2021-04-01T09:33:43.333Z</time>
      </trkpt>
      <trkpt lat="43.1396024" lon="-2.8121836">
        <ele>226.47</ele>
        <time>2021-04-01T09:33:43.391Z</time>
      </trkpt>
      <trkpt lat="43.139602" lon="-2.8121918">
        <ele>226.399</ele>
        <time>2021-04-01T09:33:43.449Z</time>
      </trkpt>
      <trkpt lat="43.1396017" lon="-2.8122003">
        <ele>226.371</ele>
        <time>2021-04-01T09:33:43.507Z</time>
      </trkpt>
      <trkpt lat="43.1396015" lon="-2.8122085">
        <ele>226.361</ele>
        <time>2021-04-01T09:33:43.565Z</time>
      </trkpt>
      <trkpt lat="43.1396012" lon="-2.8122167">
        <ele>226.349</ele>
        <time>2021-04-01T09:33:43.623Z</time>
      </trkpt>
      <trkpt lat="43.139601" lon="-2.8122249">
        <ele>226.331</ele>
        <time>2021-04-01T09:33:43.681Z</time>
      </trkpt>
      <trkpt lat="43.1396006" lon="-2.8122333">
        <ele>226.295</ele>
        <time>2021-04-01T09:33:43.739Z</time>
      </trkpt>
      <trkpt lat="43.1396003" lon="-2.8122416">
        <ele>226.275</ele>
        <time>2021-04-01T09:33:43.797Z</time>
      </trkpt>
      <trkpt lat="43.1396002" lon="-2.8122498">
        <ele>226.285</ele>
        <time>2021-04-01T09:33:43.855Z</time>
      </trkpt>
      <trkpt lat="43.1396" lon="-2.812258">
        <ele>226.283</ele>
        <time>2021-04-01T09:33:43.914Z</time>
      </trkpt>
      <trkpt lat="43.1395995" lon="-2.8122663">
        <ele>226.202</ele>
        <time>2021-04-01T09:33:43.965Z</time>
      </trkpt>
      <trkpt lat="43.1395995" lon="-2.8122746">
        <ele>226.204</ele>
        <time>2021-04-01T09:33:44.017Z</time>
      </trkpt>
      <trkpt lat="43.1395993" lon="-2.812283">
        <ele>226.232</ele>
        <time>2021-04-01T09:33:44.069Z</time>
      </trkpt>
      <trkpt lat="43.139599" lon="-2.8122913">
        <ele>226.221</ele>
        <time>2021-04-01T09:33:44.121Z</time>
      </trkpt>
      <trkpt lat="43.1395986" lon="-2.8122995">
        <ele>226.209</ele>
        <time>2021-04-01T09:33:44.173Z</time>
      </trkpt>
      <trkpt lat="43.1395983" lon="-2.8123078">
        <ele>226.195</ele>
        <time>2021-04-01T09:33:44.225Z</time>
      </trkpt>
      <trkpt lat="43.1395979" lon="-2.8123159">
        <ele>226.169</ele>
        <time>2021-04-01T09:33:44.277Z</time>
      </trkpt>
      <trkpt lat="43.1395977" lon="-2.8123244">
        <ele>226.164</ele>
        <time>2021-04-01T09:33:44.329Z</time>
      </trkpt>
      <trkpt lat="43.1395973" lon="-2.8123329">
        <ele>226.168</ele>
        <time>2021-04-01T09:33:44.381Z</time>
      </trkpt>
      <trkpt lat="43.1395969" lon="-2.8123413">
        <ele>226.147</ele>
        <time>2021-04-01T09:33:44.433Z</time>
      </trkpt>
      <trkpt lat="43.1395965" lon="-2.8123496">
        <ele>226.134</ele>
        <time>2021-04-01T09:33:44.485Z</time>
      </trkpt>
      <trkpt lat="43.1395959" lon="-2.8123579">
        <ele>226.119</ele>
        <time>2021-04-01T09:33:44.537Z</time>
      </trkpt>
      <trkpt lat="43.1395954" lon="-2.8123663">
        <ele>226.102</ele>
        <time>2021-04-01T09:33:44.589Z</time>
      </trkpt>
      <trkpt lat="43.1395947" lon="-2.8123745">
        <ele>226.067</ele>
        <time>2021-04-01T09:33:44.641Z</time>
      </trkpt>
      <trkpt lat="43.1395941" lon="-2.8123831">
        <ele>226.073</ele>
        <time>2021-04-01T09:33:44.693Z</time>
      </trkpt>
      <trkpt lat="43.1395934" lon="-2.8123915">
        <ele>226.056</ele>
        <time>2021-04-01T09:33:44.745Z</time>
      </trkpt>
      <trkpt lat="43.1395927" lon="-2.8123999">
        <ele>226.032</ele>
        <time>2021-04-01T09:33:44.797Z</time>
      </trkpt>
      <trkpt lat="43.1395919" lon="-2.8124081">
        <ele>226.002</ele>
        <time>2021-04-01T09:33:44.849Z</time>
      </trkpt>
      <trkpt lat="43.1395911" lon="-2.8124163">
        <ele>225.984</ele>
        <time>2021-04-01T09:33:44.904Z</time>
      </trkpt>
      <trkpt lat="43.1395905" lon="-2.8124248">
        <ele>225.977</ele>
        <time>2021-04-01T09:33:44.959Z</time>
      </trkpt>
      <trkpt lat="43.1395896" lon="-2.8124332">
        <ele>225.96</ele>
        <time>2021-04-01T09:33:45.014Z</time>
      </trkpt>
      <trkpt lat="43.1395886" lon="-2.8124415">
        <ele>225.924</ele>
        <time>2021-04-01T09:33:45.069Z</time>
      </trkpt>
      <trkpt lat="43.1395875" lon="-2.8124498">
        <ele>225.893</ele>
        <time>2021-04-01T09:33:45.124Z</time>
      </trkpt>
      <trkpt lat="43.1395865" lon="-2.812458">
        <ele>225.851</ele>
        <time>2021-04-01T09:33:45.179Z</time>
      </trkpt>
      <trkpt lat="43.1395855" lon="-2.8124661">
        <ele>225.831</ele>
        <time>2021-04-01T09:33:45.234Z</time>
      </trkpt>
      <trkpt lat="43.1395845" lon="-2.8124744">
        <ele>225.812</ele>
        <time>2021-04-01T09:33:45.289Z</time>
      </trkpt>
      <trkpt lat="43.1395834" lon="-2.8124824">
        <ele>225.767</ele>
        <time>2021-04-01T09:33:45.344Z</time>
      </trkpt>
      <trkpt lat="43.1395824" lon="-2.8124906">
        <ele>225.761</ele>
        <time>2021-04-01T09:33:45.399Z</time>
      </trkpt>
      <trkpt lat="43.1395815" lon="-2.8124989">
        <ele>225.762</ele>
        <time>2021-04-01T09:33:45.454Z</time>
      </trkpt>
      <trkpt lat="43.1395807" lon="-2.8125072">
        <ele>225.746</ele>
        <time>2021-04-01T09:33:45.509Z</time>
      </trkpt>
      <trkpt lat="43.1395797" lon="-2.8125156">
        <ele>225.734</ele>
        <time>2021-04-01T09:33:45.564Z</time>
      </trkpt>
      <trkpt lat="43.1395786" lon="-2.8125238">
        <ele>225.728</ele>
        <time>2021-04-01T09:33:45.619Z</time>
      </trkpt>
      <trkpt lat="43.1395776" lon="-2.8125319">
        <ele>225.731</ele>
        <time>2021-04-01T09:33:45.674Z</time>
      </trkpt>
      <trkpt lat="43.1395765" lon="-2.8125404">
        <ele>225.703</ele>
        <time>2021-04-01T09:33:45.729Z</time>
      </trkpt>
      <trkpt lat="43.1395753" lon="-2.8125484">
        <ele>225.675</ele>
        <time>2021-04-01T09:33:45.784Z</time>
      </trkpt>
      <trkpt lat="43.1395742" lon="-2.8125564">
        <ele>225.666</ele>
        <time>2021-04-01T09:33:45.839Z</time>
      </trkpt>
      <trkpt lat="43.1395729" lon="-2.8125645">
        <ele>225.644</ele>
        <time>2021-04-01T09:33:45.894Z</time>
      </trkpt>
      <trkpt lat="43.1395717" lon="-2.8125726">
        <ele>225.622</ele>
        <time>2021-04-01T09:33:45.949Z</time>
      </trkpt>
      <trkpt lat="43.1395705" lon="-2.812581">
        <ele>225.609</ele>
        <time>2021-04-01T09:33:46.004Z</time>
      </trkpt>
      <trkpt lat="43.1395693" lon="-2.8125891">
        <ele>225.602</ele>
        <time>2021-04-01T09:33:46.059Z</time>
      </trkpt>
      <trkpt lat="43.139568" lon="-2.8125973">
        <ele>225.577</ele>
        <time>2021-04-01T09:33:46.114Z</time>
      </trkpt>
      <trkpt lat="43.1395666" lon="-2.8126053">
        <ele>225.542</ele>
        <time>2021-04-01T09:33:46.169Z</time>
      </trkpt>
      <trkpt lat="43.1395652" lon="-2.8126134">
        <ele>225.517</ele>
        <time>2021-04-01T09:33:46.224Z</time>
      </trkpt>
      <trkpt lat="43.1395639" lon="-2.8126214">
        <ele>225.51</ele>
        <time>2021-04-01T09:33:46.279Z</time>
      </trkpt>
      <trkpt lat="43.1395626" lon="-2.8126296">
        <ele>225.499</ele>
        <time>2021-04-01T09:33:46.334Z</time>
      </trkpt>
      <trkpt lat="43.1395612" lon="-2.8126378">
        <ele>225.483</ele>
        <time>2021-04-01T09:33:46.389Z</time>
      </trkpt>
      <trkpt lat="43.1395599" lon="-2.812646">
        <ele>225.478</ele>
        <time>2021-04-01T09:33:46.444Z</time>
      </trkpt>
      <trkpt lat="43.1395588" lon="-2.8126542">
        <ele>225.47</ele>
        <time>2021-04-01T09:33:46.499Z</time>
      </trkpt>
      <trkpt lat="43.1395574" lon="-2.8126622">
        <ele>225.47</ele>
        <time>2021-04-01T09:33:46.554Z</time>
      </trkpt>
      <trkpt lat="43.139556" lon="-2.8126703">
        <ele>225.457</ele>
        <time>2021-04-01T09:33:46.609Z</time>
      </trkpt>
      <trkpt lat="43.1395545" lon="-2.8126783">
        <ele>225.444</ele>
        <time>2021-04-01T09:33:46.664Z</time>
      </trkpt>
      <trkpt lat="43.139553" lon="-2.8126864">
        <ele>225.433</ele>
        <time>2021-04-01T09:33:46.719Z</time>
      </trkpt>
      <trkpt lat="43.1395515" lon="-2.8126944">
        <ele>225.401</ele>
        <time>2021-04-01T09:33:46.774Z</time>
      </trkpt>
      <trkpt lat="43.1395498" lon="-2.8127024">
        <ele>225.378</ele>
        <time>2021-04-01T09:33:46.829Z</time>
      </trkpt>
      <trkpt lat="43.1395483" lon="-2.8127104">
        <ele>225.348</ele>
        <time>2021-04-01T09:33:46.884Z</time>
      </trkpt>
      <trkpt lat="43.1395466" lon="-2.8127184">
        <ele>225.319</ele>
        <time>2021-04-01T09:33:46.936Z</time>
      </trkpt>
      <trkpt lat="43.139545" lon="-2.8127266">
        <ele>225.286</ele>
        <time>2021-04-01T09:33:46.988Z</time>
      </trkpt>
      <trkpt lat="43.1395433" lon="-2.8127345">
        <ele>225.253</ele>
        <time>2021-04-01T09:33:47.040Z</time>
      </trkpt>
      <trkpt lat="43.1395415" lon="-2.8127425">
        <ele>225.208</ele>
        <time>2021-04-01T09:33:47.092Z</time>
      </trkpt>
      <trkpt lat="43.1395398" lon="-2.8127504">
        <ele>225.17</ele>
        <time>2021-04-01T09:33:47.144Z</time>
      </trkpt>
      <trkpt lat="43.1395382" lon="-2.8127585">
        <ele>225.132</ele>
        <time>2021-04-01T09:33:47.196Z</time>
      </trkpt>
      <trkpt lat="43.1395365" lon="-2.8127666">
        <ele>225.111</ele>
        <time>2021-04-01T09:33:47.248Z</time>
      </trkpt>
      <trkpt lat="43.1395348" lon="-2.8127748">
        <ele>225.094</ele>
        <time>2021-04-01T09:33:47.300Z</time>
      </trkpt>
      <trkpt lat="43.1395332" lon="-2.8127831">
        <ele>225.071</ele>
        <time>2021-04-01T09:33:47.352Z</time>
      </trkpt>
      <trkpt lat="43.1395316" lon="-2.8127912">
        <ele>225.05</ele>
        <time>2021-04-01T09:33:47.405Z</time>
      </trkpt>
      <trkpt lat="43.1395298" lon="-2.8127993">
        <ele>225.03</ele>
        <time>2021-04-01T09:33:47.457Z</time>
      </trkpt>
      <trkpt lat="43.1395281" lon="-2.8128074">
        <ele>225.031</ele>
        <time>2021-04-01T09:33:47.509Z</time>
      </trkpt>
      <trkpt lat="43.139526" lon="-2.8128151">
        <ele>225.002</ele>
        <time>2021-04-01T09:33:47.561Z</time>
      </trkpt>
      <trkpt lat="43.1395242" lon="-2.8128232">
        <ele>224.957</ele>
        <time>2021-04-01T09:33:47.613Z</time>
      </trkpt>
      <trkpt lat="43.1395223" lon="-2.8128312">
        <ele>224.957</ele>
        <time>2021-04-01T09:33:47.665Z</time>
      </trkpt>
      <trkpt lat="43.1395204" lon="-2.8128392">
        <ele>224.949</ele>
        <time>2021-04-01T09:33:47.717Z</time>
      </trkpt>
      <trkpt lat="43.1395185" lon="-2.8128472">
        <ele>224.933</ele>
        <time>2021-04-01T09:33:47.769Z</time>
      </trkpt>
      <trkpt lat="43.1395166" lon="-2.8128551">
        <ele>224.912</ele>
        <time>2021-04-01T09:33:47.821Z</time>
      </trkpt>
      <trkpt lat="43.1395145" lon="-2.812863">
        <ele>224.88</ele>
        <time>2021-04-01T09:33:47.874Z</time>
      </trkpt>
      <trkpt lat="43.1395127" lon="-2.812871">
        <ele>224.847</ele>
        <time>2021-04-01T09:33:47.932Z</time>
      </trkpt>
      <trkpt lat="43.1395108" lon="-2.8128791">
        <ele>224.809</ele>
        <time>2021-04-01T09:33:47.990Z</time>
      </trkpt>
      <trkpt lat="43.139509" lon="-2.812887">
        <ele>224.804</ele>
        <time>2021-04-01T09:33:48.048Z</time>
      </trkpt>
      <trkpt lat="43.1395071" lon="-2.8128951">
        <ele>224.786</ele>
        <time>2021-04-01T09:33:48.106Z</time>
      </trkpt>
      <trkpt lat="43.1395051" lon="-2.812903">
        <ele>224.771</ele>
        <time>2021-04-01T09:33:48.165Z</time>
      </trkpt>
      <trkpt lat="43.139503" lon="-2.8129108">
        <ele>224.764</ele>
        <time>2021-04-01T09:33:48.223Z</time>
      </trkpt>
      <trkpt lat="43.1395011" lon="-2.8129187">
        <ele>224.721</ele>
        <time>2021-04-01T09:33:48.281Z</time>
      </trkpt>
      <trkpt lat="43.1394989" lon="-2.8129267">
        <ele>224.684</ele>
        <time>2021-04-01T09:33:48.339Z</time>
      </trkpt>
      <trkpt lat="43.1394968" lon="-2.8129347">
        <ele>224.666</ele>
        <time>2021-04-01T09:33:48.398Z</time>
      </trkpt>
      <trkpt lat="43.1394948" lon="-2.8129426">
        <ele>224.643</ele>
        <time>2021-04-01T09:33:48.456Z</time>
      </trkpt>
      <trkpt lat="43.1394926" lon="-2.8129504">
        <ele>224.619</ele>
        <time>2021-04-01T09:33:48.514Z</time>
      </trkpt>
      <trkpt lat="43.1394905" lon="-2.8129583">
        <ele>224.586</ele>
        <time>2021-04-01T09:33:48.572Z</time>
      </trkpt>
      <trkpt lat="43.1394883" lon="-2.8129662">
        <ele>224.551</ele>
        <time>2021-04-01T09:33:48.631Z</time>
      </trkpt>
      <trkpt lat="43.1394863" lon="-2.8129741">
        <ele>224.538</ele>
        <time>2021-04-01T09:33:48.689Z</time>
      </trkpt>
      <trkpt lat="43.1394839" lon="-2.8129819">
        <ele>224.529</ele>
        <time>2021-04-01T09:33:48.747Z</time>
      </trkpt>
      <trkpt lat="43.1394819" lon="-2.8129901">
        <ele>224.516</ele>
        <time>2021-04-01T09:33:48.805Z</time>
      </trkpt>
      <trkpt lat="43.1394797" lon="-2.812998">
        <ele>224.49</ele>
        <time>2021-04-01T09:33:48.864Z</time>
      </trkpt>
      <trkpt lat="43.1394775" lon="-2.813006">
        <ele>224.488</ele>
        <time>2021-04-01T09:33:48.919Z</time>
      </trkpt>
      <trkpt lat="43.1394753" lon="-2.8130138">
        <ele>224.472</ele>
        <time>2021-04-01T09:33:48.974Z</time>
      </trkpt>
      <trkpt lat="43.1394732" lon="-2.8130215">
        <ele>224.449</ele>
        <time>2021-04-01T09:33:49.029Z</time>
      </trkpt>
      <trkpt lat="43.139471" lon="-2.8130294">
        <ele>224.434</ele>
        <time>2021-04-01T09:33:49.084Z</time>
      </trkpt>
      <trkpt lat="43.1394688" lon="-2.8130373">
        <ele>224.428</ele>
        <time>2021-04-01T09:33:49.139Z</time>
      </trkpt>
      <trkpt lat="43.1394667" lon="-2.813045">
        <ele>224.398</ele>
        <time>2021-04-01T09:33:49.194Z</time>
      </trkpt>
      <trkpt lat="43.1394644" lon="-2.8130526">
        <ele>224.383</ele>
        <time>2021-04-01T09:33:49.249Z</time>
      </trkpt>
      <trkpt lat="43.1394619" lon="-2.8130601">
        <ele>224.342</ele>
        <time>2021-04-01T09:33:49.304Z</time>
      </trkpt>
      <trkpt lat="43.1394597" lon="-2.8130678">
        <ele>224.333</ele>
        <time>2021-04-01T09:33:49.359Z</time>
      </trkpt>
      <trkpt lat="43.1394576" lon="-2.8130759">
        <ele>224.326</ele>
        <time>2021-04-01T09:33:49.414Z</time>
      </trkpt>
      <trkpt lat="43.1394554" lon="-2.8130836">
        <ele>224.297</ele>
        <time>2021-04-01T09:33:49.469Z</time>
      </trkpt>
      <trkpt lat="43.1394533" lon="-2.8130914">
        <ele>224.289</ele>
        <time>2021-04-01T09:33:49.524Z</time>
      </trkpt>
      <trkpt lat="43.1394511" lon="-2.813099">
        <ele>224.27</ele>
        <time>2021-04-01T09:33:49.579Z</time>
      </trkpt>
      <trkpt lat="43.1394487" lon="-2.8131064">
        <ele>224.255</ele>
        <time>2021-04-01T09:33:49.634Z</time>
      </trkpt>
      <trkpt lat="43.1394461" lon="-2.8131137">
        <ele>224.231</ele>
        <time>2021-04-01T09:33:49.689Z</time>
      </trkpt>
      <trkpt lat="43.1394438" lon="-2.8131213">
        <ele>224.196</ele>
        <time>2021-04-01T09:33:49.744Z</time>
      </trkpt>
      <trkpt lat="43.1394415" lon="-2.8131289">
        <ele>224.175</ele>
        <time>2021-04-01T09:33:49.799Z</time>
      </trkpt>
      <trkpt lat="43.1394392" lon="-2.8131364">
        <ele>224.167</ele>
        <time>2021-04-01T09:33:49.854Z</time>
      </trkpt>
      <trkpt lat="43.1394368" lon="-2.8131439">
        <ele>224.162</ele>
        <time>2021-04-01T09:33:49.909Z</time>
      </trkpt>
      <trkpt lat="43.1394344" lon="-2.8131514">
        <ele>224.137</ele>
        <time>2021-04-01T09:33:49.960Z</time>
      </trkpt>
      <trkpt lat="43.1394319" lon="-2.8131587">
        <ele>224.095</ele>
        <time>2021-04-01T09:33:50.012Z</time>
      </trkpt>
      <trkpt lat="43.1394293" lon="-2.8131661">
        <ele>224.052</ele>
        <time>2021-04-01T09:33:50.064Z</time>
      </trkpt>
      <trkpt lat="43.1394269" lon="-2.8131735">
        <ele>224.008</ele>
        <time>2021-04-01T09:33:50.116Z</time>
      </trkpt>
      <trkpt lat="43.1394248" lon="-2.8131811">
        <ele>223.983</ele>
        <time>2021-04-01T09:33:50.168Z</time>
      </trkpt>
      <trkpt lat="43.1394222" lon="-2.8131884">
        <ele>223.959</ele>
        <time>2021-04-01T09:33:50.220Z</time>
      </trkpt>
      <trkpt lat="43.13942" lon="-2.813196">
        <ele>223.932</ele>
        <time>2021-04-01T09:33:50.272Z</time>
      </trkpt>
      <trkpt lat="43.1394174" lon="-2.8132032">
        <ele>223.918</ele>
        <time>2021-04-01T09:33:50.324Z</time>
      </trkpt>
      <trkpt lat="43.1394147" lon="-2.8132103">
        <ele>223.897</ele>
        <time>2021-04-01T09:33:50.376Z</time>
      </trkpt>
      <trkpt lat="43.1394123" lon="-2.8132175">
        <ele>223.909</ele>
        <time>2021-04-01T09:33:50.428Z</time>
      </trkpt>
      <trkpt lat="43.1394099" lon="-2.8132248">
        <ele>223.886</ele>
        <time>2021-04-01T09:33:50.480Z</time>
      </trkpt>
      <trkpt lat="43.1394075" lon="-2.813232">
        <ele>223.914</ele>
        <time>2021-04-01T09:33:50.532Z</time>
      </trkpt>
      <trkpt lat="43.1394049" lon="-2.8132391">
        <ele>223.903</ele>
        <time>2021-04-01T09:33:50.584Z</time>
      </trkpt>
      <trkpt lat="43.1394023" lon="-2.8132462">
        <ele>223.884</ele>
        <time>2021-04-01T09:33:50.636Z</time>
      </trkpt>
      <trkpt lat="43.1393998" lon="-2.8132535">
        <ele>223.856</ele>
        <time>2021-04-01T09:33:50.688Z</time>
      </trkpt>
      <trkpt lat="43.139397" lon="-2.8132605">
        <ele>223.822</ele>
        <time>2021-04-01T09:33:50.740Z</time>
      </trkpt>
      <trkpt lat="43.1393944" lon="-2.8132674">
        <ele>223.844</ele>
        <time>2021-04-01T09:33:50.792Z</time>
      </trkpt>
      <trkpt lat="43.1393921" lon="-2.8132745">
        <ele>223.878</ele>
        <time>2021-04-01T09:33:50.844Z</time>
      </trkpt>
      <trkpt lat="43.1393893" lon="-2.8132812">
        <ele>223.884</ele>
        <time>2021-04-01T09:33:50.902Z</time>
      </trkpt>
      <trkpt lat="43.1393866" lon="-2.8132882">
        <ele>223.865</ele>
        <time>2021-04-01T09:33:50.960Z</time>
      </trkpt>
      <trkpt lat="43.1393836" lon="-2.8132951">
        <ele>223.841</ele>
        <time>2021-04-01T09:33:51.018Z</time>
      </trkpt>
      <trkpt lat="43.1393808" lon="-2.8133018">
        <ele>223.859</ele>
        <time>2021-04-01T09:33:51.076Z</time>
      </trkpt>
      <trkpt lat="43.1393782" lon="-2.8133086">
        <ele>223.871</ele>
        <time>2021-04-01T09:33:51.134Z</time>
      </trkpt>
      <trkpt lat="43.1393754" lon="-2.8133155">
        <ele>223.879</ele>
        <time>2021-04-01T09:33:51.192Z</time>
      </trkpt>
      <trkpt lat="43.1393725" lon="-2.8133221">
        <ele>223.864</ele>
        <time>2021-04-01T09:33:51.250Z</time>
      </trkpt>
      <trkpt lat="43.1393696" lon="-2.8133286">
        <ele>223.848</ele>
        <time>2021-04-01T09:33:51.308Z</time>
      </trkpt>
      <trkpt lat="43.1393668" lon="-2.8133354">
        <ele>223.869</ele>
        <time>2021-04-01T09:33:51.366Z</time>
      </trkpt>
      <trkpt lat="43.1393638" lon="-2.813342">
        <ele>223.897</ele>
        <time>2021-04-01T09:33:51.424Z</time>
      </trkpt>
      <trkpt lat="43.1393607" lon="-2.8133483">
        <ele>223.89</ele>
        <time>2021-04-01T09:33:51.482Z</time>
      </trkpt>
      <trkpt lat="43.1393572" lon="-2.8133542">
        <ele>223.878</ele>
        <time>2021-04-01T09:33:51.540Z</time>
      </trkpt>
      <trkpt lat="43.1393542" lon="-2.8133608">
        <ele>223.887</ele>
        <time>2021-04-01T09:33:51.598Z</time>
      </trkpt>
      <trkpt lat="43.1393509" lon="-2.8133671">
        <ele>223.886</ele>
        <time>2021-04-01T09:33:51.656Z</time>
      </trkpt>
      <trkpt lat="43.1393477" lon="-2.8133733">
        <ele>223.88</ele>
        <time>2021-04-01T09:33:51.714Z</time>
      </trkpt>
      <trkpt lat="43.1393448" lon="-2.8133801">
        <ele>223.879</ele>
        <time>2021-04-01T09:33:51.772Z</time>
      </trkpt>
      <trkpt lat="43.1393415" lon="-2.8133863">
        <ele>223.874</ele>
        <time>2021-04-01T09:33:51.830Z</time>
      </trkpt>
      <trkpt lat="43.1393382" lon="-2.8133924">
        <ele>223.861</ele>
        <time>2021-04-01T09:33:51.889Z</time>
      </trkpt>
      <trkpt lat="43.1393349" lon="-2.8133984">
        <ele>223.853</ele>
        <time>2021-04-01T09:33:51.944Z</time>
      </trkpt>
      <trkpt lat="43.1393313" lon="-2.8134044">
        <ele>223.822</ele>
        <time>2021-04-01T09:33:51.999Z</time>
      </trkpt>
      <trkpt lat="43.1393281" lon="-2.8134106">
        <ele>223.819</ele>
        <time>2021-04-01T09:33:52.054Z</time>
      </trkpt>
      <trkpt lat="43.1393249" lon="-2.813417">
        <ele>223.822</ele>
        <time>2021-04-01T09:33:52.109Z</time>
      </trkpt>
      <trkpt lat="43.1393214" lon="-2.8134232">
        <ele>223.837</ele>
        <time>2021-04-01T09:33:52.164Z</time>
      </trkpt>
      <trkpt lat="43.139318" lon="-2.8134291">
        <ele>223.835</ele>
        <time>2021-04-01T09:33:52.219Z</time>
      </trkpt>
      <trkpt lat="43.1393148" lon="-2.8134353">
        <ele>223.822</ele>
        <time>2021-04-01T09:33:52.274Z</time>
      </trkpt>
      <trkpt lat="43.1393111" lon="-2.8134412">
        <ele>223.816</ele>
        <time>2021-04-01T09:33:52.329Z</time>
      </trkpt>
      <trkpt lat="43.1393072" lon="-2.8134467">
        <ele>223.814</ele>
        <time>2021-04-01T09:33:52.384Z</time>
      </trkpt>
      <trkpt lat="43.1393036" lon="-2.8134525">
        <ele>223.806</ele>
        <time>2021-04-01T09:33:52.439Z</time>
      </trkpt>
      <trkpt lat="43.1392998" lon="-2.8134577">
        <ele>223.773</ele>
        <time>2021-04-01T09:33:52.494Z</time>
      </trkpt>
      <trkpt lat="43.1392958" lon="-2.8134632">
        <ele>223.768</ele>
        <time>2021-04-01T09:33:52.549Z</time>
      </trkpt>
      <trkpt lat="43.1392921" lon="-2.813469">
        <ele>223.763</ele>
        <time>2021-04-01T09:33:52.604Z</time>
      </trkpt>
      <trkpt lat="43.1392886" lon="-2.8134749">
        <ele>223.78</ele>
        <time>2021-04-01T09:33:52.659Z</time>
      </trkpt>
      <trkpt lat="43.1392846" lon="-2.8134805">
        <ele>223.779</ele>
        <time>2021-04-01T09:33:52.714Z</time>
      </trkpt>
      <trkpt lat="43.1392805" lon="-2.8134859">
        <ele>223.762</ele>
        <time>2021-04-01T09:33:52.769Z</time>
      </trkpt>
      <trkpt lat="43.1392767" lon="-2.8134913">
        <ele>223.765</ele>
        <time>2021-04-01T09:33:52.824Z</time>
      </trkpt>
      <trkpt lat="43.1392727" lon="-2.8134968">
        <ele>223.769</ele>
        <time>2021-04-01T09:33:52.879Z</time>
      </trkpt>
      <trkpt lat="43.1392685" lon="-2.8135019">
        <ele>223.762</ele>
        <time>2021-04-01T09:33:52.934Z</time>
      </trkpt>
      <trkpt lat="43.1392643" lon="-2.8135072">
        <ele>223.746</ele>
        <time>2021-04-01T09:33:52.989Z</time>
      </trkpt>
      <trkpt lat="43.1392601" lon="-2.8135125">
        <ele>223.766</ele>
        <time>2021-04-01T09:33:53.044Z</time>
      </trkpt>
      <trkpt lat="43.1392557" lon="-2.8135175">
        <ele>223.747</ele>
        <time>2021-04-01T09:33:53.099Z</time>
      </trkpt>
      <trkpt lat="43.1392512" lon="-2.8135225">
        <ele>223.72</ele>
        <time>2021-04-01T09:33:53.154Z</time>
      </trkpt>
      <trkpt lat="43.139247" lon="-2.8135273">
        <ele>223.707</ele>
        <time>2021-04-01T09:33:53.209Z</time>
      </trkpt>
      <trkpt lat="43.1392427" lon="-2.8135323">
        <ele>223.702</ele>
        <time>2021-04-01T09:33:53.264Z</time>
      </trkpt>
      <trkpt lat="43.1392384" lon="-2.8135373">
        <ele>223.737</ele>
        <time>2021-04-01T09:33:53.319Z</time>
      </trkpt>
      <trkpt lat="43.1392343" lon="-2.8135422">
        <ele>223.722</ele>
        <time>2021-04-01T09:33:53.374Z</time>
      </trkpt>
      <trkpt lat="43.1392298" lon="-2.8135469">
        <ele>223.747</ele>
        <time>2021-04-01T09:33:53.429Z</time>
      </trkpt>
      <trkpt lat="43.1392253" lon="-2.8135517">
        <ele>223.744</ele>
        <time>2021-04-01T09:33:53.484Z</time>
      </trkpt>
      <trkpt lat="43.1392209" lon="-2.8135564">
        <ele>223.725</ele>
        <time>2021-04-01T09:33:53.539Z</time>
      </trkpt>
      <trkpt lat="43.1392164" lon="-2.8135612">
        <ele>223.74</ele>
        <time>2021-04-01T09:33:53.594Z</time>
      </trkpt>
      <trkpt lat="43.139212" lon="-2.8135658">
        <ele>223.73</ele>
        <time>2021-04-01T09:33:53.649Z</time>
      </trkpt>
      <trkpt lat="43.1392074" lon="-2.8135705">
        <ele>223.743</ele>
        <time>2021-04-01T09:33:53.704Z</time>
      </trkpt>
      <trkpt lat="43.1392027" lon="-2.8135749">
        <ele>223.737</ele>
        <time>2021-04-01T09:33:53.759Z</time>
      </trkpt>
      <trkpt lat="43.1391979" lon="-2.8135793">
        <ele>223.724</ele>
        <time>2021-04-01T09:33:53.814Z</time>
      </trkpt>
      <trkpt lat="43.1391934" lon="-2.8135834">
        <ele>223.707</ele>
        <time>2021-04-01T09:33:53.869Z</time>
      </trkpt>
      <trkpt lat="43.1391887" lon="-2.8135877">
        <ele>223.7</ele>
        <time>2021-04-01T09:33:53.921Z</time>
      </trkpt>
      <trkpt lat="43.1391838" lon="-2.8135918">
        <ele>223.702</ele>
        <time>2021-04-01T09:33:53.973Z</time>
      </trkpt>
      <trkpt lat="43.139179" lon="-2.813596">
        <ele>223.677</ele>
        <time>2021-04-01T09:33:54.025Z</time>
      </trkpt>
      <trkpt lat="43.1391745" lon="-2.8136">
        <ele>223.654</ele>
        <time>2021-04-01T09:33:54.077Z</time>
      </trkpt>
      <trkpt lat="43.1391698" lon="-2.8136039">
        <ele>223.674</ele>
        <time>2021-04-01T09:33:54.129Z</time>
      </trkpt>
      <trkpt lat="43.139165" lon="-2.813608">
        <ele>223.689</ele>
        <time>2021-04-01T09:33:54.181Z</time>
      </trkpt>
      <trkpt lat="43.1391597" lon="-2.8136116">
        <ele>223.658</ele>
        <time>2021-04-01T09:33:54.233Z</time>
      </trkpt>
      <trkpt lat="43.1391546" lon="-2.8136149">
        <ele>223.617</ele>
        <time>2021-04-01T09:33:54.285Z</time>
      </trkpt>
      <trkpt lat="43.1391498" lon="-2.8136187">
        <ele>223.636</ele>
        <time>2021-04-01T09:33:54.337Z</time>
      </trkpt>
      <trkpt lat="43.1391451" lon="-2.8136224">
        <ele>223.635</ele>
        <time>2021-04-01T09:33:54.390Z</time>
      </trkpt>
      <trkpt lat="43.1391401" lon="-2.8136257">
        <ele>223.615</ele>
        <time>2021-04-01T09:33:54.442Z</time>
      </trkpt>
      <trkpt lat="43.1391349" lon="-2.8136288">
        <ele>223.575</ele>
        <time>2021-04-01T09:33:54.494Z</time>
      </trkpt>
      <trkpt lat="43.1391299" lon="-2.8136321">
        <ele>223.553</ele>
        <time>2021-04-01T09:33:54.546Z</time>
      </trkpt>
      <trkpt lat="43.139125" lon="-2.8136355">
        <ele>223.562</ele>
        <time>2021-04-01T09:33:54.598Z</time>
      </trkpt>
      <trkpt lat="43.1391202" lon="-2.813639">
        <ele>223.571</ele>
        <time>2021-04-01T09:33:54.650Z</time>
      </trkpt>
      <trkpt lat="43.1391154" lon="-2.8136422">
        <ele>223.562</ele>
        <time>2021-04-01T09:33:54.702Z</time>
      </trkpt>
      <trkpt lat="43.1391106" lon="-2.8136449">
        <ele>223.542</ele>
        <time>2021-04-01T09:33:54.754Z</time>
      </trkpt>
      <trkpt lat="43.1391058" lon="-2.8136478">
        <ele>223.54</ele>
        <time>2021-04-01T09:33:54.806Z</time>
      </trkpt>
      <trkpt lat="43.1391009" lon="-2.8136507">
        <ele>223.527</ele>
        <time>2021-04-01T09:33:54.859Z</time>
      </trkpt>
      <trkpt lat="43.1390961" lon="-2.8136538">
        <ele>223.526</ele>
        <time>2021-04-01T09:33:54.917Z</time>
      </trkpt>
      <trkpt lat="43.1390913" lon="-2.8136569">
        <ele>223.523</ele>
        <time>2021-04-01T09:33:54.975Z</time>
      </trkpt>
      <trkpt lat="43.1390865" lon="-2.8136596">
        <ele>223.51</ele>
        <time>2021-04-01T09:33:55.033Z</time>
      </trkpt>
      <trkpt lat="43.1390818" lon="-2.8136623">
        <ele>223.498</ele>
        <time>2021-04-01T09:33:55.091Z</time>
      </trkpt>
      <trkpt lat="43.1390772" lon="-2.813665">
        <ele>223.493</ele>
        <time>2021-04-01T09:33:55.149Z</time>
      </trkpt>
      <trkpt lat="43.1390724" lon="-2.8136674">
        <ele>223.492</ele>
        <time>2021-04-01T09:33:55.207Z</time>
      </trkpt>
      <trkpt lat="43.1390676" lon="-2.8136699">
        <ele>223.476</ele>
        <time>2021-04-01T09:33:55.265Z</time>
      </trkpt>
      <trkpt lat="43.1390628" lon="-2.8136724">
        <ele>223.467</ele>
        <time>2021-04-01T09:33:55.323Z</time>
      </trkpt>
      <trkpt lat="43.1390581" lon="-2.813675">
        <ele>223.48</ele>
        <time>2021-04-01T09:33:55.381Z</time>
      </trkpt>
      <trkpt lat="43.1390535" lon="-2.8136774">
        <ele>223.475</ele>
        <time>2021-04-01T09:33:55.439Z</time>
      </trkpt>
      <trkpt lat="43.1390486" lon="-2.8136797">
        <ele>223.463</ele>
        <time>2021-04-01T09:33:55.497Z</time>
      </trkpt>
      <trkpt lat="43.1390441" lon="-2.813682">
        <ele>223.451</ele>
        <time>2021-04-01T09:33:55.555Z</time>
      </trkpt>
      <trkpt lat="43.1390394" lon="-2.8136843">
        <ele>223.416</ele>
        <time>2021-04-01T09:33:55.613Z</time>
      </trkpt>
      <trkpt lat="43.1390347" lon="-2.8136865">
        <ele>223.377</ele>
        <time>2021-04-01T09:33:55.671Z</time>
      </trkpt>
      <trkpt lat="43.1390301" lon="-2.8136889">
        <ele>223.355</ele>
        <time>2021-04-01T09:33:55.729Z</time>
      </trkpt>
      <trkpt lat="43.1390257" lon="-2.8136912">
        <ele>223.343</ele>
        <time>2021-04-01T09:33:55.787Z</time>
      </trkpt>
      <trkpt lat="43.1390212" lon="-2.8136935">
        <ele>223.339</ele>
        <time>2021-04-01T09:33:55.845Z</time>
      </trkpt>
      <trkpt lat="43.1390166" lon="-2.8136956">
        <ele>223.34</ele>
        <time>2021-04-01T09:33:55.904Z</time>
      </trkpt>
      <trkpt lat="43.1390121" lon="-2.8136979">
        <ele>223.329</ele>
        <time>2021-04-01T09:33:55.962Z</time>
      </trkpt>
      <trkpt lat="43.1390076" lon="-2.8137002">
        <ele>223.321</ele>
        <time>2021-04-01T09:33:56.020Z</time>
      </trkpt>
      <trkpt lat="43.1390034" lon="-2.8137029">
        <ele>223.279</ele>
        <time>2021-04-01T09:33:56.078Z</time>
      </trkpt>
      <trkpt lat="43.1389991" lon="-2.8137053">
        <ele>223.261</ele>
        <time>2021-04-01T09:33:56.136Z</time>
      </trkpt>
      <trkpt lat="43.1389948" lon="-2.8137077">
        <ele>223.246</ele>
        <time>2021-04-01T09:33:56.195Z</time>
      </trkpt>
      <trkpt lat="43.1389905" lon="-2.8137101">
        <ele>223.215</ele>
        <time>2021-04-01T09:33:56.253Z</time>
      </trkpt>
      <trkpt lat="43.1389863" lon="-2.8137126">
        <ele>223.223</ele>
        <time>2021-04-01T09:33:56.311Z</time>
      </trkpt>
      <trkpt lat="43.1389821" lon="-2.813715">
        <ele>223.219</ele>
        <time>2021-04-01T09:33:56.369Z</time>
      </trkpt>
      <trkpt lat="43.138978" lon="-2.8137175">
        <ele>223.181</ele>
        <time>2021-04-01T09:33:56.428Z</time>
      </trkpt>
      <trkpt lat="43.1389742" lon="-2.81372">
        <ele>223.123</ele>
        <time>2021-04-01T09:33:56.486Z</time>
      </trkpt>
      <trkpt lat="43.1389703" lon="-2.8137224">
        <ele>223.088</ele>
        <time>2021-04-01T09:33:56.544Z</time>
      </trkpt>
      <trkpt lat="43.1389666" lon="-2.813725">
        <ele>223.037</ele>
        <time>2021-04-01T09:33:56.602Z</time>
      </trkpt>
      <trkpt lat="43.1389628" lon="-2.8137279">
        <ele>223.016</ele>
        <time>2021-04-01T09:33:56.661Z</time>
      </trkpt>
      <trkpt lat="43.1389592" lon="-2.8137309">
        <ele>222.984</ele>
        <time>2021-04-01T09:33:56.719Z</time>
      </trkpt>
      <trkpt lat="43.1389556" lon="-2.813734">
        <ele>222.976</ele>
        <time>2021-04-01T09:33:56.777Z</time>
      </trkpt>
      <trkpt lat="43.138952" lon="-2.813737">
        <ele>222.963</ele>
        <time>2021-04-01T09:33:56.835Z</time>
      </trkpt>
      <trkpt lat="43.1389485" lon="-2.81374">
        <ele>222.926</ele>
        <time>2021-04-01T09:33:56.894Z</time>
      </trkpt>
      <trkpt lat="43.138945" lon="-2.8137431">
        <ele>222.907</ele>
        <time>2021-04-01T09:33:56.946Z</time>
      </trkpt>
      <trkpt lat="43.1389416" lon="-2.8137463">
        <ele>222.882</ele>
        <time>2021-04-01T09:33:56.998Z</time>
      </trkpt>
      <trkpt lat="43.138938" lon="-2.8137495">
        <ele>222.865</ele>
        <time>2021-04-01T09:33:57.050Z</time>
      </trkpt>
      <trkpt lat="43.1389347" lon="-2.8137528">
        <ele>222.838</ele>
        <time>2021-04-01T09:33:57.102Z</time>
      </trkpt>
      <trkpt lat="43.1389315" lon="-2.8137561">
        <ele>222.816</ele>
        <time>2021-04-01T09:33:57.154Z</time>
      </trkpt>
      <trkpt lat="43.1389283" lon="-2.8137594">
        <ele>222.79</ele>
        <time>2021-04-01T09:33:57.206Z</time>
      </trkpt>
      <trkpt lat="43.1389256" lon="-2.8137632">
        <ele>222.77</ele>
        <time>2021-04-01T09:33:57.258Z</time>
      </trkpt>
      <trkpt lat="43.1389228" lon="-2.813767">
        <ele>222.723</ele>
        <time>2021-04-01T09:33:57.310Z</time>
      </trkpt>
      <trkpt lat="43.1389199" lon="-2.8137709">
        <ele>222.688</ele>
        <time>2021-04-01T09:33:57.362Z</time>
      </trkpt>
      <trkpt lat="43.1389173" lon="-2.8137747">
        <ele>222.674</ele>
        <time>2021-04-01T09:33:57.415Z</time>
      </trkpt>
      <trkpt lat="43.1389152" lon="-2.8137784">
        <ele>222.637</ele>
        <time>2021-04-01T09:33:57.467Z</time>
      </trkpt>
      <trkpt lat="43.1389131" lon="-2.8137825">
        <ele>222.604</ele>
        <time>2021-04-01T09:33:57.519Z</time>
      </trkpt>
      <trkpt lat="43.1389112" lon="-2.813787">
        <ele>222.566</ele>
        <time>2021-04-01T09:33:57.571Z</time>
      </trkpt>
      <trkpt lat="43.1389088" lon="-2.813791">
        <ele>222.523</ele>
        <time>2021-04-01T09:33:57.623Z</time>
      </trkpt>
      <trkpt lat="43.1389071" lon="-2.8137952">
        <ele>222.461</ele>
        <time>2021-04-01T09:33:57.675Z</time>
      </trkpt>
      <trkpt lat="43.1389054" lon="-2.8137995">
        <ele>222.393</ele>
        <time>2021-04-01T09:33:57.727Z</time>
      </trkpt>
      <trkpt lat="43.1389036" lon="-2.8138038">
        <ele>222.348</ele>
        <time>2021-04-01T09:33:57.779Z</time>
      </trkpt>
      <trkpt lat="43.138902" lon="-2.8138085">
        <ele>222.307</ele>
        <time>2021-04-01T09:33:57.831Z</time>
      </trkpt>
      <trkpt lat="43.138901" lon="-2.813813">
        <ele>222.263</ele>
        <time>2021-04-01T09:33:57.884Z</time>
      </trkpt>
      <trkpt lat="43.1388992" lon="-2.8138173">
        <ele>222.239</ele>
        <time>2021-04-01T09:33:57.939Z</time>
      </trkpt>
      <trkpt lat="43.1388973" lon="-2.8138217">
        <ele>222.212</ele>
        <time>2021-04-01T09:33:57.994Z</time>
      </trkpt>
      <trkpt lat="43.1388958" lon="-2.8138264">
        <ele>222.176</ele>
        <time>2021-04-01T09:33:58.049Z</time>
      </trkpt>
      <trkpt lat="43.1388943" lon="-2.813831">
        <ele>222.138</ele>
        <time>2021-04-01T09:33:58.104Z</time>
      </trkpt>
      <trkpt lat="43.1388929" lon="-2.8138355">
        <ele>222.108</ele>
        <time>2021-04-01T09:33:58.159Z</time>
      </trkpt>
      <trkpt lat="43.1388915" lon="-2.8138403">
        <ele>222.071</ele>
        <time>2021-04-01T09:33:58.214Z</time>
      </trkpt>
      <trkpt lat="43.13889" lon="-2.8138448">
        <ele>222.033</ele>
        <time>2021-04-01T09:33:58.269Z</time>
      </trkpt>
      <trkpt lat="43.1388888" lon="-2.8138496">
        <ele>221.965</ele>
        <time>2021-04-01T09:33:58.324Z</time>
      </trkpt>
      <trkpt lat="43.1388877" lon="-2.8138543">
        <ele>221.927</ele>
        <time>2021-04-01T09:33:58.379Z</time>
      </trkpt>
      <trkpt lat="43.1388865" lon="-2.813859">
        <ele>221.89</ele>
        <time>2021-04-01T09:33:58.434Z</time>
      </trkpt>
      <trkpt lat="43.1388852" lon="-2.8138638">
        <ele>221.866</ele>
        <time>2021-04-01T09:33:58.489Z</time>
      </trkpt>
      <trkpt lat="43.1388844" lon="-2.8138686">
        <ele>221.843</ele>
        <time>2021-04-01T09:33:58.544Z</time>
      </trkpt>
      <trkpt lat="43.1388834" lon="-2.8138733">
        <ele>221.785</ele>
        <time>2021-04-01T09:33:58.599Z</time>
      </trkpt>
      <trkpt lat="43.1388829" lon="-2.8138782">
        <ele>221.725</ele>
        <time>2021-04-01T09:33:58.654Z</time>
      </trkpt>
      <trkpt lat="43.1388824" lon="-2.8138835">
        <ele>221.724</ele>
        <time>2021-04-01T09:33:58.709Z</time>
      </trkpt>
      <trkpt lat="43.1388824" lon="-2.8138885">
        <ele>221.693</ele>
        <time>2021-04-01T09:33:58.764Z</time>
      </trkpt>
      <trkpt lat="43.1388822" lon="-2.8138933">
        <ele>221.634</ele>
        <time>2021-04-01T09:33:58.819Z</time>
      </trkpt>
      <trkpt lat="43.1388821" lon="-2.8138985">
        <ele>221.632</ele>
        <time>2021-04-01T09:33:58.874Z</time>
      </trkpt>
      <trkpt lat="43.1388823" lon="-2.8139038">
        <ele>221.582</ele>
        <time>2021-04-01T09:33:58.926Z</time>
      </trkpt>
      <trkpt lat="43.1388824" lon="-2.8139089">
        <ele>221.543</ele>
        <time>2021-04-01T09:33:58.978Z</time>
      </trkpt>
      <trkpt lat="43.1388828" lon="-2.8139137">
        <ele>221.436</ele>
        <time>2021-04-01T09:33:59.030Z</time>
      </trkpt>
      <trkpt lat="43.1388835" lon="-2.8139188">
        <ele>221.436</ele>
        <time>2021-04-01T09:33:59.082Z</time>
      </trkpt>
      <trkpt lat="43.1388843" lon="-2.813924">
        <ele>221.419</ele>
        <time>2021-04-01T09:33:59.134Z</time>
      </trkpt>
      <trkpt lat="43.1388851" lon="-2.8139292">
        <ele>221.426</ele>
        <time>2021-04-01T09:33:59.186Z</time>
      </trkpt>
      <trkpt lat="43.1388864" lon="-2.8139347">
        <ele>221.422</ele>
        <time>2021-04-01T09:33:59.238Z</time>
      </trkpt>
      <trkpt lat="43.1388876" lon="-2.81394">
        <ele>221.477</ele>
        <time>2021-04-01T09:33:59.290Z</time>
      </trkpt>
      <trkpt lat="43.1388891" lon="-2.8139452">
        <ele>221.469</ele>
        <time>2021-04-01T09:33:59.342Z</time>
      </trkpt>
      <trkpt lat="43.1388909" lon="-2.8139505">
        <ele>221.483</ele>
        <time>2021-04-01T09:33:59.395Z</time>
      </trkpt>
      <trkpt lat="43.1388924" lon="-2.8139556">
        <ele>221.514</ele>
        <time>2021-04-01T09:33:59.447Z</time>
      </trkpt>
      <trkpt lat="43.1388938" lon="-2.8139603">
        <ele>221.478</ele>
        <time>2021-04-01T09:33:59.499Z</time>
      </trkpt>
      <trkpt lat="43.1388955" lon="-2.8139653">
        <ele>221.496</ele>
        <time>2021-04-01T09:33:59.551Z</time>
      </trkpt>
      <trkpt lat="43.1388974" lon="-2.8139703">
        <ele>221.507</ele>
        <time>2021-04-01T09:33:59.603Z</time>
      </trkpt>
      <trkpt lat="43.1388994" lon="-2.8139751">
        <ele>221.51</ele>
        <time>2021-04-01T09:33:59.655Z</time>
      </trkpt>
      <trkpt lat="43.1389014" lon="-2.8139798">
        <ele>221.521</ele>
        <time>2021-04-01T09:33:59.707Z</time>
      </trkpt>
      <trkpt lat="43.1389036" lon="-2.8139843">
        <ele>221.522</ele>
        <time>2021-04-01T09:33:59.759Z</time>
      </trkpt>
      <trkpt lat="43.138906" lon="-2.8139888">
        <ele>221.528</ele>
        <time>2021-04-01T09:33:59.811Z</time>
      </trkpt>
      <trkpt lat="43.1389084" lon="-2.8139933">
        <ele>221.569</ele>
        <time>2021-04-01T09:33:59.864Z</time>
      </trkpt>
      <trkpt lat="43.138911" lon="-2.8139976">
        <ele>221.531</ele>
        <time>2021-04-01T09:33:59.922Z</time>
      </trkpt>
      <trkpt lat="43.1389137" lon="-2.8140017">
        <ele>221.548</ele>
        <time>2021-04-01T09:33:59.980Z</time>
      </trkpt>
      <trkpt lat="43.1389162" lon="-2.8140056">
        <ele>221.551</ele>
        <time>2021-04-01T09:34:00.038Z</time>
      </trkpt>
      <trkpt lat="43.1389188" lon="-2.8140096">
        <ele>221.549</ele>
        <time>2021-04-01T09:34:00.096Z</time>
      </trkpt>
      <trkpt lat="43.1389222" lon="-2.8140133">
        <ele>221.584</ele>
        <time>2021-04-01T09:34:00.154Z</time>
      </trkpt>
      <trkpt lat="43.1389249" lon="-2.8140168">
        <ele>221.527</ele>
        <time>2021-04-01T09:34:00.212Z</time>
      </trkpt>
      <trkpt lat="43.1389278" lon="-2.81402">
        <ele>221.515</ele>
        <time>2021-04-01T09:34:00.270Z</time>
      </trkpt>
      <trkpt lat="43.1389309" lon="-2.8140236">
        <ele>221.484</ele>
        <time>2021-04-01T09:34:00.328Z</time>
      </trkpt>
      <trkpt lat="43.138934" lon="-2.814027">
        <ele>221.462</ele>
        <time>2021-04-01T09:34:00.386Z</time>
      </trkpt>
      <trkpt lat="43.1389372" lon="-2.8140304">
        <ele>221.4</ele>
        <time>2021-04-01T09:34:00.444Z</time>
      </trkpt>
      <trkpt lat="43.1389403" lon="-2.8140338">
        <ele>221.393</ele>
        <time>2021-04-01T09:34:00.502Z</time>
      </trkpt>
      <trkpt lat="43.1389432" lon="-2.8140376">
        <ele>221.346</ele>
        <time>2021-04-01T09:34:00.560Z</time>
      </trkpt>
      <trkpt lat="43.138946" lon="-2.814041">
        <ele>221.314</ele>
        <time>2021-04-01T09:34:00.618Z</time>
      </trkpt>
      <trkpt lat="43.1389492" lon="-2.814044">
        <ele>221.265</ele>
        <time>2021-04-01T09:34:00.676Z</time>
      </trkpt>
      <trkpt lat="43.1389525" lon="-2.8140468">
        <ele>221.231</ele>
        <time>2021-04-01T09:34:00.734Z</time>
      </trkpt>
      <trkpt lat="43.1389563" lon="-2.8140493">
        <ele>221.222</ele>
        <time>2021-04-01T09:34:00.792Z</time>
      </trkpt>
      <trkpt lat="43.1389602" lon="-2.8140515">
        <ele>221.255</ele>
        <time>2021-04-01T09:34:00.850Z</time>
      </trkpt>
      <trkpt lat="43.1389641" lon="-2.8140541">
        <ele>221.241</ele>
        <time>2021-04-01T09:34:00.909Z</time>
      </trkpt>
      <trkpt lat="43.1389677" lon="-2.8140565">
        <ele>221.213</ele>
        <time>2021-04-01T09:34:00.964Z</time>
      </trkpt>
      <trkpt lat="43.1389715" lon="-2.8140588">
        <ele>221.145</ele>
        <time>2021-04-01T09:34:01.019Z</time>
      </trkpt>
      <trkpt lat="43.1389755" lon="-2.8140614">
        <ele>221.148</ele>
        <time>2021-04-01T09:34:01.074Z</time>
      </trkpt>
      <trkpt lat="43.1389791" lon="-2.8140638">
        <ele>221.116</ele>
        <time>2021-04-01T09:34:01.129Z</time>
      </trkpt>
      <trkpt lat="43.138983" lon="-2.8140662">
        <ele>221.133</ele>
        <time>2021-04-01T09:34:01.184Z</time>
      </trkpt>
      <trkpt lat="43.1389869" lon="-2.8140687">
        <ele>221.137</ele>
        <time>2021-04-01T09:34:01.239Z</time>
      </trkpt>
      <trkpt lat="43.1389909" lon="-2.8140702">
        <ele>221.107</ele>
        <time>2021-04-01T09:34:01.294Z</time>
      </trkpt>
      <trkpt lat="43.1389948" lon="-2.8140725">
        <ele>221.089</ele>
        <time>2021-04-01T09:34:01.349Z</time>
      </trkpt>
      <trkpt lat="43.1389986" lon="-2.8140747">
        <ele>221.087</ele>
        <time>2021-04-01T09:34:01.404Z</time>
      </trkpt>
      <trkpt lat="43.1390025" lon="-2.8140768">
        <ele>221.077</ele>
        <time>2021-04-01T09:34:01.459Z</time>
      </trkpt>
      <trkpt lat="43.1390064" lon="-2.8140786">
        <ele>221.053</ele>
        <time>2021-04-01T09:34:01.514Z</time>
      </trkpt>
      <trkpt lat="43.1390105" lon="-2.8140801">
        <ele>221.032</ele>
        <time>2021-04-01T09:34:01.569Z</time>
      </trkpt>
      <trkpt lat="43.1390147" lon="-2.8140813">
        <ele>220.96</ele>
        <time>2021-04-01T09:34:01.624Z</time>
      </trkpt>
      <trkpt lat="43.1390187" lon="-2.8140825">
        <ele>220.912</ele>
        <time>2021-04-01T09:34:01.679Z</time>
      </trkpt>
      <trkpt lat="43.1390227" lon="-2.8140837">
        <ele>220.9</ele>
        <time>2021-04-01T09:34:01.734Z</time>
      </trkpt>
      <trkpt lat="43.1390268" lon="-2.8140855">
        <ele>220.877</ele>
        <time>2021-04-01T09:34:01.789Z</time>
      </trkpt>
      <trkpt lat="43.1390307" lon="-2.8140875">
        <ele>220.829</ele>
        <time>2021-04-01T09:34:01.844Z</time>
      </trkpt>
      <trkpt lat="43.1390346" lon="-2.8140891">
        <ele>220.769</ele>
        <time>2021-04-01T09:34:01.899Z</time>
      </trkpt>
      <trkpt lat="43.1390387" lon="-2.8140901">
        <ele>220.707</ele>
        <time>2021-04-01T09:34:01.954Z</time>
      </trkpt>
      <trkpt lat="43.1390428" lon="-2.8140915">
        <ele>220.704</ele>
        <time>2021-04-01T09:34:02.009Z</time>
      </trkpt>
      <trkpt lat="43.1390471" lon="-2.8140935">
        <ele>220.713</ele>
        <time>2021-04-01T09:34:02.064Z</time>
      </trkpt>
      <trkpt lat="43.1390512" lon="-2.8140949">
        <ele>220.692</ele>
        <time>2021-04-01T09:34:02.119Z</time>
      </trkpt>
      <trkpt lat="43.1390554" lon="-2.8140963">
        <ele>220.671</ele>
        <time>2021-04-01T09:34:02.174Z</time>
      </trkpt>
      <trkpt lat="43.1390597" lon="-2.8140972">
        <ele>220.644</ele>
        <time>2021-04-01T09:34:02.229Z</time>
      </trkpt>
      <trkpt lat="43.1390639" lon="-2.8140988">
        <ele>220.635</ele>
        <time>2021-04-01T09:34:02.284Z</time>
      </trkpt>
      <trkpt lat="43.1390681" lon="-2.8141001">
        <ele>220.628</ele>
        <time>2021-04-01T09:34:02.339Z</time>
      </trkpt>
      <trkpt lat="43.1390724" lon="-2.8141013">
        <ele>220.612</ele>
        <time>2021-04-01T09:34:02.394Z</time>
      </trkpt>
      <trkpt lat="43.1390767" lon="-2.8141029">
        <ele>220.6</ele>
        <time>2021-04-01T09:34:02.449Z</time>
      </trkpt>
      <trkpt lat="43.1390809" lon="-2.8141042">
        <ele>220.593</ele>
        <time>2021-04-01T09:34:02.504Z</time>
      </trkpt>
      <trkpt lat="43.1390852" lon="-2.8141052">
        <ele>220.582</ele>
        <time>2021-04-01T09:34:02.559Z</time>
      </trkpt>
      <trkpt lat="43.1390898" lon="-2.8141066">
        <ele>220.632</ele>
        <time>2021-04-01T09:34:02.614Z</time>
      </trkpt>
      <trkpt lat="43.1390941" lon="-2.8141077">
        <ele>220.627</ele>
        <time>2021-04-01T09:34:02.669Z</time>
      </trkpt>
      <trkpt lat="43.1390983" lon="-2.8141087">
        <ele>220.554</ele>
        <time>2021-04-01T09:34:02.724Z</time>
      </trkpt>
      <trkpt lat="43.1391023" lon="-2.8141098">
        <ele>220.492</ele>
        <time>2021-04-01T09:34:02.779Z</time>
      </trkpt>
      <trkpt lat="43.1391065" lon="-2.8141109">
        <ele>220.499</ele>
        <time>2021-04-01T09:34:02.834Z</time>
      </trkpt>
      <trkpt lat="43.139111" lon="-2.8141122">
        <ele>220.535</ele>
        <time>2021-04-01T09:34:02.889Z</time>
      </trkpt>
      <trkpt lat="43.1391156" lon="-2.8141132">
        <ele>220.536</ele>
        <time>2021-04-01T09:34:02.941Z</time>
      </trkpt>
      <trkpt lat="43.13912" lon="-2.8141143">
        <ele>220.536</ele>
        <time>2021-04-01T09:34:02.993Z</time>
      </trkpt>
      <trkpt lat="43.1391244" lon="-2.8141154">
        <ele>220.572</ele>
        <time>2021-04-01T09:34:03.045Z</time>
      </trkpt>
      <trkpt lat="43.1391288" lon="-2.8141165">
        <ele>220.547</ele>
        <time>2021-04-01T09:34:03.097Z</time>
      </trkpt>
      <trkpt lat="43.1391331" lon="-2.8141176">
        <ele>220.537</ele>
        <time>2021-04-01T09:34:03.149Z</time>
      </trkpt>
      <trkpt lat="43.1391376" lon="-2.8141189">
        <ele>220.528</ele>
        <time>2021-04-01T09:34:03.201Z</time>
      </trkpt>
      <trkpt lat="43.139142" lon="-2.8141197">
        <ele>220.525</ele>
        <time>2021-04-01T09:34:03.253Z</time>
      </trkpt>
      <trkpt lat="43.1391465" lon="-2.8141209">
        <ele>220.565</ele>
        <time>2021-04-01T09:34:03.305Z</time>
      </trkpt>
      <trkpt lat="43.1391509" lon="-2.814122">
        <ele>220.538</ele>
        <time>2021-04-01T09:34:03.357Z</time>
      </trkpt>
      <trkpt lat="43.1391554" lon="-2.8141232">
        <ele>220.537</ele>
        <time>2021-04-01T09:34:03.410Z</time>
      </trkpt>
      <trkpt lat="43.1391597" lon="-2.8141244">
        <ele>220.564</ele>
        <time>2021-04-01T09:34:03.462Z</time>
      </trkpt>
      <trkpt lat="43.1391642" lon="-2.8141255">
        <ele>220.546</ele>
        <time>2021-04-01T09:34:03.514Z</time>
      </trkpt>
      <trkpt lat="43.1391686" lon="-2.8141264">
        <ele>220.517</ele>
        <time>2021-04-01T09:34:03.566Z</time>
      </trkpt>
      <trkpt lat="43.1391733" lon="-2.8141277">
        <ele>220.551</ele>
        <time>2021-04-01T09:34:03.618Z</time>
      </trkpt>
      <trkpt lat="43.1391779" lon="-2.8141286">
        <ele>220.548</ele>
        <time>2021-04-01T09:34:03.670Z</time>
      </trkpt>
      <trkpt lat="43.1391824" lon="-2.81413">
        <ele>220.5</ele>
        <time>2021-04-01T09:34:03.722Z</time>
      </trkpt>
      <trkpt lat="43.1391869" lon="-2.814131">
        <ele>220.464</ele>
        <time>2021-04-01T09:34:03.774Z</time>
      </trkpt>
      <trkpt lat="43.1391914" lon="-2.8141318">
        <ele>220.472</ele>
        <time>2021-04-01T09:34:03.826Z</time>
      </trkpt>
      <trkpt lat="43.1391957" lon="-2.8141326">
        <ele>220.488</ele>
        <time>2021-04-01T09:34:03.879Z</time>
      </trkpt>
      <trkpt lat="43.1392001" lon="-2.8141335">
        <ele>220.475</ele>
        <time>2021-04-01T09:34:03.937Z</time>
      </trkpt>
      <trkpt lat="43.1392047" lon="-2.8141346">
        <ele>220.453</ele>
        <time>2021-04-01T09:34:03.995Z</time>
      </trkpt>
      <trkpt lat="43.1392092" lon="-2.8141355">
        <ele>220.431</ele>
        <time>2021-04-01T09:34:04.053Z</time>
      </trkpt>
      <trkpt lat="43.1392139" lon="-2.8141367">
        <ele>220.399</ele>
        <time>2021-04-01T09:34:04.111Z</time>
      </trkpt>
      <trkpt lat="43.1392181" lon="-2.8141376">
        <ele>220.41</ele>
        <time>2021-04-01T09:34:04.169Z</time>
      </trkpt>
      <trkpt lat="43.1392225" lon="-2.8141387">
        <ele>220.405</ele>
        <time>2021-04-01T09:34:04.227Z</time>
      </trkpt>
      <trkpt lat="43.1392269" lon="-2.8141395">
        <ele>220.398</ele>
        <time>2021-04-01T09:34:04.285Z</time>
      </trkpt>
      <trkpt lat="43.1392315" lon="-2.8141404">
        <ele>220.399</ele>
        <time>2021-04-01T09:34:04.343Z</time>
      </trkpt>
      <trkpt lat="43.1392359" lon="-2.8141414">
        <ele>220.412</ele>
        <time>2021-04-01T09:34:04.401Z</time>
      </trkpt>
      <trkpt lat="43.1392404" lon="-2.8141425">
        <ele>220.402</ele>
        <time>2021-04-01T09:34:04.459Z</time>
      </trkpt>
      <trkpt lat="43.1392451" lon="-2.8141439">
        <ele>220.399</ele>
        <time>2021-04-01T09:34:04.517Z</time>
      </trkpt>
      <trkpt lat="43.1392497" lon="-2.8141454">
        <ele>220.45</ele>
        <time>2021-04-01T09:34:04.575Z</time>
      </trkpt>
      <trkpt lat="43.1392542" lon="-2.8141469">
        <ele>220.469</ele>
        <time>2021-04-01T09:34:04.633Z</time>
      </trkpt>
      <trkpt lat="43.139259" lon="-2.8141484">
        <ele>220.482</ele>
        <time>2021-04-01T09:34:04.691Z</time>
      </trkpt>
      <trkpt lat="43.1392636" lon="-2.8141497">
        <ele>220.531</ele>
        <time>2021-04-01T09:34:04.749Z</time>
      </trkpt>
      <trkpt lat="43.1392683" lon="-2.8141509">
        <ele>220.531</ele>
        <time>2021-04-01T09:34:04.807Z</time>
      </trkpt>
      <trkpt lat="43.139273" lon="-2.8141519">
        <ele>220.528</ele>
        <time>2021-04-01T09:34:04.865Z</time>
      </trkpt>
      <trkpt lat="43.1392773" lon="-2.8141528">
        <ele>220.507</ele>
        <time>2021-04-01T09:34:04.924Z</time>
      </trkpt>
      <trkpt lat="43.1392817" lon="-2.8141537">
        <ele>220.478</ele>
        <time>2021-04-01T09:34:04.979Z</time>
      </trkpt>
      <trkpt lat="43.1392862" lon="-2.8141546">
        <ele>220.421</ele>
        <time>2021-04-01T09:34:05.034Z</time>
      </trkpt>
      <trkpt lat="43.1392907" lon="-2.8141555">
        <ele>220.371</ele>
        <time>2021-04-01T09:34:05.089Z</time>
      </trkpt>
      <trkpt lat="43.1392952" lon="-2.8141565">
        <ele>220.305</ele>
        <time>2021-04-01T09:34:05.144Z</time>
      </trkpt>
      <trkpt lat="43.1392999" lon="-2.8141575">
        <ele>220.278</ele>
        <time>2021-04-01T09:34:05.199Z</time>
      </trkpt>
      <trkpt lat="43.1393043" lon="-2.8141585">
        <ele>220.269</ele>
        <time>2021-04-01T09:34:05.254Z</time>
      </trkpt>
      <trkpt lat="43.1393089" lon="-2.8141598">
        <ele>220.254</ele>
        <time>2021-04-01T09:34:05.309Z</time>
      </trkpt>
      <trkpt lat="43.1393137" lon="-2.8141608">
        <ele>220.229</ele>
        <time>2021-04-01T09:34:05.364Z</time>
      </trkpt>
      <trkpt lat="43.1393185" lon="-2.8141615">
        <ele>220.181</ele>
        <time>2021-04-01T09:34:05.419Z</time>
      </trkpt>
      <trkpt lat="43.1393233" lon="-2.8141624">
        <ele>220.168</ele>
        <time>2021-04-01T09:34:05.474Z</time>
      </trkpt>
      <trkpt lat="43.1393279" lon="-2.8141636">
        <ele>220.159</ele>
        <time>2021-04-01T09:34:05.529Z</time>
      </trkpt>
      <trkpt lat="43.1393324" lon="-2.8141647">
        <ele>220.172</ele>
        <time>2021-04-01T09:34:05.584Z</time>
      </trkpt>
      <trkpt lat="43.139337" lon="-2.8141656">
        <ele>220.153</ele>
        <time>2021-04-01T09:34:05.639Z</time>
      </trkpt>
      <trkpt lat="43.1393414" lon="-2.8141665">
        <ele>220.098</ele>
        <time>2021-04-01T09:34:05.694Z</time>
      </trkpt>
      <trkpt lat="43.1393461" lon="-2.8141672">
        <ele>220.111</ele>
        <time>2021-04-01T09:34:05.749Z</time>
      </trkpt>
      <trkpt lat="43.1393508" lon="-2.814168">
        <ele>220.101</ele>
        <time>2021-04-01T09:34:05.804Z</time>
      </trkpt>
      <trkpt lat="43.1393553" lon="-2.8141684">
        <ele>220.041</ele>
        <time>2021-04-01T09:34:05.859Z</time>
      </trkpt>
      <trkpt lat="43.1393596" lon="-2.814169">
        <ele>219.988</ele>
        <time>2021-04-01T09:34:05.914Z</time>
      </trkpt>
      <trkpt lat="43.139364" lon="-2.8141696">
        <ele>219.939</ele>
        <time>2021-04-01T09:34:05.969Z</time>
      </trkpt>
      <trkpt lat="43.1393686" lon="-2.8141703">
        <ele>219.912</ele>
        <time>2021-04-01T09:34:06.024Z</time>
      </trkpt>
      <trkpt lat="43.1393735" lon="-2.8141706">
        <ele>219.876</ele>
        <time>2021-04-01T09:34:06.079Z</time>
      </trkpt>
      <trkpt lat="43.1393781" lon="-2.8141711">
        <ele>219.857</ele>
        <time>2021-04-01T09:34:06.134Z</time>
      </trkpt>
      <trkpt lat="43.1393826" lon="-2.8141718">
        <ele>219.857</ele>
        <time>2021-04-01T09:34:06.189Z</time>
      </trkpt>
      <trkpt lat="43.1393872" lon="-2.8141724">
        <ele>219.864</ele>
        <time>2021-04-01T09:34:06.244Z</time>
      </trkpt>
      <trkpt lat="43.139392" lon="-2.8141721">
        <ele>219.793</ele>
        <time>2021-04-01T09:34:06.299Z</time>
      </trkpt>
      <trkpt lat="43.1393967" lon="-2.8141725">
        <ele>219.768</ele>
        <time>2021-04-01T09:34:06.354Z</time>
      </trkpt>
      <trkpt lat="43.1394012" lon="-2.8141731">
        <ele>219.771</ele>
        <time>2021-04-01T09:34:06.409Z</time>
      </trkpt>
      <trkpt lat="43.1394052" lon="-2.8141732">
        <ele>219.696</ele>
        <time>2021-04-01T09:34:06.464Z</time>
      </trkpt>
      <trkpt lat="43.1394101" lon="-2.8141732">
        <ele>219.671</ele>
        <time>2021-04-01T09:34:06.519Z</time>
      </trkpt>
      <trkpt lat="43.1394146" lon="-2.8141735">
        <ele>219.648</ele>
        <time>2021-04-01T09:34:06.574Z</time>
      </trkpt>
      <trkpt lat="43.1394193" lon="-2.8141737">
        <ele>219.615</ele>
        <time>2021-04-01T09:34:06.629Z</time>
      </trkpt>
      <trkpt lat="43.1394238" lon="-2.8141737">
        <ele>219.534</ele>
        <time>2021-04-01T09:34:06.684Z</time>
      </trkpt>
      <trkpt lat="43.1394284" lon="-2.8141737">
        <ele>219.465</ele>
        <time>2021-04-01T09:34:06.739Z</time>
      </trkpt>
      <trkpt lat="43.1394334" lon="-2.8141737">
        <ele>219.432</ele>
        <time>2021-04-01T09:34:06.794Z</time>
      </trkpt>
      <trkpt lat="43.1394383" lon="-2.8141737">
        <ele>219.445</ele>
        <time>2021-04-01T09:34:06.849Z</time>
      </trkpt>
      <trkpt lat="43.1394428" lon="-2.8141738">
        <ele>219.428</ele>
        <time>2021-04-01T09:34:06.904Z</time>
      </trkpt>
      <trkpt lat="43.1394474" lon="-2.8141738">
        <ele>219.413</ele>
        <time>2021-04-01T09:34:06.959Z</time>
      </trkpt>
      <trkpt lat="43.139452" lon="-2.8141737">
        <ele>219.392</ele>
        <time>2021-04-01T09:34:07.014Z</time>
      </trkpt>
      <trkpt lat="43.1394567" lon="-2.8141734">
        <ele>219.358</ele>
        <time>2021-04-01T09:34:07.069Z</time>
      </trkpt>
      <trkpt lat="43.1394614" lon="-2.8141734">
        <ele>219.356</ele>
        <time>2021-04-01T09:34:07.124Z</time>
      </trkpt>
      <trkpt lat="43.1394662" lon="-2.8141733">
        <ele>219.375</ele>
        <time>2021-04-01T09:34:07.179Z</time>
      </trkpt>
      <trkpt lat="43.1394708" lon="-2.8141732">
        <ele>219.361</ele>
        <time>2021-04-01T09:34:07.234Z</time>
      </trkpt>
      <trkpt lat="43.1394755" lon="-2.8141731">
        <ele>219.332</ele>
        <time>2021-04-01T09:34:07.289Z</time>
      </trkpt>
      <trkpt lat="43.13948" lon="-2.814173">
        <ele>219.279</ele>
        <time>2021-04-01T09:34:07.344Z</time>
      </trkpt>
      <trkpt lat="43.139485" lon="-2.8141727">
        <ele>219.237</ele>
        <time>2021-04-01T09:34:07.399Z</time>
      </trkpt>
      <trkpt lat="43.1394896" lon="-2.8141725">
        <ele>219.215</ele>
        <time>2021-04-01T09:34:07.454Z</time>
      </trkpt>
      <trkpt lat="43.1394939" lon="-2.814172">
        <ele>219.198</ele>
        <time>2021-04-01T09:34:07.509Z</time>
      </trkpt>
      <trkpt lat="43.1394985" lon="-2.8141716">
        <ele>219.174</ele>
        <time>2021-04-01T09:34:07.564Z</time>
      </trkpt>
      <trkpt lat="43.1395033" lon="-2.8141714">
        <ele>219.147</ele>
        <time>2021-04-01T09:34:07.619Z</time>
      </trkpt>
      <trkpt lat="43.139508" lon="-2.8141712">
        <ele>219.099</ele>
        <time>2021-04-01T09:34:07.674Z</time>
      </trkpt>
      <trkpt lat="43.1395125" lon="-2.8141707">
        <ele>219.097</ele>
        <time>2021-04-01T09:34:07.729Z</time>
      </trkpt>
      <trkpt lat="43.139517" lon="-2.8141702">
        <ele>219.067</ele>
        <time>2021-04-01T09:34:07.784Z</time>
      </trkpt>
      <trkpt lat="43.1395214" lon="-2.8141697">
        <ele>219.029</ele>
        <time>2021-04-01T09:34:07.839Z</time>
      </trkpt>
      <trkpt lat="43.139526" lon="-2.8141692">
        <ele>219.005</ele>
        <time>2021-04-01T09:34:07.894Z</time>
      </trkpt>
      <trkpt lat="43.1395305" lon="-2.8141692">
        <ele>219.004</ele>
        <time>2021-04-01T09:34:07.952Z</time>
      </trkpt>
      <trkpt lat="43.1395352" lon="-2.8141687">
        <ele>218.933</ele>
        <time>2021-04-01T09:34:08.010Z</time>
      </trkpt>
      <trkpt lat="43.1395396" lon="-2.8141679">
        <ele>218.84</ele>
        <time>2021-04-01T09:34:08.068Z</time>
      </trkpt>
      <trkpt lat="43.1395442" lon="-2.8141673">
        <ele>218.817</ele>
        <time>2021-04-01T09:34:08.126Z</time>
      </trkpt>
      <trkpt lat="43.1395489" lon="-2.8141667">
        <ele>218.788</ele>
        <time>2021-04-01T09:34:08.184Z</time>
      </trkpt>
      <trkpt lat="43.1395533" lon="-2.8141659">
        <ele>218.746</ele>
        <time>2021-04-01T09:34:08.242Z</time>
      </trkpt>
      <trkpt lat="43.1395581" lon="-2.8141655">
        <ele>218.743</ele>
        <time>2021-04-01T09:34:08.300Z</time>
      </trkpt>
      <trkpt lat="43.1395631" lon="-2.8141648">
        <ele>218.743</ele>
        <time>2021-04-01T09:34:08.358Z</time>
      </trkpt>
      <trkpt lat="43.1395676" lon="-2.8141641">
        <ele>218.726</ele>
        <time>2021-04-01T09:34:08.416Z</time>
      </trkpt>
      <trkpt lat="43.1395722" lon="-2.8141637">
        <ele>218.741</ele>
        <time>2021-04-01T09:34:08.474Z</time>
      </trkpt>
      <trkpt lat="43.1395769" lon="-2.8141632">
        <ele>218.771</ele>
        <time>2021-04-01T09:34:08.532Z</time>
      </trkpt>
      <trkpt lat="43.1395813" lon="-2.8141626">
        <ele>218.732</ele>
        <time>2021-04-01T09:34:08.590Z</time>
      </trkpt>
      <trkpt lat="43.139586" lon="-2.8141622">
        <ele>218.786</ele>
        <time>2021-04-01T09:34:08.648Z</time>
      </trkpt>
      <trkpt lat="43.1395908" lon="-2.8141617">
        <ele>218.82</ele>
        <time>2021-04-01T09:34:08.706Z</time>
      </trkpt>
      <trkpt lat="43.1395955" lon="-2.814161">
        <ele>218.841</ele>
        <time>2021-04-01T09:34:08.764Z</time>
      </trkpt>
      <trkpt lat="43.1396" lon="-2.81416">
        <ele>218.783</ele>
        <time>2021-04-01T09:34:08.822Z</time>
      </trkpt>
      <trkpt lat="43.1396045" lon="-2.8141593">
        <ele>218.815</ele>
        <time>2021-04-01T09:34:08.880Z</time>
      </trkpt>
      <trkpt lat="43.1396092" lon="-2.8141587">
        <ele>218.857</ele>
        <time>2021-04-01T09:34:08.939Z</time>
      </trkpt>
      <trkpt lat="43.1396136" lon="-2.8141581">
        <ele>218.884</ele>
        <time>2021-04-01T09:34:08.991Z</time>
      </trkpt>
      <trkpt lat="43.139618" lon="-2.8141573">
        <ele>218.88</ele>
        <time>2021-04-01T09:34:09.043Z</time>
      </trkpt>
      <trkpt lat="43.1396225" lon="-2.8141561">
        <ele>218.856</ele>
        <time>2021-04-01T09:34:09.095Z</time>
      </trkpt>
      <trkpt lat="43.1396268" lon="-2.8141551">
        <ele>218.827</ele>
        <time>2021-04-01T09:34:09.147Z</time>
      </trkpt>
      <trkpt lat="43.1396312" lon="-2.8141541">
        <ele>218.814</ele>
        <time>2021-04-01T09:34:09.199Z</time>
      </trkpt>
      <trkpt lat="43.1396359" lon="-2.8141534">
        <ele>218.788</ele>
        <time>2021-04-01T09:34:09.251Z</time>
      </trkpt>
      <trkpt lat="43.1396405" lon="-2.8141527">
        <ele>218.792</ele>
        <time>2021-04-01T09:34:09.303Z</time>
      </trkpt>
      <trkpt lat="43.1396452" lon="-2.8141519">
        <ele>218.801</ele>
        <time>2021-04-01T09:34:09.355Z</time>
      </trkpt>
      <trkpt lat="43.1396498" lon="-2.8141512">
        <ele>218.788</ele>
        <time>2021-04-01T09:34:09.407Z</time>
      </trkpt>
      <trkpt lat="43.1396541" lon="-2.8141503">
        <ele>218.816</ele>
        <time>2021-04-01T09:34:09.460Z</time>
      </trkpt>
      <trkpt lat="43.1396586" lon="-2.8141496">
        <ele>218.803</ele>
        <time>2021-04-01T09:34:09.512Z</time>
      </trkpt>
      <trkpt lat="43.1396632" lon="-2.8141488">
        <ele>218.788</ele>
        <time>2021-04-01T09:34:09.564Z</time>
      </trkpt>
      <trkpt lat="43.1396678" lon="-2.8141478">
        <ele>218.768</ele>
        <time>2021-04-01T09:34:09.616Z</time>
      </trkpt>
      <trkpt lat="43.1396722" lon="-2.8141468">
        <ele>218.757</ele>
        <time>2021-04-01T09:34:09.668Z</time>
      </trkpt>
      <trkpt lat="43.1396768" lon="-2.8141459">
        <ele>218.761</ele>
        <time>2021-04-01T09:34:09.720Z</time>
      </trkpt>
      <trkpt lat="43.1396812" lon="-2.814145">
        <ele>218.768</ele>
        <time>2021-04-01T09:34:09.772Z</time>
      </trkpt>
      <trkpt lat="43.1396856" lon="-2.814144">
        <ele>218.763</ele>
        <time>2021-04-01T09:34:09.824Z</time>
      </trkpt>
      <trkpt lat="43.1396902" lon="-2.8141436">
        <ele>218.785</ele>
        <time>2021-04-01T09:34:09.876Z</time>
      </trkpt>
      <trkpt lat="43.1396945" lon="-2.8141422">
        <ele>218.806</ele>
        <time>2021-04-01T09:34:09.929Z</time>
      </trkpt>
      <trkpt lat="43.1396988" lon="-2.8141412">
        <ele>218.817</ele>
        <time>2021-04-01T09:34:09.980Z</time>
      </trkpt>
      <trkpt lat="43.1397032" lon="-2.8141403">
        <ele>218.844</ele>
        <time>2021-04-01T09:34:10.032Z</time>
      </trkpt>
      <trkpt lat="43.1397074" lon="-2.8141391">
        <ele>218.843</ele>
        <time>2021-04-01T09:34:10.084Z</time>
      </trkpt>
      <trkpt lat="43.1397117" lon="-2.8141381">
        <ele>218.873</ele>
        <time>2021-04-01T09:34:10.136Z</time>
      </trkpt>
      <trkpt lat="43.1397159" lon="-2.8141372">
        <ele>218.942</ele>
        <time>2021-04-01T09:34:10.188Z</time>
      </trkpt>
      <trkpt lat="43.1397202" lon="-2.8141362">
        <ele>218.975</ele>
        <time>2021-04-01T09:34:10.240Z</time>
      </trkpt>
      <trkpt lat="43.1397246" lon="-2.8141354">
        <ele>218.985</ele>
        <time>2021-04-01T09:34:10.292Z</time>
      </trkpt>
      <trkpt lat="43.1397288" lon="-2.8141344">
        <ele>219</ele>
        <time>2021-04-01T09:34:10.344Z</time>
      </trkpt>
      <trkpt lat="43.1397332" lon="-2.8141335">
        <ele>219.066</ele>
        <time>2021-04-01T09:34:10.396Z</time>
      </trkpt>
      <trkpt lat="43.1397373" lon="-2.8141321">
        <ele>219.082</ele>
        <time>2021-04-01T09:34:10.448Z</time>
      </trkpt>
      <trkpt lat="43.1397416" lon="-2.814131">
        <ele>219.069</ele>
        <time>2021-04-01T09:34:10.500Z</time>
      </trkpt>
      <trkpt lat="43.1397459" lon="-2.8141295">
        <ele>219.013</ele>
        <time>2021-04-01T09:34:10.552Z</time>
      </trkpt>
      <trkpt lat="43.1397499" lon="-2.8141285">
        <ele>219.01</ele>
        <time>2021-04-01T09:34:10.604Z</time>
      </trkpt>
      <trkpt lat="43.1397545" lon="-2.8141275">
        <ele>219.044</ele>
        <time>2021-04-01T09:34:10.656Z</time>
      </trkpt>
      <trkpt lat="43.1397586" lon="-2.8141261">
        <ele>218.966</ele>
        <time>2021-04-01T09:34:10.708Z</time>
      </trkpt>
      <trkpt lat="43.1397629" lon="-2.8141253">
        <ele>219.003</ele>
        <time>2021-04-01T09:34:10.760Z</time>
      </trkpt>
      <trkpt lat="43.1397672" lon="-2.8141248">
        <ele>219.071</ele>
        <time>2021-04-01T09:34:10.812Z</time>
      </trkpt>
      <trkpt lat="43.1397717" lon="-2.814125">
        <ele>219.189</ele>
        <time>2021-04-01T09:34:10.864Z</time>
      </trkpt>
      <trkpt lat="43.139776" lon="-2.8141247">
        <ele>219.236</ele>
        <time>2021-04-01T09:34:10.922Z</time>
      </trkpt>
      <trkpt lat="43.1397804" lon="-2.8141239">
        <ele>219.275</ele>
        <time>2021-04-01T09:34:10.980Z</time>
      </trkpt>
      <trkpt lat="43.1397847" lon="-2.8141229">
        <ele>219.259</ele>
        <time>2021-04-01T09:34:11.038Z</time>
      </trkpt>
      <trkpt lat="43.1397891" lon="-2.8141218">
        <ele>219.234</ele>
        <time>2021-04-01T09:34:11.096Z</time>
      </trkpt>
      <trkpt lat="43.1397937" lon="-2.8141213">
        <ele>219.233</ele>
        <time>2021-04-01T09:34:11.154Z</time>
      </trkpt>
      <trkpt lat="43.1397979" lon="-2.8141207">
        <ele>219.226</ele>
        <time>2021-04-01T09:34:11.212Z</time>
      </trkpt>
      <trkpt lat="43.1398023" lon="-2.81412">
        <ele>219.296</ele>
        <time>2021-04-01T09:34:11.270Z</time>
      </trkpt>
      <trkpt lat="43.1398063" lon="-2.8141185">
        <ele>219.263</ele>
        <time>2021-04-01T09:34:11.328Z</time>
      </trkpt>
      <trkpt lat="43.1398104" lon="-2.8141175">
        <ele>219.26</ele>
        <time>2021-04-01T09:34:11.386Z</time>
      </trkpt>
      <trkpt lat="43.1398143" lon="-2.8141162">
        <ele>219.227</ele>
        <time>2021-04-01T09:34:11.444Z</time>
      </trkpt>
      <trkpt lat="43.1398185" lon="-2.8141151">
        <ele>219.193</ele>
        <time>2021-04-01T09:34:11.502Z</time>
      </trkpt>
      <trkpt lat="43.1398226" lon="-2.8141137">
        <ele>219.167</ele>
        <time>2021-04-01T09:34:11.560Z</time>
      </trkpt>
      <trkpt lat="43.1398268" lon="-2.8141125">
        <ele>219.138</ele>
        <time>2021-04-01T09:34:11.618Z</time>
      </trkpt>
      <trkpt lat="43.139831" lon="-2.8141118">
        <ele>219.07</ele>
        <time>2021-04-01T09:34:11.676Z</time>
      </trkpt>
      <trkpt lat="43.1398354" lon="-2.814111">
        <ele>219</ele>
        <time>2021-04-01T09:34:11.734Z</time>
      </trkpt>
      <trkpt lat="43.1398397" lon="-2.81411">
        <ele>218.936</ele>
        <time>2021-04-01T09:34:11.792Z</time>
      </trkpt>
      <trkpt lat="43.1398438" lon="-2.8141088">
        <ele>218.872</ele>
        <time>2021-04-01T09:34:11.850Z</time>
      </trkpt>
      <trkpt lat="43.139848" lon="-2.8141079">
        <ele>218.825</ele>
        <time>2021-04-01T09:34:11.909Z</time>
      </trkpt>
      <trkpt lat="43.1398526" lon="-2.8141071">
        <ele>218.82</ele>
        <time>2021-04-01T09:34:11.964Z</time>
      </trkpt>
      <trkpt lat="43.1398564" lon="-2.8141061">
        <ele>218.862</ele>
        <time>2021-04-01T09:34:12.019Z</time>
      </trkpt>
      <trkpt lat="43.1398604" lon="-2.8141042">
        <ele>218.781</ele>
        <time>2021-04-01T09:34:12.074Z</time>
      </trkpt>
      <trkpt lat="43.1398649" lon="-2.8141034">
        <ele>218.763</ele>
        <time>2021-04-01T09:34:12.129Z</time>
      </trkpt>
      <trkpt lat="43.1398693" lon="-2.8141026">
        <ele>218.712</ele>
        <time>2021-04-01T09:34:12.184Z</time>
      </trkpt>
      <trkpt lat="43.1398734" lon="-2.8141026">
        <ele>218.744</ele>
        <time>2021-04-01T09:34:12.239Z</time>
      </trkpt>
      <trkpt lat="43.139878" lon="-2.8141024">
        <ele>218.711</ele>
        <time>2021-04-01T09:34:12.294Z</time>
      </trkpt>
      <trkpt lat="43.1398826" lon="-2.8141021">
        <ele>218.697</ele>
        <time>2021-04-01T09:34:12.349Z</time>
      </trkpt>
      <trkpt lat="43.1398871" lon="-2.8141015">
        <ele>218.672</ele>
        <time>2021-04-01T09:34:12.404Z</time>
      </trkpt>
      <trkpt lat="43.139891" lon="-2.8141012">
        <ele>218.652</ele>
        <time>2021-04-01T09:34:12.459Z</time>
      </trkpt>
      <trkpt lat="43.1398954" lon="-2.8141008">
        <ele>218.639</ele>
        <time>2021-04-01T09:34:12.514Z</time>
      </trkpt>
      <trkpt lat="43.1398997" lon="-2.8141004">
        <ele>218.608</ele>
        <time>2021-04-01T09:34:12.569Z</time>
      </trkpt>
      <trkpt lat="43.1399043" lon="-2.8141002">
        <ele>218.615</ele>
        <time>2021-04-01T09:34:12.624Z</time>
      </trkpt>
      <trkpt lat="43.1399088" lon="-2.8140999">
        <ele>218.622</ele>
        <time>2021-04-01T09:34:12.679Z</time>
      </trkpt>
      <trkpt lat="43.1399129" lon="-2.8140994">
        <ele>218.567</ele>
        <time>2021-04-01T09:34:12.734Z</time>
      </trkpt>
      <trkpt lat="43.1399171" lon="-2.8140992">
        <ele>218.531</ele>
        <time>2021-04-01T09:34:12.789Z</time>
      </trkpt>
      <trkpt lat="43.1399211" lon="-2.8140988">
        <ele>218.481</ele>
        <time>2021-04-01T09:34:12.844Z</time>
      </trkpt>
      <trkpt lat="43.1399252" lon="-2.8140984">
        <ele>218.459</ele>
        <time>2021-04-01T09:34:12.899Z</time>
      </trkpt>
      <trkpt lat="43.1399297" lon="-2.8140982">
        <ele>218.433</ele>
        <time>2021-04-01T09:34:12.954Z</time>
      </trkpt>
      <trkpt lat="43.139934" lon="-2.8140978">
        <ele>218.384</ele>
        <time>2021-04-01T09:34:13.009Z</time>
      </trkpt>
      <trkpt lat="43.1399381" lon="-2.8140977">
        <ele>218.368</ele>
        <time>2021-04-01T09:34:13.064Z</time>
      </trkpt>
      <trkpt lat="43.1399422" lon="-2.8140975">
        <ele>218.353</ele>
        <time>2021-04-01T09:34:13.119Z</time>
      </trkpt>
      <trkpt lat="43.1399466" lon="-2.8140976">
        <ele>218.329</ele>
        <time>2021-04-01T09:34:13.174Z</time>
      </trkpt>
      <trkpt lat="43.1399507" lon="-2.8140972">
        <ele>218.263</ele>
        <time>2021-04-01T09:34:13.229Z</time>
      </trkpt>
      <trkpt lat="43.1399551" lon="-2.8140971">
        <ele>218.207</ele>
        <time>2021-04-01T09:34:13.284Z</time>
      </trkpt>
      <trkpt lat="43.1399596" lon="-2.814097">
        <ele>218.164</ele>
        <time>2021-04-01T09:34:13.339Z</time>
      </trkpt>
      <trkpt lat="43.139964" lon="-2.8140969">
        <ele>218.15</ele>
        <time>2021-04-01T09:34:13.394Z</time>
      </trkpt>
      <trkpt lat="43.1399683" lon="-2.8140968">
        <ele>218.12</ele>
        <time>2021-04-01T09:34:13.449Z</time>
      </trkpt>
      <trkpt lat="43.1399724" lon="-2.8140965">
        <ele>218.057</ele>
        <time>2021-04-01T09:34:13.504Z</time>
      </trkpt>
      <trkpt lat="43.139977" lon="-2.8140963">
        <ele>218.024</ele>
        <time>2021-04-01T09:34:13.559Z</time>
      </trkpt>
      <trkpt lat="43.1399808" lon="-2.8140959">
        <ele>217.924</ele>
        <time>2021-04-01T09:34:13.614Z</time>
      </trkpt>
      <trkpt lat="43.1399852" lon="-2.8140961">
        <ele>217.925</ele>
        <time>2021-04-01T09:34:13.669Z</time>
      </trkpt>
      <trkpt lat="43.1399897" lon="-2.8140966">
        <ele>217.94</ele>
        <time>2021-04-01T09:34:13.724Z</time>
      </trkpt>
      <trkpt lat="43.139994" lon="-2.8140967">
        <ele>217.91</ele>
        <time>2021-04-01T09:34:13.779Z</time>
      </trkpt>
      <trkpt lat="43.1399984" lon="-2.8140967">
        <ele>217.898</ele>
        <time>2021-04-01T09:34:13.834Z</time>
      </trkpt>
      <trkpt lat="43.1400027" lon="-2.8140964">
        <ele>217.839</ele>
        <time>2021-04-01T09:34:13.889Z</time>
      </trkpt>
      <trkpt lat="43.1400068" lon="-2.8140964">
        <ele>217.794</ele>
        <time>2021-04-01T09:34:13.944Z</time>
      </trkpt>
      <trkpt lat="43.1400112" lon="-2.8140964">
        <ele>217.768</ele>
        <time>2021-04-01T09:34:13.999Z</time>
      </trkpt>
      <trkpt lat="43.1400159" lon="-2.814097">
        <ele>217.772</ele>
        <time>2021-04-01T09:34:14.054Z</time>
      </trkpt>
      <trkpt lat="43.1400202" lon="-2.8140971">
        <ele>217.69</ele>
        <time>2021-04-01T09:34:14.109Z</time>
      </trkpt>
      <trkpt lat="43.1400243" lon="-2.8140969">
        <ele>217.633</ele>
        <time>2021-04-01T09:34:14.164Z</time>
      </trkpt>
      <trkpt lat="43.1400283" lon="-2.8140967">
        <ele>217.557</ele>
        <time>2021-04-01T09:34:14.219Z</time>
      </trkpt>
      <trkpt lat="43.1400324" lon="-2.8140966">
        <ele>217.499</ele>
        <time>2021-04-01T09:34:14.274Z</time>
      </trkpt>
      <trkpt lat="43.1400365" lon="-2.8140964">
        <ele>217.488</ele>
        <time>2021-04-01T09:34:14.329Z</time>
      </trkpt>
      <trkpt lat="43.1400409" lon="-2.8140964">
        <ele>217.453</ele>
        <time>2021-04-01T09:34:14.384Z</time>
      </trkpt>
      <trkpt lat="43.1400454" lon="-2.8140966">
        <ele>217.438</ele>
        <time>2021-04-01T09:34:14.439Z</time>
      </trkpt>
      <trkpt lat="43.1400497" lon="-2.8140967">
        <ele>217.408</ele>
        <time>2021-04-01T09:34:14.494Z</time>
      </trkpt>
      <trkpt lat="43.140054" lon="-2.8140967">
        <ele>217.397</ele>
        <time>2021-04-01T09:34:14.549Z</time>
      </trkpt>
      <trkpt lat="43.140058" lon="-2.8140963">
        <ele>217.398</ele>
        <time>2021-04-01T09:34:14.604Z</time>
      </trkpt>
      <trkpt lat="43.1400622" lon="-2.8140963">
        <ele>217.371</ele>
        <time>2021-04-01T09:34:14.659Z</time>
      </trkpt>
      <trkpt lat="43.1400664" lon="-2.8140963">
        <ele>217.346</ele>
        <time>2021-04-01T09:34:14.714Z</time>
      </trkpt>
      <trkpt lat="43.1400708" lon="-2.8140964">
        <ele>217.329</ele>
        <time>2021-04-01T09:34:14.769Z</time>
      </trkpt>
      <trkpt lat="43.1400755" lon="-2.814097">
        <ele>217.295</ele>
        <time>2021-04-01T09:34:14.824Z</time>
      </trkpt>
      <trkpt lat="43.14008" lon="-2.8140973">
        <ele>217.269</ele>
        <time>2021-04-01T09:34:14.879Z</time>
      </trkpt>
      <trkpt lat="43.1400844" lon="-2.8140975">
        <ele>217.232</ele>
        <time>2021-04-01T09:34:14.934Z</time>
      </trkpt>
      <trkpt lat="43.1400887" lon="-2.8140976">
        <ele>217.212</ele>
        <time>2021-04-01T09:34:14.989Z</time>
      </trkpt>
      <trkpt lat="43.1400931" lon="-2.8140977">
        <ele>217.218</ele>
        <time>2021-04-01T09:34:15.044Z</time>
      </trkpt>
      <trkpt lat="43.1400973" lon="-2.8140974">
        <ele>217.212</ele>
        <time>2021-04-01T09:34:15.099Z</time>
      </trkpt>
      <trkpt lat="43.140102" lon="-2.8140978">
        <ele>217.208</ele>
        <time>2021-04-01T09:34:15.154Z</time>
      </trkpt>
      <trkpt lat="43.1401067" lon="-2.8140979">
        <ele>217.257</ele>
        <time>2021-04-01T09:34:15.209Z</time>
      </trkpt>
      <trkpt lat="43.1401114" lon="-2.8140979">
        <ele>217.306</ele>
        <time>2021-04-01T09:34:15.264Z</time>
      </trkpt>
      <trkpt lat="43.1401157" lon="-2.814098">
        <ele>217.281</ele>
        <time>2021-04-01T09:34:15.319Z</time>
      </trkpt>
      <trkpt lat="43.1401197" lon="-2.8140979">
        <ele>217.238</ele>
        <time>2021-04-01T09:34:15.374Z</time>
      </trkpt>
      <trkpt lat="43.1401242" lon="-2.8140983">
        <ele>217.24</ele>
        <time>2021-04-01T09:34:15.429Z</time>
      </trkpt>
      <trkpt lat="43.140129" lon="-2.8140987">
        <ele>217.251</ele>
        <time>2021-04-01T09:34:15.484Z</time>
      </trkpt>
      <trkpt lat="43.1401337" lon="-2.8140989">
        <ele>217.231</ele>
        <time>2021-04-01T09:34:15.539Z</time>
      </trkpt>
      <trkpt lat="43.1401383" lon="-2.814099">
        <ele>217.227</ele>
        <time>2021-04-01T09:34:15.594Z</time>
      </trkpt>
      <trkpt lat="43.1401429" lon="-2.8140992">
        <ele>217.229</ele>
        <time>2021-04-01T09:34:15.649Z</time>
      </trkpt>
      <trkpt lat="43.1401476" lon="-2.8140994">
        <ele>217.232</ele>
        <time>2021-04-01T09:34:15.704Z</time>
      </trkpt>
      <trkpt lat="43.140152" lon="-2.8140996">
        <ele>217.206</ele>
        <time>2021-04-01T09:34:15.759Z</time>
      </trkpt>
      <trkpt lat="43.1401564" lon="-2.8140999">
        <ele>217.151</ele>
        <time>2021-04-01T09:34:15.814Z</time>
      </trkpt>
      <trkpt lat="43.140161" lon="-2.8141">
        <ele>217.093</ele>
        <time>2021-04-01T09:34:15.869Z</time>
      </trkpt>
      <trkpt lat="43.1401654" lon="-2.8141">
        <ele>217.071</ele>
        <time>2021-04-01T09:34:15.924Z</time>
      </trkpt>
      <trkpt lat="43.1401696" lon="-2.8141001">
        <ele>216.966</ele>
        <time>2021-04-01T09:34:15.979Z</time>
      </trkpt>
      <trkpt lat="43.140174" lon="-2.8141001">
        <ele>216.882</ele>
        <time>2021-04-01T09:34:16.034Z</time>
      </trkpt>
      <trkpt lat="43.1401785" lon="-2.8141002">
        <ele>216.787</ele>
        <time>2021-04-01T09:34:16.089Z</time>
      </trkpt>
      <trkpt lat="43.1401829" lon="-2.8141006">
        <ele>216.734</ele>
        <time>2021-04-01T09:34:16.144Z</time>
      </trkpt>
      <trkpt lat="43.140187" lon="-2.8141005">
        <ele>216.663</ele>
        <time>2021-04-01T09:34:16.199Z</time>
      </trkpt>
      <trkpt lat="43.1401913" lon="-2.8141009">
        <ele>216.607</ele>
        <time>2021-04-01T09:34:16.254Z</time>
      </trkpt>
      <trkpt lat="43.1401956" lon="-2.8141011">
        <ele>216.553</ele>
        <time>2021-04-01T09:34:16.309Z</time>
      </trkpt>
      <trkpt lat="43.1402002" lon="-2.8141012">
        <ele>216.535</ele>
        <time>2021-04-01T09:34:16.364Z</time>
      </trkpt>
      <trkpt lat="43.1402047" lon="-2.8141015">
        <ele>216.505</ele>
        <time>2021-04-01T09:34:16.419Z</time>
      </trkpt>
      <trkpt lat="43.1402096" lon="-2.8141018">
        <ele>216.559</ele>
        <time>2021-04-01T09:34:16.474Z</time>
      </trkpt>
      <trkpt lat="43.140214" lon="-2.814102">
        <ele>216.519</ele>
        <time>2021-04-01T09:34:16.529Z</time>
      </trkpt>
      <trkpt lat="43.1402187" lon="-2.8141021">
        <ele>216.564</ele>
        <time>2021-04-01T09:34:16.584Z</time>
      </trkpt>
      <trkpt lat="43.1402233" lon="-2.8141023">
        <ele>216.565</ele>
        <time>2021-04-01T09:34:16.639Z</time>
      </trkpt>
      <trkpt lat="43.1402281" lon="-2.8141026">
        <ele>216.565</ele>
        <time>2021-04-01T09:34:16.694Z</time>
      </trkpt>
      <trkpt lat="43.1402325" lon="-2.8141028">
        <ele>216.585</ele>
        <time>2021-04-01T09:34:16.749Z</time>
      </trkpt>
      <trkpt lat="43.140237" lon="-2.8141031">
        <ele>216.612</ele>
        <time>2021-04-01T09:34:16.804Z</time>
      </trkpt>
      <trkpt lat="43.1402416" lon="-2.8141035">
        <ele>216.611</ele>
        <time>2021-04-01T09:34:16.859Z</time>
      </trkpt>
      <trkpt lat="43.1402462" lon="-2.8141038">
        <ele>216.641</ele>
        <time>2021-04-01T09:34:16.914Z</time>
      </trkpt>
      <trkpt lat="43.1402508" lon="-2.8141041">
        <ele>216.647</ele>
        <time>2021-04-01T09:34:16.969Z</time>
      </trkpt>
      <trkpt lat="43.1402553" lon="-2.8141043">
        <ele>216.626</ele>
        <time>2021-04-01T09:34:17.024Z</time>
      </trkpt>
      <trkpt lat="43.1402595" lon="-2.8141043">
        <ele>216.568</ele>
        <time>2021-04-01T09:34:17.079Z</time>
      </trkpt>
      <trkpt lat="43.1402636" lon="-2.8141041">
        <ele>216.553</ele>
        <time>2021-04-01T09:34:17.134Z</time>
      </trkpt>
      <trkpt lat="43.140268" lon="-2.814104">
        <ele>216.531</ele>
        <time>2021-04-01T09:34:17.189Z</time>
      </trkpt>
      <trkpt lat="43.1402724" lon="-2.8141042">
        <ele>216.481</ele>
        <time>2021-04-01T09:34:17.244Z</time>
      </trkpt>
      <trkpt lat="43.140277" lon="-2.8141045">
        <ele>216.441</ele>
        <time>2021-04-01T09:34:17.299Z</time>
      </trkpt>
      <trkpt lat="43.1402813" lon="-2.8141047">
        <ele>216.443</ele>
        <time>2021-04-01T09:34:17.354Z</time>
      </trkpt>
      <trkpt lat="43.1402856" lon="-2.8141047">
        <ele>216.432</ele>
        <time>2021-04-01T09:34:17.409Z</time>
      </trkpt>
      <trkpt lat="43.1402902" lon="-2.8141047">
        <ele>216.432</ele>
        <time>2021-04-01T09:34:17.464Z</time>
      </trkpt>
      <trkpt lat="43.1402947" lon="-2.8141049">
        <ele>216.427</ele>
        <time>2021-04-01T09:34:17.519Z</time>
      </trkpt>
      <trkpt lat="43.1402991" lon="-2.8141049">
        <ele>216.38</ele>
        <time>2021-04-01T09:34:17.574Z</time>
      </trkpt>
      <trkpt lat="43.1403039" lon="-2.814105">
        <ele>216.393</ele>
        <time>2021-04-01T09:34:17.629Z</time>
      </trkpt>
      <trkpt lat="43.1403086" lon="-2.8141052">
        <ele>216.41</ele>
        <time>2021-04-01T09:34:17.684Z</time>
      </trkpt>
      <trkpt lat="43.1403131" lon="-2.8141051">
        <ele>216.416</ele>
        <time>2021-04-01T09:34:17.739Z</time>
      </trkpt>
      <trkpt lat="43.140318" lon="-2.8141054">
        <ele>216.436</ele>
        <time>2021-04-01T09:34:17.794Z</time>
      </trkpt>
      <trkpt lat="43.1403224" lon="-2.8141055">
        <ele>216.388</ele>
        <time>2021-04-01T09:34:17.849Z</time>
      </trkpt>
      <trkpt lat="43.1403269" lon="-2.8141055">
        <ele>216.378</ele>
        <time>2021-04-01T09:34:17.904Z</time>
      </trkpt>
      <trkpt lat="43.1403314" lon="-2.8141056">
        <ele>216.375</ele>
        <time>2021-04-01T09:34:17.959Z</time>
      </trkpt>
      <trkpt lat="43.1403361" lon="-2.8141058">
        <ele>216.376</ele>
        <time>2021-04-01T09:34:18.014Z</time>
      </trkpt>
      <trkpt lat="43.1403406" lon="-2.8141061">
        <ele>216.365</ele>
        <time>2021-04-01T09:34:18.069Z</time>
      </trkpt>
      <trkpt lat="43.1403452" lon="-2.8141063">
        <ele>216.36</ele>
        <time>2021-04-01T09:34:18.124Z</time>
      </trkpt>
      <trkpt lat="43.1403492" lon="-2.8141062">
        <ele>216.343</ele>
        <time>2021-04-01T09:34:18.179Z</time>
      </trkpt>
      <trkpt lat="43.1403538" lon="-2.8141063">
        <ele>216.344</ele>
        <time>2021-04-01T09:34:18.234Z</time>
      </trkpt>
      <trkpt lat="43.1403582" lon="-2.8141061">
        <ele>216.291</ele>
        <time>2021-04-01T09:34:18.289Z</time>
      </trkpt>
      <trkpt lat="43.1403628" lon="-2.8141063">
        <ele>216.307</ele>
        <time>2021-04-01T09:34:18.344Z</time>
      </trkpt>
      <trkpt lat="43.1403671" lon="-2.8141062">
        <ele>216.31</ele>
        <time>2021-04-01T09:34:18.399Z</time>
      </trkpt>
      <trkpt lat="43.140372" lon="-2.8141062">
        <ele>216.352</ele>
        <time>2021-04-01T09:34:18.454Z</time>
      </trkpt>
      <trkpt lat="43.1403765" lon="-2.814106">
        <ele>216.325</ele>
        <time>2021-04-01T09:34:18.509Z</time>
      </trkpt>
      <trkpt lat="43.1403809" lon="-2.8141059">
        <ele>216.316</ele>
        <time>2021-04-01T09:34:18.564Z</time>
      </trkpt>
      <trkpt lat="43.1403855" lon="-2.8141062">
        <ele>216.329</ele>
        <time>2021-04-01T09:34:18.619Z</time>
      </trkpt>
      <trkpt lat="43.1403899" lon="-2.8141064">
        <ele>216.315</ele>
        <time>2021-04-01T09:34:18.674Z</time>
      </trkpt>
      <trkpt lat="43.1403945" lon="-2.8141066">
        <ele>216.303</ele>
        <time>2021-04-01T09:34:18.729Z</time>
      </trkpt>
      <trkpt lat="43.1403993" lon="-2.8141071">
        <ele>216.336</ele>
        <time>2021-04-01T09:34:18.784Z</time>
      </trkpt>
      <trkpt lat="43.1404038" lon="-2.8141071">
        <ele>216.362</ele>
        <time>2021-04-01T09:34:18.839Z</time>
      </trkpt>
      <trkpt lat="43.140408" lon="-2.8141074">
        <ele>216.305</ele>
        <time>2021-04-01T09:34:18.894Z</time>
      </trkpt>
      <trkpt lat="43.1404128" lon="-2.8141079">
        <ele>216.306</ele>
        <time>2021-04-01T09:34:18.946Z</time>
      </trkpt>
      <trkpt lat="43.1404172" lon="-2.8141082">
        <ele>216.319</ele>
        <time>2021-04-01T09:34:18.998Z</time>
      </trkpt>
      <trkpt lat="43.1404218" lon="-2.8141086">
        <ele>216.333</ele>
        <time>2021-04-01T09:34:19.050Z</time>
      </trkpt>
      <trkpt lat="43.1404262" lon="-2.8141089">
        <ele>216.32</ele>
        <time>2021-04-01T09:34:19.102Z</time>
      </trkpt>
      <trkpt lat="43.1404306" lon="-2.8141091">
        <ele>216.318</ele>
        <time>2021-04-01T09:34:19.154Z</time>
      </trkpt>
      <trkpt lat="43.140435" lon="-2.8141094">
        <ele>216.319</ele>
        <time>2021-04-01T09:34:19.206Z</time>
      </trkpt>
      <trkpt lat="43.1404393" lon="-2.8141096">
        <ele>216.319</ele>
        <time>2021-04-01T09:34:19.258Z</time>
      </trkpt>
      <trkpt lat="43.1404437" lon="-2.8141099">
        <ele>216.312</ele>
        <time>2021-04-01T09:34:19.310Z</time>
      </trkpt>
      <trkpt lat="43.1404483" lon="-2.8141104">
        <ele>216.311</ele>
        <time>2021-04-01T09:34:19.362Z</time>
      </trkpt>
      <trkpt lat="43.1404529" lon="-2.8141107">
        <ele>216.334</ele>
        <time>2021-04-01T09:34:19.415Z</time>
      </trkpt>
      <trkpt lat="43.1404575" lon="-2.8141112">
        <ele>216.367</ele>
        <time>2021-04-01T09:34:19.467Z</time>
      </trkpt>
      <trkpt lat="43.1404619" lon="-2.8141116">
        <ele>216.388</ele>
        <time>2021-04-01T09:34:19.519Z</time>
      </trkpt>
      <trkpt lat="43.140466" lon="-2.8141119">
        <ele>216.364</ele>
        <time>2021-04-01T09:34:19.571Z</time>
      </trkpt>
      <trkpt lat="43.1404703" lon="-2.8141121">
        <ele>216.347</ele>
        <time>2021-04-01T09:34:19.623Z</time>
      </trkpt>
      <trkpt lat="43.1404746" lon="-2.8141123">
        <ele>216.354</ele>
        <time>2021-04-01T09:34:19.675Z</time>
      </trkpt>
      <trkpt lat="43.1404787" lon="-2.8141126">
        <ele>216.378</ele>
        <time>2021-04-01T09:34:19.727Z</time>
      </trkpt>
      <trkpt lat="43.1404829" lon="-2.8141127">
        <ele>216.428</ele>
        <time>2021-04-01T09:34:19.779Z</time>
      </trkpt>
      <trkpt lat="43.1404872" lon="-2.8141129">
        <ele>216.425</ele>
        <time>2021-04-01T09:34:19.831Z</time>
      </trkpt>
      <trkpt lat="43.1404914" lon="-2.814113">
        <ele>216.441</ele>
        <time>2021-04-01T09:34:19.884Z</time>
      </trkpt>
      <trkpt lat="43.1404961" lon="-2.8141131">
        <ele>216.532</ele>
        <time>2021-04-01T09:34:19.945Z</time>
      </trkpt>
      <trkpt lat="43.1405004" lon="-2.8141133">
        <ele>216.561</ele>
        <time>2021-04-01T09:34:20.006Z</time>
      </trkpt>
      <trkpt lat="43.1405048" lon="-2.8141135">
        <ele>216.584</ele>
        <time>2021-04-01T09:34:20.068Z</time>
      </trkpt>
      <trkpt lat="43.1405093" lon="-2.8141139">
        <ele>216.607</ele>
        <time>2021-04-01T09:34:20.129Z</time>
      </trkpt>
      <trkpt lat="43.1405134" lon="-2.8141138">
        <ele>216.621</ele>
        <time>2021-04-01T09:34:20.191Z</time>
      </trkpt>
      <trkpt lat="43.1405175" lon="-2.8141138">
        <ele>216.643</ele>
        <time>2021-04-01T09:34:20.252Z</time>
      </trkpt>
      <trkpt lat="43.1405219" lon="-2.8141141">
        <ele>216.663</ele>
        <time>2021-04-01T09:34:20.314Z</time>
      </trkpt>
      <trkpt lat="43.1405265" lon="-2.8141144">
        <ele>216.682</ele>
        <time>2021-04-01T09:34:20.375Z</time>
      </trkpt>
      <trkpt lat="43.1405308" lon="-2.8141145">
        <ele>216.721</ele>
        <time>2021-04-01T09:34:20.437Z</time>
      </trkpt>
      <trkpt lat="43.1405352" lon="-2.814115">
        <ele>216.805</ele>
        <time>2021-04-01T09:34:20.498Z</time>
      </trkpt>
      <trkpt lat="43.1405394" lon="-2.8141156">
        <ele>216.846</ele>
        <time>2021-04-01T09:34:20.560Z</time>
      </trkpt>
      <trkpt lat="43.1405435" lon="-2.814116">
        <ele>216.854</ele>
        <time>2021-04-01T09:34:20.621Z</time>
      </trkpt>
      <trkpt lat="43.1405476" lon="-2.8141164">
        <ele>216.87</ele>
        <time>2021-04-01T09:34:20.683Z</time>
      </trkpt>
      <trkpt lat="43.1405518" lon="-2.8141168">
        <ele>216.89</ele>
        <time>2021-04-01T09:34:20.744Z</time>
      </trkpt>
      <trkpt lat="43.1405558" lon="-2.8141173">
        <ele>216.884</ele>
        <time>2021-04-01T09:34:20.806Z</time>
      </trkpt>
      <trkpt lat="43.1405598" lon="-2.8141178">
        <ele>216.88</ele>
        <time>2021-04-01T09:34:20.867Z</time>
      </trkpt>
      <trkpt lat="43.1405637" lon="-2.814118">
        <ele>216.851</ele>
        <time>2021-04-01T09:34:20.929Z</time>
      </trkpt>
      <trkpt lat="43.1405675" lon="-2.8141184">
        <ele>216.841</ele>
        <time>2021-04-01T09:34:20.981Z</time>
      </trkpt>
      <trkpt lat="43.1405721" lon="-2.8141185">
        <ele>216.934</ele>
        <time>2021-04-01T09:34:21.033Z</time>
      </trkpt>
      <trkpt lat="43.1405763" lon="-2.8141189">
        <ele>216.944</ele>
        <time>2021-04-01T09:34:21.085Z</time>
      </trkpt>
      <trkpt lat="43.14058" lon="-2.8141196">
        <ele>216.914</ele>
        <time>2021-04-01T09:34:21.137Z</time>
      </trkpt>
      <trkpt lat="43.1405839" lon="-2.8141202">
        <ele>216.883</ele>
        <time>2021-04-01T09:34:21.189Z</time>
      </trkpt>
      <trkpt lat="43.1405878" lon="-2.8141209">
        <ele>216.871</ele>
        <time>2021-04-01T09:34:21.241Z</time>
      </trkpt>
      <trkpt lat="43.1405919" lon="-2.8141216">
        <ele>216.894</ele>
        <time>2021-04-01T09:34:21.293Z</time>
      </trkpt>
      <trkpt lat="43.140596" lon="-2.8141225">
        <ele>216.892</ele>
        <time>2021-04-01T09:34:21.345Z</time>
      </trkpt>
      <trkpt lat="43.1406" lon="-2.8141235">
        <ele>216.87</ele>
        <time>2021-04-01T09:34:21.397Z</time>
      </trkpt>
      <trkpt lat="43.1406037" lon="-2.8141244">
        <ele>216.837</ele>
        <time>2021-04-01T09:34:21.450Z</time>
      </trkpt>
      <trkpt lat="43.1406079" lon="-2.8141256">
        <ele>216.816</ele>
        <time>2021-04-01T09:34:21.502Z</time>
      </trkpt>
      <trkpt lat="43.140612" lon="-2.8141269">
        <ele>216.774</ele>
        <time>2021-04-01T09:34:21.554Z</time>
      </trkpt>
      <trkpt lat="43.140616" lon="-2.8141286">
        <ele>216.742</ele>
        <time>2021-04-01T09:34:21.606Z</time>
      </trkpt>
      <trkpt lat="43.1406199" lon="-2.8141301">
        <ele>216.705</ele>
        <time>2021-04-01T09:34:21.658Z</time>
      </trkpt>
      <trkpt lat="43.140624" lon="-2.8141317">
        <ele>216.687</ele>
        <time>2021-04-01T09:34:21.710Z</time>
      </trkpt>
      <trkpt lat="43.1406278" lon="-2.8141332">
        <ele>216.642</ele>
        <time>2021-04-01T09:34:21.762Z</time>
      </trkpt>
      <trkpt lat="43.1406316" lon="-2.8141346">
        <ele>216.609</ele>
        <time>2021-04-01T09:34:21.814Z</time>
      </trkpt>
      <trkpt lat="43.1406354" lon="-2.8141363">
        <ele>216.578</ele>
        <time>2021-04-01T09:34:21.866Z</time>
      </trkpt>
      <trkpt lat="43.1406392" lon="-2.8141379">
        <ele>216.585</ele>
        <time>2021-04-01T09:34:21.919Z</time>
      </trkpt>
      <trkpt lat="43.140643" lon="-2.8141395">
        <ele>216.594</ele>
        <time>2021-04-01T09:34:21.974Z</time>
      </trkpt>
      <trkpt lat="43.1406466" lon="-2.8141412">
        <ele>216.576</ele>
        <time>2021-04-01T09:34:22.029Z</time>
      </trkpt>
      <trkpt lat="43.1406503" lon="-2.8141431">
        <ele>216.559</ele>
        <time>2021-04-01T09:34:22.084Z</time>
      </trkpt>
      <trkpt lat="43.1406539" lon="-2.814145">
        <ele>216.525</ele>
        <time>2021-04-01T09:34:22.139Z</time>
      </trkpt>
      <trkpt lat="43.1406575" lon="-2.8141469">
        <ele>216.507</ele>
        <time>2021-04-01T09:34:22.194Z</time>
      </trkpt>
      <trkpt lat="43.1406611" lon="-2.814149">
        <ele>216.513</ele>
        <time>2021-04-01T09:34:22.249Z</time>
      </trkpt>
      <trkpt lat="43.1406646" lon="-2.8141511">
        <ele>216.498</ele>
        <time>2021-04-01T09:34:22.304Z</time>
      </trkpt>
      <trkpt lat="43.140668" lon="-2.8141532">
        <ele>216.466</ele>
        <time>2021-04-01T09:34:22.359Z</time>
      </trkpt>
      <trkpt lat="43.1406714" lon="-2.8141555">
        <ele>216.453</ele>
        <time>2021-04-01T09:34:22.414Z</time>
      </trkpt>
      <trkpt lat="43.1406749" lon="-2.8141578">
        <ele>216.452</ele>
        <time>2021-04-01T09:34:22.469Z</time>
      </trkpt>
      <trkpt lat="43.1406782" lon="-2.8141602">
        <ele>216.423</ele>
        <time>2021-04-01T09:34:22.524Z</time>
      </trkpt>
      <trkpt lat="43.1406816" lon="-2.8141628">
        <ele>216.374</ele>
        <time>2021-04-01T09:34:22.579Z</time>
      </trkpt>
      <trkpt lat="43.140685" lon="-2.8141652">
        <ele>216.359</ele>
        <time>2021-04-01T09:34:22.634Z</time>
      </trkpt>
      <trkpt lat="43.1406882" lon="-2.8141677">
        <ele>216.339</ele>
        <time>2021-04-01T09:34:22.689Z</time>
      </trkpt>
      <trkpt lat="43.1406914" lon="-2.8141703">
        <ele>216.312</ele>
        <time>2021-04-01T09:34:22.744Z</time>
      </trkpt>
      <trkpt lat="43.1406946" lon="-2.8141735">
        <ele>216.277</ele>
        <time>2021-04-01T09:34:22.799Z</time>
      </trkpt>
      <trkpt lat="43.1406977" lon="-2.8141765">
        <ele>216.263</ele>
        <time>2021-04-01T09:34:22.854Z</time>
      </trkpt>
      <trkpt lat="43.1407009" lon="-2.8141795">
        <ele>216.278</ele>
        <time>2021-04-01T09:34:22.909Z</time>
      </trkpt>
      <trkpt lat="43.1407041" lon="-2.8141824">
        <ele>216.269</ele>
        <time>2021-04-01T09:34:22.961Z</time>
      </trkpt>
      <trkpt lat="43.1407075" lon="-2.8141852">
        <ele>216.25</ele>
        <time>2021-04-01T09:34:23.013Z</time>
      </trkpt>
      <trkpt lat="43.1407107" lon="-2.814188">
        <ele>216.263</ele>
        <time>2021-04-01T09:34:23.065Z</time>
      </trkpt>
      <trkpt lat="43.1407139" lon="-2.8141911">
        <ele>216.272</ele>
        <time>2021-04-01T09:34:23.117Z</time>
      </trkpt>
      <trkpt lat="43.1407171" lon="-2.8141944">
        <ele>216.287</ele>
        <time>2021-04-01T09:34:23.169Z</time>
      </trkpt>
      <trkpt lat="43.1407202" lon="-2.8141976">
        <ele>216.268</ele>
        <time>2021-04-01T09:34:23.221Z</time>
      </trkpt>
      <trkpt lat="43.1407234" lon="-2.8142011">
        <ele>216.232</ele>
        <time>2021-04-01T09:34:23.273Z</time>
      </trkpt>
      <trkpt lat="43.1407263" lon="-2.8142045">
        <ele>216.212</ele>
        <time>2021-04-01T09:34:23.325Z</time>
      </trkpt>
      <trkpt lat="43.1407294" lon="-2.8142079">
        <ele>216.227</ele>
        <time>2021-04-01T09:34:23.377Z</time>
      </trkpt>
      <trkpt lat="43.1407325" lon="-2.8142111">
        <ele>216.241</ele>
        <time>2021-04-01T09:34:23.430Z</time>
      </trkpt>
      <trkpt lat="43.1407354" lon="-2.8142146">
        <ele>216.208</ele>
        <time>2021-04-01T09:34:23.482Z</time>
      </trkpt>
      <trkpt lat="43.1407383" lon="-2.8142179">
        <ele>216.136</ele>
        <time>2021-04-01T09:34:23.534Z</time>
      </trkpt>
      <trkpt lat="43.1407413" lon="-2.8142214">
        <ele>216.124</ele>
        <time>2021-04-01T09:34:23.586Z</time>
      </trkpt>
      <trkpt lat="43.1407442" lon="-2.8142251">
        <ele>216.13</ele>
        <time>2021-04-01T09:34:23.638Z</time>
      </trkpt>
      <trkpt lat="43.1407472" lon="-2.8142284">
        <ele>216.112</ele>
        <time>2021-04-01T09:34:23.690Z</time>
      </trkpt>
      <trkpt lat="43.1407498" lon="-2.8142323">
        <ele>216.089</ele>
        <time>2021-04-01T09:34:23.742Z</time>
      </trkpt>
      <trkpt lat="43.1407524" lon="-2.8142361">
        <ele>216.084</ele>
        <time>2021-04-01T09:34:23.794Z</time>
      </trkpt>
      <trkpt lat="43.140755" lon="-2.8142397">
        <ele>216.095</ele>
        <time>2021-04-01T09:34:23.846Z</time>
      </trkpt>
      <trkpt lat="43.1407575" lon="-2.8142438">
        <ele>216.093</ele>
        <time>2021-04-01T09:34:23.899Z</time>
      </trkpt>
      <trkpt lat="43.14076" lon="-2.8142478">
        <ele>216.09</ele>
        <time>2021-04-01T09:34:23.960Z</time>
      </trkpt>
      <trkpt lat="43.1407624" lon="-2.8142518">
        <ele>216.049</ele>
        <time>2021-04-01T09:34:24.021Z</time>
      </trkpt>
      <trkpt lat="43.1407648" lon="-2.8142561">
        <ele>216.034</ele>
        <time>2021-04-01T09:34:24.083Z</time>
      </trkpt>
      <trkpt lat="43.1407672" lon="-2.8142602">
        <ele>216.036</ele>
        <time>2021-04-01T09:34:24.144Z</time>
      </trkpt>
      <trkpt lat="43.1407694" lon="-2.8142645">
        <ele>216.04</ele>
        <time>2021-04-01T09:34:24.206Z</time>
      </trkpt>
      <trkpt lat="43.1407714" lon="-2.8142689">
        <ele>216.022</ele>
        <time>2021-04-01T09:34:24.267Z</time>
      </trkpt>
      <trkpt lat="43.1407734" lon="-2.8142734">
        <ele>216.018</ele>
        <time>2021-04-01T09:34:24.329Z</time>
      </trkpt>
      <trkpt lat="43.1407753" lon="-2.8142778">
        <ele>215.979</ele>
        <time>2021-04-01T09:34:24.390Z</time>
      </trkpt>
      <trkpt lat="43.140777" lon="-2.8142819">
        <ele>215.934</ele>
        <time>2021-04-01T09:34:24.452Z</time>
      </trkpt>
      <trkpt lat="43.1407786" lon="-2.8142866">
        <ele>215.919</ele>
        <time>2021-04-01T09:34:24.513Z</time>
      </trkpt>
      <trkpt lat="43.1407804" lon="-2.8142912">
        <ele>215.908</ele>
        <time>2021-04-01T09:34:24.575Z</time>
      </trkpt>
      <trkpt lat="43.1407822" lon="-2.8142963">
        <ele>215.917</ele>
        <time>2021-04-01T09:34:24.636Z</time>
      </trkpt>
      <trkpt lat="43.1407839" lon="-2.8143014">
        <ele>215.945</ele>
        <time>2021-04-01T09:34:24.698Z</time>
      </trkpt>
      <trkpt lat="43.1407857" lon="-2.8143061">
        <ele>215.961</ele>
        <time>2021-04-01T09:34:24.759Z</time>
      </trkpt>
      <trkpt lat="43.1407873" lon="-2.8143111">
        <ele>216.001</ele>
        <time>2021-04-01T09:34:24.821Z</time>
      </trkpt>
      <trkpt lat="43.1407887" lon="-2.8143159">
        <ele>216.005</ele>
        <time>2021-04-01T09:34:24.882Z</time>
      </trkpt>
      <trkpt lat="43.14079" lon="-2.8143208">
        <ele>215.998</ele>
        <time>2021-04-01T09:34:24.944Z</time>
      </trkpt>
      <trkpt lat="43.1407915" lon="-2.814326">
        <ele>216.037</ele>
        <time>2021-04-01T09:34:24.993Z</time>
      </trkpt>
      <trkpt lat="43.1407929" lon="-2.8143312">
        <ele>216.052</ele>
        <time>2021-04-01T09:34:25.042Z</time>
      </trkpt>
      <trkpt lat="43.140794" lon="-2.8143365">
        <ele>216.019</ele>
        <time>2021-04-01T09:34:25.091Z</time>
      </trkpt>
      <trkpt lat="43.1407951" lon="-2.8143415">
        <ele>216.02</ele>
        <time>2021-04-01T09:34:25.140Z</time>
      </trkpt>
      <trkpt lat="43.140796" lon="-2.8143467">
        <ele>216.005</ele>
        <time>2021-04-01T09:34:25.190Z</time>
      </trkpt>
      <trkpt lat="43.140797" lon="-2.814352">
        <ele>216.003</ele>
        <time>2021-04-01T09:34:25.239Z</time>
      </trkpt>
      <trkpt lat="43.1407978" lon="-2.8143575">
        <ele>216.015</ele>
        <time>2021-04-01T09:34:25.288Z</time>
      </trkpt>
      <trkpt lat="43.1407987" lon="-2.8143633">
        <ele>216.026</ele>
        <time>2021-04-01T09:34:25.337Z</time>
      </trkpt>
      <trkpt lat="43.1407996" lon="-2.814369">
        <ele>216.013</ele>
        <time>2021-04-01T09:34:25.386Z</time>
      </trkpt>
      <trkpt lat="43.1408002" lon="-2.8143745">
        <ele>216.023</ele>
        <time>2021-04-01T09:34:25.436Z</time>
      </trkpt>
      <trkpt lat="43.1408007" lon="-2.81438">
        <ele>216.033</ele>
        <time>2021-04-01T09:34:25.485Z</time>
      </trkpt>
      <trkpt lat="43.1408013" lon="-2.8143856">
        <ele>216.059</ele>
        <time>2021-04-01T09:34:25.534Z</time>
      </trkpt>
      <trkpt lat="43.1408017" lon="-2.8143912">
        <ele>216.058</ele>
        <time>2021-04-01T09:34:25.583Z</time>
      </trkpt>
      <trkpt lat="43.1408021" lon="-2.8143969">
        <ele>216.053</ele>
        <time>2021-04-01T09:34:25.632Z</time>
      </trkpt>
      <trkpt lat="43.1408023" lon="-2.8144024">
        <ele>216.041</ele>
        <time>2021-04-01T09:34:25.682Z</time>
      </trkpt>
      <trkpt lat="43.1408024" lon="-2.8144079">
        <ele>216.076</ele>
        <time>2021-04-01T09:34:25.731Z</time>
      </trkpt>
      <trkpt lat="43.1408028" lon="-2.8144135">
        <ele>216.125</ele>
        <time>2021-04-01T09:34:25.780Z</time>
      </trkpt>
      <trkpt lat="43.140803" lon="-2.8144193">
        <ele>216.143</ele>
        <time>2021-04-01T09:34:25.829Z</time>
      </trkpt>
      <trkpt lat="43.1408031" lon="-2.8144249">
        <ele>216.197</ele>
        <time>2021-04-01T09:34:25.879Z</time>
      </trkpt>
      <trkpt lat="43.1408031" lon="-2.8144306">
        <ele>216.216</ele>
        <time>2021-04-01T09:34:25.937Z</time>
      </trkpt>
      <trkpt lat="43.1408027" lon="-2.814436">
        <ele>216.213</ele>
        <time>2021-04-01T09:34:25.995Z</time>
      </trkpt>
      <trkpt lat="43.1408022" lon="-2.8144415">
        <ele>216.222</ele>
        <time>2021-04-01T09:34:26.053Z</time>
      </trkpt>
      <trkpt lat="43.1408017" lon="-2.8144474">
        <ele>216.222</ele>
        <time>2021-04-01T09:34:26.111Z</time>
      </trkpt>
      <trkpt lat="43.1408009" lon="-2.8144531">
        <ele>216.187</ele>
        <time>2021-04-01T09:34:26.169Z</time>
      </trkpt>
      <trkpt lat="43.1407999" lon="-2.8144585">
        <ele>216.135</ele>
        <time>2021-04-01T09:34:26.227Z</time>
      </trkpt>
      <trkpt lat="43.1407991" lon="-2.814464">
        <ele>216.123</ele>
        <time>2021-04-01T09:34:26.285Z</time>
      </trkpt>
      <trkpt lat="43.1407981" lon="-2.8144694">
        <ele>216.102</ele>
        <time>2021-04-01T09:34:26.343Z</time>
      </trkpt>
      <trkpt lat="43.1407972" lon="-2.8144749">
        <ele>216.081</ele>
        <time>2021-04-01T09:34:26.401Z</time>
      </trkpt>
      <trkpt lat="43.1407962" lon="-2.8144804">
        <ele>216.068</ele>
        <time>2021-04-01T09:34:26.459Z</time>
      </trkpt>
      <trkpt lat="43.1407949" lon="-2.8144857">
        <ele>216.027</ele>
        <time>2021-04-01T09:34:26.517Z</time>
      </trkpt>
      <trkpt lat="43.1407938" lon="-2.814491">
        <ele>215.992</ele>
        <time>2021-04-01T09:34:26.575Z</time>
      </trkpt>
      <trkpt lat="43.1407926" lon="-2.8144966">
        <ele>215.973</ele>
        <time>2021-04-01T09:34:26.633Z</time>
      </trkpt>
      <trkpt lat="43.140791" lon="-2.8145018">
        <ele>215.926</ele>
        <time>2021-04-01T09:34:26.691Z</time>
      </trkpt>
      <trkpt lat="43.1407895" lon="-2.8145067">
        <ele>215.91</ele>
        <time>2021-04-01T09:34:26.749Z</time>
      </trkpt>
      <trkpt lat="43.140788" lon="-2.8145119">
        <ele>215.91</ele>
        <time>2021-04-01T09:34:26.807Z</time>
      </trkpt>
      <trkpt lat="43.1407865" lon="-2.8145172">
        <ele>215.883</ele>
        <time>2021-04-01T09:34:26.865Z</time>
      </trkpt>
      <trkpt lat="43.140785" lon="-2.8145224">
        <ele>215.893</ele>
        <time>2021-04-01T09:34:26.924Z</time>
      </trkpt>
      <trkpt lat="43.1407839" lon="-2.8145281">
        <ele>215.978</ele>
        <time>2021-04-01T09:34:26.979Z</time>
      </trkpt>
      <trkpt lat="43.1407826" lon="-2.8145336">
        <ele>215.977</ele>
        <time>2021-04-01T09:34:27.034Z</time>
      </trkpt>
      <trkpt lat="43.140781" lon="-2.814539">
        <ele>216.008</ele>
        <time>2021-04-01T09:34:27.089Z</time>
      </trkpt>
      <trkpt lat="43.1407796" lon="-2.8145446">
        <ele>216.079</ele>
        <time>2021-04-01T09:34:27.144Z</time>
      </trkpt>
      <trkpt lat="43.1407781" lon="-2.8145496">
        <ele>216.115</ele>
        <time>2021-04-01T09:34:27.199Z</time>
      </trkpt>
      <trkpt lat="43.1407764" lon="-2.814555">
        <ele>216.143</ele>
        <time>2021-04-01T09:34:27.254Z</time>
      </trkpt>
      <trkpt lat="43.1407748" lon="-2.8145603">
        <ele>216.172</ele>
        <time>2021-04-01T09:34:27.309Z</time>
      </trkpt>
      <trkpt lat="43.140773" lon="-2.8145654">
        <ele>216.171</ele>
        <time>2021-04-01T09:34:27.364Z</time>
      </trkpt>
      <trkpt lat="43.1407713" lon="-2.8145706">
        <ele>216.235</ele>
        <time>2021-04-01T09:34:27.419Z</time>
      </trkpt>
      <trkpt lat="43.1407695" lon="-2.8145756">
        <ele>216.23</ele>
        <time>2021-04-01T09:34:27.474Z</time>
      </trkpt>
      <trkpt lat="43.1407675" lon="-2.8145807">
        <ele>216.248</ele>
        <time>2021-04-01T09:34:27.529Z</time>
      </trkpt>
      <trkpt lat="43.1407656" lon="-2.8145858">
        <ele>216.263</ele>
        <time>2021-04-01T09:34:27.584Z</time>
      </trkpt>
      <trkpt lat="43.1407637" lon="-2.8145908">
        <ele>216.279</ele>
        <time>2021-04-01T09:34:27.639Z</time>
      </trkpt>
      <trkpt lat="43.1407613" lon="-2.8145955">
        <ele>216.257</ele>
        <time>2021-04-01T09:34:27.694Z</time>
      </trkpt>
      <trkpt lat="43.1407591" lon="-2.8146003">
        <ele>216.247</ele>
        <time>2021-04-01T09:34:27.749Z</time>
      </trkpt>
      <trkpt lat="43.140757" lon="-2.8146054">
        <ele>216.265</ele>
        <time>2021-04-01T09:34:27.804Z</time>
      </trkpt>
      <trkpt lat="43.1407549" lon="-2.814611">
        <ele>216.301</ele>
        <time>2021-04-01T09:34:27.859Z</time>
      </trkpt>
      <trkpt lat="43.1407526" lon="-2.8146163">
        <ele>216.322</ele>
        <time>2021-04-01T09:34:27.914Z</time>
      </trkpt>
      <trkpt lat="43.1407505" lon="-2.8146217">
        <ele>216.346</ele>
        <time>2021-04-01T09:34:27.969Z</time>
      </trkpt>
      <trkpt lat="43.1407486" lon="-2.8146271">
        <ele>216.388</ele>
        <time>2021-04-01T09:34:28.024Z</time>
      </trkpt>
      <trkpt lat="43.1407465" lon="-2.8146326">
        <ele>216.446</ele>
        <time>2021-04-01T09:34:28.079Z</time>
      </trkpt>
      <trkpt lat="43.1407443" lon="-2.8146379">
        <ele>216.482</ele>
        <time>2021-04-01T09:34:28.134Z</time>
      </trkpt>
      <trkpt lat="43.1407418" lon="-2.8146432">
        <ele>216.502</ele>
        <time>2021-04-01T09:34:28.189Z</time>
      </trkpt>
      <trkpt lat="43.1407394" lon="-2.8146483">
        <ele>216.529</ele>
        <time>2021-04-01T09:34:28.244Z</time>
      </trkpt>
      <trkpt lat="43.1407373" lon="-2.8146535">
        <ele>216.542</ele>
        <time>2021-04-01T09:34:28.299Z</time>
      </trkpt>
      <trkpt lat="43.1407351" lon="-2.8146586">
        <ele>216.569</ele>
        <time>2021-04-01T09:34:28.354Z</time>
      </trkpt>
      <trkpt lat="43.1407327" lon="-2.8146637">
        <ele>216.597</ele>
        <time>2021-04-01T09:34:28.409Z</time>
      </trkpt>
      <trkpt lat="43.1407303" lon="-2.8146689">
        <ele>216.637</ele>
        <time>2021-04-01T09:34:28.464Z</time>
      </trkpt>
      <trkpt lat="43.1407278" lon="-2.8146738">
        <ele>216.646</ele>
        <time>2021-04-01T09:34:28.519Z</time>
      </trkpt>
      <trkpt lat="43.1407253" lon="-2.8146786">
        <ele>216.653</ele>
        <time>2021-04-01T09:34:28.574Z</time>
      </trkpt>
      <trkpt lat="43.1407226" lon="-2.8146836">
        <ele>216.676</ele>
        <time>2021-04-01T09:34:28.629Z</time>
      </trkpt>
      <trkpt lat="43.1407201" lon="-2.8146886">
        <ele>216.694</ele>
        <time>2021-04-01T09:34:28.684Z</time>
      </trkpt>
      <trkpt lat="43.1407176" lon="-2.814694">
        <ele>216.725</ele>
        <time>2021-04-01T09:34:28.739Z</time>
      </trkpt>
      <trkpt lat="43.1407153" lon="-2.814699">
        <ele>216.752</ele>
        <time>2021-04-01T09:34:28.794Z</time>
      </trkpt>
      <trkpt lat="43.1407127" lon="-2.814704">
        <ele>216.788</ele>
        <time>2021-04-01T09:34:28.849Z</time>
      </trkpt>
      <trkpt lat="43.1407101" lon="-2.814709">
        <ele>216.804</ele>
        <time>2021-04-01T09:34:28.904Z</time>
      </trkpt>
      <trkpt lat="43.1407076" lon="-2.8147145">
        <ele>216.843</ele>
        <time>2021-04-01T09:34:28.956Z</time>
      </trkpt>
      <trkpt lat="43.1407051" lon="-2.8147199">
        <ele>216.904</ele>
        <time>2021-04-01T09:34:29.008Z</time>
      </trkpt>
      <trkpt lat="43.1407027" lon="-2.8147252">
        <ele>216.933</ele>
        <time>2021-04-01T09:34:29.060Z</time>
      </trkpt>
      <trkpt lat="43.1407" lon="-2.8147304">
        <ele>216.953</ele>
        <time>2021-04-01T09:34:29.112Z</time>
      </trkpt>
      <trkpt lat="43.1406973" lon="-2.8147357">
        <ele>217.001</ele>
        <time>2021-04-01T09:34:29.164Z</time>
      </trkpt>
      <trkpt lat="43.1406948" lon="-2.8147409">
        <ele>217.043</ele>
        <time>2021-04-01T09:34:29.216Z</time>
      </trkpt>
      <trkpt lat="43.1406922" lon="-2.814746">
        <ele>217.085</ele>
        <time>2021-04-01T09:34:29.268Z</time>
      </trkpt>
      <trkpt lat="43.1406899" lon="-2.8147513">
        <ele>217.105</ele>
        <time>2021-04-01T09:34:29.320Z</time>
      </trkpt>
      <trkpt lat="43.1406874" lon="-2.8147565">
        <ele>217.116</ele>
        <time>2021-04-01T09:34:29.372Z</time>
      </trkpt>
      <trkpt lat="43.1406851" lon="-2.8147621">
        <ele>217.139</ele>
        <time>2021-04-01T09:34:29.425Z</time>
      </trkpt>
      <trkpt lat="43.1406829" lon="-2.8147681">
        <ele>217.207</ele>
        <time>2021-04-01T09:34:29.477Z</time>
      </trkpt>
      <trkpt lat="43.1406807" lon="-2.8147737">
        <ele>217.255</ele>
        <time>2021-04-01T09:34:29.529Z</time>
      </trkpt>
      <trkpt lat="43.1406786" lon="-2.8147796">
        <ele>217.259</ele>
        <time>2021-04-01T09:34:29.581Z</time>
      </trkpt>
      <trkpt lat="43.1406764" lon="-2.8147851">
        <ele>217.248</ele>
        <time>2021-04-01T09:34:29.633Z</time>
      </trkpt>
      <trkpt lat="43.1406742" lon="-2.8147907">
        <ele>217.259</ele>
        <time>2021-04-01T09:34:29.685Z</time>
      </trkpt>
      <trkpt lat="43.1406721" lon="-2.8147963">
        <ele>217.293</ele>
        <time>2021-04-01T09:34:29.737Z</time>
      </trkpt>
      <trkpt lat="43.14067" lon="-2.8148021">
        <ele>217.298</ele>
        <time>2021-04-01T09:34:29.789Z</time>
      </trkpt>
      <trkpt lat="43.140668" lon="-2.814808">
        <ele>217.319</ele>
        <time>2021-04-01T09:34:29.841Z</time>
      </trkpt>
      <trkpt lat="43.1406659" lon="-2.8148137">
        <ele>217.312</ele>
        <time>2021-04-01T09:34:29.894Z</time>
      </trkpt>
      <trkpt lat="43.1406642" lon="-2.81482">
        <ele>217.344</ele>
        <time>2021-04-01T09:34:29.952Z</time>
      </trkpt>
      <trkpt lat="43.1406624" lon="-2.8148261">
        <ele>217.335</ele>
        <time>2021-04-01T09:34:30.010Z</time>
      </trkpt>
      <trkpt lat="43.1406608" lon="-2.8148321">
        <ele>217.33</ele>
        <time>2021-04-01T09:34:30.068Z</time>
      </trkpt>
      <trkpt lat="43.1406592" lon="-2.8148383">
        <ele>217.335</ele>
        <time>2021-04-01T09:34:30.126Z</time>
      </trkpt>
      <trkpt lat="43.1406576" lon="-2.8148446">
        <ele>217.319</ele>
        <time>2021-04-01T09:34:30.184Z</time>
      </trkpt>
      <trkpt lat="43.1406562" lon="-2.8148506">
        <ele>217.314</ele>
        <time>2021-04-01T09:34:30.242Z</time>
      </trkpt>
      <trkpt lat="43.1406547" lon="-2.8148569">
        <ele>217.299</ele>
        <time>2021-04-01T09:34:30.300Z</time>
      </trkpt>
      <trkpt lat="43.1406536" lon="-2.8148632">
        <ele>217.284</ele>
        <time>2021-04-01T09:34:30.358Z</time>
      </trkpt>
      <trkpt lat="43.1406526" lon="-2.8148694">
        <ele>217.245</ele>
        <time>2021-04-01T09:34:30.416Z</time>
      </trkpt>
      <trkpt lat="43.1406515" lon="-2.8148756">
        <ele>217.214</ele>
        <time>2021-04-01T09:34:30.474Z</time>
      </trkpt>
      <trkpt lat="43.1406504" lon="-2.8148818">
        <ele>217.222</ele>
        <time>2021-04-01T09:34:30.532Z</time>
      </trkpt>
      <trkpt lat="43.1406494" lon="-2.8148879">
        <ele>217.23</ele>
        <time>2021-04-01T09:34:30.590Z</time>
      </trkpt>
      <trkpt lat="43.1406487" lon="-2.8148943">
        <ele>217.199</ele>
        <time>2021-04-01T09:34:30.648Z</time>
      </trkpt>
      <trkpt lat="43.140648" lon="-2.8149007">
        <ele>217.199</ele>
        <time>2021-04-01T09:34:30.706Z</time>
      </trkpt>
      <trkpt lat="43.1406472" lon="-2.8149074">
        <ele>217.218</ele>
        <time>2021-04-01T09:34:30.764Z</time>
      </trkpt>
      <trkpt lat="43.1406462" lon="-2.8149139">
        <ele>217.207</ele>
        <time>2021-04-01T09:34:30.822Z</time>
      </trkpt>
      <trkpt lat="43.1406457" lon="-2.8149204">
        <ele>217.217</ele>
        <time>2021-04-01T09:34:30.880Z</time>
      </trkpt>
      <trkpt lat="43.1406451" lon="-2.8149268">
        <ele>217.236</ele>
        <time>2021-04-01T09:34:30.939Z</time>
      </trkpt>
      <trkpt lat="43.1406446" lon="-2.8149331">
        <ele>217.23</ele>
        <time>2021-04-01T09:34:30.994Z</time>
      </trkpt>
      <trkpt lat="43.1406442" lon="-2.8149398">
        <ele>217.195</ele>
        <time>2021-04-01T09:34:31.049Z</time>
      </trkpt>
      <trkpt lat="43.1406442" lon="-2.8149465">
        <ele>217.165</ele>
        <time>2021-04-01T09:34:31.104Z</time>
      </trkpt>
      <trkpt lat="43.1406443" lon="-2.8149526">
        <ele>217.169</ele>
        <time>2021-04-01T09:34:31.159Z</time>
      </trkpt>
      <trkpt lat="43.1406444" lon="-2.8149587">
        <ele>217.133</ele>
        <time>2021-04-01T09:34:31.214Z</time>
      </trkpt>
      <trkpt lat="43.1406445" lon="-2.8149653">
        <ele>217.121</ele>
        <time>2021-04-01T09:34:31.269Z</time>
      </trkpt>
      <trkpt lat="43.1406449" lon="-2.8149719">
        <ele>217.114</ele>
        <time>2021-04-01T09:34:31.324Z</time>
      </trkpt>
      <trkpt lat="43.1406456" lon="-2.8149787">
        <ele>217.064</ele>
        <time>2021-04-01T09:34:31.379Z</time>
      </trkpt>
      <trkpt lat="43.1406462" lon="-2.8149858">
        <ele>217.087</ele>
        <time>2021-04-01T09:34:31.434Z</time>
      </trkpt>
      <trkpt lat="43.1406465" lon="-2.8149923">
        <ele>217.085</ele>
        <time>2021-04-01T09:34:31.489Z</time>
      </trkpt>
      <trkpt lat="43.140647" lon="-2.8149987">
        <ele>217.049</ele>
        <time>2021-04-01T09:34:31.544Z</time>
      </trkpt>
      <trkpt lat="43.1406477" lon="-2.8150053">
        <ele>217.04</ele>
        <time>2021-04-01T09:34:31.599Z</time>
      </trkpt>
      <trkpt lat="43.1406485" lon="-2.8150116">
        <ele>217.014</ele>
        <time>2021-04-01T09:34:31.654Z</time>
      </trkpt>
      <trkpt lat="43.1406493" lon="-2.8150182">
        <ele>217.043</ele>
        <time>2021-04-01T09:34:31.709Z</time>
      </trkpt>
      <trkpt lat="43.14065" lon="-2.8150242">
        <ele>217.057</ele>
        <time>2021-04-01T09:34:31.764Z</time>
      </trkpt>
      <trkpt lat="43.1406507" lon="-2.8150299">
        <ele>217.044</ele>
        <time>2021-04-01T09:34:31.819Z</time>
      </trkpt>
      <trkpt lat="43.1406519" lon="-2.8150365">
        <ele>216.981</ele>
        <time>2021-04-01T09:34:31.874Z</time>
      </trkpt>
      <trkpt lat="43.1406532" lon="-2.8150426">
        <ele>216.915</ele>
        <time>2021-04-01T09:34:31.929Z</time>
      </trkpt>
      <trkpt lat="43.1406542" lon="-2.8150486">
        <ele>216.899</ele>
        <time>2021-04-01T09:34:31.984Z</time>
      </trkpt>
      <trkpt lat="43.1406555" lon="-2.8150548">
        <ele>216.829</ele>
        <time>2021-04-01T09:34:32.039Z</time>
      </trkpt>
      <trkpt lat="43.1406565" lon="-2.8150611">
        <ele>216.776</ele>
        <time>2021-04-01T09:34:32.094Z</time>
      </trkpt>
      <trkpt lat="43.1406578" lon="-2.8150675">
        <ele>216.784</ele>
        <time>2021-04-01T09:34:32.149Z</time>
      </trkpt>
      <trkpt lat="43.1406591" lon="-2.8150738">
        <ele>216.781</ele>
        <time>2021-04-01T09:34:32.204Z</time>
      </trkpt>
      <trkpt lat="43.1406607" lon="-2.81508">
        <ele>216.795</ele>
        <time>2021-04-01T09:34:32.259Z</time>
      </trkpt>
      <trkpt lat="43.1406623" lon="-2.8150866">
        <ele>216.795</ele>
        <time>2021-04-01T09:34:32.314Z</time>
      </trkpt>
      <trkpt lat="43.1406641" lon="-2.8150934">
        <ele>216.831</ele>
        <time>2021-04-01T09:34:32.369Z</time>
      </trkpt>
      <trkpt lat="43.1406657" lon="-2.8150993">
        <ele>216.83</ele>
        <time>2021-04-01T09:34:32.424Z</time>
      </trkpt>
      <trkpt lat="43.1406677" lon="-2.8151053">
        <ele>216.815</ele>
        <time>2021-04-01T09:34:32.479Z</time>
      </trkpt>
      <trkpt lat="43.1406696" lon="-2.8151111">
        <ele>216.767</ele>
        <time>2021-04-01T09:34:32.534Z</time>
      </trkpt>
      <trkpt lat="43.1406717" lon="-2.8151171">
        <ele>216.736</ele>
        <time>2021-04-01T09:34:32.589Z</time>
      </trkpt>
      <trkpt lat="43.1406735" lon="-2.8151236">
        <ele>216.748</ele>
        <time>2021-04-01T09:34:32.644Z</time>
      </trkpt>
      <trkpt lat="43.1406757" lon="-2.8151295">
        <ele>216.752</ele>
        <time>2021-04-01T09:34:32.699Z</time>
      </trkpt>
      <trkpt lat="43.1406784" lon="-2.8151351">
        <ele>216.724</ele>
        <time>2021-04-01T09:34:32.754Z</time>
      </trkpt>
      <trkpt lat="43.1406806" lon="-2.8151412">
        <ele>216.694</ele>
        <time>2021-04-01T09:34:32.809Z</time>
      </trkpt>
      <trkpt lat="43.1406828" lon="-2.8151472">
        <ele>216.687</ele>
        <time>2021-04-01T09:34:32.864Z</time>
      </trkpt>
      <trkpt lat="43.1406852" lon="-2.8151531">
        <ele>216.684</ele>
        <time>2021-04-01T09:34:32.919Z</time>
      </trkpt>
      <trkpt lat="43.1406876" lon="-2.8151589">
        <ele>216.645</ele>
        <time>2021-04-01T09:34:32.971Z</time>
      </trkpt>
      <trkpt lat="43.1406901" lon="-2.8151647">
        <ele>216.613</ele>
        <time>2021-04-01T09:34:33.023Z</time>
      </trkpt>
      <trkpt lat="43.1406923" lon="-2.8151708">
        <ele>216.628</ele>
        <time>2021-04-01T09:34:33.075Z</time>
      </trkpt>
      <trkpt lat="43.1406951" lon="-2.8151764">
        <ele>216.601</ele>
        <time>2021-04-01T09:34:33.127Z</time>
      </trkpt>
      <trkpt lat="43.140698" lon="-2.8151822">
        <ele>216.602</ele>
        <time>2021-04-01T09:34:33.179Z</time>
      </trkpt>
      <trkpt lat="43.1407008" lon="-2.8151877">
        <ele>216.593</ele>
        <time>2021-04-01T09:34:33.231Z</time>
      </trkpt>
      <trkpt lat="43.1407037" lon="-2.8151931">
        <ele>216.559</ele>
        <time>2021-04-01T09:34:33.283Z</time>
      </trkpt>
      <trkpt lat="43.1407068" lon="-2.8151984">
        <ele>216.558</ele>
        <time>2021-04-01T09:34:33.335Z</time>
      </trkpt>
      <trkpt lat="43.1407096" lon="-2.8152041">
        <ele>216.563</ele>
        <time>2021-04-01T09:34:33.387Z</time>
      </trkpt>
      <trkpt lat="43.1407125" lon="-2.8152096">
        <ele>216.557</ele>
        <time>2021-04-01T09:34:33.440Z</time>
      </trkpt>
      <trkpt lat="43.140716" lon="-2.8152147">
        <ele>216.519</ele>
        <time>2021-04-01T09:34:33.492Z</time>
      </trkpt>
      <trkpt lat="43.1407192" lon="-2.81522">
        <ele>216.526</ele>
        <time>2021-04-01T09:34:33.544Z</time>
      </trkpt>
      <trkpt lat="43.1407222" lon="-2.8152252">
        <ele>216.564</ele>
        <time>2021-04-01T09:34:33.596Z</time>
      </trkpt>
      <trkpt lat="43.1407252" lon="-2.8152304">
        <ele>216.595</ele>
        <time>2021-04-01T09:34:33.648Z</time>
      </trkpt>
      <trkpt lat="43.1407285" lon="-2.8152353">
        <ele>216.582</ele>
        <time>2021-04-01T09:34:33.700Z</time>
      </trkpt>
      <trkpt lat="43.140732" lon="-2.8152401">
        <ele>216.548</ele>
        <time>2021-04-01T09:34:33.752Z</time>
      </trkpt>
      <trkpt lat="43.1407357" lon="-2.8152449">
        <ele>216.491</ele>
        <time>2021-04-01T09:34:33.804Z</time>
      </trkpt>
      <trkpt lat="43.1407392" lon="-2.8152495">
        <ele>216.478</ele>
        <time>2021-04-01T09:34:33.856Z</time>
      </trkpt>
      <trkpt lat="43.1407429" lon="-2.8152541">
        <ele>216.486</ele>
        <time>2021-04-01T09:34:33.909Z</time>
      </trkpt>
      <trkpt lat="43.1407467" lon="-2.8152585">
        <ele>216.473</ele>
        <time>2021-04-01T09:34:33.967Z</time>
      </trkpt>
      <trkpt lat="43.1407503" lon="-2.8152631">
        <ele>216.458</ele>
        <time>2021-04-01T09:34:34.025Z</time>
      </trkpt>
      <trkpt lat="43.140754" lon="-2.8152675">
        <ele>216.42</ele>
        <time>2021-04-01T09:34:34.083Z</time>
      </trkpt>
      <trkpt lat="43.1407578" lon="-2.815272">
        <ele>216.402</ele>
        <time>2021-04-01T09:34:34.141Z</time>
      </trkpt>
      <trkpt lat="43.1407619" lon="-2.8152763">
        <ele>216.413</ele>
        <time>2021-04-01T09:34:34.200Z</time>
      </trkpt>
      <trkpt lat="43.1407659" lon="-2.8152805">
        <ele>216.404</ele>
        <time>2021-04-01T09:34:34.258Z</time>
      </trkpt>
      <trkpt lat="43.1407698" lon="-2.8152844">
        <ele>216.366</ele>
        <time>2021-04-01T09:34:34.316Z</time>
      </trkpt>
      <trkpt lat="43.140774" lon="-2.8152885">
        <ele>216.362</ele>
        <time>2021-04-01T09:34:34.374Z</time>
      </trkpt>
      <trkpt lat="43.1407781" lon="-2.8152924">
        <ele>216.353</ele>
        <time>2021-04-01T09:34:34.433Z</time>
      </trkpt>
      <trkpt lat="43.1407822" lon="-2.8152958">
        <ele>216.316</ele>
        <time>2021-04-01T09:34:34.491Z</time>
      </trkpt>
      <trkpt lat="43.1407863" lon="-2.8152995">
        <ele>216.27</ele>
        <time>2021-04-01T09:34:34.549Z</time>
      </trkpt>
      <trkpt lat="43.1407904" lon="-2.8153029">
        <ele>216.204</ele>
        <time>2021-04-01T09:34:34.607Z</time>
      </trkpt>
      <trkpt lat="43.1407947" lon="-2.8153062">
        <ele>216.134</ele>
        <time>2021-04-01T09:34:34.666Z</time>
      </trkpt>
      <trkpt lat="43.1407991" lon="-2.8153098">
        <ele>216.123</ele>
        <time>2021-04-01T09:34:34.724Z</time>
      </trkpt>
      <trkpt lat="43.1408032" lon="-2.815313">
        <ele>216.079</ele>
        <time>2021-04-01T09:34:34.782Z</time>
      </trkpt>
      <trkpt lat="43.1408075" lon="-2.8153165">
        <ele>216.067</ele>
        <time>2021-04-01T09:34:34.840Z</time>
      </trkpt>
      <trkpt lat="43.1408117" lon="-2.8153196">
        <ele>216.006</ele>
        <time>2021-04-01T09:34:34.899Z</time>
      </trkpt>
      <trkpt lat="43.1408162" lon="-2.815323">
        <ele>215.955</ele>
        <time>2021-04-01T09:34:34.951Z</time>
      </trkpt>
      <trkpt lat="43.1408205" lon="-2.8153263">
        <ele>215.907</ele>
        <time>2021-04-01T09:34:35.003Z</time>
      </trkpt>
      <trkpt lat="43.1408249" lon="-2.8153295">
        <ele>215.861</ele>
        <time>2021-04-01T09:34:35.055Z</time>
      </trkpt>
      <trkpt lat="43.1408292" lon="-2.8153327">
        <ele>215.833</ele>
        <time>2021-04-01T09:34:35.107Z</time>
      </trkpt>
      <trkpt lat="43.1408335" lon="-2.8153358">
        <ele>215.806</ele>
        <time>2021-04-01T09:34:35.159Z</time>
      </trkpt>
      <trkpt lat="43.140838" lon="-2.8153388">
        <ele>215.761</ele>
        <time>2021-04-01T09:34:35.211Z</time>
      </trkpt>
      <trkpt lat="43.1408425" lon="-2.8153419">
        <ele>215.735</ele>
        <time>2021-04-01T09:34:35.263Z</time>
      </trkpt>
      <trkpt lat="43.1408469" lon="-2.8153449">
        <ele>215.71</ele>
        <time>2021-04-01T09:34:35.315Z</time>
      </trkpt>
      <trkpt lat="43.1408513" lon="-2.8153478">
        <ele>215.702</ele>
        <time>2021-04-01T09:34:35.367Z</time>
      </trkpt>
      <trkpt lat="43.1408558" lon="-2.8153508">
        <ele>215.664</ele>
        <time>2021-04-01T09:34:35.420Z</time>
      </trkpt>
      <trkpt lat="43.1408602" lon="-2.8153535">
        <ele>215.671</ele>
        <time>2021-04-01T09:34:35.472Z</time>
      </trkpt>
      <trkpt lat="43.1408648" lon="-2.8153563">
        <ele>215.683</ele>
        <time>2021-04-01T09:34:35.524Z</time>
      </trkpt>
      <trkpt lat="43.1408694" lon="-2.8153589">
        <ele>215.662</ele>
        <time>2021-04-01T09:34:35.576Z</time>
      </trkpt>
      <trkpt lat="43.1408738" lon="-2.8153615">
        <ele>215.628</ele>
        <time>2021-04-01T09:34:35.628Z</time>
      </trkpt>
      <trkpt lat="43.1408782" lon="-2.815364">
        <ele>215.588</ele>
        <time>2021-04-01T09:34:35.680Z</time>
      </trkpt>
      <trkpt lat="43.1408823" lon="-2.8153663">
        <ele>215.548</ele>
        <time>2021-04-01T09:34:35.732Z</time>
      </trkpt>
      <trkpt lat="43.1408865" lon="-2.815369">
        <ele>215.538</ele>
        <time>2021-04-01T09:34:35.784Z</time>
      </trkpt>
      <trkpt lat="43.1408908" lon="-2.8153715">
        <ele>215.539</ele>
        <time>2021-04-01T09:34:35.836Z</time>
      </trkpt>
      <trkpt lat="43.140895" lon="-2.8153737">
        <ele>215.506</ele>
        <time>2021-04-01T09:34:35.889Z</time>
      </trkpt>
      <trkpt lat="43.1408993" lon="-2.8153762">
        <ele>215.478</ele>
        <time>2021-04-01T09:34:35.947Z</time>
      </trkpt>
      <trkpt lat="43.1409036" lon="-2.8153786">
        <ele>215.45</ele>
        <time>2021-04-01T09:34:36.005Z</time>
      </trkpt>
      <trkpt lat="43.1409077" lon="-2.8153809">
        <ele>215.43</ele>
        <time>2021-04-01T09:34:36.063Z</time>
      </trkpt>
      <trkpt lat="43.1409117" lon="-2.8153834">
        <ele>215.404</ele>
        <time>2021-04-01T09:34:36.121Z</time>
      </trkpt>
      <trkpt lat="43.1409157" lon="-2.8153859">
        <ele>215.37</ele>
        <time>2021-04-01T09:34:36.179Z</time>
      </trkpt>
      <trkpt lat="43.1409196" lon="-2.8153885">
        <ele>215.353</ele>
        <time>2021-04-01T09:34:36.237Z</time>
      </trkpt>
      <trkpt lat="43.1409234" lon="-2.8153911">
        <ele>215.341</ele>
        <time>2021-04-01T09:34:36.295Z</time>
      </trkpt>
      <trkpt lat="43.1409274" lon="-2.8153936">
        <ele>215.335</ele>
        <time>2021-04-01T09:34:36.353Z</time>
      </trkpt>
      <trkpt lat="43.1409313" lon="-2.815396">
        <ele>215.331</ele>
        <time>2021-04-01T09:34:36.411Z</time>
      </trkpt>
      <trkpt lat="43.1409349" lon="-2.8153983">
        <ele>215.313</ele>
        <time>2021-04-01T09:34:36.469Z</time>
      </trkpt>
      <trkpt lat="43.1409385" lon="-2.8154007">
        <ele>215.269</ele>
        <time>2021-04-01T09:34:36.527Z</time>
      </trkpt>
      <trkpt lat="43.1409424" lon="-2.8154032">
        <ele>215.252</ele>
        <time>2021-04-01T09:34:36.585Z</time>
      </trkpt>
      <trkpt lat="43.140946" lon="-2.8154053">
        <ele>215.209</ele>
        <time>2021-04-01T09:34:36.643Z</time>
      </trkpt>
      <trkpt lat="43.1409498" lon="-2.8154077">
        <ele>215.222</ele>
        <time>2021-04-01T09:34:36.701Z</time>
      </trkpt>
      <trkpt lat="43.1409536" lon="-2.8154102">
        <ele>215.235</ele>
        <time>2021-04-01T09:34:36.759Z</time>
      </trkpt>
      <trkpt lat="43.1409574" lon="-2.8154126">
        <ele>215.214</ele>
        <time>2021-04-01T09:34:36.817Z</time>
      </trkpt>
      <trkpt lat="43.1409611" lon="-2.815415">
        <ele>215.213</ele>
        <time>2021-04-01T09:34:36.875Z</time>
      </trkpt>
      <trkpt lat="43.1409647" lon="-2.8154178">
        <ele>215.231</ele>
        <time>2021-04-01T09:34:36.934Z</time>
      </trkpt>
      <trkpt lat="43.1409684" lon="-2.8154206">
        <ele>215.213</ele>
        <time>2021-04-01T09:34:36.989Z</time>
      </trkpt>
      <trkpt lat="43.1409717" lon="-2.8154238">
        <ele>215.192</ele>
        <time>2021-04-01T09:34:37.044Z</time>
      </trkpt>
      <trkpt lat="43.140975" lon="-2.8154265">
        <ele>215.173</ele>
        <time>2021-04-01T09:34:37.099Z</time>
      </trkpt>
      <trkpt lat="43.1409785" lon="-2.8154294">
        <ele>215.178</ele>
        <time>2021-04-01T09:34:37.154Z</time>
      </trkpt>
      <trkpt lat="43.140982" lon="-2.8154325">
        <ele>215.186</ele>
        <time>2021-04-01T09:34:37.209Z</time>
      </trkpt>
      <trkpt lat="43.1409851" lon="-2.8154359">
        <ele>215.183</ele>
        <time>2021-04-01T09:34:37.264Z</time>
      </trkpt>
      <trkpt lat="43.1409883" lon="-2.8154389">
        <ele>215.156</ele>
        <time>2021-04-01T09:34:37.319Z</time>
      </trkpt>
      <trkpt lat="43.1409916" lon="-2.8154418">
        <ele>215.138</ele>
        <time>2021-04-01T09:34:37.374Z</time>
      </trkpt>
      <trkpt lat="43.1409949" lon="-2.8154452">
        <ele>215.162</ele>
        <time>2021-04-01T09:34:37.429Z</time>
      </trkpt>
      <trkpt lat="43.140998" lon="-2.8154486">
        <ele>215.149</ele>
        <time>2021-04-01T09:34:37.484Z</time>
      </trkpt>
      <trkpt lat="43.141001" lon="-2.8154522">
        <ele>215.143</ele>
        <time>2021-04-01T09:34:37.539Z</time>
      </trkpt>
      <trkpt lat="43.1410039" lon="-2.8154556">
        <ele>215.139</ele>
        <time>2021-04-01T09:34:37.594Z</time>
      </trkpt>
      <trkpt lat="43.1410067" lon="-2.8154592">
        <ele>215.113</ele>
        <time>2021-04-01T09:34:37.649Z</time>
      </trkpt>
      <trkpt lat="43.1410095" lon="-2.8154628">
        <ele>215.095</ele>
        <time>2021-04-01T09:34:37.704Z</time>
      </trkpt>
      <trkpt lat="43.1410123" lon="-2.8154671">
        <ele>215.11</ele>
        <time>2021-04-01T09:34:37.759Z</time>
      </trkpt>
      <trkpt lat="43.1410149" lon="-2.815471">
        <ele>215.073</ele>
        <time>2021-04-01T09:34:37.814Z</time>
      </trkpt>
      <trkpt lat="43.1410176" lon="-2.815475">
        <ele>215.072</ele>
        <time>2021-04-01T09:34:37.869Z</time>
      </trkpt>
      <trkpt lat="43.1410201" lon="-2.8154791">
        <ele>215.092</ele>
        <time>2021-04-01T09:34:37.924Z</time>
      </trkpt>
      <trkpt lat="43.1410225" lon="-2.815483">
        <ele>215.087</ele>
        <time>2021-04-01T09:34:37.976Z</time>
      </trkpt>
      <trkpt lat="43.1410251" lon="-2.8154873">
        <ele>215.092</ele>
        <time>2021-04-01T09:34:38.028Z</time>
      </trkpt>
      <trkpt lat="43.1410275" lon="-2.8154914">
        <ele>215.066</ele>
        <time>2021-04-01T09:34:38.080Z</time>
      </trkpt>
      <trkpt lat="43.14103" lon="-2.8154956">
        <ele>215.04</ele>
        <time>2021-04-01T09:34:38.132Z</time>
      </trkpt>
      <trkpt lat="43.1410325" lon="-2.8154997">
        <ele>214.986</ele>
        <time>2021-04-01T09:34:38.184Z</time>
      </trkpt>
      <trkpt lat="43.141035" lon="-2.815504">
        <ele>214.978</ele>
        <time>2021-04-01T09:34:38.236Z</time>
      </trkpt>
      <trkpt lat="43.1410374" lon="-2.8155084">
        <ele>214.954</ele>
        <time>2021-04-01T09:34:38.288Z</time>
      </trkpt>
      <trkpt lat="43.1410397" lon="-2.8155129">
        <ele>214.914</ele>
        <time>2021-04-01T09:34:38.340Z</time>
      </trkpt>
      <trkpt lat="43.1410421" lon="-2.8155174">
        <ele>214.884</ele>
        <time>2021-04-01T09:34:38.392Z</time>
      </trkpt>
      <trkpt lat="43.1410442" lon="-2.8155219">
        <ele>214.856</ele>
        <time>2021-04-01T09:34:38.445Z</time>
      </trkpt>
      <trkpt lat="43.1410463" lon="-2.8155264">
        <ele>214.83</ele>
        <time>2021-04-01T09:34:38.497Z</time>
      </trkpt>
      <trkpt lat="43.1410484" lon="-2.815531">
        <ele>214.817</ele>
        <time>2021-04-01T09:34:38.549Z</time>
      </trkpt>
      <trkpt lat="43.1410504" lon="-2.815536">
        <ele>214.768</ele>
        <time>2021-04-01T09:34:38.601Z</time>
      </trkpt>
      <trkpt lat="43.1410522" lon="-2.8155409">
        <ele>214.751</ele>
        <time>2021-04-01T09:34:38.653Z</time>
      </trkpt>
      <trkpt lat="43.1410539" lon="-2.8155456">
        <ele>214.706</ele>
        <time>2021-04-01T09:34:38.705Z</time>
      </trkpt>
      <trkpt lat="43.1410557" lon="-2.8155504">
        <ele>214.657</ele>
        <time>2021-04-01T09:34:38.757Z</time>
      </trkpt>
      <trkpt lat="43.1410574" lon="-2.8155554">
        <ele>214.636</ele>
        <time>2021-04-01T09:34:38.809Z</time>
      </trkpt>
      <trkpt lat="43.1410589" lon="-2.8155603">
        <ele>214.599</ele>
        <time>2021-04-01T09:34:38.861Z</time>
      </trkpt>
      <trkpt lat="43.1410605" lon="-2.8155655">
        <ele>214.56</ele>
        <time>2021-04-01T09:34:38.914Z</time>
      </trkpt>
      <trkpt lat="43.141062" lon="-2.8155705">
        <ele>214.533</ele>
        <time>2021-04-01T09:34:38.972Z</time>
      </trkpt>
      <trkpt lat="43.1410634" lon="-2.8155755">
        <ele>214.515</ele>
        <time>2021-04-01T09:34:39.030Z</time>
      </trkpt>
      <trkpt lat="43.1410647" lon="-2.8155807">
        <ele>214.501</ele>
        <time>2021-04-01T09:34:39.088Z</time>
      </trkpt>
      <trkpt lat="43.1410659" lon="-2.8155858">
        <ele>214.515</ele>
        <time>2021-04-01T09:34:39.146Z</time>
      </trkpt>
      <trkpt lat="43.1410668" lon="-2.815591">
        <ele>214.451</ele>
        <time>2021-04-01T09:34:39.205Z</time>
      </trkpt>
      <trkpt lat="43.1410679" lon="-2.8155965">
        <ele>214.447</ele>
        <time>2021-04-01T09:34:39.263Z</time>
      </trkpt>
      <trkpt lat="43.1410685" lon="-2.8156017">
        <ele>214.415</ele>
        <time>2021-04-01T09:34:39.321Z</time>
      </trkpt>
      <trkpt lat="43.1410693" lon="-2.815607">
        <ele>214.398</ele>
        <time>2021-04-01T09:34:39.379Z</time>
      </trkpt>
      <trkpt lat="43.14107" lon="-2.8156125">
        <ele>214.375</ele>
        <time>2021-04-01T09:34:39.438Z</time>
      </trkpt>
      <trkpt lat="43.1410705" lon="-2.815618">
        <ele>214.349</ele>
        <time>2021-04-01T09:34:39.496Z</time>
      </trkpt>
      <trkpt lat="43.1410709" lon="-2.8156234">
        <ele>214.344</ele>
        <time>2021-04-01T09:34:39.554Z</time>
      </trkpt>
      <trkpt lat="43.141071" lon="-2.8156289">
        <ele>214.282</ele>
        <time>2021-04-01T09:34:39.612Z</time>
      </trkpt>
      <trkpt lat="43.1410712" lon="-2.8156344">
        <ele>214.239</ele>
        <time>2021-04-01T09:34:39.671Z</time>
      </trkpt>
      <trkpt lat="43.1410713" lon="-2.8156403">
        <ele>214.225</ele>
        <time>2021-04-01T09:34:39.729Z</time>
      </trkpt>
      <trkpt lat="43.1410711" lon="-2.8156459">
        <ele>214.178</ele>
        <time>2021-04-01T09:34:39.787Z</time>
      </trkpt>
      <trkpt lat="43.141071" lon="-2.8156516">
        <ele>214.146</ele>
        <time>2021-04-01T09:34:39.845Z</time>
      </trkpt>
      <trkpt lat="43.1410706" lon="-2.8156572">
        <ele>214.097</ele>
        <time>2021-04-01T09:34:39.904Z</time>
      </trkpt>
      <trkpt lat="43.1410703" lon="-2.8156629">
        <ele>214.09</ele>
        <time>2021-04-01T09:34:39.959Z</time>
      </trkpt>
      <trkpt lat="43.1410701" lon="-2.8156689">
        <ele>214.072</ele>
        <time>2021-04-01T09:34:40.014Z</time>
      </trkpt>
      <trkpt lat="43.1410695" lon="-2.8156746">
        <ele>214.007</ele>
        <time>2021-04-01T09:34:40.069Z</time>
      </trkpt>
      <trkpt lat="43.1410689" lon="-2.8156803">
        <ele>213.987</ele>
        <time>2021-04-01T09:34:40.124Z</time>
      </trkpt>
      <trkpt lat="43.1410683" lon="-2.815686">
        <ele>213.989</ele>
        <time>2021-04-01T09:34:40.179Z</time>
      </trkpt>
      <trkpt lat="43.1410675" lon="-2.8156915">
        <ele>213.958</ele>
        <time>2021-04-01T09:34:40.234Z</time>
      </trkpt>
      <trkpt lat="43.1410666" lon="-2.8156972">
        <ele>213.931</ele>
        <time>2021-04-01T09:34:40.289Z</time>
      </trkpt>
      <trkpt lat="43.1410656" lon="-2.8157029">
        <ele>213.892</ele>
        <time>2021-04-01T09:34:40.344Z</time>
      </trkpt>
      <trkpt lat="43.1410648" lon="-2.8157085">
        <ele>213.875</ele>
        <time>2021-04-01T09:34:40.399Z</time>
      </trkpt>
      <trkpt lat="43.1410633" lon="-2.8157137">
        <ele>213.819</ele>
        <time>2021-04-01T09:34:40.454Z</time>
      </trkpt>
      <trkpt lat="43.1410622" lon="-2.8157192">
        <ele>213.793</ele>
        <time>2021-04-01T09:34:40.509Z</time>
      </trkpt>
      <trkpt lat="43.1410607" lon="-2.8157246">
        <ele>213.773</ele>
        <time>2021-04-01T09:34:40.564Z</time>
      </trkpt>
      <trkpt lat="43.1410598" lon="-2.8157303">
        <ele>213.758</ele>
        <time>2021-04-01T09:34:40.619Z</time>
      </trkpt>
      <trkpt lat="43.1410588" lon="-2.8157359">
        <ele>213.732</ele>
        <time>2021-04-01T09:34:40.674Z</time>
      </trkpt>
      <trkpt lat="43.1410576" lon="-2.8157415">
        <ele>213.733</ele>
        <time>2021-04-01T09:34:40.729Z</time>
      </trkpt>
      <trkpt lat="43.1410561" lon="-2.815747">
        <ele>213.728</ele>
        <time>2021-04-01T09:34:40.784Z</time>
      </trkpt>
      <trkpt lat="43.1410548" lon="-2.8157526">
        <ele>213.715</ele>
        <time>2021-04-01T09:34:40.839Z</time>
      </trkpt>
      <trkpt lat="43.1410532" lon="-2.8157578">
        <ele>213.693</ele>
        <time>2021-04-01T09:34:40.894Z</time>
      </trkpt>
      <trkpt lat="43.1410519" lon="-2.8157632">
        <ele>213.681</ele>
        <time>2021-04-01T09:34:40.949Z</time>
      </trkpt>
      <trkpt lat="43.1410504" lon="-2.8157687">
        <ele>213.674</ele>
        <time>2021-04-01T09:34:41.004Z</time>
      </trkpt>
      <trkpt lat="43.1410475" lon="-2.815773">
        <ele>213.626</ele>
        <time>2021-04-01T09:34:41.059Z</time>
      </trkpt>
      <trkpt lat="43.141045" lon="-2.8157774">
        <ele>213.589</ele>
        <time>2021-04-01T09:34:41.114Z</time>
      </trkpt>
      <trkpt lat="43.1410428" lon="-2.8157822">
        <ele>213.543</ele>
        <time>2021-04-01T09:34:41.169Z</time>
      </trkpt>
      <trkpt lat="43.1410406" lon="-2.815787">
        <ele>213.505</ele>
        <time>2021-04-01T09:34:41.224Z</time>
      </trkpt>
      <trkpt lat="43.1410385" lon="-2.8157917">
        <ele>213.455</ele>
        <time>2021-04-01T09:34:41.279Z</time>
      </trkpt>
      <trkpt lat="43.1410362" lon="-2.8157963">
        <ele>213.431</ele>
        <time>2021-04-01T09:34:41.334Z</time>
      </trkpt>
      <trkpt lat="43.141034" lon="-2.8158011">
        <ele>213.4</ele>
        <time>2021-04-01T09:34:41.389Z</time>
      </trkpt>
      <trkpt lat="43.1410318" lon="-2.8158057">
        <ele>213.369</ele>
        <time>2021-04-01T09:34:41.444Z</time>
      </trkpt>
      <trkpt lat="43.1410297" lon="-2.8158105">
        <ele>213.342</ele>
        <time>2021-04-01T09:34:41.499Z</time>
      </trkpt>
      <trkpt lat="43.1410275" lon="-2.8158153">
        <ele>213.319</ele>
        <time>2021-04-01T09:34:41.554Z</time>
      </trkpt>
      <trkpt lat="43.1410252" lon="-2.8158201">
        <ele>213.294</ele>
        <time>2021-04-01T09:34:41.609Z</time>
      </trkpt>
      <trkpt lat="43.1410229" lon="-2.8158251">
        <ele>213.275</ele>
        <time>2021-04-01T09:34:41.664Z</time>
      </trkpt>
      <trkpt lat="43.1410206" lon="-2.8158302">
        <ele>213.268</ele>
        <time>2021-04-01T09:34:41.719Z</time>
      </trkpt>
      <trkpt lat="43.1410181" lon="-2.8158349">
        <ele>213.246</ele>
        <time>2021-04-01T09:34:41.774Z</time>
      </trkpt>
      <trkpt lat="43.1410155" lon="-2.8158397">
        <ele>213.221</ele>
        <time>2021-04-01T09:34:41.829Z</time>
      </trkpt>
      <trkpt lat="43.141013" lon="-2.8158445">
        <ele>213.208</ele>
        <time>2021-04-01T09:34:41.884Z</time>
      </trkpt>
      <trkpt lat="43.1410106" lon="-2.8158494">
        <ele>213.21</ele>
        <time>2021-04-01T09:34:41.939Z</time>
      </trkpt>
      <trkpt lat="43.1410077" lon="-2.8158541">
        <ele>213.198</ele>
        <time>2021-04-01T09:34:41.994Z</time>
      </trkpt>
      <trkpt lat="43.1410053" lon="-2.8158591">
        <ele>213.197</ele>
        <time>2021-04-01T09:34:42.049Z</time>
      </trkpt>
      <trkpt lat="43.1410027" lon="-2.8158639">
        <ele>213.194</ele>
        <time>2021-04-01T09:34:42.104Z</time>
      </trkpt>
      <trkpt lat="43.1410001" lon="-2.8158687">
        <ele>213.161</ele>
        <time>2021-04-01T09:34:42.159Z</time>
      </trkpt>
      <trkpt lat="43.1409976" lon="-2.8158735">
        <ele>213.127</ele>
        <time>2021-04-01T09:34:42.214Z</time>
      </trkpt>
      <trkpt lat="43.1409951" lon="-2.8158784">
        <ele>213.091</ele>
        <time>2021-04-01T09:34:42.269Z</time>
      </trkpt>
      <trkpt lat="43.1409925" lon="-2.8158831">
        <ele>213.064</ele>
        <time>2021-04-01T09:34:42.324Z</time>
      </trkpt>
      <trkpt lat="43.1409898" lon="-2.8158878">
        <ele>213.027</ele>
        <time>2021-04-01T09:34:42.379Z</time>
      </trkpt>
      <trkpt lat="43.1409872" lon="-2.8158926">
        <ele>212.985</ele>
        <time>2021-04-01T09:34:42.434Z</time>
      </trkpt>
      <trkpt lat="43.1409846" lon="-2.8158975">
        <ele>212.958</ele>
        <time>2021-04-01T09:34:42.489Z</time>
      </trkpt>
      <trkpt lat="43.1409819" lon="-2.8159022">
        <ele>212.946</ele>
        <time>2021-04-01T09:34:42.544Z</time>
      </trkpt>
      <trkpt lat="43.1409792" lon="-2.8159071">
        <ele>212.923</ele>
        <time>2021-04-01T09:34:42.599Z</time>
      </trkpt>
      <trkpt lat="43.1409765" lon="-2.815912">
        <ele>212.89</ele>
        <time>2021-04-01T09:34:42.654Z</time>
      </trkpt>
      <trkpt lat="43.1409738" lon="-2.8159167">
        <ele>212.868</ele>
        <time>2021-04-01T09:34:42.709Z</time>
      </trkpt>
      <trkpt lat="43.1409713" lon="-2.8159215">
        <ele>212.852</ele>
        <time>2021-04-01T09:34:42.764Z</time>
      </trkpt>
      <trkpt lat="43.1409684" lon="-2.8159262">
        <ele>212.814</ele>
        <time>2021-04-01T09:34:42.819Z</time>
      </trkpt>
      <trkpt lat="43.1409657" lon="-2.8159311">
        <ele>212.794</ele>
        <time>2021-04-01T09:34:42.874Z</time>
      </trkpt>
      <trkpt lat="43.140963" lon="-2.8159361">
        <ele>212.784</ele>
        <time>2021-04-01T09:34:42.929Z</time>
      </trkpt>
      <trkpt lat="43.1409603" lon="-2.8159408">
        <ele>212.74</ele>
        <time>2021-04-01T09:34:42.987Z</time>
      </trkpt>
      <trkpt lat="43.1409574" lon="-2.8159454">
        <ele>212.688</ele>
        <time>2021-04-01T09:34:43.045Z</time>
      </trkpt>
      <trkpt lat="43.1409545" lon="-2.8159501">
        <ele>212.653</ele>
        <time>2021-04-01T09:34:43.103Z</time>
      </trkpt>
      <trkpt lat="43.1409517" lon="-2.8159551">
        <ele>212.641</ele>
        <time>2021-04-01T09:34:43.161Z</time>
      </trkpt>
      <trkpt lat="43.1409488" lon="-2.8159597">
        <ele>212.616</ele>
        <time>2021-04-01T09:34:43.219Z</time>
      </trkpt>
      <trkpt lat="43.1409458" lon="-2.8159642">
        <ele>212.583</ele>
        <time>2021-04-01T09:34:43.277Z</time>
      </trkpt>
      <trkpt lat="43.1409431" lon="-2.8159689">
        <ele>212.551</ele>
        <time>2021-04-01T09:34:43.335Z</time>
      </trkpt>
      <trkpt lat="43.1409403" lon="-2.8159736">
        <ele>212.544</ele>
        <time>2021-04-01T09:34:43.393Z</time>
      </trkpt>
      <trkpt lat="43.1409376" lon="-2.8159785">
        <ele>212.552</ele>
        <time>2021-04-01T09:34:43.451Z</time>
      </trkpt>
      <trkpt lat="43.1409348" lon="-2.8159832">
        <ele>212.525</ele>
        <time>2021-04-01T09:34:43.509Z</time>
      </trkpt>
      <trkpt lat="43.1409322" lon="-2.815988">
        <ele>212.513</ele>
        <time>2021-04-01T09:34:43.567Z</time>
      </trkpt>
      <trkpt lat="43.1409294" lon="-2.8159923">
        <ele>212.471</ele>
        <time>2021-04-01T09:34:43.625Z</time>
      </trkpt>
      <trkpt lat="43.1409266" lon="-2.8159969">
        <ele>212.428</ele>
        <time>2021-04-01T09:34:43.683Z</time>
      </trkpt>
      <trkpt lat="43.1409239" lon="-2.8160015">
        <ele>212.377</ele>
        <time>2021-04-01T09:34:43.741Z</time>
      </trkpt>
      <trkpt lat="43.1409211" lon="-2.8160062">
        <ele>212.334</ele>
        <time>2021-04-01T09:34:43.799Z</time>
      </trkpt>
      <trkpt lat="43.1409185" lon="-2.8160106">
        <ele>212.313</ele>
        <time>2021-04-01T09:34:43.857Z</time>
      </trkpt>
      <trkpt lat="43.1409158" lon="-2.8160151">
        <ele>212.267</ele>
        <time>2021-04-01T09:34:43.915Z</time>
      </trkpt>
      <trkpt lat="43.1409131" lon="-2.8160196">
        <ele>212.234</ele>
        <time>2021-04-01T09:34:43.974Z</time>
      </trkpt>
      <trkpt lat="43.1409108" lon="-2.8160243">
        <ele>212.212</ele>
        <time>2021-04-01T09:34:44.025Z</time>
      </trkpt>
      <trkpt lat="43.1409083" lon="-2.8160285">
        <ele>212.19</ele>
        <time>2021-04-01T09:34:44.077Z</time>
      </trkpt>
      <trkpt lat="43.1409059" lon="-2.8160332">
        <ele>212.164</ele>
        <time>2021-04-01T09:34:44.129Z</time>
      </trkpt>
      <trkpt lat="43.1409039" lon="-2.8160378">
        <ele>212.137</ele>
        <time>2021-04-01T09:34:44.181Z</time>
      </trkpt>
      <trkpt lat="43.1409018" lon="-2.8160425">
        <ele>212.117</ele>
        <time>2021-04-01T09:34:44.233Z</time>
      </trkpt>
      <trkpt lat="43.1408999" lon="-2.816047">
        <ele>212.086</ele>
        <time>2021-04-01T09:34:44.285Z</time>
      </trkpt>
      <trkpt lat="43.1408979" lon="-2.8160514">
        <ele>212.059</ele>
        <time>2021-04-01T09:34:44.337Z</time>
      </trkpt>
      <trkpt lat="43.140896" lon="-2.8160553">
        <ele>212.003</ele>
        <time>2021-04-01T09:34:44.389Z</time>
      </trkpt>
      <trkpt lat="43.140894" lon="-2.81606">
        <ele>212.011</ele>
        <time>2021-04-01T09:34:44.441Z</time>
      </trkpt>
      <trkpt lat="43.140892" lon="-2.8160646">
        <ele>212.016</ele>
        <time>2021-04-01T09:34:44.493Z</time>
      </trkpt>
      <trkpt lat="43.14089" lon="-2.8160687">
        <ele>211.977</ele>
        <time>2021-04-01T09:34:44.545Z</time>
      </trkpt>
      <trkpt lat="43.1408881" lon="-2.8160728">
        <ele>211.939</ele>
        <time>2021-04-01T09:34:44.597Z</time>
      </trkpt>
      <trkpt lat="43.1408861" lon="-2.8160768">
        <ele>211.894</ele>
        <time>2021-04-01T09:34:44.649Z</time>
      </trkpt>
      <trkpt lat="43.1408842" lon="-2.8160812">
        <ele>211.871</ele>
        <time>2021-04-01T09:34:44.701Z</time>
      </trkpt>
      <trkpt lat="43.1408824" lon="-2.8160854">
        <ele>211.84</ele>
        <time>2021-04-01T09:34:44.753Z</time>
      </trkpt>
      <trkpt lat="43.1408808" lon="-2.8160895">
        <ele>211.807</ele>
        <time>2021-04-01T09:34:44.805Z</time>
      </trkpt>
      <trkpt lat="43.1408793" lon="-2.8160936">
        <ele>211.771</ele>
        <time>2021-04-01T09:34:44.857Z</time>
      </trkpt>
      <trkpt lat="43.1408776" lon="-2.8160976">
        <ele>211.728</ele>
        <time>2021-04-01T09:34:44.909Z</time>
      </trkpt>
      <trkpt lat="43.140876" lon="-2.8161019">
        <ele>211.692</ele>
        <time>2021-04-01T09:34:44.961Z</time>
      </trkpt>
      <trkpt lat="43.1408747" lon="-2.8161062">
        <ele>211.653</ele>
        <time>2021-04-01T09:34:45.013Z</time>
      </trkpt>
      <trkpt lat="43.1408732" lon="-2.8161105">
        <ele>211.619</ele>
        <time>2021-04-01T09:34:45.065Z</time>
      </trkpt>
      <trkpt lat="43.140872" lon="-2.8161147">
        <ele>211.568</ele>
        <time>2021-04-01T09:34:45.117Z</time>
      </trkpt>
      <trkpt lat="43.1408709" lon="-2.8161189">
        <ele>211.519</ele>
        <time>2021-04-01T09:34:45.169Z</time>
      </trkpt>
      <trkpt lat="43.1408701" lon="-2.8161233">
        <ele>211.469</ele>
        <time>2021-04-01T09:34:45.221Z</time>
      </trkpt>
      <trkpt lat="43.1408693" lon="-2.8161276">
        <ele>211.413</ele>
        <time>2021-04-01T09:34:45.273Z</time>
      </trkpt>
      <trkpt lat="43.1408686" lon="-2.816132">
        <ele>211.369</ele>
        <time>2021-04-01T09:34:45.325Z</time>
      </trkpt>
      <trkpt lat="43.1408677" lon="-2.8161364">
        <ele>211.367</ele>
        <time>2021-04-01T09:34:45.377Z</time>
      </trkpt>
      <trkpt lat="43.140867" lon="-2.816141">
        <ele>211.37</ele>
        <time>2021-04-01T09:34:45.430Z</time>
      </trkpt>
      <trkpt lat="43.1408663" lon="-2.8161454">
        <ele>211.343</ele>
        <time>2021-04-01T09:34:45.482Z</time>
      </trkpt>
      <trkpt lat="43.1408656" lon="-2.8161496">
        <ele>211.308</ele>
        <time>2021-04-01T09:34:45.534Z</time>
      </trkpt>
      <trkpt lat="43.1408653" lon="-2.8161541">
        <ele>211.252</ele>
        <time>2021-04-01T09:34:45.586Z</time>
      </trkpt>
      <trkpt lat="43.1408652" lon="-2.8161586">
        <ele>211.235</ele>
        <time>2021-04-01T09:34:45.638Z</time>
      </trkpt>
      <trkpt lat="43.1408648" lon="-2.8161629">
        <ele>211.19</ele>
        <time>2021-04-01T09:34:45.690Z</time>
      </trkpt>
      <trkpt lat="43.1408645" lon="-2.8161674">
        <ele>211.172</ele>
        <time>2021-04-01T09:34:45.742Z</time>
      </trkpt>
      <trkpt lat="43.1408644" lon="-2.8161716">
        <ele>211.134</ele>
        <time>2021-04-01T09:34:45.794Z</time>
      </trkpt>
      <trkpt lat="43.1408644" lon="-2.8161764">
        <ele>211.119</ele>
        <time>2021-04-01T09:34:45.846Z</time>
      </trkpt>
      <trkpt lat="43.1408644" lon="-2.8161808">
        <ele>211.072</ele>
        <time>2021-04-01T09:34:45.899Z</time>
      </trkpt>
      <trkpt lat="43.1408646" lon="-2.8161852">
        <ele>211.07</ele>
        <time>2021-04-01T09:34:45.957Z</time>
      </trkpt>
      <trkpt lat="43.1408651" lon="-2.8161898">
        <ele>211.063</ele>
        <time>2021-04-01T09:34:46.015Z</time>
      </trkpt>
      <trkpt lat="43.1408656" lon="-2.8161942">
        <ele>211.017</ele>
        <time>2021-04-01T09:34:46.073Z</time>
      </trkpt>
      <trkpt lat="43.1408658" lon="-2.8161984">
        <ele>210.978</ele>
        <time>2021-04-01T09:34:46.131Z</time>
      </trkpt>
      <trkpt lat="43.1408662" lon="-2.8162027">
        <ele>210.95</ele>
        <time>2021-04-01T09:34:46.189Z</time>
      </trkpt>
      <trkpt lat="43.1408673" lon="-2.8162073">
        <ele>210.966</ele>
        <time>2021-04-01T09:34:46.247Z</time>
      </trkpt>
      <trkpt lat="43.140868" lon="-2.8162116">
        <ele>210.943</ele>
        <time>2021-04-01T09:34:46.305Z</time>
      </trkpt>
      <trkpt lat="43.1408687" lon="-2.816216">
        <ele>210.895</ele>
        <time>2021-04-01T09:34:46.363Z</time>
      </trkpt>
      <trkpt lat="43.1408695" lon="-2.8162203">
        <ele>210.871</ele>
        <time>2021-04-01T09:34:46.421Z</time>
      </trkpt>
      <trkpt lat="43.1408707" lon="-2.8162245">
        <ele>210.877</ele>
        <time>2021-04-01T09:34:46.479Z</time>
      </trkpt>
      <trkpt lat="43.140872" lon="-2.8162288">
        <ele>210.866</ele>
        <time>2021-04-01T09:34:46.537Z</time>
      </trkpt>
      <trkpt lat="43.1408733" lon="-2.8162327">
        <ele>210.832</ele>
        <time>2021-04-01T09:34:46.595Z</time>
      </trkpt>
      <trkpt lat="43.1408746" lon="-2.8162369">
        <ele>210.797</ele>
        <time>2021-04-01T09:34:46.653Z</time>
      </trkpt>
      <trkpt lat="43.1408763" lon="-2.8162408">
        <ele>210.808</ele>
        <time>2021-04-01T09:34:46.711Z</time>
      </trkpt>
      <trkpt lat="43.1408781" lon="-2.8162446">
        <ele>210.808</ele>
        <time>2021-04-01T09:34:46.769Z</time>
      </trkpt>
      <trkpt lat="43.1408796" lon="-2.8162485">
        <ele>210.773</ele>
        <time>2021-04-01T09:34:46.827Z</time>
      </trkpt>
      <trkpt lat="43.1408813" lon="-2.8162524">
        <ele>210.737</ele>
        <time>2021-04-01T09:34:46.885Z</time>
      </trkpt>
      <trkpt lat="43.1408832" lon="-2.8162564">
        <ele>210.73</ele>
        <time>2021-04-01T09:34:46.944Z</time>
      </trkpt>
      <trkpt lat="43.1408852" lon="-2.81626">
        <ele>210.709</ele>
        <time>2021-04-01T09:34:46.999Z</time>
      </trkpt>
      <trkpt lat="43.1408872" lon="-2.8162637">
        <ele>210.69</ele>
        <time>2021-04-01T09:34:47.054Z</time>
      </trkpt>
      <trkpt lat="43.1408893" lon="-2.8162673">
        <ele>210.668</ele>
        <time>2021-04-01T09:34:47.109Z</time>
      </trkpt>
      <trkpt lat="43.1408911" lon="-2.8162709">
        <ele>210.677</ele>
        <time>2021-04-01T09:34:47.164Z</time>
      </trkpt>
      <trkpt lat="43.1408934" lon="-2.8162745">
        <ele>210.692</ele>
        <time>2021-04-01T09:34:47.219Z</time>
      </trkpt>
      <trkpt lat="43.1408958" lon="-2.8162782">
        <ele>210.678</ele>
        <time>2021-04-01T09:34:47.274Z</time>
      </trkpt>
      <trkpt lat="43.1408985" lon="-2.8162819">
        <ele>210.694</ele>
        <time>2021-04-01T09:34:47.329Z</time>
      </trkpt>
      <trkpt lat="43.140901" lon="-2.8162854">
        <ele>210.698</ele>
        <time>2021-04-01T09:34:47.384Z</time>
      </trkpt>
      <trkpt lat="43.1409033" lon="-2.8162891">
        <ele>210.687</ele>
        <time>2021-04-01T09:34:47.439Z</time>
      </trkpt>
      <trkpt lat="43.1409056" lon="-2.8162925">
        <ele>210.687</ele>
        <time>2021-04-01T09:34:47.494Z</time>
      </trkpt>
      <trkpt lat="43.1409082" lon="-2.8162961">
        <ele>210.7</ele>
        <time>2021-04-01T09:34:47.549Z</time>
      </trkpt>
      <trkpt lat="43.1409109" lon="-2.8162996">
        <ele>210.71</ele>
        <time>2021-04-01T09:34:47.604Z</time>
      </trkpt>
      <trkpt lat="43.1409136" lon="-2.8163029">
        <ele>210.722</ele>
        <time>2021-04-01T09:34:47.659Z</time>
      </trkpt>
      <trkpt lat="43.1409162" lon="-2.816306">
        <ele>210.681</ele>
        <time>2021-04-01T09:34:47.714Z</time>
      </trkpt>
      <trkpt lat="43.1409189" lon="-2.8163086">
        <ele>210.635</ele>
        <time>2021-04-01T09:34:47.769Z</time>
      </trkpt>
      <trkpt lat="43.1409221" lon="-2.8163105">
        <ele>210.594</ele>
        <time>2021-04-01T09:34:47.824Z</time>
      </trkpt>
      <trkpt lat="43.1409255" lon="-2.8163126">
        <ele>210.566</ele>
        <time>2021-04-01T09:34:47.879Z</time>
      </trkpt>
      <trkpt lat="43.1409284" lon="-2.8163146">
        <ele>210.522</ele>
        <time>2021-04-01T09:34:47.934Z</time>
      </trkpt>
      <trkpt lat="43.1409313" lon="-2.8163168">
        <ele>210.494</ele>
        <time>2021-04-01T09:34:47.992Z</time>
      </trkpt>
      <trkpt lat="43.1409345" lon="-2.816319">
        <ele>210.477</ele>
        <time>2021-04-01T09:34:48.050Z</time>
      </trkpt>
      <trkpt lat="43.1409376" lon="-2.8163209">
        <ele>210.439</ele>
        <time>2021-04-01T09:34:48.108Z</time>
      </trkpt>
      <trkpt lat="43.1409406" lon="-2.8163227">
        <ele>210.425</ele>
        <time>2021-04-01T09:34:48.166Z</time>
      </trkpt>
      <trkpt lat="43.1409439" lon="-2.8163247">
        <ele>210.426</ele>
        <time>2021-04-01T09:34:48.224Z</time>
      </trkpt>
      <trkpt lat="43.1409473" lon="-2.8163267">
        <ele>210.415</ele>
        <time>2021-04-01T09:34:48.282Z</time>
      </trkpt>
      <trkpt lat="43.1409504" lon="-2.8163281">
        <ele>210.346</ele>
        <time>2021-04-01T09:34:48.340Z</time>
      </trkpt>
      <trkpt lat="43.1409538" lon="-2.8163295">
        <ele>210.362</ele>
        <time>2021-04-01T09:34:48.398Z</time>
      </trkpt>
      <trkpt lat="43.1409573" lon="-2.8163309">
        <ele>210.366</ele>
        <time>2021-04-01T09:34:48.456Z</time>
      </trkpt>
      <trkpt lat="43.1409605" lon="-2.8163319">
        <ele>210.335</ele>
        <time>2021-04-01T09:34:48.514Z</time>
      </trkpt>
      <trkpt lat="43.1409638" lon="-2.816333">
        <ele>210.305</ele>
        <time>2021-04-01T09:34:48.572Z</time>
      </trkpt>
      <trkpt lat="43.1409677" lon="-2.8163342">
        <ele>210.38</ele>
        <time>2021-04-01T09:34:48.630Z</time>
      </trkpt>
      <trkpt lat="43.1409712" lon="-2.8163352">
        <ele>210.373</ele>
        <time>2021-04-01T09:34:48.688Z</time>
      </trkpt>
      <trkpt lat="43.1409745" lon="-2.8163359">
        <ele>210.302</ele>
        <time>2021-04-01T09:34:48.746Z</time>
      </trkpt>
      <trkpt lat="43.1409778" lon="-2.8163364">
        <ele>210.284</ele>
        <time>2021-04-01T09:34:48.804Z</time>
      </trkpt>
      <trkpt lat="43.1409812" lon="-2.8163367">
        <ele>210.239</ele>
        <time>2021-04-01T09:34:48.862Z</time>
      </trkpt>
      <trkpt lat="43.1409847" lon="-2.8163373">
        <ele>210.267</ele>
        <time>2021-04-01T09:34:48.920Z</time>
      </trkpt>
      <trkpt lat="43.1409884" lon="-2.8163379">
        <ele>210.309</ele>
        <time>2021-04-01T09:34:48.979Z</time>
      </trkpt>
      <trkpt lat="43.1409918" lon="-2.8163382">
        <ele>210.308</ele>
        <time>2021-04-01T09:34:49.030Z</time>
      </trkpt>
      <trkpt lat="43.1409952" lon="-2.8163382">
        <ele>210.277</ele>
        <time>2021-04-01T09:34:49.082Z</time>
      </trkpt>
      <trkpt lat="43.1409987" lon="-2.8163382">
        <ele>210.298</ele>
        <time>2021-04-01T09:34:49.134Z</time>
      </trkpt>
      <trkpt lat="43.1410025" lon="-2.8163379">
        <ele>210.306</ele>
        <time>2021-04-01T09:34:49.186Z</time>
      </trkpt>
      <trkpt lat="43.1410059" lon="-2.8163377">
        <ele>210.308</ele>
        <time>2021-04-01T09:34:49.238Z</time>
      </trkpt>
      <trkpt lat="43.1410093" lon="-2.8163373">
        <ele>210.317</ele>
        <time>2021-04-01T09:34:49.290Z</time>
      </trkpt>
      <trkpt lat="43.1410128" lon="-2.8163367">
        <ele>210.293</ele>
        <time>2021-04-01T09:34:49.342Z</time>
      </trkpt>
      <trkpt lat="43.1410162" lon="-2.816336">
        <ele>210.275</ele>
        <time>2021-04-01T09:34:49.394Z</time>
      </trkpt>
      <trkpt lat="43.1410196" lon="-2.8163355">
        <ele>210.262</ele>
        <time>2021-04-01T09:34:49.446Z</time>
      </trkpt>
      <trkpt lat="43.1410227" lon="-2.8163345">
        <ele>210.249</ele>
        <time>2021-04-01T09:34:49.498Z</time>
      </trkpt>
      <trkpt lat="43.1410256" lon="-2.8163334">
        <ele>210.255</ele>
        <time>2021-04-01T09:34:49.550Z</time>
      </trkpt>
      <trkpt lat="43.1410289" lon="-2.8163325">
        <ele>210.257</ele>
        <time>2021-04-01T09:34:49.602Z</time>
      </trkpt>
      <trkpt lat="43.1410323" lon="-2.8163316">
        <ele>210.275</ele>
        <time>2021-04-01T09:34:49.654Z</time>
      </trkpt>
      <trkpt lat="43.141036" lon="-2.8163311">
        <ele>210.255</ele>
        <time>2021-04-01T09:34:49.706Z</time>
      </trkpt>
      <trkpt lat="43.1410395" lon="-2.8163299">
        <ele>210.283</ele>
        <time>2021-04-01T09:34:49.758Z</time>
      </trkpt>
      <trkpt lat="43.1410429" lon="-2.8163286">
        <ele>210.335</ele>
        <time>2021-04-01T09:34:49.810Z</time>
      </trkpt>
      <trkpt lat="43.1410466" lon="-2.8163276">
        <ele>210.372</ele>
        <time>2021-04-01T09:34:49.862Z</time>
      </trkpt>
      <trkpt lat="43.1410501" lon="-2.8163267">
        <ele>210.389</ele>
        <time>2021-04-01T09:34:49.914Z</time>
      </trkpt>
      <trkpt lat="43.1410537" lon="-2.8163257">
        <ele>210.42</ele>
        <time>2021-04-01T09:34:49.966Z</time>
      </trkpt>
      <trkpt lat="43.1410565" lon="-2.8163243">
        <ele>210.525</ele>
        <time>2021-04-01T09:34:50.018Z</time>
      </trkpt>
      <trkpt lat="43.1410592" lon="-2.8163227">
        <ele>210.609</ele>
        <time>2021-04-01T09:34:50.070Z</time>
      </trkpt>
      <trkpt lat="43.1410614" lon="-2.8163205">
        <ele>210.704</ele>
        <time>2021-04-01T09:34:50.122Z</time>
      </trkpt>
      <trkpt lat="43.1410644" lon="-2.8163191">
        <ele>210.785</ele>
        <time>2021-04-01T09:34:50.174Z</time>
      </trkpt>
      <trkpt lat="43.1410674" lon="-2.8163175">
        <ele>210.878</ele>
        <time>2021-04-01T09:34:50.226Z</time>
      </trkpt>
      <trkpt lat="43.1410702" lon="-2.8163158">
        <ele>210.893</ele>
        <time>2021-04-01T09:34:50.278Z</time>
      </trkpt>
      <trkpt lat="43.141073" lon="-2.8163138">
        <ele>210.92</ele>
        <time>2021-04-01T09:34:50.330Z</time>
      </trkpt>
      <trkpt lat="43.1410757" lon="-2.8163115">
        <ele>210.988</ele>
        <time>2021-04-01T09:34:50.382Z</time>
      </trkpt>
      <trkpt lat="43.1410783" lon="-2.8163092">
        <ele>211.001</ele>
        <time>2021-04-01T09:34:50.435Z</time>
      </trkpt>
      <trkpt lat="43.1410811" lon="-2.8163063">
        <ele>211.022</ele>
        <time>2021-04-01T09:34:50.487Z</time>
      </trkpt>
      <trkpt lat="43.1410839" lon="-2.8163035">
        <ele>211.048</ele>
        <time>2021-04-01T09:34:50.539Z</time>
      </trkpt>
      <trkpt lat="43.1410866" lon="-2.8163004">
        <ele>211.071</ele>
        <time>2021-04-01T09:34:50.591Z</time>
      </trkpt>
      <trkpt lat="43.1410896" lon="-2.8162972">
        <ele>211.056</ele>
        <time>2021-04-01T09:34:50.643Z</time>
      </trkpt>
      <trkpt lat="43.1410931" lon="-2.8162945">
        <ele>211.071</ele>
        <time>2021-04-01T09:34:50.695Z</time>
      </trkpt>
      <trkpt lat="43.1410962" lon="-2.8162916">
        <ele>211.077</ele>
        <time>2021-04-01T09:34:50.747Z</time>
      </trkpt>
      <trkpt lat="43.1410993" lon="-2.8162889">
        <ele>211.092</ele>
        <time>2021-04-01T09:34:50.799Z</time>
      </trkpt>
      <trkpt lat="43.1411024" lon="-2.8162861">
        <ele>211.078</ele>
        <time>2021-04-01T09:34:50.851Z</time>
      </trkpt>
      <trkpt lat="43.1411059" lon="-2.8162834">
        <ele>211.068</ele>
        <time>2021-04-01T09:34:50.904Z</time>
      </trkpt>
      <trkpt lat="43.1411091" lon="-2.8162806">
        <ele>211.062</ele>
        <time>2021-04-01T09:34:50.962Z</time>
      </trkpt>
      <trkpt lat="43.1411123" lon="-2.8162776">
        <ele>211.049</ele>
        <time>2021-04-01T09:34:51.020Z</time>
      </trkpt>
      <trkpt lat="43.1411157" lon="-2.8162747">
        <ele>211.039</ele>
        <time>2021-04-01T09:34:51.078Z</time>
      </trkpt>
      <trkpt lat="43.1411188" lon="-2.8162719">
        <ele>211.017</ele>
        <time>2021-04-01T09:34:51.136Z</time>
      </trkpt>
      <trkpt lat="43.1411219" lon="-2.816269">
        <ele>211.008</ele>
        <time>2021-04-01T09:34:51.194Z</time>
      </trkpt>
      <trkpt lat="43.1411253" lon="-2.816266">
        <ele>210.971</ele>
        <time>2021-04-01T09:34:51.252Z</time>
      </trkpt>
      <trkpt lat="43.1411287" lon="-2.8162627">
        <ele>210.957</ele>
        <time>2021-04-01T09:34:51.310Z</time>
      </trkpt>
      <trkpt lat="43.141132" lon="-2.8162595">
        <ele>210.993</ele>
        <time>2021-04-01T09:34:51.368Z</time>
      </trkpt>
      <trkpt lat="43.1411354" lon="-2.8162564">
        <ele>211.038</ele>
        <time>2021-04-01T09:34:51.426Z</time>
      </trkpt>
      <trkpt lat="43.1411389" lon="-2.8162533">
        <ele>211.042</ele>
        <time>2021-04-01T09:34:51.484Z</time>
      </trkpt>
      <trkpt lat="43.1411422" lon="-2.8162502">
        <ele>211.008</ele>
        <time>2021-04-01T09:34:51.542Z</time>
      </trkpt>
      <trkpt lat="43.1411455" lon="-2.8162472">
        <ele>210.992</ele>
        <time>2021-04-01T09:34:51.600Z</time>
      </trkpt>
      <trkpt lat="43.1411485" lon="-2.816244">
        <ele>211.017</ele>
        <time>2021-04-01T09:34:51.658Z</time>
      </trkpt>
      <trkpt lat="43.1411519" lon="-2.8162406">
        <ele>211.025</ele>
        <time>2021-04-01T09:34:51.716Z</time>
      </trkpt>
      <trkpt lat="43.1411556" lon="-2.8162374">
        <ele>210.994</ele>
        <time>2021-04-01T09:34:51.774Z</time>
      </trkpt>
      <trkpt lat="43.1411593" lon="-2.8162346">
        <ele>211.019</ele>
        <time>2021-04-01T09:34:51.832Z</time>
      </trkpt>
      <trkpt lat="43.1411628" lon="-2.8162315">
        <ele>211.016</ele>
        <time>2021-04-01T09:34:51.890Z</time>
      </trkpt>
      <trkpt lat="43.141166" lon="-2.8162278">
        <ele>211.022</ele>
        <time>2021-04-01T09:34:51.949Z</time>
      </trkpt>
      <trkpt lat="43.141169" lon="-2.8162241">
        <ele>210.977</ele>
        <time>2021-04-01T09:34:52.004Z</time>
      </trkpt>
      <trkpt lat="43.1411718" lon="-2.8162202">
        <ele>210.969</ele>
        <time>2021-04-01T09:34:52.059Z</time>
      </trkpt>
      <trkpt lat="43.141175" lon="-2.8162167">
        <ele>210.971</ele>
        <time>2021-04-01T09:34:52.114Z</time>
      </trkpt>
      <trkpt lat="43.141178" lon="-2.8162131">
        <ele>210.964</ele>
        <time>2021-04-01T09:34:52.169Z</time>
      </trkpt>
      <trkpt lat="43.1411809" lon="-2.8162092">
        <ele>210.955</ele>
        <time>2021-04-01T09:34:52.224Z</time>
      </trkpt>
      <trkpt lat="43.1411841" lon="-2.8162056">
        <ele>210.967</ele>
        <time>2021-04-01T09:34:52.279Z</time>
      </trkpt>
      <trkpt lat="43.1411872" lon="-2.816202">
        <ele>210.984</ele>
        <time>2021-04-01T09:34:52.334Z</time>
      </trkpt>
      <trkpt lat="43.1411903" lon="-2.8161983">
        <ele>210.972</ele>
        <time>2021-04-01T09:34:52.389Z</time>
      </trkpt>
      <trkpt lat="43.1411935" lon="-2.8161949">
        <ele>210.964</ele>
        <time>2021-04-01T09:34:52.444Z</time>
      </trkpt>
      <trkpt lat="43.1411967" lon="-2.8161912">
        <ele>211.013</ele>
        <time>2021-04-01T09:34:52.499Z</time>
      </trkpt>
      <trkpt lat="43.1411999" lon="-2.8161877">
        <ele>211.039</ele>
        <time>2021-04-01T09:34:52.554Z</time>
      </trkpt>
      <trkpt lat="43.1412031" lon="-2.816184">
        <ele>211.043</ele>
        <time>2021-04-01T09:34:52.609Z</time>
      </trkpt>
      <trkpt lat="43.1412063" lon="-2.8161803">
        <ele>211.03</ele>
        <time>2021-04-01T09:34:52.664Z</time>
      </trkpt>
      <trkpt lat="43.1412096" lon="-2.8161772">
        <ele>211.069</ele>
        <time>2021-04-01T09:34:52.719Z</time>
      </trkpt>
      <trkpt lat="43.1412128" lon="-2.8161736">
        <ele>211.074</ele>
        <time>2021-04-01T09:34:52.774Z</time>
      </trkpt>
      <trkpt lat="43.1412158" lon="-2.81617">
        <ele>211.008</ele>
        <time>2021-04-01T09:34:52.829Z</time>
      </trkpt>
      <trkpt lat="43.1412189" lon="-2.8161663">
        <ele>210.966</ele>
        <time>2021-04-01T09:34:52.884Z</time>
      </trkpt>
      <trkpt lat="43.1412222" lon="-2.8161629">
        <ele>210.935</ele>
        <time>2021-04-01T09:34:52.939Z</time>
      </trkpt>
      <trkpt lat="43.1412255" lon="-2.8161594">
        <ele>210.908</ele>
        <time>2021-04-01T09:34:52.997Z</time>
      </trkpt>
      <trkpt lat="43.1412288" lon="-2.8161558">
        <ele>210.917</ele>
        <time>2021-04-01T09:34:53.055Z</time>
      </trkpt>
      <trkpt lat="43.1412321" lon="-2.8161524">
        <ele>210.918</ele>
        <time>2021-04-01T09:34:53.113Z</time>
      </trkpt>
      <trkpt lat="43.1412356" lon="-2.816149">
        <ele>210.89</ele>
        <time>2021-04-01T09:34:53.171Z</time>
      </trkpt>
      <trkpt lat="43.1412391" lon="-2.8161459">
        <ele>210.86</ele>
        <time>2021-04-01T09:34:53.229Z</time>
      </trkpt>
      <trkpt lat="43.1412428" lon="-2.8161431">
        <ele>210.854</ele>
        <time>2021-04-01T09:34:53.287Z</time>
      </trkpt>
      <trkpt lat="43.1412465" lon="-2.8161401">
        <ele>210.822</ele>
        <time>2021-04-01T09:34:53.345Z</time>
      </trkpt>
      <trkpt lat="43.1412502" lon="-2.8161369">
        <ele>210.823</ele>
        <time>2021-04-01T09:34:53.403Z</time>
      </trkpt>
      <trkpt lat="43.1412538" lon="-2.8161339">
        <ele>210.782</ele>
        <time>2021-04-01T09:34:53.461Z</time>
      </trkpt>
      <trkpt lat="43.1412573" lon="-2.8161306">
        <ele>210.737</ele>
        <time>2021-04-01T09:34:53.519Z</time>
      </trkpt>
      <trkpt lat="43.1412607" lon="-2.8161275">
        <ele>210.719</ele>
        <time>2021-04-01T09:34:53.577Z</time>
      </trkpt>
      <trkpt lat="43.1412645" lon="-2.8161245">
        <ele>210.763</ele>
        <time>2021-04-01T09:34:53.635Z</time>
      </trkpt>
      <trkpt lat="43.141268" lon="-2.8161211">
        <ele>210.748</ele>
        <time>2021-04-01T09:34:53.693Z</time>
      </trkpt>
      <trkpt lat="43.1412713" lon="-2.8161177">
        <ele>210.714</ele>
        <time>2021-04-01T09:34:53.751Z</time>
      </trkpt>
      <trkpt lat="43.141275" lon="-2.8161149">
        <ele>210.681</ele>
        <time>2021-04-01T09:34:53.809Z</time>
      </trkpt>
      <trkpt lat="43.1412786" lon="-2.8161117">
        <ele>210.68</ele>
        <time>2021-04-01T09:34:53.867Z</time>
      </trkpt>
      <trkpt lat="43.1412821" lon="-2.8161085">
        <ele>210.677</ele>
        <time>2021-04-01T09:34:53.925Z</time>
      </trkpt>
      <trkpt lat="43.1412856" lon="-2.8161053">
        <ele>210.687</ele>
        <time>2021-04-01T09:34:53.984Z</time>
      </trkpt>
      <trkpt lat="43.1412891" lon="-2.816102">
        <ele>210.678</ele>
        <time>2021-04-01T09:34:54.035Z</time>
      </trkpt>
      <trkpt lat="43.1412926" lon="-2.8160987">
        <ele>210.651</ele>
        <time>2021-04-01T09:34:54.087Z</time>
      </trkpt>
      <trkpt lat="43.1412962" lon="-2.8160955">
        <ele>210.66</ele>
        <time>2021-04-01T09:34:54.139Z</time>
      </trkpt>
      <trkpt lat="43.1412997" lon="-2.8160924">
        <ele>210.634</ele>
        <time>2021-04-01T09:34:54.191Z</time>
      </trkpt>
      <trkpt lat="43.1413033" lon="-2.8160893">
        <ele>210.625</ele>
        <time>2021-04-01T09:34:54.243Z</time>
      </trkpt>
      <trkpt lat="43.1413069" lon="-2.8160861">
        <ele>210.644</ele>
        <time>2021-04-01T09:34:54.295Z</time>
      </trkpt>
      <trkpt lat="43.1413104" lon="-2.8160827">
        <ele>210.662</ele>
        <time>2021-04-01T09:34:54.347Z</time>
      </trkpt>
      <trkpt lat="43.1413139" lon="-2.8160795">
        <ele>210.656</ele>
        <time>2021-04-01T09:34:54.399Z</time>
      </trkpt>
      <trkpt lat="43.1413176" lon="-2.8160766">
        <ele>210.689</ele>
        <time>2021-04-01T09:34:54.451Z</time>
      </trkpt>
      <trkpt lat="43.1413211" lon="-2.8160735">
        <ele>210.684</ele>
        <time>2021-04-01T09:34:54.503Z</time>
      </trkpt>
      <trkpt lat="43.1413247" lon="-2.8160705">
        <ele>210.666</ele>
        <time>2021-04-01T09:34:54.555Z</time>
      </trkpt>
      <trkpt lat="43.1413285" lon="-2.816068">
        <ele>210.654</ele>
        <time>2021-04-01T09:34:54.607Z</time>
      </trkpt>
      <trkpt lat="43.1413321" lon="-2.8160651">
        <ele>210.615</ele>
        <time>2021-04-01T09:34:54.659Z</time>
      </trkpt>
      <trkpt lat="43.1413357" lon="-2.816062">
        <ele>210.592</ele>
        <time>2021-04-01T09:34:54.711Z</time>
      </trkpt>
      <trkpt lat="43.1413395" lon="-2.8160591">
        <ele>210.568</ele>
        <time>2021-04-01T09:34:54.763Z</time>
      </trkpt>
      <trkpt lat="43.1413433" lon="-2.8160563">
        <ele>210.563</ele>
        <time>2021-04-01T09:34:54.815Z</time>
      </trkpt>
      <trkpt lat="43.1413469" lon="-2.8160533">
        <ele>210.545</ele>
        <time>2021-04-01T09:34:54.867Z</time>
      </trkpt>
      <trkpt lat="43.1413508" lon="-2.8160506">
        <ele>210.551</ele>
        <time>2021-04-01T09:34:54.919Z</time>
      </trkpt>
      <trkpt lat="43.1413546" lon="-2.8160478">
        <ele>210.495</ele>
        <time>2021-04-01T09:34:54.974Z</time>
      </trkpt>
      <trkpt lat="43.1413583" lon="-2.8160449">
        <ele>210.445</ele>
        <time>2021-04-01T09:34:55.029Z</time>
      </trkpt>
      <trkpt lat="43.141362" lon="-2.8160422">
        <ele>210.441</ele>
        <time>2021-04-01T09:34:55.084Z</time>
      </trkpt>
      <trkpt lat="43.1413656" lon="-2.8160391">
        <ele>210.426</ele>
        <time>2021-04-01T09:34:55.139Z</time>
      </trkpt>
      <trkpt lat="43.1413692" lon="-2.8160361">
        <ele>210.41</ele>
        <time>2021-04-01T09:34:55.194Z</time>
      </trkpt>
      <trkpt lat="43.1413731" lon="-2.8160332">
        <ele>210.402</ele>
        <time>2021-04-01T09:34:55.249Z</time>
      </trkpt>
      <trkpt lat="43.1413771" lon="-2.8160304">
        <ele>210.392</ele>
        <time>2021-04-01T09:34:55.304Z</time>
      </trkpt>
      <trkpt lat="43.1413807" lon="-2.8160274">
        <ele>210.377</ele>
        <time>2021-04-01T09:34:55.359Z</time>
      </trkpt>
      <trkpt lat="43.1413842" lon="-2.8160244">
        <ele>210.353</ele>
        <time>2021-04-01T09:34:55.414Z</time>
      </trkpt>
      <trkpt lat="43.141388" lon="-2.8160214">
        <ele>210.365</ele>
        <time>2021-04-01T09:34:55.469Z</time>
      </trkpt>
      <trkpt lat="43.1413919" lon="-2.8160184">
        <ele>210.384</ele>
        <time>2021-04-01T09:34:55.524Z</time>
      </trkpt>
      <trkpt lat="43.1413956" lon="-2.8160155">
        <ele>210.372</ele>
        <time>2021-04-01T09:34:55.579Z</time>
      </trkpt>
      <trkpt lat="43.1413993" lon="-2.8160127">
        <ele>210.348</ele>
        <time>2021-04-01T09:34:55.634Z</time>
      </trkpt>
      <trkpt lat="43.1414029" lon="-2.8160099">
        <ele>210.314</ele>
        <time>2021-04-01T09:34:55.689Z</time>
      </trkpt>
      <trkpt lat="43.1414067" lon="-2.8160073">
        <ele>210.311</ele>
        <time>2021-04-01T09:34:55.744Z</time>
      </trkpt>
      <trkpt lat="43.1414105" lon="-2.8160044">
        <ele>210.297</ele>
        <time>2021-04-01T09:34:55.799Z</time>
      </trkpt>
      <trkpt lat="43.1414144" lon="-2.8160016">
        <ele>210.29</ele>
        <time>2021-04-01T09:34:55.854Z</time>
      </trkpt>
      <trkpt lat="43.141418" lon="-2.8159987">
        <ele>210.276</ele>
        <time>2021-04-01T09:34:55.909Z</time>
      </trkpt>
      <trkpt lat="43.1414215" lon="-2.8159958">
        <ele>210.266</ele>
        <time>2021-04-01T09:34:55.964Z</time>
      </trkpt>
      <trkpt lat="43.1414251" lon="-2.815993">
        <ele>210.265</ele>
        <time>2021-04-01T09:34:56.019Z</time>
      </trkpt>
      <trkpt lat="43.1414287" lon="-2.8159899">
        <ele>210.259</ele>
        <time>2021-04-01T09:34:56.074Z</time>
      </trkpt>
      <trkpt lat="43.1414322" lon="-2.8159871">
        <ele>210.245</ele>
        <time>2021-04-01T09:34:56.129Z</time>
      </trkpt>
      <trkpt lat="43.141436" lon="-2.8159847">
        <ele>210.226</ele>
        <time>2021-04-01T09:34:56.184Z</time>
      </trkpt>
      <trkpt lat="43.1414398" lon="-2.815982">
        <ele>210.241</ele>
        <time>2021-04-01T09:34:56.239Z</time>
      </trkpt>
      <trkpt lat="43.1414435" lon="-2.8159796">
        <ele>210.235</ele>
        <time>2021-04-01T09:34:56.294Z</time>
      </trkpt>
      <trkpt lat="43.1414472" lon="-2.8159772">
        <ele>210.225</ele>
        <time>2021-04-01T09:34:56.349Z</time>
      </trkpt>
      <trkpt lat="43.1414509" lon="-2.8159747">
        <ele>210.211</ele>
        <time>2021-04-01T09:34:56.404Z</time>
      </trkpt>
      <trkpt lat="43.1414547" lon="-2.8159724">
        <ele>210.186</ele>
        <time>2021-04-01T09:34:56.459Z</time>
      </trkpt>
      <trkpt lat="43.1414585" lon="-2.81597">
        <ele>210.2</ele>
        <time>2021-04-01T09:34:56.514Z</time>
      </trkpt>
      <trkpt lat="43.1414621" lon="-2.8159676">
        <ele>210.177</ele>
        <time>2021-04-01T09:34:56.569Z</time>
      </trkpt>
      <trkpt lat="43.1414657" lon="-2.8159653">
        <ele>210.167</ele>
        <time>2021-04-01T09:34:56.624Z</time>
      </trkpt>
      <trkpt lat="43.1414695" lon="-2.8159631">
        <ele>210.181</ele>
        <time>2021-04-01T09:34:56.679Z</time>
      </trkpt>
      <trkpt lat="43.1414732" lon="-2.8159609">
        <ele>210.178</ele>
        <time>2021-04-01T09:34:56.734Z</time>
      </trkpt>
      <trkpt lat="43.141477" lon="-2.8159589">
        <ele>210.163</ele>
        <time>2021-04-01T09:34:56.789Z</time>
      </trkpt>
      <trkpt lat="43.1414807" lon="-2.8159569">
        <ele>210.161</ele>
        <time>2021-04-01T09:34:56.844Z</time>
      </trkpt>
      <trkpt lat="43.1414843" lon="-2.8159548">
        <ele>210.143</ele>
        <time>2021-04-01T09:34:56.899Z</time>
      </trkpt>
      <trkpt lat="43.141488" lon="-2.8159527">
        <ele>210.152</ele>
        <time>2021-04-01T09:34:56.954Z</time>
      </trkpt>
      <trkpt lat="43.1414916" lon="-2.8159506">
        <ele>210.155</ele>
        <time>2021-04-01T09:34:57.009Z</time>
      </trkpt>
      <trkpt lat="43.1414954" lon="-2.8159486">
        <ele>210.163</ele>
        <time>2021-04-01T09:34:57.064Z</time>
      </trkpt>
      <trkpt lat="43.141499" lon="-2.8159465">
        <ele>210.139</ele>
        <time>2021-04-01T09:34:57.119Z</time>
      </trkpt>
      <trkpt lat="43.1415027" lon="-2.8159447">
        <ele>210.142</ele>
        <time>2021-04-01T09:34:57.174Z</time>
      </trkpt>
      <trkpt lat="43.1415065" lon="-2.8159429">
        <ele>210.146</ele>
        <time>2021-04-01T09:34:57.229Z</time>
      </trkpt>
      <trkpt lat="43.1415102" lon="-2.8159411">
        <ele>210.13</ele>
        <time>2021-04-01T09:34:57.284Z</time>
      </trkpt>
      <trkpt lat="43.1415141" lon="-2.8159393">
        <ele>210.104</ele>
        <time>2021-04-01T09:34:57.339Z</time>
      </trkpt>
      <trkpt lat="43.1415178" lon="-2.8159377">
        <ele>210.089</ele>
        <time>2021-04-01T09:34:57.394Z</time>
      </trkpt>
      <trkpt lat="43.1415217" lon="-2.8159361">
        <ele>210.093</ele>
        <time>2021-04-01T09:34:57.449Z</time>
      </trkpt>
      <trkpt lat="43.1415254" lon="-2.8159344">
        <ele>210.077</ele>
        <time>2021-04-01T09:34:57.504Z</time>
      </trkpt>
      <trkpt lat="43.1415292" lon="-2.8159328">
        <ele>210.056</ele>
        <time>2021-04-01T09:34:57.559Z</time>
      </trkpt>
      <trkpt lat="43.1415329" lon="-2.8159311">
        <ele>210.046</ele>
        <time>2021-04-01T09:34:57.614Z</time>
      </trkpt>
      <trkpt lat="43.1415368" lon="-2.8159295">
        <ele>210.041</ele>
        <time>2021-04-01T09:34:57.669Z</time>
      </trkpt>
      <trkpt lat="43.1415406" lon="-2.8159283">
        <ele>210.009</ele>
        <time>2021-04-01T09:34:57.724Z</time>
      </trkpt>
      <trkpt lat="43.1415445" lon="-2.8159269">
        <ele>209.983</ele>
        <time>2021-04-01T09:34:57.779Z</time>
      </trkpt>
      <trkpt lat="43.1415482" lon="-2.8159256">
        <ele>209.959</ele>
        <time>2021-04-01T09:34:57.834Z</time>
      </trkpt>
      <trkpt lat="43.1415518" lon="-2.815924">
        <ele>209.936</ele>
        <time>2021-04-01T09:34:57.889Z</time>
      </trkpt>
      <trkpt lat="43.1415557" lon="-2.8159226">
        <ele>209.931</ele>
        <time>2021-04-01T09:34:57.944Z</time>
      </trkpt>
      <trkpt lat="43.1415596" lon="-2.8159213">
        <ele>209.912</ele>
        <time>2021-04-01T09:34:57.999Z</time>
      </trkpt>
      <trkpt lat="43.1415634" lon="-2.8159198">
        <ele>209.901</ele>
        <time>2021-04-01T09:34:58.054Z</time>
      </trkpt>
      <trkpt lat="43.1415673" lon="-2.8159186">
        <ele>209.886</ele>
        <time>2021-04-01T09:34:58.109Z</time>
      </trkpt>
      <trkpt lat="43.1415712" lon="-2.8159176">
        <ele>209.856</ele>
        <time>2021-04-01T09:34:58.164Z</time>
      </trkpt>
      <trkpt lat="43.1415751" lon="-2.8159165">
        <ele>209.837</ele>
        <time>2021-04-01T09:34:58.219Z</time>
      </trkpt>
      <trkpt lat="43.141579" lon="-2.8159153">
        <ele>209.826</ele>
        <time>2021-04-01T09:34:58.274Z</time>
      </trkpt>
      <trkpt lat="43.1415828" lon="-2.8159143">
        <ele>209.785</ele>
        <time>2021-04-01T09:34:58.329Z</time>
      </trkpt>
      <trkpt lat="43.1415867" lon="-2.8159132">
        <ele>209.762</ele>
        <time>2021-04-01T09:34:58.384Z</time>
      </trkpt>
      <trkpt lat="43.1415905" lon="-2.8159121">
        <ele>209.748</ele>
        <time>2021-04-01T09:34:58.439Z</time>
      </trkpt>
      <trkpt lat="43.1415944" lon="-2.8159109">
        <ele>209.746</ele>
        <time>2021-04-01T09:34:58.494Z</time>
      </trkpt>
      <trkpt lat="43.1415983" lon="-2.81591">
        <ele>209.75</ele>
        <time>2021-04-01T09:34:58.549Z</time>
      </trkpt>
      <trkpt lat="43.1416023" lon="-2.8159093">
        <ele>209.736</ele>
        <time>2021-04-01T09:34:58.604Z</time>
      </trkpt>
      <trkpt lat="43.1416064" lon="-2.8159086">
        <ele>209.708</ele>
        <time>2021-04-01T09:34:58.659Z</time>
      </trkpt>
      <trkpt lat="43.1416103" lon="-2.8159076">
        <ele>209.704</ele>
        <time>2021-04-01T09:34:58.714Z</time>
      </trkpt>
      <trkpt lat="43.1416143" lon="-2.8159069">
        <ele>209.673</ele>
        <time>2021-04-01T09:34:58.769Z</time>
      </trkpt>
      <trkpt lat="43.1416184" lon="-2.8159062">
        <ele>209.694</ele>
        <time>2021-04-01T09:34:58.824Z</time>
      </trkpt>
      <trkpt lat="43.1416223" lon="-2.8159053">
        <ele>209.664</ele>
        <time>2021-04-01T09:34:58.879Z</time>
      </trkpt>
      <trkpt lat="43.1416261" lon="-2.8159045">
        <ele>209.632</ele>
        <time>2021-04-01T09:34:58.934Z</time>
      </trkpt>
      <trkpt lat="43.1416302" lon="-2.8159037">
        <ele>209.64</ele>
        <time>2021-04-01T09:34:58.992Z</time>
      </trkpt>
      <trkpt lat="43.1416342" lon="-2.8159027">
        <ele>209.631</ele>
        <time>2021-04-01T09:34:59.050Z</time>
      </trkpt>
      <trkpt lat="43.1416382" lon="-2.8159018">
        <ele>209.602</ele>
        <time>2021-04-01T09:34:59.108Z</time>
      </trkpt>
      <trkpt lat="43.1416422" lon="-2.815901">
        <ele>209.6</ele>
        <time>2021-04-01T09:34:59.166Z</time>
      </trkpt>
      <trkpt lat="43.1416461" lon="-2.8159001">
        <ele>209.572</ele>
        <time>2021-04-01T09:34:59.224Z</time>
      </trkpt>
      <trkpt lat="43.1416501" lon="-2.8158993">
        <ele>209.567</ele>
        <time>2021-04-01T09:34:59.282Z</time>
      </trkpt>
      <trkpt lat="43.1416541" lon="-2.8158984">
        <ele>209.555</ele>
        <time>2021-04-01T09:34:59.340Z</time>
      </trkpt>
      <trkpt lat="43.1416581" lon="-2.8158976">
        <ele>209.53</ele>
        <time>2021-04-01T09:34:59.398Z</time>
      </trkpt>
      <trkpt lat="43.1416622" lon="-2.8158968">
        <ele>209.517</ele>
        <time>2021-04-01T09:34:59.456Z</time>
      </trkpt>
      <trkpt lat="43.1416663" lon="-2.815896">
        <ele>209.501</ele>
        <time>2021-04-01T09:34:59.514Z</time>
      </trkpt>
      <trkpt lat="43.1416705" lon="-2.8158952">
        <ele>209.484</ele>
        <time>2021-04-01T09:34:59.572Z</time>
      </trkpt>
      <trkpt lat="43.1416746" lon="-2.8158945">
        <ele>209.479</ele>
        <time>2021-04-01T09:34:59.630Z</time>
      </trkpt>
      <trkpt lat="43.1416787" lon="-2.8158937">
        <ele>209.463</ele>
        <time>2021-04-01T09:34:59.688Z</time>
      </trkpt>
      <trkpt lat="43.1416829" lon="-2.8158929">
        <ele>209.422</ele>
        <time>2021-04-01T09:34:59.746Z</time>
      </trkpt>
      <trkpt lat="43.141687" lon="-2.8158921">
        <ele>209.396</ele>
        <time>2021-04-01T09:34:59.804Z</time>
      </trkpt>
      <trkpt lat="43.141691" lon="-2.8158911">
        <ele>209.361</ele>
        <time>2021-04-01T09:34:59.862Z</time>
      </trkpt>
      <trkpt lat="43.141695" lon="-2.8158901">
        <ele>209.351</ele>
        <time>2021-04-01T09:34:59.920Z</time>
      </trkpt>
      <trkpt lat="43.1416991" lon="-2.8158892">
        <ele>209.315</ele>
        <time>2021-04-01T09:34:59.979Z</time>
      </trkpt>
      <trkpt lat="43.1417034" lon="-2.8158882">
        <ele>209.277</ele>
        <time>2021-04-01T09:35:00.028Z</time>
      </trkpt>
      <trkpt lat="43.1417076" lon="-2.8158872">
        <ele>209.273</ele>
        <time>2021-04-01T09:35:00.077Z</time>
      </trkpt>
      <trkpt lat="43.1417116" lon="-2.8158861">
        <ele>209.254</ele>
        <time>2021-04-01T09:35:00.126Z</time>
      </trkpt>
      <trkpt lat="43.1417157" lon="-2.815885">
        <ele>209.232</ele>
        <time>2021-04-01T09:35:00.175Z</time>
      </trkpt>
      <trkpt lat="43.1417198" lon="-2.815884">
        <ele>209.212</ele>
        <time>2021-04-01T09:35:00.225Z</time>
      </trkpt>
      <trkpt lat="43.141724" lon="-2.8158831">
        <ele>209.18</ele>
        <time>2021-04-01T09:35:00.274Z</time>
      </trkpt>
      <trkpt lat="43.141728" lon="-2.815882">
        <ele>209.164</ele>
        <time>2021-04-01T09:35:00.323Z</time>
      </trkpt>
      <trkpt lat="43.1417323" lon="-2.8158809">
        <ele>209.15</ele>
        <time>2021-04-01T09:35:00.372Z</time>
      </trkpt>
      <trkpt lat="43.141736" lon="-2.8158796">
        <ele>209.129</ele>
        <time>2021-04-01T09:35:00.421Z</time>
      </trkpt>
      <trkpt lat="43.1417399" lon="-2.8158783">
        <ele>209.106</ele>
        <time>2021-04-01T09:35:00.471Z</time>
      </trkpt>
      <trkpt lat="43.141744" lon="-2.815877">
        <ele>209.091</ele>
        <time>2021-04-01T09:35:00.520Z</time>
      </trkpt>
      <trkpt lat="43.1417481" lon="-2.8158757">
        <ele>209.074</ele>
        <time>2021-04-01T09:35:00.569Z</time>
      </trkpt>
      <trkpt lat="43.1417523" lon="-2.8158745">
        <ele>209.046</ele>
        <time>2021-04-01T09:35:00.618Z</time>
      </trkpt>
      <trkpt lat="43.1417564" lon="-2.8158735">
        <ele>209.034</ele>
        <time>2021-04-01T09:35:00.667Z</time>
      </trkpt>
      <trkpt lat="43.1417604" lon="-2.8158721">
        <ele>208.998</ele>
        <time>2021-04-01T09:35:00.717Z</time>
      </trkpt>
      <trkpt lat="43.1417646" lon="-2.815871">
        <ele>208.964</ele>
        <time>2021-04-01T09:35:00.766Z</time>
      </trkpt>
      <trkpt lat="43.1417682" lon="-2.8158691">
        <ele>208.952</ele>
        <time>2021-04-01T09:35:00.815Z</time>
      </trkpt>
      <trkpt lat="43.1417722" lon="-2.8158676">
        <ele>208.952</ele>
        <time>2021-04-01T09:35:00.864Z</time>
      </trkpt>
      <trkpt lat="43.141776" lon="-2.8158661">
        <ele>208.947</ele>
        <time>2021-04-01T09:35:00.914Z</time>
      </trkpt>
      <trkpt lat="43.1417803" lon="-2.8158648">
        <ele>208.919</ele>
        <time>2021-04-01T09:35:00.972Z</time>
      </trkpt>
      <trkpt lat="43.1417847" lon="-2.8158635">
        <ele>208.9</ele>
        <time>2021-04-01T09:35:01.030Z</time>
      </trkpt>
      <trkpt lat="43.1417888" lon="-2.815862">
        <ele>208.884</ele>
        <time>2021-04-01T09:35:01.088Z</time>
      </trkpt>
      <trkpt lat="43.1417928" lon="-2.8158603">
        <ele>208.882</ele>
        <time>2021-04-01T09:35:01.146Z</time>
      </trkpt>
      <trkpt lat="43.1417968" lon="-2.8158587">
        <ele>208.871</ele>
        <time>2021-04-01T09:35:01.205Z</time>
      </trkpt>
      <trkpt lat="43.1418049" lon="-2.8158554">
        <ele>208.83</ele>
        <time>2021-04-01T09:35:01.263Z</time>
      </trkpt>
      <trkpt lat="43.1418089" lon="-2.8158537">
        <ele>208.803</ele>
        <time>2021-04-01T09:35:01.321Z</time>
      </trkpt>
      <trkpt lat="43.1418126" lon="-2.8158516">
        <ele>208.775</ele>
        <time>2021-04-01T09:35:01.379Z</time>
      </trkpt>
      <trkpt lat="43.1418163" lon="-2.8158493">
        <ele>208.77</ele>
        <time>2021-04-01T09:35:01.438Z</time>
      </trkpt>
      <trkpt lat="43.1418203" lon="-2.8158472">
        <ele>208.769</ele>
        <time>2021-04-01T09:35:01.496Z</time>
      </trkpt>
      <trkpt lat="43.1418242" lon="-2.8158452">
        <ele>208.75</ele>
        <time>2021-04-01T09:35:01.554Z</time>
      </trkpt>
      <trkpt lat="43.141828" lon="-2.8158429">
        <ele>208.727</ele>
        <time>2021-04-01T09:35:01.612Z</time>
      </trkpt>
      <trkpt lat="43.1418318" lon="-2.8158406">
        <ele>208.726</ele>
        <time>2021-04-01T09:35:01.671Z</time>
      </trkpt>
      <trkpt lat="43.1418355" lon="-2.8158381">
        <ele>208.712</ele>
        <time>2021-04-01T09:35:01.729Z</time>
      </trkpt>
      <trkpt lat="43.1418394" lon="-2.8158358">
        <ele>208.704</ele>
        <time>2021-04-01T09:35:01.787Z</time>
      </trkpt>
      <trkpt lat="43.1418432" lon="-2.8158335">
        <ele>208.694</ele>
        <time>2021-04-01T09:35:01.845Z</time>
      </trkpt>
      <trkpt lat="43.1418468" lon="-2.8158312">
        <ele>208.646</ele>
        <time>2021-04-01T09:35:01.904Z</time>
      </trkpt>
      <trkpt lat="43.1418505" lon="-2.8158288">
        <ele>208.615</ele>
        <time>2021-04-01T09:35:01.962Z</time>
      </trkpt>
      <trkpt lat="43.1418543" lon="-2.8158264">
        <ele>208.622</ele>
        <time>2021-04-01T09:35:02.020Z</time>
      </trkpt>
      <trkpt lat="43.1418579" lon="-2.8158238">
        <ele>208.611</ele>
        <time>2021-04-01T09:35:02.078Z</time>
      </trkpt>
      <trkpt lat="43.1418617" lon="-2.8158214">
        <ele>208.6</ele>
        <time>2021-04-01T09:35:02.136Z</time>
      </trkpt>
      <trkpt lat="43.1418652" lon="-2.8158189">
        <ele>208.577</ele>
        <time>2021-04-01T09:35:02.194Z</time>
      </trkpt>
      <trkpt lat="43.1418688" lon="-2.8158163">
        <ele>208.556</ele>
        <time>2021-04-01T09:35:02.252Z</time>
      </trkpt>
      <trkpt lat="43.1418725" lon="-2.8158137">
        <ele>208.552</ele>
        <time>2021-04-01T09:35:02.310Z</time>
      </trkpt>
      <trkpt lat="43.1418763" lon="-2.8158114">
        <ele>208.539</ele>
        <time>2021-04-01T09:35:02.368Z</time>
      </trkpt>
      <trkpt lat="43.1418797" lon="-2.8158086">
        <ele>208.522</ele>
        <time>2021-04-01T09:35:02.426Z</time>
      </trkpt>
      <trkpt lat="43.1418833" lon="-2.8158058">
        <ele>208.512</ele>
        <time>2021-04-01T09:35:02.484Z</time>
      </trkpt>
      <trkpt lat="43.1418869" lon="-2.8158031">
        <ele>208.524</ele>
        <time>2021-04-01T09:35:02.542Z</time>
      </trkpt>
      <trkpt lat="43.1418904" lon="-2.8158005">
        <ele>208.504</ele>
        <time>2021-04-01T09:35:02.600Z</time>
      </trkpt>
      <trkpt lat="43.1418942" lon="-2.8157979">
        <ele>208.497</ele>
        <time>2021-04-01T09:35:02.658Z</time>
      </trkpt>
      <trkpt lat="43.1418979" lon="-2.8157951">
        <ele>208.493</ele>
        <time>2021-04-01T09:35:02.716Z</time>
      </trkpt>
      <trkpt lat="43.1419017" lon="-2.8157921">
        <ele>208.491</ele>
        <time>2021-04-01T09:35:02.774Z</time>
      </trkpt>
      <trkpt lat="43.1419054" lon="-2.8157894">
        <ele>208.511</ele>
        <time>2021-04-01T09:35:02.832Z</time>
      </trkpt>
      <trkpt lat="43.141909" lon="-2.8157866">
        <ele>208.517</ele>
        <time>2021-04-01T09:35:02.890Z</time>
      </trkpt>
      <trkpt lat="43.1419125" lon="-2.8157838">
        <ele>208.495</ele>
        <time>2021-04-01T09:35:02.949Z</time>
      </trkpt>
      <trkpt lat="43.141916" lon="-2.8157809">
        <ele>208.503</ele>
        <time>2021-04-01T09:35:03.007Z</time>
      </trkpt>
      <trkpt lat="43.1419196" lon="-2.8157781">
        <ele>208.518</ele>
        <time>2021-04-01T09:35:03.065Z</time>
      </trkpt>
      <trkpt lat="43.1419229" lon="-2.8157751">
        <ele>208.509</ele>
        <time>2021-04-01T09:35:03.123Z</time>
      </trkpt>
      <trkpt lat="43.1419262" lon="-2.815772">
        <ele>208.484</ele>
        <time>2021-04-01T09:35:03.181Z</time>
      </trkpt>
      <trkpt lat="43.1419298" lon="-2.8157695">
        <ele>208.458</ele>
        <time>2021-04-01T09:35:03.239Z</time>
      </trkpt>
      <trkpt lat="43.1419331" lon="-2.8157665">
        <ele>208.446</ele>
        <time>2021-04-01T09:35:03.297Z</time>
      </trkpt>
      <trkpt lat="43.1419368" lon="-2.8157635">
        <ele>208.474</ele>
        <time>2021-04-01T09:35:03.355Z</time>
      </trkpt>
      <trkpt lat="43.1419398" lon="-2.8157603">
        <ele>208.439</ele>
        <time>2021-04-01T09:35:03.413Z</time>
      </trkpt>
      <trkpt lat="43.1419432" lon="-2.8157572">
        <ele>208.444</ele>
        <time>2021-04-01T09:35:03.471Z</time>
      </trkpt>
      <trkpt lat="43.1419467" lon="-2.815754">
        <ele>208.457</ele>
        <time>2021-04-01T09:35:03.529Z</time>
      </trkpt>
      <trkpt lat="43.1419503" lon="-2.8157509">
        <ele>208.503</ele>
        <time>2021-04-01T09:35:03.587Z</time>
      </trkpt>
      <trkpt lat="43.1419536" lon="-2.8157476">
        <ele>208.5</ele>
        <time>2021-04-01T09:35:03.645Z</time>
      </trkpt>
      <trkpt lat="43.1419568" lon="-2.8157441">
        <ele>208.493</ele>
        <time>2021-04-01T09:35:03.703Z</time>
      </trkpt>
      <trkpt lat="43.1419603" lon="-2.8157406">
        <ele>208.508</ele>
        <time>2021-04-01T09:35:03.761Z</time>
      </trkpt>
      <trkpt lat="43.1419635" lon="-2.8157373">
        <ele>208.505</ele>
        <time>2021-04-01T09:35:03.819Z</time>
      </trkpt>
      <trkpt lat="43.1419668" lon="-2.815734">
        <ele>208.516</ele>
        <time>2021-04-01T09:35:03.877Z</time>
      </trkpt>
      <trkpt lat="43.1419704" lon="-2.8157309">
        <ele>208.555</ele>
        <time>2021-04-01T09:35:03.935Z</time>
      </trkpt>
      <trkpt lat="43.1419738" lon="-2.8157277">
        <ele>208.556</ele>
        <time>2021-04-01T09:35:03.994Z</time>
      </trkpt>
      <trkpt lat="43.141977" lon="-2.8157244">
        <ele>208.525</ele>
        <time>2021-04-01T09:35:04.045Z</time>
      </trkpt>
      <trkpt lat="43.1419804" lon="-2.8157212">
        <ele>208.514</ele>
        <time>2021-04-01T09:35:04.097Z</time>
      </trkpt>
      <trkpt lat="43.1419837" lon="-2.815718">
        <ele>208.518</ele>
        <time>2021-04-01T09:35:04.149Z</time>
      </trkpt>
      <trkpt lat="43.1419869" lon="-2.8157146">
        <ele>208.507</ele>
        <time>2021-04-01T09:35:04.201Z</time>
      </trkpt>
      <trkpt lat="43.1419901" lon="-2.8157112">
        <ele>208.498</ele>
        <time>2021-04-01T09:35:04.253Z</time>
      </trkpt>
      <trkpt lat="43.1419934" lon="-2.8157079">
        <ele>208.497</ele>
        <time>2021-04-01T09:35:04.305Z</time>
      </trkpt>
      <trkpt lat="43.1419968" lon="-2.8157047">
        <ele>208.513</ele>
        <time>2021-04-01T09:35:04.357Z</time>
      </trkpt>
      <trkpt lat="43.1420001" lon="-2.8157014">
        <ele>208.515</ele>
        <time>2021-04-01T09:35:04.409Z</time>
      </trkpt>
      <trkpt lat="43.1420034" lon="-2.8156981">
        <ele>208.514</ele>
        <time>2021-04-01T09:35:04.461Z</time>
      </trkpt>
      <trkpt lat="43.1420066" lon="-2.8156947">
        <ele>208.512</ele>
        <time>2021-04-01T09:35:04.513Z</time>
      </trkpt>
      <trkpt lat="43.1420097" lon="-2.815691">
        <ele>208.55</ele>
        <time>2021-04-01T09:35:04.565Z</time>
      </trkpt>
      <trkpt lat="43.1420129" lon="-2.8156874">
        <ele>208.562</ele>
        <time>2021-04-01T09:35:04.617Z</time>
      </trkpt>
      <trkpt lat="43.142016" lon="-2.8156836">
        <ele>208.586</ele>
        <time>2021-04-01T09:35:04.669Z</time>
      </trkpt>
      <trkpt lat="43.1420189" lon="-2.8156798">
        <ele>208.606</ele>
        <time>2021-04-01T09:35:04.721Z</time>
      </trkpt>
      <trkpt lat="43.1420221" lon="-2.8156765">
        <ele>208.594</ele>
        <time>2021-04-01T09:35:04.773Z</time>
      </trkpt>
      <trkpt lat="43.1420254" lon="-2.815673">
        <ele>208.607</ele>
        <time>2021-04-01T09:35:04.825Z</time>
      </trkpt>
      <trkpt lat="43.1420285" lon="-2.8156691">
        <ele>208.598</ele>
        <time>2021-04-01T09:35:04.877Z</time>
      </trkpt>
      <trkpt lat="43.1420316" lon="-2.8156655">
        <ele>208.599</ele>
        <time>2021-04-01T09:35:04.929Z</time>
      </trkpt>
      <trkpt lat="43.1420347" lon="-2.8156619">
        <ele>208.625</ele>
        <time>2021-04-01T09:35:04.984Z</time>
      </trkpt>
      <trkpt lat="43.1420377" lon="-2.8156581">
        <ele>208.62</ele>
        <time>2021-04-01T09:35:05.039Z</time>
      </trkpt>
      <trkpt lat="43.1420409" lon="-2.8156545">
        <ele>208.62</ele>
        <time>2021-04-01T09:35:05.094Z</time>
      </trkpt>
      <trkpt lat="43.142044" lon="-2.8156507">
        <ele>208.611</ele>
        <time>2021-04-01T09:35:05.149Z</time>
      </trkpt>
      <trkpt lat="43.1420471" lon="-2.815647">
        <ele>208.614</ele>
        <time>2021-04-01T09:35:05.204Z</time>
      </trkpt>
      <trkpt lat="43.14205" lon="-2.8156432">
        <ele>208.609</ele>
        <time>2021-04-01T09:35:05.259Z</time>
      </trkpt>
      <trkpt lat="43.1420528" lon="-2.8156393">
        <ele>208.58</ele>
        <time>2021-04-01T09:35:05.314Z</time>
      </trkpt>
      <trkpt lat="43.1420558" lon="-2.8156356">
        <ele>208.568</ele>
        <time>2021-04-01T09:35:05.369Z</time>
      </trkpt>
      <trkpt lat="43.1420589" lon="-2.8156319">
        <ele>208.586</ele>
        <time>2021-04-01T09:35:05.424Z</time>
      </trkpt>
      <trkpt lat="43.1420622" lon="-2.8156281">
        <ele>208.585</ele>
        <time>2021-04-01T09:35:05.479Z</time>
      </trkpt>
      <trkpt lat="43.1420652" lon="-2.8156244">
        <ele>208.574</ele>
        <time>2021-04-01T09:35:05.534Z</time>
      </trkpt>
      <trkpt lat="43.1420682" lon="-2.8156206">
        <ele>208.549</ele>
        <time>2021-04-01T09:35:05.589Z</time>
      </trkpt>
      <trkpt lat="43.1420712" lon="-2.8156167">
        <ele>208.53</ele>
        <time>2021-04-01T09:35:05.644Z</time>
      </trkpt>
      <trkpt lat="43.1420741" lon="-2.8156127">
        <ele>208.51</ele>
        <time>2021-04-01T09:35:05.699Z</time>
      </trkpt>
      <trkpt lat="43.142077" lon="-2.8156088">
        <ele>208.517</ele>
        <time>2021-04-01T09:35:05.754Z</time>
      </trkpt>
      <trkpt lat="43.1420799" lon="-2.8156049">
        <ele>208.495</ele>
        <time>2021-04-01T09:35:05.809Z</time>
      </trkpt>
      <trkpt lat="43.1420829" lon="-2.815601">
        <ele>208.48</ele>
        <time>2021-04-01T09:35:05.864Z</time>
      </trkpt>
      <trkpt lat="43.1420857" lon="-2.8155969">
        <ele>208.491</ele>
        <time>2021-04-01T09:35:05.919Z</time>
      </trkpt>
      <trkpt lat="43.1420885" lon="-2.8155929">
        <ele>208.468</ele>
        <time>2021-04-01T09:35:05.974Z</time>
      </trkpt>
      <trkpt lat="43.1420912" lon="-2.8155889">
        <ele>208.444</ele>
        <time>2021-04-01T09:35:06.029Z</time>
      </trkpt>
      <trkpt lat="43.1420939" lon="-2.8155849">
        <ele>208.434</ele>
        <time>2021-04-01T09:35:06.084Z</time>
      </trkpt>
      <trkpt lat="43.1420966" lon="-2.8155806">
        <ele>208.413</ele>
        <time>2021-04-01T09:35:06.139Z</time>
      </trkpt>
      <trkpt lat="43.1420994" lon="-2.8155765">
        <ele>208.413</ele>
        <time>2021-04-01T09:35:06.194Z</time>
      </trkpt>
      <trkpt lat="43.1421023" lon="-2.8155725">
        <ele>208.406</ele>
        <time>2021-04-01T09:35:06.249Z</time>
      </trkpt>
      <trkpt lat="43.1421051" lon="-2.8155684">
        <ele>208.413</ele>
        <time>2021-04-01T09:35:06.304Z</time>
      </trkpt>
      <trkpt lat="43.142108" lon="-2.8155645">
        <ele>208.399</ele>
        <time>2021-04-01T09:35:06.359Z</time>
      </trkpt>
      <trkpt lat="43.1421106" lon="-2.8155605">
        <ele>208.376</ele>
        <time>2021-04-01T09:35:06.414Z</time>
      </trkpt>
      <trkpt lat="43.1421134" lon="-2.8155564">
        <ele>208.373</ele>
        <time>2021-04-01T09:35:06.469Z</time>
      </trkpt>
      <trkpt lat="43.1421161" lon="-2.8155522">
        <ele>208.361</ele>
        <time>2021-04-01T09:35:06.524Z</time>
      </trkpt>
      <trkpt lat="43.1421189" lon="-2.815548">
        <ele>208.342</ele>
        <time>2021-04-01T09:35:06.579Z</time>
      </trkpt>
      <trkpt lat="43.1421217" lon="-2.815544">
        <ele>208.338</ele>
        <time>2021-04-01T09:35:06.634Z</time>
      </trkpt>
      <trkpt lat="43.1421243" lon="-2.81554">
        <ele>208.312</ele>
        <time>2021-04-01T09:35:06.689Z</time>
      </trkpt>
      <trkpt lat="43.1421269" lon="-2.8155359">
        <ele>208.286</ele>
        <time>2021-04-01T09:35:06.744Z</time>
      </trkpt>
      <trkpt lat="43.1421298" lon="-2.8155319">
        <ele>208.278</ele>
        <time>2021-04-01T09:35:06.799Z</time>
      </trkpt>
      <trkpt lat="43.1421324" lon="-2.8155277">
        <ele>208.26</ele>
        <time>2021-04-01T09:35:06.854Z</time>
      </trkpt>
      <trkpt lat="43.1421352" lon="-2.8155236">
        <ele>208.248</ele>
        <time>2021-04-01T09:35:06.909Z</time>
      </trkpt>
      <trkpt lat="43.1421382" lon="-2.8155197">
        <ele>208.266</ele>
        <time>2021-04-01T09:35:06.964Z</time>
      </trkpt>
      <trkpt lat="43.1421412" lon="-2.8155158">
        <ele>208.257</ele>
        <time>2021-04-01T09:35:07.019Z</time>
      </trkpt>
      <trkpt lat="43.1421439" lon="-2.8155117">
        <ele>208.233</ele>
        <time>2021-04-01T09:35:07.074Z</time>
      </trkpt>
      <trkpt lat="43.1421467" lon="-2.8155077">
        <ele>208.224</ele>
        <time>2021-04-01T09:35:07.129Z</time>
      </trkpt>
      <trkpt lat="43.1421496" lon="-2.8155038">
        <ele>208.219</ele>
        <time>2021-04-01T09:35:07.184Z</time>
      </trkpt>
      <trkpt lat="43.1421524" lon="-2.8154998">
        <ele>208.211</ele>
        <time>2021-04-01T09:35:07.239Z</time>
      </trkpt>
      <trkpt lat="43.1421555" lon="-2.8154959">
        <ele>208.188</ele>
        <time>2021-04-01T09:35:07.294Z</time>
      </trkpt>
      <trkpt lat="43.1421583" lon="-2.815492">
        <ele>208.189</ele>
        <time>2021-04-01T09:35:07.349Z</time>
      </trkpt>
      <trkpt lat="43.1421611" lon="-2.8154879">
        <ele>208.179</ele>
        <time>2021-04-01T09:35:07.404Z</time>
      </trkpt>
      <trkpt lat="43.1421642" lon="-2.8154841">
        <ele>208.166</ele>
        <time>2021-04-01T09:35:07.459Z</time>
      </trkpt>
      <trkpt lat="43.1421672" lon="-2.8154804">
        <ele>208.151</ele>
        <time>2021-04-01T09:35:07.514Z</time>
      </trkpt>
      <trkpt lat="43.1421699" lon="-2.8154765">
        <ele>208.11</ele>
        <time>2021-04-01T09:35:07.569Z</time>
      </trkpt>
      <trkpt lat="43.1421731" lon="-2.8154723">
        <ele>208.13</ele>
        <time>2021-04-01T09:35:07.624Z</time>
      </trkpt>
      <trkpt lat="43.1421761" lon="-2.8154686">
        <ele>208.1</ele>
        <time>2021-04-01T09:35:07.679Z</time>
      </trkpt>
      <trkpt lat="43.142179" lon="-2.815465">
        <ele>208.075</ele>
        <time>2021-04-01T09:35:07.734Z</time>
      </trkpt>
      <trkpt lat="43.1421817" lon="-2.8154613">
        <ele>207.982</ele>
        <time>2021-04-01T09:35:07.789Z</time>
      </trkpt>
      <trkpt lat="43.1421848" lon="-2.8154577">
        <ele>207.949</ele>
        <time>2021-04-01T09:35:07.844Z</time>
      </trkpt>
      <trkpt lat="43.142188" lon="-2.8154542">
        <ele>207.937</ele>
        <time>2021-04-01T09:35:07.899Z</time>
      </trkpt>
      <trkpt lat="43.1421916" lon="-2.8154508">
        <ele>207.884</ele>
        <time>2021-04-01T09:35:07.954Z</time>
      </trkpt>
      <trkpt lat="43.1421949" lon="-2.8154473">
        <ele>207.858</ele>
        <time>2021-04-01T09:35:08.009Z</time>
      </trkpt>
      <trkpt lat="43.142198" lon="-2.8154439">
        <ele>207.829</ele>
        <time>2021-04-01T09:35:08.064Z</time>
      </trkpt>
      <trkpt lat="43.1422008" lon="-2.8154403">
        <ele>207.801</ele>
        <time>2021-04-01T09:35:08.119Z</time>
      </trkpt>
      <trkpt lat="43.1422035" lon="-2.8154366">
        <ele>207.779</ele>
        <time>2021-04-01T09:35:08.174Z</time>
      </trkpt>
      <trkpt lat="43.1422068" lon="-2.8154328">
        <ele>207.761</ele>
        <time>2021-04-01T09:35:08.229Z</time>
      </trkpt>
      <trkpt lat="43.1422098" lon="-2.815429">
        <ele>207.743</ele>
        <time>2021-04-01T09:35:08.284Z</time>
      </trkpt>
      <trkpt lat="43.1422125" lon="-2.8154253">
        <ele>207.715</ele>
        <time>2021-04-01T09:35:08.339Z</time>
      </trkpt>
      <trkpt lat="43.1422155" lon="-2.8154215">
        <ele>207.71</ele>
        <time>2021-04-01T09:35:08.394Z</time>
      </trkpt>
      <trkpt lat="43.1422187" lon="-2.8154179">
        <ele>207.685</ele>
        <time>2021-04-01T09:35:08.449Z</time>
      </trkpt>
      <trkpt lat="43.1422221" lon="-2.8154148">
        <ele>207.664</ele>
        <time>2021-04-01T09:35:08.504Z</time>
      </trkpt>
      <trkpt lat="43.1422259" lon="-2.8154118">
        <ele>207.647</ele>
        <time>2021-04-01T09:35:08.559Z</time>
      </trkpt>
      <trkpt lat="43.1422292" lon="-2.8154085">
        <ele>207.639</ele>
        <time>2021-04-01T09:35:08.614Z</time>
      </trkpt>
      <trkpt lat="43.1422326" lon="-2.8154052">
        <ele>207.635</ele>
        <time>2021-04-01T09:35:08.669Z</time>
      </trkpt>
      <trkpt lat="43.1422362" lon="-2.815402">
        <ele>207.66</ele>
        <time>2021-04-01T09:35:08.724Z</time>
      </trkpt>
      <trkpt lat="43.14224" lon="-2.8153991">
        <ele>207.677</ele>
        <time>2021-04-01T09:35:08.779Z</time>
      </trkpt>
      <trkpt lat="43.142244" lon="-2.815396">
        <ele>207.698</ele>
        <time>2021-04-01T09:35:08.834Z</time>
      </trkpt>
      <trkpt lat="43.142247" lon="-2.8153925">
        <ele>207.691</ele>
        <time>2021-04-01T09:35:08.889Z</time>
      </trkpt>
      <trkpt lat="43.1422501" lon="-2.8153893">
        <ele>207.631</ele>
        <time>2021-04-01T09:35:08.944Z</time>
      </trkpt>
      <trkpt lat="43.1422534" lon="-2.8153861">
        <ele>207.592</ele>
        <time>2021-04-01T09:35:08.996Z</time>
      </trkpt>
      <trkpt lat="43.1422573" lon="-2.8153836">
        <ele>207.56</ele>
        <time>2021-04-01T09:35:09.048Z</time>
      </trkpt>
      <trkpt lat="43.1422611" lon="-2.8153807">
        <ele>207.591</ele>
        <time>2021-04-01T09:35:09.100Z</time>
      </trkpt>
      <trkpt lat="43.1422647" lon="-2.815378">
        <ele>207.573</ele>
        <time>2021-04-01T09:35:09.152Z</time>
      </trkpt>
      <trkpt lat="43.1422684" lon="-2.8153755">
        <ele>207.562</ele>
        <time>2021-04-01T09:35:09.204Z</time>
      </trkpt>
      <trkpt lat="43.1422724" lon="-2.8153732">
        <ele>207.534</ele>
        <time>2021-04-01T09:35:09.256Z</time>
      </trkpt>
      <trkpt lat="43.1422765" lon="-2.8153709">
        <ele>207.524</ele>
        <time>2021-04-01T09:35:09.308Z</time>
      </trkpt>
      <trkpt lat="43.14228" lon="-2.8153682">
        <ele>207.496</ele>
        <time>2021-04-01T09:35:09.360Z</time>
      </trkpt>
      <trkpt lat="43.1422839" lon="-2.8153659">
        <ele>207.457</ele>
        <time>2021-04-01T09:35:09.412Z</time>
      </trkpt>
      <trkpt lat="43.142288" lon="-2.8153639">
        <ele>207.424</ele>
        <time>2021-04-01T09:35:09.465Z</time>
      </trkpt>
      <trkpt lat="43.1422922" lon="-2.815362">
        <ele>207.409</ele>
        <time>2021-04-01T09:35:09.517Z</time>
      </trkpt>
      <trkpt lat="43.1422959" lon="-2.8153597">
        <ele>207.344</ele>
        <time>2021-04-01T09:35:09.569Z</time>
      </trkpt>
      <trkpt lat="43.1422997" lon="-2.8153573">
        <ele>207.304</ele>
        <time>2021-04-01T09:35:09.621Z</time>
      </trkpt>
      <trkpt lat="43.1423034" lon="-2.8153551">
        <ele>207.231</ele>
        <time>2021-04-01T09:35:09.673Z</time>
      </trkpt>
      <trkpt lat="43.1423072" lon="-2.8153532">
        <ele>207.184</ele>
        <time>2021-04-01T09:35:09.725Z</time>
      </trkpt>
      <trkpt lat="43.1423111" lon="-2.8153515">
        <ele>207.121</ele>
        <time>2021-04-01T09:35:09.777Z</time>
      </trkpt>
      <trkpt lat="43.1423151" lon="-2.8153497">
        <ele>207.082</ele>
        <time>2021-04-01T09:35:09.829Z</time>
      </trkpt>
      <trkpt lat="43.142319" lon="-2.8153482">
        <ele>207.013</ele>
        <time>2021-04-01T09:35:09.881Z</time>
      </trkpt>
      <trkpt lat="43.1423233" lon="-2.8153467">
        <ele>206.965</ele>
        <time>2021-04-01T09:35:09.934Z</time>
      </trkpt>
      <trkpt lat="43.1423277" lon="-2.8153456">
        <ele>206.927</ele>
        <time>2021-04-01T09:35:09.992Z</time>
      </trkpt>
      <trkpt lat="43.1423319" lon="-2.8153442">
        <ele>206.898</ele>
        <time>2021-04-01T09:35:10.050Z</time>
      </trkpt>
      <trkpt lat="43.1423361" lon="-2.8153425">
        <ele>206.883</ele>
        <time>2021-04-01T09:35:10.108Z</time>
      </trkpt>
      <trkpt lat="43.1423402" lon="-2.8153411">
        <ele>206.844</ele>
        <time>2021-04-01T09:35:10.166Z</time>
      </trkpt>
      <trkpt lat="43.1423443" lon="-2.8153397">
        <ele>206.838</ele>
        <time>2021-04-01T09:35:10.225Z</time>
      </trkpt>
      <trkpt lat="43.1423484" lon="-2.8153384">
        <ele>206.812</ele>
        <time>2021-04-01T09:35:10.283Z</time>
      </trkpt>
      <trkpt lat="43.1423526" lon="-2.8153371">
        <ele>206.785</ele>
        <time>2021-04-01T09:35:10.341Z</time>
      </trkpt>
      <trkpt lat="43.1423567" lon="-2.8153362">
        <ele>206.731</ele>
        <time>2021-04-01T09:35:10.399Z</time>
      </trkpt>
      <trkpt lat="43.1423611" lon="-2.8153355">
        <ele>206.712</ele>
        <time>2021-04-01T09:35:10.458Z</time>
      </trkpt>
      <trkpt lat="43.1423653" lon="-2.8153343">
        <ele>206.734</ele>
        <time>2021-04-01T09:35:10.516Z</time>
      </trkpt>
      <trkpt lat="43.1423693" lon="-2.8153335">
        <ele>206.68</ele>
        <time>2021-04-01T09:35:10.574Z</time>
      </trkpt>
      <trkpt lat="43.1423735" lon="-2.8153328">
        <ele>206.626</ele>
        <time>2021-04-01T09:35:10.632Z</time>
      </trkpt>
      <trkpt lat="43.1423779" lon="-2.8153324">
        <ele>206.574</ele>
        <time>2021-04-01T09:35:10.691Z</time>
      </trkpt>
      <trkpt lat="43.1423823" lon="-2.815332">
        <ele>206.53</ele>
        <time>2021-04-01T09:35:10.749Z</time>
      </trkpt>
      <trkpt lat="43.1423865" lon="-2.8153317">
        <ele>206.483</ele>
        <time>2021-04-01T09:35:10.807Z</time>
      </trkpt>
      <trkpt lat="43.1423907" lon="-2.8153313">
        <ele>206.477</ele>
        <time>2021-04-01T09:35:10.865Z</time>
      </trkpt>
      <trkpt lat="43.142395" lon="-2.8153309">
        <ele>206.438</ele>
        <time>2021-04-01T09:35:10.924Z</time>
      </trkpt>
      <trkpt lat="43.1423993" lon="-2.8153307">
        <ele>206.4</ele>
        <time>2021-04-01T09:35:10.979Z</time>
      </trkpt>
      <trkpt lat="43.1424036" lon="-2.8153303">
        <ele>206.397</ele>
        <time>2021-04-01T09:35:11.034Z</time>
      </trkpt>
      <trkpt lat="43.1424079" lon="-2.8153303">
        <ele>206.348</ele>
        <time>2021-04-01T09:35:11.089Z</time>
      </trkpt>
      <trkpt lat="43.1424123" lon="-2.8153302">
        <ele>206.302</ele>
        <time>2021-04-01T09:35:11.144Z</time>
      </trkpt>
      <trkpt lat="43.1424165" lon="-2.8153302">
        <ele>206.296</ele>
        <time>2021-04-01T09:35:11.199Z</time>
      </trkpt>
      <trkpt lat="43.1424208" lon="-2.8153303">
        <ele>206.284</ele>
        <time>2021-04-01T09:35:11.254Z</time>
      </trkpt>
      <trkpt lat="43.1424252" lon="-2.8153306">
        <ele>206.24</ele>
        <time>2021-04-01T09:35:11.309Z</time>
      </trkpt>
      <trkpt lat="43.1424296" lon="-2.8153309">
        <ele>206.216</ele>
        <time>2021-04-01T09:35:11.364Z</time>
      </trkpt>
      <trkpt lat="43.142434" lon="-2.8153314">
        <ele>206.174</ele>
        <time>2021-04-01T09:35:11.419Z</time>
      </trkpt>
      <trkpt lat="43.1424384" lon="-2.8153318">
        <ele>206.135</ele>
        <time>2021-04-01T09:35:11.474Z</time>
      </trkpt>
      <trkpt lat="43.1424428" lon="-2.8153321">
        <ele>206.139</ele>
        <time>2021-04-01T09:35:11.529Z</time>
      </trkpt>
      <trkpt lat="43.1424473" lon="-2.8153326">
        <ele>206.129</ele>
        <time>2021-04-01T09:35:11.584Z</time>
      </trkpt>
      <trkpt lat="43.1424517" lon="-2.8153332">
        <ele>206.117</ele>
        <time>2021-04-01T09:35:11.639Z</time>
      </trkpt>
      <trkpt lat="43.1424561" lon="-2.8153339">
        <ele>206.111</ele>
        <time>2021-04-01T09:35:11.694Z</time>
      </trkpt>
      <trkpt lat="43.1424604" lon="-2.8153345">
        <ele>206.1</ele>
        <time>2021-04-01T09:35:11.749Z</time>
      </trkpt>
      <trkpt lat="43.1424649" lon="-2.8153356">
        <ele>206.066</ele>
        <time>2021-04-01T09:35:11.804Z</time>
      </trkpt>
      <trkpt lat="43.1424694" lon="-2.8153364">
        <ele>206.036</ele>
        <time>2021-04-01T09:35:11.859Z</time>
      </trkpt>
      <trkpt lat="43.1424738" lon="-2.8153379">
        <ele>206.006</ele>
        <time>2021-04-01T09:35:11.914Z</time>
      </trkpt>
      <trkpt lat="43.1424783" lon="-2.815339">
        <ele>205.99</ele>
        <time>2021-04-01T09:35:11.969Z</time>
      </trkpt>
      <trkpt lat="43.1424828" lon="-2.8153402">
        <ele>205.972</ele>
        <time>2021-04-01T09:35:12.024Z</time>
      </trkpt>
      <trkpt lat="43.1424872" lon="-2.8153415">
        <ele>205.952</ele>
        <time>2021-04-01T09:35:12.079Z</time>
      </trkpt>
      <trkpt lat="43.1424918" lon="-2.8153429">
        <ele>205.925</ele>
        <time>2021-04-01T09:35:12.134Z</time>
      </trkpt>
      <trkpt lat="43.1424963" lon="-2.8153442">
        <ele>205.922</ele>
        <time>2021-04-01T09:35:12.189Z</time>
      </trkpt>
      <trkpt lat="43.142501" lon="-2.8153456">
        <ele>205.945</ele>
        <time>2021-04-01T09:35:12.244Z</time>
      </trkpt>
      <trkpt lat="43.1425055" lon="-2.8153472">
        <ele>205.942</ele>
        <time>2021-04-01T09:35:12.299Z</time>
      </trkpt>
      <trkpt lat="43.1425099" lon="-2.815349">
        <ele>205.921</ele>
        <time>2021-04-01T09:35:12.354Z</time>
      </trkpt>
      <trkpt lat="43.1425142" lon="-2.8153507">
        <ele>205.926</ele>
        <time>2021-04-01T09:35:12.409Z</time>
      </trkpt>
      <trkpt lat="43.1425186" lon="-2.8153525">
        <ele>205.961</ele>
        <time>2021-04-01T09:35:12.464Z</time>
      </trkpt>
      <trkpt lat="43.1425228" lon="-2.8153542">
        <ele>205.962</ele>
        <time>2021-04-01T09:35:12.519Z</time>
      </trkpt>
      <trkpt lat="43.1425272" lon="-2.815356">
        <ele>205.978</ele>
        <time>2021-04-01T09:35:12.574Z</time>
      </trkpt>
      <trkpt lat="43.1425318" lon="-2.8153583">
        <ele>205.989</ele>
        <time>2021-04-01T09:35:12.629Z</time>
      </trkpt>
      <trkpt lat="43.1425362" lon="-2.8153604">
        <ele>205.993</ele>
        <time>2021-04-01T09:35:12.684Z</time>
      </trkpt>
      <trkpt lat="43.1425404" lon="-2.8153623">
        <ele>205.988</ele>
        <time>2021-04-01T09:35:12.739Z</time>
      </trkpt>
      <trkpt lat="43.1425447" lon="-2.8153645">
        <ele>205.978</ele>
        <time>2021-04-01T09:35:12.794Z</time>
      </trkpt>
      <trkpt lat="43.1425492" lon="-2.8153667">
        <ele>205.962</ele>
        <time>2021-04-01T09:35:12.849Z</time>
      </trkpt>
      <trkpt lat="43.1425537" lon="-2.8153689">
        <ele>205.942</ele>
        <time>2021-04-01T09:35:12.904Z</time>
      </trkpt>
      <trkpt lat="43.1425579" lon="-2.8153715">
        <ele>205.896</ele>
        <time>2021-04-01T09:35:12.959Z</time>
      </trkpt>
      <trkpt lat="43.1425625" lon="-2.8153739">
        <ele>205.88</ele>
        <time>2021-04-01T09:35:13.014Z</time>
      </trkpt>
      <trkpt lat="43.1425671" lon="-2.8153763">
        <ele>205.892</ele>
        <time>2021-04-01T09:35:13.069Z</time>
      </trkpt>
      <trkpt lat="43.1425715" lon="-2.8153791">
        <ele>205.862</ele>
        <time>2021-04-01T09:35:13.124Z</time>
      </trkpt>
      <trkpt lat="43.1425756" lon="-2.8153818">
        <ele>205.814</ele>
        <time>2021-04-01T09:35:13.179Z</time>
      </trkpt>
      <trkpt lat="43.14258" lon="-2.8153842">
        <ele>205.761</ele>
        <time>2021-04-01T09:35:13.234Z</time>
      </trkpt>
      <trkpt lat="43.1425847" lon="-2.8153865">
        <ele>205.706</ele>
        <time>2021-04-01T09:35:13.289Z</time>
      </trkpt>
      <trkpt lat="43.1425893" lon="-2.8153891">
        <ele>205.697</ele>
        <time>2021-04-01T09:35:13.344Z</time>
      </trkpt>
      <trkpt lat="43.1425933" lon="-2.8153923">
        <ele>205.674</ele>
        <time>2021-04-01T09:35:13.399Z</time>
      </trkpt>
      <trkpt lat="43.1425975" lon="-2.8153951">
        <ele>205.658</ele>
        <time>2021-04-01T09:35:13.454Z</time>
      </trkpt>
      <trkpt lat="43.1426018" lon="-2.8153975">
        <ele>205.597</ele>
        <time>2021-04-01T09:35:13.509Z</time>
      </trkpt>
      <trkpt lat="43.1426062" lon="-2.8154004">
        <ele>205.56</ele>
        <time>2021-04-01T09:35:13.564Z</time>
      </trkpt>
      <trkpt lat="43.1426106" lon="-2.8154033">
        <ele>205.539</ele>
        <time>2021-04-01T09:35:13.619Z</time>
      </trkpt>
      <trkpt lat="43.1426149" lon="-2.8154064">
        <ele>205.52</ele>
        <time>2021-04-01T09:35:13.674Z</time>
      </trkpt>
      <trkpt lat="43.1426192" lon="-2.8154095">
        <ele>205.487</ele>
        <time>2021-04-01T09:35:13.729Z</time>
      </trkpt>
      <trkpt lat="43.1426239" lon="-2.8154129">
        <ele>205.457</ele>
        <time>2021-04-01T09:35:13.784Z</time>
      </trkpt>
      <trkpt lat="43.1426284" lon="-2.8154164">
        <ele>205.449</ele>
        <time>2021-04-01T09:35:13.839Z</time>
      </trkpt>
      <trkpt lat="43.1426324" lon="-2.8154194">
        <ele>205.406</ele>
        <time>2021-04-01T09:35:13.894Z</time>
      </trkpt>
      <trkpt lat="43.1426367" lon="-2.8154231">
        <ele>205.404</ele>
        <time>2021-04-01T09:35:13.949Z</time>
      </trkpt>
      <trkpt lat="43.1426414" lon="-2.815427">
        <ele>205.401</ele>
        <time>2021-04-01T09:35:14.004Z</time>
      </trkpt>
      <trkpt lat="43.1426458" lon="-2.8154302">
        <ele>205.379</ele>
        <time>2021-04-01T09:35:14.059Z</time>
      </trkpt>
      <trkpt lat="43.1426502" lon="-2.8154336">
        <ele>205.356</ele>
        <time>2021-04-01T09:35:14.114Z</time>
      </trkpt>
      <trkpt lat="43.1426546" lon="-2.8154367">
        <ele>205.349</ele>
        <time>2021-04-01T09:35:14.169Z</time>
      </trkpt>
      <trkpt lat="43.1426588" lon="-2.81544">
        <ele>205.341</ele>
        <time>2021-04-01T09:35:14.224Z</time>
      </trkpt>
      <trkpt lat="43.142663" lon="-2.8154435">
        <ele>205.332</ele>
        <time>2021-04-01T09:35:14.279Z</time>
      </trkpt>
      <trkpt lat="43.1426674" lon="-2.8154473">
        <ele>205.319</ele>
        <time>2021-04-01T09:35:14.334Z</time>
      </trkpt>
      <trkpt lat="43.1426718" lon="-2.8154511">
        <ele>205.301</ele>
        <time>2021-04-01T09:35:14.389Z</time>
      </trkpt>
      <trkpt lat="43.142676" lon="-2.8154554">
        <ele>205.279</ele>
        <time>2021-04-01T09:35:14.444Z</time>
      </trkpt>
      <trkpt lat="43.1426804" lon="-2.8154588">
        <ele>205.252</ele>
        <time>2021-04-01T09:35:14.499Z</time>
      </trkpt>
      <trkpt lat="43.1426845" lon="-2.8154626">
        <ele>205.24</ele>
        <time>2021-04-01T09:35:14.554Z</time>
      </trkpt>
      <trkpt lat="43.1426883" lon="-2.8154669">
        <ele>205.209</ele>
        <time>2021-04-01T09:35:14.609Z</time>
      </trkpt>
      <trkpt lat="43.1426924" lon="-2.8154708">
        <ele>205.162</ele>
        <time>2021-04-01T09:35:14.664Z</time>
      </trkpt>
      <trkpt lat="43.1426966" lon="-2.8154745">
        <ele>205.108</ele>
        <time>2021-04-01T09:35:14.719Z</time>
      </trkpt>
      <trkpt lat="43.1427008" lon="-2.8154784">
        <ele>205.043</ele>
        <time>2021-04-01T09:35:14.774Z</time>
      </trkpt>
      <trkpt lat="43.1427048" lon="-2.815482">
        <ele>204.953</ele>
        <time>2021-04-01T09:35:14.829Z</time>
      </trkpt>
      <trkpt lat="43.142709" lon="-2.815486">
        <ele>204.923</ele>
        <time>2021-04-01T09:35:14.884Z</time>
      </trkpt>
      <trkpt lat="43.142713" lon="-2.8154896">
        <ele>204.912</ele>
        <time>2021-04-01T09:35:14.939Z</time>
      </trkpt>
      <trkpt lat="43.1427173" lon="-2.8154936">
        <ele>204.858</ele>
        <time>2021-04-01T09:35:14.994Z</time>
      </trkpt>
      <trkpt lat="43.1427215" lon="-2.8154975">
        <ele>204.797</ele>
        <time>2021-04-01T09:35:15.049Z</time>
      </trkpt>
      <trkpt lat="43.1427256" lon="-2.8155017">
        <ele>204.788</ele>
        <time>2021-04-01T09:35:15.104Z</time>
      </trkpt>
      <trkpt lat="43.1427296" lon="-2.8155058">
        <ele>204.749</ele>
        <time>2021-04-01T09:35:15.159Z</time>
      </trkpt>
      <trkpt lat="43.1427337" lon="-2.8155101">
        <ele>204.719</ele>
        <time>2021-04-01T09:35:15.214Z</time>
      </trkpt>
      <trkpt lat="43.1427377" lon="-2.8155143">
        <ele>204.704</ele>
        <time>2021-04-01T09:35:15.269Z</time>
      </trkpt>
      <trkpt lat="43.1427418" lon="-2.815519">
        <ele>204.733</ele>
        <time>2021-04-01T09:35:15.324Z</time>
      </trkpt>
      <trkpt lat="43.1427457" lon="-2.8155231">
        <ele>204.681</ele>
        <time>2021-04-01T09:35:15.379Z</time>
      </trkpt>
      <trkpt lat="43.1427497" lon="-2.8155272">
        <ele>204.623</ele>
        <time>2021-04-01T09:35:15.434Z</time>
      </trkpt>
      <trkpt lat="43.1427538" lon="-2.8155318">
        <ele>204.591</ele>
        <time>2021-04-01T09:35:15.489Z</time>
      </trkpt>
      <trkpt lat="43.1427579" lon="-2.815536">
        <ele>204.567</ele>
        <time>2021-04-01T09:35:15.544Z</time>
      </trkpt>
      <trkpt lat="43.1427619" lon="-2.8155406">
        <ele>204.544</ele>
        <time>2021-04-01T09:35:15.599Z</time>
      </trkpt>
      <trkpt lat="43.1427658" lon="-2.8155451">
        <ele>204.511</ele>
        <time>2021-04-01T09:35:15.654Z</time>
      </trkpt>
      <trkpt lat="43.1427697" lon="-2.8155496">
        <ele>204.5</ele>
        <time>2021-04-01T09:35:15.709Z</time>
      </trkpt>
      <trkpt lat="43.1427737" lon="-2.8155541">
        <ele>204.485</ele>
        <time>2021-04-01T09:35:15.764Z</time>
      </trkpt>
      <trkpt lat="43.1427776" lon="-2.8155587">
        <ele>204.433</ele>
        <time>2021-04-01T09:35:15.819Z</time>
      </trkpt>
      <trkpt lat="43.1427815" lon="-2.8155636">
        <ele>204.413</ele>
        <time>2021-04-01T09:35:15.874Z</time>
      </trkpt>
      <trkpt lat="43.1427853" lon="-2.8155682">
        <ele>204.401</ele>
        <time>2021-04-01T09:35:15.929Z</time>
      </trkpt>
      <trkpt lat="43.1427891" lon="-2.815573">
        <ele>204.385</ele>
        <time>2021-04-01T09:35:15.984Z</time>
      </trkpt>
      <trkpt lat="43.142793" lon="-2.8155781">
        <ele>204.363</ele>
        <time>2021-04-01T09:35:16.039Z</time>
      </trkpt>
      <trkpt lat="43.1427969" lon="-2.8155828">
        <ele>204.321</ele>
        <time>2021-04-01T09:35:16.094Z</time>
      </trkpt>
      <trkpt lat="43.1428007" lon="-2.8155874">
        <ele>204.266</ele>
        <time>2021-04-01T09:35:16.149Z</time>
      </trkpt>
      <trkpt lat="43.1428044" lon="-2.8155922">
        <ele>204.24</ele>
        <time>2021-04-01T09:35:16.204Z</time>
      </trkpt>
      <trkpt lat="43.1428082" lon="-2.8155975">
        <ele>204.207</ele>
        <time>2021-04-01T09:35:16.259Z</time>
      </trkpt>
      <trkpt lat="43.1428119" lon="-2.8156024">
        <ele>204.193</ele>
        <time>2021-04-01T09:35:16.314Z</time>
      </trkpt>
      <trkpt lat="43.1428158" lon="-2.8156075">
        <ele>204.175</ele>
        <time>2021-04-01T09:35:16.369Z</time>
      </trkpt>
      <trkpt lat="43.1428195" lon="-2.8156127">
        <ele>204.134</ele>
        <time>2021-04-01T09:35:16.424Z</time>
      </trkpt>
      <trkpt lat="43.142823" lon="-2.815618">
        <ele>204.083</ele>
        <time>2021-04-01T09:35:16.479Z</time>
      </trkpt>
      <trkpt lat="43.1428266" lon="-2.8156233">
        <ele>204.041</ele>
        <time>2021-04-01T09:35:16.534Z</time>
      </trkpt>
      <trkpt lat="43.1428302" lon="-2.8156285">
        <ele>204.031</ele>
        <time>2021-04-01T09:35:16.589Z</time>
      </trkpt>
      <trkpt lat="43.1428339" lon="-2.815634">
        <ele>204.004</ele>
        <time>2021-04-01T09:35:16.644Z</time>
      </trkpt>
      <trkpt lat="43.1428377" lon="-2.8156395">
        <ele>203.948</ele>
        <time>2021-04-01T09:35:16.699Z</time>
      </trkpt>
      <trkpt lat="43.1428415" lon="-2.8156444">
        <ele>203.859</ele>
        <time>2021-04-01T09:35:16.754Z</time>
      </trkpt>
      <trkpt lat="43.142845" lon="-2.8156493">
        <ele>203.83</ele>
        <time>2021-04-01T09:35:16.809Z</time>
      </trkpt>
      <trkpt lat="43.1428483" lon="-2.8156544">
        <ele>203.746</ele>
        <time>2021-04-01T09:35:16.864Z</time>
      </trkpt>
      <trkpt lat="43.1428516" lon="-2.81566">
        <ele>203.702</ele>
        <time>2021-04-01T09:35:16.919Z</time>
      </trkpt>
      <trkpt lat="43.1428551" lon="-2.8156654">
        <ele>203.688</ele>
        <time>2021-04-01T09:35:16.974Z</time>
      </trkpt>
      <trkpt lat="43.1428587" lon="-2.8156704">
        <ele>203.624</ele>
        <time>2021-04-01T09:35:17.029Z</time>
      </trkpt>
      <trkpt lat="43.1428623" lon="-2.8156758">
        <ele>203.568</ele>
        <time>2021-04-01T09:35:17.084Z</time>
      </trkpt>
      <trkpt lat="43.142866" lon="-2.8156816">
        <ele>203.549</ele>
        <time>2021-04-01T09:35:17.139Z</time>
      </trkpt>
      <trkpt lat="43.1428697" lon="-2.8156871">
        <ele>203.522</ele>
        <time>2021-04-01T09:35:17.194Z</time>
      </trkpt>
      <trkpt lat="43.1428733" lon="-2.8156928">
        <ele>203.518</ele>
        <time>2021-04-01T09:35:17.249Z</time>
      </trkpt>
      <trkpt lat="43.1428768" lon="-2.8156982">
        <ele>203.465</ele>
        <time>2021-04-01T09:35:17.304Z</time>
      </trkpt>
      <trkpt lat="43.1428802" lon="-2.8157039">
        <ele>203.42</ele>
        <time>2021-04-01T09:35:17.359Z</time>
      </trkpt>
      <trkpt lat="43.1428836" lon="-2.8157093">
        <ele>203.384</ele>
        <time>2021-04-01T09:35:17.414Z</time>
      </trkpt>
      <trkpt lat="43.1428871" lon="-2.8157148">
        <ele>203.351</ele>
        <time>2021-04-01T09:35:17.469Z</time>
      </trkpt>
      <trkpt lat="43.1428906" lon="-2.8157205">
        <ele>203.3</ele>
        <time>2021-04-01T09:35:17.524Z</time>
      </trkpt>
      <trkpt lat="43.142894" lon="-2.8157262">
        <ele>203.279</ele>
        <time>2021-04-01T09:35:17.579Z</time>
      </trkpt>
      <trkpt lat="43.1428975" lon="-2.815732">
        <ele>203.236</ele>
        <time>2021-04-01T09:35:17.634Z</time>
      </trkpt>
      <trkpt lat="43.1429008" lon="-2.8157376">
        <ele>203.196</ele>
        <time>2021-04-01T09:35:17.689Z</time>
      </trkpt>
      <trkpt lat="43.1429042" lon="-2.8157433">
        <ele>203.161</ele>
        <time>2021-04-01T09:35:17.744Z</time>
      </trkpt>
      <trkpt lat="43.1429078" lon="-2.815749">
        <ele>203.1</ele>
        <time>2021-04-01T09:35:17.799Z</time>
      </trkpt>
      <trkpt lat="43.1429114" lon="-2.8157548">
        <ele>203.054</ele>
        <time>2021-04-01T09:35:17.854Z</time>
      </trkpt>
      <trkpt lat="43.1429148" lon="-2.8157606">
        <ele>203.022</ele>
        <time>2021-04-01T09:35:17.909Z</time>
      </trkpt>
      <trkpt lat="43.1429182" lon="-2.8157664">
        <ele>203.004</ele>
        <time>2021-04-01T09:35:17.964Z</time>
      </trkpt>
      <trkpt lat="43.1429215" lon="-2.8157721">
        <ele>202.967</ele>
        <time>2021-04-01T09:35:18.016Z</time>
      </trkpt>
      <trkpt lat="43.1429248" lon="-2.815778">
        <ele>202.932</ele>
        <time>2021-04-01T09:35:18.068Z</time>
      </trkpt>
      <trkpt lat="43.1429283" lon="-2.815784">
        <ele>202.905</ele>
        <time>2021-04-01T09:35:18.120Z</time>
      </trkpt>
      <trkpt lat="43.1429318" lon="-2.8157899">
        <ele>202.882</ele>
        <time>2021-04-01T09:35:18.172Z</time>
      </trkpt>
      <trkpt lat="43.1429353" lon="-2.8157955">
        <ele>202.855</ele>
        <time>2021-04-01T09:35:18.224Z</time>
      </trkpt>
      <trkpt lat="43.1429387" lon="-2.8158014">
        <ele>202.809</ele>
        <time>2021-04-01T09:35:18.276Z</time>
      </trkpt>
      <trkpt lat="43.1429418" lon="-2.8158071">
        <ele>202.762</ele>
        <time>2021-04-01T09:35:18.328Z</time>
      </trkpt>
      <trkpt lat="43.142945" lon="-2.8158127">
        <ele>202.74</ele>
        <time>2021-04-01T09:35:18.380Z</time>
      </trkpt>
      <trkpt lat="43.1429483" lon="-2.8158186">
        <ele>202.736</ele>
        <time>2021-04-01T09:35:18.432Z</time>
      </trkpt>
      <trkpt lat="43.1429518" lon="-2.8158244">
        <ele>202.714</ele>
        <time>2021-04-01T09:35:18.485Z</time>
      </trkpt>
      <trkpt lat="43.142955" lon="-2.8158302">
        <ele>202.658</ele>
        <time>2021-04-01T09:35:18.537Z</time>
      </trkpt>
      <trkpt lat="43.1429583" lon="-2.815836">
        <ele>202.62</ele>
        <time>2021-04-01T09:35:18.589Z</time>
      </trkpt>
      <trkpt lat="43.1429617" lon="-2.8158419">
        <ele>202.57</ele>
        <time>2021-04-01T09:35:18.641Z</time>
      </trkpt>
      <trkpt lat="43.1429651" lon="-2.8158477">
        <ele>202.529</ele>
        <time>2021-04-01T09:35:18.693Z</time>
      </trkpt>
      <trkpt lat="43.1429681" lon="-2.8158533">
        <ele>202.482</ele>
        <time>2021-04-01T09:35:18.745Z</time>
      </trkpt>
      <trkpt lat="43.1429715" lon="-2.8158591">
        <ele>202.463</ele>
        <time>2021-04-01T09:35:18.797Z</time>
      </trkpt>
      <trkpt lat="43.1429749" lon="-2.8158649">
        <ele>202.445</ele>
        <time>2021-04-01T09:35:18.849Z</time>
      </trkpt>
      <trkpt lat="43.1429783" lon="-2.8158709">
        <ele>202.414</ele>
        <time>2021-04-01T09:35:18.901Z</time>
      </trkpt>
      <trkpt lat="43.1429816" lon="-2.8158765">
        <ele>202.377</ele>
        <time>2021-04-01T09:35:18.954Z</time>
      </trkpt>
      <trkpt lat="43.1429852" lon="-2.8158823">
        <ele>202.351</ele>
        <time>2021-04-01T09:35:19.012Z</time>
      </trkpt>
      <trkpt lat="43.1429885" lon="-2.8158883">
        <ele>202.33</ele>
        <time>2021-04-01T09:35:19.070Z</time>
      </trkpt>
      <trkpt lat="43.1429918" lon="-2.8158944">
        <ele>202.288</ele>
        <time>2021-04-01T09:35:19.128Z</time>
      </trkpt>
      <trkpt lat="43.1429951" lon="-2.8159004">
        <ele>202.267</ele>
        <time>2021-04-01T09:35:19.186Z</time>
      </trkpt>
      <trkpt lat="43.1429982" lon="-2.8159062">
        <ele>202.253</ele>
        <time>2021-04-01T09:35:19.245Z</time>
      </trkpt>
      <trkpt lat="43.1430016" lon="-2.8159121">
        <ele>202.233</ele>
        <time>2021-04-01T09:35:19.303Z</time>
      </trkpt>
      <trkpt lat="43.143005" lon="-2.8159183">
        <ele>202.194</ele>
        <time>2021-04-01T09:35:19.361Z</time>
      </trkpt>
      <trkpt lat="43.1430082" lon="-2.8159242">
        <ele>202.147</ele>
        <time>2021-04-01T09:35:19.419Z</time>
      </trkpt>
      <trkpt lat="43.1430114" lon="-2.8159302">
        <ele>202.123</ele>
        <time>2021-04-01T09:35:19.478Z</time>
      </trkpt>
      <trkpt lat="43.1430147" lon="-2.8159363">
        <ele>202.083</ele>
        <time>2021-04-01T09:35:19.536Z</time>
      </trkpt>
      <trkpt lat="43.143018" lon="-2.8159424">
        <ele>202.056</ele>
        <time>2021-04-01T09:35:19.594Z</time>
      </trkpt>
      <trkpt lat="43.1430213" lon="-2.8159484">
        <ele>202.055</ele>
        <time>2021-04-01T09:35:19.652Z</time>
      </trkpt>
      <trkpt lat="43.1430244" lon="-2.8159545">
        <ele>202.028</ele>
        <time>2021-04-01T09:35:19.711Z</time>
      </trkpt>
      <trkpt lat="43.1430274" lon="-2.8159605">
        <ele>201.985</ele>
        <time>2021-04-01T09:35:19.769Z</time>
      </trkpt>
      <trkpt lat="43.1430303" lon="-2.8159666">
        <ele>201.953</ele>
        <time>2021-04-01T09:35:19.827Z</time>
      </trkpt>
      <trkpt lat="43.1430334" lon="-2.8159726">
        <ele>201.926</ele>
        <time>2021-04-01T09:35:19.885Z</time>
      </trkpt>
      <trkpt lat="43.1430365" lon="-2.8159787">
        <ele>201.894</ele>
        <time>2021-04-01T09:35:19.944Z</time>
      </trkpt>
      <trkpt lat="43.1430395" lon="-2.8159848">
        <ele>201.864</ele>
        <time>2021-04-01T09:35:19.996Z</time>
      </trkpt>
      <trkpt lat="43.1430425" lon="-2.815991">
        <ele>201.813</ele>
        <time>2021-04-01T09:35:20.048Z</time>
      </trkpt>
      <trkpt lat="43.1430454" lon="-2.8159972">
        <ele>201.78</ele>
        <time>2021-04-01T09:35:20.100Z</time>
      </trkpt>
      <trkpt lat="43.1430482" lon="-2.8160036">
        <ele>201.749</ele>
        <time>2021-04-01T09:35:20.152Z</time>
      </trkpt>
      <trkpt lat="43.1430514" lon="-2.81601">
        <ele>201.705</ele>
        <time>2021-04-01T09:35:20.204Z</time>
      </trkpt>
      <trkpt lat="43.1430546" lon="-2.8160163">
        <ele>201.65</ele>
        <time>2021-04-01T09:35:20.256Z</time>
      </trkpt>
      <trkpt lat="43.1430576" lon="-2.8160223">
        <ele>201.6</ele>
        <time>2021-04-01T09:35:20.308Z</time>
      </trkpt>
      <trkpt lat="43.1430607" lon="-2.8160287">
        <ele>201.549</ele>
        <time>2021-04-01T09:35:20.360Z</time>
      </trkpt>
      <trkpt lat="43.1430637" lon="-2.8160348">
        <ele>201.526</ele>
        <time>2021-04-01T09:35:20.412Z</time>
      </trkpt>
      <trkpt lat="43.1430664" lon="-2.8160407">
        <ele>201.52</ele>
        <time>2021-04-01T09:35:20.465Z</time>
      </trkpt>
      <trkpt lat="43.1430695" lon="-2.816047">
        <ele>201.505</ele>
        <time>2021-04-01T09:35:20.517Z</time>
      </trkpt>
      <trkpt lat="43.1430728" lon="-2.8160529">
        <ele>201.52</ele>
        <time>2021-04-01T09:35:20.569Z</time>
      </trkpt>
      <trkpt lat="43.1430756" lon="-2.8160589">
        <ele>201.465</ele>
        <time>2021-04-01T09:35:20.621Z</time>
      </trkpt>
      <trkpt lat="43.1430787" lon="-2.8160653">
        <ele>201.436</ele>
        <time>2021-04-01T09:35:20.673Z</time>
      </trkpt>
      <trkpt lat="43.1430816" lon="-2.8160715">
        <ele>201.421</ele>
        <time>2021-04-01T09:35:20.725Z</time>
      </trkpt>
      <trkpt lat="43.1430849" lon="-2.8160779">
        <ele>201.385</ele>
        <time>2021-04-01T09:35:20.777Z</time>
      </trkpt>
      <trkpt lat="43.143088" lon="-2.8160842">
        <ele>201.381</ele>
        <time>2021-04-01T09:35:20.829Z</time>
      </trkpt>
      <trkpt lat="43.1430909" lon="-2.8160904">
        <ele>201.342</ele>
        <time>2021-04-01T09:35:20.881Z</time>
      </trkpt>
      <trkpt lat="43.1430933" lon="-2.8160965">
        <ele>201.327</ele>
        <time>2021-04-01T09:35:20.934Z</time>
      </trkpt>
      <trkpt lat="43.1430961" lon="-2.8161029">
        <ele>201.327</ele>
        <time>2021-04-01T09:35:20.992Z</time>
      </trkpt>
      <trkpt lat="43.1430988" lon="-2.816109">
        <ele>201.31</ele>
        <time>2021-04-01T09:35:21.050Z</time>
      </trkpt>
      <trkpt lat="43.1431014" lon="-2.8161151">
        <ele>201.274</ele>
        <time>2021-04-01T09:35:21.108Z</time>
      </trkpt>
      <trkpt lat="43.1431039" lon="-2.8161217">
        <ele>201.24</ele>
        <time>2021-04-01T09:35:21.166Z</time>
      </trkpt>
      <trkpt lat="43.1431059" lon="-2.8161274">
        <ele>201.158</ele>
        <time>2021-04-01T09:35:21.224Z</time>
      </trkpt>
      <trkpt lat="43.1431089" lon="-2.8161336">
        <ele>201.093</ele>
        <time>2021-04-01T09:35:21.282Z</time>
      </trkpt>
      <trkpt lat="43.1431117" lon="-2.8161396">
        <ele>201.024</ele>
        <time>2021-04-01T09:35:21.340Z</time>
      </trkpt>
      <trkpt lat="43.1431142" lon="-2.8161455">
        <ele>200.953</ele>
        <time>2021-04-01T09:35:21.398Z</time>
      </trkpt>
      <trkpt lat="43.1431168" lon="-2.8161514">
        <ele>200.878</ele>
        <time>2021-04-01T09:35:21.456Z</time>
      </trkpt>
      <trkpt lat="43.1431197" lon="-2.8161575">
        <ele>200.822</ele>
        <time>2021-04-01T09:35:21.514Z</time>
      </trkpt>
      <trkpt lat="43.1431222" lon="-2.8161636">
        <ele>200.756</ele>
        <time>2021-04-01T09:35:21.572Z</time>
      </trkpt>
      <trkpt lat="43.1431249" lon="-2.8161696">
        <ele>200.688</ele>
        <time>2021-04-01T09:35:21.630Z</time>
      </trkpt>
      <trkpt lat="43.1431275" lon="-2.8161756">
        <ele>200.648</ele>
        <time>2021-04-01T09:35:21.688Z</time>
      </trkpt>
      <trkpt lat="43.1431294" lon="-2.8161816">
        <ele>200.569</ele>
        <time>2021-04-01T09:35:21.746Z</time>
      </trkpt>
      <trkpt lat="43.1431314" lon="-2.8161874">
        <ele>200.56</ele>
        <time>2021-04-01T09:35:21.804Z</time>
      </trkpt>
      <trkpt lat="43.143133" lon="-2.8161929">
        <ele>200.545</ele>
        <time>2021-04-01T09:35:21.862Z</time>
      </trkpt>
      <trkpt lat="43.1431348" lon="-2.8161988">
        <ele>200.508</ele>
        <time>2021-04-01T09:35:21.920Z</time>
      </trkpt>
      <trkpt lat="43.1431368" lon="-2.8162046">
        <ele>200.514</ele>
        <time>2021-04-01T09:35:21.979Z</time>
      </trkpt>
      <trkpt lat="43.1431384" lon="-2.8162106">
        <ele>200.527</ele>
        <time>2021-04-01T09:35:22.034Z</time>
      </trkpt>
      <trkpt lat="43.1431401" lon="-2.8162171">
        <ele>200.475</ele>
        <time>2021-04-01T09:35:22.089Z</time>
      </trkpt>
      <trkpt lat="43.1431421" lon="-2.8162236">
        <ele>200.427</ele>
        <time>2021-04-01T09:35:22.144Z</time>
      </trkpt>
      <trkpt lat="43.1431445" lon="-2.8162301">
        <ele>200.364</ele>
        <time>2021-04-01T09:35:22.199Z</time>
      </trkpt>
      <trkpt lat="43.1431466" lon="-2.816236">
        <ele>200.253</ele>
        <time>2021-04-01T09:35:22.254Z</time>
      </trkpt>
      <trkpt lat="43.1431484" lon="-2.8162419">
        <ele>200.112</ele>
        <time>2021-04-01T09:35:22.309Z</time>
      </trkpt>
      <trkpt lat="43.1431506" lon="-2.816248">
        <ele>200.016</ele>
        <time>2021-04-01T09:35:22.364Z</time>
      </trkpt>
      <trkpt lat="43.1431528" lon="-2.8162539">
        <ele>199.993</ele>
        <time>2021-04-01T09:35:22.419Z</time>
      </trkpt>
      <trkpt lat="43.1431554" lon="-2.8162596">
        <ele>199.985</ele>
        <time>2021-04-01T09:35:22.474Z</time>
      </trkpt>
      <trkpt lat="43.1431573" lon="-2.8162665">
        <ele>199.969</ele>
        <time>2021-04-01T09:35:22.529Z</time>
      </trkpt>
      <trkpt lat="43.1431595" lon="-2.8162732">
        <ele>199.911</ele>
        <time>2021-04-01T09:35:22.584Z</time>
      </trkpt>
      <trkpt lat="43.1431612" lon="-2.8162799">
        <ele>199.873</ele>
        <time>2021-04-01T09:35:22.639Z</time>
      </trkpt>
      <trkpt lat="43.1431632" lon="-2.8162863">
        <ele>199.816</ele>
        <time>2021-04-01T09:35:22.694Z</time>
      </trkpt>
      <trkpt lat="43.1431655" lon="-2.8162929">
        <ele>199.761</ele>
        <time>2021-04-01T09:35:22.749Z</time>
      </trkpt>
      <trkpt lat="43.1431676" lon="-2.8162988">
        <ele>199.67</ele>
        <time>2021-04-01T09:35:22.804Z</time>
      </trkpt>
      <trkpt lat="43.1431693" lon="-2.816305">
        <ele>199.596</ele>
        <time>2021-04-01T09:35:22.859Z</time>
      </trkpt>
      <trkpt lat="43.1431712" lon="-2.8163114">
        <ele>199.506</ele>
        <time>2021-04-01T09:35:22.914Z</time>
      </trkpt>
      <trkpt lat="43.1431728" lon="-2.8163176">
        <ele>199.448</ele>
        <time>2021-04-01T09:35:22.969Z</time>
      </trkpt>
      <trkpt lat="43.1431747" lon="-2.8163235">
        <ele>199.35</ele>
        <time>2021-04-01T09:35:23.024Z</time>
      </trkpt>
      <trkpt lat="43.143177" lon="-2.8163295">
        <ele>199.255</ele>
        <time>2021-04-01T09:35:23.079Z</time>
      </trkpt>
      <trkpt lat="43.1431793" lon="-2.8163356">
        <ele>199.166</ele>
        <time>2021-04-01T09:35:23.134Z</time>
      </trkpt>
      <trkpt lat="43.1431816" lon="-2.8163418">
        <ele>199.043</ele>
        <time>2021-04-01T09:35:23.189Z</time>
      </trkpt>
      <trkpt lat="43.1431832" lon="-2.816348">
        <ele>198.995</ele>
        <time>2021-04-01T09:35:23.244Z</time>
      </trkpt>
      <trkpt lat="43.1431851" lon="-2.8163547">
        <ele>198.905</ele>
        <time>2021-04-01T09:35:23.299Z</time>
      </trkpt>
      <trkpt lat="43.1431876" lon="-2.8163611">
        <ele>198.789</ele>
        <time>2021-04-01T09:35:23.354Z</time>
      </trkpt>
      <trkpt lat="43.1431898" lon="-2.8163683">
        <ele>198.758</ele>
        <time>2021-04-01T09:35:23.409Z</time>
      </trkpt>
      <trkpt lat="43.1431926" lon="-2.8163752">
        <ele>198.699</ele>
        <time>2021-04-01T09:35:23.464Z</time>
      </trkpt>
      <trkpt lat="43.1431952" lon="-2.8163821">
        <ele>198.644</ele>
        <time>2021-04-01T09:35:23.519Z</time>
      </trkpt>
      <trkpt lat="43.1431976" lon="-2.8163888">
        <ele>198.565</ele>
        <time>2021-04-01T09:35:23.574Z</time>
      </trkpt>
      <trkpt lat="43.143199" lon="-2.8163965">
        <ele>198.512</ele>
        <time>2021-04-01T09:35:23.629Z</time>
      </trkpt>
      <trkpt lat="43.1432012" lon="-2.8164034">
        <ele>198.465</ele>
        <time>2021-04-01T09:35:23.684Z</time>
      </trkpt>
      <trkpt lat="43.1432034" lon="-2.8164102">
        <ele>198.447</ele>
        <time>2021-04-01T09:35:23.739Z</time>
      </trkpt>
      <trkpt lat="43.1432058" lon="-2.8164164">
        <ele>198.444</ele>
        <time>2021-04-01T09:35:23.794Z</time>
      </trkpt>
      <trkpt lat="43.1432087" lon="-2.8164229">
        <ele>198.443</ele>
        <time>2021-04-01T09:35:23.849Z</time>
      </trkpt>
      <trkpt lat="43.1432113" lon="-2.8164291">
        <ele>198.426</ele>
        <time>2021-04-01T09:35:23.904Z</time>
      </trkpt>
      <trkpt lat="43.1432144" lon="-2.8164358">
        <ele>198.376</ele>
        <time>2021-04-01T09:35:23.959Z</time>
      </trkpt>
      <trkpt lat="43.143217" lon="-2.8164419">
        <ele>198.318</ele>
        <time>2021-04-01T09:35:24.014Z</time>
      </trkpt>
      <trkpt lat="43.14322" lon="-2.8164475">
        <ele>198.25</ele>
        <time>2021-04-01T09:35:24.069Z</time>
      </trkpt>
      <trkpt lat="43.1432227" lon="-2.8164531">
        <ele>198.162</ele>
        <time>2021-04-01T09:35:24.124Z</time>
      </trkpt>
      <trkpt lat="43.1432256" lon="-2.8164585">
        <ele>198.015</ele>
        <time>2021-04-01T09:35:24.179Z</time>
      </trkpt>
      <trkpt lat="43.1432284" lon="-2.8164643">
        <ele>197.92</ele>
        <time>2021-04-01T09:35:24.234Z</time>
      </trkpt>
      <trkpt lat="43.1432312" lon="-2.8164698">
        <ele>197.81</ele>
        <time>2021-04-01T09:35:24.289Z</time>
      </trkpt>
      <trkpt lat="43.143234" lon="-2.8164752">
        <ele>197.697</ele>
        <time>2021-04-01T09:35:24.344Z</time>
      </trkpt>
      <trkpt lat="43.1432371" lon="-2.8164816">
        <ele>197.626</ele>
        <time>2021-04-01T09:35:24.399Z</time>
      </trkpt>
      <trkpt lat="43.1432397" lon="-2.8164881">
        <ele>197.623</ele>
        <time>2021-04-01T09:35:24.454Z</time>
      </trkpt>
      <trkpt lat="43.1432426" lon="-2.8164942">
        <ele>197.552</ele>
        <time>2021-04-01T09:35:24.509Z</time>
      </trkpt>
      <trkpt lat="43.1432447" lon="-2.8165015">
        <ele>197.512</ele>
        <time>2021-04-01T09:35:24.564Z</time>
      </trkpt>
      <trkpt lat="43.1432471" lon="-2.8165079">
        <ele>197.429</ele>
        <time>2021-04-01T09:35:24.619Z</time>
      </trkpt>
      <trkpt lat="43.1432498" lon="-2.8165142">
        <ele>197.328</ele>
        <time>2021-04-01T09:35:24.674Z</time>
      </trkpt>
      <trkpt lat="43.1432525" lon="-2.8165208">
        <ele>197.246</ele>
        <time>2021-04-01T09:35:24.729Z</time>
      </trkpt>
      <trkpt lat="43.1432551" lon="-2.8165266">
        <ele>197.171</ele>
        <time>2021-04-01T09:35:24.784Z</time>
      </trkpt>
      <trkpt lat="43.143258" lon="-2.8165327">
        <ele>197.126</ele>
        <time>2021-04-01T09:35:24.839Z</time>
      </trkpt>
      <trkpt lat="43.1432605" lon="-2.8165384">
        <ele>197.058</ele>
        <time>2021-04-01T09:35:24.894Z</time>
      </trkpt>
      <trkpt lat="43.1432628" lon="-2.8165447">
        <ele>197.011</ele>
        <time>2021-04-01T09:35:24.949Z</time>
      </trkpt>
      <trkpt lat="43.1432653" lon="-2.8165514">
        <ele>196.992</ele>
        <time>2021-04-01T09:35:25.004Z</time>
      </trkpt>
      <trkpt lat="43.1432682" lon="-2.8165572">
        <ele>196.887</ele>
        <time>2021-04-01T09:35:25.059Z</time>
      </trkpt>
      <trkpt lat="43.1432711" lon="-2.8165634">
        <ele>196.801</ele>
        <time>2021-04-01T09:35:25.114Z</time>
      </trkpt>
      <trkpt lat="43.143274" lon="-2.8165696">
        <ele>196.796</ele>
        <time>2021-04-01T09:35:25.169Z</time>
      </trkpt>
      <trkpt lat="43.143277" lon="-2.8165762">
        <ele>196.765</ele>
        <time>2021-04-01T09:35:25.224Z</time>
      </trkpt>
      <trkpt lat="43.1432802" lon="-2.8165823">
        <ele>196.747</ele>
        <time>2021-04-01T09:35:25.279Z</time>
      </trkpt>
      <trkpt lat="43.1432832" lon="-2.8165884">
        <ele>196.729</ele>
        <time>2021-04-01T09:35:25.334Z</time>
      </trkpt>
      <trkpt lat="43.1432867" lon="-2.8165944">
        <ele>196.7</ele>
        <time>2021-04-01T09:35:25.389Z</time>
      </trkpt>
      <trkpt lat="43.1432905" lon="-2.8166006">
        <ele>196.707</ele>
        <time>2021-04-01T09:35:25.444Z</time>
      </trkpt>
      <trkpt lat="43.1432943" lon="-2.8166065">
        <ele>196.733</ele>
        <time>2021-04-01T09:35:25.499Z</time>
      </trkpt>
      <trkpt lat="43.1432977" lon="-2.8166128">
        <ele>196.721</ele>
        <time>2021-04-01T09:35:25.554Z</time>
      </trkpt>
      <trkpt lat="43.1433014" lon="-2.8166194">
        <ele>196.698</ele>
        <time>2021-04-01T09:35:25.609Z</time>
      </trkpt>
      <trkpt lat="43.1433043" lon="-2.8166258">
        <ele>196.675</ele>
        <time>2021-04-01T09:35:25.664Z</time>
      </trkpt>
      <trkpt lat="43.1433076" lon="-2.8166318">
        <ele>196.7</ele>
        <time>2021-04-01T09:35:25.719Z</time>
      </trkpt>
      <trkpt lat="43.143311" lon="-2.8166378">
        <ele>196.702</ele>
        <time>2021-04-01T09:35:25.774Z</time>
      </trkpt>
      <trkpt lat="43.1433139" lon="-2.8166438">
        <ele>196.616</ele>
        <time>2021-04-01T09:35:25.829Z</time>
      </trkpt>
      <trkpt lat="43.1433168" lon="-2.8166496">
        <ele>196.496</ele>
        <time>2021-04-01T09:35:25.884Z</time>
      </trkpt>
      <trkpt lat="43.1433199" lon="-2.8166553">
        <ele>196.41</ele>
        <time>2021-04-01T09:35:25.939Z</time>
      </trkpt>
      <trkpt lat="43.1433233" lon="-2.8166605">
        <ele>196.307</ele>
        <time>2021-04-01T09:35:25.994Z</time>
      </trkpt>
      <trkpt lat="43.1433265" lon="-2.8166659">
        <ele>196.211</ele>
        <time>2021-04-01T09:35:26.045Z</time>
      </trkpt>
      <trkpt lat="43.1433301" lon="-2.8166709">
        <ele>196.186</ele>
        <time>2021-04-01T09:35:26.097Z</time>
      </trkpt>
      <trkpt lat="43.1433334" lon="-2.8166762">
        <ele>196.091</ele>
        <time>2021-04-01T09:35:26.149Z</time>
      </trkpt>
      <trkpt lat="43.1433365" lon="-2.8166818">
        <ele>195.97</ele>
        <time>2021-04-01T09:35:26.201Z</time>
      </trkpt>
      <trkpt lat="43.1433399" lon="-2.816688">
        <ele>195.959</ele>
        <time>2021-04-01T09:35:26.253Z</time>
      </trkpt>
      <trkpt lat="43.1433433" lon="-2.8166942">
        <ele>195.928</ele>
        <time>2021-04-01T09:35:26.305Z</time>
      </trkpt>
      <trkpt lat="43.1433468" lon="-2.8167006">
        <ele>195.952</ele>
        <time>2021-04-01T09:35:26.357Z</time>
      </trkpt>
      <trkpt lat="43.1433504" lon="-2.8167068">
        <ele>195.954</ele>
        <time>2021-04-01T09:35:26.409Z</time>
      </trkpt>
      <trkpt lat="43.143354" lon="-2.816713">
        <ele>195.942</ele>
        <time>2021-04-01T09:35:26.461Z</time>
      </trkpt>
      <trkpt lat="43.1433575" lon="-2.8167189">
        <ele>195.906</ele>
        <time>2021-04-01T09:35:26.513Z</time>
      </trkpt>
      <trkpt lat="43.143361" lon="-2.8167243">
        <ele>195.821</ele>
        <time>2021-04-01T09:35:26.565Z</time>
      </trkpt>
      <trkpt lat="43.1433642" lon="-2.8167299">
        <ele>195.765</ele>
        <time>2021-04-01T09:35:26.617Z</time>
      </trkpt>
      <trkpt lat="43.1433674" lon="-2.8167355">
        <ele>195.7</ele>
        <time>2021-04-01T09:35:26.669Z</time>
      </trkpt>
      <trkpt lat="43.143371" lon="-2.8167411">
        <ele>195.629</ele>
        <time>2021-04-01T09:35:26.721Z</time>
      </trkpt>
      <trkpt lat="43.1433747" lon="-2.816747">
        <ele>195.567</ele>
        <time>2021-04-01T09:35:26.773Z</time>
      </trkpt>
      <trkpt lat="43.1433782" lon="-2.8167527">
        <ele>195.503</ele>
        <time>2021-04-01T09:35:26.825Z</time>
      </trkpt>
      <trkpt lat="43.1433817" lon="-2.8167582">
        <ele>195.471</ele>
        <time>2021-04-01T09:35:26.877Z</time>
      </trkpt>
      <trkpt lat="43.1433853" lon="-2.816764">
        <ele>195.437</ele>
        <time>2021-04-01T09:35:26.929Z</time>
      </trkpt>
      <trkpt lat="43.1433886" lon="-2.8167696">
        <ele>195.379</ele>
        <time>2021-04-01T09:35:26.987Z</time>
      </trkpt>
      <trkpt lat="43.1433922" lon="-2.8167754">
        <ele>195.326</ele>
        <time>2021-04-01T09:35:27.045Z</time>
      </trkpt>
      <trkpt lat="43.1433957" lon="-2.8167807">
        <ele>195.235</ele>
        <time>2021-04-01T09:35:27.103Z</time>
      </trkpt>
      <trkpt lat="43.1433992" lon="-2.8167866">
        <ele>195.186</ele>
        <time>2021-04-01T09:35:27.161Z</time>
      </trkpt>
      <trkpt lat="43.1434023" lon="-2.8167924">
        <ele>195.11</ele>
        <time>2021-04-01T09:35:27.219Z</time>
      </trkpt>
      <trkpt lat="43.1434056" lon="-2.8167983">
        <ele>195.022</ele>
        <time>2021-04-01T09:35:27.277Z</time>
      </trkpt>
      <trkpt lat="43.1434088" lon="-2.8168042">
        <ele>194.95</ele>
        <time>2021-04-01T09:35:27.335Z</time>
      </trkpt>
      <trkpt lat="43.1434122" lon="-2.8168106">
        <ele>194.922</ele>
        <time>2021-04-01T09:35:27.393Z</time>
      </trkpt>
      <trkpt lat="43.1434159" lon="-2.8168171">
        <ele>194.879</ele>
        <time>2021-04-01T09:35:27.451Z</time>
      </trkpt>
      <trkpt lat="43.1434196" lon="-2.8168235">
        <ele>194.835</ele>
        <time>2021-04-01T09:35:27.509Z</time>
      </trkpt>
      <trkpt lat="43.143423" lon="-2.8168297">
        <ele>194.833</ele>
        <time>2021-04-01T09:35:27.567Z</time>
      </trkpt>
      <trkpt lat="43.1434265" lon="-2.8168358">
        <ele>194.801</ele>
        <time>2021-04-01T09:35:27.625Z</time>
      </trkpt>
      <trkpt lat="43.14343" lon="-2.8168419">
        <ele>194.769</ele>
        <time>2021-04-01T09:35:27.683Z</time>
      </trkpt>
      <trkpt lat="43.1434332" lon="-2.8168483">
        <ele>194.686</ele>
        <time>2021-04-01T09:35:27.741Z</time>
      </trkpt>
      <trkpt lat="43.1434368" lon="-2.8168548">
        <ele>194.642</ele>
        <time>2021-04-01T09:35:27.799Z</time>
      </trkpt>
      <trkpt lat="43.1434404" lon="-2.816861">
        <ele>194.645</ele>
        <time>2021-04-01T09:35:27.857Z</time>
      </trkpt>
      <trkpt lat="43.1434439" lon="-2.8168673">
        <ele>194.644</ele>
        <time>2021-04-01T09:35:27.915Z</time>
      </trkpt>
      <trkpt lat="43.1434475" lon="-2.8168733">
        <ele>194.64</ele>
        <time>2021-04-01T09:35:27.974Z</time>
      </trkpt>
      <trkpt lat="43.143451" lon="-2.8168795">
        <ele>194.603</ele>
        <time>2021-04-01T09:35:28.029Z</time>
      </trkpt>
      <trkpt lat="43.1434543" lon="-2.8168856">
        <ele>194.541</ele>
        <time>2021-04-01T09:35:28.084Z</time>
      </trkpt>
      <trkpt lat="43.1434577" lon="-2.8168917">
        <ele>194.522</ele>
        <time>2021-04-01T09:35:28.139Z</time>
      </trkpt>
      <trkpt lat="43.1434613" lon="-2.8168978">
        <ele>194.518</ele>
        <time>2021-04-01T09:35:28.194Z</time>
      </trkpt>
      <trkpt lat="43.143465" lon="-2.8169035">
        <ele>194.468</ele>
        <time>2021-04-01T09:35:28.249Z</time>
      </trkpt>
      <trkpt lat="43.1434685" lon="-2.8169094">
        <ele>194.401</ele>
        <time>2021-04-01T09:35:28.304Z</time>
      </trkpt>
      <trkpt lat="43.1434721" lon="-2.8169157">
        <ele>194.376</ele>
        <time>2021-04-01T09:35:28.359Z</time>
      </trkpt>
      <trkpt lat="43.1434759" lon="-2.8169221">
        <ele>194.468</ele>
        <time>2021-04-01T09:35:28.414Z</time>
      </trkpt>
      <trkpt lat="43.1434794" lon="-2.8169284">
        <ele>194.44</ele>
        <time>2021-04-01T09:35:28.469Z</time>
      </trkpt>
      <trkpt lat="43.143483" lon="-2.8169344">
        <ele>194.447</ele>
        <time>2021-04-01T09:35:28.524Z</time>
      </trkpt>
      <trkpt lat="43.1434863" lon="-2.8169399">
        <ele>194.314</ele>
        <time>2021-04-01T09:35:28.579Z</time>
      </trkpt>
      <trkpt lat="43.1434896" lon="-2.8169454">
        <ele>194.23</ele>
        <time>2021-04-01T09:35:28.634Z</time>
      </trkpt>
      <trkpt lat="43.1434931" lon="-2.8169517">
        <ele>194.231</ele>
        <time>2021-04-01T09:35:28.689Z</time>
      </trkpt>
      <trkpt lat="43.1434966" lon="-2.8169579">
        <ele>194.206</ele>
        <time>2021-04-01T09:35:28.744Z</time>
      </trkpt>
      <trkpt lat="43.1435001" lon="-2.8169635">
        <ele>194.155</ele>
        <time>2021-04-01T09:35:28.799Z</time>
      </trkpt>
      <trkpt lat="43.1435036" lon="-2.8169696">
        <ele>194.135</ele>
        <time>2021-04-01T09:35:28.854Z</time>
      </trkpt>
      <trkpt lat="43.1435073" lon="-2.8169759">
        <ele>194.117</ele>
        <time>2021-04-01T09:35:28.909Z</time>
      </trkpt>
      <trkpt lat="43.1435109" lon="-2.8169821">
        <ele>194.106</ele>
        <time>2021-04-01T09:35:28.964Z</time>
      </trkpt>
      <trkpt lat="43.1435144" lon="-2.8169879">
        <ele>194.112</ele>
        <time>2021-04-01T09:35:29.019Z</time>
      </trkpt>
      <trkpt lat="43.1435178" lon="-2.8169938">
        <ele>194.104</ele>
        <time>2021-04-01T09:35:29.074Z</time>
      </trkpt>
      <trkpt lat="43.1435214" lon="-2.8170002">
        <ele>194.071</ele>
        <time>2021-04-01T09:35:29.129Z</time>
      </trkpt>
      <trkpt lat="43.1435248" lon="-2.8170062">
        <ele>194.008</ele>
        <time>2021-04-01T09:35:29.184Z</time>
      </trkpt>
      <trkpt lat="43.1435286" lon="-2.8170119">
        <ele>194.013</ele>
        <time>2021-04-01T09:35:29.239Z</time>
      </trkpt>
      <trkpt lat="43.1435324" lon="-2.8170179">
        <ele>194.005</ele>
        <time>2021-04-01T09:35:29.294Z</time>
      </trkpt>
      <trkpt lat="43.1435361" lon="-2.8170238">
        <ele>193.985</ele>
        <time>2021-04-01T09:35:29.349Z</time>
      </trkpt>
      <trkpt lat="43.1435397" lon="-2.8170299">
        <ele>193.949</ele>
        <time>2021-04-01T09:35:29.404Z</time>
      </trkpt>
      <trkpt lat="43.1435433" lon="-2.8170363">
        <ele>193.961</ele>
        <time>2021-04-01T09:35:29.459Z</time>
      </trkpt>
      <trkpt lat="43.143547" lon="-2.8170428">
        <ele>193.972</ele>
        <time>2021-04-01T09:35:29.514Z</time>
      </trkpt>
      <trkpt lat="43.1435507" lon="-2.817049">
        <ele>193.982</ele>
        <time>2021-04-01T09:35:29.569Z</time>
      </trkpt>
      <trkpt lat="43.1435539" lon="-2.8170554">
        <ele>193.957</ele>
        <time>2021-04-01T09:35:29.624Z</time>
      </trkpt>
      <trkpt lat="43.1435576" lon="-2.8170614">
        <ele>193.936</ele>
        <time>2021-04-01T09:35:29.679Z</time>
      </trkpt>
      <trkpt lat="43.1435613" lon="-2.8170672">
        <ele>193.901</ele>
        <time>2021-04-01T09:35:29.734Z</time>
      </trkpt>
      <trkpt lat="43.1435647" lon="-2.8170728">
        <ele>193.8</ele>
        <time>2021-04-01T09:35:29.789Z</time>
      </trkpt>
      <trkpt lat="43.1435679" lon="-2.817078">
        <ele>193.625</ele>
        <time>2021-04-01T09:35:29.844Z</time>
      </trkpt>
      <trkpt lat="43.1435711" lon="-2.8170837">
        <ele>193.498</ele>
        <time>2021-04-01T09:35:29.899Z</time>
      </trkpt>
      <trkpt lat="43.1435736" lon="-2.8170889">
        <ele>193.281</ele>
        <time>2021-04-01T09:35:29.954Z</time>
      </trkpt>
      <trkpt lat="43.1435767" lon="-2.8170958">
        <ele>193.223</ele>
        <time>2021-04-01T09:35:30.009Z</time>
      </trkpt>
      <trkpt lat="43.1435797" lon="-2.8171024">
        <ele>193.171</ele>
        <time>2021-04-01T09:35:30.064Z</time>
      </trkpt>
      <trkpt lat="43.1435829" lon="-2.8171087">
        <ele>193.087</ele>
        <time>2021-04-01T09:35:30.119Z</time>
      </trkpt>
      <trkpt lat="43.1435862" lon="-2.8171151">
        <ele>193.016</ele>
        <time>2021-04-01T09:35:30.174Z</time>
      </trkpt>
      <trkpt lat="43.1435899" lon="-2.8171214">
        <ele>192.994</ele>
        <time>2021-04-01T09:35:30.229Z</time>
      </trkpt>
      <trkpt lat="43.1435938" lon="-2.8171274">
        <ele>192.974</ele>
        <time>2021-04-01T09:35:30.284Z</time>
      </trkpt>
      <trkpt lat="43.143597" lon="-2.8171334">
        <ele>192.892</ele>
        <time>2021-04-01T09:35:30.339Z</time>
      </trkpt>
      <trkpt lat="43.1436005" lon="-2.8171394">
        <ele>192.866</ele>
        <time>2021-04-01T09:35:30.394Z</time>
      </trkpt>
      <trkpt lat="43.1436042" lon="-2.8171452">
        <ele>192.839</ele>
        <time>2021-04-01T09:35:30.449Z</time>
      </trkpt>
      <trkpt lat="43.1436076" lon="-2.8171508">
        <ele>192.743</ele>
        <time>2021-04-01T09:35:30.504Z</time>
      </trkpt>
      <trkpt lat="43.1436115" lon="-2.8171569">
        <ele>192.749</ele>
        <time>2021-04-01T09:35:30.559Z</time>
      </trkpt>
      <trkpt lat="43.1436159" lon="-2.8171636">
        <ele>192.845</ele>
        <time>2021-04-01T09:35:30.614Z</time>
      </trkpt>
      <trkpt lat="43.1436194" lon="-2.8171696">
        <ele>192.807</ele>
        <time>2021-04-01T09:35:30.669Z</time>
      </trkpt>
      <trkpt lat="43.1436233" lon="-2.8171755">
        <ele>192.83</ele>
        <time>2021-04-01T09:35:30.724Z</time>
      </trkpt>
      <trkpt lat="43.1436267" lon="-2.8171816">
        <ele>192.724</ele>
        <time>2021-04-01T09:35:30.779Z</time>
      </trkpt>
      <trkpt lat="43.1436308" lon="-2.8171876">
        <ele>192.783</ele>
        <time>2021-04-01T09:35:30.834Z</time>
      </trkpt>
      <trkpt lat="43.1436346" lon="-2.8171931">
        <ele>192.778</ele>
        <time>2021-04-01T09:35:30.889Z</time>
      </trkpt>
      <trkpt lat="43.1436383" lon="-2.8171988">
        <ele>192.685</ele>
        <time>2021-04-01T09:35:30.944Z</time>
      </trkpt>
      <trkpt lat="43.143642" lon="-2.8172051">
        <ele>192.651</ele>
        <time>2021-04-01T09:35:30.999Z</time>
      </trkpt>
      <trkpt lat="43.1436455" lon="-2.8172111">
        <ele>192.622</ele>
        <time>2021-04-01T09:35:31.054Z</time>
      </trkpt>
      <trkpt lat="43.143649" lon="-2.8172174">
        <ele>192.61</ele>
        <time>2021-04-01T09:35:31.109Z</time>
      </trkpt>
      <trkpt lat="43.1436524" lon="-2.8172237">
        <ele>192.519</ele>
        <time>2021-04-01T09:35:31.164Z</time>
      </trkpt>
      <trkpt lat="43.1436558" lon="-2.81723">
        <ele>192.465</ele>
        <time>2021-04-01T09:35:31.219Z</time>
      </trkpt>
      <trkpt lat="43.1436592" lon="-2.8172367">
        <ele>192.447</ele>
        <time>2021-04-01T09:35:31.274Z</time>
      </trkpt>
      <trkpt lat="43.1436632" lon="-2.8172429">
        <ele>192.468</ele>
        <time>2021-04-01T09:35:31.329Z</time>
      </trkpt>
      <trkpt lat="43.1436673" lon="-2.8172492">
        <ele>192.511</ele>
        <time>2021-04-01T09:35:31.384Z</time>
      </trkpt>
      <trkpt lat="43.1436708" lon="-2.8172549">
        <ele>192.475</ele>
        <time>2021-04-01T09:35:31.439Z</time>
      </trkpt>
      <trkpt lat="43.1436746" lon="-2.8172609">
        <ele>192.461</ele>
        <time>2021-04-01T09:35:31.494Z</time>
      </trkpt>
      <trkpt lat="43.1436785" lon="-2.8172671">
        <ele>192.441</ele>
        <time>2021-04-01T09:35:31.549Z</time>
      </trkpt>
      <trkpt lat="43.1436821" lon="-2.8172731">
        <ele>192.366</ele>
        <time>2021-04-01T09:35:31.604Z</time>
      </trkpt>
      <trkpt lat="43.1436856" lon="-2.817279">
        <ele>192.293</ele>
        <time>2021-04-01T09:35:31.659Z</time>
      </trkpt>
      <trkpt lat="43.1436888" lon="-2.8172844">
        <ele>192.178</ele>
        <time>2021-04-01T09:35:31.714Z</time>
      </trkpt>
      <trkpt lat="43.1436925" lon="-2.8172904">
        <ele>192.128</ele>
        <time>2021-04-01T09:35:31.769Z</time>
      </trkpt>
      <trkpt lat="43.1436962" lon="-2.8172974">
        <ele>192.109</ele>
        <time>2021-04-01T09:35:31.824Z</time>
      </trkpt>
      <trkpt lat="43.1436995" lon="-2.8173035">
        <ele>192.107</ele>
        <time>2021-04-01T09:35:31.879Z</time>
      </trkpt>
      <trkpt lat="43.143703" lon="-2.8173097">
        <ele>192.08</ele>
        <time>2021-04-01T09:35:31.934Z</time>
      </trkpt>
      <trkpt lat="43.1437069" lon="-2.8173155">
        <ele>192.099</ele>
        <time>2021-04-01T09:35:31.989Z</time>
      </trkpt>
      <trkpt lat="43.1437105" lon="-2.8173214">
        <ele>192.075</ele>
        <time>2021-04-01T09:35:32.044Z</time>
      </trkpt>
      <trkpt lat="43.1437144" lon="-2.8173268">
        <ele>192.035</ele>
        <time>2021-04-01T09:35:32.099Z</time>
      </trkpt>
      <trkpt lat="43.1437179" lon="-2.8173328">
        <ele>192.015</ele>
        <time>2021-04-01T09:35:32.154Z</time>
      </trkpt>
      <trkpt lat="43.1437213" lon="-2.8173388">
        <ele>191.986</ele>
        <time>2021-04-01T09:35:32.209Z</time>
      </trkpt>
      <trkpt lat="43.1437245" lon="-2.8173459">
        <ele>192.03</ele>
        <time>2021-04-01T09:35:32.264Z</time>
      </trkpt>
      <trkpt lat="43.143728" lon="-2.8173523">
        <ele>192.003</ele>
        <time>2021-04-01T09:35:32.319Z</time>
      </trkpt>
      <trkpt lat="43.1437316" lon="-2.8173579">
        <ele>191.957</ele>
        <time>2021-04-01T09:35:32.374Z</time>
      </trkpt>
      <trkpt lat="43.1437354" lon="-2.8173636">
        <ele>191.917</ele>
        <time>2021-04-01T09:35:32.429Z</time>
      </trkpt>
      <trkpt lat="43.1437391" lon="-2.8173691">
        <ele>191.88</ele>
        <time>2021-04-01T09:35:32.484Z</time>
      </trkpt>
      <trkpt lat="43.1437425" lon="-2.8173742">
        <ele>191.741</ele>
        <time>2021-04-01T09:35:32.539Z</time>
      </trkpt>
      <trkpt lat="43.1437461" lon="-2.8173804">
        <ele>191.631</ele>
        <time>2021-04-01T09:35:32.594Z</time>
      </trkpt>
      <trkpt lat="43.1437493" lon="-2.8173867">
        <ele>191.476</ele>
        <time>2021-04-01T09:35:32.649Z</time>
      </trkpt>
      <trkpt lat="43.1437522" lon="-2.8173925">
        <ele>191.304</ele>
        <time>2021-04-01T09:35:32.704Z</time>
      </trkpt>
      <trkpt lat="43.1437555" lon="-2.8173981">
        <ele>191.169</ele>
        <time>2021-04-01T09:35:32.759Z</time>
      </trkpt>
      <trkpt lat="43.1437592" lon="-2.8174046">
        <ele>191.165</ele>
        <time>2021-04-01T09:35:32.814Z</time>
      </trkpt>
      <trkpt lat="43.143763" lon="-2.8174108">
        <ele>191.146</ele>
        <time>2021-04-01T09:35:32.869Z</time>
      </trkpt>
      <trkpt lat="43.1437667" lon="-2.8174167">
        <ele>191.063</ele>
        <time>2021-04-01T09:35:32.924Z</time>
      </trkpt>
      <trkpt lat="43.1437702" lon="-2.8174231">
        <ele>191.007</ele>
        <time>2021-04-01T09:35:32.979Z</time>
      </trkpt>
      <trkpt lat="43.1437735" lon="-2.8174292">
        <ele>190.932</ele>
        <time>2021-04-01T09:35:33.034Z</time>
      </trkpt>
      <trkpt lat="43.1437771" lon="-2.8174354">
        <ele>190.841</ele>
        <time>2021-04-01T09:35:33.089Z</time>
      </trkpt>
      <trkpt lat="43.1437805" lon="-2.8174415">
        <ele>190.705</ele>
        <time>2021-04-01T09:35:33.144Z</time>
      </trkpt>
      <trkpt lat="43.1437839" lon="-2.8174477">
        <ele>190.613</ele>
        <time>2021-04-01T09:35:33.199Z</time>
      </trkpt>
      <trkpt lat="43.1437874" lon="-2.8174545">
        <ele>190.604</ele>
        <time>2021-04-01T09:35:33.254Z</time>
      </trkpt>
      <trkpt lat="43.1437905" lon="-2.8174596">
        <ele>190.463</ele>
        <time>2021-04-01T09:35:33.309Z</time>
      </trkpt>
      <trkpt lat="43.1437932" lon="-2.817465">
        <ele>190.331</ele>
        <time>2021-04-01T09:35:33.364Z</time>
      </trkpt>
      <trkpt lat="43.1437963" lon="-2.8174705">
        <ele>190.183</ele>
        <time>2021-04-01T09:35:33.419Z</time>
      </trkpt>
      <trkpt lat="43.1437993" lon="-2.8174768">
        <ele>190.11</ele>
        <time>2021-04-01T09:35:33.474Z</time>
      </trkpt>
      <trkpt lat="43.1438023" lon="-2.8174823">
        <ele>189.934</ele>
        <time>2021-04-01T09:35:33.529Z</time>
      </trkpt>
      <trkpt lat="43.1438055" lon="-2.8174892">
        <ele>189.896</ele>
        <time>2021-04-01T09:35:33.584Z</time>
      </trkpt>
      <trkpt lat="43.1438085" lon="-2.8174952">
        <ele>189.815</ele>
        <time>2021-04-01T09:35:33.639Z</time>
      </trkpt>
      <trkpt lat="43.143812" lon="-2.8175011">
        <ele>189.69</ele>
        <time>2021-04-01T09:35:33.694Z</time>
      </trkpt>
      <trkpt lat="43.1438151" lon="-2.8175068">
        <ele>189.575</ele>
        <time>2021-04-01T09:35:33.749Z</time>
      </trkpt>
      <trkpt lat="43.1438183" lon="-2.8175124">
        <ele>189.439</ele>
        <time>2021-04-01T09:35:33.804Z</time>
      </trkpt>
      <trkpt lat="43.1438211" lon="-2.8175188">
        <ele>189.384</ele>
        <time>2021-04-01T09:35:33.859Z</time>
      </trkpt>
      <trkpt lat="43.1438237" lon="-2.8175245">
        <ele>189.228</ele>
        <time>2021-04-01T09:35:33.914Z</time>
      </trkpt>
      <trkpt lat="43.1438264" lon="-2.8175298">
        <ele>189.019</ele>
        <time>2021-04-01T09:35:33.969Z</time>
      </trkpt>
      <trkpt lat="43.1438289" lon="-2.8175355">
        <ele>188.813</ele>
        <time>2021-04-01T09:35:34.027Z</time>
      </trkpt>
      <trkpt lat="43.1438318" lon="-2.8175416">
        <ele>188.672</ele>
        <time>2021-04-01T09:35:34.085Z</time>
      </trkpt>
      <trkpt lat="43.1438349" lon="-2.8175479">
        <ele>188.581</ele>
        <time>2021-04-01T09:35:34.143Z</time>
      </trkpt>
      <trkpt lat="43.143838" lon="-2.8175547">
        <ele>188.565</ele>
        <time>2021-04-01T09:35:34.201Z</time>
      </trkpt>
      <trkpt lat="43.1438412" lon="-2.8175616">
        <ele>188.554</ele>
        <time>2021-04-01T09:35:34.259Z</time>
      </trkpt>
      <trkpt lat="43.1438442" lon="-2.8175685">
        <ele>188.577</ele>
        <time>2021-04-01T09:35:34.317Z</time>
      </trkpt>
      <trkpt lat="43.1438473" lon="-2.8175756">
        <ele>188.63</ele>
        <time>2021-04-01T09:35:34.375Z</time>
      </trkpt>
      <trkpt lat="43.1438508" lon="-2.8175824">
        <ele>188.65</ele>
        <time>2021-04-01T09:35:34.433Z</time>
      </trkpt>
      <trkpt lat="43.1438539" lon="-2.8175887">
        <ele>188.58</ele>
        <time>2021-04-01T09:35:34.491Z</time>
      </trkpt>
      <trkpt lat="43.1438571" lon="-2.8175952">
        <ele>188.612</ele>
        <time>2021-04-01T09:35:34.549Z</time>
      </trkpt>
      <trkpt lat="43.1438603" lon="-2.8176017">
        <ele>188.594</ele>
        <time>2021-04-01T09:35:34.607Z</time>
      </trkpt>
      <trkpt lat="43.1438635" lon="-2.8176084">
        <ele>188.554</ele>
        <time>2021-04-01T09:35:34.665Z</time>
      </trkpt>
      <trkpt lat="43.1438663" lon="-2.8176151">
        <ele>188.508</ele>
        <time>2021-04-01T09:35:34.723Z</time>
      </trkpt>
      <trkpt lat="43.1438691" lon="-2.8176221">
        <ele>188.496</ele>
        <time>2021-04-01T09:35:34.781Z</time>
      </trkpt>
      <trkpt lat="43.1438717" lon="-2.8176296">
        <ele>188.542</ele>
        <time>2021-04-01T09:35:34.839Z</time>
      </trkpt>
      <trkpt lat="43.1438739" lon="-2.8176368">
        <ele>188.508</ele>
        <time>2021-04-01T09:35:34.897Z</time>
      </trkpt>
      <trkpt lat="43.1438763" lon="-2.8176443">
        <ele>188.491</ele>
        <time>2021-04-01T09:35:34.955Z</time>
      </trkpt>
      <trkpt lat="43.1438788" lon="-2.8176514">
        <ele>188.416</ele>
        <time>2021-04-01T09:35:35.014Z</time>
      </trkpt>
      <trkpt lat="43.143881" lon="-2.8176579">
        <ele>188.313</ele>
        <time>2021-04-01T09:35:35.063Z</time>
      </trkpt>
      <trkpt lat="43.1438836" lon="-2.8176645">
        <ele>188.29</ele>
        <time>2021-04-01T09:35:35.112Z</time>
      </trkpt>
      <trkpt lat="43.143886" lon="-2.8176718">
        <ele>188.352</ele>
        <time>2021-04-01T09:35:35.161Z</time>
      </trkpt>
      <trkpt lat="43.1438882" lon="-2.8176783">
        <ele>188.295</ele>
        <time>2021-04-01T09:35:35.210Z</time>
      </trkpt>
      <trkpt lat="43.14389" lon="-2.8176854">
        <ele>188.222</ele>
        <time>2021-04-01T09:35:35.260Z</time>
      </trkpt>
      <trkpt lat="43.1438918" lon="-2.817693">
        <ele>188.226</ele>
        <time>2021-04-01T09:35:35.309Z</time>
      </trkpt>
      <trkpt lat="43.143894" lon="-2.8177004">
        <ele>188.242</ele>
        <time>2021-04-01T09:35:35.358Z</time>
      </trkpt>
      <trkpt lat="43.1438962" lon="-2.8177077">
        <ele>188.239</ele>
        <time>2021-04-01T09:35:35.407Z</time>
      </trkpt>
      <trkpt lat="43.1438984" lon="-2.8177147">
        <ele>188.222</ele>
        <time>2021-04-01T09:35:35.456Z</time>
      </trkpt>
      <trkpt lat="43.1439001" lon="-2.8177215">
        <ele>188.086</ele>
        <time>2021-04-01T09:35:35.506Z</time>
      </trkpt>
      <trkpt lat="43.1439019" lon="-2.8177283">
        <ele>187.97</ele>
        <time>2021-04-01T09:35:35.555Z</time>
      </trkpt>
      <trkpt lat="43.1439033" lon="-2.8177353">
        <ele>187.882</ele>
        <time>2021-04-01T09:35:35.604Z</time>
      </trkpt>
      <trkpt lat="43.1439054" lon="-2.8177425">
        <ele>187.903</ele>
        <time>2021-04-01T09:35:35.653Z</time>
      </trkpt>
      <trkpt lat="43.1439077" lon="-2.8177499">
        <ele>187.914</ele>
        <time>2021-04-01T09:35:35.702Z</time>
      </trkpt>
      <trkpt lat="43.14391" lon="-2.8177574">
        <ele>187.952</ele>
        <time>2021-04-01T09:35:35.752Z</time>
      </trkpt>
      <trkpt lat="43.1439117" lon="-2.8177648">
        <ele>187.924</ele>
        <time>2021-04-01T09:35:35.801Z</time>
      </trkpt>
      <trkpt lat="43.1439134" lon="-2.8177723">
        <ele>187.924</ele>
        <time>2021-04-01T09:35:35.850Z</time>
      </trkpt>
      <trkpt lat="43.1439151" lon="-2.8177796">
        <ele>187.962</ele>
        <time>2021-04-01T09:35:35.899Z</time>
      </trkpt>
      <trkpt lat="43.1439166" lon="-2.8177868">
        <ele>187.933</ele>
        <time>2021-04-01T09:35:35.949Z</time>
      </trkpt>
      <trkpt lat="43.143918" lon="-2.8177942">
        <ele>187.91</ele>
        <time>2021-04-01T09:35:36.007Z</time>
      </trkpt>
      <trkpt lat="43.1439191" lon="-2.8178011">
        <ele>187.847</ele>
        <time>2021-04-01T09:35:36.065Z</time>
      </trkpt>
      <trkpt lat="43.1439201" lon="-2.8178078">
        <ele>187.759</ele>
        <time>2021-04-01T09:35:36.123Z</time>
      </trkpt>
      <trkpt lat="43.1439211" lon="-2.8178144">
        <ele>187.659</ele>
        <time>2021-04-01T09:35:36.181Z</time>
      </trkpt>
      <trkpt lat="43.143922" lon="-2.8178215">
        <ele>187.564</ele>
        <time>2021-04-01T09:35:36.239Z</time>
      </trkpt>
      <trkpt lat="43.1439228" lon="-2.8178284">
        <ele>187.479</ele>
        <time>2021-04-01T09:35:36.297Z</time>
      </trkpt>
      <trkpt lat="43.1439238" lon="-2.8178356">
        <ele>187.442</ele>
        <time>2021-04-01T09:35:36.355Z</time>
      </trkpt>
      <trkpt lat="43.1439246" lon="-2.8178427">
        <ele>187.369</ele>
        <time>2021-04-01T09:35:36.413Z</time>
      </trkpt>
      <trkpt lat="43.1439252" lon="-2.8178495">
        <ele>187.29</ele>
        <time>2021-04-01T09:35:36.471Z</time>
      </trkpt>
      <trkpt lat="43.1439256" lon="-2.8178566">
        <ele>187.231</ele>
        <time>2021-04-01T09:35:36.529Z</time>
      </trkpt>
      <trkpt lat="43.1439261" lon="-2.8178638">
        <ele>187.203</ele>
        <time>2021-04-01T09:35:36.587Z</time>
      </trkpt>
      <trkpt lat="43.1439266" lon="-2.8178716">
        <ele>187.221</ele>
        <time>2021-04-01T09:35:36.645Z</time>
      </trkpt>
      <trkpt lat="43.143927" lon="-2.8178794">
        <ele>187.209</ele>
        <time>2021-04-01T09:35:36.703Z</time>
      </trkpt>
      <trkpt lat="43.1439277" lon="-2.8178875">
        <ele>187.292</ele>
        <time>2021-04-01T09:35:36.761Z</time>
      </trkpt>
      <trkpt lat="43.1439284" lon="-2.8178956">
        <ele>187.37</ele>
        <time>2021-04-01T09:35:36.819Z</time>
      </trkpt>
      <trkpt lat="43.1439291" lon="-2.8179039">
        <ele>187.445</ele>
        <time>2021-04-01T09:35:36.877Z</time>
      </trkpt>
      <trkpt lat="43.1439294" lon="-2.8179121">
        <ele>187.494</ele>
        <time>2021-04-01T09:35:36.935Z</time>
      </trkpt>
      <trkpt lat="43.1439295" lon="-2.8179198">
        <ele>187.457</ele>
        <time>2021-04-01T09:35:36.994Z</time>
      </trkpt>
      <trkpt lat="43.1439295" lon="-2.8179275">
        <ele>187.416</ele>
        <time>2021-04-01T09:35:37.049Z</time>
      </trkpt>
      <trkpt lat="43.1439296" lon="-2.8179349">
        <ele>187.389</ele>
        <time>2021-04-01T09:35:37.104Z</time>
      </trkpt>
      <trkpt lat="43.1439293" lon="-2.8179424">
        <ele>187.409</ele>
        <time>2021-04-01T09:35:37.159Z</time>
      </trkpt>
      <trkpt lat="43.143929" lon="-2.8179503">
        <ele>187.44</ele>
        <time>2021-04-01T09:35:37.214Z</time>
      </trkpt>
      <trkpt lat="43.1439288" lon="-2.8179578">
        <ele>187.451</ele>
        <time>2021-04-01T09:35:37.269Z</time>
      </trkpt>
      <trkpt lat="43.1439285" lon="-2.8179651">
        <ele>187.443</ele>
        <time>2021-04-01T09:35:37.324Z</time>
      </trkpt>
      <trkpt lat="43.1439281" lon="-2.8179722">
        <ele>187.414</ele>
        <time>2021-04-01T09:35:37.379Z</time>
      </trkpt>
      <trkpt lat="43.1439275" lon="-2.8179793">
        <ele>187.361</ele>
        <time>2021-04-01T09:35:37.434Z</time>
      </trkpt>
      <trkpt lat="43.1439268" lon="-2.8179865">
        <ele>187.302</ele>
        <time>2021-04-01T09:35:37.489Z</time>
      </trkpt>
      <trkpt lat="43.1439259" lon="-2.8179937">
        <ele>187.247</ele>
        <time>2021-04-01T09:35:37.544Z</time>
      </trkpt>
      <trkpt lat="43.1439249" lon="-2.8180011">
        <ele>187.274</ele>
        <time>2021-04-01T09:35:37.599Z</time>
      </trkpt>
      <trkpt lat="43.1439237" lon="-2.8180083">
        <ele>187.219</ele>
        <time>2021-04-01T09:35:37.654Z</time>
      </trkpt>
      <trkpt lat="43.1439229" lon="-2.818016">
        <ele>187.269</ele>
        <time>2021-04-01T09:35:37.709Z</time>
      </trkpt>
      <trkpt lat="43.1439222" lon="-2.8180235">
        <ele>187.286</ele>
        <time>2021-04-01T09:35:37.764Z</time>
      </trkpt>
      <trkpt lat="43.1439214" lon="-2.8180311">
        <ele>187.28</ele>
        <time>2021-04-01T09:35:37.819Z</time>
      </trkpt>
      <trkpt lat="43.1439204" lon="-2.8180386">
        <ele>187.28</ele>
        <time>2021-04-01T09:35:37.874Z</time>
      </trkpt>
      <trkpt lat="43.1439192" lon="-2.8180461">
        <ele>187.241</ele>
        <time>2021-04-01T09:35:37.929Z</time>
      </trkpt>
      <trkpt lat="43.143918" lon="-2.8180538">
        <ele>187.191</ele>
        <time>2021-04-01T09:35:37.984Z</time>
      </trkpt>
      <trkpt lat="43.1439168" lon="-2.818061">
        <ele>187.158</ele>
        <time>2021-04-01T09:35:38.039Z</time>
      </trkpt>
      <trkpt lat="43.143916" lon="-2.8180685">
        <ele>187.155</ele>
        <time>2021-04-01T09:35:38.094Z</time>
      </trkpt>
      <trkpt lat="43.1439149" lon="-2.818076">
        <ele>187.134</ele>
        <time>2021-04-01T09:35:38.149Z</time>
      </trkpt>
      <trkpt lat="43.1439134" lon="-2.8180829">
        <ele>187.048</ele>
        <time>2021-04-01T09:35:38.204Z</time>
      </trkpt>
      <trkpt lat="43.1439125" lon="-2.8180901">
        <ele>187.04</ele>
        <time>2021-04-01T09:35:38.259Z</time>
      </trkpt>
      <trkpt lat="43.1439109" lon="-2.8180966">
        <ele>187.007</ele>
        <time>2021-04-01T09:35:38.314Z</time>
      </trkpt>
      <trkpt lat="43.1439092" lon="-2.8181034">
        <ele>187.002</ele>
        <time>2021-04-01T09:35:38.369Z</time>
      </trkpt>
      <trkpt lat="43.1439076" lon="-2.8181101">
        <ele>186.98</ele>
        <time>2021-04-01T09:35:38.424Z</time>
      </trkpt>
      <trkpt lat="43.1439063" lon="-2.8181173">
        <ele>186.963</ele>
        <time>2021-04-01T09:35:38.479Z</time>
      </trkpt>
      <trkpt lat="43.1439048" lon="-2.8181243">
        <ele>186.953</ele>
        <time>2021-04-01T09:35:38.534Z</time>
      </trkpt>
      <trkpt lat="43.1439036" lon="-2.8181315">
        <ele>186.975</ele>
        <time>2021-04-01T09:35:38.589Z</time>
      </trkpt>
      <trkpt lat="43.1439024" lon="-2.8181384">
        <ele>186.988</ele>
        <time>2021-04-01T09:35:38.644Z</time>
      </trkpt>
      <trkpt lat="43.143901" lon="-2.8181454">
        <ele>187.009</ele>
        <time>2021-04-01T09:35:38.699Z</time>
      </trkpt>
      <trkpt lat="43.1438993" lon="-2.8181523">
        <ele>187.009</ele>
        <time>2021-04-01T09:35:38.754Z</time>
      </trkpt>
      <trkpt lat="43.1438978" lon="-2.8181592">
        <ele>187.001</ele>
        <time>2021-04-01T09:35:38.809Z</time>
      </trkpt>
      <trkpt lat="43.143896" lon="-2.818166">
        <ele>186.959</ele>
        <time>2021-04-01T09:35:38.864Z</time>
      </trkpt>
      <trkpt lat="43.1438943" lon="-2.818173">
        <ele>186.915</ele>
        <time>2021-04-01T09:35:38.919Z</time>
      </trkpt>
      <trkpt lat="43.1438924" lon="-2.8181796">
        <ele>186.817</ele>
        <time>2021-04-01T09:35:38.974Z</time>
      </trkpt>
      <trkpt lat="43.1438907" lon="-2.8181863">
        <ele>186.774</ele>
        <time>2021-04-01T09:35:39.026Z</time>
      </trkpt>
      <trkpt lat="43.1438888" lon="-2.8181928">
        <ele>186.735</ele>
        <time>2021-04-01T09:35:39.078Z</time>
      </trkpt>
      <trkpt lat="43.1438872" lon="-2.8181995">
        <ele>186.683</ele>
        <time>2021-04-01T09:35:39.130Z</time>
      </trkpt>
      <trkpt lat="43.1438858" lon="-2.8182067">
        <ele>186.664</ele>
        <time>2021-04-01T09:35:39.182Z</time>
      </trkpt>
      <trkpt lat="43.143884" lon="-2.8182135">
        <ele>186.614</ele>
        <time>2021-04-01T09:35:39.234Z</time>
      </trkpt>
      <trkpt lat="43.1438822" lon="-2.8182203">
        <ele>186.609</ele>
        <time>2021-04-01T09:35:39.286Z</time>
      </trkpt>
      <trkpt lat="43.1438807" lon="-2.8182268">
        <ele>186.582</ele>
        <time>2021-04-01T09:35:39.338Z</time>
      </trkpt>
      <trkpt lat="43.1438794" lon="-2.818234">
        <ele>186.571</ele>
        <time>2021-04-01T09:35:39.390Z</time>
      </trkpt>
      <trkpt lat="43.1438776" lon="-2.8182406">
        <ele>186.546</ele>
        <time>2021-04-01T09:35:39.442Z</time>
      </trkpt>
      <trkpt lat="43.1438767" lon="-2.818248">
        <ele>186.561</ele>
        <time>2021-04-01T09:35:39.495Z</time>
      </trkpt>
      <trkpt lat="43.1438753" lon="-2.8182548">
        <ele>186.563</ele>
        <time>2021-04-01T09:35:39.547Z</time>
      </trkpt>
      <trkpt lat="43.1438739" lon="-2.8182616">
        <ele>186.541</ele>
        <time>2021-04-01T09:35:39.599Z</time>
      </trkpt>
      <trkpt lat="43.1438731" lon="-2.818269">
        <ele>186.523</ele>
        <time>2021-04-01T09:35:39.651Z</time>
      </trkpt>
      <trkpt lat="43.143872" lon="-2.8182759">
        <ele>186.527</ele>
        <time>2021-04-01T09:35:39.703Z</time>
      </trkpt>
      <trkpt lat="43.1438712" lon="-2.818283">
        <ele>186.51</ele>
        <time>2021-04-01T09:35:39.755Z</time>
      </trkpt>
      <trkpt lat="43.1438702" lon="-2.81829">
        <ele>186.51</ele>
        <time>2021-04-01T09:35:39.807Z</time>
      </trkpt>
      <trkpt lat="43.1438694" lon="-2.818297">
        <ele>186.493</ele>
        <time>2021-04-01T09:35:39.859Z</time>
      </trkpt>
      <trkpt lat="43.1438683" lon="-2.8183037">
        <ele>186.468</ele>
        <time>2021-04-01T09:35:39.911Z</time>
      </trkpt>
      <trkpt lat="43.1438675" lon="-2.8183105">
        <ele>186.435</ele>
        <time>2021-04-01T09:35:39.964Z</time>
      </trkpt>
      <trkpt lat="43.1438666" lon="-2.8183172">
        <ele>186.412</ele>
        <time>2021-04-01T09:35:40.025Z</time>
      </trkpt>
      <trkpt lat="43.1438656" lon="-2.8183243">
        <ele>186.405</ele>
        <time>2021-04-01T09:35:40.086Z</time>
      </trkpt>
      <trkpt lat="43.1438651" lon="-2.8183315">
        <ele>186.389</ele>
        <time>2021-04-01T09:35:40.148Z</time>
      </trkpt>
      <trkpt lat="43.1438646" lon="-2.8183386">
        <ele>186.396</ele>
        <time>2021-04-01T09:35:40.209Z</time>
      </trkpt>
      <trkpt lat="43.1438643" lon="-2.8183456">
        <ele>186.376</ele>
        <time>2021-04-01T09:35:40.271Z</time>
      </trkpt>
      <trkpt lat="43.1438638" lon="-2.8183526">
        <ele>186.338</ele>
        <time>2021-04-01T09:35:40.332Z</time>
      </trkpt>
      <trkpt lat="43.1438636" lon="-2.8183596">
        <ele>186.338</ele>
        <time>2021-04-01T09:35:40.394Z</time>
      </trkpt>
      <trkpt lat="43.1438635" lon="-2.8183668">
        <ele>186.335</ele>
        <time>2021-04-01T09:35:40.455Z</time>
      </trkpt>
      <trkpt lat="43.1438636" lon="-2.8183738">
        <ele>186.324</ele>
        <time>2021-04-01T09:35:40.517Z</time>
      </trkpt>
      <trkpt lat="43.1438638" lon="-2.8183808">
        <ele>186.319</ele>
        <time>2021-04-01T09:35:40.578Z</time>
      </trkpt>
      <trkpt lat="43.1438641" lon="-2.8183878">
        <ele>186.34</ele>
        <time>2021-04-01T09:35:40.640Z</time>
      </trkpt>
      <trkpt lat="43.1438639" lon="-2.8183948">
        <ele>186.347</ele>
        <time>2021-04-01T09:35:40.701Z</time>
      </trkpt>
      <trkpt lat="43.1438641" lon="-2.8184017">
        <ele>186.353</ele>
        <time>2021-04-01T09:35:40.763Z</time>
      </trkpt>
      <trkpt lat="43.1438656" lon="-2.8184092">
        <ele>186.423</ele>
        <time>2021-04-01T09:35:40.824Z</time>
      </trkpt>
      <trkpt lat="43.1438666" lon="-2.8184163">
        <ele>186.469</ele>
        <time>2021-04-01T09:35:40.886Z</time>
      </trkpt>
      <trkpt lat="43.1438678" lon="-2.8184231">
        <ele>186.467</ele>
        <time>2021-04-01T09:35:40.947Z</time>
      </trkpt>
      <trkpt lat="43.143869" lon="-2.8184298">
        <ele>186.473</ele>
        <time>2021-04-01T09:35:41.009Z</time>
      </trkpt>
      <trkpt lat="43.1438701" lon="-2.8184365">
        <ele>186.457</ele>
        <time>2021-04-01T09:35:41.058Z</time>
      </trkpt>
      <trkpt lat="43.1438715" lon="-2.8184433">
        <ele>186.445</ele>
        <time>2021-04-01T09:35:41.107Z</time>
      </trkpt>
      <trkpt lat="43.1438724" lon="-2.8184496">
        <ele>186.336</ele>
        <time>2021-04-01T09:35:41.156Z</time>
      </trkpt>
      <trkpt lat="43.1438739" lon="-2.8184562">
        <ele>186.315</ele>
        <time>2021-04-01T09:35:41.205Z</time>
      </trkpt>
      <trkpt lat="43.1438756" lon="-2.8184617">
        <ele>186.304</ele>
        <time>2021-04-01T09:35:41.255Z</time>
      </trkpt>
      <trkpt lat="43.1438774" lon="-2.8184671">
        <ele>186.222</ele>
        <time>2021-04-01T09:35:41.304Z</time>
      </trkpt>
      <trkpt lat="43.143879" lon="-2.8184729">
        <ele>186.164</ele>
        <time>2021-04-01T09:35:41.353Z</time>
      </trkpt>
      <trkpt lat="43.1438807" lon="-2.8184785">
        <ele>186.135</ele>
        <time>2021-04-01T09:35:41.402Z</time>
      </trkpt>
      <trkpt lat="43.1438825" lon="-2.8184841">
        <ele>186.085</ele>
        <time>2021-04-01T09:35:41.451Z</time>
      </trkpt>
      <trkpt lat="43.1438847" lon="-2.8184899">
        <ele>186.042</ele>
        <time>2021-04-01T09:35:41.501Z</time>
      </trkpt>
      <trkpt lat="43.1438868" lon="-2.8184956">
        <ele>186.021</ele>
        <time>2021-04-01T09:35:41.550Z</time>
      </trkpt>
      <trkpt lat="43.1438892" lon="-2.8185018">
        <ele>186.052</ele>
        <time>2021-04-01T09:35:41.599Z</time>
      </trkpt>
      <trkpt lat="43.1438911" lon="-2.8185078">
        <ele>186.066</ele>
        <time>2021-04-01T09:35:41.648Z</time>
      </trkpt>
      <trkpt lat="43.1438935" lon="-2.8185141">
        <ele>186.098</ele>
        <time>2021-04-01T09:35:41.697Z</time>
      </trkpt>
      <trkpt lat="43.1438962" lon="-2.81852">
        <ele>186.131</ele>
        <time>2021-04-01T09:35:41.747Z</time>
      </trkpt>
      <trkpt lat="43.1438983" lon="-2.8185258">
        <ele>186.09</ele>
        <time>2021-04-01T09:35:41.796Z</time>
      </trkpt>
      <trkpt lat="43.1439004" lon="-2.8185314">
        <ele>186.01</ele>
        <time>2021-04-01T09:35:41.845Z</time>
      </trkpt>
      <trkpt lat="43.1439029" lon="-2.8185373">
        <ele>185.998</ele>
        <time>2021-04-01T09:35:41.894Z</time>
      </trkpt>
      <trkpt lat="43.1439055" lon="-2.8185435">
        <ele>185.997</ele>
        <time>2021-04-01T09:35:41.944Z</time>
      </trkpt>
      <trkpt lat="43.1439082" lon="-2.8185497">
        <ele>185.969</ele>
        <time>2021-04-01T09:35:42.002Z</time>
      </trkpt>
      <trkpt lat="43.1439107" lon="-2.8185559">
        <ele>186.03</ele>
        <time>2021-04-01T09:35:42.060Z</time>
      </trkpt>
      <trkpt lat="43.1439134" lon="-2.8185617">
        <ele>185.983</ele>
        <time>2021-04-01T09:35:42.118Z</time>
      </trkpt>
      <trkpt lat="43.1439162" lon="-2.8185675">
        <ele>185.977</ele>
        <time>2021-04-01T09:35:42.176Z</time>
      </trkpt>
      <trkpt lat="43.1439189" lon="-2.8185733">
        <ele>185.93</ele>
        <time>2021-04-01T09:35:42.234Z</time>
      </trkpt>
      <trkpt lat="43.1439215" lon="-2.8185793">
        <ele>185.905</ele>
        <time>2021-04-01T09:35:42.292Z</time>
      </trkpt>
      <trkpt lat="43.1439243" lon="-2.8185846">
        <ele>185.896</ele>
        <time>2021-04-01T09:35:42.350Z</time>
      </trkpt>
      <trkpt lat="43.1439276" lon="-2.8185891">
        <ele>185.855</ele>
        <time>2021-04-01T09:35:42.408Z</time>
      </trkpt>
      <trkpt lat="43.1439308" lon="-2.8185938">
        <ele>185.821</ele>
        <time>2021-04-01T09:35:42.466Z</time>
      </trkpt>
      <trkpt lat="43.1439341" lon="-2.8185986">
        <ele>185.772</ele>
        <time>2021-04-01T09:35:42.524Z</time>
      </trkpt>
      <trkpt lat="43.1439376" lon="-2.8186027">
        <ele>185.714</ele>
        <time>2021-04-01T09:35:42.582Z</time>
      </trkpt>
      <trkpt lat="43.1439409" lon="-2.8186079">
        <ele>185.709</ele>
        <time>2021-04-01T09:35:42.640Z</time>
      </trkpt>
      <trkpt lat="43.1439445" lon="-2.8186127">
        <ele>185.687</ele>
        <time>2021-04-01T09:35:42.698Z</time>
      </trkpt>
      <trkpt lat="43.1439481" lon="-2.8186175">
        <ele>185.671</ele>
        <time>2021-04-01T09:35:42.756Z</time>
      </trkpt>
      <trkpt lat="43.1439519" lon="-2.8186223">
        <ele>185.658</ele>
        <time>2021-04-01T09:35:42.814Z</time>
      </trkpt>
      <trkpt lat="43.1439557" lon="-2.8186269">
        <ele>185.659</ele>
        <time>2021-04-01T09:35:42.872Z</time>
      </trkpt>
      <trkpt lat="43.1439596" lon="-2.8186312">
        <ele>185.681</ele>
        <time>2021-04-01T09:35:42.930Z</time>
      </trkpt>
      <trkpt lat="43.1439633" lon="-2.8186356">
        <ele>185.655</ele>
        <time>2021-04-01T09:35:42.989Z</time>
      </trkpt>
      <trkpt lat="43.143967" lon="-2.8186395">
        <ele>185.571</ele>
        <time>2021-04-01T09:35:43.041Z</time>
      </trkpt>
      <trkpt lat="43.1439707" lon="-2.8186434">
        <ele>185.493</ele>
        <time>2021-04-01T09:35:43.093Z</time>
      </trkpt>
      <trkpt lat="43.1439744" lon="-2.818647">
        <ele>185.421</ele>
        <time>2021-04-01T09:35:43.145Z</time>
      </trkpt>
      <trkpt lat="43.143978" lon="-2.818651">
        <ele>185.373</ele>
        <time>2021-04-01T09:35:43.197Z</time>
      </trkpt>
      <trkpt lat="43.1439817" lon="-2.8186549">
        <ele>185.331</ele>
        <time>2021-04-01T09:35:43.249Z</time>
      </trkpt>
      <trkpt lat="43.1439855" lon="-2.8186587">
        <ele>185.303</ele>
        <time>2021-04-01T09:35:43.301Z</time>
      </trkpt>
      <trkpt lat="43.1439895" lon="-2.8186624">
        <ele>185.249</ele>
        <time>2021-04-01T09:35:43.353Z</time>
      </trkpt>
      <trkpt lat="43.1439936" lon="-2.8186661">
        <ele>185.211</ele>
        <time>2021-04-01T09:35:43.405Z</time>
      </trkpt>
      <trkpt lat="43.1439975" lon="-2.8186699">
        <ele>185.14</ele>
        <time>2021-04-01T09:35:43.457Z</time>
      </trkpt>
      <trkpt lat="43.1440011" lon="-2.8186738">
        <ele>185.105</ele>
        <time>2021-04-01T09:35:43.510Z</time>
      </trkpt>
      <trkpt lat="43.1440048" lon="-2.8186774">
        <ele>185.067</ele>
        <time>2021-04-01T09:35:43.562Z</time>
      </trkpt>
      <trkpt lat="43.144009" lon="-2.8186811">
        <ele>185.022</ele>
        <time>2021-04-01T09:35:43.614Z</time>
      </trkpt>
      <trkpt lat="43.144013" lon="-2.8186848">
        <ele>184.963</ele>
        <time>2021-04-01T09:35:43.666Z</time>
      </trkpt>
      <trkpt lat="43.1440167" lon="-2.8186885">
        <ele>184.928</ele>
        <time>2021-04-01T09:35:43.718Z</time>
      </trkpt>
      <trkpt lat="43.1440205" lon="-2.8186924">
        <ele>184.878</ele>
        <time>2021-04-01T09:35:43.770Z</time>
      </trkpt>
      <trkpt lat="43.1440245" lon="-2.8186959">
        <ele>184.856</ele>
        <time>2021-04-01T09:35:43.822Z</time>
      </trkpt>
      <trkpt lat="43.1440285" lon="-2.8186994">
        <ele>184.813</ele>
        <time>2021-04-01T09:35:43.874Z</time>
      </trkpt>
      <trkpt lat="43.1440325" lon="-2.818703">
        <ele>184.785</ele>
        <time>2021-04-01T09:35:43.926Z</time>
      </trkpt>
      <trkpt lat="43.1440363" lon="-2.8187069">
        <ele>184.745</ele>
        <time>2021-04-01T09:35:43.979Z</time>
      </trkpt>
      <trkpt lat="43.1440403" lon="-2.8187105">
        <ele>184.694</ele>
        <time>2021-04-01T09:35:44.037Z</time>
      </trkpt>
      <trkpt lat="43.1440442" lon="-2.8187142">
        <ele>184.656</ele>
        <time>2021-04-01T09:35:44.095Z</time>
      </trkpt>
      <trkpt lat="43.1440484" lon="-2.8187174">
        <ele>184.619</ele>
        <time>2021-04-01T09:35:44.153Z</time>
      </trkpt>
      <trkpt lat="43.1440523" lon="-2.8187211">
        <ele>184.611</ele>
        <time>2021-04-01T09:35:44.211Z</time>
      </trkpt>
      <trkpt lat="43.1440561" lon="-2.8187252">
        <ele>184.578</ele>
        <time>2021-04-01T09:35:44.269Z</time>
      </trkpt>
      <trkpt lat="43.14406" lon="-2.8187288">
        <ele>184.556</ele>
        <time>2021-04-01T09:35:44.327Z</time>
      </trkpt>
      <trkpt lat="43.1440641" lon="-2.8187328">
        <ele>184.535</ele>
        <time>2021-04-01T09:35:44.385Z</time>
      </trkpt>
      <trkpt lat="43.1440681" lon="-2.8187369">
        <ele>184.549</ele>
        <time>2021-04-01T09:35:44.443Z</time>
      </trkpt>
      <trkpt lat="43.144072" lon="-2.8187409">
        <ele>184.527</ele>
        <time>2021-04-01T09:35:44.501Z</time>
      </trkpt>
      <trkpt lat="43.1440759" lon="-2.8187441">
        <ele>184.473</ele>
        <time>2021-04-01T09:35:44.559Z</time>
      </trkpt>
      <trkpt lat="43.1440801" lon="-2.8187474">
        <ele>184.397</ele>
        <time>2021-04-01T09:35:44.617Z</time>
      </trkpt>
      <trkpt lat="43.1440844" lon="-2.8187509">
        <ele>184.365</ele>
        <time>2021-04-01T09:35:44.675Z</time>
      </trkpt>
      <trkpt lat="43.1440887" lon="-2.8187536">
        <ele>184.286</ele>
        <time>2021-04-01T09:35:44.733Z</time>
      </trkpt>
      <trkpt lat="43.1440926" lon="-2.8187575">
        <ele>184.271</ele>
        <time>2021-04-01T09:35:44.791Z</time>
      </trkpt>
      <trkpt lat="43.1440968" lon="-2.8187608">
        <ele>184.229</ele>
        <time>2021-04-01T09:35:44.849Z</time>
      </trkpt>
      <trkpt lat="43.1441011" lon="-2.8187642">
        <ele>184.192</ele>
        <time>2021-04-01T09:35:44.907Z</time>
      </trkpt>
      <trkpt lat="43.1441053" lon="-2.8187676">
        <ele>184.141</ele>
        <time>2021-04-01T09:35:44.965Z</time>
      </trkpt>
      <trkpt lat="43.1441095" lon="-2.8187718">
        <ele>184.212</ele>
        <time>2021-04-01T09:35:45.024Z</time>
      </trkpt>
      <trkpt lat="43.1441137" lon="-2.818776">
        <ele>184.19</ele>
        <time>2021-04-01T09:35:45.079Z</time>
      </trkpt>
      <trkpt lat="43.1441178" lon="-2.8187795">
        <ele>184.19</ele>
        <time>2021-04-01T09:35:45.134Z</time>
      </trkpt>
      <trkpt lat="43.1441219" lon="-2.8187826">
        <ele>184.091</ele>
        <time>2021-04-01T09:35:45.189Z</time>
      </trkpt>
      <trkpt lat="43.1441257" lon="-2.8187859">
        <ele>184.036</ele>
        <time>2021-04-01T09:35:45.244Z</time>
      </trkpt>
      <trkpt lat="43.14413" lon="-2.8187898">
        <ele>184.027</ele>
        <time>2021-04-01T09:35:45.299Z</time>
      </trkpt>
      <trkpt lat="43.1441341" lon="-2.8187934">
        <ele>183.968</ele>
        <time>2021-04-01T09:35:45.354Z</time>
      </trkpt>
      <trkpt lat="43.144138" lon="-2.8187968">
        <ele>183.956</ele>
        <time>2021-04-01T09:35:45.409Z</time>
      </trkpt>
      <trkpt lat="43.1441422" lon="-2.8188007">
        <ele>183.986</ele>
        <time>2021-04-01T09:35:45.464Z</time>
      </trkpt>
      <trkpt lat="43.1441464" lon="-2.8188046">
        <ele>183.986</ele>
        <time>2021-04-01T09:35:45.519Z</time>
      </trkpt>
      <trkpt lat="43.1441503" lon="-2.8188082">
        <ele>183.897</ele>
        <time>2021-04-01T09:35:45.574Z</time>
      </trkpt>
      <trkpt lat="43.1441544" lon="-2.8188131">
        <ele>183.942</ele>
        <time>2021-04-01T09:35:45.629Z</time>
      </trkpt>
      <trkpt lat="43.1441586" lon="-2.818817">
        <ele>183.926</ele>
        <time>2021-04-01T09:35:45.684Z</time>
      </trkpt>
      <trkpt lat="43.1441627" lon="-2.8188211">
        <ele>183.961</ele>
        <time>2021-04-01T09:35:45.739Z</time>
      </trkpt>
      <trkpt lat="43.1441667" lon="-2.8188242">
        <ele>183.903</ele>
        <time>2021-04-01T09:35:45.794Z</time>
      </trkpt>
      <trkpt lat="43.1441702" lon="-2.8188273">
        <ele>183.748</ele>
        <time>2021-04-01T09:35:45.849Z</time>
      </trkpt>
      <trkpt lat="43.1441739" lon="-2.8188313">
        <ele>183.718</ele>
        <time>2021-04-01T09:35:45.904Z</time>
      </trkpt>
      <trkpt lat="43.1441778" lon="-2.8188347">
        <ele>183.649</ele>
        <time>2021-04-01T09:35:45.959Z</time>
      </trkpt>
      <trkpt lat="43.1441816" lon="-2.8188386">
        <ele>183.603</ele>
        <time>2021-04-01T09:35:46.011Z</time>
      </trkpt>
      <trkpt lat="43.1441855" lon="-2.8188424">
        <ele>183.547</ele>
        <time>2021-04-01T09:35:46.063Z</time>
      </trkpt>
      <trkpt lat="43.1441894" lon="-2.8188466">
        <ele>183.547</ele>
        <time>2021-04-01T09:35:46.115Z</time>
      </trkpt>
      <trkpt lat="43.1441933" lon="-2.8188506">
        <ele>183.514</ele>
        <time>2021-04-01T09:35:46.167Z</time>
      </trkpt>
      <trkpt lat="43.1441974" lon="-2.8188549">
        <ele>183.501</ele>
        <time>2021-04-01T09:35:46.219Z</time>
      </trkpt>
      <trkpt lat="43.1442013" lon="-2.8188591">
        <ele>183.489</ele>
        <time>2021-04-01T09:35:46.271Z</time>
      </trkpt>
      <trkpt lat="43.1442051" lon="-2.8188629">
        <ele>183.42</ele>
        <time>2021-04-01T09:35:46.323Z</time>
      </trkpt>
      <trkpt lat="43.1442088" lon="-2.8188668">
        <ele>183.335</ele>
        <time>2021-04-01T09:35:46.375Z</time>
      </trkpt>
      <trkpt lat="43.1442131" lon="-2.8188708">
        <ele>183.235</ele>
        <time>2021-04-01T09:35:46.427Z</time>
      </trkpt>
      <trkpt lat="43.1442171" lon="-2.8188743">
        <ele>183.099</ele>
        <time>2021-04-01T09:35:46.480Z</time>
      </trkpt>
      <trkpt lat="43.1442209" lon="-2.8188781">
        <ele>183.046</ele>
        <time>2021-04-01T09:35:46.532Z</time>
      </trkpt>
      <trkpt lat="43.1442249" lon="-2.818882">
        <ele>182.991</ele>
        <time>2021-04-01T09:35:46.584Z</time>
      </trkpt>
      <trkpt lat="43.1442289" lon="-2.818886">
        <ele>182.935</ele>
        <time>2021-04-01T09:35:46.636Z</time>
      </trkpt>
      <trkpt lat="43.1442329" lon="-2.8188904">
        <ele>182.918</ele>
        <time>2021-04-01T09:35:46.688Z</time>
      </trkpt>
      <trkpt lat="43.1442369" lon="-2.8188947">
        <ele>182.905</ele>
        <time>2021-04-01T09:35:46.740Z</time>
      </trkpt>
      <trkpt lat="43.1442408" lon="-2.818899">
        <ele>182.891</ele>
        <time>2021-04-01T09:35:46.792Z</time>
      </trkpt>
      <trkpt lat="43.1442445" lon="-2.8189037">
        <ele>182.881</ele>
        <time>2021-04-01T09:35:46.844Z</time>
      </trkpt>
      <trkpt lat="43.1442484" lon="-2.8189077">
        <ele>182.852</ele>
        <time>2021-04-01T09:35:46.896Z</time>
      </trkpt>
      <trkpt lat="43.1442521" lon="-2.8189117">
        <ele>182.804</ele>
        <time>2021-04-01T09:35:46.949Z</time>
      </trkpt>
      <trkpt lat="43.1442562" lon="-2.8189154">
        <ele>182.736</ele>
        <time>2021-04-01T09:35:47.007Z</time>
      </trkpt>
      <trkpt lat="43.1442604" lon="-2.8189194">
        <ele>182.669</ele>
        <time>2021-04-01T09:35:47.065Z</time>
      </trkpt>
      <trkpt lat="43.1442643" lon="-2.8189237">
        <ele>182.626</ele>
        <time>2021-04-01T09:35:47.123Z</time>
      </trkpt>
      <trkpt lat="43.1442682" lon="-2.8189281">
        <ele>182.584</ele>
        <time>2021-04-01T09:35:47.181Z</time>
      </trkpt>
      <trkpt lat="43.1442723" lon="-2.818932">
        <ele>182.534</ele>
        <time>2021-04-01T09:35:47.239Z</time>
      </trkpt>
      <trkpt lat="43.1442765" lon="-2.8189362">
        <ele>182.518</ele>
        <time>2021-04-01T09:35:47.297Z</time>
      </trkpt>
      <trkpt lat="43.1442804" lon="-2.8189399">
        <ele>182.486</ele>
        <time>2021-04-01T09:35:47.355Z</time>
      </trkpt>
      <trkpt lat="43.1442846" lon="-2.8189435">
        <ele>182.454</ele>
        <time>2021-04-01T09:35:47.413Z</time>
      </trkpt>
      <trkpt lat="43.1442891" lon="-2.8189476">
        <ele>182.409</ele>
        <time>2021-04-01T09:35:47.471Z</time>
      </trkpt>
      <trkpt lat="43.1442934" lon="-2.8189518">
        <ele>182.432</ele>
        <time>2021-04-01T09:35:47.529Z</time>
      </trkpt>
      <trkpt lat="43.1442973" lon="-2.818956">
        <ele>182.404</ele>
        <time>2021-04-01T09:35:47.587Z</time>
      </trkpt>
      <trkpt lat="43.1443014" lon="-2.8189601">
        <ele>182.395</ele>
        <time>2021-04-01T09:35:47.645Z</time>
      </trkpt>
      <trkpt lat="43.1443052" lon="-2.8189646">
        <ele>182.377</ele>
        <time>2021-04-01T09:35:47.703Z</time>
      </trkpt>
      <trkpt lat="43.1443091" lon="-2.8189689">
        <ele>182.382</ele>
        <time>2021-04-01T09:35:47.761Z</time>
      </trkpt>
      <trkpt lat="43.1443131" lon="-2.8189732">
        <ele>182.381</ele>
        <time>2021-04-01T09:35:47.819Z</time>
      </trkpt>
      <trkpt lat="43.1443173" lon="-2.8189773">
        <ele>182.355</ele>
        <time>2021-04-01T09:35:47.877Z</time>
      </trkpt>
      <trkpt lat="43.1443213" lon="-2.8189813">
        <ele>182.332</ele>
        <time>2021-04-01T09:35:47.935Z</time>
      </trkpt>
      <trkpt lat="43.1443253" lon="-2.8189854">
        <ele>182.323</ele>
        <time>2021-04-01T09:35:47.994Z</time>
      </trkpt>
      <trkpt lat="43.1443291" lon="-2.81899">
        <ele>182.325</ele>
        <time>2021-04-01T09:35:48.049Z</time>
      </trkpt>
      <trkpt lat="43.1443329" lon="-2.8189938">
        <ele>182.283</ele>
        <time>2021-04-01T09:35:48.104Z</time>
      </trkpt>
      <trkpt lat="43.1443366" lon="-2.8189979">
        <ele>182.233</ele>
        <time>2021-04-01T09:35:48.159Z</time>
      </trkpt>
      <trkpt lat="43.1443404" lon="-2.8190022">
        <ele>182.191</ele>
        <time>2021-04-01T09:35:48.214Z</time>
      </trkpt>
      <trkpt lat="43.1443444" lon="-2.8190069">
        <ele>182.202</ele>
        <time>2021-04-01T09:35:48.269Z</time>
      </trkpt>
      <trkpt lat="43.1443483" lon="-2.8190118">
        <ele>182.342</ele>
        <time>2021-04-01T09:35:48.324Z</time>
      </trkpt>
      <trkpt lat="43.1443528" lon="-2.8190162">
        <ele>182.399</ele>
        <time>2021-04-01T09:35:48.379Z</time>
      </trkpt>
      <trkpt lat="43.1443567" lon="-2.8190204">
        <ele>182.43</ele>
        <time>2021-04-01T09:35:48.434Z</time>
      </trkpt>
      <trkpt lat="43.1443602" lon="-2.8190246">
        <ele>182.401</ele>
        <time>2021-04-01T09:35:48.489Z</time>
      </trkpt>
      <trkpt lat="43.1443639" lon="-2.8190294">
        <ele>182.399</ele>
        <time>2021-04-01T09:35:48.544Z</time>
      </trkpt>
      <trkpt lat="43.1443677" lon="-2.8190342">
        <ele>182.398</ele>
        <time>2021-04-01T09:35:48.599Z</time>
      </trkpt>
      <trkpt lat="43.1443714" lon="-2.8190388">
        <ele>182.368</ele>
        <time>2021-04-01T09:35:48.654Z</time>
      </trkpt>
      <trkpt lat="43.1443752" lon="-2.8190429">
        <ele>182.343</ele>
        <time>2021-04-01T09:35:48.709Z</time>
      </trkpt>
      <trkpt lat="43.1443788" lon="-2.8190476">
        <ele>182.347</ele>
        <time>2021-04-01T09:35:48.764Z</time>
      </trkpt>
      <trkpt lat="43.1443825" lon="-2.8190527">
        <ele>182.336</ele>
        <time>2021-04-01T09:35:48.819Z</time>
      </trkpt>
      <trkpt lat="43.1443861" lon="-2.8190579">
        <ele>182.339</ele>
        <time>2021-04-01T09:35:48.874Z</time>
      </trkpt>
      <trkpt lat="43.1443894" lon="-2.8190627">
        <ele>182.307</ele>
        <time>2021-04-01T09:35:48.929Z</time>
      </trkpt>
      <trkpt lat="43.1443921" lon="-2.8190672">
        <ele>182.184</ele>
        <time>2021-04-01T09:35:48.984Z</time>
      </trkpt>
      <trkpt lat="43.1443952" lon="-2.8190722">
        <ele>182.115</ele>
        <time>2021-04-01T09:35:49.039Z</time>
      </trkpt>
      <trkpt lat="43.1443981" lon="-2.8190764">
        <ele>181.977</ele>
        <time>2021-04-01T09:35:49.094Z</time>
      </trkpt>
      <trkpt lat="43.144402" lon="-2.819081">
        <ele>181.978</ele>
        <time>2021-04-01T09:35:49.149Z</time>
      </trkpt>
      <trkpt lat="43.1444054" lon="-2.8190859">
        <ele>181.942</ele>
        <time>2021-04-01T09:35:49.204Z</time>
      </trkpt>
      <trkpt lat="43.1444088" lon="-2.8190911">
        <ele>181.911</ele>
        <time>2021-04-01T09:35:49.259Z</time>
      </trkpt>
      <trkpt lat="43.1444123" lon="-2.8190961">
        <ele>181.902</ele>
        <time>2021-04-01T09:35:49.314Z</time>
      </trkpt>
      <trkpt lat="43.1444156" lon="-2.8191015">
        <ele>181.934</ele>
        <time>2021-04-01T09:35:49.369Z</time>
      </trkpt>
      <trkpt lat="43.1444189" lon="-2.819107">
        <ele>181.953</ele>
        <time>2021-04-01T09:35:49.424Z</time>
      </trkpt>
      <trkpt lat="43.1444221" lon="-2.8191127">
        <ele>181.963</ele>
        <time>2021-04-01T09:35:49.479Z</time>
      </trkpt>
      <trkpt lat="43.1444257" lon="-2.8191176">
        <ele>181.929</ele>
        <time>2021-04-01T09:35:49.534Z</time>
      </trkpt>
      <trkpt lat="43.1444288" lon="-2.8191225">
        <ele>181.87</ele>
        <time>2021-04-01T09:35:49.589Z</time>
      </trkpt>
      <trkpt lat="43.1444324" lon="-2.8191274">
        <ele>181.857</ele>
        <time>2021-04-01T09:35:49.644Z</time>
      </trkpt>
      <trkpt lat="43.1444356" lon="-2.8191323">
        <ele>181.799</ele>
        <time>2021-04-01T09:35:49.699Z</time>
      </trkpt>
      <trkpt lat="43.1444387" lon="-2.8191379">
        <ele>181.769</ele>
        <time>2021-04-01T09:35:49.754Z</time>
      </trkpt>
      <trkpt lat="43.1444421" lon="-2.819143">
        <ele>181.72</ele>
        <time>2021-04-01T09:35:49.809Z</time>
      </trkpt>
      <trkpt lat="43.1444451" lon="-2.8191478">
        <ele>181.671</ele>
        <time>2021-04-01T09:35:49.864Z</time>
      </trkpt>
      <trkpt lat="43.1444482" lon="-2.8191529">
        <ele>181.632</ele>
        <time>2021-04-01T09:35:49.919Z</time>
      </trkpt>
      <trkpt lat="43.144451" lon="-2.8191582">
        <ele>181.582</ele>
        <time>2021-04-01T09:35:49.974Z</time>
      </trkpt>
      <trkpt lat="43.1444538" lon="-2.8191638">
        <ele>181.562</ele>
        <time>2021-04-01T09:35:50.026Z</time>
      </trkpt>
      <trkpt lat="43.1444566" lon="-2.8191692">
        <ele>181.516</ele>
        <time>2021-04-01T09:35:50.078Z</time>
      </trkpt>
      <trkpt lat="43.1444593" lon="-2.8191754">
        <ele>181.484</ele>
        <time>2021-04-01T09:35:50.130Z</time>
      </trkpt>
      <trkpt lat="43.144462" lon="-2.8191806">
        <ele>181.414</ele>
        <time>2021-04-01T09:35:50.182Z</time>
      </trkpt>
      <trkpt lat="43.1444649" lon="-2.8191854">
        <ele>181.315</ele>
        <time>2021-04-01T09:35:50.234Z</time>
      </trkpt>
      <trkpt lat="43.1444679" lon="-2.8191905">
        <ele>181.3</ele>
        <time>2021-04-01T09:35:50.286Z</time>
      </trkpt>
      <trkpt lat="43.1444708" lon="-2.8191955">
        <ele>181.224</ele>
        <time>2021-04-01T09:35:50.338Z</time>
      </trkpt>
      <trkpt lat="43.1444734" lon="-2.8192008">
        <ele>181.124</ele>
        <time>2021-04-01T09:35:50.390Z</time>
      </trkpt>
      <trkpt lat="43.144476" lon="-2.8192058">
        <ele>181.029</ele>
        <time>2021-04-01T09:35:50.442Z</time>
      </trkpt>
      <trkpt lat="43.1444785" lon="-2.8192109">
        <ele>180.919</ele>
        <time>2021-04-01T09:35:50.495Z</time>
      </trkpt>
      <trkpt lat="43.1444812" lon="-2.8192155">
        <ele>180.832</ele>
        <time>2021-04-01T09:35:50.547Z</time>
      </trkpt>
      <trkpt lat="43.1444838" lon="-2.8192211">
        <ele>180.776</ele>
        <time>2021-04-01T09:35:50.599Z</time>
      </trkpt>
      <trkpt lat="43.1444863" lon="-2.8192266">
        <ele>180.648</ele>
        <time>2021-04-01T09:35:50.651Z</time>
      </trkpt>
      <trkpt lat="43.1444889" lon="-2.8192321">
        <ele>180.565</ele>
        <time>2021-04-01T09:35:50.703Z</time>
      </trkpt>
      <trkpt lat="43.1444911" lon="-2.819238">
        <ele>180.551</ele>
        <time>2021-04-01T09:35:50.755Z</time>
      </trkpt>
      <trkpt lat="43.1444932" lon="-2.8192437">
        <ele>180.484</ele>
        <time>2021-04-01T09:35:50.807Z</time>
      </trkpt>
      <trkpt lat="43.1444953" lon="-2.8192503">
        <ele>180.426</ele>
        <time>2021-04-01T09:35:50.859Z</time>
      </trkpt>
      <trkpt lat="43.144498" lon="-2.8192561">
        <ele>180.359</ele>
        <time>2021-04-01T09:35:50.911Z</time>
      </trkpt>
      <trkpt lat="43.1445005" lon="-2.8192618">
        <ele>180.323</ele>
        <time>2021-04-01T09:35:50.964Z</time>
      </trkpt>
      <trkpt lat="43.1445031" lon="-2.8192672">
        <ele>180.295</ele>
        <time>2021-04-01T09:35:51.022Z</time>
      </trkpt>
      <trkpt lat="43.1445056" lon="-2.8192725">
        <ele>180.228</ele>
        <time>2021-04-01T09:35:51.080Z</time>
      </trkpt>
      <trkpt lat="43.1445083" lon="-2.8192782">
        <ele>180.177</ele>
        <time>2021-04-01T09:35:51.138Z</time>
      </trkpt>
      <trkpt lat="43.1445104" lon="-2.8192841">
        <ele>180.127</ele>
        <time>2021-04-01T09:35:51.196Z</time>
      </trkpt>
      <trkpt lat="43.1445132" lon="-2.8192895">
        <ele>180.077</ele>
        <time>2021-04-01T09:35:51.254Z</time>
      </trkpt>
      <trkpt lat="43.1445159" lon="-2.819295">
        <ele>179.987</ele>
        <time>2021-04-01T09:35:51.312Z</time>
      </trkpt>
      <trkpt lat="43.1445184" lon="-2.8193005">
        <ele>179.922</ele>
        <time>2021-04-01T09:35:51.370Z</time>
      </trkpt>
      <trkpt lat="43.1445208" lon="-2.8193059">
        <ele>179.821</ele>
        <time>2021-04-01T09:35:51.428Z</time>
      </trkpt>
      <trkpt lat="43.1445232" lon="-2.8193114">
        <ele>179.787</ele>
        <time>2021-04-01T09:35:51.486Z</time>
      </trkpt>
      <trkpt lat="43.1445254" lon="-2.8193167">
        <ele>179.706</ele>
        <time>2021-04-01T09:35:51.544Z</time>
      </trkpt>
      <trkpt lat="43.1445277" lon="-2.8193227">
        <ele>179.692</ele>
        <time>2021-04-01T09:35:51.602Z</time>
      </trkpt>
      <trkpt lat="43.1445301" lon="-2.8193287">
        <ele>179.654</ele>
        <time>2021-04-01T09:35:51.660Z</time>
      </trkpt>
      <trkpt lat="43.1445324" lon="-2.819335">
        <ele>179.596</ele>
        <time>2021-04-01T09:35:51.718Z</time>
      </trkpt>
      <trkpt lat="43.1445345" lon="-2.8193409">
        <ele>179.531</ele>
        <time>2021-04-01T09:35:51.776Z</time>
      </trkpt>
      <trkpt lat="43.1445367" lon="-2.8193469">
        <ele>179.49</ele>
        <time>2021-04-01T09:35:51.834Z</time>
      </trkpt>
      <trkpt lat="43.1445389" lon="-2.8193534">
        <ele>179.461</ele>
        <time>2021-04-01T09:35:51.892Z</time>
      </trkpt>
      <trkpt lat="43.144541" lon="-2.81936">
        <ele>179.418</ele>
        <time>2021-04-01T09:35:51.950Z</time>
      </trkpt>
      <trkpt lat="43.144543" lon="-2.8193663">
        <ele>179.419</ele>
        <time>2021-04-01T09:35:52.009Z</time>
      </trkpt>
      <trkpt lat="43.1445454" lon="-2.8193725">
        <ele>179.423</ele>
        <time>2021-04-01T09:35:52.067Z</time>
      </trkpt>
      <trkpt lat="43.1445474" lon="-2.8193784">
        <ele>179.384</ele>
        <time>2021-04-01T09:35:52.125Z</time>
      </trkpt>
      <trkpt lat="43.1445493" lon="-2.819384">
        <ele>179.363</ele>
        <time>2021-04-01T09:35:52.183Z</time>
      </trkpt>
      <trkpt lat="43.1445513" lon="-2.8193899">
        <ele>179.37</ele>
        <time>2021-04-01T09:35:52.242Z</time>
      </trkpt>
      <trkpt lat="43.1445537" lon="-2.8193963">
        <ele>179.382</ele>
        <time>2021-04-01T09:35:52.300Z</time>
      </trkpt>
      <trkpt lat="43.144556" lon="-2.8194024">
        <ele>179.397</ele>
        <time>2021-04-01T09:35:52.358Z</time>
      </trkpt>
      <trkpt lat="43.1445586" lon="-2.8194085">
        <ele>179.368</ele>
        <time>2021-04-01T09:35:52.417Z</time>
      </trkpt>
      <trkpt lat="43.1445625" lon="-2.8194159">
        <ele>179.298</ele>
        <time>2021-04-01T09:35:52.475Z</time>
      </trkpt>
      <trkpt lat="43.1445649" lon="-2.8194227">
        <ele>179.275</ele>
        <time>2021-04-01T09:35:52.533Z</time>
      </trkpt>
      <trkpt lat="43.1445674" lon="-2.8194287">
        <ele>179.229</ele>
        <time>2021-04-01T09:35:52.591Z</time>
      </trkpt>
      <trkpt lat="43.14457" lon="-2.8194347">
        <ele>179.139</ele>
        <time>2021-04-01T09:35:52.650Z</time>
      </trkpt>
      <trkpt lat="43.1445722" lon="-2.8194401">
        <ele>179.082</ele>
        <time>2021-04-01T09:35:52.708Z</time>
      </trkpt>
      <trkpt lat="43.144574" lon="-2.8194461">
        <ele>179.008</ele>
        <time>2021-04-01T09:35:52.766Z</time>
      </trkpt>
      <trkpt lat="43.1445762" lon="-2.8194521">
        <ele>178.956</ele>
        <time>2021-04-01T09:35:52.825Z</time>
      </trkpt>
      <trkpt lat="43.1445784" lon="-2.8194581">
        <ele>178.885</ele>
        <time>2021-04-01T09:35:52.883Z</time>
      </trkpt>
      <trkpt lat="43.1445808" lon="-2.8194641">
        <ele>178.809</ele>
        <time>2021-04-01T09:35:52.941Z</time>
      </trkpt>
      <trkpt lat="43.1445828" lon="-2.81947">
        <ele>178.733</ele>
        <time>2021-04-01T09:35:53.000Z</time>
      </trkpt>
      <trkpt lat="43.1445854" lon="-2.8194763">
        <ele>178.687</ele>
        <time>2021-04-01T09:35:53.054Z</time>
      </trkpt>
      <trkpt lat="43.1445875" lon="-2.819482">
        <ele>178.632</ele>
        <time>2021-04-01T09:35:53.109Z</time>
      </trkpt>
      <trkpt lat="43.1445896" lon="-2.8194881">
        <ele>178.546</ele>
        <time>2021-04-01T09:35:53.164Z</time>
      </trkpt>
      <trkpt lat="43.1445917" lon="-2.8194934">
        <ele>178.456</ele>
        <time>2021-04-01T09:35:53.219Z</time>
      </trkpt>
      <trkpt lat="43.1445939" lon="-2.8194997">
        <ele>178.404</ele>
        <time>2021-04-01T09:35:53.274Z</time>
      </trkpt>
      <trkpt lat="43.144596" lon="-2.819506">
        <ele>178.366</ele>
        <time>2021-04-01T09:35:53.329Z</time>
      </trkpt>
      <trkpt lat="43.144598" lon="-2.8195123">
        <ele>178.336</ele>
        <time>2021-04-01T09:35:53.384Z</time>
      </trkpt>
      <trkpt lat="43.1446004" lon="-2.8195188">
        <ele>178.304</ele>
        <time>2021-04-01T09:35:53.439Z</time>
      </trkpt>
      <trkpt lat="43.1446026" lon="-2.8195253">
        <ele>178.267</ele>
        <time>2021-04-01T09:35:53.494Z</time>
      </trkpt>
      <trkpt lat="43.1446043" lon="-2.8195312">
        <ele>178.164</ele>
        <time>2021-04-01T09:35:53.549Z</time>
      </trkpt>
      <trkpt lat="43.1446062" lon="-2.8195371">
        <ele>178.017</ele>
        <time>2021-04-01T09:35:53.604Z</time>
      </trkpt>
      <trkpt lat="43.1446083" lon="-2.8195427">
        <ele>177.833</ele>
        <time>2021-04-01T09:35:53.659Z</time>
      </trkpt>
      <trkpt lat="43.1446101" lon="-2.8195481">
        <ele>177.721</ele>
        <time>2021-04-01T09:35:53.714Z</time>
      </trkpt>
      <trkpt lat="43.1446125" lon="-2.8195544">
        <ele>177.615</ele>
        <time>2021-04-01T09:35:53.769Z</time>
      </trkpt>
      <trkpt lat="43.1446149" lon="-2.8195605">
        <ele>177.55</ele>
        <time>2021-04-01T09:35:53.824Z</time>
      </trkpt>
      <trkpt lat="43.1446172" lon="-2.8195674">
        <ele>177.542</ele>
        <time>2021-04-01T09:35:53.879Z</time>
      </trkpt>
      <trkpt lat="43.14462" lon="-2.8195745">
        <ele>177.621</ele>
        <time>2021-04-01T09:35:53.934Z</time>
      </trkpt>
      <trkpt lat="43.1446225" lon="-2.819581">
        <ele>177.55</ele>
        <time>2021-04-01T09:35:53.989Z</time>
      </trkpt>
      <trkpt lat="43.1446252" lon="-2.8195874">
        <ele>177.579</ele>
        <time>2021-04-01T09:35:54.044Z</time>
      </trkpt>
      <trkpt lat="43.1446282" lon="-2.8195937">
        <ele>177.61</ele>
        <time>2021-04-01T09:35:54.095Z</time>
      </trkpt>
      <trkpt lat="43.1446308" lon="-2.8196003">
        <ele>177.67</ele>
        <time>2021-04-01T09:35:54.147Z</time>
      </trkpt>
      <trkpt lat="43.1446335" lon="-2.8196064">
        <ele>177.703</ele>
        <time>2021-04-01T09:35:54.199Z</time>
      </trkpt>
      <trkpt lat="43.1446362" lon="-2.8196137">
        <ele>177.705</ele>
        <time>2021-04-01T09:35:54.251Z</time>
      </trkpt>
      <trkpt lat="43.1446389" lon="-2.8196201">
        <ele>177.647</ele>
        <time>2021-04-01T09:35:54.303Z</time>
      </trkpt>
      <trkpt lat="43.1446415" lon="-2.8196263">
        <ele>177.639</ele>
        <time>2021-04-01T09:35:54.355Z</time>
      </trkpt>
      <trkpt lat="43.1446446" lon="-2.8196322">
        <ele>177.672</ele>
        <time>2021-04-01T09:35:54.407Z</time>
      </trkpt>
      <trkpt lat="43.1446476" lon="-2.8196382">
        <ele>177.645</ele>
        <time>2021-04-01T09:35:54.459Z</time>
      </trkpt>
      <trkpt lat="43.1446502" lon="-2.8196441">
        <ele>177.571</ele>
        <time>2021-04-01T09:35:54.511Z</time>
      </trkpt>
      <trkpt lat="43.1446529" lon="-2.8196503">
        <ele>177.544</ele>
        <time>2021-04-01T09:35:54.563Z</time>
      </trkpt>
      <trkpt lat="43.1446554" lon="-2.8196563">
        <ele>177.586</ele>
        <time>2021-04-01T09:35:54.615Z</time>
      </trkpt>
      <trkpt lat="43.1446586" lon="-2.819663">
        <ele>177.615</ele>
        <time>2021-04-01T09:35:54.667Z</time>
      </trkpt>
      <trkpt lat="43.1446619" lon="-2.8196693">
        <ele>177.634</ele>
        <time>2021-04-01T09:35:54.719Z</time>
      </trkpt>
      <trkpt lat="43.144665" lon="-2.8196754">
        <ele>177.638</ele>
        <time>2021-04-01T09:35:54.771Z</time>
      </trkpt>
      <trkpt lat="43.144668" lon="-2.8196818">
        <ele>177.641</ele>
        <time>2021-04-01T09:35:54.823Z</time>
      </trkpt>
      <trkpt lat="43.1446714" lon="-2.8196891">
        <ele>177.818</ele>
        <time>2021-04-01T09:35:54.875Z</time>
      </trkpt>
      <trkpt lat="43.1446746" lon="-2.8196955">
        <ele>177.833</ele>
        <time>2021-04-01T09:35:54.927Z</time>
      </trkpt>
      <trkpt lat="43.1446779" lon="-2.8197016">
        <ele>177.787</ele>
        <time>2021-04-01T09:35:54.979Z</time>
      </trkpt>
      <trkpt lat="43.1446811" lon="-2.8197078">
        <ele>177.811</ele>
        <time>2021-04-01T09:35:55.034Z</time>
      </trkpt>
      <trkpt lat="43.1446842" lon="-2.819714">
        <ele>177.89</ele>
        <time>2021-04-01T09:35:55.089Z</time>
      </trkpt>
      <trkpt lat="43.1446875" lon="-2.8197205">
        <ele>177.96</ele>
        <time>2021-04-01T09:35:55.144Z</time>
      </trkpt>
      <trkpt lat="43.1446907" lon="-2.819726">
        <ele>177.937</ele>
        <time>2021-04-01T09:35:55.199Z</time>
      </trkpt>
      <trkpt lat="43.1446941" lon="-2.8197314">
        <ele>177.91</ele>
        <time>2021-04-01T09:35:55.254Z</time>
      </trkpt>
      <trkpt lat="43.1446973" lon="-2.8197371">
        <ele>177.863</ele>
        <time>2021-04-01T09:35:55.309Z</time>
      </trkpt>
      <trkpt lat="43.1447005" lon="-2.8197427">
        <ele>177.793</ele>
        <time>2021-04-01T09:35:55.364Z</time>
      </trkpt>
      <trkpt lat="43.1447037" lon="-2.8197482">
        <ele>177.725</ele>
        <time>2021-04-01T09:35:55.419Z</time>
      </trkpt>
      <trkpt lat="43.1447071" lon="-2.8197538">
        <ele>177.704</ele>
        <time>2021-04-01T09:35:55.474Z</time>
      </trkpt>
      <trkpt lat="43.1447101" lon="-2.8197593">
        <ele>177.71</ele>
        <time>2021-04-01T09:35:55.529Z</time>
      </trkpt>
      <trkpt lat="43.1447132" lon="-2.8197655">
        <ele>177.698</ele>
        <time>2021-04-01T09:35:55.584Z</time>
      </trkpt>
      <trkpt lat="43.1447167" lon="-2.8197715">
        <ele>177.662</ele>
        <time>2021-04-01T09:35:55.639Z</time>
      </trkpt>
      <trkpt lat="43.1447202" lon="-2.8197774">
        <ele>177.638</ele>
        <time>2021-04-01T09:35:55.694Z</time>
      </trkpt>
      <trkpt lat="43.1447235" lon="-2.8197832">
        <ele>177.653</ele>
        <time>2021-04-01T09:35:55.749Z</time>
      </trkpt>
      <trkpt lat="43.1447267" lon="-2.8197889">
        <ele>177.662</ele>
        <time>2021-04-01T09:35:55.804Z</time>
      </trkpt>
      <trkpt lat="43.1447303" lon="-2.8197946">
        <ele>177.644</ele>
        <time>2021-04-01T09:35:55.859Z</time>
      </trkpt>
      <trkpt lat="43.1447338" lon="-2.8198009">
        <ele>177.676</ele>
        <time>2021-04-01T09:35:55.914Z</time>
      </trkpt>
      <trkpt lat="43.1447376" lon="-2.8198068">
        <ele>177.704</ele>
        <time>2021-04-01T09:35:55.969Z</time>
      </trkpt>
      <trkpt lat="43.1447414" lon="-2.8198125">
        <ele>177.715</ele>
        <time>2021-04-01T09:35:56.024Z</time>
      </trkpt>
      <trkpt lat="43.1447453" lon="-2.8198186">
        <ele>177.752</ele>
        <time>2021-04-01T09:35:56.079Z</time>
      </trkpt>
      <trkpt lat="43.1447489" lon="-2.8198245">
        <ele>177.741</ele>
        <time>2021-04-01T09:35:56.134Z</time>
      </trkpt>
      <trkpt lat="43.1447526" lon="-2.8198298">
        <ele>177.731</ele>
        <time>2021-04-01T09:35:56.189Z</time>
      </trkpt>
      <trkpt lat="43.1447566" lon="-2.8198357">
        <ele>177.774</ele>
        <time>2021-04-01T09:35:56.244Z</time>
      </trkpt>
      <trkpt lat="43.1447606" lon="-2.8198414">
        <ele>177.824</ele>
        <time>2021-04-01T09:35:56.299Z</time>
      </trkpt>
      <trkpt lat="43.1447645" lon="-2.8198469">
        <ele>177.857</ele>
        <time>2021-04-01T09:35:56.354Z</time>
      </trkpt>
      <trkpt lat="43.1447683" lon="-2.8198524">
        <ele>177.874</ele>
        <time>2021-04-01T09:35:56.409Z</time>
      </trkpt>
      <trkpt lat="43.1447723" lon="-2.8198576">
        <ele>177.869</ele>
        <time>2021-04-01T09:35:56.464Z</time>
      </trkpt>
      <trkpt lat="43.1447762" lon="-2.8198631">
        <ele>177.87</ele>
        <time>2021-04-01T09:35:56.519Z</time>
      </trkpt>
      <trkpt lat="43.1447801" lon="-2.8198686">
        <ele>177.878</ele>
        <time>2021-04-01T09:35:56.574Z</time>
      </trkpt>
      <trkpt lat="43.144784" lon="-2.8198744">
        <ele>177.888</ele>
        <time>2021-04-01T09:35:56.629Z</time>
      </trkpt>
      <trkpt lat="43.1447878" lon="-2.8198801">
        <ele>177.875</ele>
        <time>2021-04-01T09:35:56.684Z</time>
      </trkpt>
      <trkpt lat="43.1447916" lon="-2.8198857">
        <ele>177.85</ele>
        <time>2021-04-01T09:35:56.739Z</time>
      </trkpt>
      <trkpt lat="43.1447955" lon="-2.819891">
        <ele>177.85</ele>
        <time>2021-04-01T09:35:56.794Z</time>
      </trkpt>
      <trkpt lat="43.1447996" lon="-2.8198964">
        <ele>177.869</ele>
        <time>2021-04-01T09:35:56.849Z</time>
      </trkpt>
      <trkpt lat="43.1448032" lon="-2.819902">
        <ele>177.867</ele>
        <time>2021-04-01T09:35:56.904Z</time>
      </trkpt>
      <trkpt lat="43.1448072" lon="-2.8199078">
        <ele>177.884</ele>
        <time>2021-04-01T09:35:56.959Z</time>
      </trkpt>
      <trkpt lat="43.144811" lon="-2.8199135">
        <ele>177.868</ele>
        <time>2021-04-01T09:35:57.014Z</time>
      </trkpt>
      <trkpt lat="43.1448148" lon="-2.8199187">
        <ele>177.838</ele>
        <time>2021-04-01T09:35:57.069Z</time>
      </trkpt>
      <trkpt lat="43.1448184" lon="-2.8199236">
        <ele>177.755</ele>
        <time>2021-04-01T09:35:57.124Z</time>
      </trkpt>
      <trkpt lat="43.1448223" lon="-2.8199282">
        <ele>177.695</ele>
        <time>2021-04-01T09:35:57.179Z</time>
      </trkpt>
      <trkpt lat="43.1448264" lon="-2.8199324">
        <ele>177.599</ele>
        <time>2021-04-01T09:35:57.234Z</time>
      </trkpt>
      <trkpt lat="43.1448303" lon="-2.8199358">
        <ele>177.455</ele>
        <time>2021-04-01T09:35:57.289Z</time>
      </trkpt>
      <trkpt lat="43.1448342" lon="-2.8199391">
        <ele>177.336</ele>
        <time>2021-04-01T09:35:57.344Z</time>
      </trkpt>
      <trkpt lat="43.1448378" lon="-2.8199432">
        <ele>177.224</ele>
        <time>2021-04-01T09:35:57.399Z</time>
      </trkpt>
      <trkpt lat="43.1448417" lon="-2.8199479">
        <ele>177.14</ele>
        <time>2021-04-01T09:35:57.454Z</time>
      </trkpt>
      <trkpt lat="43.1448458" lon="-2.8199523">
        <ele>177.092</ele>
        <time>2021-04-01T09:35:57.509Z</time>
      </trkpt>
      <trkpt lat="43.1448488" lon="-2.8199573">
        <ele>176.945</ele>
        <time>2021-04-01T09:35:57.564Z</time>
      </trkpt>
      <trkpt lat="43.1448528" lon="-2.8199622">
        <ele>176.922</ele>
        <time>2021-04-01T09:35:57.619Z</time>
      </trkpt>
      <trkpt lat="43.1448565" lon="-2.8199671">
        <ele>176.854</ele>
        <time>2021-04-01T09:35:57.674Z</time>
      </trkpt>
      <trkpt lat="43.1448607" lon="-2.8199723">
        <ele>176.845</ele>
        <time>2021-04-01T09:35:57.729Z</time>
      </trkpt>
      <trkpt lat="43.1448649" lon="-2.8199769">
        <ele>176.782</ele>
        <time>2021-04-01T09:35:57.784Z</time>
      </trkpt>
      <trkpt lat="43.144869" lon="-2.819982">
        <ele>176.789</ele>
        <time>2021-04-01T09:35:57.839Z</time>
      </trkpt>
      <trkpt lat="43.1448729" lon="-2.8199864">
        <ele>176.7</ele>
        <time>2021-04-01T09:35:57.894Z</time>
      </trkpt>
      <trkpt lat="43.1448772" lon="-2.8199907">
        <ele>176.643</ele>
        <time>2021-04-01T09:35:57.949Z</time>
      </trkpt>
      <trkpt lat="43.1448812" lon="-2.8199955">
        <ele>176.609</ele>
        <time>2021-04-01T09:35:58.004Z</time>
      </trkpt>
      <trkpt lat="43.1448852" lon="-2.8200004">
        <ele>176.564</ele>
        <time>2021-04-01T09:35:58.062Z</time>
      </trkpt>
      <trkpt lat="43.1448892" lon="-2.8200055">
        <ele>176.531</ele>
        <time>2021-04-01T09:35:58.120Z</time>
      </trkpt>
      <trkpt lat="43.144893" lon="-2.8200106">
        <ele>176.457</ele>
        <time>2021-04-01T09:35:58.178Z</time>
      </trkpt>
      <trkpt lat="43.1448969" lon="-2.8200155">
        <ele>176.399</ele>
        <time>2021-04-01T09:35:58.236Z</time>
      </trkpt>
      <trkpt lat="43.1449007" lon="-2.8200202">
        <ele>176.355</ele>
        <time>2021-04-01T09:35:58.294Z</time>
      </trkpt>
      <trkpt lat="43.1449043" lon="-2.820025">
        <ele>176.295</ele>
        <time>2021-04-01T09:35:58.352Z</time>
      </trkpt>
      <trkpt lat="43.1449081" lon="-2.8200295">
        <ele>176.214</ele>
        <time>2021-04-01T09:35:58.410Z</time>
      </trkpt>
      <trkpt lat="43.1449116" lon="-2.8200341">
        <ele>176.107</ele>
        <time>2021-04-01T09:35:58.468Z</time>
      </trkpt>
      <trkpt lat="43.1449152" lon="-2.820039">
        <ele>176.017</ele>
        <time>2021-04-01T09:35:58.526Z</time>
      </trkpt>
      <trkpt lat="43.1449192" lon="-2.8200442">
        <ele>175.99</ele>
        <time>2021-04-01T09:35:58.584Z</time>
      </trkpt>
      <trkpt lat="43.1449228" lon="-2.8200498">
        <ele>175.948</ele>
        <time>2021-04-01T09:35:58.642Z</time>
      </trkpt>
      <trkpt lat="43.1449265" lon="-2.8200547">
        <ele>175.872</ele>
        <time>2021-04-01T09:35:58.700Z</time>
      </trkpt>
      <trkpt lat="43.14493" lon="-2.8200593">
        <ele>175.772</ele>
        <time>2021-04-01T09:35:58.758Z</time>
      </trkpt>
      <trkpt lat="43.1449337" lon="-2.8200644">
        <ele>175.718</ele>
        <time>2021-04-01T09:35:58.816Z</time>
      </trkpt>
      <trkpt lat="43.1449372" lon="-2.8200694">
        <ele>175.626</ele>
        <time>2021-04-01T09:35:58.874Z</time>
      </trkpt>
      <trkpt lat="43.1449411" lon="-2.8200741">
        <ele>175.581</ele>
        <time>2021-04-01T09:35:58.932Z</time>
      </trkpt>
      <trkpt lat="43.1449447" lon="-2.8200799">
        <ele>175.595</ele>
        <time>2021-04-01T09:35:58.990Z</time>
      </trkpt>
      <trkpt lat="43.1449483" lon="-2.8200854">
        <ele>175.62</ele>
        <time>2021-04-01T09:35:59.049Z</time>
      </trkpt>
      <trkpt lat="43.1449521" lon="-2.8200905">
        <ele>175.616</ele>
        <time>2021-04-01T09:35:59.100Z</time>
      </trkpt>
      <trkpt lat="43.1449557" lon="-2.8200962">
        <ele>175.614</ele>
        <time>2021-04-01T09:35:59.152Z</time>
      </trkpt>
      <trkpt lat="43.1449595" lon="-2.8201015">
        <ele>175.638</ele>
        <time>2021-04-01T09:35:59.204Z</time>
      </trkpt>
      <trkpt lat="43.1449634" lon="-2.8201069">
        <ele>175.626</ele>
        <time>2021-04-01T09:35:59.256Z</time>
      </trkpt>
      <trkpt lat="43.1449676" lon="-2.820112">
        <ele>175.623</ele>
        <time>2021-04-01T09:35:59.308Z</time>
      </trkpt>
      <trkpt lat="43.1449711" lon="-2.820117">
        <ele>175.545</ele>
        <time>2021-04-01T09:35:59.360Z</time>
      </trkpt>
      <trkpt lat="43.1449746" lon="-2.8201223">
        <ele>175.515</ele>
        <time>2021-04-01T09:35:59.412Z</time>
      </trkpt>
      <trkpt lat="43.1449778" lon="-2.8201276">
        <ele>175.466</ele>
        <time>2021-04-01T09:35:59.464Z</time>
      </trkpt>
      <trkpt lat="43.1449811" lon="-2.8201332">
        <ele>175.407</ele>
        <time>2021-04-01T09:35:59.516Z</time>
      </trkpt>
      <trkpt lat="43.1449843" lon="-2.8201386">
        <ele>175.333</ele>
        <time>2021-04-01T09:35:59.568Z</time>
      </trkpt>
      <trkpt lat="43.1449879" lon="-2.8201439">
        <ele>175.346</ele>
        <time>2021-04-01T09:35:59.620Z</time>
      </trkpt>
      <trkpt lat="43.1449912" lon="-2.8201494">
        <ele>175.275</ele>
        <time>2021-04-01T09:35:59.672Z</time>
      </trkpt>
      <trkpt lat="43.1449948" lon="-2.8201548">
        <ele>175.222</ele>
        <time>2021-04-01T09:35:59.724Z</time>
      </trkpt>
      <trkpt lat="43.1449982" lon="-2.8201602">
        <ele>175.205</ele>
        <time>2021-04-01T09:35:59.776Z</time>
      </trkpt>
      <trkpt lat="43.1450022" lon="-2.820166">
        <ele>175.251</ele>
        <time>2021-04-01T09:35:59.828Z</time>
      </trkpt>
      <trkpt lat="43.1450062" lon="-2.8201718">
        <ele>175.317</ele>
        <time>2021-04-01T09:35:59.880Z</time>
      </trkpt>
      <trkpt lat="43.1450098" lon="-2.8201772">
        <ele>175.342</ele>
        <time>2021-04-01T09:35:59.932Z</time>
      </trkpt>
      <trkpt lat="43.1450137" lon="-2.8201829">
        <ele>175.379</ele>
        <time>2021-04-01T09:35:59.984Z</time>
      </trkpt>
      <trkpt lat="43.1450174" lon="-2.8201883">
        <ele>175.357</ele>
        <time>2021-04-01T09:36:00.039Z</time>
      </trkpt>
      <trkpt lat="43.1450209" lon="-2.8201934">
        <ele>175.301</ele>
        <time>2021-04-01T09:36:00.094Z</time>
      </trkpt>
      <trkpt lat="43.1450247" lon="-2.8201992">
        <ele>175.372</ele>
        <time>2021-04-01T09:36:00.149Z</time>
      </trkpt>
      <trkpt lat="43.1450284" lon="-2.8202047">
        <ele>175.364</ele>
        <time>2021-04-01T09:36:00.204Z</time>
      </trkpt>
      <trkpt lat="43.1450322" lon="-2.8202106">
        <ele>175.415</ele>
        <time>2021-04-01T09:36:00.259Z</time>
      </trkpt>
      <trkpt lat="43.1450355" lon="-2.8202161">
        <ele>175.389</ele>
        <time>2021-04-01T09:36:00.314Z</time>
      </trkpt>
      <trkpt lat="43.1450393" lon="-2.8202216">
        <ele>175.38</ele>
        <time>2021-04-01T09:36:00.369Z</time>
      </trkpt>
      <trkpt lat="43.1450428" lon="-2.8202271">
        <ele>175.36</ele>
        <time>2021-04-01T09:36:00.424Z</time>
      </trkpt>
      <trkpt lat="43.1450465" lon="-2.8202331">
        <ele>175.363</ele>
        <time>2021-04-01T09:36:00.479Z</time>
      </trkpt>
      <trkpt lat="43.14505" lon="-2.8202389">
        <ele>175.36</ele>
        <time>2021-04-01T09:36:00.534Z</time>
      </trkpt>
      <trkpt lat="43.1450532" lon="-2.8202444">
        <ele>175.339</ele>
        <time>2021-04-01T09:36:00.589Z</time>
      </trkpt>
      <trkpt lat="43.1450568" lon="-2.8202502">
        <ele>175.324</ele>
        <time>2021-04-01T09:36:00.644Z</time>
      </trkpt>
      <trkpt lat="43.1450604" lon="-2.820256">
        <ele>175.347</ele>
        <time>2021-04-01T09:36:00.699Z</time>
      </trkpt>
      <trkpt lat="43.1450642" lon="-2.8202619">
        <ele>175.367</ele>
        <time>2021-04-01T09:36:00.754Z</time>
      </trkpt>
      <trkpt lat="43.1450677" lon="-2.8202675">
        <ele>175.371</ele>
        <time>2021-04-01T09:36:00.809Z</time>
      </trkpt>
      <trkpt lat="43.1450708" lon="-2.820273">
        <ele>175.334</ele>
        <time>2021-04-01T09:36:00.864Z</time>
      </trkpt>
      <trkpt lat="43.1450741" lon="-2.8202789">
        <ele>175.281</ele>
        <time>2021-04-01T09:36:00.919Z</time>
      </trkpt>
      <trkpt lat="43.1450777" lon="-2.8202848">
        <ele>175.34</ele>
        <time>2021-04-01T09:36:00.974Z</time>
      </trkpt>
      <trkpt lat="43.1450802" lon="-2.8202903">
        <ele>175.204</ele>
        <time>2021-04-01T09:36:01.029Z</time>
      </trkpt>
      <trkpt lat="43.1450834" lon="-2.8202962">
        <ele>175.172</ele>
        <time>2021-04-01T09:36:01.084Z</time>
      </trkpt>
      <trkpt lat="43.1450859" lon="-2.8203016">
        <ele>174.974</ele>
        <time>2021-04-01T09:36:01.139Z</time>
      </trkpt>
      <trkpt lat="43.145089" lon="-2.8203073">
        <ele>174.893</ele>
        <time>2021-04-01T09:36:01.194Z</time>
      </trkpt>
      <trkpt lat="43.1450922" lon="-2.820313">
        <ele>174.838</ele>
        <time>2021-04-01T09:36:01.249Z</time>
      </trkpt>
      <trkpt lat="43.1450958" lon="-2.8203189">
        <ele>174.84</ele>
        <time>2021-04-01T09:36:01.304Z</time>
      </trkpt>
      <trkpt lat="43.1450991" lon="-2.8203245">
        <ele>174.824</ele>
        <time>2021-04-01T09:36:01.359Z</time>
      </trkpt>
      <trkpt lat="43.1451026" lon="-2.8203304">
        <ele>174.811</ele>
        <time>2021-04-01T09:36:01.414Z</time>
      </trkpt>
      <trkpt lat="43.1451061" lon="-2.8203361">
        <ele>174.782</ele>
        <time>2021-04-01T09:36:01.469Z</time>
      </trkpt>
      <trkpt lat="43.14511" lon="-2.8203424">
        <ele>174.842</ele>
        <time>2021-04-01T09:36:01.524Z</time>
      </trkpt>
      <trkpt lat="43.1451144" lon="-2.8203487">
        <ele>174.96</ele>
        <time>2021-04-01T09:36:01.579Z</time>
      </trkpt>
      <trkpt lat="43.1451192" lon="-2.8203555">
        <ele>175.177</ele>
        <time>2021-04-01T09:36:01.634Z</time>
      </trkpt>
      <trkpt lat="43.1451234" lon="-2.8203616">
        <ele>175.243</ele>
        <time>2021-04-01T09:36:01.689Z</time>
      </trkpt>
      <trkpt lat="43.145128" lon="-2.820368">
        <ele>175.393</ele>
        <time>2021-04-01T09:36:01.744Z</time>
      </trkpt>
      <trkpt lat="43.1451327" lon="-2.8203744">
        <ele>175.548</ele>
        <time>2021-04-01T09:36:01.799Z</time>
      </trkpt>
      <trkpt lat="43.1451366" lon="-2.8203805">
        <ele>175.586</ele>
        <time>2021-04-01T09:36:01.854Z</time>
      </trkpt>
      <trkpt lat="43.1451406" lon="-2.8203866">
        <ele>175.633</ele>
        <time>2021-04-01T09:36:01.909Z</time>
      </trkpt>
      <trkpt lat="43.1451449" lon="-2.8203929">
        <ele>175.721</ele>
        <time>2021-04-01T09:36:01.964Z</time>
      </trkpt>
      <trkpt lat="43.1451492" lon="-2.8203993">
        <ele>175.869</ele>
        <time>2021-04-01T09:36:02.019Z</time>
      </trkpt>
      <trkpt lat="43.1451535" lon="-2.8204057">
        <ele>175.976</ele>
        <time>2021-04-01T09:36:02.074Z</time>
      </trkpt>
      <trkpt lat="43.1451572" lon="-2.8204118">
        <ele>175.969</ele>
        <time>2021-04-01T09:36:02.129Z</time>
      </trkpt>
      <trkpt lat="43.1451608" lon="-2.8204178">
        <ele>175.957</ele>
        <time>2021-04-01T09:36:02.184Z</time>
      </trkpt>
      <trkpt lat="43.1451639" lon="-2.8204239">
        <ele>175.859</ele>
        <time>2021-04-01T09:36:02.239Z</time>
      </trkpt>
      <trkpt lat="43.1451673" lon="-2.8204298">
        <ele>175.835</ele>
        <time>2021-04-01T09:36:02.294Z</time>
      </trkpt>
      <trkpt lat="43.1451707" lon="-2.8204358">
        <ele>175.799</ele>
        <time>2021-04-01T09:36:02.349Z</time>
      </trkpt>
      <trkpt lat="43.1451739" lon="-2.820442">
        <ele>175.748</ele>
        <time>2021-04-01T09:36:02.404Z</time>
      </trkpt>
      <trkpt lat="43.1451776" lon="-2.8204481">
        <ele>175.765</ele>
        <time>2021-04-01T09:36:02.459Z</time>
      </trkpt>
      <trkpt lat="43.1451808" lon="-2.8204542">
        <ele>175.739</ele>
        <time>2021-04-01T09:36:02.514Z</time>
      </trkpt>
      <trkpt lat="43.1451842" lon="-2.8204604">
        <ele>175.727</ele>
        <time>2021-04-01T09:36:02.569Z</time>
      </trkpt>
      <trkpt lat="43.1451878" lon="-2.8204666">
        <ele>175.716</ele>
        <time>2021-04-01T09:36:02.624Z</time>
      </trkpt>
      <trkpt lat="43.1451914" lon="-2.8204728">
        <ele>175.749</ele>
        <time>2021-04-01T09:36:02.679Z</time>
      </trkpt>
      <trkpt lat="43.145195" lon="-2.8204788">
        <ele>175.754</ele>
        <time>2021-04-01T09:36:02.734Z</time>
      </trkpt>
      <trkpt lat="43.1451983" lon="-2.8204848">
        <ele>175.698</ele>
        <time>2021-04-01T09:36:02.789Z</time>
      </trkpt>
      <trkpt lat="43.145202" lon="-2.8204911">
        <ele>175.711</ele>
        <time>2021-04-01T09:36:02.844Z</time>
      </trkpt>
      <trkpt lat="43.1452059" lon="-2.8204976">
        <ele>175.771</ele>
        <time>2021-04-01T09:36:02.899Z</time>
      </trkpt>
      <trkpt lat="43.1452093" lon="-2.8205038">
        <ele>175.775</ele>
        <time>2021-04-01T09:36:02.954Z</time>
      </trkpt>
      <trkpt lat="43.1452128" lon="-2.8205099">
        <ele>175.76</ele>
        <time>2021-04-01T09:36:03.009Z</time>
      </trkpt>
      <trkpt lat="43.145216" lon="-2.8205156">
        <ele>175.695</ele>
        <time>2021-04-01T09:36:03.064Z</time>
      </trkpt>
      <trkpt lat="43.1452191" lon="-2.8205211">
        <ele>175.6</ele>
        <time>2021-04-01T09:36:03.119Z</time>
      </trkpt>
      <trkpt lat="43.1452221" lon="-2.8205265">
        <ele>175.545</ele>
        <time>2021-04-01T09:36:03.174Z</time>
      </trkpt>
      <trkpt lat="43.1452253" lon="-2.8205321">
        <ele>175.485</ele>
        <time>2021-04-01T09:36:03.229Z</time>
      </trkpt>
      <trkpt lat="43.1452288" lon="-2.8205378">
        <ele>175.454</ele>
        <time>2021-04-01T09:36:03.284Z</time>
      </trkpt>
      <trkpt lat="43.1452322" lon="-2.8205435">
        <ele>175.418</ele>
        <time>2021-04-01T09:36:03.339Z</time>
      </trkpt>
      <trkpt lat="43.1452354" lon="-2.8205492">
        <ele>175.402</ele>
        <time>2021-04-01T09:36:03.394Z</time>
      </trkpt>
      <trkpt lat="43.145239" lon="-2.8205551">
        <ele>175.356</ele>
        <time>2021-04-01T09:36:03.449Z</time>
      </trkpt>
      <trkpt lat="43.1452425" lon="-2.8205608">
        <ele>175.322</ele>
        <time>2021-04-01T09:36:03.504Z</time>
      </trkpt>
      <trkpt lat="43.145246" lon="-2.8205665">
        <ele>175.28</ele>
        <time>2021-04-01T09:36:03.559Z</time>
      </trkpt>
      <trkpt lat="43.1452496" lon="-2.8205724">
        <ele>175.252</ele>
        <time>2021-04-01T09:36:03.614Z</time>
      </trkpt>
      <trkpt lat="43.1452528" lon="-2.820578">
        <ele>175.21</ele>
        <time>2021-04-01T09:36:03.669Z</time>
      </trkpt>
      <trkpt lat="43.1452561" lon="-2.8205841">
        <ele>175.17</ele>
        <time>2021-04-01T09:36:03.724Z</time>
      </trkpt>
      <trkpt lat="43.1452598" lon="-2.8205902">
        <ele>175.148</ele>
        <time>2021-04-01T09:36:03.779Z</time>
      </trkpt>
      <trkpt lat="43.1452637" lon="-2.8205957">
        <ele>175.176</ele>
        <time>2021-04-01T09:36:03.834Z</time>
      </trkpt>
      <trkpt lat="43.1452673" lon="-2.8206015">
        <ele>175.149</ele>
        <time>2021-04-01T09:36:03.889Z</time>
      </trkpt>
      <trkpt lat="43.1452706" lon="-2.8206071">
        <ele>175.122</ele>
        <time>2021-04-01T09:36:03.944Z</time>
      </trkpt>
      <trkpt lat="43.1452742" lon="-2.8206127">
        <ele>175.086</ele>
        <time>2021-04-01T09:36:04.000Z</time>
      </trkpt>
      <trkpt lat="43.1452782" lon="-2.8206184">
        <ele>175.066</ele>
        <time>2021-04-01T09:36:04.052Z</time>
      </trkpt>
      <trkpt lat="43.1452818" lon="-2.8206244">
        <ele>175.066</ele>
        <time>2021-04-01T09:36:04.104Z</time>
      </trkpt>
      <trkpt lat="43.1452855" lon="-2.8206306">
        <ele>175.087</ele>
        <time>2021-04-01T09:36:04.156Z</time>
      </trkpt>
      <trkpt lat="43.1452891" lon="-2.8206367">
        <ele>175.081</ele>
        <time>2021-04-01T09:36:04.208Z</time>
      </trkpt>
      <trkpt lat="43.1452928" lon="-2.8206429">
        <ele>175.075</ele>
        <time>2021-04-01T09:36:04.260Z</time>
      </trkpt>
      <trkpt lat="43.1452965" lon="-2.8206487">
        <ele>175.048</ele>
        <time>2021-04-01T09:36:04.312Z</time>
      </trkpt>
      <trkpt lat="43.1453004" lon="-2.8206548">
        <ele>175.065</ele>
        <time>2021-04-01T09:36:04.364Z</time>
      </trkpt>
      <trkpt lat="43.1453039" lon="-2.8206612">
        <ele>175.076</ele>
        <time>2021-04-01T09:36:04.416Z</time>
      </trkpt>
      <trkpt lat="43.1453073" lon="-2.8206673">
        <ele>175.043</ele>
        <time>2021-04-01T09:36:04.468Z</time>
      </trkpt>
      <trkpt lat="43.1453109" lon="-2.820673">
        <ele>175.031</ele>
        <time>2021-04-01T09:36:04.520Z</time>
      </trkpt>
      <trkpt lat="43.1453145" lon="-2.8206791">
        <ele>175.026</ele>
        <time>2021-04-01T09:36:04.572Z</time>
      </trkpt>
      <trkpt lat="43.145318" lon="-2.8206852">
        <ele>175.017</ele>
        <time>2021-04-01T09:36:04.624Z</time>
      </trkpt>
      <trkpt lat="43.1453218" lon="-2.8206913">
        <ele>175.066</ele>
        <time>2021-04-01T09:36:04.676Z</time>
      </trkpt>
      <trkpt lat="43.1453254" lon="-2.8206974">
        <ele>175.081</ele>
        <time>2021-04-01T09:36:04.728Z</time>
      </trkpt>
      <trkpt lat="43.145329" lon="-2.8207034">
        <ele>175.071</ele>
        <time>2021-04-01T09:36:04.780Z</time>
      </trkpt>
      <trkpt lat="43.1453325" lon="-2.8207094">
        <ele>175.075</ele>
        <time>2021-04-01T09:36:04.832Z</time>
      </trkpt>
      <trkpt lat="43.1453361" lon="-2.8207155">
        <ele>175.124</ele>
        <time>2021-04-01T09:36:04.884Z</time>
      </trkpt>
      <trkpt lat="43.1453397" lon="-2.8207215">
        <ele>175.106</ele>
        <time>2021-04-01T09:36:04.936Z</time>
      </trkpt>
      <trkpt lat="43.1453431" lon="-2.8207277">
        <ele>175.098</ele>
        <time>2021-04-01T09:36:04.989Z</time>
      </trkpt>
      <trkpt lat="43.1453465" lon="-2.8207337">
        <ele>175.095</ele>
        <time>2021-04-01T09:36:05.047Z</time>
      </trkpt>
      <trkpt lat="43.14535" lon="-2.8207396">
        <ele>175.097</ele>
        <time>2021-04-01T09:36:05.105Z</time>
      </trkpt>
      <trkpt lat="43.1453533" lon="-2.8207454">
        <ele>175.028</ele>
        <time>2021-04-01T09:36:05.163Z</time>
      </trkpt>
      <trkpt lat="43.1453568" lon="-2.8207514">
        <ele>175.025</ele>
        <time>2021-04-01T09:36:05.221Z</time>
      </trkpt>
      <trkpt lat="43.1453602" lon="-2.8207577">
        <ele>175.062</ele>
        <time>2021-04-01T09:36:05.279Z</time>
      </trkpt>
      <trkpt lat="43.1453637" lon="-2.820764">
        <ele>175.064</ele>
        <time>2021-04-01T09:36:05.337Z</time>
      </trkpt>
      <trkpt lat="43.1453672" lon="-2.8207701">
        <ele>175.043</ele>
        <time>2021-04-01T09:36:05.395Z</time>
      </trkpt>
      <trkpt lat="43.1453706" lon="-2.820776">
        <ele>175.028</ele>
        <time>2021-04-01T09:36:05.453Z</time>
      </trkpt>
      <trkpt lat="43.1453742" lon="-2.8207821">
        <ele>175.049</ele>
        <time>2021-04-01T09:36:05.511Z</time>
      </trkpt>
      <trkpt lat="43.1453774" lon="-2.8207886">
        <ele>175.003</ele>
        <time>2021-04-01T09:36:05.569Z</time>
      </trkpt>
      <trkpt lat="43.1453806" lon="-2.8207954">
        <ele>174.971</ele>
        <time>2021-04-01T09:36:05.627Z</time>
      </trkpt>
      <trkpt lat="43.1453836" lon="-2.820802">
        <ele>174.877</ele>
        <time>2021-04-01T09:36:05.685Z</time>
      </trkpt>
      <trkpt lat="43.1453867" lon="-2.8208094">
        <ele>174.852</ele>
        <time>2021-04-01T09:36:05.743Z</time>
      </trkpt>
      <trkpt lat="43.1453901" lon="-2.8208158">
        <ele>174.791</ele>
        <time>2021-04-01T09:36:05.801Z</time>
      </trkpt>
      <trkpt lat="43.1453937" lon="-2.8208226">
        <ele>174.806</ele>
        <time>2021-04-01T09:36:05.859Z</time>
      </trkpt>
      <trkpt lat="43.1453968" lon="-2.8208291">
        <ele>174.818</ele>
        <time>2021-04-01T09:36:05.917Z</time>
      </trkpt>
      <trkpt lat="43.1453999" lon="-2.8208357">
        <ele>174.771</ele>
        <time>2021-04-01T09:36:05.975Z</time>
      </trkpt>
      <trkpt lat="43.1454032" lon="-2.8208422">
        <ele>174.751</ele>
        <time>2021-04-01T09:36:06.034Z</time>
      </trkpt>
      <trkpt lat="43.1454066" lon="-2.8208486">
        <ele>174.728</ele>
        <time>2021-04-01T09:36:06.089Z</time>
      </trkpt>
      <trkpt lat="43.1454099" lon="-2.8208545">
        <ele>174.709</ele>
        <time>2021-04-01T09:36:06.144Z</time>
      </trkpt>
      <trkpt lat="43.1454137" lon="-2.820861">
        <ele>174.756</ele>
        <time>2021-04-01T09:36:06.199Z</time>
      </trkpt>
      <trkpt lat="43.1454172" lon="-2.8208673">
        <ele>174.76</ele>
        <time>2021-04-01T09:36:06.254Z</time>
      </trkpt>
      <trkpt lat="43.1454206" lon="-2.8208736">
        <ele>174.761</ele>
        <time>2021-04-01T09:36:06.309Z</time>
      </trkpt>
      <trkpt lat="43.1454239" lon="-2.8208799">
        <ele>174.752</ele>
        <time>2021-04-01T09:36:06.364Z</time>
      </trkpt>
      <trkpt lat="43.1454275" lon="-2.820886">
        <ele>174.759</ele>
        <time>2021-04-01T09:36:06.419Z</time>
      </trkpt>
      <trkpt lat="43.1454311" lon="-2.8208922">
        <ele>174.767</ele>
        <time>2021-04-01T09:36:06.474Z</time>
      </trkpt>
      <trkpt lat="43.1454347" lon="-2.8208983">
        <ele>174.77</ele>
        <time>2021-04-01T09:36:06.529Z</time>
      </trkpt>
      <trkpt lat="43.1454383" lon="-2.8209045">
        <ele>174.751</ele>
        <time>2021-04-01T09:36:06.584Z</time>
      </trkpt>
      <trkpt lat="43.1454418" lon="-2.8209104">
        <ele>174.756</ele>
        <time>2021-04-01T09:36:06.639Z</time>
      </trkpt>
      <trkpt lat="43.1454452" lon="-2.8209164">
        <ele>174.762</ele>
        <time>2021-04-01T09:36:06.694Z</time>
      </trkpt>
      <trkpt lat="43.1454485" lon="-2.8209225">
        <ele>174.758</ele>
        <time>2021-04-01T09:36:06.749Z</time>
      </trkpt>
      <trkpt lat="43.145452" lon="-2.8209287">
        <ele>174.732</ele>
        <time>2021-04-01T09:36:06.804Z</time>
      </trkpt>
      <trkpt lat="43.1454551" lon="-2.8209349">
        <ele>174.749</ele>
        <time>2021-04-01T09:36:06.859Z</time>
      </trkpt>
      <trkpt lat="43.1454582" lon="-2.8209411">
        <ele>174.742</ele>
        <time>2021-04-01T09:36:06.914Z</time>
      </trkpt>
      <trkpt lat="43.1454618" lon="-2.8209475">
        <ele>174.735</ele>
        <time>2021-04-01T09:36:06.969Z</time>
      </trkpt>
      <trkpt lat="43.1454653" lon="-2.8209536">
        <ele>174.745</ele>
        <time>2021-04-01T09:36:07.024Z</time>
      </trkpt>
      <trkpt lat="43.1454686" lon="-2.8209598">
        <ele>174.76</ele>
        <time>2021-04-01T09:36:07.079Z</time>
      </trkpt>
      <trkpt lat="43.1454718" lon="-2.8209659">
        <ele>174.716</ele>
        <time>2021-04-01T09:36:07.134Z</time>
      </trkpt>
      <trkpt lat="43.1454751" lon="-2.8209717">
        <ele>174.701</ele>
        <time>2021-04-01T09:36:07.189Z</time>
      </trkpt>
      <trkpt lat="43.1454786" lon="-2.8209779">
        <ele>174.684</ele>
        <time>2021-04-01T09:36:07.244Z</time>
      </trkpt>
      <trkpt lat="43.1454815" lon="-2.8209842">
        <ele>174.698</ele>
        <time>2021-04-01T09:36:07.299Z</time>
      </trkpt>
      <trkpt lat="43.1454844" lon="-2.8209907">
        <ele>174.722</ele>
        <time>2021-04-01T09:36:07.354Z</time>
      </trkpt>
      <trkpt lat="43.1454879" lon="-2.820997">
        <ele>174.735</ele>
        <time>2021-04-01T09:36:07.409Z</time>
      </trkpt>
      <trkpt lat="43.1454914" lon="-2.8210032">
        <ele>174.706</ele>
        <time>2021-04-01T09:36:07.464Z</time>
      </trkpt>
      <trkpt lat="43.1454946" lon="-2.8210092">
        <ele>174.703</ele>
        <time>2021-04-01T09:36:07.519Z</time>
      </trkpt>
      <trkpt lat="43.145498" lon="-2.8210154">
        <ele>174.693</ele>
        <time>2021-04-01T09:36:07.574Z</time>
      </trkpt>
      <trkpt lat="43.1455011" lon="-2.8210218">
        <ele>174.684</ele>
        <time>2021-04-01T09:36:07.629Z</time>
      </trkpt>
      <trkpt lat="43.1455042" lon="-2.8210281">
        <ele>174.608</ele>
        <time>2021-04-01T09:36:07.684Z</time>
      </trkpt>
      <trkpt lat="43.1455074" lon="-2.8210342">
        <ele>174.623</ele>
        <time>2021-04-01T09:36:07.739Z</time>
      </trkpt>
      <trkpt lat="43.1455104" lon="-2.8210402">
        <ele>174.621</ele>
        <time>2021-04-01T09:36:07.794Z</time>
      </trkpt>
      <trkpt lat="43.1455134" lon="-2.8210464">
        <ele>174.622</ele>
        <time>2021-04-01T09:36:07.849Z</time>
      </trkpt>
      <trkpt lat="43.1455166" lon="-2.8210529">
        <ele>174.583</ele>
        <time>2021-04-01T09:36:07.904Z</time>
      </trkpt>
      <trkpt lat="43.1455194" lon="-2.8210591">
        <ele>174.536</ele>
        <time>2021-04-01T09:36:07.959Z</time>
      </trkpt>
      <trkpt lat="43.1455224" lon="-2.8210652">
        <ele>174.494</ele>
        <time>2021-04-01T09:36:08.014Z</time>
      </trkpt>
      <trkpt lat="43.1455254" lon="-2.8210715">
        <ele>174.477</ele>
        <time>2021-04-01T09:36:08.069Z</time>
      </trkpt>
      <trkpt lat="43.1455282" lon="-2.8210777">
        <ele>174.445</ele>
        <time>2021-04-01T09:36:08.124Z</time>
      </trkpt>
      <trkpt lat="43.1455312" lon="-2.8210842">
        <ele>174.451</ele>
        <time>2021-04-01T09:36:08.179Z</time>
      </trkpt>
      <trkpt lat="43.1455342" lon="-2.8210908">
        <ele>174.453</ele>
        <time>2021-04-01T09:36:08.234Z</time>
      </trkpt>
      <trkpt lat="43.1455371" lon="-2.8210973">
        <ele>174.423</ele>
        <time>2021-04-01T09:36:08.289Z</time>
      </trkpt>
      <trkpt lat="43.14554" lon="-2.8211038">
        <ele>174.424</ele>
        <time>2021-04-01T09:36:08.344Z</time>
      </trkpt>
      <trkpt lat="43.1455426" lon="-2.8211105">
        <ele>174.417</ele>
        <time>2021-04-01T09:36:08.399Z</time>
      </trkpt>
      <trkpt lat="43.1455452" lon="-2.821117">
        <ele>174.375</ele>
        <time>2021-04-01T09:36:08.454Z</time>
      </trkpt>
      <trkpt lat="43.1455482" lon="-2.8211237">
        <ele>174.34</ele>
        <time>2021-04-01T09:36:08.509Z</time>
      </trkpt>
      <trkpt lat="43.145551" lon="-2.82113">
        <ele>174.308</ele>
        <time>2021-04-01T09:36:08.564Z</time>
      </trkpt>
      <trkpt lat="43.1455537" lon="-2.8211362">
        <ele>174.279</ele>
        <time>2021-04-01T09:36:08.619Z</time>
      </trkpt>
      <trkpt lat="43.1455562" lon="-2.8211426">
        <ele>174.246</ele>
        <time>2021-04-01T09:36:08.674Z</time>
      </trkpt>
      <trkpt lat="43.145559" lon="-2.8211489">
        <ele>174.201</ele>
        <time>2021-04-01T09:36:08.729Z</time>
      </trkpt>
      <trkpt lat="43.1455619" lon="-2.8211553">
        <ele>174.174</ele>
        <time>2021-04-01T09:36:08.784Z</time>
      </trkpt>
      <trkpt lat="43.1455646" lon="-2.8211615">
        <ele>174.139</ele>
        <time>2021-04-01T09:36:08.839Z</time>
      </trkpt>
      <trkpt lat="43.1455671" lon="-2.8211678">
        <ele>174.168</ele>
        <time>2021-04-01T09:36:08.894Z</time>
      </trkpt>
      <trkpt lat="43.1455697" lon="-2.8211742">
        <ele>174.127</ele>
        <time>2021-04-01T09:36:08.949Z</time>
      </trkpt>
      <trkpt lat="43.1455724" lon="-2.8211809">
        <ele>174.12</ele>
        <time>2021-04-01T09:36:09.004Z</time>
      </trkpt>
      <trkpt lat="43.145575" lon="-2.8211873">
        <ele>174.104</ele>
        <time>2021-04-01T09:36:09.056Z</time>
      </trkpt>
      <trkpt lat="43.1455779" lon="-2.8211937">
        <ele>174.085</ele>
        <time>2021-04-01T09:36:09.108Z</time>
      </trkpt>
      <trkpt lat="43.1455806" lon="-2.8211999">
        <ele>174.085</ele>
        <time>2021-04-01T09:36:09.160Z</time>
      </trkpt>
      <trkpt lat="43.1455833" lon="-2.8212063">
        <ele>174.089</ele>
        <time>2021-04-01T09:36:09.212Z</time>
      </trkpt>
      <trkpt lat="43.1455859" lon="-2.8212129">
        <ele>174.095</ele>
        <time>2021-04-01T09:36:09.264Z</time>
      </trkpt>
      <trkpt lat="43.1455887" lon="-2.8212197">
        <ele>174.083</ele>
        <time>2021-04-01T09:36:09.316Z</time>
      </trkpt>
      <trkpt lat="43.1455916" lon="-2.8212261">
        <ele>174.055</ele>
        <time>2021-04-01T09:36:09.368Z</time>
      </trkpt>
      <trkpt lat="43.1455943" lon="-2.8212325">
        <ele>174.021</ele>
        <time>2021-04-01T09:36:09.420Z</time>
      </trkpt>
      <trkpt lat="43.145597" lon="-2.8212388">
        <ele>173.995</ele>
        <time>2021-04-01T09:36:09.472Z</time>
      </trkpt>
      <trkpt lat="43.1455999" lon="-2.8212451">
        <ele>173.979</ele>
        <time>2021-04-01T09:36:09.525Z</time>
      </trkpt>
      <trkpt lat="43.1456026" lon="-2.8212516">
        <ele>173.98</ele>
        <time>2021-04-01T09:36:09.577Z</time>
      </trkpt>
      <trkpt lat="43.1456054" lon="-2.8212581">
        <ele>173.967</ele>
        <time>2021-04-01T09:36:09.629Z</time>
      </trkpt>
      <trkpt lat="43.1456081" lon="-2.8212645">
        <ele>173.947</ele>
        <time>2021-04-01T09:36:09.681Z</time>
      </trkpt>
      <trkpt lat="43.1456108" lon="-2.8212709">
        <ele>173.927</ele>
        <time>2021-04-01T09:36:09.733Z</time>
      </trkpt>
      <trkpt lat="43.1456139" lon="-2.8212772">
        <ele>173.885</ele>
        <time>2021-04-01T09:36:09.785Z</time>
      </trkpt>
      <trkpt lat="43.1456169" lon="-2.8212838">
        <ele>173.86</ele>
        <time>2021-04-01T09:36:09.837Z</time>
      </trkpt>
      <trkpt lat="43.1456196" lon="-2.8212902">
        <ele>173.893</ele>
        <time>2021-04-01T09:36:09.889Z</time>
      </trkpt>
      <trkpt lat="43.1456226" lon="-2.8212962">
        <ele>173.864</ele>
        <time>2021-04-01T09:36:09.941Z</time>
      </trkpt>
      <trkpt lat="43.1456257" lon="-2.8213027">
        <ele>173.842</ele>
        <time>2021-04-01T09:36:09.994Z</time>
      </trkpt>
      <trkpt lat="43.1456285" lon="-2.8213093">
        <ele>173.82</ele>
        <time>2021-04-01T09:36:10.052Z</time>
      </trkpt>
      <trkpt lat="43.1456315" lon="-2.8213158">
        <ele>173.809</ele>
        <time>2021-04-01T09:36:10.110Z</time>
      </trkpt>
      <trkpt lat="43.1456344" lon="-2.8213223">
        <ele>173.848</ele>
        <time>2021-04-01T09:36:10.168Z</time>
      </trkpt>
      <trkpt lat="43.1456373" lon="-2.821329">
        <ele>173.893</ele>
        <time>2021-04-01T09:36:10.226Z</time>
      </trkpt>
      <trkpt lat="43.1456403" lon="-2.8213357">
        <ele>173.881</ele>
        <time>2021-04-01T09:36:10.285Z</time>
      </trkpt>
      <trkpt lat="43.1456434" lon="-2.8213425">
        <ele>173.875</ele>
        <time>2021-04-01T09:36:10.343Z</time>
      </trkpt>
      <trkpt lat="43.1456461" lon="-2.8213493">
        <ele>173.935</ele>
        <time>2021-04-01T09:36:10.401Z</time>
      </trkpt>
      <trkpt lat="43.1456489" lon="-2.8213559">
        <ele>173.971</ele>
        <time>2021-04-01T09:36:10.459Z</time>
      </trkpt>
      <trkpt lat="43.1456521" lon="-2.8213622">
        <ele>173.92</ele>
        <time>2021-04-01T09:36:10.518Z</time>
      </trkpt>
      <trkpt lat="43.1456549" lon="-2.8213689">
        <ele>173.919</ele>
        <time>2021-04-01T09:36:10.576Z</time>
      </trkpt>
      <trkpt lat="43.145658" lon="-2.8213753">
        <ele>173.9</ele>
        <time>2021-04-01T09:36:10.634Z</time>
      </trkpt>
      <trkpt lat="43.1456611" lon="-2.8213818">
        <ele>173.941</ele>
        <time>2021-04-01T09:36:10.692Z</time>
      </trkpt>
      <trkpt lat="43.1456642" lon="-2.8213887">
        <ele>173.981</ele>
        <time>2021-04-01T09:36:10.751Z</time>
      </trkpt>
      <trkpt lat="43.1456671" lon="-2.8213954">
        <ele>174.028</ele>
        <time>2021-04-01T09:36:10.809Z</time>
      </trkpt>
      <trkpt lat="43.1456705" lon="-2.8214013">
        <ele>174.03</ele>
        <time>2021-04-01T09:36:10.867Z</time>
      </trkpt>
      <trkpt lat="43.1456737" lon="-2.8214079">
        <ele>174.016</ele>
        <time>2021-04-01T09:36:10.925Z</time>
      </trkpt>
      <trkpt lat="43.1456771" lon="-2.8214137">
        <ele>174.006</ele>
        <time>2021-04-01T09:36:10.984Z</time>
      </trkpt>
      <trkpt lat="43.1456805" lon="-2.8214197">
        <ele>173.969</ele>
        <time>2021-04-01T09:36:11.039Z</time>
      </trkpt>
      <trkpt lat="43.1456839" lon="-2.821426">
        <ele>173.984</ele>
        <time>2021-04-01T09:36:11.094Z</time>
      </trkpt>
      <trkpt lat="43.1456874" lon="-2.8214318">
        <ele>173.975</ele>
        <time>2021-04-01T09:36:11.149Z</time>
      </trkpt>
      <trkpt lat="43.1456909" lon="-2.8214379">
        <ele>173.979</ele>
        <time>2021-04-01T09:36:11.204Z</time>
      </trkpt>
      <trkpt lat="43.1456942" lon="-2.8214442">
        <ele>173.933</ele>
        <time>2021-04-01T09:36:11.259Z</time>
      </trkpt>
      <trkpt lat="43.1456976" lon="-2.8214503">
        <ele>173.924</ele>
        <time>2021-04-01T09:36:11.314Z</time>
      </trkpt>
      <trkpt lat="43.145701" lon="-2.8214561">
        <ele>173.974</ele>
        <time>2021-04-01T09:36:11.369Z</time>
      </trkpt>
      <trkpt lat="43.1457044" lon="-2.8214626">
        <ele>173.996</ele>
        <time>2021-04-01T09:36:11.424Z</time>
      </trkpt>
      <trkpt lat="43.1457078" lon="-2.8214689">
        <ele>174.003</ele>
        <time>2021-04-01T09:36:11.479Z</time>
      </trkpt>
      <trkpt lat="43.1457109" lon="-2.8214753">
        <ele>173.992</ele>
        <time>2021-04-01T09:36:11.534Z</time>
      </trkpt>
      <trkpt lat="43.1457141" lon="-2.8214816">
        <ele>173.982</ele>
        <time>2021-04-01T09:36:11.589Z</time>
      </trkpt>
      <trkpt lat="43.1457175" lon="-2.8214877">
        <ele>173.973</ele>
        <time>2021-04-01T09:36:11.644Z</time>
      </trkpt>
      <trkpt lat="43.1457212" lon="-2.8214938">
        <ele>173.974</ele>
        <time>2021-04-01T09:36:11.699Z</time>
      </trkpt>
      <trkpt lat="43.1457245" lon="-2.8214993">
        <ele>173.979</ele>
        <time>2021-04-01T09:36:11.754Z</time>
      </trkpt>
      <trkpt lat="43.145728" lon="-2.821505">
        <ele>173.979</ele>
        <time>2021-04-01T09:36:11.809Z</time>
      </trkpt>
      <trkpt lat="43.1457313" lon="-2.8215105">
        <ele>173.956</ele>
        <time>2021-04-01T09:36:11.864Z</time>
      </trkpt>
      <trkpt lat="43.1457348" lon="-2.8215162">
        <ele>173.938</ele>
        <time>2021-04-01T09:36:11.919Z</time>
      </trkpt>
      <trkpt lat="43.1457381" lon="-2.8215219">
        <ele>173.931</ele>
        <time>2021-04-01T09:36:11.974Z</time>
      </trkpt>
      <trkpt lat="43.1457416" lon="-2.8215274">
        <ele>173.906</ele>
        <time>2021-04-01T09:36:12.029Z</time>
      </trkpt>
      <trkpt lat="43.1457452" lon="-2.8215331">
        <ele>173.867</ele>
        <time>2021-04-01T09:36:12.084Z</time>
      </trkpt>
      <trkpt lat="43.1457486" lon="-2.821539">
        <ele>173.806</ele>
        <time>2021-04-01T09:36:12.139Z</time>
      </trkpt>
      <trkpt lat="43.1457522" lon="-2.8215448">
        <ele>173.782</ele>
        <time>2021-04-01T09:36:12.194Z</time>
      </trkpt>
      <trkpt lat="43.1457555" lon="-2.8215504">
        <ele>173.775</ele>
        <time>2021-04-01T09:36:12.249Z</time>
      </trkpt>
      <trkpt lat="43.1457589" lon="-2.8215561">
        <ele>173.748</ele>
        <time>2021-04-01T09:36:12.304Z</time>
      </trkpt>
      <trkpt lat="43.1457624" lon="-2.8215618">
        <ele>173.72</ele>
        <time>2021-04-01T09:36:12.359Z</time>
      </trkpt>
      <trkpt lat="43.1457659" lon="-2.8215673">
        <ele>173.711</ele>
        <time>2021-04-01T09:36:12.414Z</time>
      </trkpt>
      <trkpt lat="43.1457694" lon="-2.8215733">
        <ele>173.701</ele>
        <time>2021-04-01T09:36:12.469Z</time>
      </trkpt>
      <trkpt lat="43.1457729" lon="-2.8215792">
        <ele>173.716</ele>
        <time>2021-04-01T09:36:12.524Z</time>
      </trkpt>
      <trkpt lat="43.1457765" lon="-2.821585">
        <ele>173.723</ele>
        <time>2021-04-01T09:36:12.579Z</time>
      </trkpt>
      <trkpt lat="43.1457802" lon="-2.8215907">
        <ele>173.713</ele>
        <time>2021-04-01T09:36:12.634Z</time>
      </trkpt>
      <trkpt lat="43.1457837" lon="-2.8215964">
        <ele>173.699</ele>
        <time>2021-04-01T09:36:12.689Z</time>
      </trkpt>
      <trkpt lat="43.1457873" lon="-2.8216021">
        <ele>173.701</ele>
        <time>2021-04-01T09:36:12.744Z</time>
      </trkpt>
      <trkpt lat="43.1457909" lon="-2.8216078">
        <ele>173.68</ele>
        <time>2021-04-01T09:36:12.799Z</time>
      </trkpt>
      <trkpt lat="43.1457946" lon="-2.8216135">
        <ele>173.695</ele>
        <time>2021-04-01T09:36:12.854Z</time>
      </trkpt>
      <trkpt lat="43.1457983" lon="-2.8216193">
        <ele>173.667</ele>
        <time>2021-04-01T09:36:12.909Z</time>
      </trkpt>
      <trkpt lat="43.1458019" lon="-2.8216249">
        <ele>173.662</ele>
        <time>2021-04-01T09:36:12.964Z</time>
      </trkpt>
      <trkpt lat="43.1458054" lon="-2.8216305">
        <ele>173.655</ele>
        <time>2021-04-01T09:36:13.019Z</time>
      </trkpt>
      <trkpt lat="43.1458091" lon="-2.8216362">
        <ele>173.673</ele>
        <time>2021-04-01T09:36:13.074Z</time>
      </trkpt>
      <trkpt lat="43.1458129" lon="-2.8216419">
        <ele>173.655</ele>
        <time>2021-04-01T09:36:13.129Z</time>
      </trkpt>
      <trkpt lat="43.1458166" lon="-2.8216475">
        <ele>173.612</ele>
        <time>2021-04-01T09:36:13.184Z</time>
      </trkpt>
      <trkpt lat="43.1458203" lon="-2.8216531">
        <ele>173.61</ele>
        <time>2021-04-01T09:36:13.239Z</time>
      </trkpt>
      <trkpt lat="43.1458238" lon="-2.8216585">
        <ele>173.588</ele>
        <time>2021-04-01T09:36:13.294Z</time>
      </trkpt>
      <trkpt lat="43.1458273" lon="-2.821664">
        <ele>173.57</ele>
        <time>2021-04-01T09:36:13.349Z</time>
      </trkpt>
      <trkpt lat="43.1458309" lon="-2.8216696">
        <ele>173.566</ele>
        <time>2021-04-01T09:36:13.404Z</time>
      </trkpt>
      <trkpt lat="43.1458347" lon="-2.821675">
        <ele>173.571</ele>
        <time>2021-04-01T09:36:13.459Z</time>
      </trkpt>
      <trkpt lat="43.1458383" lon="-2.8216803">
        <ele>173.575</ele>
        <time>2021-04-01T09:36:13.514Z</time>
      </trkpt>
      <trkpt lat="43.1458419" lon="-2.8216858">
        <ele>173.573</ele>
        <time>2021-04-01T09:36:13.569Z</time>
      </trkpt>
      <trkpt lat="43.1458455" lon="-2.8216913">
        <ele>173.572</ele>
        <time>2021-04-01T09:36:13.624Z</time>
      </trkpt>
      <trkpt lat="43.1458491" lon="-2.8216968">
        <ele>173.539</ele>
        <time>2021-04-01T09:36:13.679Z</time>
      </trkpt>
      <trkpt lat="43.1458526" lon="-2.8217026">
        <ele>173.537</ele>
        <time>2021-04-01T09:36:13.734Z</time>
      </trkpt>
      <trkpt lat="43.1458563" lon="-2.8217078">
        <ele>173.52</ele>
        <time>2021-04-01T09:36:13.789Z</time>
      </trkpt>
      <trkpt lat="43.14586" lon="-2.8217132">
        <ele>173.504</ele>
        <time>2021-04-01T09:36:13.844Z</time>
      </trkpt>
      <trkpt lat="43.1458637" lon="-2.8217188">
        <ele>173.499</ele>
        <time>2021-04-01T09:36:13.899Z</time>
      </trkpt>
      <trkpt lat="43.1458673" lon="-2.8217244">
        <ele>173.468</ele>
        <time>2021-04-01T09:36:13.954Z</time>
      </trkpt>
      <trkpt lat="43.1458709" lon="-2.8217299">
        <ele>173.444</ele>
        <time>2021-04-01T09:36:14.009Z</time>
      </trkpt>
      <trkpt lat="43.1458744" lon="-2.8217354">
        <ele>173.42</ele>
        <time>2021-04-01T09:36:14.064Z</time>
      </trkpt>
      <trkpt lat="43.1458779" lon="-2.8217409">
        <ele>173.393</ele>
        <time>2021-04-01T09:36:14.119Z</time>
      </trkpt>
      <trkpt lat="43.1458815" lon="-2.8217465">
        <ele>173.384</ele>
        <time>2021-04-01T09:36:14.174Z</time>
      </trkpt>
      <trkpt lat="43.1458851" lon="-2.821752">
        <ele>173.386</ele>
        <time>2021-04-01T09:36:14.229Z</time>
      </trkpt>
      <trkpt lat="43.1458888" lon="-2.8217576">
        <ele>173.379</ele>
        <time>2021-04-01T09:36:14.284Z</time>
      </trkpt>
      <trkpt lat="43.1458924" lon="-2.8217633">
        <ele>173.387</ele>
        <time>2021-04-01T09:36:14.339Z</time>
      </trkpt>
      <trkpt lat="43.145896" lon="-2.8217687">
        <ele>173.368</ele>
        <time>2021-04-01T09:36:14.394Z</time>
      </trkpt>
      <trkpt lat="43.1458996" lon="-2.8217744">
        <ele>173.359</ele>
        <time>2021-04-01T09:36:14.449Z</time>
      </trkpt>
      <trkpt lat="43.1459034" lon="-2.8217802">
        <ele>173.398</ele>
        <time>2021-04-01T09:36:14.504Z</time>
      </trkpt>
      <trkpt lat="43.1459067" lon="-2.8217856">
        <ele>173.351</ele>
        <time>2021-04-01T09:36:14.559Z</time>
      </trkpt>
      <trkpt lat="43.1459102" lon="-2.821791">
        <ele>173.365</ele>
        <time>2021-04-01T09:36:14.614Z</time>
      </trkpt>
      <trkpt lat="43.1459138" lon="-2.8217963">
        <ele>173.326</ele>
        <time>2021-04-01T09:36:14.669Z</time>
      </trkpt>
      <trkpt lat="43.1459176" lon="-2.8218018">
        <ele>173.298</ele>
        <time>2021-04-01T09:36:14.724Z</time>
      </trkpt>
      <trkpt lat="43.1459213" lon="-2.8218074">
        <ele>173.271</ele>
        <time>2021-04-01T09:36:14.779Z</time>
      </trkpt>
      <trkpt lat="43.145925" lon="-2.8218129">
        <ele>173.291</ele>
        <time>2021-04-01T09:36:14.834Z</time>
      </trkpt>
      <trkpt lat="43.1459286" lon="-2.8218186">
        <ele>173.276</ele>
        <time>2021-04-01T09:36:14.889Z</time>
      </trkpt>
      <trkpt lat="43.1459324" lon="-2.8218242">
        <ele>173.268</ele>
        <time>2021-04-01T09:36:14.944Z</time>
      </trkpt>
      <trkpt lat="43.1459361" lon="-2.8218297">
        <ele>173.255</ele>
        <time>2021-04-01T09:36:15.000Z</time>
      </trkpt>
      <trkpt lat="43.1459397" lon="-2.8218349">
        <ele>173.227</ele>
        <time>2021-04-01T09:36:15.052Z</time>
      </trkpt>
      <trkpt lat="43.1459432" lon="-2.8218403">
        <ele>173.2</ele>
        <time>2021-04-01T09:36:15.104Z</time>
      </trkpt>
      <trkpt lat="43.1459466" lon="-2.8218461">
        <ele>173.163</ele>
        <time>2021-04-01T09:36:15.156Z</time>
      </trkpt>
      <trkpt lat="43.1459504" lon="-2.8218517">
        <ele>173.159</ele>
        <time>2021-04-01T09:36:15.208Z</time>
      </trkpt>
      <trkpt lat="43.1459543" lon="-2.8218572">
        <ele>173.152</ele>
        <time>2021-04-01T09:36:15.260Z</time>
      </trkpt>
      <trkpt lat="43.1459579" lon="-2.8218628">
        <ele>173.113</ele>
        <time>2021-04-01T09:36:15.312Z</time>
      </trkpt>
      <trkpt lat="43.1459616" lon="-2.8218687">
        <ele>173.106</ele>
        <time>2021-04-01T09:36:15.364Z</time>
      </trkpt>
      <trkpt lat="43.1459651" lon="-2.8218745">
        <ele>173.127</ele>
        <time>2021-04-01T09:36:15.416Z</time>
      </trkpt>
      <trkpt lat="43.1459687" lon="-2.8218804">
        <ele>173.136</ele>
        <time>2021-04-01T09:36:15.468Z</time>
      </trkpt>
      <trkpt lat="43.1459724" lon="-2.8218863">
        <ele>173.135</ele>
        <time>2021-04-01T09:36:15.520Z</time>
      </trkpt>
      <trkpt lat="43.1459761" lon="-2.8218921">
        <ele>173.134</ele>
        <time>2021-04-01T09:36:15.572Z</time>
      </trkpt>
      <trkpt lat="43.1459798" lon="-2.8218978">
        <ele>173.14</ele>
        <time>2021-04-01T09:36:15.624Z</time>
      </trkpt>
      <trkpt lat="43.1459833" lon="-2.8219035">
        <ele>173.115</ele>
        <time>2021-04-01T09:36:15.676Z</time>
      </trkpt>
      <trkpt lat="43.1459869" lon="-2.8219089">
        <ele>173.081</ele>
        <time>2021-04-01T09:36:15.728Z</time>
      </trkpt>
      <trkpt lat="43.1459905" lon="-2.8219143">
        <ele>173.066</ele>
        <time>2021-04-01T09:36:15.780Z</time>
      </trkpt>
      <trkpt lat="43.1459941" lon="-2.8219198">
        <ele>173.055</ele>
        <time>2021-04-01T09:36:15.832Z</time>
      </trkpt>
      <trkpt lat="43.1459978" lon="-2.8219256">
        <ele>173.05</ele>
        <time>2021-04-01T09:36:15.884Z</time>
      </trkpt>
      <trkpt lat="43.1460015" lon="-2.8219312">
        <ele>173.038</ele>
        <time>2021-04-01T09:36:15.936Z</time>
      </trkpt>
      <trkpt lat="43.1460052" lon="-2.8219367">
        <ele>173.026</ele>
        <time>2021-04-01T09:36:15.989Z</time>
      </trkpt>
      <trkpt lat="43.1460088" lon="-2.8219421">
        <ele>173.021</ele>
        <time>2021-04-01T09:36:16.047Z</time>
      </trkpt>
      <trkpt lat="43.1460123" lon="-2.8219478">
        <ele>173.022</ele>
        <time>2021-04-01T09:36:16.105Z</time>
      </trkpt>
      <trkpt lat="43.1460161" lon="-2.8219532">
        <ele>173.013</ele>
        <time>2021-04-01T09:36:16.163Z</time>
      </trkpt>
      <trkpt lat="43.1460199" lon="-2.821959">
        <ele>172.987</ele>
        <time>2021-04-01T09:36:16.221Z</time>
      </trkpt>
      <trkpt lat="43.1460238" lon="-2.8219649">
        <ele>172.996</ele>
        <time>2021-04-01T09:36:16.279Z</time>
      </trkpt>
      <trkpt lat="43.1460277" lon="-2.8219707">
        <ele>173.044</ele>
        <time>2021-04-01T09:36:16.337Z</time>
      </trkpt>
      <trkpt lat="43.1460316" lon="-2.8219764">
        <ele>173.084</ele>
        <time>2021-04-01T09:36:16.395Z</time>
      </trkpt>
      <trkpt lat="43.1460355" lon="-2.8219821">
        <ele>173.1</ele>
        <time>2021-04-01T09:36:16.453Z</time>
      </trkpt>
      <trkpt lat="43.1460392" lon="-2.8219876">
        <ele>173.064</ele>
        <time>2021-04-01T09:36:16.511Z</time>
      </trkpt>
      <trkpt lat="43.1460428" lon="-2.8219927">
        <ele>173.01</ele>
        <time>2021-04-01T09:36:16.569Z</time>
      </trkpt>
      <trkpt lat="43.1460465" lon="-2.8219977">
        <ele>172.946</ele>
        <time>2021-04-01T09:36:16.627Z</time>
      </trkpt>
      <trkpt lat="43.1460503" lon="-2.8220029">
        <ele>172.935</ele>
        <time>2021-04-01T09:36:16.685Z</time>
      </trkpt>
      <trkpt lat="43.146054" lon="-2.8220082">
        <ele>172.917</ele>
        <time>2021-04-01T09:36:16.743Z</time>
      </trkpt>
      <trkpt lat="43.1460577" lon="-2.8220139">
        <ele>172.897</ele>
        <time>2021-04-01T09:36:16.801Z</time>
      </trkpt>
      <trkpt lat="43.1460613" lon="-2.8220193">
        <ele>172.868</ele>
        <time>2021-04-01T09:36:16.859Z</time>
      </trkpt>
      <trkpt lat="43.146065" lon="-2.8220242">
        <ele>172.864</ele>
        <time>2021-04-01T09:36:16.917Z</time>
      </trkpt>
      <trkpt lat="43.1460686" lon="-2.8220298">
        <ele>172.831</ele>
        <time>2021-04-01T09:36:16.975Z</time>
      </trkpt>
      <trkpt lat="43.1460719" lon="-2.8220351">
        <ele>172.793</ele>
        <time>2021-04-01T09:36:17.034Z</time>
      </trkpt>
      <trkpt lat="43.1460751" lon="-2.8220401">
        <ele>172.8</ele>
        <time>2021-04-01T09:36:17.092Z</time>
      </trkpt>
      <trkpt lat="43.1460785" lon="-2.8220453">
        <ele>172.802</ele>
        <time>2021-04-01T09:36:17.150Z</time>
      </trkpt>
      <trkpt lat="43.1460816" lon="-2.8220506">
        <ele>172.794</ele>
        <time>2021-04-01T09:36:17.208Z</time>
      </trkpt>
      <trkpt lat="43.1460849" lon="-2.8220558">
        <ele>172.785</ele>
        <time>2021-04-01T09:36:17.266Z</time>
      </trkpt>
      <trkpt lat="43.1460879" lon="-2.822061">
        <ele>172.796</ele>
        <time>2021-04-01T09:36:17.325Z</time>
      </trkpt>
      <trkpt lat="43.1460913" lon="-2.8220658">
        <ele>172.758</ele>
        <time>2021-04-01T09:36:17.383Z</time>
      </trkpt>
      <trkpt lat="43.1460946" lon="-2.8220708">
        <ele>172.731</ele>
        <time>2021-04-01T09:36:17.441Z</time>
      </trkpt>
      <trkpt lat="43.1460975" lon="-2.8220753">
        <ele>172.638</ele>
        <time>2021-04-01T09:36:17.499Z</time>
      </trkpt>
      <trkpt lat="43.1461008" lon="-2.8220803">
        <ele>172.593</ele>
        <time>2021-04-01T09:36:17.558Z</time>
      </trkpt>
      <trkpt lat="43.1461043" lon="-2.8220855">
        <ele>172.555</ele>
        <time>2021-04-01T09:36:17.616Z</time>
      </trkpt>
      <trkpt lat="43.1461079" lon="-2.8220905">
        <ele>172.522</ele>
        <time>2021-04-01T09:36:17.674Z</time>
      </trkpt>
      <trkpt lat="43.1461112" lon="-2.8220954">
        <ele>172.501</ele>
        <time>2021-04-01T09:36:17.732Z</time>
      </trkpt>
      <trkpt lat="43.1461146" lon="-2.8221003">
        <ele>172.481</ele>
        <time>2021-04-01T09:36:17.791Z</time>
      </trkpt>
      <trkpt lat="43.1461181" lon="-2.8221056">
        <ele>172.444</ele>
        <time>2021-04-01T09:36:17.849Z</time>
      </trkpt>
      <trkpt lat="43.1461213" lon="-2.8221105">
        <ele>172.428</ele>
        <time>2021-04-01T09:36:17.907Z</time>
      </trkpt>
      <trkpt lat="43.1461248" lon="-2.8221158">
        <ele>172.414</ele>
        <time>2021-04-01T09:36:17.965Z</time>
      </trkpt>
      <trkpt lat="43.1461281" lon="-2.8221211">
        <ele>172.397</ele>
        <time>2021-04-01T09:36:18.024Z</time>
      </trkpt>
      <trkpt lat="43.1461312" lon="-2.8221258">
        <ele>172.367</ele>
        <time>2021-04-01T09:36:18.076Z</time>
      </trkpt>
      <trkpt lat="43.1461345" lon="-2.8221311">
        <ele>172.335</ele>
        <time>2021-04-01T09:36:18.128Z</time>
      </trkpt>
      <trkpt lat="43.1461376" lon="-2.8221364">
        <ele>172.314</ele>
        <time>2021-04-01T09:36:18.180Z</time>
      </trkpt>
      <trkpt lat="43.1461404" lon="-2.8221417">
        <ele>172.309</ele>
        <time>2021-04-01T09:36:18.232Z</time>
      </trkpt>
      <trkpt lat="43.1461437" lon="-2.8221472">
        <ele>172.32</ele>
        <time>2021-04-01T09:36:18.284Z</time>
      </trkpt>
      <trkpt lat="43.1461471" lon="-2.8221529">
        <ele>172.328</ele>
        <time>2021-04-01T09:36:18.336Z</time>
      </trkpt>
      <trkpt lat="43.14615" lon="-2.8221588">
        <ele>172.301</ele>
        <time>2021-04-01T09:36:18.388Z</time>
      </trkpt>
      <trkpt lat="43.1461528" lon="-2.8221642">
        <ele>172.262</ele>
        <time>2021-04-01T09:36:18.440Z</time>
      </trkpt>
      <trkpt lat="43.1461559" lon="-2.8221695">
        <ele>172.239</ele>
        <time>2021-04-01T09:36:18.492Z</time>
      </trkpt>
      <trkpt lat="43.1461595" lon="-2.8221745">
        <ele>172.22</ele>
        <time>2021-04-01T09:36:18.545Z</time>
      </trkpt>
      <trkpt lat="43.146163" lon="-2.82218">
        <ele>172.217</ele>
        <time>2021-04-01T09:36:18.597Z</time>
      </trkpt>
      <trkpt lat="43.146166" lon="-2.8221857">
        <ele>172.25</ele>
        <time>2021-04-01T09:36:18.649Z</time>
      </trkpt>
      <trkpt lat="43.146169" lon="-2.8221915">
        <ele>172.263</ele>
        <time>2021-04-01T09:36:18.701Z</time>
      </trkpt>
      <trkpt lat="43.1461718" lon="-2.8221973">
        <ele>172.25</ele>
        <time>2021-04-01T09:36:18.753Z</time>
      </trkpt>
      <trkpt lat="43.1461751" lon="-2.8222029">
        <ele>172.248</ele>
        <time>2021-04-01T09:36:18.805Z</time>
      </trkpt>
      <trkpt lat="43.1461782" lon="-2.8222089">
        <ele>172.306</ele>
        <time>2021-04-01T09:36:18.857Z</time>
      </trkpt>
      <trkpt lat="43.1461812" lon="-2.8222147">
        <ele>172.315</ele>
        <time>2021-04-01T09:36:18.909Z</time>
      </trkpt>
      <trkpt lat="43.1461841" lon="-2.8222205">
        <ele>172.253</ele>
        <time>2021-04-01T09:36:18.961Z</time>
      </trkpt>
      <trkpt lat="43.1461871" lon="-2.8222263">
        <ele>172.3</ele>
        <time>2021-04-01T09:36:19.014Z</time>
      </trkpt>
      <trkpt lat="43.1461898" lon="-2.822232">
        <ele>172.319</ele>
        <time>2021-04-01T09:36:19.069Z</time>
      </trkpt>
      <trkpt lat="43.1461923" lon="-2.8222375">
        <ele>172.203</ele>
        <time>2021-04-01T09:36:19.124Z</time>
      </trkpt>
      <trkpt lat="43.146195" lon="-2.8222433">
        <ele>172.142</ele>
        <time>2021-04-01T09:36:19.179Z</time>
      </trkpt>
      <trkpt lat="43.1461975" lon="-2.8222492">
        <ele>172.11</ele>
        <time>2021-04-01T09:36:19.234Z</time>
      </trkpt>
      <trkpt lat="43.1461998" lon="-2.8222551">
        <ele>172.083</ele>
        <time>2021-04-01T09:36:19.289Z</time>
      </trkpt>
      <trkpt lat="43.1462023" lon="-2.8222611">
        <ele>172.049</ele>
        <time>2021-04-01T09:36:19.344Z</time>
      </trkpt>
      <trkpt lat="43.1462048" lon="-2.8222667">
        <ele>172.001</ele>
        <time>2021-04-01T09:36:19.399Z</time>
      </trkpt>
      <trkpt lat="43.1462075" lon="-2.8222726">
        <ele>171.909</ele>
        <time>2021-04-01T09:36:19.454Z</time>
      </trkpt>
      <trkpt lat="43.1462101" lon="-2.8222783">
        <ele>171.891</ele>
        <time>2021-04-01T09:36:19.509Z</time>
      </trkpt>
      <trkpt lat="43.1462122" lon="-2.8222844">
        <ele>171.808</ele>
        <time>2021-04-01T09:36:19.564Z</time>
      </trkpt>
      <trkpt lat="43.146215" lon="-2.8222902">
        <ele>171.843</ele>
        <time>2021-04-01T09:36:19.619Z</time>
      </trkpt>
      <trkpt lat="43.1462176" lon="-2.8222969">
        <ele>171.912</ele>
        <time>2021-04-01T09:36:19.674Z</time>
      </trkpt>
      <trkpt lat="43.1462198" lon="-2.8223027">
        <ele>171.837</ele>
        <time>2021-04-01T09:36:19.729Z</time>
      </trkpt>
      <trkpt lat="43.146222" lon="-2.8223087">
        <ele>171.848</ele>
        <time>2021-04-01T09:36:19.784Z</time>
      </trkpt>
      <trkpt lat="43.1462243" lon="-2.8223145">
        <ele>171.811</ele>
        <time>2021-04-01T09:36:19.839Z</time>
      </trkpt>
      <trkpt lat="43.1462263" lon="-2.8223203">
        <ele>171.768</ele>
        <time>2021-04-01T09:36:19.894Z</time>
      </trkpt>
      <trkpt lat="43.1462283" lon="-2.8223261">
        <ele>171.68</ele>
        <time>2021-04-01T09:36:19.949Z</time>
      </trkpt>
      <trkpt lat="43.1462302" lon="-2.8223319">
        <ele>171.646</ele>
        <time>2021-04-01T09:36:20.004Z</time>
      </trkpt>
      <trkpt lat="43.1462321" lon="-2.8223379">
        <ele>171.64</ele>
        <time>2021-04-01T09:36:20.059Z</time>
      </trkpt>
      <trkpt lat="43.1462337" lon="-2.8223438">
        <ele>171.626</ele>
        <time>2021-04-01T09:36:20.114Z</time>
      </trkpt>
      <trkpt lat="43.1462355" lon="-2.8223497">
        <ele>171.625</ele>
        <time>2021-04-01T09:36:20.169Z</time>
      </trkpt>
      <trkpt lat="43.1462371" lon="-2.8223558">
        <ele>171.555</ele>
        <time>2021-04-01T09:36:20.224Z</time>
      </trkpt>
      <trkpt lat="43.1462387" lon="-2.8223615">
        <ele>171.536</ele>
        <time>2021-04-01T09:36:20.279Z</time>
      </trkpt>
      <trkpt lat="43.1462401" lon="-2.8223672">
        <ele>171.523</ele>
        <time>2021-04-01T09:36:20.334Z</time>
      </trkpt>
      <trkpt lat="43.1462415" lon="-2.8223732">
        <ele>171.475</ele>
        <time>2021-04-01T09:36:20.389Z</time>
      </trkpt>
      <trkpt lat="43.146243" lon="-2.8223793">
        <ele>171.414</ele>
        <time>2021-04-01T09:36:20.444Z</time>
      </trkpt>
      <trkpt lat="43.1462448" lon="-2.822385">
        <ele>171.355</ele>
        <time>2021-04-01T09:36:20.499Z</time>
      </trkpt>
      <trkpt lat="43.1462465" lon="-2.8223908">
        <ele>171.318</ele>
        <time>2021-04-01T09:36:20.554Z</time>
      </trkpt>
      <trkpt lat="43.1462477" lon="-2.8223964">
        <ele>171.245</ele>
        <time>2021-04-01T09:36:20.609Z</time>
      </trkpt>
      <trkpt lat="43.1462489" lon="-2.822402">
        <ele>171.187</ele>
        <time>2021-04-01T09:36:20.664Z</time>
      </trkpt>
      <trkpt lat="43.1462503" lon="-2.8224076">
        <ele>171.128</ele>
        <time>2021-04-01T09:36:20.719Z</time>
      </trkpt>
      <trkpt lat="43.1462514" lon="-2.8224133">
        <ele>171.032</ele>
        <time>2021-04-01T09:36:20.774Z</time>
      </trkpt>
      <trkpt lat="43.1462524" lon="-2.8224192">
        <ele>170.934</ele>
        <time>2021-04-01T09:36:20.829Z</time>
      </trkpt>
      <trkpt lat="43.1462533" lon="-2.8224247">
        <ele>170.846</ele>
        <time>2021-04-01T09:36:20.884Z</time>
      </trkpt>
      <trkpt lat="43.1462539" lon="-2.8224308">
        <ele>170.774</ele>
        <time>2021-04-01T09:36:20.939Z</time>
      </trkpt>
      <trkpt lat="43.1462542" lon="-2.8224369">
        <ele>170.725</ele>
        <time>2021-04-01T09:36:20.994Z</time>
      </trkpt>
      <trkpt lat="43.1462552" lon="-2.8224428">
        <ele>170.653</ele>
        <time>2021-04-01T09:36:21.049Z</time>
      </trkpt>
      <trkpt lat="43.1462555" lon="-2.8224484">
        <ele>170.559</ele>
        <time>2021-04-01T09:36:21.104Z</time>
      </trkpt>
      <trkpt lat="43.1462562" lon="-2.8224544">
        <ele>170.48</ele>
        <time>2021-04-01T09:36:21.159Z</time>
      </trkpt>
      <trkpt lat="43.1462569" lon="-2.8224602">
        <ele>170.429</ele>
        <time>2021-04-01T09:36:21.214Z</time>
      </trkpt>
      <trkpt lat="43.1462576" lon="-2.8224661">
        <ele>170.333</ele>
        <time>2021-04-01T09:36:21.269Z</time>
      </trkpt>
      <trkpt lat="43.1462581" lon="-2.8224719">
        <ele>170.22</ele>
        <time>2021-04-01T09:36:21.324Z</time>
      </trkpt>
      <trkpt lat="43.1462581" lon="-2.8224775">
        <ele>170.1</ele>
        <time>2021-04-01T09:36:21.379Z</time>
      </trkpt>
      <trkpt lat="43.1462585" lon="-2.822483">
        <ele>169.984</ele>
        <time>2021-04-01T09:36:21.434Z</time>
      </trkpt>
      <trkpt lat="43.1462589" lon="-2.8224889">
        <ele>169.893</ele>
        <time>2021-04-01T09:36:21.489Z</time>
      </trkpt>
      <trkpt lat="43.1462589" lon="-2.8224947">
        <ele>169.778</ele>
        <time>2021-04-01T09:36:21.544Z</time>
      </trkpt>
      <trkpt lat="43.1462586" lon="-2.8225006">
        <ele>169.667</ele>
        <time>2021-04-01T09:36:21.599Z</time>
      </trkpt>
      <trkpt lat="43.1462589" lon="-2.8225066">
        <ele>169.614</ele>
        <time>2021-04-01T09:36:21.654Z</time>
      </trkpt>
      <trkpt lat="43.1462592" lon="-2.8225124">
        <ele>169.54</ele>
        <time>2021-04-01T09:36:21.709Z</time>
      </trkpt>
      <trkpt lat="43.1462594" lon="-2.8225184">
        <ele>169.469</ele>
        <time>2021-04-01T09:36:21.764Z</time>
      </trkpt>
      <trkpt lat="43.146259" lon="-2.8225245">
        <ele>169.348</ele>
        <time>2021-04-01T09:36:21.819Z</time>
      </trkpt>
      <trkpt lat="43.1462588" lon="-2.822531">
        <ele>169.287</ele>
        <time>2021-04-01T09:36:21.874Z</time>
      </trkpt>
      <trkpt lat="43.1462589" lon="-2.8225377">
        <ele>169.302</ele>
        <time>2021-04-01T09:36:21.929Z</time>
      </trkpt>
      <trkpt lat="43.1462591" lon="-2.8225446">
        <ele>169.3</ele>
        <time>2021-04-01T09:36:21.984Z</time>
      </trkpt>
      <trkpt lat="43.1462588" lon="-2.8225512">
        <ele>169.327</ele>
        <time>2021-04-01T09:36:22.039Z</time>
      </trkpt>
      <trkpt lat="43.1462582" lon="-2.8225576">
        <ele>169.25</ele>
        <time>2021-04-01T09:36:22.094Z</time>
      </trkpt>
      <trkpt lat="43.1462581" lon="-2.8225641">
        <ele>169.207</ele>
        <time>2021-04-01T09:36:22.149Z</time>
      </trkpt>
      <trkpt lat="43.146258" lon="-2.8225709">
        <ele>169.214</ele>
        <time>2021-04-01T09:36:22.204Z</time>
      </trkpt>
      <trkpt lat="43.1462577" lon="-2.8225775">
        <ele>169.19</ele>
        <time>2021-04-01T09:36:22.259Z</time>
      </trkpt>
      <trkpt lat="43.1462572" lon="-2.822584">
        <ele>169.177</ele>
        <time>2021-04-01T09:36:22.314Z</time>
      </trkpt>
      <trkpt lat="43.1462566" lon="-2.8225907">
        <ele>169.136</ele>
        <time>2021-04-01T09:36:22.369Z</time>
      </trkpt>
      <trkpt lat="43.1462561" lon="-2.8225973">
        <ele>169.107</ele>
        <time>2021-04-01T09:36:22.424Z</time>
      </trkpt>
      <trkpt lat="43.1462556" lon="-2.8226038">
        <ele>169.073</ele>
        <time>2021-04-01T09:36:22.479Z</time>
      </trkpt>
      <trkpt lat="43.1462546" lon="-2.8226103">
        <ele>168.998</ele>
        <time>2021-04-01T09:36:22.534Z</time>
      </trkpt>
      <trkpt lat="43.1462537" lon="-2.8226169">
        <ele>168.952</ele>
        <time>2021-04-01T09:36:22.589Z</time>
      </trkpt>
      <trkpt lat="43.146253" lon="-2.8226234">
        <ele>168.906</ele>
        <time>2021-04-01T09:36:22.644Z</time>
      </trkpt>
      <trkpt lat="43.1462525" lon="-2.8226298">
        <ele>168.864</ele>
        <time>2021-04-01T09:36:22.699Z</time>
      </trkpt>
      <trkpt lat="43.1462517" lon="-2.8226362">
        <ele>168.787</ele>
        <time>2021-04-01T09:36:22.754Z</time>
      </trkpt>
      <trkpt lat="43.1462508" lon="-2.8226423">
        <ele>168.697</ele>
        <time>2021-04-01T09:36:22.809Z</time>
      </trkpt>
      <trkpt lat="43.14625" lon="-2.8226482">
        <ele>168.643</ele>
        <time>2021-04-01T09:36:22.864Z</time>
      </trkpt>
      <trkpt lat="43.1462492" lon="-2.8226544">
        <ele>168.591</ele>
        <time>2021-04-01T09:36:22.919Z</time>
      </trkpt>
      <trkpt lat="43.1462485" lon="-2.8226608">
        <ele>168.563</ele>
        <time>2021-04-01T09:36:22.974Z</time>
      </trkpt>
      <trkpt lat="43.1462477" lon="-2.8226671">
        <ele>168.509</ele>
        <time>2021-04-01T09:36:23.029Z</time>
      </trkpt>
      <trkpt lat="43.1462464" lon="-2.8226733">
        <ele>168.471</ele>
        <time>2021-04-01T09:36:23.084Z</time>
      </trkpt>
      <trkpt lat="43.1462454" lon="-2.8226796">
        <ele>168.416</ele>
        <time>2021-04-01T09:36:23.139Z</time>
      </trkpt>
      <trkpt lat="43.1462445" lon="-2.822686">
        <ele>168.405</ele>
        <time>2021-04-01T09:36:23.194Z</time>
      </trkpt>
      <trkpt lat="43.1462436" lon="-2.8226918">
        <ele>168.386</ele>
        <time>2021-04-01T09:36:23.249Z</time>
      </trkpt>
      <trkpt lat="43.1462428" lon="-2.8226979">
        <ele>168.367</ele>
        <time>2021-04-01T09:36:23.304Z</time>
      </trkpt>
      <trkpt lat="43.1462419" lon="-2.822704">
        <ele>168.32</ele>
        <time>2021-04-01T09:36:23.359Z</time>
      </trkpt>
      <trkpt lat="43.146241" lon="-2.82271">
        <ele>168.277</ele>
        <time>2021-04-01T09:36:23.414Z</time>
      </trkpt>
      <trkpt lat="43.1462402" lon="-2.8227166">
        <ele>168.28</ele>
        <time>2021-04-01T09:36:23.469Z</time>
      </trkpt>
      <trkpt lat="43.1462391" lon="-2.8227227">
        <ele>168.219</ele>
        <time>2021-04-01T09:36:23.524Z</time>
      </trkpt>
      <trkpt lat="43.1462381" lon="-2.8227287">
        <ele>168.164</ele>
        <time>2021-04-01T09:36:23.579Z</time>
      </trkpt>
      <trkpt lat="43.1462369" lon="-2.8227352">
        <ele>168.146</ele>
        <time>2021-04-01T09:36:23.634Z</time>
      </trkpt>
      <trkpt lat="43.1462358" lon="-2.8227415">
        <ele>168.124</ele>
        <time>2021-04-01T09:36:23.689Z</time>
      </trkpt>
      <trkpt lat="43.1462348" lon="-2.8227481">
        <ele>168.118</ele>
        <time>2021-04-01T09:36:23.744Z</time>
      </trkpt>
      <trkpt lat="43.1462338" lon="-2.8227545">
        <ele>168.087</ele>
        <time>2021-04-01T09:36:23.799Z</time>
      </trkpt>
      <trkpt lat="43.1462325" lon="-2.8227608">
        <ele>168.078</ele>
        <time>2021-04-01T09:36:23.854Z</time>
      </trkpt>
      <trkpt lat="43.1462315" lon="-2.8227669">
        <ele>168.04</ele>
        <time>2021-04-01T09:36:23.909Z</time>
      </trkpt>
      <trkpt lat="43.1462304" lon="-2.8227727">
        <ele>168.017</ele>
        <time>2021-04-01T09:36:23.964Z</time>
      </trkpt>
      <trkpt lat="43.1462295" lon="-2.822779">
        <ele>168.04</ele>
        <time>2021-04-01T09:36:24.019Z</time>
      </trkpt>
      <trkpt lat="43.1462286" lon="-2.8227859">
        <ele>168.014</ele>
        <time>2021-04-01T09:36:24.074Z</time>
      </trkpt>
      <trkpt lat="43.1462272" lon="-2.822792">
        <ele>167.983</ele>
        <time>2021-04-01T09:36:24.129Z</time>
      </trkpt>
      <trkpt lat="43.1462262" lon="-2.8227984">
        <ele>167.994</ele>
        <time>2021-04-01T09:36:24.184Z</time>
      </trkpt>
      <trkpt lat="43.146225" lon="-2.8228048">
        <ele>167.972</ele>
        <time>2021-04-01T09:36:24.239Z</time>
      </trkpt>
      <trkpt lat="43.1462239" lon="-2.8228117">
        <ele>167.996</ele>
        <time>2021-04-01T09:36:24.294Z</time>
      </trkpt>
      <trkpt lat="43.146223" lon="-2.8228192">
        <ele>168.096</ele>
        <time>2021-04-01T09:36:24.349Z</time>
      </trkpt>
      <trkpt lat="43.1462219" lon="-2.8228264">
        <ele>168.137</ele>
        <time>2021-04-01T09:36:24.404Z</time>
      </trkpt>
      <trkpt lat="43.1462207" lon="-2.8228338">
        <ele>168.186</ele>
        <time>2021-04-01T09:36:24.459Z</time>
      </trkpt>
      <trkpt lat="43.1462197" lon="-2.8228407">
        <ele>168.199</ele>
        <time>2021-04-01T09:36:24.514Z</time>
      </trkpt>
      <trkpt lat="43.1462187" lon="-2.8228476">
        <ele>168.251</ele>
        <time>2021-04-01T09:36:24.569Z</time>
      </trkpt>
      <trkpt lat="43.1462175" lon="-2.8228544">
        <ele>168.299</ele>
        <time>2021-04-01T09:36:24.624Z</time>
      </trkpt>
      <trkpt lat="43.1462165" lon="-2.8228607">
        <ele>168.232</ele>
        <time>2021-04-01T09:36:24.679Z</time>
      </trkpt>
      <trkpt lat="43.1462153" lon="-2.8228673">
        <ele>168.213</ele>
        <time>2021-04-01T09:36:24.734Z</time>
      </trkpt>
      <trkpt lat="43.1462142" lon="-2.8228736">
        <ele>168.214</ele>
        <time>2021-04-01T09:36:24.789Z</time>
      </trkpt>
      <trkpt lat="43.1462133" lon="-2.8228803">
        <ele>168.181</ele>
        <time>2021-04-01T09:36:24.844Z</time>
      </trkpt>
      <trkpt lat="43.1462122" lon="-2.8228869">
        <ele>168.188</ele>
        <time>2021-04-01T09:36:24.899Z</time>
      </trkpt>
      <trkpt lat="43.1462113" lon="-2.8228938">
        <ele>168.206</ele>
        <time>2021-04-01T09:36:24.954Z</time>
      </trkpt>
      <trkpt lat="43.1462103" lon="-2.8229005">
        <ele>168.212</ele>
        <time>2021-04-01T09:36:25.009Z</time>
      </trkpt>
      <trkpt lat="43.1462095" lon="-2.8229073">
        <ele>168.207</ele>
        <time>2021-04-01T09:36:25.064Z</time>
      </trkpt>
      <trkpt lat="43.1462085" lon="-2.822914">
        <ele>168.209</ele>
        <time>2021-04-01T09:36:25.119Z</time>
      </trkpt>
      <trkpt lat="43.1462076" lon="-2.8229203">
        <ele>168.161</ele>
        <time>2021-04-01T09:36:25.174Z</time>
      </trkpt>
      <trkpt lat="43.1462066" lon="-2.8229268">
        <ele>168.157</ele>
        <time>2021-04-01T09:36:25.229Z</time>
      </trkpt>
      <trkpt lat="43.1462058" lon="-2.8229335">
        <ele>168.162</ele>
        <time>2021-04-01T09:36:25.284Z</time>
      </trkpt>
      <trkpt lat="43.146205" lon="-2.8229401">
        <ele>168.142</ele>
        <time>2021-04-01T09:36:25.339Z</time>
      </trkpt>
      <trkpt lat="43.1462042" lon="-2.8229465">
        <ele>168.131</ele>
        <time>2021-04-01T09:36:25.394Z</time>
      </trkpt>
      <trkpt lat="43.1462035" lon="-2.8229532">
        <ele>168.156</ele>
        <time>2021-04-01T09:36:25.449Z</time>
      </trkpt>
      <trkpt lat="43.146203" lon="-2.8229601">
        <ele>168.188</ele>
        <time>2021-04-01T09:36:25.504Z</time>
      </trkpt>
      <trkpt lat="43.1462024" lon="-2.8229668">
        <ele>168.181</ele>
        <time>2021-04-01T09:36:25.559Z</time>
      </trkpt>
      <trkpt lat="43.1462017" lon="-2.8229731">
        <ele>168.17</ele>
        <time>2021-04-01T09:36:25.614Z</time>
      </trkpt>
      <trkpt lat="43.1462011" lon="-2.8229795">
        <ele>168.162</ele>
        <time>2021-04-01T09:36:25.669Z</time>
      </trkpt>
      <trkpt lat="43.1462005" lon="-2.8229863">
        <ele>168.17</ele>
        <time>2021-04-01T09:36:25.724Z</time>
      </trkpt>
      <trkpt lat="43.1461998" lon="-2.8229928">
        <ele>168.152</ele>
        <time>2021-04-01T09:36:25.779Z</time>
      </trkpt>
      <trkpt lat="43.1461991" lon="-2.8229995">
        <ele>168.167</ele>
        <time>2021-04-01T09:36:25.834Z</time>
      </trkpt>
      <trkpt lat="43.1461985" lon="-2.823006">
        <ele>168.128</ele>
        <time>2021-04-01T09:36:25.889Z</time>
      </trkpt>
      <trkpt lat="43.1461979" lon="-2.8230126">
        <ele>168.118</ele>
        <time>2021-04-01T09:36:25.944Z</time>
      </trkpt>
      <trkpt lat="43.1461974" lon="-2.8230194">
        <ele>168.121</ele>
        <time>2021-04-01T09:36:25.999Z</time>
      </trkpt>
      <trkpt lat="43.1461969" lon="-2.8230261">
        <ele>168.118</ele>
        <time>2021-04-01T09:36:26.054Z</time>
      </trkpt>
      <trkpt lat="43.1461963" lon="-2.8230326">
        <ele>168.081</ele>
        <time>2021-04-01T09:36:26.105Z</time>
      </trkpt>
      <trkpt lat="43.1461957" lon="-2.8230394">
        <ele>168.116</ele>
        <time>2021-04-01T09:36:26.157Z</time>
      </trkpt>
      <trkpt lat="43.146195" lon="-2.823046">
        <ele>168.113</ele>
        <time>2021-04-01T09:36:26.209Z</time>
      </trkpt>
      <trkpt lat="43.1461949" lon="-2.8230527">
        <ele>168.091</ele>
        <time>2021-04-01T09:36:26.261Z</time>
      </trkpt>
      <trkpt lat="43.1461946" lon="-2.8230594">
        <ele>168.113</ele>
        <time>2021-04-01T09:36:26.313Z</time>
      </trkpt>
      <trkpt lat="43.146194" lon="-2.823066">
        <ele>168.11</ele>
        <time>2021-04-01T09:36:26.365Z</time>
      </trkpt>
      <trkpt lat="43.1461934" lon="-2.8230725">
        <ele>168.087</ele>
        <time>2021-04-01T09:36:26.417Z</time>
      </trkpt>
      <trkpt lat="43.1461929" lon="-2.8230787">
        <ele>168.037</ele>
        <time>2021-04-01T09:36:26.469Z</time>
      </trkpt>
      <trkpt lat="43.1461925" lon="-2.8230847">
        <ele>167.963</ele>
        <time>2021-04-01T09:36:26.521Z</time>
      </trkpt>
      <trkpt lat="43.1461919" lon="-2.8230911">
        <ele>167.935</ele>
        <time>2021-04-01T09:36:26.573Z</time>
      </trkpt>
      <trkpt lat="43.1461913" lon="-2.8230976">
        <ele>167.914</ele>
        <time>2021-04-01T09:36:26.625Z</time>
      </trkpt>
      <trkpt lat="43.1461909" lon="-2.8231045">
        <ele>167.91</ele>
        <time>2021-04-01T09:36:26.677Z</time>
      </trkpt>
      <trkpt lat="43.1461906" lon="-2.8231114">
        <ele>167.888</ele>
        <time>2021-04-01T09:36:26.729Z</time>
      </trkpt>
      <trkpt lat="43.1461902" lon="-2.8231183">
        <ele>167.877</ele>
        <time>2021-04-01T09:36:26.781Z</time>
      </trkpt>
      <trkpt lat="43.1461897" lon="-2.8231248">
        <ele>167.836</ele>
        <time>2021-04-01T09:36:26.833Z</time>
      </trkpt>
      <trkpt lat="43.1461893" lon="-2.8231314">
        <ele>167.812</ele>
        <time>2021-04-01T09:36:26.885Z</time>
      </trkpt>
      <trkpt lat="43.146189" lon="-2.8231384">
        <ele>167.826</ele>
        <time>2021-04-01T09:36:26.937Z</time>
      </trkpt>
      <trkpt lat="43.1461885" lon="-2.823145">
        <ele>167.824</ele>
        <time>2021-04-01T09:36:26.989Z</time>
      </trkpt>
      <trkpt lat="43.146188" lon="-2.8231518">
        <ele>167.811</ele>
        <time>2021-04-01T09:36:27.047Z</time>
      </trkpt>
      <trkpt lat="43.1461875" lon="-2.8231585">
        <ele>167.762</ele>
        <time>2021-04-01T09:36:27.105Z</time>
      </trkpt>
      <trkpt lat="43.1461871" lon="-2.8231653">
        <ele>167.71</ele>
        <time>2021-04-01T09:36:27.163Z</time>
      </trkpt>
      <trkpt lat="43.1461867" lon="-2.8231724">
        <ele>167.722</ele>
        <time>2021-04-01T09:36:27.221Z</time>
      </trkpt>
      <trkpt lat="43.1461863" lon="-2.8231793">
        <ele>167.735</ele>
        <time>2021-04-01T09:36:27.279Z</time>
      </trkpt>
      <trkpt lat="43.1461857" lon="-2.8231858">
        <ele>167.704</ele>
        <time>2021-04-01T09:36:27.337Z</time>
      </trkpt>
      <trkpt lat="43.146185" lon="-2.8231924">
        <ele>167.68</ele>
        <time>2021-04-01T09:36:27.395Z</time>
      </trkpt>
      <trkpt lat="43.1461844" lon="-2.8231992">
        <ele>167.655</ele>
        <time>2021-04-01T09:36:27.453Z</time>
      </trkpt>
      <trkpt lat="43.146184" lon="-2.8232062">
        <ele>167.681</ele>
        <time>2021-04-01T09:36:27.511Z</time>
      </trkpt>
      <trkpt lat="43.1461832" lon="-2.8232128">
        <ele>167.687</ele>
        <time>2021-04-01T09:36:27.569Z</time>
      </trkpt>
      <trkpt lat="43.1461828" lon="-2.8232198">
        <ele>167.704</ele>
        <time>2021-04-01T09:36:27.627Z</time>
      </trkpt>
      <trkpt lat="43.1461822" lon="-2.8232265">
        <ele>167.67</ele>
        <time>2021-04-01T09:36:27.685Z</time>
      </trkpt>
      <trkpt lat="43.1461817" lon="-2.8232334">
        <ele>167.66</ele>
        <time>2021-04-01T09:36:27.743Z</time>
      </trkpt>
      <trkpt lat="43.1461812" lon="-2.8232405">
        <ele>167.678</ele>
        <time>2021-04-01T09:36:27.801Z</time>
      </trkpt>
      <trkpt lat="43.1461807" lon="-2.8232473">
        <ele>167.652</ele>
        <time>2021-04-01T09:36:27.859Z</time>
      </trkpt>
      <trkpt lat="43.1461803" lon="-2.823254">
        <ele>167.64</ele>
        <time>2021-04-01T09:36:27.917Z</time>
      </trkpt>
      <trkpt lat="43.1461797" lon="-2.8232609">
        <ele>167.626</ele>
        <time>2021-04-01T09:36:27.975Z</time>
      </trkpt>
      <trkpt lat="43.1461791" lon="-2.8232678">
        <ele>167.611</ele>
        <time>2021-04-01T09:36:28.034Z</time>
      </trkpt>
      <trkpt lat="43.1461786" lon="-2.8232747">
        <ele>167.603</ele>
        <time>2021-04-01T09:36:28.092Z</time>
      </trkpt>
      <trkpt lat="43.1461782" lon="-2.8232816">
        <ele>167.637</ele>
        <time>2021-04-01T09:36:28.150Z</time>
      </trkpt>
      <trkpt lat="43.1461778" lon="-2.8232884">
        <ele>167.632</ele>
        <time>2021-04-01T09:36:28.208Z</time>
      </trkpt>
      <trkpt lat="43.1461772" lon="-2.8232951">
        <ele>167.6</ele>
        <time>2021-04-01T09:36:28.266Z</time>
      </trkpt>
      <trkpt lat="43.1461767" lon="-2.8233018">
        <ele>167.561</ele>
        <time>2021-04-01T09:36:28.324Z</time>
      </trkpt>
      <trkpt lat="43.1461762" lon="-2.8233086">
        <ele>167.548</ele>
        <time>2021-04-01T09:36:28.382Z</time>
      </trkpt>
      <trkpt lat="43.146176" lon="-2.8233158">
        <ele>167.568</ele>
        <time>2021-04-01T09:36:28.440Z</time>
      </trkpt>
      <trkpt lat="43.1461753" lon="-2.8233225">
        <ele>167.548</ele>
        <time>2021-04-01T09:36:28.498Z</time>
      </trkpt>
      <trkpt lat="43.1461748" lon="-2.8233294">
        <ele>167.545</ele>
        <time>2021-04-01T09:36:28.556Z</time>
      </trkpt>
      <trkpt lat="43.1461745" lon="-2.8233364">
        <ele>167.547</ele>
        <time>2021-04-01T09:36:28.614Z</time>
      </trkpt>
      <trkpt lat="43.1461741" lon="-2.8233432">
        <ele>167.521</ele>
        <time>2021-04-01T09:36:28.672Z</time>
      </trkpt>
      <trkpt lat="43.1461735" lon="-2.8233499">
        <ele>167.506</ele>
        <time>2021-04-01T09:36:28.730Z</time>
      </trkpt>
      <trkpt lat="43.1461731" lon="-2.8233568">
        <ele>167.467</ele>
        <time>2021-04-01T09:36:28.788Z</time>
      </trkpt>
      <trkpt lat="43.1461725" lon="-2.8233636">
        <ele>167.402</ele>
        <time>2021-04-01T09:36:28.846Z</time>
      </trkpt>
      <trkpt lat="43.146172" lon="-2.8233703">
        <ele>167.384</ele>
        <time>2021-04-01T09:36:28.904Z</time>
      </trkpt>
      <trkpt lat="43.1461714" lon="-2.8233769">
        <ele>167.376</ele>
        <time>2021-04-01T09:36:28.962Z</time>
      </trkpt>
      <trkpt lat="43.1461706" lon="-2.8233837">
        <ele>167.325</ele>
        <time>2021-04-01T09:36:29.020Z</time>
      </trkpt>
      <trkpt lat="43.1461699" lon="-2.8233906">
        <ele>167.291</ele>
        <time>2021-04-01T09:36:29.079Z</time>
      </trkpt>
      <trkpt lat="43.1461693" lon="-2.8233975">
        <ele>167.248</ele>
        <time>2021-04-01T09:36:29.128Z</time>
      </trkpt>
      <trkpt lat="43.1461685" lon="-2.8234041">
        <ele>167.211</ele>
        <time>2021-04-01T09:36:29.177Z</time>
      </trkpt>
      <trkpt lat="43.146168" lon="-2.8234109">
        <ele>167.196</ele>
        <time>2021-04-01T09:36:29.226Z</time>
      </trkpt>
      <trkpt lat="43.1461675" lon="-2.8234177">
        <ele>167.171</ele>
        <time>2021-04-01T09:36:29.275Z</time>
      </trkpt>
      <trkpt lat="43.146167" lon="-2.8234243">
        <ele>167.137</ele>
        <time>2021-04-01T09:36:29.325Z</time>
      </trkpt>
      <trkpt lat="43.1461666" lon="-2.8234312">
        <ele>167.106</ele>
        <time>2021-04-01T09:36:29.374Z</time>
      </trkpt>
      <trkpt lat="43.1461663" lon="-2.8234379">
        <ele>167.088</ele>
        <time>2021-04-01T09:36:29.423Z</time>
      </trkpt>
      <trkpt lat="43.1461659" lon="-2.8234447">
        <ele>167.075</ele>
        <time>2021-04-01T09:36:29.472Z</time>
      </trkpt>
      <trkpt lat="43.1461655" lon="-2.8234516">
        <ele>167.08</ele>
        <time>2021-04-01T09:36:29.521Z</time>
      </trkpt>
      <trkpt lat="43.1461651" lon="-2.8234584">
        <ele>167.052</ele>
        <time>2021-04-01T09:36:29.571Z</time>
      </trkpt>
      <trkpt lat="43.1461645" lon="-2.8234653">
        <ele>167.022</ele>
        <time>2021-04-01T09:36:29.620Z</time>
      </trkpt>
      <trkpt lat="43.146164" lon="-2.8234721">
        <ele>167.009</ele>
        <time>2021-04-01T09:36:29.669Z</time>
      </trkpt>
      <trkpt lat="43.1461632" lon="-2.8234787">
        <ele>166.997</ele>
        <time>2021-04-01T09:36:29.718Z</time>
      </trkpt>
      <trkpt lat="43.1461628" lon="-2.8234856">
        <ele>166.982</ele>
        <time>2021-04-01T09:36:29.767Z</time>
      </trkpt>
      <trkpt lat="43.1461623" lon="-2.8234923">
        <ele>166.964</ele>
        <time>2021-04-01T09:36:29.817Z</time>
      </trkpt>
      <trkpt lat="43.1461622" lon="-2.8234991">
        <ele>166.941</ele>
        <time>2021-04-01T09:36:29.866Z</time>
      </trkpt>
      <trkpt lat="43.1461614" lon="-2.8235058">
        <ele>166.904</ele>
        <time>2021-04-01T09:36:29.915Z</time>
      </trkpt>
      <trkpt lat="43.1461609" lon="-2.8235123">
        <ele>166.854</ele>
        <time>2021-04-01T09:36:29.964Z</time>
      </trkpt>
      <trkpt lat="43.1461605" lon="-2.8235187">
        <ele>166.816</ele>
        <time>2021-04-01T09:36:30.014Z</time>
      </trkpt>
      <trkpt lat="43.14616" lon="-2.8235252">
        <ele>166.773</ele>
        <time>2021-04-01T09:36:30.072Z</time>
      </trkpt>
      <trkpt lat="43.1461596" lon="-2.8235317">
        <ele>166.717</ele>
        <time>2021-04-01T09:36:30.130Z</time>
      </trkpt>
      <trkpt lat="43.1461591" lon="-2.8235379">
        <ele>166.654</ele>
        <time>2021-04-01T09:36:30.188Z</time>
      </trkpt>
      <trkpt lat="43.1461585" lon="-2.8235443">
        <ele>166.576</ele>
        <time>2021-04-01T09:36:30.246Z</time>
      </trkpt>
      <trkpt lat="43.146158" lon="-2.8235507">
        <ele>166.502</ele>
        <time>2021-04-01T09:36:30.305Z</time>
      </trkpt>
      <trkpt lat="43.1461577" lon="-2.823557">
        <ele>166.425</ele>
        <time>2021-04-01T09:36:30.363Z</time>
      </trkpt>
      <trkpt lat="43.1461573" lon="-2.8235637">
        <ele>166.373</ele>
        <time>2021-04-01T09:36:30.421Z</time>
      </trkpt>
      <trkpt lat="43.1461568" lon="-2.8235705">
        <ele>166.324</ele>
        <time>2021-04-01T09:36:30.479Z</time>
      </trkpt>
      <trkpt lat="43.1461561" lon="-2.823577">
        <ele>166.262</ele>
        <time>2021-04-01T09:36:30.538Z</time>
      </trkpt>
      <trkpt lat="43.1461557" lon="-2.8235837">
        <ele>166.208</ele>
        <time>2021-04-01T09:36:30.596Z</time>
      </trkpt>
      <trkpt lat="43.1461552" lon="-2.8235905">
        <ele>166.148</ele>
        <time>2021-04-01T09:36:30.654Z</time>
      </trkpt>
      <trkpt lat="43.1461546" lon="-2.8235974">
        <ele>166.114</ele>
        <time>2021-04-01T09:36:30.712Z</time>
      </trkpt>
      <trkpt lat="43.1461542" lon="-2.8236042">
        <ele>166.078</ele>
        <time>2021-04-01T09:36:30.771Z</time>
      </trkpt>
      <trkpt lat="43.1461538" lon="-2.8236111">
        <ele>166.047</ele>
        <time>2021-04-01T09:36:30.829Z</time>
      </trkpt>
      <trkpt lat="43.1461533" lon="-2.8236178">
        <ele>166.014</ele>
        <time>2021-04-01T09:36:30.887Z</time>
      </trkpt>
      <trkpt lat="43.1461527" lon="-2.8236248">
        <ele>165.958</ele>
        <time>2021-04-01T09:36:30.945Z</time>
      </trkpt>
      <trkpt lat="43.1461523" lon="-2.8236313">
        <ele>165.927</ele>
        <time>2021-04-01T09:36:31.004Z</time>
      </trkpt>
      <trkpt lat="43.1461518" lon="-2.8236382">
        <ele>165.899</ele>
        <time>2021-04-01T09:36:31.059Z</time>
      </trkpt>
      <trkpt lat="43.1461513" lon="-2.8236451">
        <ele>165.845</ele>
        <time>2021-04-01T09:36:31.114Z</time>
      </trkpt>
      <trkpt lat="43.1461508" lon="-2.8236518">
        <ele>165.807</ele>
        <time>2021-04-01T09:36:31.169Z</time>
      </trkpt>
      <trkpt lat="43.1461504" lon="-2.8236586">
        <ele>165.77</ele>
        <time>2021-04-01T09:36:31.224Z</time>
      </trkpt>
      <trkpt lat="43.1461499" lon="-2.8236655">
        <ele>165.744</ele>
        <time>2021-04-01T09:36:31.279Z</time>
      </trkpt>
      <trkpt lat="43.1461493" lon="-2.8236725">
        <ele>165.725</ele>
        <time>2021-04-01T09:36:31.334Z</time>
      </trkpt>
      <trkpt lat="43.1461488" lon="-2.8236793">
        <ele>165.703</ele>
        <time>2021-04-01T09:36:31.389Z</time>
      </trkpt>
      <trkpt lat="43.1461482" lon="-2.8236863">
        <ele>165.689</ele>
        <time>2021-04-01T09:36:31.444Z</time>
      </trkpt>
      <trkpt lat="43.1461476" lon="-2.8236933">
        <ele>165.694</ele>
        <time>2021-04-01T09:36:31.499Z</time>
      </trkpt>
      <trkpt lat="43.1461469" lon="-2.8237">
        <ele>165.67</ele>
        <time>2021-04-01T09:36:31.554Z</time>
      </trkpt>
      <trkpt lat="43.1461463" lon="-2.8237066">
        <ele>165.641</ele>
        <time>2021-04-01T09:36:31.609Z</time>
      </trkpt>
      <trkpt lat="43.1461456" lon="-2.8237134">
        <ele>165.606</ele>
        <time>2021-04-01T09:36:31.664Z</time>
      </trkpt>
      <trkpt lat="43.1461448" lon="-2.82372">
        <ele>165.552</ele>
        <time>2021-04-01T09:36:31.719Z</time>
      </trkpt>
      <trkpt lat="43.1461442" lon="-2.8237269">
        <ele>165.558</ele>
        <time>2021-04-01T09:36:31.774Z</time>
      </trkpt>
      <trkpt lat="43.1461435" lon="-2.8237337">
        <ele>165.543</ele>
        <time>2021-04-01T09:36:31.829Z</time>
      </trkpt>
      <trkpt lat="43.1461429" lon="-2.8237405">
        <ele>165.529</ele>
        <time>2021-04-01T09:36:31.884Z</time>
      </trkpt>
      <trkpt lat="43.1461423" lon="-2.8237477">
        <ele>165.553</ele>
        <time>2021-04-01T09:36:31.939Z</time>
      </trkpt>
      <trkpt lat="43.1461416" lon="-2.8237546">
        <ele>165.541</ele>
        <time>2021-04-01T09:36:31.994Z</time>
      </trkpt>
      <trkpt lat="43.1461408" lon="-2.823761">
        <ele>165.489</ele>
        <time>2021-04-01T09:36:32.049Z</time>
      </trkpt>
      <trkpt lat="43.1461398" lon="-2.8237671">
        <ele>165.372</ele>
        <time>2021-04-01T09:36:32.104Z</time>
      </trkpt>
      <trkpt lat="43.146139" lon="-2.8237722">
        <ele>165.188</ele>
        <time>2021-04-01T09:36:32.159Z</time>
      </trkpt>
      <trkpt lat="43.1461384" lon="-2.8237788">
        <ele>165.173</ele>
        <time>2021-04-01T09:36:32.214Z</time>
      </trkpt>
      <trkpt lat="43.1461374" lon="-2.8237846">
        <ele>165.064</ele>
        <time>2021-04-01T09:36:32.269Z</time>
      </trkpt>
      <trkpt lat="43.1461365" lon="-2.8237904">
        <ele>164.959</ele>
        <time>2021-04-01T09:36:32.324Z</time>
      </trkpt>
      <trkpt lat="43.1461356" lon="-2.8237962">
        <ele>164.838</ele>
        <time>2021-04-01T09:36:32.379Z</time>
      </trkpt>
      <trkpt lat="43.1461345" lon="-2.8238018">
        <ele>164.688</ele>
        <time>2021-04-01T09:36:32.434Z</time>
      </trkpt>
      <trkpt lat="43.1461338" lon="-2.8238079">
        <ele>164.588</ele>
        <time>2021-04-01T09:36:32.489Z</time>
      </trkpt>
      <trkpt lat="43.1461333" lon="-2.8238154">
        <ele>164.664</ele>
        <time>2021-04-01T09:36:32.544Z</time>
      </trkpt>
      <trkpt lat="43.1461327" lon="-2.8238229">
        <ele>164.749</ele>
        <time>2021-04-01T09:36:32.599Z</time>
      </trkpt>
      <trkpt lat="43.1461319" lon="-2.8238297">
        <ele>164.731</ele>
        <time>2021-04-01T09:36:32.654Z</time>
      </trkpt>
      <trkpt lat="43.1461312" lon="-2.8238364">
        <ele>164.696</ele>
        <time>2021-04-01T09:36:32.709Z</time>
      </trkpt>
      <trkpt lat="43.1461303" lon="-2.823843">
        <ele>164.669</ele>
        <time>2021-04-01T09:36:32.764Z</time>
      </trkpt>
      <trkpt lat="43.1461295" lon="-2.8238497">
        <ele>164.675</ele>
        <time>2021-04-01T09:36:32.819Z</time>
      </trkpt>
      <trkpt lat="43.1461287" lon="-2.8238566">
        <ele>164.696</ele>
        <time>2021-04-01T09:36:32.874Z</time>
      </trkpt>
      <trkpt lat="43.1461281" lon="-2.823864">
        <ele>164.761</ele>
        <time>2021-04-01T09:36:32.929Z</time>
      </trkpt>
      <trkpt lat="43.1461273" lon="-2.8238711">
        <ele>164.779</ele>
        <time>2021-04-01T09:36:32.984Z</time>
      </trkpt>
      <trkpt lat="43.1461266" lon="-2.8238783">
        <ele>164.828</ele>
        <time>2021-04-01T09:36:33.039Z</time>
      </trkpt>
      <trkpt lat="43.1461259" lon="-2.8238856">
        <ele>164.898</ele>
        <time>2021-04-01T09:36:33.094Z</time>
      </trkpt>
      <trkpt lat="43.146125" lon="-2.8238927">
        <ele>164.934</ele>
        <time>2021-04-01T09:36:33.149Z</time>
      </trkpt>
      <trkpt lat="43.146124" lon="-2.8238998">
        <ele>165.001</ele>
        <time>2021-04-01T09:36:33.204Z</time>
      </trkpt>
      <trkpt lat="43.1461231" lon="-2.8239067">
        <ele>165.018</ele>
        <time>2021-04-01T09:36:33.259Z</time>
      </trkpt>
      <trkpt lat="43.1461221" lon="-2.8239136">
        <ele>165.047</ele>
        <time>2021-04-01T09:36:33.314Z</time>
      </trkpt>
      <trkpt lat="43.1461211" lon="-2.8239205">
        <ele>165.066</ele>
        <time>2021-04-01T09:36:33.369Z</time>
      </trkpt>
      <trkpt lat="43.14612" lon="-2.8239273">
        <ele>165.085</ele>
        <time>2021-04-01T09:36:33.424Z</time>
      </trkpt>
      <trkpt lat="43.1461189" lon="-2.823934">
        <ele>165.11</ele>
        <time>2021-04-01T09:36:33.479Z</time>
      </trkpt>
      <trkpt lat="43.1461179" lon="-2.8239408">
        <ele>165.149</ele>
        <time>2021-04-01T09:36:33.534Z</time>
      </trkpt>
      <trkpt lat="43.1461166" lon="-2.8239478">
        <ele>165.175</ele>
        <time>2021-04-01T09:36:33.589Z</time>
      </trkpt>
      <trkpt lat="43.1461154" lon="-2.8239544">
        <ele>165.171</ele>
        <time>2021-04-01T09:36:33.644Z</time>
      </trkpt>
      <trkpt lat="43.1461141" lon="-2.8239611">
        <ele>165.17</ele>
        <time>2021-04-01T09:36:33.699Z</time>
      </trkpt>
      <trkpt lat="43.1461127" lon="-2.8239679">
        <ele>165.168</ele>
        <time>2021-04-01T09:36:33.754Z</time>
      </trkpt>
      <trkpt lat="43.1461113" lon="-2.8239746">
        <ele>165.163</ele>
        <time>2021-04-01T09:36:33.809Z</time>
      </trkpt>
      <trkpt lat="43.1461096" lon="-2.823981">
        <ele>165.153</ele>
        <time>2021-04-01T09:36:33.864Z</time>
      </trkpt>
      <trkpt lat="43.146108" lon="-2.8239876">
        <ele>165.125</ele>
        <time>2021-04-01T09:36:33.919Z</time>
      </trkpt>
      <trkpt lat="43.1461063" lon="-2.8239943">
        <ele>165.135</ele>
        <time>2021-04-01T09:36:33.974Z</time>
      </trkpt>
      <trkpt lat="43.1461046" lon="-2.8240008">
        <ele>165.131</ele>
        <time>2021-04-01T09:36:34.029Z</time>
      </trkpt>
      <trkpt lat="43.1461031" lon="-2.8240076">
        <ele>165.153</ele>
        <time>2021-04-01T09:36:34.081Z</time>
      </trkpt>
      <trkpt lat="43.1461014" lon="-2.8240141">
        <ele>165.153</ele>
        <time>2021-04-01T09:36:34.133Z</time>
      </trkpt>
      <trkpt lat="43.1460996" lon="-2.8240206">
        <ele>165.166</ele>
        <time>2021-04-01T09:36:34.185Z</time>
      </trkpt>
      <trkpt lat="43.1460978" lon="-2.8240272">
        <ele>165.148</ele>
        <time>2021-04-01T09:36:34.237Z</time>
      </trkpt>
      <trkpt lat="43.1460957" lon="-2.8240336">
        <ele>165.118</ele>
        <time>2021-04-01T09:36:34.289Z</time>
      </trkpt>
      <trkpt lat="43.1460938" lon="-2.8240402">
        <ele>165.12</ele>
        <time>2021-04-01T09:36:34.341Z</time>
      </trkpt>
      <trkpt lat="43.1460917" lon="-2.8240467">
        <ele>165.115</ele>
        <time>2021-04-01T09:36:34.393Z</time>
      </trkpt>
      <trkpt lat="43.1460898" lon="-2.8240529">
        <ele>165.102</ele>
        <time>2021-04-01T09:36:34.445Z</time>
      </trkpt>
      <trkpt lat="43.1460878" lon="-2.8240592">
        <ele>165.122</ele>
        <time>2021-04-01T09:36:34.497Z</time>
      </trkpt>
      <trkpt lat="43.1460857" lon="-2.8240656">
        <ele>165.125</ele>
        <time>2021-04-01T09:36:34.550Z</time>
      </trkpt>
      <trkpt lat="43.1460834" lon="-2.8240717">
        <ele>165.135</ele>
        <time>2021-04-01T09:36:34.602Z</time>
      </trkpt>
      <trkpt lat="43.1460812" lon="-2.8240778">
        <ele>165.142</ele>
        <time>2021-04-01T09:36:34.654Z</time>
      </trkpt>
      <trkpt lat="43.1460788" lon="-2.8240837">
        <ele>165.127</ele>
        <time>2021-04-01T09:36:34.706Z</time>
      </trkpt>
      <trkpt lat="43.1460766" lon="-2.8240899">
        <ele>165.165</ele>
        <time>2021-04-01T09:36:34.758Z</time>
      </trkpt>
      <trkpt lat="43.1460742" lon="-2.8240959">
        <ele>165.179</ele>
        <time>2021-04-01T09:36:34.810Z</time>
      </trkpt>
      <trkpt lat="43.1460712" lon="-2.8241014">
        <ele>165.174</ele>
        <time>2021-04-01T09:36:34.862Z</time>
      </trkpt>
      <trkpt lat="43.1460685" lon="-2.8241072">
        <ele>165.195</ele>
        <time>2021-04-01T09:36:34.914Z</time>
      </trkpt>
      <trkpt lat="43.1460659" lon="-2.824113">
        <ele>165.187</ele>
        <time>2021-04-01T09:36:34.966Z</time>
      </trkpt>
      <trkpt lat="43.1460632" lon="-2.8241188">
        <ele>165.188</ele>
        <time>2021-04-01T09:36:35.019Z</time>
      </trkpt>
      <trkpt lat="43.1460605" lon="-2.8241245">
        <ele>165.21</ele>
        <time>2021-04-01T09:36:35.080Z</time>
      </trkpt>
      <trkpt lat="43.1460576" lon="-2.82413">
        <ele>165.203</ele>
        <time>2021-04-01T09:36:35.141Z</time>
      </trkpt>
      <trkpt lat="43.1460548" lon="-2.8241355">
        <ele>165.18</ele>
        <time>2021-04-01T09:36:35.203Z</time>
      </trkpt>
      <trkpt lat="43.1460517" lon="-2.8241407">
        <ele>165.171</ele>
        <time>2021-04-01T09:36:35.264Z</time>
      </trkpt>
      <trkpt lat="43.146049" lon="-2.8241463">
        <ele>165.163</ele>
        <time>2021-04-01T09:36:35.326Z</time>
      </trkpt>
      <trkpt lat="43.1460461" lon="-2.8241519">
        <ele>165.151</ele>
        <time>2021-04-01T09:36:35.387Z</time>
      </trkpt>
      <trkpt lat="43.1460431" lon="-2.8241573">
        <ele>165.16</ele>
        <time>2021-04-01T09:36:35.449Z</time>
      </trkpt>
      <trkpt lat="43.1460402" lon="-2.8241627">
        <ele>165.162</ele>
        <time>2021-04-01T09:36:35.510Z</time>
      </trkpt>
      <trkpt lat="43.1460373" lon="-2.8241679">
        <ele>165.162</ele>
        <time>2021-04-01T09:36:35.572Z</time>
      </trkpt>
      <trkpt lat="43.1460345" lon="-2.8241732">
        <ele>165.159</ele>
        <time>2021-04-01T09:36:35.633Z</time>
      </trkpt>
      <trkpt lat="43.1460315" lon="-2.8241784">
        <ele>165.177</ele>
        <time>2021-04-01T09:36:35.695Z</time>
      </trkpt>
      <trkpt lat="43.1460286" lon="-2.8241836">
        <ele>165.19</ele>
        <time>2021-04-01T09:36:35.756Z</time>
      </trkpt>
      <trkpt lat="43.1460253" lon="-2.8241883">
        <ele>165.195</ele>
        <time>2021-04-01T09:36:35.818Z</time>
      </trkpt>
      <trkpt lat="43.1460219" lon="-2.8241931">
        <ele>165.212</ele>
        <time>2021-04-01T09:36:35.879Z</time>
      </trkpt>
      <trkpt lat="43.1460186" lon="-2.824198">
        <ele>165.22</ele>
        <time>2021-04-01T09:36:35.941Z</time>
      </trkpt>
      <trkpt lat="43.1460154" lon="-2.8242028">
        <ele>165.204</ele>
        <time>2021-04-01T09:36:36.002Z</time>
      </trkpt>
      <trkpt lat="43.1460121" lon="-2.8242074">
        <ele>165.182</ele>
        <time>2021-04-01T09:36:36.064Z</time>
      </trkpt>
      <trkpt lat="43.1460085" lon="-2.8242118">
        <ele>165.165</ele>
        <time>2021-04-01T09:36:36.113Z</time>
      </trkpt>
      <trkpt lat="43.1460051" lon="-2.8242164">
        <ele>165.161</ele>
        <time>2021-04-01T09:36:36.162Z</time>
      </trkpt>
      <trkpt lat="43.1460013" lon="-2.8242203">
        <ele>165.144</ele>
        <time>2021-04-01T09:36:36.211Z</time>
      </trkpt>
      <trkpt lat="43.1459977" lon="-2.8242244">
        <ele>165.125</ele>
        <time>2021-04-01T09:36:36.261Z</time>
      </trkpt>
      <trkpt lat="43.1459943" lon="-2.8242288">
        <ele>165.114</ele>
        <time>2021-04-01T09:36:36.310Z</time>
      </trkpt>
      <trkpt lat="43.1459908" lon="-2.8242332">
        <ele>165.114</ele>
        <time>2021-04-01T09:36:36.359Z</time>
      </trkpt>
      <trkpt lat="43.1459872" lon="-2.8242375">
        <ele>165.094</ele>
        <time>2021-04-01T09:36:36.408Z</time>
      </trkpt>
      <trkpt lat="43.1459836" lon="-2.8242413">
        <ele>165.066</ele>
        <time>2021-04-01T09:36:36.458Z</time>
      </trkpt>
      <trkpt lat="43.1459799" lon="-2.8242452">
        <ele>165.052</ele>
        <time>2021-04-01T09:36:36.507Z</time>
      </trkpt>
      <trkpt lat="43.1459757" lon="-2.8242489">
        <ele>165.023</ele>
        <time>2021-04-01T09:36:36.556Z</time>
      </trkpt>
      <trkpt lat="43.1459718" lon="-2.8242525">
        <ele>165.011</ele>
        <time>2021-04-01T09:36:36.605Z</time>
      </trkpt>
      <trkpt lat="43.1459675" lon="-2.8242556">
        <ele>164.988</ele>
        <time>2021-04-01T09:36:36.655Z</time>
      </trkpt>
      <trkpt lat="43.1459629" lon="-2.8242586">
        <ele>164.978</ele>
        <time>2021-04-01T09:36:36.704Z</time>
      </trkpt>
      <trkpt lat="43.1459585" lon="-2.8242616">
        <ele>164.977</ele>
        <time>2021-04-01T09:36:36.753Z</time>
      </trkpt>
      <trkpt lat="43.1459543" lon="-2.8242652">
        <ele>164.969</ele>
        <time>2021-04-01T09:36:36.802Z</time>
      </trkpt>
      <trkpt lat="43.1459499" lon="-2.8242684">
        <ele>164.963</ele>
        <time>2021-04-01T09:36:36.852Z</time>
      </trkpt>
      <trkpt lat="43.1459456" lon="-2.8242714">
        <ele>164.919</ele>
        <time>2021-04-01T09:36:36.901Z</time>
      </trkpt>
      <trkpt lat="43.1459415" lon="-2.8242741">
        <ele>164.91</ele>
        <time>2021-04-01T09:36:36.950Z</time>
      </trkpt>
      <trkpt lat="43.1459373" lon="-2.8242765">
        <ele>164.867</ele>
        <time>2021-04-01T09:36:37.000Z</time>
      </trkpt>
      <trkpt lat="43.1459328" lon="-2.8242791">
        <ele>164.833</ele>
        <time>2021-04-01T09:36:37.058Z</time>
      </trkpt>
      <trkpt lat="43.1459288" lon="-2.8242812">
        <ele>164.816</ele>
        <time>2021-04-01T09:36:37.116Z</time>
      </trkpt>
      <trkpt lat="43.1459248" lon="-2.824283">
        <ele>164.762</ele>
        <time>2021-04-01T09:36:37.174Z</time>
      </trkpt>
      <trkpt lat="43.1459205" lon="-2.8242852">
        <ele>164.72</ele>
        <time>2021-04-01T09:36:37.232Z</time>
      </trkpt>
      <trkpt lat="43.1459161" lon="-2.824287">
        <ele>164.674</ele>
        <time>2021-04-01T09:36:37.290Z</time>
      </trkpt>
      <trkpt lat="43.1459118" lon="-2.8242893">
        <ele>164.656</ele>
        <time>2021-04-01T09:36:37.348Z</time>
      </trkpt>
      <trkpt lat="43.1459072" lon="-2.8242913">
        <ele>164.622</ele>
        <time>2021-04-01T09:36:37.406Z</time>
      </trkpt>
      <trkpt lat="43.1459026" lon="-2.8242931">
        <ele>164.585</ele>
        <time>2021-04-01T09:36:37.464Z</time>
      </trkpt>
      <trkpt lat="43.1458982" lon="-2.8242949">
        <ele>164.546</ele>
        <time>2021-04-01T09:36:37.522Z</time>
      </trkpt>
      <trkpt lat="43.1458938" lon="-2.8242964">
        <ele>164.522</ele>
        <time>2021-04-01T09:36:37.580Z</time>
      </trkpt>
      <trkpt lat="43.1458892" lon="-2.8242983">
        <ele>164.485</ele>
        <time>2021-04-01T09:36:37.638Z</time>
      </trkpt>
      <trkpt lat="43.1458846" lon="-2.8243002">
        <ele>164.459</ele>
        <time>2021-04-01T09:36:37.696Z</time>
      </trkpt>
      <trkpt lat="43.14588" lon="-2.8243017">
        <ele>164.429</ele>
        <time>2021-04-01T09:36:37.754Z</time>
      </trkpt>
      <trkpt lat="43.1458755" lon="-2.8243034">
        <ele>164.39</ele>
        <time>2021-04-01T09:36:37.812Z</time>
      </trkpt>
      <trkpt lat="43.1458709" lon="-2.8243051">
        <ele>164.386</ele>
        <time>2021-04-01T09:36:37.870Z</time>
      </trkpt>
      <trkpt lat="43.1458665" lon="-2.8243071">
        <ele>164.415</ele>
        <time>2021-04-01T09:36:37.928Z</time>
      </trkpt>
      <trkpt lat="43.1458619" lon="-2.8243088">
        <ele>164.423</ele>
        <time>2021-04-01T09:36:37.986Z</time>
      </trkpt>
      <trkpt lat="43.1458572" lon="-2.8243102">
        <ele>164.438</ele>
        <time>2021-04-01T09:36:38.044Z</time>
      </trkpt>
      <trkpt lat="43.1458527" lon="-2.8243114">
        <ele>164.42</ele>
        <time>2021-04-01T09:36:38.099Z</time>
      </trkpt>
      <trkpt lat="43.145848" lon="-2.8243128">
        <ele>164.39</ele>
        <time>2021-04-01T09:36:38.154Z</time>
      </trkpt>
      <trkpt lat="43.1458432" lon="-2.8243138">
        <ele>164.379</ele>
        <time>2021-04-01T09:36:38.209Z</time>
      </trkpt>
      <trkpt lat="43.1458383" lon="-2.8243152">
        <ele>164.378</ele>
        <time>2021-04-01T09:36:38.264Z</time>
      </trkpt>
      <trkpt lat="43.1458338" lon="-2.824316">
        <ele>164.39</ele>
        <time>2021-04-01T09:36:38.319Z</time>
      </trkpt>
      <trkpt lat="43.1458293" lon="-2.8243172">
        <ele>164.433</ele>
        <time>2021-04-01T09:36:38.374Z</time>
      </trkpt>
      <trkpt lat="43.1458249" lon="-2.8243185">
        <ele>164.472</ele>
        <time>2021-04-01T09:36:38.429Z</time>
      </trkpt>
      <trkpt lat="43.1458205" lon="-2.8243194">
        <ele>164.511</ele>
        <time>2021-04-01T09:36:38.484Z</time>
      </trkpt>
      <trkpt lat="43.1458162" lon="-2.8243202">
        <ele>164.561</ele>
        <time>2021-04-01T09:36:38.539Z</time>
      </trkpt>
      <trkpt lat="43.1458117" lon="-2.824321">
        <ele>164.575</ele>
        <time>2021-04-01T09:36:38.594Z</time>
      </trkpt>
      <trkpt lat="43.1458071" lon="-2.8243217">
        <ele>164.59</ele>
        <time>2021-04-01T09:36:38.649Z</time>
      </trkpt>
      <trkpt lat="43.1458027" lon="-2.8243222">
        <ele>164.595</ele>
        <time>2021-04-01T09:36:38.704Z</time>
      </trkpt>
      <trkpt lat="43.1457984" lon="-2.8243226">
        <ele>164.605</ele>
        <time>2021-04-01T09:36:38.759Z</time>
      </trkpt>
      <trkpt lat="43.1457939" lon="-2.8243234">
        <ele>164.625</ele>
        <time>2021-04-01T09:36:38.814Z</time>
      </trkpt>
      <trkpt lat="43.1457893" lon="-2.824324">
        <ele>164.637</ele>
        <time>2021-04-01T09:36:38.869Z</time>
      </trkpt>
      <trkpt lat="43.1457848" lon="-2.8243243">
        <ele>164.662</ele>
        <time>2021-04-01T09:36:38.924Z</time>
      </trkpt>
      <trkpt lat="43.1457801" lon="-2.8243248">
        <ele>164.674</ele>
        <time>2021-04-01T09:36:38.979Z</time>
      </trkpt>
      <trkpt lat="43.1457755" lon="-2.8243251">
        <ele>164.672</ele>
        <time>2021-04-01T09:36:39.034Z</time>
      </trkpt>
      <trkpt lat="43.145771" lon="-2.8243258">
        <ele>164.702</ele>
        <time>2021-04-01T09:36:39.089Z</time>
      </trkpt>
      <trkpt lat="43.1457664" lon="-2.8243266">
        <ele>164.714</ele>
        <time>2021-04-01T09:36:39.144Z</time>
      </trkpt>
      <trkpt lat="43.1457617" lon="-2.8243266">
        <ele>164.72</ele>
        <time>2021-04-01T09:36:39.199Z</time>
      </trkpt>
      <trkpt lat="43.1457571" lon="-2.8243269">
        <ele>164.718</ele>
        <time>2021-04-01T09:36:39.254Z</time>
      </trkpt>
      <trkpt lat="43.1457524" lon="-2.8243273">
        <ele>164.713</ele>
        <time>2021-04-01T09:36:39.309Z</time>
      </trkpt>
      <trkpt lat="43.1457478" lon="-2.8243274">
        <ele>164.703</ele>
        <time>2021-04-01T09:36:39.364Z</time>
      </trkpt>
      <trkpt lat="43.1457432" lon="-2.824328">
        <ele>164.722</ele>
        <time>2021-04-01T09:36:39.419Z</time>
      </trkpt>
      <trkpt lat="43.1457387" lon="-2.824328">
        <ele>164.724</ele>
        <time>2021-04-01T09:36:39.474Z</time>
      </trkpt>
      <trkpt lat="43.1457343" lon="-2.8243282">
        <ele>164.723</ele>
        <time>2021-04-01T09:36:39.529Z</time>
      </trkpt>
      <trkpt lat="43.1457298" lon="-2.8243286">
        <ele>164.738</ele>
        <time>2021-04-01T09:36:39.584Z</time>
      </trkpt>
      <trkpt lat="43.1457254" lon="-2.8243291">
        <ele>164.74</ele>
        <time>2021-04-01T09:36:39.639Z</time>
      </trkpt>
      <trkpt lat="43.1457207" lon="-2.8243295">
        <ele>164.77</ele>
        <time>2021-04-01T09:36:39.694Z</time>
      </trkpt>
      <trkpt lat="43.1457161" lon="-2.8243298">
        <ele>164.744</ele>
        <time>2021-04-01T09:36:39.749Z</time>
      </trkpt>
      <trkpt lat="43.1457115" lon="-2.8243301">
        <ele>164.736</ele>
        <time>2021-04-01T09:36:39.804Z</time>
      </trkpt>
      <trkpt lat="43.1457069" lon="-2.8243302">
        <ele>164.731</ele>
        <time>2021-04-01T09:36:39.859Z</time>
      </trkpt>
      <trkpt lat="43.1457023" lon="-2.8243303">
        <ele>164.726</ele>
        <time>2021-04-01T09:36:39.914Z</time>
      </trkpt>
      <trkpt lat="43.1456974" lon="-2.8243306">
        <ele>164.712</ele>
        <time>2021-04-01T09:36:39.969Z</time>
      </trkpt>
      <trkpt lat="43.1456928" lon="-2.8243305">
        <ele>164.706</ele>
        <time>2021-04-01T09:36:40.024Z</time>
      </trkpt>
      <trkpt lat="43.1456882" lon="-2.8243306">
        <ele>164.721</ele>
        <time>2021-04-01T09:36:40.079Z</time>
      </trkpt>
      <trkpt lat="43.1456836" lon="-2.8243307">
        <ele>164.723</ele>
        <time>2021-04-01T09:36:40.134Z</time>
      </trkpt>
      <trkpt lat="43.1456788" lon="-2.8243305">
        <ele>164.731</ele>
        <time>2021-04-01T09:36:40.189Z</time>
      </trkpt>
      <trkpt lat="43.1456741" lon="-2.8243301">
        <ele>164.712</ele>
        <time>2021-04-01T09:36:40.244Z</time>
      </trkpt>
      <trkpt lat="43.1456694" lon="-2.8243298">
        <ele>164.704</ele>
        <time>2021-04-01T09:36:40.299Z</time>
      </trkpt>
      <trkpt lat="43.1456647" lon="-2.8243297">
        <ele>164.695</ele>
        <time>2021-04-01T09:36:40.354Z</time>
      </trkpt>
      <trkpt lat="43.1456596" lon="-2.8243296">
        <ele>164.689</ele>
        <time>2021-04-01T09:36:40.409Z</time>
      </trkpt>
      <trkpt lat="43.1456547" lon="-2.8243296">
        <ele>164.705</ele>
        <time>2021-04-01T09:36:40.464Z</time>
      </trkpt>
      <trkpt lat="43.1456498" lon="-2.8243295">
        <ele>164.706</ele>
        <time>2021-04-01T09:36:40.519Z</time>
      </trkpt>
      <trkpt lat="43.1456446" lon="-2.8243299">
        <ele>164.736</ele>
        <time>2021-04-01T09:36:40.574Z</time>
      </trkpt>
      <trkpt lat="43.1456395" lon="-2.8243301">
        <ele>164.758</ele>
        <time>2021-04-01T09:36:40.629Z</time>
      </trkpt>
      <trkpt lat="43.1456347" lon="-2.8243301">
        <ele>164.774</ele>
        <time>2021-04-01T09:36:40.684Z</time>
      </trkpt>
      <trkpt lat="43.14563" lon="-2.82433">
        <ele>164.754</ele>
        <time>2021-04-01T09:36:40.739Z</time>
      </trkpt>
      <trkpt lat="43.1456253" lon="-2.8243301">
        <ele>164.742</ele>
        <time>2021-04-01T09:36:40.794Z</time>
      </trkpt>
      <trkpt lat="43.1456205" lon="-2.8243301">
        <ele>164.736</ele>
        <time>2021-04-01T09:36:40.849Z</time>
      </trkpt>
      <trkpt lat="43.1456156" lon="-2.8243302">
        <ele>164.752</ele>
        <time>2021-04-01T09:36:40.904Z</time>
      </trkpt>
      <trkpt lat="43.1456108" lon="-2.8243303">
        <ele>164.734</ele>
        <time>2021-04-01T09:36:40.959Z</time>
      </trkpt>
      <trkpt lat="43.1456056" lon="-2.8243306">
        <ele>164.736</ele>
        <time>2021-04-01T09:36:41.014Z</time>
      </trkpt>
      <trkpt lat="43.1456006" lon="-2.8243307">
        <ele>164.736</ele>
        <time>2021-04-01T09:36:41.066Z</time>
      </trkpt>
      <trkpt lat="43.1455955" lon="-2.8243309">
        <ele>164.754</ele>
        <time>2021-04-01T09:36:41.118Z</time>
      </trkpt>
      <trkpt lat="43.1455904" lon="-2.8243312">
        <ele>164.768</ele>
        <time>2021-04-01T09:36:41.170Z</time>
      </trkpt>
      <trkpt lat="43.1455857" lon="-2.824331">
        <ele>164.728</ele>
        <time>2021-04-01T09:36:41.222Z</time>
      </trkpt>
      <trkpt lat="43.1455805" lon="-2.8243312">
        <ele>164.746</ele>
        <time>2021-04-01T09:36:41.274Z</time>
      </trkpt>
      <trkpt lat="43.1455754" lon="-2.8243312">
        <ele>164.732</ele>
        <time>2021-04-01T09:36:41.326Z</time>
      </trkpt>
      <trkpt lat="43.1455705" lon="-2.8243311">
        <ele>164.738</ele>
        <time>2021-04-01T09:36:41.378Z</time>
      </trkpt>
      <trkpt lat="43.1455654" lon="-2.8243312">
        <ele>164.751</ele>
        <time>2021-04-01T09:36:41.430Z</time>
      </trkpt>
      <trkpt lat="43.1455604" lon="-2.824331">
        <ele>164.755</ele>
        <time>2021-04-01T09:36:41.482Z</time>
      </trkpt>
      <trkpt lat="43.1455555" lon="-2.8243314">
        <ele>164.736</ele>
        <time>2021-04-01T09:36:41.535Z</time>
      </trkpt>
      <trkpt lat="43.1455506" lon="-2.8243309">
        <ele>164.73</ele>
        <time>2021-04-01T09:36:41.587Z</time>
      </trkpt>
      <trkpt lat="43.1455458" lon="-2.8243312">
        <ele>164.713</ele>
        <time>2021-04-01T09:36:41.639Z</time>
      </trkpt>
      <trkpt lat="43.1455406" lon="-2.8243315">
        <ele>164.723</ele>
        <time>2021-04-01T09:36:41.691Z</time>
      </trkpt>
      <trkpt lat="43.1455353" lon="-2.8243321">
        <ele>164.745</ele>
        <time>2021-04-01T09:36:41.743Z</time>
      </trkpt>
      <trkpt lat="43.1455301" lon="-2.8243329">
        <ele>164.752</ele>
        <time>2021-04-01T09:36:41.795Z</time>
      </trkpt>
      <trkpt lat="43.1455251" lon="-2.8243328">
        <ele>164.757</ele>
        <time>2021-04-01T09:36:41.847Z</time>
      </trkpt>
      <trkpt lat="43.1455201" lon="-2.8243324">
        <ele>164.735</ele>
        <time>2021-04-01T09:36:41.899Z</time>
      </trkpt>
      <trkpt lat="43.145515" lon="-2.8243323">
        <ele>164.734</ele>
        <time>2021-04-01T09:36:41.951Z</time>
      </trkpt>
      <trkpt lat="43.1455099" lon="-2.8243322">
        <ele>164.72</ele>
        <time>2021-04-01T09:36:42.004Z</time>
      </trkpt>
      <trkpt lat="43.1455048" lon="-2.824332">
        <ele>164.725</ele>
        <time>2021-04-01T09:36:42.062Z</time>
      </trkpt>
      <trkpt lat="43.1454998" lon="-2.8243318">
        <ele>164.719</ele>
        <time>2021-04-01T09:36:42.120Z</time>
      </trkpt>
      <trkpt lat="43.1454949" lon="-2.8243313">
        <ele>164.674</ele>
        <time>2021-04-01T09:36:42.178Z</time>
      </trkpt>
      <trkpt lat="43.1454897" lon="-2.8243316">
        <ele>164.669</ele>
        <time>2021-04-01T09:36:42.236Z</time>
      </trkpt>
      <trkpt lat="43.1454847" lon="-2.824332">
        <ele>164.644</ele>
        <time>2021-04-01T09:36:42.294Z</time>
      </trkpt>
      <trkpt lat="43.1454796" lon="-2.8243321">
        <ele>164.606</ele>
        <time>2021-04-01T09:36:42.352Z</time>
      </trkpt>
      <trkpt lat="43.1454747" lon="-2.8243323">
        <ele>164.606</ele>
        <time>2021-04-01T09:36:42.410Z</time>
      </trkpt>
      <trkpt lat="43.1454697" lon="-2.8243327">
        <ele>164.587</ele>
        <time>2021-04-01T09:36:42.468Z</time>
      </trkpt>
      <trkpt lat="43.1454647" lon="-2.8243328">
        <ele>164.568</ele>
        <time>2021-04-01T09:36:42.526Z</time>
      </trkpt>
      <trkpt lat="43.1454599" lon="-2.8243332">
        <ele>164.563</ele>
        <time>2021-04-01T09:36:42.584Z</time>
      </trkpt>
      <trkpt lat="43.1454553" lon="-2.8243336">
        <ele>164.511</ele>
        <time>2021-04-01T09:36:42.642Z</time>
      </trkpt>
      <trkpt lat="43.1454502" lon="-2.824334">
        <ele>164.504</ele>
        <time>2021-04-01T09:36:42.700Z</time>
      </trkpt>
      <trkpt lat="43.1454451" lon="-2.8243345">
        <ele>164.515</ele>
        <time>2021-04-01T09:36:42.758Z</time>
      </trkpt>
      <trkpt lat="43.1454401" lon="-2.8243351">
        <ele>164.519</ele>
        <time>2021-04-01T09:36:42.816Z</time>
      </trkpt>
      <trkpt lat="43.1454349" lon="-2.8243357">
        <ele>164.475</ele>
        <time>2021-04-01T09:36:42.874Z</time>
      </trkpt>
      <trkpt lat="43.1454301" lon="-2.8243361">
        <ele>164.45</ele>
        <time>2021-04-01T09:36:42.932Z</time>
      </trkpt>
      <trkpt lat="43.1454251" lon="-2.8243367">
        <ele>164.435</ele>
        <time>2021-04-01T09:36:42.990Z</time>
      </trkpt>
      <trkpt lat="43.14542" lon="-2.8243372">
        <ele>164.398</ele>
        <time>2021-04-01T09:36:43.049Z</time>
      </trkpt>
      <trkpt lat="43.1454148" lon="-2.8243376">
        <ele>164.397</ele>
        <time>2021-04-01T09:36:43.104Z</time>
      </trkpt>
      <trkpt lat="43.1454097" lon="-2.8243379">
        <ele>164.382</ele>
        <time>2021-04-01T09:36:43.159Z</time>
      </trkpt>
      <trkpt lat="43.1454046" lon="-2.8243385">
        <ele>164.349</ele>
        <time>2021-04-01T09:36:43.214Z</time>
      </trkpt>
      <trkpt lat="43.1453997" lon="-2.8243393">
        <ele>164.309</ele>
        <time>2021-04-01T09:36:43.269Z</time>
      </trkpt>
      <trkpt lat="43.1453944" lon="-2.82434">
        <ele>164.309</ele>
        <time>2021-04-01T09:36:43.324Z</time>
      </trkpt>
      <trkpt lat="43.1453893" lon="-2.8243407">
        <ele>164.307</ele>
        <time>2021-04-01T09:36:43.379Z</time>
      </trkpt>
      <trkpt lat="43.145384" lon="-2.8243415">
        <ele>164.336</ele>
        <time>2021-04-01T09:36:43.434Z</time>
      </trkpt>
      <trkpt lat="43.1453788" lon="-2.8243425">
        <ele>164.331</ele>
        <time>2021-04-01T09:36:43.489Z</time>
      </trkpt>
      <trkpt lat="43.1453735" lon="-2.8243435">
        <ele>164.312</ele>
        <time>2021-04-01T09:36:43.544Z</time>
      </trkpt>
      <trkpt lat="43.1453686" lon="-2.8243442">
        <ele>164.278</ele>
        <time>2021-04-01T09:36:43.599Z</time>
      </trkpt>
      <trkpt lat="43.1453637" lon="-2.8243454">
        <ele>164.262</ele>
        <time>2021-04-01T09:36:43.654Z</time>
      </trkpt>
      <trkpt lat="43.1453587" lon="-2.8243464">
        <ele>164.273</ele>
        <time>2021-04-01T09:36:43.709Z</time>
      </trkpt>
      <trkpt lat="43.1453538" lon="-2.8243476">
        <ele>164.25</ele>
        <time>2021-04-01T09:36:43.764Z</time>
      </trkpt>
      <trkpt lat="43.1453487" lon="-2.8243485">
        <ele>164.233</ele>
        <time>2021-04-01T09:36:43.819Z</time>
      </trkpt>
      <trkpt lat="43.1453437" lon="-2.8243495">
        <ele>164.204</ele>
        <time>2021-04-01T09:36:43.874Z</time>
      </trkpt>
      <trkpt lat="43.1453389" lon="-2.8243501">
        <ele>164.133</ele>
        <time>2021-04-01T09:36:43.929Z</time>
      </trkpt>
      <trkpt lat="43.1453343" lon="-2.8243516">
        <ele>164.129</ele>
        <time>2021-04-01T09:36:43.984Z</time>
      </trkpt>
      <trkpt lat="43.1453291" lon="-2.8243528">
        <ele>164.122</ele>
        <time>2021-04-01T09:36:44.039Z</time>
      </trkpt>
      <trkpt lat="43.1453239" lon="-2.8243538">
        <ele>164.137</ele>
        <time>2021-04-01T09:36:44.091Z</time>
      </trkpt>
      <trkpt lat="43.145319" lon="-2.8243551">
        <ele>164.14</ele>
        <time>2021-04-01T09:36:44.143Z</time>
      </trkpt>
      <trkpt lat="43.1453139" lon="-2.8243563">
        <ele>164.179</ele>
        <time>2021-04-01T09:36:44.195Z</time>
      </trkpt>
      <trkpt lat="43.1453087" lon="-2.8243575">
        <ele>164.136</ele>
        <time>2021-04-01T09:36:44.247Z</time>
      </trkpt>
      <trkpt lat="43.1453037" lon="-2.824359">
        <ele>164.156</ele>
        <time>2021-04-01T09:36:44.299Z</time>
      </trkpt>
      <trkpt lat="43.1452986" lon="-2.8243605">
        <ele>164.142</ele>
        <time>2021-04-01T09:36:44.351Z</time>
      </trkpt>
      <trkpt lat="43.1452937" lon="-2.824362">
        <ele>164.05</ele>
        <time>2021-04-01T09:36:44.403Z</time>
      </trkpt>
      <trkpt lat="43.1452888" lon="-2.8243633">
        <ele>164.007</ele>
        <time>2021-04-01T09:36:44.455Z</time>
      </trkpt>
      <trkpt lat="43.1452836" lon="-2.8243648">
        <ele>164.003</ele>
        <time>2021-04-01T09:36:44.507Z</time>
      </trkpt>
      <trkpt lat="43.1452783" lon="-2.8243661">
        <ele>164.045</ele>
        <time>2021-04-01T09:36:44.560Z</time>
      </trkpt>
      <trkpt lat="43.1452735" lon="-2.8243676">
        <ele>164.013</ele>
        <time>2021-04-01T09:36:44.612Z</time>
      </trkpt>
      <trkpt lat="43.1452685" lon="-2.8243693">
        <ele>163.999</ele>
        <time>2021-04-01T09:36:44.664Z</time>
      </trkpt>
      <trkpt lat="43.1452636" lon="-2.8243711">
        <ele>163.964</ele>
        <time>2021-04-01T09:36:44.716Z</time>
      </trkpt>
      <trkpt lat="43.1452588" lon="-2.824373">
        <ele>163.934</ele>
        <time>2021-04-01T09:36:44.768Z</time>
      </trkpt>
      <trkpt lat="43.145254" lon="-2.8243746">
        <ele>163.906</ele>
        <time>2021-04-01T09:36:44.820Z</time>
      </trkpt>
      <trkpt lat="43.1452492" lon="-2.8243763">
        <ele>163.863</ele>
        <time>2021-04-01T09:36:44.872Z</time>
      </trkpt>
      <trkpt lat="43.1452444" lon="-2.8243785">
        <ele>163.799</ele>
        <time>2021-04-01T09:36:44.924Z</time>
      </trkpt>
      <trkpt lat="43.1452398" lon="-2.8243805">
        <ele>163.759</ele>
        <time>2021-04-01T09:36:44.976Z</time>
      </trkpt>
      <trkpt lat="43.145235" lon="-2.8243821">
        <ele>163.728</ele>
        <time>2021-04-01T09:36:45.029Z</time>
      </trkpt>
      <trkpt lat="43.1452303" lon="-2.824384">
        <ele>163.668</ele>
        <time>2021-04-01T09:36:45.087Z</time>
      </trkpt>
      <trkpt lat="43.1452255" lon="-2.8243858">
        <ele>163.628</ele>
        <time>2021-04-01T09:36:45.145Z</time>
      </trkpt>
      <trkpt lat="43.1452212" lon="-2.8243874">
        <ele>163.577</ele>
        <time>2021-04-01T09:36:45.203Z</time>
      </trkpt>
      <trkpt lat="43.1452163" lon="-2.8243891">
        <ele>163.576</ele>
        <time>2021-04-01T09:36:45.261Z</time>
      </trkpt>
      <trkpt lat="43.1452114" lon="-2.8243909">
        <ele>163.522</ele>
        <time>2021-04-01T09:36:45.319Z</time>
      </trkpt>
      <trkpt lat="43.1452067" lon="-2.8243929">
        <ele>163.472</ele>
        <time>2021-04-01T09:36:45.377Z</time>
      </trkpt>
      <trkpt lat="43.1452021" lon="-2.8243953">
        <ele>163.426</ele>
        <time>2021-04-01T09:36:45.435Z</time>
      </trkpt>
      <trkpt lat="43.1451974" lon="-2.8243975">
        <ele>163.378</ele>
        <time>2021-04-01T09:36:45.493Z</time>
      </trkpt>
      <trkpt lat="43.1451928" lon="-2.8243994">
        <ele>163.348</ele>
        <time>2021-04-01T09:36:45.551Z</time>
      </trkpt>
      <trkpt lat="43.1451879" lon="-2.8244012">
        <ele>163.286</ele>
        <time>2021-04-01T09:36:45.609Z</time>
      </trkpt>
      <trkpt lat="43.1451832" lon="-2.8244032">
        <ele>163.218</ele>
        <time>2021-04-01T09:36:45.667Z</time>
      </trkpt>
      <trkpt lat="43.1451783" lon="-2.8244054">
        <ele>163.185</ele>
        <time>2021-04-01T09:36:45.725Z</time>
      </trkpt>
      <trkpt lat="43.1451734" lon="-2.8244075">
        <ele>163.15</ele>
        <time>2021-04-01T09:36:45.783Z</time>
      </trkpt>
      <trkpt lat="43.1451686" lon="-2.8244096">
        <ele>163.104</ele>
        <time>2021-04-01T09:36:45.841Z</time>
      </trkpt>
      <trkpt lat="43.1451638" lon="-2.8244118">
        <ele>163.073</ele>
        <time>2021-04-01T09:36:45.899Z</time>
      </trkpt>
      <trkpt lat="43.145159" lon="-2.8244143">
        <ele>163.038</ele>
        <time>2021-04-01T09:36:45.957Z</time>
      </trkpt>
      <trkpt lat="43.1451543" lon="-2.8244168">
        <ele>162.964</ele>
        <time>2021-04-01T09:36:46.015Z</time>
      </trkpt>
      <trkpt lat="43.1451494" lon="-2.8244194">
        <ele>162.913</ele>
        <time>2021-04-01T09:36:46.074Z</time>
      </trkpt>
      <trkpt lat="43.1451445" lon="-2.8244216">
        <ele>162.864</ele>
        <time>2021-04-01T09:36:46.129Z</time>
      </trkpt>
      <trkpt lat="43.1451397" lon="-2.8244239">
        <ele>162.827</ele>
        <time>2021-04-01T09:36:46.184Z</time>
      </trkpt>
      <trkpt lat="43.1451347" lon="-2.8244265">
        <ele>162.782</ele>
        <time>2021-04-01T09:36:46.239Z</time>
      </trkpt>
      <trkpt lat="43.1451298" lon="-2.8244289">
        <ele>162.72</ele>
        <time>2021-04-01T09:36:46.294Z</time>
      </trkpt>
      <trkpt lat="43.1451246" lon="-2.8244316">
        <ele>162.681</ele>
        <time>2021-04-01T09:36:46.349Z</time>
      </trkpt>
      <trkpt lat="43.1451198" lon="-2.824434">
        <ele>162.641</ele>
        <time>2021-04-01T09:36:46.404Z</time>
      </trkpt>
      <trkpt lat="43.1451153" lon="-2.8244368">
        <ele>162.607</ele>
        <time>2021-04-01T09:36:46.459Z</time>
      </trkpt>
      <trkpt lat="43.1451104" lon="-2.8244395">
        <ele>162.562</ele>
        <time>2021-04-01T09:36:46.514Z</time>
      </trkpt>
      <trkpt lat="43.1451056" lon="-2.8244421">
        <ele>162.514</ele>
        <time>2021-04-01T09:36:46.569Z</time>
      </trkpt>
      <trkpt lat="43.1451006" lon="-2.8244449">
        <ele>162.479</ele>
        <time>2021-04-01T09:36:46.624Z</time>
      </trkpt>
      <trkpt lat="43.1450957" lon="-2.8244477">
        <ele>162.465</ele>
        <time>2021-04-01T09:36:46.679Z</time>
      </trkpt>
      <trkpt lat="43.145091" lon="-2.8244505">
        <ele>162.457</ele>
        <time>2021-04-01T09:36:46.734Z</time>
      </trkpt>
      <trkpt lat="43.145086" lon="-2.8244533">
        <ele>162.408</ele>
        <time>2021-04-01T09:36:46.789Z</time>
      </trkpt>
      <trkpt lat="43.1450809" lon="-2.8244562">
        <ele>162.373</ele>
        <time>2021-04-01T09:36:46.844Z</time>
      </trkpt>
      <trkpt lat="43.145076" lon="-2.8244596">
        <ele>162.351</ele>
        <time>2021-04-01T09:36:46.899Z</time>
      </trkpt>
      <trkpt lat="43.1450722" lon="-2.8244637">
        <ele>162.331</ele>
        <time>2021-04-01T09:36:46.954Z</time>
      </trkpt>
      <trkpt lat="43.1450675" lon="-2.8244671">
        <ele>162.366</ele>
        <time>2021-04-01T09:36:47.009Z</time>
      </trkpt>
      <trkpt lat="43.1450627" lon="-2.8244703">
        <ele>162.325</ele>
        <time>2021-04-01T09:36:47.064Z</time>
      </trkpt>
      <trkpt lat="43.1450577" lon="-2.8244729">
        <ele>162.265</ele>
        <time>2021-04-01T09:36:47.119Z</time>
      </trkpt>
      <trkpt lat="43.1450526" lon="-2.8244759">
        <ele>162.225</ele>
        <time>2021-04-01T09:36:47.174Z</time>
      </trkpt>
      <trkpt lat="43.145048" lon="-2.8244793">
        <ele>162.244</ele>
        <time>2021-04-01T09:36:47.229Z</time>
      </trkpt>
      <trkpt lat="43.1450443" lon="-2.8244832">
        <ele>162.177</ele>
        <time>2021-04-01T09:36:47.284Z</time>
      </trkpt>
      <trkpt lat="43.1450396" lon="-2.8244867">
        <ele>162.155</ele>
        <time>2021-04-01T09:36:47.339Z</time>
      </trkpt>
      <trkpt lat="43.1450349" lon="-2.8244901">
        <ele>162.118</ele>
        <time>2021-04-01T09:36:47.394Z</time>
      </trkpt>
      <trkpt lat="43.1450308" lon="-2.8244937">
        <ele>162.103</ele>
        <time>2021-04-01T09:36:47.449Z</time>
      </trkpt>
      <trkpt lat="43.1450262" lon="-2.8244971">
        <ele>162.048</ele>
        <time>2021-04-01T09:36:47.504Z</time>
      </trkpt>
      <trkpt lat="43.1450217" lon="-2.8245004">
        <ele>162.024</ele>
        <time>2021-04-01T09:36:47.559Z</time>
      </trkpt>
      <trkpt lat="43.1450173" lon="-2.824504">
        <ele>161.996</ele>
        <time>2021-04-01T09:36:47.614Z</time>
      </trkpt>
      <trkpt lat="43.1450129" lon="-2.8245077">
        <ele>161.977</ele>
        <time>2021-04-01T09:36:47.669Z</time>
      </trkpt>
      <trkpt lat="43.1450088" lon="-2.8245113">
        <ele>161.891</ele>
        <time>2021-04-01T09:36:47.724Z</time>
      </trkpt>
      <trkpt lat="43.1450044" lon="-2.8245149">
        <ele>161.843</ele>
        <time>2021-04-01T09:36:47.779Z</time>
      </trkpt>
      <trkpt lat="43.1450002" lon="-2.8245187">
        <ele>161.856</ele>
        <time>2021-04-01T09:36:47.834Z</time>
      </trkpt>
      <trkpt lat="43.1449958" lon="-2.8245227">
        <ele>161.818</ele>
        <time>2021-04-01T09:36:47.889Z</time>
      </trkpt>
      <trkpt lat="43.1449916" lon="-2.8245266">
        <ele>161.792</ele>
        <time>2021-04-01T09:36:47.944Z</time>
      </trkpt>
      <trkpt lat="43.1449873" lon="-2.8245307">
        <ele>161.766</ele>
        <time>2021-04-01T09:36:47.999Z</time>
      </trkpt>
      <trkpt lat="43.1449832" lon="-2.8245351">
        <ele>161.739</ele>
        <time>2021-04-01T09:36:48.054Z</time>
      </trkpt>
      <trkpt lat="43.144979" lon="-2.8245388">
        <ele>161.712</ele>
        <time>2021-04-01T09:36:48.106Z</time>
      </trkpt>
      <trkpt lat="43.1449748" lon="-2.8245425">
        <ele>161.641</ele>
        <time>2021-04-01T09:36:48.158Z</time>
      </trkpt>
      <trkpt lat="43.1449704" lon="-2.8245467">
        <ele>161.647</ele>
        <time>2021-04-01T09:36:48.210Z</time>
      </trkpt>
      <trkpt lat="43.1449664" lon="-2.8245508">
        <ele>161.6</ele>
        <time>2021-04-01T09:36:48.262Z</time>
      </trkpt>
      <trkpt lat="43.1449624" lon="-2.8245551">
        <ele>161.565</ele>
        <time>2021-04-01T09:36:48.314Z</time>
      </trkpt>
      <trkpt lat="43.1449583" lon="-2.8245594">
        <ele>161.572</ele>
        <time>2021-04-01T09:36:48.366Z</time>
      </trkpt>
      <trkpt lat="43.1449544" lon="-2.8245639">
        <ele>161.556</ele>
        <time>2021-04-01T09:36:48.418Z</time>
      </trkpt>
      <trkpt lat="43.1449504" lon="-2.8245682">
        <ele>161.498</ele>
        <time>2021-04-01T09:36:48.470Z</time>
      </trkpt>
      <trkpt lat="43.1449466" lon="-2.8245724">
        <ele>161.444</ele>
        <time>2021-04-01T09:36:48.522Z</time>
      </trkpt>
      <trkpt lat="43.1449426" lon="-2.8245768">
        <ele>161.4</ele>
        <time>2021-04-01T09:36:48.575Z</time>
      </trkpt>
      <trkpt lat="43.144939" lon="-2.8245815">
        <ele>161.402</ele>
        <time>2021-04-01T09:36:48.627Z</time>
      </trkpt>
      <trkpt lat="43.1449353" lon="-2.8245858">
        <ele>161.35</ele>
        <time>2021-04-01T09:36:48.679Z</time>
      </trkpt>
      <trkpt lat="43.1449312" lon="-2.8245902">
        <ele>161.299</ele>
        <time>2021-04-01T09:36:48.731Z</time>
      </trkpt>
      <trkpt lat="43.1449273" lon="-2.8245949">
        <ele>161.3</ele>
        <time>2021-04-01T09:36:48.783Z</time>
      </trkpt>
      <trkpt lat="43.1449235" lon="-2.8245999">
        <ele>161.312</ele>
        <time>2021-04-01T09:36:48.835Z</time>
      </trkpt>
      <trkpt lat="43.1449192" lon="-2.8246046">
        <ele>161.322</ele>
        <time>2021-04-01T09:36:48.887Z</time>
      </trkpt>
      <trkpt lat="43.1449153" lon="-2.8246088">
        <ele>161.259</ele>
        <time>2021-04-01T09:36:48.939Z</time>
      </trkpt>
      <trkpt lat="43.144911" lon="-2.8246134">
        <ele>161.24</ele>
        <time>2021-04-01T09:36:48.991Z</time>
      </trkpt>
      <trkpt lat="43.1449071" lon="-2.8246179">
        <ele>161.225</ele>
        <time>2021-04-01T09:36:49.044Z</time>
      </trkpt>
      <trkpt lat="43.1449032" lon="-2.8246226">
        <ele>161.221</ele>
        <time>2021-04-01T09:36:49.105Z</time>
      </trkpt>
      <trkpt lat="43.1448991" lon="-2.824627">
        <ele>161.121</ele>
        <time>2021-04-01T09:36:49.166Z</time>
      </trkpt>
      <trkpt lat="43.1448953" lon="-2.8246313">
        <ele>161.049</ele>
        <time>2021-04-01T09:36:49.228Z</time>
      </trkpt>
      <trkpt lat="43.1448913" lon="-2.8246363">
        <ele>161.109</ele>
        <time>2021-04-01T09:36:49.289Z</time>
      </trkpt>
      <trkpt lat="43.1448874" lon="-2.8246413">
        <ele>161.132</ele>
        <time>2021-04-01T09:36:49.351Z</time>
      </trkpt>
      <trkpt lat="43.1448834" lon="-2.8246461">
        <ele>161.119</ele>
        <time>2021-04-01T09:36:49.412Z</time>
      </trkpt>
      <trkpt lat="43.1448795" lon="-2.8246511">
        <ele>161.154</ele>
        <time>2021-04-01T09:36:49.474Z</time>
      </trkpt>
      <trkpt lat="43.1448757" lon="-2.824656">
        <ele>161.158</ele>
        <time>2021-04-01T09:36:49.535Z</time>
      </trkpt>
      <trkpt lat="43.1448718" lon="-2.8246605">
        <ele>161.118</ele>
        <time>2021-04-01T09:36:49.597Z</time>
      </trkpt>
      <trkpt lat="43.144868" lon="-2.8246654">
        <ele>161.104</ele>
        <time>2021-04-01T09:36:49.658Z</time>
      </trkpt>
      <trkpt lat="43.1448643" lon="-2.8246703">
        <ele>161.106</ele>
        <time>2021-04-01T09:36:49.720Z</time>
      </trkpt>
      <trkpt lat="43.1448608" lon="-2.8246752">
        <ele>161.074</ele>
        <time>2021-04-01T09:36:49.781Z</time>
      </trkpt>
      <trkpt lat="43.144857" lon="-2.8246798">
        <ele>160.999</ele>
        <time>2021-04-01T09:36:49.843Z</time>
      </trkpt>
      <trkpt lat="43.1448531" lon="-2.8246847">
        <ele>160.966</ele>
        <time>2021-04-01T09:36:49.904Z</time>
      </trkpt>
      <trkpt lat="43.1448496" lon="-2.8246895">
        <ele>160.918</ele>
        <time>2021-04-01T09:36:49.966Z</time>
      </trkpt>
      <trkpt lat="43.1448458" lon="-2.8246943">
        <ele>160.892</ele>
        <time>2021-04-01T09:36:50.027Z</time>
      </trkpt>
      <trkpt lat="43.1448422" lon="-2.8246992">
        <ele>160.859</ele>
        <time>2021-04-01T09:36:50.089Z</time>
      </trkpt>
      <trkpt lat="43.1448383" lon="-2.8247036">
        <ele>160.759</ele>
        <time>2021-04-01T09:36:50.141Z</time>
      </trkpt>
      <trkpt lat="43.1448344" lon="-2.8247082">
        <ele>160.693</ele>
        <time>2021-04-01T09:36:50.193Z</time>
      </trkpt>
      <trkpt lat="43.1448305" lon="-2.8247132">
        <ele>160.645</ele>
        <time>2021-04-01T09:36:50.245Z</time>
      </trkpt>
      <trkpt lat="43.1448269" lon="-2.8247184">
        <ele>160.663</ele>
        <time>2021-04-01T09:36:50.297Z</time>
      </trkpt>
      <trkpt lat="43.1448234" lon="-2.8247234">
        <ele>160.625</ele>
        <time>2021-04-01T09:36:50.349Z</time>
      </trkpt>
      <trkpt lat="43.1448196" lon="-2.824728">
        <ele>160.525</ele>
        <time>2021-04-01T09:36:50.401Z</time>
      </trkpt>
      <trkpt lat="43.1448158" lon="-2.8247332">
        <ele>160.492</ele>
        <time>2021-04-01T09:36:50.453Z</time>
      </trkpt>
      <trkpt lat="43.1448122" lon="-2.8247385">
        <ele>160.502</ele>
        <time>2021-04-01T09:36:50.505Z</time>
      </trkpt>
      <trkpt lat="43.1448089" lon="-2.824744">
        <ele>160.521</ele>
        <time>2021-04-01T09:36:50.557Z</time>
      </trkpt>
      <trkpt lat="43.1448051" lon="-2.8247489">
        <ele>160.509</ele>
        <time>2021-04-01T09:36:50.610Z</time>
      </trkpt>
      <trkpt lat="43.1448013" lon="-2.8247545">
        <ele>160.542</ele>
        <time>2021-04-01T09:36:50.662Z</time>
      </trkpt>
      <trkpt lat="43.1447977" lon="-2.8247595">
        <ele>160.493</ele>
        <time>2021-04-01T09:36:50.714Z</time>
      </trkpt>
      <trkpt lat="43.1447941" lon="-2.8247647">
        <ele>160.466</ele>
        <time>2021-04-01T09:36:50.766Z</time>
      </trkpt>
      <trkpt lat="43.1447906" lon="-2.8247701">
        <ele>160.461</ele>
        <time>2021-04-01T09:36:50.818Z</time>
      </trkpt>
      <trkpt lat="43.1447871" lon="-2.8247752">
        <ele>160.419</ele>
        <time>2021-04-01T09:36:50.870Z</time>
      </trkpt>
      <trkpt lat="43.1447835" lon="-2.8247807">
        <ele>160.399</ele>
        <time>2021-04-01T09:36:50.922Z</time>
      </trkpt>
      <trkpt lat="43.1447799" lon="-2.8247859">
        <ele>160.351</ele>
        <time>2021-04-01T09:36:50.974Z</time>
      </trkpt>
      <trkpt lat="43.1447762" lon="-2.824791">
        <ele>160.306</ele>
        <time>2021-04-01T09:36:51.026Z</time>
      </trkpt>
      <trkpt lat="43.1447729" lon="-2.8247964">
        <ele>160.273</ele>
        <time>2021-04-01T09:36:51.079Z</time>
      </trkpt>
      <trkpt lat="43.1447694" lon="-2.8248019">
        <ele>160.263</ele>
        <time>2021-04-01T09:36:51.130Z</time>
      </trkpt>
      <trkpt lat="43.1447655" lon="-2.8248077">
        <ele>160.276</ele>
        <time>2021-04-01T09:36:51.182Z</time>
      </trkpt>
      <trkpt lat="43.144762" lon="-2.8248126">
        <ele>160.182</ele>
        <time>2021-04-01T09:36:51.234Z</time>
      </trkpt>
      <trkpt lat="43.1447586" lon="-2.8248179">
        <ele>160.141</ele>
        <time>2021-04-01T09:36:51.286Z</time>
      </trkpt>
      <trkpt lat="43.1447553" lon="-2.8248229">
        <ele>160.088</ele>
        <time>2021-04-01T09:36:51.338Z</time>
      </trkpt>
      <trkpt lat="43.1447518" lon="-2.8248286">
        <ele>160.087</ele>
        <time>2021-04-01T09:36:51.390Z</time>
      </trkpt>
      <trkpt lat="43.1447484" lon="-2.8248344">
        <ele>160.059</ele>
        <time>2021-04-01T09:36:51.442Z</time>
      </trkpt>
      <trkpt lat="43.1447449" lon="-2.82484">
        <ele>160.017</ele>
        <time>2021-04-01T09:36:51.494Z</time>
      </trkpt>
      <trkpt lat="43.1447418" lon="-2.8248453">
        <ele>159.947</ele>
        <time>2021-04-01T09:36:51.546Z</time>
      </trkpt>
      <trkpt lat="43.1447385" lon="-2.8248505">
        <ele>159.872</ele>
        <time>2021-04-01T09:36:51.598Z</time>
      </trkpt>
      <trkpt lat="43.1447351" lon="-2.8248563">
        <ele>159.857</ele>
        <time>2021-04-01T09:36:51.650Z</time>
      </trkpt>
      <trkpt lat="43.1447317" lon="-2.8248624">
        <ele>159.88</ele>
        <time>2021-04-01T09:36:51.702Z</time>
      </trkpt>
      <trkpt lat="43.1447284" lon="-2.8248673">
        <ele>159.807</ele>
        <time>2021-04-01T09:36:51.754Z</time>
      </trkpt>
      <trkpt lat="43.1447252" lon="-2.8248731">
        <ele>159.767</ele>
        <time>2021-04-01T09:36:51.806Z</time>
      </trkpt>
      <trkpt lat="43.144722" lon="-2.8248787">
        <ele>159.719</ele>
        <time>2021-04-01T09:36:51.858Z</time>
      </trkpt>
      <trkpt lat="43.1447186" lon="-2.8248842">
        <ele>159.685</ele>
        <time>2021-04-01T09:36:51.910Z</time>
      </trkpt>
      <trkpt lat="43.1447153" lon="-2.82489">
        <ele>159.68</ele>
        <time>2021-04-01T09:36:51.962Z</time>
      </trkpt>
      <trkpt lat="43.1447122" lon="-2.8248959">
        <ele>159.652</ele>
        <time>2021-04-01T09:36:52.014Z</time>
      </trkpt>
      <trkpt lat="43.1447089" lon="-2.8249015">
        <ele>159.591</ele>
        <time>2021-04-01T09:36:52.072Z</time>
      </trkpt>
      <trkpt lat="43.1447057" lon="-2.8249073">
        <ele>159.566</ele>
        <time>2021-04-01T09:36:52.130Z</time>
      </trkpt>
      <trkpt lat="43.1447026" lon="-2.824913">
        <ele>159.527</ele>
        <time>2021-04-01T09:36:52.188Z</time>
      </trkpt>
      <trkpt lat="43.1446994" lon="-2.8249186">
        <ele>159.465</ele>
        <time>2021-04-01T09:36:52.246Z</time>
      </trkpt>
      <trkpt lat="43.1446959" lon="-2.8249241">
        <ele>159.398</ele>
        <time>2021-04-01T09:36:52.304Z</time>
      </trkpt>
      <trkpt lat="43.1446926" lon="-2.82493">
        <ele>159.369</ele>
        <time>2021-04-01T09:36:52.362Z</time>
      </trkpt>
      <trkpt lat="43.1446898" lon="-2.8249367">
        <ele>159.453</ele>
        <time>2021-04-01T09:36:52.420Z</time>
      </trkpt>
      <trkpt lat="43.1446868" lon="-2.8249426">
        <ele>159.438</ele>
        <time>2021-04-01T09:36:52.478Z</time>
      </trkpt>
      <trkpt lat="43.1446836" lon="-2.8249479">
        <ele>159.341</ele>
        <time>2021-04-01T09:36:52.536Z</time>
      </trkpt>
      <trkpt lat="43.1446804" lon="-2.8249533">
        <ele>159.242</ele>
        <time>2021-04-01T09:36:52.594Z</time>
      </trkpt>
      <trkpt lat="43.1446773" lon="-2.8249598">
        <ele>159.28</ele>
        <time>2021-04-01T09:36:52.652Z</time>
      </trkpt>
      <trkpt lat="43.144674" lon="-2.8249659">
        <ele>159.276</ele>
        <time>2021-04-01T09:36:52.710Z</time>
      </trkpt>
      <trkpt lat="43.1446708" lon="-2.8249715">
        <ele>159.214</ele>
        <time>2021-04-01T09:36:52.768Z</time>
      </trkpt>
      <trkpt lat="43.144668" lon="-2.8249774">
        <ele>159.183</ele>
        <time>2021-04-01T09:36:52.826Z</time>
      </trkpt>
      <trkpt lat="43.1446651" lon="-2.8249835">
        <ele>159.161</ele>
        <time>2021-04-01T09:36:52.884Z</time>
      </trkpt>
      <trkpt lat="43.144662" lon="-2.8249893">
        <ele>159.121</ele>
        <time>2021-04-01T09:36:52.942Z</time>
      </trkpt>
      <trkpt lat="43.1446589" lon="-2.8249952">
        <ele>159.085</ele>
        <time>2021-04-01T09:36:53.000Z</time>
      </trkpt>
      <trkpt lat="43.144656" lon="-2.8250011">
        <ele>159.051</ele>
        <time>2021-04-01T09:36:53.059Z</time>
      </trkpt>
      <trkpt lat="43.1446531" lon="-2.8250073">
        <ele>159.044</ele>
        <time>2021-04-01T09:36:53.114Z</time>
      </trkpt>
      <trkpt lat="43.1446501" lon="-2.8250132">
        <ele>158.993</ele>
        <time>2021-04-01T09:36:53.169Z</time>
      </trkpt>
      <trkpt lat="43.1446472" lon="-2.8250191">
        <ele>158.942</ele>
        <time>2021-04-01T09:36:53.224Z</time>
      </trkpt>
      <trkpt lat="43.1446442" lon="-2.8250247">
        <ele>158.891</ele>
        <time>2021-04-01T09:36:53.279Z</time>
      </trkpt>
      <trkpt lat="43.1446412" lon="-2.8250308">
        <ele>158.869</ele>
        <time>2021-04-01T09:36:53.334Z</time>
      </trkpt>
      <trkpt lat="43.1446382" lon="-2.8250371">
        <ele>158.867</ele>
        <time>2021-04-01T09:36:53.389Z</time>
      </trkpt>
      <trkpt lat="43.1446353" lon="-2.8250435">
        <ele>158.863</ele>
        <time>2021-04-01T09:36:53.444Z</time>
      </trkpt>
      <trkpt lat="43.1446324" lon="-2.8250494">
        <ele>158.818</ele>
        <time>2021-04-01T09:36:53.499Z</time>
      </trkpt>
      <trkpt lat="43.1446296" lon="-2.8250558">
        <ele>158.816</ele>
        <time>2021-04-01T09:36:53.554Z</time>
      </trkpt>
      <trkpt lat="43.1446267" lon="-2.8250621">
        <ele>158.804</ele>
        <time>2021-04-01T09:36:53.609Z</time>
      </trkpt>
      <trkpt lat="43.144624" lon="-2.8250684">
        <ele>158.789</ele>
        <time>2021-04-01T09:36:53.664Z</time>
      </trkpt>
      <trkpt lat="43.1446212" lon="-2.8250744">
        <ele>158.735</ele>
        <time>2021-04-01T09:36:53.719Z</time>
      </trkpt>
      <trkpt lat="43.1446182" lon="-2.8250804">
        <ele>158.701</ele>
        <time>2021-04-01T09:36:53.774Z</time>
      </trkpt>
      <trkpt lat="43.1446153" lon="-2.825087">
        <ele>158.721</ele>
        <time>2021-04-01T09:36:53.829Z</time>
      </trkpt>
      <trkpt lat="43.1446125" lon="-2.8250938">
        <ele>158.768</ele>
        <time>2021-04-01T09:36:53.884Z</time>
      </trkpt>
      <trkpt lat="43.1446098" lon="-2.8251004">
        <ele>158.758</ele>
        <time>2021-04-01T09:36:53.939Z</time>
      </trkpt>
      <trkpt lat="43.144607" lon="-2.8251066">
        <ele>158.727</ele>
        <time>2021-04-01T09:36:53.994Z</time>
      </trkpt>
      <trkpt lat="43.1446043" lon="-2.8251129">
        <ele>158.701</ele>
        <time>2021-04-01T09:36:54.049Z</time>
      </trkpt>
      <trkpt lat="43.1446017" lon="-2.8251194">
        <ele>158.711</ele>
        <time>2021-04-01T09:36:54.104Z</time>
      </trkpt>
      <trkpt lat="43.144599" lon="-2.8251255">
        <ele>158.676</ele>
        <time>2021-04-01T09:36:54.159Z</time>
      </trkpt>
      <trkpt lat="43.1445962" lon="-2.8251317">
        <ele>158.671</ele>
        <time>2021-04-01T09:36:54.214Z</time>
      </trkpt>
      <trkpt lat="43.1445936" lon="-2.8251379">
        <ele>158.631</ele>
        <time>2021-04-01T09:36:54.269Z</time>
      </trkpt>
      <trkpt lat="43.1445907" lon="-2.8251443">
        <ele>158.619</ele>
        <time>2021-04-01T09:36:54.324Z</time>
      </trkpt>
      <trkpt lat="43.1445878" lon="-2.8251504">
        <ele>158.571</ele>
        <time>2021-04-01T09:36:54.379Z</time>
      </trkpt>
      <trkpt lat="43.144585" lon="-2.8251565">
        <ele>158.576</ele>
        <time>2021-04-01T09:36:54.434Z</time>
      </trkpt>
      <trkpt lat="43.1445825" lon="-2.8251631">
        <ele>158.543</ele>
        <time>2021-04-01T09:36:54.489Z</time>
      </trkpt>
      <trkpt lat="43.14458" lon="-2.8251698">
        <ele>158.549</ele>
        <time>2021-04-01T09:36:54.544Z</time>
      </trkpt>
      <trkpt lat="43.1445775" lon="-2.8251763">
        <ele>158.544</ele>
        <time>2021-04-01T09:36:54.599Z</time>
      </trkpt>
      <trkpt lat="43.1445748" lon="-2.8251825">
        <ele>158.497</ele>
        <time>2021-04-01T09:36:54.654Z</time>
      </trkpt>
      <trkpt lat="43.1445721" lon="-2.8251885">
        <ele>158.449</ele>
        <time>2021-04-01T09:36:54.709Z</time>
      </trkpt>
      <trkpt lat="43.1445695" lon="-2.825195">
        <ele>158.413</ele>
        <time>2021-04-01T09:36:54.764Z</time>
      </trkpt>
      <trkpt lat="43.144567" lon="-2.8252015">
        <ele>158.405</ele>
        <time>2021-04-01T09:36:54.819Z</time>
      </trkpt>
      <trkpt lat="43.1445645" lon="-2.8252078">
        <ele>158.387</ele>
        <time>2021-04-01T09:36:54.874Z</time>
      </trkpt>
      <trkpt lat="43.144562" lon="-2.8252144">
        <ele>158.412</ele>
        <time>2021-04-01T09:36:54.929Z</time>
      </trkpt>
      <trkpt lat="43.1445595" lon="-2.825221">
        <ele>158.411</ele>
        <time>2021-04-01T09:36:54.984Z</time>
      </trkpt>
      <trkpt lat="43.1445569" lon="-2.8252275">
        <ele>158.368</ele>
        <time>2021-04-01T09:36:55.039Z</time>
      </trkpt>
      <trkpt lat="43.1445543" lon="-2.8252338">
        <ele>158.352</ele>
        <time>2021-04-01T09:36:55.091Z</time>
      </trkpt>
      <trkpt lat="43.1445518" lon="-2.8252403">
        <ele>158.336</ele>
        <time>2021-04-01T09:36:55.143Z</time>
      </trkpt>
      <trkpt lat="43.1445492" lon="-2.8252469">
        <ele>158.34</ele>
        <time>2021-04-01T09:36:55.195Z</time>
      </trkpt>
      <trkpt lat="43.1445463" lon="-2.8252538">
        <ele>158.385</ele>
        <time>2021-04-01T09:36:55.247Z</time>
      </trkpt>
      <trkpt lat="43.1445433" lon="-2.8252602">
        <ele>158.414</ele>
        <time>2021-04-01T09:36:55.299Z</time>
      </trkpt>
      <trkpt lat="43.1445404" lon="-2.8252665">
        <ele>158.416</ele>
        <time>2021-04-01T09:36:55.351Z</time>
      </trkpt>
      <trkpt lat="43.1445377" lon="-2.8252727">
        <ele>158.376</ele>
        <time>2021-04-01T09:36:55.403Z</time>
      </trkpt>
      <trkpt lat="43.1445348" lon="-2.8252794">
        <ele>158.39</ele>
        <time>2021-04-01T09:36:55.455Z</time>
      </trkpt>
      <trkpt lat="43.1445321" lon="-2.8252864">
        <ele>158.431</ele>
        <time>2021-04-01T09:36:55.507Z</time>
      </trkpt>
      <trkpt lat="43.1445294" lon="-2.8252925">
        <ele>158.403</ele>
        <time>2021-04-01T09:36:55.560Z</time>
      </trkpt>
      <trkpt lat="43.1445265" lon="-2.8252986">
        <ele>158.408</ele>
        <time>2021-04-01T09:36:55.612Z</time>
      </trkpt>
      <trkpt lat="43.1445234" lon="-2.825305">
        <ele>158.428</ele>
        <time>2021-04-01T09:36:55.664Z</time>
      </trkpt>
      <trkpt lat="43.1445208" lon="-2.8253114">
        <ele>158.369</ele>
        <time>2021-04-01T09:36:55.716Z</time>
      </trkpt>
      <trkpt lat="43.1445182" lon="-2.8253181">
        <ele>158.395</ele>
        <time>2021-04-01T09:36:55.768Z</time>
      </trkpt>
      <trkpt lat="43.1445154" lon="-2.8253245">
        <ele>158.432</ele>
        <time>2021-04-01T09:36:55.820Z</time>
      </trkpt>
      <trkpt lat="43.1445126" lon="-2.8253312">
        <ele>158.499</ele>
        <time>2021-04-01T09:36:55.872Z</time>
      </trkpt>
      <trkpt lat="43.1445098" lon="-2.8253374">
        <ele>158.461</ele>
        <time>2021-04-01T09:36:55.924Z</time>
      </trkpt>
      <trkpt lat="43.1445067" lon="-2.8253435">
        <ele>158.435</ele>
        <time>2021-04-01T09:36:55.976Z</time>
      </trkpt>
      <trkpt lat="43.1445039" lon="-2.8253499">
        <ele>158.482</ele>
        <time>2021-04-01T09:36:56.029Z</time>
      </trkpt>
      <trkpt lat="43.1445009" lon="-2.8253561">
        <ele>158.486</ele>
        <time>2021-04-01T09:36:56.087Z</time>
      </trkpt>
      <trkpt lat="43.1444979" lon="-2.8253622">
        <ele>158.464</ele>
        <time>2021-04-01T09:36:56.145Z</time>
      </trkpt>
      <trkpt lat="43.1444948" lon="-2.8253682">
        <ele>158.466</ele>
        <time>2021-04-01T09:36:56.203Z</time>
      </trkpt>
      <trkpt lat="43.1444919" lon="-2.8253744">
        <ele>158.477</ele>
        <time>2021-04-01T09:36:56.261Z</time>
      </trkpt>
      <trkpt lat="43.1444889" lon="-2.8253805">
        <ele>158.484</ele>
        <time>2021-04-01T09:36:56.320Z</time>
      </trkpt>
      <trkpt lat="43.1444861" lon="-2.8253867">
        <ele>158.532</ele>
        <time>2021-04-01T09:36:56.378Z</time>
      </trkpt>
      <trkpt lat="43.144483" lon="-2.8253925">
        <ele>158.514</ele>
        <time>2021-04-01T09:36:56.436Z</time>
      </trkpt>
      <trkpt lat="43.1444797" lon="-2.8253984">
        <ele>158.486</ele>
        <time>2021-04-01T09:36:56.494Z</time>
      </trkpt>
      <trkpt lat="43.1444766" lon="-2.8254043">
        <ele>158.469</ele>
        <time>2021-04-01T09:36:56.553Z</time>
      </trkpt>
      <trkpt lat="43.1444732" lon="-2.8254099">
        <ele>158.449</ele>
        <time>2021-04-01T09:36:56.611Z</time>
      </trkpt>
      <trkpt lat="43.1444697" lon="-2.8254154">
        <ele>158.436</ele>
        <time>2021-04-01T09:36:56.669Z</time>
      </trkpt>
      <trkpt lat="43.1444663" lon="-2.825421">
        <ele>158.416</ele>
        <time>2021-04-01T09:36:56.727Z</time>
      </trkpt>
      <trkpt lat="43.1444629" lon="-2.8254268">
        <ele>158.421</ele>
        <time>2021-04-01T09:36:56.786Z</time>
      </trkpt>
      <trkpt lat="43.1444595" lon="-2.8254325">
        <ele>158.39</ele>
        <time>2021-04-01T09:36:56.844Z</time>
      </trkpt>
      <trkpt lat="43.1444563" lon="-2.8254381">
        <ele>158.366</ele>
        <time>2021-04-01T09:36:56.902Z</time>
      </trkpt>
      <trkpt lat="43.1444532" lon="-2.8254438">
        <ele>158.369</ele>
        <time>2021-04-01T09:36:56.960Z</time>
      </trkpt>
      <trkpt lat="43.1444498" lon="-2.8254493">
        <ele>158.358</ele>
        <time>2021-04-01T09:36:57.019Z</time>
      </trkpt>
      <trkpt lat="43.1444462" lon="-2.8254546">
        <ele>158.311</ele>
        <time>2021-04-01T09:36:57.074Z</time>
      </trkpt>
      <trkpt lat="43.1444427" lon="-2.8254601">
        <ele>158.263</ele>
        <time>2021-04-01T09:36:57.129Z</time>
      </trkpt>
      <trkpt lat="43.1444392" lon="-2.8254654">
        <ele>158.214</ele>
        <time>2021-04-01T09:36:57.184Z</time>
      </trkpt>
      <trkpt lat="43.1444353" lon="-2.8254705">
        <ele>158.186</ele>
        <time>2021-04-01T09:36:57.239Z</time>
      </trkpt>
      <trkpt lat="43.1444318" lon="-2.8254759">
        <ele>158.181</ele>
        <time>2021-04-01T09:36:57.294Z</time>
      </trkpt>
      <trkpt lat="43.1444281" lon="-2.8254812">
        <ele>158.169</ele>
        <time>2021-04-01T09:36:57.349Z</time>
      </trkpt>
      <trkpt lat="43.1444243" lon="-2.8254868">
        <ele>158.189</ele>
        <time>2021-04-01T09:36:57.404Z</time>
      </trkpt>
      <trkpt lat="43.1444206" lon="-2.8254919">
        <ele>158.152</ele>
        <time>2021-04-01T09:36:57.459Z</time>
      </trkpt>
      <trkpt lat="43.1444168" lon="-2.8254966">
        <ele>158.1</ele>
        <time>2021-04-01T09:36:57.514Z</time>
      </trkpt>
      <trkpt lat="43.1444129" lon="-2.8255013">
        <ele>158.051</ele>
        <time>2021-04-01T09:36:57.569Z</time>
      </trkpt>
      <trkpt lat="43.1444089" lon="-2.8255062">
        <ele>158.034</ele>
        <time>2021-04-01T09:36:57.624Z</time>
      </trkpt>
      <trkpt lat="43.144405" lon="-2.8255112">
        <ele>158.028</ele>
        <time>2021-04-01T09:36:57.679Z</time>
      </trkpt>
      <trkpt lat="43.1444012" lon="-2.8255162">
        <ele>158.016</ele>
        <time>2021-04-01T09:36:57.734Z</time>
      </trkpt>
      <trkpt lat="43.1443971" lon="-2.825521">
        <ele>158.002</ele>
        <time>2021-04-01T09:36:57.789Z</time>
      </trkpt>
      <trkpt lat="43.1443929" lon="-2.825526">
        <ele>158.018</ele>
        <time>2021-04-01T09:36:57.844Z</time>
      </trkpt>
      <trkpt lat="43.1443886" lon="-2.8255306">
        <ele>158.001</ele>
        <time>2021-04-01T09:36:57.899Z</time>
      </trkpt>
      <trkpt lat="43.1443844" lon="-2.825535">
        <ele>157.958</ele>
        <time>2021-04-01T09:36:57.954Z</time>
      </trkpt>
      <trkpt lat="43.1443802" lon="-2.8255394">
        <ele>157.915</ele>
        <time>2021-04-01T09:36:58.009Z</time>
      </trkpt>
      <trkpt lat="43.1443761" lon="-2.8255438">
        <ele>157.89</ele>
        <time>2021-04-01T09:36:58.064Z</time>
      </trkpt>
      <trkpt lat="43.144372" lon="-2.8255481">
        <ele>157.872</ele>
        <time>2021-04-01T09:36:58.119Z</time>
      </trkpt>
      <trkpt lat="43.1443674" lon="-2.8255522">
        <ele>157.826</ele>
        <time>2021-04-01T09:36:58.174Z</time>
      </trkpt>
      <trkpt lat="43.1443629" lon="-2.8255565">
        <ele>157.804</ele>
        <time>2021-04-01T09:36:58.229Z</time>
      </trkpt>
      <trkpt lat="43.1443585" lon="-2.8255604">
        <ele>157.783</ele>
        <time>2021-04-01T09:36:58.284Z</time>
      </trkpt>
      <trkpt lat="43.144354" lon="-2.8255641">
        <ele>157.736</ele>
        <time>2021-04-01T09:36:58.339Z</time>
      </trkpt>
      <trkpt lat="43.1443493" lon="-2.8255679">
        <ele>157.68</ele>
        <time>2021-04-01T09:36:58.394Z</time>
      </trkpt>
      <trkpt lat="43.1443441" lon="-2.8255711">
        <ele>157.624</ele>
        <time>2021-04-01T09:36:58.449Z</time>
      </trkpt>
      <trkpt lat="43.1443394" lon="-2.8255743">
        <ele>157.552</ele>
        <time>2021-04-01T09:36:58.504Z</time>
      </trkpt>
      <trkpt lat="43.1443344" lon="-2.8255775">
        <ele>157.487</ele>
        <time>2021-04-01T09:36:58.559Z</time>
      </trkpt>
      <trkpt lat="43.1443296" lon="-2.8255802">
        <ele>157.39</ele>
        <time>2021-04-01T09:36:58.614Z</time>
      </trkpt>
      <trkpt lat="43.1443251" lon="-2.8255835">
        <ele>157.338</ele>
        <time>2021-04-01T09:36:58.669Z</time>
      </trkpt>
      <trkpt lat="43.1443206" lon="-2.8255869">
        <ele>157.287</ele>
        <time>2021-04-01T09:36:58.724Z</time>
      </trkpt>
      <trkpt lat="43.1443161" lon="-2.8255902">
        <ele>157.251</ele>
        <time>2021-04-01T09:36:58.779Z</time>
      </trkpt>
      <trkpt lat="43.1443117" lon="-2.8255931">
        <ele>157.194</ele>
        <time>2021-04-01T09:36:58.834Z</time>
      </trkpt>
      <trkpt lat="43.1443069" lon="-2.825596">
        <ele>157.167</ele>
        <time>2021-04-01T09:36:58.889Z</time>
      </trkpt>
      <trkpt lat="43.1443025" lon="-2.8255986">
        <ele>157.075</ele>
        <time>2021-04-01T09:36:58.944Z</time>
      </trkpt>
      <trkpt lat="43.1442974" lon="-2.8256015">
        <ele>157.029</ele>
        <time>2021-04-01T09:36:58.999Z</time>
      </trkpt>
      <trkpt lat="43.1442922" lon="-2.8256041">
        <ele>157.002</ele>
        <time>2021-04-01T09:36:59.054Z</time>
      </trkpt>
      <trkpt lat="43.144287" lon="-2.8256062">
        <ele>156.922</ele>
        <time>2021-04-01T09:36:59.109Z</time>
      </trkpt>
      <trkpt lat="43.1442816" lon="-2.8256074">
        <ele>156.808</ele>
        <time>2021-04-01T09:36:59.164Z</time>
      </trkpt>
      <trkpt lat="43.1442763" lon="-2.8256093">
        <ele>156.753</ele>
        <time>2021-04-01T09:36:59.219Z</time>
      </trkpt>
      <trkpt lat="43.1442712" lon="-2.8256124">
        <ele>156.762</ele>
        <time>2021-04-01T09:36:59.274Z</time>
      </trkpt>
      <trkpt lat="43.1442662" lon="-2.825615">
        <ele>156.739</ele>
        <time>2021-04-01T09:36:59.329Z</time>
      </trkpt>
      <trkpt lat="43.1442612" lon="-2.8256171">
        <ele>156.696</ele>
        <time>2021-04-01T09:36:59.384Z</time>
      </trkpt>
      <trkpt lat="43.1442561" lon="-2.8256196">
        <ele>156.713</ele>
        <time>2021-04-01T09:36:59.439Z</time>
      </trkpt>
      <trkpt lat="43.1442507" lon="-2.8256211">
        <ele>156.662</ele>
        <time>2021-04-01T09:36:59.494Z</time>
      </trkpt>
      <trkpt lat="43.1442454" lon="-2.8256231">
        <ele>156.653</ele>
        <time>2021-04-01T09:36:59.549Z</time>
      </trkpt>
      <trkpt lat="43.1442403" lon="-2.8256247">
        <ele>156.631</ele>
        <time>2021-04-01T09:36:59.604Z</time>
      </trkpt>
      <trkpt lat="43.1442353" lon="-2.8256265">
        <ele>156.609</ele>
        <time>2021-04-01T09:36:59.659Z</time>
      </trkpt>
      <trkpt lat="43.1442303" lon="-2.8256283">
        <ele>156.622</ele>
        <time>2021-04-01T09:36:59.714Z</time>
      </trkpt>
      <trkpt lat="43.1442252" lon="-2.8256297">
        <ele>156.601</ele>
        <time>2021-04-01T09:36:59.769Z</time>
      </trkpt>
      <trkpt lat="43.14422" lon="-2.8256309">
        <ele>156.555</ele>
        <time>2021-04-01T09:36:59.824Z</time>
      </trkpt>
      <trkpt lat="43.1442149" lon="-2.8256324">
        <ele>156.535</ele>
        <time>2021-04-01T09:36:59.879Z</time>
      </trkpt>
      <trkpt lat="43.1442098" lon="-2.8256337">
        <ele>156.491</ele>
        <time>2021-04-01T09:36:59.934Z</time>
      </trkpt>
      <trkpt lat="43.1442046" lon="-2.8256351">
        <ele>156.467</ele>
        <time>2021-04-01T09:36:59.989Z</time>
      </trkpt>
      <trkpt lat="43.1441996" lon="-2.8256362">
        <ele>156.463</ele>
        <time>2021-04-01T09:37:00.044Z</time>
      </trkpt>
      <trkpt lat="43.1441945" lon="-2.8256376">
        <ele>156.473</ele>
        <time>2021-04-01T09:37:00.099Z</time>
      </trkpt>
      <trkpt lat="43.1441894" lon="-2.8256386">
        <ele>156.47</ele>
        <time>2021-04-01T09:37:00.154Z</time>
      </trkpt>
      <trkpt lat="43.1441843" lon="-2.8256393">
        <ele>156.423</ele>
        <time>2021-04-01T09:37:00.209Z</time>
      </trkpt>
      <trkpt lat="43.1441792" lon="-2.8256404">
        <ele>156.382</ele>
        <time>2021-04-01T09:37:00.264Z</time>
      </trkpt>
      <trkpt lat="43.144174" lon="-2.8256416">
        <ele>156.34</ele>
        <time>2021-04-01T09:37:00.319Z</time>
      </trkpt>
      <trkpt lat="43.144169" lon="-2.8256427">
        <ele>156.313</ele>
        <time>2021-04-01T09:37:00.374Z</time>
      </trkpt>
      <trkpt lat="43.144164" lon="-2.8256438">
        <ele>156.292</ele>
        <time>2021-04-01T09:37:00.429Z</time>
      </trkpt>
      <trkpt lat="43.144159" lon="-2.825645">
        <ele>156.265</ele>
        <time>2021-04-01T09:37:00.484Z</time>
      </trkpt>
      <trkpt lat="43.1441542" lon="-2.8256464">
        <ele>156.24</ele>
        <time>2021-04-01T09:37:00.539Z</time>
      </trkpt>
      <trkpt lat="43.1441494" lon="-2.8256478">
        <ele>156.24</ele>
        <time>2021-04-01T09:37:00.594Z</time>
      </trkpt>
      <trkpt lat="43.1441446" lon="-2.8256493">
        <ele>156.238</ele>
        <time>2021-04-01T09:37:00.649Z</time>
      </trkpt>
      <trkpt lat="43.1441397" lon="-2.8256508">
        <ele>156.213</ele>
        <time>2021-04-01T09:37:00.704Z</time>
      </trkpt>
      <trkpt lat="43.1441347" lon="-2.8256524">
        <ele>156.198</ele>
        <time>2021-04-01T09:37:00.759Z</time>
      </trkpt>
      <trkpt lat="43.14413" lon="-2.8256537">
        <ele>156.142</ele>
        <time>2021-04-01T09:37:00.814Z</time>
      </trkpt>
      <trkpt lat="43.1441254" lon="-2.8256551">
        <ele>156.098</ele>
        <time>2021-04-01T09:37:00.869Z</time>
      </trkpt>
      <trkpt lat="43.1441206" lon="-2.8256566">
        <ele>156.082</ele>
        <time>2021-04-01T09:37:00.924Z</time>
      </trkpt>
      <trkpt lat="43.1441158" lon="-2.8256586">
        <ele>156.066</ele>
        <time>2021-04-01T09:37:00.979Z</time>
      </trkpt>
      <trkpt lat="43.1441112" lon="-2.8256603">
        <ele>156.026</ele>
        <time>2021-04-01T09:37:01.034Z</time>
      </trkpt>
      <trkpt lat="43.1441065" lon="-2.8256621">
        <ele>155.969</ele>
        <time>2021-04-01T09:37:01.089Z</time>
      </trkpt>
      <trkpt lat="43.144102" lon="-2.8256639">
        <ele>155.943</ele>
        <time>2021-04-01T09:37:01.147Z</time>
      </trkpt>
      <trkpt lat="43.1440974" lon="-2.8256656">
        <ele>155.921</ele>
        <time>2021-04-01T09:37:01.205Z</time>
      </trkpt>
      <trkpt lat="43.1440927" lon="-2.8256679">
        <ele>155.872</ele>
        <time>2021-04-01T09:37:01.263Z</time>
      </trkpt>
      <trkpt lat="43.1440882" lon="-2.8256697">
        <ele>155.863</ele>
        <time>2021-04-01T09:37:01.321Z</time>
      </trkpt>
      <trkpt lat="43.1440837" lon="-2.8256716">
        <ele>155.866</ele>
        <time>2021-04-01T09:37:01.380Z</time>
      </trkpt>
      <trkpt lat="43.1440792" lon="-2.8256734">
        <ele>155.861</ele>
        <time>2021-04-01T09:37:01.438Z</time>
      </trkpt>
      <trkpt lat="43.1440746" lon="-2.8256752">
        <ele>155.795</ele>
        <time>2021-04-01T09:37:01.496Z</time>
      </trkpt>
      <trkpt lat="43.14407" lon="-2.8256772">
        <ele>155.72</ele>
        <time>2021-04-01T09:37:01.554Z</time>
      </trkpt>
      <trkpt lat="43.1440654" lon="-2.825679">
        <ele>155.678</ele>
        <time>2021-04-01T09:37:01.613Z</time>
      </trkpt>
      <trkpt lat="43.1440606" lon="-2.8256808">
        <ele>155.613</ele>
        <time>2021-04-01T09:37:01.671Z</time>
      </trkpt>
      <trkpt lat="43.1440559" lon="-2.8256828">
        <ele>155.557</ele>
        <time>2021-04-01T09:37:01.729Z</time>
      </trkpt>
      <trkpt lat="43.1440516" lon="-2.8256852">
        <ele>155.524</ele>
        <time>2021-04-01T09:37:01.787Z</time>
      </trkpt>
      <trkpt lat="43.144047" lon="-2.8256875">
        <ele>155.462</ele>
        <time>2021-04-01T09:37:01.846Z</time>
      </trkpt>
      <trkpt lat="43.1440427" lon="-2.82569">
        <ele>155.42</ele>
        <time>2021-04-01T09:37:01.904Z</time>
      </trkpt>
      <trkpt lat="43.144039" lon="-2.8256928">
        <ele>155.335</ele>
        <time>2021-04-01T09:37:01.962Z</time>
      </trkpt>
      <trkpt lat="43.144035" lon="-2.8256953">
        <ele>155.25</ele>
        <time>2021-04-01T09:37:02.020Z</time>
      </trkpt>
      <trkpt lat="43.1440311" lon="-2.8256982">
        <ele>155.195</ele>
        <time>2021-04-01T09:37:02.079Z</time>
      </trkpt>
      <trkpt lat="43.1440273" lon="-2.8257016">
        <ele>155.143</ele>
        <time>2021-04-01T09:37:02.128Z</time>
      </trkpt>
      <trkpt lat="43.1440241" lon="-2.8257051">
        <ele>155.086</ele>
        <time>2021-04-01T09:37:02.177Z</time>
      </trkpt>
      <trkpt lat="43.1440207" lon="-2.8257086">
        <ele>155.055</ele>
        <time>2021-04-01T09:37:02.226Z</time>
      </trkpt>
      <trkpt lat="43.1440173" lon="-2.8257118">
        <ele>154.975</ele>
        <time>2021-04-01T09:37:02.275Z</time>
      </trkpt>
      <trkpt lat="43.1440137" lon="-2.8257152">
        <ele>154.881</ele>
        <time>2021-04-01T09:37:02.325Z</time>
      </trkpt>
      <trkpt lat="43.1440101" lon="-2.8257184">
        <ele>154.819</ele>
        <time>2021-04-01T09:37:02.374Z</time>
      </trkpt>
      <trkpt lat="43.1440067" lon="-2.8257219">
        <ele>154.771</ele>
        <time>2021-04-01T09:37:02.423Z</time>
      </trkpt>
      <trkpt lat="43.1440034" lon="-2.8257256">
        <ele>154.703</ele>
        <time>2021-04-01T09:37:02.472Z</time>
      </trkpt>
      <trkpt lat="43.1440012" lon="-2.82573">
        <ele>154.608</ele>
        <time>2021-04-01T09:37:02.521Z</time>
      </trkpt>
      <trkpt lat="43.1439986" lon="-2.8257338">
        <ele>154.547</ele>
        <time>2021-04-01T09:37:02.571Z</time>
      </trkpt>
      <trkpt lat="43.1439966" lon="-2.8257378">
        <ele>154.403</ele>
        <time>2021-04-01T09:37:02.620Z</time>
      </trkpt>
      <trkpt lat="43.1439948" lon="-2.8257426">
        <ele>154.297</ele>
        <time>2021-04-01T09:37:02.669Z</time>
      </trkpt>
      <trkpt lat="43.1439916" lon="-2.8257461">
        <ele>154.264</ele>
        <time>2021-04-01T09:37:02.718Z</time>
      </trkpt>
      <trkpt lat="43.1439896" lon="-2.8257502">
        <ele>154.159</ele>
        <time>2021-04-01T09:37:02.767Z</time>
      </trkpt>
      <trkpt lat="43.1439877" lon="-2.8257539">
        <ele>153.999</ele>
        <time>2021-04-01T09:37:02.817Z</time>
      </trkpt>
      <trkpt lat="43.1439853" lon="-2.8257575">
        <ele>153.867</ele>
        <time>2021-04-01T09:37:02.866Z</time>
      </trkpt>
      <trkpt lat="43.1439832" lon="-2.8257612">
        <ele>153.723</ele>
        <time>2021-04-01T09:37:02.915Z</time>
      </trkpt>
      <trkpt lat="43.1439809" lon="-2.8257648">
        <ele>153.578</ele>
        <time>2021-04-01T09:37:02.964Z</time>
      </trkpt>
      <trkpt lat="43.1439785" lon="-2.825769">
        <ele>153.501</ele>
        <time>2021-04-01T09:37:03.014Z</time>
      </trkpt>
      <trkpt lat="43.1439767" lon="-2.8257731">
        <ele>153.388</ele>
        <time>2021-04-01T09:37:03.072Z</time>
      </trkpt>
      <trkpt lat="43.1439752" lon="-2.8257775">
        <ele>153.303</ele>
        <time>2021-04-01T09:37:03.130Z</time>
      </trkpt>
      <trkpt lat="43.1439732" lon="-2.8257816">
        <ele>153.207</ele>
        <time>2021-04-01T09:37:03.188Z</time>
      </trkpt>
      <trkpt lat="43.1439713" lon="-2.8257858">
        <ele>153.082</ele>
        <time>2021-04-01T09:37:03.246Z</time>
      </trkpt>
      <trkpt lat="43.1439693" lon="-2.8257902">
        <ele>152.974</ele>
        <time>2021-04-01T09:37:03.304Z</time>
      </trkpt>
      <trkpt lat="43.1439681" lon="-2.8257946">
        <ele>152.911</ele>
        <time>2021-04-01T09:37:03.362Z</time>
      </trkpt>
      <trkpt lat="43.1439664" lon="-2.8257994">
        <ele>152.81</ele>
        <time>2021-04-01T09:37:03.420Z</time>
      </trkpt>
      <trkpt lat="43.1439652" lon="-2.8258042">
        <ele>152.743</ele>
        <time>2021-04-01T09:37:03.478Z</time>
      </trkpt>
      <trkpt lat="43.1439639" lon="-2.8258092">
        <ele>152.679</ele>
        <time>2021-04-01T09:37:03.536Z</time>
      </trkpt>
      <trkpt lat="43.1439627" lon="-2.8258147">
        <ele>152.646</ele>
        <time>2021-04-01T09:37:03.594Z</time>
      </trkpt>
      <trkpt lat="43.1439615" lon="-2.8258197">
        <ele>152.621</ele>
        <time>2021-04-01T09:37:03.652Z</time>
      </trkpt>
      <trkpt lat="43.1439603" lon="-2.8258248">
        <ele>152.611</ele>
        <time>2021-04-01T09:37:03.710Z</time>
      </trkpt>
      <trkpt lat="43.1439595" lon="-2.8258303">
        <ele>152.549</ele>
        <time>2021-04-01T09:37:03.768Z</time>
      </trkpt>
      <trkpt lat="43.1439588" lon="-2.8258356">
        <ele>152.443</ele>
        <time>2021-04-01T09:37:03.826Z</time>
      </trkpt>
      <trkpt lat="43.1439581" lon="-2.8258402">
        <ele>152.359</ele>
        <time>2021-04-01T09:37:03.884Z</time>
      </trkpt>
      <trkpt lat="43.1439577" lon="-2.8258453">
        <ele>152.284</ele>
        <time>2021-04-01T09:37:03.942Z</time>
      </trkpt>
      <trkpt lat="43.1439573" lon="-2.8258507">
        <ele>152.227</ele>
        <time>2021-04-01T09:37:04.000Z</time>
      </trkpt>
      <trkpt lat="43.1439563" lon="-2.8258561">
        <ele>152.183</ele>
        <time>2021-04-01T09:37:04.059Z</time>
      </trkpt>
      <trkpt lat="43.1439556" lon="-2.8258612">
        <ele>152.093</ele>
        <time>2021-04-01T09:37:04.114Z</time>
      </trkpt>
      <trkpt lat="43.1439548" lon="-2.8258659">
        <ele>151.991</ele>
        <time>2021-04-01T09:37:04.169Z</time>
      </trkpt>
      <trkpt lat="43.1439546" lon="-2.8258711">
        <ele>151.907</ele>
        <time>2021-04-01T09:37:04.224Z</time>
      </trkpt>
      <trkpt lat="43.143954" lon="-2.8258764">
        <ele>151.802</ele>
        <time>2021-04-01T09:37:04.279Z</time>
      </trkpt>
      <trkpt lat="43.1439536" lon="-2.8258817">
        <ele>151.727</ele>
        <time>2021-04-01T09:37:04.334Z</time>
      </trkpt>
      <trkpt lat="43.1439534" lon="-2.8258865">
        <ele>151.682</ele>
        <time>2021-04-01T09:37:04.389Z</time>
      </trkpt>
      <trkpt lat="43.1439535" lon="-2.8258919">
        <ele>151.661</ele>
        <time>2021-04-01T09:37:04.444Z</time>
      </trkpt>
      <trkpt lat="43.1439536" lon="-2.8258973">
        <ele>151.594</ele>
        <time>2021-04-01T09:37:04.499Z</time>
      </trkpt>
      <trkpt lat="43.1439535" lon="-2.8259026">
        <ele>151.561</ele>
        <time>2021-04-01T09:37:04.554Z</time>
      </trkpt>
      <trkpt lat="43.1439537" lon="-2.8259081">
        <ele>151.52</ele>
        <time>2021-04-01T09:37:04.609Z</time>
      </trkpt>
      <trkpt lat="43.143954" lon="-2.8259135">
        <ele>151.519</ele>
        <time>2021-04-01T09:37:04.664Z</time>
      </trkpt>
      <trkpt lat="43.1439545" lon="-2.8259188">
        <ele>151.495</ele>
        <time>2021-04-01T09:37:04.719Z</time>
      </trkpt>
      <trkpt lat="43.1439551" lon="-2.8259243">
        <ele>151.495</ele>
        <time>2021-04-01T09:37:04.774Z</time>
      </trkpt>
      <trkpt lat="43.1439557" lon="-2.8259298">
        <ele>151.45</ele>
        <time>2021-04-01T09:37:04.829Z</time>
      </trkpt>
      <trkpt lat="43.1439563" lon="-2.8259356">
        <ele>151.437</ele>
        <time>2021-04-01T09:37:04.884Z</time>
      </trkpt>
      <trkpt lat="43.143957" lon="-2.825941">
        <ele>151.418</ele>
        <time>2021-04-01T09:37:04.939Z</time>
      </trkpt>
      <trkpt lat="43.1439579" lon="-2.8259463">
        <ele>151.395</ele>
        <time>2021-04-01T09:37:04.994Z</time>
      </trkpt>
      <trkpt lat="43.1439585" lon="-2.8259513">
        <ele>151.311</ele>
        <time>2021-04-01T09:37:05.049Z</time>
      </trkpt>
      <trkpt lat="43.1439591" lon="-2.8259564">
        <ele>151.267</ele>
        <time>2021-04-01T09:37:05.104Z</time>
      </trkpt>
      <trkpt lat="43.1439598" lon="-2.8259617">
        <ele>151.257</ele>
        <time>2021-04-01T09:37:05.159Z</time>
      </trkpt>
      <trkpt lat="43.1439607" lon="-2.825967">
        <ele>151.245</ele>
        <time>2021-04-01T09:37:05.214Z</time>
      </trkpt>
      <trkpt lat="43.1439617" lon="-2.8259723">
        <ele>151.225</ele>
        <time>2021-04-01T09:37:05.269Z</time>
      </trkpt>
      <trkpt lat="43.1439627" lon="-2.8259777">
        <ele>151.176</ele>
        <time>2021-04-01T09:37:05.324Z</time>
      </trkpt>
      <trkpt lat="43.1439637" lon="-2.8259827">
        <ele>151.127</ele>
        <time>2021-04-01T09:37:05.379Z</time>
      </trkpt>
      <trkpt lat="43.1439646" lon="-2.8259879">
        <ele>151.047</ele>
        <time>2021-04-01T09:37:05.434Z</time>
      </trkpt>
      <trkpt lat="43.1439658" lon="-2.8259931">
        <ele>151.009</ele>
        <time>2021-04-01T09:37:05.489Z</time>
      </trkpt>
      <trkpt lat="43.143967" lon="-2.8259983">
        <ele>151.007</ele>
        <time>2021-04-01T09:37:05.544Z</time>
      </trkpt>
      <trkpt lat="43.1439685" lon="-2.8260036">
        <ele>150.952</ele>
        <time>2021-04-01T09:37:05.599Z</time>
      </trkpt>
      <trkpt lat="43.1439695" lon="-2.8260087">
        <ele>150.879</ele>
        <time>2021-04-01T09:37:05.654Z</time>
      </trkpt>
      <trkpt lat="43.1439704" lon="-2.8260142">
        <ele>150.862</ele>
        <time>2021-04-01T09:37:05.709Z</time>
      </trkpt>
      <trkpt lat="43.1439716" lon="-2.8260198">
        <ele>150.848</ele>
        <time>2021-04-01T09:37:05.764Z</time>
      </trkpt>
      <trkpt lat="43.1439727" lon="-2.8260256">
        <ele>150.87</ele>
        <time>2021-04-01T09:37:05.819Z</time>
      </trkpt>
      <trkpt lat="43.1439738" lon="-2.8260312">
        <ele>150.826</ele>
        <time>2021-04-01T09:37:05.874Z</time>
      </trkpt>
      <trkpt lat="43.1439752" lon="-2.8260366">
        <ele>150.814</ele>
        <time>2021-04-01T09:37:05.929Z</time>
      </trkpt>
      <trkpt lat="43.1439763" lon="-2.8260419">
        <ele>150.801</ele>
        <time>2021-04-01T09:37:05.984Z</time>
      </trkpt>
      <trkpt lat="43.1439777" lon="-2.8260472">
        <ele>150.766</ele>
        <time>2021-04-01T09:37:06.039Z</time>
      </trkpt>
      <trkpt lat="43.1439787" lon="-2.8260527">
        <ele>150.7</ele>
        <time>2021-04-01T09:37:06.091Z</time>
      </trkpt>
      <trkpt lat="43.1439796" lon="-2.8260583">
        <ele>150.642</ele>
        <time>2021-04-01T09:37:06.143Z</time>
      </trkpt>
      <trkpt lat="43.1439804" lon="-2.8260636">
        <ele>150.621</ele>
        <time>2021-04-01T09:37:06.195Z</time>
      </trkpt>
      <trkpt lat="43.1439816" lon="-2.8260698">
        <ele>150.619</ele>
        <time>2021-04-01T09:37:06.247Z</time>
      </trkpt>
      <trkpt lat="43.1439829" lon="-2.8260757">
        <ele>150.633</ele>
        <time>2021-04-01T09:37:06.299Z</time>
      </trkpt>
      <trkpt lat="43.1439839" lon="-2.8260813">
        <ele>150.636</ele>
        <time>2021-04-01T09:37:06.351Z</time>
      </trkpt>
      <trkpt lat="43.143985" lon="-2.8260871">
        <ele>150.651</ele>
        <time>2021-04-01T09:37:06.403Z</time>
      </trkpt>
      <trkpt lat="43.1439858" lon="-2.8260927">
        <ele>150.68</ele>
        <time>2021-04-01T09:37:06.455Z</time>
      </trkpt>
      <trkpt lat="43.1439868" lon="-2.8260983">
        <ele>150.66</ele>
        <time>2021-04-01T09:37:06.507Z</time>
      </trkpt>
      <trkpt lat="43.1439875" lon="-2.826104">
        <ele>150.654</ele>
        <time>2021-04-01T09:37:06.560Z</time>
      </trkpt>
      <trkpt lat="43.1439884" lon="-2.8261104">
        <ele>150.718</ele>
        <time>2021-04-01T09:37:06.612Z</time>
      </trkpt>
      <trkpt lat="43.1439888" lon="-2.8261163">
        <ele>150.663</ele>
        <time>2021-04-01T09:37:06.664Z</time>
      </trkpt>
      <trkpt lat="43.1439898" lon="-2.8261224">
        <ele>150.698</ele>
        <time>2021-04-01T09:37:06.716Z</time>
      </trkpt>
      <trkpt lat="43.1439906" lon="-2.8261284">
        <ele>150.69</ele>
        <time>2021-04-01T09:37:06.768Z</time>
      </trkpt>
      <trkpt lat="43.1439916" lon="-2.8261348">
        <ele>150.764</ele>
        <time>2021-04-01T09:37:06.820Z</time>
      </trkpt>
      <trkpt lat="43.1439925" lon="-2.8261408">
        <ele>150.774</ele>
        <time>2021-04-01T09:37:06.872Z</time>
      </trkpt>
      <trkpt lat="43.1439931" lon="-2.8261463">
        <ele>150.743</ele>
        <time>2021-04-01T09:37:06.924Z</time>
      </trkpt>
      <trkpt lat="43.1439942" lon="-2.8261527">
        <ele>150.77</ele>
        <time>2021-04-01T09:37:06.976Z</time>
      </trkpt>
      <trkpt lat="43.1439952" lon="-2.826159">
        <ele>150.748</ele>
        <time>2021-04-01T09:37:07.029Z</time>
      </trkpt>
      <trkpt lat="43.1439959" lon="-2.826165">
        <ele>150.76</ele>
        <time>2021-04-01T09:37:07.087Z</time>
      </trkpt>
      <trkpt lat="43.1439966" lon="-2.826171">
        <ele>150.765</ele>
        <time>2021-04-01T09:37:07.145Z</time>
      </trkpt>
      <trkpt lat="43.1439972" lon="-2.8261769">
        <ele>150.73</ele>
        <time>2021-04-01T09:37:07.203Z</time>
      </trkpt>
      <trkpt lat="43.1439983" lon="-2.8261837">
        <ele>150.811</ele>
        <time>2021-04-01T09:37:07.261Z</time>
      </trkpt>
      <trkpt lat="43.1439992" lon="-2.8261904">
        <ele>150.836</ele>
        <time>2021-04-01T09:37:07.319Z</time>
      </trkpt>
      <trkpt lat="43.1439999" lon="-2.8261967">
        <ele>150.818</ele>
        <time>2021-04-01T09:37:07.377Z</time>
      </trkpt>
      <trkpt lat="43.1440005" lon="-2.8262025">
        <ele>150.75</ele>
        <time>2021-04-01T09:37:07.435Z</time>
      </trkpt>
      <trkpt lat="43.1440011" lon="-2.8262086">
        <ele>150.715</ele>
        <time>2021-04-01T09:37:07.493Z</time>
      </trkpt>
      <trkpt lat="43.1440019" lon="-2.8262151">
        <ele>150.759</ele>
        <time>2021-04-01T09:37:07.551Z</time>
      </trkpt>
      <trkpt lat="43.1440025" lon="-2.8262212">
        <ele>150.729</ele>
        <time>2021-04-01T09:37:07.609Z</time>
      </trkpt>
      <trkpt lat="43.144003" lon="-2.8262266">
        <ele>150.633</ele>
        <time>2021-04-01T09:37:07.667Z</time>
      </trkpt>
      <trkpt lat="43.1440037" lon="-2.8262325">
        <ele>150.626</ele>
        <time>2021-04-01T09:37:07.725Z</time>
      </trkpt>
      <trkpt lat="43.1440042" lon="-2.8262389">
        <ele>150.663</ele>
        <time>2021-04-01T09:37:07.783Z</time>
      </trkpt>
      <trkpt lat="43.1440046" lon="-2.8262453">
        <ele>150.658</ele>
        <time>2021-04-01T09:37:07.841Z</time>
      </trkpt>
      <trkpt lat="43.1440052" lon="-2.8262515">
        <ele>150.659</ele>
        <time>2021-04-01T09:37:07.899Z</time>
      </trkpt>
      <trkpt lat="43.1440057" lon="-2.8262584">
        <ele>150.723</ele>
        <time>2021-04-01T09:37:07.957Z</time>
      </trkpt>
      <trkpt lat="43.1440062" lon="-2.826265">
        <ele>150.771</ele>
        <time>2021-04-01T09:37:08.015Z</time>
      </trkpt>
      <trkpt lat="43.1440066" lon="-2.8262712">
        <ele>150.805</ele>
        <time>2021-04-01T09:37:08.074Z</time>
      </trkpt>
      <trkpt lat="43.1440069" lon="-2.8262775">
        <ele>150.793</ele>
        <time>2021-04-01T09:37:08.129Z</time>
      </trkpt>
      <trkpt lat="43.1440074" lon="-2.8262839">
        <ele>150.794</ele>
        <time>2021-04-01T09:37:08.184Z</time>
      </trkpt>
      <trkpt lat="43.1440077" lon="-2.8262904">
        <ele>150.808</ele>
        <time>2021-04-01T09:37:08.239Z</time>
      </trkpt>
      <trkpt lat="43.1440083" lon="-2.8262969">
        <ele>150.885</ele>
        <time>2021-04-01T09:37:08.294Z</time>
      </trkpt>
      <trkpt lat="43.1440087" lon="-2.8263035">
        <ele>150.939</ele>
        <time>2021-04-01T09:37:08.349Z</time>
      </trkpt>
      <trkpt lat="43.1440091" lon="-2.8263097">
        <ele>150.92</ele>
        <time>2021-04-01T09:37:08.404Z</time>
      </trkpt>
      <trkpt lat="43.1440091" lon="-2.8263159">
        <ele>150.879</ele>
        <time>2021-04-01T09:37:08.459Z</time>
      </trkpt>
      <trkpt lat="43.1440095" lon="-2.8263227">
        <ele>150.877</ele>
        <time>2021-04-01T09:37:08.514Z</time>
      </trkpt>
      <trkpt lat="43.1440097" lon="-2.8263292">
        <ele>150.881</ele>
        <time>2021-04-01T09:37:08.569Z</time>
      </trkpt>
      <trkpt lat="43.1440098" lon="-2.8263357">
        <ele>150.881</ele>
        <time>2021-04-01T09:37:08.624Z</time>
      </trkpt>
      <trkpt lat="43.1440101" lon="-2.826342">
        <ele>150.859</ele>
        <time>2021-04-01T09:37:08.679Z</time>
      </trkpt>
      <trkpt lat="43.1440102" lon="-2.8263484">
        <ele>150.865</ele>
        <time>2021-04-01T09:37:08.734Z</time>
      </trkpt>
      <trkpt lat="43.1440101" lon="-2.8263548">
        <ele>150.885</ele>
        <time>2021-04-01T09:37:08.789Z</time>
      </trkpt>
      <trkpt lat="43.1440103" lon="-2.8263616">
        <ele>150.942</ele>
        <time>2021-04-01T09:37:08.844Z</time>
      </trkpt>
      <trkpt lat="43.1440103" lon="-2.8263682">
        <ele>150.975</ele>
        <time>2021-04-01T09:37:08.899Z</time>
      </trkpt>
      <trkpt lat="43.1440102" lon="-2.826375">
        <ele>151.003</ele>
        <time>2021-04-01T09:37:08.954Z</time>
      </trkpt>
      <trkpt lat="43.1440103" lon="-2.8263817">
        <ele>151.067</ele>
        <time>2021-04-01T09:37:09.009Z</time>
      </trkpt>
      <trkpt lat="43.1440102" lon="-2.8263883">
        <ele>151.074</ele>
        <time>2021-04-01T09:37:09.064Z</time>
      </trkpt>
      <trkpt lat="43.14401" lon="-2.8263948">
        <ele>151.071</ele>
        <time>2021-04-01T09:37:09.119Z</time>
      </trkpt>
      <trkpt lat="43.1440098" lon="-2.8264012">
        <ele>151.08</ele>
        <time>2021-04-01T09:37:09.174Z</time>
      </trkpt>
      <trkpt lat="43.1440096" lon="-2.8264077">
        <ele>151.095</ele>
        <time>2021-04-01T09:37:09.229Z</time>
      </trkpt>
      <trkpt lat="43.1440095" lon="-2.8264141">
        <ele>151.112</ele>
        <time>2021-04-01T09:37:09.284Z</time>
      </trkpt>
      <trkpt lat="43.1440094" lon="-2.8264206">
        <ele>151.137</ele>
        <time>2021-04-01T09:37:09.339Z</time>
      </trkpt>
      <trkpt lat="43.1440091" lon="-2.826427">
        <ele>151.122</ele>
        <time>2021-04-01T09:37:09.394Z</time>
      </trkpt>
      <trkpt lat="43.1440086" lon="-2.8264334">
        <ele>151.105</ele>
        <time>2021-04-01T09:37:09.449Z</time>
      </trkpt>
      <trkpt lat="43.1440084" lon="-2.8264399">
        <ele>151.112</ele>
        <time>2021-04-01T09:37:09.504Z</time>
      </trkpt>
      <trkpt lat="43.1440079" lon="-2.8264466">
        <ele>151.141</ele>
        <time>2021-04-01T09:37:09.559Z</time>
      </trkpt>
      <trkpt lat="43.1440074" lon="-2.8264533">
        <ele>151.166</ele>
        <time>2021-04-01T09:37:09.614Z</time>
      </trkpt>
      <trkpt lat="43.144007" lon="-2.8264598">
        <ele>151.186</ele>
        <time>2021-04-01T09:37:09.669Z</time>
      </trkpt>
      <trkpt lat="43.1440067" lon="-2.8264661">
        <ele>151.173</ele>
        <time>2021-04-01T09:37:09.724Z</time>
      </trkpt>
      <trkpt lat="43.1440064" lon="-2.8264728">
        <ele>151.21</ele>
        <time>2021-04-01T09:37:09.779Z</time>
      </trkpt>
      <trkpt lat="43.1440059" lon="-2.8264795">
        <ele>151.219</ele>
        <time>2021-04-01T09:37:09.834Z</time>
      </trkpt>
      <trkpt lat="43.1440056" lon="-2.8264859">
        <ele>151.2</ele>
        <time>2021-04-01T09:37:09.889Z</time>
      </trkpt>
      <trkpt lat="43.1440051" lon="-2.8264923">
        <ele>151.206</ele>
        <time>2021-04-01T09:37:09.944Z</time>
      </trkpt>
      <trkpt lat="43.1440048" lon="-2.8264992">
        <ele>151.237</ele>
        <time>2021-04-01T09:37:09.999Z</time>
      </trkpt>
      <trkpt lat="43.1440044" lon="-2.8265059">
        <ele>151.271</ele>
        <time>2021-04-01T09:37:10.054Z</time>
      </trkpt>
      <trkpt lat="43.1440039" lon="-2.8265125">
        <ele>151.315</ele>
        <time>2021-04-01T09:37:10.109Z</time>
      </trkpt>
      <trkpt lat="43.1440034" lon="-2.826519">
        <ele>151.327</ele>
        <time>2021-04-01T09:37:10.164Z</time>
      </trkpt>
      <trkpt lat="43.1440028" lon="-2.8265256">
        <ele>151.337</ele>
        <time>2021-04-01T09:37:10.219Z</time>
      </trkpt>
      <trkpt lat="43.1440022" lon="-2.8265322">
        <ele>151.334</ele>
        <time>2021-04-01T09:37:10.274Z</time>
      </trkpt>
      <trkpt lat="43.1440017" lon="-2.8265388">
        <ele>151.353</ele>
        <time>2021-04-01T09:37:10.329Z</time>
      </trkpt>
      <trkpt lat="43.1440011" lon="-2.8265452">
        <ele>151.378</ele>
        <time>2021-04-01T09:37:10.384Z</time>
      </trkpt>
      <trkpt lat="43.1440005" lon="-2.8265519">
        <ele>151.405</ele>
        <time>2021-04-01T09:37:10.439Z</time>
      </trkpt>
      <trkpt lat="43.1439998" lon="-2.8265585">
        <ele>151.412</ele>
        <time>2021-04-01T09:37:10.494Z</time>
      </trkpt>
      <trkpt lat="43.1439991" lon="-2.8265649">
        <ele>151.401</ele>
        <time>2021-04-01T09:37:10.549Z</time>
      </trkpt>
      <trkpt lat="43.1439985" lon="-2.8265715">
        <ele>151.43</ele>
        <time>2021-04-01T09:37:10.604Z</time>
      </trkpt>
      <trkpt lat="43.1439979" lon="-2.8265783">
        <ele>151.457</ele>
        <time>2021-04-01T09:37:10.659Z</time>
      </trkpt>
      <trkpt lat="43.1439971" lon="-2.826585">
        <ele>151.491</ele>
        <time>2021-04-01T09:37:10.714Z</time>
      </trkpt>
      <trkpt lat="43.1439965" lon="-2.8265916">
        <ele>151.525</ele>
        <time>2021-04-01T09:37:10.769Z</time>
      </trkpt>
      <trkpt lat="43.1439959" lon="-2.8265982">
        <ele>151.558</ele>
        <time>2021-04-01T09:37:10.824Z</time>
      </trkpt>
      <trkpt lat="43.1439953" lon="-2.8266051">
        <ele>151.575</ele>
        <time>2021-04-01T09:37:10.879Z</time>
      </trkpt>
      <trkpt lat="43.1439946" lon="-2.8266118">
        <ele>151.588</ele>
        <time>2021-04-01T09:37:10.934Z</time>
      </trkpt>
      <trkpt lat="43.143994" lon="-2.8266187">
        <ele>151.613</ele>
        <time>2021-04-01T09:37:10.989Z</time>
      </trkpt>
      <trkpt lat="43.1439935" lon="-2.8266255">
        <ele>151.652</ele>
        <time>2021-04-01T09:37:11.044Z</time>
      </trkpt>
      <trkpt lat="43.1439929" lon="-2.826632">
        <ele>151.676</ele>
        <time>2021-04-01T09:37:11.096Z</time>
      </trkpt>
      <trkpt lat="43.1439923" lon="-2.8266383">
        <ele>151.74</ele>
        <time>2021-04-01T09:37:11.148Z</time>
      </trkpt>
      <trkpt lat="43.1439915" lon="-2.8266449">
        <ele>151.777</ele>
        <time>2021-04-01T09:37:11.200Z</time>
      </trkpt>
      <trkpt lat="43.143991" lon="-2.8266517">
        <ele>151.799</ele>
        <time>2021-04-01T09:37:11.252Z</time>
      </trkpt>
      <trkpt lat="43.1439903" lon="-2.8266582">
        <ele>151.816</ele>
        <time>2021-04-01T09:37:11.304Z</time>
      </trkpt>
      <trkpt lat="43.1439899" lon="-2.8266646">
        <ele>151.858</ele>
        <time>2021-04-01T09:37:11.356Z</time>
      </trkpt>
      <trkpt lat="43.1439895" lon="-2.8266713">
        <ele>151.871</ele>
        <time>2021-04-01T09:37:11.408Z</time>
      </trkpt>
      <trkpt lat="43.1439891" lon="-2.826678">
        <ele>151.838</ele>
        <time>2021-04-01T09:37:11.460Z</time>
      </trkpt>
      <trkpt lat="43.1439886" lon="-2.8266847">
        <ele>151.846</ele>
        <time>2021-04-01T09:37:11.512Z</time>
      </trkpt>
      <trkpt lat="43.1439879" lon="-2.8266914">
        <ele>151.865</ele>
        <time>2021-04-01T09:37:11.565Z</time>
      </trkpt>
      <trkpt lat="43.1439873" lon="-2.8266978">
        <ele>151.874</ele>
        <time>2021-04-01T09:37:11.617Z</time>
      </trkpt>
      <trkpt lat="43.1439866" lon="-2.8267041">
        <ele>151.893</ele>
        <time>2021-04-01T09:37:11.669Z</time>
      </trkpt>
      <trkpt lat="43.1439856" lon="-2.8267104">
        <ele>151.894</ele>
        <time>2021-04-01T09:37:11.721Z</time>
      </trkpt>
      <trkpt lat="43.1439848" lon="-2.8267169">
        <ele>151.861</ele>
        <time>2021-04-01T09:37:11.773Z</time>
      </trkpt>
      <trkpt lat="43.1439843" lon="-2.8267234">
        <ele>151.862</ele>
        <time>2021-04-01T09:37:11.825Z</time>
      </trkpt>
      <trkpt lat="43.1439835" lon="-2.8267295">
        <ele>151.871</ele>
        <time>2021-04-01T09:37:11.877Z</time>
      </trkpt>
      <trkpt lat="43.1439832" lon="-2.8267363">
        <ele>151.888</ele>
        <time>2021-04-01T09:37:11.929Z</time>
      </trkpt>
      <trkpt lat="43.1439827" lon="-2.8267431">
        <ele>151.906</ele>
        <time>2021-04-01T09:37:11.981Z</time>
      </trkpt>
      <trkpt lat="43.143982" lon="-2.8267496">
        <ele>151.894</ele>
        <time>2021-04-01T09:37:12.034Z</time>
      </trkpt>
      <trkpt lat="43.1439813" lon="-2.826756">
        <ele>151.889</ele>
        <time>2021-04-01T09:37:12.095Z</time>
      </trkpt>
      <trkpt lat="43.1439807" lon="-2.8267626">
        <ele>151.894</ele>
        <time>2021-04-01T09:37:12.156Z</time>
      </trkpt>
      <trkpt lat="43.1439802" lon="-2.8267691">
        <ele>151.902</ele>
        <time>2021-04-01T09:37:12.218Z</time>
      </trkpt>
      <trkpt lat="43.1439798" lon="-2.8267757">
        <ele>151.925</ele>
        <time>2021-04-01T09:37:12.279Z</time>
      </trkpt>
      <trkpt lat="43.1439791" lon="-2.8267819">
        <ele>151.907</ele>
        <time>2021-04-01T09:37:12.341Z</time>
      </trkpt>
      <trkpt lat="43.1439788" lon="-2.8267884">
        <ele>151.9</ele>
        <time>2021-04-01T09:37:12.402Z</time>
      </trkpt>
      <trkpt lat="43.1439783" lon="-2.8267949">
        <ele>151.893</ele>
        <time>2021-04-01T09:37:12.464Z</time>
      </trkpt>
      <trkpt lat="43.1439776" lon="-2.8268013">
        <ele>151.867</ele>
        <time>2021-04-01T09:37:12.525Z</time>
      </trkpt>
      <trkpt lat="43.1439772" lon="-2.8268077">
        <ele>151.852</ele>
        <time>2021-04-01T09:37:12.587Z</time>
      </trkpt>
      <trkpt lat="43.1439771" lon="-2.8268145">
        <ele>151.827</ele>
        <time>2021-04-01T09:37:12.648Z</time>
      </trkpt>
      <trkpt lat="43.1439767" lon="-2.8268209">
        <ele>151.83</ele>
        <time>2021-04-01T09:37:12.710Z</time>
      </trkpt>
      <trkpt lat="43.1439765" lon="-2.8268271">
        <ele>151.816</ele>
        <time>2021-04-01T09:37:12.771Z</time>
      </trkpt>
      <trkpt lat="43.143977" lon="-2.8268335">
        <ele>151.804</ele>
        <time>2021-04-01T09:37:12.833Z</time>
      </trkpt>
      <trkpt lat="43.1439769" lon="-2.8268401">
        <ele>151.801</ele>
        <time>2021-04-01T09:37:12.894Z</time>
      </trkpt>
      <trkpt lat="43.1439769" lon="-2.8268467">
        <ele>151.778</ele>
        <time>2021-04-01T09:37:12.956Z</time>
      </trkpt>
      <trkpt lat="43.1439764" lon="-2.8268531">
        <ele>151.788</ele>
        <time>2021-04-01T09:37:13.017Z</time>
      </trkpt>
      <trkpt lat="43.1439761" lon="-2.8268598">
        <ele>151.781</ele>
        <time>2021-04-01T09:37:13.079Z</time>
      </trkpt>
      <trkpt lat="43.1439764" lon="-2.8268666">
        <ele>151.831</ele>
        <time>2021-04-01T09:37:13.131Z</time>
      </trkpt>
      <trkpt lat="43.1439767" lon="-2.8268732">
        <ele>151.841</ele>
        <time>2021-04-01T09:37:13.183Z</time>
      </trkpt>
      <trkpt lat="43.1439768" lon="-2.8268796">
        <ele>151.841</ele>
        <time>2021-04-01T09:37:13.235Z</time>
      </trkpt>
      <trkpt lat="43.1439768" lon="-2.826886">
        <ele>151.834</ele>
        <time>2021-04-01T09:37:13.287Z</time>
      </trkpt>
      <trkpt lat="43.1439765" lon="-2.8268924">
        <ele>151.821</ele>
        <time>2021-04-01T09:37:13.339Z</time>
      </trkpt>
      <trkpt lat="43.1439766" lon="-2.8268991">
        <ele>151.849</ele>
        <time>2021-04-01T09:37:13.391Z</time>
      </trkpt>
      <trkpt lat="43.1439767" lon="-2.8269057">
        <ele>151.872</ele>
        <time>2021-04-01T09:37:13.443Z</time>
      </trkpt>
      <trkpt lat="43.1439772" lon="-2.8269128">
        <ele>151.922</ele>
        <time>2021-04-01T09:37:13.495Z</time>
      </trkpt>
      <trkpt lat="43.1439779" lon="-2.8269192">
        <ele>151.943</ele>
        <time>2021-04-01T09:37:13.547Z</time>
      </trkpt>
      <trkpt lat="43.1439785" lon="-2.8269257">
        <ele>151.94</ele>
        <time>2021-04-01T09:37:13.600Z</time>
      </trkpt>
      <trkpt lat="43.1439784" lon="-2.8269316">
        <ele>151.89</ele>
        <time>2021-04-01T09:37:13.652Z</time>
      </trkpt>
      <trkpt lat="43.1439783" lon="-2.8269377">
        <ele>151.864</ele>
        <time>2021-04-01T09:37:13.704Z</time>
      </trkpt>
      <trkpt lat="43.1439783" lon="-2.826944">
        <ele>151.85</ele>
        <time>2021-04-01T09:37:13.756Z</time>
      </trkpt>
      <trkpt lat="43.1439782" lon="-2.8269505">
        <ele>151.822</ele>
        <time>2021-04-01T09:37:13.808Z</time>
      </trkpt>
      <trkpt lat="43.1439784" lon="-2.826957">
        <ele>151.831</ele>
        <time>2021-04-01T09:37:13.860Z</time>
      </trkpt>
      <trkpt lat="43.1439784" lon="-2.8269635">
        <ele>151.832</ele>
        <time>2021-04-01T09:37:13.912Z</time>
      </trkpt>
      <trkpt lat="43.1439789" lon="-2.8269697">
        <ele>151.823</ele>
        <time>2021-04-01T09:37:13.964Z</time>
      </trkpt>
      <trkpt lat="43.1439792" lon="-2.826976">
        <ele>151.82</ele>
        <time>2021-04-01T09:37:14.016Z</time>
      </trkpt>
      <trkpt lat="43.1439793" lon="-2.8269823">
        <ele>151.82</ele>
        <time>2021-04-01T09:37:14.069Z</time>
      </trkpt>
      <trkpt lat="43.1439796" lon="-2.8269889">
        <ele>151.858</ele>
        <time>2021-04-01T09:37:14.121Z</time>
      </trkpt>
      <trkpt lat="43.1439798" lon="-2.8269955">
        <ele>151.889</ele>
        <time>2021-04-01T09:37:14.173Z</time>
      </trkpt>
      <trkpt lat="43.1439801" lon="-2.8270019">
        <ele>151.892</ele>
        <time>2021-04-01T09:37:14.225Z</time>
      </trkpt>
      <trkpt lat="43.1439804" lon="-2.8270083">
        <ele>151.911</ele>
        <time>2021-04-01T09:37:14.277Z</time>
      </trkpt>
      <trkpt lat="43.1439807" lon="-2.8270146">
        <ele>151.9</ele>
        <time>2021-04-01T09:37:14.329Z</time>
      </trkpt>
      <trkpt lat="43.143981" lon="-2.8270207">
        <ele>151.877</ele>
        <time>2021-04-01T09:37:14.381Z</time>
      </trkpt>
      <trkpt lat="43.1439813" lon="-2.8270269">
        <ele>151.879</ele>
        <time>2021-04-01T09:37:14.433Z</time>
      </trkpt>
      <trkpt lat="43.1439821" lon="-2.8270334">
        <ele>151.874</ele>
        <time>2021-04-01T09:37:14.485Z</time>
      </trkpt>
      <trkpt lat="43.1439828" lon="-2.8270398">
        <ele>151.871</ele>
        <time>2021-04-01T09:37:14.537Z</time>
      </trkpt>
      <trkpt lat="43.1439834" lon="-2.8270462">
        <ele>151.898</ele>
        <time>2021-04-01T09:37:14.590Z</time>
      </trkpt>
      <trkpt lat="43.1439842" lon="-2.8270527">
        <ele>151.919</ele>
        <time>2021-04-01T09:37:14.642Z</time>
      </trkpt>
      <trkpt lat="43.1439848" lon="-2.8270592">
        <ele>151.913</ele>
        <time>2021-04-01T09:37:14.694Z</time>
      </trkpt>
      <trkpt lat="43.1439855" lon="-2.8270657">
        <ele>151.905</ele>
        <time>2021-04-01T09:37:14.746Z</time>
      </trkpt>
      <trkpt lat="43.143986" lon="-2.8270723">
        <ele>151.905</ele>
        <time>2021-04-01T09:37:14.798Z</time>
      </trkpt>
      <trkpt lat="43.1439865" lon="-2.8270788">
        <ele>151.938</ele>
        <time>2021-04-01T09:37:14.850Z</time>
      </trkpt>
      <trkpt lat="43.1439875" lon="-2.8270852">
        <ele>151.958</ele>
        <time>2021-04-01T09:37:14.902Z</time>
      </trkpt>
      <trkpt lat="43.1439882" lon="-2.8270911">
        <ele>151.949</ele>
        <time>2021-04-01T09:37:14.954Z</time>
      </trkpt>
      <trkpt lat="43.1439889" lon="-2.8270972">
        <ele>151.928</ele>
        <time>2021-04-01T09:37:15.006Z</time>
      </trkpt>
      <trkpt lat="43.1439896" lon="-2.827103">
        <ele>151.894</ele>
        <time>2021-04-01T09:37:15.059Z</time>
      </trkpt>
      <trkpt lat="43.1439903" lon="-2.8271092">
        <ele>151.864</ele>
        <time>2021-04-01T09:37:15.114Z</time>
      </trkpt>
      <trkpt lat="43.143991" lon="-2.8271153">
        <ele>151.835</ele>
        <time>2021-04-01T09:37:15.169Z</time>
      </trkpt>
      <trkpt lat="43.1439918" lon="-2.8271213">
        <ele>151.807</ele>
        <time>2021-04-01T09:37:15.224Z</time>
      </trkpt>
      <trkpt lat="43.1439926" lon="-2.8271273">
        <ele>151.779</ele>
        <time>2021-04-01T09:37:15.279Z</time>
      </trkpt>
      <trkpt lat="43.1439936" lon="-2.8271333">
        <ele>151.761</ele>
        <time>2021-04-01T09:37:15.334Z</time>
      </trkpt>
      <trkpt lat="43.1439944" lon="-2.8271396">
        <ele>151.789</ele>
        <time>2021-04-01T09:37:15.389Z</time>
      </trkpt>
      <trkpt lat="43.1439951" lon="-2.8271458">
        <ele>151.807</ele>
        <time>2021-04-01T09:37:15.444Z</time>
      </trkpt>
      <trkpt lat="43.1439959" lon="-2.8271521">
        <ele>151.824</ele>
        <time>2021-04-01T09:37:15.499Z</time>
      </trkpt>
      <trkpt lat="43.143997" lon="-2.8271585">
        <ele>151.839</ele>
        <time>2021-04-01T09:37:15.554Z</time>
      </trkpt>
      <trkpt lat="43.1439978" lon="-2.8271649">
        <ele>151.872</ele>
        <time>2021-04-01T09:37:15.609Z</time>
      </trkpt>
      <trkpt lat="43.1439985" lon="-2.8271712">
        <ele>151.871</ele>
        <time>2021-04-01T09:37:15.664Z</time>
      </trkpt>
      <trkpt lat="43.1439993" lon="-2.8271775">
        <ele>151.868</ele>
        <time>2021-04-01T09:37:15.719Z</time>
      </trkpt>
      <trkpt lat="43.1440002" lon="-2.8271837">
        <ele>151.857</ele>
        <time>2021-04-01T09:37:15.774Z</time>
      </trkpt>
      <trkpt lat="43.1440012" lon="-2.8271899">
        <ele>151.884</ele>
        <time>2021-04-01T09:37:15.829Z</time>
      </trkpt>
      <trkpt lat="43.1440019" lon="-2.827196">
        <ele>151.896</ele>
        <time>2021-04-01T09:37:15.884Z</time>
      </trkpt>
      <trkpt lat="43.1440026" lon="-2.8272022">
        <ele>151.895</ele>
        <time>2021-04-01T09:37:15.939Z</time>
      </trkpt>
      <trkpt lat="43.1440034" lon="-2.8272083">
        <ele>151.9</ele>
        <time>2021-04-01T09:37:15.994Z</time>
      </trkpt>
      <trkpt lat="43.1440043" lon="-2.8272145">
        <ele>151.913</ele>
        <time>2021-04-01T09:37:16.049Z</time>
      </trkpt>
      <trkpt lat="43.1440051" lon="-2.8272208">
        <ele>151.914</ele>
        <time>2021-04-01T09:37:16.110Z</time>
      </trkpt>
      <trkpt lat="43.1440059" lon="-2.8272271">
        <ele>151.917</ele>
        <time>2021-04-01T09:37:16.171Z</time>
      </trkpt>
      <trkpt lat="43.1440066" lon="-2.8272332">
        <ele>151.94</ele>
        <time>2021-04-01T09:37:16.233Z</time>
      </trkpt>
      <trkpt lat="43.1440076" lon="-2.8272392">
        <ele>151.939</ele>
        <time>2021-04-01T09:37:16.294Z</time>
      </trkpt>
      <trkpt lat="43.1440083" lon="-2.8272452">
        <ele>151.951</ele>
        <time>2021-04-01T09:37:16.356Z</time>
      </trkpt>
      <trkpt lat="43.1440088" lon="-2.8272513">
        <ele>151.965</ele>
        <time>2021-04-01T09:37:16.417Z</time>
      </trkpt>
      <trkpt lat="43.1440098" lon="-2.8272574">
        <ele>151.978</ele>
        <time>2021-04-01T09:37:16.479Z</time>
      </trkpt>
      <trkpt lat="43.1440106" lon="-2.8272634">
        <ele>151.991</ele>
        <time>2021-04-01T09:37:16.540Z</time>
      </trkpt>
      <trkpt lat="43.1440112" lon="-2.8272694">
        <ele>151.983</ele>
        <time>2021-04-01T09:37:16.602Z</time>
      </trkpt>
      <trkpt lat="43.1440117" lon="-2.8272753">
        <ele>151.972</ele>
        <time>2021-04-01T09:37:16.663Z</time>
      </trkpt>
      <trkpt lat="43.1440124" lon="-2.8272815">
        <ele>151.992</ele>
        <time>2021-04-01T09:37:16.725Z</time>
      </trkpt>
      <trkpt lat="43.1440132" lon="-2.8272882">
        <ele>152.052</ele>
        <time>2021-04-01T09:37:16.786Z</time>
      </trkpt>
      <trkpt lat="43.1440139" lon="-2.827294">
        <ele>152.042</ele>
        <time>2021-04-01T09:37:16.848Z</time>
      </trkpt>
      <trkpt lat="43.1440145" lon="-2.8272999">
        <ele>152.045</ele>
        <time>2021-04-01T09:37:16.909Z</time>
      </trkpt>
      <trkpt lat="43.1440151" lon="-2.827306">
        <ele>152.071</ele>
        <time>2021-04-01T09:37:16.971Z</time>
      </trkpt>
      <trkpt lat="43.1440155" lon="-2.8273122">
        <ele>152.087</ele>
        <time>2021-04-01T09:37:17.032Z</time>
      </trkpt>
      <trkpt lat="43.1440161" lon="-2.8273181">
        <ele>152.091</ele>
        <time>2021-04-01T09:37:17.094Z</time>
      </trkpt>
      <trkpt lat="43.1440163" lon="-2.8273239">
        <ele>152.07</ele>
        <time>2021-04-01T09:37:17.146Z</time>
      </trkpt>
      <trkpt lat="43.1440166" lon="-2.8273299">
        <ele>152.069</ele>
        <time>2021-04-01T09:37:17.198Z</time>
      </trkpt>
      <trkpt lat="43.144017" lon="-2.8273355">
        <ele>152.038</ele>
        <time>2021-04-01T09:37:17.250Z</time>
      </trkpt>
      <trkpt lat="43.1440174" lon="-2.8273414">
        <ele>152.054</ele>
        <time>2021-04-01T09:37:17.302Z</time>
      </trkpt>
      <trkpt lat="43.1440176" lon="-2.8273473">
        <ele>152.053</ele>
        <time>2021-04-01T09:37:17.354Z</time>
      </trkpt>
      <trkpt lat="43.1440179" lon="-2.8273533">
        <ele>152.075</ele>
        <time>2021-04-01T09:37:17.406Z</time>
      </trkpt>
      <trkpt lat="43.1440182" lon="-2.8273595">
        <ele>152.121</ele>
        <time>2021-04-01T09:37:17.458Z</time>
      </trkpt>
      <trkpt lat="43.1440185" lon="-2.8273659">
        <ele>152.177</ele>
        <time>2021-04-01T09:37:17.510Z</time>
      </trkpt>
      <trkpt lat="43.1440188" lon="-2.8273722">
        <ele>152.205</ele>
        <time>2021-04-01T09:37:17.562Z</time>
      </trkpt>
      <trkpt lat="43.1440196" lon="-2.8273783">
        <ele>152.271</ele>
        <time>2021-04-01T09:37:17.615Z</time>
      </trkpt>
      <trkpt lat="43.1440198" lon="-2.8273843">
        <ele>152.311</ele>
        <time>2021-04-01T09:37:17.667Z</time>
      </trkpt>
      <trkpt lat="43.1440198" lon="-2.8273901">
        <ele>152.3</ele>
        <time>2021-04-01T09:37:17.719Z</time>
      </trkpt>
      <trkpt lat="43.14402" lon="-2.8273962">
        <ele>152.308</ele>
        <time>2021-04-01T09:37:17.771Z</time>
      </trkpt>
      <trkpt lat="43.1440203" lon="-2.8274025">
        <ele>152.353</ele>
        <time>2021-04-01T09:37:17.823Z</time>
      </trkpt>
      <trkpt lat="43.1440202" lon="-2.8274082">
        <ele>152.376</ele>
        <time>2021-04-01T09:37:17.875Z</time>
      </trkpt>
      <trkpt lat="43.1440203" lon="-2.8274144">
        <ele>152.396</ele>
        <time>2021-04-01T09:37:17.927Z</time>
      </trkpt>
      <trkpt lat="43.1440204" lon="-2.8274206">
        <ele>152.417</ele>
        <time>2021-04-01T09:37:17.979Z</time>
      </trkpt>
      <trkpt lat="43.1440203" lon="-2.8274265">
        <ele>152.42</ele>
        <time>2021-04-01T09:37:18.031Z</time>
      </trkpt>
      <trkpt lat="43.1440204" lon="-2.8274325">
        <ele>152.447</ele>
        <time>2021-04-01T09:37:18.084Z</time>
      </trkpt>
      <trkpt lat="43.1440204" lon="-2.8274385">
        <ele>152.436</ele>
        <time>2021-04-01T09:37:18.139Z</time>
      </trkpt>
      <trkpt lat="43.1440208" lon="-2.8274447">
        <ele>152.483</ele>
        <time>2021-04-01T09:37:18.194Z</time>
      </trkpt>
      <trkpt lat="43.1440209" lon="-2.8274507">
        <ele>152.522</ele>
        <time>2021-04-01T09:37:18.249Z</time>
      </trkpt>
      <trkpt lat="43.1440209" lon="-2.8274567">
        <ele>152.476</ele>
        <time>2021-04-01T09:37:18.304Z</time>
      </trkpt>
      <trkpt lat="43.1440208" lon="-2.8274628">
        <ele>152.507</ele>
        <time>2021-04-01T09:37:18.359Z</time>
      </trkpt>
      <trkpt lat="43.1440209" lon="-2.8274688">
        <ele>152.552</ele>
        <time>2021-04-01T09:37:18.414Z</time>
      </trkpt>
      <trkpt lat="43.1440209" lon="-2.8274747">
        <ele>152.558</ele>
        <time>2021-04-01T09:37:18.469Z</time>
      </trkpt>
      <trkpt lat="43.1440207" lon="-2.8274805">
        <ele>152.532</ele>
        <time>2021-04-01T09:37:18.524Z</time>
      </trkpt>
      <trkpt lat="43.1440207" lon="-2.8274864">
        <ele>152.56</ele>
        <time>2021-04-01T09:37:18.579Z</time>
      </trkpt>
      <trkpt lat="43.1440205" lon="-2.8274925">
        <ele>152.6</ele>
        <time>2021-04-01T09:37:18.634Z</time>
      </trkpt>
      <trkpt lat="43.1440202" lon="-2.8274985">
        <ele>152.629</ele>
        <time>2021-04-01T09:37:18.689Z</time>
      </trkpt>
      <trkpt lat="43.1440203" lon="-2.8275045">
        <ele>152.647</ele>
        <time>2021-04-01T09:37:18.744Z</time>
      </trkpt>
      <trkpt lat="43.1440197" lon="-2.82751">
        <ele>152.622</ele>
        <time>2021-04-01T09:37:18.799Z</time>
      </trkpt>
      <trkpt lat="43.144019" lon="-2.8275157">
        <ele>152.62</ele>
        <time>2021-04-01T09:37:18.854Z</time>
      </trkpt>
      <trkpt lat="43.1440185" lon="-2.8275217">
        <ele>152.64</ele>
        <time>2021-04-01T09:37:18.909Z</time>
      </trkpt>
      <trkpt lat="43.1440182" lon="-2.8275276">
        <ele>152.629</ele>
        <time>2021-04-01T09:37:18.964Z</time>
      </trkpt>
      <trkpt lat="43.1440177" lon="-2.8275334">
        <ele>152.617</ele>
        <time>2021-04-01T09:37:19.019Z</time>
      </trkpt>
      <trkpt lat="43.1440175" lon="-2.8275395">
        <ele>152.649</ele>
        <time>2021-04-01T09:37:19.074Z</time>
      </trkpt>
      <trkpt lat="43.1440171" lon="-2.8275456">
        <ele>152.683</ele>
        <time>2021-04-01T09:37:19.129Z</time>
      </trkpt>
      <trkpt lat="43.1440163" lon="-2.8275514">
        <ele>152.697</ele>
        <time>2021-04-01T09:37:19.184Z</time>
      </trkpt>
      <trkpt lat="43.1440156" lon="-2.8275571">
        <ele>152.674</ele>
        <time>2021-04-01T09:37:19.239Z</time>
      </trkpt>
      <trkpt lat="43.1440147" lon="-2.8275628">
        <ele>152.668</ele>
        <time>2021-04-01T09:37:19.294Z</time>
      </trkpt>
      <trkpt lat="43.1440141" lon="-2.8275685">
        <ele>152.684</ele>
        <time>2021-04-01T09:37:19.349Z</time>
      </trkpt>
      <trkpt lat="43.1440135" lon="-2.8275746">
        <ele>152.698</ele>
        <time>2021-04-01T09:37:19.404Z</time>
      </trkpt>
      <trkpt lat="43.1440126" lon="-2.8275802">
        <ele>152.668</ele>
        <time>2021-04-01T09:37:19.459Z</time>
      </trkpt>
      <trkpt lat="43.1440114" lon="-2.8275858">
        <ele>152.695</ele>
        <time>2021-04-01T09:37:19.514Z</time>
      </trkpt>
      <trkpt lat="43.1440106" lon="-2.8275916">
        <ele>152.677</ele>
        <time>2021-04-01T09:37:19.569Z</time>
      </trkpt>
      <trkpt lat="43.14401" lon="-2.8275975">
        <ele>152.681</ele>
        <time>2021-04-01T09:37:19.624Z</time>
      </trkpt>
      <trkpt lat="43.1440091" lon="-2.8276032">
        <ele>152.647</ele>
        <time>2021-04-01T09:37:19.679Z</time>
      </trkpt>
      <trkpt lat="43.1440082" lon="-2.8276088">
        <ele>152.642</ele>
        <time>2021-04-01T09:37:19.734Z</time>
      </trkpt>
      <trkpt lat="43.1440077" lon="-2.8276146">
        <ele>152.637</ele>
        <time>2021-04-01T09:37:19.789Z</time>
      </trkpt>
      <trkpt lat="43.1440072" lon="-2.8276206">
        <ele>152.648</ele>
        <time>2021-04-01T09:37:19.844Z</time>
      </trkpt>
      <trkpt lat="43.1440065" lon="-2.8276265">
        <ele>152.687</ele>
        <time>2021-04-01T09:37:19.899Z</time>
      </trkpt>
      <trkpt lat="43.1440058" lon="-2.8276321">
        <ele>152.679</ele>
        <time>2021-04-01T09:37:19.954Z</time>
      </trkpt>
      <trkpt lat="43.1440052" lon="-2.8276379">
        <ele>152.679</ele>
        <time>2021-04-01T09:37:20.009Z</time>
      </trkpt>
      <trkpt lat="43.1440047" lon="-2.8276438">
        <ele>152.701</ele>
        <time>2021-04-01T09:37:20.064Z</time>
      </trkpt>
      <trkpt lat="43.1440038" lon="-2.8276494">
        <ele>152.71</ele>
        <time>2021-04-01T09:37:20.119Z</time>
      </trkpt>
      <trkpt lat="43.1440032" lon="-2.8276552">
        <ele>152.737</ele>
        <time>2021-04-01T09:37:20.174Z</time>
      </trkpt>
      <trkpt lat="43.1440024" lon="-2.8276609">
        <ele>152.687</ele>
        <time>2021-04-01T09:37:20.229Z</time>
      </trkpt>
      <trkpt lat="43.1440014" lon="-2.8276663">
        <ele>152.662</ele>
        <time>2021-04-01T09:37:20.284Z</time>
      </trkpt>
      <trkpt lat="43.1440005" lon="-2.827672">
        <ele>152.662</ele>
        <time>2021-04-01T09:37:20.339Z</time>
      </trkpt>
      <trkpt lat="43.1439998" lon="-2.8276775">
        <ele>152.664</ele>
        <time>2021-04-01T09:37:20.394Z</time>
      </trkpt>
      <trkpt lat="43.143999" lon="-2.8276831">
        <ele>152.663</ele>
        <time>2021-04-01T09:37:20.449Z</time>
      </trkpt>
      <trkpt lat="43.1439982" lon="-2.8276887">
        <ele>152.647</ele>
        <time>2021-04-01T09:37:20.504Z</time>
      </trkpt>
      <trkpt lat="43.1439974" lon="-2.8276946">
        <ele>152.619</ele>
        <time>2021-04-01T09:37:20.559Z</time>
      </trkpt>
      <trkpt lat="43.1439968" lon="-2.8277003">
        <ele>152.611</ele>
        <time>2021-04-01T09:37:20.614Z</time>
      </trkpt>
      <trkpt lat="43.1439961" lon="-2.8277062">
        <ele>152.613</ele>
        <time>2021-04-01T09:37:20.669Z</time>
      </trkpt>
      <trkpt lat="43.1439956" lon="-2.8277122">
        <ele>152.606</ele>
        <time>2021-04-01T09:37:20.724Z</time>
      </trkpt>
      <trkpt lat="43.1439946" lon="-2.8277178">
        <ele>152.612</ele>
        <time>2021-04-01T09:37:20.779Z</time>
      </trkpt>
      <trkpt lat="43.1439939" lon="-2.8277238">
        <ele>152.622</ele>
        <time>2021-04-01T09:37:20.834Z</time>
      </trkpt>
      <trkpt lat="43.1439928" lon="-2.8277294">
        <ele>152.592</ele>
        <time>2021-04-01T09:37:20.889Z</time>
      </trkpt>
      <trkpt lat="43.1439921" lon="-2.8277354">
        <ele>152.562</ele>
        <time>2021-04-01T09:37:20.944Z</time>
      </trkpt>
      <trkpt lat="43.1439914" lon="-2.8277412">
        <ele>152.581</ele>
        <time>2021-04-01T09:37:20.999Z</time>
      </trkpt>
      <trkpt lat="43.1439905" lon="-2.8277468">
        <ele>152.572</ele>
        <time>2021-04-01T09:37:21.054Z</time>
      </trkpt>
      <trkpt lat="43.1439897" lon="-2.8277525">
        <ele>152.548</ele>
        <time>2021-04-01T09:37:21.109Z</time>
      </trkpt>
      <trkpt lat="43.1439891" lon="-2.8277587">
        <ele>152.53</ele>
        <time>2021-04-01T09:37:21.164Z</time>
      </trkpt>
      <trkpt lat="43.1439883" lon="-2.8277647">
        <ele>152.531</ele>
        <time>2021-04-01T09:37:21.219Z</time>
      </trkpt>
      <trkpt lat="43.1439875" lon="-2.8277707">
        <ele>152.535</ele>
        <time>2021-04-01T09:37:21.274Z</time>
      </trkpt>
      <trkpt lat="43.1439867" lon="-2.8277766">
        <ele>152.541</ele>
        <time>2021-04-01T09:37:21.329Z</time>
      </trkpt>
      <trkpt lat="43.143986" lon="-2.8277827">
        <ele>152.553</ele>
        <time>2021-04-01T09:37:21.384Z</time>
      </trkpt>
      <trkpt lat="43.1439848" lon="-2.8277886">
        <ele>152.533</ele>
        <time>2021-04-01T09:37:21.439Z</time>
      </trkpt>
      <trkpt lat="43.1439838" lon="-2.8277944">
        <ele>152.523</ele>
        <time>2021-04-01T09:37:21.494Z</time>
      </trkpt>
      <trkpt lat="43.1439827" lon="-2.8277999">
        <ele>152.499</ele>
        <time>2021-04-01T09:37:21.549Z</time>
      </trkpt>
      <trkpt lat="43.1439818" lon="-2.8278056">
        <ele>152.479</ele>
        <time>2021-04-01T09:37:21.604Z</time>
      </trkpt>
      <trkpt lat="43.1439807" lon="-2.8278113">
        <ele>152.482</ele>
        <time>2021-04-01T09:37:21.659Z</time>
      </trkpt>
      <trkpt lat="43.1439797" lon="-2.8278175">
        <ele>152.482</ele>
        <time>2021-04-01T09:37:21.714Z</time>
      </trkpt>
      <trkpt lat="43.1439786" lon="-2.8278233">
        <ele>152.473</ele>
        <time>2021-04-01T09:37:21.769Z</time>
      </trkpt>
      <trkpt lat="43.1439773" lon="-2.827829">
        <ele>152.449</ele>
        <time>2021-04-01T09:37:21.824Z</time>
      </trkpt>
      <trkpt lat="43.1439765" lon="-2.827835">
        <ele>152.424</ele>
        <time>2021-04-01T09:37:21.879Z</time>
      </trkpt>
      <trkpt lat="43.1439752" lon="-2.8278407">
        <ele>152.416</ele>
        <time>2021-04-01T09:37:21.934Z</time>
      </trkpt>
      <trkpt lat="43.1439741" lon="-2.8278465">
        <ele>152.41</ele>
        <time>2021-04-01T09:37:21.989Z</time>
      </trkpt>
      <trkpt lat="43.1439729" lon="-2.8278524">
        <ele>152.375</ele>
        <time>2021-04-01T09:37:22.044Z</time>
      </trkpt>
      <trkpt lat="43.1439718" lon="-2.8278582">
        <ele>152.371</ele>
        <time>2021-04-01T09:37:22.099Z</time>
      </trkpt>
      <trkpt lat="43.1439707" lon="-2.8278643">
        <ele>152.354</ele>
        <time>2021-04-01T09:37:22.150Z</time>
      </trkpt>
      <trkpt lat="43.1439696" lon="-2.8278701">
        <ele>152.331</ele>
        <time>2021-04-01T09:37:22.202Z</time>
      </trkpt>
      <trkpt lat="43.1439691" lon="-2.8278764">
        <ele>152.309</ele>
        <time>2021-04-01T09:37:22.254Z</time>
      </trkpt>
      <trkpt lat="43.1439688" lon="-2.8278825">
        <ele>152.29</ele>
        <time>2021-04-01T09:37:22.306Z</time>
      </trkpt>
      <trkpt lat="43.1439676" lon="-2.8278882">
        <ele>152.286</ele>
        <time>2021-04-01T09:37:22.358Z</time>
      </trkpt>
      <trkpt lat="43.1439661" lon="-2.8278942">
        <ele>152.291</ele>
        <time>2021-04-01T09:37:22.410Z</time>
      </trkpt>
      <trkpt lat="43.1439643" lon="-2.8278993">
        <ele>152.231</ele>
        <time>2021-04-01T09:37:22.462Z</time>
      </trkpt>
      <trkpt lat="43.1439631" lon="-2.8279047">
        <ele>152.167</ele>
        <time>2021-04-01T09:37:22.514Z</time>
      </trkpt>
      <trkpt lat="43.143962" lon="-2.8279104">
        <ele>152.145</ele>
        <time>2021-04-01T09:37:22.566Z</time>
      </trkpt>
      <trkpt lat="43.1439608" lon="-2.8279161">
        <ele>152.114</ele>
        <time>2021-04-01T09:37:22.618Z</time>
      </trkpt>
      <trkpt lat="43.1439594" lon="-2.8279216">
        <ele>152.073</ele>
        <time>2021-04-01T09:37:22.670Z</time>
      </trkpt>
      <trkpt lat="43.1439578" lon="-2.8279269">
        <ele>152.031</ele>
        <time>2021-04-01T09:37:22.722Z</time>
      </trkpt>
      <trkpt lat="43.1439567" lon="-2.8279325">
        <ele>151.995</ele>
        <time>2021-04-01T09:37:22.774Z</time>
      </trkpt>
      <trkpt lat="43.1439557" lon="-2.8279381">
        <ele>151.973</ele>
        <time>2021-04-01T09:37:22.826Z</time>
      </trkpt>
      <trkpt lat="43.1439547" lon="-2.8279438">
        <ele>151.957</ele>
        <time>2021-04-01T09:37:22.878Z</time>
      </trkpt>
      <trkpt lat="43.1439535" lon="-2.8279498">
        <ele>151.916</ele>
        <time>2021-04-01T09:37:22.930Z</time>
      </trkpt>
      <trkpt lat="43.1439525" lon="-2.8279557">
        <ele>151.897</ele>
        <time>2021-04-01T09:37:22.982Z</time>
      </trkpt>
      <trkpt lat="43.1439514" lon="-2.8279616">
        <ele>151.885</ele>
        <time>2021-04-01T09:37:23.034Z</time>
      </trkpt>
      <trkpt lat="43.1439504" lon="-2.8279676">
        <ele>151.895</ele>
        <time>2021-04-01T09:37:23.092Z</time>
      </trkpt>
      <trkpt lat="43.1439497" lon="-2.8279737">
        <ele>151.872</ele>
        <time>2021-04-01T09:37:23.150Z</time>
      </trkpt>
      <trkpt lat="43.1439489" lon="-2.8279797">
        <ele>151.858</ele>
        <time>2021-04-01T09:37:23.208Z</time>
      </trkpt>
      <trkpt lat="43.1439483" lon="-2.8279857">
        <ele>151.838</ele>
        <time>2021-04-01T09:37:23.266Z</time>
      </trkpt>
      <trkpt lat="43.1439473" lon="-2.8279913">
        <ele>151.825</ele>
        <time>2021-04-01T09:37:23.324Z</time>
      </trkpt>
      <trkpt lat="43.1439469" lon="-2.8279972">
        <ele>151.799</ele>
        <time>2021-04-01T09:37:23.382Z</time>
      </trkpt>
      <trkpt lat="43.1439465" lon="-2.8280029">
        <ele>151.777</ele>
        <time>2021-04-01T09:37:23.440Z</time>
      </trkpt>
      <trkpt lat="43.1439459" lon="-2.8280087">
        <ele>151.734</ele>
        <time>2021-04-01T09:37:23.498Z</time>
      </trkpt>
      <trkpt lat="43.1439455" lon="-2.8280147">
        <ele>151.718</ele>
        <time>2021-04-01T09:37:23.556Z</time>
      </trkpt>
      <trkpt lat="43.1439447" lon="-2.8280207">
        <ele>151.689</ele>
        <time>2021-04-01T09:37:23.614Z</time>
      </trkpt>
      <trkpt lat="43.1439447" lon="-2.8280267">
        <ele>151.677</ele>
        <time>2021-04-01T09:37:23.672Z</time>
      </trkpt>
      <trkpt lat="43.1439444" lon="-2.8280326">
        <ele>151.655</ele>
        <time>2021-04-01T09:37:23.730Z</time>
      </trkpt>
      <trkpt lat="43.1439438" lon="-2.8280383">
        <ele>151.633</ele>
        <time>2021-04-01T09:37:23.788Z</time>
      </trkpt>
      <trkpt lat="43.1439435" lon="-2.8280443">
        <ele>151.597</ele>
        <time>2021-04-01T09:37:23.846Z</time>
      </trkpt>
      <trkpt lat="43.1439431" lon="-2.8280502">
        <ele>151.578</ele>
        <time>2021-04-01T09:37:23.904Z</time>
      </trkpt>
      <trkpt lat="43.143943" lon="-2.8280563">
        <ele>151.579</ele>
        <time>2021-04-01T09:37:23.962Z</time>
      </trkpt>
      <trkpt lat="43.1439426" lon="-2.8280622">
        <ele>151.556</ele>
        <time>2021-04-01T09:37:24.020Z</time>
      </trkpt>
      <trkpt lat="43.1439425" lon="-2.8280682">
        <ele>151.549</ele>
        <time>2021-04-01T09:37:24.079Z</time>
      </trkpt>
      <trkpt lat="43.1439424" lon="-2.8280741">
        <ele>151.533</ele>
        <time>2021-04-01T09:37:24.134Z</time>
      </trkpt>
      <trkpt lat="43.1439423" lon="-2.8280804">
        <ele>151.532</ele>
        <time>2021-04-01T09:37:24.189Z</time>
      </trkpt>
      <trkpt lat="43.1439424" lon="-2.8280865">
        <ele>151.548</ele>
        <time>2021-04-01T09:37:24.244Z</time>
      </trkpt>
      <trkpt lat="43.1439424" lon="-2.8280926">
        <ele>151.527</ele>
        <time>2021-04-01T09:37:24.299Z</time>
      </trkpt>
      <trkpt lat="43.1439424" lon="-2.8280985">
        <ele>151.488</ele>
        <time>2021-04-01T09:37:24.354Z</time>
      </trkpt>
      <trkpt lat="43.1439427" lon="-2.8281044">
        <ele>151.473</ele>
        <time>2021-04-01T09:37:24.409Z</time>
      </trkpt>
      <trkpt lat="43.1439432" lon="-2.8281103">
        <ele>151.462</ele>
        <time>2021-04-01T09:37:24.464Z</time>
      </trkpt>
      <trkpt lat="43.1439435" lon="-2.8281164">
        <ele>151.475</ele>
        <time>2021-04-01T09:37:24.519Z</time>
      </trkpt>
      <trkpt lat="43.1439439" lon="-2.8281231">
        <ele>151.48</ele>
        <time>2021-04-01T09:37:24.574Z</time>
      </trkpt>
      <trkpt lat="43.1439442" lon="-2.8281294">
        <ele>151.454</ele>
        <time>2021-04-01T09:37:24.629Z</time>
      </trkpt>
      <trkpt lat="43.1439445" lon="-2.8281352">
        <ele>151.423</ele>
        <time>2021-04-01T09:37:24.684Z</time>
      </trkpt>
      <trkpt lat="43.1439449" lon="-2.8281408">
        <ele>151.384</ele>
        <time>2021-04-01T09:37:24.739Z</time>
      </trkpt>
      <trkpt lat="43.1439456" lon="-2.8281467">
        <ele>151.355</ele>
        <time>2021-04-01T09:37:24.794Z</time>
      </trkpt>
      <trkpt lat="43.143946" lon="-2.8281527">
        <ele>151.34</ele>
        <time>2021-04-01T09:37:24.849Z</time>
      </trkpt>
      <trkpt lat="43.1439463" lon="-2.8281587">
        <ele>151.32</ele>
        <time>2021-04-01T09:37:24.904Z</time>
      </trkpt>
      <trkpt lat="43.143947" lon="-2.8281649">
        <ele>151.323</ele>
        <time>2021-04-01T09:37:24.959Z</time>
      </trkpt>
      <trkpt lat="43.1439476" lon="-2.828171">
        <ele>151.329</ele>
        <time>2021-04-01T09:37:25.014Z</time>
      </trkpt>
      <trkpt lat="43.1439486" lon="-2.8281772">
        <ele>151.311</ele>
        <time>2021-04-01T09:37:25.069Z</time>
      </trkpt>
      <trkpt lat="43.1439496" lon="-2.8281831">
        <ele>151.29</ele>
        <time>2021-04-01T09:37:25.124Z</time>
      </trkpt>
      <trkpt lat="43.1439502" lon="-2.8281891">
        <ele>151.273</ele>
        <time>2021-04-01T09:37:25.179Z</time>
      </trkpt>
      <trkpt lat="43.1439511" lon="-2.8281953">
        <ele>151.281</ele>
        <time>2021-04-01T09:37:25.234Z</time>
      </trkpt>
      <trkpt lat="43.143952" lon="-2.8282013">
        <ele>151.262</ele>
        <time>2021-04-01T09:37:25.289Z</time>
      </trkpt>
      <trkpt lat="43.1439532" lon="-2.8282074">
        <ele>151.239</ele>
        <time>2021-04-01T09:37:25.344Z</time>
      </trkpt>
      <trkpt lat="43.143954" lon="-2.8282134">
        <ele>151.224</ele>
        <time>2021-04-01T09:37:25.399Z</time>
      </trkpt>
      <trkpt lat="43.1439551" lon="-2.8282191">
        <ele>151.171</ele>
        <time>2021-04-01T09:37:25.454Z</time>
      </trkpt>
      <trkpt lat="43.143956" lon="-2.828225">
        <ele>151.162</ele>
        <time>2021-04-01T09:37:25.509Z</time>
      </trkpt>
      <trkpt lat="43.1439567" lon="-2.8282311">
        <ele>151.141</ele>
        <time>2021-04-01T09:37:25.564Z</time>
      </trkpt>
      <trkpt lat="43.1439579" lon="-2.8282371">
        <ele>151.132</ele>
        <time>2021-04-01T09:37:25.619Z</time>
      </trkpt>
      <trkpt lat="43.143959" lon="-2.8282432">
        <ele>151.115</ele>
        <time>2021-04-01T09:37:25.674Z</time>
      </trkpt>
      <trkpt lat="43.14396" lon="-2.8282492">
        <ele>151.106</ele>
        <time>2021-04-01T09:37:25.729Z</time>
      </trkpt>
      <trkpt lat="43.1439612" lon="-2.8282554">
        <ele>151.121</ele>
        <time>2021-04-01T09:37:25.784Z</time>
      </trkpt>
      <trkpt lat="43.1439626" lon="-2.8282618">
        <ele>151.143</ele>
        <time>2021-04-01T09:37:25.839Z</time>
      </trkpt>
      <trkpt lat="43.1439636" lon="-2.8282679">
        <ele>151.174</ele>
        <time>2021-04-01T09:37:25.894Z</time>
      </trkpt>
      <trkpt lat="43.1439646" lon="-2.8282739">
        <ele>151.178</ele>
        <time>2021-04-01T09:37:25.949Z</time>
      </trkpt>
      <trkpt lat="43.1439655" lon="-2.8282793">
        <ele>151.14</ele>
        <time>2021-04-01T09:37:26.004Z</time>
      </trkpt>
      <trkpt lat="43.1439669" lon="-2.8282857">
        <ele>151.201</ele>
        <time>2021-04-01T09:37:26.059Z</time>
      </trkpt>
      <trkpt lat="43.1439683" lon="-2.8282919">
        <ele>151.205</ele>
        <time>2021-04-01T09:37:26.111Z</time>
      </trkpt>
      <trkpt lat="43.1439695" lon="-2.8282979">
        <ele>151.225</ele>
        <time>2021-04-01T09:37:26.163Z</time>
      </trkpt>
      <trkpt lat="43.1439705" lon="-2.8283038">
        <ele>151.211</ele>
        <time>2021-04-01T09:37:26.215Z</time>
      </trkpt>
      <trkpt lat="43.1439717" lon="-2.8283093">
        <ele>151.172</ele>
        <time>2021-04-01T09:37:26.267Z</time>
      </trkpt>
      <trkpt lat="43.1439732" lon="-2.8283152">
        <ele>151.188</ele>
        <time>2021-04-01T09:37:26.319Z</time>
      </trkpt>
      <trkpt lat="43.1439746" lon="-2.8283211">
        <ele>151.206</ele>
        <time>2021-04-01T09:37:26.371Z</time>
      </trkpt>
      <trkpt lat="43.1439761" lon="-2.8283272">
        <ele>151.188</ele>
        <time>2021-04-01T09:37:26.423Z</time>
      </trkpt>
      <trkpt lat="43.1439775" lon="-2.8283331">
        <ele>151.187</ele>
        <time>2021-04-01T09:37:26.475Z</time>
      </trkpt>
      <trkpt lat="43.1439792" lon="-2.828339">
        <ele>151.207</ele>
        <time>2021-04-01T09:37:26.527Z</time>
      </trkpt>
      <trkpt lat="43.1439808" lon="-2.8283453">
        <ele>151.215</ele>
        <time>2021-04-01T09:37:26.580Z</time>
      </trkpt>
      <trkpt lat="43.1439824" lon="-2.8283513">
        <ele>151.218</ele>
        <time>2021-04-01T09:37:26.632Z</time>
      </trkpt>
      <trkpt lat="43.1439841" lon="-2.8283571">
        <ele>151.221</ele>
        <time>2021-04-01T09:37:26.684Z</time>
      </trkpt>
      <trkpt lat="43.1439859" lon="-2.828363">
        <ele>151.25</ele>
        <time>2021-04-01T09:37:26.736Z</time>
      </trkpt>
      <trkpt lat="43.1439879" lon="-2.8283688">
        <ele>151.246</ele>
        <time>2021-04-01T09:37:26.788Z</time>
      </trkpt>
      <trkpt lat="43.1439899" lon="-2.8283747">
        <ele>151.275</ele>
        <time>2021-04-01T09:37:26.840Z</time>
      </trkpt>
      <trkpt lat="43.1439919" lon="-2.8283806">
        <ele>151.296</ele>
        <time>2021-04-01T09:37:26.892Z</time>
      </trkpt>
      <trkpt lat="43.1439939" lon="-2.8283864">
        <ele>151.303</ele>
        <time>2021-04-01T09:37:26.944Z</time>
      </trkpt>
      <trkpt lat="43.1439958" lon="-2.828392">
        <ele>151.294</ele>
        <time>2021-04-01T09:37:26.996Z</time>
      </trkpt>
      <trkpt lat="43.143998" lon="-2.8283978">
        <ele>151.306</ele>
        <time>2021-04-01T09:37:27.049Z</time>
      </trkpt>
      <trkpt lat="43.144" lon="-2.8284035">
        <ele>151.305</ele>
        <time>2021-04-01T09:37:27.107Z</time>
      </trkpt>
      <trkpt lat="43.1440024" lon="-2.8284094">
        <ele>151.347</ele>
        <time>2021-04-01T09:37:27.165Z</time>
      </trkpt>
      <trkpt lat="43.1440048" lon="-2.8284153">
        <ele>151.377</ele>
        <time>2021-04-01T09:37:27.223Z</time>
      </trkpt>
      <trkpt lat="43.1440073" lon="-2.8284211">
        <ele>151.405</ele>
        <time>2021-04-01T09:37:27.281Z</time>
      </trkpt>
      <trkpt lat="43.1440099" lon="-2.8284268">
        <ele>151.453</ele>
        <time>2021-04-01T09:37:27.339Z</time>
      </trkpt>
      <trkpt lat="43.1440122" lon="-2.8284327">
        <ele>151.475</ele>
        <time>2021-04-01T09:37:27.397Z</time>
      </trkpt>
      <trkpt lat="43.1440148" lon="-2.8284386">
        <ele>151.523</ele>
        <time>2021-04-01T09:37:27.455Z</time>
      </trkpt>
      <trkpt lat="43.1440173" lon="-2.8284441">
        <ele>151.535</ele>
        <time>2021-04-01T09:37:27.513Z</time>
      </trkpt>
      <trkpt lat="43.1440198" lon="-2.8284496">
        <ele>151.524</ele>
        <time>2021-04-01T09:37:27.571Z</time>
      </trkpt>
      <trkpt lat="43.1440222" lon="-2.8284546">
        <ele>151.498</ele>
        <time>2021-04-01T09:37:27.629Z</time>
      </trkpt>
      <trkpt lat="43.1440248" lon="-2.8284602">
        <ele>151.52</ele>
        <time>2021-04-01T09:37:27.687Z</time>
      </trkpt>
      <trkpt lat="43.1440274" lon="-2.8284656">
        <ele>151.552</ele>
        <time>2021-04-01T09:37:27.745Z</time>
      </trkpt>
      <trkpt lat="43.1440301" lon="-2.828471">
        <ele>151.558</ele>
        <time>2021-04-01T09:37:27.803Z</time>
      </trkpt>
      <trkpt lat="43.1440327" lon="-2.8284762">
        <ele>151.519</ele>
        <time>2021-04-01T09:37:27.861Z</time>
      </trkpt>
      <trkpt lat="43.1440352" lon="-2.8284811">
        <ele>151.5</ele>
        <time>2021-04-01T09:37:27.919Z</time>
      </trkpt>
      <trkpt lat="43.1440379" lon="-2.8284863">
        <ele>151.531</ele>
        <time>2021-04-01T09:37:27.977Z</time>
      </trkpt>
      <trkpt lat="43.1440403" lon="-2.8284917">
        <ele>151.501</ele>
        <time>2021-04-01T09:37:28.035Z</time>
      </trkpt>
      <trkpt lat="43.1440431" lon="-2.8284972">
        <ele>151.541</ele>
        <time>2021-04-01T09:37:28.094Z</time>
      </trkpt>
      <trkpt lat="43.144046" lon="-2.8285021">
        <ele>151.557</ele>
        <time>2021-04-01T09:37:28.149Z</time>
      </trkpt>
      <trkpt lat="43.144049" lon="-2.8285071">
        <ele>151.584</ele>
        <time>2021-04-01T09:37:28.204Z</time>
      </trkpt>
      <trkpt lat="43.1440519" lon="-2.8285125">
        <ele>151.598</ele>
        <time>2021-04-01T09:37:28.259Z</time>
      </trkpt>
      <trkpt lat="43.1440545" lon="-2.8285174">
        <ele>151.589</ele>
        <time>2021-04-01T09:37:28.314Z</time>
      </trkpt>
      <trkpt lat="43.1440572" lon="-2.8285225">
        <ele>151.604</ele>
        <time>2021-04-01T09:37:28.369Z</time>
      </trkpt>
      <trkpt lat="43.1440601" lon="-2.8285275">
        <ele>151.602</ele>
        <time>2021-04-01T09:37:28.424Z</time>
      </trkpt>
      <trkpt lat="43.1440629" lon="-2.8285326">
        <ele>151.595</ele>
        <time>2021-04-01T09:37:28.479Z</time>
      </trkpt>
      <trkpt lat="43.1440659" lon="-2.8285377">
        <ele>151.629</ele>
        <time>2021-04-01T09:37:28.534Z</time>
      </trkpt>
      <trkpt lat="43.1440692" lon="-2.8285427">
        <ele>151.682</ele>
        <time>2021-04-01T09:37:28.589Z</time>
      </trkpt>
      <trkpt lat="43.1440723" lon="-2.8285475">
        <ele>151.686</ele>
        <time>2021-04-01T09:37:28.644Z</time>
      </trkpt>
      <trkpt lat="43.144075" lon="-2.8285522">
        <ele>151.678</ele>
        <time>2021-04-01T09:37:28.699Z</time>
      </trkpt>
      <trkpt lat="43.1440778" lon="-2.8285572">
        <ele>151.69</ele>
        <time>2021-04-01T09:37:28.754Z</time>
      </trkpt>
      <trkpt lat="43.144081" lon="-2.8285622">
        <ele>151.757</ele>
        <time>2021-04-01T09:37:28.809Z</time>
      </trkpt>
      <trkpt lat="43.1440842" lon="-2.8285669">
        <ele>151.805</ele>
        <time>2021-04-01T09:37:28.864Z</time>
      </trkpt>
      <trkpt lat="43.1440875" lon="-2.828572">
        <ele>151.846</ele>
        <time>2021-04-01T09:37:28.919Z</time>
      </trkpt>
      <trkpt lat="43.1440913" lon="-2.828577">
        <ele>151.951</ele>
        <time>2021-04-01T09:37:28.974Z</time>
      </trkpt>
      <trkpt lat="43.1440943" lon="-2.8285816">
        <ele>151.923</ele>
        <time>2021-04-01T09:37:29.029Z</time>
      </trkpt>
      <trkpt lat="43.1440974" lon="-2.8285859">
        <ele>151.942</ele>
        <time>2021-04-01T09:37:29.084Z</time>
      </trkpt>
      <trkpt lat="43.1441007" lon="-2.8285908">
        <ele>151.984</ele>
        <time>2021-04-01T09:37:29.139Z</time>
      </trkpt>
      <trkpt lat="43.144104" lon="-2.8285958">
        <ele>152.025</ele>
        <time>2021-04-01T09:37:29.194Z</time>
      </trkpt>
      <trkpt lat="43.1441072" lon="-2.8286009">
        <ele>152.076</ele>
        <time>2021-04-01T09:37:29.249Z</time>
      </trkpt>
      <trkpt lat="43.1441106" lon="-2.8286058">
        <ele>152.147</ele>
        <time>2021-04-01T09:37:29.304Z</time>
      </trkpt>
      <trkpt lat="43.1441139" lon="-2.8286108">
        <ele>152.186</ele>
        <time>2021-04-01T09:37:29.359Z</time>
      </trkpt>
      <trkpt lat="43.1441167" lon="-2.8286156">
        <ele>152.165</ele>
        <time>2021-04-01T09:37:29.414Z</time>
      </trkpt>
      <trkpt lat="43.1441198" lon="-2.8286204">
        <ele>152.211</ele>
        <time>2021-04-01T09:37:29.469Z</time>
      </trkpt>
      <trkpt lat="43.144123" lon="-2.8286251">
        <ele>152.246</ele>
        <time>2021-04-01T09:37:29.524Z</time>
      </trkpt>
      <trkpt lat="43.1441262" lon="-2.8286292">
        <ele>152.265</ele>
        <time>2021-04-01T09:37:29.579Z</time>
      </trkpt>
      <trkpt lat="43.1441295" lon="-2.8286335">
        <ele>152.277</ele>
        <time>2021-04-01T09:37:29.634Z</time>
      </trkpt>
      <trkpt lat="43.144133" lon="-2.8286376">
        <ele>152.289</ele>
        <time>2021-04-01T09:37:29.689Z</time>
      </trkpt>
      <trkpt lat="43.1441364" lon="-2.8286418">
        <ele>152.304</ele>
        <time>2021-04-01T09:37:29.744Z</time>
      </trkpt>
      <trkpt lat="43.1441397" lon="-2.8286458">
        <ele>152.324</ele>
        <time>2021-04-01T09:37:29.799Z</time>
      </trkpt>
      <trkpt lat="43.1441429" lon="-2.8286504">
        <ele>152.37</ele>
        <time>2021-04-01T09:37:29.854Z</time>
      </trkpt>
      <trkpt lat="43.1441462" lon="-2.8286554">
        <ele>152.421</ele>
        <time>2021-04-01T09:37:29.909Z</time>
      </trkpt>
      <trkpt lat="43.1441495" lon="-2.8286605">
        <ele>152.488</ele>
        <time>2021-04-01T09:37:29.964Z</time>
      </trkpt>
      <trkpt lat="43.1441529" lon="-2.8286646">
        <ele>152.513</ele>
        <time>2021-04-01T09:37:30.019Z</time>
      </trkpt>
      <trkpt lat="43.144156" lon="-2.8286689">
        <ele>152.541</ele>
        <time>2021-04-01T09:37:30.074Z</time>
      </trkpt>
      <trkpt lat="43.1441594" lon="-2.8286724">
        <ele>152.494</ele>
        <time>2021-04-01T09:37:30.126Z</time>
      </trkpt>
      <trkpt lat="43.1441623" lon="-2.8286765">
        <ele>152.444</ele>
        <time>2021-04-01T09:37:30.178Z</time>
      </trkpt>
      <trkpt lat="43.1441654" lon="-2.8286802">
        <ele>152.402</ele>
        <time>2021-04-01T09:37:30.230Z</time>
      </trkpt>
      <trkpt lat="43.1441687" lon="-2.8286843">
        <ele>152.423</ele>
        <time>2021-04-01T09:37:30.282Z</time>
      </trkpt>
      <trkpt lat="43.1441722" lon="-2.8286885">
        <ele>152.436</ele>
        <time>2021-04-01T09:37:30.334Z</time>
      </trkpt>
      <trkpt lat="43.1441753" lon="-2.828693">
        <ele>152.444</ele>
        <time>2021-04-01T09:37:30.386Z</time>
      </trkpt>
      <trkpt lat="43.1441783" lon="-2.8286973">
        <ele>152.442</ele>
        <time>2021-04-01T09:37:30.438Z</time>
      </trkpt>
      <trkpt lat="43.1441816" lon="-2.8287014">
        <ele>152.45</ele>
        <time>2021-04-01T09:37:30.490Z</time>
      </trkpt>
      <trkpt lat="43.1441847" lon="-2.8287054">
        <ele>152.449</ele>
        <time>2021-04-01T09:37:30.542Z</time>
      </trkpt>
      <trkpt lat="43.1441882" lon="-2.828709">
        <ele>152.442</ele>
        <time>2021-04-01T09:37:30.595Z</time>
      </trkpt>
      <trkpt lat="43.1441916" lon="-2.8287131">
        <ele>152.431</ele>
        <time>2021-04-01T09:37:30.647Z</time>
      </trkpt>
      <trkpt lat="43.1441951" lon="-2.828717">
        <ele>152.452</ele>
        <time>2021-04-01T09:37:30.699Z</time>
      </trkpt>
      <trkpt lat="43.1441982" lon="-2.8287211">
        <ele>152.464</ele>
        <time>2021-04-01T09:37:30.751Z</time>
      </trkpt>
      <trkpt lat="43.1442016" lon="-2.828725">
        <ele>152.481</ele>
        <time>2021-04-01T09:37:30.803Z</time>
      </trkpt>
      <trkpt lat="43.1442051" lon="-2.8287289">
        <ele>152.506</ele>
        <time>2021-04-01T09:37:30.855Z</time>
      </trkpt>
      <trkpt lat="43.1442086" lon="-2.8287327">
        <ele>152.504</ele>
        <time>2021-04-01T09:37:30.907Z</time>
      </trkpt>
      <trkpt lat="43.144212" lon="-2.8287362">
        <ele>152.481</ele>
        <time>2021-04-01T09:37:30.959Z</time>
      </trkpt>
      <trkpt lat="43.1442156" lon="-2.8287396">
        <ele>152.481</ele>
        <time>2021-04-01T09:37:31.011Z</time>
      </trkpt>
      <trkpt lat="43.1442189" lon="-2.8287433">
        <ele>152.456</ele>
        <time>2021-04-01T09:37:31.064Z</time>
      </trkpt>
      <trkpt lat="43.1442222" lon="-2.8287471">
        <ele>152.461</ele>
        <time>2021-04-01T09:37:31.125Z</time>
      </trkpt>
      <trkpt lat="43.1442255" lon="-2.8287511">
        <ele>152.492</ele>
        <time>2021-04-01T09:37:31.186Z</time>
      </trkpt>
      <trkpt lat="43.1442289" lon="-2.828755">
        <ele>152.528</ele>
        <time>2021-04-01T09:37:31.248Z</time>
      </trkpt>
      <trkpt lat="43.1442322" lon="-2.8287589">
        <ele>152.529</ele>
        <time>2021-04-01T09:37:31.309Z</time>
      </trkpt>
      <trkpt lat="43.1442358" lon="-2.8287624">
        <ele>152.52</ele>
        <time>2021-04-01T09:37:31.371Z</time>
      </trkpt>
      <trkpt lat="43.1442392" lon="-2.8287663">
        <ele>152.53</ele>
        <time>2021-04-01T09:37:31.432Z</time>
      </trkpt>
      <trkpt lat="43.1442425" lon="-2.8287703">
        <ele>152.57</ele>
        <time>2021-04-01T09:37:31.494Z</time>
      </trkpt>
      <trkpt lat="43.144246" lon="-2.8287737">
        <ele>152.548</ele>
        <time>2021-04-01T09:37:31.555Z</time>
      </trkpt>
      <trkpt lat="43.1442494" lon="-2.8287774">
        <ele>152.568</ele>
        <time>2021-04-01T09:37:31.617Z</time>
      </trkpt>
      <trkpt lat="43.1442528" lon="-2.8287815">
        <ele>152.626</ele>
        <time>2021-04-01T09:37:31.678Z</time>
      </trkpt>
      <trkpt lat="43.1442563" lon="-2.8287849">
        <ele>152.63</ele>
        <time>2021-04-01T09:37:31.740Z</time>
      </trkpt>
      <trkpt lat="43.1442597" lon="-2.8287884">
        <ele>152.597</ele>
        <time>2021-04-01T09:37:31.801Z</time>
      </trkpt>
      <trkpt lat="43.1442631" lon="-2.828792">
        <ele>152.586</ele>
        <time>2021-04-01T09:37:31.863Z</time>
      </trkpt>
      <trkpt lat="43.1442663" lon="-2.8287951">
        <ele>152.55</ele>
        <time>2021-04-01T09:37:31.924Z</time>
      </trkpt>
      <trkpt lat="43.1442693" lon="-2.8287985">
        <ele>152.515</ele>
        <time>2021-04-01T09:37:31.986Z</time>
      </trkpt>
      <trkpt lat="43.1442726" lon="-2.8288024">
        <ele>152.541</ele>
        <time>2021-04-01T09:37:32.047Z</time>
      </trkpt>
      <trkpt lat="43.1442758" lon="-2.828806">
        <ele>152.532</ele>
        <time>2021-04-01T09:37:32.109Z</time>
      </trkpt>
      <trkpt lat="43.1442793" lon="-2.8288093">
        <ele>152.527</ele>
        <time>2021-04-01T09:37:32.161Z</time>
      </trkpt>
      <trkpt lat="43.1442828" lon="-2.8288126">
        <ele>152.525</ele>
        <time>2021-04-01T09:37:32.213Z</time>
      </trkpt>
      <trkpt lat="43.1442861" lon="-2.8288159">
        <ele>152.505</ele>
        <time>2021-04-01T09:37:32.265Z</time>
      </trkpt>
      <trkpt lat="43.1442893" lon="-2.8288194">
        <ele>152.475</ele>
        <time>2021-04-01T09:37:32.317Z</time>
      </trkpt>
      <trkpt lat="43.1442926" lon="-2.8288225">
        <ele>152.447</ele>
        <time>2021-04-01T09:37:32.369Z</time>
      </trkpt>
      <trkpt lat="43.144296" lon="-2.828826">
        <ele>152.457</ele>
        <time>2021-04-01T09:37:32.421Z</time>
      </trkpt>
      <trkpt lat="43.1442992" lon="-2.8288299">
        <ele>152.49</ele>
        <time>2021-04-01T09:37:32.473Z</time>
      </trkpt>
      <trkpt lat="43.1443024" lon="-2.8288334">
        <ele>152.505</ele>
        <time>2021-04-01T09:37:32.525Z</time>
      </trkpt>
      <trkpt lat="43.1443057" lon="-2.8288366">
        <ele>152.458</ele>
        <time>2021-04-01T09:37:32.577Z</time>
      </trkpt>
      <trkpt lat="43.1443085" lon="-2.82884">
        <ele>152.385</ele>
        <time>2021-04-01T09:37:32.630Z</time>
      </trkpt>
      <trkpt lat="43.1443116" lon="-2.8288435">
        <ele>152.372</ele>
        <time>2021-04-01T09:37:32.682Z</time>
      </trkpt>
      <trkpt lat="43.144315" lon="-2.8288469">
        <ele>152.391</ele>
        <time>2021-04-01T09:37:32.734Z</time>
      </trkpt>
      <trkpt lat="43.1443185" lon="-2.82885">
        <ele>152.395</ele>
        <time>2021-04-01T09:37:32.786Z</time>
      </trkpt>
      <trkpt lat="43.1443217" lon="-2.8288538">
        <ele>152.426</ele>
        <time>2021-04-01T09:37:32.838Z</time>
      </trkpt>
      <trkpt lat="43.1443249" lon="-2.8288576">
        <ele>152.434</ele>
        <time>2021-04-01T09:37:32.890Z</time>
      </trkpt>
      <trkpt lat="43.1443283" lon="-2.828861">
        <ele>152.414</ele>
        <time>2021-04-01T09:37:32.942Z</time>
      </trkpt>
      <trkpt lat="43.1443315" lon="-2.8288645">
        <ele>152.416</ele>
        <time>2021-04-01T09:37:32.994Z</time>
      </trkpt>
      <trkpt lat="43.1443346" lon="-2.8288681">
        <ele>152.416</ele>
        <time>2021-04-01T09:37:33.046Z</time>
      </trkpt>
      <trkpt lat="43.1443378" lon="-2.8288714">
        <ele>152.408</ele>
        <time>2021-04-01T09:37:33.099Z</time>
      </trkpt>
      <trkpt lat="43.1443407" lon="-2.8288747">
        <ele>152.358</ele>
        <time>2021-04-01T09:37:33.154Z</time>
      </trkpt>
      <trkpt lat="43.1443437" lon="-2.8288782">
        <ele>152.34</ele>
        <time>2021-04-01T09:37:33.209Z</time>
      </trkpt>
      <trkpt lat="43.144347" lon="-2.8288819">
        <ele>152.346</ele>
        <time>2021-04-01T09:37:33.264Z</time>
      </trkpt>
      <trkpt lat="43.1443502" lon="-2.8288855">
        <ele>152.334</ele>
        <time>2021-04-01T09:37:33.319Z</time>
      </trkpt>
      <trkpt lat="43.1443534" lon="-2.828889">
        <ele>152.33</ele>
        <time>2021-04-01T09:37:33.374Z</time>
      </trkpt>
      <trkpt lat="43.1443566" lon="-2.8288929">
        <ele>152.356</ele>
        <time>2021-04-01T09:37:33.429Z</time>
      </trkpt>
      <trkpt lat="43.1443598" lon="-2.8288965">
        <ele>152.379</ele>
        <time>2021-04-01T09:37:33.484Z</time>
      </trkpt>
      <trkpt lat="43.1443628" lon="-2.8288998">
        <ele>152.355</ele>
        <time>2021-04-01T09:37:33.539Z</time>
      </trkpt>
      <trkpt lat="43.1443657" lon="-2.8289035">
        <ele>152.314</ele>
        <time>2021-04-01T09:37:33.594Z</time>
      </trkpt>
      <trkpt lat="43.1443687" lon="-2.8289071">
        <ele>152.313</ele>
        <time>2021-04-01T09:37:33.649Z</time>
      </trkpt>
      <trkpt lat="43.1443721" lon="-2.8289107">
        <ele>152.315</ele>
        <time>2021-04-01T09:37:33.704Z</time>
      </trkpt>
      <trkpt lat="43.1443753" lon="-2.8289143">
        <ele>152.305</ele>
        <time>2021-04-01T09:37:33.759Z</time>
      </trkpt>
      <trkpt lat="43.1443782" lon="-2.8289179">
        <ele>152.253</ele>
        <time>2021-04-01T09:37:33.814Z</time>
      </trkpt>
      <trkpt lat="43.1443811" lon="-2.8289217">
        <ele>152.273</ele>
        <time>2021-04-01T09:37:33.869Z</time>
      </trkpt>
      <trkpt lat="43.144384" lon="-2.8289255">
        <ele>152.246</ele>
        <time>2021-04-01T09:37:33.924Z</time>
      </trkpt>
      <trkpt lat="43.1443868" lon="-2.8289291">
        <ele>152.187</ele>
        <time>2021-04-01T09:37:33.979Z</time>
      </trkpt>
      <trkpt lat="43.1443898" lon="-2.8289327">
        <ele>152.128</ele>
        <time>2021-04-01T09:37:34.034Z</time>
      </trkpt>
      <trkpt lat="43.1443929" lon="-2.8289364">
        <ele>152.104</ele>
        <time>2021-04-01T09:37:34.089Z</time>
      </trkpt>
      <trkpt lat="43.1443958" lon="-2.82894">
        <ele>152.064</ele>
        <time>2021-04-01T09:37:34.144Z</time>
      </trkpt>
      <trkpt lat="43.1443987" lon="-2.8289435">
        <ele>152.066</ele>
        <time>2021-04-01T09:37:34.199Z</time>
      </trkpt>
      <trkpt lat="43.1444017" lon="-2.8289476">
        <ele>152.066</ele>
        <time>2021-04-01T09:37:34.254Z</time>
      </trkpt>
      <trkpt lat="43.1444045" lon="-2.8289513">
        <ele>152.012</ele>
        <time>2021-04-01T09:37:34.309Z</time>
      </trkpt>
      <trkpt lat="43.1444074" lon="-2.8289551">
        <ele>151.999</ele>
        <time>2021-04-01T09:37:34.364Z</time>
      </trkpt>
      <trkpt lat="43.1444104" lon="-2.8289587">
        <ele>151.99</ele>
        <time>2021-04-01T09:37:34.419Z</time>
      </trkpt>
      <trkpt lat="43.1444134" lon="-2.8289625">
        <ele>151.982</ele>
        <time>2021-04-01T09:37:34.474Z</time>
      </trkpt>
      <trkpt lat="43.1444163" lon="-2.8289665">
        <ele>151.987</ele>
        <time>2021-04-01T09:37:34.529Z</time>
      </trkpt>
      <trkpt lat="43.1444191" lon="-2.8289703">
        <ele>151.975</ele>
        <time>2021-04-01T09:37:34.584Z</time>
      </trkpt>
      <trkpt lat="43.1444218" lon="-2.8289737">
        <ele>151.969</ele>
        <time>2021-04-01T09:37:34.639Z</time>
      </trkpt>
      <trkpt lat="43.1444249" lon="-2.8289778">
        <ele>151.94</ele>
        <time>2021-04-01T09:37:34.694Z</time>
      </trkpt>
      <trkpt lat="43.1444278" lon="-2.8289814">
        <ele>151.91</ele>
        <time>2021-04-01T09:37:34.749Z</time>
      </trkpt>
      <trkpt lat="43.1444306" lon="-2.8289851">
        <ele>151.88</ele>
        <time>2021-04-01T09:37:34.804Z</time>
      </trkpt>
      <trkpt lat="43.1444336" lon="-2.8289892">
        <ele>151.884</ele>
        <time>2021-04-01T09:37:34.859Z</time>
      </trkpt>
      <trkpt lat="43.1444365" lon="-2.8289933">
        <ele>151.837</ele>
        <time>2021-04-01T09:37:34.914Z</time>
      </trkpt>
      <trkpt lat="43.1444393" lon="-2.8289973">
        <ele>151.785</ele>
        <time>2021-04-01T09:37:34.969Z</time>
      </trkpt>
      <trkpt lat="43.1444424" lon="-2.8290014">
        <ele>151.76</ele>
        <time>2021-04-01T09:37:35.024Z</time>
      </trkpt>
      <trkpt lat="43.1444458" lon="-2.8290056">
        <ele>151.79</ele>
        <time>2021-04-01T09:37:35.079Z</time>
      </trkpt>
      <trkpt lat="43.1444488" lon="-2.8290097">
        <ele>151.785</ele>
        <time>2021-04-01T09:37:35.134Z</time>
      </trkpt>
      <trkpt lat="43.1444519" lon="-2.8290138">
        <ele>151.779</ele>
        <time>2021-04-01T09:37:35.189Z</time>
      </trkpt>
      <trkpt lat="43.144455" lon="-2.8290177">
        <ele>151.78</ele>
        <time>2021-04-01T09:37:35.244Z</time>
      </trkpt>
      <trkpt lat="43.1444579" lon="-2.8290217">
        <ele>151.752</ele>
        <time>2021-04-01T09:37:35.299Z</time>
      </trkpt>
      <trkpt lat="43.1444609" lon="-2.8290256">
        <ele>151.757</ele>
        <time>2021-04-01T09:37:35.354Z</time>
      </trkpt>
      <trkpt lat="43.1444639" lon="-2.8290299">
        <ele>151.748</ele>
        <time>2021-04-01T09:37:35.409Z</time>
      </trkpt>
      <trkpt lat="43.144467" lon="-2.829034">
        <ele>151.743</ele>
        <time>2021-04-01T09:37:35.464Z</time>
      </trkpt>
      <trkpt lat="43.1444698" lon="-2.829038">
        <ele>151.693</ele>
        <time>2021-04-01T09:37:35.519Z</time>
      </trkpt>
      <trkpt lat="43.1444725" lon="-2.8290422">
        <ele>151.646</ele>
        <time>2021-04-01T09:37:35.574Z</time>
      </trkpt>
      <trkpt lat="43.1444752" lon="-2.8290463">
        <ele>151.592</ele>
        <time>2021-04-01T09:37:35.629Z</time>
      </trkpt>
      <trkpt lat="43.1444782" lon="-2.8290504">
        <ele>151.554</ele>
        <time>2021-04-01T09:37:35.684Z</time>
      </trkpt>
      <trkpt lat="43.144481" lon="-2.8290548">
        <ele>151.541</ele>
        <time>2021-04-01T09:37:35.739Z</time>
      </trkpt>
      <trkpt lat="43.1444838" lon="-2.8290591">
        <ele>151.508</ele>
        <time>2021-04-01T09:37:35.794Z</time>
      </trkpt>
      <trkpt lat="43.1444866" lon="-2.8290632">
        <ele>151.495</ele>
        <time>2021-04-01T09:37:35.849Z</time>
      </trkpt>
      <trkpt lat="43.1444893" lon="-2.8290676">
        <ele>151.446</ele>
        <time>2021-04-01T09:37:35.904Z</time>
      </trkpt>
      <trkpt lat="43.1444918" lon="-2.8290718">
        <ele>151.377</ele>
        <time>2021-04-01T09:37:35.959Z</time>
      </trkpt>
      <trkpt lat="43.1444946" lon="-2.8290761">
        <ele>151.354</ele>
        <time>2021-04-01T09:37:36.014Z</time>
      </trkpt>
      <trkpt lat="43.1444972" lon="-2.8290804">
        <ele>151.306</ele>
        <time>2021-04-01T09:37:36.069Z</time>
      </trkpt>
      <trkpt lat="43.1445" lon="-2.8290848">
        <ele>151.264</ele>
        <time>2021-04-01T09:37:36.121Z</time>
      </trkpt>
      <trkpt lat="43.1445026" lon="-2.8290893">
        <ele>151.22</ele>
        <time>2021-04-01T09:37:36.173Z</time>
      </trkpt>
      <trkpt lat="43.1445053" lon="-2.8290934">
        <ele>151.173</ele>
        <time>2021-04-01T09:37:36.225Z</time>
      </trkpt>
      <trkpt lat="43.144508" lon="-2.8290979">
        <ele>151.138</ele>
        <time>2021-04-01T09:37:36.277Z</time>
      </trkpt>
      <trkpt lat="43.1445106" lon="-2.8291023">
        <ele>151.077</ele>
        <time>2021-04-01T09:37:36.329Z</time>
      </trkpt>
      <trkpt lat="43.1445134" lon="-2.8291066">
        <ele>151.04</ele>
        <time>2021-04-01T09:37:36.381Z</time>
      </trkpt>
      <trkpt lat="43.1445162" lon="-2.829111">
        <ele>150.993</ele>
        <time>2021-04-01T09:37:36.433Z</time>
      </trkpt>
      <trkpt lat="43.1445189" lon="-2.8291155">
        <ele>150.947</ele>
        <time>2021-04-01T09:37:36.485Z</time>
      </trkpt>
      <trkpt lat="43.1445219" lon="-2.8291197">
        <ele>150.932</ele>
        <time>2021-04-01T09:37:36.537Z</time>
      </trkpt>
      <trkpt lat="43.1445249" lon="-2.829124">
        <ele>150.935</ele>
        <time>2021-04-01T09:37:36.590Z</time>
      </trkpt>
      <trkpt lat="43.1445279" lon="-2.8291283">
        <ele>150.931</ele>
        <time>2021-04-01T09:37:36.642Z</time>
      </trkpt>
      <trkpt lat="43.1445308" lon="-2.8291328">
        <ele>150.905</ele>
        <time>2021-04-01T09:37:36.694Z</time>
      </trkpt>
      <trkpt lat="43.1445338" lon="-2.8291372">
        <ele>150.869</ele>
        <time>2021-04-01T09:37:36.746Z</time>
      </trkpt>
      <trkpt lat="43.1445368" lon="-2.8291416">
        <ele>150.848</ele>
        <time>2021-04-01T09:37:36.798Z</time>
      </trkpt>
      <trkpt lat="43.1445398" lon="-2.8291461">
        <ele>150.813</ele>
        <time>2021-04-01T09:37:36.850Z</time>
      </trkpt>
      <trkpt lat="43.1445426" lon="-2.8291505">
        <ele>150.777</ele>
        <time>2021-04-01T09:37:36.902Z</time>
      </trkpt>
      <trkpt lat="43.1445453" lon="-2.8291551">
        <ele>150.72</ele>
        <time>2021-04-01T09:37:36.954Z</time>
      </trkpt>
      <trkpt lat="43.1445484" lon="-2.8291596">
        <ele>150.681</ele>
        <time>2021-04-01T09:37:37.006Z</time>
      </trkpt>
      <trkpt lat="43.1445512" lon="-2.8291642">
        <ele>150.591</ele>
        <time>2021-04-01T09:37:37.059Z</time>
      </trkpt>
      <trkpt lat="43.144554" lon="-2.8291686">
        <ele>150.538</ele>
        <time>2021-04-01T09:37:37.117Z</time>
      </trkpt>
      <trkpt lat="43.1445567" lon="-2.8291731">
        <ele>150.515</ele>
        <time>2021-04-01T09:37:37.175Z</time>
      </trkpt>
      <trkpt lat="43.1445597" lon="-2.8291775">
        <ele>150.471</ele>
        <time>2021-04-01T09:37:37.233Z</time>
      </trkpt>
      <trkpt lat="43.1445626" lon="-2.8291821">
        <ele>150.432</ele>
        <time>2021-04-01T09:37:37.291Z</time>
      </trkpt>
      <trkpt lat="43.1445655" lon="-2.8291867">
        <ele>150.406</ele>
        <time>2021-04-01T09:37:37.349Z</time>
      </trkpt>
      <trkpt lat="43.1445686" lon="-2.8291913">
        <ele>150.42</ele>
        <time>2021-04-01T09:37:37.407Z</time>
      </trkpt>
      <trkpt lat="43.1445716" lon="-2.8291958">
        <ele>150.386</ele>
        <time>2021-04-01T09:37:37.465Z</time>
      </trkpt>
      <trkpt lat="43.1445746" lon="-2.8292005">
        <ele>150.352</ele>
        <time>2021-04-01T09:37:37.523Z</time>
      </trkpt>
      <trkpt lat="43.1445778" lon="-2.8292049">
        <ele>150.332</ele>
        <time>2021-04-01T09:37:37.581Z</time>
      </trkpt>
      <trkpt lat="43.1445808" lon="-2.8292096">
        <ele>150.303</ele>
        <time>2021-04-01T09:37:37.639Z</time>
      </trkpt>
      <trkpt lat="43.144584" lon="-2.8292142">
        <ele>150.254</ele>
        <time>2021-04-01T09:37:37.697Z</time>
      </trkpt>
      <trkpt lat="43.1445871" lon="-2.8292189">
        <ele>150.215</ele>
        <time>2021-04-01T09:37:37.755Z</time>
      </trkpt>
      <trkpt lat="43.1445901" lon="-2.8292238">
        <ele>150.183</ele>
        <time>2021-04-01T09:37:37.813Z</time>
      </trkpt>
      <trkpt lat="43.1445929" lon="-2.8292285">
        <ele>150.124</ele>
        <time>2021-04-01T09:37:37.871Z</time>
      </trkpt>
      <trkpt lat="43.1445957" lon="-2.8292333">
        <ele>150.06</ele>
        <time>2021-04-01T09:37:37.929Z</time>
      </trkpt>
      <trkpt lat="43.1445988" lon="-2.8292381">
        <ele>150.016</ele>
        <time>2021-04-01T09:37:37.987Z</time>
      </trkpt>
      <trkpt lat="43.1446021" lon="-2.8292427">
        <ele>149.992</ele>
        <time>2021-04-01T09:37:38.045Z</time>
      </trkpt>
      <trkpt lat="43.1446053" lon="-2.8292472">
        <ele>149.968</ele>
        <time>2021-04-01T09:37:38.104Z</time>
      </trkpt>
      <trkpt lat="43.1446084" lon="-2.8292519">
        <ele>149.927</ele>
        <time>2021-04-01T09:37:38.159Z</time>
      </trkpt>
      <trkpt lat="43.1446115" lon="-2.8292566">
        <ele>149.873</ele>
        <time>2021-04-01T09:37:38.214Z</time>
      </trkpt>
      <trkpt lat="43.1446146" lon="-2.8292615">
        <ele>149.82</ele>
        <time>2021-04-01T09:37:38.269Z</time>
      </trkpt>
      <trkpt lat="43.1446176" lon="-2.8292662">
        <ele>149.777</ele>
        <time>2021-04-01T09:37:38.324Z</time>
      </trkpt>
      <trkpt lat="43.1446207" lon="-2.8292709">
        <ele>149.722</ele>
        <time>2021-04-01T09:37:38.379Z</time>
      </trkpt>
      <trkpt lat="43.1446238" lon="-2.8292755">
        <ele>149.681</ele>
        <time>2021-04-01T09:37:38.434Z</time>
      </trkpt>
      <trkpt lat="43.1446269" lon="-2.8292801">
        <ele>149.641</ele>
        <time>2021-04-01T09:37:38.489Z</time>
      </trkpt>
      <trkpt lat="43.14463" lon="-2.8292848">
        <ele>149.581</ele>
        <time>2021-04-01T09:37:38.544Z</time>
      </trkpt>
      <trkpt lat="43.1446332" lon="-2.8292897">
        <ele>149.526</ele>
        <time>2021-04-01T09:37:38.599Z</time>
      </trkpt>
      <trkpt lat="43.1446362" lon="-2.8292944">
        <ele>149.481</ele>
        <time>2021-04-01T09:37:38.654Z</time>
      </trkpt>
      <trkpt lat="43.1446393" lon="-2.8292991">
        <ele>149.409</ele>
        <time>2021-04-01T09:37:38.709Z</time>
      </trkpt>
      <trkpt lat="43.1446419" lon="-2.8293038">
        <ele>149.296</ele>
        <time>2021-04-01T09:37:38.764Z</time>
      </trkpt>
      <trkpt lat="43.1446447" lon="-2.8293088">
        <ele>149.224</ele>
        <time>2021-04-01T09:37:38.819Z</time>
      </trkpt>
      <trkpt lat="43.1446476" lon="-2.8293136">
        <ele>149.153</ele>
        <time>2021-04-01T09:37:38.874Z</time>
      </trkpt>
      <trkpt lat="43.1446501" lon="-2.8293185">
        <ele>149.053</ele>
        <time>2021-04-01T09:37:38.929Z</time>
      </trkpt>
      <trkpt lat="43.1446534" lon="-2.8293234">
        <ele>149.033</ele>
        <time>2021-04-01T09:37:38.984Z</time>
      </trkpt>
      <trkpt lat="43.1446564" lon="-2.8293285">
        <ele>148.973</ele>
        <time>2021-04-01T09:37:39.039Z</time>
      </trkpt>
      <trkpt lat="43.1446593" lon="-2.8293333">
        <ele>148.909</ele>
        <time>2021-04-01T09:37:39.094Z</time>
      </trkpt>
      <trkpt lat="43.1446626" lon="-2.8293381">
        <ele>148.885</ele>
        <time>2021-04-01T09:37:39.146Z</time>
      </trkpt>
      <trkpt lat="43.144666" lon="-2.8293434">
        <ele>148.833</ele>
        <time>2021-04-01T09:37:39.198Z</time>
      </trkpt>
      <trkpt lat="43.1446691" lon="-2.8293484">
        <ele>148.764</ele>
        <time>2021-04-01T09:37:39.250Z</time>
      </trkpt>
      <trkpt lat="43.1446722" lon="-2.8293532">
        <ele>148.687</ele>
        <time>2021-04-01T09:37:39.302Z</time>
      </trkpt>
      <trkpt lat="43.1446754" lon="-2.8293579">
        <ele>148.649</ele>
        <time>2021-04-01T09:37:39.354Z</time>
      </trkpt>
      <trkpt lat="43.1446782" lon="-2.8293629">
        <ele>148.552</ele>
        <time>2021-04-01T09:37:39.406Z</time>
      </trkpt>
      <trkpt lat="43.144681" lon="-2.8293679">
        <ele>148.462</ele>
        <time>2021-04-01T09:37:39.458Z</time>
      </trkpt>
      <trkpt lat="43.1446839" lon="-2.8293727">
        <ele>148.381</ele>
        <time>2021-04-01T09:37:39.510Z</time>
      </trkpt>
      <trkpt lat="43.1446868" lon="-2.8293777">
        <ele>148.332</ele>
        <time>2021-04-01T09:37:39.562Z</time>
      </trkpt>
      <trkpt lat="43.1446899" lon="-2.8293828">
        <ele>148.264</ele>
        <time>2021-04-01T09:37:39.615Z</time>
      </trkpt>
      <trkpt lat="43.1446931" lon="-2.8293882">
        <ele>148.216</ele>
        <time>2021-04-01T09:37:39.667Z</time>
      </trkpt>
      <trkpt lat="43.1446961" lon="-2.8293933">
        <ele>148.149</ele>
        <time>2021-04-01T09:37:39.719Z</time>
      </trkpt>
      <trkpt lat="43.1446991" lon="-2.8293987">
        <ele>148.118</ele>
        <time>2021-04-01T09:37:39.771Z</time>
      </trkpt>
      <trkpt lat="43.144702" lon="-2.829404">
        <ele>148.045</ele>
        <time>2021-04-01T09:37:39.823Z</time>
      </trkpt>
      <trkpt lat="43.1447049" lon="-2.8294091">
        <ele>147.986</ele>
        <time>2021-04-01T09:37:39.875Z</time>
      </trkpt>
      <trkpt lat="43.1447079" lon="-2.8294142">
        <ele>147.926</ele>
        <time>2021-04-01T09:37:39.927Z</time>
      </trkpt>
      <trkpt lat="43.1447106" lon="-2.8294191">
        <ele>147.846</ele>
        <time>2021-04-01T09:37:39.979Z</time>
      </trkpt>
      <trkpt lat="43.1447137" lon="-2.8294243">
        <ele>147.79</ele>
        <time>2021-04-01T09:37:40.031Z</time>
      </trkpt>
      <trkpt lat="43.144717" lon="-2.829429">
        <ele>147.724</ele>
        <time>2021-04-01T09:37:40.084Z</time>
      </trkpt>
      <trkpt lat="43.1447202" lon="-2.829434">
        <ele>147.7</ele>
        <time>2021-04-01T09:37:40.145Z</time>
      </trkpt>
      <trkpt lat="43.1447232" lon="-2.8294388">
        <ele>147.661</ele>
        <time>2021-04-01T09:37:40.206Z</time>
      </trkpt>
      <trkpt lat="43.1447267" lon="-2.8294443">
        <ele>147.638</ele>
        <time>2021-04-01T09:37:40.268Z</time>
      </trkpt>
      <trkpt lat="43.14473" lon="-2.8294496">
        <ele>147.624</ele>
        <time>2021-04-01T09:37:40.329Z</time>
      </trkpt>
      <trkpt lat="43.144733" lon="-2.8294546">
        <ele>147.585</ele>
        <time>2021-04-01T09:37:40.391Z</time>
      </trkpt>
      <trkpt lat="43.1447358" lon="-2.8294598">
        <ele>147.521</ele>
        <time>2021-04-01T09:37:40.452Z</time>
      </trkpt>
      <trkpt lat="43.144739" lon="-2.829465">
        <ele>147.456</ele>
        <time>2021-04-01T09:37:40.514Z</time>
      </trkpt>
      <trkpt lat="43.1447422" lon="-2.8294705">
        <ele>147.434</ele>
        <time>2021-04-01T09:37:40.575Z</time>
      </trkpt>
      <trkpt lat="43.1447455" lon="-2.8294756">
        <ele>147.401</ele>
        <time>2021-04-01T09:37:40.637Z</time>
      </trkpt>
      <trkpt lat="43.1447484" lon="-2.8294804">
        <ele>147.364</ele>
        <time>2021-04-01T09:37:40.698Z</time>
      </trkpt>
      <trkpt lat="43.1447516" lon="-2.8294851">
        <ele>147.317</ele>
        <time>2021-04-01T09:37:40.760Z</time>
      </trkpt>
      <trkpt lat="43.1447546" lon="-2.8294905">
        <ele>147.271</ele>
        <time>2021-04-01T09:37:40.821Z</time>
      </trkpt>
      <trkpt lat="43.144758" lon="-2.829496">
        <ele>147.251</ele>
        <time>2021-04-01T09:37:40.883Z</time>
      </trkpt>
      <trkpt lat="43.1447614" lon="-2.8295015">
        <ele>147.23</ele>
        <time>2021-04-01T09:37:40.944Z</time>
      </trkpt>
      <trkpt lat="43.1447647" lon="-2.8295068">
        <ele>147.191</ele>
        <time>2021-04-01T09:37:41.006Z</time>
      </trkpt>
      <trkpt lat="43.1447676" lon="-2.8295118">
        <ele>147.144</ele>
        <time>2021-04-01T09:37:41.067Z</time>
      </trkpt>
      <trkpt lat="43.1447705" lon="-2.8295175">
        <ele>147.071</ele>
        <time>2021-04-01T09:37:41.129Z</time>
      </trkpt>
      <trkpt lat="43.1447736" lon="-2.8295232">
        <ele>147.006</ele>
        <time>2021-04-01T09:37:41.187Z</time>
      </trkpt>
      <trkpt lat="43.144777" lon="-2.8295286">
        <ele>146.989</ele>
        <time>2021-04-01T09:37:41.245Z</time>
      </trkpt>
      <trkpt lat="43.1447801" lon="-2.8295341">
        <ele>146.963</ele>
        <time>2021-04-01T09:37:41.303Z</time>
      </trkpt>
      <trkpt lat="43.1447833" lon="-2.8295396">
        <ele>146.931</ele>
        <time>2021-04-01T09:37:41.361Z</time>
      </trkpt>
      <trkpt lat="43.1447861" lon="-2.8295454">
        <ele>146.874</ele>
        <time>2021-04-01T09:37:41.419Z</time>
      </trkpt>
      <trkpt lat="43.1447893" lon="-2.8295509">
        <ele>146.824</ele>
        <time>2021-04-01T09:37:41.477Z</time>
      </trkpt>
      <trkpt lat="43.1447918" lon="-2.8295561">
        <ele>146.733</ele>
        <time>2021-04-01T09:37:41.535Z</time>
      </trkpt>
      <trkpt lat="43.1447945" lon="-2.829561">
        <ele>146.659</ele>
        <time>2021-04-01T09:37:41.593Z</time>
      </trkpt>
      <trkpt lat="43.1447968" lon="-2.829566">
        <ele>146.577</ele>
        <time>2021-04-01T09:37:41.651Z</time>
      </trkpt>
      <trkpt lat="43.144799" lon="-2.8295707">
        <ele>146.447</ele>
        <time>2021-04-01T09:37:41.709Z</time>
      </trkpt>
      <trkpt lat="43.1448016" lon="-2.8295757">
        <ele>146.372</ele>
        <time>2021-04-01T09:37:41.767Z</time>
      </trkpt>
      <trkpt lat="43.1448046" lon="-2.829581">
        <ele>146.326</ele>
        <time>2021-04-01T09:37:41.825Z</time>
      </trkpt>
      <trkpt lat="43.1448076" lon="-2.8295862">
        <ele>146.285</ele>
        <time>2021-04-01T09:37:41.883Z</time>
      </trkpt>
      <trkpt lat="43.1448103" lon="-2.8295914">
        <ele>146.182</ele>
        <time>2021-04-01T09:37:41.941Z</time>
      </trkpt>
      <trkpt lat="43.1448131" lon="-2.8295967">
        <ele>146.088</ele>
        <time>2021-04-01T09:37:41.999Z</time>
      </trkpt>
      <trkpt lat="43.1448166" lon="-2.8296018">
        <ele>146.073</ele>
        <time>2021-04-01T09:37:42.057Z</time>
      </trkpt>
      <trkpt lat="43.1448192" lon="-2.829608">
        <ele>145.904</ele>
        <time>2021-04-01T09:37:42.115Z</time>
      </trkpt>
      <trkpt lat="43.1448211" lon="-2.8296136">
        <ele>145.726</ele>
        <time>2021-04-01T09:37:42.174Z</time>
      </trkpt>
      <trkpt lat="43.1448239" lon="-2.8296191">
        <ele>145.632</ele>
        <time>2021-04-01T09:37:42.223Z</time>
      </trkpt>
      <trkpt lat="43.1448268" lon="-2.8296248">
        <ele>145.543</ele>
        <time>2021-04-01T09:37:42.272Z</time>
      </trkpt>
      <trkpt lat="43.1448302" lon="-2.8296303">
        <ele>145.532</ele>
        <time>2021-04-01T09:37:42.321Z</time>
      </trkpt>
      <trkpt lat="43.1448332" lon="-2.8296363">
        <ele>145.567</ele>
        <time>2021-04-01T09:37:42.370Z</time>
      </trkpt>
      <trkpt lat="43.144836" lon="-2.8296423">
        <ele>145.494</ele>
        <time>2021-04-01T09:37:42.420Z</time>
      </trkpt>
      <trkpt lat="43.1448387" lon="-2.8296483">
        <ele>145.39</ele>
        <time>2021-04-01T09:37:42.469Z</time>
      </trkpt>
      <trkpt lat="43.1448413" lon="-2.8296544">
        <ele>145.317</ele>
        <time>2021-04-01T09:37:42.518Z</time>
      </trkpt>
      <trkpt lat="43.144844" lon="-2.8296604">
        <ele>145.269</ele>
        <time>2021-04-01T09:37:42.567Z</time>
      </trkpt>
      <trkpt lat="43.1448472" lon="-2.8296664">
        <ele>145.267</ele>
        <time>2021-04-01T09:37:42.616Z</time>
      </trkpt>
      <trkpt lat="43.1448499" lon="-2.829672">
        <ele>145.233</ele>
        <time>2021-04-01T09:37:42.666Z</time>
      </trkpt>
      <trkpt lat="43.1448525" lon="-2.8296782">
        <ele>145.215</ele>
        <time>2021-04-01T09:37:42.715Z</time>
      </trkpt>
      <trkpt lat="43.1448549" lon="-2.8296844">
        <ele>145.113</ele>
        <time>2021-04-01T09:37:42.764Z</time>
      </trkpt>
      <trkpt lat="43.1448579" lon="-2.8296905">
        <ele>145.103</ele>
        <time>2021-04-01T09:37:42.813Z</time>
      </trkpt>
      <trkpt lat="43.144861" lon="-2.8296967">
        <ele>145.092</ele>
        <time>2021-04-01T09:37:42.862Z</time>
      </trkpt>
      <trkpt lat="43.144864" lon="-2.8297027">
        <ele>145.091</ele>
        <time>2021-04-01T09:37:42.912Z</time>
      </trkpt>
      <trkpt lat="43.1448663" lon="-2.8297088">
        <ele>145.046</ele>
        <time>2021-04-01T09:37:42.961Z</time>
      </trkpt>
      <trkpt lat="43.1448689" lon="-2.8297149">
        <ele>144.987</ele>
        <time>2021-04-01T09:37:43.010Z</time>
      </trkpt>
      <trkpt lat="43.1448717" lon="-2.8297211">
        <ele>144.91</ele>
        <time>2021-04-01T09:37:43.059Z</time>
      </trkpt>
      <trkpt lat="43.1448745" lon="-2.8297274">
        <ele>144.897</ele>
        <time>2021-04-01T09:37:43.109Z</time>
      </trkpt>
      <trkpt lat="43.1448771" lon="-2.8297335">
        <ele>144.873</ele>
        <time>2021-04-01T09:37:43.164Z</time>
      </trkpt>
      <trkpt lat="43.14488" lon="-2.8297398">
        <ele>144.831</ele>
        <time>2021-04-01T09:37:43.219Z</time>
      </trkpt>
      <trkpt lat="43.1448828" lon="-2.8297459">
        <ele>144.788</ele>
        <time>2021-04-01T09:37:43.274Z</time>
      </trkpt>
      <trkpt lat="43.1448852" lon="-2.8297518">
        <ele>144.761</ele>
        <time>2021-04-01T09:37:43.329Z</time>
      </trkpt>
      <trkpt lat="43.1448876" lon="-2.8297583">
        <ele>144.745</ele>
        <time>2021-04-01T09:37:43.384Z</time>
      </trkpt>
      <trkpt lat="43.1448902" lon="-2.8297646">
        <ele>144.677</ele>
        <time>2021-04-01T09:37:43.439Z</time>
      </trkpt>
      <trkpt lat="43.1448927" lon="-2.8297709">
        <ele>144.645</ele>
        <time>2021-04-01T09:37:43.494Z</time>
      </trkpt>
      <trkpt lat="43.1448952" lon="-2.8297772">
        <ele>144.585</ele>
        <time>2021-04-01T09:37:43.549Z</time>
      </trkpt>
      <trkpt lat="43.1448972" lon="-2.8297836">
        <ele>144.502</ele>
        <time>2021-04-01T09:37:43.604Z</time>
      </trkpt>
      <trkpt lat="43.1448994" lon="-2.8297898">
        <ele>144.461</ele>
        <time>2021-04-01T09:37:43.659Z</time>
      </trkpt>
      <trkpt lat="43.1449016" lon="-2.829796">
        <ele>144.392</ele>
        <time>2021-04-01T09:37:43.714Z</time>
      </trkpt>
      <trkpt lat="43.144904" lon="-2.829802">
        <ele>144.328</ele>
        <time>2021-04-01T09:37:43.769Z</time>
      </trkpt>
      <trkpt lat="43.1449061" lon="-2.8298084">
        <ele>144.28</ele>
        <time>2021-04-01T09:37:43.824Z</time>
      </trkpt>
      <trkpt lat="43.1449087" lon="-2.8298146">
        <ele>144.238</ele>
        <time>2021-04-01T09:37:43.879Z</time>
      </trkpt>
      <trkpt lat="43.1449111" lon="-2.8298209">
        <ele>144.197</ele>
        <time>2021-04-01T09:37:43.934Z</time>
      </trkpt>
      <trkpt lat="43.1449135" lon="-2.8298272">
        <ele>144.156</ele>
        <time>2021-04-01T09:37:43.989Z</time>
      </trkpt>
      <trkpt lat="43.1449158" lon="-2.8298337">
        <ele>144.135</ele>
        <time>2021-04-01T09:37:44.044Z</time>
      </trkpt>
      <trkpt lat="43.1449179" lon="-2.8298402">
        <ele>144.102</ele>
        <time>2021-04-01T09:37:44.099Z</time>
      </trkpt>
      <trkpt lat="43.1449201" lon="-2.8298465">
        <ele>144.066</ele>
        <time>2021-04-01T09:37:44.151Z</time>
      </trkpt>
      <trkpt lat="43.1449223" lon="-2.8298528">
        <ele>144.017</ele>
        <time>2021-04-01T09:37:44.203Z</time>
      </trkpt>
      <trkpt lat="43.1449246" lon="-2.8298589">
        <ele>143.953</ele>
        <time>2021-04-01T09:37:44.255Z</time>
      </trkpt>
      <trkpt lat="43.1449268" lon="-2.8298649">
        <ele>143.876</ele>
        <time>2021-04-01T09:37:44.307Z</time>
      </trkpt>
      <trkpt lat="43.1449289" lon="-2.8298713">
        <ele>143.821</ele>
        <time>2021-04-01T09:37:44.359Z</time>
      </trkpt>
      <trkpt lat="43.144931" lon="-2.8298777">
        <ele>143.763</ele>
        <time>2021-04-01T09:37:44.411Z</time>
      </trkpt>
      <trkpt lat="43.1449331" lon="-2.8298837">
        <ele>143.685</ele>
        <time>2021-04-01T09:37:44.463Z</time>
      </trkpt>
      <trkpt lat="43.144935" lon="-2.8298896">
        <ele>143.596</ele>
        <time>2021-04-01T09:37:44.515Z</time>
      </trkpt>
      <trkpt lat="43.1449368" lon="-2.8298956">
        <ele>143.465</ele>
        <time>2021-04-01T09:37:44.567Z</time>
      </trkpt>
      <trkpt lat="43.1449391" lon="-2.8299023">
        <ele>143.436</ele>
        <time>2021-04-01T09:37:44.620Z</time>
      </trkpt>
      <trkpt lat="43.1449411" lon="-2.8299093">
        <ele>143.461</ele>
        <time>2021-04-01T09:37:44.672Z</time>
      </trkpt>
      <trkpt lat="43.1449435" lon="-2.8299158">
        <ele>143.466</ele>
        <time>2021-04-01T09:37:44.724Z</time>
      </trkpt>
      <trkpt lat="43.1449456" lon="-2.8299226">
        <ele>143.46</ele>
        <time>2021-04-01T09:37:44.776Z</time>
      </trkpt>
      <trkpt lat="43.1449475" lon="-2.8299296">
        <ele>143.425</ele>
        <time>2021-04-01T09:37:44.828Z</time>
      </trkpt>
      <trkpt lat="43.1449498" lon="-2.8299363">
        <ele>143.41</ele>
        <time>2021-04-01T09:37:44.880Z</time>
      </trkpt>
      <trkpt lat="43.1449521" lon="-2.8299426">
        <ele>143.394</ele>
        <time>2021-04-01T09:37:44.932Z</time>
      </trkpt>
      <trkpt lat="43.1449546" lon="-2.8299491">
        <ele>143.387</ele>
        <time>2021-04-01T09:37:44.984Z</time>
      </trkpt>
      <trkpt lat="43.1449573" lon="-2.8299558">
        <ele>143.441</ele>
        <time>2021-04-01T09:37:45.036Z</time>
      </trkpt>
      <trkpt lat="43.1449594" lon="-2.8299623">
        <ele>143.419</ele>
        <time>2021-04-01T09:37:45.089Z</time>
      </trkpt>
      <trkpt lat="43.1449617" lon="-2.8299684">
        <ele>143.41</ele>
        <time>2021-04-01T09:37:45.147Z</time>
      </trkpt>
      <trkpt lat="43.1449643" lon="-2.8299747">
        <ele>143.426</ele>
        <time>2021-04-01T09:37:45.205Z</time>
      </trkpt>
      <trkpt lat="43.1449666" lon="-2.8299809">
        <ele>143.384</ele>
        <time>2021-04-01T09:37:45.263Z</time>
      </trkpt>
      <trkpt lat="43.144969" lon="-2.8299872">
        <ele>143.355</ele>
        <time>2021-04-01T09:37:45.321Z</time>
      </trkpt>
      <trkpt lat="43.1449714" lon="-2.8299937">
        <ele>143.338</ele>
        <time>2021-04-01T09:37:45.380Z</time>
      </trkpt>
      <trkpt lat="43.1449737" lon="-2.8300004">
        <ele>143.322</ele>
        <time>2021-04-01T09:37:45.438Z</time>
      </trkpt>
      <trkpt lat="43.1449761" lon="-2.8300071">
        <ele>143.315</ele>
        <time>2021-04-01T09:37:45.496Z</time>
      </trkpt>
      <trkpt lat="43.1449784" lon="-2.8300142">
        <ele>143.332</ele>
        <time>2021-04-01T09:37:45.554Z</time>
      </trkpt>
      <trkpt lat="43.1449806" lon="-2.830021">
        <ele>143.286</ele>
        <time>2021-04-01T09:37:45.613Z</time>
      </trkpt>
      <trkpt lat="43.1449828" lon="-2.8300276">
        <ele>143.244</ele>
        <time>2021-04-01T09:37:45.671Z</time>
      </trkpt>
      <trkpt lat="43.1449854" lon="-2.8300342">
        <ele>143.263</ele>
        <time>2021-04-01T09:37:45.729Z</time>
      </trkpt>
      <trkpt lat="43.1449877" lon="-2.8300409">
        <ele>143.281</ele>
        <time>2021-04-01T09:37:45.787Z</time>
      </trkpt>
      <trkpt lat="43.14499" lon="-2.8300477">
        <ele>143.262</ele>
        <time>2021-04-01T09:37:45.846Z</time>
      </trkpt>
      <trkpt lat="43.144992" lon="-2.8300543">
        <ele>143.206</ele>
        <time>2021-04-01T09:37:45.904Z</time>
      </trkpt>
      <trkpt lat="43.1449944" lon="-2.8300609">
        <ele>143.161</ele>
        <time>2021-04-01T09:37:45.962Z</time>
      </trkpt>
      <trkpt lat="43.1449966" lon="-2.8300675">
        <ele>143.138</ele>
        <time>2021-04-01T09:37:46.020Z</time>
      </trkpt>
      <trkpt lat="43.1449989" lon="-2.8300741">
        <ele>143.142</ele>
        <time>2021-04-01T09:37:46.079Z</time>
      </trkpt>
      <trkpt lat="43.1450014" lon="-2.8300806">
        <ele>143.148</ele>
        <time>2021-04-01T09:37:46.134Z</time>
      </trkpt>
      <trkpt lat="43.1450036" lon="-2.8300874">
        <ele>143.137</ele>
        <time>2021-04-01T09:37:46.189Z</time>
      </trkpt>
      <trkpt lat="43.1450059" lon="-2.830094">
        <ele>143.095</ele>
        <time>2021-04-01T09:37:46.244Z</time>
      </trkpt>
      <trkpt lat="43.1450083" lon="-2.8301007">
        <ele>143.105</ele>
        <time>2021-04-01T09:37:46.299Z</time>
      </trkpt>
      <trkpt lat="43.1450105" lon="-2.8301074">
        <ele>143.089</ele>
        <time>2021-04-01T09:37:46.354Z</time>
      </trkpt>
      <trkpt lat="43.1450131" lon="-2.8301142">
        <ele>143.101</ele>
        <time>2021-04-01T09:37:46.409Z</time>
      </trkpt>
      <trkpt lat="43.1450155" lon="-2.8301208">
        <ele>143.111</ele>
        <time>2021-04-01T09:37:46.464Z</time>
      </trkpt>
      <trkpt lat="43.1450178" lon="-2.8301274">
        <ele>143.1</ele>
        <time>2021-04-01T09:37:46.519Z</time>
      </trkpt>
      <trkpt lat="43.1450202" lon="-2.830134">
        <ele>143.109</ele>
        <time>2021-04-01T09:37:46.574Z</time>
      </trkpt>
      <trkpt lat="43.1450225" lon="-2.8301407">
        <ele>143.091</ele>
        <time>2021-04-01T09:37:46.629Z</time>
      </trkpt>
      <trkpt lat="43.1450248" lon="-2.8301473">
        <ele>143.073</ele>
        <time>2021-04-01T09:37:46.684Z</time>
      </trkpt>
      <trkpt lat="43.1450271" lon="-2.8301542">
        <ele>143.09</ele>
        <time>2021-04-01T09:37:46.739Z</time>
      </trkpt>
      <trkpt lat="43.1450294" lon="-2.8301609">
        <ele>143.088</ele>
        <time>2021-04-01T09:37:46.794Z</time>
      </trkpt>
      <trkpt lat="43.1450316" lon="-2.8301676">
        <ele>143.081</ele>
        <time>2021-04-01T09:37:46.849Z</time>
      </trkpt>
      <trkpt lat="43.145034" lon="-2.8301743">
        <ele>143.087</ele>
        <time>2021-04-01T09:37:46.904Z</time>
      </trkpt>
      <trkpt lat="43.1450363" lon="-2.830181">
        <ele>143.088</ele>
        <time>2021-04-01T09:37:46.959Z</time>
      </trkpt>
      <trkpt lat="43.1450388" lon="-2.8301879">
        <ele>143.118</ele>
        <time>2021-04-01T09:37:47.014Z</time>
      </trkpt>
      <trkpt lat="43.1450412" lon="-2.8301946">
        <ele>143.153</ele>
        <time>2021-04-01T09:37:47.069Z</time>
      </trkpt>
      <trkpt lat="43.1450434" lon="-2.8302012">
        <ele>143.141</ele>
        <time>2021-04-01T09:37:47.124Z</time>
      </trkpt>
      <trkpt lat="43.1450456" lon="-2.830208">
        <ele>143.132</ele>
        <time>2021-04-01T09:37:47.179Z</time>
      </trkpt>
      <trkpt lat="43.1450478" lon="-2.830215">
        <ele>143.16</ele>
        <time>2021-04-01T09:37:47.234Z</time>
      </trkpt>
      <trkpt lat="43.14505" lon="-2.8302221">
        <ele>143.17</ele>
        <time>2021-04-01T09:37:47.289Z</time>
      </trkpt>
      <trkpt lat="43.1450524" lon="-2.8302291">
        <ele>143.189</ele>
        <time>2021-04-01T09:37:47.344Z</time>
      </trkpt>
      <trkpt lat="43.1450546" lon="-2.8302359">
        <ele>143.161</ele>
        <time>2021-04-01T09:37:47.399Z</time>
      </trkpt>
      <trkpt lat="43.1450568" lon="-2.8302428">
        <ele>143.126</ele>
        <time>2021-04-01T09:37:47.454Z</time>
      </trkpt>
      <trkpt lat="43.1450588" lon="-2.8302496">
        <ele>143.11</ele>
        <time>2021-04-01T09:37:47.509Z</time>
      </trkpt>
      <trkpt lat="43.1450611" lon="-2.8302564">
        <ele>143.114</ele>
        <time>2021-04-01T09:37:47.564Z</time>
      </trkpt>
      <trkpt lat="43.1450635" lon="-2.8302634">
        <ele>143.114</ele>
        <time>2021-04-01T09:37:47.619Z</time>
      </trkpt>
      <trkpt lat="43.145066" lon="-2.8302703">
        <ele>143.118</ele>
        <time>2021-04-01T09:37:47.674Z</time>
      </trkpt>
      <trkpt lat="43.1450682" lon="-2.8302771">
        <ele>143.082</ele>
        <time>2021-04-01T09:37:47.729Z</time>
      </trkpt>
      <trkpt lat="43.1450704" lon="-2.8302833">
        <ele>143.017</ele>
        <time>2021-04-01T09:37:47.784Z</time>
      </trkpt>
      <trkpt lat="43.1450729" lon="-2.8302903">
        <ele>143.028</ele>
        <time>2021-04-01T09:37:47.839Z</time>
      </trkpt>
      <trkpt lat="43.1450755" lon="-2.830297">
        <ele>143.022</ele>
        <time>2021-04-01T09:37:47.894Z</time>
      </trkpt>
      <trkpt lat="43.1450778" lon="-2.8303036">
        <ele>142.997</ele>
        <time>2021-04-01T09:37:47.949Z</time>
      </trkpt>
      <trkpt lat="43.1450801" lon="-2.8303102">
        <ele>142.958</ele>
        <time>2021-04-01T09:37:48.004Z</time>
      </trkpt>
      <trkpt lat="43.1450824" lon="-2.8303169">
        <ele>142.935</ele>
        <time>2021-04-01T09:37:48.059Z</time>
      </trkpt>
      <trkpt lat="43.1450851" lon="-2.8303239">
        <ele>142.939</ele>
        <time>2021-04-01T09:37:48.114Z</time>
      </trkpt>
      <trkpt lat="43.1450876" lon="-2.8303306">
        <ele>142.918</ele>
        <time>2021-04-01T09:37:48.169Z</time>
      </trkpt>
      <trkpt lat="43.1450897" lon="-2.8303371">
        <ele>142.851</ele>
        <time>2021-04-01T09:37:48.224Z</time>
      </trkpt>
      <trkpt lat="43.145092" lon="-2.8303437">
        <ele>142.819</ele>
        <time>2021-04-01T09:37:48.279Z</time>
      </trkpt>
      <trkpt lat="43.1450945" lon="-2.8303505">
        <ele>142.802</ele>
        <time>2021-04-01T09:37:48.334Z</time>
      </trkpt>
      <trkpt lat="43.1450969" lon="-2.8303573">
        <ele>142.74</ele>
        <time>2021-04-01T09:37:48.389Z</time>
      </trkpt>
      <trkpt lat="43.1450994" lon="-2.8303639">
        <ele>142.707</ele>
        <time>2021-04-01T09:37:48.444Z</time>
      </trkpt>
      <trkpt lat="43.1451018" lon="-2.8303706">
        <ele>142.698</ele>
        <time>2021-04-01T09:37:48.499Z</time>
      </trkpt>
      <trkpt lat="43.1451041" lon="-2.8303772">
        <ele>142.669</ele>
        <time>2021-04-01T09:37:48.554Z</time>
      </trkpt>
      <trkpt lat="43.1451065" lon="-2.8303839">
        <ele>142.634</ele>
        <time>2021-04-01T09:37:48.609Z</time>
      </trkpt>
      <trkpt lat="43.1451089" lon="-2.8303906">
        <ele>142.591</ele>
        <time>2021-04-01T09:37:48.664Z</time>
      </trkpt>
      <trkpt lat="43.1451114" lon="-2.8303971">
        <ele>142.541</ele>
        <time>2021-04-01T09:37:48.719Z</time>
      </trkpt>
      <trkpt lat="43.1451138" lon="-2.8304037">
        <ele>142.515</ele>
        <time>2021-04-01T09:37:48.774Z</time>
      </trkpt>
      <trkpt lat="43.1451163" lon="-2.8304105">
        <ele>142.491</ele>
        <time>2021-04-01T09:37:48.829Z</time>
      </trkpt>
      <trkpt lat="43.1451186" lon="-2.8304172">
        <ele>142.449</ele>
        <time>2021-04-01T09:37:48.884Z</time>
      </trkpt>
      <trkpt lat="43.1451211" lon="-2.8304239">
        <ele>142.413</ele>
        <time>2021-04-01T09:37:48.939Z</time>
      </trkpt>
      <trkpt lat="43.1451233" lon="-2.8304305">
        <ele>142.379</ele>
        <time>2021-04-01T09:37:48.994Z</time>
      </trkpt>
      <trkpt lat="43.1451256" lon="-2.8304372">
        <ele>142.335</ele>
        <time>2021-04-01T09:37:49.049Z</time>
      </trkpt>
      <trkpt lat="43.1451284" lon="-2.8304441">
        <ele>142.347</ele>
        <time>2021-04-01T09:37:49.104Z</time>
      </trkpt>
      <trkpt lat="43.1451309" lon="-2.8304509">
        <ele>142.374</ele>
        <time>2021-04-01T09:37:49.159Z</time>
      </trkpt>
      <trkpt lat="43.1451334" lon="-2.8304578">
        <ele>142.343</ele>
        <time>2021-04-01T09:37:49.214Z</time>
      </trkpt>
      <trkpt lat="43.145136" lon="-2.8304647">
        <ele>142.322</ele>
        <time>2021-04-01T09:37:49.269Z</time>
      </trkpt>
      <trkpt lat="43.1451387" lon="-2.8304715">
        <ele>142.312</ele>
        <time>2021-04-01T09:37:49.324Z</time>
      </trkpt>
      <trkpt lat="43.1451415" lon="-2.8304783">
        <ele>142.321</ele>
        <time>2021-04-01T09:37:49.379Z</time>
      </trkpt>
      <trkpt lat="43.1451438" lon="-2.830485">
        <ele>142.294</ele>
        <time>2021-04-01T09:37:49.434Z</time>
      </trkpt>
      <trkpt lat="43.1451463" lon="-2.8304918">
        <ele>142.301</ele>
        <time>2021-04-01T09:37:49.489Z</time>
      </trkpt>
      <trkpt lat="43.1451489" lon="-2.8304986">
        <ele>142.279</ele>
        <time>2021-04-01T09:37:49.544Z</time>
      </trkpt>
      <trkpt lat="43.1451512" lon="-2.8305053">
        <ele>142.238</ele>
        <time>2021-04-01T09:37:49.599Z</time>
      </trkpt>
      <trkpt lat="43.1451535" lon="-2.8305122">
        <ele>142.231</ele>
        <time>2021-04-01T09:37:49.654Z</time>
      </trkpt>
      <trkpt lat="43.1451561" lon="-2.830519">
        <ele>142.223</ele>
        <time>2021-04-01T09:37:49.709Z</time>
      </trkpt>
      <trkpt lat="43.1451586" lon="-2.8305258">
        <ele>142.205</ele>
        <time>2021-04-01T09:37:49.764Z</time>
      </trkpt>
      <trkpt lat="43.1451612" lon="-2.8305325">
        <ele>142.21</ele>
        <time>2021-04-01T09:37:49.819Z</time>
      </trkpt>
      <trkpt lat="43.1451638" lon="-2.8305395">
        <ele>142.222</ele>
        <time>2021-04-01T09:37:49.874Z</time>
      </trkpt>
      <trkpt lat="43.1451664" lon="-2.8305464">
        <ele>142.204</ele>
        <time>2021-04-01T09:37:49.929Z</time>
      </trkpt>
      <trkpt lat="43.1451687" lon="-2.8305533">
        <ele>142.173</ele>
        <time>2021-04-01T09:37:49.984Z</time>
      </trkpt>
      <trkpt lat="43.145171" lon="-2.8305602">
        <ele>142.142</ele>
        <time>2021-04-01T09:37:50.039Z</time>
      </trkpt>
      <trkpt lat="43.1451736" lon="-2.830567">
        <ele>142.148</ele>
        <time>2021-04-01T09:37:50.094Z</time>
      </trkpt>
      <trkpt lat="43.1451762" lon="-2.8305737">
        <ele>142.143</ele>
        <time>2021-04-01T09:37:50.149Z</time>
      </trkpt>
      <trkpt lat="43.1451785" lon="-2.8305803">
        <ele>142.115</ele>
        <time>2021-04-01T09:37:50.204Z</time>
      </trkpt>
      <trkpt lat="43.145181" lon="-2.8305868">
        <ele>142.11</ele>
        <time>2021-04-01T09:37:50.259Z</time>
      </trkpt>
      <trkpt lat="43.1451834" lon="-2.8305936">
        <ele>142.095</ele>
        <time>2021-04-01T09:37:50.314Z</time>
      </trkpt>
      <trkpt lat="43.1451858" lon="-2.8306006">
        <ele>142.049</ele>
        <time>2021-04-01T09:37:50.369Z</time>
      </trkpt>
      <trkpt lat="43.1451882" lon="-2.8306075">
        <ele>142.049</ele>
        <time>2021-04-01T09:37:50.424Z</time>
      </trkpt>
      <trkpt lat="43.1451907" lon="-2.8306145">
        <ele>142.052</ele>
        <time>2021-04-01T09:37:50.479Z</time>
      </trkpt>
      <trkpt lat="43.1451931" lon="-2.8306212">
        <ele>142.031</ele>
        <time>2021-04-01T09:37:50.534Z</time>
      </trkpt>
      <trkpt lat="43.1451956" lon="-2.830628">
        <ele>142.025</ele>
        <time>2021-04-01T09:37:50.589Z</time>
      </trkpt>
      <trkpt lat="43.1451981" lon="-2.8306348">
        <ele>141.967</ele>
        <time>2021-04-01T09:37:50.644Z</time>
      </trkpt>
      <trkpt lat="43.1452005" lon="-2.8306415">
        <ele>141.949</ele>
        <time>2021-04-01T09:37:50.699Z</time>
      </trkpt>
      <trkpt lat="43.1452028" lon="-2.8306482">
        <ele>141.925</ele>
        <time>2021-04-01T09:37:50.754Z</time>
      </trkpt>
      <trkpt lat="43.1452052" lon="-2.8306549">
        <ele>141.912</ele>
        <time>2021-04-01T09:37:50.809Z</time>
      </trkpt>
      <trkpt lat="43.1452076" lon="-2.8306615">
        <ele>141.916</ele>
        <time>2021-04-01T09:37:50.864Z</time>
      </trkpt>
      <trkpt lat="43.1452102" lon="-2.8306681">
        <ele>141.903</ele>
        <time>2021-04-01T09:37:50.919Z</time>
      </trkpt>
      <trkpt lat="43.1452126" lon="-2.8306748">
        <ele>141.865</ele>
        <time>2021-04-01T09:37:50.974Z</time>
      </trkpt>
      <trkpt lat="43.1452148" lon="-2.8306814">
        <ele>141.823</ele>
        <time>2021-04-01T09:37:51.029Z</time>
      </trkpt>
      <trkpt lat="43.1452172" lon="-2.8306882">
        <ele>141.823</ele>
        <time>2021-04-01T09:37:51.084Z</time>
      </trkpt>
      <trkpt lat="43.1452197" lon="-2.8306949">
        <ele>141.811</ele>
        <time>2021-04-01T09:37:51.136Z</time>
      </trkpt>
      <trkpt lat="43.145222" lon="-2.8307014">
        <ele>141.779</ele>
        <time>2021-04-01T09:37:51.188Z</time>
      </trkpt>
      <trkpt lat="43.1452244" lon="-2.8307079">
        <ele>141.765</ele>
        <time>2021-04-01T09:37:51.240Z</time>
      </trkpt>
      <trkpt lat="43.145227" lon="-2.8307147">
        <ele>141.76</ele>
        <time>2021-04-01T09:37:51.292Z</time>
      </trkpt>
      <trkpt lat="43.1452294" lon="-2.8307212">
        <ele>141.735</ele>
        <time>2021-04-01T09:37:51.344Z</time>
      </trkpt>
      <trkpt lat="43.1452316" lon="-2.830728">
        <ele>141.693</ele>
        <time>2021-04-01T09:37:51.396Z</time>
      </trkpt>
      <trkpt lat="43.1452338" lon="-2.8307348">
        <ele>141.678</ele>
        <time>2021-04-01T09:37:51.448Z</time>
      </trkpt>
      <trkpt lat="43.1452361" lon="-2.8307414">
        <ele>141.615</ele>
        <time>2021-04-01T09:37:51.500Z</time>
      </trkpt>
      <trkpt lat="43.1452384" lon="-2.8307481">
        <ele>141.588</ele>
        <time>2021-04-01T09:37:51.552Z</time>
      </trkpt>
      <trkpt lat="43.1452407" lon="-2.8307548">
        <ele>141.561</ele>
        <time>2021-04-01T09:37:51.605Z</time>
      </trkpt>
      <trkpt lat="43.145243" lon="-2.8307615">
        <ele>141.542</ele>
        <time>2021-04-01T09:37:51.657Z</time>
      </trkpt>
      <trkpt lat="43.1452453" lon="-2.8307677">
        <ele>141.507</ele>
        <time>2021-04-01T09:37:51.709Z</time>
      </trkpt>
      <trkpt lat="43.1452476" lon="-2.8307742">
        <ele>141.442</ele>
        <time>2021-04-01T09:37:51.761Z</time>
      </trkpt>
      <trkpt lat="43.1452498" lon="-2.8307806">
        <ele>141.399</ele>
        <time>2021-04-01T09:37:51.813Z</time>
      </trkpt>
      <trkpt lat="43.1452521" lon="-2.8307869">
        <ele>141.357</ele>
        <time>2021-04-01T09:37:51.865Z</time>
      </trkpt>
      <trkpt lat="43.1452544" lon="-2.8307934">
        <ele>141.322</ele>
        <time>2021-04-01T09:37:51.917Z</time>
      </trkpt>
      <trkpt lat="43.1452566" lon="-2.8307999">
        <ele>141.31</ele>
        <time>2021-04-01T09:37:51.969Z</time>
      </trkpt>
      <trkpt lat="43.1452588" lon="-2.8308066">
        <ele>141.294</ele>
        <time>2021-04-01T09:37:52.021Z</time>
      </trkpt>
      <trkpt lat="43.1452611" lon="-2.8308131">
        <ele>141.279</ele>
        <time>2021-04-01T09:37:52.074Z</time>
      </trkpt>
      <trkpt lat="43.1452634" lon="-2.8308198">
        <ele>141.248</ele>
        <time>2021-04-01T09:37:52.139Z</time>
      </trkpt>
      <trkpt lat="43.1452658" lon="-2.8308262">
        <ele>141.253</ele>
        <time>2021-04-01T09:37:52.204Z</time>
      </trkpt>
      <trkpt lat="43.1452702" lon="-2.8308392">
        <ele>141.204</ele>
        <time>2021-04-01T09:37:52.269Z</time>
      </trkpt>
      <trkpt lat="43.1452722" lon="-2.8308456">
        <ele>141.165</ele>
        <time>2021-04-01T09:37:52.335Z</time>
      </trkpt>
      <trkpt lat="43.145274" lon="-2.8308521">
        <ele>141.138</ele>
        <time>2021-04-01T09:37:52.400Z</time>
      </trkpt>
      <trkpt lat="43.1452761" lon="-2.8308583">
        <ele>141.1</ele>
        <time>2021-04-01T09:37:52.465Z</time>
      </trkpt>
      <trkpt lat="43.1452782" lon="-2.8308646">
        <ele>141.043</ele>
        <time>2021-04-01T09:37:52.531Z</time>
      </trkpt>
      <trkpt lat="43.1452803" lon="-2.830871">
        <ele>141.03</ele>
        <time>2021-04-01T09:37:52.596Z</time>
      </trkpt>
      <trkpt lat="43.1452825" lon="-2.8308774">
        <ele>141.012</ele>
        <time>2021-04-01T09:37:52.661Z</time>
      </trkpt>
      <trkpt lat="43.1452848" lon="-2.8308837">
        <ele>140.992</ele>
        <time>2021-04-01T09:37:52.727Z</time>
      </trkpt>
      <trkpt lat="43.145287" lon="-2.8308901">
        <ele>140.98</ele>
        <time>2021-04-01T09:37:52.792Z</time>
      </trkpt>
      <trkpt lat="43.145289" lon="-2.8308965">
        <ele>140.955</ele>
        <time>2021-04-01T09:37:52.857Z</time>
      </trkpt>
      <trkpt lat="43.1452911" lon="-2.8309031">
        <ele>140.967</ele>
        <time>2021-04-01T09:37:52.923Z</time>
      </trkpt>
      <trkpt lat="43.1452933" lon="-2.8309095">
        <ele>140.946</ele>
        <time>2021-04-01T09:37:52.988Z</time>
      </trkpt>
      <trkpt lat="43.1452953" lon="-2.8309158">
        <ele>140.905</ele>
        <time>2021-04-01T09:37:53.053Z</time>
      </trkpt>
      <trkpt lat="43.1452973" lon="-2.8309221">
        <ele>140.884</ele>
        <time>2021-04-01T09:37:53.119Z</time>
      </trkpt>
      <trkpt lat="43.1452996" lon="-2.8309284">
        <ele>140.862</ele>
        <time>2021-04-01T09:37:53.171Z</time>
      </trkpt>
      <trkpt lat="43.1453018" lon="-2.8309348">
        <ele>140.831</ele>
        <time>2021-04-01T09:37:53.223Z</time>
      </trkpt>
      <trkpt lat="43.145304" lon="-2.8309411">
        <ele>140.807</ele>
        <time>2021-04-01T09:37:53.275Z</time>
      </trkpt>
      <trkpt lat="43.1453063" lon="-2.8309474">
        <ele>140.795</ele>
        <time>2021-04-01T09:37:53.327Z</time>
      </trkpt>
      <trkpt lat="43.1453084" lon="-2.8309538">
        <ele>140.785</ele>
        <time>2021-04-01T09:37:53.379Z</time>
      </trkpt>
      <trkpt lat="43.1453105" lon="-2.8309601">
        <ele>140.743</ele>
        <time>2021-04-01T09:37:53.431Z</time>
      </trkpt>
      <trkpt lat="43.1453128" lon="-2.8309664">
        <ele>140.716</ele>
        <time>2021-04-01T09:37:53.483Z</time>
      </trkpt>
      <trkpt lat="43.1453149" lon="-2.8309728">
        <ele>140.67</ele>
        <time>2021-04-01T09:37:53.535Z</time>
      </trkpt>
      <trkpt lat="43.1453169" lon="-2.8309791">
        <ele>140.652</ele>
        <time>2021-04-01T09:37:53.587Z</time>
      </trkpt>
      <trkpt lat="43.145319" lon="-2.8309859">
        <ele>140.614</ele>
        <time>2021-04-01T09:37:53.640Z</time>
      </trkpt>
      <trkpt lat="43.1453212" lon="-2.830993">
        <ele>140.602</ele>
        <time>2021-04-01T09:37:53.692Z</time>
      </trkpt>
      <trkpt lat="43.1453233" lon="-2.8309998">
        <ele>140.579</ele>
        <time>2021-04-01T09:37:53.744Z</time>
      </trkpt>
      <trkpt lat="43.1453255" lon="-2.8310063">
        <ele>140.536</ele>
        <time>2021-04-01T09:37:53.796Z</time>
      </trkpt>
      <trkpt lat="43.1453279" lon="-2.8310129">
        <ele>140.561</ele>
        <time>2021-04-01T09:37:53.848Z</time>
      </trkpt>
      <trkpt lat="43.1453301" lon="-2.8310195">
        <ele>140.585</ele>
        <time>2021-04-01T09:37:53.900Z</time>
      </trkpt>
      <trkpt lat="43.1453322" lon="-2.8310262">
        <ele>140.573</ele>
        <time>2021-04-01T09:37:53.952Z</time>
      </trkpt>
      <trkpt lat="43.1453345" lon="-2.8310329">
        <ele>140.565</ele>
        <time>2021-04-01T09:37:54.004Z</time>
      </trkpt>
      <trkpt lat="43.1453367" lon="-2.8310393">
        <ele>140.552</ele>
        <time>2021-04-01T09:37:54.056Z</time>
      </trkpt>
      <trkpt lat="43.145339" lon="-2.8310458">
        <ele>140.569</ele>
        <time>2021-04-01T09:37:54.109Z</time>
      </trkpt>
      <trkpt lat="43.1453413" lon="-2.8310522">
        <ele>140.571</ele>
        <time>2021-04-01T09:37:54.164Z</time>
      </trkpt>
      <trkpt lat="43.1453434" lon="-2.8310588">
        <ele>140.527</ele>
        <time>2021-04-01T09:37:54.219Z</time>
      </trkpt>
      <trkpt lat="43.1453455" lon="-2.8310655">
        <ele>140.52</ele>
        <time>2021-04-01T09:37:54.274Z</time>
      </trkpt>
      <trkpt lat="43.1453477" lon="-2.8310721">
        <ele>140.539</ele>
        <time>2021-04-01T09:37:54.329Z</time>
      </trkpt>
      <trkpt lat="43.1453499" lon="-2.8310787">
        <ele>140.547</ele>
        <time>2021-04-01T09:37:54.384Z</time>
      </trkpt>
      <trkpt lat="43.145352" lon="-2.8310849">
        <ele>140.533</ele>
        <time>2021-04-01T09:37:54.439Z</time>
      </trkpt>
      <trkpt lat="43.1453541" lon="-2.8310913">
        <ele>140.51</ele>
        <time>2021-04-01T09:37:54.494Z</time>
      </trkpt>
      <trkpt lat="43.1453563" lon="-2.8310979">
        <ele>140.509</ele>
        <time>2021-04-01T09:37:54.549Z</time>
      </trkpt>
      <trkpt lat="43.1453585" lon="-2.8311047">
        <ele>140.555</ele>
        <time>2021-04-01T09:37:54.604Z</time>
      </trkpt>
      <trkpt lat="43.1453607" lon="-2.8311109">
        <ele>140.544</ele>
        <time>2021-04-01T09:37:54.659Z</time>
      </trkpt>
      <trkpt lat="43.1453629" lon="-2.831117">
        <ele>140.534</ele>
        <time>2021-04-01T09:37:54.714Z</time>
      </trkpt>
      <trkpt lat="43.145365" lon="-2.8311236">
        <ele>140.541</ele>
        <time>2021-04-01T09:37:54.769Z</time>
      </trkpt>
      <trkpt lat="43.1453673" lon="-2.8311302">
        <ele>140.533</ele>
        <time>2021-04-01T09:37:54.824Z</time>
      </trkpt>
      <trkpt lat="43.1453694" lon="-2.8311364">
        <ele>140.495</ele>
        <time>2021-04-01T09:37:54.879Z</time>
      </trkpt>
      <trkpt lat="43.1453716" lon="-2.8311428">
        <ele>140.491</ele>
        <time>2021-04-01T09:37:54.934Z</time>
      </trkpt>
      <trkpt lat="43.1453738" lon="-2.8311491">
        <ele>140.502</ele>
        <time>2021-04-01T09:37:54.989Z</time>
      </trkpt>
      <trkpt lat="43.145376" lon="-2.8311555">
        <ele>140.532</ele>
        <time>2021-04-01T09:37:55.044Z</time>
      </trkpt>
      <trkpt lat="43.1453782" lon="-2.8311617">
        <ele>140.513</ele>
        <time>2021-04-01T09:37:55.099Z</time>
      </trkpt>
      <trkpt lat="43.1453804" lon="-2.8311678">
        <ele>140.487</ele>
        <time>2021-04-01T09:37:55.151Z</time>
      </trkpt>
      <trkpt lat="43.1453827" lon="-2.8311739">
        <ele>140.478</ele>
        <time>2021-04-01T09:37:55.203Z</time>
      </trkpt>
      <trkpt lat="43.1453847" lon="-2.83118">
        <ele>140.496</ele>
        <time>2021-04-01T09:37:55.255Z</time>
      </trkpt>
      <trkpt lat="43.1453869" lon="-2.8311862">
        <ele>140.5</ele>
        <time>2021-04-01T09:37:55.307Z</time>
      </trkpt>
      <trkpt lat="43.1453891" lon="-2.8311923">
        <ele>140.488</ele>
        <time>2021-04-01T09:37:55.359Z</time>
      </trkpt>
      <trkpt lat="43.1453911" lon="-2.8311986">
        <ele>140.497</ele>
        <time>2021-04-01T09:37:55.411Z</time>
      </trkpt>
      <trkpt lat="43.1453932" lon="-2.8312048">
        <ele>140.51</ele>
        <time>2021-04-01T09:37:55.463Z</time>
      </trkpt>
      <trkpt lat="43.1453955" lon="-2.8312109">
        <ele>140.516</ele>
        <time>2021-04-01T09:37:55.515Z</time>
      </trkpt>
      <trkpt lat="43.1453975" lon="-2.831217">
        <ele>140.484</ele>
        <time>2021-04-01T09:37:55.567Z</time>
      </trkpt>
      <trkpt lat="43.1453995" lon="-2.831223">
        <ele>140.468</ele>
        <time>2021-04-01T09:37:55.620Z</time>
      </trkpt>
      <trkpt lat="43.1454017" lon="-2.8312292">
        <ele>140.497</ele>
        <time>2021-04-01T09:37:55.672Z</time>
      </trkpt>
      <trkpt lat="43.1454036" lon="-2.8312351">
        <ele>140.48</ele>
        <time>2021-04-01T09:37:55.724Z</time>
      </trkpt>
      <trkpt lat="43.1454054" lon="-2.8312414">
        <ele>140.432</ele>
        <time>2021-04-01T09:37:55.776Z</time>
      </trkpt>
      <trkpt lat="43.1454072" lon="-2.8312478">
        <ele>140.378</ele>
        <time>2021-04-01T09:37:55.828Z</time>
      </trkpt>
      <trkpt lat="43.145409" lon="-2.8312541">
        <ele>140.345</ele>
        <time>2021-04-01T09:37:55.880Z</time>
      </trkpt>
      <trkpt lat="43.1454106" lon="-2.8312605">
        <ele>140.33</ele>
        <time>2021-04-01T09:37:55.932Z</time>
      </trkpt>
      <trkpt lat="43.1454122" lon="-2.8312668">
        <ele>140.302</ele>
        <time>2021-04-01T09:37:55.984Z</time>
      </trkpt>
      <trkpt lat="43.145414" lon="-2.831273">
        <ele>140.253</ele>
        <time>2021-04-01T09:37:56.036Z</time>
      </trkpt>
      <trkpt lat="43.1454158" lon="-2.8312793">
        <ele>140.249</ele>
        <time>2021-04-01T09:37:56.089Z</time>
      </trkpt>
      <trkpt lat="43.1454176" lon="-2.8312854">
        <ele>140.237</ele>
        <time>2021-04-01T09:37:56.144Z</time>
      </trkpt>
      <trkpt lat="43.1454196" lon="-2.8312915">
        <ele>140.233</ele>
        <time>2021-04-01T09:37:56.199Z</time>
      </trkpt>
      <trkpt lat="43.1454212" lon="-2.8312973">
        <ele>140.192</ele>
        <time>2021-04-01T09:37:56.254Z</time>
      </trkpt>
      <trkpt lat="43.145423" lon="-2.8313033">
        <ele>140.202</ele>
        <time>2021-04-01T09:37:56.309Z</time>
      </trkpt>
      <trkpt lat="43.1454247" lon="-2.8313095">
        <ele>140.187</ele>
        <time>2021-04-01T09:37:56.364Z</time>
      </trkpt>
      <trkpt lat="43.1454265" lon="-2.8313153">
        <ele>140.165</ele>
        <time>2021-04-01T09:37:56.419Z</time>
      </trkpt>
      <trkpt lat="43.1454285" lon="-2.8313211">
        <ele>140.152</ele>
        <time>2021-04-01T09:37:56.474Z</time>
      </trkpt>
      <trkpt lat="43.1454304" lon="-2.831327">
        <ele>140.141</ele>
        <time>2021-04-01T09:37:56.529Z</time>
      </trkpt>
      <trkpt lat="43.1454325" lon="-2.831333">
        <ele>140.181</ele>
        <time>2021-04-01T09:37:56.584Z</time>
      </trkpt>
      <trkpt lat="43.1454343" lon="-2.8313388">
        <ele>140.197</ele>
        <time>2021-04-01T09:37:56.639Z</time>
      </trkpt>
      <trkpt lat="43.1454361" lon="-2.8313445">
        <ele>140.194</ele>
        <time>2021-04-01T09:37:56.694Z</time>
      </trkpt>
      <trkpt lat="43.1454382" lon="-2.8313501">
        <ele>140.193</ele>
        <time>2021-04-01T09:37:56.749Z</time>
      </trkpt>
      <trkpt lat="43.1454404" lon="-2.8313559">
        <ele>140.207</ele>
        <time>2021-04-01T09:37:56.804Z</time>
      </trkpt>
      <trkpt lat="43.1454424" lon="-2.8313616">
        <ele>140.224</ele>
        <time>2021-04-01T09:37:56.859Z</time>
      </trkpt>
      <trkpt lat="43.1454444" lon="-2.8313673">
        <ele>140.23</ele>
        <time>2021-04-01T09:37:56.914Z</time>
      </trkpt>
      <trkpt lat="43.1454465" lon="-2.831373">
        <ele>140.243</ele>
        <time>2021-04-01T09:37:56.969Z</time>
      </trkpt>
      <trkpt lat="43.1454487" lon="-2.8313785">
        <ele>140.26</ele>
        <time>2021-04-01T09:37:57.024Z</time>
      </trkpt>
      <trkpt lat="43.145451" lon="-2.8313842">
        <ele>140.278</ele>
        <time>2021-04-01T09:37:57.079Z</time>
      </trkpt>
      <trkpt lat="43.1454531" lon="-2.8313897">
        <ele>140.281</ele>
        <time>2021-04-01T09:37:57.137Z</time>
      </trkpt>
      <trkpt lat="43.1454553" lon="-2.8313952">
        <ele>140.278</ele>
        <time>2021-04-01T09:37:57.195Z</time>
      </trkpt>
      <trkpt lat="43.1454576" lon="-2.8314008">
        <ele>140.311</ele>
        <time>2021-04-01T09:37:57.253Z</time>
      </trkpt>
      <trkpt lat="43.1454597" lon="-2.8314064">
        <ele>140.328</ele>
        <time>2021-04-01T09:37:57.311Z</time>
      </trkpt>
      <trkpt lat="43.1454618" lon="-2.831412">
        <ele>140.357</ele>
        <time>2021-04-01T09:37:57.369Z</time>
      </trkpt>
      <trkpt lat="43.1454641" lon="-2.8314175">
        <ele>140.37</ele>
        <time>2021-04-01T09:37:57.427Z</time>
      </trkpt>
      <trkpt lat="43.1454663" lon="-2.8314229">
        <ele>140.37</ele>
        <time>2021-04-01T09:37:57.485Z</time>
      </trkpt>
      <trkpt lat="43.1454685" lon="-2.8314282">
        <ele>140.377</ele>
        <time>2021-04-01T09:37:57.543Z</time>
      </trkpt>
      <trkpt lat="43.1454706" lon="-2.8314336">
        <ele>140.395</ele>
        <time>2021-04-01T09:37:57.601Z</time>
      </trkpt>
      <trkpt lat="43.1454729" lon="-2.8314392">
        <ele>140.429</ele>
        <time>2021-04-01T09:37:57.659Z</time>
      </trkpt>
      <trkpt lat="43.1454751" lon="-2.8314449">
        <ele>140.439</ele>
        <time>2021-04-01T09:37:57.717Z</time>
      </trkpt>
      <trkpt lat="43.1454774" lon="-2.8314501">
        <ele>140.46</ele>
        <time>2021-04-01T09:37:57.775Z</time>
      </trkpt>
      <trkpt lat="43.1454796" lon="-2.8314552">
        <ele>140.47</ele>
        <time>2021-04-01T09:37:57.833Z</time>
      </trkpt>
      <trkpt lat="43.1454818" lon="-2.8314608">
        <ele>140.474</ele>
        <time>2021-04-01T09:37:57.891Z</time>
      </trkpt>
      <trkpt lat="43.145484" lon="-2.8314662">
        <ele>140.494</ele>
        <time>2021-04-01T09:37:57.949Z</time>
      </trkpt>
      <trkpt lat="43.1454867" lon="-2.8314717">
        <ele>140.59</ele>
        <time>2021-04-01T09:37:58.007Z</time>
      </trkpt>
      <trkpt lat="43.1454892" lon="-2.8314772">
        <ele>140.671</ele>
        <time>2021-04-01T09:37:58.065Z</time>
      </trkpt>
      <trkpt lat="43.1454916" lon="-2.8314831">
        <ele>140.692</ele>
        <time>2021-04-01T09:37:58.124Z</time>
      </trkpt>
      <trkpt lat="43.1454942" lon="-2.8314885">
        <ele>140.726</ele>
        <time>2021-04-01T09:37:58.179Z</time>
      </trkpt>
      <trkpt lat="43.1454966" lon="-2.8314939">
        <ele>140.772</ele>
        <time>2021-04-01T09:37:58.234Z</time>
      </trkpt>
      <trkpt lat="43.145499" lon="-2.8314993">
        <ele>140.818</ele>
        <time>2021-04-01T09:37:58.289Z</time>
      </trkpt>
      <trkpt lat="43.1455015" lon="-2.8315046">
        <ele>140.853</ele>
        <time>2021-04-01T09:37:58.344Z</time>
      </trkpt>
      <trkpt lat="43.1455039" lon="-2.8315102">
        <ele>140.894</ele>
        <time>2021-04-01T09:37:58.399Z</time>
      </trkpt>
      <trkpt lat="43.1455063" lon="-2.8315155">
        <ele>140.933</ele>
        <time>2021-04-01T09:37:58.454Z</time>
      </trkpt>
      <trkpt lat="43.1455088" lon="-2.831521">
        <ele>140.983</ele>
        <time>2021-04-01T09:37:58.509Z</time>
      </trkpt>
      <trkpt lat="43.1455112" lon="-2.8315262">
        <ele>141.034</ele>
        <time>2021-04-01T09:37:58.564Z</time>
      </trkpt>
      <trkpt lat="43.1455138" lon="-2.8315314">
        <ele>141.079</ele>
        <time>2021-04-01T09:37:58.619Z</time>
      </trkpt>
      <trkpt lat="43.1455163" lon="-2.8315367">
        <ele>141.116</ele>
        <time>2021-04-01T09:37:58.674Z</time>
      </trkpt>
      <trkpt lat="43.1455189" lon="-2.831542">
        <ele>141.185</ele>
        <time>2021-04-01T09:37:58.729Z</time>
      </trkpt>
      <trkpt lat="43.1455213" lon="-2.8315474">
        <ele>141.234</ele>
        <time>2021-04-01T09:37:58.784Z</time>
      </trkpt>
      <trkpt lat="43.1455238" lon="-2.8315528">
        <ele>141.252</ele>
        <time>2021-04-01T09:37:58.839Z</time>
      </trkpt>
      <trkpt lat="43.1455263" lon="-2.8315581">
        <ele>141.284</ele>
        <time>2021-04-01T09:37:58.894Z</time>
      </trkpt>
      <trkpt lat="43.1455289" lon="-2.8315631">
        <ele>141.337</ele>
        <time>2021-04-01T09:37:58.949Z</time>
      </trkpt>
      <trkpt lat="43.1455313" lon="-2.8315682">
        <ele>141.373</ele>
        <time>2021-04-01T09:37:59.004Z</time>
      </trkpt>
      <trkpt lat="43.145534" lon="-2.8315734">
        <ele>141.394</ele>
        <time>2021-04-01T09:37:59.059Z</time>
      </trkpt>
      <trkpt lat="43.1455365" lon="-2.8315786">
        <ele>141.418</ele>
        <time>2021-04-01T09:37:59.114Z</time>
      </trkpt>
      <trkpt lat="43.1455389" lon="-2.8315835">
        <ele>141.44</ele>
        <time>2021-04-01T09:37:59.169Z</time>
      </trkpt>
      <trkpt lat="43.1455415" lon="-2.8315885">
        <ele>141.479</ele>
        <time>2021-04-01T09:37:59.224Z</time>
      </trkpt>
      <trkpt lat="43.1455439" lon="-2.8315935">
        <ele>141.498</ele>
        <time>2021-04-01T09:37:59.279Z</time>
      </trkpt>
      <trkpt lat="43.1455462" lon="-2.8315984">
        <ele>141.501</ele>
        <time>2021-04-01T09:37:59.334Z</time>
      </trkpt>
      <trkpt lat="43.1455485" lon="-2.8316031">
        <ele>141.508</ele>
        <time>2021-04-01T09:37:59.389Z</time>
      </trkpt>
      <trkpt lat="43.145551" lon="-2.8316078">
        <ele>141.534</ele>
        <time>2021-04-01T09:37:59.444Z</time>
      </trkpt>
      <trkpt lat="43.1455534" lon="-2.8316128">
        <ele>141.544</ele>
        <time>2021-04-01T09:37:59.499Z</time>
      </trkpt>
      <trkpt lat="43.1455558" lon="-2.8316178">
        <ele>141.563</ele>
        <time>2021-04-01T09:37:59.554Z</time>
      </trkpt>
      <trkpt lat="43.1455581" lon="-2.8316226">
        <ele>141.581</ele>
        <time>2021-04-01T09:37:59.609Z</time>
      </trkpt>
      <trkpt lat="43.1455603" lon="-2.8316277">
        <ele>141.603</ele>
        <time>2021-04-01T09:37:59.664Z</time>
      </trkpt>
      <trkpt lat="43.1455626" lon="-2.8316328">
        <ele>141.623</ele>
        <time>2021-04-01T09:37:59.719Z</time>
      </trkpt>
      <trkpt lat="43.145565" lon="-2.8316376">
        <ele>141.629</ele>
        <time>2021-04-01T09:37:59.774Z</time>
      </trkpt>
      <trkpt lat="43.1455675" lon="-2.8316422">
        <ele>141.66</ele>
        <time>2021-04-01T09:37:59.829Z</time>
      </trkpt>
      <trkpt lat="43.1455698" lon="-2.8316469">
        <ele>141.695</ele>
        <time>2021-04-01T09:37:59.884Z</time>
      </trkpt>
      <trkpt lat="43.1455722" lon="-2.8316516">
        <ele>141.717</ele>
        <time>2021-04-01T09:37:59.939Z</time>
      </trkpt>
      <trkpt lat="43.1455745" lon="-2.8316565">
        <ele>141.749</ele>
        <time>2021-04-01T09:37:59.994Z</time>
      </trkpt>
      <trkpt lat="43.1455768" lon="-2.8316614">
        <ele>141.799</ele>
        <time>2021-04-01T09:38:00.049Z</time>
      </trkpt>
      <trkpt lat="43.1455792" lon="-2.8316664">
        <ele>141.839</ele>
        <time>2021-04-01T09:38:00.104Z</time>
      </trkpt>
      <trkpt lat="43.1455813" lon="-2.8316715">
        <ele>141.884</ele>
        <time>2021-04-01T09:38:00.159Z</time>
      </trkpt>
      <trkpt lat="43.1455837" lon="-2.831676">
        <ele>141.924</ele>
        <time>2021-04-01T09:38:00.214Z</time>
      </trkpt>
      <trkpt lat="43.145586" lon="-2.831681">
        <ele>141.943</ele>
        <time>2021-04-01T09:38:00.269Z</time>
      </trkpt>
      <trkpt lat="43.1455883" lon="-2.8316857">
        <ele>141.976</ele>
        <time>2021-04-01T09:38:00.324Z</time>
      </trkpt>
      <trkpt lat="43.1455908" lon="-2.8316904">
        <ele>142.014</ele>
        <time>2021-04-01T09:38:00.379Z</time>
      </trkpt>
      <trkpt lat="43.1455934" lon="-2.8316948">
        <ele>142.083</ele>
        <time>2021-04-01T09:38:00.434Z</time>
      </trkpt>
      <trkpt lat="43.1455958" lon="-2.8316992">
        <ele>142.094</ele>
        <time>2021-04-01T09:38:00.489Z</time>
      </trkpt>
      <trkpt lat="43.1455984" lon="-2.8317036">
        <ele>142.15</ele>
        <time>2021-04-01T09:38:00.544Z</time>
      </trkpt>
      <trkpt lat="43.145601" lon="-2.8317079">
        <ele>142.186</ele>
        <time>2021-04-01T09:38:00.599Z</time>
      </trkpt>
      <trkpt lat="43.1456036" lon="-2.8317121">
        <ele>142.205</ele>
        <time>2021-04-01T09:38:00.654Z</time>
      </trkpt>
      <trkpt lat="43.1456062" lon="-2.8317163">
        <ele>142.202</ele>
        <time>2021-04-01T09:38:00.709Z</time>
      </trkpt>
      <trkpt lat="43.1456088" lon="-2.8317205">
        <ele>142.255</ele>
        <time>2021-04-01T09:38:00.764Z</time>
      </trkpt>
      <trkpt lat="43.1456115" lon="-2.8317248">
        <ele>142.299</ele>
        <time>2021-04-01T09:38:00.819Z</time>
      </trkpt>
      <trkpt lat="43.1456141" lon="-2.8317291">
        <ele>142.331</ele>
        <time>2021-04-01T09:38:00.874Z</time>
      </trkpt>
      <trkpt lat="43.1456166" lon="-2.8317334">
        <ele>142.387</ele>
        <time>2021-04-01T09:38:00.929Z</time>
      </trkpt>
      <trkpt lat="43.1456192" lon="-2.8317378">
        <ele>142.378</ele>
        <time>2021-04-01T09:38:00.984Z</time>
      </trkpt>
      <trkpt lat="43.145622" lon="-2.831742">
        <ele>142.411</ele>
        <time>2021-04-01T09:38:01.039Z</time>
      </trkpt>
      <trkpt lat="43.1456247" lon="-2.8317459">
        <ele>142.44</ele>
        <time>2021-04-01T09:38:01.094Z</time>
      </trkpt>
      <trkpt lat="43.1456276" lon="-2.8317497">
        <ele>142.437</ele>
        <time>2021-04-01T09:38:01.149Z</time>
      </trkpt>
      <trkpt lat="43.1456304" lon="-2.8317535">
        <ele>142.467</ele>
        <time>2021-04-01T09:38:01.204Z</time>
      </trkpt>
      <trkpt lat="43.1456333" lon="-2.8317572">
        <ele>142.499</ele>
        <time>2021-04-01T09:38:01.259Z</time>
      </trkpt>
      <trkpt lat="43.1456363" lon="-2.8317607">
        <ele>142.525</ele>
        <time>2021-04-01T09:38:01.314Z</time>
      </trkpt>
      <trkpt lat="43.1456393" lon="-2.8317641">
        <ele>142.554</ele>
        <time>2021-04-01T09:38:01.369Z</time>
      </trkpt>
      <trkpt lat="43.1456424" lon="-2.8317673">
        <ele>142.601</ele>
        <time>2021-04-01T09:38:01.424Z</time>
      </trkpt>
      <trkpt lat="43.1456456" lon="-2.8317708">
        <ele>142.636</ele>
        <time>2021-04-01T09:38:01.479Z</time>
      </trkpt>
      <trkpt lat="43.1456487" lon="-2.8317739">
        <ele>142.671</ele>
        <time>2021-04-01T09:38:01.534Z</time>
      </trkpt>
      <trkpt lat="43.1456516" lon="-2.831777">
        <ele>142.705</ele>
        <time>2021-04-01T09:38:01.589Z</time>
      </trkpt>
      <trkpt lat="43.1456548" lon="-2.8317801">
        <ele>142.712</ele>
        <time>2021-04-01T09:38:01.644Z</time>
      </trkpt>
      <trkpt lat="43.1456578" lon="-2.8317831">
        <ele>142.746</ele>
        <time>2021-04-01T09:38:01.699Z</time>
      </trkpt>
      <trkpt lat="43.1456608" lon="-2.8317861">
        <ele>142.802</ele>
        <time>2021-04-01T09:38:01.754Z</time>
      </trkpt>
      <trkpt lat="43.1456643" lon="-2.8317891">
        <ele>142.829</ele>
        <time>2021-04-01T09:38:01.809Z</time>
      </trkpt>
      <trkpt lat="43.1456677" lon="-2.831792">
        <ele>142.874</ele>
        <time>2021-04-01T09:38:01.864Z</time>
      </trkpt>
      <trkpt lat="43.1456709" lon="-2.8317948">
        <ele>142.928</ele>
        <time>2021-04-01T09:38:01.919Z</time>
      </trkpt>
      <trkpt lat="43.1456741" lon="-2.8317976">
        <ele>142.966</ele>
        <time>2021-04-01T09:38:01.974Z</time>
      </trkpt>
      <trkpt lat="43.1456773" lon="-2.8318005">
        <ele>142.999</ele>
        <time>2021-04-01T09:38:02.029Z</time>
      </trkpt>
      <trkpt lat="43.1456805" lon="-2.8318033">
        <ele>143.022</ele>
        <time>2021-04-01T09:38:02.084Z</time>
      </trkpt>
      <trkpt lat="43.1456838" lon="-2.8318059">
        <ele>143.064</ele>
        <time>2021-04-01T09:38:02.136Z</time>
      </trkpt>
      <trkpt lat="43.145687" lon="-2.8318086">
        <ele>143.102</ele>
        <time>2021-04-01T09:38:02.188Z</time>
      </trkpt>
      <trkpt lat="43.1456903" lon="-2.8318113">
        <ele>143.145</ele>
        <time>2021-04-01T09:38:02.240Z</time>
      </trkpt>
      <trkpt lat="43.1456934" lon="-2.831814">
        <ele>143.177</ele>
        <time>2021-04-01T09:38:02.292Z</time>
      </trkpt>
      <trkpt lat="43.1456968" lon="-2.8318165">
        <ele>143.209</ele>
        <time>2021-04-01T09:38:02.344Z</time>
      </trkpt>
      <trkpt lat="43.1457001" lon="-2.8318191">
        <ele>143.221</ele>
        <time>2021-04-01T09:38:02.396Z</time>
      </trkpt>
      <trkpt lat="43.1457033" lon="-2.8318217">
        <ele>143.239</ele>
        <time>2021-04-01T09:38:02.448Z</time>
      </trkpt>
      <trkpt lat="43.1457066" lon="-2.8318243">
        <ele>143.272</ele>
        <time>2021-04-01T09:38:02.500Z</time>
      </trkpt>
      <trkpt lat="43.1457097" lon="-2.8318268">
        <ele>143.285</ele>
        <time>2021-04-01T09:38:02.552Z</time>
      </trkpt>
      <trkpt lat="43.1457129" lon="-2.8318292">
        <ele>143.297</ele>
        <time>2021-04-01T09:38:02.605Z</time>
      </trkpt>
      <trkpt lat="43.1457161" lon="-2.8318316">
        <ele>143.297</ele>
        <time>2021-04-01T09:38:02.657Z</time>
      </trkpt>
      <trkpt lat="43.1457195" lon="-2.8318341">
        <ele>143.322</ele>
        <time>2021-04-01T09:38:02.709Z</time>
      </trkpt>
      <trkpt lat="43.1457228" lon="-2.8318367">
        <ele>143.34</ele>
        <time>2021-04-01T09:38:02.761Z</time>
      </trkpt>
      <trkpt lat="43.1457262" lon="-2.8318395">
        <ele>143.372</ele>
        <time>2021-04-01T09:38:02.813Z</time>
      </trkpt>
      <trkpt lat="43.1457295" lon="-2.831842">
        <ele>143.398</ele>
        <time>2021-04-01T09:38:02.865Z</time>
      </trkpt>
      <trkpt lat="43.1457327" lon="-2.8318444">
        <ele>143.426</ele>
        <time>2021-04-01T09:38:02.917Z</time>
      </trkpt>
      <trkpt lat="43.145736" lon="-2.8318467">
        <ele>143.448</ele>
        <time>2021-04-01T09:38:02.969Z</time>
      </trkpt>
      <trkpt lat="43.1457395" lon="-2.8318491">
        <ele>143.47</ele>
        <time>2021-04-01T09:38:03.021Z</time>
      </trkpt>
      <trkpt lat="43.1457428" lon="-2.8318516">
        <ele>143.487</ele>
        <time>2021-04-01T09:38:03.074Z</time>
      </trkpt>
      <trkpt lat="43.1457463" lon="-2.831854">
        <ele>143.507</ele>
        <time>2021-04-01T09:38:03.132Z</time>
      </trkpt>
      <trkpt lat="43.1457497" lon="-2.8318564">
        <ele>143.523</ele>
        <time>2021-04-01T09:38:03.190Z</time>
      </trkpt>
      <trkpt lat="43.1457532" lon="-2.8318587">
        <ele>143.545</ele>
        <time>2021-04-01T09:38:03.248Z</time>
      </trkpt>
      <trkpt lat="43.1457566" lon="-2.8318609">
        <ele>143.579</ele>
        <time>2021-04-01T09:38:03.306Z</time>
      </trkpt>
      <trkpt lat="43.1457599" lon="-2.8318633">
        <ele>143.592</ele>
        <time>2021-04-01T09:38:03.364Z</time>
      </trkpt>
      <trkpt lat="43.1457634" lon="-2.8318656">
        <ele>143.62</ele>
        <time>2021-04-01T09:38:03.422Z</time>
      </trkpt>
      <trkpt lat="43.1457669" lon="-2.831868">
        <ele>143.645</ele>
        <time>2021-04-01T09:38:03.480Z</time>
      </trkpt>
      <trkpt lat="43.1457706" lon="-2.8318703">
        <ele>143.666</ele>
        <time>2021-04-01T09:38:03.538Z</time>
      </trkpt>
      <trkpt lat="43.1457743" lon="-2.8318724">
        <ele>143.68</ele>
        <time>2021-04-01T09:38:03.596Z</time>
      </trkpt>
      <trkpt lat="43.1457776" lon="-2.8318744">
        <ele>143.684</ele>
        <time>2021-04-01T09:38:03.654Z</time>
      </trkpt>
      <trkpt lat="43.1457808" lon="-2.8318764">
        <ele>143.663</ele>
        <time>2021-04-01T09:38:03.712Z</time>
      </trkpt>
      <trkpt lat="43.1457843" lon="-2.8318785">
        <ele>143.691</ele>
        <time>2021-04-01T09:38:03.770Z</time>
      </trkpt>
      <trkpt lat="43.145788" lon="-2.8318805">
        <ele>143.72</ele>
        <time>2021-04-01T09:38:03.828Z</time>
      </trkpt>
      <trkpt lat="43.1457917" lon="-2.8318827">
        <ele>143.76</ele>
        <time>2021-04-01T09:38:03.886Z</time>
      </trkpt>
      <trkpt lat="43.1457954" lon="-2.8318847">
        <ele>143.778</ele>
        <time>2021-04-01T09:38:03.944Z</time>
      </trkpt>
      <trkpt lat="43.1457989" lon="-2.8318869">
        <ele>143.804</ele>
        <time>2021-04-01T09:38:04.002Z</time>
      </trkpt>
      <trkpt lat="43.1458021" lon="-2.8318891">
        <ele>143.802</ele>
        <time>2021-04-01T09:38:04.060Z</time>
      </trkpt>
      <trkpt lat="43.1458055" lon="-2.8318912">
        <ele>143.8</ele>
        <time>2021-04-01T09:38:04.119Z</time>
      </trkpt>
      <trkpt lat="43.1458092" lon="-2.831893">
        <ele>143.808</ele>
        <time>2021-04-01T09:38:04.174Z</time>
      </trkpt>
      <trkpt lat="43.1458128" lon="-2.8318951">
        <ele>143.809</ele>
        <time>2021-04-01T09:38:04.229Z</time>
      </trkpt>
      <trkpt lat="43.1458161" lon="-2.8318973">
        <ele>143.835</ele>
        <time>2021-04-01T09:38:04.284Z</time>
      </trkpt>
      <trkpt lat="43.1458196" lon="-2.8318991">
        <ele>143.831</ele>
        <time>2021-04-01T09:38:04.339Z</time>
      </trkpt>
      <trkpt lat="43.1458232" lon="-2.8319012">
        <ele>143.82</ele>
        <time>2021-04-01T09:38:04.394Z</time>
      </trkpt>
      <trkpt lat="43.1458263" lon="-2.8319029">
        <ele>143.792</ele>
        <time>2021-04-01T09:38:04.449Z</time>
      </trkpt>
      <trkpt lat="43.1458296" lon="-2.8319049">
        <ele>143.802</ele>
        <time>2021-04-01T09:38:04.504Z</time>
      </trkpt>
      <trkpt lat="43.1458328" lon="-2.8319067">
        <ele>143.738</ele>
        <time>2021-04-01T09:38:04.559Z</time>
      </trkpt>
      <trkpt lat="43.1458364" lon="-2.831909">
        <ele>143.778</ele>
        <time>2021-04-01T09:38:04.614Z</time>
      </trkpt>
      <trkpt lat="43.14584" lon="-2.8319113">
        <ele>143.853</ele>
        <time>2021-04-01T09:38:04.669Z</time>
      </trkpt>
      <trkpt lat="43.1458432" lon="-2.8319135">
        <ele>143.847</ele>
        <time>2021-04-01T09:38:04.724Z</time>
      </trkpt>
      <trkpt lat="43.1458466" lon="-2.8319153">
        <ele>143.819</ele>
        <time>2021-04-01T09:38:04.779Z</time>
      </trkpt>
      <trkpt lat="43.1458498" lon="-2.8319173">
        <ele>143.812</ele>
        <time>2021-04-01T09:38:04.834Z</time>
      </trkpt>
      <trkpt lat="43.145853" lon="-2.8319194">
        <ele>143.807</ele>
        <time>2021-04-01T09:38:04.889Z</time>
      </trkpt>
      <trkpt lat="43.1458563" lon="-2.8319217">
        <ele>143.835</ele>
        <time>2021-04-01T09:38:04.944Z</time>
      </trkpt>
      <trkpt lat="43.1458595" lon="-2.8319241">
        <ele>143.841</ele>
        <time>2021-04-01T09:38:04.999Z</time>
      </trkpt>
      <trkpt lat="43.1458629" lon="-2.8319262">
        <ele>143.86</ele>
        <time>2021-04-01T09:38:05.054Z</time>
      </trkpt>
      <trkpt lat="43.1458663" lon="-2.8319284">
        <ele>143.865</ele>
        <time>2021-04-01T09:38:05.109Z</time>
      </trkpt>
      <trkpt lat="43.1458698" lon="-2.8319309">
        <ele>143.911</ele>
        <time>2021-04-01T09:38:05.164Z</time>
      </trkpt>
      <trkpt lat="43.1458731" lon="-2.8319329">
        <ele>143.931</ele>
        <time>2021-04-01T09:38:05.219Z</time>
      </trkpt>
      <trkpt lat="43.1458762" lon="-2.8319346">
        <ele>143.919</ele>
        <time>2021-04-01T09:38:05.274Z</time>
      </trkpt>
      <trkpt lat="43.1458793" lon="-2.8319371">
        <ele>143.941</ele>
        <time>2021-04-01T09:38:05.329Z</time>
      </trkpt>
      <trkpt lat="43.1458826" lon="-2.8319393">
        <ele>143.972</ele>
        <time>2021-04-01T09:38:05.384Z</time>
      </trkpt>
      <trkpt lat="43.1458858" lon="-2.8319417">
        <ele>143.992</ele>
        <time>2021-04-01T09:38:05.439Z</time>
      </trkpt>
      <trkpt lat="43.1458891" lon="-2.8319437">
        <ele>143.984</ele>
        <time>2021-04-01T09:38:05.494Z</time>
      </trkpt>
      <trkpt lat="43.1458925" lon="-2.8319461">
        <ele>144.028</ele>
        <time>2021-04-01T09:38:05.549Z</time>
      </trkpt>
      <trkpt lat="43.1458955" lon="-2.8319483">
        <ele>144.023</ele>
        <time>2021-04-01T09:38:05.604Z</time>
      </trkpt>
      <trkpt lat="43.1458988" lon="-2.8319506">
        <ele>144.068</ele>
        <time>2021-04-01T09:38:05.659Z</time>
      </trkpt>
      <trkpt lat="43.1459019" lon="-2.8319527">
        <ele>144.078</ele>
        <time>2021-04-01T09:38:05.714Z</time>
      </trkpt>
      <trkpt lat="43.1459052" lon="-2.8319549">
        <ele>144.095</ele>
        <time>2021-04-01T09:38:05.769Z</time>
      </trkpt>
      <trkpt lat="43.1459085" lon="-2.8319573">
        <ele>144.123</ele>
        <time>2021-04-01T09:38:05.824Z</time>
      </trkpt>
      <trkpt lat="43.1459113" lon="-2.8319594">
        <ele>144.086</ele>
        <time>2021-04-01T09:38:05.879Z</time>
      </trkpt>
      <trkpt lat="43.1459145" lon="-2.8319618">
        <ele>144.125</ele>
        <time>2021-04-01T09:38:05.934Z</time>
      </trkpt>
      <trkpt lat="43.145918" lon="-2.8319646">
        <ele>144.207</ele>
        <time>2021-04-01T09:38:05.989Z</time>
      </trkpt>
      <trkpt lat="43.1459213" lon="-2.8319668">
        <ele>144.255</ele>
        <time>2021-04-01T09:38:06.044Z</time>
      </trkpt>
      <trkpt lat="43.1459245" lon="-2.8319689">
        <ele>144.268</ele>
        <time>2021-04-01T09:38:06.099Z</time>
      </trkpt>
      <trkpt lat="43.1459278" lon="-2.8319712">
        <ele>144.303</ele>
        <time>2021-04-01T09:38:06.151Z</time>
      </trkpt>
      <trkpt lat="43.1459309" lon="-2.8319736">
        <ele>144.318</ele>
        <time>2021-04-01T09:38:06.203Z</time>
      </trkpt>
      <trkpt lat="43.1459341" lon="-2.831976">
        <ele>144.338</ele>
        <time>2021-04-01T09:38:06.255Z</time>
      </trkpt>
      <trkpt lat="43.1459375" lon="-2.8319782">
        <ele>144.338</ele>
        <time>2021-04-01T09:38:06.307Z</time>
      </trkpt>
      <trkpt lat="43.1459409" lon="-2.8319805">
        <ele>144.34</ele>
        <time>2021-04-01T09:38:06.359Z</time>
      </trkpt>
      <trkpt lat="43.1459443" lon="-2.8319828">
        <ele>144.365</ele>
        <time>2021-04-01T09:38:06.411Z</time>
      </trkpt>
      <trkpt lat="43.1459473" lon="-2.8319847">
        <ele>144.332</ele>
        <time>2021-04-01T09:38:06.463Z</time>
      </trkpt>
      <trkpt lat="43.1459505" lon="-2.831987">
        <ele>144.337</ele>
        <time>2021-04-01T09:38:06.515Z</time>
      </trkpt>
      <trkpt lat="43.1459538" lon="-2.8319894">
        <ele>144.398</ele>
        <time>2021-04-01T09:38:06.567Z</time>
      </trkpt>
      <trkpt lat="43.145957" lon="-2.8319917">
        <ele>144.437</ele>
        <time>2021-04-01T09:38:06.620Z</time>
      </trkpt>
      <trkpt lat="43.1459603" lon="-2.831994">
        <ele>144.458</ele>
        <time>2021-04-01T09:38:06.672Z</time>
      </trkpt>
      <trkpt lat="43.1459638" lon="-2.8319968">
        <ele>144.499</ele>
        <time>2021-04-01T09:38:06.724Z</time>
      </trkpt>
      <trkpt lat="43.1459671" lon="-2.8319991">
        <ele>144.521</ele>
        <time>2021-04-01T09:38:06.776Z</time>
      </trkpt>
      <trkpt lat="43.14597" lon="-2.8320018">
        <ele>144.544</ele>
        <time>2021-04-01T09:38:06.828Z</time>
      </trkpt>
      <trkpt lat="43.1459734" lon="-2.8320041">
        <ele>144.582</ele>
        <time>2021-04-01T09:38:06.880Z</time>
      </trkpt>
      <trkpt lat="43.1459764" lon="-2.8320066">
        <ele>144.58</ele>
        <time>2021-04-01T09:38:06.932Z</time>
      </trkpt>
      <trkpt lat="43.1459796" lon="-2.8320091">
        <ele>144.569</ele>
        <time>2021-04-01T09:38:06.984Z</time>
      </trkpt>
      <trkpt lat="43.145983" lon="-2.8320118">
        <ele>144.592</ele>
        <time>2021-04-01T09:38:07.036Z</time>
      </trkpt>
      <trkpt lat="43.1459861" lon="-2.8320145">
        <ele>144.588</ele>
        <time>2021-04-01T09:38:07.089Z</time>
      </trkpt>
      <trkpt lat="43.1459892" lon="-2.832017">
        <ele>144.61</ele>
        <time>2021-04-01T09:38:07.147Z</time>
      </trkpt>
      <trkpt lat="43.1459923" lon="-2.8320197">
        <ele>144.649</ele>
        <time>2021-04-01T09:38:07.205Z</time>
      </trkpt>
      <trkpt lat="43.1459954" lon="-2.8320224">
        <ele>144.686</ele>
        <time>2021-04-01T09:38:07.263Z</time>
      </trkpt>
      <trkpt lat="43.1459985" lon="-2.8320253">
        <ele>144.724</ele>
        <time>2021-04-01T09:38:07.321Z</time>
      </trkpt>
      <trkpt lat="43.1460015" lon="-2.8320281">
        <ele>144.746</ele>
        <time>2021-04-01T09:38:07.379Z</time>
      </trkpt>
      <trkpt lat="43.1460045" lon="-2.8320311">
        <ele>144.782</ele>
        <time>2021-04-01T09:38:07.437Z</time>
      </trkpt>
      <trkpt lat="43.1460077" lon="-2.832034">
        <ele>144.803</ele>
        <time>2021-04-01T09:38:07.495Z</time>
      </trkpt>
      <trkpt lat="43.1460108" lon="-2.832037">
        <ele>144.835</ele>
        <time>2021-04-01T09:38:07.553Z</time>
      </trkpt>
      <trkpt lat="43.1460139" lon="-2.8320399">
        <ele>144.86</ele>
        <time>2021-04-01T09:38:07.611Z</time>
      </trkpt>
      <trkpt lat="43.1460169" lon="-2.8320426">
        <ele>144.901</ele>
        <time>2021-04-01T09:38:07.669Z</time>
      </trkpt>
      <trkpt lat="43.1460197" lon="-2.8320454">
        <ele>144.919</ele>
        <time>2021-04-01T09:38:07.727Z</time>
      </trkpt>
      <trkpt lat="43.1460226" lon="-2.8320483">
        <ele>144.936</ele>
        <time>2021-04-01T09:38:07.785Z</time>
      </trkpt>
      <trkpt lat="43.1460255" lon="-2.8320513">
        <ele>144.969</ele>
        <time>2021-04-01T09:38:07.843Z</time>
      </trkpt>
      <trkpt lat="43.1460287" lon="-2.8320543">
        <ele>145.001</ele>
        <time>2021-04-01T09:38:07.901Z</time>
      </trkpt>
      <trkpt lat="43.1460316" lon="-2.8320572">
        <ele>145.014</ele>
        <time>2021-04-01T09:38:07.959Z</time>
      </trkpt>
      <trkpt lat="43.1460345" lon="-2.83206">
        <ele>145.035</ele>
        <time>2021-04-01T09:38:08.017Z</time>
      </trkpt>
      <trkpt lat="43.1460375" lon="-2.8320627">
        <ele>145.088</ele>
        <time>2021-04-01T09:38:08.075Z</time>
      </trkpt>
      <trkpt lat="43.1460403" lon="-2.8320654">
        <ele>145.11</ele>
        <time>2021-04-01T09:38:08.134Z</time>
      </trkpt>
      <trkpt lat="43.1460431" lon="-2.8320682">
        <ele>145.113</ele>
        <time>2021-04-01T09:38:08.189Z</time>
      </trkpt>
      <trkpt lat="43.1460461" lon="-2.8320711">
        <ele>145.142</ele>
        <time>2021-04-01T09:38:08.244Z</time>
      </trkpt>
      <trkpt lat="43.146049" lon="-2.832074">
        <ele>145.16</ele>
        <time>2021-04-01T09:38:08.299Z</time>
      </trkpt>
      <trkpt lat="43.146052" lon="-2.8320768">
        <ele>145.177</ele>
        <time>2021-04-01T09:38:08.354Z</time>
      </trkpt>
      <trkpt lat="43.1460549" lon="-2.8320798">
        <ele>145.205</ele>
        <time>2021-04-01T09:38:08.409Z</time>
      </trkpt>
      <trkpt lat="43.1460577" lon="-2.8320826">
        <ele>145.211</ele>
        <time>2021-04-01T09:38:08.464Z</time>
      </trkpt>
      <trkpt lat="43.1460604" lon="-2.8320858">
        <ele>145.245</ele>
        <time>2021-04-01T09:38:08.519Z</time>
      </trkpt>
      <trkpt lat="43.1460631" lon="-2.8320888">
        <ele>145.252</ele>
        <time>2021-04-01T09:38:08.574Z</time>
      </trkpt>
      <trkpt lat="43.1460656" lon="-2.832092">
        <ele>145.255</ele>
        <time>2021-04-01T09:38:08.629Z</time>
      </trkpt>
      <trkpt lat="43.1460683" lon="-2.8320951">
        <ele>145.241</ele>
        <time>2021-04-01T09:38:08.684Z</time>
      </trkpt>
      <trkpt lat="43.1460715" lon="-2.8320982">
        <ele>145.302</ele>
        <time>2021-04-01T09:38:08.739Z</time>
      </trkpt>
      <trkpt lat="43.1460747" lon="-2.8321013">
        <ele>145.398</ele>
        <time>2021-04-01T09:38:08.794Z</time>
      </trkpt>
      <trkpt lat="43.1460777" lon="-2.8321043">
        <ele>145.463</ele>
        <time>2021-04-01T09:38:08.849Z</time>
      </trkpt>
      <trkpt lat="43.1460806" lon="-2.8321072">
        <ele>145.495</ele>
        <time>2021-04-01T09:38:08.904Z</time>
      </trkpt>
      <trkpt lat="43.1460834" lon="-2.8321103">
        <ele>145.497</ele>
        <time>2021-04-01T09:38:08.959Z</time>
      </trkpt>
      <trkpt lat="43.146086" lon="-2.8321136">
        <ele>145.502</ele>
        <time>2021-04-01T09:38:09.014Z</time>
      </trkpt>
      <trkpt lat="43.1460886" lon="-2.8321168">
        <ele>145.514</ele>
        <time>2021-04-01T09:38:09.069Z</time>
      </trkpt>
      <trkpt lat="43.1460913" lon="-2.8321203">
        <ele>145.533</ele>
        <time>2021-04-01T09:38:09.124Z</time>
      </trkpt>
      <trkpt lat="43.1460942" lon="-2.8321239">
        <ele>145.583</ele>
        <time>2021-04-01T09:38:09.179Z</time>
      </trkpt>
      <trkpt lat="43.1460969" lon="-2.8321273">
        <ele>145.594</ele>
        <time>2021-04-01T09:38:09.234Z</time>
      </trkpt>
      <trkpt lat="43.1460995" lon="-2.8321304">
        <ele>145.582</ele>
        <time>2021-04-01T09:38:09.289Z</time>
      </trkpt>
      <trkpt lat="43.1461021" lon="-2.8321336">
        <ele>145.592</ele>
        <time>2021-04-01T09:38:09.344Z</time>
      </trkpt>
      <trkpt lat="43.1461047" lon="-2.8321369">
        <ele>145.592</ele>
        <time>2021-04-01T09:38:09.399Z</time>
      </trkpt>
      <trkpt lat="43.1461074" lon="-2.8321406">
        <ele>145.604</ele>
        <time>2021-04-01T09:38:09.454Z</time>
      </trkpt>
      <trkpt lat="43.1461101" lon="-2.8321442">
        <ele>145.634</ele>
        <time>2021-04-01T09:38:09.509Z</time>
      </trkpt>
      <trkpt lat="43.1461128" lon="-2.8321477">
        <ele>145.665</ele>
        <time>2021-04-01T09:38:09.564Z</time>
      </trkpt>
      <trkpt lat="43.1461155" lon="-2.8321512">
        <ele>145.683</ele>
        <time>2021-04-01T09:38:09.619Z</time>
      </trkpt>
      <trkpt lat="43.1461179" lon="-2.8321547">
        <ele>145.707</ele>
        <time>2021-04-01T09:38:09.674Z</time>
      </trkpt>
      <trkpt lat="43.1461205" lon="-2.832158">
        <ele>145.736</ele>
        <time>2021-04-01T09:38:09.729Z</time>
      </trkpt>
      <trkpt lat="43.1461231" lon="-2.8321615">
        <ele>145.768</ele>
        <time>2021-04-01T09:38:09.784Z</time>
      </trkpt>
      <trkpt lat="43.1461255" lon="-2.832165">
        <ele>145.752</ele>
        <time>2021-04-01T09:38:09.839Z</time>
      </trkpt>
      <trkpt lat="43.146128" lon="-2.8321686">
        <ele>145.758</ele>
        <time>2021-04-01T09:38:09.894Z</time>
      </trkpt>
      <trkpt lat="43.1461305" lon="-2.8321724">
        <ele>145.75</ele>
        <time>2021-04-01T09:38:09.949Z</time>
      </trkpt>
      <trkpt lat="43.1461332" lon="-2.8321759">
        <ele>145.768</ele>
        <time>2021-04-01T09:38:10.004Z</time>
      </trkpt>
      <trkpt lat="43.1461359" lon="-2.8321796">
        <ele>145.816</ele>
        <time>2021-04-01T09:38:10.059Z</time>
      </trkpt>
      <trkpt lat="43.1461384" lon="-2.8321834">
        <ele>145.851</ele>
        <time>2021-04-01T09:38:10.114Z</time>
      </trkpt>
      <trkpt lat="43.1461407" lon="-2.8321872">
        <ele>145.855</ele>
        <time>2021-04-01T09:38:10.169Z</time>
      </trkpt>
      <trkpt lat="43.1461431" lon="-2.8321909">
        <ele>145.887</ele>
        <time>2021-04-01T09:38:10.224Z</time>
      </trkpt>
      <trkpt lat="43.1461455" lon="-2.8321947">
        <ele>145.905</ele>
        <time>2021-04-01T09:38:10.279Z</time>
      </trkpt>
      <trkpt lat="43.1461478" lon="-2.8321985">
        <ele>145.914</ele>
        <time>2021-04-01T09:38:10.334Z</time>
      </trkpt>
      <trkpt lat="43.1461502" lon="-2.8322022">
        <ele>145.884</ele>
        <time>2021-04-01T09:38:10.389Z</time>
      </trkpt>
      <trkpt lat="43.1461525" lon="-2.8322057">
        <ele>145.872</ele>
        <time>2021-04-01T09:38:10.444Z</time>
      </trkpt>
      <trkpt lat="43.1461545" lon="-2.8322096">
        <ele>145.884</ele>
        <time>2021-04-01T09:38:10.499Z</time>
      </trkpt>
      <trkpt lat="43.1461566" lon="-2.8322133">
        <ele>145.896</ele>
        <time>2021-04-01T09:38:10.554Z</time>
      </trkpt>
      <trkpt lat="43.1461586" lon="-2.8322173">
        <ele>145.883</ele>
        <time>2021-04-01T09:38:10.609Z</time>
      </trkpt>
      <trkpt lat="43.1461608" lon="-2.8322211">
        <ele>145.876</ele>
        <time>2021-04-01T09:38:10.664Z</time>
      </trkpt>
      <trkpt lat="43.1461629" lon="-2.8322251">
        <ele>145.866</ele>
        <time>2021-04-01T09:38:10.719Z</time>
      </trkpt>
      <trkpt lat="43.146165" lon="-2.8322292">
        <ele>145.874</ele>
        <time>2021-04-01T09:38:10.774Z</time>
      </trkpt>
      <trkpt lat="43.146167" lon="-2.8322333">
        <ele>145.873</ele>
        <time>2021-04-01T09:38:10.829Z</time>
      </trkpt>
      <trkpt lat="43.146169" lon="-2.8322372">
        <ele>145.85</ele>
        <time>2021-04-01T09:38:10.884Z</time>
      </trkpt>
      <trkpt lat="43.1461709" lon="-2.8322412">
        <ele>145.859</ele>
        <time>2021-04-01T09:38:10.939Z</time>
      </trkpt>
      <trkpt lat="43.1461728" lon="-2.8322453">
        <ele>145.872</ele>
        <time>2021-04-01T09:38:10.994Z</time>
      </trkpt>
      <trkpt lat="43.1461748" lon="-2.8322494">
        <ele>145.869</ele>
        <time>2021-04-01T09:38:11.049Z</time>
      </trkpt>
      <trkpt lat="43.1461768" lon="-2.8322537">
        <ele>145.869</ele>
        <time>2021-04-01T09:38:11.104Z</time>
      </trkpt>
      <trkpt lat="43.1461788" lon="-2.832258">
        <ele>145.862</ele>
        <time>2021-04-01T09:38:11.159Z</time>
      </trkpt>
      <trkpt lat="43.1461808" lon="-2.8322623">
        <ele>145.875</ele>
        <time>2021-04-01T09:38:11.214Z</time>
      </trkpt>
      <trkpt lat="43.1461828" lon="-2.8322665">
        <ele>145.915</ele>
        <time>2021-04-01T09:38:11.269Z</time>
      </trkpt>
      <trkpt lat="43.1461846" lon="-2.8322707">
        <ele>145.905</ele>
        <time>2021-04-01T09:38:11.324Z</time>
      </trkpt>
      <trkpt lat="43.1461865" lon="-2.832275">
        <ele>145.887</ele>
        <time>2021-04-01T09:38:11.379Z</time>
      </trkpt>
      <trkpt lat="43.1461884" lon="-2.8322793">
        <ele>145.888</ele>
        <time>2021-04-01T09:38:11.434Z</time>
      </trkpt>
      <trkpt lat="43.1461902" lon="-2.8322836">
        <ele>145.896</ele>
        <time>2021-04-01T09:38:11.489Z</time>
      </trkpt>
      <trkpt lat="43.1461918" lon="-2.8322879">
        <ele>145.88</ele>
        <time>2021-04-01T09:38:11.544Z</time>
      </trkpt>
      <trkpt lat="43.1461934" lon="-2.8322923">
        <ele>145.864</ele>
        <time>2021-04-01T09:38:11.599Z</time>
      </trkpt>
      <trkpt lat="43.1461952" lon="-2.8322965">
        <ele>145.872</ele>
        <time>2021-04-01T09:38:11.654Z</time>
      </trkpt>
      <trkpt lat="43.1461969" lon="-2.8323009">
        <ele>145.874</ele>
        <time>2021-04-01T09:38:11.709Z</time>
      </trkpt>
      <trkpt lat="43.1461985" lon="-2.8323051">
        <ele>145.877</ele>
        <time>2021-04-01T09:38:11.764Z</time>
      </trkpt>
      <trkpt lat="43.1462001" lon="-2.8323097">
        <ele>145.881</ele>
        <time>2021-04-01T09:38:11.819Z</time>
      </trkpt>
      <trkpt lat="43.1462016" lon="-2.8323145">
        <ele>145.887</ele>
        <time>2021-04-01T09:38:11.874Z</time>
      </trkpt>
      <trkpt lat="43.1462032" lon="-2.832319">
        <ele>145.893</ele>
        <time>2021-04-01T09:38:11.929Z</time>
      </trkpt>
      <trkpt lat="43.1462048" lon="-2.8323235">
        <ele>145.88</ele>
        <time>2021-04-01T09:38:11.984Z</time>
      </trkpt>
      <trkpt lat="43.1462063" lon="-2.832328">
        <ele>145.885</ele>
        <time>2021-04-01T09:38:12.039Z</time>
      </trkpt>
      <trkpt lat="43.1462078" lon="-2.8323324">
        <ele>145.887</ele>
        <time>2021-04-01T09:38:12.094Z</time>
      </trkpt>
      <trkpt lat="43.1462092" lon="-2.8323369">
        <ele>145.892</ele>
        <time>2021-04-01T09:38:12.149Z</time>
      </trkpt>
      <trkpt lat="43.1462106" lon="-2.8323415">
        <ele>145.889</ele>
        <time>2021-04-01T09:38:12.200Z</time>
      </trkpt>
      <trkpt lat="43.1462121" lon="-2.832346">
        <ele>145.9</ele>
        <time>2021-04-01T09:38:12.252Z</time>
      </trkpt>
      <trkpt lat="43.1462137" lon="-2.8323503">
        <ele>145.901</ele>
        <time>2021-04-01T09:38:12.304Z</time>
      </trkpt>
      <trkpt lat="43.1462152" lon="-2.832355">
        <ele>145.888</ele>
        <time>2021-04-01T09:38:12.356Z</time>
      </trkpt>
      <trkpt lat="43.1462167" lon="-2.8323597">
        <ele>145.895</ele>
        <time>2021-04-01T09:38:12.408Z</time>
      </trkpt>
      <trkpt lat="43.1462181" lon="-2.8323642">
        <ele>145.894</ele>
        <time>2021-04-01T09:38:12.460Z</time>
      </trkpt>
      <trkpt lat="43.1462192" lon="-2.8323684">
        <ele>145.89</ele>
        <time>2021-04-01T09:38:12.512Z</time>
      </trkpt>
      <trkpt lat="43.1462204" lon="-2.8323727">
        <ele>145.884</ele>
        <time>2021-04-01T09:38:12.564Z</time>
      </trkpt>
      <trkpt lat="43.1462218" lon="-2.8323773">
        <ele>145.883</ele>
        <time>2021-04-01T09:38:12.616Z</time>
      </trkpt>
      <trkpt lat="43.1462232" lon="-2.8323819">
        <ele>145.874</ele>
        <time>2021-04-01T09:38:12.668Z</time>
      </trkpt>
      <trkpt lat="43.1462248" lon="-2.8323866">
        <ele>145.872</ele>
        <time>2021-04-01T09:38:12.720Z</time>
      </trkpt>
      <trkpt lat="43.1462262" lon="-2.8323911">
        <ele>145.86</ele>
        <time>2021-04-01T09:38:12.772Z</time>
      </trkpt>
      <trkpt lat="43.1462275" lon="-2.8323956">
        <ele>145.849</ele>
        <time>2021-04-01T09:38:12.824Z</time>
      </trkpt>
      <trkpt lat="43.1462288" lon="-2.8324001">
        <ele>145.852</ele>
        <time>2021-04-01T09:38:12.876Z</time>
      </trkpt>
      <trkpt lat="43.1462301" lon="-2.8324046">
        <ele>145.868</ele>
        <time>2021-04-01T09:38:12.928Z</time>
      </trkpt>
      <trkpt lat="43.1462316" lon="-2.8324093">
        <ele>145.89</ele>
        <time>2021-04-01T09:38:12.980Z</time>
      </trkpt>
      <trkpt lat="43.1462332" lon="-2.832414">
        <ele>145.883</ele>
        <time>2021-04-01T09:38:13.032Z</time>
      </trkpt>
      <trkpt lat="43.1462347" lon="-2.8324187">
        <ele>145.869</ele>
        <time>2021-04-01T09:38:13.084Z</time>
      </trkpt>
      <trkpt lat="43.1462359" lon="-2.8324234">
        <ele>145.855</ele>
        <time>2021-04-01T09:38:13.142Z</time>
      </trkpt>
      <trkpt lat="43.1462372" lon="-2.832428">
        <ele>145.87</ele>
        <time>2021-04-01T09:38:13.200Z</time>
      </trkpt>
      <trkpt lat="43.1462386" lon="-2.8324326">
        <ele>145.884</ele>
        <time>2021-04-01T09:38:13.258Z</time>
      </trkpt>
      <trkpt lat="43.1462401" lon="-2.8324372">
        <ele>145.895</ele>
        <time>2021-04-01T09:38:13.316Z</time>
      </trkpt>
      <trkpt lat="43.1462418" lon="-2.8324419">
        <ele>145.906</ele>
        <time>2021-04-01T09:38:13.374Z</time>
      </trkpt>
      <trkpt lat="43.1462434" lon="-2.8324468">
        <ele>145.923</ele>
        <time>2021-04-01T09:38:13.432Z</time>
      </trkpt>
      <trkpt lat="43.146245" lon="-2.8324516">
        <ele>145.937</ele>
        <time>2021-04-01T09:38:13.490Z</time>
      </trkpt>
      <trkpt lat="43.1462463" lon="-2.832456">
        <ele>145.919</ele>
        <time>2021-04-01T09:38:13.548Z</time>
      </trkpt>
      <trkpt lat="43.1462475" lon="-2.8324605">
        <ele>145.931</ele>
        <time>2021-04-01T09:38:13.606Z</time>
      </trkpt>
      <trkpt lat="43.1462491" lon="-2.832465">
        <ele>145.935</ele>
        <time>2021-04-01T09:38:13.664Z</time>
      </trkpt>
      <trkpt lat="43.1462504" lon="-2.83247">
        <ele>145.951</ele>
        <time>2021-04-01T09:38:13.722Z</time>
      </trkpt>
      <trkpt lat="43.1462517" lon="-2.8324748">
        <ele>145.934</ele>
        <time>2021-04-01T09:38:13.780Z</time>
      </trkpt>
      <trkpt lat="43.1462531" lon="-2.8324794">
        <ele>145.901</ele>
        <time>2021-04-01T09:38:13.838Z</time>
      </trkpt>
      <trkpt lat="43.1462544" lon="-2.8324842">
        <ele>145.899</ele>
        <time>2021-04-01T09:38:13.896Z</time>
      </trkpt>
      <trkpt lat="43.1462557" lon="-2.832489">
        <ele>145.901</ele>
        <time>2021-04-01T09:38:13.954Z</time>
      </trkpt>
      <trkpt lat="43.1462571" lon="-2.8324936">
        <ele>145.908</ele>
        <time>2021-04-01T09:38:14.012Z</time>
      </trkpt>
      <trkpt lat="43.1462584" lon="-2.8324981">
        <ele>145.904</ele>
        <time>2021-04-01T09:38:14.070Z</time>
      </trkpt>
      <trkpt lat="43.1462594" lon="-2.8325027">
        <ele>145.881</ele>
        <time>2021-04-01T09:38:14.129Z</time>
      </trkpt>
      <trkpt lat="43.1462607" lon="-2.8325074">
        <ele>145.891</ele>
        <time>2021-04-01T09:38:14.187Z</time>
      </trkpt>
      <trkpt lat="43.1462621" lon="-2.8325122">
        <ele>145.9</ele>
        <time>2021-04-01T09:38:14.245Z</time>
      </trkpt>
      <trkpt lat="43.1462635" lon="-2.8325171">
        <ele>145.891</ele>
        <time>2021-04-01T09:38:14.303Z</time>
      </trkpt>
      <trkpt lat="43.1462648" lon="-2.8325216">
        <ele>145.874</ele>
        <time>2021-04-01T09:38:14.361Z</time>
      </trkpt>
      <trkpt lat="43.1462661" lon="-2.832526">
        <ele>145.88</ele>
        <time>2021-04-01T09:38:14.419Z</time>
      </trkpt>
      <trkpt lat="43.1462674" lon="-2.8325305">
        <ele>145.897</ele>
        <time>2021-04-01T09:38:14.477Z</time>
      </trkpt>
      <trkpt lat="43.1462687" lon="-2.8325351">
        <ele>145.901</ele>
        <time>2021-04-01T09:38:14.535Z</time>
      </trkpt>
      <trkpt lat="43.14627" lon="-2.8325399">
        <ele>145.903</ele>
        <time>2021-04-01T09:38:14.593Z</time>
      </trkpt>
      <trkpt lat="43.1462717" lon="-2.8325446">
        <ele>145.93</ele>
        <time>2021-04-01T09:38:14.651Z</time>
      </trkpt>
      <trkpt lat="43.1462732" lon="-2.8325493">
        <ele>145.943</ele>
        <time>2021-04-01T09:38:14.709Z</time>
      </trkpt>
      <trkpt lat="43.1462747" lon="-2.832554">
        <ele>145.951</ele>
        <time>2021-04-01T09:38:14.767Z</time>
      </trkpt>
      <trkpt lat="43.1462762" lon="-2.8325587">
        <ele>145.966</ele>
        <time>2021-04-01T09:38:14.825Z</time>
      </trkpt>
      <trkpt lat="43.1462775" lon="-2.8325631">
        <ele>145.961</ele>
        <time>2021-04-01T09:38:14.883Z</time>
      </trkpt>
      <trkpt lat="43.1462789" lon="-2.8325675">
        <ele>145.954</ele>
        <time>2021-04-01T09:38:14.941Z</time>
      </trkpt>
      <trkpt lat="43.1462803" lon="-2.8325724">
        <ele>145.947</ele>
        <time>2021-04-01T09:38:14.999Z</time>
      </trkpt>
      <trkpt lat="43.1462815" lon="-2.8325769">
        <ele>145.938</ele>
        <time>2021-04-01T09:38:15.057Z</time>
      </trkpt>
      <trkpt lat="43.146283" lon="-2.8325816">
        <ele>145.946</ele>
        <time>2021-04-01T09:38:15.115Z</time>
      </trkpt>
      <trkpt lat="43.1462844" lon="-2.8325863">
        <ele>145.955</ele>
        <time>2021-04-01T09:38:15.174Z</time>
      </trkpt>
      <trkpt lat="43.1462858" lon="-2.832591">
        <ele>145.959</ele>
        <time>2021-04-01T09:38:15.225Z</time>
      </trkpt>
      <trkpt lat="43.1462871" lon="-2.8325956">
        <ele>145.952</ele>
        <time>2021-04-01T09:38:15.277Z</time>
      </trkpt>
      <trkpt lat="43.1462885" lon="-2.8326">
        <ele>145.95</ele>
        <time>2021-04-01T09:38:15.329Z</time>
      </trkpt>
      <trkpt lat="43.14629" lon="-2.8326048">
        <ele>145.963</ele>
        <time>2021-04-01T09:38:15.381Z</time>
      </trkpt>
      <trkpt lat="43.1462913" lon="-2.8326094">
        <ele>145.949</ele>
        <time>2021-04-01T09:38:15.433Z</time>
      </trkpt>
      <trkpt lat="43.1462926" lon="-2.8326142">
        <ele>145.932</ele>
        <time>2021-04-01T09:38:15.485Z</time>
      </trkpt>
      <trkpt lat="43.146294" lon="-2.8326188">
        <ele>145.935</ele>
        <time>2021-04-01T09:38:15.537Z</time>
      </trkpt>
      <trkpt lat="43.1462953" lon="-2.8326235">
        <ele>145.92</ele>
        <time>2021-04-01T09:38:15.589Z</time>
      </trkpt>
      <trkpt lat="43.1462964" lon="-2.832628">
        <ele>145.9</ele>
        <time>2021-04-01T09:38:15.641Z</time>
      </trkpt>
      <trkpt lat="43.1462975" lon="-2.8326324">
        <ele>145.871</ele>
        <time>2021-04-01T09:38:15.693Z</time>
      </trkpt>
      <trkpt lat="43.1462984" lon="-2.8326369">
        <ele>145.807</ele>
        <time>2021-04-01T09:38:15.745Z</time>
      </trkpt>
      <trkpt lat="43.1462996" lon="-2.8326415">
        <ele>145.794</ele>
        <time>2021-04-01T09:38:15.797Z</time>
      </trkpt>
      <trkpt lat="43.1463006" lon="-2.8326464">
        <ele>145.781</ele>
        <time>2021-04-01T09:38:15.849Z</time>
      </trkpt>
      <trkpt lat="43.1463019" lon="-2.832651">
        <ele>145.774</ele>
        <time>2021-04-01T09:38:15.901Z</time>
      </trkpt>
      <trkpt lat="43.1463031" lon="-2.8326557">
        <ele>145.782</ele>
        <time>2021-04-01T09:38:15.953Z</time>
      </trkpt>
      <trkpt lat="43.1463041" lon="-2.8326603">
        <ele>145.776</ele>
        <time>2021-04-01T09:38:16.005Z</time>
      </trkpt>
      <trkpt lat="43.1463055" lon="-2.8326651">
        <ele>145.741</ele>
        <time>2021-04-01T09:38:16.057Z</time>
      </trkpt>
      <trkpt lat="43.1463067" lon="-2.8326697">
        <ele>145.725</ele>
        <time>2021-04-01T09:38:16.109Z</time>
      </trkpt>
      <trkpt lat="43.1463082" lon="-2.8326743">
        <ele>145.735</ele>
        <time>2021-04-01T09:38:16.164Z</time>
      </trkpt>
      <trkpt lat="43.1463096" lon="-2.832679">
        <ele>145.744</ele>
        <time>2021-04-01T09:38:16.219Z</time>
      </trkpt>
      <trkpt lat="43.146311" lon="-2.8326837">
        <ele>145.731</ele>
        <time>2021-04-01T09:38:16.274Z</time>
      </trkpt>
      <trkpt lat="43.1463125" lon="-2.8326884">
        <ele>145.715</ele>
        <time>2021-04-01T09:38:16.329Z</time>
      </trkpt>
      <trkpt lat="43.1463138" lon="-2.8326928">
        <ele>145.704</ele>
        <time>2021-04-01T09:38:16.384Z</time>
      </trkpt>
      <trkpt lat="43.146315" lon="-2.8326974">
        <ele>145.709</ele>
        <time>2021-04-01T09:38:16.439Z</time>
      </trkpt>
      <trkpt lat="43.1463167" lon="-2.8327021">
        <ele>145.728</ele>
        <time>2021-04-01T09:38:16.494Z</time>
      </trkpt>
      <trkpt lat="43.1463179" lon="-2.8327066">
        <ele>145.741</ele>
        <time>2021-04-01T09:38:16.549Z</time>
      </trkpt>
      <trkpt lat="43.1463195" lon="-2.8327114">
        <ele>145.747</ele>
        <time>2021-04-01T09:38:16.604Z</time>
      </trkpt>
      <trkpt lat="43.1463209" lon="-2.8327161">
        <ele>145.746</ele>
        <time>2021-04-01T09:38:16.659Z</time>
      </trkpt>
      <trkpt lat="43.1463222" lon="-2.8327207">
        <ele>145.757</ele>
        <time>2021-04-01T09:38:16.714Z</time>
      </trkpt>
      <trkpt lat="43.1463235" lon="-2.832725">
        <ele>145.757</ele>
        <time>2021-04-01T09:38:16.769Z</time>
      </trkpt>
      <trkpt lat="43.1463247" lon="-2.8327292">
        <ele>145.723</ele>
        <time>2021-04-01T09:38:16.824Z</time>
      </trkpt>
      <trkpt lat="43.1463261" lon="-2.8327336">
        <ele>145.699</ele>
        <time>2021-04-01T09:38:16.879Z</time>
      </trkpt>
      <trkpt lat="43.1463274" lon="-2.8327383">
        <ele>145.681</ele>
        <time>2021-04-01T09:38:16.934Z</time>
      </trkpt>
      <trkpt lat="43.1463287" lon="-2.8327427">
        <ele>145.643</ele>
        <time>2021-04-01T09:38:16.989Z</time>
      </trkpt>
      <trkpt lat="43.1463298" lon="-2.8327471">
        <ele>145.639</ele>
        <time>2021-04-01T09:38:17.044Z</time>
      </trkpt>
      <trkpt lat="43.1463312" lon="-2.8327518">
        <ele>145.654</ele>
        <time>2021-04-01T09:38:17.099Z</time>
      </trkpt>
      <trkpt lat="43.1463326" lon="-2.8327566">
        <ele>145.664</ele>
        <time>2021-04-01T09:38:17.154Z</time>
      </trkpt>
      <trkpt lat="43.1463341" lon="-2.8327612">
        <ele>145.667</ele>
        <time>2021-04-01T09:38:17.209Z</time>
      </trkpt>
      <trkpt lat="43.1463357" lon="-2.8327658">
        <ele>145.668</ele>
        <time>2021-04-01T09:38:17.264Z</time>
      </trkpt>
      <trkpt lat="43.146337" lon="-2.8327704">
        <ele>145.68</ele>
        <time>2021-04-01T09:38:17.319Z</time>
      </trkpt>
      <trkpt lat="43.1463383" lon="-2.8327752">
        <ele>145.706</ele>
        <time>2021-04-01T09:38:17.374Z</time>
      </trkpt>
      <trkpt lat="43.1463396" lon="-2.8327798">
        <ele>145.714</ele>
        <time>2021-04-01T09:38:17.429Z</time>
      </trkpt>
      <trkpt lat="43.146341" lon="-2.8327845">
        <ele>145.707</ele>
        <time>2021-04-01T09:38:17.484Z</time>
      </trkpt>
      <trkpt lat="43.1463421" lon="-2.832789">
        <ele>145.699</ele>
        <time>2021-04-01T09:38:17.539Z</time>
      </trkpt>
      <trkpt lat="43.1463434" lon="-2.8327936">
        <ele>145.71</ele>
        <time>2021-04-01T09:38:17.594Z</time>
      </trkpt>
      <trkpt lat="43.146345" lon="-2.8327983">
        <ele>145.739</ele>
        <time>2021-04-01T09:38:17.649Z</time>
      </trkpt>
      <trkpt lat="43.1463464" lon="-2.8328031">
        <ele>145.764</ele>
        <time>2021-04-01T09:38:17.704Z</time>
      </trkpt>
      <trkpt lat="43.1463477" lon="-2.8328078">
        <ele>145.781</ele>
        <time>2021-04-01T09:38:17.759Z</time>
      </trkpt>
      <trkpt lat="43.1463491" lon="-2.8328125">
        <ele>145.792</ele>
        <time>2021-04-01T09:38:17.814Z</time>
      </trkpt>
      <trkpt lat="43.1463504" lon="-2.8328171">
        <ele>145.8</ele>
        <time>2021-04-01T09:38:17.869Z</time>
      </trkpt>
      <trkpt lat="43.146352" lon="-2.8328218">
        <ele>145.831</ele>
        <time>2021-04-01T09:38:17.924Z</time>
      </trkpt>
      <trkpt lat="43.1463535" lon="-2.8328265">
        <ele>145.866</ele>
        <time>2021-04-01T09:38:17.979Z</time>
      </trkpt>
      <trkpt lat="43.1463548" lon="-2.8328311">
        <ele>145.897</ele>
        <time>2021-04-01T09:38:18.034Z</time>
      </trkpt>
      <trkpt lat="43.1463561" lon="-2.832836">
        <ele>145.921</ele>
        <time>2021-04-01T09:38:18.089Z</time>
      </trkpt>
      <trkpt lat="43.1463576" lon="-2.8328408">
        <ele>145.953</ele>
        <time>2021-04-01T09:38:18.144Z</time>
      </trkpt>
      <trkpt lat="43.1463591" lon="-2.8328457">
        <ele>146.006</ele>
        <time>2021-04-01T09:38:18.199Z</time>
      </trkpt>
      <trkpt lat="43.1463603" lon="-2.8328505">
        <ele>146.023</ele>
        <time>2021-04-01T09:38:18.254Z</time>
      </trkpt>
      <trkpt lat="43.1463618" lon="-2.832855">
        <ele>146.006</ele>
        <time>2021-04-01T09:38:18.309Z</time>
      </trkpt>
      <trkpt lat="43.1463632" lon="-2.8328599">
        <ele>146.04</ele>
        <time>2021-04-01T09:38:18.364Z</time>
      </trkpt>
      <trkpt lat="43.1463646" lon="-2.8328649">
        <ele>146.098</ele>
        <time>2021-04-01T09:38:18.419Z</time>
      </trkpt>
      <trkpt lat="43.1463663" lon="-2.8328698">
        <ele>146.148</ele>
        <time>2021-04-01T09:38:18.474Z</time>
      </trkpt>
      <trkpt lat="43.1463677" lon="-2.8328746">
        <ele>146.184</ele>
        <time>2021-04-01T09:38:18.529Z</time>
      </trkpt>
      <trkpt lat="43.146369" lon="-2.8328792">
        <ele>146.207</ele>
        <time>2021-04-01T09:38:18.584Z</time>
      </trkpt>
      <trkpt lat="43.1463705" lon="-2.8328842">
        <ele>146.276</ele>
        <time>2021-04-01T09:38:18.639Z</time>
      </trkpt>
      <trkpt lat="43.1463721" lon="-2.8328894">
        <ele>146.313</ele>
        <time>2021-04-01T09:38:18.694Z</time>
      </trkpt>
      <trkpt lat="43.1463734" lon="-2.8328943">
        <ele>146.335</ele>
        <time>2021-04-01T09:38:18.749Z</time>
      </trkpt>
      <trkpt lat="43.1463746" lon="-2.8328988">
        <ele>146.354</ele>
        <time>2021-04-01T09:38:18.804Z</time>
      </trkpt>
      <trkpt lat="43.1463761" lon="-2.8329033">
        <ele>146.382</ele>
        <time>2021-04-01T09:38:18.859Z</time>
      </trkpt>
      <trkpt lat="43.1463774" lon="-2.8329081">
        <ele>146.391</ele>
        <time>2021-04-01T09:38:18.914Z</time>
      </trkpt>
      <trkpt lat="43.1463789" lon="-2.832913">
        <ele>146.397</ele>
        <time>2021-04-01T09:38:18.969Z</time>
      </trkpt>
      <trkpt lat="43.1463803" lon="-2.8329182">
        <ele>146.429</ele>
        <time>2021-04-01T09:38:19.024Z</time>
      </trkpt>
      <trkpt lat="43.1463818" lon="-2.8329229">
        <ele>146.44</ele>
        <time>2021-04-01T09:38:19.079Z</time>
      </trkpt>
      <trkpt lat="43.1463833" lon="-2.8329275">
        <ele>146.484</ele>
        <time>2021-04-01T09:38:19.134Z</time>
      </trkpt>
      <trkpt lat="43.1463846" lon="-2.8329322">
        <ele>146.513</ele>
        <time>2021-04-01T09:38:19.189Z</time>
      </trkpt>
      <trkpt lat="43.1463861" lon="-2.8329366">
        <ele>146.494</ele>
        <time>2021-04-01T09:38:19.244Z</time>
      </trkpt>
      <trkpt lat="43.1463877" lon="-2.8329415">
        <ele>146.515</ele>
        <time>2021-04-01T09:38:19.299Z</time>
      </trkpt>
      <trkpt lat="43.1463893" lon="-2.8329462">
        <ele>146.533</ele>
        <time>2021-04-01T09:38:19.354Z</time>
      </trkpt>
      <trkpt lat="43.1463907" lon="-2.832951">
        <ele>146.56</ele>
        <time>2021-04-01T09:38:19.409Z</time>
      </trkpt>
      <trkpt lat="43.1463921" lon="-2.8329558">
        <ele>146.569</ele>
        <time>2021-04-01T09:38:19.464Z</time>
      </trkpt>
      <trkpt lat="43.1463937" lon="-2.8329604">
        <ele>146.578</ele>
        <time>2021-04-01T09:38:19.519Z</time>
      </trkpt>
      <trkpt lat="43.1463952" lon="-2.8329652">
        <ele>146.611</ele>
        <time>2021-04-01T09:38:19.574Z</time>
      </trkpt>
      <trkpt lat="43.1463966" lon="-2.83297">
        <ele>146.65</ele>
        <time>2021-04-01T09:38:19.629Z</time>
      </trkpt>
      <trkpt lat="43.1463979" lon="-2.8329746">
        <ele>146.641</ele>
        <time>2021-04-01T09:38:19.684Z</time>
      </trkpt>
      <trkpt lat="43.1463993" lon="-2.8329794">
        <ele>146.633</ele>
        <time>2021-04-01T09:38:19.739Z</time>
      </trkpt>
      <trkpt lat="43.146401" lon="-2.8329838">
        <ele>146.64</ele>
        <time>2021-04-01T09:38:19.794Z</time>
      </trkpt>
      <trkpt lat="43.1464028" lon="-2.8329884">
        <ele>146.671</ele>
        <time>2021-04-01T09:38:19.849Z</time>
      </trkpt>
      <trkpt lat="43.1464044" lon="-2.8329929">
        <ele>146.669</ele>
        <time>2021-04-01T09:38:19.904Z</time>
      </trkpt>
      <trkpt lat="43.1464058" lon="-2.8329976">
        <ele>146.688</ele>
        <time>2021-04-01T09:38:19.959Z</time>
      </trkpt>
      <trkpt lat="43.1464072" lon="-2.8330022">
        <ele>146.715</ele>
        <time>2021-04-01T09:38:20.014Z</time>
      </trkpt>
      <trkpt lat="43.1464085" lon="-2.8330069">
        <ele>146.75</ele>
        <time>2021-04-01T09:38:20.069Z</time>
      </trkpt>
      <trkpt lat="43.1464098" lon="-2.8330116">
        <ele>146.767</ele>
        <time>2021-04-01T09:38:20.124Z</time>
      </trkpt>
      <trkpt lat="43.1464113" lon="-2.8330165">
        <ele>146.79</ele>
        <time>2021-04-01T09:38:20.182Z</time>
      </trkpt>
      <trkpt lat="43.1464131" lon="-2.8330215">
        <ele>146.811</ele>
        <time>2021-04-01T09:38:20.240Z</time>
      </trkpt>
      <trkpt lat="43.1464148" lon="-2.8330265">
        <ele>146.837</ele>
        <time>2021-04-01T09:38:20.298Z</time>
      </trkpt>
      <trkpt lat="43.1464164" lon="-2.833031">
        <ele>146.836</ele>
        <time>2021-04-01T09:38:20.356Z</time>
      </trkpt>
      <trkpt lat="43.1464179" lon="-2.8330355">
        <ele>146.845</ele>
        <time>2021-04-01T09:38:20.414Z</time>
      </trkpt>
      <trkpt lat="43.1464194" lon="-2.8330404">
        <ele>146.856</ele>
        <time>2021-04-01T09:38:20.472Z</time>
      </trkpt>
      <trkpt lat="43.1464209" lon="-2.8330453">
        <ele>146.876</ele>
        <time>2021-04-01T09:38:20.530Z</time>
      </trkpt>
      <trkpt lat="43.1464225" lon="-2.8330499">
        <ele>146.883</ele>
        <time>2021-04-01T09:38:20.588Z</time>
      </trkpt>
      <trkpt lat="43.146424" lon="-2.8330543">
        <ele>146.864</ele>
        <time>2021-04-01T09:38:20.646Z</time>
      </trkpt>
      <trkpt lat="43.1464257" lon="-2.8330588">
        <ele>146.88</ele>
        <time>2021-04-01T09:38:20.704Z</time>
      </trkpt>
      <trkpt lat="43.1464272" lon="-2.8330635">
        <ele>146.88</ele>
        <time>2021-04-01T09:38:20.762Z</time>
      </trkpt>
      <trkpt lat="43.1464288" lon="-2.8330682">
        <ele>146.91</ele>
        <time>2021-04-01T09:38:20.820Z</time>
      </trkpt>
      <trkpt lat="43.1464303" lon="-2.8330729">
        <ele>146.922</ele>
        <time>2021-04-01T09:38:20.878Z</time>
      </trkpt>
      <trkpt lat="43.1464319" lon="-2.8330776">
        <ele>146.947</ele>
        <time>2021-04-01T09:38:20.936Z</time>
      </trkpt>
      <trkpt lat="43.1464336" lon="-2.8330823">
        <ele>146.966</ele>
        <time>2021-04-01T09:38:20.994Z</time>
      </trkpt>
      <trkpt lat="43.1464349" lon="-2.8330872">
        <ele>146.973</ele>
        <time>2021-04-01T09:38:21.052Z</time>
      </trkpt>
      <trkpt lat="43.1464365" lon="-2.8330916">
        <ele>146.941</ele>
        <time>2021-04-01T09:38:21.110Z</time>
      </trkpt>
      <trkpt lat="43.146438" lon="-2.833096">
        <ele>146.959</ele>
        <time>2021-04-01T09:38:21.169Z</time>
      </trkpt>
      <trkpt lat="43.1464393" lon="-2.8331004">
        <ele>146.953</ele>
        <time>2021-04-01T09:38:21.218Z</time>
      </trkpt>
      <trkpt lat="43.1464405" lon="-2.8331052">
        <ele>146.924</ele>
        <time>2021-04-01T09:38:21.267Z</time>
      </trkpt>
      <trkpt lat="43.146442" lon="-2.8331097">
        <ele>146.909</ele>
        <time>2021-04-01T09:38:21.316Z</time>
      </trkpt>
      <trkpt lat="43.1464433" lon="-2.833114">
        <ele>146.893</ele>
        <time>2021-04-01T09:38:21.365Z</time>
      </trkpt>
      <trkpt lat="43.1464445" lon="-2.8331186">
        <ele>146.883</ele>
        <time>2021-04-01T09:38:21.415Z</time>
      </trkpt>
      <trkpt lat="43.1464456" lon="-2.8331235">
        <ele>146.899</ele>
        <time>2021-04-01T09:38:21.464Z</time>
      </trkpt>
      <trkpt lat="43.1464468" lon="-2.8331281">
        <ele>146.885</ele>
        <time>2021-04-01T09:38:21.513Z</time>
      </trkpt>
      <trkpt lat="43.1464482" lon="-2.8331309">
        <ele>146.731</ele>
        <time>2021-04-01T09:38:21.562Z</time>
      </trkpt>
      <trkpt lat="43.1464497" lon="-2.8331346">
        <ele>146.644</ele>
        <time>2021-04-01T09:38:21.611Z</time>
      </trkpt>
      <trkpt lat="43.1464512" lon="-2.8331389">
        <ele>146.587</ele>
        <time>2021-04-01T09:38:21.661Z</time>
      </trkpt>
      <trkpt lat="43.1464524" lon="-2.8331431">
        <ele>146.528</ele>
        <time>2021-04-01T09:38:21.710Z</time>
      </trkpt>
      <trkpt lat="43.1464536" lon="-2.8331477">
        <ele>146.527</ele>
        <time>2021-04-01T09:38:21.759Z</time>
      </trkpt>
      <trkpt lat="43.146455" lon="-2.8331523">
        <ele>146.5</ele>
        <time>2021-04-01T09:38:21.808Z</time>
      </trkpt>
      <trkpt lat="43.1464563" lon="-2.8331567">
        <ele>146.472</ele>
        <time>2021-04-01T09:38:21.857Z</time>
      </trkpt>
      <trkpt lat="43.1464576" lon="-2.8331614">
        <ele>146.463</ele>
        <time>2021-04-01T09:38:21.907Z</time>
      </trkpt>
      <trkpt lat="43.1464588" lon="-2.8331659">
        <ele>146.453</ele>
        <time>2021-04-01T09:38:21.956Z</time>
      </trkpt>
      <trkpt lat="43.1464602" lon="-2.8331705">
        <ele>146.449</ele>
        <time>2021-04-01T09:38:22.005Z</time>
      </trkpt>
      <trkpt lat="43.1464617" lon="-2.833175">
        <ele>146.427</ele>
        <time>2021-04-01T09:38:22.054Z</time>
      </trkpt>
      <trkpt lat="43.1464632" lon="-2.8331794">
        <ele>146.41</ele>
        <time>2021-04-01T09:38:22.104Z</time>
      </trkpt>
      <trkpt lat="43.1464646" lon="-2.8331842">
        <ele>146.405</ele>
        <time>2021-04-01T09:38:22.162Z</time>
      </trkpt>
      <trkpt lat="43.1464659" lon="-2.8331889">
        <ele>146.382</ele>
        <time>2021-04-01T09:38:22.220Z</time>
      </trkpt>
      <trkpt lat="43.1464674" lon="-2.8331935">
        <ele>146.384</ele>
        <time>2021-04-01T09:38:22.278Z</time>
      </trkpt>
      <trkpt lat="43.1464691" lon="-2.8331982">
        <ele>146.401</ele>
        <time>2021-04-01T09:38:22.336Z</time>
      </trkpt>
      <trkpt lat="43.1464703" lon="-2.8332027">
        <ele>146.389</ele>
        <time>2021-04-01T09:38:22.394Z</time>
      </trkpt>
      <trkpt lat="43.1464718" lon="-2.8332072">
        <ele>146.355</ele>
        <time>2021-04-01T09:38:22.452Z</time>
      </trkpt>
      <trkpt lat="43.1464731" lon="-2.8332119">
        <ele>146.351</ele>
        <time>2021-04-01T09:38:22.510Z</time>
      </trkpt>
      <trkpt lat="43.1464748" lon="-2.8332161">
        <ele>146.293</ele>
        <time>2021-04-01T09:38:22.568Z</time>
      </trkpt>
      <trkpt lat="43.1464761" lon="-2.8332208">
        <ele>146.322</ele>
        <time>2021-04-01T09:38:22.626Z</time>
      </trkpt>
      <trkpt lat="43.1464775" lon="-2.8332258">
        <ele>146.375</ele>
        <time>2021-04-01T09:38:22.684Z</time>
      </trkpt>
      <trkpt lat="43.146479" lon="-2.8332309">
        <ele>146.404</ele>
        <time>2021-04-01T09:38:22.742Z</time>
      </trkpt>
      <trkpt lat="43.1464805" lon="-2.8332358">
        <ele>146.43</ele>
        <time>2021-04-01T09:38:22.800Z</time>
      </trkpt>
      <trkpt lat="43.1464821" lon="-2.8332409">
        <ele>146.477</ele>
        <time>2021-04-01T09:38:22.858Z</time>
      </trkpt>
      <trkpt lat="43.1464835" lon="-2.8332451">
        <ele>146.448</ele>
        <time>2021-04-01T09:38:22.916Z</time>
      </trkpt>
      <trkpt lat="43.1464848" lon="-2.8332499">
        <ele>146.439</ele>
        <time>2021-04-01T09:38:22.974Z</time>
      </trkpt>
      <trkpt lat="43.1464865" lon="-2.8332554">
        <ele>146.526</ele>
        <time>2021-04-01T09:38:23.032Z</time>
      </trkpt>
      <trkpt lat="43.1464881" lon="-2.8332599">
        <ele>146.531</ele>
        <time>2021-04-01T09:38:23.090Z</time>
      </trkpt>
      <trkpt lat="43.1464897" lon="-2.8332648">
        <ele>146.561</ele>
        <time>2021-04-01T09:38:23.149Z</time>
      </trkpt>
      <trkpt lat="43.1464913" lon="-2.8332696">
        <ele>146.572</ele>
        <time>2021-04-01T09:38:23.204Z</time>
      </trkpt>
      <trkpt lat="43.146493" lon="-2.8332744">
        <ele>146.572</ele>
        <time>2021-04-01T09:38:23.259Z</time>
      </trkpt>
      <trkpt lat="43.1464946" lon="-2.8332791">
        <ele>146.576</ele>
        <time>2021-04-01T09:38:23.314Z</time>
      </trkpt>
      <trkpt lat="43.1464961" lon="-2.833284">
        <ele>146.591</ele>
        <time>2021-04-01T09:38:23.369Z</time>
      </trkpt>
      <trkpt lat="43.1464975" lon="-2.833289">
        <ele>146.624</ele>
        <time>2021-04-01T09:38:23.424Z</time>
      </trkpt>
      <trkpt lat="43.146499" lon="-2.8332937">
        <ele>146.664</ele>
        <time>2021-04-01T09:38:23.479Z</time>
      </trkpt>
      <trkpt lat="43.1465004" lon="-2.8332988">
        <ele>146.694</ele>
        <time>2021-04-01T09:38:23.534Z</time>
      </trkpt>
      <trkpt lat="43.1465017" lon="-2.8333035">
        <ele>146.667</ele>
        <time>2021-04-01T09:38:23.589Z</time>
      </trkpt>
      <trkpt lat="43.1465031" lon="-2.833308">
        <ele>146.658</ele>
        <time>2021-04-01T09:38:23.644Z</time>
      </trkpt>
      <trkpt lat="43.1465045" lon="-2.8333126">
        <ele>146.633</ele>
        <time>2021-04-01T09:38:23.699Z</time>
      </trkpt>
      <trkpt lat="43.1465058" lon="-2.8333171">
        <ele>146.61</ele>
        <time>2021-04-01T09:38:23.754Z</time>
      </trkpt>
      <trkpt lat="43.1465071" lon="-2.8333218">
        <ele>146.597</ele>
        <time>2021-04-01T09:38:23.809Z</time>
      </trkpt>
      <trkpt lat="43.1465082" lon="-2.8333262">
        <ele>146.567</ele>
        <time>2021-04-01T09:38:23.864Z</time>
      </trkpt>
      <trkpt lat="43.1465096" lon="-2.833331">
        <ele>146.567</ele>
        <time>2021-04-01T09:38:23.919Z</time>
      </trkpt>
      <trkpt lat="43.146511" lon="-2.833336">
        <ele>146.564</ele>
        <time>2021-04-01T09:38:23.974Z</time>
      </trkpt>
      <trkpt lat="43.1465125" lon="-2.8333409">
        <ele>146.584</ele>
        <time>2021-04-01T09:38:24.029Z</time>
      </trkpt>
      <trkpt lat="43.1465139" lon="-2.833346">
        <ele>146.592</ele>
        <time>2021-04-01T09:38:24.084Z</time>
      </trkpt>
      <trkpt lat="43.1465153" lon="-2.8333507">
        <ele>146.586</ele>
        <time>2021-04-01T09:38:24.139Z</time>
      </trkpt>
      <trkpt lat="43.1465167" lon="-2.8333558">
        <ele>146.623</ele>
        <time>2021-04-01T09:38:24.197Z</time>
      </trkpt>
      <trkpt lat="43.1465183" lon="-2.8333606">
        <ele>146.641</ele>
        <time>2021-04-01T09:38:24.255Z</time>
      </trkpt>
      <trkpt lat="43.1465199" lon="-2.8333656">
        <ele>146.636</ele>
        <time>2021-04-01T09:38:24.313Z</time>
      </trkpt>
      <trkpt lat="43.1465214" lon="-2.8333703">
        <ele>146.613</ele>
        <time>2021-04-01T09:38:24.371Z</time>
      </trkpt>
      <trkpt lat="43.146523" lon="-2.833375">
        <ele>146.601</ele>
        <time>2021-04-01T09:38:24.429Z</time>
      </trkpt>
      <trkpt lat="43.1465248" lon="-2.83338">
        <ele>146.658</ele>
        <time>2021-04-01T09:38:24.487Z</time>
      </trkpt>
      <trkpt lat="43.1465264" lon="-2.8333854">
        <ele>146.723</ele>
        <time>2021-04-01T09:38:24.545Z</time>
      </trkpt>
      <trkpt lat="43.1465277" lon="-2.8333913">
        <ele>146.822</ele>
        <time>2021-04-01T09:38:24.603Z</time>
      </trkpt>
      <trkpt lat="43.146529" lon="-2.833397">
        <ele>146.913</ele>
        <time>2021-04-01T09:38:24.661Z</time>
      </trkpt>
      <trkpt lat="43.1465306" lon="-2.8334028">
        <ele>147.052</ele>
        <time>2021-04-01T09:38:24.719Z</time>
      </trkpt>
      <trkpt lat="43.1465321" lon="-2.8334081">
        <ele>147.091</ele>
        <time>2021-04-01T09:38:24.777Z</time>
      </trkpt>
      <trkpt lat="43.1465335" lon="-2.833413">
        <ele>147.085</ele>
        <time>2021-04-01T09:38:24.835Z</time>
      </trkpt>
      <trkpt lat="43.1465349" lon="-2.8334178">
        <ele>147.065</ele>
        <time>2021-04-01T09:38:24.893Z</time>
      </trkpt>
      <trkpt lat="43.1465364" lon="-2.8334227">
        <ele>147.088</ele>
        <time>2021-04-01T09:38:24.951Z</time>
      </trkpt>
      <trkpt lat="43.1465377" lon="-2.8334275">
        <ele>147.083</ele>
        <time>2021-04-01T09:38:25.009Z</time>
      </trkpt>
      <trkpt lat="43.1465391" lon="-2.833432">
        <ele>147.041</ele>
        <time>2021-04-01T09:38:25.067Z</time>
      </trkpt>
      <trkpt lat="43.1465404" lon="-2.8334366">
        <ele>146.998</ele>
        <time>2021-04-01T09:38:25.125Z</time>
      </trkpt>
      <trkpt lat="43.1465419" lon="-2.8334412">
        <ele>146.937</ele>
        <time>2021-04-01T09:38:25.184Z</time>
      </trkpt>
      <trkpt lat="43.1465434" lon="-2.8334464">
        <ele>146.975</ele>
        <time>2021-04-01T09:38:25.236Z</time>
      </trkpt>
      <trkpt lat="43.1465449" lon="-2.8334514">
        <ele>147.019</ele>
        <time>2021-04-01T09:38:25.288Z</time>
      </trkpt>
      <trkpt lat="43.146546" lon="-2.8334556">
        <ele>146.882</ele>
        <time>2021-04-01T09:38:25.340Z</time>
      </trkpt>
      <trkpt lat="43.1465475" lon="-2.8334604">
        <ele>146.858</ele>
        <time>2021-04-01T09:38:25.392Z</time>
      </trkpt>
      <trkpt lat="43.1465491" lon="-2.8334658">
        <ele>146.907</ele>
        <time>2021-04-01T09:38:25.444Z</time>
      </trkpt>
      <trkpt lat="43.1465501" lon="-2.8334705">
        <ele>146.867</ele>
        <time>2021-04-01T09:38:25.496Z</time>
      </trkpt>
      <trkpt lat="43.1465514" lon="-2.8334754">
        <ele>146.855</ele>
        <time>2021-04-01T09:38:25.548Z</time>
      </trkpt>
      <trkpt lat="43.1465529" lon="-2.8334804">
        <ele>146.868</ele>
        <time>2021-04-01T09:38:25.600Z</time>
      </trkpt>
      <trkpt lat="43.1465543" lon="-2.8334856">
        <ele>146.896</ele>
        <time>2021-04-01T09:38:25.652Z</time>
      </trkpt>
      <trkpt lat="43.1465558" lon="-2.8334906">
        <ele>146.891</ele>
        <time>2021-04-01T09:38:25.705Z</time>
      </trkpt>
      <trkpt lat="43.1465568" lon="-2.8334953">
        <ele>146.873</ele>
        <time>2021-04-01T09:38:25.757Z</time>
      </trkpt>
      <trkpt lat="43.1465581" lon="-2.8334998">
        <ele>146.839</ele>
        <time>2021-04-01T09:38:25.809Z</time>
      </trkpt>
      <trkpt lat="43.1465593" lon="-2.8335048">
        <ele>146.803</ele>
        <time>2021-04-01T09:38:25.861Z</time>
      </trkpt>
      <trkpt lat="43.146561" lon="-2.83351">
        <ele>146.819</ele>
        <time>2021-04-01T09:38:25.913Z</time>
      </trkpt>
      <trkpt lat="43.1465623" lon="-2.8335149">
        <ele>146.813</ele>
        <time>2021-04-01T09:38:25.965Z</time>
      </trkpt>
      <trkpt lat="43.1465635" lon="-2.8335199">
        <ele>146.814</ele>
        <time>2021-04-01T09:38:26.017Z</time>
      </trkpt>
      <trkpt lat="43.1465647" lon="-2.8335248">
        <ele>146.793</ele>
        <time>2021-04-01T09:38:26.069Z</time>
      </trkpt>
      <trkpt lat="43.1465659" lon="-2.8335295">
        <ele>146.785</ele>
        <time>2021-04-01T09:38:26.121Z</time>
      </trkpt>
      <trkpt lat="43.146567" lon="-2.8335341">
        <ele>146.792</ele>
        <time>2021-04-01T09:38:26.174Z</time>
      </trkpt>
      <trkpt lat="43.1465676" lon="-2.8335382">
        <ele>146.743</ele>
        <time>2021-04-01T09:38:26.235Z</time>
      </trkpt>
      <trkpt lat="43.1465686" lon="-2.8335431">
        <ele>146.722</ele>
        <time>2021-04-01T09:38:26.296Z</time>
      </trkpt>
      <trkpt lat="43.1465698" lon="-2.8335479">
        <ele>146.711</ele>
        <time>2021-04-01T09:38:26.358Z</time>
      </trkpt>
      <trkpt lat="43.1465713" lon="-2.833553">
        <ele>146.685</ele>
        <time>2021-04-01T09:38:26.419Z</time>
      </trkpt>
      <trkpt lat="43.1465724" lon="-2.8335578">
        <ele>146.67</ele>
        <time>2021-04-01T09:38:26.481Z</time>
      </trkpt>
      <trkpt lat="43.1465737" lon="-2.8335629">
        <ele>146.667</ele>
        <time>2021-04-01T09:38:26.542Z</time>
      </trkpt>
      <trkpt lat="43.1465747" lon="-2.8335676">
        <ele>146.637</ele>
        <time>2021-04-01T09:38:26.604Z</time>
      </trkpt>
      <trkpt lat="43.1465756" lon="-2.8335723">
        <ele>146.632</ele>
        <time>2021-04-01T09:38:26.665Z</time>
      </trkpt>
      <trkpt lat="43.1465764" lon="-2.833577">
        <ele>146.592</ele>
        <time>2021-04-01T09:38:26.727Z</time>
      </trkpt>
      <trkpt lat="43.1465776" lon="-2.8335819">
        <ele>146.573</ele>
        <time>2021-04-01T09:38:26.788Z</time>
      </trkpt>
      <trkpt lat="43.1465787" lon="-2.8335868">
        <ele>146.566</ele>
        <time>2021-04-01T09:38:26.850Z</time>
      </trkpt>
      <trkpt lat="43.1465802" lon="-2.833592">
        <ele>146.576</ele>
        <time>2021-04-01T09:38:26.911Z</time>
      </trkpt>
      <trkpt lat="43.1465814" lon="-2.8335971">
        <ele>146.597</ele>
        <time>2021-04-01T09:38:26.973Z</time>
      </trkpt>
      <trkpt lat="43.1465828" lon="-2.8336022">
        <ele>146.577</ele>
        <time>2021-04-01T09:38:27.034Z</time>
      </trkpt>
      <trkpt lat="43.1465845" lon="-2.8336075">
        <ele>146.61</ele>
        <time>2021-04-01T09:38:27.096Z</time>
      </trkpt>
      <trkpt lat="43.1465859" lon="-2.8336126">
        <ele>146.571</ele>
        <time>2021-04-01T09:38:27.157Z</time>
      </trkpt>
      <trkpt lat="43.1465873" lon="-2.833618">
        <ele>146.566</ele>
        <time>2021-04-01T09:38:27.219Z</time>
      </trkpt>
      <trkpt lat="43.1465887" lon="-2.833623">
        <ele>146.581</ele>
        <time>2021-04-01T09:38:27.268Z</time>
      </trkpt>
      <trkpt lat="43.1465898" lon="-2.8336281">
        <ele>146.547</ele>
        <time>2021-04-01T09:38:27.317Z</time>
      </trkpt>
      <trkpt lat="43.1465912" lon="-2.8336332">
        <ele>146.534</ele>
        <time>2021-04-01T09:38:27.366Z</time>
      </trkpt>
      <trkpt lat="43.1465927" lon="-2.8336385">
        <ele>146.531</ele>
        <time>2021-04-01T09:38:27.415Z</time>
      </trkpt>
      <trkpt lat="43.1465942" lon="-2.8336435">
        <ele>146.544</ele>
        <time>2021-04-01T09:38:27.465Z</time>
      </trkpt>
      <trkpt lat="43.1465953" lon="-2.8336485">
        <ele>146.537</ele>
        <time>2021-04-01T09:38:27.514Z</time>
      </trkpt>
      <trkpt lat="43.1465965" lon="-2.8336538">
        <ele>146.548</ele>
        <time>2021-04-01T09:38:27.563Z</time>
      </trkpt>
      <trkpt lat="43.1465981" lon="-2.8336595">
        <ele>146.564</ele>
        <time>2021-04-01T09:38:27.612Z</time>
      </trkpt>
      <trkpt lat="43.1465996" lon="-2.8336649">
        <ele>146.588</ele>
        <time>2021-04-01T09:38:27.661Z</time>
      </trkpt>
      <trkpt lat="43.146601" lon="-2.8336701">
        <ele>146.556</ele>
        <time>2021-04-01T09:38:27.711Z</time>
      </trkpt>
      <trkpt lat="43.1466024" lon="-2.8336751">
        <ele>146.534</ele>
        <time>2021-04-01T09:38:27.760Z</time>
      </trkpt>
      <trkpt lat="43.1466035" lon="-2.8336801">
        <ele>146.509</ele>
        <time>2021-04-01T09:38:27.809Z</time>
      </trkpt>
      <trkpt lat="43.1466049" lon="-2.8336854">
        <ele>146.518</ele>
        <time>2021-04-01T09:38:27.858Z</time>
      </trkpt>
      <trkpt lat="43.1466062" lon="-2.8336908">
        <ele>146.522</ele>
        <time>2021-04-01T09:38:27.907Z</time>
      </trkpt>
      <trkpt lat="43.1466075" lon="-2.833696">
        <ele>146.52</ele>
        <time>2021-04-01T09:38:27.957Z</time>
      </trkpt>
      <trkpt lat="43.1466088" lon="-2.8337013">
        <ele>146.532</ele>
        <time>2021-04-01T09:38:28.006Z</time>
      </trkpt>
      <trkpt lat="43.1466101" lon="-2.8337067">
        <ele>146.57</ele>
        <time>2021-04-01T09:38:28.055Z</time>
      </trkpt>
      <trkpt lat="43.1466112" lon="-2.833712">
        <ele>146.556</ele>
        <time>2021-04-01T09:38:28.104Z</time>
      </trkpt>
      <trkpt lat="43.1466124" lon="-2.8337173">
        <ele>146.529</ele>
        <time>2021-04-01T09:38:28.154Z</time>
      </trkpt>
      <trkpt lat="43.1466136" lon="-2.8337224">
        <ele>146.51</ele>
        <time>2021-04-01T09:38:28.209Z</time>
      </trkpt>
      <trkpt lat="43.1466149" lon="-2.8337276">
        <ele>146.517</ele>
        <time>2021-04-01T09:38:28.264Z</time>
      </trkpt>
      <trkpt lat="43.1466159" lon="-2.8337329">
        <ele>146.489</ele>
        <time>2021-04-01T09:38:28.319Z</time>
      </trkpt>
      <trkpt lat="43.1466173" lon="-2.8337383">
        <ele>146.504</ele>
        <time>2021-04-01T09:38:28.374Z</time>
      </trkpt>
      <trkpt lat="43.1466187" lon="-2.8337435">
        <ele>146.505</ele>
        <time>2021-04-01T09:38:28.429Z</time>
      </trkpt>
      <trkpt lat="43.1466199" lon="-2.8337488">
        <ele>146.509</ele>
        <time>2021-04-01T09:38:28.484Z</time>
      </trkpt>
      <trkpt lat="43.146621" lon="-2.8337541">
        <ele>146.477</ele>
        <time>2021-04-01T09:38:28.539Z</time>
      </trkpt>
      <trkpt lat="43.1466222" lon="-2.8337593">
        <ele>146.472</ele>
        <time>2021-04-01T09:38:28.594Z</time>
      </trkpt>
      <trkpt lat="43.1466234" lon="-2.8337646">
        <ele>146.462</ele>
        <time>2021-04-01T09:38:28.649Z</time>
      </trkpt>
      <trkpt lat="43.1466248" lon="-2.8337698">
        <ele>146.471</ele>
        <time>2021-04-01T09:38:28.704Z</time>
      </trkpt>
      <trkpt lat="43.1466261" lon="-2.833775">
        <ele>146.45</ele>
        <time>2021-04-01T09:38:28.759Z</time>
      </trkpt>
      <trkpt lat="43.1466275" lon="-2.8337802">
        <ele>146.453</ele>
        <time>2021-04-01T09:38:28.814Z</time>
      </trkpt>
      <trkpt lat="43.1466288" lon="-2.8337854">
        <ele>146.421</ele>
        <time>2021-04-01T09:38:28.869Z</time>
      </trkpt>
      <trkpt lat="43.14663" lon="-2.8337906">
        <ele>146.428</ele>
        <time>2021-04-01T09:38:28.924Z</time>
      </trkpt>
      <trkpt lat="43.1466313" lon="-2.8337958">
        <ele>146.442</ele>
        <time>2021-04-01T09:38:28.979Z</time>
      </trkpt>
      <trkpt lat="43.1466325" lon="-2.8338011">
        <ele>146.425</ele>
        <time>2021-04-01T09:38:29.034Z</time>
      </trkpt>
      <trkpt lat="43.146634" lon="-2.8338064">
        <ele>146.431</ele>
        <time>2021-04-01T09:38:29.089Z</time>
      </trkpt>
      <trkpt lat="43.1466353" lon="-2.8338117">
        <ele>146.41</ele>
        <time>2021-04-01T09:38:29.144Z</time>
      </trkpt>
      <trkpt lat="43.1466366" lon="-2.8338171">
        <ele>146.399</ele>
        <time>2021-04-01T09:38:29.199Z</time>
      </trkpt>
      <trkpt lat="43.1466378" lon="-2.8338223">
        <ele>146.37</ele>
        <time>2021-04-01T09:38:29.254Z</time>
      </trkpt>
      <trkpt lat="43.1466392" lon="-2.8338277">
        <ele>146.371</ele>
        <time>2021-04-01T09:38:29.309Z</time>
      </trkpt>
      <trkpt lat="43.1466406" lon="-2.8338328">
        <ele>146.368</ele>
        <time>2021-04-01T09:38:29.364Z</time>
      </trkpt>
      <trkpt lat="43.1466419" lon="-2.833838">
        <ele>146.364</ele>
        <time>2021-04-01T09:38:29.419Z</time>
      </trkpt>
      <trkpt lat="43.1466431" lon="-2.8338433">
        <ele>146.343</ele>
        <time>2021-04-01T09:38:29.474Z</time>
      </trkpt>
      <trkpt lat="43.1466443" lon="-2.8338485">
        <ele>146.32</ele>
        <time>2021-04-01T09:38:29.529Z</time>
      </trkpt>
      <trkpt lat="43.1466458" lon="-2.8338538">
        <ele>146.328</ele>
        <time>2021-04-01T09:38:29.584Z</time>
      </trkpt>
      <trkpt lat="43.1466472" lon="-2.8338592">
        <ele>146.341</ele>
        <time>2021-04-01T09:38:29.639Z</time>
      </trkpt>
      <trkpt lat="43.1466485" lon="-2.8338644">
        <ele>146.38</ele>
        <time>2021-04-01T09:38:29.694Z</time>
      </trkpt>
      <trkpt lat="43.1466496" lon="-2.8338696">
        <ele>146.362</ele>
        <time>2021-04-01T09:38:29.749Z</time>
      </trkpt>
      <trkpt lat="43.146651" lon="-2.8338749">
        <ele>146.351</ele>
        <time>2021-04-01T09:38:29.804Z</time>
      </trkpt>
      <trkpt lat="43.1466523" lon="-2.8338803">
        <ele>146.353</ele>
        <time>2021-04-01T09:38:29.859Z</time>
      </trkpt>
      <trkpt lat="43.1466535" lon="-2.8338857">
        <ele>146.379</ele>
        <time>2021-04-01T09:38:29.914Z</time>
      </trkpt>
      <trkpt lat="43.146655" lon="-2.8338912">
        <ele>146.377</ele>
        <time>2021-04-01T09:38:29.969Z</time>
      </trkpt>
      <trkpt lat="43.1466565" lon="-2.8338966">
        <ele>146.387</ele>
        <time>2021-04-01T09:38:30.024Z</time>
      </trkpt>
      <trkpt lat="43.1466577" lon="-2.8339019">
        <ele>146.365</ele>
        <time>2021-04-01T09:38:30.079Z</time>
      </trkpt>
      <trkpt lat="43.1466591" lon="-2.8339073">
        <ele>146.385</ele>
        <time>2021-04-01T09:38:30.134Z</time>
      </trkpt>
      <trkpt lat="43.1466602" lon="-2.8339126">
        <ele>146.382</ele>
        <time>2021-04-01T09:38:30.189Z</time>
      </trkpt>
      <trkpt lat="43.1466613" lon="-2.8339179">
        <ele>146.387</ele>
        <time>2021-04-01T09:38:30.244Z</time>
      </trkpt>
      <trkpt lat="43.1466627" lon="-2.8339234">
        <ele>146.373</ele>
        <time>2021-04-01T09:38:30.299Z</time>
      </trkpt>
      <trkpt lat="43.1466641" lon="-2.833929">
        <ele>146.379</ele>
        <time>2021-04-01T09:38:30.354Z</time>
      </trkpt>
      <trkpt lat="43.1466653" lon="-2.8339345">
        <ele>146.39</ele>
        <time>2021-04-01T09:38:30.409Z</time>
      </trkpt>
      <trkpt lat="43.1466665" lon="-2.8339398">
        <ele>146.387</ele>
        <time>2021-04-01T09:38:30.464Z</time>
      </trkpt>
      <trkpt lat="43.1466677" lon="-2.8339453">
        <ele>146.401</ele>
        <time>2021-04-01T09:38:30.519Z</time>
      </trkpt>
      <trkpt lat="43.1466689" lon="-2.833951">
        <ele>146.383</ele>
        <time>2021-04-01T09:38:30.574Z</time>
      </trkpt>
      <trkpt lat="43.14667" lon="-2.8339567">
        <ele>146.394</ele>
        <time>2021-04-01T09:38:30.629Z</time>
      </trkpt>
      <trkpt lat="43.146671" lon="-2.8339622">
        <ele>146.392</ele>
        <time>2021-04-01T09:38:30.684Z</time>
      </trkpt>
      <trkpt lat="43.146672" lon="-2.8339676">
        <ele>146.378</ele>
        <time>2021-04-01T09:38:30.739Z</time>
      </trkpt>
      <trkpt lat="43.146673" lon="-2.8339731">
        <ele>146.364</ele>
        <time>2021-04-01T09:38:30.794Z</time>
      </trkpt>
      <trkpt lat="43.146674" lon="-2.8339786">
        <ele>146.33</ele>
        <time>2021-04-01T09:38:30.849Z</time>
      </trkpt>
      <trkpt lat="43.1466748" lon="-2.8339842">
        <ele>146.356</ele>
        <time>2021-04-01T09:38:30.904Z</time>
      </trkpt>
      <trkpt lat="43.1466759" lon="-2.8339897">
        <ele>146.37</ele>
        <time>2021-04-01T09:38:30.959Z</time>
      </trkpt>
      <trkpt lat="43.1466769" lon="-2.8339952">
        <ele>146.36</ele>
        <time>2021-04-01T09:38:31.014Z</time>
      </trkpt>
      <trkpt lat="43.1466777" lon="-2.8340008">
        <ele>146.389</ele>
        <time>2021-04-01T09:38:31.069Z</time>
      </trkpt>
      <trkpt lat="43.1466786" lon="-2.8340063">
        <ele>146.407</ele>
        <time>2021-04-01T09:38:31.124Z</time>
      </trkpt>
      <trkpt lat="43.1466796" lon="-2.834012">
        <ele>146.441</ele>
        <time>2021-04-01T09:38:31.179Z</time>
      </trkpt>
      <trkpt lat="43.1466804" lon="-2.8340175">
        <ele>146.451</ele>
        <time>2021-04-01T09:38:31.234Z</time>
      </trkpt>
      <trkpt lat="43.1466814" lon="-2.8340232">
        <ele>146.481</ele>
        <time>2021-04-01T09:38:31.289Z</time>
      </trkpt>
      <trkpt lat="43.1466821" lon="-2.8340289">
        <ele>146.485</ele>
        <time>2021-04-01T09:38:31.344Z</time>
      </trkpt>
      <trkpt lat="43.1466828" lon="-2.8340345">
        <ele>146.479</ele>
        <time>2021-04-01T09:38:31.399Z</time>
      </trkpt>
      <trkpt lat="43.1466834" lon="-2.83404">
        <ele>146.457</ele>
        <time>2021-04-01T09:38:31.454Z</time>
      </trkpt>
      <trkpt lat="43.1466841" lon="-2.8340455">
        <ele>146.433</ele>
        <time>2021-04-01T09:38:31.509Z</time>
      </trkpt>
      <trkpt lat="43.1466847" lon="-2.8340511">
        <ele>146.4</ele>
        <time>2021-04-01T09:38:31.564Z</time>
      </trkpt>
      <trkpt lat="43.1466853" lon="-2.8340566">
        <ele>146.343</ele>
        <time>2021-04-01T09:38:31.619Z</time>
      </trkpt>
      <trkpt lat="43.1466858" lon="-2.8340621">
        <ele>146.324</ele>
        <time>2021-04-01T09:38:31.674Z</time>
      </trkpt>
      <trkpt lat="43.1466865" lon="-2.8340677">
        <ele>146.325</ele>
        <time>2021-04-01T09:38:31.729Z</time>
      </trkpt>
      <trkpt lat="43.1466869" lon="-2.8340731">
        <ele>146.31</ele>
        <time>2021-04-01T09:38:31.784Z</time>
      </trkpt>
      <trkpt lat="43.1466873" lon="-2.8340786">
        <ele>146.277</ele>
        <time>2021-04-01T09:38:31.839Z</time>
      </trkpt>
      <trkpt lat="43.1466876" lon="-2.8340843">
        <ele>146.271</ele>
        <time>2021-04-01T09:38:31.894Z</time>
      </trkpt>
      <trkpt lat="43.1466878" lon="-2.8340899">
        <ele>146.259</ele>
        <time>2021-04-01T09:38:31.949Z</time>
      </trkpt>
      <trkpt lat="43.1466881" lon="-2.8340955">
        <ele>146.238</ele>
        <time>2021-04-01T09:38:32.004Z</time>
      </trkpt>
      <trkpt lat="43.1466883" lon="-2.8341012">
        <ele>146.238</ele>
        <time>2021-04-01T09:38:32.059Z</time>
      </trkpt>
      <trkpt lat="43.1466886" lon="-2.8341069">
        <ele>146.207</ele>
        <time>2021-04-01T09:38:32.114Z</time>
      </trkpt>
      <trkpt lat="43.1466886" lon="-2.8341126">
        <ele>146.167</ele>
        <time>2021-04-01T09:38:32.169Z</time>
      </trkpt>
      <trkpt lat="43.1466888" lon="-2.8341183">
        <ele>146.135</ele>
        <time>2021-04-01T09:38:32.220Z</time>
      </trkpt>
      <trkpt lat="43.1466888" lon="-2.8341241">
        <ele>146.127</ele>
        <time>2021-04-01T09:38:32.272Z</time>
      </trkpt>
      <trkpt lat="43.1466887" lon="-2.8341296">
        <ele>146.08</ele>
        <time>2021-04-01T09:38:32.324Z</time>
      </trkpt>
      <trkpt lat="43.1466887" lon="-2.8341353">
        <ele>146.06</ele>
        <time>2021-04-01T09:38:32.376Z</time>
      </trkpt>
      <trkpt lat="43.1466886" lon="-2.834141">
        <ele>146.032</ele>
        <time>2021-04-01T09:38:32.428Z</time>
      </trkpt>
      <trkpt lat="43.1466885" lon="-2.8341467">
        <ele>146.013</ele>
        <time>2021-04-01T09:38:32.480Z</time>
      </trkpt>
      <trkpt lat="43.1466885" lon="-2.8341523">
        <ele>146</ele>
        <time>2021-04-01T09:38:32.532Z</time>
      </trkpt>
      <trkpt lat="43.1466884" lon="-2.834158">
        <ele>145.99</ele>
        <time>2021-04-01T09:38:32.584Z</time>
      </trkpt>
      <trkpt lat="43.1466882" lon="-2.8341637">
        <ele>145.971</ele>
        <time>2021-04-01T09:38:32.636Z</time>
      </trkpt>
      <trkpt lat="43.1466877" lon="-2.8341694">
        <ele>145.958</ele>
        <time>2021-04-01T09:38:32.688Z</time>
      </trkpt>
      <trkpt lat="43.1466874" lon="-2.8341749">
        <ele>145.919</ele>
        <time>2021-04-01T09:38:32.740Z</time>
      </trkpt>
      <trkpt lat="43.1466872" lon="-2.8341808">
        <ele>145.913</ele>
        <time>2021-04-01T09:38:32.792Z</time>
      </trkpt>
      <trkpt lat="43.1466868" lon="-2.8341865">
        <ele>145.884</ele>
        <time>2021-04-01T09:38:32.844Z</time>
      </trkpt>
      <trkpt lat="43.1466862" lon="-2.834192">
        <ele>145.875</ele>
        <time>2021-04-01T09:38:32.896Z</time>
      </trkpt>
      <trkpt lat="43.1466858" lon="-2.8341976">
        <ele>145.875</ele>
        <time>2021-04-01T09:38:32.948Z</time>
      </trkpt>
      <trkpt lat="43.1466853" lon="-2.8342032">
        <ele>145.849</ele>
        <time>2021-04-01T09:38:33.000Z</time>
      </trkpt>
      <trkpt lat="43.1466846" lon="-2.8342088">
        <ele>145.823</ele>
        <time>2021-04-01T09:38:33.052Z</time>
      </trkpt>
      <trkpt lat="43.1466838" lon="-2.8342142">
        <ele>145.775</ele>
        <time>2021-04-01T09:38:33.104Z</time>
      </trkpt>
      <trkpt lat="43.1466831" lon="-2.8342197">
        <ele>145.768</ele>
        <time>2021-04-01T09:38:33.162Z</time>
      </trkpt>
      <trkpt lat="43.1466822" lon="-2.8342253">
        <ele>145.745</ele>
        <time>2021-04-01T09:38:33.220Z</time>
      </trkpt>
      <trkpt lat="43.1466815" lon="-2.8342309">
        <ele>145.724</ele>
        <time>2021-04-01T09:38:33.278Z</time>
      </trkpt>
      <trkpt lat="43.1466807" lon="-2.8342367">
        <ele>145.713</ele>
        <time>2021-04-01T09:38:33.336Z</time>
      </trkpt>
      <trkpt lat="43.1466799" lon="-2.8342424">
        <ele>145.686</ele>
        <time>2021-04-01T09:38:33.394Z</time>
      </trkpt>
      <trkpt lat="43.146679" lon="-2.8342481">
        <ele>145.637</ele>
        <time>2021-04-01T09:38:33.452Z</time>
      </trkpt>
      <trkpt lat="43.146678" lon="-2.8342537">
        <ele>145.605</ele>
        <time>2021-04-01T09:38:33.510Z</time>
      </trkpt>
      <trkpt lat="43.1466769" lon="-2.8342595">
        <ele>145.582</ele>
        <time>2021-04-01T09:38:33.568Z</time>
      </trkpt>
      <trkpt lat="43.1466758" lon="-2.8342651">
        <ele>145.554</ele>
        <time>2021-04-01T09:38:33.626Z</time>
      </trkpt>
      <trkpt lat="43.1466748" lon="-2.8342707">
        <ele>145.543</ele>
        <time>2021-04-01T09:38:33.684Z</time>
      </trkpt>
      <trkpt lat="43.1466739" lon="-2.8342763">
        <ele>145.524</ele>
        <time>2021-04-01T09:38:33.742Z</time>
      </trkpt>
      <trkpt lat="43.1466727" lon="-2.834282">
        <ele>145.508</ele>
        <time>2021-04-01T09:38:33.800Z</time>
      </trkpt>
      <trkpt lat="43.1466715" lon="-2.8342877">
        <ele>145.494</ele>
        <time>2021-04-01T09:38:33.858Z</time>
      </trkpt>
      <trkpt lat="43.1466702" lon="-2.8342933">
        <ele>145.477</ele>
        <time>2021-04-01T09:38:33.916Z</time>
      </trkpt>
      <trkpt lat="43.146669" lon="-2.8342989">
        <ele>145.459</ele>
        <time>2021-04-01T09:38:33.974Z</time>
      </trkpt>
      <trkpt lat="43.1466678" lon="-2.8343045">
        <ele>145.449</ele>
        <time>2021-04-01T09:38:34.032Z</time>
      </trkpt>
      <trkpt lat="43.1466665" lon="-2.8343103">
        <ele>145.456</ele>
        <time>2021-04-01T09:38:34.090Z</time>
      </trkpt>
      <trkpt lat="43.1466653" lon="-2.8343159">
        <ele>145.45</ele>
        <time>2021-04-01T09:38:34.149Z</time>
      </trkpt>
      <trkpt lat="43.146664" lon="-2.8343213">
        <ele>145.409</ele>
        <time>2021-04-01T09:38:34.204Z</time>
      </trkpt>
      <trkpt lat="43.1466626" lon="-2.8343267">
        <ele>145.377</ele>
        <time>2021-04-01T09:38:34.259Z</time>
      </trkpt>
      <trkpt lat="43.1466613" lon="-2.8343322">
        <ele>145.364</ele>
        <time>2021-04-01T09:38:34.314Z</time>
      </trkpt>
      <trkpt lat="43.1466598" lon="-2.8343376">
        <ele>145.35</ele>
        <time>2021-04-01T09:38:34.369Z</time>
      </trkpt>
      <trkpt lat="43.1466584" lon="-2.8343433">
        <ele>145.356</ele>
        <time>2021-04-01T09:38:34.424Z</time>
      </trkpt>
      <trkpt lat="43.146657" lon="-2.8343489">
        <ele>145.365</ele>
        <time>2021-04-01T09:38:34.479Z</time>
      </trkpt>
      <trkpt lat="43.1466555" lon="-2.8343544">
        <ele>145.38</ele>
        <time>2021-04-01T09:38:34.534Z</time>
      </trkpt>
      <trkpt lat="43.1466541" lon="-2.83436">
        <ele>145.4</ele>
        <time>2021-04-01T09:38:34.589Z</time>
      </trkpt>
      <trkpt lat="43.1466527" lon="-2.8343656">
        <ele>145.413</ele>
        <time>2021-04-01T09:38:34.644Z</time>
      </trkpt>
      <trkpt lat="43.1466511" lon="-2.8343711">
        <ele>145.427</ele>
        <time>2021-04-01T09:38:34.699Z</time>
      </trkpt>
      <trkpt lat="43.1466494" lon="-2.8343766">
        <ele>145.415</ele>
        <time>2021-04-01T09:38:34.754Z</time>
      </trkpt>
      <trkpt lat="43.1466479" lon="-2.8343822">
        <ele>145.388</ele>
        <time>2021-04-01T09:38:34.809Z</time>
      </trkpt>
      <trkpt lat="43.1466461" lon="-2.8343877">
        <ele>145.398</ele>
        <time>2021-04-01T09:38:34.864Z</time>
      </trkpt>
      <trkpt lat="43.1466445" lon="-2.8343931">
        <ele>145.395</ele>
        <time>2021-04-01T09:38:34.919Z</time>
      </trkpt>
      <trkpt lat="43.1466429" lon="-2.8343986">
        <ele>145.392</ele>
        <time>2021-04-01T09:38:34.974Z</time>
      </trkpt>
      <trkpt lat="43.1466412" lon="-2.8344041">
        <ele>145.402</ele>
        <time>2021-04-01T09:38:35.029Z</time>
      </trkpt>
      <trkpt lat="43.1466395" lon="-2.8344095">
        <ele>145.402</ele>
        <time>2021-04-01T09:38:35.084Z</time>
      </trkpt>
      <trkpt lat="43.1466377" lon="-2.834415">
        <ele>145.395</ele>
        <time>2021-04-01T09:38:35.139Z</time>
      </trkpt>
      <trkpt lat="43.146636" lon="-2.8344204">
        <ele>145.395</ele>
        <time>2021-04-01T09:38:35.191Z</time>
      </trkpt>
      <trkpt lat="43.1466343" lon="-2.834426">
        <ele>145.395</ele>
        <time>2021-04-01T09:38:35.243Z</time>
      </trkpt>
      <trkpt lat="43.1466323" lon="-2.8344316">
        <ele>145.421</ele>
        <time>2021-04-01T09:38:35.295Z</time>
      </trkpt>
      <trkpt lat="43.1466306" lon="-2.8344372">
        <ele>145.417</ele>
        <time>2021-04-01T09:38:35.347Z</time>
      </trkpt>
      <trkpt lat="43.1466288" lon="-2.8344426">
        <ele>145.427</ele>
        <time>2021-04-01T09:38:35.399Z</time>
      </trkpt>
      <trkpt lat="43.1466269" lon="-2.8344484">
        <ele>145.448</ele>
        <time>2021-04-01T09:38:35.451Z</time>
      </trkpt>
      <trkpt lat="43.146625" lon="-2.834454">
        <ele>145.461</ele>
        <time>2021-04-01T09:38:35.503Z</time>
      </trkpt>
      <trkpt lat="43.1466231" lon="-2.8344595">
        <ele>145.446</ele>
        <time>2021-04-01T09:38:35.555Z</time>
      </trkpt>
      <trkpt lat="43.1466212" lon="-2.8344648">
        <ele>145.435</ele>
        <time>2021-04-01T09:38:35.607Z</time>
      </trkpt>
      <trkpt lat="43.1466193" lon="-2.8344703">
        <ele>145.42</ele>
        <time>2021-04-01T09:38:35.660Z</time>
      </trkpt>
      <trkpt lat="43.1466174" lon="-2.8344754">
        <ele>145.405</ele>
        <time>2021-04-01T09:38:35.712Z</time>
      </trkpt>
      <trkpt lat="43.1466156" lon="-2.8344809">
        <ele>145.395</ele>
        <time>2021-04-01T09:38:35.764Z</time>
      </trkpt>
      <trkpt lat="43.1466136" lon="-2.8344863">
        <ele>145.387</ele>
        <time>2021-04-01T09:38:35.816Z</time>
      </trkpt>
      <trkpt lat="43.1466117" lon="-2.8344918">
        <ele>145.395</ele>
        <time>2021-04-01T09:38:35.868Z</time>
      </trkpt>
      <trkpt lat="43.1466099" lon="-2.8344973">
        <ele>145.406</ele>
        <time>2021-04-01T09:38:35.920Z</time>
      </trkpt>
      <trkpt lat="43.1466079" lon="-2.8345025">
        <ele>145.39</ele>
        <time>2021-04-01T09:38:35.972Z</time>
      </trkpt>
      <trkpt lat="43.1466063" lon="-2.8345081">
        <ele>145.417</ele>
        <time>2021-04-01T09:38:36.024Z</time>
      </trkpt>
      <trkpt lat="43.1466044" lon="-2.8345134">
        <ele>145.428</ele>
        <time>2021-04-01T09:38:36.076Z</time>
      </trkpt>
      <trkpt lat="43.1466027" lon="-2.8345189">
        <ele>145.446</ele>
        <time>2021-04-01T09:38:36.129Z</time>
      </trkpt>
      <trkpt lat="43.1466008" lon="-2.8345244">
        <ele>145.458</ele>
        <time>2021-04-01T09:38:36.187Z</time>
      </trkpt>
      <trkpt lat="43.1465989" lon="-2.8345297">
        <ele>145.457</ele>
        <time>2021-04-01T09:38:36.245Z</time>
      </trkpt>
      <trkpt lat="43.1465969" lon="-2.8345351">
        <ele>145.46</ele>
        <time>2021-04-01T09:38:36.303Z</time>
      </trkpt>
      <trkpt lat="43.1465949" lon="-2.8345406">
        <ele>145.477</ele>
        <time>2021-04-01T09:38:36.361Z</time>
      </trkpt>
      <trkpt lat="43.1465932" lon="-2.8345462">
        <ele>145.472</ele>
        <time>2021-04-01T09:38:36.419Z</time>
      </trkpt>
      <trkpt lat="43.1465912" lon="-2.8345516">
        <ele>145.479</ele>
        <time>2021-04-01T09:38:36.477Z</time>
      </trkpt>
      <trkpt lat="43.1465892" lon="-2.8345569">
        <ele>145.47</ele>
        <time>2021-04-01T09:38:36.535Z</time>
      </trkpt>
      <trkpt lat="43.1465871" lon="-2.8345624">
        <ele>145.472</ele>
        <time>2021-04-01T09:38:36.593Z</time>
      </trkpt>
      <trkpt lat="43.1465851" lon="-2.834568">
        <ele>145.464</ele>
        <time>2021-04-01T09:38:36.651Z</time>
      </trkpt>
      <trkpt lat="43.146583" lon="-2.8345735">
        <ele>145.478</ele>
        <time>2021-04-01T09:38:36.709Z</time>
      </trkpt>
      <trkpt lat="43.1465811" lon="-2.834579">
        <ele>145.489</ele>
        <time>2021-04-01T09:38:36.767Z</time>
      </trkpt>
      <trkpt lat="43.146579" lon="-2.8345845">
        <ele>145.487</ele>
        <time>2021-04-01T09:38:36.825Z</time>
      </trkpt>
      <trkpt lat="43.146577" lon="-2.8345898">
        <ele>145.482</ele>
        <time>2021-04-01T09:38:36.883Z</time>
      </trkpt>
      <trkpt lat="43.1465749" lon="-2.8345952">
        <ele>145.473</ele>
        <time>2021-04-01T09:38:36.941Z</time>
      </trkpt>
      <trkpt lat="43.1465729" lon="-2.8346005">
        <ele>145.46</ele>
        <time>2021-04-01T09:38:36.999Z</time>
      </trkpt>
      <trkpt lat="43.1465709" lon="-2.834606">
        <ele>145.472</ele>
        <time>2021-04-01T09:38:37.057Z</time>
      </trkpt>
      <trkpt lat="43.1465688" lon="-2.8346114">
        <ele>145.449</ele>
        <time>2021-04-01T09:38:37.115Z</time>
      </trkpt>
      <trkpt lat="43.1465667" lon="-2.8346168">
        <ele>145.445</ele>
        <time>2021-04-01T09:38:37.174Z</time>
      </trkpt>
      <trkpt lat="43.1465646" lon="-2.8346221">
        <ele>145.444</ele>
        <time>2021-04-01T09:38:37.232Z</time>
      </trkpt>
      <trkpt lat="43.1465626" lon="-2.8346277">
        <ele>145.441</ele>
        <time>2021-04-01T09:38:37.290Z</time>
      </trkpt>
      <trkpt lat="43.1465605" lon="-2.8346331">
        <ele>145.453</ele>
        <time>2021-04-01T09:38:37.348Z</time>
      </trkpt>
      <trkpt lat="43.1465582" lon="-2.8346385">
        <ele>145.422</ele>
        <time>2021-04-01T09:38:37.406Z</time>
      </trkpt>
      <trkpt lat="43.1465562" lon="-2.834644">
        <ele>145.413</ele>
        <time>2021-04-01T09:38:37.465Z</time>
      </trkpt>
      <trkpt lat="43.1465541" lon="-2.8346492">
        <ele>145.38</ele>
        <time>2021-04-01T09:38:37.523Z</time>
      </trkpt>
      <trkpt lat="43.1465519" lon="-2.8346546">
        <ele>145.368</ele>
        <time>2021-04-01T09:38:37.581Z</time>
      </trkpt>
      <trkpt lat="43.1465498" lon="-2.8346601">
        <ele>145.361</ele>
        <time>2021-04-01T09:38:37.639Z</time>
      </trkpt>
      <trkpt lat="43.1465477" lon="-2.8346655">
        <ele>145.352</ele>
        <time>2021-04-01T09:38:37.698Z</time>
      </trkpt>
      <trkpt lat="43.1465456" lon="-2.8346711">
        <ele>145.351</ele>
        <time>2021-04-01T09:38:37.756Z</time>
      </trkpt>
      <trkpt lat="43.1465436" lon="-2.8346765">
        <ele>145.322</ele>
        <time>2021-04-01T09:38:37.814Z</time>
      </trkpt>
      <trkpt lat="43.1465416" lon="-2.8346822">
        <ele>145.328</ele>
        <time>2021-04-01T09:38:37.872Z</time>
      </trkpt>
      <trkpt lat="43.1465396" lon="-2.8346878">
        <ele>145.351</ele>
        <time>2021-04-01T09:38:37.931Z</time>
      </trkpt>
      <trkpt lat="43.1465375" lon="-2.8346935">
        <ele>145.362</ele>
        <time>2021-04-01T09:38:37.989Z</time>
      </trkpt>
      <trkpt lat="43.1465354" lon="-2.834699">
        <ele>145.351</ele>
        <time>2021-04-01T09:38:38.047Z</time>
      </trkpt>
      <trkpt lat="43.1465334" lon="-2.8347045">
        <ele>145.352</ele>
        <time>2021-04-01T09:38:38.105Z</time>
      </trkpt>
      <trkpt lat="43.1465314" lon="-2.8347099">
        <ele>145.362</ele>
        <time>2021-04-01T09:38:38.164Z</time>
      </trkpt>
      <trkpt lat="43.1465294" lon="-2.8347156">
        <ele>145.38</ele>
        <time>2021-04-01T09:38:38.216Z</time>
      </trkpt>
      <trkpt lat="43.1465273" lon="-2.8347211">
        <ele>145.376</ele>
        <time>2021-04-01T09:38:38.268Z</time>
      </trkpt>
      <trkpt lat="43.1465252" lon="-2.8347266">
        <ele>145.384</ele>
        <time>2021-04-01T09:38:38.320Z</time>
      </trkpt>
      <trkpt lat="43.1465231" lon="-2.8347321">
        <ele>145.385</ele>
        <time>2021-04-01T09:38:38.372Z</time>
      </trkpt>
      <trkpt lat="43.146521" lon="-2.8347377">
        <ele>145.397</ele>
        <time>2021-04-01T09:38:38.424Z</time>
      </trkpt>
      <trkpt lat="43.1465189" lon="-2.8347432">
        <ele>145.403</ele>
        <time>2021-04-01T09:38:38.476Z</time>
      </trkpt>
      <trkpt lat="43.1465167" lon="-2.8347489">
        <ele>145.417</ele>
        <time>2021-04-01T09:38:38.528Z</time>
      </trkpt>
      <trkpt lat="43.1465146" lon="-2.8347545">
        <ele>145.41</ele>
        <time>2021-04-01T09:38:38.580Z</time>
      </trkpt>
      <trkpt lat="43.1465125" lon="-2.83476">
        <ele>145.407</ele>
        <time>2021-04-01T09:38:38.632Z</time>
      </trkpt>
      <trkpt lat="43.1465102" lon="-2.8347655">
        <ele>145.405</ele>
        <time>2021-04-01T09:38:38.685Z</time>
      </trkpt>
      <trkpt lat="43.1465079" lon="-2.8347709">
        <ele>145.388</ele>
        <time>2021-04-01T09:38:38.737Z</time>
      </trkpt>
      <trkpt lat="43.1465058" lon="-2.8347764">
        <ele>145.39</ele>
        <time>2021-04-01T09:38:38.789Z</time>
      </trkpt>
      <trkpt lat="43.1465034" lon="-2.8347818">
        <ele>145.398</ele>
        <time>2021-04-01T09:38:38.841Z</time>
      </trkpt>
      <trkpt lat="43.1465012" lon="-2.834787">
        <ele>145.438</ele>
        <time>2021-04-01T09:38:38.893Z</time>
      </trkpt>
      <trkpt lat="43.146499" lon="-2.8347925">
        <ele>145.447</ele>
        <time>2021-04-01T09:38:38.945Z</time>
      </trkpt>
      <trkpt lat="43.1464968" lon="-2.834798">
        <ele>145.465</ele>
        <time>2021-04-01T09:38:38.997Z</time>
      </trkpt>
      <trkpt lat="43.1464946" lon="-2.8348034">
        <ele>145.473</ele>
        <time>2021-04-01T09:38:39.049Z</time>
      </trkpt>
      <trkpt lat="43.1464926" lon="-2.834809">
        <ele>145.492</ele>
        <time>2021-04-01T09:38:39.101Z</time>
      </trkpt>
      <trkpt lat="43.1464904" lon="-2.8348145">
        <ele>145.497</ele>
        <time>2021-04-01T09:38:39.154Z</time>
      </trkpt>
      <trkpt lat="43.1464881" lon="-2.8348201">
        <ele>145.501</ele>
        <time>2021-04-01T09:38:39.209Z</time>
      </trkpt>
      <trkpt lat="43.1464859" lon="-2.8348258">
        <ele>145.512</ele>
        <time>2021-04-01T09:38:39.264Z</time>
      </trkpt>
      <trkpt lat="43.1464836" lon="-2.8348312">
        <ele>145.499</ele>
        <time>2021-04-01T09:38:39.319Z</time>
      </trkpt>
      <trkpt lat="43.1464813" lon="-2.8348366">
        <ele>145.498</ele>
        <time>2021-04-01T09:38:39.374Z</time>
      </trkpt>
      <trkpt lat="43.1464791" lon="-2.8348422">
        <ele>145.522</ele>
        <time>2021-04-01T09:38:39.429Z</time>
      </trkpt>
      <trkpt lat="43.1464769" lon="-2.8348477">
        <ele>145.513</ele>
        <time>2021-04-01T09:38:39.484Z</time>
      </trkpt>
      <trkpt lat="43.1464749" lon="-2.8348534">
        <ele>145.505</ele>
        <time>2021-04-01T09:38:39.539Z</time>
      </trkpt>
      <trkpt lat="43.1464729" lon="-2.834859">
        <ele>145.498</ele>
        <time>2021-04-01T09:38:39.594Z</time>
      </trkpt>
      <trkpt lat="43.1464706" lon="-2.8348642">
        <ele>145.475</ele>
        <time>2021-04-01T09:38:39.649Z</time>
      </trkpt>
      <trkpt lat="43.1464687" lon="-2.83487">
        <ele>145.481</ele>
        <time>2021-04-01T09:38:39.704Z</time>
      </trkpt>
      <trkpt lat="43.1464667" lon="-2.8348758">
        <ele>145.494</ele>
        <time>2021-04-01T09:38:39.759Z</time>
      </trkpt>
      <trkpt lat="43.1464643" lon="-2.8348811">
        <ele>145.492</ele>
        <time>2021-04-01T09:38:39.814Z</time>
      </trkpt>
      <trkpt lat="43.1464619" lon="-2.8348862">
        <ele>145.479</ele>
        <time>2021-04-01T09:38:39.869Z</time>
      </trkpt>
      <trkpt lat="43.1464597" lon="-2.8348916">
        <ele>145.476</ele>
        <time>2021-04-01T09:38:39.924Z</time>
      </trkpt>
      <trkpt lat="43.1464576" lon="-2.8348968">
        <ele>145.465</ele>
        <time>2021-04-01T09:38:39.979Z</time>
      </trkpt>
      <trkpt lat="43.1464554" lon="-2.8349021">
        <ele>145.482</ele>
        <time>2021-04-01T09:38:40.034Z</time>
      </trkpt>
      <trkpt lat="43.1464531" lon="-2.8349076">
        <ele>145.465</ele>
        <time>2021-04-01T09:38:40.089Z</time>
      </trkpt>
      <trkpt lat="43.1464508" lon="-2.8349131">
        <ele>145.463</ele>
        <time>2021-04-01T09:38:40.144Z</time>
      </trkpt>
      <trkpt lat="43.1464485" lon="-2.8349185">
        <ele>145.473</ele>
        <time>2021-04-01T09:38:40.199Z</time>
      </trkpt>
      <trkpt lat="43.1464462" lon="-2.8349242">
        <ele>145.477</ele>
        <time>2021-04-01T09:38:40.254Z</time>
      </trkpt>
      <trkpt lat="43.146444" lon="-2.8349297">
        <ele>145.469</ele>
        <time>2021-04-01T09:38:40.309Z</time>
      </trkpt>
      <trkpt lat="43.1464419" lon="-2.8349353">
        <ele>145.474</ele>
        <time>2021-04-01T09:38:40.364Z</time>
      </trkpt>
      <trkpt lat="43.1464397" lon="-2.8349408">
        <ele>145.463</ele>
        <time>2021-04-01T09:38:40.419Z</time>
      </trkpt>
      <trkpt lat="43.1464374" lon="-2.8349461">
        <ele>145.476</ele>
        <time>2021-04-01T09:38:40.474Z</time>
      </trkpt>
      <trkpt lat="43.1464352" lon="-2.8349517">
        <ele>145.484</ele>
        <time>2021-04-01T09:38:40.529Z</time>
      </trkpt>
      <trkpt lat="43.1464331" lon="-2.8349571">
        <ele>145.47</ele>
        <time>2021-04-01T09:38:40.584Z</time>
      </trkpt>
      <trkpt lat="43.1464309" lon="-2.8349627">
        <ele>145.462</ele>
        <time>2021-04-01T09:38:40.639Z</time>
      </trkpt>
      <trkpt lat="43.1464286" lon="-2.834968">
        <ele>145.483</ele>
        <time>2021-04-01T09:38:40.694Z</time>
      </trkpt>
      <trkpt lat="43.1464262" lon="-2.8349734">
        <ele>145.47</ele>
        <time>2021-04-01T09:38:40.749Z</time>
      </trkpt>
      <trkpt lat="43.146424" lon="-2.8349788">
        <ele>145.456</ele>
        <time>2021-04-01T09:38:40.804Z</time>
      </trkpt>
      <trkpt lat="43.1464217" lon="-2.834984">
        <ele>145.44</ele>
        <time>2021-04-01T09:38:40.859Z</time>
      </trkpt>
      <trkpt lat="43.1464194" lon="-2.8349893">
        <ele>145.423</ele>
        <time>2021-04-01T09:38:40.914Z</time>
      </trkpt>
      <trkpt lat="43.1464173" lon="-2.8349948">
        <ele>145.432</ele>
        <time>2021-04-01T09:38:40.969Z</time>
      </trkpt>
      <trkpt lat="43.1464151" lon="-2.8350002">
        <ele>145.42</ele>
        <time>2021-04-01T09:38:41.024Z</time>
      </trkpt>
      <trkpt lat="43.1464127" lon="-2.8350058">
        <ele>145.438</ele>
        <time>2021-04-01T09:38:41.079Z</time>
      </trkpt>
      <trkpt lat="43.1464105" lon="-2.8350113">
        <ele>145.43</ele>
        <time>2021-04-01T09:38:41.134Z</time>
      </trkpt>
      <trkpt lat="43.1464082" lon="-2.8350166">
        <ele>145.445</ele>
        <time>2021-04-01T09:38:41.186Z</time>
      </trkpt>
      <trkpt lat="43.1464059" lon="-2.8350222">
        <ele>145.439</ele>
        <time>2021-04-01T09:38:41.238Z</time>
      </trkpt>
      <trkpt lat="43.1464035" lon="-2.8350275">
        <ele>145.436</ele>
        <time>2021-04-01T09:38:41.290Z</time>
      </trkpt>
      <trkpt lat="43.1464013" lon="-2.835033">
        <ele>145.445</ele>
        <time>2021-04-01T09:38:41.342Z</time>
      </trkpt>
      <trkpt lat="43.1463991" lon="-2.8350385">
        <ele>145.437</ele>
        <time>2021-04-01T09:38:41.394Z</time>
      </trkpt>
      <trkpt lat="43.1463967" lon="-2.8350439">
        <ele>145.416</ele>
        <time>2021-04-01T09:38:41.446Z</time>
      </trkpt>
      <trkpt lat="43.1463944" lon="-2.8350493">
        <ele>145.423</ele>
        <time>2021-04-01T09:38:41.498Z</time>
      </trkpt>
      <trkpt lat="43.1463921" lon="-2.8350548">
        <ele>145.416</ele>
        <time>2021-04-01T09:38:41.550Z</time>
      </trkpt>
      <trkpt lat="43.1463898" lon="-2.8350603">
        <ele>145.419</ele>
        <time>2021-04-01T09:38:41.602Z</time>
      </trkpt>
      <trkpt lat="43.1463875" lon="-2.8350657">
        <ele>145.407</ele>
        <time>2021-04-01T09:38:41.655Z</time>
      </trkpt>
      <trkpt lat="43.1463853" lon="-2.8350712">
        <ele>145.385</ele>
        <time>2021-04-01T09:38:41.707Z</time>
      </trkpt>
      <trkpt lat="43.1463829" lon="-2.8350766">
        <ele>145.373</ele>
        <time>2021-04-01T09:38:41.759Z</time>
      </trkpt>
      <trkpt lat="43.1463807" lon="-2.8350822">
        <ele>145.386</ele>
        <time>2021-04-01T09:38:41.811Z</time>
      </trkpt>
      <trkpt lat="43.1463784" lon="-2.8350876">
        <ele>145.376</ele>
        <time>2021-04-01T09:38:41.863Z</time>
      </trkpt>
      <trkpt lat="43.146376" lon="-2.8350929">
        <ele>145.363</ele>
        <time>2021-04-01T09:38:41.915Z</time>
      </trkpt>
      <trkpt lat="43.1463737" lon="-2.8350983">
        <ele>145.358</ele>
        <time>2021-04-01T09:38:41.967Z</time>
      </trkpt>
      <trkpt lat="43.1463714" lon="-2.8351037">
        <ele>145.345</ele>
        <time>2021-04-01T09:38:42.019Z</time>
      </trkpt>
      <trkpt lat="43.146369" lon="-2.8351091">
        <ele>145.343</ele>
        <time>2021-04-01T09:38:42.071Z</time>
      </trkpt>
      <trkpt lat="43.1463666" lon="-2.8351146">
        <ele>145.322</ele>
        <time>2021-04-01T09:38:42.124Z</time>
      </trkpt>
      <trkpt lat="43.1463643" lon="-2.8351201">
        <ele>145.328</ele>
        <time>2021-04-01T09:38:42.182Z</time>
      </trkpt>
      <trkpt lat="43.1463619" lon="-2.8351255">
        <ele>145.327</ele>
        <time>2021-04-01T09:38:42.240Z</time>
      </trkpt>
      <trkpt lat="43.1463597" lon="-2.8351309">
        <ele>145.304</ele>
        <time>2021-04-01T09:38:42.298Z</time>
      </trkpt>
      <trkpt lat="43.1463574" lon="-2.8351363">
        <ele>145.288</ele>
        <time>2021-04-01T09:38:42.356Z</time>
      </trkpt>
      <trkpt lat="43.1463551" lon="-2.8351418">
        <ele>145.303</ele>
        <time>2021-04-01T09:38:42.414Z</time>
      </trkpt>
      <trkpt lat="43.1463528" lon="-2.8351474">
        <ele>145.29</ele>
        <time>2021-04-01T09:38:42.472Z</time>
      </trkpt>
      <trkpt lat="43.1463506" lon="-2.835153">
        <ele>145.291</ele>
        <time>2021-04-01T09:38:42.530Z</time>
      </trkpt>
      <trkpt lat="43.1463482" lon="-2.8351585">
        <ele>145.274</ele>
        <time>2021-04-01T09:38:42.588Z</time>
      </trkpt>
      <trkpt lat="43.1463459" lon="-2.8351639">
        <ele>145.263</ele>
        <time>2021-04-01T09:38:42.646Z</time>
      </trkpt>
      <trkpt lat="43.1463435" lon="-2.8351693">
        <ele>145.25</ele>
        <time>2021-04-01T09:38:42.704Z</time>
      </trkpt>
      <trkpt lat="43.1463413" lon="-2.835175">
        <ele>145.242</ele>
        <time>2021-04-01T09:38:42.762Z</time>
      </trkpt>
      <trkpt lat="43.1463391" lon="-2.8351806">
        <ele>145.232</ele>
        <time>2021-04-01T09:38:42.820Z</time>
      </trkpt>
      <trkpt lat="43.1463369" lon="-2.8351864">
        <ele>145.202</ele>
        <time>2021-04-01T09:38:42.878Z</time>
      </trkpt>
      <trkpt lat="43.1463346" lon="-2.8351919">
        <ele>145.188</ele>
        <time>2021-04-01T09:38:42.936Z</time>
      </trkpt>
      <trkpt lat="43.1463324" lon="-2.8351975">
        <ele>145.195</ele>
        <time>2021-04-01T09:38:42.994Z</time>
      </trkpt>
      <trkpt lat="43.14633" lon="-2.8352031">
        <ele>145.208</ele>
        <time>2021-04-01T09:38:43.052Z</time>
      </trkpt>
      <trkpt lat="43.1463277" lon="-2.8352086">
        <ele>145.185</ele>
        <time>2021-04-01T09:38:43.110Z</time>
      </trkpt>
      <trkpt lat="43.1463254" lon="-2.8352142">
        <ele>145.169</ele>
        <time>2021-04-01T09:38:43.169Z</time>
      </trkpt>
      <trkpt lat="43.146323" lon="-2.8352197">
        <ele>145.16</ele>
        <time>2021-04-01T09:38:43.224Z</time>
      </trkpt>
      <trkpt lat="43.1463209" lon="-2.8352255">
        <ele>145.17</ele>
        <time>2021-04-01T09:38:43.279Z</time>
      </trkpt>
      <trkpt lat="43.1463185" lon="-2.835231">
        <ele>145.16</ele>
        <time>2021-04-01T09:38:43.334Z</time>
      </trkpt>
      <trkpt lat="43.1463162" lon="-2.8352367">
        <ele>145.155</ele>
        <time>2021-04-01T09:38:43.389Z</time>
      </trkpt>
      <trkpt lat="43.146314" lon="-2.8352424">
        <ele>145.172</ele>
        <time>2021-04-01T09:38:43.444Z</time>
      </trkpt>
      <trkpt lat="43.1463117" lon="-2.835248">
        <ele>145.168</ele>
        <time>2021-04-01T09:38:43.499Z</time>
      </trkpt>
      <trkpt lat="43.1463093" lon="-2.8352535">
        <ele>145.151</ele>
        <time>2021-04-01T09:38:43.554Z</time>
      </trkpt>
      <trkpt lat="43.146307" lon="-2.8352589">
        <ele>145.143</ele>
        <time>2021-04-01T09:38:43.609Z</time>
      </trkpt>
      <trkpt lat="43.1463046" lon="-2.8352644">
        <ele>145.123</ele>
        <time>2021-04-01T09:38:43.664Z</time>
      </trkpt>
      <trkpt lat="43.1463022" lon="-2.8352699">
        <ele>145.116</ele>
        <time>2021-04-01T09:38:43.719Z</time>
      </trkpt>
      <trkpt lat="43.1463" lon="-2.8352755">
        <ele>145.123</ele>
        <time>2021-04-01T09:38:43.774Z</time>
      </trkpt>
      <trkpt lat="43.1462977" lon="-2.8352809">
        <ele>145.102</ele>
        <time>2021-04-01T09:38:43.829Z</time>
      </trkpt>
      <trkpt lat="43.1462953" lon="-2.8352864">
        <ele>145.091</ele>
        <time>2021-04-01T09:38:43.884Z</time>
      </trkpt>
      <trkpt lat="43.146293" lon="-2.8352919">
        <ele>145.084</ele>
        <time>2021-04-01T09:38:43.939Z</time>
      </trkpt>
      <trkpt lat="43.1462906" lon="-2.8352973">
        <ele>145.066</ele>
        <time>2021-04-01T09:38:43.994Z</time>
      </trkpt>
      <trkpt lat="43.1462883" lon="-2.835303">
        <ele>145.064</ele>
        <time>2021-04-01T09:38:44.049Z</time>
      </trkpt>
      <trkpt lat="43.1462859" lon="-2.8353085">
        <ele>145.064</ele>
        <time>2021-04-01T09:38:44.104Z</time>
      </trkpt>
      <trkpt lat="43.1462836" lon="-2.835314">
        <ele>145.054</ele>
        <time>2021-04-01T09:38:44.159Z</time>
      </trkpt>
      <trkpt lat="43.1462811" lon="-2.8353192">
        <ele>145.016</ele>
        <time>2021-04-01T09:38:44.214Z</time>
      </trkpt>
      <trkpt lat="43.1462787" lon="-2.8353247">
        <ele>145.003</ele>
        <time>2021-04-01T09:38:44.269Z</time>
      </trkpt>
      <trkpt lat="43.1462763" lon="-2.8353301">
        <ele>144.989</ele>
        <time>2021-04-01T09:38:44.324Z</time>
      </trkpt>
      <trkpt lat="43.1462741" lon="-2.8353355">
        <ele>144.973</ele>
        <time>2021-04-01T09:38:44.379Z</time>
      </trkpt>
      <trkpt lat="43.1462718" lon="-2.8353412">
        <ele>144.978</ele>
        <time>2021-04-01T09:38:44.434Z</time>
      </trkpt>
      <trkpt lat="43.1462694" lon="-2.8353465">
        <ele>144.945</ele>
        <time>2021-04-01T09:38:44.489Z</time>
      </trkpt>
      <trkpt lat="43.1462669" lon="-2.8353518">
        <ele>144.933</ele>
        <time>2021-04-01T09:38:44.544Z</time>
      </trkpt>
      <trkpt lat="43.1462647" lon="-2.8353573">
        <ele>144.915</ele>
        <time>2021-04-01T09:38:44.599Z</time>
      </trkpt>
      <trkpt lat="43.1462625" lon="-2.8353629">
        <ele>144.904</ele>
        <time>2021-04-01T09:38:44.654Z</time>
      </trkpt>
      <trkpt lat="43.1462601" lon="-2.8353683">
        <ele>144.887</ele>
        <time>2021-04-01T09:38:44.709Z</time>
      </trkpt>
      <trkpt lat="43.1462577" lon="-2.8353737">
        <ele>144.864</ele>
        <time>2021-04-01T09:38:44.764Z</time>
      </trkpt>
      <trkpt lat="43.1462554" lon="-2.8353791">
        <ele>144.838</ele>
        <time>2021-04-01T09:38:44.819Z</time>
      </trkpt>
      <trkpt lat="43.1462532" lon="-2.8353847">
        <ele>144.849</ele>
        <time>2021-04-01T09:38:44.874Z</time>
      </trkpt>
      <trkpt lat="43.1462509" lon="-2.8353904">
        <ele>144.855</ele>
        <time>2021-04-01T09:38:44.929Z</time>
      </trkpt>
      <trkpt lat="43.1462486" lon="-2.835396">
        <ele>144.842</ele>
        <time>2021-04-01T09:38:44.984Z</time>
      </trkpt>
      <trkpt lat="43.1462462" lon="-2.8354012">
        <ele>144.83</ele>
        <time>2021-04-01T09:38:45.039Z</time>
      </trkpt>
      <trkpt lat="43.1462434" lon="-2.8354062">
        <ele>144.761</ele>
        <time>2021-04-01T09:38:45.094Z</time>
      </trkpt>
      <trkpt lat="43.1462408" lon="-2.8354111">
        <ele>144.729</ele>
        <time>2021-04-01T09:38:45.149Z</time>
      </trkpt>
      <trkpt lat="43.1462384" lon="-2.8354167">
        <ele>144.709</ele>
        <time>2021-04-01T09:38:45.201Z</time>
      </trkpt>
      <trkpt lat="43.1462361" lon="-2.835422">
        <ele>144.696</ele>
        <time>2021-04-01T09:38:45.253Z</time>
      </trkpt>
      <trkpt lat="43.1462338" lon="-2.8354277">
        <ele>144.689</ele>
        <time>2021-04-01T09:38:45.305Z</time>
      </trkpt>
      <trkpt lat="43.1462315" lon="-2.8354334">
        <ele>144.667</ele>
        <time>2021-04-01T09:38:45.357Z</time>
      </trkpt>
      <trkpt lat="43.1462291" lon="-2.8354389">
        <ele>144.643</ele>
        <time>2021-04-01T09:38:45.409Z</time>
      </trkpt>
      <trkpt lat="43.1462269" lon="-2.8354446">
        <ele>144.667</ele>
        <time>2021-04-01T09:38:45.461Z</time>
      </trkpt>
      <trkpt lat="43.1462246" lon="-2.8354501">
        <ele>144.655</ele>
        <time>2021-04-01T09:38:45.513Z</time>
      </trkpt>
      <trkpt lat="43.1462221" lon="-2.8354554">
        <ele>144.634</ele>
        <time>2021-04-01T09:38:45.565Z</time>
      </trkpt>
      <trkpt lat="43.1462199" lon="-2.8354608">
        <ele>144.64</ele>
        <time>2021-04-01T09:38:45.617Z</time>
      </trkpt>
      <trkpt lat="43.1462174" lon="-2.8354661">
        <ele>144.628</ele>
        <time>2021-04-01T09:38:45.670Z</time>
      </trkpt>
      <trkpt lat="43.1462149" lon="-2.8354715">
        <ele>144.62</ele>
        <time>2021-04-01T09:38:45.722Z</time>
      </trkpt>
      <trkpt lat="43.1462126" lon="-2.8354771">
        <ele>144.605</ele>
        <time>2021-04-01T09:38:45.774Z</time>
      </trkpt>
      <trkpt lat="43.1462104" lon="-2.8354827">
        <ele>144.605</ele>
        <time>2021-04-01T09:38:45.826Z</time>
      </trkpt>
      <trkpt lat="43.1462081" lon="-2.8354883">
        <ele>144.609</ele>
        <time>2021-04-01T09:38:45.878Z</time>
      </trkpt>
      <trkpt lat="43.1462057" lon="-2.8354938">
        <ele>144.603</ele>
        <time>2021-04-01T09:38:45.930Z</time>
      </trkpt>
      <trkpt lat="43.1462034" lon="-2.8354993">
        <ele>144.599</ele>
        <time>2021-04-01T09:38:45.982Z</time>
      </trkpt>
      <trkpt lat="43.1462009" lon="-2.8355047">
        <ele>144.589</ele>
        <time>2021-04-01T09:38:46.034Z</time>
      </trkpt>
      <trkpt lat="43.1461987" lon="-2.83551">
        <ele>144.561</ele>
        <time>2021-04-01T09:38:46.086Z</time>
      </trkpt>
      <trkpt lat="43.1461965" lon="-2.8355156">
        <ele>144.569</ele>
        <time>2021-04-01T09:38:46.139Z</time>
      </trkpt>
      <trkpt lat="43.1461942" lon="-2.8355212">
        <ele>144.562</ele>
        <time>2021-04-01T09:38:46.197Z</time>
      </trkpt>
      <trkpt lat="43.1461921" lon="-2.8355269">
        <ele>144.563</ele>
        <time>2021-04-01T09:38:46.255Z</time>
      </trkpt>
      <trkpt lat="43.1461899" lon="-2.8355326">
        <ele>144.582</ele>
        <time>2021-04-01T09:38:46.313Z</time>
      </trkpt>
      <trkpt lat="43.1461877" lon="-2.8355382">
        <ele>144.572</ele>
        <time>2021-04-01T09:38:46.371Z</time>
      </trkpt>
      <trkpt lat="43.1461854" lon="-2.8355436">
        <ele>144.562</ele>
        <time>2021-04-01T09:38:46.429Z</time>
      </trkpt>
      <trkpt lat="43.1461832" lon="-2.8355491">
        <ele>144.552</ele>
        <time>2021-04-01T09:38:46.487Z</time>
      </trkpt>
      <trkpt lat="43.146181" lon="-2.8355547">
        <ele>144.547</ele>
        <time>2021-04-01T09:38:46.545Z</time>
      </trkpt>
      <trkpt lat="43.146179" lon="-2.8355603">
        <ele>144.549</ele>
        <time>2021-04-01T09:38:46.603Z</time>
      </trkpt>
      <trkpt lat="43.1461767" lon="-2.835566">
        <ele>144.539</ele>
        <time>2021-04-01T09:38:46.661Z</time>
      </trkpt>
      <trkpt lat="43.1461746" lon="-2.8355716">
        <ele>144.525</ele>
        <time>2021-04-01T09:38:46.719Z</time>
      </trkpt>
      <trkpt lat="43.1461725" lon="-2.8355772">
        <ele>144.531</ele>
        <time>2021-04-01T09:38:46.777Z</time>
      </trkpt>
      <trkpt lat="43.1461703" lon="-2.8355827">
        <ele>144.531</ele>
        <time>2021-04-01T09:38:46.835Z</time>
      </trkpt>
      <trkpt lat="43.1461679" lon="-2.8355882">
        <ele>144.517</ele>
        <time>2021-04-01T09:38:46.893Z</time>
      </trkpt>
      <trkpt lat="43.1461658" lon="-2.8355936">
        <ele>144.502</ele>
        <time>2021-04-01T09:38:46.951Z</time>
      </trkpt>
      <trkpt lat="43.1461635" lon="-2.8355992">
        <ele>144.502</ele>
        <time>2021-04-01T09:38:47.009Z</time>
      </trkpt>
      <trkpt lat="43.1461613" lon="-2.8356048">
        <ele>144.496</ele>
        <time>2021-04-01T09:38:47.067Z</time>
      </trkpt>
      <trkpt lat="43.1461591" lon="-2.8356104">
        <ele>144.473</ele>
        <time>2021-04-01T09:38:47.125Z</time>
      </trkpt>
      <trkpt lat="43.1461569" lon="-2.8356159">
        <ele>144.45</ele>
        <time>2021-04-01T09:38:47.184Z</time>
      </trkpt>
      <trkpt lat="43.1461545" lon="-2.8356213">
        <ele>144.423</ele>
        <time>2021-04-01T09:38:47.239Z</time>
      </trkpt>
      <trkpt lat="43.1461524" lon="-2.8356269">
        <ele>144.438</ele>
        <time>2021-04-01T09:38:47.294Z</time>
      </trkpt>
      <trkpt lat="43.1461501" lon="-2.8356324">
        <ele>144.424</ele>
        <time>2021-04-01T09:38:47.349Z</time>
      </trkpt>
      <trkpt lat="43.1461479" lon="-2.835638">
        <ele>144.421</ele>
        <time>2021-04-01T09:38:47.404Z</time>
      </trkpt>
      <trkpt lat="43.1461457" lon="-2.8356435">
        <ele>144.415</ele>
        <time>2021-04-01T09:38:47.459Z</time>
      </trkpt>
      <trkpt lat="43.1461435" lon="-2.835649">
        <ele>144.412</ele>
        <time>2021-04-01T09:38:47.514Z</time>
      </trkpt>
      <trkpt lat="43.1461413" lon="-2.8356546">
        <ele>144.421</ele>
        <time>2021-04-01T09:38:47.569Z</time>
      </trkpt>
      <trkpt lat="43.1461391" lon="-2.8356602">
        <ele>144.423</ele>
        <time>2021-04-01T09:38:47.624Z</time>
      </trkpt>
      <trkpt lat="43.1461369" lon="-2.8356658">
        <ele>144.427</ele>
        <time>2021-04-01T09:38:47.679Z</time>
      </trkpt>
      <trkpt lat="43.1461346" lon="-2.8356713">
        <ele>144.422</ele>
        <time>2021-04-01T09:38:47.734Z</time>
      </trkpt>
      <trkpt lat="43.1461323" lon="-2.8356768">
        <ele>144.398</ele>
        <time>2021-04-01T09:38:47.789Z</time>
      </trkpt>
      <trkpt lat="43.1461301" lon="-2.8356823">
        <ele>144.381</ele>
        <time>2021-04-01T09:38:47.844Z</time>
      </trkpt>
      <trkpt lat="43.1461278" lon="-2.8356878">
        <ele>144.364</ele>
        <time>2021-04-01T09:38:47.899Z</time>
      </trkpt>
      <trkpt lat="43.1461256" lon="-2.8356935">
        <ele>144.347</ele>
        <time>2021-04-01T09:38:47.954Z</time>
      </trkpt>
      <trkpt lat="43.1461234" lon="-2.835699">
        <ele>144.34</ele>
        <time>2021-04-01T09:38:48.009Z</time>
      </trkpt>
      <trkpt lat="43.1461212" lon="-2.8357045">
        <ele>144.312</ele>
        <time>2021-04-01T09:38:48.064Z</time>
      </trkpt>
      <trkpt lat="43.1461191" lon="-2.83571">
        <ele>144.305</ele>
        <time>2021-04-01T09:38:48.119Z</time>
      </trkpt>
      <trkpt lat="43.146117" lon="-2.8357156">
        <ele>144.281</ele>
        <time>2021-04-01T09:38:48.174Z</time>
      </trkpt>
      <trkpt lat="43.1461149" lon="-2.8357213">
        <ele>144.275</ele>
        <time>2021-04-01T09:38:48.229Z</time>
      </trkpt>
      <trkpt lat="43.1461126" lon="-2.8357268">
        <ele>144.252</ele>
        <time>2021-04-01T09:38:48.284Z</time>
      </trkpt>
      <trkpt lat="43.1461106" lon="-2.8357324">
        <ele>144.24</ele>
        <time>2021-04-01T09:38:48.339Z</time>
      </trkpt>
      <trkpt lat="43.1461086" lon="-2.835738">
        <ele>144.215</ele>
        <time>2021-04-01T09:38:48.394Z</time>
      </trkpt>
      <trkpt lat="43.1461066" lon="-2.8357434">
        <ele>144.194</ele>
        <time>2021-04-01T09:38:48.449Z</time>
      </trkpt>
      <trkpt lat="43.1461044" lon="-2.8357489">
        <ele>144.17</ele>
        <time>2021-04-01T09:38:48.504Z</time>
      </trkpt>
      <trkpt lat="43.1461023" lon="-2.8357546">
        <ele>144.148</ele>
        <time>2021-04-01T09:38:48.559Z</time>
      </trkpt>
      <trkpt lat="43.1461004" lon="-2.8357603">
        <ele>144.127</ele>
        <time>2021-04-01T09:38:48.614Z</time>
      </trkpt>
      <trkpt lat="43.1460984" lon="-2.8357661">
        <ele>144.121</ele>
        <time>2021-04-01T09:38:48.669Z</time>
      </trkpt>
      <trkpt lat="43.1460964" lon="-2.8357718">
        <ele>144.1</ele>
        <time>2021-04-01T09:38:48.724Z</time>
      </trkpt>
      <trkpt lat="43.1460945" lon="-2.8357773">
        <ele>144.074</ele>
        <time>2021-04-01T09:38:48.779Z</time>
      </trkpt>
      <trkpt lat="43.1460925" lon="-2.835783">
        <ele>144.057</ele>
        <time>2021-04-01T09:38:48.834Z</time>
      </trkpt>
      <trkpt lat="43.1460905" lon="-2.8357885">
        <ele>144.046</ele>
        <time>2021-04-01T09:38:48.889Z</time>
      </trkpt>
      <trkpt lat="43.1460888" lon="-2.8357944">
        <ele>144.029</ele>
        <time>2021-04-01T09:38:48.944Z</time>
      </trkpt>
      <trkpt lat="43.1460867" lon="-2.8358002">
        <ele>144.009</ele>
        <time>2021-04-01T09:38:48.999Z</time>
      </trkpt>
      <trkpt lat="43.1460845" lon="-2.8358058">
        <ele>143.978</ele>
        <time>2021-04-01T09:38:49.054Z</time>
      </trkpt>
      <trkpt lat="43.1460823" lon="-2.8358114">
        <ele>143.965</ele>
        <time>2021-04-01T09:38:49.109Z</time>
      </trkpt>
      <trkpt lat="43.1460804" lon="-2.8358172">
        <ele>143.978</ele>
        <time>2021-04-01T09:38:49.164Z</time>
      </trkpt>
      <trkpt lat="43.1460783" lon="-2.8358228">
        <ele>143.955</ele>
        <time>2021-04-01T09:38:49.219Z</time>
      </trkpt>
      <trkpt lat="43.1460763" lon="-2.8358287">
        <ele>143.939</ele>
        <time>2021-04-01T09:38:49.274Z</time>
      </trkpt>
      <trkpt lat="43.1460742" lon="-2.8358344">
        <ele>143.92</ele>
        <time>2021-04-01T09:38:49.329Z</time>
      </trkpt>
      <trkpt lat="43.1460722" lon="-2.8358401">
        <ele>143.912</ele>
        <time>2021-04-01T09:38:49.384Z</time>
      </trkpt>
      <trkpt lat="43.1460703" lon="-2.8358458">
        <ele>143.907</ele>
        <time>2021-04-01T09:38:49.439Z</time>
      </trkpt>
      <trkpt lat="43.1460684" lon="-2.8358517">
        <ele>143.908</ele>
        <time>2021-04-01T09:38:49.494Z</time>
      </trkpt>
      <trkpt lat="43.1460665" lon="-2.8358575">
        <ele>143.893</ele>
        <time>2021-04-01T09:38:49.549Z</time>
      </trkpt>
    </trkseg>
  </trk>
</gpx>
